<?xml version='1.0' encoding='UTF-8'?><gpx version="1.1" creator="JPX - https://github.com/jenetics/jpx" xmlns="http://www.topografix.com/GPX/1/1"><trk><trkseg><trkpt lat="44.52331391016779" lon="11.374513208425174"><ele>36.00000000000001</ele><time>2026-05-01T06:08:38.999Z</time></trkpt><trkpt lat="44.52337721352989" lon="11.374559068060796"><ele>36.0</ele><time>2026-05-01T06:08:45Z</time></trkpt><trkpt lat="44.52344973849258" lon="11.3745861188223"><ele>36.0</ele><time>2026-05-01T06:08:50Z</time></trkpt><trkpt lat="44.52351233201097" lon="11.374568944426587"><ele>36.0</ele><time>2026-05-01T06:08:54Z</time></trkpt><trkpt lat="44.52356920476131" lon="11.37450397317166"><ele>36.0</ele><time>2026-05-01T06:08:59Z</time></trkpt><trkpt lat="44.52358928233001" lon="11.374417662819129"><ele>36.00000000000001</ele><time>2026-05-01T06:09:04Z</time></trkpt><trkpt lat="44.52361841613762" lon="11.374317576405046"><ele>36.0</ele><time>2026-05-01T06:09:10Z</time></trkpt><trkpt lat="44.52363358663532" lon="11.3742273794186"><ele>36.00000000000001</ele><time>2026-05-01T06:09:32Z</time></trkpt><trkpt lat="44.52357537067572" lon="11.37418836732717"><ele>36.0</ele><time>2026-05-01T06:10:01.999Z</time></trkpt><trkpt lat="44.523509061241114" lon="11.37413714400522"><ele>36.0</ele><time>2026-05-01T06:10:12.999Z</time></trkpt><trkpt lat="44.52345469260407" lon="11.374080702716954"><ele>36.0</ele><time>2026-05-01T06:10:15.999Z</time></trkpt><trkpt lat="44.52340731621029" lon="11.374014964719485"><ele>36.0</ele><time>2026-05-01T06:10:18.999Z</time></trkpt><trkpt lat="44.5233869714385" lon="11.373923432916104"><ele>36.00000000000001</ele><time>2026-05-01T06:10:21.999Z</time></trkpt><trkpt lat="44.52341456042546" lon="11.373818815147668"><ele>36.0</ele><time>2026-05-01T06:10:24.999Z</time></trkpt><trkpt lat="44.523446313981445" lon="11.373725783984398"><ele>36.333333333333336</ele><time>2026-05-01T06:10:27.999Z</time></trkpt><trkpt lat="44.523459388421784" lon="11.37361279939467"><ele>36.666666666666664</ele><time>2026-05-01T06:10:30.999Z</time></trkpt><trkpt lat="44.52343100039804" lon="11.373532059629946"><ele>37.0</ele><time>2026-05-01T06:10:32.999Z</time></trkpt><trkpt lat="44.523380334009566" lon="11.373473863860049"><ele>37.33333333333333</ele><time>2026-05-01T06:10:34.999Z</time></trkpt><trkpt lat="44.523311291020995" lon="11.373409635560341"><ele>37.666666666666664</ele><time>2026-05-01T06:10:38.999Z</time></trkpt><trkpt lat="44.52323526774921" lon="11.37334115450282"><ele>38.0</ele><time>2026-05-01T06:10:42.999Z</time></trkpt><trkpt lat="44.52316647120631" lon="11.373295287552496"><ele>38.0</ele><time>2026-05-01T06:10:45.999Z</time></trkpt><trkpt lat="44.523100361515475" lon="11.373259895036"><ele>38.0</ele><time>2026-05-01T06:10:49Z</time></trkpt><trkpt lat="44.52303908606201" lon="11.373228824681668"><ele>38.0</ele><time>2026-05-01T06:10:52Z</time></trkpt><trkpt lat="44.522979638077516" lon="11.373182715862292"><ele>38.0</ele><time>2026-05-01T06:10:54Z</time></trkpt><trkpt lat="44.522915306127885" lon="11.373146683490969"><ele>38.0</ele><time>2026-05-01T06:10:57Z</time></trkpt><trkpt lat="44.52281956784582" lon="11.373077830804524"><ele>38.0</ele><time>2026-05-01T06:11:00Z</time></trkpt><trkpt lat="44.52272604133989" lon="11.372978805980495"><ele>37.83333333333333</ele><time>2026-05-01T06:11:03Z</time></trkpt><trkpt lat="44.522698533110635" lon="11.372887645611193"><ele>37.666666666666664</ele><time>2026-05-01T06:11:05Z</time></trkpt><trkpt lat="44.52272105268657" lon="11.372776797731346"><ele>37.5</ele><time>2026-05-01T06:11:07Z</time></trkpt><trkpt lat="44.52274312273355" lon="11.372674360528528"><ele>37.333333333333336</ele><time>2026-05-01T06:11:09Z</time></trkpt><trkpt lat="44.52272324246015" lon="11.372570275059331"><ele>37.16666666666667</ele><time>2026-05-01T06:11:12Z</time></trkpt><trkpt lat="44.52272894381301" lon="11.372454748845364"><ele>37.0</ele><time>2026-05-01T06:11:14Z</time></trkpt><trkpt lat="44.52273335228484" lon="11.372342225806364"><ele>37.0</ele><time>2026-05-01T06:11:17Z</time></trkpt><trkpt lat="44.5227710537279" lon="11.372254368987903"><ele>37.0</ele><time>2026-05-01T06:11:20Z</time></trkpt><trkpt lat="44.522828887253574" lon="11.372194656521831"><ele>37.0</ele><time>2026-05-01T06:11:23Z</time></trkpt><trkpt lat="44.52289217341416" lon="11.372177971781777"><ele>37.0</ele><time>2026-05-01T06:11:26Z</time></trkpt><trkpt lat="44.5229536782175" lon="11.372144041100452"><ele>37.0</ele><time>2026-05-01T06:11:29Z</time></trkpt><trkpt lat="44.52309511659541" lon="11.372108892029578"><ele>37.0</ele><time>2026-05-01T06:11:33Z</time></trkpt><trkpt lat="44.52317797044974" lon="11.372039845327485"><ele>37.0</ele><time>2026-05-01T06:11:35Z</time></trkpt><trkpt lat="44.5233179144987" lon="11.371927425426753"><ele>37.0</ele><time>2026-05-01T06:11:38Z</time></trkpt><trkpt lat="44.52338323344399" lon="11.371888657070812"><ele>37.0</ele><time>2026-05-01T06:11:40Z</time></trkpt><trkpt lat="44.52344902375876" lon="11.371834679867748"><ele>37.0</ele><time>2026-05-01T06:11:42Z</time></trkpt><trkpt lat="44.52352880510035" lon="11.371787944795267"><ele>37.0</ele><time>2026-05-01T06:11:44Z</time></trkpt><trkpt lat="44.52358313537302" lon="11.371738373573079"><ele>35.5</ele><time>2026-05-01T06:11:46Z</time></trkpt><trkpt lat="44.52396650869659" lon="11.371536965385644"><ele>34.0</ele><time>2026-05-01T06:11:48Z</time></trkpt><trkpt lat="44.52405156867255" lon="11.371467920952888"><ele>34.0</ele><time>2026-05-01T06:11:50Z</time></trkpt><trkpt lat="44.52413345297526" lon="11.371392894847544"><ele>34.0</ele><time>2026-05-01T06:11:52Z</time></trkpt><trkpt lat="44.5242102263734" lon="11.371288969576806"><ele>34.0</ele><time>2026-05-01T06:11:54Z</time></trkpt><trkpt lat="44.52425630911721" lon="11.371163550883926"><ele>34.0</ele><time>2026-05-01T06:11:56Z</time></trkpt><trkpt lat="44.52425880557673" lon="11.37101245976467"><ele>34.0</ele><time>2026-05-01T06:11:58Z</time></trkpt><trkpt lat="44.52422627139052" lon="11.370875012052725"><ele>34.0</ele><time>2026-05-01T06:12:00Z</time></trkpt><trkpt lat="44.52419113834428" lon="11.370742500735224"><ele>34.0</ele><time>2026-05-01T06:12:02Z</time></trkpt><trkpt lat="44.52414007920903" lon="11.370615901530902"><ele>34.0</ele><time>2026-05-01T06:12:04Z</time></trkpt><trkpt lat="44.52410512369817" lon="11.370481635282438"><ele>34.0</ele><time>2026-05-01T06:12:06Z</time></trkpt><trkpt lat="44.524066532907106" lon="11.370356201527775"><ele>34.0</ele><time>2026-05-01T06:12:08Z</time></trkpt><trkpt lat="44.5240353855913" lon="11.37022053018896"><ele>34.0</ele><time>2026-05-01T06:12:10Z</time></trkpt><trkpt lat="44.52401764117756" lon="11.370073179486068"><ele>34.0</ele><time>2026-05-01T06:12:11.999Z</time></trkpt><trkpt lat="44.52400696807124" lon="11.3699376309081"><ele>34.0</ele><time>2026-05-01T06:12:13.999Z</time></trkpt><trkpt lat="44.52405878373766" lon="11.36980088206763"><ele>34.0</ele><time>2026-05-01T06:12:15.999Z</time></trkpt><trkpt lat="44.52413060111444" lon="11.369700052878901"><ele>34.0</ele><time>2026-05-01T06:12:17.999Z</time></trkpt><trkpt lat="44.524218151238415" lon="11.36963050526551"><ele>34.0</ele><time>2026-05-01T06:12:19.999Z</time></trkpt><trkpt lat="44.5243231520366" lon="11.36959801424446"><ele>34.0</ele><time>2026-05-01T06:12:21.999Z</time></trkpt><trkpt lat="44.52443045657213" lon="11.36958019167384"><ele>34.0</ele><time>2026-05-01T06:12:23.999Z</time></trkpt><trkpt lat="44.52453543705123" lon="11.369564770669992"><ele>34.0</ele><time>2026-05-01T06:12:25.999Z</time></trkpt><trkpt lat="44.524638235845465" lon="11.369538744752326"><ele>34.0</ele><time>2026-05-01T06:12:27.999Z</time></trkpt><trkpt lat="44.52477355016564" lon="11.36949630592039"><ele>34.5</ele><time>2026-05-01T06:12:31.999Z</time></trkpt><trkpt lat="44.52484887923639" lon="11.369506201883947"><ele>35.0</ele><time>2026-05-01T06:12:32.999Z</time></trkpt><trkpt lat="44.524916782816476" lon="11.369497923845108"><ele>35.5</ele><time>2026-05-01T06:12:33.999Z</time></trkpt><trkpt lat="44.52502387810264" lon="11.369463514251237"><ele>36.0</ele><time>2026-05-01T06:12:35.999Z</time></trkpt><trkpt lat="44.52509390441391" lon="11.36945050851315"><ele>36.5</ele><time>2026-05-01T06:12:36.999Z</time></trkpt><trkpt lat="44.52519977666935" lon="11.369447304529634"><ele>37.0</ele><time>2026-05-01T06:12:38.999Z</time></trkpt><trkpt lat="44.52531679398669" lon="11.369428760368814"><ele>37.2</ele><time>2026-05-01T06:12:40.999Z</time></trkpt><trkpt lat="44.525428695744345" lon="11.369409088859463"><ele>37.400000000000006</ele><time>2026-05-01T06:12:42.999Z</time></trkpt><trkpt lat="44.52553444620623" lon="11.369375244059066"><ele>37.599999999999994</ele><time>2026-05-01T06:12:44.999Z</time></trkpt><trkpt lat="44.52563951479295" lon="11.369328349081032"><ele>37.8</ele><time>2026-05-01T06:12:46.999Z</time></trkpt><trkpt lat="44.52573542837098" lon="11.369249788593503"><ele>38.0</ele><time>2026-05-01T06:12:48.999Z</time></trkpt><trkpt lat="44.52582204646349" lon="11.369165955215088"><ele>38.0</ele><time>2026-05-01T06:12:50.999Z</time></trkpt><trkpt lat="44.52591480837417" lon="11.369086770062077"><ele>38.0</ele><time>2026-05-01T06:12:52.999Z</time></trkpt><trkpt lat="44.52600825482242" lon="11.369022918444578"><ele>38.0</ele><time>2026-05-01T06:12:55Z</time></trkpt><trkpt lat="44.52610853285042" lon="11.368980947061758"><ele>38.0</ele><time>2026-05-01T06:12:57Z</time></trkpt><trkpt lat="44.52621615500183" lon="11.368928434680615"><ele>38.0</ele><time>2026-05-01T06:12:59Z</time></trkpt><trkpt lat="44.52631619339056" lon="11.368876315228343"><ele>38.0</ele><time>2026-05-01T06:13:01Z</time></trkpt><trkpt lat="44.526420951178096" lon="11.368858070875131"><ele>38.0</ele><time>2026-05-01T06:13:03Z</time></trkpt><trkpt lat="44.52652733519796" lon="11.36886053641946"><ele>38.0</ele><time>2026-05-01T06:13:05Z</time></trkpt><trkpt lat="44.52663408819163" lon="11.368862528933612"><ele>38.0</ele><time>2026-05-01T06:13:07Z</time></trkpt><trkpt lat="44.526739260089336" lon="11.368866052056154"><ele>38.0</ele><time>2026-05-01T06:13:09Z</time></trkpt><trkpt lat="44.52684990250427" lon="11.368859763320438"><ele>38.0</ele><time>2026-05-01T06:13:11Z</time></trkpt><trkpt lat="44.52696095321596" lon="11.3688357664032"><ele>38.0</ele><time>2026-05-01T06:13:13Z</time></trkpt><trkpt lat="44.52706540047784" lon="11.368773383416215"><ele>38.0</ele><time>2026-05-01T06:13:15Z</time></trkpt><trkpt lat="44.52715867908063" lon="11.368682619541108"><ele>38.0</ele><time>2026-05-01T06:13:17Z</time></trkpt><trkpt lat="44.52724900351591" lon="11.368583769352131"><ele>37.8</ele><time>2026-05-01T06:13:19Z</time></trkpt><trkpt lat="44.527345058550644" lon="11.368503155234414"><ele>37.599999999999994</ele><time>2026-05-01T06:13:21Z</time></trkpt><trkpt lat="44.527449747147244" lon="11.368429348375567"><ele>37.400000000000006</ele><time>2026-05-01T06:13:23Z</time></trkpt><trkpt lat="44.52754863253058" lon="11.368355516689201"><ele>37.2</ele><time>2026-05-01T06:13:25Z</time></trkpt><trkpt lat="44.52763853309034" lon="11.368274229869838"><ele>37.0</ele><time>2026-05-01T06:13:27Z</time></trkpt><trkpt lat="44.52772660608831" lon="11.368196700442999"><ele>37.0</ele><time>2026-05-01T06:13:29Z</time></trkpt><trkpt lat="44.52780594149557" lon="11.368104585363056"><ele>37.0</ele><time>2026-05-01T06:13:31Z</time></trkpt><trkpt lat="44.52784638867857" lon="11.367972303405452"><ele>37.0</ele><time>2026-05-01T06:13:33Z</time></trkpt><trkpt lat="44.52783353079897" lon="11.3678327496605"><ele>37.0</ele><time>2026-05-01T06:13:35Z</time></trkpt><trkpt lat="44.52779255893328" lon="11.367717947020061"><ele>37.0</ele><time>2026-05-01T06:13:37Z</time></trkpt><trkpt lat="44.52775633595776" lon="11.367612486103418"><ele>36.833333333333336</ele><time>2026-05-01T06:13:39Z</time></trkpt><trkpt lat="44.52772013641939" lon="11.367509803532888"><ele>36.66666666666667</ele><time>2026-05-01T06:13:41Z</time></trkpt><trkpt lat="44.52770549173526" lon="11.36741928373494"><ele>36.5</ele><time>2026-05-01T06:13:44Z</time></trkpt><trkpt lat="44.52767336425703" lon="11.367271405354789"><ele>36.333333333333336</ele><time>2026-05-01T06:13:46Z</time></trkpt><trkpt lat="44.527680912403866" lon="11.367169900745038"><ele>36.166666666666664</ele><time>2026-05-01T06:13:48Z</time></trkpt><trkpt lat="44.52775928816027" lon="11.367138762411"><ele>36.0</ele><time>2026-05-01T06:13:51Z</time></trkpt><trkpt lat="44.5278326147189" lon="11.367091330101589"><ele>36.0</ele><time>2026-05-01T06:13:54Z</time></trkpt><trkpt lat="44.52791946276712" lon="11.36707615450223"><ele>36.0</ele><time>2026-05-01T06:13:56Z</time></trkpt><trkpt lat="44.52795803823686" lon="11.366983460124448"><ele>36.0</ele><time>2026-05-01T06:13:58Z</time></trkpt><trkpt lat="44.52791752484057" lon="11.366910648819832"><ele>36.0</ele><time>2026-05-01T06:13:59Z</time></trkpt><trkpt lat="44.527882558578085" lon="11.366819441803804"><ele>36.0</ele><time>2026-05-01T06:14:06Z</time></trkpt><trkpt lat="44.5278117729747" lon="11.366750927818401"><ele>36.0</ele><time>2026-05-01T06:14:09Z</time></trkpt><trkpt lat="44.527818970053005" lon="11.366624362101362"><ele>36.0</ele><time>2026-05-01T06:14:12Z</time></trkpt><trkpt lat="44.52787754888803" lon="11.366545537838224"><ele>36.0</ele><time>2026-05-01T06:14:14Z</time></trkpt><trkpt lat="44.52792109381658" lon="11.366459007892315"><ele>36.0</ele><time>2026-05-01T06:14:16Z</time></trkpt><trkpt lat="44.52793932363802" lon="11.366356515272871"><ele>36.0</ele><time>2026-05-01T06:14:18Z</time></trkpt><trkpt lat="44.527957299980145" lon="11.36625932899164"><ele>36.0</ele><time>2026-05-01T06:14:19.999Z</time></trkpt><trkpt lat="44.527959238280935" lon="11.366165179515502"><ele>36.0</ele><time>2026-05-01T06:14:21.999Z</time></trkpt><trkpt lat="44.52794060050955" lon="11.366026555176795"><ele>35.8</ele><time>2026-05-01T06:14:24.999Z</time></trkpt><trkpt lat="44.52789946785184" lon="11.365910956757345"><ele>35.6</ele><time>2026-05-01T06:14:26.999Z</time></trkpt><trkpt lat="44.52783500675595" lon="11.365804839450387"><ele>35.4</ele><time>2026-05-01T06:14:28.999Z</time></trkpt><trkpt lat="44.527759588396414" lon="11.365700400175083"><ele>35.2</ele><time>2026-05-01T06:14:30.999Z</time></trkpt><trkpt lat="44.527682798998" lon="11.36559646326061"><ele>35.0</ele><time>2026-05-01T06:14:32.999Z</time></trkpt><trkpt lat="44.527612929118256" lon="11.365485285489855"><ele>35.0</ele><time>2026-05-01T06:14:34.999Z</time></trkpt><trkpt lat="44.52754583556416" lon="11.365376805612852"><ele>35.0</ele><time>2026-05-01T06:14:36.999Z</time></trkpt><trkpt lat="44.52747820702574" lon="11.365262853850231"><ele>35.0</ele><time>2026-05-01T06:14:38.999Z</time></trkpt><trkpt lat="44.52740784501417" lon="11.365149431265312"><ele>35.0</ele><time>2026-05-01T06:14:40.999Z</time></trkpt><trkpt lat="44.52734345923781" lon="11.365038132226513"><ele>35.0</ele><time>2026-05-01T06:14:42.999Z</time></trkpt><trkpt lat="44.527274207945304" lon="11.36493282964761"><ele>35.0</ele><time>2026-05-01T06:14:44.999Z</time></trkpt><trkpt lat="44.52720625767173" lon="11.364824239558182"><ele>35.0</ele><time>2026-05-01T06:14:46.999Z</time></trkpt><trkpt lat="44.52714164953795" lon="11.364714319024015"><ele>35.0</ele><time>2026-05-01T06:14:48.999Z</time></trkpt><trkpt lat="44.52707274682448" lon="11.364599630918693"><ele>35.0</ele><time>2026-05-01T06:14:50.999Z</time></trkpt><trkpt lat="44.527002634109465" lon="11.364485045851197"><ele>35.0</ele><time>2026-05-01T06:14:52.999Z</time></trkpt><trkpt lat="44.526938142960056" lon="11.3643711116336"><ele>35.2</ele><time>2026-05-01T06:14:54.999Z</time></trkpt><trkpt lat="44.52686678864743" lon="11.364254169141034"><ele>35.4</ele><time>2026-05-01T06:14:56.999Z</time></trkpt><trkpt lat="44.52680670150373" lon="11.364137743152726"><ele>35.6</ele><time>2026-05-01T06:14:58.999Z</time></trkpt><trkpt lat="44.52674233775581" lon="11.364024858316865"><ele>35.8</ele><time>2026-05-01T06:15:01Z</time></trkpt><trkpt lat="44.526676023400924" lon="11.363914507940367"><ele>36.0</ele><time>2026-05-01T06:15:03Z</time></trkpt><trkpt lat="44.52661051058298" lon="11.363798659768948"><ele>36.0</ele><time>2026-05-01T06:15:05Z</time></trkpt><trkpt lat="44.52654184559896" lon="11.363684330969967"><ele>36.0</ele><time>2026-05-01T06:15:07Z</time></trkpt><trkpt lat="44.5264811436897" lon="11.36355997017077"><ele>36.0</ele><time>2026-05-01T06:15:09Z</time></trkpt><trkpt lat="44.52648453059727" lon="11.363405283711778"><ele>36.0</ele><time>2026-05-01T06:15:11Z</time></trkpt><trkpt lat="44.526489525376256" lon="11.363260140873214"><ele>36.0</ele><time>2026-05-01T06:15:13Z</time></trkpt><trkpt lat="44.5264381656724" lon="11.363132900322132"><ele>36.0</ele><time>2026-05-01T06:15:15Z</time></trkpt><trkpt lat="44.52635094998096" lon="11.363052071725765"><ele>36.0</ele><time>2026-05-01T06:15:17Z</time></trkpt><trkpt lat="44.526259501807026" lon="11.363022832224493"><ele>36.0</ele><time>2026-05-01T06:15:19Z</time></trkpt><trkpt lat="44.526178020647514" lon="11.363023685451566"><ele>36.0</ele><time>2026-05-01T06:15:21Z</time></trkpt><trkpt lat="44.52609505244663" lon="11.362977540327405"><ele>36.0</ele><time>2026-05-01T06:15:23Z</time></trkpt><trkpt lat="44.5260316993141" lon="11.362942565708755"><ele>36.0</ele><time>2026-05-01T06:15:25Z</time></trkpt><trkpt lat="44.52595231501758" lon="11.362933937794393"><ele>36.2</ele><time>2026-05-01T06:15:28Z</time></trkpt><trkpt lat="44.52590257497203" lon="11.362821413542258"><ele>36.400000000000006</ele><time>2026-05-01T06:15:30Z</time></trkpt><trkpt lat="44.5258442572949" lon="11.362723753717614"><ele>36.6</ele><time>2026-05-01T06:15:32Z</time></trkpt><trkpt lat="44.525836974713215" lon="11.362567712816515"><ele>36.800000000000004</ele><time>2026-05-01T06:15:34Z</time></trkpt><trkpt lat="44.525777370045404" lon="11.362469978851273"><ele>37.0</ele><time>2026-05-01T06:15:36Z</time></trkpt><trkpt lat="44.5257185946546" lon="11.362373604661139"><ele>37.0</ele><time>2026-05-01T06:15:38Z</time></trkpt><trkpt lat="44.52566162688756" lon="11.362280194442"><ele>37.0</ele><time>2026-05-01T06:15:40Z</time></trkpt><trkpt lat="44.52560802029438" lon="11.362192295566699"><ele>37.0</ele><time>2026-05-01T06:15:42Z</time></trkpt><trkpt lat="44.525554659343676" lon="11.362103524837378"><ele>37.0</ele><time>2026-05-01T06:15:44Z</time></trkpt><trkpt lat="44.52549734969346" lon="11.362017148722694"><ele>37.0</ele><time>2026-05-01T06:15:46Z</time></trkpt><trkpt lat="44.5253902816393" lon="11.362076371219242"><ele>36.6</ele><time>2026-05-01T06:15:47Z</time></trkpt><trkpt lat="44.52532672024086" lon="11.361986088110447"><ele>36.2</ele><time>2026-05-01T06:15:49Z</time></trkpt><trkpt lat="44.525252258530834" lon="11.361900774580727"><ele>35.8</ele><time>2026-05-01T06:15:51Z</time></trkpt><trkpt lat="44.52517986020679" lon="11.361812700774504"><ele>35.4</ele><time>2026-05-01T06:15:53Z</time></trkpt><trkpt lat="44.52509817606334" lon="11.361715098155111"><ele>35.0</ele><time>2026-05-01T06:15:55Z</time></trkpt><trkpt lat="44.52513206945342" lon="11.361539305490213"><ele>35.0</ele><time>2026-05-01T06:15:56Z</time></trkpt><trkpt lat="44.5250475480971" lon="11.361435255381098"><ele>35.0</ele><time>2026-05-01T06:15:58Z</time></trkpt><trkpt lat="44.524962612338825" lon="11.36133274357176"><ele>35.0</ele><time>2026-05-01T06:16:00Z</time></trkpt><trkpt lat="44.524804809074894" lon="11.361353845712292"><ele>35.0</ele><time>2026-05-01T06:16:02Z</time></trkpt><trkpt lat="44.52471478023071" lon="11.361259305411071"><ele>35.2</ele><time>2026-05-01T06:16:04Z</time></trkpt><trkpt lat="44.52462267067609" lon="11.361163786815666"><ele>35.4</ele><time>2026-05-01T06:16:06Z</time></trkpt><trkpt lat="44.52453658128598" lon="11.361073409226128"><ele>35.6</ele><time>2026-05-01T06:16:08Z</time></trkpt><trkpt lat="44.52445631401776" lon="11.36097851280131"><ele>35.8</ele><time>2026-05-01T06:16:10Z</time></trkpt><trkpt lat="44.52437558782753" lon="11.360901543474784"><ele>36.0</ele><time>2026-05-01T06:16:12Z</time></trkpt><trkpt lat="44.52429483328323" lon="11.360825080335026"><ele>36.2</ele><time>2026-05-01T06:16:14Z</time></trkpt><trkpt lat="44.524217777489476" lon="11.360754915404062"><ele>36.400000000000006</ele><time>2026-05-01T06:16:16Z</time></trkpt><trkpt lat="44.52414014645116" lon="11.36067657610345"><ele>36.6</ele><time>2026-05-01T06:16:18Z</time></trkpt><trkpt lat="44.52406994100832" lon="11.360636425256656"><ele>36.800000000000004</ele><time>2026-05-01T06:16:18.999Z</time></trkpt><trkpt lat="44.52405872304566" lon="11.360412376052876"><ele>37.0</ele><time>2026-05-01T06:16:20.999Z</time></trkpt><trkpt lat="44.52396289554583" lon="11.360320521999222"><ele>37.2</ele><time>2026-05-01T06:16:22.999Z</time></trkpt><trkpt lat="44.52387352478715" lon="11.360234857574492"><ele>37.400000000000006</ele><time>2026-05-01T06:16:24.999Z</time></trkpt><trkpt lat="44.523793936313886" lon="11.360159235492002"><ele>37.599999999999994</ele><time>2026-05-01T06:16:26.999Z</time></trkpt><trkpt lat="44.523712857077264" lon="11.360084179558248"><ele>37.8</ele><time>2026-05-01T06:16:28.999Z</time></trkpt><trkpt lat="44.523631816214106" lon="11.360009159091465"><ele>38.0</ele><time>2026-05-01T06:16:30.999Z</time></trkpt><trkpt lat="44.523432487972826" lon="11.359824611416764"><ele>37.5</ele><time>2026-05-01T06:16:39.999Z</time></trkpt><trkpt lat="44.5233602929725" lon="11.359757686070022"><ele>37.0</ele><time>2026-05-01T06:16:41.999Z</time></trkpt><trkpt lat="44.5233071189426" lon="11.359707968619864"><ele>36.5</ele><time>2026-05-01T06:16:42.999Z</time></trkpt><trkpt lat="44.52324578467144" lon="11.359650079729795"><ele>36.0</ele><time>2026-05-01T06:16:43.999Z</time></trkpt><trkpt lat="44.52319111403035" lon="11.359598480196894"><ele>35.5</ele><time>2026-05-01T06:16:44.999Z</time></trkpt><trkpt lat="44.52308327812952" lon="11.359496701673299"><ele>35.0</ele><time>2026-05-01T06:16:46.999Z</time></trkpt><trkpt lat="44.52301889198916" lon="11.359435932406402"><ele>35.0</ele><time>2026-05-01T06:16:48.999Z</time></trkpt><trkpt lat="44.52293627073536" lon="11.359481668272913"><ele>35.0</ele><time>2026-05-01T06:16:49.999Z</time></trkpt><trkpt lat="44.52288784405513" lon="11.359402073865136"><ele>35.0</ele><time>2026-05-01T06:16:51.999Z</time></trkpt><trkpt lat="44.52281822843306" lon="11.35934126982897"><ele>35.0</ele><time>2026-05-01T06:16:53.999Z</time></trkpt><trkpt lat="44.52275053405718" lon="11.359295828731595"><ele>35.0</ele><time>2026-05-01T06:16:55.999Z</time></trkpt><trkpt lat="44.52268700138846" lon="11.359237430033302"><ele>35.0</ele><time>2026-05-01T06:16:57.999Z</time></trkpt><trkpt lat="44.52234697484575" lon="11.358990236044555"><ele>35.0</ele><time>2026-05-01T06:17:00.999Z</time></trkpt><trkpt lat="44.52226428714624" lon="11.358910486901843"><ele>35.0</ele><time>2026-05-01T06:17:02.999Z</time></trkpt><trkpt lat="44.52217174677448" lon="11.35884567690055"><ele>35.0</ele><time>2026-05-01T06:17:04.999Z</time></trkpt><trkpt lat="44.52216695227501" lon="11.358677427819668"><ele>35.0</ele><time>2026-05-01T06:17:05.999Z</time></trkpt><trkpt lat="44.52207073651191" lon="11.358615893526066"><ele>35.0</ele><time>2026-05-01T06:17:08Z</time></trkpt><trkpt lat="44.52197700701524" lon="11.35855594931041"><ele>35.4</ele><time>2026-05-01T06:17:10Z</time></trkpt><trkpt lat="44.52188357962953" lon="11.358495086605854"><ele>35.8</ele><time>2026-05-01T06:17:12Z</time></trkpt><trkpt lat="44.521790788085404" lon="11.35843418221968"><ele>36.2</ele><time>2026-05-01T06:17:14Z</time></trkpt><trkpt lat="44.52169872934311" lon="11.358373758767737"><ele>36.6</ele><time>2026-05-01T06:17:16Z</time></trkpt><trkpt lat="44.52159320175413" lon="11.358304494875151"><ele>37.0</ele><time>2026-05-01T06:17:19Z</time></trkpt><trkpt lat="44.5214979755857" lon="11.358241992589017"><ele>37.0</ele><time>2026-05-01T06:17:21Z</time></trkpt><trkpt lat="44.521427269966246" lon="11.358195584406923"><ele>37.0</ele><time>2026-05-01T06:17:22Z</time></trkpt><trkpt lat="44.521333286487" lon="11.358133897404214"><ele>37.0</ele><time>2026-05-01T06:17:24Z</time></trkpt><trkpt lat="44.52124070372125" lon="11.358073175607773"><ele>37.0</ele><time>2026-05-01T06:17:26Z</time></trkpt><trkpt lat="44.52113861188547" lon="11.358155664885853"><ele>37.0</ele><time>2026-05-01T06:17:29Z</time></trkpt><trkpt lat="44.52107962482299" lon="11.35812091421378"><ele>37.2</ele><time>2026-05-01T06:17:30Z</time></trkpt><trkpt lat="44.52101983364144" lon="11.358088388999297"><ele>37.400000000000006</ele><time>2026-05-01T06:17:31Z</time></trkpt><trkpt lat="44.52092155492661" lon="11.358018362155637"><ele>37.599999999999994</ele><time>2026-05-01T06:17:33Z</time></trkpt><trkpt lat="44.52082635998065" lon="11.357956667928166"><ele>37.8</ele><time>2026-05-01T06:17:35Z</time></trkpt><trkpt lat="44.52073147513755" lon="11.357889543033586"><ele>38.0</ele><time>2026-05-01T06:17:37Z</time></trkpt><trkpt lat="44.5206394919261" lon="11.357825032449977"><ele>38.0</ele><time>2026-05-01T06:17:39Z</time></trkpt><trkpt lat="44.520543830076996" lon="11.357761513730965"><ele>38.0</ele><time>2026-05-01T06:17:41Z</time></trkpt><trkpt lat="44.52044842104786" lon="11.357691743443672"><ele>38.0</ele><time>2026-05-01T06:17:43Z</time></trkpt><trkpt lat="44.520350294017874" lon="11.357626961060074"><ele>38.0</ele><time>2026-05-01T06:17:45Z</time></trkpt><trkpt lat="44.52025156128056" lon="11.357566769566235"><ele>38.0</ele><time>2026-05-01T06:17:47Z</time></trkpt><trkpt lat="44.520194646039805" lon="11.35738940498819"><ele>37.6</ele><time>2026-05-01T06:17:49Z</time></trkpt><trkpt lat="44.520060224751326" lon="11.357442170406287"><ele>37.199999999999996</ele><time>2026-05-01T06:17:51Z</time></trkpt><trkpt lat="44.519964602828566" lon="11.357379232002504"><ele>36.8</ele><time>2026-05-01T06:17:53Z</time></trkpt><trkpt lat="44.51986304619194" lon="11.357310002135966"><ele>36.4</ele><time>2026-05-01T06:17:55Z</time></trkpt><trkpt lat="44.519782509215" lon="11.357263481922429"><ele>36.0</ele><time>2026-05-01T06:17:57Z</time></trkpt><trkpt lat="44.51968332024755" lon="11.357196756269499"><ele>36.0</ele><time>2026-05-01T06:17:59Z</time></trkpt><trkpt lat="44.519584724603945" lon="11.357128507501159"><ele>36.0</ele><time>2026-05-01T06:18:01Z</time></trkpt><trkpt lat="44.51949061958328" lon="11.357064967474244"><ele>36.0</ele><time>2026-05-01T06:18:03Z</time></trkpt><trkpt lat="44.51940037062245" lon="11.357006958888391"><ele>36.0</ele><time>2026-05-01T06:18:05Z</time></trkpt><trkpt lat="44.5193068213601" lon="11.356952845528344"><ele>36.0</ele><time>2026-05-01T06:18:07Z</time></trkpt><trkpt lat="44.519219610084605" lon="11.356907798654673"><ele>36.666666666666664</ele><time>2026-05-01T06:18:09Z</time></trkpt><trkpt lat="44.51913176470343" lon="11.356850046452676"><ele>37.333333333333336</ele><time>2026-05-01T06:18:11Z</time></trkpt><trkpt lat="44.51905477659453" lon="11.35681199835567"><ele>38.0</ele><time>2026-05-01T06:18:15Z</time></trkpt><trkpt lat="44.51898429657547" lon="11.356777158518833"><ele>38.66666666666667</ele><time>2026-05-01T06:18:18Z</time></trkpt><trkpt lat="44.51889960713268" lon="11.356739914720485"><ele>39.333333333333336</ele><time>2026-05-01T06:18:21Z</time></trkpt><trkpt lat="44.51883362457387" lon="11.356689751113317"><ele>40.0</ele><time>2026-05-01T06:18:24.999Z</time></trkpt><trkpt lat="44.51876404881592" lon="11.356628593158765"><ele>40.14285714285714</ele><time>2026-05-01T06:18:28.999Z</time></trkpt><trkpt lat="44.518684695924044" lon="11.356570020886892"><ele>40.285714285714285</ele><time>2026-05-01T06:18:31.999Z</time></trkpt><trkpt lat="44.51862535798704" lon="11.356535066873768"><ele>40.42857142857143</ele><time>2026-05-01T06:18:33.999Z</time></trkpt><trkpt lat="44.518555310074525" lon="11.356488674694198"><ele>40.57142857142857</ele><time>2026-05-01T06:18:35.999Z</time></trkpt><trkpt lat="44.51849485065139" lon="11.356441611334716"><ele>40.714285714285715</ele><time>2026-05-01T06:18:37.999Z</time></trkpt><trkpt lat="44.51842943812271" lon="11.356392424710291"><ele>40.857142857142854</ele><time>2026-05-01T06:18:39.999Z</time></trkpt><trkpt lat="44.518368284556004" lon="11.356343305312386"><ele>41.0</ele><time>2026-05-01T06:18:41.999Z</time></trkpt><trkpt lat="44.518293236614866" lon="11.35628840520879"><ele>40.666666666666664</ele><time>2026-05-01T06:18:43.999Z</time></trkpt><trkpt lat="44.518211879420164" lon="11.356227610550427"><ele>40.33333333333333</ele><time>2026-05-01T06:18:45.999Z</time></trkpt><trkpt lat="44.518127622424274" lon="11.356168780737844"><ele>40.0</ele><time>2026-05-01T06:18:47.999Z</time></trkpt><trkpt lat="44.518047383295986" lon="11.356106983595941"><ele>39.666666666666664</ele><time>2026-05-01T06:18:49.999Z</time></trkpt><trkpt lat="44.51798906860454" lon="11.356045002918083"><ele>39.333333333333336</ele><time>2026-05-01T06:18:53.999Z</time></trkpt><trkpt lat="44.51792631330036" lon="11.35597009097751"><ele>39.0</ele><time>2026-05-01T06:18:56.999Z</time></trkpt><trkpt lat="44.51787125772193" lon="11.355921040855396"><ele>39.0</ele><time>2026-05-01T06:18:58.999Z</time></trkpt><trkpt lat="44.517810767700034" lon="11.355871791708019"><ele>39.0</ele><time>2026-05-01T06:19:00.999Z</time></trkpt><trkpt lat="44.51774973770731" lon="11.355806051545414"><ele>39.0</ele><time>2026-05-01T06:19:01.999Z</time></trkpt><trkpt lat="44.517691621726534" lon="11.355761770833544"><ele>39.0</ele><time>2026-05-01T06:19:02.999Z</time></trkpt><trkpt lat="44.517603498724675" lon="11.355691156024175"><ele>39.0</ele><time>2026-05-01T06:19:04.999Z</time></trkpt><trkpt lat="44.517583167688336" lon="11.355588205423164"><ele>39.0</ele><time>2026-05-01T06:19:05.999Z</time></trkpt><trkpt lat="44.51750394078297" lon="11.355523298418923"><ele>39.2</ele><time>2026-05-01T06:19:07.999Z</time></trkpt><trkpt lat="44.517414737385266" lon="11.355450218079916"><ele>39.4</ele><time>2026-05-01T06:19:09.999Z</time></trkpt><trkpt lat="44.51732585916092" lon="11.355377404206514"><ele>39.6</ele><time>2026-05-01T06:19:11.999Z</time></trkpt><trkpt lat="44.517239547525584" lon="11.355306692976361"><ele>39.8</ele><time>2026-05-01T06:19:14Z</time></trkpt><trkpt lat="44.51715250427339" lon="11.355235382372694"><ele>40.0</ele><time>2026-05-01T06:19:16Z</time></trkpt><trkpt lat="44.51706060455117" lon="11.355160094174638"><ele>40.0</ele><time>2026-05-01T06:19:18Z</time></trkpt><trkpt lat="44.51696287551095" lon="11.355079513995618"><ele>40.0</ele><time>2026-05-01T06:19:20Z</time></trkpt><trkpt lat="44.516875366944255" lon="11.355007553319405"><ele>40.0</ele><time>2026-05-01T06:19:22Z</time></trkpt><trkpt lat="44.51679141924347" lon="11.354937538728233"><ele>40.0</ele><time>2026-05-01T06:19:24Z</time></trkpt><trkpt lat="44.51670533819909" lon="11.354865751058878"><ele>40.0</ele><time>2026-05-01T06:19:26Z</time></trkpt><trkpt lat="44.51661854798745" lon="11.354793371998147"><ele>40.0</ele><time>2026-05-01T06:19:28Z</time></trkpt><trkpt lat="44.51653087471238" lon="11.354720256482434"><ele>40.0</ele><time>2026-05-01T06:19:30Z</time></trkpt><trkpt lat="44.51644239715333" lon="11.354646549196744"><ele>40.0</ele><time>2026-05-01T06:19:32Z</time></trkpt><trkpt lat="44.51634884054292" lon="11.354617065769792"><ele>40.0</ele><time>2026-05-01T06:19:34Z</time></trkpt><trkpt lat="44.51624866396596" lon="11.354578335635173"><ele>40.0</ele><time>2026-05-01T06:19:36Z</time></trkpt><trkpt lat="44.51614296220244" lon="11.354541427512707"><ele>40.0</ele><time>2026-05-01T06:19:38Z</time></trkpt><trkpt lat="44.51603772603725" lon="11.354516558044706"><ele>40.0</ele><time>2026-05-01T06:19:40Z</time></trkpt><trkpt lat="44.51593508444245" lon="11.354493705433287"><ele>40.0</ele><time>2026-05-01T06:19:42Z</time></trkpt><trkpt lat="44.515822559968036" lon="11.354488773729635"><ele>40.0</ele><time>2026-05-01T06:19:44Z</time></trkpt><trkpt lat="44.51571799362447" lon="11.35448412394288"><ele>40.0</ele><time>2026-05-01T06:19:46Z</time></trkpt><trkpt lat="44.51560934981145" lon="11.354481240154902"><ele>40.0</ele><time>2026-05-01T06:19:48Z</time></trkpt><trkpt lat="44.515496227899945" lon="11.354478446994055"><ele>40.0</ele><time>2026-05-01T06:19:50Z</time></trkpt><trkpt lat="44.51539026221573" lon="11.354472426328762"><ele>40.0</ele><time>2026-05-01T06:19:52Z</time></trkpt><trkpt lat="44.51528921526562" lon="11.354464476999631"><ele>40.0</ele><time>2026-05-01T06:19:54Z</time></trkpt><trkpt lat="44.515179750288866" lon="11.35447092832893"><ele>40.0</ele><time>2026-05-01T06:19:56Z</time></trkpt><trkpt lat="44.51507219965226" lon="11.35445646675123"><ele>40.4</ele><time>2026-05-01T06:19:58Z</time></trkpt><trkpt lat="44.514968292455286" lon="11.354455176804763"><ele>40.8</ele><time>2026-05-01T06:20:00Z</time></trkpt><trkpt lat="44.51485892795905" lon="11.35445430244651"><ele>41.2</ele><time>2026-05-01T06:20:02Z</time></trkpt><trkpt lat="44.51475010914555" lon="11.3544465798741"><ele>41.6</ele><time>2026-05-01T06:20:04Z</time></trkpt><trkpt lat="44.51464755379401" lon="11.354453644386556"><ele>42.0</ele><time>2026-05-01T06:20:06Z</time></trkpt><trkpt lat="44.5145429646845" lon="11.35445033114634"><ele>42.2</ele><time>2026-05-01T06:20:08Z</time></trkpt><trkpt lat="44.514439354308195" lon="11.354433679487961"><ele>42.400000000000006</ele><time>2026-05-01T06:20:10Z</time></trkpt><trkpt lat="44.51433130513665" lon="11.354405667988566"><ele>42.599999999999994</ele><time>2026-05-01T06:20:12Z</time></trkpt><trkpt lat="44.51422534786018" lon="11.354388172574629"><ele>42.8</ele><time>2026-05-01T06:20:14Z</time></trkpt><trkpt lat="44.51412058009655" lon="11.354353190997502"><ele>43.0</ele><time>2026-05-01T06:20:16Z</time></trkpt><trkpt lat="44.51402179897758" lon="11.354312088142068"><ele>43.0</ele><time>2026-05-01T06:20:18Z</time></trkpt><trkpt lat="44.51392568319945" lon="11.35425845519266"><ele>43.0</ele><time>2026-05-01T06:20:20Z</time></trkpt><trkpt lat="44.51383061307062" lon="11.35421886867336"><ele>43.0</ele><time>2026-05-01T06:20:22Z</time></trkpt><trkpt lat="44.51373626277553" lon="11.354174234150838"><ele>43.0</ele><time>2026-05-01T06:20:24Z</time></trkpt><trkpt lat="44.51364290919072" lon="11.354139321112807"><ele>43.0</ele><time>2026-05-01T06:20:26Z</time></trkpt><trkpt lat="44.51358273155214" lon="11.35410369061371"><ele>43.0</ele><time>2026-05-01T06:20:27Z</time></trkpt><trkpt lat="44.51349039143996" lon="11.354053052948315"><ele>43.0</ele><time>2026-05-01T06:20:29Z</time></trkpt><trkpt lat="44.51339793709988" lon="11.354001241263854"><ele>43.0</ele><time>2026-05-01T06:20:30.999Z</time></trkpt><trkpt lat="44.51330642242668" lon="11.353956166856566"><ele>43.0</ele><time>2026-05-01T06:20:32.999Z</time></trkpt><trkpt lat="44.51321591651773" lon="11.353913887018232"><ele>43.0</ele><time>2026-05-01T06:20:34.999Z</time></trkpt><trkpt lat="44.513125745317225" lon="11.35386617472148"><ele>43.0</ele><time>2026-05-01T06:20:36.999Z</time></trkpt><trkpt lat="44.51304736674589" lon="11.353822618632565"><ele>43.0</ele><time>2026-05-01T06:20:38.999Z</time></trkpt><trkpt lat="44.512958289389346" lon="11.35378862870592"><ele>43.0</ele><time>2026-05-01T06:20:40.999Z</time></trkpt><trkpt lat="44.51286620611163" lon="11.353734004845096"><ele>43.0</ele><time>2026-05-01T06:20:42.999Z</time></trkpt><trkpt lat="44.51278067642626" lon="11.35369656071661"><ele>43.0</ele><time>2026-05-01T06:20:44.999Z</time></trkpt><trkpt lat="44.51269950269482" lon="11.353651447514418"><ele>43.0</ele><time>2026-05-01T06:20:46.999Z</time></trkpt><trkpt lat="44.51261185644354" lon="11.35361003441902"><ele>43.0</ele><time>2026-05-01T06:20:48.999Z</time></trkpt><trkpt lat="44.512514574134826" lon="11.353562838307834"><ele>43.0</ele><time>2026-05-01T06:20:50.999Z</time></trkpt><trkpt lat="44.51242268807176" lon="11.353528541214693"><ele>43.0</ele><time>2026-05-01T06:20:52.999Z</time></trkpt><trkpt lat="44.51233574792354" lon="11.353480286365246"><ele>43.0</ele><time>2026-05-01T06:20:54.999Z</time></trkpt><trkpt lat="44.512235443675536" lon="11.353434462509306"><ele>43.0</ele><time>2026-05-01T06:20:56.999Z</time></trkpt><trkpt lat="44.512141323346576" lon="11.353377590760646"><ele>43.0</ele><time>2026-05-01T06:20:58.999Z</time></trkpt><trkpt lat="44.51204400504404" lon="11.353322146121172"><ele>43.0</ele><time>2026-05-01T06:21:00.999Z</time></trkpt><trkpt lat="44.51194652031244" lon="11.35327423044787"><ele>43.0</ele><time>2026-05-01T06:21:02.999Z</time></trkpt><trkpt lat="44.511861425198965" lon="11.35321572469792"><ele>43.0</ele><time>2026-05-01T06:21:06.999Z</time></trkpt><trkpt lat="44.51179465943849" lon="11.353111508298644"><ele>43.333333333333336</ele><time>2026-05-01T06:21:09.999Z</time></trkpt><trkpt lat="44.51155284367372" lon="11.353095259593198"><ele>43.666666666666664</ele><time>2026-05-01T06:21:10.999Z</time></trkpt><trkpt lat="44.511450721160465" lon="11.353040543916645"><ele>44.0</ele><time>2026-05-01T06:21:12.999Z</time></trkpt><trkpt lat="44.511355311081374" lon="11.352971769531672"><ele>44.2</ele><time>2026-05-01T06:21:14.999Z</time></trkpt><trkpt lat="44.51126993716232" lon="11.352924194272452"><ele>44.400000000000006</ele><time>2026-05-01T06:21:16.999Z</time></trkpt><trkpt lat="44.51117885789654" lon="11.352868862982874"><ele>44.6</ele><time>2026-05-01T06:21:19Z</time></trkpt><trkpt lat="44.51108328599465" lon="11.352821338700089"><ele>44.8</ele><time>2026-05-01T06:21:21Z</time></trkpt><trkpt lat="44.510976160180945" lon="11.352803838263666"><ele>45.0</ele><time>2026-05-01T06:21:23Z</time></trkpt><trkpt lat="44.510883578852926" lon="11.352763496989192"><ele>45.0</ele><time>2026-05-01T06:21:25Z</time></trkpt><trkpt lat="44.51079794617318" lon="11.352725221746478"><ele>45.0</ele><time>2026-05-01T06:21:27Z</time></trkpt><trkpt lat="44.51070592023647" lon="11.352685814797045"><ele>45.0</ele><time>2026-05-01T06:21:29Z</time></trkpt><trkpt lat="44.510599279571146" lon="11.352642907107358"><ele>45.0</ele><time>2026-05-01T06:21:32Z</time></trkpt><trkpt lat="44.51050613554498" lon="11.3525941596516"><ele>45.0</ele><time>2026-05-01T06:21:34Z</time></trkpt><trkpt lat="44.51040906726792" lon="11.352573906582084"><ele>45.2</ele><time>2026-05-01T06:21:36Z</time></trkpt><trkpt lat="44.51032192174755" lon="11.352524507380272"><ele>45.4</ele><time>2026-05-01T06:21:38Z</time></trkpt><trkpt lat="44.51024017714932" lon="11.352481043363026"><ele>45.599999999999994</ele><time>2026-05-01T06:21:40Z</time></trkpt><trkpt lat="44.510150431293695" lon="11.352432105476636"><ele>45.8</ele><time>2026-05-01T06:21:42Z</time></trkpt><trkpt lat="44.51005945373167" lon="11.352407312635062"><ele>46.0</ele><time>2026-05-01T06:21:44Z</time></trkpt><trkpt lat="44.50998564484812" lon="11.352351286510066"><ele>46.0</ele><time>2026-05-01T06:21:46Z</time></trkpt><trkpt lat="44.50991120372934" lon="11.352278895958287"><ele>46.0</ele><time>2026-05-01T06:21:48Z</time></trkpt><trkpt lat="44.509711314951105" lon="11.352219296113907"><ele>46.0</ele><time>2026-05-01T06:21:54Z</time></trkpt><trkpt lat="44.5096188964326" lon="11.352170288724059"><ele>46.0</ele><time>2026-05-01T06:21:56Z</time></trkpt><trkpt lat="44.50954013788047" lon="11.35213916597072"><ele>45.833333333333336</ele><time>2026-05-01T06:21:58Z</time></trkpt><trkpt lat="44.50947906056485" lon="11.35211498141313"><ele>45.66666666666667</ele><time>2026-05-01T06:21:59Z</time></trkpt><trkpt lat="44.509377367442546" lon="11.352052218333322"><ele>45.5</ele><time>2026-05-01T06:22:01Z</time></trkpt><trkpt lat="44.50929079214478" lon="11.352000650066355"><ele>45.333333333333336</ele><time>2026-05-01T06:22:03Z</time></trkpt><trkpt lat="44.5092097390203" lon="11.35196513177566"><ele>45.166666666666664</ele><time>2026-05-01T06:22:05Z</time></trkpt><trkpt lat="44.50913712885887" lon="11.351933583206346"><ele>45.0</ele><time>2026-05-01T06:22:07Z</time></trkpt><trkpt lat="44.50904017351977" lon="11.351886016396858"><ele>45.0</ele><time>2026-05-01T06:22:09Z</time></trkpt><trkpt lat="44.508957661072444" lon="11.351841937230368"><ele>45.0</ele><time>2026-05-01T06:22:11Z</time></trkpt><trkpt lat="44.50887055604248" lon="11.351801077931649"><ele>45.0</ele><time>2026-05-01T06:22:13Z</time></trkpt><trkpt lat="44.508779790701105" lon="11.351767231995707"><ele>45.0</ele><time>2026-05-01T06:22:15Z</time></trkpt><trkpt lat="44.50869536728069" lon="11.351741012181305"><ele>45.0</ele><time>2026-05-01T06:22:17Z</time></trkpt><trkpt lat="44.50861875171182" lon="11.351712952457426"><ele>45.0</ele><time>2026-05-01T06:22:19Z</time></trkpt><trkpt lat="44.50852501131977" lon="11.351675775054083"><ele>45.0</ele><time>2026-05-01T06:22:21Z</time></trkpt><trkpt lat="44.50845223626633" lon="11.35166251527375"><ele>45.0</ele><time>2026-05-01T06:22:25Z</time></trkpt><trkpt lat="44.50837731800739" lon="11.351644188755309"><ele>45.0</ele><time>2026-05-01T06:22:28Z</time></trkpt><trkpt lat="44.50829362104047" lon="11.3516709505345"><ele>45.0</ele><time>2026-05-01T06:22:31Z</time></trkpt><trkpt lat="44.50824725387423" lon="11.351771382207772"><ele>45.0</ele><time>2026-05-01T06:22:33Z</time></trkpt><trkpt lat="44.508232569104095" lon="11.351884725934882"><ele>45.0</ele><time>2026-05-01T06:22:35Z</time></trkpt><trkpt lat="44.508222294573564" lon="11.352010410076282"><ele>45.0</ele><time>2026-05-01T06:22:36.999Z</time></trkpt><trkpt lat="44.50820256866352" lon="11.352135753922997"><ele>45.0</ele><time>2026-05-01T06:22:38.999Z</time></trkpt><trkpt lat="44.50817806000212" lon="11.352271346213957"><ele>45.0</ele><time>2026-05-01T06:22:40.999Z</time></trkpt><trkpt lat="44.50814798000916" lon="11.352409891482413"><ele>45.0</ele><time>2026-05-01T06:22:42.999Z</time></trkpt><trkpt lat="44.50812570694175" lon="11.35253783054335"><ele>45.0</ele><time>2026-05-01T06:22:44.999Z</time></trkpt><trkpt lat="44.50808895398481" lon="11.352669337424812"><ele>44.6</ele><time>2026-05-01T06:22:46.999Z</time></trkpt><trkpt lat="44.50806706316338" lon="11.352801553430961"><ele>44.2</ele><time>2026-05-01T06:22:48.999Z</time></trkpt><trkpt lat="44.5080458984794" lon="11.352943399407701"><ele>43.8</ele><time>2026-05-01T06:22:50.999Z</time></trkpt><trkpt lat="44.50804850791322" lon="11.353106327102235"><ele>43.4</ele><time>2026-05-01T06:22:52.999Z</time></trkpt><trkpt lat="44.50803749946194" lon="11.3532507587169"><ele>43.0</ele><time>2026-05-01T06:22:54.999Z</time></trkpt><trkpt lat="44.50801382226617" lon="11.353402133709155"><ele>43.0</ele><time>2026-05-01T06:22:56.999Z</time></trkpt><trkpt lat="44.50797564571632" lon="11.353531713373656"><ele>43.0</ele><time>2026-05-01T06:22:58.999Z</time></trkpt><trkpt lat="44.507953587270734" lon="11.353672105659621"><ele>43.0</ele><time>2026-05-01T06:23:00.999Z</time></trkpt><trkpt lat="44.50792958744739" lon="11.353812567211238"><ele>43.0</ele><time>2026-05-01T06:23:02.999Z</time></trkpt><trkpt lat="44.50791136606871" lon="11.353969258696141"><ele>43.0</ele><time>2026-05-01T06:23:04.999Z</time></trkpt><trkpt lat="44.507903216474176" lon="11.354119487939963"><ele>43.4</ele><time>2026-05-01T06:23:06.999Z</time></trkpt><trkpt lat="44.50787228873165" lon="11.354257805499678"><ele>43.8</ele><time>2026-05-01T06:23:08.999Z</time></trkpt><trkpt lat="44.50785382757165" lon="11.354401185813046"><ele>44.2</ele><time>2026-05-01T06:23:10.999Z</time></trkpt><trkpt lat="44.50785184647616" lon="11.3544915766547"><ele>44.6</ele><time>2026-05-01T06:23:11.999Z</time></trkpt><trkpt lat="44.507830038875696" lon="11.354636150186073"><ele>45.0</ele><time>2026-05-01T06:23:13.999Z</time></trkpt><trkpt lat="44.50780386769753" lon="11.354757251044258"><ele>45.166666666666664</ele><time>2026-05-01T06:23:15.999Z</time></trkpt><trkpt lat="44.507774061773155" lon="11.354879412585115"><ele>45.333333333333336</ele><time>2026-05-01T06:23:17.999Z</time></trkpt><trkpt lat="44.50778336400944" lon="11.354968680765179"><ele>45.5</ele><time>2026-05-01T06:23:18.999Z</time></trkpt><trkpt lat="44.50777214937125" lon="11.355085985073329"><ele>45.66666666666667</ele><time>2026-05-01T06:23:20.999Z</time></trkpt><trkpt lat="44.507756610407014" lon="11.355195554991816"><ele>45.833333333333336</ele><time>2026-05-01T06:23:22.999Z</time></trkpt><trkpt lat="44.50773184376666" lon="11.355291612274213"><ele>46.0</ele><time>2026-05-01T06:23:25Z</time></trkpt><trkpt lat="44.50765392315751" lon="11.355350710892047"><ele>46.0</ele><time>2026-05-01T06:23:29Z</time></trkpt><trkpt lat="44.50757399124165" lon="11.355333311052004"><ele>46.0</ele><time>2026-05-01T06:23:31Z</time></trkpt><trkpt lat="44.507493701371736" lon="11.35528304224577"><ele>46.0</ele><time>2026-05-01T06:23:33Z</time></trkpt><trkpt lat="44.507404312022445" lon="11.35524298103897"><ele>46.0</ele><time>2026-05-01T06:23:35Z</time></trkpt><trkpt lat="44.50731359123819" lon="11.355207386278932"><ele>46.0</ele><time>2026-05-01T06:23:37Z</time></trkpt><trkpt lat="44.507217459094576" lon="11.355167895507872"><ele>46.0</ele><time>2026-05-01T06:23:39Z</time></trkpt><trkpt lat="44.50712629455383" lon="11.355119935462364"><ele>46.0</ele><time>2026-05-01T06:23:41Z</time></trkpt><trkpt lat="44.50703484919083" lon="11.355073169692119"><ele>46.0</ele><time>2026-05-01T06:23:43Z</time></trkpt><trkpt lat="44.50694186008323" lon="11.355028103746967"><ele>46.0</ele><time>2026-05-01T06:23:45Z</time></trkpt><trkpt lat="44.506849126116464" lon="11.354982312088971"><ele>46.0</ele><time>2026-05-01T06:23:47Z</time></trkpt><trkpt lat="44.5067534398243" lon="11.35494050937427"><ele>45.4</ele><time>2026-05-01T06:23:49Z</time></trkpt><trkpt lat="44.506662144619284" lon="11.354893305225126"><ele>44.8</ele><time>2026-05-01T06:23:51Z</time></trkpt><trkpt lat="44.50656930314573" lon="11.354849950015119"><ele>44.199999999999996</ele><time>2026-05-01T06:23:53Z</time></trkpt><trkpt lat="44.50647705808534" lon="11.354807612866418"><ele>43.599999999999994</ele><time>2026-05-01T06:23:55Z</time></trkpt><trkpt lat="44.506388335309914" lon="11.354762712435795"><ele>43.0</ele><time>2026-05-01T06:23:57Z</time></trkpt><trkpt lat="44.50630242005523" lon="11.354723832626432"><ele>43.0</ele><time>2026-05-01T06:23:59Z</time></trkpt><trkpt lat="44.50621468533935" lon="11.354686500328054"><ele>43.0</ele><time>2026-05-01T06:24:01Z</time></trkpt><trkpt lat="44.50612765693522" lon="11.354644107770635"><ele>43.0</ele><time>2026-05-01T06:24:03Z</time></trkpt><trkpt lat="44.506048053925845" lon="11.354600470806144"><ele>43.0</ele><time>2026-05-01T06:24:05Z</time></trkpt><trkpt lat="44.50596604733611" lon="11.354558592130132"><ele>43.0</ele><time>2026-05-01T06:24:07Z</time></trkpt><trkpt lat="44.5058882238785" lon="11.354521540585635"><ele>43.0</ele><time>2026-05-01T06:24:09Z</time></trkpt><trkpt lat="44.50581405506964" lon="11.354483883706429"><ele>43.00000000000001</ele><time>2026-05-01T06:24:11Z</time></trkpt><trkpt lat="44.50574166825986" lon="11.35444403491603"><ele>43.0</ele><time>2026-05-01T06:24:13Z</time></trkpt><trkpt lat="44.50566880809771" lon="11.354412522957027"><ele>43.0</ele><time>2026-05-01T06:24:15Z</time></trkpt><trkpt lat="44.50560299419922" lon="11.354381479509222"><ele>43.0</ele><time>2026-05-01T06:24:17Z</time></trkpt><trkpt lat="44.50553778438074" lon="11.354346430000515"><ele>43.0</ele><time>2026-05-01T06:24:19Z</time></trkpt><trkpt lat="44.50547382560869" lon="11.35431181317367"><ele>43.00000000000001</ele><time>2026-05-01T06:24:21Z</time></trkpt><trkpt lat="44.50540850657222" lon="11.354285862158731"><ele>43.0</ele><time>2026-05-01T06:24:23Z</time></trkpt><trkpt lat="44.50534293494859" lon="11.354256923567396"><ele>43.28571428571429</ele><time>2026-05-01T06:24:25Z</time></trkpt><trkpt lat="44.50528078632501" lon="11.354225866687878"><ele>43.57142857142857</ele><time>2026-05-01T06:24:27Z</time></trkpt><trkpt lat="44.505220191168675" lon="11.354201196273497"><ele>43.85714285714286</ele><time>2026-05-01T06:24:29Z</time></trkpt><trkpt lat="44.505156539527796" lon="11.354168560084842"><ele>44.142857142857146</ele><time>2026-05-01T06:24:31Z</time></trkpt><trkpt lat="44.50509124367154" lon="11.354137849142308"><ele>44.42857142857143</ele><time>2026-05-01T06:24:33Z</time></trkpt><trkpt lat="44.50502795008359" lon="11.354105581504049"><ele>44.714285714285715</ele><time>2026-05-01T06:24:36Z</time></trkpt><trkpt lat="44.5049603900983" lon="11.354073758332273"><ele>45.0</ele><time>2026-05-01T06:24:39Z</time></trkpt><trkpt lat="44.50489517974873" lon="11.354042110828669"><ele>45.0</ele><time>2026-05-01T06:24:42Z</time></trkpt><trkpt lat="44.504824759122435" lon="11.354004816292113"><ele>45.0</ele><time>2026-05-01T06:24:44.999Z</time></trkpt><trkpt lat="44.50474816655293" lon="11.35397347448049"><ele>45.0</ele><time>2026-05-01T06:24:47.999Z</time></trkpt><trkpt lat="44.50467473665568" lon="11.353943768587241"><ele>45.0</ele><time>2026-05-01T06:24:50.999Z</time></trkpt><trkpt lat="44.504604291962096" lon="11.35390939756854"><ele>45.0</ele><time>2026-05-01T06:24:53.999Z</time></trkpt><trkpt lat="44.5045294475039" lon="11.353871678364403"><ele>45.0</ele><time>2026-05-01T06:24:56.999Z</time></trkpt><trkpt lat="44.50446384120493" lon="11.353839317856362"><ele>44.833333333333336</ele><time>2026-05-01T06:24:58.999Z</time></trkpt><trkpt lat="44.50437737527628" lon="11.353793934148811"><ele>44.666666666666664</ele><time>2026-05-01T06:25:01.999Z</time></trkpt><trkpt lat="44.50429362879802" lon="11.353750195711251"><ele>44.5</ele><time>2026-05-01T06:25:04.999Z</time></trkpt><trkpt lat="44.504205753459274" lon="11.353709245663799"><ele>44.33333333333333</ele><time>2026-05-01T06:25:07.999Z</time></trkpt><trkpt lat="44.504141818297995" lon="11.3536790342058"><ele>44.166666666666664</ele><time>2026-05-01T06:25:09.999Z</time></trkpt><trkpt lat="44.50408101317907" lon="11.353648050966033"><ele>44.0</ele><time>2026-05-01T06:25:11.999Z</time></trkpt><trkpt lat="44.50401418127283" lon="11.353623478246776"><ele>44.0</ele><time>2026-05-01T06:25:13.999Z</time></trkpt><trkpt lat="44.50394365650686" lon="11.353598474661208"><ele>44.0</ele><time>2026-05-01T06:25:15.999Z</time></trkpt><trkpt lat="44.503876890328065" lon="11.353573942635032"><ele>44.0</ele><time>2026-05-01T06:25:17.999Z</time></trkpt><trkpt lat="44.50381527579149" lon="11.353551158472058"><ele>44.0</ele><time>2026-05-01T06:25:19.999Z</time></trkpt><trkpt lat="44.50372381920534" lon="11.353525727739504"><ele>44.0</ele><time>2026-05-01T06:25:22.999Z</time></trkpt><trkpt lat="44.50364858474705" lon="11.353463673091555"><ele>44.0</ele><time>2026-05-01T06:25:25.999Z</time></trkpt><trkpt lat="44.503562134972334" lon="11.35342476067622"><ele>44.5</ele><time>2026-05-01T06:25:26.999Z</time></trkpt><trkpt lat="44.503463285310524" lon="11.353379879241087"><ele>45.0</ele><time>2026-05-01T06:25:27.999Z</time></trkpt><trkpt lat="44.50338111330767" lon="11.353335709475022"><ele>45.5</ele><time>2026-05-01T06:25:28.999Z</time></trkpt><trkpt lat="44.50330322233585" lon="11.353293848153658"><ele>46.0</ele><time>2026-05-01T06:25:29.999Z</time></trkpt><trkpt lat="44.50323016616478" lon="11.35325268918288"><ele>46.5</ele><time>2026-05-01T06:25:31Z</time></trkpt><trkpt lat="44.50315514618929" lon="11.353212469774155"><ele>47.0</ele><time>2026-05-01T06:25:32Z</time></trkpt><trkpt lat="44.5030783072018" lon="11.353160084125042"><ele>47.0</ele><time>2026-05-01T06:25:33Z</time></trkpt><trkpt lat="44.503016662902446" lon="11.353127270186606"><ele>47.0</ele><time>2026-05-01T06:25:34Z</time></trkpt><trkpt lat="44.50288279814015" lon="11.353075389465163"><ele>47.0</ele><time>2026-05-01T06:25:36Z</time></trkpt><trkpt lat="44.502826993874145" lon="11.35301636157528"><ele>47.0</ele><time>2026-05-01T06:25:37Z</time></trkpt><trkpt lat="44.502786056996186" lon="11.352928493545699"><ele>47.0</ele><time>2026-05-01T06:25:38Z</time></trkpt><trkpt lat="44.50278925533148" lon="11.352765963021003"><ele>47.25</ele><time>2026-05-01T06:25:40Z</time></trkpt><trkpt lat="44.50279472130828" lon="11.352596612659648"><ele>47.5</ele><time>2026-05-01T06:25:42Z</time></trkpt><trkpt lat="44.50282640873142" lon="11.352444582341242"><ele>47.75</ele><time>2026-05-01T06:25:44Z</time></trkpt><trkpt lat="44.5028571664727" lon="11.352303727331574"><ele>48.0</ele><time>2026-05-01T06:25:46Z</time></trkpt><trkpt lat="44.50289253615783" lon="11.352155337020351"><ele>47.75</ele><time>2026-05-01T06:25:48Z</time></trkpt><trkpt lat="44.50292774449824" lon="11.352008295371988"><ele>47.5</ele><time>2026-05-01T06:25:50Z</time></trkpt><trkpt lat="44.50296693155016" lon="11.351866111815252"><ele>47.25</ele><time>2026-05-01T06:25:52Z</time></trkpt><trkpt lat="44.50282247351696" lon="11.35166661115988"><ele>47.0</ele><time>2026-05-01T06:25:53Z</time></trkpt><trkpt lat="44.50287236923592" lon="11.351546901799647"><ele>47.0</ele><time>2026-05-01T06:25:55Z</time></trkpt><trkpt lat="44.50305844485526" lon="11.351543438452765"><ele>47.0</ele><time>2026-05-01T06:25:57Z</time></trkpt><trkpt lat="44.503087943448946" lon="11.35142799058825"><ele>47.0</ele><time>2026-05-01T06:25:59Z</time></trkpt><trkpt lat="44.50310762658912" lon="11.351331685842263"><ele>47.0</ele><time>2026-05-01T06:26:01Z</time></trkpt><trkpt lat="44.50305862697853" lon="11.351255970591156"><ele>47.0</ele><time>2026-05-01T06:26:02Z</time></trkpt><trkpt lat="44.50307868865588" lon="11.351147747432638"><ele>47.14285714285714</ele><time>2026-05-01T06:26:05Z</time></trkpt><trkpt lat="44.503108182842716" lon="11.351067670639296"><ele>47.285714285714285</ele><time>2026-05-01T06:26:53.999Z</time></trkpt><trkpt lat="44.50305128898409" lon="11.35099220741055"><ele>47.42857142857143</ele><time>2026-05-01T06:26:57.999Z</time></trkpt><trkpt lat="44.502986809167346" lon="11.35093597274446"><ele>47.57142857142857</ele><time>2026-05-01T06:27:00.999Z</time></trkpt><trkpt lat="44.50293265737811" lon="11.350866420722042"><ele>47.714285714285715</ele><time>2026-05-01T06:27:03.999Z</time></trkpt><trkpt lat="44.50295117243193" lon="11.350757749775314"><ele>47.857142857142854</ele><time>2026-05-01T06:27:05.999Z</time></trkpt><trkpt lat="44.502962685113516" lon="11.350650501274632"><ele>48.0</ele><time>2026-05-01T06:27:07.999Z</time></trkpt><trkpt lat="44.50290969493689" lon="11.350565332276112"><ele>48.833333333333336</ele><time>2026-05-01T06:27:09.999Z</time></trkpt><trkpt lat="44.50283591974954" lon="11.350522714863876"><ele>49.66666666666667</ele><time>2026-05-01T06:27:11.999Z</time></trkpt><trkpt lat="44.502758987750056" lon="11.350503326956447"><ele>50.5</ele><time>2026-05-01T06:27:13.999Z</time></trkpt><trkpt lat="44.50267977882153" lon="11.350519834459476"><ele>51.333333333333336</ele><time>2026-05-01T06:27:15.999Z</time></trkpt><trkpt lat="44.50258784019704" lon="11.35056109871176"><ele>52.16666666666667</ele><time>2026-05-01T06:27:17.999Z</time></trkpt><trkpt lat="44.50248847241808" lon="11.350598003425239"><ele>53.0</ele><time>2026-05-01T06:27:19.999Z</time></trkpt><trkpt lat="44.50229474946214" lon="11.350459585921637"><ele>53.00000000000001</ele><time>2026-05-01T06:27:26.999Z</time></trkpt><trkpt lat="44.5022044693697" lon="11.350409382563132"><ele>53.0</ele><time>2026-05-01T06:27:28.999Z</time></trkpt><trkpt lat="44.502135981909916" lon="11.350462961151852"><ele>53.0</ele><time>2026-05-01T06:27:29.999Z</time></trkpt><trkpt lat="44.50204930479951" lon="11.350401820129193"><ele>53.0</ele><time>2026-05-01T06:27:31.999Z</time></trkpt><trkpt lat="44.501972300072275" lon="11.350347501808285"><ele>53.00000000000001</ele><time>2026-05-01T06:27:33.999Z</time></trkpt><trkpt lat="44.50190181036656" lon="11.350297779160584"><ele>53.0</ele><time>2026-05-01T06:27:35.999Z</time></trkpt><trkpt lat="44.50180233898556" lon="11.350212709748355"><ele>53.0</ele><time>2026-05-01T06:27:38Z</time></trkpt><trkpt lat="44.5017060335705" lon="11.350162890774046"><ele>53.0</ele><time>2026-05-01T06:27:40Z</time></trkpt><trkpt lat="44.501622150963215" lon="11.35010100672043"><ele>53.0</ele><time>2026-05-01T06:27:42Z</time></trkpt><trkpt lat="44.50153835515776" lon="11.350041930569198"><ele>53.0</ele><time>2026-05-01T06:27:44Z</time></trkpt><trkpt lat="44.50143938758489" lon="11.349974430950912"><ele>53.0</ele><time>2026-05-01T06:27:46Z</time></trkpt><trkpt lat="44.50129094831425" lon="11.349893482544744"><ele>53.599999999999994</ele><time>2026-05-01T06:27:51Z</time></trkpt><trkpt lat="44.50123128592048" lon="11.349863695376582"><ele>54.199999999999996</ele><time>2026-05-01T06:27:52Z</time></trkpt><trkpt lat="44.50112913412011" lon="11.349803148317516"><ele>54.8</ele><time>2026-05-01T06:27:54Z</time></trkpt><trkpt lat="44.50103929842494" lon="11.349739375665013"><ele>55.4</ele><time>2026-05-01T06:27:56Z</time></trkpt><trkpt lat="44.500950629136945" lon="11.349679201092094"><ele>56.0</ele><time>2026-05-01T06:27:58Z</time></trkpt><trkpt lat="44.50085635300355" lon="11.349616795909837"><ele>56.4</ele><time>2026-05-01T06:28:00Z</time></trkpt><trkpt lat="44.5007523019846" lon="11.349550262110903"><ele>56.8</ele><time>2026-05-01T06:28:02Z</time></trkpt><trkpt lat="44.500654345550444" lon="11.34948331110647"><ele>57.199999999999996</ele><time>2026-05-01T06:28:04Z</time></trkpt><trkpt lat="44.50057644982334" lon="11.349384498390851"><ele>57.599999999999994</ele><time>2026-05-01T06:28:06Z</time></trkpt><trkpt lat="44.5004974949745" lon="11.349327755193743"><ele>58.0</ele><time>2026-05-01T06:28:08Z</time></trkpt><trkpt lat="44.50041896596602" lon="11.349271318021176"><ele>58.33333333333333</ele><time>2026-05-01T06:28:10Z</time></trkpt><trkpt lat="44.50034578810177" lon="11.349218726586338"><ele>58.666666666666664</ele><time>2026-05-01T06:28:12Z</time></trkpt><trkpt lat="44.5002799437337" lon="11.349171405616694"><ele>59.0</ele><time>2026-05-01T06:28:14Z</time></trkpt><trkpt lat="44.50021063395339" lon="11.349121172622372"><ele>59.33333333333333</ele><time>2026-05-01T06:28:16Z</time></trkpt><trkpt lat="44.50014360767219" lon="11.349072501306756"><ele>59.666666666666664</ele><time>2026-05-01T06:28:18Z</time></trkpt><trkpt lat="44.5000714301178" lon="11.3490376104868"><ele>60.0</ele><time>2026-05-01T06:28:20Z</time></trkpt><trkpt lat="44.50012407404222" lon="11.348914475809023"><ele>59.833333333333336</ele><time>2026-05-01T06:28:22Z</time></trkpt><trkpt lat="44.500168402759115" lon="11.348813963442806"><ele>59.66666666666667</ele><time>2026-05-01T06:28:24Z</time></trkpt><trkpt lat="44.500189552964706" lon="11.348723787234006"><ele>59.5</ele><time>2026-05-01T06:28:27Z</time></trkpt><trkpt lat="44.500223893850084" lon="11.348635587792053"><ele>59.333333333333336</ele><time>2026-05-01T06:28:29Z</time></trkpt><trkpt lat="44.500255976543215" lon="11.348496660876275"><ele>59.16666666666667</ele><time>2026-05-01T06:28:31Z</time></trkpt><trkpt lat="44.50027203075556" lon="11.348394284338287"><ele>59.0</ele><time>2026-05-01T06:28:33Z</time></trkpt><trkpt lat="44.5003005392425" lon="11.34827817576612"><ele>59.00000000000001</ele><time>2026-05-01T06:28:35Z</time></trkpt><trkpt lat="44.50033458087595" lon="11.348147041921083"><ele>59.0</ele><time>2026-05-01T06:28:37Z</time></trkpt><trkpt lat="44.5003610599338" lon="11.348042406973383"><ele>59.0</ele><time>2026-05-01T06:28:39Z</time></trkpt><trkpt lat="44.500389342323395" lon="11.347938928966272"><ele>59.0</ele><time>2026-05-01T06:28:41Z</time></trkpt><trkpt lat="44.50041525510476" lon="11.34783728147261"><ele>59.00000000000001</ele><time>2026-05-01T06:28:44Z</time></trkpt><trkpt lat="44.50046531181657" lon="11.347728024802239"><ele>59.0</ele><time>2026-05-01T06:28:47Z</time></trkpt><trkpt lat="44.50049832619921" lon="11.347558125463976"><ele>58.400000000000006</ele><time>2026-05-01T06:28:49Z</time></trkpt><trkpt lat="44.5005218313856" lon="11.34740416548175"><ele>57.800000000000004</ele><time>2026-05-01T06:28:50.999Z</time></trkpt><trkpt lat="44.50055940127904" lon="11.347256239036748"><ele>57.199999999999996</ele><time>2026-05-01T06:28:53.999Z</time></trkpt><trkpt lat="44.50059232498247" lon="11.347116473458419"><ele>56.599999999999994</ele><time>2026-05-01T06:28:56.999Z</time></trkpt><trkpt lat="44.50063032640281" lon="11.346975632837681"><ele>56.0</ele><time>2026-05-01T06:28:58.999Z</time></trkpt><trkpt lat="44.50065424333416" lon="11.346881097331998"><ele>56.00000000000001</ele><time>2026-05-01T06:29:00.999Z</time></trkpt><trkpt lat="44.50068021567123" lon="11.346778304651371"><ele>56.0</ele><time>2026-05-01T06:29:02.999Z</time></trkpt><trkpt lat="44.50071869852175" lon="11.34667709393901"><ele>56.0</ele><time>2026-05-01T06:29:04.999Z</time></trkpt><trkpt lat="44.50073332151459" lon="11.346582777239508"><ele>56.0</ele><time>2026-05-01T06:29:06.999Z</time></trkpt><trkpt lat="44.500743269315684" lon="11.3464815255597"><ele>56.00000000000001</ele><time>2026-05-01T06:29:08.999Z</time></trkpt><trkpt lat="44.50076595012692" lon="11.34636765575244"><ele>56.0</ele><time>2026-05-01T06:29:11.999Z</time></trkpt><trkpt lat="44.500788930214746" lon="11.34627637582857"><ele>53.5</ele><time>2026-05-01T06:29:13.999Z</time></trkpt><trkpt lat="44.50081760806512" lon="11.346162466931291"><ele>51.0</ele><time>2026-05-01T06:29:15.999Z</time></trkpt><trkpt lat="44.500843803472996" lon="11.346033838969069"><ele>48.5</ele><time>2026-05-01T06:29:18.999Z</time></trkpt><trkpt lat="44.50085124633521" lon="11.345932820200813"><ele>46.0</ele><time>2026-05-01T06:29:20.999Z</time></trkpt><trkpt lat="44.500940602735035" lon="11.345679010522492"><ele>46.0</ele><time>2026-05-01T06:29:21.999Z</time></trkpt><trkpt lat="44.50096391482151" lon="11.345555893486571"><ele>46.0</ele><time>2026-05-01T06:29:23.999Z</time></trkpt><trkpt lat="44.50099169396996" lon="11.345442770697897"><ele>46.0</ele><time>2026-05-01T06:29:25.999Z</time></trkpt><trkpt lat="44.50101010015541" lon="11.345339622752668"><ele>46.0</ele><time>2026-05-01T06:29:27.999Z</time></trkpt><trkpt lat="44.50103082253861" lon="11.345256128066834"><ele>46.0</ele><time>2026-05-01T06:29:29.999Z</time></trkpt><trkpt lat="44.50106061907173" lon="11.34516482201041"><ele>46.0</ele><time>2026-05-01T06:29:32.999Z</time></trkpt><trkpt lat="44.501077922116934" lon="11.345011533342303"><ele>46.833333333333336</ele><time>2026-05-01T06:29:45Z</time></trkpt><trkpt lat="44.501098776105884" lon="11.344906419553215"><ele>47.66666666666667</ele><time>2026-05-01T06:29:48Z</time></trkpt><trkpt lat="44.50112957970224" lon="11.344777962928163"><ele>48.5</ele><time>2026-05-01T06:29:51Z</time></trkpt><trkpt lat="44.501153306832336" lon="11.344690119230421"><ele>49.333333333333336</ele><time>2026-05-01T06:29:53Z</time></trkpt><trkpt lat="44.50115095203948" lon="11.344595878101456"><ele>50.166666666666664</ele><time>2026-05-01T06:29:56Z</time></trkpt><trkpt lat="44.50112078523584" lon="11.344499022664152"><ele>51.0</ele><time>2026-05-01T06:30:00Z</time></trkpt><trkpt lat="44.50106238722724" lon="11.344418811204173"><ele>51.85714285714286</ele><time>2026-05-01T06:30:05Z</time></trkpt><trkpt lat="44.501006353451004" lon="11.34436908325092"><ele>52.714285714285715</ele><time>2026-05-01T06:30:09Z</time></trkpt><trkpt lat="44.50093293238693" lon="11.34434881010018"><ele>53.57142857142857</ele><time>2026-05-01T06:30:12Z</time></trkpt><trkpt lat="44.500871376087076" lon="11.344325331393314"><ele>54.42857142857143</ele><time>2026-05-01T06:30:14Z</time></trkpt><trkpt lat="44.50078015329775" lon="11.344303026929323"><ele>55.28571428571428</ele><time>2026-05-01T06:30:17Z</time></trkpt><trkpt lat="44.50070406711033" lon="11.344273542864995"><ele>56.14285714285714</ele><time>2026-05-01T06:30:19Z</time></trkpt><trkpt lat="44.5006342216231" lon="11.344273040020644"><ele>57.0</ele><time>2026-05-01T06:30:21Z</time></trkpt><trkpt lat="44.50056603764637" lon="11.344279200872016"><ele>57.0</ele><time>2026-05-01T06:30:23Z</time></trkpt><trkpt lat="44.50048393354908" lon="11.344255946057293"><ele>57.0</ele><time>2026-05-01T06:30:25Z</time></trkpt><trkpt lat="44.50040885070111" lon="11.344206271208046"><ele>57.0</ele><time>2026-05-01T06:30:27Z</time></trkpt><trkpt lat="44.500329769165866" lon="11.344196567957862"><ele>57.0</ele><time>2026-05-01T06:30:29Z</time></trkpt><trkpt lat="44.50026502601553" lon="11.34418474393752"><ele>57.0</ele><time>2026-05-01T06:30:31Z</time></trkpt><trkpt lat="44.500183183957134" lon="11.344130665874438"><ele>57.0</ele><time>2026-05-01T06:30:34Z</time></trkpt><trkpt lat="44.500130475709504" lon="11.344077851782913"><ele>57.5</ele><time>2026-05-01T06:30:39Z</time></trkpt><trkpt lat="44.50005560129527" lon="11.344020590805696"><ele>58.0</ele><time>2026-05-01T06:30:42Z</time></trkpt><trkpt lat="44.499991174695154" lon="11.343996883441012"><ele>58.5</ele><time>2026-05-01T06:30:44Z</time></trkpt><trkpt lat="44.499920387562376" lon="11.344000881754281"><ele>59.0</ele><time>2026-05-01T06:30:46Z</time></trkpt><trkpt lat="44.49984418557723" lon="11.34399430460404"><ele>59.5</ele><time>2026-05-01T06:30:48Z</time></trkpt><trkpt lat="44.49976759765375" lon="11.34397516433699"><ele>60.0</ele><time>2026-05-01T06:30:50Z</time></trkpt><trkpt lat="44.49969052695636" lon="11.343951715016646"><ele>60.0</ele><time>2026-05-01T06:30:52Z</time></trkpt><trkpt lat="44.49961793889435" lon="11.343930167307834"><ele>60.0</ele><time>2026-05-01T06:30:54Z</time></trkpt><trkpt lat="44.49952949358102" lon="11.343913967049973"><ele>60.0</ele><time>2026-05-01T06:30:55.999Z</time></trkpt><trkpt lat="44.499457327934955" lon="11.343891204721118"><ele>60.0</ele><time>2026-05-01T06:30:57.999Z</time></trkpt><trkpt lat="44.49938425842497" lon="11.343869579669118"><ele>60.0</ele><time>2026-05-01T06:30:59.999Z</time></trkpt><trkpt lat="44.49929973567173" lon="11.34384129743886"><ele>60.0</ele><time>2026-05-01T06:31:01.999Z</time></trkpt><trkpt lat="44.49922118342769" lon="11.343833116859077"><ele>60.166666666666664</ele><time>2026-05-01T06:31:03.999Z</time></trkpt><trkpt lat="44.499141575143874" lon="11.343811809302919"><ele>60.33333333333333</ele><time>2026-05-01T06:31:05.999Z</time></trkpt><trkpt lat="44.49906799933682" lon="11.3437915590125"><ele>60.5</ele><time>2026-05-01T06:31:07.999Z</time></trkpt><trkpt lat="44.4989921716166" lon="11.343757114082504"><ele>60.666666666666664</ele><time>2026-05-01T06:31:09.999Z</time></trkpt><trkpt lat="44.49891795960138" lon="11.343726132620088"><ele>60.83333333333333</ele><time>2026-05-01T06:31:11.999Z</time></trkpt><trkpt lat="44.498830501156554" lon="11.34371721878785"><ele>61.0</ele><time>2026-05-01T06:31:13.999Z</time></trkpt><trkpt lat="44.498753075574776" lon="11.343676505262573"><ele>61.49999999999999</ele><time>2026-05-01T06:31:15.999Z</time></trkpt><trkpt lat="44.49866182959291" lon="11.343633353215084"><ele>62.0</ele><time>2026-05-01T06:31:17.999Z</time></trkpt><trkpt lat="44.49857098166017" lon="11.34360766423645"><ele>62.5</ele><time>2026-05-01T06:31:19.999Z</time></trkpt><trkpt lat="44.49849122836522" lon="11.343584318576445"><ele>63.0</ele><time>2026-05-01T06:31:21.999Z</time></trkpt><trkpt lat="44.49840453041443" lon="11.343549042203954"><ele>63.49999999999999</ele><time>2026-05-01T06:31:23.999Z</time></trkpt><trkpt lat="44.49832191916937" lon="11.343562255294453"><ele>64.0</ele><time>2026-05-01T06:31:25.999Z</time></trkpt><trkpt lat="44.49823561641195" lon="11.343543569482781"><ele>63.99999999999999</ele><time>2026-05-01T06:31:27.999Z</time></trkpt><trkpt lat="44.4981573042134" lon="11.343508775108955"><ele>64.0</ele><time>2026-05-01T06:31:29.999Z</time></trkpt><trkpt lat="44.498073737570074" lon="11.343472107006697"><ele>64.0</ele><time>2026-05-01T06:31:31.999Z</time></trkpt><trkpt lat="44.497991187521166" lon="11.343447987337173"><ele>64.0</ele><time>2026-05-01T06:31:33.999Z</time></trkpt><trkpt lat="44.49791478144202" lon="11.343429772521223"><ele>63.99999999999999</ele><time>2026-05-01T06:31:35.999Z</time></trkpt><trkpt lat="44.49783247432886" lon="11.343405829654829"><ele>64.0</ele><time>2026-05-01T06:31:37.999Z</time></trkpt><trkpt lat="44.49774744155968" lon="11.343373150102098"><ele>64.5</ele><time>2026-05-01T06:31:39.999Z</time></trkpt><trkpt lat="44.49766861587078" lon="11.34335808745177"><ele>65.0</ele><time>2026-05-01T06:31:41.999Z</time></trkpt><trkpt lat="44.49759127777873" lon="11.343326882849892"><ele>65.5</ele><time>2026-05-01T06:31:43.999Z</time></trkpt><trkpt lat="44.49750344936652" lon="11.343299611576338"><ele>66.0</ele><time>2026-05-01T06:31:45.999Z</time></trkpt><trkpt lat="44.4974177798391" lon="11.343275708483329"><ele>66.5</ele><time>2026-05-01T06:31:47.999Z</time></trkpt><trkpt lat="44.49733381250886" lon="11.343256826611851"><ele>67.0</ele><time>2026-05-01T06:31:50Z</time></trkpt><trkpt lat="44.497254512718605" lon="11.343235572250721"><ele>67.0</ele><time>2026-05-01T06:31:52Z</time></trkpt><trkpt lat="44.49716947182559" lon="11.343204664049846"><ele>67.0</ele><time>2026-05-01T06:31:54Z</time></trkpt><trkpt lat="44.49708304908131" lon="11.343165058162793"><ele>67.0</ele><time>2026-05-01T06:31:56Z</time></trkpt><trkpt lat="44.49699993421146" lon="11.343152306999173"><ele>67.0</ele><time>2026-05-01T06:31:58Z</time></trkpt><trkpt lat="44.49691361562538" lon="11.343119303376673"><ele>67.0</ele><time>2026-05-01T06:32:00Z</time></trkpt><trkpt lat="44.496829116820514" lon="11.343094017965834"><ele>67.0</ele><time>2026-05-01T06:32:02Z</time></trkpt><trkpt lat="44.49673958637418" lon="11.34306833593817"><ele>67.66666666666666</ele><time>2026-05-01T06:32:04Z</time></trkpt><trkpt lat="44.49665163405117" lon="11.343035339914332"><ele>68.33333333333333</ele><time>2026-05-01T06:32:06Z</time></trkpt><trkpt lat="44.49656170667127" lon="11.343016948809083"><ele>69.0</ele><time>2026-05-01T06:32:08Z</time></trkpt><trkpt lat="44.49647815274535" lon="11.34299289292003"><ele>69.66666666666667</ele><time>2026-05-01T06:32:10Z</time></trkpt><trkpt lat="44.49639933869887" lon="11.342969187182161"><ele>70.33333333333334</ele><time>2026-05-01T06:32:12Z</time></trkpt><trkpt lat="44.49631522766991" lon="11.342948955059864"><ele>71.0</ele><time>2026-05-01T06:32:14Z</time></trkpt><trkpt lat="44.496234859895885" lon="11.342907100485455"><ele>71.0</ele><time>2026-05-01T06:32:16Z</time></trkpt><trkpt lat="44.49614804551312" lon="11.342886998125147"><ele>71.0</ele><time>2026-05-01T06:32:18Z</time></trkpt><trkpt lat="44.49607134364427" lon="11.342870383035912"><ele>71.0</ele><time>2026-05-01T06:32:20Z</time></trkpt><trkpt lat="44.49599401291951" lon="11.34284319743068"><ele>71.0</ele><time>2026-05-01T06:32:22Z</time></trkpt><trkpt lat="44.495921812083765" lon="11.34281507963132"><ele>71.0</ele><time>2026-05-01T06:32:24Z</time></trkpt><trkpt lat="44.49585126115153" lon="11.342791442700886"><ele>71.0</ele><time>2026-05-01T06:32:26Z</time></trkpt><trkpt lat="44.495784515016915" lon="11.342771526274378"><ele>71.0</ele><time>2026-05-01T06:32:28Z</time></trkpt><trkpt lat="44.495703123792325" lon="11.3427666264187"><ele>71.0</ele><time>2026-05-01T06:32:30Z</time></trkpt><trkpt lat="44.495619515302906" lon="11.342749782961944"><ele>71.0</ele><time>2026-05-01T06:32:32Z</time></trkpt><trkpt lat="44.49553135441245" lon="11.342720364788565"><ele>71.0</ele><time>2026-05-01T06:32:34Z</time></trkpt><trkpt lat="44.49544193586294" lon="11.342738481682389"><ele>71.0</ele><time>2026-05-01T06:32:36Z</time></trkpt><trkpt lat="44.495364465281824" lon="11.342724904980484"><ele>71.0</ele><time>2026-05-01T06:32:38Z</time></trkpt><trkpt lat="44.495291787495354" lon="11.342715345982688"><ele>71.16666666666667</ele><time>2026-05-01T06:32:40Z</time></trkpt><trkpt lat="44.49521100795947" lon="11.3426872926444"><ele>71.33333333333334</ele><time>2026-05-01T06:32:42Z</time></trkpt><trkpt lat="44.49513024364057" lon="11.34266155429466"><ele>71.5</ele><time>2026-05-01T06:32:44Z</time></trkpt><trkpt lat="44.495057136849425" lon="11.342620010865101"><ele>71.66666666666667</ele><time>2026-05-01T06:32:46Z</time></trkpt><trkpt lat="44.4949825721691" lon="11.342600962413202"><ele>71.83333333333333</ele><time>2026-05-01T06:32:48Z</time></trkpt><trkpt lat="44.494907581415525" lon="11.34262337493477"><ele>72.0</ele><time>2026-05-01T06:32:50Z</time></trkpt><trkpt lat="44.49483995601175" lon="11.342683377379243"><ele>72.0</ele><time>2026-05-01T06:32:52Z</time></trkpt><trkpt lat="44.49481389988028" lon="11.342791598506437"><ele>72.0</ele><time>2026-05-01T06:32:54Z</time></trkpt><trkpt lat="44.494801620946355" lon="11.342910517018183"><ele>72.0</ele><time>2026-05-01T06:32:56Z</time></trkpt><trkpt lat="44.49478557257069" lon="11.343013572501473"><ele>72.0</ele><time>2026-05-01T06:32:58Z</time></trkpt><trkpt lat="44.494776722891835" lon="11.343122333418187"><ele>72.0</ele><time>2026-05-01T06:33:00Z</time></trkpt><trkpt lat="44.49477116824779" lon="11.343229707274615"><ele>72.0</ele><time>2026-05-01T06:33:02Z</time></trkpt><trkpt lat="44.494757009615356" lon="11.343324843702765"><ele>72.16666666666667</ele><time>2026-05-01T06:33:04Z</time></trkpt><trkpt lat="44.49475163151595" lon="11.343433512075437"><ele>72.33333333333333</ele><time>2026-05-01T06:33:06Z</time></trkpt><trkpt lat="44.494726027264825" lon="11.343537649048091"><ele>72.5</ele><time>2026-05-01T06:33:07.999Z</time></trkpt><trkpt lat="44.494693152643805" lon="11.34365215129715"><ele>72.66666666666666</ele><time>2026-05-01T06:33:09.999Z</time></trkpt><trkpt lat="44.49467233759836" lon="11.343763496922776"><ele>72.83333333333333</ele><time>2026-05-01T06:33:11.999Z</time></trkpt><trkpt lat="44.49462071891079" lon="11.343846752952123"><ele>73.0</ele><time>2026-05-01T06:33:13.999Z</time></trkpt><trkpt lat="44.49455045259591" lon="11.343871380000868"><ele>72.66666666666666</ele><time>2026-05-01T06:33:15.999Z</time></trkpt><trkpt lat="44.494468351362634" lon="11.34385595300086"><ele>72.33333333333333</ele><time>2026-05-01T06:33:17.999Z</time></trkpt><trkpt lat="44.49438724283411" lon="11.343848442219677"><ele>72.0</ele><time>2026-05-01T06:33:19.999Z</time></trkpt><trkpt lat="44.49430489113556" lon="11.343824535351821"><ele>71.66666666666667</ele><time>2026-05-01T06:33:21.999Z</time></trkpt><trkpt lat="44.49422473840527" lon="11.343801617769909"><ele>71.33333333333334</ele><time>2026-05-01T06:33:23.999Z</time></trkpt><trkpt lat="44.494144818665724" lon="11.343781188657685"><ele>71.0</ele><time>2026-05-01T06:33:25.999Z</time></trkpt><trkpt lat="44.49406360584785" lon="11.343758468922639"><ele>71.0</ele><time>2026-05-01T06:33:27.999Z</time></trkpt><trkpt lat="44.49398629613728" lon="11.343733851960794"><ele>71.0</ele><time>2026-05-01T06:33:29.999Z</time></trkpt><trkpt lat="44.493916531935014" lon="11.34370255596881"><ele>71.0</ele><time>2026-05-01T06:33:31.999Z</time></trkpt><trkpt lat="44.49384273574598" lon="11.34370149388547"><ele>71.0</ele><time>2026-05-01T06:33:33.999Z</time></trkpt><trkpt lat="44.493770107563606" lon="11.343681397806877"><ele>71.0</ele><time>2026-05-01T06:33:35.999Z</time></trkpt><trkpt lat="44.49369070996553" lon="11.343672317584138"><ele>71.0</ele><time>2026-05-01T06:33:37.999Z</time></trkpt><trkpt lat="44.49361552206573" lon="11.343657152310705"><ele>71.83333333333334</ele><time>2026-05-01T06:33:39.999Z</time></trkpt><trkpt lat="44.49353951357117" lon="11.343653812284913"><ele>72.66666666666667</ele><time>2026-05-01T06:33:41.999Z</time></trkpt><trkpt lat="44.49346477856054" lon="11.343656567507514"><ele>73.5</ele><time>2026-05-01T06:33:43.999Z</time></trkpt><trkpt lat="44.493392287113494" lon="11.343666713615606"><ele>74.33333333333333</ele><time>2026-05-01T06:33:45.999Z</time></trkpt><trkpt lat="44.493317369356596" lon="11.343655884174279"><ele>75.16666666666666</ele><time>2026-05-01T06:33:47.999Z</time></trkpt><trkpt lat="44.49324074438104" lon="11.3436333363909"><ele>76.0</ele><time>2026-05-01T06:33:49.999Z</time></trkpt><trkpt lat="44.493159161554885" lon="11.343607892489343"><ele>76.0</ele><time>2026-05-01T06:33:51.999Z</time></trkpt><trkpt lat="44.493070262270656" lon="11.34357487277771"><ele>76.0</ele><time>2026-05-01T06:33:53.999Z</time></trkpt><trkpt lat="44.492979960029494" lon="11.343552988386879"><ele>76.0</ele><time>2026-05-01T06:33:56Z</time></trkpt><trkpt lat="44.4928889583444" lon="11.343540837672519"><ele>76.0</ele><time>2026-05-01T06:33:58Z</time></trkpt><trkpt lat="44.49271538168801" lon="11.343497864095516"><ele>76.39999999999999</ele><time>2026-05-01T06:34:03Z</time></trkpt><trkpt lat="44.49261003309733" lon="11.343457710443197"><ele>76.8</ele><time>2026-05-01T06:34:05Z</time></trkpt><trkpt lat="44.4925148129965" lon="11.34345547446977"><ele>77.19999999999999</ele><time>2026-05-01T06:34:07Z</time></trkpt><trkpt lat="44.492423264130714" lon="11.343430663785481"><ele>77.6</ele><time>2026-05-01T06:34:09Z</time></trkpt><trkpt lat="44.49233164861895" lon="11.343390638798226"><ele>78.0</ele><time>2026-05-01T06:34:11Z</time></trkpt><trkpt lat="44.49223488715259" lon="11.343356145223915"><ele>78.0</ele><time>2026-05-01T06:34:13Z</time></trkpt><trkpt lat="44.49213798136199" lon="11.343321459869962"><ele>78.0</ele><time>2026-05-01T06:34:15Z</time></trkpt><trkpt lat="44.49204212340419" lon="11.343302481406102"><ele>78.0</ele><time>2026-05-01T06:34:17Z</time></trkpt><trkpt lat="44.49194739547069" lon="11.343267802080181"><ele>78.0</ele><time>2026-05-01T06:34:19Z</time></trkpt><trkpt lat="44.491852586613156" lon="11.343233788923042"><ele>78.0</ele><time>2026-05-01T06:34:21Z</time></trkpt><trkpt lat="44.491779387408656" lon="11.343205932680494"><ele>76.83333333333333</ele><time>2026-05-01T06:34:25Z</time></trkpt><trkpt lat="44.491700423274814" lon="11.343171438655194"><ele>75.66666666666667</ele><time>2026-05-01T06:34:26Z</time></trkpt><trkpt lat="44.49160431224212" lon="11.343134560453656"><ele>74.5</ele><time>2026-05-01T06:34:28Z</time></trkpt><trkpt lat="44.49152728592322" lon="11.34317386633062"><ele>73.33333333333334</ele><time>2026-05-01T06:34:31Z</time></trkpt><trkpt lat="44.49144901608095" lon="11.343160290551975"><ele>72.16666666666667</ele><time>2026-05-01T06:34:35Z</time></trkpt><trkpt lat="44.49138173963843" lon="11.343212867279801"><ele>71.0</ele><time>2026-05-01T06:34:38Z</time></trkpt><trkpt lat="44.491386792135266" lon="11.343317959240348"><ele>71.0</ele><time>2026-05-01T06:34:40Z</time></trkpt><trkpt lat="44.49138294811019" lon="11.343410478146334"><ele>71.0</ele><time>2026-05-01T06:34:42Z</time></trkpt><trkpt lat="44.491384363082545" lon="11.343500002875357"><ele>71.0</ele><time>2026-05-01T06:34:44Z</time></trkpt><trkpt lat="44.4913784699301" lon="11.343589149685851"><ele>71.0</ele><time>2026-05-01T06:34:48Z</time></trkpt><trkpt lat="44.491359111000094" lon="11.34368745061744"><ele>71.0</ele><time>2026-05-01T06:34:54Z</time></trkpt><trkpt lat="44.491342671974664" lon="11.34378283152894"><ele>71.0</ele><time>2026-05-01T06:34:56Z</time></trkpt><trkpt lat="44.491337183671234" lon="11.343892241438061"><ele>71.0</ele><time>2026-05-01T06:34:58Z</time></trkpt><trkpt lat="44.4913591941938" lon="11.344018605852105"><ele>71.0</ele><time>2026-05-01T06:35:00Z</time></trkpt><trkpt lat="44.4913886637054" lon="11.344153494685726"><ele>71.0</ele><time>2026-05-01T06:35:02Z</time></trkpt><trkpt lat="44.49140307084046" lon="11.344288422137808"><ele>71.0</ele><time>2026-05-01T06:35:04Z</time></trkpt><trkpt lat="44.49140257655691" lon="11.344439747724604"><ele>71.0</ele><time>2026-05-01T06:35:06Z</time></trkpt><trkpt lat="44.491404418735044" lon="11.344578810177394"><ele>71.0</ele><time>2026-05-01T06:35:08Z</time></trkpt><trkpt lat="44.49142063878802" lon="11.344720453141639"><ele>71.0</ele><time>2026-05-01T06:35:09.999Z</time></trkpt><trkpt lat="44.49142720998161" lon="11.344881393237854"><ele>71.0</ele><time>2026-05-01T06:35:11.999Z</time></trkpt><trkpt lat="44.491440669798614" lon="11.345046395045225"><ele>71.0</ele><time>2026-05-01T06:35:13.999Z</time></trkpt><trkpt lat="44.49144467686802" lon="11.34520226836119"><ele>71.0</ele><time>2026-05-01T06:35:15.999Z</time></trkpt><trkpt lat="44.49144586363589" lon="11.345364650289689"><ele>71.0</ele><time>2026-05-01T06:35:17.999Z</time></trkpt><trkpt lat="44.4914582526694" lon="11.345534077150015"><ele>71.0</ele><time>2026-05-01T06:35:19.999Z</time></trkpt><trkpt lat="44.49146332153573" lon="11.345689730359679"><ele>71.0</ele><time>2026-05-01T06:35:21.999Z</time></trkpt><trkpt lat="44.49147310873315" lon="11.345781105228872"><ele>71.0</ele><time>2026-05-01T06:35:22.999Z</time></trkpt><trkpt lat="44.491481790006205" lon="11.345868694805446"><ele>71.0</ele><time>2026-05-01T06:35:23.999Z</time></trkpt><trkpt lat="44.49148611864302" lon="11.346018476193779"><ele>71.39999999999999</ele><time>2026-05-01T06:35:25.999Z</time></trkpt><trkpt lat="44.49148130847063" lon="11.346160137545102"><ele>71.8</ele><time>2026-05-01T06:35:27.999Z</time></trkpt><trkpt lat="44.491486982288" lon="11.346306103345672"><ele>72.19999999999999</ele><time>2026-05-01T06:35:29.999Z</time></trkpt><trkpt lat="44.491480840732514" lon="11.346418549597528"><ele>72.6</ele><time>2026-05-01T06:35:34.999Z</time></trkpt><trkpt lat="44.4913849060422" lon="11.346406086181144"><ele>73.0</ele><time>2026-05-01T06:35:35.999Z</time></trkpt><trkpt lat="44.49129048538196" lon="11.346442371233064"><ele>72.66666666666666</ele><time>2026-05-01T06:35:39.999Z</time></trkpt><trkpt lat="44.4911858316222" lon="11.346473487700424"><ele>72.33333333333333</ele><time>2026-05-01T06:35:42.999Z</time></trkpt><trkpt lat="44.49109272380898" lon="11.346467109999578"><ele>72.0</ele><time>2026-05-01T06:35:44.999Z</time></trkpt><trkpt lat="44.49101567538723" lon="11.34653167974002"><ele>71.66666666666667</ele><time>2026-05-01T06:35:49.999Z</time></trkpt><trkpt lat="44.49094197613374" lon="11.346515073073837"><ele>71.33333333333334</ele><time>2026-05-01T06:35:52.999Z</time></trkpt><trkpt lat="44.49086154221899" lon="11.346534775515098"><ele>71.0</ele><time>2026-05-01T06:35:54.999Z</time></trkpt><trkpt lat="44.49080423133094" lon="11.346574448740842"><ele>71.0</ele><time>2026-05-01T06:35:56.999Z</time></trkpt><trkpt lat="44.49069860727083" lon="11.34662524491605"><ele>71.0</ele><time>2026-05-01T06:35:59.999Z</time></trkpt><trkpt lat="44.490596645890435" lon="11.346619045923429"><ele>71.0</ele><time>2026-05-01T06:36:02Z</time></trkpt><trkpt lat="44.49048838174853" lon="11.346596597731688"><ele>71.0</ele><time>2026-05-01T06:36:04Z</time></trkpt><trkpt lat="44.490400715190724" lon="11.346599398857933"><ele>71.0</ele><time>2026-05-01T06:36:06Z</time></trkpt><trkpt lat="44.49031968774481" lon="11.34660747538649"><ele>71.0</ele><time>2026-05-01T06:36:08Z</time></trkpt><trkpt lat="44.49023357295362" lon="11.346620337956352"><ele>71.0</ele><time>2026-05-01T06:36:10Z</time></trkpt><trkpt lat="44.49015401399469" lon="11.346621928057452"><ele>71.0</ele><time>2026-05-01T06:36:12Z</time></trkpt><trkpt lat="44.49009125189012" lon="11.346664087990387"><ele>71.0</ele><time>2026-05-01T06:36:15Z</time></trkpt><trkpt lat="44.490016801679886" lon="11.346734501286363"><ele>71.0</ele><time>2026-05-01T06:36:18Z</time></trkpt><trkpt lat="44.489962575013216" lon="11.346786287691843"><ele>71.0</ele><time>2026-05-01T06:36:22Z</time></trkpt><trkpt lat="44.48989566169523" lon="11.346842975383327"><ele>71.0</ele><time>2026-05-01T06:36:26.017Z</time></trkpt><trkpt lat="44.48983172827752" lon="11.346892150470527"><ele>71.0</ele><time>2026-05-01T06:36:29.014Z</time></trkpt><trkpt lat="44.48968163954432" lon="11.34700176332462"><ele>71.0</ele><time>2026-05-01T06:36:31Z</time></trkpt><trkpt lat="44.4895911887921" lon="11.347091488740054"><ele>71.0</ele><time>2026-05-01T06:36:32Z</time></trkpt><trkpt lat="44.48953752589156" lon="11.347151374243866"><ele>71.0</ele><time>2026-05-01T06:36:33Z</time></trkpt><trkpt lat="44.489498094696906" lon="11.347035075567893"><ele>71.0</ele><time>2026-05-01T06:36:34Z</time></trkpt><trkpt lat="44.48940623438482" lon="11.347218404066219"><ele>71.0</ele><time>2026-05-01T06:36:35Z</time></trkpt><trkpt lat="44.489310524699555" lon="11.347189952393808"><ele>71.0</ele><time>2026-05-01T06:36:37Z</time></trkpt><trkpt lat="44.48921376169046" lon="11.34724878011879"><ele>71.0</ele><time>2026-05-01T06:36:38Z</time></trkpt><trkpt lat="44.48914222293403" lon="11.34730379409321"><ele>71.0</ele><time>2026-05-01T06:36:39Z</time></trkpt><trkpt lat="44.48904637652073" lon="11.34737265502293"><ele>71.2</ele><time>2026-05-01T06:36:41Z</time></trkpt><trkpt lat="44.48900012944432" lon="11.347445970077091"><ele>71.39999999999999</ele><time>2026-05-01T06:36:42Z</time></trkpt><trkpt lat="44.48891062374516" lon="11.347491970379632"><ele>71.6</ele><time>2026-05-01T06:36:44Z</time></trkpt><trkpt lat="44.48881210503441" lon="11.347549901984527"><ele>71.8</ele><time>2026-05-01T06:36:46Z</time></trkpt><trkpt lat="44.488725980964134" lon="11.347601318025497"><ele>72.0</ele><time>2026-05-01T06:36:48Z</time></trkpt><trkpt lat="44.488636551217596" lon="11.347628054875308"><ele>72.33333333333333</ele><time>2026-05-01T06:36:50Z</time></trkpt><trkpt lat="44.48856560214909" lon="11.347691871599078"><ele>72.66666666666667</ele><time>2026-05-01T06:36:52Z</time></trkpt><trkpt lat="44.48849661750287" lon="11.347716575819854"><ele>73.0</ele><time>2026-05-01T06:36:54Z</time></trkpt><trkpt lat="44.48843106330073" lon="11.34775101104471"><ele>73.33333333333334</ele><time>2026-05-01T06:36:56Z</time></trkpt><trkpt lat="44.48835871532829" lon="11.347787709038172"><ele>73.66666666666667</ele><time>2026-05-01T06:36:58Z</time></trkpt><trkpt lat="44.48827342330265" lon="11.347826699932478"><ele>74.0</ele><time>2026-05-01T06:37:00Z</time></trkpt><trkpt lat="44.4882126314397" lon="11.34786357776169"><ele>74.0</ele><time>2026-05-01T06:37:03Z</time></trkpt><trkpt lat="44.48814849895328" lon="11.347887867318795"><ele>74.0</ele><time>2026-05-01T06:37:06Z</time></trkpt><trkpt lat="44.488072489071676" lon="11.347921847514199"><ele>74.0</ele><time>2026-05-01T06:37:09Z</time></trkpt><trkpt lat="44.48798760005128" lon="11.34795567600933"><ele>74.0</ele><time>2026-05-01T06:37:11Z</time></trkpt><trkpt lat="44.487894985574435" lon="11.347976980829888"><ele>74.0</ele><time>2026-05-01T06:37:13Z</time></trkpt><trkpt lat="44.4878079610216" lon="11.34799921399948"><ele>74.0</ele><time>2026-05-01T06:37:15Z</time></trkpt><trkpt lat="44.48772048335195" lon="11.348015956512771"><ele>74.0</ele><time>2026-05-01T06:37:17Z</time></trkpt><trkpt lat="44.48762418583414" lon="11.348019714604314"><ele>74.0</ele><time>2026-05-01T06:37:20.999Z</time></trkpt><trkpt lat="44.48755823571511" lon="11.348074090473826"><ele>74.0</ele><time>2026-05-01T06:37:23.999Z</time></trkpt><trkpt lat="44.487491326333945" lon="11.34808788213758"><ele>74.0</ele><time>2026-05-01T06:37:26.999Z</time></trkpt><trkpt lat="44.487417071529784" lon="11.348103898249194"><ele>74.0</ele><time>2026-05-01T06:37:29.999Z</time></trkpt><trkpt lat="44.48736698335638" lon="11.34818910085388"><ele>74.0</ele><time>2026-05-01T06:37:31.999Z</time></trkpt><trkpt lat="44.487306075884106" lon="11.348224761177626"><ele>74.0</ele><time>2026-05-01T06:37:33.999Z</time></trkpt><trkpt lat="44.48723114873967" lon="11.348191517490141"><ele>74.0</ele><time>2026-05-01T06:37:35.999Z</time></trkpt><trkpt lat="44.487164263199865" lon="11.348176382779817"><ele>74.0</ele><time>2026-05-01T06:37:37.999Z</time></trkpt><trkpt lat="44.487097845399205" lon="11.348161199066613"><ele>74.0</ele><time>2026-05-01T06:37:39.999Z</time></trkpt><trkpt lat="44.48702825464758" lon="11.348169567011979"><ele>74.0</ele><time>2026-05-01T06:37:41.999Z</time></trkpt><trkpt lat="44.48695550582814" lon="11.348144099647723"><ele>74.0</ele><time>2026-05-01T06:37:43.999Z</time></trkpt><trkpt lat="44.48688495089161" lon="11.348145870355252"><ele>74.0</ele><time>2026-05-01T06:37:45.999Z</time></trkpt><trkpt lat="44.486770401391496" lon="11.348164614260442"><ele>74.16666666666667</ele><time>2026-05-01T06:37:47.999Z</time></trkpt><trkpt lat="44.48667673391031" lon="11.348153209395143"><ele>74.33333333333334</ele><time>2026-05-01T06:37:49.999Z</time></trkpt><trkpt lat="44.48657623488026" lon="11.348176386381459"><ele>74.5</ele><time>2026-05-01T06:37:51.999Z</time></trkpt><trkpt lat="44.48649488176388" lon="11.348166010320432"><ele>74.66666666666667</ele><time>2026-05-01T06:37:54.999Z</time></trkpt><trkpt lat="44.48640499311184" lon="11.348165689788198"><ele>74.83333333333333</ele><time>2026-05-01T06:37:57.999Z</time></trkpt><trkpt lat="44.48634150162124" lon="11.34815902263635"><ele>75.0</ele><time>2026-05-01T06:37:59.999Z</time></trkpt><trkpt lat="44.48626568415883" lon="11.348223283857369"><ele>74.66666666666667</ele><time>2026-05-01T06:38:01.999Z</time></trkpt><trkpt lat="44.48620341820218" lon="11.348205160315084"><ele>74.33333333333333</ele><time>2026-05-01T06:38:03.999Z</time></trkpt><trkpt lat="44.48612098636622" lon="11.3481846834579"><ele>74.0</ele><time>2026-05-01T06:38:05.999Z</time></trkpt><trkpt lat="44.48602716092871" lon="11.348194673375342"><ele>73.66666666666666</ele><time>2026-05-01T06:38:09Z</time></trkpt><trkpt lat="44.485960240875265" lon="11.348197584590933"><ele>73.33333333333333</ele><time>2026-05-01T06:38:11Z</time></trkpt><trkpt lat="44.485896073308766" lon="11.348176606728055"><ele>73.0</ele><time>2026-05-01T06:38:13Z</time></trkpt><trkpt lat="44.485807728267744" lon="11.348147778787094"><ele>73.0</ele><time>2026-05-01T06:38:16Z</time></trkpt><trkpt lat="44.48574511883788" lon="11.348123510654336"><ele>73.0</ele><time>2026-05-01T06:38:18Z</time></trkpt><trkpt lat="44.48566094405578" lon="11.348104146065564"><ele>73.0</ele><time>2026-05-01T06:38:22Z</time></trkpt><trkpt lat="44.48559255025334" lon="11.34808543099036"><ele>73.0</ele><time>2026-05-01T06:38:34Z</time></trkpt><trkpt lat="44.485513814334276" lon="11.348083253071556"><ele>73.0</ele><time>2026-05-01T06:38:37Z</time></trkpt><trkpt lat="44.48544804364363" lon="11.348131886699191"><ele>73.0</ele><time>2026-05-01T06:38:39Z</time></trkpt><trkpt lat="44.48538716242867" lon="11.348202497573922"><ele>73.16666666666666</ele><time>2026-05-01T06:38:41Z</time></trkpt><trkpt lat="44.48533094131554" lon="11.34828807287195"><ele>73.33333333333333</ele><time>2026-05-01T06:38:43Z</time></trkpt><trkpt lat="44.48528668975356" lon="11.348384723605175"><ele>73.5</ele><time>2026-05-01T06:38:45Z</time></trkpt><trkpt lat="44.48523155390216" lon="11.348471658495049"><ele>73.66666666666667</ele><time>2026-05-01T06:38:47Z</time></trkpt><trkpt lat="44.48517212089378" lon="11.348543040615793"><ele>73.83333333333334</ele><time>2026-05-01T06:38:49Z</time></trkpt><trkpt lat="44.48510692070648" lon="11.348610717560057"><ele>74.0</ele><time>2026-05-01T06:38:51Z</time></trkpt><trkpt lat="44.485059003501576" lon="11.348692486948629"><ele>74.0</ele><time>2026-05-01T06:38:53Z</time></trkpt><trkpt lat="44.48503254308796" lon="11.348788809262224"><ele>74.0</ele><time>2026-05-01T06:38:55Z</time></trkpt><trkpt lat="44.48502453654609" lon="11.348882927341787"><ele>74.0</ele><time>2026-05-01T06:38:57Z</time></trkpt><trkpt lat="44.48501859141373" lon="11.348990938328932"><ele>74.0</ele><time>2026-05-01T06:39:00Z</time></trkpt><trkpt lat="44.485004388033154" lon="11.349086949562595"><ele>74.0</ele><time>2026-05-01T06:39:04Z</time></trkpt><trkpt lat="44.48494067403767" lon="11.349141154689285"><ele>74.0</ele><time>2026-05-01T06:39:07Z</time></trkpt><trkpt lat="44.48490193321708" lon="11.34925866924342"><ele>73.83333333333334</ele><time>2026-05-01T06:39:10Z</time></trkpt><trkpt lat="44.48488788287989" lon="11.349359019505679"><ele>73.66666666666667</ele><time>2026-05-01T06:39:12Z</time></trkpt><trkpt lat="44.48486940119184" lon="11.349444557405237"><ele>73.5</ele><time>2026-05-01T06:39:14Z</time></trkpt><trkpt lat="44.48484376227108" lon="11.349542598869384"><ele>73.33333333333333</ele><time>2026-05-01T06:39:16Z</time></trkpt><trkpt lat="44.4848076054587" lon="11.3496547224569"><ele>73.16666666666666</ele><time>2026-05-01T06:39:18Z</time></trkpt><trkpt lat="44.484773217647174" lon="11.349756073163764"><ele>73.0</ele><time>2026-05-01T06:39:20Z</time></trkpt><trkpt lat="44.48473738236776" lon="11.349859161207743"><ele>73.0</ele><time>2026-05-01T06:39:22Z</time></trkpt><trkpt lat="44.48472568880533" lon="11.34997313466694"><ele>73.0</ele><time>2026-05-01T06:39:24Z</time></trkpt><trkpt lat="44.48470402842991" lon="11.350086752061394"><ele>73.0</ele><time>2026-05-01T06:39:26Z</time></trkpt><trkpt lat="44.48467927700308" lon="11.350182090123484"><ele>73.0</ele><time>2026-05-01T06:39:28Z</time></trkpt><trkpt lat="44.48466141501839" lon="11.350286144241947"><ele>73.0</ele><time>2026-05-01T06:39:29.999Z</time></trkpt><trkpt lat="44.48459482474758" lon="11.350380326481618"><ele>73.0</ele><time>2026-05-01T06:39:31.999Z</time></trkpt><trkpt lat="44.48452655269576" lon="11.35044200369739"><ele>73.5</ele><time>2026-05-01T06:39:33.999Z</time></trkpt><trkpt lat="44.48445229548958" lon="11.350474483439575"><ele>74.0</ele><time>2026-05-01T06:39:35.999Z</time></trkpt><trkpt lat="44.484380108369216" lon="11.35044189484118"><ele>74.5</ele><time>2026-05-01T06:39:37.999Z</time></trkpt><trkpt lat="44.484316470233" lon="11.35038053282851"><ele>75.0</ele><time>2026-05-01T06:39:39.999Z</time></trkpt><trkpt lat="44.48424784806893" lon="11.350325398145355"><ele>75.5</ele><time>2026-05-01T06:39:41.999Z</time></trkpt><trkpt lat="44.48418431285694" lon="11.35030551404977"><ele>76.0</ele><time>2026-05-01T06:39:45.999Z</time></trkpt><trkpt lat="44.48409770848155" lon="11.35028731003034"><ele>76.0</ele><time>2026-05-01T06:39:48.999Z</time></trkpt><trkpt lat="44.484009451724404" lon="11.350265219819994"><ele>76.0</ele><time>2026-05-01T06:39:50.999Z</time></trkpt><trkpt lat="44.48394060905552" lon="11.35025749538498"><ele>76.0</ele><time>2026-05-01T06:39:53.999Z</time></trkpt><trkpt lat="44.48386491347434" lon="11.35024873162732"><ele>76.0</ele><time>2026-05-01T06:39:56.999Z</time></trkpt><trkpt lat="44.48379908675907" lon="11.350252737898169"><ele>76.0</ele><time>2026-05-01T06:39:58.999Z</time></trkpt><trkpt lat="44.48373306199414" lon="11.350285814208505"><ele>76.0</ele><time>2026-05-01T06:40:00.999Z</time></trkpt><trkpt lat="44.48366909236463" lon="11.350334319197335"><ele>76.0</ele><time>2026-05-01T06:40:02.999Z</time></trkpt><trkpt lat="44.483625967769484" lon="11.35041229087537"><ele>76.33333333333333</ele><time>2026-05-01T06:40:04.999Z</time></trkpt><trkpt lat="44.48360585952247" lon="11.350497490539503"><ele>76.66666666666666</ele><time>2026-05-01T06:40:06.999Z</time></trkpt><trkpt lat="44.48360017030039" lon="11.350624810084904"><ele>77.0</ele><time>2026-05-01T06:40:09.999Z</time></trkpt><trkpt lat="44.48361326365185" lon="11.350712959719125"><ele>77.33333333333333</ele><time>2026-05-01T06:40:11.999Z</time></trkpt><trkpt lat="44.48359252824279" lon="11.350802833386439"><ele>77.66666666666667</ele><time>2026-05-01T06:40:14Z</time></trkpt><trkpt lat="44.48356765734168" lon="11.350959780082196"><ele>78.0</ele><time>2026-05-01T06:40:17Z</time></trkpt><trkpt lat="44.483587450639575" lon="11.351110540622658"><ele>78.0</ele><time>2026-05-01T06:40:18Z</time></trkpt><trkpt lat="44.48358250020174" lon="11.35123446589365"><ele>78.0</ele><time>2026-05-01T06:40:19Z</time></trkpt><trkpt lat="44.483630735389696" lon="11.351385010966728"><ele>78.0</ele><time>2026-05-01T06:40:21Z</time></trkpt><trkpt lat="44.48361851231104" lon="11.351520791084699"><ele>78.0</ele><time>2026-05-01T06:40:23Z</time></trkpt><trkpt lat="44.48359619640382" lon="11.351640480813957"><ele>78.0</ele><time>2026-05-01T06:40:24Z</time></trkpt><trkpt lat="44.483573300126636" lon="11.351733268603745"><ele>78.0</ele><time>2026-05-01T06:40:25Z</time></trkpt><trkpt lat="44.48354584949205" lon="11.351824657853417"><ele>78.0</ele><time>2026-05-01T06:40:26Z</time></trkpt><trkpt lat="44.4835166407184" lon="11.35190899560093"><ele>78.0</ele><time>2026-05-01T06:40:27Z</time></trkpt><trkpt lat="44.483486078107475" lon="11.35198925017071"><ele>78.0</ele><time>2026-05-01T06:40:28Z</time></trkpt><trkpt lat="44.48342990274983" lon="11.352127425939825"><ele>78.0</ele><time>2026-05-01T06:40:30Z</time></trkpt><trkpt lat="44.48339490338914" lon="11.35220619626812"><ele>78.0</ele><time>2026-05-01T06:40:31Z</time></trkpt><trkpt lat="44.48335900067544" lon="11.352283013143298"><ele>78.0</ele><time>2026-05-01T06:40:32Z</time></trkpt><trkpt lat="44.48328532034448" lon="11.352420535674677"><ele>78.0</ele><time>2026-05-01T06:40:34Z</time></trkpt><trkpt lat="44.483226294683746" lon="11.352562983088827"><ele>78.0</ele><time>2026-05-01T06:40:36Z</time></trkpt><trkpt lat="44.48315185932088" lon="11.352695403057082"><ele>78.0</ele><time>2026-05-01T06:40:38Z</time></trkpt><trkpt lat="44.48308408921577" lon="11.352828081256995"><ele>78.0</ele><time>2026-05-01T06:40:40Z</time></trkpt><trkpt lat="44.48300312977796" lon="11.352947764774704"><ele>77.75</ele><time>2026-05-01T06:40:42Z</time></trkpt><trkpt lat="44.48293869450465" lon="11.353078101256814"><ele>77.5</ele><time>2026-05-01T06:40:44Z</time></trkpt><trkpt lat="44.48288904236995" lon="11.353218222878956"><ele>77.25</ele><time>2026-05-01T06:40:46Z</time></trkpt><trkpt lat="44.48282795953963" lon="11.353355364813122"><ele>77.0</ele><time>2026-05-01T06:40:48Z</time></trkpt><trkpt lat="44.482765340873605" lon="11.353490147359917"><ele>77.4</ele><time>2026-05-01T06:40:50Z</time></trkpt><trkpt lat="44.48272891535444" lon="11.353647443162847"><ele>77.80000000000001</ele><time>2026-05-01T06:40:52Z</time></trkpt><trkpt lat="44.48270768154639" lon="11.353818259842669"><ele>78.2</ele><time>2026-05-01T06:40:54Z</time></trkpt><trkpt lat="44.482703817577786" lon="11.353907755065269"><ele>78.60000000000001</ele><time>2026-05-01T06:40:55Z</time></trkpt><trkpt lat="44.4827057422428" lon="11.354082136877414"><ele>79.0</ele><time>2026-05-01T06:40:57Z</time></trkpt><trkpt lat="44.48271089397284" lon="11.354170402580337"><ele>79.0</ele><time>2026-05-01T06:40:58Z</time></trkpt><trkpt lat="44.48273040325338" lon="11.354257325944129"><ele>79.0</ele><time>2026-05-01T06:40:59Z</time></trkpt><trkpt lat="44.48274196158587" lon="11.354427981884674"><ele>79.0</ele><time>2026-05-01T06:41:01Z</time></trkpt><trkpt lat="44.482784012216406" lon="11.354590348601121"><ele>79.0</ele><time>2026-05-01T06:41:03Z</time></trkpt><trkpt lat="44.48281833528016" lon="11.354726039783637"><ele>79.0</ele><time>2026-05-01T06:41:05Z</time></trkpt><trkpt lat="44.48273217187565" lon="11.354867713350894"><ele>78.2</ele><time>2026-05-01T06:41:06Z</time></trkpt><trkpt lat="44.48262529471111" lon="11.354954816486554"><ele>77.4</ele><time>2026-05-01T06:41:08Z</time></trkpt><trkpt lat="44.48258400620119" lon="11.35502197245254"><ele>76.6</ele><time>2026-05-01T06:41:09Z</time></trkpt><trkpt lat="44.482486763430835" lon="11.355104631755061"><ele>75.8</ele><time>2026-05-01T06:41:11Z</time></trkpt><trkpt lat="44.48237689218851" lon="11.355162917863117"><ele>75.0</ele><time>2026-05-01T06:41:13Z</time></trkpt><trkpt lat="44.48230600919024" lon="11.355176384988471"><ele>75.0</ele><time>2026-05-01T06:41:14Z</time></trkpt><trkpt lat="44.48219388342135" lon="11.355168180495808"><ele>75.0</ele><time>2026-05-01T06:41:16Z</time></trkpt><trkpt lat="44.48210198766045" lon="11.355117257342656"><ele>75.0</ele><time>2026-05-01T06:41:18Z</time></trkpt><trkpt lat="44.482006268136566" lon="11.355132243093209"><ele>75.0</ele><time>2026-05-01T06:41:20Z</time></trkpt><trkpt lat="44.481915582428904" lon="11.35514840672336"><ele>75.0</ele><time>2026-05-01T06:41:22Z</time></trkpt><trkpt lat="44.48182345154708" lon="11.355165092441936"><ele>75.66666666666667</ele><time>2026-05-01T06:41:24Z</time></trkpt><trkpt lat="44.48173668071131" lon="11.355185229565713"><ele>76.33333333333333</ele><time>2026-05-01T06:41:26Z</time></trkpt><trkpt lat="44.48165217632101" lon="11.355188949226145"><ele>77.0</ele><time>2026-05-01T06:41:28Z</time></trkpt><trkpt lat="44.481584220646866" lon="11.355192519515976"><ele>77.66666666666666</ele><time>2026-05-01T06:41:30.999Z</time></trkpt><trkpt lat="44.48151860259831" lon="11.355203357951703"><ele>78.33333333333333</ele><time>2026-05-01T06:41:33.999Z</time></trkpt><trkpt lat="44.48146368267927" lon="11.355267118844978"><ele>79.0</ele><time>2026-05-01T06:41:37.999Z</time></trkpt><trkpt lat="44.48149899001408" lon="11.35536989441018"><ele>79.0</ele><time>2026-05-01T06:41:40.999Z</time></trkpt><trkpt lat="44.48145459891547" lon="11.355482103492882"><ele>79.0</ele><time>2026-05-01T06:41:43.999Z</time></trkpt><trkpt lat="44.481379758094874" lon="11.355525827201934"><ele>79.0</ele><time>2026-05-01T06:41:45.999Z</time></trkpt><trkpt lat="44.4813044105908" lon="11.355556264899418"><ele>79.0</ele><time>2026-05-01T06:41:47.999Z</time></trkpt><trkpt lat="44.481230736179455" lon="11.355568214487702"><ele>79.0</ele><time>2026-05-01T06:41:49.999Z</time></trkpt><trkpt lat="44.48116632463873" lon="11.355573365674259"><ele>79.0</ele><time>2026-05-01T06:41:51.999Z</time></trkpt><trkpt lat="44.481073171949625" lon="11.355586656569416"><ele>78.85714285714286</ele><time>2026-05-01T06:41:54.999Z</time></trkpt><trkpt lat="44.48100281753517" lon="11.355598914190328"><ele>78.71428571428572</ele><time>2026-05-01T06:41:58.999Z</time></trkpt><trkpt lat="44.48096747637171" lon="11.355673617761207"><ele>78.57142857142858</ele><time>2026-05-01T06:42:01.999Z</time></trkpt><trkpt lat="44.48093271383045" lon="11.355762157499635"><ele>78.42857142857143</ele><time>2026-05-01T06:42:03.999Z</time></trkpt><trkpt lat="44.48089515811359" lon="11.355856977222173"><ele>78.28571428571428</ele><time>2026-05-01T06:42:05.999Z</time></trkpt><trkpt lat="44.48085924437017" lon="11.355978076256669"><ele>78.14285714285715</ele><time>2026-05-01T06:42:14.999Z</time></trkpt><trkpt lat="44.48081018044768" lon="11.356043265398386"><ele>78.0</ele><time>2026-05-01T06:42:20Z</time></trkpt><trkpt lat="44.48075296670645" lon="11.355966060940089"><ele>78.0</ele><time>2026-05-01T06:42:22Z</time></trkpt><trkpt lat="44.48069775241743" lon="11.355862499190195"><ele>78.0</ele><time>2026-05-01T06:42:25Z</time></trkpt><trkpt lat="44.480654531506396" lon="11.35579028603516"><ele>78.0</ele><time>2026-05-01T06:42:27Z</time></trkpt><trkpt lat="44.48061227949169" lon="11.355719950732423"><ele>78.0</ele><time>2026-05-01T06:42:29Z</time></trkpt><trkpt lat="44.48056365604213" lon="11.355652431819044"><ele>78.0</ele><time>2026-05-01T06:42:31Z</time></trkpt><trkpt lat="44.48052155296648" lon="11.3555800338984"><ele>78.0</ele><time>2026-05-01T06:42:33Z</time></trkpt><trkpt lat="44.48048053882592" lon="11.355506303976439"><ele>78.0</ele><time>2026-05-01T06:42:35Z</time></trkpt><trkpt lat="44.48042456505112" lon="11.355446319910275"><ele>78.42857142857143</ele><time>2026-05-01T06:42:37Z</time></trkpt><trkpt lat="44.48035105596486" lon="11.355431944525947"><ele>78.85714285714285</ele><time>2026-05-01T06:42:39Z</time></trkpt><trkpt lat="44.48028691992667" lon="11.355471433787304"><ele>79.28571428571428</ele><time>2026-05-01T06:42:41Z</time></trkpt><trkpt lat="44.48023284584466" lon="11.35553674775831"><ele>79.71428571428572</ele><time>2026-05-01T06:42:43Z</time></trkpt><trkpt lat="44.48018248857359" lon="11.35561089812371"><ele>80.14285714285714</ele><time>2026-05-01T06:42:45Z</time></trkpt><trkpt lat="44.480137409143055" lon="11.355687802892865"><ele>80.57142857142857</ele><time>2026-05-01T06:42:47Z</time></trkpt><trkpt lat="44.48009371154271" lon="11.355763760551172"><ele>81.0</ele><time>2026-05-01T06:42:49Z</time></trkpt><trkpt lat="44.480041762493805" lon="11.355833942292458"><ele>81.0</ele><time>2026-05-01T06:42:51Z</time></trkpt><trkpt lat="44.479993791730685" lon="11.355907192557"><ele>81.0</ele><time>2026-05-01T06:42:53Z</time></trkpt><trkpt lat="44.4799510722534" lon="11.355979287426383"><ele>81.0</ele><time>2026-05-01T06:42:55Z</time></trkpt><trkpt lat="44.47990425380803" lon="11.35605612652377"><ele>81.0</ele><time>2026-05-01T06:42:57Z</time></trkpt><trkpt lat="44.47985858776484" lon="11.356130159222543"><ele>81.0</ele><time>2026-05-01T06:42:59Z</time></trkpt><trkpt lat="44.47981592374785" lon="11.356209261435072"><ele>81.0</ele><time>2026-05-01T06:43:01Z</time></trkpt><trkpt lat="44.4797733249142" lon="11.356298251542729"><ele>81.0</ele><time>2026-05-01T06:43:03Z</time></trkpt><trkpt lat="44.47971411258004" lon="11.356378221726999"><ele>80.83333333333333</ele><time>2026-05-01T06:43:05Z</time></trkpt><trkpt lat="44.4796593058605" lon="11.35646331682073"><ele>80.66666666666667</ele><time>2026-05-01T06:43:07Z</time></trkpt><trkpt lat="44.479616114816004" lon="11.356536835845317"><ele>80.5</ele><time>2026-05-01T06:43:09Z</time></trkpt><trkpt lat="44.47957532674076" lon="11.356621635607336"><ele>80.33333333333334</ele><time>2026-05-01T06:43:11Z</time></trkpt><trkpt lat="44.47952037534926" lon="11.35670140321819"><ele>80.16666666666667</ele><time>2026-05-01T06:43:13Z</time></trkpt><trkpt lat="44.47945454714754" lon="11.356778114371668"><ele>80.0</ele><time>2026-05-01T06:43:15Z</time></trkpt><trkpt lat="44.47940343729079" lon="11.35687092594538"><ele>80.33333333333334</ele><time>2026-05-01T06:43:17Z</time></trkpt><trkpt lat="44.47935001437666" lon="11.356955812901509"><ele>80.66666666666667</ele><time>2026-05-01T06:43:19Z</time></trkpt><trkpt lat="44.479300281319524" lon="11.35703972242841"><ele>81.0</ele><time>2026-05-01T06:43:21Z</time></trkpt><trkpt lat="44.47924550977696" lon="11.357122119505751"><ele>81.33333333333333</ele><time>2026-05-01T06:43:23Z</time></trkpt><trkpt lat="44.47919251006261" lon="11.357206444256162"><ele>81.66666666666666</ele><time>2026-05-01T06:43:25Z</time></trkpt><trkpt lat="44.47913563799115" lon="11.357288756227986"><ele>82.0</ele><time>2026-05-01T06:43:28Z</time></trkpt><trkpt lat="44.47908871169156" lon="11.357358989037165"><ele>81.99999999999999</ele><time>2026-05-01T06:43:29Z</time></trkpt><trkpt lat="44.47905564507835" lon="11.3574473660288"><ele>82.0</ele><time>2026-05-01T06:43:32Z</time></trkpt><trkpt lat="44.479009401136636" lon="11.357519014632734"><ele>82.0</ele><time>2026-05-01T06:43:33Z</time></trkpt><trkpt lat="44.478946766759826" lon="11.3575063226845"><ele>82.0</ele><time>2026-05-01T06:43:34.999Z</time></trkpt><trkpt lat="44.47890378914621" lon="11.357404949240845"><ele>82.0</ele><time>2026-05-01T06:43:36.999Z</time></trkpt><trkpt lat="44.47885060314908" lon="11.357341718777095"><ele>81.99999999999999</ele><time>2026-05-01T06:43:39.999Z</time></trkpt><trkpt lat="44.47880032853405" lon="11.357276543630913"><ele>82.0</ele><time>2026-05-01T06:43:41.999Z</time></trkpt><trkpt lat="44.47874898590129" lon="11.357218547772089"><ele>82.83333333333333</ele><time>2026-05-01T06:43:43.999Z</time></trkpt><trkpt lat="44.478696548721175" lon="11.35713054082255"><ele>83.66666666666666</ele><time>2026-05-01T06:43:46.999Z</time></trkpt><trkpt lat="44.478645488060955" lon="11.357051230629745"><ele>84.5</ele><time>2026-05-01T06:43:49.999Z</time></trkpt><trkpt lat="44.47858296316159" lon="11.356984233852723"><ele>85.33333333333333</ele><time>2026-05-01T06:43:51.999Z</time></trkpt><trkpt lat="44.47853039024494" lon="11.356926641552729"><ele>86.16666666666667</ele><time>2026-05-01T06:43:53.999Z</time></trkpt><trkpt lat="44.4784707480739" lon="11.356859011459935"><ele>87.0</ele><time>2026-05-01T06:43:55.999Z</time></trkpt><trkpt lat="44.47841412223288" lon="11.35675287288687"><ele>87.0</ele><time>2026-05-01T06:43:58.999Z</time></trkpt><trkpt lat="44.47835848508239" lon="11.356695783787638"><ele>87.0</ele><time>2026-05-01T06:44:00.999Z</time></trkpt><trkpt lat="44.47830856443546" lon="11.356632943498374"><ele>87.0</ele><time>2026-05-01T06:44:02.999Z</time></trkpt><trkpt lat="44.47826036654338" lon="11.356573305469063"><ele>87.0</ele><time>2026-05-01T06:44:04.999Z</time></trkpt><trkpt lat="44.47820486201687" lon="11.35650894314284"><ele>87.0</ele><time>2026-05-01T06:44:06.999Z</time></trkpt><trkpt lat="44.47814388014407" lon="11.356453846291389"><ele>87.0</ele><time>2026-05-01T06:44:08.999Z</time></trkpt><trkpt lat="44.478091601551135" lon="11.356391050446906"><ele>87.0</ele><time>2026-05-01T06:44:10.999Z</time></trkpt><trkpt lat="44.47803718143019" lon="11.35632351833222"><ele>87.66666666666667</ele><time>2026-05-01T06:44:12.999Z</time></trkpt><trkpt lat="44.47798210079425" lon="11.356266770199872"><ele>88.33333333333333</ele><time>2026-05-01T06:44:14.999Z</time></trkpt><trkpt lat="44.47790265468489" lon="11.356182540761184"><ele>89.0</ele><time>2026-05-01T06:44:16.999Z</time></trkpt><trkpt lat="44.4778329338119" lon="11.35612356318338"><ele>89.66666666666666</ele><time>2026-05-01T06:44:18.999Z</time></trkpt><trkpt lat="44.47778108561069" lon="11.356056204641844"><ele>90.33333333333333</ele><time>2026-05-01T06:44:20.999Z</time></trkpt><trkpt lat="44.477723535751295" lon="11.355987639054193"><ele>91.0</ele><time>2026-05-01T06:44:22.999Z</time></trkpt><trkpt lat="44.47766822820394" lon="11.355925086094405"><ele>91.14285714285714</ele><time>2026-05-01T06:44:25Z</time></trkpt><trkpt lat="44.477604501680275" lon="11.355863029760634"><ele>91.28571428571428</ele><time>2026-05-01T06:44:27Z</time></trkpt><trkpt lat="44.47754952219471" lon="11.355795911751779"><ele>91.42857142857143</ele><time>2026-05-01T06:44:29Z</time></trkpt><trkpt lat="44.47749433786723" lon="11.355734774790031"><ele>91.57142857142857</ele><time>2026-05-01T06:44:31Z</time></trkpt><trkpt lat="44.47743105576613" lon="11.355678967464401"><ele>91.71428571428571</ele><time>2026-05-01T06:44:33Z</time></trkpt><trkpt lat="44.47738638503705" lon="11.355613885468523"><ele>91.85714285714286</ele><time>2026-05-01T06:44:35Z</time></trkpt><trkpt lat="44.47733087216916" lon="11.355558158641662"><ele>92.0</ele><time>2026-05-01T06:44:37Z</time></trkpt><trkpt lat="44.4772697238306" lon="11.355515422988814"><ele>92.0</ele><time>2026-05-01T06:44:40Z</time></trkpt><trkpt lat="44.47719478919746" lon="11.355516024403242"><ele>92.0</ele><time>2026-05-01T06:44:43Z</time></trkpt><trkpt lat="44.47714603417063" lon="11.35560297028469"><ele>92.0</ele><time>2026-05-01T06:44:45Z</time></trkpt><trkpt lat="44.477114715228716" lon="11.355709511203832"><ele>92.0</ele><time>2026-05-01T06:44:47Z</time></trkpt><trkpt lat="44.47709098666812" lon="11.355847677135332"><ele>92.0</ele><time>2026-05-01T06:44:49Z</time></trkpt><trkpt lat="44.477052566640225" lon="11.356007598544016"><ele>91.66666666666667</ele><time>2026-05-01T06:44:51Z</time></trkpt><trkpt lat="44.47700139284442" lon="11.356168383532236"><ele>91.33333333333334</ele><time>2026-05-01T06:44:53Z</time></trkpt><trkpt lat="44.47697439348081" lon="11.356252818693687"><ele>91.0</ele><time>2026-05-01T06:44:54Z</time></trkpt><trkpt lat="44.47695200068714" lon="11.356341630344136"><ele>90.66666666666667</ele><time>2026-05-01T06:44:55Z</time></trkpt><trkpt lat="44.47692665351586" lon="11.356425267237396"><ele>90.33333333333333</ele><time>2026-05-01T06:44:56Z</time></trkpt><trkpt lat="44.47687304817111" lon="11.35658022919694"><ele>90.0</ele><time>2026-05-01T06:44:58Z</time></trkpt><trkpt lat="44.47683459992955" lon="11.356732354590099"><ele>90.0</ele><time>2026-05-01T06:45:00Z</time></trkpt><trkpt lat="44.47680386361263" lon="11.356872995647926"><ele>90.0</ele><time>2026-05-01T06:45:02Z</time></trkpt><trkpt lat="44.47677600701568" lon="11.35701258740106"><ele>90.0</ele><time>2026-05-01T06:45:04Z</time></trkpt><trkpt lat="44.476766128626466" lon="11.35713911476751"><ele>90.0</ele><time>2026-05-01T06:45:06Z</time></trkpt><trkpt lat="44.47674253527469" lon="11.357267800703777"><ele>90.0</ele><time>2026-05-01T06:45:08Z</time></trkpt><trkpt lat="44.476717263157475" lon="11.357413116147828"><ele>90.0</ele><time>2026-05-01T06:45:10Z</time></trkpt><trkpt lat="44.47669506984239" lon="11.357547112980651"><ele>90.0</ele><time>2026-05-01T06:45:12Z</time></trkpt><trkpt lat="44.476675165587686" lon="11.357686385894336"><ele>90.0</ele><time>2026-05-01T06:45:14Z</time></trkpt><trkpt lat="44.476662096586246" lon="11.357826047547995"><ele>90.0</ele><time>2026-05-01T06:45:16Z</time></trkpt><trkpt lat="44.476655168039755" lon="11.357960032917163"><ele>90.0</ele><time>2026-05-01T06:45:18Z</time></trkpt><trkpt lat="44.47664352274709" lon="11.358107715122348"><ele>90.33333333333333</ele><time>2026-05-01T06:45:20Z</time></trkpt><trkpt lat="44.47663219313416" lon="11.358268488804777"><ele>90.66666666666667</ele><time>2026-05-01T06:45:22Z</time></trkpt><trkpt lat="44.47662713255175" lon="11.358357037906186"><ele>91.0</ele><time>2026-05-01T06:45:23Z</time></trkpt><trkpt lat="44.47661120651855" lon="11.358531631126567"><ele>91.33333333333334</ele><time>2026-05-01T06:45:25Z</time></trkpt><trkpt lat="44.47660532390377" lon="11.358625577277504"><ele>91.66666666666667</ele><time>2026-05-01T06:45:26Z</time></trkpt><trkpt lat="44.47658636067408" lon="11.358723526750689"><ele>92.0</ele><time>2026-05-01T06:45:27Z</time></trkpt><trkpt lat="44.47658040179025" lon="11.358825508713403"><ele>91.66666666666667</ele><time>2026-05-01T06:45:28Z</time></trkpt><trkpt lat="44.47657466202062" lon="11.358923740670111"><ele>91.33333333333334</ele><time>2026-05-01T06:45:29Z</time></trkpt><trkpt lat="44.47656894517359" lon="11.359021580439274"><ele>91.0</ele><time>2026-05-01T06:45:30Z</time></trkpt><trkpt lat="44.47656216008579" lon="11.359117551352108"><ele>90.66666666666667</ele><time>2026-05-01T06:45:31Z</time></trkpt><trkpt lat="44.47654194455028" lon="11.359299170769537"><ele>90.33333333333333</ele><time>2026-05-01T06:45:33Z</time></trkpt><trkpt lat="44.47652617714392" lon="11.359390280712843"><ele>90.0</ele><time>2026-05-01T06:45:34Z</time></trkpt><trkpt lat="44.47650891143989" lon="11.359480310172536"><ele>90.0</ele><time>2026-05-01T06:45:35Z</time></trkpt><trkpt lat="44.476490297643274" lon="11.35956730194726"><ele>90.0</ele><time>2026-05-01T06:45:36Z</time></trkpt><trkpt lat="44.47647205374732" lon="11.359651838693903"><ele>90.0</ele><time>2026-05-01T06:45:37Z</time></trkpt><trkpt lat="44.47642412465052" lon="11.359804183576282"><ele>90.0</ele><time>2026-05-01T06:45:39Z</time></trkpt><trkpt lat="44.47637066950487" lon="11.359941861401861"><ele>90.0</ele><time>2026-05-01T06:45:41Z</time></trkpt><trkpt lat="44.476309427224685" lon="11.360069767891124"><ele>90.4</ele><time>2026-05-01T06:45:42.999Z</time></trkpt><trkpt lat="44.476248033547925" lon="11.360191215540135"><ele>90.8</ele><time>2026-05-01T06:45:44.999Z</time></trkpt><trkpt lat="44.47619369181089" lon="11.360327678064344"><ele>91.19999999999999</ele><time>2026-05-01T06:45:46.999Z</time></trkpt><trkpt lat="44.476122384208786" lon="11.360438147221737"><ele>91.6</ele><time>2026-05-01T06:45:48.999Z</time></trkpt><trkpt lat="44.47605918905654" lon="11.360561021977094"><ele>92.0</ele><time>2026-05-01T06:45:50.999Z</time></trkpt><trkpt lat="44.47599830046282" lon="11.360679411817156"><ele>92.0</ele><time>2026-05-01T06:45:52.999Z</time></trkpt><trkpt lat="44.475936014501166" lon="11.360800518659133"><ele>92.0</ele><time>2026-05-01T06:45:54.999Z</time></trkpt><trkpt lat="44.475875447539266" lon="11.360918283115964"><ele>92.0</ele><time>2026-05-01T06:45:56.999Z</time></trkpt><trkpt lat="44.475812775714864" lon="11.36104014024732"><ele>92.0</ele><time>2026-05-01T06:45:58.999Z</time></trkpt><trkpt lat="44.47575216060363" lon="11.36115799853171"><ele>92.0</ele><time>2026-05-01T06:46:00.999Z</time></trkpt><trkpt lat="44.47568736919205" lon="11.361282715812978"><ele>91.39999999999999</ele><time>2026-05-01T06:46:02.999Z</time></trkpt><trkpt lat="44.47562474685072" lon="11.361402331951309"><ele>90.8</ele><time>2026-05-01T06:46:04.999Z</time></trkpt><trkpt lat="44.47555937895738" lon="11.361524033431694"><ele>90.2</ele><time>2026-05-01T06:46:06.999Z</time></trkpt><trkpt lat="44.475494428790995" lon="11.361644957193919"><ele>89.6</ele><time>2026-05-01T06:46:08.999Z</time></trkpt><trkpt lat="44.4754343194586" lon="11.361756868393245"><ele>89.0</ele><time>2026-05-01T06:46:10.999Z</time></trkpt><trkpt lat="44.47538061954434" lon="11.361856846489722"><ele>90.0</ele><time>2026-05-01T06:46:12.999Z</time></trkpt><trkpt lat="44.47533001992089" lon="11.361951052622105"><ele>91.0</ele><time>2026-05-01T06:46:14.999Z</time></trkpt><trkpt lat="44.47528251324782" lon="11.362039662721319"><ele>92.0</ele><time>2026-05-01T06:46:16.999Z</time></trkpt><trkpt lat="44.475239555950225" lon="11.362120457465458"><ele>93.0</ele><time>2026-05-01T06:46:18.999Z</time></trkpt><trkpt lat="44.47519403870609" lon="11.362206067010776"><ele>94.0</ele><time>2026-05-01T06:46:20.999Z</time></trkpt><trkpt lat="44.475168322263244" lon="11.362313006124179"><ele>95.0</ele><time>2026-05-01T06:46:22.999Z</time></trkpt><trkpt lat="44.47511538608207" lon="11.362409265493511"><ele>95.2</ele><time>2026-05-01T06:46:24.999Z</time></trkpt><trkpt lat="44.47506005699946" lon="11.362495493758733"><ele>95.4</ele><time>2026-05-01T06:46:26.999Z</time></trkpt><trkpt lat="44.47499956358996" lon="11.362591398667051"><ele>95.6</ele><time>2026-05-01T06:46:28.999Z</time></trkpt><trkpt lat="44.474944403184146" lon="11.36270534121825"><ele>95.8</ele><time>2026-05-01T06:46:31Z</time></trkpt><trkpt lat="44.47487215498321" lon="11.362806932951575"><ele>96.0</ele><time>2026-05-01T06:46:33Z</time></trkpt><trkpt lat="44.47482222982151" lon="11.362923960839218"><ele>96.19999999999999</ele><time>2026-05-01T06:46:35Z</time></trkpt><trkpt lat="44.474759718902845" lon="11.363031643719037"><ele>96.39999999999999</ele><time>2026-05-01T06:46:37Z</time></trkpt><trkpt lat="44.47468824277251" lon="11.363150574158633"><ele>96.6</ele><time>2026-05-01T06:46:39Z</time></trkpt><trkpt lat="44.47461982954588" lon="11.363271126370742"><ele>96.8</ele><time>2026-05-01T06:46:41Z</time></trkpt><trkpt lat="44.47454731204937" lon="11.363393086463503"><ele>97.0</ele><time>2026-05-01T06:46:43Z</time></trkpt><trkpt lat="44.47448209862786" lon="11.363494845727853"><ele>97.00000000000001</ele><time>2026-05-01T06:46:45Z</time></trkpt><trkpt lat="44.474399658800216" lon="11.36359430484841"><ele>97.0</ele><time>2026-05-01T06:46:47Z</time></trkpt><trkpt lat="44.47433135226368" lon="11.363698020851812"><ele>97.0</ele><time>2026-05-01T06:46:49Z</time></trkpt><trkpt lat="44.474272018868646" lon="11.363779682139205"><ele>97.0</ele><time>2026-05-01T06:46:51Z</time></trkpt><trkpt lat="44.4742174839529" lon="11.363843669845716"><ele>97.00000000000001</ele><time>2026-05-01T06:46:53Z</time></trkpt><trkpt lat="44.474153967857504" lon="11.363910705005484"><ele>97.0</ele><time>2026-05-01T06:46:56Z</time></trkpt><trkpt lat="44.47410820348229" lon="11.363973689220728"><ele>96.50000000000001</ele><time>2026-05-01T06:46:58Z</time></trkpt><trkpt lat="44.474043178336146" lon="11.364024448866074"><ele>96.0</ele><time>2026-05-01T06:47:00Z</time></trkpt><trkpt lat="44.47398895408936" lon="11.364103400322236"><ele>95.5</ele><time>2026-05-01T06:47:03Z</time></trkpt><trkpt lat="44.47392571898319" lon="11.36416895162285"><ele>95.0</ele><time>2026-05-01T06:47:06Z</time></trkpt><trkpt lat="44.47386249181852" lon="11.364232845518982"><ele>94.5</ele><time>2026-05-01T06:47:09Z</time></trkpt><trkpt lat="44.47379614464225" lon="11.364289589719249"><ele>94.0</ele><time>2026-05-01T06:47:12Z</time></trkpt><trkpt lat="44.473730431523755" lon="11.364337779389993"><ele>95.57142857142857</ele><time>2026-05-01T06:47:15Z</time></trkpt><trkpt lat="44.473664201049054" lon="11.364384511779184"><ele>97.14285714285714</ele><time>2026-05-01T06:47:18Z</time></trkpt><trkpt lat="44.47359019197773" lon="11.364425214364388"><ele>98.71428571428572</ele><time>2026-05-01T06:47:21Z</time></trkpt><trkpt lat="44.47352724634054" lon="11.364466154602926"><ele>100.28571428571428</ele><time>2026-05-01T06:47:24Z</time></trkpt><trkpt lat="44.47346840892188" lon="11.364522501878845"><ele>101.85714285714286</ele><time>2026-05-01T06:47:27Z</time></trkpt><trkpt lat="44.473404048824825" lon="11.36455965583898"><ele>103.42857142857143</ele><time>2026-05-01T06:47:30Z</time></trkpt><trkpt lat="44.47333856803865" lon="11.364610167678837"><ele>105.0</ele><time>2026-05-01T06:47:33Z</time></trkpt><trkpt lat="44.47326145731463" lon="11.36467355167398"><ele>105.83333333333333</ele><time>2026-05-01T06:47:36Z</time></trkpt><trkpt lat="44.473201380085605" lon="11.364738771206554"><ele>106.66666666666666</ele><time>2026-05-01T06:47:38Z</time></trkpt><trkpt lat="44.47313976710005" lon="11.36480661301599"><ele>107.5</ele><time>2026-05-01T06:47:40Z</time></trkpt><trkpt lat="44.47308357208147" lon="11.364895444054765"><ele>108.33333333333333</ele><time>2026-05-01T06:47:42Z</time></trkpt><trkpt lat="44.47302695397356" lon="11.364986294295552"><ele>109.16666666666666</ele><time>2026-05-01T06:47:44Z</time></trkpt><trkpt lat="44.472976067862554" lon="11.365096571299796"><ele>110.0</ele><time>2026-05-01T06:47:46Z</time></trkpt><trkpt lat="44.47293676395891" lon="11.365210700916313"><ele>109.99999999999999</ele><time>2026-05-01T06:47:47.999Z</time></trkpt><trkpt lat="44.47289264485246" lon="11.365322405364449"><ele>110.0</ele><time>2026-05-01T06:47:49.999Z</time></trkpt><trkpt lat="44.47283755346311" lon="11.36542162002549"><ele>110.0</ele><time>2026-05-01T06:47:51.999Z</time></trkpt><trkpt lat="44.47280111111065" lon="11.365537427381737"><ele>110.0</ele><time>2026-05-01T06:47:53.999Z</time></trkpt><trkpt lat="44.47276106985908" lon="11.365628401907129"><ele>109.99999999999999</ele><time>2026-05-01T06:47:55.999Z</time></trkpt><trkpt lat="44.47272275617006" lon="11.36571585250542"><ele>110.0</ele><time>2026-05-01T06:47:57.999Z</time></trkpt><trkpt lat="44.472683084939746" lon="11.3658027533575"><ele>109.49999999999999</ele><time>2026-05-01T06:47:59.999Z</time></trkpt><trkpt lat="44.472641666650055" lon="11.365899863599019"><ele>109.0</ele><time>2026-05-01T06:48:01.999Z</time></trkpt><trkpt lat="44.472607002082924" lon="11.366002401587016"><ele>108.5</ele><time>2026-05-01T06:48:03.999Z</time></trkpt><trkpt lat="44.472567736061215" lon="11.366115651731556"><ele>108.0</ele><time>2026-05-01T06:48:05.999Z</time></trkpt><trkpt lat="44.4725151638651" lon="11.36622532450169"><ele>107.49999999999999</ele><time>2026-05-01T06:48:07.999Z</time></trkpt><trkpt lat="44.47247951363709" lon="11.366349841103533"><ele>107.0</ele><time>2026-05-01T06:48:09.999Z</time></trkpt><trkpt lat="44.47243806620216" lon="11.366474522664836"><ele>106.19999999999999</ele><time>2026-05-01T06:48:11.999Z</time></trkpt><trkpt lat="44.47237983135471" lon="11.366605890824285"><ele>105.39999999999999</ele><time>2026-05-01T06:48:13.999Z</time></trkpt><trkpt lat="44.47232009428759" lon="11.366771214277852"><ele>104.6</ele><time>2026-05-01T06:48:15.999Z</time></trkpt><trkpt lat="44.47228910456982" lon="11.366864250834581"><ele>103.80000000000001</ele><time>2026-05-01T06:48:16.999Z</time></trkpt><trkpt lat="44.472254444282726" lon="11.366957212297548"><ele>103.0</ele><time>2026-05-01T06:48:17.999Z</time></trkpt><trkpt lat="44.47221635555239" lon="11.367046519096597"><ele>103.00000000000001</ele><time>2026-05-01T06:48:18.999Z</time></trkpt><trkpt lat="44.47216799325543" lon="11.367132945985672"><ele>103.0</ele><time>2026-05-01T06:48:19.999Z</time></trkpt><trkpt lat="44.47214131784457" lon="11.367243071036487"><ele>103.0</ele><time>2026-05-01T06:48:20.999Z</time></trkpt><trkpt lat="44.47209605229776" lon="11.367338601942032"><ele>103.0</ele><time>2026-05-01T06:48:21.999Z</time></trkpt><trkpt lat="44.4720577027499" lon="11.367439938694508"><ele>103.00000000000001</ele><time>2026-05-01T06:48:22.999Z</time></trkpt><trkpt lat="44.47201590652152" lon="11.367552900260124"><ele>103.0</ele><time>2026-05-01T06:48:23.999Z</time></trkpt><trkpt lat="44.47197296542403" lon="11.367672609494633"><ele>102.80000000000001</ele><time>2026-05-01T06:48:24.999Z</time></trkpt><trkpt lat="44.47194771419721" lon="11.367814819824154"><ele>102.6</ele><time>2026-05-01T06:48:25.999Z</time></trkpt><trkpt lat="44.471946466374916" lon="11.36796056850626"><ele>102.4</ele><time>2026-05-01T06:48:26.999Z</time></trkpt><trkpt lat="44.47198820145205" lon="11.368105793183734"><ele>102.19999999999999</ele><time>2026-05-01T06:48:27.999Z</time></trkpt><trkpt lat="44.472041275720585" lon="11.368235559014995"><ele>102.0</ele><time>2026-05-01T06:48:28.999Z</time></trkpt><trkpt lat="44.47213000991839" lon="11.368336838717415"><ele>99.19999999999999</ele><time>2026-05-01T06:48:29.999Z</time></trkpt><trkpt lat="44.472228365728974" lon="11.368395490013167"><ele>96.4</ele><time>2026-05-01T06:48:30.999Z</time></trkpt><trkpt lat="44.47232177667189" lon="11.368454649173632"><ele>93.6</ele><time>2026-05-01T06:48:31.999Z</time></trkpt><trkpt lat="44.472409005929094" lon="11.368511995092112"><ele>90.80000000000001</ele><time>2026-05-01T06:48:32.999Z</time></trkpt><trkpt lat="44.47248458567935" lon="11.3685582482067"><ele>88.0</ele><time>2026-05-01T06:48:33.999Z</time></trkpt><trkpt lat="44.472544903829586" lon="11.368634748129322"><ele>88.0</ele><time>2026-05-01T06:48:34.999Z</time></trkpt><trkpt lat="44.47257946850447" lon="11.368754940952735"><ele>88.0</ele><time>2026-05-01T06:48:35.999Z</time></trkpt><trkpt lat="44.472589432990716" lon="11.368875619347579"><ele>88.0</ele><time>2026-05-01T06:48:37Z</time></trkpt><trkpt lat="44.472575300959626" lon="11.36901508497282"><ele>88.0</ele><time>2026-05-01T06:48:39Z</time></trkpt><trkpt lat="44.47257577066847" lon="11.369119070303062"><ele>88.0</ele><time>2026-05-01T06:48:41Z</time></trkpt><trkpt lat="44.47257227934952" lon="11.36922716381547"><ele>88.0</ele><time>2026-05-01T06:48:45Z</time></trkpt><trkpt lat="44.47255826961234" lon="11.369315310254986"><ele>87.33333333333333</ele><time>2026-05-01T06:49:28Z</time></trkpt><trkpt lat="44.472566414432606" lon="11.369414068397246"><ele>86.66666666666666</ele><time>2026-05-01T06:49:31Z</time></trkpt><trkpt lat="44.47257351524544" lon="11.369521126488541"><ele>86.0</ele><time>2026-05-01T06:49:33Z</time></trkpt><trkpt lat="44.47255455839956" lon="11.369642245522108"><ele>85.33333333333333</ele><time>2026-05-01T06:49:35Z</time></trkpt><trkpt lat="44.47256751760102" lon="11.3697650493129"><ele>84.66666666666667</ele><time>2026-05-01T06:49:37Z</time></trkpt><trkpt lat="44.47262728182507" lon="11.369869181437865"><ele>84.0</ele><time>2026-05-01T06:49:39Z</time></trkpt><trkpt lat="44.472659385750696" lon="11.36998608234716"><ele>83.33333333333333</ele><time>2026-05-01T06:49:41Z</time></trkpt><trkpt lat="44.472600087988575" lon="11.370079593865242"><ele>82.66666666666667</ele><time>2026-05-01T06:49:43Z</time></trkpt><trkpt lat="44.47254138374826" lon="11.370156083583774"><ele>82.0</ele><time>2026-05-01T06:49:45Z</time></trkpt><trkpt lat="44.47251717132658" lon="11.370250246510832"><ele>81.33333333333334</ele><time>2026-05-01T06:49:47Z</time></trkpt><trkpt lat="44.47249888931603" lon="11.370364961444176"><ele>80.66666666666667</ele><time>2026-05-01T06:49:49Z</time></trkpt><trkpt lat="44.47249477997" lon="11.37048443925602"><ele>80.0</ele><time>2026-05-01T06:49:51Z</time></trkpt><trkpt lat="44.47247302876865" lon="11.370599258002027"><ele>79.83333333333334</ele><time>2026-05-01T06:49:53Z</time></trkpt><trkpt lat="44.472427802254025" lon="11.370662551098626"><ele>79.66666666666667</ele><time>2026-05-01T06:49:55Z</time></trkpt><trkpt lat="44.47234210964403" lon="11.370640438300864"><ele>79.5</ele><time>2026-05-01T06:49:56.999Z</time></trkpt><trkpt lat="44.47225383888693" lon="11.370643993146059"><ele>79.33333333333333</ele><time>2026-05-01T06:49:58.999Z</time></trkpt><trkpt lat="44.47219450877689" lon="11.370748025655256"><ele>79.16666666666666</ele><time>2026-05-01T06:50:00.999Z</time></trkpt><trkpt lat="44.47215653471545" lon="11.370875478006033"><ele>79.0</ele><time>2026-05-01T06:50:02.999Z</time></trkpt><trkpt lat="44.47211909047379" lon="11.371006496020868"><ele>79.0</ele><time>2026-05-01T06:50:04.999Z</time></trkpt><trkpt lat="44.47207819807571" lon="11.371141401142939"><ele>79.0</ele><time>2026-05-01T06:50:06.999Z</time></trkpt><trkpt lat="44.47203433677076" lon="11.371275152070156"><ele>79.0</ele><time>2026-05-01T06:50:08.999Z</time></trkpt><trkpt lat="44.4719862275594" lon="11.371399654395509"><ele>79.0</ele><time>2026-05-01T06:50:10.999Z</time></trkpt><trkpt lat="44.471906006010386" lon="11.371507908287478"><ele>79.0</ele><time>2026-05-01T06:50:12.999Z</time></trkpt><trkpt lat="44.471819890261315" lon="11.371611876515113"><ele>79.0</ele><time>2026-05-01T06:50:14.999Z</time></trkpt><trkpt lat="44.47173736536833" lon="11.371720777363366"><ele>79.0</ele><time>2026-05-01T06:50:16.999Z</time></trkpt><trkpt lat="44.471657040887145" lon="11.371830611353825"><ele>79.0</ele><time>2026-05-01T06:50:18.999Z</time></trkpt><trkpt lat="44.47157999534481" lon="11.371936010406523"><ele>79.0</ele><time>2026-05-01T06:50:20.999Z</time></trkpt><trkpt lat="44.47149507234365" lon="11.37205023079418"><ele>79.0</ele><time>2026-05-01T06:50:22.999Z</time></trkpt><trkpt lat="44.47141411248399" lon="11.372160320841717"><ele>79.0</ele><time>2026-05-01T06:50:24.999Z</time></trkpt><trkpt lat="44.471332399085334" lon="11.37227592049981"><ele>79.0</ele><time>2026-05-01T06:50:26.999Z</time></trkpt><trkpt lat="44.47124974515131" lon="11.372396796496828"><ele>79.0</ele><time>2026-05-01T06:50:28.999Z</time></trkpt><trkpt lat="44.47116856726119" lon="11.37250603993789"><ele>79.2</ele><time>2026-05-01T06:50:30.999Z</time></trkpt><trkpt lat="44.47108468766024" lon="11.372616492300551"><ele>79.4</ele><time>2026-05-01T06:50:32.999Z</time></trkpt><trkpt lat="44.4710025880577" lon="11.372718698358717"><ele>79.6</ele><time>2026-05-01T06:50:34.999Z</time></trkpt><trkpt lat="44.47093262951423" lon="11.372820470657594"><ele>79.8</ele><time>2026-05-01T06:50:36.999Z</time></trkpt><trkpt lat="44.4708511788815" lon="11.372922940563425"><ele>80.0</ele><time>2026-05-01T06:50:38.999Z</time></trkpt><trkpt lat="44.47077632593342" lon="11.373049232281977"><ele>80.0</ele><time>2026-05-01T06:50:40.999Z</time></trkpt><trkpt lat="44.470697565666725" lon="11.373143060351472"><ele>80.0</ele><time>2026-05-01T06:50:43Z</time></trkpt><trkpt lat="44.470616969760265" lon="11.373249503942056"><ele>80.0</ele><time>2026-05-01T06:50:45Z</time></trkpt><trkpt lat="44.4705416791056" lon="11.37336803803022"><ele>80.0</ele><time>2026-05-01T06:50:47Z</time></trkpt><trkpt lat="44.47047390761304" lon="11.373476060359565"><ele>80.0</ele><time>2026-05-01T06:50:49Z</time></trkpt><trkpt lat="44.470405569164505" lon="11.373603796897749"><ele>80.2</ele><time>2026-05-01T06:50:51Z</time></trkpt><trkpt lat="44.47033683804593" lon="11.3737182197623"><ele>80.4</ele><time>2026-05-01T06:50:53Z</time></trkpt><trkpt lat="44.47026283896528" lon="11.37382495573005"><ele>80.6</ele><time>2026-05-01T06:50:55Z</time></trkpt><trkpt lat="44.4701926358309" lon="11.373940872131483"><ele>80.8</ele><time>2026-05-01T06:50:57Z</time></trkpt><trkpt lat="44.47012635730345" lon="11.3740571729827"><ele>81.0</ele><time>2026-05-01T06:50:59Z</time></trkpt><trkpt lat="44.47006222459638" lon="11.374152729633325"><ele>81.0</ele><time>2026-05-01T06:51:01Z</time></trkpt><trkpt lat="44.46998684362358" lon="11.374250706411129"><ele>81.0</ele><time>2026-05-01T06:51:03Z</time></trkpt><trkpt lat="44.46992714442073" lon="11.374357992130097"><ele>81.0</ele><time>2026-05-01T06:51:05Z</time></trkpt><trkpt lat="44.469889727439416" lon="11.374491288630702"><ele>81.0</ele><time>2026-05-01T06:51:07Z</time></trkpt><trkpt lat="44.469887840112726" lon="11.374585425192823"><ele>81.0</ele><time>2026-05-01T06:51:08Z</time></trkpt><trkpt lat="44.4698771139534" lon="11.37473383928599"><ele>80.6</ele><time>2026-05-01T06:51:10Z</time></trkpt><trkpt lat="44.4698709228731" lon="11.374887422030717"><ele>80.19999999999999</ele><time>2026-05-01T06:51:12Z</time></trkpt><trkpt lat="44.469859766902836" lon="11.375040282946738"><ele>79.80000000000001</ele><time>2026-05-01T06:51:14Z</time></trkpt><trkpt lat="44.469848314954156" lon="11.375186696908164"><ele>79.4</ele><time>2026-05-01T06:51:16Z</time></trkpt><trkpt lat="44.469815395575786" lon="11.375278534428206"><ele>79.0</ele><time>2026-05-01T06:51:18Z</time></trkpt><trkpt lat="44.46971782896921" lon="11.37530285888692"><ele>79.0</ele><time>2026-05-01T06:51:20Z</time></trkpt><trkpt lat="44.469626216677774" lon="11.37526418304196"><ele>79.0</ele><time>2026-05-01T06:51:22Z</time></trkpt><trkpt lat="44.46953724247301" lon="11.375253475870437"><ele>79.0</ele><time>2026-05-01T06:51:24Z</time></trkpt><trkpt lat="44.46944393302653" lon="11.37523380992026"><ele>79.0</ele><time>2026-05-01T06:51:26Z</time></trkpt><trkpt lat="44.46934264725242" lon="11.37524922693124"><ele>79.0</ele><time>2026-05-01T06:51:28Z</time></trkpt><trkpt lat="44.46925557688067" lon="11.375211099986783"><ele>79.6</ele><time>2026-05-01T06:51:30Z</time></trkpt><trkpt lat="44.469162213700685" lon="11.375177256298395"><ele>80.2</ele><time>2026-05-01T06:51:32Z</time></trkpt><trkpt lat="44.469062524649345" lon="11.375145567675473"><ele>80.8</ele><time>2026-05-01T06:51:34Z</time></trkpt><trkpt lat="44.468966317972104" lon="11.37511345394719"><ele>81.39999999999999</ele><time>2026-05-01T06:51:36Z</time></trkpt><trkpt lat="44.4688683130017" lon="11.375081859665846"><ele>82.0</ele><time>2026-05-01T06:51:38Z</time></trkpt><trkpt lat="44.46876391102236" lon="11.375047256020796"><ele>82.39999999999999</ele><time>2026-05-01T06:51:40Z</time></trkpt><trkpt lat="44.46866950434019" lon="11.37501559166059"><ele>82.8</ele><time>2026-05-01T06:51:42Z</time></trkpt><trkpt lat="44.46857272818742" lon="11.37498068584579"><ele>83.2</ele><time>2026-05-01T06:51:44Z</time></trkpt><trkpt lat="44.46847149615143" lon="11.374944172852098"><ele>83.6</ele><time>2026-05-01T06:51:46Z</time></trkpt><trkpt lat="44.46837577952434" lon="11.374909649191094"><ele>84.0</ele><time>2026-05-01T06:51:48Z</time></trkpt><trkpt lat="44.468277293719915" lon="11.374874126727468"><ele>84.0</ele><time>2026-05-01T06:51:50Z</time></trkpt><trkpt lat="44.46818970935337" lon="11.374842536259864"><ele>84.0</ele><time>2026-05-01T06:51:52Z</time></trkpt><trkpt lat="44.46811211662889" lon="11.374814549638423"><ele>84.0</ele><time>2026-05-01T06:51:54Z</time></trkpt><trkpt lat="44.468047018339895" lon="11.374791069588653"><ele>84.0</ele><time>2026-05-01T06:51:57.999Z</time></trkpt><trkpt lat="44.46797807533945" lon="11.37476990292256"><ele>84.0</ele><time>2026-05-01T06:52:01.999Z</time></trkpt><trkpt lat="44.46791212461714" lon="11.374832601417815"><ele>84.0</ele><time>2026-05-01T06:52:04.999Z</time></trkpt><trkpt lat="44.46785949039916" lon="11.37494609579554"><ele>83.80000000000001</ele><time>2026-05-01T06:52:07.999Z</time></trkpt><trkpt lat="44.467795590394786" lon="11.375107507451053"><ele>83.60000000000001</ele><time>2026-05-01T06:52:10.999Z</time></trkpt><trkpt lat="44.46777988968184" lon="11.37524204413222"><ele>83.4</ele><time>2026-05-01T06:52:12.999Z</time></trkpt><trkpt lat="44.46779681752108" lon="11.375381063225586"><ele>83.2</ele><time>2026-05-01T06:52:14.999Z</time></trkpt><trkpt lat="44.46780138742276" lon="11.375526964136588"><ele>83.0</ele><time>2026-05-01T06:52:16.999Z</time></trkpt><trkpt lat="44.46779148633404" lon="11.375690807985608"><ele>82.83333333333334</ele><time>2026-05-01T06:52:18.999Z</time></trkpt><trkpt lat="44.46778631456074" lon="11.375779024143544"><ele>82.66666666666667</ele><time>2026-05-01T06:52:19.999Z</time></trkpt><trkpt lat="44.46777625935553" lon="11.375957872460463"><ele>82.5</ele><time>2026-05-01T06:52:21.999Z</time></trkpt><trkpt lat="44.46777383099685" lon="11.376046091002035"><ele>82.33333333333333</ele><time>2026-05-01T06:52:22.999Z</time></trkpt><trkpt lat="44.46776673753216" lon="11.376135041014386"><ele>82.16666666666666</ele><time>2026-05-01T06:52:23.999Z</time></trkpt><trkpt lat="44.46775281554025" lon="11.376228862575932"><ele>82.0</ele><time>2026-05-01T06:52:24.999Z</time></trkpt><trkpt lat="44.46774349072946" lon="11.376328350152665"><ele>82.28571428571428</ele><time>2026-05-01T06:52:25.999Z</time></trkpt><trkpt lat="44.467719088375134" lon="11.376420976199919"><ele>82.57142857142857</ele><time>2026-05-01T06:52:26.999Z</time></trkpt><trkpt lat="44.46769482308967" lon="11.376522023055266"><ele>82.85714285714286</ele><time>2026-05-01T06:52:27.999Z</time></trkpt><trkpt lat="44.46766318538634" lon="11.376617005166567"><ele>83.14285714285714</ele><time>2026-05-01T06:52:28.999Z</time></trkpt><trkpt lat="44.467642256391116" lon="11.376708623586952"><ele>83.42857142857143</ele><time>2026-05-01T06:52:29.999Z</time></trkpt><trkpt lat="44.467630025058426" lon="11.376805734299122"><ele>83.71428571428571</ele><time>2026-05-01T06:52:30.999Z</time></trkpt><trkpt lat="44.467607904067165" lon="11.376901030605476"><ele>84.0</ele><time>2026-05-01T06:52:31.999Z</time></trkpt><trkpt lat="44.46756318647782" lon="11.376970520175306"><ele>84.0</ele><time>2026-05-01T06:52:32.999Z</time></trkpt><trkpt lat="44.4675277914141" lon="11.377058196799249"><ele>84.0</ele><time>2026-05-01T06:52:33.999Z</time></trkpt><trkpt lat="44.46750712676084" lon="11.377154303692652"><ele>84.0</ele><time>2026-05-01T06:52:34.999Z</time></trkpt><trkpt lat="44.46747405805862" lon="11.3772371229232"><ele>84.0</ele><time>2026-05-01T06:52:35.999Z</time></trkpt><trkpt lat="44.46744402898766" lon="11.377325997252546"><ele>84.0</ele><time>2026-05-01T06:52:36.999Z</time></trkpt><trkpt lat="44.467407718648545" lon="11.377413442336339"><ele>84.0</ele><time>2026-05-01T06:52:37.999Z</time></trkpt><trkpt lat="44.4673674952465" lon="11.37748821807633"><ele>84.0</ele><time>2026-05-01T06:52:38.999Z</time></trkpt><trkpt lat="44.467338087389955" lon="11.377567109563957"><ele>84.0</ele><time>2026-05-01T06:52:39.999Z</time></trkpt><trkpt lat="44.46730638655004" lon="11.377652152264876"><ele>84.0</ele><time>2026-05-01T06:52:40.999Z</time></trkpt><trkpt lat="44.46724973318178" lon="11.377799791687448"><ele>84.0</ele><time>2026-05-01T06:52:42.999Z</time></trkpt><trkpt lat="44.467219221850165" lon="11.377879300139696"><ele>84.0</ele><time>2026-05-01T06:52:43.999Z</time></trkpt><trkpt lat="44.467166418197024" lon="11.378022945031969"><ele>84.0</ele><time>2026-05-01T06:52:45.999Z</time></trkpt><trkpt lat="44.467107220709444" lon="11.378134636655403"><ele>83.80000000000001</ele><time>2026-05-01T06:52:47.999Z</time></trkpt><trkpt lat="44.46698415232549" lon="11.378062659128535"><ele>83.60000000000001</ele><time>2026-05-01T06:52:50Z</time></trkpt><trkpt lat="44.466898005597386" lon="11.377978828017232"><ele>83.4</ele><time>2026-05-01T06:52:52Z</time></trkpt><trkpt lat="44.4668323606852" lon="11.37792706293257"><ele>83.2</ele><time>2026-05-01T06:52:53Z</time></trkpt><trkpt lat="44.46672193276194" lon="11.377852083255595"><ele>83.0</ele><time>2026-05-01T06:52:55Z</time></trkpt><trkpt lat="44.466636326579454" lon="11.377816720911975"><ele>83.0</ele><time>2026-05-01T06:52:56Z</time></trkpt><trkpt lat="44.46655039286976" lon="11.377760722527748"><ele>83.0</ele><time>2026-05-01T06:52:58Z</time></trkpt><trkpt lat="44.46649249467918" lon="11.377715725994541"><ele>83.0</ele><time>2026-05-01T06:52:59Z</time></trkpt><trkpt lat="44.46644454292624" lon="11.377657707053913"><ele>83.0</ele><time>2026-05-01T06:53:00Z</time></trkpt><trkpt lat="44.46633917882562" lon="11.377591244372967"><ele>83.0</ele><time>2026-05-01T06:53:02Z</time></trkpt><trkpt lat="44.466283813189534" lon="11.37754906154042"><ele>83.0</ele><time>2026-05-01T06:53:03Z</time></trkpt><trkpt lat="44.46622821744183" lon="11.377505465837485"><ele>83.0</ele><time>2026-05-01T06:53:04Z</time></trkpt><trkpt lat="44.46615364178045" lon="11.377469000576601"><ele>83.0</ele><time>2026-05-01T06:53:05Z</time></trkpt><trkpt lat="44.46608379678832" lon="11.377420512840768"><ele>83.0</ele><time>2026-05-01T06:53:06Z</time></trkpt><trkpt lat="44.466024732670256" lon="11.377360923468197"><ele>83.0</ele><time>2026-05-01T06:53:08Z</time></trkpt><trkpt lat="44.46594469927352" lon="11.37731977458985"><ele>83.0</ele><time>2026-05-01T06:53:10Z</time></trkpt><trkpt lat="44.465875887607844" lon="11.3773113923092"><ele>83.0</ele><time>2026-05-01T06:53:12Z</time></trkpt><trkpt lat="44.46583050572676" lon="11.377389083527241"><ele>83.0</ele><time>2026-05-01T06:53:13Z</time></trkpt><trkpt lat="44.46576902655696" lon="11.377477044733487"><ele>83.0</ele><time>2026-05-01T06:53:15Z</time></trkpt><trkpt lat="44.46569958600584" lon="11.377596481706968"><ele>83.0</ele><time>2026-05-01T06:53:17Z</time></trkpt><trkpt lat="44.46562523311731" lon="11.37770029124723"><ele>83.0</ele><time>2026-05-01T06:53:19Z</time></trkpt><trkpt lat="44.465541584070635" lon="11.37778711763135"><ele>83.0</ele><time>2026-05-01T06:53:21Z</time></trkpt><trkpt lat="44.46548578055648" lon="11.377841695681044"><ele>82.25</ele><time>2026-05-01T06:53:23Z</time></trkpt><trkpt lat="44.46537267875212" lon="11.377742415630241"><ele>81.5</ele><time>2026-05-01T06:53:24Z</time></trkpt><trkpt lat="44.46527299562694" lon="11.377662961494105"><ele>80.75</ele><time>2026-05-01T06:53:26Z</time></trkpt><trkpt lat="44.46517306492065" lon="11.377584292629875"><ele>80.0</ele><time>2026-05-01T06:53:28Z</time></trkpt><trkpt lat="44.46508047998461" lon="11.377501885221605"><ele>80.0</ele><time>2026-05-01T06:53:30Z</time></trkpt><trkpt lat="44.46499499256043" lon="11.37743642221317"><ele>80.0</ele><time>2026-05-01T06:53:32Z</time></trkpt><trkpt lat="44.46489255098237" lon="11.377410042565687"><ele>80.0</ele><time>2026-05-01T06:53:34Z</time></trkpt><trkpt lat="44.46478869677008" lon="11.377472036058306"><ele>80.0</ele><time>2026-05-01T06:53:36Z</time></trkpt><trkpt lat="44.46474131071658" lon="11.377533865875238"><ele>80.0</ele><time>2026-05-01T06:53:37Z</time></trkpt><trkpt lat="44.46469406192766" lon="11.377601160412258"><ele>80.0</ele><time>2026-05-01T06:53:38Z</time></trkpt><trkpt lat="44.464599090230834" lon="11.377718165925911"><ele>80.0</ele><time>2026-05-01T06:53:40Z</time></trkpt><trkpt lat="44.4645475077546" lon="11.377784596905208"><ele>80.0</ele><time>2026-05-01T06:53:41Z</time></trkpt><trkpt lat="44.4644611562829" lon="11.377891412800357"><ele>80.0</ele><time>2026-05-01T06:53:43Z</time></trkpt><trkpt lat="44.464381618960246" lon="11.37794882257271"><ele>80.0</ele><time>2026-05-01T06:53:45Z</time></trkpt><trkpt lat="44.464444411835636" lon="11.377960617642856"><ele>80.0</ele><time>2026-05-01T06:53:50Z</time></trkpt><trkpt lat="44.464381114188726" lon="11.377949435524359"><ele>80.0</ele><time>2026-05-01T06:53:55Z</time></trkpt><trkpt lat="44.46430746792406" lon="11.37804039801485"><ele>80.0</ele><time>2026-05-01T06:53:57Z</time></trkpt><trkpt lat="44.46423000268444" lon="11.378115168667291"><ele>80.0</ele><time>2026-05-01T06:53:59Z</time></trkpt><trkpt lat="44.464120635391566" lon="11.378113069571961"><ele>80.0</ele><time>2026-05-01T06:54:01Z</time></trkpt><trkpt lat="44.464039514196315" lon="11.378014311745039"><ele>80.0</ele><time>2026-05-01T06:54:03Z</time></trkpt><trkpt lat="44.46394212466672" lon="11.377945686597043"><ele>80.0</ele><time>2026-05-01T06:54:05Z</time></trkpt><trkpt lat="44.463854634306145" lon="11.37787774526533"><ele>80.0</ele><time>2026-05-01T06:54:07Z</time></trkpt><trkpt lat="44.463764283411884" lon="11.377817262254611"><ele>80.0</ele><time>2026-05-01T06:54:09Z</time></trkpt><trkpt lat="44.46367230006977" lon="11.377754768176013"><ele>80.0</ele><time>2026-05-01T06:54:11Z</time></trkpt><trkpt lat="44.46358692498448" lon="11.37768495575796"><ele>80.0</ele><time>2026-05-01T06:54:13Z</time></trkpt><trkpt lat="44.463497296838064" lon="11.377613508737536"><ele>80.0</ele><time>2026-05-01T06:54:14.999Z</time></trkpt><trkpt lat="44.46341302385964" lon="11.377528795582258"><ele>80.0</ele><time>2026-05-01T06:54:16.999Z</time></trkpt><trkpt lat="44.46331537550577" lon="11.377463745095755"><ele>80.0</ele><time>2026-05-01T06:54:18.999Z</time></trkpt><trkpt lat="44.463228335605784" lon="11.377404675277923"><ele>80.0</ele><time>2026-05-01T06:54:20.999Z</time></trkpt><trkpt lat="44.46313396519098" lon="11.377322552325168"><ele>80.0</ele><time>2026-05-01T06:54:22.999Z</time></trkpt><trkpt lat="44.46303441397312" lon="11.377235588817854"><ele>80.0</ele><time>2026-05-01T06:54:24.999Z</time></trkpt><trkpt lat="44.46295423140454" lon="11.37714291748202"><ele>80.0</ele><time>2026-05-01T06:54:26.999Z</time></trkpt><trkpt lat="44.46285317928531" lon="11.377083205043256"><ele>80.0</ele><time>2026-05-01T06:54:28.999Z</time></trkpt><trkpt lat="44.46276037849292" lon="11.37700358252888"><ele>80.0</ele><time>2026-05-01T06:54:30.999Z</time></trkpt><trkpt lat="44.46270105972179" lon="11.376954240573589"><ele>80.0</ele><time>2026-05-01T06:54:31.999Z</time></trkpt><trkpt lat="44.462599552322175" lon="11.37688152818503"><ele>80.0</ele><time>2026-05-01T06:54:33.999Z</time></trkpt><trkpt lat="44.462497242809555" lon="11.376818130515828"><ele>80.0</ele><time>2026-05-01T06:54:35.999Z</time></trkpt><trkpt lat="44.46240393455284" lon="11.376799013966556"><ele>80.0</ele><time>2026-05-01T06:54:37.999Z</time></trkpt><trkpt lat="44.46232263749587" lon="11.376871765385973"><ele>80.0</ele><time>2026-05-01T06:54:39.999Z</time></trkpt><trkpt lat="44.462281585438404" lon="11.3769770069262"><ele>80.0</ele><time>2026-05-01T06:54:41.999Z</time></trkpt><trkpt lat="44.46223064591722" lon="11.377085427548895"><ele>80.0</ele><time>2026-05-01T06:54:43.999Z</time></trkpt><trkpt lat="44.46218048988393" lon="11.377169729647708"><ele>80.0</ele><time>2026-05-01T06:54:45.999Z</time></trkpt><trkpt lat="44.46213100575156" lon="11.377270894945502"><ele>79.66666666666667</ele><time>2026-05-01T06:54:47.999Z</time></trkpt><trkpt lat="44.46208211200077" lon="11.377382072440227"><ele>79.33333333333334</ele><time>2026-05-01T06:54:49.999Z</time></trkpt><trkpt lat="44.4620431907138" lon="11.37748576177963"><ele>79.0</ele><time>2026-05-01T06:54:51.999Z</time></trkpt><trkpt lat="44.462049558126395" lon="11.377603570448978"><ele>78.66666666666667</ele><time>2026-05-01T06:54:53.999Z</time></trkpt><trkpt lat="44.46197619370319" lon="11.377686101147033"><ele>78.33333333333333</ele><time>2026-05-01T06:54:56Z</time></trkpt><trkpt lat="44.46191737710259" lon="11.377778698828116"><ele>78.0</ele><time>2026-05-01T06:54:58Z</time></trkpt><trkpt lat="44.461852329486874" lon="11.377865889892064"><ele>78.0</ele><time>2026-05-01T06:55:00Z</time></trkpt><trkpt lat="44.46179220368473" lon="11.377962640840426"><ele>78.0</ele><time>2026-05-01T06:55:02Z</time></trkpt><trkpt lat="44.461739355397704" lon="11.378060120526237"><ele>78.0</ele><time>2026-05-01T06:55:04Z</time></trkpt><trkpt lat="44.46171682563122" lon="11.378174243391161"><ele>78.0</ele><time>2026-05-01T06:55:06Z</time></trkpt><trkpt lat="44.46173918756968" lon="11.378283757788292"><ele>78.0</ele><time>2026-05-01T06:55:08Z</time></trkpt><trkpt lat="44.461762091488964" lon="11.37837459416741"><ele>78.0</ele><time>2026-05-01T06:55:10Z</time></trkpt><trkpt lat="44.46178702800711" lon="11.378457070782254"><ele>77.83333333333333</ele><time>2026-05-01T06:55:12Z</time></trkpt><trkpt lat="44.46179710339912" lon="11.37858876194888"><ele>77.66666666666667</ele><time>2026-05-01T06:55:15Z</time></trkpt><trkpt lat="44.46176930124737" lon="11.378692097613992"><ele>77.5</ele><time>2026-05-01T06:55:18Z</time></trkpt><trkpt lat="44.46169233672141" lon="11.378676177768037"><ele>77.33333333333334</ele><time>2026-05-01T06:55:20Z</time></trkpt><trkpt lat="44.461616491964975" lon="11.378618019198356"><ele>77.16666666666667</ele><time>2026-05-01T06:55:23Z</time></trkpt><trkpt lat="44.46155205716451" lon="11.37856365819888"><ele>77.0</ele><time>2026-05-01T06:55:26Z</time></trkpt><trkpt lat="44.4614894853786" lon="11.378513100558948"><ele>77.0</ele><time>2026-05-01T06:55:29Z</time></trkpt><trkpt lat="44.461410942633634" lon="11.378498419904647"><ele>77.0</ele><time>2026-05-01T06:55:32Z</time></trkpt><trkpt lat="44.46134298951607" lon="11.378581214497208"><ele>77.0</ele><time>2026-05-01T06:55:35Z</time></trkpt><trkpt lat="44.46127924748489" lon="11.378667862200766"><ele>77.0</ele><time>2026-05-01T06:55:38Z</time></trkpt><trkpt lat="44.461220492561296" lon="11.3787449658062"><ele>77.0</ele><time>2026-05-01T06:55:41Z</time></trkpt><trkpt lat="44.46124004539146" lon="11.37883652993708"><ele>77.0</ele><time>2026-05-01T06:55:43Z</time></trkpt><trkpt lat="44.46127866582024" lon="11.378931075050044"><ele>76.66666666666667</ele><time>2026-05-01T06:55:45Z</time></trkpt><trkpt lat="44.46130115075996" lon="11.379060696206682"><ele>76.33333333333334</ele><time>2026-05-01T06:55:47Z</time></trkpt><trkpt lat="44.46129783191875" lon="11.379198722818343"><ele>76.0</ele><time>2026-05-01T06:55:49Z</time></trkpt><trkpt lat="44.461280941627905" lon="11.379331004253586"><ele>75.66666666666667</ele><time>2026-05-01T06:55:51Z</time></trkpt><trkpt lat="44.461267834063925" lon="11.379419850153184"><ele>75.33333333333333</ele><time>2026-05-01T06:55:53Z</time></trkpt><trkpt lat="44.46122623365894" lon="11.37949360118704"><ele>75.0</ele><time>2026-05-01T06:55:56Z</time></trkpt><trkpt lat="44.461191706107684" lon="11.379590523762522"><ele>75.0</ele><time>2026-05-01T06:55:59Z</time></trkpt><trkpt lat="44.461198448599774" lon="11.379688405964444"><ele>75.0</ele><time>2026-05-01T06:56:01Z</time></trkpt><trkpt lat="44.46119882568675" lon="11.379810189131588"><ele>75.0</ele><time>2026-05-01T06:56:04Z</time></trkpt><trkpt lat="44.461229087812214" lon="11.379890357893089"><ele>75.0</ele><time>2026-05-01T06:56:06Z</time></trkpt><trkpt lat="44.46131334955146" lon="11.3799191293356"><ele>75.0</ele><time>2026-05-01T06:56:08Z</time></trkpt><trkpt lat="44.46140352340397" lon="11.379960215114702"><ele>75.0</ele><time>2026-05-01T06:56:10Z</time></trkpt><trkpt lat="44.461484008192315" lon="11.380000219670693"><ele>74.5</ele><time>2026-05-01T06:56:12Z</time></trkpt><trkpt lat="44.46155945119831" lon="11.380051596896601"><ele>74.0</ele><time>2026-05-01T06:56:13.999Z</time></trkpt><trkpt lat="44.461591226736935" lon="11.380136623550543"><ele>73.5</ele><time>2026-05-01T06:56:15.999Z</time></trkpt><trkpt lat="44.461574625351574" lon="11.380229622838131"><ele>73.0</ele><time>2026-05-01T06:56:17.999Z</time></trkpt><trkpt lat="44.461543185338726" lon="11.380321001430364"><ele>72.5</ele><time>2026-05-01T06:56:19.999Z</time></trkpt><trkpt lat="44.46150399061232" lon="11.380419765327266"><ele>72.0</ele><time>2026-05-01T06:56:21.999Z</time></trkpt><trkpt lat="44.46146847100492" lon="11.38052721506497"><ele>71.6</ele><time>2026-05-01T06:56:23.999Z</time></trkpt><trkpt lat="44.461427797696444" lon="11.38064222481075"><ele>71.2</ele><time>2026-05-01T06:56:25.999Z</time></trkpt><trkpt lat="44.46138787210633" lon="11.380763610747604"><ele>70.8</ele><time>2026-05-01T06:56:27.999Z</time></trkpt><trkpt lat="44.46134734868917" lon="11.38088759962304"><ele>70.4</ele><time>2026-05-01T06:56:29.999Z</time></trkpt><trkpt lat="44.461302263273275" lon="11.380999051202028"><ele>70.0</ele><time>2026-05-01T06:56:31.999Z</time></trkpt><trkpt lat="44.461260970551315" lon="11.381112793404014"><ele>70.66666666666666</ele><time>2026-05-01T06:56:33.999Z</time></trkpt><trkpt lat="44.46123020094977" lon="11.381219993761373"><ele>71.33333333333333</ele><time>2026-05-01T06:56:35.999Z</time></trkpt><trkpt lat="44.46119108735416" lon="11.3813163484627"><ele>72.0</ele><time>2026-05-01T06:56:37.999Z</time></trkpt><trkpt lat="44.46116150260973" lon="11.381413500098176"><ele>72.66666666666667</ele><time>2026-05-01T06:56:39.999Z</time></trkpt><trkpt lat="44.46112238863474" lon="11.381503544125351"><ele>73.33333333333334</ele><time>2026-05-01T06:56:41.999Z</time></trkpt><trkpt lat="44.46109085722378" lon="11.381607415899811"><ele>74.0</ele><time>2026-05-01T06:56:43.999Z</time></trkpt><trkpt lat="44.46105217923615" lon="11.381710517756208"><ele>74.14285714285714</ele><time>2026-05-01T06:56:45.999Z</time></trkpt><trkpt lat="44.46099821690849" lon="11.381793759618535"><ele>74.28571428571428</ele><time>2026-05-01T06:56:47.999Z</time></trkpt><trkpt lat="44.46092669127673" lon="11.38177653958388"><ele>74.42857142857142</ele><time>2026-05-01T06:56:49.999Z</time></trkpt><trkpt lat="44.46086721851763" lon="11.381705864587783"><ele>74.57142857142857</ele><time>2026-05-01T06:56:52.999Z</time></trkpt><trkpt lat="44.46080592698307" lon="11.381637671095724"><ele>74.71428571428571</ele><time>2026-05-01T06:56:55.999Z</time></trkpt><trkpt lat="44.460754644858966" lon="11.381573093625969"><ele>74.85714285714285</ele><time>2026-05-01T06:56:58.999Z</time></trkpt><trkpt lat="44.460702554421495" lon="11.381515642803835"><ele>75.0</ele><time>2026-05-01T06:57:02Z</time></trkpt><trkpt lat="44.46062801699353" lon="11.381471542309715"><ele>75.0</ele><time>2026-05-01T06:57:06Z</time></trkpt><trkpt lat="44.46055298737194" lon="11.38147285254925"><ele>75.0</ele><time>2026-05-01T06:57:10Z</time></trkpt><trkpt lat="44.460493771166036" lon="11.381531920224198"><ele>75.0</ele><time>2026-05-01T06:57:14Z</time></trkpt><trkpt lat="44.460489654814864" lon="11.381630591290717"><ele>75.0</ele><time>2026-05-01T06:57:17Z</time></trkpt><trkpt lat="44.46052545314996" lon="11.381742408452029"><ele>75.0</ele><time>2026-05-01T06:57:20Z</time></trkpt><trkpt lat="44.460588734639586" lon="11.381843883213225"><ele>75.0</ele><time>2026-05-01T06:57:23Z</time></trkpt><trkpt lat="44.46063739211869" lon="11.381912893383202"><ele>74.99999999999999</ele><time>2026-05-01T06:57:25Z</time></trkpt><trkpt lat="44.460657466393165" lon="11.382001941701791"><ele>75.0</ele><time>2026-05-01T06:57:27Z</time></trkpt><trkpt lat="44.46069468124272" lon="11.382093530182964"><ele>75.0</ele><time>2026-05-01T06:57:29Z</time></trkpt><trkpt lat="44.46070988019829" lon="11.382192968262189"><ele>75.0</ele><time>2026-05-01T06:57:31Z</time></trkpt><trkpt lat="44.46068647865738" lon="11.382289785764149"><ele>75.0</ele><time>2026-05-01T06:57:33Z</time></trkpt><trkpt lat="44.460677847855564" lon="11.382384521871028"><ele>74.99999999999999</ele><time>2026-05-01T06:57:35Z</time></trkpt><trkpt lat="44.460685254898536" lon="11.38247259089479"><ele>75.0</ele><time>2026-05-01T06:57:37Z</time></trkpt><trkpt lat="44.460689359965656" lon="11.382565987748906"><ele>75.66666666666667</ele><time>2026-05-01T06:57:39Z</time></trkpt><trkpt lat="44.46068146826288" lon="11.382654510785617"><ele>76.33333333333333</ele><time>2026-05-01T06:57:41Z</time></trkpt><trkpt lat="44.460689486040785" lon="11.382787480769972"><ele>77.0</ele><time>2026-05-01T06:57:44Z</time></trkpt><trkpt lat="44.460697906190454" lon="11.382882207870972"><ele>77.66666666666666</ele><time>2026-05-01T06:57:47Z</time></trkpt><trkpt lat="44.4607318819895" lon="11.382963752430976"><ele>78.33333333333333</ele><time>2026-05-01T06:57:49Z</time></trkpt><trkpt lat="44.460771275312744" lon="11.383091163848844"><ele>79.0</ele><time>2026-05-01T06:57:52Z</time></trkpt><trkpt lat="44.46084009293441" lon="11.383155209950921"><ele>80.0</ele><time>2026-05-01T06:57:54Z</time></trkpt><trkpt lat="44.46093289144005" lon="11.38320819529312"><ele>81.0</ele><time>2026-05-01T06:57:56Z</time></trkpt><trkpt lat="44.46099885166816" lon="11.383296580276069"><ele>82.0</ele><time>2026-05-01T06:57:58Z</time></trkpt><trkpt lat="44.461069992518944" lon="11.383381660202655"><ele>83.0</ele><time>2026-05-01T06:58:00Z</time></trkpt><trkpt lat="44.46114639161437" lon="11.383458434776795"><ele>84.0</ele><time>2026-05-01T06:58:02Z</time></trkpt><trkpt lat="44.46118519346889" lon="11.383569512760635"><ele>84.0</ele><time>2026-05-01T06:58:04Z</time></trkpt><trkpt lat="44.46111199780067" lon="11.383583579446611"><ele>84.0</ele><time>2026-05-01T06:58:08Z</time></trkpt><trkpt lat="44.46108720116273" lon="11.383682119848151"><ele>84.0</ele><time>2026-05-01T06:58:13Z</time></trkpt><trkpt lat="44.46111242378505" lon="11.383781484333298"><ele>84.0</ele><time>2026-05-01T06:58:16Z</time></trkpt><trkpt lat="44.46113362067268" lon="11.383871586794461"><ele>84.0</ele><time>2026-05-01T06:58:19Z</time></trkpt><trkpt lat="44.46114210277781" lon="11.383971613984865"><ele>84.0</ele><time>2026-05-01T06:58:21.999Z</time></trkpt><trkpt lat="44.46113516287649" lon="11.384065359583108"><ele>84.0</ele><time>2026-05-01T06:58:24.999Z</time></trkpt><trkpt lat="44.46114162862127" lon="11.384169398228801"><ele>84.83333333333333</ele><time>2026-05-01T06:58:28.999Z</time></trkpt><trkpt lat="44.461141519409445" lon="11.384280178882076"><ele>85.66666666666667</ele><time>2026-05-01T06:58:32.999Z</time></trkpt><trkpt lat="44.46116283091354" lon="11.384374972095278"><ele>86.5</ele><time>2026-05-01T06:58:35.999Z</time></trkpt><trkpt lat="44.46118852331901" lon="11.38448842844705"><ele>87.33333333333334</ele><time>2026-05-01T06:58:39.999Z</time></trkpt><trkpt lat="44.4612267023824" lon="11.384573025287379"><ele>88.16666666666667</ele><time>2026-05-01T06:58:42.999Z</time></trkpt><trkpt lat="44.46126590646394" lon="11.384665532383815"><ele>89.0</ele><time>2026-05-01T06:58:45.999Z</time></trkpt><trkpt lat="44.46131908206751" lon="11.384758777545663"><ele>89.0</ele><time>2026-05-01T06:58:48.999Z</time></trkpt><trkpt lat="44.461365884764874" lon="11.38484591988085"><ele>89.0</ele><time>2026-05-01T06:58:51.999Z</time></trkpt><trkpt lat="44.46143733881173" lon="11.384921645260182"><ele>89.0</ele><time>2026-05-01T06:58:54.999Z</time></trkpt><trkpt lat="44.46150245246692" lon="11.384987366963442"><ele>89.0</ele><time>2026-05-01T06:58:57.999Z</time></trkpt><trkpt lat="44.46157395383387" lon="11.385054411050179"><ele>89.0</ele><time>2026-05-01T06:59:00.999Z</time></trkpt><trkpt lat="44.46163797122641" lon="11.385097119514093"><ele>89.0</ele><time>2026-05-01T06:59:03.999Z</time></trkpt><trkpt lat="44.46169907272494" lon="11.385145994491536"><ele>89.0</ele><time>2026-05-01T06:59:05.999Z</time></trkpt><trkpt lat="44.461771699818975" lon="11.385169994496366"><ele>89.0</ele><time>2026-05-01T06:59:09Z</time></trkpt><trkpt lat="44.46183640649998" lon="11.385204193560055"><ele>89.0</ele><time>2026-05-01T06:59:12Z</time></trkpt><trkpt lat="44.46190414467903" lon="11.385250340567548"><ele>89.0</ele><time>2026-05-01T06:59:15Z</time></trkpt><trkpt lat="44.46197036760521" lon="11.385284052528345"><ele>89.0</ele><time>2026-05-01T06:59:18Z</time></trkpt><trkpt lat="44.46204066173605" lon="11.3853378554121"><ele>89.0</ele><time>2026-05-01T06:59:22Z</time></trkpt><trkpt lat="44.462130066399155" lon="11.385367227702972"><ele>89.16666666666667</ele><time>2026-05-01T06:59:27Z</time></trkpt><trkpt lat="44.46219477454812" lon="11.385424364581882"><ele>89.33333333333334</ele><time>2026-05-01T06:59:31Z</time></trkpt><trkpt lat="44.462259399518906" lon="11.385497848484242"><ele>89.5</ele><time>2026-05-01T06:59:35Z</time></trkpt><trkpt lat="44.462300309757715" lon="11.38559982996184"><ele>89.66666666666667</ele><time>2026-05-01T06:59:39Z</time></trkpt><trkpt lat="44.46227204238331" lon="11.385687877849126"><ele>89.83333333333333</ele><time>2026-05-01T06:59:43Z</time></trkpt><trkpt lat="44.46225650006115" lon="11.38578490256181"><ele>90.0</ele><time>2026-05-01T06:59:46Z</time></trkpt><trkpt lat="44.46224709299426" lon="11.385894111342468"><ele>90.0</ele><time>2026-05-01T06:59:49Z</time></trkpt><trkpt lat="44.4622050638181" lon="11.385993684312195"><ele>90.0</ele><time>2026-05-01T06:59:52Z</time></trkpt><trkpt lat="44.46220061555884" lon="11.386094016444428"><ele>90.0</ele><time>2026-05-01T06:59:54Z</time></trkpt><trkpt lat="44.462179296509575" lon="11.386182721444218"><ele>90.0</ele><time>2026-05-01T06:59:56Z</time></trkpt><trkpt lat="44.46214964119044" lon="11.386288376270402"><ele>90.0</ele><time>2026-05-01T06:59:58Z</time></trkpt><trkpt lat="44.46211697992547" lon="11.386406028654182"><ele>90.0</ele><time>2026-05-01T07:00:00Z</time></trkpt><trkpt lat="44.46207412490754" lon="11.386539921698656"><ele>91.6</ele><time>2026-05-01T07:00:02Z</time></trkpt><trkpt lat="44.46203494317729" lon="11.386683113652586"><ele>93.2</ele><time>2026-05-01T07:00:04Z</time></trkpt><trkpt lat="44.461993559922725" lon="11.386817152291345"><ele>94.80000000000001</ele><time>2026-05-01T07:00:06Z</time></trkpt><trkpt lat="44.46195987213819" lon="11.386948770232397"><ele>96.4</ele><time>2026-05-01T07:00:08Z</time></trkpt><trkpt lat="44.46192296165845" lon="11.387060166053871"><ele>98.0</ele><time>2026-05-01T07:00:10Z</time></trkpt><trkpt lat="44.4618799154303" lon="11.387168194388492"><ele>98.0</ele><time>2026-05-01T07:00:12Z</time></trkpt><trkpt lat="44.46185007854958" lon="11.387287625051943"><ele>98.0</ele><time>2026-05-01T07:00:14Z</time></trkpt><trkpt lat="44.46179616518006" lon="11.387377850507324"><ele>98.0</ele><time>2026-05-01T07:00:16Z</time></trkpt><trkpt lat="44.46173065788375" lon="11.387494170631054"><ele>98.0</ele><time>2026-05-01T07:00:18Z</time></trkpt><trkpt lat="44.46166574574965" lon="11.387586181195609"><ele>98.0</ele><time>2026-05-01T07:00:20Z</time></trkpt><trkpt lat="44.46160252521374" lon="11.38768555494273"><ele>98.0</ele><time>2026-05-01T07:00:22Z</time></trkpt><trkpt lat="44.461552284582645" lon="11.38782746909355"><ele>98.0</ele><time>2026-05-01T07:00:24Z</time></trkpt><trkpt lat="44.4614830746527" lon="11.387919143325488"><ele>98.0</ele><time>2026-05-01T07:00:25.999Z</time></trkpt><trkpt lat="44.46142794958854" lon="11.388013703148745"><ele>98.0</ele><time>2026-05-01T07:00:27.999Z</time></trkpt><trkpt lat="44.46133709461972" lon="11.388039334076035"><ele>98.0</ele><time>2026-05-01T07:00:29.999Z</time></trkpt><trkpt lat="44.46124850165768" lon="11.388032265218055"><ele>97.83333333333333</ele><time>2026-05-01T07:00:31.999Z</time></trkpt><trkpt lat="44.46118281592548" lon="11.388096680434753"><ele>97.66666666666666</ele><time>2026-05-01T07:00:33.999Z</time></trkpt><trkpt lat="44.4611109973767" lon="11.38817554341282"><ele>97.5</ele><time>2026-05-01T07:00:35.999Z</time></trkpt><trkpt lat="44.46108167605221" lon="11.38828346300589"><ele>97.33333333333334</ele><time>2026-05-01T07:00:37.999Z</time></trkpt><trkpt lat="44.461065150650164" lon="11.388400675408311"><ele>97.16666666666667</ele><time>2026-05-01T07:00:39.999Z</time></trkpt><trkpt lat="44.4610532944327" lon="11.388519372834894"><ele>97.0</ele><time>2026-05-01T07:00:41.999Z</time></trkpt><trkpt lat="44.46103629012887" lon="11.388626595496774"><ele>97.00000000000001</ele><time>2026-05-01T07:00:43.999Z</time></trkpt><trkpt lat="44.46102992487065" lon="11.388731611375366"><ele>97.0</ele><time>2026-05-01T07:00:45.999Z</time></trkpt><trkpt lat="44.46103405175354" lon="11.388837562161855"><ele>97.0</ele><time>2026-05-01T07:00:47.999Z</time></trkpt><trkpt lat="44.461033571030654" lon="11.38895473784117"><ele>97.0</ele><time>2026-05-01T07:00:49.999Z</time></trkpt><trkpt lat="44.46103873351219" lon="11.389068876053392"><ele>97.00000000000001</ele><time>2026-05-01T07:00:51.999Z</time></trkpt><trkpt lat="44.461037550161265" lon="11.38919363845599"><ele>97.0</ele><time>2026-05-01T07:00:53.999Z</time></trkpt><trkpt lat="44.46104929809178" lon="11.389307753487667"><ele>97.19999999999999</ele><time>2026-05-01T07:00:55.999Z</time></trkpt><trkpt lat="44.46107935845894" lon="11.389428606606897"><ele>97.4</ele><time>2026-05-01T07:00:57.999Z</time></trkpt><trkpt lat="44.46110420481722" lon="11.389544982850746"><ele>97.6</ele><time>2026-05-01T07:00:59.999Z</time></trkpt><trkpt lat="44.461113690268945" lon="11.389674971473768"><ele>97.80000000000001</ele><time>2026-05-01T07:01:01.999Z</time></trkpt><trkpt lat="44.4611392477893" lon="11.389796327061028"><ele>98.0</ele><time>2026-05-01T07:01:03.999Z</time></trkpt><trkpt lat="44.46119726359534" lon="11.389916075938777"><ele>98.2</ele><time>2026-05-01T07:01:05.999Z</time></trkpt><trkpt lat="44.461243262704805" lon="11.390032774700463"><ele>98.4</ele><time>2026-05-01T07:01:07.999Z</time></trkpt><trkpt lat="44.46129016898868" lon="11.39013920502906"><ele>98.60000000000001</ele><time>2026-05-01T07:01:09.999Z</time></trkpt><trkpt lat="44.461351562864515" lon="11.390242279461406"><ele>98.80000000000001</ele><time>2026-05-01T07:01:11.999Z</time></trkpt><trkpt lat="44.461408514445246" lon="11.390339828940217"><ele>99.0</ele><time>2026-05-01T07:01:14Z</time></trkpt><trkpt lat="44.46147447831258" lon="11.390415588323007"><ele>98.6</ele><time>2026-05-01T07:01:16Z</time></trkpt><trkpt lat="44.46156024794004" lon="11.390468117866675"><ele>98.2</ele><time>2026-05-01T07:01:18Z</time></trkpt><trkpt lat="44.461657552531065" lon="11.390493342850798"><ele>97.8</ele><time>2026-05-01T07:01:20Z</time></trkpt><trkpt lat="44.461759632838834" lon="11.39047526836299"><ele>97.39999999999999</ele><time>2026-05-01T07:01:22Z</time></trkpt><trkpt lat="44.46188146514318" lon="11.390440997892377"><ele>97.0</ele><time>2026-05-01T07:01:24Z</time></trkpt><trkpt lat="44.46194019331143" lon="11.39040794130276"><ele>97.0</ele><time>2026-05-01T07:01:25Z</time></trkpt><trkpt lat="44.46200487614347" lon="11.390380479762086"><ele>97.0</ele><time>2026-05-01T07:01:26Z</time></trkpt><trkpt lat="44.46207166783218" lon="11.390359760657162"><ele>97.0</ele><time>2026-05-01T07:01:27Z</time></trkpt><trkpt lat="44.46213897070892" lon="11.390362044150733"><ele>97.0</ele><time>2026-05-01T07:01:28Z</time></trkpt><trkpt lat="44.46220564614413" lon="11.390412000505727"><ele>97.0</ele><time>2026-05-01T07:01:29Z</time></trkpt><trkpt lat="44.4622542983758" lon="11.390489016955131"><ele>97.0</ele><time>2026-05-01T07:01:30Z</time></trkpt><trkpt lat="44.46228824173141" lon="11.390581904215573"><ele>97.0</ele><time>2026-05-01T07:01:31Z</time></trkpt><trkpt lat="44.46229915646453" lon="11.39067974396506"><ele>97.75</ele><time>2026-05-01T07:01:32Z</time></trkpt><trkpt lat="44.462334212372234" lon="11.390843888386557"><ele>98.5</ele><time>2026-05-01T07:01:34Z</time></trkpt><trkpt lat="44.46237732194034" lon="11.390994170276894"><ele>99.25</ele><time>2026-05-01T07:01:36Z</time></trkpt><trkpt lat="44.46243084994781" lon="11.391148443028852"><ele>100.0</ele><time>2026-05-01T07:01:38Z</time></trkpt><trkpt lat="44.462500708709086" lon="11.391287310230615"><ele>100.5</ele><time>2026-05-01T07:01:40Z</time></trkpt><trkpt lat="44.462553421319924" lon="11.391432024136897"><ele>101.0</ele><time>2026-05-01T07:01:42Z</time></trkpt><trkpt lat="44.46258882618513" lon="11.391589584836746"><ele>101.5</ele><time>2026-05-01T07:01:44Z</time></trkpt><trkpt lat="44.46261870758992" lon="11.391744803747322"><ele>102.0</ele><time>2026-05-01T07:01:46Z</time></trkpt><trkpt lat="44.4626653177845" lon="11.391885893509176"><ele>102.0</ele><time>2026-05-01T07:01:48Z</time></trkpt><trkpt lat="44.46275296118357" lon="11.391976767953848"><ele>102.0</ele><time>2026-05-01T07:01:50Z</time></trkpt><trkpt lat="44.462835739337564" lon="11.392079593825903"><ele>102.0</ele><time>2026-05-01T07:01:52Z</time></trkpt><trkpt lat="44.462898050531265" lon="11.392117190631177"><ele>102.0</ele><time>2026-05-01T07:01:53Z</time></trkpt><trkpt lat="44.46299560213921" lon="11.39217349749703"><ele>102.0</ele><time>2026-05-01T07:01:55Z</time></trkpt><trkpt lat="44.46310335793452" lon="11.392232009025417"><ele>100.39999999999999</ele><time>2026-05-01T07:01:57Z</time></trkpt><trkpt lat="44.4632061832735" lon="11.392302955123649"><ele>98.8</ele><time>2026-05-01T07:01:59Z</time></trkpt><trkpt lat="44.46330544131328" lon="11.392380456708878"><ele>97.2</ele><time>2026-05-01T07:02:01Z</time></trkpt><trkpt lat="44.46341121752512" lon="11.392442996265993"><ele>95.6</ele><time>2026-05-01T07:02:03Z</time></trkpt><trkpt lat="44.463426714375366" lon="11.39253676396416"><ele>94.0</ele><time>2026-05-01T07:02:04Z</time></trkpt><trkpt lat="44.46349715842356" lon="11.39265627321689"><ele>94.0</ele><time>2026-05-01T07:02:06Z</time></trkpt><trkpt lat="44.463571314994056" lon="11.392782828292907"><ele>94.0</ele><time>2026-05-01T07:02:08Z</time></trkpt><trkpt lat="44.4636516045648" lon="11.392897636853462"><ele>94.0</ele><time>2026-05-01T07:02:10Z</time></trkpt><trkpt lat="44.46371185247224" lon="11.392934389951293"><ele>94.0</ele><time>2026-05-01T07:02:11Z</time></trkpt><trkpt lat="44.463783962518406" lon="11.393060533856158"><ele>94.0</ele><time>2026-05-01T07:02:13Z</time></trkpt><trkpt lat="44.4638551871557" lon="11.393193639892319"><ele>93.80000000000001</ele><time>2026-05-01T07:02:15Z</time></trkpt><trkpt lat="44.46393334800778" lon="11.393320911614522"><ele>93.60000000000001</ele><time>2026-05-01T07:02:17Z</time></trkpt><trkpt lat="44.46399945288616" lon="11.393441042726229"><ele>93.4</ele><time>2026-05-01T07:02:19Z</time></trkpt><trkpt lat="44.46405742580133" lon="11.393549440954725"><ele>93.2</ele><time>2026-05-01T07:02:21Z</time></trkpt><trkpt lat="44.46397337994585" lon="11.393587700785307"><ele>93.0</ele><time>2026-05-01T07:02:24Z</time></trkpt><trkpt lat="44.463910440620374" lon="11.393602529446882"><ele>93.00000000000001</ele><time>2026-05-01T07:02:26Z</time></trkpt><trkpt lat="44.46384820464866" lon="11.393621828007552"><ele>93.0</ele><time>2026-05-01T07:02:28Z</time></trkpt><trkpt lat="44.463782556894365" lon="11.39369134407755"><ele>93.0</ele><time>2026-05-01T07:02:30Z</time></trkpt><trkpt lat="44.4637820733233" lon="11.393808852102861"><ele>93.0</ele><time>2026-05-01T07:02:32Z</time></trkpt><trkpt lat="44.46374142985394" lon="11.39388883205703"><ele>93.0</ele><time>2026-05-01T07:02:33.999Z</time></trkpt><trkpt lat="44.46369534575217" lon="11.393970465847394"><ele>93.00000000000001</ele><time>2026-05-01T07:02:35.999Z</time></trkpt><trkpt lat="44.46363733976549" lon="11.394025812649518"><ele>93.0</ele><time>2026-05-01T07:02:37.999Z</time></trkpt><trkpt lat="44.46370835177062" lon="11.394195444886588"><ele>93.2</ele><time>2026-05-01T07:02:41.999Z</time></trkpt><trkpt lat="44.46377579819694" lon="11.39428367721871"><ele>93.4</ele><time>2026-05-01T07:02:43.999Z</time></trkpt><trkpt lat="44.463842432185004" lon="11.39438611923129"><ele>93.60000000000001</ele><time>2026-05-01T07:02:45.999Z</time></trkpt><trkpt lat="44.46391511895195" lon="11.394478665073205"><ele>93.80000000000001</ele><time>2026-05-01T07:02:47.999Z</time></trkpt><trkpt lat="44.463939025105375" lon="11.394617311387922"><ele>94.0</ele><time>2026-05-01T07:02:49.999Z</time></trkpt><trkpt lat="44.46387746865512" lon="11.394756869847381"><ele>93.66666666666666</ele><time>2026-05-01T07:02:51.999Z</time></trkpt><trkpt lat="44.463819823372" lon="11.394800762219141"><ele>93.33333333333333</ele><time>2026-05-01T07:02:52.999Z</time></trkpt><trkpt lat="44.46373731801594" lon="11.39487421123137"><ele>93.0</ele><time>2026-05-01T07:02:54.999Z</time></trkpt><trkpt lat="44.46366018653564" lon="11.394939660485997"><ele>92.66666666666667</ele><time>2026-05-01T07:02:56.999Z</time></trkpt><trkpt lat="44.4635831934217" lon="11.394996870221162"><ele>92.33333333333334</ele><time>2026-05-01T07:02:58.999Z</time></trkpt><trkpt lat="44.46351994589366" lon="11.395052051187132"><ele>92.0</ele><time>2026-05-01T07:03:00.999Z</time></trkpt><trkpt lat="44.46344892261614" lon="11.395104642393246"><ele>92.0</ele><time>2026-05-01T07:03:02.999Z</time></trkpt><trkpt lat="44.46339081335472" lon="11.395221420604669"><ele>92.0</ele><time>2026-05-01T07:03:05.999Z</time></trkpt><trkpt lat="44.463364189896154" lon="11.39533063087534"><ele>92.0</ele><time>2026-05-01T07:03:07.999Z</time></trkpt><trkpt lat="44.4632900179108" lon="11.395410198653103"><ele>92.0</ele><time>2026-05-01T07:03:09.999Z</time></trkpt><trkpt lat="44.46323182806223" lon="11.395498582762436"><ele>92.0</ele><time>2026-05-01T07:03:11.999Z</time></trkpt><trkpt lat="44.4631817009696" lon="11.395610200982551"><ele>91.8</ele><time>2026-05-01T07:03:13.999Z</time></trkpt><trkpt lat="44.46314831832695" lon="11.395730294707201"><ele>91.6</ele><time>2026-05-01T07:03:15.999Z</time></trkpt><trkpt lat="44.463085178646445" lon="11.395828911448618"><ele>91.39999999999999</ele><time>2026-05-01T07:03:17.999Z</time></trkpt><trkpt lat="44.463034886879626" lon="11.39594220133756"><ele>91.19999999999999</ele><time>2026-05-01T07:03:20Z</time></trkpt><trkpt lat="44.4629723879675" lon="11.396033920767005"><ele>91.0</ele><time>2026-05-01T07:03:22Z</time></trkpt><trkpt lat="44.46290833184336" lon="11.396121656016877"><ele>91.4</ele><time>2026-05-01T07:03:24Z</time></trkpt><trkpt lat="44.46284778474995" lon="11.396226683797991"><ele>91.8</ele><time>2026-05-01T07:03:26Z</time></trkpt><trkpt lat="44.46277710700068" lon="11.396316746313738"><ele>92.2</ele><time>2026-05-01T07:03:28Z</time></trkpt><trkpt lat="44.46270597787762" lon="11.396405531616065"><ele>92.60000000000001</ele><time>2026-05-01T07:03:30Z</time></trkpt><trkpt lat="44.462633235306896" lon="11.396503429992874"><ele>93.0</ele><time>2026-05-01T07:03:32Z</time></trkpt><trkpt lat="44.46254434428272" lon="11.39659560030256"><ele>92.2</ele><time>2026-05-01T07:03:34Z</time></trkpt><trkpt lat="44.46246573462294" lon="11.396705840429354"><ele>91.4</ele><time>2026-05-01T07:03:36Z</time></trkpt><trkpt lat="44.462399899927966" lon="11.396830838326656"><ele>90.60000000000001</ele><time>2026-05-01T07:03:38Z</time></trkpt><trkpt lat="44.46232126937983" lon="11.39694133199632"><ele>89.80000000000001</ele><time>2026-05-01T07:03:40Z</time></trkpt><trkpt lat="44.462245594153664" lon="11.397042591906832"><ele>89.0</ele><time>2026-05-01T07:03:42Z</time></trkpt><trkpt lat="44.462175087909266" lon="11.39714363474407"><ele>89.2</ele><time>2026-05-01T07:03:44Z</time></trkpt><trkpt lat="44.46210337004389" lon="11.397250218908486"><ele>89.4</ele><time>2026-05-01T07:03:46Z</time></trkpt><trkpt lat="44.46203511431565" lon="11.397354145793257"><ele>89.6</ele><time>2026-05-01T07:03:48Z</time></trkpt><trkpt lat="44.46196410957107" lon="11.397453363147411"><ele>89.8</ele><time>2026-05-01T07:03:50Z</time></trkpt><trkpt lat="44.46191493387083" lon="11.397553067059262"><ele>90.0</ele><time>2026-05-01T07:03:53Z</time></trkpt><trkpt lat="44.461964689389575" lon="11.397671443753172"><ele>90.0</ele><time>2026-05-01T07:03:55Z</time></trkpt><trkpt lat="44.46205169335396" lon="11.397786630547724"><ele>90.0</ele><time>2026-05-01T07:03:57Z</time></trkpt><trkpt lat="44.46214571622331" lon="11.397907469464826"><ele>90.0</ele><time>2026-05-01T07:03:59Z</time></trkpt><trkpt lat="44.46219554501532" lon="11.39797489865292"><ele>90.0</ele><time>2026-05-01T07:04:00Z</time></trkpt><trkpt lat="44.46224802961279" lon="11.398039229166896"><ele>90.0</ele><time>2026-05-01T07:04:01Z</time></trkpt><trkpt lat="44.46230272247732" lon="11.398109098568932"><ele>89.33333333333333</ele><time>2026-05-01T07:04:02Z</time></trkpt><trkpt lat="44.462359386881985" lon="11.398177078426205"><ele>88.66666666666667</ele><time>2026-05-01T07:04:03Z</time></trkpt><trkpt lat="44.462417143307825" lon="11.398246706509426"><ele>88.0</ele><time>2026-05-01T07:04:04Z</time></trkpt><trkpt lat="44.46247809607682" lon="11.39831318582678"><ele>87.33333333333334</ele><time>2026-05-01T07:04:05Z</time></trkpt><trkpt lat="44.46254047234234" lon="11.39838689779044"><ele>86.66666666666667</ele><time>2026-05-01T07:04:06Z</time></trkpt><trkpt lat="44.46260174093667" lon="11.398453518844946"><ele>86.0</ele><time>2026-05-01T07:04:07Z</time></trkpt><trkpt lat="44.462660446501374" lon="11.398519559307957"><ele>86.0</ele><time>2026-05-01T07:04:08Z</time></trkpt><trkpt lat="44.46272116425987" lon="11.398585738372002"><ele>86.0</ele><time>2026-05-01T07:04:09Z</time></trkpt><trkpt lat="44.46278242617943" lon="11.398649744386057"><ele>86.0</ele><time>2026-05-01T07:04:10Z</time></trkpt><trkpt lat="44.46284180720836" lon="11.398720239773551"><ele>86.0</ele><time>2026-05-01T07:04:11Z</time></trkpt><trkpt lat="44.462901914467" lon="11.398789795763856"><ele>86.0</ele><time>2026-05-01T07:04:12Z</time></trkpt><trkpt lat="44.462962205884956" lon="11.398857950362922"><ele>86.0</ele><time>2026-05-01T07:04:13Z</time></trkpt><trkpt lat="44.46302212009919" lon="11.39892409184551"><ele>85.83333333333334</ele><time>2026-05-01T07:04:14Z</time></trkpt><trkpt lat="44.46308198747649" lon="11.398986237292474"><ele>85.66666666666667</ele><time>2026-05-01T07:04:15Z</time></trkpt><trkpt lat="44.463140440927305" lon="11.399052980697823"><ele>85.5</ele><time>2026-05-01T07:04:16Z</time></trkpt><trkpt lat="44.46320130429394" lon="11.399117282414325"><ele>85.33333333333333</ele><time>2026-05-01T07:04:17Z</time></trkpt><trkpt lat="44.463261268418336" lon="11.399179492306747"><ele>85.16666666666666</ele><time>2026-05-01T07:04:18Z</time></trkpt><trkpt lat="44.46332060593404" lon="11.399245590196822"><ele>85.0</ele><time>2026-05-01T07:04:19Z</time></trkpt><trkpt lat="44.46338053467141" lon="11.399311697638048"><ele>85.0</ele><time>2026-05-01T07:04:20Z</time></trkpt><trkpt lat="44.4634401193407" lon="11.399379125813875"><ele>85.0</ele><time>2026-05-01T07:04:21Z</time></trkpt><trkpt lat="44.46349822572532" lon="11.399442843292212"><ele>85.0</ele><time>2026-05-01T07:04:22Z</time></trkpt><trkpt lat="44.46356035272497" lon="11.399514542438766"><ele>85.0</ele><time>2026-05-01T07:04:23Z</time></trkpt><trkpt lat="44.46362257378496" lon="11.399582689032162"><ele>85.0</ele><time>2026-05-01T07:04:24Z</time></trkpt><trkpt lat="44.46368154772249" lon="11.399648273994316"><ele>85.0</ele><time>2026-05-01T07:04:25Z</time></trkpt><trkpt lat="44.46373869279963" lon="11.399715147104896"><ele>84.28571428571429</ele><time>2026-05-01T07:04:26Z</time></trkpt><trkpt lat="44.46379877902311" lon="11.39977883155009"><ele>83.57142857142857</ele><time>2026-05-01T07:04:27Z</time></trkpt><trkpt lat="44.463856948186375" lon="11.39983908420446"><ele>82.85714285714286</ele><time>2026-05-01T07:04:28Z</time></trkpt><trkpt lat="44.463917428099215" lon="11.399898232811363"><ele>82.14285714285714</ele><time>2026-05-01T07:04:29Z</time></trkpt><trkpt lat="44.463966119715046" lon="11.399975872528069"><ele>81.42857142857143</ele><time>2026-05-01T07:04:30Z</time></trkpt><trkpt lat="44.46402173586242" lon="11.400040926835304"><ele>80.71428571428571</ele><time>2026-05-01T07:04:31Z</time></trkpt><trkpt lat="44.46407752701831" lon="11.400106899799153"><ele>80.0</ele><time>2026-05-01T07:04:32Z</time></trkpt><trkpt lat="44.464145530459206" lon="11.400171108249358"><ele>80.0</ele><time>2026-05-01T07:04:34Z</time></trkpt><trkpt lat="44.46420503892831" lon="11.400215876919352"><ele>80.0</ele><time>2026-05-01T07:04:37.999Z</time></trkpt><trkpt lat="44.46409397636562" lon="11.400304714707813"><ele>80.0</ele><time>2026-05-01T07:04:41.999Z</time></trkpt><trkpt lat="44.46414110798776" lon="11.400453266978616"><ele>80.0</ele><time>2026-05-01T07:04:42.999Z</time></trkpt><trkpt lat="44.464077895278166" lon="11.400548355509477"><ele>80.0</ele><time>2026-05-01T07:04:44.999Z</time></trkpt><trkpt lat="44.46400653418015" lon="11.40065702329799"><ele>80.0</ele><time>2026-05-01T07:04:46.999Z</time></trkpt><trkpt lat="44.46392328618154" lon="11.400767318951798"><ele>80.0</ele><time>2026-05-01T07:04:48.999Z</time></trkpt><trkpt lat="44.46384362246107" lon="11.400871422694276"><ele>80.0</ele><time>2026-05-01T07:04:50.999Z</time></trkpt><trkpt lat="44.46375844367753" lon="11.400979822832946"><ele>80.0</ele><time>2026-05-01T07:04:52.999Z</time></trkpt><trkpt lat="44.46366945956948" lon="11.401083335951473"><ele>80.25</ele><time>2026-05-01T07:04:54.999Z</time></trkpt><trkpt lat="44.4635867072157" lon="11.401194584218656"><ele>80.5</ele><time>2026-05-01T07:04:56.999Z</time></trkpt><trkpt lat="44.46350609595507" lon="11.401312250037916"><ele>80.75</ele><time>2026-05-01T07:04:58.999Z</time></trkpt><trkpt lat="44.463432372944695" lon="11.401434311984668"><ele>81.0</ele><time>2026-05-01T07:05:00.999Z</time></trkpt><trkpt lat="44.463363031723155" lon="11.401562466450656"><ele>80.39999999999999</ele><time>2026-05-01T07:05:02.999Z</time></trkpt><trkpt lat="44.46329159849591" lon="11.401686476684658"><ele>79.8</ele><time>2026-05-01T07:05:04.999Z</time></trkpt><trkpt lat="44.46322637371639" lon="11.401822174036381"><ele>79.19999999999999</ele><time>2026-05-01T07:05:06.999Z</time></trkpt><trkpt lat="44.463191283715496" lon="11.401896096311138"><ele>78.6</ele><time>2026-05-01T07:05:07.999Z</time></trkpt><trkpt lat="44.46312596691388" lon="11.402032311872036"><ele>78.0</ele><time>2026-05-01T07:05:09.999Z</time></trkpt><trkpt lat="44.46310118117234" lon="11.402115006042504"><ele>78.0</ele><time>2026-05-01T07:05:10.999Z</time></trkpt><trkpt lat="44.46303961128994" lon="11.402252446961551"><ele>78.0</ele><time>2026-05-01T07:05:12.999Z</time></trkpt><trkpt lat="44.46298452682849" lon="11.402344986522586"><ele>78.0</ele><time>2026-05-01T07:05:14.999Z</time></trkpt><trkpt lat="44.46294030239539" lon="11.402416209676314"><ele>78.0</ele><time>2026-05-01T07:05:16.999Z</time></trkpt><trkpt lat="44.46290430096586" lon="11.402510719560905"><ele>78.0</ele><time>2026-05-01T07:05:20.999Z</time></trkpt><trkpt lat="44.46285408822578" lon="11.402576644080995"><ele>78.0</ele><time>2026-05-01T07:05:26Z</time></trkpt><trkpt lat="44.462822826210875" lon="11.402669990584286"><ele>78.0</ele><time>2026-05-01T07:05:39Z</time></trkpt><trkpt lat="44.462762244679666" lon="11.402778992937346"><ele>78.0</ele><time>2026-05-01T07:05:42Z</time></trkpt><trkpt lat="44.462708977600144" lon="11.402876808848768"><ele>78.0</ele><time>2026-05-01T07:05:44Z</time></trkpt><trkpt lat="44.462662854644456" lon="11.40297563567907"><ele>78.0</ele><time>2026-05-01T07:05:46Z</time></trkpt><trkpt lat="44.462630922698274" lon="11.403072385157914"><ele>78.0</ele><time>2026-05-01T07:05:48Z</time></trkpt><trkpt lat="44.46259016805386" lon="11.403166799619685"><ele>78.0</ele><time>2026-05-01T07:05:50Z</time></trkpt><trkpt lat="44.46254848546593" lon="11.403246653390893"><ele>78.14285714285715</ele><time>2026-05-01T07:05:52Z</time></trkpt><trkpt lat="44.462504277500855" lon="11.403314240982693"><ele>78.28571428571428</ele><time>2026-05-01T07:05:54Z</time></trkpt><trkpt lat="44.46245455163531" lon="11.403387454923697"><ele>78.42857142857143</ele><time>2026-05-01T07:05:56Z</time></trkpt><trkpt lat="44.46240632129852" lon="11.403453937290697"><ele>78.57142857142858</ele><time>2026-05-01T07:05:58Z</time></trkpt><trkpt lat="44.462344994859244" lon="11.403509731023991"><ele>78.71428571428572</ele><time>2026-05-01T07:06:00Z</time></trkpt><trkpt lat="44.46229039960546" lon="11.403569210554036"><ele>78.85714285714286</ele><time>2026-05-01T07:06:02Z</time></trkpt><trkpt lat="44.46222500625924" lon="11.403618916944906"><ele>79.0</ele><time>2026-05-01T07:06:04Z</time></trkpt><trkpt lat="44.46216579842557" lon="11.403658101948631"><ele>79.28571428571429</ele><time>2026-05-01T07:06:06Z</time></trkpt><trkpt lat="44.46210198570245" lon="11.403696553732933"><ele>79.57142857142857</ele><time>2026-05-01T07:06:08Z</time></trkpt><trkpt lat="44.46203637815791" lon="11.403725608937394"><ele>79.85714285714286</ele><time>2026-05-01T07:06:10Z</time></trkpt><trkpt lat="44.46196823964168" lon="11.40375330186109"><ele>80.14285714285714</ele><time>2026-05-01T07:06:12Z</time></trkpt><trkpt lat="44.4619002698282" lon="11.403789468245009"><ele>80.42857142857143</ele><time>2026-05-01T07:06:14Z</time></trkpt><trkpt lat="44.46182887723787" lon="11.40381992909702"><ele>80.71428571428572</ele><time>2026-05-01T07:06:16Z</time></trkpt><trkpt lat="44.46175434358976" lon="11.4038563224877"><ele>81.0</ele><time>2026-05-01T07:06:18Z</time></trkpt><trkpt lat="44.461683701022345" lon="11.403882429883222"><ele>81.66666666666667</ele><time>2026-05-01T07:06:20Z</time></trkpt><trkpt lat="44.4616123957258" lon="11.403926797648364"><ele>82.33333333333333</ele><time>2026-05-01T07:06:22Z</time></trkpt><trkpt lat="44.46154157863719" lon="11.403956550707806"><ele>83.0</ele><time>2026-05-01T07:06:24Z</time></trkpt><trkpt lat="44.46146784761858" lon="11.403991458898062"><ele>83.66666666666666</ele><time>2026-05-01T07:06:26Z</time></trkpt><trkpt lat="44.46139065906632" lon="11.404033597438014"><ele>84.33333333333333</ele><time>2026-05-01T07:06:28Z</time></trkpt><trkpt lat="44.46130781073137" lon="11.404055620720769"><ele>85.0</ele><time>2026-05-01T07:06:30Z</time></trkpt><trkpt lat="44.461227503419494" lon="11.404091322068757"><ele>85.0</ele><time>2026-05-01T07:06:32Z</time></trkpt><trkpt lat="44.46115392196388" lon="11.40413118827098"><ele>85.0</ele><time>2026-05-01T07:06:34Z</time></trkpt><trkpt lat="44.46107806946211" lon="11.404160154256552"><ele>85.0</ele><time>2026-05-01T07:06:36Z</time></trkpt><trkpt lat="44.46100645012285" lon="11.404196203802167"><ele>85.0</ele><time>2026-05-01T07:06:38Z</time></trkpt><trkpt lat="44.460936431725436" lon="11.404234877699825"><ele>85.0</ele><time>2026-05-01T07:06:40Z</time></trkpt><trkpt lat="44.46086599447362" lon="11.404276801200076"><ele>85.0</ele><time>2026-05-01T07:06:42Z</time></trkpt><trkpt lat="44.46079387201687" lon="11.40432707538082"><ele>85.0</ele><time>2026-05-01T07:06:44Z</time></trkpt><trkpt lat="44.46071894944916" lon="11.404376498742316"><ele>85.0</ele><time>2026-05-01T07:06:45.999Z</time></trkpt><trkpt lat="44.46064451446714" lon="11.404424520282697"><ele>85.0</ele><time>2026-05-01T07:06:47.999Z</time></trkpt><trkpt lat="44.460570506117335" lon="11.404480270114218"><ele>85.0</ele><time>2026-05-01T07:06:49.999Z</time></trkpt><trkpt lat="44.46049902766438" lon="11.404533624150597"><ele>85.0</ele><time>2026-05-01T07:06:51.999Z</time></trkpt><trkpt lat="44.4604245792566" lon="11.404591466169142"><ele>85.0</ele><time>2026-05-01T07:06:53.999Z</time></trkpt><trkpt lat="44.46035463249338" lon="11.404651625971244"><ele>85.33333333333333</ele><time>2026-05-01T07:06:55.999Z</time></trkpt><trkpt lat="44.460282081469494" lon="11.404710287771627"><ele>85.66666666666666</ele><time>2026-05-01T07:06:57.999Z</time></trkpt><trkpt lat="44.46021108283811" lon="11.40478113460483"><ele>86.0</ele><time>2026-05-01T07:06:59.999Z</time></trkpt><trkpt lat="44.460136781087336" lon="11.404853478970335"><ele>86.33333333333333</ele><time>2026-05-01T07:07:01.999Z</time></trkpt><trkpt lat="44.46006029056902" lon="11.404916093770805"><ele>86.66666666666667</ele><time>2026-05-01T07:07:03.999Z</time></trkpt><trkpt lat="44.45998223744746" lon="11.404972853206218"><ele>87.0</ele><time>2026-05-01T07:07:05.999Z</time></trkpt><trkpt lat="44.459895459069514" lon="11.40503292120954"><ele>87.0</ele><time>2026-05-01T07:07:07.999Z</time></trkpt><trkpt lat="44.45979961920243" lon="11.405085829718578"><ele>87.0</ele><time>2026-05-01T07:07:09.999Z</time></trkpt><trkpt lat="44.45970025846839" lon="11.405148787461753"><ele>87.0</ele><time>2026-05-01T07:07:11.999Z</time></trkpt><trkpt lat="44.45959829343782" lon="11.405196547490734"><ele>87.0</ele><time>2026-05-01T07:07:13.999Z</time></trkpt><trkpt lat="44.45948479833381" lon="11.405246877711404"><ele>87.0</ele><time>2026-05-01T07:07:15.999Z</time></trkpt><trkpt lat="44.4593661684566" lon="11.405272125546608"><ele>87.6</ele><time>2026-05-01T07:07:17.999Z</time></trkpt><trkpt lat="44.459303425235476" lon="11.40528537544024"><ele>88.19999999999999</ele><time>2026-05-01T07:07:18.999Z</time></trkpt><trkpt lat="44.459176545542554" lon="11.405300810833857"><ele>88.8</ele><time>2026-05-01T07:07:20.999Z</time></trkpt><trkpt lat="44.45911333160445" lon="11.405315859470054"><ele>89.4</ele><time>2026-05-01T07:07:21.999Z</time></trkpt><trkpt lat="44.4589850480987" lon="11.40534143286104"><ele>90.0</ele><time>2026-05-01T07:07:23.999Z</time></trkpt><trkpt lat="44.45891980911122" lon="11.40535718139688"><ele>90.0</ele><time>2026-05-01T07:07:24.999Z</time></trkpt><trkpt lat="44.458857020380364" lon="11.405367791771774"><ele>90.0</ele><time>2026-05-01T07:07:25.999Z</time></trkpt><trkpt lat="44.45879104007884" lon="11.405379561131555"><ele>90.0</ele><time>2026-05-01T07:07:26.999Z</time></trkpt><trkpt lat="44.458728278131716" lon="11.405394295776947"><ele>90.0</ele><time>2026-05-01T07:07:27.999Z</time></trkpt><trkpt lat="44.45866574724885" lon="11.405408716060824"><ele>90.0</ele><time>2026-05-01T07:07:28.999Z</time></trkpt><trkpt lat="44.4586031366069" lon="11.405428136046893"><ele>90.0</ele><time>2026-05-01T07:07:29.999Z</time></trkpt><trkpt lat="44.458538903337114" lon="11.405443856947311"><ele>90.0</ele><time>2026-05-01T07:07:31Z</time></trkpt><trkpt lat="44.45841548513738" lon="11.405468984128131"><ele>90.0</ele><time>2026-05-01T07:07:33Z</time></trkpt><trkpt lat="44.45835238537611" lon="11.405488043479144"><ele>90.0</ele><time>2026-05-01T07:07:34Z</time></trkpt><trkpt lat="44.4582872339228" lon="11.405501294520143"><ele>90.0</ele><time>2026-05-01T07:07:35Z</time></trkpt><trkpt lat="44.458220596686616" lon="11.405514575800916"><ele>90.0</ele><time>2026-05-01T07:07:36Z</time></trkpt><trkpt lat="44.458157256704204" lon="11.405526359911255"><ele>90.0</ele><time>2026-05-01T07:07:37Z</time></trkpt><trkpt lat="44.458092831525335" lon="11.405540682028047"><ele>90.0</ele><time>2026-05-01T07:07:38Z</time></trkpt><trkpt lat="44.45803090062023" lon="11.40555757795225"><ele>90.0</ele><time>2026-05-01T07:07:39Z</time></trkpt><trkpt lat="44.45796851235291" lon="11.40558216554681"><ele>89.66666666666667</ele><time>2026-05-01T07:07:40Z</time></trkpt><trkpt lat="44.45790260538473" lon="11.405624338734668"><ele>89.33333333333333</ele><time>2026-05-01T07:07:41Z</time></trkpt><trkpt lat="44.457840498922465" lon="11.405654897139748"><ele>89.0</ele><time>2026-05-01T07:07:42Z</time></trkpt><trkpt lat="44.45778012546317" lon="11.405684031349477"><ele>88.66666666666666</ele><time>2026-05-01T07:07:43Z</time></trkpt><trkpt lat="44.45771381199199" lon="11.405712160421125"><ele>88.33333333333333</ele><time>2026-05-01T07:07:44Z</time></trkpt><trkpt lat="44.45758529617029" lon="11.405731738456668"><ele>88.0</ele><time>2026-05-01T07:07:46Z</time></trkpt><trkpt lat="44.45746524892942" lon="11.405782951665083"><ele>88.0</ele><time>2026-05-01T07:07:48Z</time></trkpt><trkpt lat="44.457422365225504" lon="11.405855882857388"><ele>88.0</ele><time>2026-05-01T07:07:49Z</time></trkpt><trkpt lat="44.45733273469597" lon="11.405829869981075"><ele>88.0</ele><time>2026-05-01T07:07:50Z</time></trkpt><trkpt lat="44.45726631608255" lon="11.405799686762371"><ele>88.0</ele><time>2026-05-01T07:07:51Z</time></trkpt><trkpt lat="44.45719802639654" lon="11.405776798334028"><ele>88.0</ele><time>2026-05-01T07:07:52Z</time></trkpt><trkpt lat="44.457130240476474" lon="11.405776262679293"><ele>88.0</ele><time>2026-05-01T07:07:53Z</time></trkpt><trkpt lat="44.45706547667123" lon="11.405775386843791"><ele>88.0</ele><time>2026-05-01T07:07:54Z</time></trkpt><trkpt lat="44.456999487292144" lon="11.405778742346074"><ele>87.85714285714286</ele><time>2026-05-01T07:07:55Z</time></trkpt><trkpt lat="44.45693279950618" lon="11.405794213440908"><ele>87.71428571428571</ele><time>2026-05-01T07:07:56Z</time></trkpt><trkpt lat="44.45686709572197" lon="11.405806849662467"><ele>87.57142857142857</ele><time>2026-05-01T07:07:57Z</time></trkpt><trkpt lat="44.456797938197454" lon="11.405819486155044"><ele>87.42857142857143</ele><time>2026-05-01T07:07:58Z</time></trkpt><trkpt lat="44.45673339775749" lon="11.405836704359126"><ele>87.28571428571429</ele><time>2026-05-01T07:07:59Z</time></trkpt><trkpt lat="44.45666845722924" lon="11.405851171335136"><ele>87.14285714285714</ele><time>2026-05-01T07:08:00Z</time></trkpt><trkpt lat="44.45660079643476" lon="11.405865641273916"><ele>87.0</ele><time>2026-05-01T07:08:01Z</time></trkpt><trkpt lat="44.45653403068079" lon="11.405886048527115"><ele>87.0</ele><time>2026-05-01T07:08:02Z</time></trkpt><trkpt lat="44.456468171452656" lon="11.405901376364955"><ele>87.0</ele><time>2026-05-01T07:08:03Z</time></trkpt><trkpt lat="44.45640183757269" lon="11.405913652903356"><ele>87.0</ele><time>2026-05-01T07:08:04Z</time></trkpt><trkpt lat="44.45633441096867" lon="11.405927456920907"><ele>87.0</ele><time>2026-05-01T07:08:05Z</time></trkpt><trkpt lat="44.456267557791186" lon="11.405945679963667"><ele>87.0</ele><time>2026-05-01T07:08:06Z</time></trkpt><trkpt lat="44.456200898263994" lon="11.405960130589918"><ele>87.0</ele><time>2026-05-01T07:08:07Z</time></trkpt><trkpt lat="44.456133409887144" lon="11.40597202587874"><ele>87.0</ele><time>2026-05-01T07:08:08Z</time></trkpt><trkpt lat="44.45606378325577" lon="11.40598191990883"><ele>87.28571428571428</ele><time>2026-05-01T07:08:09Z</time></trkpt><trkpt lat="44.455998130504476" lon="11.405999030373543"><ele>87.57142857142857</ele><time>2026-05-01T07:08:10Z</time></trkpt><trkpt lat="44.455933246080235" lon="11.406008836715793"><ele>87.85714285714286</ele><time>2026-05-01T07:08:11Z</time></trkpt><trkpt lat="44.455864979381715" lon="11.406023710483447"><ele>88.14285714285714</ele><time>2026-05-01T07:08:12Z</time></trkpt><trkpt lat="44.45579532919081" lon="11.406040152021344"><ele>88.42857142857143</ele><time>2026-05-01T07:08:13Z</time></trkpt><trkpt lat="44.455728559375856" lon="11.406053459822186"><ele>88.71428571428571</ele><time>2026-05-01T07:08:14Z</time></trkpt><trkpt lat="44.455662664118584" lon="11.406065168798172"><ele>89.0</ele><time>2026-05-01T07:08:15Z</time></trkpt><trkpt lat="44.45559612266599" lon="11.406081971075851"><ele>89.0</ele><time>2026-05-01T07:08:16Z</time></trkpt><trkpt lat="44.45552699788991" lon="11.406097465784258"><ele>89.0</ele><time>2026-05-01T07:08:17Z</time></trkpt><trkpt lat="44.45546297681784" lon="11.406112706825528"><ele>89.0</ele><time>2026-05-01T07:08:18Z</time></trkpt><trkpt lat="44.45539883485979" lon="11.406128011075264"><ele>89.0</ele><time>2026-05-01T07:08:19Z</time></trkpt><trkpt lat="44.45533419475392" lon="11.406138163564176"><ele>89.0</ele><time>2026-05-01T07:08:20Z</time></trkpt><trkpt lat="44.455206989203376" lon="11.406165849447685"><ele>89.0</ele><time>2026-05-01T07:08:22Z</time></trkpt><trkpt lat="44.455144967081566" lon="11.406181502817873"><ele>88.4</ele><time>2026-05-01T07:08:23Z</time></trkpt><trkpt lat="44.455079648190875" lon="11.406191592890767"><ele>87.80000000000001</ele><time>2026-05-01T07:08:24Z</time></trkpt><trkpt lat="44.45495921724652" lon="11.406220863365036"><ele>87.19999999999999</ele><time>2026-05-01T07:08:26Z</time></trkpt><trkpt lat="44.454837560680396" lon="11.406262760027166"><ele>86.6</ele><time>2026-05-01T07:08:28Z</time></trkpt><trkpt lat="44.45471887754402" lon="11.406293968316696"><ele>86.0</ele><time>2026-05-01T07:08:30Z</time></trkpt><trkpt lat="44.454599324749886" lon="11.406334710786782"><ele>85.4</ele><time>2026-05-01T07:08:32Z</time></trkpt><trkpt lat="44.45453766009881" lon="11.406359933058857"><ele>84.8</ele><time>2026-05-01T07:08:33Z</time></trkpt><trkpt lat="44.454415482797835" lon="11.406407462262857"><ele>84.2</ele><time>2026-05-01T07:08:35Z</time></trkpt><trkpt lat="44.45429589758819" lon="11.40645594821841"><ele>83.60000000000001</ele><time>2026-05-01T07:08:37Z</time></trkpt><trkpt lat="44.454178485745345" lon="11.406511585986333"><ele>83.0</ele><time>2026-05-01T07:08:39Z</time></trkpt><trkpt lat="44.454065997392874" lon="11.406572517047781"><ele>83.0</ele><time>2026-05-01T07:08:41Z</time></trkpt><trkpt lat="44.45394937130472" lon="11.406622447326205"><ele>83.0</ele><time>2026-05-01T07:08:43Z</time></trkpt><trkpt lat="44.453838163350774" lon="11.406678983470355"><ele>83.0</ele><time>2026-05-01T07:08:45Z</time></trkpt><trkpt lat="44.45372389224457" lon="11.406739893175788"><ele>83.0</ele><time>2026-05-01T07:08:46.999Z</time></trkpt><trkpt lat="44.453617149697855" lon="11.40679356340537"><ele>84.0</ele><time>2026-05-01T07:08:48.999Z</time></trkpt><trkpt lat="44.453509294806835" lon="11.406847958120302"><ele>85.0</ele><time>2026-05-01T07:08:50.999Z</time></trkpt><trkpt lat="44.45340096678301" lon="11.406906132118294"><ele>86.0</ele><time>2026-05-01T07:08:52.999Z</time></trkpt><trkpt lat="44.45329194585024" lon="11.406959419386805"><ele>87.0</ele><time>2026-05-01T07:08:54.999Z</time></trkpt><trkpt lat="44.45318598369968" lon="11.407014975379056"><ele>87.0</ele><time>2026-05-01T07:08:56.999Z</time></trkpt><trkpt lat="44.45307604454249" lon="11.407062252838951"><ele>87.0</ele><time>2026-05-01T07:08:58.999Z</time></trkpt><trkpt lat="44.452970553448964" lon="11.407111795182217"><ele>87.0</ele><time>2026-05-01T07:09:00.999Z</time></trkpt><trkpt lat="44.452863345154185" lon="11.40713945281982"><ele>87.0</ele><time>2026-05-01T07:09:02.999Z</time></trkpt><trkpt lat="44.452756790108126" lon="11.407168551877497"><ele>87.0</ele><time>2026-05-01T07:09:04.999Z</time></trkpt><trkpt lat="44.45265759062402" lon="11.407180628795997"><ele>86.8</ele><time>2026-05-01T07:09:06.999Z</time></trkpt><trkpt lat="44.45255651094493" lon="11.407208169756665"><ele>86.6</ele><time>2026-05-01T07:09:08.999Z</time></trkpt><trkpt lat="44.45245449643371" lon="11.407226770400799"><ele>86.39999999999999</ele><time>2026-05-01T07:09:10.999Z</time></trkpt><trkpt lat="44.45235747787282" lon="11.40724086060763"><ele>86.19999999999999</ele><time>2026-05-01T07:09:12.999Z</time></trkpt><trkpt lat="44.45225883993485" lon="11.407265494269188"><ele>86.0</ele><time>2026-05-01T07:09:14.999Z</time></trkpt><trkpt lat="44.45216574630818" lon="11.407275954039461"><ele>85.8</ele><time>2026-05-01T07:09:16.999Z</time></trkpt><trkpt lat="44.45207275196817" lon="11.407286680755915"><ele>85.6</ele><time>2026-05-01T07:09:18.999Z</time></trkpt><trkpt lat="44.451982313310054" lon="11.407293699127662"><ele>85.4</ele><time>2026-05-01T07:09:20.999Z</time></trkpt><trkpt lat="44.45189189838734" lon="11.407306698194919"><ele>85.2</ele><time>2026-05-01T07:09:22.999Z</time></trkpt><trkpt lat="44.45180246330327" lon="11.40730979709628"><ele>85.0</ele><time>2026-05-01T07:09:24.999Z</time></trkpt><trkpt lat="44.45170947606172" lon="11.407325683744205"><ele>85.0</ele><time>2026-05-01T07:09:26.999Z</time></trkpt><trkpt lat="44.45161774164448" lon="11.407347097166328"><ele>85.0</ele><time>2026-05-01T07:09:28.999Z</time></trkpt><trkpt lat="44.45152366404571" lon="11.407379246418078"><ele>85.0</ele><time>2026-05-01T07:09:30.999Z</time></trkpt><trkpt lat="44.45143503118488" lon="11.40741923823457"><ele>85.0</ele><time>2026-05-01T07:09:32.999Z</time></trkpt><trkpt lat="44.45134978881906" lon="11.407429823815749"><ele>85.0</ele><time>2026-05-01T07:09:34.999Z</time></trkpt><trkpt lat="44.45126847721731" lon="11.40745879469993"><ele>85.5</ele><time>2026-05-01T07:09:37Z</time></trkpt><trkpt lat="44.45120239965822" lon="11.407522996671958"><ele>86.0</ele><time>2026-05-01T07:09:39Z</time></trkpt><trkpt lat="44.4511754867573" lon="11.40764008792141"><ele>86.5</ele><time>2026-05-01T07:09:41Z</time></trkpt><trkpt lat="44.45118665415604" lon="11.407751001234798"><ele>87.0</ele><time>2026-05-01T07:09:43Z</time></trkpt><trkpt lat="44.451163611778455" lon="11.407862643880593"><ele>87.5</ele><time>2026-05-01T07:09:45Z</time></trkpt><trkpt lat="44.45112324811758" lon="11.407958524016642"><ele>88.0</ele><time>2026-05-01T07:09:47Z</time></trkpt><trkpt lat="44.451098693677714" lon="11.40806931596122"><ele>88.0</ele><time>2026-05-01T07:09:49Z</time></trkpt><trkpt lat="44.451091371149744" lon="11.408184859647532"><ele>88.0</ele><time>2026-05-01T07:09:51Z</time></trkpt><trkpt lat="44.45108851478895" lon="11.408299386011938"><ele>88.0</ele><time>2026-05-01T07:09:53Z</time></trkpt><trkpt lat="44.45108235472033" lon="11.40841676790273"><ele>88.0</ele><time>2026-05-01T07:09:55Z</time></trkpt><trkpt lat="44.451075353441084" lon="11.408531367716737"><ele>88.0</ele><time>2026-05-01T07:09:57Z</time></trkpt><trkpt lat="44.45106735268539" lon="11.40865128047596"><ele>88.0</ele><time>2026-05-01T07:09:59Z</time></trkpt><trkpt lat="44.45105888627898" lon="11.408775841374457"><ele>88.4</ele><time>2026-05-01T07:10:01Z</time></trkpt><trkpt lat="44.451050472185315" lon="11.408906292381905"><ele>88.80000000000001</ele><time>2026-05-01T07:10:03Z</time></trkpt><trkpt lat="44.4510474750818" lon="11.409035376590834"><ele>89.2</ele><time>2026-05-01T07:10:05Z</time></trkpt><trkpt lat="44.45104543426672" lon="11.409169285883165"><ele>89.6</ele><time>2026-05-01T07:10:07Z</time></trkpt><trkpt lat="44.4510169137468" lon="11.409294850786281"><ele>90.0</ele><time>2026-05-01T07:10:09Z</time></trkpt><trkpt lat="44.45090657897826" lon="11.409291670810541"><ele>90.0</ele><time>2026-05-01T07:10:11Z</time></trkpt><trkpt lat="44.45081919859642" lon="11.40923177768338"><ele>90.0</ele><time>2026-05-01T07:10:13Z</time></trkpt><trkpt lat="44.450736891002265" lon="11.409277182566365"><ele>90.0</ele><time>2026-05-01T07:10:15Z</time></trkpt><trkpt lat="44.45070972788437" lon="11.409411071264978"><ele>90.0</ele><time>2026-05-01T07:10:17Z</time></trkpt><trkpt lat="44.45061643837425" lon="11.409440548941248"><ele>90.0</ele><time>2026-05-01T07:10:19Z</time></trkpt><trkpt lat="44.45052557891074" lon="11.40940803124877"><ele>90.33333333333333</ele><time>2026-05-01T07:10:21Z</time></trkpt><trkpt lat="44.45043642059304" lon="11.409377383417912"><ele>90.66666666666667</ele><time>2026-05-01T07:10:23Z</time></trkpt><trkpt lat="44.45036019190239" lon="11.40934922106279"><ele>91.0</ele><time>2026-05-01T07:10:25Z</time></trkpt><trkpt lat="44.4503017232445" lon="11.409428043038515"><ele>91.33333333333334</ele><time>2026-05-01T07:10:28Z</time></trkpt><trkpt lat="44.450295508416914" lon="11.409528138537228"><ele>91.66666666666667</ele><time>2026-05-01T07:10:30Z</time></trkpt><trkpt lat="44.45027570384092" lon="11.409635992766127"><ele>92.0</ele><time>2026-05-01T07:10:32Z</time></trkpt><trkpt lat="44.45025791763163" lon="11.409755469300126"><ele>92.0</ele><time>2026-05-01T07:10:34Z</time></trkpt><trkpt lat="44.45024320318176" lon="11.409861379360072"><ele>92.0</ele><time>2026-05-01T07:10:36Z</time></trkpt><trkpt lat="44.450180435645734" lon="11.409931758083827"><ele>92.0</ele><time>2026-05-01T07:10:39Z</time></trkpt><trkpt lat="44.45009936238161" lon="11.40987730258169"><ele>92.0</ele><time>2026-05-01T07:10:41Z</time></trkpt><trkpt lat="44.450015600249" lon="11.409843435739843"><ele>92.0</ele><time>2026-05-01T07:10:43Z</time></trkpt><trkpt lat="44.4499381912788" lon="11.409814809076202"><ele>92.0</ele><time>2026-05-01T07:10:45Z</time></trkpt><trkpt lat="44.44985841665467" lon="11.409784544559209"><ele>92.0</ele><time>2026-05-01T07:10:47Z</time></trkpt><trkpt lat="44.44977106169655" lon="11.409762421533117"><ele>92.0</ele><time>2026-05-01T07:10:49Z</time></trkpt><trkpt lat="44.44970672849" lon="11.409711366054731"><ele>92.0</ele><time>2026-05-01T07:10:50.999Z</time></trkpt><trkpt lat="44.449651053686544" lon="11.40965374933143"><ele>92.0</ele><time>2026-05-01T07:10:52.999Z</time></trkpt><trkpt lat="44.449584431833664" lon="11.409669979681308"><ele>92.0</ele><time>2026-05-01T07:10:58.999Z</time></trkpt><trkpt lat="44.44951803266042" lon="11.409649947529667"><ele>92.0</ele><time>2026-05-01T07:11:01.999Z</time></trkpt><trkpt lat="44.44945095794973" lon="11.409601615759758"><ele>92.0</ele><time>2026-05-01T07:11:03.999Z</time></trkpt><trkpt lat="44.44936863300749" lon="11.409571127168965"><ele>92.28571428571429</ele><time>2026-05-01T07:11:06.999Z</time></trkpt><trkpt lat="44.44930537587309" lon="11.409544735813638"><ele>92.57142857142857</ele><time>2026-05-01T07:11:08.999Z</time></trkpt><trkpt lat="44.449212720585315" lon="11.409513004944229"><ele>92.85714285714286</ele><time>2026-05-01T07:11:11.999Z</time></trkpt><trkpt lat="44.44915475155748" lon="11.409476582250106"><ele>93.14285714285714</ele><time>2026-05-01T07:11:13.999Z</time></trkpt><trkpt lat="44.44909262698483" lon="11.409440599138188"><ele>93.42857142857142</ele><time>2026-05-01T07:11:15.999Z</time></trkpt><trkpt lat="44.449021736814586" lon="11.409419187434994"><ele>93.71428571428571</ele><time>2026-05-01T07:11:17.999Z</time></trkpt><trkpt lat="44.448950065646514" lon="11.409412335883326"><ele>94.0</ele><time>2026-05-01T07:11:19.999Z</time></trkpt><trkpt lat="44.44885562573944" lon="11.409393906386446"><ele>93.6</ele><time>2026-05-01T07:11:21.999Z</time></trkpt><trkpt lat="44.44875481461964" lon="11.409374994927461"><ele>93.2</ele><time>2026-05-01T07:11:23.999Z</time></trkpt><trkpt lat="44.44866145414323" lon="11.409334075255474"><ele>92.8</ele><time>2026-05-01T07:11:25.999Z</time></trkpt><trkpt lat="44.44856859563676" lon="11.409296282223279"><ele>92.39999999999999</ele><time>2026-05-01T07:11:27.999Z</time></trkpt><trkpt lat="44.44847482212826" lon="11.409267079287009"><ele>92.0</ele><time>2026-05-01T07:11:29.999Z</time></trkpt><trkpt lat="44.44838547894853" lon="11.409234458592278"><ele>92.0</ele><time>2026-05-01T07:11:31.999Z</time></trkpt><trkpt lat="44.44829494879982" lon="11.409205854657158"><ele>92.0</ele><time>2026-05-01T07:11:33.999Z</time></trkpt><trkpt lat="44.44820470853685" lon="11.409172805899333"><ele>92.0</ele><time>2026-05-01T07:11:35.999Z</time></trkpt><trkpt lat="44.44811049612388" lon="11.409138507089756"><ele>92.0</ele><time>2026-05-01T07:11:37.999Z</time></trkpt><trkpt lat="44.44801962476942" lon="11.409105758832991"><ele>92.0</ele><time>2026-05-01T07:11:39.999Z</time></trkpt><trkpt lat="44.44792487370733" lon="11.409071159907256"><ele>92.0</ele><time>2026-05-01T07:11:41.999Z</time></trkpt><trkpt lat="44.447825283580045" lon="11.409039782411956"><ele>92.0</ele><time>2026-05-01T07:11:44Z</time></trkpt><trkpt lat="44.44772474484667" lon="11.409002956192062"><ele>92.0</ele><time>2026-05-01T07:11:46Z</time></trkpt><trkpt lat="44.4476200346357" lon="11.40896678184564"><ele>92.0</ele><time>2026-05-01T07:11:48Z</time></trkpt><trkpt lat="44.4475091366696" lon="11.408925748803426"><ele>92.0</ele><time>2026-05-01T07:11:50Z</time></trkpt><trkpt lat="44.44739735382307" lon="11.408886292086533"><ele>92.0</ele><time>2026-05-01T07:11:52Z</time></trkpt><trkpt lat="44.44727857967471" lon="11.408846705437702"><ele>92.0</ele><time>2026-05-01T07:11:54Z</time></trkpt><trkpt lat="44.44721698171807" lon="11.408825463274221"><ele>92.0</ele><time>2026-05-01T07:11:55Z</time></trkpt><trkpt lat="44.44709514585857" lon="11.408780671492993"><ele>92.0</ele><time>2026-05-01T07:11:57Z</time></trkpt><trkpt lat="44.44703181168401" lon="11.408763667377507"><ele>92.0</ele><time>2026-05-01T07:11:58Z</time></trkpt><trkpt lat="44.446966469992766" lon="11.408739920255883"><ele>92.0</ele><time>2026-05-01T07:11:59Z</time></trkpt><trkpt lat="44.44690042764017" lon="11.408714685876856"><ele>92.42857142857143</ele><time>2026-05-01T07:12:00Z</time></trkpt><trkpt lat="44.4468325388646" lon="11.4086940237824"><ele>92.85714285714285</ele><time>2026-05-01T07:12:01Z</time></trkpt><trkpt lat="44.446766174530715" lon="11.408673430779254"><ele>93.28571428571428</ele><time>2026-05-01T07:12:02Z</time></trkpt><trkpt lat="44.44670006240012" lon="11.40865474619642"><ele>93.71428571428572</ele><time>2026-05-01T07:12:03Z</time></trkpt><trkpt lat="44.44663192208532" lon="11.4086311664616"><ele>94.14285714285714</ele><time>2026-05-01T07:12:04Z</time></trkpt><trkpt lat="44.446565943960714" lon="11.408611474801734"><ele>94.57142857142857</ele><time>2026-05-01T07:12:05Z</time></trkpt><trkpt lat="44.44650362361942" lon="11.408583957866709"><ele>95.0</ele><time>2026-05-01T07:12:06Z</time></trkpt><trkpt lat="44.44644103346916" lon="11.408548489639237"><ele>95.0</ele><time>2026-05-01T07:12:07Z</time></trkpt><trkpt lat="44.446377655620914" lon="11.40852520149603"><ele>95.0</ele><time>2026-05-01T07:12:08Z</time></trkpt><trkpt lat="44.44631378562179" lon="11.408505436907133"><ele>95.0</ele><time>2026-05-01T07:12:09Z</time></trkpt><trkpt lat="44.44624777958303" lon="11.408479628890818"><ele>95.0</ele><time>2026-05-01T07:12:10Z</time></trkpt><trkpt lat="44.4461852151664" lon="11.408459500029728"><ele>95.0</ele><time>2026-05-01T07:12:11Z</time></trkpt><trkpt lat="44.44611793826761" lon="11.408432619455418"><ele>95.0</ele><time>2026-05-01T07:12:12Z</time></trkpt><trkpt lat="44.44604357258295" lon="11.408412261497274"><ele>95.0</ele><time>2026-05-01T07:12:13Z</time></trkpt><trkpt lat="44.4459805010062" lon="11.408391192770376"><ele>94.83333333333334</ele><time>2026-05-01T07:12:14Z</time></trkpt><trkpt lat="44.44591805028394" lon="11.408368550967875"><ele>94.66666666666667</ele><time>2026-05-01T07:12:15Z</time></trkpt><trkpt lat="44.445854139501506" lon="11.408346378133272"><ele>94.5</ele><time>2026-05-01T07:12:16Z</time></trkpt><trkpt lat="44.44579164192697" lon="11.408321476662191"><ele>94.33333333333333</ele><time>2026-05-01T07:12:17Z</time></trkpt><trkpt lat="44.44572481459032" lon="11.40829736844385"><ele>94.16666666666666</ele><time>2026-05-01T07:12:18Z</time></trkpt><trkpt lat="44.44566311591732" lon="11.408277980093237"><ele>94.0</ele><time>2026-05-01T07:12:19Z</time></trkpt><trkpt lat="44.4455435710271" lon="11.408229701891509"><ele>93.75</ele><time>2026-05-01T07:12:21Z</time></trkpt><trkpt lat="44.445419843070525" lon="11.408186166338423"><ele>93.5</ele><time>2026-05-01T07:12:23Z</time></trkpt><trkpt lat="44.44529956553849" lon="11.408151227373382"><ele>93.25</ele><time>2026-05-01T07:12:25Z</time></trkpt><trkpt lat="44.44517567613145" lon="11.408108291621778"><ele>93.0</ele><time>2026-05-01T07:12:27Z</time></trkpt><trkpt lat="44.44505356405479" lon="11.408060585303138"><ele>93.0</ele><time>2026-05-01T07:12:29Z</time></trkpt><trkpt lat="44.444929908352655" lon="11.408019830745737"><ele>93.0</ele><time>2026-05-01T07:12:31Z</time></trkpt><trkpt lat="44.444804133383734" lon="11.40797948931751"><ele>93.0</ele><time>2026-05-01T07:12:33Z</time></trkpt><trkpt lat="44.444743033340494" lon="11.407958172739313"><ele>93.0</ele><time>2026-05-01T07:12:34Z</time></trkpt><trkpt lat="44.44468208533906" lon="11.407935767994095"><ele>93.0</ele><time>2026-05-01T07:12:35Z</time></trkpt><trkpt lat="44.44455897610717" lon="11.407894105270376"><ele>93.4</ele><time>2026-05-01T07:12:37Z</time></trkpt><trkpt lat="44.44449722020842" lon="11.407872267420641"><ele>93.80000000000001</ele><time>2026-05-01T07:12:38Z</time></trkpt><trkpt lat="44.44437565728026" lon="11.40782927223004"><ele>94.2</ele><time>2026-05-01T07:12:40Z</time></trkpt><trkpt lat="44.444251447238365" lon="11.407789321641168"><ele>94.6</ele><time>2026-05-01T07:12:42Z</time></trkpt><trkpt lat="44.44413062368443" lon="11.407743910261244"><ele>95.0</ele><time>2026-05-01T07:12:44Z</time></trkpt><trkpt lat="44.44406853106829" lon="11.407723989339644"><ele>95.0</ele><time>2026-05-01T07:12:45Z</time></trkpt><trkpt lat="44.444006732733264" lon="11.4077059624463"><ele>95.0</ele><time>2026-05-01T07:12:46Z</time></trkpt><trkpt lat="44.443944272121584" lon="11.407689357238542"><ele>95.0</ele><time>2026-05-01T07:12:47Z</time></trkpt><trkpt lat="44.443821735851884" lon="11.407649147385069"><ele>95.0</ele><time>2026-05-01T07:12:49Z</time></trkpt><trkpt lat="44.443757612377574" lon="11.407634309097881"><ele>95.0</ele><time>2026-05-01T07:12:50Z</time></trkpt><trkpt lat="44.4436928548331" lon="11.407614848451974"><ele>95.0</ele><time>2026-05-01T07:12:51Z</time></trkpt><trkpt lat="44.443629221475966" lon="11.407589349468582"><ele>94.42857142857143</ele><time>2026-05-01T07:12:52Z</time></trkpt><trkpt lat="44.44356781862077" lon="11.407564265107496"><ele>93.85714285714286</ele><time>2026-05-01T07:12:53Z</time></trkpt><trkpt lat="44.44350368439756" lon="11.407539631755164"><ele>93.28571428571428</ele><time>2026-05-01T07:12:54Z</time></trkpt><trkpt lat="44.4434384575622" lon="11.407520730304656"><ele>92.71428571428572</ele><time>2026-05-01T07:12:55Z</time></trkpt><trkpt lat="44.44337397989709" lon="11.407497471424628"><ele>92.14285714285714</ele><time>2026-05-01T07:12:56Z</time></trkpt><trkpt lat="44.4433102142718" lon="11.407470883819999"><ele>91.57142857142857</ele><time>2026-05-01T07:12:57Z</time></trkpt><trkpt lat="44.44324355895226" lon="11.407440666720564"><ele>91.0</ele><time>2026-05-01T07:12:57.999Z</time></trkpt><trkpt lat="44.44317734237915" lon="11.407412819992016"><ele>91.0</ele><time>2026-05-01T07:12:58.999Z</time></trkpt><trkpt lat="44.44310761195798" lon="11.407390661036157"><ele>91.0</ele><time>2026-05-01T07:12:59.999Z</time></trkpt><trkpt lat="44.443041107730664" lon="11.407364510865952"><ele>91.0</ele><time>2026-05-01T07:13:00.999Z</time></trkpt><trkpt lat="44.44297408978576" lon="11.40734522990613"><ele>91.0</ele><time>2026-05-01T07:13:01.999Z</time></trkpt><trkpt lat="44.4429063089237" lon="11.407321262658142"><ele>91.0</ele><time>2026-05-01T07:13:02.999Z</time></trkpt><trkpt lat="44.44284000966298" lon="11.407296209492387"><ele>91.0</ele><time>2026-05-01T07:13:03.999Z</time></trkpt><trkpt lat="44.442772118076135" lon="11.407274723220727"><ele>91.0</ele><time>2026-05-01T07:13:04.999Z</time></trkpt><trkpt lat="44.442708317151805" lon="11.407250740583772"><ele>90.66666666666666</ele><time>2026-05-01T07:13:05.999Z</time></trkpt><trkpt lat="44.44264298041036" lon="11.40722527720551"><ele>90.33333333333333</ele><time>2026-05-01T07:13:06.999Z</time></trkpt><trkpt lat="44.44257869552957" lon="11.40720275183939"><ele>90.0</ele><time>2026-05-01T07:13:07.999Z</time></trkpt><trkpt lat="44.44251173660291" lon="11.407182200738434"><ele>89.66666666666667</ele><time>2026-05-01T07:13:08.999Z</time></trkpt><trkpt lat="44.44238709793472" lon="11.407138515851589"><ele>89.33333333333334</ele><time>2026-05-01T07:13:10.999Z</time></trkpt><trkpt lat="44.44232495608129" lon="11.407114940944338"><ele>89.0</ele><time>2026-05-01T07:13:11.999Z</time></trkpt><trkpt lat="44.44220254861992" lon="11.407073563690547"><ele>89.14285714285714</ele><time>2026-05-01T07:13:13.999Z</time></trkpt><trkpt lat="44.44214076191664" lon="11.407052202080468"><ele>89.28571428571428</ele><time>2026-05-01T07:13:14.999Z</time></trkpt><trkpt lat="44.4420754097777" lon="11.40703009220239"><ele>89.42857142857142</ele><time>2026-05-01T07:13:15.999Z</time></trkpt><trkpt lat="44.442010255422616" lon="11.407011993854855"><ele>89.57142857142857</ele><time>2026-05-01T07:13:16.999Z</time></trkpt><trkpt lat="44.44194872001876" lon="11.406987510886225"><ele>89.71428571428572</ele><time>2026-05-01T07:13:17.999Z</time></trkpt><trkpt lat="44.44188322031776" lon="11.40696679913919"><ele>89.85714285714285</ele><time>2026-05-01T07:13:18.999Z</time></trkpt><trkpt lat="44.441819446322754" lon="11.406944711458825"><ele>90.0</ele><time>2026-05-01T07:13:19.999Z</time></trkpt><trkpt lat="44.44175864325619" lon="11.406920525334092"><ele>90.0</ele><time>2026-05-01T07:13:20.999Z</time></trkpt><trkpt lat="44.4416963964615" lon="11.406899696722899"><ele>90.0</ele><time>2026-05-01T07:13:21.999Z</time></trkpt><trkpt lat="44.44157512358624" lon="11.406858024908798"><ele>90.0</ele><time>2026-05-01T07:13:23.999Z</time></trkpt><trkpt lat="44.44151128439371" lon="11.406834813986045"><ele>90.0</ele><time>2026-05-01T07:13:24.999Z</time></trkpt><trkpt lat="44.441390343424494" lon="11.406791674120848"><ele>90.0</ele><time>2026-05-01T07:13:26.999Z</time></trkpt><trkpt lat="44.441325972497225" lon="11.406769361413073"><ele>90.0</ele><time>2026-05-01T07:13:27.999Z</time></trkpt><trkpt lat="44.44126030065437" lon="11.406744806085086"><ele>89.57142857142857</ele><time>2026-05-01T07:13:28.999Z</time></trkpt><trkpt lat="44.441196482103564" lon="11.406721446810996"><ele>89.14285714285715</ele><time>2026-05-01T07:13:29.999Z</time></trkpt><trkpt lat="44.441131092162536" lon="11.40669792426551"><ele>88.71428571428572</ele><time>2026-05-01T07:13:30.999Z</time></trkpt><trkpt lat="44.441066972478424" lon="11.406679229976582"><ele>88.28571428571428</ele><time>2026-05-01T07:13:31.999Z</time></trkpt><trkpt lat="44.441000927324275" lon="11.406655729002527"><ele>87.85714285714286</ele><time>2026-05-01T07:13:32.999Z</time></trkpt><trkpt lat="44.4409323538939" lon="11.40663516514227"><ele>87.42857142857143</ele><time>2026-05-01T07:13:33.999Z</time></trkpt><trkpt lat="44.440863490551514" lon="11.406631048812525"><ele>87.0</ele><time>2026-05-01T07:13:34.999Z</time></trkpt><trkpt lat="44.44079491534638" lon="11.406659085192745"><ele>87.0</ele><time>2026-05-01T07:13:35.999Z</time></trkpt><trkpt lat="44.440733144342055" lon="11.40671276985707"><ele>87.0</ele><time>2026-05-01T07:13:36.999Z</time></trkpt><trkpt lat="44.44068572232926" lon="11.406792124408552"><ele>87.0</ele><time>2026-05-01T07:13:37.999Z</time></trkpt><trkpt lat="44.44065027565264" lon="11.406882293763898"><ele>87.0</ele><time>2026-05-01T07:13:38.999Z</time></trkpt><trkpt lat="44.440621982458936" lon="11.406972353961416"><ele>87.0</ele><time>2026-05-01T07:13:39.999Z</time></trkpt><trkpt lat="44.44059395688085" lon="11.407066144183668"><ele>87.0</ele><time>2026-05-01T07:13:40.999Z</time></trkpt><trkpt lat="44.440564945543905" lon="11.40715826216422"><ele>87.0</ele><time>2026-05-01T07:13:41.999Z</time></trkpt><trkpt lat="44.44053292647576" lon="11.407248150918651"><ele>87.0</ele><time>2026-05-01T07:13:42.999Z</time></trkpt><trkpt lat="44.44050519276398" lon="11.407338976904558"><ele>87.0</ele><time>2026-05-01T07:13:43.999Z</time></trkpt><trkpt lat="44.440475732343906" lon="11.407430754627072"><ele>87.0</ele><time>2026-05-01T07:13:44.999Z</time></trkpt><trkpt lat="44.44044334377295" lon="11.407520217011168"><ele>87.0</ele><time>2026-05-01T07:13:45.999Z</time></trkpt><trkpt lat="44.440411031327" lon="11.407611077822823"><ele>87.0</ele><time>2026-05-01T07:13:46.999Z</time></trkpt><trkpt lat="44.44038097930849" lon="11.40769828585305"><ele>87.0</ele><time>2026-05-01T07:13:47.999Z</time></trkpt><trkpt lat="44.44035152416897" lon="11.407791173342991"><ele>87.0</ele><time>2026-05-01T07:13:49Z</time></trkpt><trkpt lat="44.440321650861" lon="11.407884373063736"><ele>87.0</ele><time>2026-05-01T07:13:50Z</time></trkpt><trkpt lat="44.44029151302257" lon="11.407972864850501"><ele>87.0</ele><time>2026-05-01T07:13:51Z</time></trkpt><trkpt lat="44.440261612239574" lon="11.408062195665632"><ele>87.0</ele><time>2026-05-01T07:13:52Z</time></trkpt><trkpt lat="44.440229774544896" lon="11.408151594151896"><ele>87.0</ele><time>2026-05-01T07:13:53Z</time></trkpt><trkpt lat="44.44019741961991" lon="11.408242694044178"><ele>87.0</ele><time>2026-05-01T07:13:54Z</time></trkpt><trkpt lat="44.440167199133896" lon="11.408336020264374"><ele>87.0</ele><time>2026-05-01T07:13:55Z</time></trkpt><trkpt lat="44.44013244898148" lon="11.40842147761158"><ele>87.0</ele><time>2026-05-01T07:13:56Z</time></trkpt><trkpt lat="44.44008916111586" lon="11.408501560030905"><ele>87.0</ele><time>2026-05-01T07:13:57Z</time></trkpt><trkpt lat="44.44003278866199" lon="11.408563068094201"><ele>87.0</ele><time>2026-05-01T07:13:58Z</time></trkpt><trkpt lat="44.439962971822816" lon="11.40860845558901"><ele>87.0</ele><time>2026-05-01T07:13:59Z</time></trkpt><trkpt lat="44.43988934147171" lon="11.40862766398331"><ele>87.0</ele><time>2026-05-01T07:14:00Z</time></trkpt><trkpt lat="44.43981483142911" lon="11.408629742883189"><ele>87.0</ele><time>2026-05-01T07:14:01Z</time></trkpt><trkpt lat="44.439739186117095" lon="11.408627662447433"><ele>87.0</ele><time>2026-05-01T07:14:02Z</time></trkpt><trkpt lat="44.43966294677025" lon="11.408619736545145"><ele>86.57142857142857</ele><time>2026-05-01T07:14:03Z</time></trkpt><trkpt lat="44.43959060081906" lon="11.408612321073214"><ele>86.14285714285714</ele><time>2026-05-01T07:14:04Z</time></trkpt><trkpt lat="44.43951658260394" lon="11.408605356675238"><ele>85.71428571428572</ele><time>2026-05-01T07:14:05Z</time></trkpt><trkpt lat="44.439440452926746" lon="11.408597059906118"><ele>85.28571428571428</ele><time>2026-05-01T07:14:06Z</time></trkpt><trkpt lat="44.439366463599" lon="11.408589087962856"><ele>84.85714285714286</ele><time>2026-05-01T07:14:07Z</time></trkpt><trkpt lat="44.43929154945461" lon="11.40857312791129"><ele>84.42857142857143</ele><time>2026-05-01T07:14:08Z</time></trkpt><trkpt lat="44.439219391396215" lon="11.408559553795154"><ele>84.0</ele><time>2026-05-01T07:14:09Z</time></trkpt><trkpt lat="44.43914434975737" lon="11.40854914773339"><ele>84.0</ele><time>2026-05-01T07:14:10Z</time></trkpt><trkpt lat="44.43906908816576" lon="11.408536172709274"><ele>84.0</ele><time>2026-05-01T07:14:11Z</time></trkpt><trkpt lat="44.43899540136498" lon="11.408520715972847"><ele>84.0</ele><time>2026-05-01T07:14:12Z</time></trkpt><trkpt lat="44.43892240244015" lon="11.408503624292921"><ele>84.0</ele><time>2026-05-01T07:14:13Z</time></trkpt><trkpt lat="44.43884971814587" lon="11.408488432163615"><ele>84.0</ele><time>2026-05-01T07:14:14Z</time></trkpt><trkpt lat="44.438776623586044" lon="11.408468124704212"><ele>84.0</ele><time>2026-05-01T07:14:15Z</time></trkpt><trkpt lat="44.438703016407935" lon="11.408449773545456"><ele>84.0</ele><time>2026-05-01T07:14:16Z</time></trkpt><trkpt lat="44.4386315659818" lon="11.40842966068952"><ele>83.85714285714286</ele><time>2026-05-01T07:14:17Z</time></trkpt><trkpt lat="44.43855913274719" lon="11.408414405862908"><ele>83.71428571428572</ele><time>2026-05-01T07:14:18Z</time></trkpt><trkpt lat="44.43848752424424" lon="11.408396962006137"><ele>83.57142857142857</ele><time>2026-05-01T07:14:19Z</time></trkpt><trkpt lat="44.43841540413236" lon="11.408373700611858"><ele>83.42857142857143</ele><time>2026-05-01T07:14:20Z</time></trkpt><trkpt lat="44.43834268864079" lon="11.408354592771714"><ele>83.28571428571429</ele><time>2026-05-01T07:14:21Z</time></trkpt><trkpt lat="44.43827254407245" lon="11.408336782915212"><ele>83.14285714285714</ele><time>2026-05-01T07:14:22Z</time></trkpt><trkpt lat="44.438203875843286" lon="11.408314902708831"><ele>83.0</ele><time>2026-05-01T07:14:23Z</time></trkpt><trkpt lat="44.438130525250116" lon="11.408294844158656"><ele>83.0</ele><time>2026-05-01T07:14:24Z</time></trkpt><trkpt lat="44.43805961138354" lon="11.408276828961256"><ele>83.0</ele><time>2026-05-01T07:14:25Z</time></trkpt><trkpt lat="44.437987395797386" lon="11.40825845776379"><ele>83.0</ele><time>2026-05-01T07:14:26Z</time></trkpt><trkpt lat="44.437915048660265" lon="11.408235003852436"><ele>83.0</ele><time>2026-05-01T07:14:27Z</time></trkpt><trkpt lat="44.437846252941426" lon="11.408209825104356"><ele>83.0</ele><time>2026-05-01T07:14:28Z</time></trkpt><trkpt lat="44.437776157188516" lon="11.408180640705117"><ele>83.0</ele><time>2026-05-01T07:14:29Z</time></trkpt><trkpt lat="44.43770375955556" lon="11.408152024934065"><ele>83.0</ele><time>2026-05-01T07:14:30Z</time></trkpt><trkpt lat="44.43763267141783" lon="11.408129419021256"><ele>83.0</ele><time>2026-05-01T07:14:31Z</time></trkpt><trkpt lat="44.437561634473035" lon="11.408100949354955"><ele>83.0</ele><time>2026-05-01T07:14:32Z</time></trkpt><trkpt lat="44.43748991304844" lon="11.408074228847214"><ele>83.0</ele><time>2026-05-01T07:14:33Z</time></trkpt><trkpt lat="44.43742090607859" lon="11.408040945333179"><ele>83.0</ele><time>2026-05-01T07:14:34Z</time></trkpt><trkpt lat="44.43734821960219" lon="11.408007968696461"><ele>83.0</ele><time>2026-05-01T07:14:35Z</time></trkpt><trkpt lat="44.437275852950734" lon="11.407970288756635"><ele>83.0</ele><time>2026-05-01T07:14:36Z</time></trkpt><trkpt lat="44.43720195300409" lon="11.407927608821193"><ele>82.5</ele><time>2026-05-01T07:14:37Z</time></trkpt><trkpt lat="44.437128261089384" lon="11.407892262735638"><ele>82.0</ele><time>2026-05-01T07:14:38Z</time></trkpt><trkpt lat="44.43705469873146" lon="11.40785083406878"><ele>81.5</ele><time>2026-05-01T07:14:39Z</time></trkpt><trkpt lat="44.43698233675272" lon="11.40781186817534"><ele>81.0</ele><time>2026-05-01T07:14:40Z</time></trkpt><trkpt lat="44.43691262680051" lon="11.40776062050779"><ele>80.5</ele><time>2026-05-01T07:14:41Z</time></trkpt><trkpt lat="44.436842725344626" lon="11.407711375003702"><ele>80.0</ele><time>2026-05-01T07:14:42Z</time></trkpt><trkpt lat="44.43677808039616" lon="11.407660194700526"><ele>80.0</ele><time>2026-05-01T07:14:43Z</time></trkpt><trkpt lat="44.436708176569304" lon="11.407604979936089"><ele>80.0</ele><time>2026-05-01T07:14:44Z</time></trkpt><trkpt lat="44.43664327611922" lon="11.407548141457513"><ele>80.0</ele><time>2026-05-01T07:14:45Z</time></trkpt><trkpt lat="44.436584510667515" lon="11.40747866745544"><ele>80.0</ele><time>2026-05-01T07:14:46Z</time></trkpt><trkpt lat="44.43653046964383" lon="11.407409898059914"><ele>80.0</ele><time>2026-05-01T07:14:47Z</time></trkpt><trkpt lat="44.43647596650443" lon="11.407346616860723"><ele>80.0</ele><time>2026-05-01T07:14:48Z</time></trkpt><trkpt lat="44.43642418974773" lon="11.40728272255103"><ele>80.0</ele><time>2026-05-01T07:14:49Z</time></trkpt><trkpt lat="44.43637692430557" lon="11.40721514842186"><ele>80.2</ele><time>2026-05-01T07:14:50Z</time></trkpt><trkpt lat="44.436327918834735" lon="11.40714785523204"><ele>80.4</ele><time>2026-05-01T07:14:51Z</time></trkpt><trkpt lat="44.43627808711091" lon="11.407084531804427"><ele>80.6</ele><time>2026-05-01T07:14:52Z</time></trkpt><trkpt lat="44.436189758196875" lon="11.406956054540736"><ele>80.8</ele><time>2026-05-01T07:14:54Z</time></trkpt><trkpt lat="44.43610733142606" lon="11.406830441514906"><ele>81.0</ele><time>2026-05-01T07:14:56Z</time></trkpt><trkpt lat="44.43602597932328" lon="11.40671026090185"><ele>81.5</ele><time>2026-05-01T07:14:58Z</time></trkpt><trkpt lat="44.43594240551993" lon="11.406584963113659"><ele>82.0</ele><time>2026-05-01T07:15:00Z</time></trkpt><trkpt lat="44.43586750573162" lon="11.406447018063236"><ele>82.5</ele><time>2026-05-01T07:15:01.999Z</time></trkpt><trkpt lat="44.43578708437621" lon="11.406323792686457"><ele>83.0</ele><time>2026-05-01T07:15:03.999Z</time></trkpt><trkpt lat="44.435700811616414" lon="11.406206610833973"><ele>83.4</ele><time>2026-05-01T07:15:05.999Z</time></trkpt><trkpt lat="44.435627369199345" lon="11.406088339391465"><ele>83.80000000000001</ele><time>2026-05-01T07:15:07.999Z</time></trkpt><trkpt lat="44.43555943589955" lon="11.405976016201478"><ele>84.2</ele><time>2026-05-01T07:15:09.999Z</time></trkpt><trkpt lat="44.4354915034657" lon="11.405868747844815"><ele>84.6</ele><time>2026-05-01T07:15:11.999Z</time></trkpt><trkpt lat="44.43541852620552" lon="11.405777222267098"><ele>85.0</ele><time>2026-05-01T07:15:13.999Z</time></trkpt><trkpt lat="44.43533959784406" lon="11.405694743142412"><ele>85.8</ele><time>2026-05-01T07:15:15.999Z</time></trkpt><trkpt lat="44.43526267040664" lon="11.405618208645862"><ele>86.6</ele><time>2026-05-01T07:15:17.999Z</time></trkpt><trkpt lat="44.435173333542245" lon="11.405550799178672"><ele>87.4</ele><time>2026-05-01T07:15:19.999Z</time></trkpt><trkpt lat="44.43509593096431" lon="11.40549449363507"><ele>88.2</ele><time>2026-05-01T07:15:21.999Z</time></trkpt><trkpt lat="44.43500362471603" lon="11.405446704427467"><ele>89.0</ele><time>2026-05-01T07:15:23.999Z</time></trkpt><trkpt lat="44.434923156350976" lon="11.405403152387974"><ele>89.0</ele><time>2026-05-01T07:15:25.999Z</time></trkpt><trkpt lat="44.43483182538042" lon="11.405370498507642"><ele>89.0</ele><time>2026-05-01T07:15:27.999Z</time></trkpt><trkpt lat="44.43474637693422" lon="11.405317884376664"><ele>89.0</ele><time>2026-05-01T07:15:29.999Z</time></trkpt><trkpt lat="44.43466098520194" lon="11.40527176920058"><ele>89.0</ele><time>2026-05-01T07:15:31.999Z</time></trkpt><trkpt lat="44.434575633906626" lon="11.40522594326401"><ele>89.0</ele><time>2026-05-01T07:15:33.999Z</time></trkpt><trkpt lat="44.43449433013768" lon="11.405176967455077"><ele>90.2</ele><time>2026-05-01T07:15:35.999Z</time></trkpt><trkpt lat="44.43441155064874" lon="11.405130966224522"><ele>91.4</ele><time>2026-05-01T07:15:37.999Z</time></trkpt><trkpt lat="44.43432681032775" lon="11.405081530730271"><ele>92.6</ele><time>2026-05-01T07:15:39.999Z</time></trkpt><trkpt lat="44.43423779543168" lon="11.40501758314545"><ele>93.8</ele><time>2026-05-01T07:15:41.999Z</time></trkpt><trkpt lat="44.434156344662334" lon="11.404954876629983"><ele>95.0</ele><time>2026-05-01T07:15:43.999Z</time></trkpt><trkpt lat="44.4340771502178" lon="11.404882063861672"><ele>95.0</ele><time>2026-05-01T07:15:45.999Z</time></trkpt><trkpt lat="44.43399632296401" lon="11.404805965471981"><ele>95.0</ele><time>2026-05-01T07:15:47.999Z</time></trkpt><trkpt lat="44.43391839908758" lon="11.404736292421074"><ele>95.0</ele><time>2026-05-01T07:15:49.999Z</time></trkpt><trkpt lat="44.43383547933279" lon="11.404669511701757"><ele>95.0</ele><time>2026-05-01T07:15:51.999Z</time></trkpt><trkpt lat="44.43375282416411" lon="11.404600027497091"><ele>95.0</ele><time>2026-05-01T07:15:53.999Z</time></trkpt><trkpt lat="44.43367628567978" lon="11.404525132379248"><ele>95.6</ele><time>2026-05-01T07:15:56Z</time></trkpt><trkpt lat="44.43359827184353" lon="11.404447448791498"><ele>96.2</ele><time>2026-05-01T07:15:58Z</time></trkpt><trkpt lat="44.43351979630231" lon="11.404376668046238"><ele>96.80000000000001</ele><time>2026-05-01T07:16:00Z</time></trkpt><trkpt lat="44.433436903425495" lon="11.40429525025326"><ele>97.4</ele><time>2026-05-01T07:16:02Z</time></trkpt><trkpt lat="44.43334666518831" lon="11.404211347880826"><ele>98.0</ele><time>2026-05-01T07:16:04Z</time></trkpt><trkpt lat="44.43325341034721" lon="11.404127472822637"><ele>98.0</ele><time>2026-05-01T07:16:06Z</time></trkpt><trkpt lat="44.433167558168165" lon="11.404044636261387"><ele>98.0</ele><time>2026-05-01T07:16:08Z</time></trkpt><trkpt lat="44.433077347871" lon="11.403959924135641"><ele>98.0</ele><time>2026-05-01T07:16:10Z</time></trkpt><trkpt lat="44.43299632266614" lon="11.403874688194483"><ele>98.0</ele><time>2026-05-01T07:16:12Z</time></trkpt><trkpt lat="44.43291884621681" lon="11.403810103882238"><ele>98.0</ele><time>2026-05-01T07:16:14Z</time></trkpt><trkpt lat="44.43283108580434" lon="11.40373646823646"><ele>96.60000000000001</ele><time>2026-05-01T07:16:16Z</time></trkpt><trkpt lat="44.43274864980254" lon="11.403671407114938"><ele>95.2</ele><time>2026-05-01T07:16:18Z</time></trkpt><trkpt lat="44.432653673246534" lon="11.403595194822586"><ele>93.8</ele><time>2026-05-01T07:16:20Z</time></trkpt><trkpt lat="44.4325691759027" lon="11.403521044748087"><ele>92.4</ele><time>2026-05-01T07:16:22Z</time></trkpt><trkpt lat="44.432479399373754" lon="11.403445443186639"><ele>91.0</ele><time>2026-05-01T07:16:24Z</time></trkpt><trkpt lat="44.43239584251441" lon="11.403362949615694"><ele>91.0</ele><time>2026-05-01T07:16:26Z</time></trkpt><trkpt lat="44.43231258883704" lon="11.40326768117874"><ele>91.0</ele><time>2026-05-01T07:16:28Z</time></trkpt><trkpt lat="44.43222784557093" lon="11.403159577344258"><ele>91.0</ele><time>2026-05-01T07:16:30Z</time></trkpt><trkpt lat="44.43214701261774" lon="11.403039091682285"><ele>91.0</ele><time>2026-05-01T07:16:32Z</time></trkpt><trkpt lat="44.432068157743466" lon="11.402924779622946"><ele>91.25</ele><time>2026-05-01T07:16:34Z</time></trkpt><trkpt lat="44.43198430471784" lon="11.402818397934473"><ele>91.5</ele><time>2026-05-01T07:16:36Z</time></trkpt><trkpt lat="44.43189605684723" lon="11.402719448008927"><ele>91.75</ele><time>2026-05-01T07:16:38Z</time></trkpt><trkpt lat="44.43180529664795" lon="11.402619504069529"><ele>92.0</ele><time>2026-05-01T07:16:40Z</time></trkpt><trkpt lat="44.43171198417651" lon="11.402531888532328"><ele>92.0</ele><time>2026-05-01T07:16:42Z</time></trkpt><trkpt lat="44.43161830563436" lon="11.402445538998037"><ele>92.0</ele><time>2026-05-01T07:16:44Z</time></trkpt><trkpt lat="44.43153162483378" lon="11.402367144704542"><ele>92.0</ele><time>2026-05-01T07:16:46Z</time></trkpt><trkpt lat="44.431442854874575" lon="11.40229068799502"><ele>92.0</ele><time>2026-05-01T07:16:48Z</time></trkpt><trkpt lat="44.43134659653979" lon="11.40221492826367"><ele>92.0</ele><time>2026-05-01T07:16:50Z</time></trkpt><trkpt lat="44.43125554572868" lon="11.40215378137843"><ele>91.75</ele><time>2026-05-01T07:16:52Z</time></trkpt><trkpt lat="44.431149511855324" lon="11.402075461463154"><ele>91.5</ele><time>2026-05-01T07:16:54Z</time></trkpt><trkpt lat="44.4310460287042" lon="11.402000894998212"><ele>91.25</ele><time>2026-05-01T07:16:56Z</time></trkpt><trkpt lat="44.430937531097534" lon="11.401924999202887"><ele>91.0</ele><time>2026-05-01T07:16:58Z</time></trkpt><trkpt lat="44.43083000839087" lon="11.401849763974207"><ele>91.0</ele><time>2026-05-01T07:17:00Z</time></trkpt><trkpt lat="44.43077353975588" lon="11.401808135404277"><ele>91.0</ele><time>2026-05-01T07:17:01Z</time></trkpt><trkpt lat="44.43066811251437" lon="11.401724200532593"><ele>91.0</ele><time>2026-05-01T07:17:03Z</time></trkpt><trkpt lat="44.430560055600566" lon="11.401643539818384"><ele>91.0</ele><time>2026-05-01T07:17:05Z</time></trkpt><trkpt lat="44.43045912077148" lon="11.401552831135406"><ele>91.0</ele><time>2026-05-01T07:17:07Z</time></trkpt><trkpt lat="44.430353552154465" lon="11.401467463407029"><ele>90.75</ele><time>2026-05-01T07:17:09Z</time></trkpt><trkpt lat="44.43024892624736" lon="11.401378664013734"><ele>90.5</ele><time>2026-05-01T07:17:11Z</time></trkpt><trkpt lat="44.43014559904539" lon="11.401288017669907"><ele>90.25</ele><time>2026-05-01T07:17:13Z</time></trkpt><trkpt lat="44.430041519615706" lon="11.401196616067734"><ele>90.0</ele><time>2026-05-01T07:17:14.999Z</time></trkpt><trkpt lat="44.429941188870124" lon="11.401105513103563"><ele>90.0</ele><time>2026-05-01T07:17:16.999Z</time></trkpt><trkpt lat="44.42983802614876" lon="11.401016882087522"><ele>90.0</ele><time>2026-05-01T07:17:18.999Z</time></trkpt><trkpt lat="44.42973668635492" lon="11.40093164565705"><ele>90.0</ele><time>2026-05-01T07:17:20.999Z</time></trkpt><trkpt lat="44.429636755618205" lon="11.400835275557437"><ele>90.0</ele><time>2026-05-01T07:17:22.999Z</time></trkpt><trkpt lat="44.42954019454713" lon="11.40074618106504"><ele>90.2</ele><time>2026-05-01T07:17:24.999Z</time></trkpt><trkpt lat="44.42948797933524" lon="11.40069635686463"><ele>90.4</ele><time>2026-05-01T07:17:25.999Z</time></trkpt><trkpt lat="44.42938639025346" lon="11.400603836516039"><ele>90.6</ele><time>2026-05-01T07:17:27.999Z</time></trkpt><trkpt lat="44.42928420285847" lon="11.400510015273946"><ele>90.8</ele><time>2026-05-01T07:17:29.999Z</time></trkpt><trkpt lat="44.42918243337022" lon="11.40041364230739"><ele>91.0</ele><time>2026-05-01T07:17:31.999Z</time></trkpt><trkpt lat="44.42907601436018" lon="11.400324093805004"><ele>91.0</ele><time>2026-05-01T07:17:33.999Z</time></trkpt><trkpt lat="44.42897151799059" lon="11.400235062994076"><ele>91.0</ele><time>2026-05-01T07:17:35.999Z</time></trkpt><trkpt lat="44.42891747716507" lon="11.400188339078836"><ele>91.0</ele><time>2026-05-01T07:17:36.999Z</time></trkpt><trkpt lat="44.42881328230378" lon="11.400104037372383"><ele>91.0</ele><time>2026-05-01T07:17:38.999Z</time></trkpt><trkpt lat="44.428704722312084" lon="11.400021549114992"><ele>91.0</ele><time>2026-05-01T07:17:40.999Z</time></trkpt><trkpt lat="44.428597412631106" lon="11.399950537549516"><ele>91.25</ele><time>2026-05-01T07:17:42.999Z</time></trkpt><trkpt lat="44.42849102368214" lon="11.399894143472771"><ele>91.5</ele><time>2026-05-01T07:17:44.999Z</time></trkpt><trkpt lat="44.428376732734414" lon="11.39984512962456"><ele>91.75</ele><time>2026-05-01T07:17:46.999Z</time></trkpt><trkpt lat="44.42827075947292" lon="11.399798691918914"><ele>92.0</ele><time>2026-05-01T07:17:48.999Z</time></trkpt><trkpt lat="44.42816573472555" lon="11.399753547211755"><ele>92.0</ele><time>2026-05-01T07:17:50.999Z</time></trkpt><trkpt lat="44.42806220786009" lon="11.399708505093002"><ele>92.0</ele><time>2026-05-01T07:17:52.999Z</time></trkpt><trkpt lat="44.427960655128565" lon="11.39966512044352"><ele>92.0</ele><time>2026-05-01T07:17:54.999Z</time></trkpt><trkpt lat="44.42786449266409" lon="11.399617028742991"><ele>92.0</ele><time>2026-05-01T07:17:56.999Z</time></trkpt><trkpt lat="44.427767004696" lon="11.399565589610285"><ele>92.0</ele><time>2026-05-01T07:17:58.999Z</time></trkpt><trkpt lat="44.427674439976016" lon="11.399510633320924"><ele>91.8</ele><time>2026-05-01T07:18:01Z</time></trkpt><trkpt lat="44.427584061523994" lon="11.399454230766407"><ele>91.6</ele><time>2026-05-01T07:18:03Z</time></trkpt><trkpt lat="44.427480114835575" lon="11.39938729143081"><ele>91.39999999999999</ele><time>2026-05-01T07:18:05Z</time></trkpt><trkpt lat="44.42737653548983" lon="11.399324150013172"><ele>91.19999999999999</ele><time>2026-05-01T07:18:07Z</time></trkpt><trkpt lat="44.42726114243873" lon="11.399294864473907"><ele>91.0</ele><time>2026-05-01T07:18:09Z</time></trkpt><trkpt lat="44.427149724544584" lon="11.399377983102045"><ele>91.14285714285714</ele><time>2026-05-01T07:18:11Z</time></trkpt><trkpt lat="44.42710746190497" lon="11.399454879794183"><ele>91.28571428571428</ele><time>2026-05-01T07:18:12Z</time></trkpt><trkpt lat="44.42707894745436" lon="11.399542455186667"><ele>91.42857142857143</ele><time>2026-05-01T07:18:13Z</time></trkpt><trkpt lat="44.42705396533793" lon="11.399628724491459"><ele>91.57142857142857</ele><time>2026-05-01T07:18:14Z</time></trkpt><trkpt lat="44.42702699190795" lon="11.399713132968687"><ele>91.71428571428571</ele><time>2026-05-01T07:18:15Z</time></trkpt><trkpt lat="44.42699506803602" lon="11.399795478775067"><ele>91.85714285714286</ele><time>2026-05-01T07:18:16Z</time></trkpt><trkpt lat="44.42695660941651" lon="11.39988060506932"><ele>92.0</ele><time>2026-05-01T07:18:17Z</time></trkpt><trkpt lat="44.42691794464887" lon="11.399960304403399"><ele>92.0</ele><time>2026-05-01T07:18:18Z</time></trkpt><trkpt lat="44.42687845393937" lon="11.400040561850233"><ele>92.0</ele><time>2026-05-01T07:18:19Z</time></trkpt><trkpt lat="44.426835476602584" lon="11.400110847800933"><ele>92.0</ele><time>2026-05-01T07:18:20Z</time></trkpt><trkpt lat="44.426748654044786" lon="11.400244892605832"><ele>92.0</ele><time>2026-05-01T07:18:22Z</time></trkpt><trkpt lat="44.42670244783738" lon="11.400308826528136"><ele>92.0</ele><time>2026-05-01T07:18:23Z</time></trkpt><trkpt lat="44.426647755669755" lon="11.400366858266855"><ele>92.0</ele><time>2026-05-01T07:18:24Z</time></trkpt><trkpt lat="44.426594250127266" lon="11.400424276908254"><ele>92.0</ele><time>2026-05-01T07:18:25Z</time></trkpt><trkpt lat="44.42653829822265" lon="11.400474894627772"><ele>92.0</ele><time>2026-05-01T07:18:26Z</time></trkpt><trkpt lat="44.42648458276586" lon="11.400522143979511"><ele>92.0</ele><time>2026-05-01T07:18:27Z</time></trkpt><trkpt lat="44.426428123073144" lon="11.400566126730522"><ele>92.0</ele><time>2026-05-01T07:18:28Z</time></trkpt><trkpt lat="44.42637240921054" lon="11.400608526087195"><ele>92.0</ele><time>2026-05-01T07:18:29Z</time></trkpt><trkpt lat="44.426313903664045" lon="11.400651115391831"><ele>92.0</ele><time>2026-05-01T07:18:30Z</time></trkpt><trkpt lat="44.4262543487355" lon="11.400684017097792"><ele>92.0</ele><time>2026-05-01T07:18:31Z</time></trkpt><trkpt lat="44.42613917379584" lon="11.400746027939382"><ele>91.75</ele><time>2026-05-01T07:18:33Z</time></trkpt><trkpt lat="44.42602425882555" lon="11.400793630583037"><ele>91.5</ele><time>2026-05-01T07:18:35Z</time></trkpt><trkpt lat="44.42590518400114" lon="11.400821266128101"><ele>91.25</ele><time>2026-05-01T07:18:37Z</time></trkpt><trkpt lat="44.42578681695991" lon="11.400832408623492"><ele>91.0</ele><time>2026-05-01T07:18:39Z</time></trkpt><trkpt lat="44.42566793986625" lon="11.400829551379918"><ele>91.0</ele><time>2026-05-01T07:18:41Z</time></trkpt><trkpt lat="44.425553071561815" lon="11.400813361009016"><ele>91.0</ele><time>2026-05-01T07:18:43Z</time></trkpt><trkpt lat="44.425442294930434" lon="11.400781225327318"><ele>91.0</ele><time>2026-05-01T07:18:45Z</time></trkpt><trkpt lat="44.42533770881395" lon="11.400747106812132"><ele>91.0</ele><time>2026-05-01T07:18:47Z</time></trkpt><trkpt lat="44.42523358539324" lon="11.400707286456662"><ele>91.0</ele><time>2026-05-01T07:18:49Z</time></trkpt><trkpt lat="44.42512543286776" lon="11.400674903469413"><ele>91.19999999999999</ele><time>2026-05-01T07:18:51Z</time></trkpt><trkpt lat="44.42502826697687" lon="11.400632317335802"><ele>91.39999999999999</ele><time>2026-05-01T07:18:53Z</time></trkpt><trkpt lat="44.42492421093822" lon="11.400597713081313"><ele>91.6</ele><time>2026-05-01T07:18:55Z</time></trkpt><trkpt lat="44.42482539136731" lon="11.400561268509854"><ele>91.8</ele><time>2026-05-01T07:18:57Z</time></trkpt><trkpt lat="44.424722866121314" lon="11.400521178549333"><ele>92.0</ele><time>2026-05-01T07:18:59Z</time></trkpt><trkpt lat="44.42462331544682" lon="11.400491002116617"><ele>92.0</ele><time>2026-05-01T07:19:01Z</time></trkpt><trkpt lat="44.424527605772816" lon="11.400458787679707"><ele>92.0</ele><time>2026-05-01T07:19:03Z</time></trkpt><trkpt lat="44.424428995729805" lon="11.400420971082779"><ele>92.0</ele><time>2026-05-01T07:19:05Z</time></trkpt><trkpt lat="44.424334182451325" lon="11.400388535091418"><ele>92.0</ele><time>2026-05-01T07:19:07Z</time></trkpt><trkpt lat="44.42423432105227" lon="11.400342134755572"><ele>92.0</ele><time>2026-05-01T07:19:09Z</time></trkpt><trkpt lat="44.42413787618394" lon="11.40028890174043"><ele>92.0</ele><time>2026-05-01T07:19:11Z</time></trkpt><trkpt lat="44.424046511855664" lon="11.400243676055322"><ele>92.0</ele><time>2026-05-01T07:19:13Z</time></trkpt><trkpt lat="44.423952174954536" lon="11.400173511367495"><ele>92.0</ele><time>2026-05-01T07:19:15Z</time></trkpt><trkpt lat="44.423859974092174" lon="11.400107051955999"><ele>92.0</ele><time>2026-05-01T07:19:16.999Z</time></trkpt><trkpt lat="44.423772837729096" lon="11.400032140247921"><ele>92.0</ele><time>2026-05-01T07:19:18.999Z</time></trkpt><trkpt lat="44.42368863666054" lon="11.399957189805239"><ele>92.6</ele><time>2026-05-01T07:19:20.999Z</time></trkpt><trkpt lat="44.423605944002524" lon="11.39988061504236"><ele>93.19999999999999</ele><time>2026-05-01T07:19:22.999Z</time></trkpt><trkpt lat="44.42351518440055" lon="11.399796055603844"><ele>93.8</ele><time>2026-05-01T07:19:24.999Z</time></trkpt><trkpt lat="44.42342575335291" lon="11.39971160422338"><ele>94.4</ele><time>2026-05-01T07:19:26.999Z</time></trkpt><trkpt lat="44.423335201267555" lon="11.39962719082796"><ele>95.0</ele><time>2026-05-01T07:19:28.999Z</time></trkpt><trkpt lat="44.42324456434248" lon="11.39953919004685"><ele>95.0</ele><time>2026-05-01T07:19:30.999Z</time></trkpt><trkpt lat="44.423154833366084" lon="11.399450702246547"><ele>95.0</ele><time>2026-05-01T07:19:32.999Z</time></trkpt><trkpt lat="44.42306401495623" lon="11.399355611395206"><ele>95.0</ele><time>2026-05-01T07:19:34.999Z</time></trkpt><trkpt lat="44.42298713754538" lon="11.399244271677642"><ele>95.0</ele><time>2026-05-01T07:19:36.999Z</time></trkpt><trkpt lat="44.42292059140546" lon="11.399115669018453"><ele>95.0</ele><time>2026-05-01T07:19:38.999Z</time></trkpt><trkpt lat="44.422869998436056" lon="11.398982865821836"><ele>95.4</ele><time>2026-05-01T07:19:40.999Z</time></trkpt><trkpt lat="44.42282967964179" lon="11.398839609190716"><ele>95.8</ele><time>2026-05-01T07:19:42.999Z</time></trkpt><trkpt lat="44.42279303118228" lon="11.39870290440587"><ele>96.19999999999999</ele><time>2026-05-01T07:19:44.999Z</time></trkpt><trkpt lat="44.42275965318081" lon="11.398558463038865"><ele>96.6</ele><time>2026-05-01T07:19:46.999Z</time></trkpt><trkpt lat="44.42272805222002" lon="11.398416009353674"><ele>97.0</ele><time>2026-05-01T07:19:48.999Z</time></trkpt><trkpt lat="44.42270500911844" lon="11.398277338110313"><ele>97.50000000000001</ele><time>2026-05-01T07:19:50.999Z</time></trkpt><trkpt lat="44.4226819222125" lon="11.398151827422623"><ele>98.0</ele><time>2026-05-01T07:19:52.999Z</time></trkpt><trkpt lat="44.42266254186282" lon="11.398024930759938"><ele>98.5</ele><time>2026-05-01T07:19:54.999Z</time></trkpt><trkpt lat="44.42263124645869" lon="11.397906813958947"><ele>99.0</ele><time>2026-05-01T07:19:56.999Z</time></trkpt><trkpt lat="44.42261732274807" lon="11.397805495040489"><ele>99.50000000000001</ele><time>2026-05-01T07:19:58.999Z</time></trkpt><trkpt lat="44.422593161121995" lon="11.397704146617935"><ele>100.0</ele><time>2026-05-01T07:20:00.999Z</time></trkpt><trkpt lat="44.422575722722335" lon="11.397608207724911"><ele>100.14285714285715</ele><time>2026-05-01T07:20:02.999Z</time></trkpt><trkpt lat="44.42255582454093" lon="11.397514593331008"><ele>100.28571428571429</ele><time>2026-05-01T07:20:04.999Z</time></trkpt><trkpt lat="44.42253584022717" lon="11.397419781114953"><ele>100.42857142857143</ele><time>2026-05-01T07:20:07Z</time></trkpt><trkpt lat="44.42251722476893" lon="11.39732539820936"><ele>100.57142857142858</ele><time>2026-05-01T07:20:09Z</time></trkpt><trkpt lat="44.4224904706254" lon="11.397227172154128"><ele>100.71428571428571</ele><time>2026-05-01T07:20:11Z</time></trkpt><trkpt lat="44.422447361016225" lon="11.397134674518512"><ele>100.85714285714286</ele><time>2026-05-01T07:20:13Z</time></trkpt><trkpt lat="44.422407236736895" lon="11.397039450054034"><ele>101.0</ele><time>2026-05-01T07:20:15Z</time></trkpt><trkpt lat="44.422369341776836" lon="11.396932806677695"><ele>101.0</ele><time>2026-05-01T07:20:17Z</time></trkpt><trkpt lat="44.42232490240039" lon="11.3968238819656"><ele>101.0</ele><time>2026-05-01T07:20:19Z</time></trkpt><trkpt lat="44.4222684287784" lon="11.396710079288583"><ele>101.0</ele><time>2026-05-01T07:20:21Z</time></trkpt><trkpt lat="44.42219930873919" lon="11.396608167116542"><ele>101.0</ele><time>2026-05-01T07:20:23Z</time></trkpt><trkpt lat="44.42212863861003" lon="11.39650357616533"><ele>101.0</ele><time>2026-05-01T07:20:25Z</time></trkpt><trkpt lat="44.42205143993135" lon="11.39640570277767"><ele>102.75</ele><time>2026-05-01T07:20:27Z</time></trkpt><trkpt lat="44.42196645662019" lon="11.396313094239042"><ele>104.5</ele><time>2026-05-01T07:20:29Z</time></trkpt><trkpt lat="44.421876731264014" lon="11.396211542176019"><ele>106.25</ele><time>2026-05-01T07:20:31Z</time></trkpt><trkpt lat="44.42178341756036" lon="11.396122408079231"><ele>108.0</ele><time>2026-05-01T07:20:33Z</time></trkpt><trkpt lat="44.42168155193726" lon="11.396040682451128"><ele>108.0</ele><time>2026-05-01T07:20:35Z</time></trkpt><trkpt lat="44.42157480561414" lon="11.395951726605523"><ele>108.0</ele><time>2026-05-01T07:20:37Z</time></trkpt><trkpt lat="44.42147361718897" lon="11.395872458468356"><ele>108.0</ele><time>2026-05-01T07:20:39Z</time></trkpt><trkpt lat="44.421370430627775" lon="11.395783834074107"><ele>108.0</ele><time>2026-05-01T07:20:41Z</time></trkpt><trkpt lat="44.42126191996994" lon="11.39570466777574"><ele>107.60000000000001</ele><time>2026-05-01T07:20:43Z</time></trkpt><trkpt lat="44.421155345179926" lon="11.395629497939344"><ele>107.20000000000002</ele><time>2026-05-01T07:20:45Z</time></trkpt><trkpt lat="44.42105614376894" lon="11.395551394710203"><ele>106.8</ele><time>2026-05-01T07:20:47Z</time></trkpt><trkpt lat="44.420962328934834" lon="11.395474985789985"><ele>106.4</ele><time>2026-05-01T07:20:49Z</time></trkpt><trkpt lat="44.42087807149288" lon="11.395394949443446"><ele>106.0</ele><time>2026-05-01T07:20:51Z</time></trkpt><trkpt lat="44.420795437979976" lon="11.39531268390674"><ele>106.0</ele><time>2026-05-01T07:20:53Z</time></trkpt><trkpt lat="44.420716793784734" lon="11.39521718356992"><ele>106.0</ele><time>2026-05-01T07:20:55Z</time></trkpt><trkpt lat="44.42063666069891" lon="11.395115616938265"><ele>106.0</ele><time>2026-05-01T07:20:57Z</time></trkpt><trkpt lat="44.42056501087997" lon="11.395007431800032"><ele>106.0</ele><time>2026-05-01T07:20:59Z</time></trkpt><trkpt lat="44.42047258354224" lon="11.394910014333984"><ele>106.0</ele><time>2026-05-01T07:21:01Z</time></trkpt><trkpt lat="44.420370394646646" lon="11.394837626070052"><ele>105.4</ele><time>2026-05-01T07:21:03Z</time></trkpt><trkpt lat="44.420262109164" lon="11.394782701131389"><ele>104.8</ele><time>2026-05-01T07:21:05Z</time></trkpt><trkpt lat="44.42016131943512" lon="11.394724438143784"><ele>104.2</ele><time>2026-05-01T07:21:07Z</time></trkpt><trkpt lat="44.4200920889781" lon="11.394720482809202"><ele>103.60000000000001</ele><time>2026-05-01T07:21:08Z</time></trkpt><trkpt lat="44.42002611190488" lon="11.394711159084075"><ele>103.0</ele><time>2026-05-01T07:21:09Z</time></trkpt><trkpt lat="44.41991192894446" lon="11.394682368535992"><ele>102.99999999999999</ele><time>2026-05-01T07:21:11Z</time></trkpt><trkpt lat="44.41984869986833" lon="11.394676378878101"><ele>103.0</ele><time>2026-05-01T07:21:12Z</time></trkpt><trkpt lat="44.4197815636504" lon="11.394673699115023"><ele>103.0</ele><time>2026-05-01T07:21:13Z</time></trkpt><trkpt lat="44.41971159307381" lon="11.39466116761429"><ele>103.0</ele><time>2026-05-01T07:21:14Z</time></trkpt><trkpt lat="44.41964554137968" lon="11.394660670042606"><ele>103.0</ele><time>2026-05-01T07:21:15Z</time></trkpt><trkpt lat="44.41958186297865" lon="11.394660670042809"><ele>102.99999999999999</ele><time>2026-05-01T07:21:16Z</time></trkpt><trkpt lat="44.419509866374604" lon="11.394657272824531"><ele>103.0</ele><time>2026-05-01T07:21:17Z</time></trkpt><trkpt lat="44.41944544208971" lon="11.394650349487023"><ele>103.83333333333334</ele><time>2026-05-01T07:21:18Z</time></trkpt><trkpt lat="44.419320419068654" lon="11.394620126544297"><ele>104.66666666666667</ele><time>2026-05-01T07:21:20Z</time></trkpt><trkpt lat="44.41925915316787" lon="11.394598850403044"><ele>105.5</ele><time>2026-05-01T07:21:21Z</time></trkpt><trkpt lat="44.41913508793452" lon="11.394555546089004"><ele>106.33333333333334</ele><time>2026-05-01T07:21:22.999Z</time></trkpt><trkpt lat="44.41907550235719" lon="11.39452576147058"><ele>107.16666666666667</ele><time>2026-05-01T07:21:23.999Z</time></trkpt><trkpt lat="44.41901596810062" lon="11.394492374255474"><ele>108.0</ele><time>2026-05-01T07:21:24.999Z</time></trkpt><trkpt lat="44.41890369514706" lon="11.394417324175743"><ele>107.25</ele><time>2026-05-01T07:21:26.999Z</time></trkpt><trkpt lat="44.418798541136745" lon="11.394327037059576"><ele>106.5</ele><time>2026-05-01T07:21:28.999Z</time></trkpt><trkpt lat="44.41870233755699" lon="11.394229691993647"><ele>105.75</ele><time>2026-05-01T07:21:30.999Z</time></trkpt><trkpt lat="44.41860209588976" lon="11.394146006506405"><ele>105.0</ele><time>2026-05-01T07:21:32.999Z</time></trkpt><trkpt lat="44.41850973024513" lon="11.39405401277118"><ele>105.0</ele><time>2026-05-01T07:21:34.999Z</time></trkpt><trkpt lat="44.41841879493542" lon="11.393947142202224"><ele>105.0</ele><time>2026-05-01T07:21:36.999Z</time></trkpt><trkpt lat="44.41833789204582" lon="11.393840546056298"><ele>105.0</ele><time>2026-05-01T07:21:38.999Z</time></trkpt><trkpt lat="44.41825770854118" lon="11.393734470672218"><ele>105.0</ele><time>2026-05-01T07:21:40.999Z</time></trkpt><trkpt lat="44.41818138628832" lon="11.393631595570922"><ele>105.0</ele><time>2026-05-01T07:21:42.999Z</time></trkpt><trkpt lat="44.41810663486645" lon="11.393530366348735"><ele>105.2</ele><time>2026-05-01T07:21:44.999Z</time></trkpt><trkpt lat="44.41803018062205" lon="11.393441259664623"><ele>105.4</ele><time>2026-05-01T07:21:46.999Z</time></trkpt><trkpt lat="44.4179528735145" lon="11.393357053551348"><ele>105.6</ele><time>2026-05-01T07:21:48.999Z</time></trkpt><trkpt lat="44.41787681927967" lon="11.393264178112045"><ele>105.8</ele><time>2026-05-01T07:21:50.999Z</time></trkpt><trkpt lat="44.417788826823575" lon="11.393180111384567"><ele>106.0</ele><time>2026-05-01T07:21:52.999Z</time></trkpt><trkpt lat="44.417702405349594" lon="11.393103079979701"><ele>106.0</ele><time>2026-05-01T07:21:54.999Z</time></trkpt><trkpt lat="44.41761763136127" lon="11.393029003315352"><ele>106.0</ele><time>2026-05-01T07:21:56.999Z</time></trkpt><trkpt lat="44.41753783068011" lon="11.392960811638147"><ele>106.0</ele><time>2026-05-01T07:21:58.999Z</time></trkpt><trkpt lat="44.417437614058485" lon="11.393093442857108"><ele>106.0</ele><time>2026-05-01T07:22:00.999Z</time></trkpt><trkpt lat="44.417404803427935" lon="11.393178541576123"><ele>106.0</ele><time>2026-05-01T07:22:02.999Z</time></trkpt><trkpt lat="44.41737552147084" lon="11.39328495737045"><ele>106.0</ele><time>2026-05-01T07:22:05.999Z</time></trkpt><trkpt lat="44.41736746122092" lon="11.393373804678484"><ele>106.0</ele><time>2026-05-01T07:22:23Z</time></trkpt><trkpt lat="44.41737459159205" lon="11.393467213711425"><ele>106.0</ele><time>2026-05-01T07:22:26Z</time></trkpt><trkpt lat="44.41741750042489" lon="11.393545792654473"><ele>106.0</ele><time>2026-05-01T07:22:29Z</time></trkpt><trkpt lat="44.41747170189451" lon="11.393612116881684"><ele>106.0</ele><time>2026-05-01T07:22:32Z</time></trkpt><trkpt lat="44.41751278606413" lon="11.393696336913312"><ele>106.0</ele><time>2026-05-01T07:22:35Z</time></trkpt><trkpt lat="44.41757494646337" lon="11.3937668841582"><ele>106.0</ele><time>2026-05-01T07:22:38Z</time></trkpt><trkpt lat="44.41763206706646" lon="11.393832840609159"><ele>107.14285714285714</ele><time>2026-05-01T07:22:41Z</time></trkpt><trkpt lat="44.417687378765805" lon="11.393895480911214"><ele>108.28571428571428</ele><time>2026-05-01T07:22:44Z</time></trkpt><trkpt lat="44.417745855086174" lon="11.393962315593152"><ele>109.42857142857142</ele><time>2026-05-01T07:22:47Z</time></trkpt><trkpt lat="44.41778680113921" lon="11.394037645441307"><ele>110.57142857142857</ele><time>2026-05-01T07:22:50Z</time></trkpt><trkpt lat="44.4178082368102" lon="11.394139042611817"><ele>111.7142857142857</ele><time>2026-05-01T07:22:54Z</time></trkpt><trkpt lat="44.417754536396934" lon="11.394202201897818"><ele>112.85714285714285</ele><time>2026-05-01T07:22:58Z</time></trkpt><trkpt lat="44.41768829637764" lon="11.394159045969507"><ele>114.0</ele><time>2026-05-01T07:23:03Z</time></trkpt><trkpt lat="44.417626272933965" lon="11.394114438644367"><ele>114.0</ele><time>2026-05-01T07:23:08Z</time></trkpt><trkpt lat="44.41755531322306" lon="11.394070981296535"><ele>113.99999999999999</ele><time>2026-05-01T07:23:14Z</time></trkpt><trkpt lat="44.41749282212754" lon="11.394056711995177"><ele>114.0</ele><time>2026-05-01T07:23:19Z</time></trkpt><trkpt lat="44.41742844746412" lon="11.394037751992268"><ele>114.0</ele><time>2026-05-01T07:23:24Z</time></trkpt><trkpt lat="44.41736240823113" lon="11.39402399130602"><ele>113.99999999999999</ele><time>2026-05-01T07:23:29Z</time></trkpt><trkpt lat="44.41729396335506" lon="11.394022853227991"><ele>114.0</ele><time>2026-05-01T07:23:34.999Z</time></trkpt><trkpt lat="44.41722413208038" lon="11.394050333607096"><ele>114.0</ele><time>2026-05-01T07:23:40.999Z</time></trkpt><trkpt lat="44.417204136212895" lon="11.39413658833251"><ele>114.0</ele><time>2026-05-01T07:23:44.999Z</time></trkpt><trkpt lat="44.41724572481428" lon="11.39423280275729"><ele>113.99999999999999</ele><time>2026-05-01T07:23:49.999Z</time></trkpt><trkpt lat="44.417298122632744" lon="11.39430647117848"><ele>114.0</ele><time>2026-05-01T07:23:55.999Z</time></trkpt><trkpt lat="44.417334591314265" lon="11.39437872159384"><ele>114.0</ele><time>2026-05-01T07:24:00.999Z</time></trkpt><trkpt lat="44.41736720531384" lon="11.394455870717897"><ele>113.99999999999999</ele><time>2026-05-01T07:24:05.999Z</time></trkpt><trkpt lat="44.41737889958806" lon="11.394556279477616"><ele>114.0</ele><time>2026-05-01T07:24:11.999Z</time></trkpt><trkpt lat="44.41735237738165" lon="11.394639151037946"><ele>114.0</ele><time>2026-05-01T07:24:16.999Z</time></trkpt><trkpt lat="44.41728331637454" lon="11.394669057517651"><ele>114.0</ele><time>2026-05-01T07:24:21Z</time></trkpt><trkpt lat="44.41721370599757" lon="11.394657906593592"><ele>113.99999999999999</ele><time>2026-05-01T07:24:25Z</time></trkpt><trkpt lat="44.41714362267143" lon="11.394632530859854"><ele>114.0</ele><time>2026-05-01T07:24:30Z</time></trkpt><trkpt lat="44.41707292942558" lon="11.394604982180926"><ele>114.0</ele><time>2026-05-01T07:24:35Z</time></trkpt><trkpt lat="44.41701000390497" lon="11.39457435845803"><ele>113.99999999999999</ele><time>2026-05-01T07:24:40Z</time></trkpt><trkpt lat="44.41693539731185" lon="11.394538818882436"><ele>114.0</ele><time>2026-05-01T07:24:46Z</time></trkpt><trkpt lat="44.41686700340832" lon="11.394528783129541"><ele>114.0</ele><time>2026-05-01T07:24:51Z</time></trkpt><trkpt lat="44.41679907219163" lon="11.394516846948312"><ele>116.28571428571428</ele><time>2026-05-01T07:24:56Z</time></trkpt><trkpt lat="44.416721637251" lon="11.394498915927512"><ele>118.57142857142856</ele><time>2026-05-01T07:25:02Z</time></trkpt><trkpt lat="44.41665882152757" lon="11.39448831504385"><ele>120.85714285714286</ele><time>2026-05-01T07:25:07Z</time></trkpt><trkpt lat="44.41658805014499" lon="11.394476961990273"><ele>123.14285714285714</ele><time>2026-05-01T07:25:12Z</time></trkpt><trkpt lat="44.416514989322614" lon="11.39446951878551"><ele>125.42857142857143</ele><time>2026-05-01T07:25:17Z</time></trkpt><trkpt lat="44.416437442956465" lon="11.39444587387561"><ele>127.71428571428572</ele><time>2026-05-01T07:25:22Z</time></trkpt><trkpt lat="44.416363685376965" lon="11.394425338669796"><ele>130.0</ele><time>2026-05-01T07:25:28Z</time></trkpt><trkpt lat="44.416300538807015" lon="11.394410712859111"><ele>132.14285714285717</ele><time>2026-05-01T07:25:33Z</time></trkpt><trkpt lat="44.41623562483221" lon="11.394406454683988"><ele>134.28571428571428</ele><time>2026-05-01T07:25:38Z</time></trkpt><trkpt lat="44.416193226946824" lon="11.394471851025688"><ele>136.42857142857144</ele><time>2026-05-01T07:25:42.999Z</time></trkpt><trkpt lat="44.4162129090834" lon="11.394571290479787"><ele>138.57142857142858</ele><time>2026-05-01T07:25:47.999Z</time></trkpt><trkpt lat="44.41624803242945" lon="11.394646337474734"><ele>140.71428571428572</ele><time>2026-05-01T07:25:51.999Z</time></trkpt><trkpt lat="44.41629399508024" lon="11.394708530803605"><ele>142.85714285714286</ele><time>2026-05-01T07:25:55.999Z</time></trkpt><trkpt lat="44.41634242781729" lon="11.39477633562213"><ele>145.0</ele><time>2026-05-01T07:26:00.999Z</time></trkpt><trkpt lat="44.41639011305541" lon="11.394846756762497"><ele>145.0</ele><time>2026-05-01T07:26:05.999Z</time></trkpt><trkpt lat="44.41642943934177" lon="11.39491791795407"><ele>145.0</ele><time>2026-05-01T07:26:10.999Z</time></trkpt><trkpt lat="44.41647792559773" lon="11.394992623500913"><ele>145.0</ele><time>2026-05-01T07:26:15.999Z</time></trkpt><trkpt lat="44.416530163624046" lon="11.39506003070258"><ele>145.0</ele><time>2026-05-01T07:26:20.999Z</time></trkpt><trkpt lat="44.41658400695992" lon="11.395137150744505"><ele>145.0</ele><time>2026-05-01T07:26:26Z</time></trkpt><trkpt lat="44.41663958249521" lon="11.395216361812007"><ele>145.0</ele><time>2026-05-01T07:26:31Z</time></trkpt><trkpt lat="44.41667694393448" lon="11.39529028285937"><ele>145.0</ele><time>2026-05-01T07:26:35Z</time></trkpt><trkpt lat="44.416707763433" lon="11.395377649717338"><ele>145.0</ele><time>2026-05-01T07:26:39Z</time></trkpt><trkpt lat="44.416755590259626" lon="11.395454444920848"><ele>145.0</ele><time>2026-05-01T07:26:43Z</time></trkpt><trkpt lat="44.41681166653558" lon="11.395509306076255"><ele>145.0</ele><time>2026-05-01T07:26:47Z</time></trkpt><trkpt lat="44.416865483190485" lon="11.39556747738907"><ele>145.0</ele><time>2026-05-01T07:26:51Z</time></trkpt><trkpt lat="44.416927380826074" lon="11.395634625869105"><ele>145.0</ele><time>2026-05-01T07:26:56Z</time></trkpt><trkpt lat="44.41698335564901" lon="11.395698341107313"><ele>145.0</ele><time>2026-05-01T07:27:01Z</time></trkpt><trkpt lat="44.417032142867676" lon="11.395755907467702"><ele>145.0</ele><time>2026-05-01T07:27:05Z</time></trkpt><trkpt lat="44.41707822549214" lon="11.395837930963877"><ele>145.16666666666669</ele><time>2026-05-01T07:27:09Z</time></trkpt><trkpt lat="44.417117471573306" lon="11.395939723703046"><ele>145.33333333333334</ele><time>2026-05-01T07:27:13Z</time></trkpt><trkpt lat="44.41715932890223" lon="11.396039693203047"><ele>145.5</ele><time>2026-05-01T07:27:17Z</time></trkpt><trkpt lat="44.4172059764755" lon="11.39610726262729"><ele>145.66666666666666</ele><time>2026-05-01T07:27:20Z</time></trkpt><trkpt lat="44.417269577743866" lon="11.396178447253208"><ele>145.83333333333331</ele><time>2026-05-01T07:27:24Z</time></trkpt><trkpt lat="44.41732733110927" lon="11.396223880709805"><ele>146.0</ele><time>2026-05-01T07:27:27Z</time></trkpt><trkpt lat="44.41738857238901" lon="11.39627414249337"><ele>146.0</ele><time>2026-05-01T07:27:30Z</time></trkpt><trkpt lat="44.41743617723421" lon="11.39633427932975"><ele>146.0</ele><time>2026-05-01T07:27:33Z</time></trkpt><trkpt lat="44.4174789674998" lon="11.396408852288845"><ele>146.0</ele><time>2026-05-01T07:27:36Z</time></trkpt><trkpt lat="44.41750633732794" lon="11.396490364077305"><ele>146.0</ele><time>2026-05-01T07:27:38.999Z</time></trkpt><trkpt lat="44.41754808371473" lon="11.396566382248936"><ele>146.0</ele><time>2026-05-01T07:27:41.999Z</time></trkpt><trkpt lat="44.41760581264387" lon="11.39665023416516"><ele>146.0</ele><time>2026-05-01T07:27:45.999Z</time></trkpt><trkpt lat="44.417652837354716" lon="11.396715507629175"><ele>146.0</ele><time>2026-05-01T07:27:49.999Z</time></trkpt><trkpt lat="44.417723959523045" lon="11.396759559944023"><ele>146.71428571428572</ele><time>2026-05-01T07:27:53.999Z</time></trkpt><trkpt lat="44.41779296108083" lon="11.39679087859292"><ele>147.42857142857144</ele><time>2026-05-01T07:27:58.999Z</time></trkpt><trkpt lat="44.41785545080253" lon="11.39682363117793"><ele>148.14285714285717</ele><time>2026-05-01T07:28:02.999Z</time></trkpt><trkpt lat="44.41792516063213" lon="11.396853805920498"><ele>148.85714285714286</ele><time>2026-05-01T07:28:06.999Z</time></trkpt><trkpt lat="44.41798508475271" lon="11.39689241254588"><ele>149.57142857142858</ele><time>2026-05-01T07:28:10.999Z</time></trkpt><trkpt lat="44.41804558714201" lon="11.396936886228037"><ele>150.2857142857143</ele><time>2026-05-01T07:28:14.999Z</time></trkpt><trkpt lat="44.41810440326735" lon="11.396970784698286"><ele>151.0</ele><time>2026-05-01T07:28:17.999Z</time></trkpt><trkpt lat="44.41817326949593" lon="11.397026025727625"><ele>151.00000000000003</ele><time>2026-05-01T07:28:21.999Z</time></trkpt><trkpt lat="44.41822719677374" lon="11.397092406896551"><ele>151.0</ele><time>2026-05-01T07:28:25.999Z</time></trkpt><trkpt lat="44.41828970897749" lon="11.397150094718771"><ele>151.0</ele><time>2026-05-01T07:28:29.999Z</time></trkpt><trkpt lat="44.41835416037674" lon="11.397204078968308"><ele>151.0</ele><time>2026-05-01T07:28:35Z</time></trkpt><trkpt lat="44.41841083975556" lon="11.397251365872926"><ele>151.0</ele><time>2026-05-01T07:28:40Z</time></trkpt><trkpt lat="44.418479830001324" lon="11.39731284193111"><ele>151.00000000000003</ele><time>2026-05-01T07:28:46Z</time></trkpt><trkpt lat="44.418525392868574" lon="11.39738474180857"><ele>151.0</ele><time>2026-05-01T07:28:51Z</time></trkpt><trkpt lat="44.41855908285493" lon="11.39748235555739"><ele>153.85714285714286</ele><time>2026-05-01T07:28:56Z</time></trkpt><trkpt lat="44.41856068301193" lon="11.397571927234326"><ele>156.71428571428572</ele><time>2026-05-01T07:29:01Z</time></trkpt><trkpt lat="44.41856691982657" lon="11.397667677932615"><ele>159.57142857142856</ele><time>2026-05-01T07:29:06Z</time></trkpt><trkpt lat="44.418581652569515" lon="11.39778293703115"><ele>162.42857142857144</ele><time>2026-05-01T07:29:11Z</time></trkpt><trkpt lat="44.41857757836072" lon="11.397872668336122"><ele>165.28571428571428</ele><time>2026-05-01T07:29:15Z</time></trkpt><trkpt lat="44.41857494271957" lon="11.39797083293517"><ele>168.14285714285714</ele><time>2026-05-01T07:29:19Z</time></trkpt><trkpt lat="44.41857453564047" lon="11.398084545656435"><ele>171.0</ele><time>2026-05-01T07:29:24Z</time></trkpt><trkpt lat="44.41859914437107" lon="11.398186561266089"><ele>170.99999999999997</ele><time>2026-05-01T07:29:29Z</time></trkpt><trkpt lat="44.41863571499605" lon="11.398258624566791"><ele>171.0</ele><time>2026-05-01T07:29:33Z</time></trkpt><trkpt lat="44.418681606208104" lon="11.398319124109916"><ele>171.0</ele><time>2026-05-01T07:29:37Z</time></trkpt><trkpt lat="44.418735953840894" lon="11.398391921940195"><ele>171.0</ele><time>2026-05-01T07:29:42Z</time></trkpt><trkpt lat="44.41878987725022" lon="11.398463698326145"><ele>171.0</ele><time>2026-05-01T07:29:46.999Z</time></trkpt><trkpt lat="44.418844982538346" lon="11.39852489188796"><ele>170.99999999999997</ele><time>2026-05-01T07:29:51.999Z</time></trkpt><trkpt lat="44.41889529137883" lon="11.398591810800605"><ele>171.0</ele><time>2026-05-01T07:29:56.999Z</time></trkpt><trkpt lat="44.418952457286345" lon="11.39864449614172"><ele>170.99999999999997</ele><time>2026-05-01T07:30:01.999Z</time></trkpt><trkpt lat="44.419013871725916" lon="11.398690013944616"><ele>171.0</ele><time>2026-05-01T07:30:07.999Z</time></trkpt><trkpt lat="44.419073542807844" lon="11.398728420409887"><ele>171.0</ele><time>2026-05-01T07:30:12.999Z</time></trkpt><trkpt lat="44.419132425207046" lon="11.398786144342644"><ele>171.0</ele><time>2026-05-01T07:30:18.999Z</time></trkpt><trkpt lat="44.419187923463284" lon="11.398838011605601"><ele>171.0</ele><time>2026-05-01T07:30:23.999Z</time></trkpt><trkpt lat="44.419228135632316" lon="11.398922345626884"><ele>170.99999999999997</ele><time>2026-05-01T07:30:29.999Z</time></trkpt><trkpt lat="44.419170899436565" lon="11.398984953607563"><ele>171.0</ele><time>2026-05-01T07:30:34.999Z</time></trkpt><trkpt lat="44.41910276153464" lon="11.399024377860643"><ele>173.57142857142856</ele><time>2026-05-01T07:30:40Z</time></trkpt><trkpt lat="44.41903441122615" lon="11.399037598616575"><ele>176.14285714285714</ele><time>2026-05-01T07:30:45Z</time></trkpt><trkpt lat="44.41896827552054" lon="11.399052112546656"><ele>178.71428571428572</ele><time>2026-05-01T07:30:50Z</time></trkpt><trkpt lat="44.41890510610468" lon="11.399072961830855"><ele>181.28571428571428</ele><time>2026-05-01T07:30:55Z</time></trkpt><trkpt lat="44.418839544614" lon="11.399096215515629"><ele>183.85714285714286</ele><time>2026-05-01T07:31:00Z</time></trkpt><trkpt lat="44.41877209079523" lon="11.399119616679414"><ele>186.42857142857142</ele><time>2026-05-01T07:31:05Z</time></trkpt><trkpt lat="44.41869653515005" lon="11.399126453747803"><ele>189.0</ele><time>2026-05-01T07:31:11Z</time></trkpt><trkpt lat="44.41862633411558" lon="11.399146280649662"><ele>190.57142857142858</ele><time>2026-05-01T07:31:17Z</time></trkpt><trkpt lat="44.41856248666607" lon="11.399155011098031"><ele>192.14285714285714</ele><time>2026-05-01T07:31:22Z</time></trkpt><trkpt lat="44.418498197690184" lon="11.399168971211969"><ele>193.71428571428572</ele><time>2026-05-01T07:31:27Z</time></trkpt><trkpt lat="44.41842101804743" lon="11.399174565004916"><ele>195.28571428571428</ele><time>2026-05-01T07:31:33Z</time></trkpt><trkpt lat="44.418358304153955" lon="11.399183731846867"><ele>196.85714285714286</ele><time>2026-05-01T07:31:38Z</time></trkpt><trkpt lat="44.4182936036101" lon="11.399197591943462"><ele>198.42857142857144</ele><time>2026-05-01T07:31:43Z</time></trkpt><trkpt lat="44.4182213020106" lon="11.399205349010414"><ele>200.0</ele><time>2026-05-01T07:31:48Z</time></trkpt><trkpt lat="44.41814037697326" lon="11.399224502287618"><ele>200.00000000000003</ele><time>2026-05-01T07:31:53.999Z</time></trkpt><trkpt lat="44.41807644380583" lon="11.399235907999769"><ele>200.0</ele><time>2026-05-01T07:31:58.999Z</time></trkpt><trkpt lat="44.41800682378788" lon="11.399254072210038"><ele>200.0</ele><time>2026-05-01T07:32:02.999Z</time></trkpt><trkpt lat="44.417934286883195" lon="11.399258921630473"><ele>200.0</ele><time>2026-05-01T07:32:07.999Z</time></trkpt><trkpt lat="44.41786821881923" lon="11.399252974511574"><ele>200.0</ele><time>2026-05-01T07:32:11.999Z</time></trkpt><trkpt lat="44.417803800836985" lon="11.399253926267274"><ele>200.00000000000003</ele><time>2026-05-01T07:32:15.999Z</time></trkpt><trkpt lat="44.41772904533442" lon="11.39923613219004"><ele>200.0</ele><time>2026-05-01T07:32:20.999Z</time></trkpt><trkpt lat="44.417661853411886" lon="11.39919226967412"><ele>202.00000000000003</ele><time>2026-05-01T07:32:25.999Z</time></trkpt><trkpt lat="44.417603525716615" lon="11.399145203294161"><ele>204.0</ele><time>2026-05-01T07:32:30.999Z</time></trkpt><trkpt lat="44.41753445254735" lon="11.3990934095846"><ele>206.0</ele><time>2026-05-01T07:32:35.999Z</time></trkpt><trkpt lat="44.41747415030585" lon="11.399017977749077"><ele>208.0</ele><time>2026-05-01T07:32:40.999Z</time></trkpt><trkpt lat="44.417423861127745" lon="11.39895952986293"><ele>210.00000000000003</ele><time>2026-05-01T07:32:45Z</time></trkpt><trkpt lat="44.41735069810765" lon="11.398893124327918"><ele>212.0</ele><time>2026-05-01T07:32:50Z</time></trkpt><trkpt lat="44.41727892479578" lon="11.398861721301287"><ele>212.00000000000003</ele><time>2026-05-01T07:32:54Z</time></trkpt><trkpt lat="44.41720333135649" lon="11.398827370908657"><ele>212.0</ele><time>2026-05-01T07:32:58Z</time></trkpt><trkpt lat="44.417126777852005" lon="11.398800676011527"><ele>212.0</ele><time>2026-05-01T07:33:02Z</time></trkpt><trkpt lat="44.4170553898942" lon="11.398783761364275"><ele>212.0</ele><time>2026-05-01T07:33:06Z</time></trkpt><trkpt lat="44.41697607841662" lon="11.398772214664506"><ele>212.00000000000003</ele><time>2026-05-01T07:33:11Z</time></trkpt><trkpt lat="44.41691159681778" lon="11.398747574630887"><ele>212.0</ele><time>2026-05-01T07:33:15Z</time></trkpt><trkpt lat="44.41683847300345" lon="11.398733780782566"><ele>212.0</ele><time>2026-05-01T07:33:20Z</time></trkpt><trkpt lat="44.41677505771048" lon="11.39870977692969"><ele>212.0</ele><time>2026-05-01T07:33:25Z</time></trkpt><trkpt lat="44.41670730214664" lon="11.39869283061766"><ele>212.0</ele><time>2026-05-01T07:33:30Z</time></trkpt><trkpt lat="44.41664457517914" lon="11.398669453368084"><ele>212.0</ele><time>2026-05-01T07:33:34Z</time></trkpt><trkpt lat="44.416573455326365" lon="11.398657989974307"><ele>212.0</ele><time>2026-05-01T07:33:38Z</time></trkpt><trkpt lat="44.41649795463897" lon="11.398646370014198"><ele>212.0</ele><time>2026-05-01T07:33:42Z</time></trkpt><trkpt lat="44.41642603072004" lon="11.398624248719159"><ele>212.0</ele><time>2026-05-01T07:33:46Z</time></trkpt><trkpt lat="44.41635652017844" lon="11.39861089479325"><ele>212.85714285714286</ele><time>2026-05-01T07:33:50Z</time></trkpt><trkpt lat="44.416281905618696" lon="11.398600617169606"><ele>213.7142857142857</ele><time>2026-05-01T07:33:54Z</time></trkpt><trkpt lat="44.41619974208327" lon="11.398590286556855"><ele>214.57142857142856</ele><time>2026-05-01T07:33:58Z</time></trkpt><trkpt lat="44.41612637269296" lon="11.39858558893286"><ele>215.42857142857144</ele><time>2026-05-01T07:34:01.999Z</time></trkpt><trkpt lat="44.4160501158414" lon="11.398598940586435"><ele>216.28571428571428</ele><time>2026-05-01T07:34:05.999Z</time></trkpt><trkpt lat="44.415981612992184" lon="11.398641710259225"><ele>217.14285714285714</ele><time>2026-05-01T07:34:10.999Z</time></trkpt><trkpt lat="44.41599258142811" lon="11.398733366424928"><ele>218.0</ele><time>2026-05-01T07:34:15.999Z</time></trkpt><trkpt lat="44.416051979738754" lon="11.398780220010782"><ele>219.57142857142858</ele><time>2026-05-01T07:34:20.999Z</time></trkpt><trkpt lat="44.416101833212224" lon="11.398836204060663"><ele>221.14285714285717</ele><time>2026-05-01T07:34:25.999Z</time></trkpt><trkpt lat="44.416151697285706" lon="11.398893630430756"><ele>222.71428571428572</ele><time>2026-05-01T07:34:30.999Z</time></trkpt><trkpt lat="44.4162090979356" lon="11.398961628340812"><ele>224.28571428571428</ele><time>2026-05-01T07:34:36.999Z</time></trkpt><trkpt lat="44.416262285227006" lon="11.399029996230734"><ele>225.85714285714286</ele><time>2026-05-01T07:34:42.999Z</time></trkpt><trkpt lat="44.41631317959573" lon="11.399096204974967"><ele>227.42857142857142</ele><time>2026-05-01T07:34:47.999Z</time></trkpt><trkpt lat="44.41635807095026" lon="11.399170259978613"><ele>229.0</ele><time>2026-05-01T07:34:53Z</time></trkpt><trkpt lat="44.41639262200848" lon="11.399255547082372"><ele>229.0</ele><time>2026-05-01T07:34:58Z</time></trkpt><trkpt lat="44.416430875464215" lon="11.399335989399534"><ele>229.0</ele><time>2026-05-01T07:35:03Z</time></trkpt><trkpt lat="44.416466342528835" lon="11.399427941771792"><ele>229.0</ele><time>2026-05-01T07:35:09Z</time></trkpt><trkpt lat="44.41650038684859" lon="11.39951059382771"><ele>229.0</ele><time>2026-05-01T07:35:15Z</time></trkpt><trkpt lat="44.416528965224515" lon="11.399594034664853"><ele>229.0</ele><time>2026-05-01T07:35:20Z</time></trkpt><trkpt lat="44.41656476045117" lon="11.399680758325356"><ele>229.0</ele><time>2026-05-01T07:35:25Z</time></trkpt><trkpt lat="44.41658347511489" lon="11.39976503809707"><ele>229.0</ele><time>2026-05-01T07:35:29Z</time></trkpt><trkpt lat="44.41659849729666" lon="11.399860552232221"><ele>230.42857142857142</ele><time>2026-05-01T07:35:34Z</time></trkpt><trkpt lat="44.41659320207962" lon="11.399959368074757"><ele>231.8571428571429</ele><time>2026-05-01T07:35:38Z</time></trkpt><trkpt lat="44.41657385934415" lon="11.400047809457497"><ele>233.2857142857143</ele><time>2026-05-01T07:35:42Z</time></trkpt><trkpt lat="44.416569366613984" lon="11.400149345349515"><ele>234.71428571428572</ele><time>2026-05-01T07:35:46Z</time></trkpt><trkpt lat="44.41659638611154" lon="11.40023929323701"><ele>236.14285714285717</ele><time>2026-05-01T07:35:49Z</time></trkpt><trkpt lat="44.41664085783825" lon="11.400329807325074"><ele>237.5714285714286</ele><time>2026-05-01T07:35:52Z</time></trkpt><trkpt lat="44.416696678552036" lon="11.400420579408005"><ele>239.00000000000003</ele><time>2026-05-01T07:35:55Z</time></trkpt><trkpt lat="44.4167618133818" lon="11.400498270337458"><ele>240.42857142857144</ele><time>2026-05-01T07:35:58Z</time></trkpt><trkpt lat="44.416808001494914" lon="11.40058453061713"><ele>241.85714285714286</ele><time>2026-05-01T07:36:01Z</time></trkpt><trkpt lat="44.41686926151437" lon="11.400669518053885"><ele>243.28571428571428</ele><time>2026-05-01T07:36:04Z</time></trkpt><trkpt lat="44.41692025818046" lon="11.400747303973228"><ele>244.71428571428572</ele><time>2026-05-01T07:36:06.999Z</time></trkpt><trkpt lat="44.41696827012255" lon="11.400823333518813"><ele>246.1428571428571</ele><time>2026-05-01T07:36:09.999Z</time></trkpt><trkpt lat="44.41702482724803" lon="11.400889944361445"><ele>247.57142857142856</ele><time>2026-05-01T07:36:12.999Z</time></trkpt><trkpt lat="44.41706654289784" lon="11.400956818622305"><ele>249.0</ele><time>2026-05-01T07:36:15.999Z</time></trkpt><trkpt lat="44.417105081288895" lon="11.401051458324492"><ele>249.0</ele><time>2026-05-01T07:36:19.999Z</time></trkpt><trkpt lat="44.41711211748164" lon="11.401148667725627"><ele>249.0</ele><time>2026-05-01T07:36:23.999Z</time></trkpt><trkpt lat="44.41710038787989" lon="11.401238847595947"><ele>249.0</ele><time>2026-05-01T07:36:27.999Z</time></trkpt><trkpt lat="44.417066841979654" lon="11.401339185426638"><ele>249.0</ele><time>2026-05-01T07:36:31.999Z</time></trkpt><trkpt lat="44.41701271919718" lon="11.401429632334617"><ele>249.0</ele><time>2026-05-01T07:36:35.999Z</time></trkpt><trkpt lat="44.41695203199525" lon="11.401508257239307"><ele>249.0</ele><time>2026-05-01T07:36:40.999Z</time></trkpt><trkpt lat="44.41690164956337" lon="11.401588911251698"><ele>249.28571428571428</ele><time>2026-05-01T07:36:45.999Z</time></trkpt><trkpt lat="44.41685759142324" lon="11.401666997370908"><ele>249.57142857142856</ele><time>2026-05-01T07:36:50.999Z</time></trkpt><trkpt lat="44.416802362511916" lon="11.401733274637772"><ele>249.85714285714283</ele><time>2026-05-01T07:36:56Z</time></trkpt><trkpt lat="44.416758508591286" lon="11.401809576520288"><ele>250.1428571428571</ele><time>2026-05-01T07:37:01Z</time></trkpt><trkpt lat="44.41670157078981" lon="11.401876757400286"><ele>250.42857142857142</ele><time>2026-05-01T07:37:06Z</time></trkpt><trkpt lat="44.41664265677272" lon="11.401944376527616"><ele>250.71428571428567</ele><time>2026-05-01T07:37:11Z</time></trkpt><trkpt lat="44.416588235861376" lon="11.402020738904863"><ele>250.99999999999997</ele><time>2026-05-01T07:37:16Z</time></trkpt><trkpt lat="44.416544990757096" lon="11.402097602541929"><ele>250.99999999999997</ele><time>2026-05-01T07:37:21Z</time></trkpt><trkpt lat="44.41650591525588" lon="11.402184355516628"><ele>251.0</ele><time>2026-05-01T07:37:26Z</time></trkpt><trkpt lat="44.416480978813446" lon="11.402268506931012"><ele>250.99999999999997</ele><time>2026-05-01T07:37:30Z</time></trkpt><trkpt lat="44.416438406222355" lon="11.40234544215437"><ele>250.99999999999997</ele><time>2026-05-01T07:37:34Z</time></trkpt><trkpt lat="44.41642174915832" lon="11.402437248145024"><ele>251.0</ele><time>2026-05-01T07:37:37Z</time></trkpt><trkpt lat="44.416383406362684" lon="11.402530215925802"><ele>250.99999999999997</ele><time>2026-05-01T07:37:40Z</time></trkpt><trkpt lat="44.41636100603049" lon="11.402619060806401"><ele>250.99999999999997</ele><time>2026-05-01T07:37:42Z</time></trkpt><trkpt lat="44.41633391398595" lon="11.40270940295173"><ele>254.4</ele><time>2026-05-01T07:37:44Z</time></trkpt><trkpt lat="44.416305026564466" lon="11.40283673975634"><ele>257.8</ele><time>2026-05-01T07:37:46Z</time></trkpt><trkpt lat="44.41629458938317" lon="11.402988642670367"><ele>261.20000000000005</ele><time>2026-05-01T07:37:48Z</time></trkpt><trkpt lat="44.41626159573889" lon="11.403135617288894"><ele>264.6</ele><time>2026-05-01T07:37:50Z</time></trkpt><trkpt lat="44.41621001837429" lon="11.403270578749781"><ele>268.0</ele><time>2026-05-01T07:37:52Z</time></trkpt><trkpt lat="44.41616676163185" lon="11.403408578283655"><ele>268.0</ele><time>2026-05-01T07:37:54Z</time></trkpt><trkpt lat="44.41613173399371" lon="11.403525319282947"><ele>268.0</ele><time>2026-05-01T07:37:56Z</time></trkpt><trkpt lat="44.416082557664964" lon="11.403607183259894"><ele>268.0</ele><time>2026-05-01T07:37:58Z</time></trkpt><trkpt lat="44.4160750211375" lon="11.40370411733966"><ele>268.0</ele><time>2026-05-01T07:38:00Z</time></trkpt><trkpt lat="44.41606959663612" lon="11.403797015992687"><ele>268.0</ele><time>2026-05-01T07:38:02Z</time></trkpt><trkpt lat="44.416056613481004" lon="11.403893262169902"><ele>268.0</ele><time>2026-05-01T07:38:04Z</time></trkpt><trkpt lat="44.416076353778706" lon="11.404011671998811"><ele>267.3333333333333</ele><time>2026-05-01T07:38:07Z</time></trkpt><trkpt lat="44.41610356893272" lon="11.404119349071658"><ele>266.66666666666663</ele><time>2026-05-01T07:38:10Z</time></trkpt><trkpt lat="44.41611916031966" lon="11.404215165021562"><ele>266.0</ele><time>2026-05-01T07:38:12.999Z</time></trkpt><trkpt lat="44.416127940542864" lon="11.404320930499548"><ele>265.3333333333333</ele><time>2026-05-01T07:38:16.999Z</time></trkpt><trkpt lat="44.41614009870027" lon="11.404416919399726"><ele>264.6666666666667</ele><time>2026-05-01T07:38:20.999Z</time></trkpt><trkpt lat="44.41614556219799" lon="11.404528392364917"><ele>264.0</ele><time>2026-05-01T07:38:25.999Z</time></trkpt><trkpt lat="44.41615633098473" lon="11.404635103824223"><ele>263.7142857142857</ele><time>2026-05-01T07:38:30.999Z</time></trkpt><trkpt lat="44.41617144577376" lon="11.404735293657122"><ele>263.42857142857144</ele><time>2026-05-01T07:38:35.999Z</time></trkpt><trkpt lat="44.416161566875196" lon="11.404833964994497"><ele>263.14285714285717</ele><time>2026-05-01T07:38:40.999Z</time></trkpt><trkpt lat="44.41618080631759" lon="11.404926020113345"><ele>262.8571428571429</ele><time>2026-05-01T07:38:45.999Z</time></trkpt><trkpt lat="44.416163822068235" lon="11.405018902278151"><ele>262.5714285714286</ele><time>2026-05-01T07:38:50.999Z</time></trkpt><trkpt lat="44.41615410426936" lon="11.405113310058814"><ele>262.2857142857143</ele><time>2026-05-01T07:38:55.999Z</time></trkpt><trkpt lat="44.41613748600789" lon="11.405212782577399"><ele>262.0</ele><time>2026-05-01T07:39:01Z</time></trkpt><trkpt lat="44.41612331706722" lon="11.405306472849748"><ele>262.0</ele><time>2026-05-01T07:39:05Z</time></trkpt><trkpt lat="44.41611573652573" lon="11.405404739153775"><ele>262.0</ele><time>2026-05-01T07:39:09Z</time></trkpt><trkpt lat="44.41612512785649" lon="11.405498327291102"><ele>262.0</ele><time>2026-05-01T07:39:12Z</time></trkpt><trkpt lat="44.416148954606236" lon="11.405598657030461"><ele>262.0</ele><time>2026-05-01T07:39:16Z</time></trkpt><trkpt lat="44.416176583844226" lon="11.405684031737911"><ele>262.0</ele><time>2026-05-01T07:39:20Z</time></trkpt><trkpt lat="44.416210085985995" lon="11.405775553836582"><ele>262.0</ele><time>2026-05-01T07:39:24Z</time></trkpt><trkpt lat="44.41623318461165" lon="11.405875825120436"><ele>262.0</ele><time>2026-05-01T07:39:30Z</time></trkpt><trkpt lat="44.41618633298094" lon="11.405810593231648"><ele>261.75</ele><time>2026-05-01T07:39:41Z</time></trkpt><trkpt lat="44.41622816586949" lon="11.40590500773073"><ele>261.5</ele><time>2026-05-01T07:39:47Z</time></trkpt><trkpt lat="44.41618030496577" lon="11.405972572996847"><ele>261.25</ele><time>2026-05-01T07:39:52Z</time></trkpt><trkpt lat="44.41615443575006" lon="11.406054243371786"><ele>261.0</ele><time>2026-05-01T07:39:59Z</time></trkpt><trkpt lat="44.41636614365416" lon="11.406262876517484"><ele>262.6666666666667</ele><time>2026-05-01T07:40:03Z</time></trkpt><trkpt lat="44.41641158728429" lon="11.406331516045435"><ele>264.3333333333333</ele><time>2026-05-01T07:40:07Z</time></trkpt><trkpt lat="44.41644869310363" lon="11.40641457787454"><ele>266.0</ele><time>2026-05-01T07:40:11Z</time></trkpt><trkpt lat="44.416492042114605" lon="11.406506758723886"><ele>267.66666666666663</ele><time>2026-05-01T07:40:15Z</time></trkpt><trkpt lat="44.41653965680147" lon="11.406595508363832"><ele>269.3333333333333</ele><time>2026-05-01T07:40:19Z</time></trkpt><trkpt lat="44.416589554852344" lon="11.406688182640602"><ele>271.0</ele><time>2026-05-01T07:40:23Z</time></trkpt><trkpt lat="44.41663628785931" lon="11.406777077368458"><ele>271.0</ele><time>2026-05-01T07:40:27Z</time></trkpt><trkpt lat="44.41668453971561" lon="11.406861685538304"><ele>271.0</ele><time>2026-05-01T07:40:30.999Z</time></trkpt><trkpt lat="44.41673737950512" lon="11.40693607704732"><ele>271.0</ele><time>2026-05-01T07:40:34.999Z</time></trkpt><trkpt lat="44.41678221181245" lon="11.407015980393377"><ele>271.0</ele><time>2026-05-01T07:40:38.999Z</time></trkpt><trkpt lat="44.41682486706951" lon="11.407086377527184"><ele>271.0</ele><time>2026-05-01T07:40:42.999Z</time></trkpt><trkpt lat="44.41686354812513" lon="11.407161990912929"><ele>271.0</ele><time>2026-05-01T07:40:46.999Z</time></trkpt><trkpt lat="44.41691149371291" lon="11.407222509114796"><ele>271.0</ele><time>2026-05-01T07:40:50.999Z</time></trkpt><trkpt lat="44.41694101182331" lon="11.407307071675719"><ele>270.42857142857144</ele><time>2026-05-01T07:40:54.999Z</time></trkpt><trkpt lat="44.41698137319306" lon="11.407380184789373"><ele>269.8571428571429</ele><time>2026-05-01T07:40:58.999Z</time></trkpt><trkpt lat="44.4170226155549" lon="11.407463523999343"><ele>269.28571428571433</ele><time>2026-05-01T07:41:03.999Z</time></trkpt><trkpt lat="44.41706153480113" lon="11.4075431931083"><ele>268.7142857142857</ele><time>2026-05-01T07:41:09Z</time></trkpt><trkpt lat="44.417098951251084" lon="11.40762262431731"><ele>268.14285714285717</ele><time>2026-05-01T07:41:14Z</time></trkpt><trkpt lat="44.41713506279575" lon="11.407700006509794"><ele>267.5714285714286</ele><time>2026-05-01T07:41:19Z</time></trkpt><trkpt lat="44.417194475933215" lon="11.407749796334016"><ele>267.0</ele><time>2026-05-01T07:41:24Z</time></trkpt><trkpt lat="44.41723587421361" lon="11.40783308401777"><ele>269.14285714285717</ele><time>2026-05-01T07:41:30Z</time></trkpt><trkpt lat="44.41727708150928" lon="11.407913672578468"><ele>271.2857142857143</ele><time>2026-05-01T07:41:36Z</time></trkpt><trkpt lat="44.41731894990097" lon="11.40799769361805"><ele>273.42857142857144</ele><time>2026-05-01T07:41:42Z</time></trkpt><trkpt lat="44.41736072051706" lon="11.408065613857463"><ele>275.57142857142856</ele><time>2026-05-01T07:41:47Z</time></trkpt><trkpt lat="44.417408826697105" lon="11.408134649395654"><ele>277.7142857142857</ele><time>2026-05-01T07:41:53Z</time></trkpt><trkpt lat="44.417461469010085" lon="11.408190179660211"><ele>279.8571428571429</ele><time>2026-05-01T07:41:58Z</time></trkpt><trkpt lat="44.41751914905245" lon="11.40822572676147"><ele>282.0</ele><time>2026-05-01T07:42:03Z</time></trkpt><trkpt lat="44.41758466262665" lon="11.40825927506957"><ele>282.0</ele><time>2026-05-01T07:42:08Z</time></trkpt><trkpt lat="44.41765631152426" lon="11.40828947329644"><ele>282.0</ele><time>2026-05-01T07:42:13Z</time></trkpt><trkpt lat="44.417720244814845" lon="11.408320047225637"><ele>282.0</ele><time>2026-05-01T07:42:17Z</time></trkpt><trkpt lat="44.41778452833249" lon="11.408370474785196"><ele>282.0</ele><time>2026-05-01T07:42:21Z</time></trkpt><trkpt lat="44.417842800411954" lon="11.408413013081795"><ele>282.0</ele><time>2026-05-01T07:42:23.999Z</time></trkpt><trkpt lat="44.41789840426861" lon="11.408464662425787"><ele>282.0</ele><time>2026-05-01T07:42:26.999Z</time></trkpt><trkpt lat="44.417960739050244" lon="11.408521707939869"><ele>282.0</ele><time>2026-05-01T07:42:29.999Z</time></trkpt><trkpt lat="44.41802219065948" lon="11.40858695716735"><ele>282.2857142857143</ele><time>2026-05-01T07:42:32.999Z</time></trkpt><trkpt lat="44.41808033410239" lon="11.408637173985072"><ele>282.57142857142856</ele><time>2026-05-01T07:42:35.999Z</time></trkpt><trkpt lat="44.418135913399354" lon="11.408707323119769"><ele>282.85714285714283</ele><time>2026-05-01T07:42:38.999Z</time></trkpt><trkpt lat="44.418191602495824" lon="11.408777996037008"><ele>283.1428571428571</ele><time>2026-05-01T07:42:41.999Z</time></trkpt><trkpt lat="44.41823674595461" lon="11.408849011852716"><ele>283.4285714285714</ele><time>2026-05-01T07:42:44.999Z</time></trkpt><trkpt lat="44.418298255767276" lon="11.408925954044763"><ele>283.7142857142857</ele><time>2026-05-01T07:42:48.999Z</time></trkpt><trkpt lat="44.41833289850551" lon="11.409010913277013"><ele>284.0</ele><time>2026-05-01T07:42:51.999Z</time></trkpt><trkpt lat="44.41836430530394" lon="11.409101149772846"><ele>284.6666666666667</ele><time>2026-05-01T07:42:54.999Z</time></trkpt><trkpt lat="44.41839572109342" lon="11.409190520550375"><ele>285.33333333333337</ele><time>2026-05-01T07:42:57.999Z</time></trkpt><trkpt lat="44.41843366761447" lon="11.409268427104418"><ele>286.0</ele><time>2026-05-01T07:43:00.999Z</time></trkpt><trkpt lat="44.41847479574919" lon="11.409353603090885"><ele>286.6666666666667</ele><time>2026-05-01T07:43:04.999Z</time></trkpt><trkpt lat="44.41854328359793" lon="11.409404187234482"><ele>287.3333333333333</ele><time>2026-05-01T07:43:08.999Z</time></trkpt><trkpt lat="44.41861963034529" lon="11.409432891576499"><ele>288.0</ele><time>2026-05-01T07:43:11.999Z</time></trkpt><trkpt lat="44.41870946660244" lon="11.4094454109488"><ele>287.3333333333333</ele><time>2026-05-01T07:43:14Z</time></trkpt><trkpt lat="44.41882673716343" lon="11.409451420867098"><ele>286.6666666666667</ele><time>2026-05-01T07:43:16Z</time></trkpt><trkpt lat="44.41889489070776" lon="11.409458137548306"><ele>286.0</ele><time>2026-05-01T07:43:17Z</time></trkpt><trkpt lat="44.418967523973194" lon="11.409470765547796"><ele>285.33333333333337</ele><time>2026-05-01T07:43:18Z</time></trkpt><trkpt lat="44.41904222183534" lon="11.409484816196093"><ele>284.6666666666667</ele><time>2026-05-01T07:43:19Z</time></trkpt><trkpt lat="44.419131393670185" lon="11.409491968531531"><ele>284.0</ele><time>2026-05-01T07:43:20Z</time></trkpt><trkpt lat="44.41922303481004" lon="11.40950747650815"><ele>284.0</ele><time>2026-05-01T07:43:21Z</time></trkpt><trkpt lat="44.41931965013305" lon="11.40954189832232"><ele>284.0</ele><time>2026-05-01T07:43:22Z</time></trkpt><trkpt lat="44.41942447143479" lon="11.409552607686662"><ele>284.0</ele><time>2026-05-01T07:43:23Z</time></trkpt><trkpt lat="44.419526146189234" lon="11.409577345438853"><ele>284.0</ele><time>2026-05-01T07:43:24Z</time></trkpt><trkpt lat="44.419630103010114" lon="11.409584197635382"><ele>284.0</ele><time>2026-05-01T07:43:25Z</time></trkpt><trkpt lat="44.41973331956831" lon="11.409590566545928"><ele>282.4</ele><time>2026-05-01T07:43:26Z</time></trkpt><trkpt lat="44.419825694173944" lon="11.40958887023653"><ele>280.79999999999995</ele><time>2026-05-01T07:43:27Z</time></trkpt><trkpt lat="44.41991986081007" lon="11.409580939091448"><ele>279.20000000000005</ele><time>2026-05-01T07:43:28Z</time></trkpt><trkpt lat="44.4200045477175" lon="11.409569946111036"><ele>277.6</ele><time>2026-05-01T07:43:29Z</time></trkpt><trkpt lat="44.42007800827543" lon="11.409557301598957"><ele>276.0</ele><time>2026-05-01T07:43:30Z</time></trkpt><trkpt lat="44.42018751338169" lon="11.409569388547881"><ele>276.0</ele><time>2026-05-01T07:43:32Z</time></trkpt><trkpt lat="44.42028588884398" lon="11.409513765361474"><ele>276.0</ele><time>2026-05-01T07:43:34Z</time></trkpt><trkpt lat="44.42036669117666" lon="11.409455975688177"><ele>276.0</ele><time>2026-05-01T07:43:36Z</time></trkpt><trkpt lat="44.42046977764005" lon="11.4093789975318"><ele>276.0</ele><time>2026-05-01T07:43:38Z</time></trkpt><trkpt lat="44.420526059458496" lon="11.409336970592328"><ele>276.0</ele><time>2026-05-01T07:43:39Z</time></trkpt><trkpt lat="44.42058859447209" lon="11.409291731198435"><ele>276.0</ele><time>2026-05-01T07:43:40Z</time></trkpt><trkpt lat="44.420653395520006" lon="11.409241539999154"><ele>275.0</ele><time>2026-05-01T07:43:41Z</time></trkpt><trkpt lat="44.42072274867565" lon="11.409187821110336"><ele>274.0</ele><time>2026-05-01T07:43:42Z</time></trkpt><trkpt lat="44.420788336263286" lon="11.409137017749456"><ele>273.0</ele><time>2026-05-01T07:43:43Z</time></trkpt><trkpt lat="44.42085490860915" lon="11.409083541223456"><ele>272.0</ele><time>2026-05-01T07:43:44Z</time></trkpt><trkpt lat="44.420927823159694" lon="11.409025511475997"><ele>271.0</ele><time>2026-05-01T07:43:45Z</time></trkpt><trkpt lat="44.42099652117505" lon="11.408970837534163"><ele>270.0</ele><time>2026-05-01T07:43:46Z</time></trkpt><trkpt lat="44.4210633341256" lon="11.408917663837999"><ele>270.0</ele><time>2026-05-01T07:43:47Z</time></trkpt><trkpt lat="44.42112934449255" lon="11.408865128826708"><ele>270.0</ele><time>2026-05-01T07:43:48Z</time></trkpt><trkpt lat="44.42120056717703" lon="11.408808445467965"><ele>270.0</ele><time>2026-05-01T07:43:49Z</time></trkpt><trkpt lat="44.421269979346725" lon="11.40875320319329"><ele>270.0</ele><time>2026-05-01T07:43:50Z</time></trkpt><trkpt lat="44.421338904838095" lon="11.408698348197706"><ele>270.0</ele><time>2026-05-01T07:43:51Z</time></trkpt><trkpt lat="44.4214073158285" lon="11.408643902693559"><ele>270.0</ele><time>2026-05-01T07:43:52Z</time></trkpt><trkpt lat="44.42147728047102" lon="11.408572708229848"><ele>268.6666666666667</ele><time>2026-05-01T07:43:53Z</time></trkpt><trkpt lat="44.42154960319543" lon="11.408514635720076"><ele>267.3333333333333</ele><time>2026-05-01T07:43:54Z</time></trkpt><trkpt lat="44.421613388852315" lon="11.408470966852962"><ele>266.0</ele><time>2026-05-01T07:43:55Z</time></trkpt><trkpt lat="44.4217036764733" lon="11.408396257185967"><ele>264.66666666666663</ele><time>2026-05-01T07:43:57Z</time></trkpt><trkpt lat="44.42177541852499" lon="11.408339163574691"><ele>263.3333333333333</ele><time>2026-05-01T07:43:59Z</time></trkpt><trkpt lat="44.42186710373157" lon="11.408270528532416"><ele>262.0</ele><time>2026-05-01T07:44:01Z</time></trkpt><trkpt lat="44.4219261694388" lon="11.40822581424292"><ele>262.0</ele><time>2026-05-01T07:44:02Z</time></trkpt><trkpt lat="44.42199227390742" lon="11.40817662994706"><ele>262.0</ele><time>2026-05-01T07:44:03Z</time></trkpt><trkpt lat="44.42206249721507" lon="11.408132153938384"><ele>262.0</ele><time>2026-05-01T07:44:04Z</time></trkpt><trkpt lat="44.42215004924066" lon="11.40810602147944"><ele>262.0</ele><time>2026-05-01T07:44:05Z</time></trkpt><trkpt lat="44.422228051210254" lon="11.408043957900857"><ele>262.0</ele><time>2026-05-01T07:44:06Z</time></trkpt><trkpt lat="44.42230596151629" lon="11.408023090446504"><ele>262.0</ele><time>2026-05-01T07:44:07Z</time></trkpt><trkpt lat="44.4224107073891" lon="11.40796737528644"><ele>259.16666666666663</ele><time>2026-05-01T07:44:09Z</time></trkpt><trkpt lat="44.422493252323214" lon="11.407926840269587"><ele>256.3333333333333</ele><time>2026-05-01T07:44:11Z</time></trkpt><trkpt lat="44.42256632716003" lon="11.407906319016611"><ele>253.5</ele><time>2026-05-01T07:44:13Z</time></trkpt><trkpt lat="44.422622187343606" lon="11.407971723576043"><ele>250.66666666666669</ele><time>2026-05-01T07:44:14Z</time></trkpt><trkpt lat="44.42271795194212" lon="11.407917343038024"><ele>247.83333333333334</ele><time>2026-05-01T07:44:16Z</time></trkpt><trkpt lat="44.422808159770334" lon="11.407873773244482"><ele>245.0</ele><time>2026-05-01T07:44:18Z</time></trkpt><trkpt lat="44.422872803270124" lon="11.407841204414114"><ele>245.0</ele><time>2026-05-01T07:44:21Z</time></trkpt><trkpt lat="44.422938392291066" lon="11.407838983129842"><ele>245.0</ele><time>2026-05-01T07:44:25.999Z</time></trkpt><trkpt lat="44.4219261694388" lon="11.40822581424292"><ele>245.00000000000003</ele><time>2026-05-01T07:44:02Z</time></trkpt><trkpt lat="44.42199227390742" lon="11.40817662994706"><ele>245.0</ele><time>2026-05-01T07:44:03Z</time></trkpt><trkpt lat="44.42206249721507" lon="11.408132153938384"><ele>245.0</ele><time>2026-05-01T07:44:04Z</time></trkpt><trkpt lat="44.42215004924066" lon="11.40810602147944"><ele>245.0</ele><time>2026-05-01T07:44:05Z</time></trkpt><trkpt lat="44.422228051210254" lon="11.408043957900857"><ele>245.00000000000003</ele><time>2026-05-01T07:44:06Z</time></trkpt><trkpt lat="44.42230596151629" lon="11.408023090446504"><ele>245.0</ele><time>2026-05-01T07:44:07Z</time></trkpt><trkpt lat="44.4224107073891" lon="11.40796737528644"><ele>245.00000000000003</ele><time>2026-05-01T07:44:09Z</time></trkpt><trkpt lat="44.422493252323214" lon="11.407926840269587"><ele>245.0</ele><time>2026-05-01T07:44:11Z</time></trkpt><trkpt lat="44.42256632716003" lon="11.407906319016611"><ele>245.0</ele><time>2026-05-01T07:44:13Z</time></trkpt><trkpt lat="44.422622187343606" lon="11.407971723576043"><ele>245.0</ele><time>2026-05-01T07:44:14Z</time></trkpt><trkpt lat="44.42271795194212" lon="11.407917343038024"><ele>245.00000000000003</ele><time>2026-05-01T07:44:16Z</time></trkpt><trkpt lat="44.422808159770334" lon="11.407873773244482"><ele>245.0</ele><time>2026-05-01T07:44:18Z</time></trkpt><trkpt lat="44.422872803270124" lon="11.407841204414114"><ele>245.00000000000003</ele><time>2026-05-01T07:44:21Z</time></trkpt><trkpt lat="44.422938392291066" lon="11.407838983129842"><ele>245.0</ele><time>2026-05-01T07:44:25.999Z</time></trkpt><trkpt lat="44.42299586538643" lon="11.40787801436861"><ele>245.0</ele><time>2026-05-01T07:46:03Z</time></trkpt><trkpt lat="44.423067890339816" lon="11.4078909161367"><ele>245.0</ele><time>2026-05-01T07:46:06Z</time></trkpt><trkpt lat="44.42313454872767" lon="11.407919294366256"><ele>245.00000000000003</ele><time>2026-05-01T07:46:08Z</time></trkpt><trkpt lat="44.42322480369029" lon="11.4079330996499"><ele>245.0</ele><time>2026-05-01T07:46:10Z</time></trkpt><trkpt lat="44.42333424260751" lon="11.407940899783885"><ele>244.66666666666669</ele><time>2026-05-01T07:46:12Z</time></trkpt><trkpt lat="44.42345281120092" lon="11.407976782746037"><ele>244.33333333333334</ele><time>2026-05-01T07:46:14Z</time></trkpt><trkpt lat="44.42351898195057" lon="11.407986503700126"><ele>244.0</ele><time>2026-05-01T07:46:15Z</time></trkpt><trkpt lat="44.42358864554702" lon="11.407996737796058"><ele>243.66666666666669</ele><time>2026-05-01T07:46:16Z</time></trkpt><trkpt lat="44.423660056422214" lon="11.408007228568088"><ele>243.33333333333334</ele><time>2026-05-01T07:46:17Z</time></trkpt><trkpt lat="44.423731501895524" lon="11.408017724421864"><ele>243.0</ele><time>2026-05-01T07:46:18Z</time></trkpt><trkpt lat="44.42380774949501" lon="11.408030383391395"><ele>243.33333333333334</ele><time>2026-05-01T07:46:19Z</time></trkpt><trkpt lat="44.42388043424294" lon="11.40804376493852"><ele>243.66666666666669</ele><time>2026-05-01T07:46:20Z</time></trkpt><trkpt lat="44.42395172334395" lon="11.408058806829747"><ele>244.0</ele><time>2026-05-01T07:46:21Z</time></trkpt><trkpt lat="44.42402449748044" lon="11.4080948046597"><ele>244.33333333333334</ele><time>2026-05-01T07:46:22Z</time></trkpt><trkpt lat="44.42410443200499" lon="11.408158019698227"><ele>244.66666666666669</ele><time>2026-05-01T07:46:23Z</time></trkpt><trkpt lat="44.42418433852221" lon="11.408241399823117"><ele>245.0</ele><time>2026-05-01T07:46:24Z</time></trkpt><trkpt lat="44.424241729275074" lon="11.408324410344045"><ele>245.00000000000003</ele><time>2026-05-01T07:46:25Z</time></trkpt><trkpt lat="44.42429626437187" lon="11.408410230944593"><ele>245.0</ele><time>2026-05-01T07:46:26Z</time></trkpt><trkpt lat="44.424348453314444" lon="11.408498913564248"><ele>245.0</ele><time>2026-05-01T07:46:27Z</time></trkpt><trkpt lat="44.42440180030715" lon="11.408587162859442"><ele>245.0</ele><time>2026-05-01T07:46:28Z</time></trkpt><trkpt lat="44.42445782567046" lon="11.40867204367034"><ele>245.00000000000003</ele><time>2026-05-01T07:46:29Z</time></trkpt><trkpt lat="44.42453230825306" lon="11.408748960170627"><ele>245.0</ele><time>2026-05-01T07:46:30Z</time></trkpt><trkpt lat="44.42461304577039" lon="11.40877656834838"><ele>244.66666666666669</ele><time>2026-05-01T07:46:31Z</time></trkpt><trkpt lat="44.42467619034601" lon="11.408808123837101"><ele>244.33333333333334</ele><time>2026-05-01T07:46:31.999Z</time></trkpt><trkpt lat="44.424741681937654" lon="11.408816499537796"><ele>244.0</ele><time>2026-05-01T07:46:32.999Z</time></trkpt><trkpt lat="44.42483848968054" lon="11.408788448248071"><ele>243.66666666666669</ele><time>2026-05-01T07:46:34.999Z</time></trkpt><trkpt lat="44.42492162357427" lon="11.408769636854634"><ele>243.33333333333334</ele><time>2026-05-01T07:46:36.999Z</time></trkpt><trkpt lat="44.425001176249914" lon="11.408747134320711"><ele>243.0</ele><time>2026-05-01T07:46:38.999Z</time></trkpt><trkpt lat="44.42507453837164" lon="11.408711551593061"><ele>243.0</ele><time>2026-05-01T07:46:40.999Z</time></trkpt><trkpt lat="44.425137341789714" lon="11.408671652886627"><ele>243.0</ele><time>2026-05-01T07:46:42.999Z</time></trkpt><trkpt lat="44.42521456657215" lon="11.40860035755736"><ele>243.0</ele><time>2026-05-01T07:46:44.999Z</time></trkpt><trkpt lat="44.42532111389694" lon="11.408539666173471"><ele>243.0</ele><time>2026-05-01T07:46:46.999Z</time></trkpt><trkpt lat="44.42538126889379" lon="11.40848745103283"><ele>243.0</ele><time>2026-05-01T07:46:47.999Z</time></trkpt><trkpt lat="44.4254481872749" lon="11.408477819608306"><ele>243.0</ele><time>2026-05-01T07:46:48.999Z</time></trkpt><trkpt lat="44.42551625359009" lon="11.40841735507196"><ele>243.83333333333334</ele><time>2026-05-01T07:46:49.999Z</time></trkpt><trkpt lat="44.42558559967769" lon="11.408355728527356"><ele>244.66666666666669</ele><time>2026-05-01T07:46:50.999Z</time></trkpt><trkpt lat="44.4256536046488" lon="11.408291439276736"><ele>245.5</ele><time>2026-05-01T07:46:51.999Z</time></trkpt><trkpt lat="44.425706263737524" lon="11.408213454756869"><ele>246.33333333333334</ele><time>2026-05-01T07:46:52.999Z</time></trkpt><trkpt lat="44.425774868969945" lon="11.408182784542593"><ele>247.16666666666669</ele><time>2026-05-01T07:46:53.999Z</time></trkpt><trkpt lat="44.425837946606755" lon="11.408158679293573"><ele>248.0</ele><time>2026-05-01T07:46:54.999Z</time></trkpt><trkpt lat="44.42595611335474" lon="11.408153825983351"><ele>248.00000000000003</ele><time>2026-05-01T07:46:56.999Z</time></trkpt><trkpt lat="44.42605051905802" lon="11.408159286258048"><ele>248.0</ele><time>2026-05-01T07:46:57.999Z</time></trkpt><trkpt lat="44.42612231868842" lon="11.40816232268831"><ele>248.0</ele><time>2026-05-01T07:46:58.999Z</time></trkpt><trkpt lat="44.42620142220963" lon="11.408184369423688"><ele>248.0</ele><time>2026-05-01T07:46:59.999Z</time></trkpt><trkpt lat="44.42626972006379" lon="11.408195405792315"><ele>248.00000000000003</ele><time>2026-05-01T07:47:00.999Z</time></trkpt><trkpt lat="44.4263883079482" lon="11.408197557756507"><ele>248.0</ele><time>2026-05-01T07:47:02.999Z</time></trkpt><trkpt lat="44.426457920322946" lon="11.408192735789553"><ele>247.8</ele><time>2026-05-01T07:47:03.999Z</time></trkpt><trkpt lat="44.426523990123954" lon="11.408209863725547"><ele>247.60000000000002</ele><time>2026-05-01T07:47:04.999Z</time></trkpt><trkpt lat="44.42658467428672" lon="11.40825038629782"><ele>247.39999999999998</ele><time>2026-05-01T07:47:05.999Z</time></trkpt><trkpt lat="44.42670246118787" lon="11.408270311411453"><ele>247.2</ele><time>2026-05-01T07:47:07.999Z</time></trkpt><trkpt lat="44.426815398428" lon="11.40826220577551"><ele>247.0</ele><time>2026-05-01T07:47:09.999Z</time></trkpt><trkpt lat="44.42689810738008" lon="11.408303575524391"><ele>246.99999999999997</ele><time>2026-05-01T07:47:11.999Z</time></trkpt><trkpt lat="44.42698379167013" lon="11.408326481772805"><ele>247.0</ele><time>2026-05-01T07:47:14.999Z</time></trkpt><trkpt lat="44.427060329096435" lon="11.408357365532513"><ele>247.0</ele><time>2026-05-01T07:47:17.999Z</time></trkpt><trkpt lat="44.42712790965015" lon="11.408409100008548"><ele>247.0</ele><time>2026-05-01T07:47:20.999Z</time></trkpt><trkpt lat="44.42718691305478" lon="11.408496573835425"><ele>246.99999999999997</ele><time>2026-05-01T07:47:23.999Z</time></trkpt><trkpt lat="44.42719766800627" lon="11.408590264302237"><ele>247.0</ele><time>2026-05-01T07:47:27Z</time></trkpt><trkpt lat="44.42717653296046" lon="11.408692150666674"><ele>247.0</ele><time>2026-05-01T07:47:30Z</time></trkpt><trkpt lat="44.42713742194371" lon="11.40878049834921"><ele>247.0</ele><time>2026-05-01T07:47:33Z</time></trkpt><trkpt lat="44.42710748928027" lon="11.408900996238506"><ele>247.0</ele><time>2026-05-01T07:47:36Z</time></trkpt><trkpt lat="44.42706125860633" lon="11.409037898714843"><ele>247.0</ele><time>2026-05-01T07:47:38Z</time></trkpt><trkpt lat="44.42700534937677" lon="11.409200006544937"><ele>247.0</ele><time>2026-05-01T07:47:40Z</time></trkpt><trkpt lat="44.42694411140323" lon="11.409252341860553"><ele>247.66666666666666</ele><time>2026-05-01T07:47:41Z</time></trkpt><trkpt lat="44.42692740007737" lon="11.409356647440543"><ele>248.33333333333331</ele><time>2026-05-01T07:47:42Z</time></trkpt><trkpt lat="44.426886098582564" lon="11.40945572829146"><ele>249.0</ele><time>2026-05-01T07:47:43Z</time></trkpt><trkpt lat="44.42684231537006" lon="11.409542712061173"><ele>249.66666666666669</ele><time>2026-05-01T07:47:44Z</time></trkpt><trkpt lat="44.42679894554126" lon="11.409619859049881"><ele>250.33333333333334</ele><time>2026-05-01T07:47:45Z</time></trkpt><trkpt lat="44.42675519033991" lon="11.409696089472233"><ele>251.0</ele><time>2026-05-01T07:47:46Z</time></trkpt><trkpt lat="44.426670217878026" lon="11.409757114404055"><ele>251.00000000000003</ele><time>2026-05-01T07:47:48Z</time></trkpt><trkpt lat="44.42661740721641" lon="11.409831470974583"><ele>251.0</ele><time>2026-05-01T07:47:52Z</time></trkpt><trkpt lat="44.42656338423182" lon="11.409885943449728"><ele>251.0</ele><time>2026-05-01T07:47:54Z</time></trkpt><trkpt lat="44.42650855525049" lon="11.409993958740417"><ele>251.0</ele><time>2026-05-01T07:47:57Z</time></trkpt><trkpt lat="44.42645436863817" lon="11.41005968001938"><ele>251.00000000000003</ele><time>2026-05-01T07:47:59Z</time></trkpt><trkpt lat="44.42642505388987" lon="11.410170039284905"><ele>251.0</ele><time>2026-05-01T07:48:02Z</time></trkpt><trkpt lat="44.426443774930775" lon="11.410299161037253"><ele>251.00000000000003</ele><time>2026-05-01T07:48:04Z</time></trkpt><trkpt lat="44.42650221284791" lon="11.410392542734956"><ele>251.0</ele><time>2026-05-01T07:48:06Z</time></trkpt><trkpt lat="44.42656280688735" lon="11.410452362067847"><ele>251.0</ele><time>2026-05-01T07:48:08Z</time></trkpt><trkpt lat="44.426595883119646" lon="11.410534412119908"><ele>251.0</ele><time>2026-05-01T07:48:10Z</time></trkpt><trkpt lat="44.42665380558021" lon="11.41061574072"><ele>251.00000000000003</ele><time>2026-05-01T07:48:13Z</time></trkpt><trkpt lat="44.42667956712907" lon="11.410760678816555"><ele>251.0</ele><time>2026-05-01T07:48:15Z</time></trkpt><trkpt lat="44.426746840210065" lon="11.410873193821349"><ele>251.8</ele><time>2026-05-01T07:48:17Z</time></trkpt><trkpt lat="44.42681741484513" lon="11.41095703024671"><ele>252.60000000000002</ele><time>2026-05-01T07:48:19Z</time></trkpt><trkpt lat="44.42690150646357" lon="11.411010228241631"><ele>253.4</ele><time>2026-05-01T07:48:21Z</time></trkpt><trkpt lat="44.42701424942196" lon="11.411028679940609"><ele>254.2</ele><time>2026-05-01T07:48:23Z</time></trkpt><trkpt lat="44.4270970875477" lon="11.410964422097546"><ele>255.0</ele><time>2026-05-01T07:48:25Z</time></trkpt><trkpt lat="44.427262430901635" lon="11.41096445076837"><ele>253.6</ele><time>2026-05-01T07:48:32Z</time></trkpt><trkpt lat="44.4273061662979" lon="11.411064595429899"><ele>252.2</ele><time>2026-05-01T07:48:35Z</time></trkpt><trkpt lat="44.427384155685594" lon="11.411190692318655"><ele>250.8</ele><time>2026-05-01T07:48:37Z</time></trkpt><trkpt lat="44.42742923424691" lon="11.411353747475335"><ele>249.4</ele><time>2026-05-01T07:48:39Z</time></trkpt><trkpt lat="44.427467646164274" lon="11.411427811456267"><ele>248.0</ele><time>2026-05-01T07:48:40Z</time></trkpt><trkpt lat="44.42749286059512" lon="11.41151520627768"><ele>248.00000000000003</ele><time>2026-05-01T07:48:41Z</time></trkpt><trkpt lat="44.4275506281927" lon="11.411586211436925"><ele>248.0</ele><time>2026-05-01T07:48:42Z</time></trkpt><trkpt lat="44.427607941442886" lon="11.41165074980879"><ele>248.0</ele><time>2026-05-01T07:48:43Z</time></trkpt><trkpt lat="44.42766730807773" lon="11.411689100073348"><ele>248.0</ele><time>2026-05-01T07:48:44Z</time></trkpt><trkpt lat="44.42771554297141" lon="11.411756011237479"><ele>248.00000000000003</ele><time>2026-05-01T07:48:45Z</time></trkpt><trkpt lat="44.42780017763685" lon="11.411843384090828"><ele>248.0</ele><time>2026-05-01T07:48:47Z</time></trkpt><trkpt lat="44.42785727913019" lon="11.411915368889577"><ele>248.00000000000003</ele><time>2026-05-01T07:48:49Z</time></trkpt><trkpt lat="44.427952481652945" lon="11.412031414337832"><ele>248.0</ele><time>2026-05-01T07:48:50.999Z</time></trkpt><trkpt lat="44.42798602876283" lon="11.412116122421986"><ele>248.0</ele><time>2026-05-01T07:48:51.999Z</time></trkpt><trkpt lat="44.428031868117" lon="11.412197777966975"><ele>248.0</ele><time>2026-05-01T07:48:52.999Z</time></trkpt><trkpt lat="44.428093921794535" lon="11.412280413409396"><ele>248.00000000000003</ele><time>2026-05-01T07:48:53.999Z</time></trkpt><trkpt lat="44.42811458373482" lon="11.412368633690415"><ele>248.0</ele><time>2026-05-01T07:48:54.999Z</time></trkpt><trkpt lat="44.42816939710511" lon="11.412432762906047"><ele>245.60000000000002</ele><time>2026-05-01T07:48:55.999Z</time></trkpt><trkpt lat="44.42821673367019" lon="11.41250747036251"><ele>243.20000000000002</ele><time>2026-05-01T07:48:56.999Z</time></trkpt><trkpt lat="44.4282527467255" lon="11.412628254963629"><ele>240.8</ele><time>2026-05-01T07:48:58.999Z</time></trkpt><trkpt lat="44.428273702495176" lon="11.412783671200394"><ele>238.4</ele><time>2026-05-01T07:49:00.999Z</time></trkpt><trkpt lat="44.42827666904457" lon="11.412945591415891"><ele>236.0</ele><time>2026-05-01T07:49:02.999Z</time></trkpt><trkpt lat="44.42828358193169" lon="11.413088500148591"><ele>236.0</ele><time>2026-05-01T07:49:04.999Z</time></trkpt><trkpt lat="44.42830660444311" lon="11.41325183819576"><ele>236.00000000000003</ele><time>2026-05-01T07:49:06.999Z</time></trkpt><trkpt lat="44.428312074324985" lon="11.413344036762275"><ele>236.00000000000003</ele><time>2026-05-01T07:49:07.999Z</time></trkpt><trkpt lat="44.42834304448572" lon="11.413481120473262"><ele>236.0</ele><time>2026-05-01T07:49:09.999Z</time></trkpt><trkpt lat="44.42840242699826" lon="11.413619069038788"><ele>236.0</ele><time>2026-05-01T07:49:11.999Z</time></trkpt><trkpt lat="44.42845247789031" lon="11.413743276146535"><ele>236.0</ele><time>2026-05-01T07:49:13.999Z</time></trkpt><trkpt lat="44.428566414148904" lon="11.413740751180404"><ele>236.00000000000003</ele><time>2026-05-01T07:49:15.999Z</time></trkpt><trkpt lat="44.428666810220186" lon="11.413759439778824"><ele>236.00000000000003</ele><time>2026-05-01T07:49:17.999Z</time></trkpt><trkpt lat="44.42874767646622" lon="11.413794663327657"><ele>236.0</ele><time>2026-05-01T07:49:19.999Z</time></trkpt><trkpt lat="44.4288163674106" lon="11.413836201326102"><ele>236.0</ele><time>2026-05-01T07:49:22.999Z</time></trkpt><trkpt lat="44.428893408666106" lon="11.413931300817634"><ele>234.0</ele><time>2026-05-01T07:49:24.999Z</time></trkpt><trkpt lat="44.428935964420326" lon="11.413997299074918"><ele>232.00000000000003</ele><time>2026-05-01T07:49:25.999Z</time></trkpt><trkpt lat="44.42891367308651" lon="11.414146916048438"><ele>230.00000000000003</ele><time>2026-05-01T07:49:27.999Z</time></trkpt><trkpt lat="44.42892262856132" lon="11.414296403464226"><ele>228.0</ele><time>2026-05-01T07:49:29.999Z</time></trkpt><trkpt lat="44.428976837895036" lon="11.414462247055292"><ele>226.0</ele><time>2026-05-01T07:49:32Z</time></trkpt><trkpt lat="44.429023276992034" lon="11.414549716249732"><ele>225.99999999999997</ele><time>2026-05-01T07:49:33Z</time></trkpt><trkpt lat="44.42905003410807" lon="11.414642941217481"><ele>226.0</ele><time>2026-05-01T07:49:34Z</time></trkpt><trkpt lat="44.42907504425839" lon="11.414726675516803"><ele>226.0</ele><time>2026-05-01T07:49:35Z</time></trkpt><trkpt lat="44.42915469625185" lon="11.41486446109839"><ele>226.0</ele><time>2026-05-01T07:49:37Z</time></trkpt><trkpt lat="44.4292088648448" lon="11.414914076076764"><ele>225.99999999999997</ele><time>2026-05-01T07:49:38Z</time></trkpt><trkpt lat="44.42932227117868" lon="11.414966519935719"><ele>226.0</ele><time>2026-05-01T07:49:40Z</time></trkpt><trkpt lat="44.429399822829325" lon="11.414981239757571"><ele>226.16666666666666</ele><time>2026-05-01T07:49:42Z</time></trkpt><trkpt lat="44.429498746989104" lon="11.414983669418858"><ele>226.33333333333331</ele><time>2026-05-01T07:49:44Z</time></trkpt><trkpt lat="44.42957714705271" lon="11.414980828534565"><ele>226.5</ele><time>2026-05-01T07:49:46Z</time></trkpt><trkpt lat="44.42964155318665" lon="11.41497849472064"><ele>226.66666666666669</ele><time>2026-05-01T07:49:49Z</time></trkpt><trkpt lat="44.429720045909754" lon="11.414973616806844"><ele>226.83333333333334</ele><time>2026-05-01T07:49:52Z</time></trkpt><trkpt lat="44.42980517298337" lon="11.414966583186796"><ele>227.0</ele><time>2026-05-01T07:49:54Z</time></trkpt><trkpt lat="44.42987564589461" lon="11.41493898673067"><ele>227.00000000000003</ele><time>2026-05-01T07:49:56Z</time></trkpt><trkpt lat="44.429953825640325" lon="11.414906690239253"><ele>227.0</ele><time>2026-05-01T07:49:58Z</time></trkpt><trkpt lat="44.43002072871454" lon="11.414889093259303"><ele>227.0</ele><time>2026-05-01T07:50:00Z</time></trkpt><trkpt lat="44.430100672446684" lon="11.414900324018987"><ele>227.0</ele><time>2026-05-01T07:50:02Z</time></trkpt><trkpt lat="44.4301962406789" lon="11.414925585353117"><ele>227.00000000000003</ele><time>2026-05-01T07:50:05Z</time></trkpt><trkpt lat="44.430280084633765" lon="11.414972121344281"><ele>227.0</ele><time>2026-05-01T07:50:08Z</time></trkpt><trkpt lat="44.43035954747996" lon="11.41504123324272"><ele>227.00000000000003</ele><time>2026-05-01T07:50:11Z</time></trkpt><trkpt lat="44.43042295108728" lon="11.415088224130683"><ele>227.0</ele><time>2026-05-01T07:50:13Z</time></trkpt><trkpt lat="44.430491509379124" lon="11.415160305718562"><ele>227.0</ele><time>2026-05-01T07:50:17Z</time></trkpt><trkpt lat="44.4305678349356" lon="11.41520759685241"><ele>227.0</ele><time>2026-05-01T07:50:21Z</time></trkpt><trkpt lat="44.43063642271922" lon="11.41526638151105"><ele>227.00000000000003</ele><time>2026-05-01T07:50:25Z</time></trkpt><trkpt lat="44.43069068673743" lon="11.415341261806606"><ele>227.0</ele><time>2026-05-01T07:50:29Z</time></trkpt><trkpt lat="44.43074873283609" lon="11.415402877195895"><ele>226.66666666666669</ele><time>2026-05-01T07:50:33Z</time></trkpt><trkpt lat="44.430795745316125" lon="11.415502320755975"><ele>226.33333333333334</ele><time>2026-05-01T07:50:37Z</time></trkpt><trkpt lat="44.43083022463665" lon="11.41560970297785"><ele>226.0</ele><time>2026-05-01T07:50:40Z</time></trkpt><trkpt lat="44.430856583640136" lon="11.415720380519598"><ele>225.66666666666669</ele><time>2026-05-01T07:50:42Z</time></trkpt><trkpt lat="44.43088080881932" lon="11.415854389661467"><ele>225.33333333333334</ele><time>2026-05-01T07:50:44Z</time></trkpt><trkpt lat="44.43090904199753" lon="11.41596575159852"><ele>225.0</ele><time>2026-05-01T07:50:45.999Z</time></trkpt><trkpt lat="44.4309557543281" lon="11.4161071417486"><ele>225.0</ele><time>2026-05-01T07:50:47.999Z</time></trkpt><trkpt lat="44.430978914347946" lon="11.416282879405983"><ele>225.0</ele><time>2026-05-01T07:50:49.999Z</time></trkpt><trkpt lat="44.43101297558734" lon="11.416381572205692"><ele>225.0</ele><time>2026-05-01T07:50:50.999Z</time></trkpt><trkpt lat="44.431029823460726" lon="11.41648821690158"><ele>225.0</ele><time>2026-05-01T07:50:51.999Z</time></trkpt><trkpt lat="44.4310715984461" lon="11.416582516016998"><ele>225.0</ele><time>2026-05-01T07:50:52.999Z</time></trkpt><trkpt lat="44.43108823735087" lon="11.416689305901334"><ele>225.0</ele><time>2026-05-01T07:50:53.999Z</time></trkpt><trkpt lat="44.43110301028354" lon="11.416821002239823"><ele>223.8</ele><time>2026-05-01T07:50:55.999Z</time></trkpt><trkpt lat="44.43109508513137" lon="11.416963507208948"><ele>222.6</ele><time>2026-05-01T07:50:57.999Z</time></trkpt><trkpt lat="44.431005435574335" lon="11.417044231115861"><ele>221.39999999999998</ele><time>2026-05-01T07:50:59.999Z</time></trkpt><trkpt lat="44.43095856964554" lon="11.41716195159066"><ele>220.2</ele><time>2026-05-01T07:51:00.999Z</time></trkpt><trkpt lat="44.43092146192962" lon="11.417300900853947"><ele>219.0</ele><time>2026-05-01T07:51:01.999Z</time></trkpt><trkpt lat="44.43089337188886" lon="11.417393113689679"><ele>219.0</ele><time>2026-05-01T07:51:02.999Z</time></trkpt><trkpt lat="44.43085969290748" lon="11.417544797582675"><ele>219.0</ele><time>2026-05-01T07:51:04.999Z</time></trkpt><trkpt lat="44.43081358492416" lon="11.417702870012414"><ele>219.0</ele><time>2026-05-01T07:51:06.999Z</time></trkpt><trkpt lat="44.43076904402682" lon="11.417874446350767"><ele>219.0</ele><time>2026-05-01T07:51:08.999Z</time></trkpt><trkpt lat="44.430730246187785" lon="11.418018891973887"><ele>219.0</ele><time>2026-05-01T07:51:10.999Z</time></trkpt><trkpt lat="44.4306862110702" lon="11.41815388823808"><ele>218.99999999999997</ele><time>2026-05-01T07:51:12.999Z</time></trkpt><trkpt lat="44.430685231976916" lon="11.418307347972311"><ele>218.99999999999997</ele><time>2026-05-01T07:51:14.999Z</time></trkpt><trkpt lat="44.43070583957916" lon="11.41843589731845"><ele>219.0</ele><time>2026-05-01T07:51:16.999Z</time></trkpt><trkpt lat="44.4307520989281" lon="11.418535659772619"><ele>219.0</ele><time>2026-05-01T07:51:18.999Z</time></trkpt><trkpt lat="44.43077769652714" lon="11.41863337302326"><ele>219.0</ele><time>2026-05-01T07:51:20.999Z</time></trkpt><trkpt lat="44.43079190049266" lon="11.418729924341186"><ele>219.0</ele><time>2026-05-01T07:51:22.999Z</time></trkpt><trkpt lat="44.430808749462294" lon="11.418860177244905"><ele>219.0</ele><time>2026-05-01T07:51:25.999Z</time></trkpt><trkpt lat="44.43083038385975" lon="11.418975938765872"><ele>219.0</ele><time>2026-05-01T07:51:28.999Z</time></trkpt><trkpt lat="44.4308397865473" lon="11.41908065772529"><ele>219.0</ele><time>2026-05-01T07:51:31.999Z</time></trkpt><trkpt lat="44.43085612825384" lon="11.41918401543812"><ele>219.0</ele><time>2026-05-01T07:51:34.999Z</time></trkpt><trkpt lat="44.43086701958576" lon="11.419285087311682"><ele>220.14285714285717</ele><time>2026-05-01T07:51:38Z</time></trkpt><trkpt lat="44.43087652061306" lon="11.419384077828301"><ele>221.28571428571428</ele><time>2026-05-01T07:51:41Z</time></trkpt><trkpt lat="44.43089741019576" lon="11.419482686045306"><ele>222.42857142857144</ele><time>2026-05-01T07:51:44Z</time></trkpt><trkpt lat="44.43093265556171" lon="11.419556101040143"><ele>223.57142857142858</ele><time>2026-05-01T07:51:46Z</time></trkpt><trkpt lat="44.430997273252395" lon="11.419653392722934"><ele>224.71428571428572</ele><time>2026-05-01T07:51:49Z</time></trkpt><trkpt lat="44.43105364403766" lon="11.419717736656136"><ele>225.85714285714286</ele><time>2026-05-01T07:51:51Z</time></trkpt><trkpt lat="44.43109723148744" lon="11.419782652212533"><ele>227.0</ele><time>2026-05-01T07:51:53Z</time></trkpt><trkpt lat="44.43113390410396" lon="11.419865355618585"><ele>227.83333333333334</ele><time>2026-05-01T07:51:55Z</time></trkpt><trkpt lat="44.431168142216904" lon="11.419975666794388"><ele>228.66666666666669</ele><time>2026-05-01T07:51:57Z</time></trkpt><trkpt lat="44.431144025743" lon="11.420121872280543"><ele>229.5</ele><time>2026-05-01T07:51:59Z</time></trkpt><trkpt lat="44.431111037682356" lon="11.420197590820683"><ele>230.33333333333331</ele><time>2026-05-01T07:52:00Z</time></trkpt><trkpt lat="44.43106650893844" lon="11.42027026539127"><ele>231.16666666666666</ele><time>2026-05-01T07:52:01Z</time></trkpt><trkpt lat="44.43102347590009" lon="11.420355805367386"><ele>232.0</ele><time>2026-05-01T07:52:02Z</time></trkpt><trkpt lat="44.43097925333609" lon="11.420444749801877"><ele>230.49999999999997</ele><time>2026-05-01T07:52:03Z</time></trkpt><trkpt lat="44.4309398060991" lon="11.420547247248257"><ele>229.0</ele><time>2026-05-01T07:52:04Z</time></trkpt><trkpt lat="44.43089548961416" lon="11.420656103293547"><ele>227.5</ele><time>2026-05-01T07:52:05Z</time></trkpt><trkpt lat="44.430846033727605" lon="11.420758288427896"><ele>226.0</ele><time>2026-05-01T07:52:06Z</time></trkpt><trkpt lat="44.43080253006062" lon="11.420861511529617"><ele>224.49999999999997</ele><time>2026-05-01T07:52:07Z</time></trkpt><trkpt lat="44.430764499917494" lon="11.420969455281664"><ele>223.0</ele><time>2026-05-01T07:52:08Z</time></trkpt><trkpt lat="44.430735572135944" lon="11.421086025089888"><ele>223.0</ele><time>2026-05-01T07:52:09Z</time></trkpt><trkpt lat="44.430739457225414" lon="11.421220032743225"><ele>223.0</ele><time>2026-05-01T07:52:10Z</time></trkpt><trkpt lat="44.43075041081247" lon="11.421351085349391"><ele>223.0</ele><time>2026-05-01T07:52:11Z</time></trkpt><trkpt lat="44.430757593034556" lon="11.421487213815139"><ele>223.0</ele><time>2026-05-01T07:52:12Z</time></trkpt><trkpt lat="44.43076061075334" lon="11.42162066293103"><ele>223.0</ele><time>2026-05-01T07:52:13Z</time></trkpt><trkpt lat="44.430757883115945" lon="11.421752047256541"><ele>221.8</ele><time>2026-05-01T07:52:14Z</time></trkpt><trkpt lat="44.430762056102935" lon="11.42188370357613"><ele>220.60000000000002</ele><time>2026-05-01T07:52:15Z</time></trkpt><trkpt lat="44.43076859199703" lon="11.422012142223839"><ele>219.39999999999998</ele><time>2026-05-01T07:52:16Z</time></trkpt><trkpt lat="44.43079265227772" lon="11.422139009508276"><ele>218.2</ele><time>2026-05-01T07:52:17Z</time></trkpt><trkpt lat="44.43084124612331" lon="11.422245910174407"><ele>217.0</ele><time>2026-05-01T07:52:18Z</time></trkpt><trkpt lat="44.43088963016067" lon="11.422353002846133"><ele>216.33333333333331</ele><time>2026-05-01T07:52:19Z</time></trkpt><trkpt lat="44.43094145917649" lon="11.422446510268523"><ele>215.66666666666666</ele><time>2026-05-01T07:52:20Z</time></trkpt><trkpt lat="44.43098746344366" lon="11.422550747591325"><ele>215.0</ele><time>2026-05-01T07:52:21Z</time></trkpt><trkpt lat="44.43104031796727" lon="11.42264237301123"><ele>214.33333333333331</ele><time>2026-05-01T07:52:22Z</time></trkpt><trkpt lat="44.4310939834073" lon="11.422732774235417"><ele>213.66666666666666</ele><time>2026-05-01T07:52:23Z</time></trkpt><trkpt lat="44.431149355502264" lon="11.42282790379125"><ele>213.0</ele><time>2026-05-01T07:52:24Z</time></trkpt><trkpt lat="44.431208751268684" lon="11.422907858688061"><ele>212.8</ele><time>2026-05-01T07:52:25Z</time></trkpt><trkpt lat="44.43127398975641" lon="11.42300103322314"><ele>212.60000000000002</ele><time>2026-05-01T07:52:26Z</time></trkpt><trkpt lat="44.4313361402007" lon="11.423102652042262"><ele>212.39999999999998</ele><time>2026-05-01T07:52:27Z</time></trkpt><trkpt lat="44.43139012141011" lon="11.423209192026187"><ele>212.2</ele><time>2026-05-01T07:52:28Z</time></trkpt><trkpt lat="44.43144264587949" lon="11.423307423806147"><ele>212.0</ele><time>2026-05-01T07:52:29Z</time></trkpt><trkpt lat="44.431500087685365" lon="11.423386836107994"><ele>212.0</ele><time>2026-05-01T07:52:30Z</time></trkpt><trkpt lat="44.43155951794401" lon="11.423427787661659"><ele>212.0</ele><time>2026-05-01T07:52:31Z</time></trkpt><trkpt lat="44.43167950485886" lon="11.42349621682824"><ele>212.0</ele><time>2026-05-01T07:52:33Z</time></trkpt><trkpt lat="44.43175410238646" lon="11.423542819410955"><ele>212.0</ele><time>2026-05-01T07:52:34Z</time></trkpt><trkpt lat="44.43183337540681" lon="11.423610797410879"><ele>212.0</ele><time>2026-05-01T07:52:35Z</time></trkpt><trkpt lat="44.431901439720065" lon="11.423683767614639"><ele>212.00000000000003</ele><time>2026-05-01T07:52:36Z</time></trkpt><trkpt lat="44.431967573752196" lon="11.423737521528624"><ele>212.0</ele><time>2026-05-01T07:52:37Z</time></trkpt><trkpt lat="44.43204453923243" lon="11.423792377229207"><ele>212.0</ele><time>2026-05-01T07:52:38Z</time></trkpt><trkpt lat="44.43212236083122" lon="11.42385213847755"><ele>212.0</ele><time>2026-05-01T07:52:39Z</time></trkpt><trkpt lat="44.43219655936538" lon="11.423904503412976"><ele>212.00000000000003</ele><time>2026-05-01T07:52:40Z</time></trkpt><trkpt lat="44.432269761350724" lon="11.423960781771846"><ele>212.0</ele><time>2026-05-01T07:52:41Z</time></trkpt><trkpt lat="44.43236072674101" lon="11.423994112730133"><ele>210.16666666666669</ele><time>2026-05-01T07:52:42Z</time></trkpt><trkpt lat="44.43246145634794" lon="11.424002807696056"><ele>208.33333333333334</ele><time>2026-05-01T07:52:43Z</time></trkpt><trkpt lat="44.43253929453916" lon="11.424045813768444"><ele>206.5</ele><time>2026-05-01T07:52:44Z</time></trkpt><trkpt lat="44.432622495211575" lon="11.424064762557359"><ele>204.66666666666669</ele><time>2026-05-01T07:52:45Z</time></trkpt><trkpt lat="44.432686568368574" lon="11.424074223441968"><ele>202.83333333333334</ele><time>2026-05-01T07:52:46Z</time></trkpt><trkpt lat="44.43275194378289" lon="11.424079310555832"><ele>201.0</ele><time>2026-05-01T07:52:47Z</time></trkpt><trkpt lat="44.432885968568215" lon="11.42405084986433"><ele>201.0</ele><time>2026-05-01T07:52:49Z</time></trkpt><trkpt lat="44.43294946534085" lon="11.424034596887068"><ele>201.0</ele><time>2026-05-01T07:52:50Z</time></trkpt><trkpt lat="44.433012375210026" lon="11.42401996727319"><ele>201.0</ele><time>2026-05-01T07:52:51Z</time></trkpt><trkpt lat="44.433087862963596" lon="11.424035329538858"><ele>201.0</ele><time>2026-05-01T07:52:52Z</time></trkpt><trkpt lat="44.43318470232251" lon="11.424046479025508"><ele>201.0</ele><time>2026-05-01T07:52:53Z</time></trkpt><trkpt lat="44.43328129463612" lon="11.424044907896652"><ele>201.0</ele><time>2026-05-01T07:52:54Z</time></trkpt><trkpt lat="44.433381490440645" lon="11.424073881082435"><ele>197.60000000000002</ele><time>2026-05-01T07:52:55Z</time></trkpt><trkpt lat="44.43347177066638" lon="11.42409087406153"><ele>194.2</ele><time>2026-05-01T07:52:56Z</time></trkpt><trkpt lat="44.4335754911085" lon="11.424125060771864"><ele>190.8</ele><time>2026-05-01T07:52:57Z</time></trkpt><trkpt lat="44.43367351339199" lon="11.424161468062174"><ele>187.39999999999998</ele><time>2026-05-01T07:52:57.999Z</time></trkpt><trkpt lat="44.433776620826286" lon="11.42420156284844"><ele>184.0</ele><time>2026-05-01T07:52:58.999Z</time></trkpt><trkpt lat="44.43387384255433" lon="11.424255078760746"><ele>181.6</ele><time>2026-05-01T07:52:59.999Z</time></trkpt><trkpt lat="44.433946695303405" lon="11.424336879088523"><ele>179.2</ele><time>2026-05-01T07:53:00.999Z</time></trkpt><trkpt lat="44.43401637015428" lon="11.424408944421497"><ele>176.79999999999998</ele><time>2026-05-01T07:53:01.999Z</time></trkpt><trkpt lat="44.434104509388106" lon="11.424479244121569"><ele>174.39999999999998</ele><time>2026-05-01T07:53:02.999Z</time></trkpt><trkpt lat="44.43417901556077" lon="11.424577886777065"><ele>172.0</ele><time>2026-05-01T07:53:03.999Z</time></trkpt><trkpt lat="44.43424072277667" lon="11.424666504501896"><ele>171.71428571428572</ele><time>2026-05-01T07:53:04.999Z</time></trkpt><trkpt lat="44.43431014436078" lon="11.42474054905966"><ele>171.42857142857144</ele><time>2026-05-01T07:53:05.999Z</time></trkpt><trkpt lat="44.43437551124447" lon="11.424786769014897"><ele>171.14285714285717</ele><time>2026-05-01T07:53:06.999Z</time></trkpt><trkpt lat="44.4344362917677" lon="11.424836749261594"><ele>170.85714285714286</ele><time>2026-05-01T07:53:07.999Z</time></trkpt><trkpt lat="44.43448860602706" lon="11.42491126996618"><ele>170.57142857142856</ele><time>2026-05-01T07:53:08.999Z</time></trkpt><trkpt lat="44.43455379554476" lon="11.424950369423579"><ele>170.2857142857143</ele><time>2026-05-01T07:53:09.999Z</time></trkpt><trkpt lat="44.43461852546357" lon="11.424996067209245"><ele>170.0</ele><time>2026-05-01T07:53:10.999Z</time></trkpt><trkpt lat="44.43469629376557" lon="11.425059064376526"><ele>168.5</ele><time>2026-05-01T07:53:11.999Z</time></trkpt><trkpt lat="44.4347778935794" lon="11.425106223968708"><ele>167.0</ele><time>2026-05-01T07:53:12.999Z</time></trkpt><trkpt lat="44.43487192641548" lon="11.425137618825424"><ele>165.5</ele><time>2026-05-01T07:53:13.999Z</time></trkpt><trkpt lat="44.43497352656061" lon="11.42515339369335"><ele>164.0</ele><time>2026-05-01T07:53:14.999Z</time></trkpt><trkpt lat="44.4350500514349" lon="11.42520628621696"><ele>162.5</ele><time>2026-05-01T07:53:15.999Z</time></trkpt><trkpt lat="44.435123374682725" lon="11.425237775043554"><ele>161.0</ele><time>2026-05-01T07:53:16.999Z</time></trkpt><trkpt lat="44.435206845411784" lon="11.425286708833013"><ele>161.0</ele><time>2026-05-01T07:53:17.999Z</time></trkpt><trkpt lat="44.43529552447156" lon="11.425343026749017"><ele>161.0</ele><time>2026-05-01T07:53:18.999Z</time></trkpt><trkpt lat="44.435394425303144" lon="11.425413495674364"><ele>161.0</ele><time>2026-05-01T07:53:19.999Z</time></trkpt><trkpt lat="44.43550238822433" lon="11.425481163144239"><ele>161.0</ele><time>2026-05-01T07:53:20.999Z</time></trkpt><trkpt lat="44.435598235842086" lon="11.42558500754057"><ele>161.0</ele><time>2026-05-01T07:53:21.999Z</time></trkpt><trkpt lat="44.435712094464975" lon="11.42566478719298"><ele>157.0</ele><time>2026-05-01T07:53:22.999Z</time></trkpt><trkpt lat="44.43581492527055" lon="11.425744737114394"><ele>153.0</ele><time>2026-05-01T07:53:23.999Z</time></trkpt><trkpt lat="44.435892301086284" lon="11.42580689007486"><ele>149.0</ele><time>2026-05-01T07:53:24.999Z</time></trkpt><trkpt lat="44.435967363234965" lon="11.42585183422049"><ele>145.0</ele><time>2026-05-01T07:53:25.999Z</time></trkpt><trkpt lat="44.43605039928147" lon="11.425922106538229"><ele>141.0</ele><time>2026-05-01T07:53:26.999Z</time></trkpt><trkpt lat="44.43612389914512" lon="11.426004805994058"><ele>141.0</ele><time>2026-05-01T07:53:27.999Z</time></trkpt><trkpt lat="44.43617334580862" lon="11.426094052222258"><ele>141.0</ele><time>2026-05-01T07:53:28.999Z</time></trkpt><trkpt lat="44.43622331578159" lon="11.426198395966061"><ele>141.0</ele><time>2026-05-01T07:53:29.999Z</time></trkpt><trkpt lat="44.43627867442163" lon="11.426305916460224"><ele>141.0</ele><time>2026-05-01T07:53:30.999Z</time></trkpt><trkpt lat="44.43631849363829" lon="11.42644393290358"><ele>141.0</ele><time>2026-05-01T07:53:31.999Z</time></trkpt><trkpt lat="44.436375160843816" lon="11.426582866512149"><ele>138.0</ele><time>2026-05-01T07:53:32.999Z</time></trkpt><trkpt lat="44.43642576459673" lon="11.426703056993999"><ele>135.0</ele><time>2026-05-01T07:53:33.999Z</time></trkpt><trkpt lat="44.43647534620453" lon="11.426820818353319"><ele>132.0</ele><time>2026-05-01T07:53:34.999Z</time></trkpt><trkpt lat="44.43653500729014" lon="11.426915601529085"><ele>129.0</ele><time>2026-05-01T07:53:35.999Z</time></trkpt><trkpt lat="44.43658140183911" lon="11.427036166591023"><ele>126.0</ele><time>2026-05-01T07:53:36.999Z</time></trkpt><trkpt lat="44.43663128749831" lon="11.427148282586085"><ele>124.4</ele><time>2026-05-01T07:53:37.999Z</time></trkpt><trkpt lat="44.43666335941098" lon="11.427266791945927"><ele>122.8</ele><time>2026-05-01T07:53:38.999Z</time></trkpt><trkpt lat="44.436697851501975" lon="11.427389449690375"><ele>121.20000000000002</ele><time>2026-05-01T07:53:39.999Z</time></trkpt><trkpt lat="44.43670657617306" lon="11.427538347391977"><ele>119.60000000000001</ele><time>2026-05-01T07:53:40.999Z</time></trkpt><trkpt lat="44.43671415440589" lon="11.427685010525426"><ele>118.0</ele><time>2026-05-01T07:53:41.999Z</time></trkpt><trkpt lat="44.436726752780515" lon="11.427837282392185"><ele>117.25</ele><time>2026-05-01T07:53:43Z</time></trkpt><trkpt lat="44.43675194923207" lon="11.427985666687645"><ele>116.5</ele><time>2026-05-01T07:53:44Z</time></trkpt><trkpt lat="44.43676554551802" lon="11.428146100177372"><ele>115.75</ele><time>2026-05-01T07:53:45Z</time></trkpt><trkpt lat="44.4367679125535" lon="11.428308363197434"><ele>115.0</ele><time>2026-05-01T07:53:46Z</time></trkpt><trkpt lat="44.4367974606895" lon="11.428471337726522"><ele>115.0</ele><time>2026-05-01T07:53:47Z</time></trkpt><trkpt lat="44.43680454192371" lon="11.42863420375979"><ele>115.0</ele><time>2026-05-01T07:53:48Z</time></trkpt><trkpt lat="44.43681564644509" lon="11.4287983576052"><ele>115.0</ele><time>2026-05-01T07:53:49Z</time></trkpt><trkpt lat="44.436826016615825" lon="11.428963774247975"><ele>115.0</ele><time>2026-05-01T07:53:50Z</time></trkpt><trkpt lat="44.43682935617546" lon="11.429134065032175"><ele>114.5</ele><time>2026-05-01T07:53:51Z</time></trkpt><trkpt lat="44.43682813283864" lon="11.429306495728095"><ele>114.0</ele><time>2026-05-01T07:53:52Z</time></trkpt><trkpt lat="44.43682489539363" lon="11.429485313916588"><ele>113.5</ele><time>2026-05-01T07:53:53Z</time></trkpt><trkpt lat="44.4368357766975" lon="11.429664091555225"><ele>113.0</ele><time>2026-05-01T07:53:54Z</time></trkpt><trkpt lat="44.43682022346933" lon="11.429836640129036"><ele>111.75</ele><time>2026-05-01T07:53:55Z</time></trkpt><trkpt lat="44.4368211882417" lon="11.430010781376827"><ele>110.5</ele><time>2026-05-01T07:53:56Z</time></trkpt><trkpt lat="44.43682218221046" lon="11.430190194195475"><ele>109.25</ele><time>2026-05-01T07:53:57Z</time></trkpt><trkpt lat="44.436822423325495" lon="11.430351476152238"><ele>108.0</ele><time>2026-05-01T07:53:58Z</time></trkpt><trkpt lat="44.43682266769952" lon="11.430501597129476"><ele>106.0</ele><time>2026-05-01T07:53:59Z</time></trkpt><trkpt lat="44.43683820935063" lon="11.430647451278793"><ele>104.00000000000001</ele><time>2026-05-01T07:54:00Z</time></trkpt><trkpt lat="44.4368231140005" lon="11.430775763538442"><ele>102.0</ele><time>2026-05-01T07:54:01Z</time></trkpt><trkpt lat="44.436825112155745" lon="11.430905442875403"><ele>100.0</ele><time>2026-05-01T07:54:02Z</time></trkpt><trkpt lat="44.43682756785664" lon="11.431038526145594"><ele>98.0</ele><time>2026-05-01T07:54:03Z</time></trkpt><trkpt lat="44.436829602005915" lon="11.431148764220035"><ele>98.0</ele><time>2026-05-01T07:54:04Z</time></trkpt><trkpt lat="44.436831634425204" lon="11.431258908206736"><ele>98.0</ele><time>2026-05-01T07:54:05Z</time></trkpt><trkpt lat="44.436834326972026" lon="11.431404827049965"><ele>98.0</ele><time>2026-05-01T07:54:07Z</time></trkpt><trkpt lat="44.43684532483096" lon="11.431500044698458"><ele>98.0</ele><time>2026-05-01T07:54:10Z</time></trkpt><trkpt lat="44.436975617109454" lon="11.431502672547637"><ele>98.0</ele><time>2026-05-01T07:54:11Z</time></trkpt><trkpt lat="44.43707553215988" lon="11.431511813955225"><ele>97.60000000000001</ele><time>2026-05-01T07:54:13Z</time></trkpt><trkpt lat="44.43717269069675" lon="11.431551865078674"><ele>97.2</ele><time>2026-05-01T07:54:15Z</time></trkpt><trkpt lat="44.43727505123898" lon="11.431528732067312"><ele>96.8</ele><time>2026-05-01T07:54:17Z</time></trkpt><trkpt lat="44.43736739746711" lon="11.431537613879135"><ele>96.4</ele><time>2026-05-01T07:54:19Z</time></trkpt><trkpt lat="44.43746133339675" lon="11.431554221045515"><ele>96.0</ele><time>2026-05-01T07:54:21Z</time></trkpt><trkpt lat="44.437543865361754" lon="11.431578671352492"><ele>96.0</ele><time>2026-05-01T07:54:23Z</time></trkpt><trkpt lat="44.43762319377534" lon="11.431609704295907"><ele>96.0</ele><time>2026-05-01T07:54:25Z</time></trkpt><trkpt lat="44.43770643347074" lon="11.431631401285312"><ele>96.0</ele><time>2026-05-01T07:54:27Z</time></trkpt><trkpt lat="44.437779648136896" lon="11.431642508184579"><ele>96.0</ele><time>2026-05-01T07:54:29Z</time></trkpt><trkpt lat="44.4378589825654" lon="11.431649587470911"><ele>96.0</ele><time>2026-05-01T07:54:31Z</time></trkpt><trkpt lat="44.4379419259499" lon="11.43165756988209"><ele>96.0</ele><time>2026-05-01T07:54:33Z</time></trkpt><trkpt lat="44.438012840170245" lon="11.431656766848324"><ele>96.57142857142857</ele><time>2026-05-01T07:54:35Z</time></trkpt><trkpt lat="44.43807602280411" lon="11.431675849372521"><ele>97.14285714285714</ele><time>2026-05-01T07:54:37Z</time></trkpt><trkpt lat="44.43814716667198" lon="11.431685276621383"><ele>97.71428571428572</ele><time>2026-05-01T07:54:39Z</time></trkpt><trkpt lat="44.4382145914451" lon="11.431715869719834"><ele>98.28571428571428</ele><time>2026-05-01T07:54:41Z</time></trkpt><trkpt lat="44.4382829919917" lon="11.431726901344149"><ele>98.85714285714286</ele><time>2026-05-01T07:54:43Z</time></trkpt><trkpt lat="44.43836921215" lon="11.431739353937903"><ele>99.42857142857143</ele><time>2026-05-01T07:54:46Z</time></trkpt><trkpt lat="44.438442465259776" lon="11.431750304347883"><ele>100.0</ele><time>2026-05-01T07:54:49Z</time></trkpt><trkpt lat="44.43850426848715" lon="11.431788519181927"><ele>100.00000000000001</ele><time>2026-05-01T07:54:52Z</time></trkpt><trkpt lat="44.43855889638307" lon="11.43183822502772"><ele>100.0</ele><time>2026-05-01T07:54:55Z</time></trkpt><trkpt lat="44.43861226284325" lon="11.431908054522456"><ele>100.0</ele><time>2026-05-01T07:54:57.999Z</time></trkpt><trkpt lat="44.43867133916205" lon="11.431958314366439"><ele>100.0</ele><time>2026-05-01T07:55:00.999Z</time></trkpt><trkpt lat="44.438738427042686" lon="11.43201400679922"><ele>100.0</ele><time>2026-05-01T07:55:03.999Z</time></trkpt><trkpt lat="44.43880122455823" lon="11.43205827211222"><ele>100.00000000000001</ele><time>2026-05-01T07:55:05.999Z</time></trkpt><trkpt lat="44.43886040740141" lon="11.43211905779696"><ele>100.0</ele><time>2026-05-01T07:55:07.999Z</time></trkpt><trkpt lat="44.43892821808575" lon="11.432160974952383"><ele>99.00000000000001</ele><time>2026-05-01T07:55:09.999Z</time></trkpt><trkpt lat="44.43900165352948" lon="11.432211096184329"><ele>98.0</ele><time>2026-05-01T07:55:11.999Z</time></trkpt><trkpt lat="44.43908643893675" lon="11.432250236695648"><ele>97.0</ele><time>2026-05-01T07:55:13.999Z</time></trkpt><trkpt lat="44.43917126783297" lon="11.432289348777044"><ele>96.0</ele><time>2026-05-01T07:55:15.999Z</time></trkpt><trkpt lat="44.43925830361223" lon="11.432335461339223"><ele>95.0</ele><time>2026-05-01T07:55:17.999Z</time></trkpt><trkpt lat="44.43934358293446" lon="11.432383175490777"><ele>94.0</ele><time>2026-05-01T07:55:19.999Z</time></trkpt><trkpt lat="44.43943303351222" lon="11.432427946982992"><ele>94.0</ele><time>2026-05-01T07:55:21.999Z</time></trkpt><trkpt lat="44.439525163169115" lon="11.432490970377845"><ele>94.0</ele><time>2026-05-01T07:55:23.999Z</time></trkpt><trkpt lat="44.43962067682415" lon="11.432562428461916"><ele>94.0</ele><time>2026-05-01T07:55:25.999Z</time></trkpt><trkpt lat="44.439701596572625" lon="11.432667289654185"><ele>94.0</ele><time>2026-05-01T07:55:27.999Z</time></trkpt><trkpt lat="44.43979822817837" lon="11.432732355789078"><ele>94.0</ele><time>2026-05-01T07:55:29.999Z</time></trkpt><trkpt lat="44.439885081527564" lon="11.43282660525819"><ele>94.5</ele><time>2026-05-01T07:55:31.999Z</time></trkpt><trkpt lat="44.439971544875625" lon="11.432913103973075"><ele>95.0</ele><time>2026-05-01T07:55:33.999Z</time></trkpt><trkpt lat="44.44006146196485" lon="11.433013609722947"><ele>95.5</ele><time>2026-05-01T07:55:35.999Z</time></trkpt><trkpt lat="44.44015513834131" lon="11.433105801955456"><ele>96.0</ele><time>2026-05-01T07:55:37.999Z</time></trkpt><trkpt lat="44.4402537702378" lon="11.433188253968213"><ele>95.83333333333333</ele><time>2026-05-01T07:55:39.999Z</time></trkpt><trkpt lat="44.44036668601934" lon="11.433257917508772"><ele>95.66666666666667</ele><time>2026-05-01T07:55:41.999Z</time></trkpt><trkpt lat="44.4404273162469" lon="11.433299642917499"><ele>95.5</ele><time>2026-05-01T07:55:42.999Z</time></trkpt><trkpt lat="44.44048531313669" lon="11.433346398389437"><ele>95.33333333333334</ele><time>2026-05-01T07:55:43.999Z</time></trkpt><trkpt lat="44.44054475214544" lon="11.433384017585372"><ele>95.16666666666667</ele><time>2026-05-01T07:55:44.999Z</time></trkpt><trkpt lat="44.44060488852637" lon="11.43342597453689"><ele>95.0</ele><time>2026-05-01T07:55:45.999Z</time></trkpt><trkpt lat="44.44066745859598" lon="11.433474706182686"><ele>95.0</ele><time>2026-05-01T07:55:46.999Z</time></trkpt><trkpt lat="44.44072975434954" lon="11.433518538248544"><ele>95.0</ele><time>2026-05-01T07:55:47.999Z</time></trkpt><trkpt lat="44.440791019428346" lon="11.433569005873562"><ele>95.0</ele><time>2026-05-01T07:55:49Z</time></trkpt><trkpt lat="44.440855220573404" lon="11.433621892903425"><ele>95.0</ele><time>2026-05-01T07:55:50Z</time></trkpt><trkpt lat="44.440912483843654" lon="11.433678853527155"><ele>95.0</ele><time>2026-05-01T07:55:51Z</time></trkpt><trkpt lat="44.44097468950781" lon="11.433731414422372"><ele>95.0</ele><time>2026-05-01T07:55:52Z</time></trkpt><trkpt lat="44.44103315661413" lon="11.433787322382596"><ele>95.0</ele><time>2026-05-01T07:55:53Z</time></trkpt><trkpt lat="44.4410919733177" lon="11.433843362202595"><ele>94.5</ele><time>2026-05-01T07:55:54Z</time></trkpt><trkpt lat="44.4411545238742" lon="11.433899618542553"><ele>94.0</ele><time>2026-05-01T07:55:55Z</time></trkpt><trkpt lat="44.44121902337788" lon="11.433956644495558"><ele>93.5</ele><time>2026-05-01T07:55:56Z</time></trkpt><trkpt lat="44.44128307171054" lon="11.434017729202175"><ele>93.0</ele><time>2026-05-01T07:55:57Z</time></trkpt><trkpt lat="44.44135433525535" lon="11.434073847969202"><ele>92.5</ele><time>2026-05-01T07:55:58Z</time></trkpt><trkpt lat="44.44142571293654" lon="11.434126782597117"><ele>92.0</ele><time>2026-05-01T07:55:59Z</time></trkpt><trkpt lat="44.44149270918719" lon="11.434179264006792"><ele>91.66666666666667</ele><time>2026-05-01T07:56:00Z</time></trkpt><trkpt lat="44.441569444401026" lon="11.434215779276496"><ele>91.33333333333334</ele><time>2026-05-01T07:56:01Z</time></trkpt><trkpt lat="44.44164269716443" lon="11.434252916137858"><ele>91.0</ele><time>2026-05-01T07:56:02Z</time></trkpt><trkpt lat="44.44172513122892" lon="11.434277958286966"><ele>90.66666666666667</ele><time>2026-05-01T07:56:03Z</time></trkpt><trkpt lat="44.44181304168845" lon="11.434300607889565"><ele>90.33333333333333</ele><time>2026-05-01T07:56:04Z</time></trkpt><trkpt lat="44.44189628551102" lon="11.434321521306018"><ele>90.0</ele><time>2026-05-01T07:56:05Z</time></trkpt><trkpt lat="44.441983447304246" lon="11.434324445681433"><ele>90.0</ele><time>2026-05-01T07:56:06Z</time></trkpt><trkpt lat="44.44206810285672" lon="11.434348241422624"><ele>90.0</ele><time>2026-05-01T07:56:07Z</time></trkpt><trkpt lat="44.442147142896204" lon="11.434370895802736"><ele>90.0</ele><time>2026-05-01T07:56:08Z</time></trkpt><trkpt lat="44.44223161508734" lon="11.434406410750267"><ele>90.0</ele><time>2026-05-01T07:56:09Z</time></trkpt><trkpt lat="44.44230779060835" lon="11.434470571713813"><ele>90.0</ele><time>2026-05-01T07:56:10Z</time></trkpt><trkpt lat="44.4423902829632" lon="11.434518170496847"><ele>90.0</ele><time>2026-05-01T07:56:11Z</time></trkpt><trkpt lat="44.442470645505146" lon="11.434564540446935"><ele>89.0</ele><time>2026-05-01T07:56:12Z</time></trkpt><trkpt lat="44.44255133914622" lon="11.434610331012513"><ele>88.0</ele><time>2026-05-01T07:56:13Z</time></trkpt><trkpt lat="44.44263007073946" lon="11.434655038311938"><ele>87.0</ele><time>2026-05-01T07:56:14Z</time></trkpt><trkpt lat="44.442709097732084" lon="11.434699913500198"><ele>86.0</ele><time>2026-05-01T07:56:15Z</time></trkpt><trkpt lat="44.44278173170426" lon="11.43473855370686"><ele>85.0</ele><time>2026-05-01T07:56:16Z</time></trkpt><trkpt lat="44.44287916669591" lon="11.434765858256487"><ele>84.0</ele><time>2026-05-01T07:56:18Z</time></trkpt><trkpt lat="44.44294605119883" lon="11.43479803182479"><ele>82.2</ele><time>2026-05-01T07:56:20Z</time></trkpt><trkpt lat="44.44301303339253" lon="11.434837639812752"><ele>80.4</ele><time>2026-05-01T07:56:22Z</time></trkpt><trkpt lat="44.44309345462937" lon="11.434903051219203"><ele>78.6</ele><time>2026-05-01T07:56:24Z</time></trkpt><trkpt lat="44.44319672224488" lon="11.434966683911872"><ele>76.8</ele><time>2026-05-01T07:56:26Z</time></trkpt><trkpt lat="44.44329725532917" lon="11.435023009544485"><ele>75.0</ele><time>2026-05-01T07:56:28Z</time></trkpt><trkpt lat="44.44341634787588" lon="11.435091031258779"><ele>75.0</ele><time>2026-05-01T07:56:30Z</time></trkpt><trkpt lat="44.443476141179694" lon="11.435125268469168"><ele>75.0</ele><time>2026-05-01T07:56:31Z</time></trkpt><trkpt lat="44.44358871415303" lon="11.435190134310238"><ele>75.0</ele><time>2026-05-01T07:56:33Z</time></trkpt><trkpt lat="44.44365410214276" lon="11.43522889162849"><ele>75.0</ele><time>2026-05-01T07:56:34Z</time></trkpt><trkpt lat="44.44371304849478" lon="11.435263830825244"><ele>75.0</ele><time>2026-05-01T07:56:35Z</time></trkpt><trkpt lat="44.44377375760517" lon="11.43529981488152"><ele>75.0</ele><time>2026-05-01T07:56:36Z</time></trkpt><trkpt lat="44.4438912625718" lon="11.43535640119444"><ele>74.99999999999999</ele><time>2026-05-01T07:56:38Z</time></trkpt><trkpt lat="44.44393935563527" lon="11.435426970774325"><ele>75.0</ele><time>2026-05-01T07:56:39Z</time></trkpt><trkpt lat="44.44399144685714" lon="11.435482348777475"><ele>75.0</ele><time>2026-05-01T07:56:40Z</time></trkpt><trkpt lat="44.44403703040142" lon="11.435551496561358"><ele>75.0</ele><time>2026-05-01T07:56:41Z</time></trkpt><trkpt lat="44.44407465890449" lon="11.435628783180643"><ele>75.0</ele><time>2026-05-01T07:56:42Z</time></trkpt><trkpt lat="44.44410408440676" lon="11.43570894511395"><ele>74.99999999999999</ele><time>2026-05-01T07:56:43Z</time></trkpt><trkpt lat="44.44414356191731" lon="11.435789063057348"><ele>75.0</ele><time>2026-05-01T07:56:44Z</time></trkpt><trkpt lat="44.44416350027159" lon="11.435886046596185"><ele>74.99999999999999</ele><time>2026-05-01T07:56:45Z</time></trkpt><trkpt lat="44.44418403783851" lon="11.435980313896813"><ele>75.0</ele><time>2026-05-01T07:56:46Z</time></trkpt><trkpt lat="44.44419871994866" lon="11.436075839997446"><ele>75.0</ele><time>2026-05-01T07:56:47Z</time></trkpt><trkpt lat="44.44420204234825" lon="11.436174477821373"><ele>75.0</ele><time>2026-05-01T07:56:48Z</time></trkpt><trkpt lat="44.44418737764762" lon="11.436279791550762"><ele>75.0</ele><time>2026-05-01T07:56:49Z</time></trkpt><trkpt lat="44.444176668237596" lon="11.436378671075246"><ele>74.99999999999999</ele><time>2026-05-01T07:56:50Z</time></trkpt><trkpt lat="44.44415220546385" lon="11.436472902979686"><ele>75.0</ele><time>2026-05-01T07:56:51Z</time></trkpt><trkpt lat="44.44412726826767" lon="11.436570869249012"><ele>74.0</ele><time>2026-05-01T07:56:52Z</time></trkpt><trkpt lat="44.44409574525704" lon="11.436670388916378"><ele>73.0</ele><time>2026-05-01T07:56:53Z</time></trkpt><trkpt lat="44.44406307370498" lon="11.436768779401772"><ele>72.0</ele><time>2026-05-01T07:56:54Z</time></trkpt><trkpt lat="44.44403840547911" lon="11.43686705501568"><ele>71.0</ele><time>2026-05-01T07:56:55Z</time></trkpt><trkpt lat="44.44400348856989" lon="11.43697038106422"><ele>70.0</ele><time>2026-05-01T07:56:56Z</time></trkpt><trkpt lat="44.44400134750696" lon="11.43708454007861"><ele>69.0</ele><time>2026-05-01T07:56:57Z</time></trkpt><trkpt lat="44.44399693764618" lon="11.437191316542677"><ele>68.57142857142857</ele><time>2026-05-01T07:56:58Z</time></trkpt><trkpt lat="44.44400751474363" lon="11.43729448374316"><ele>68.14285714285715</ele><time>2026-05-01T07:56:59Z</time></trkpt><trkpt lat="44.44402032954658" lon="11.437393940305949"><ele>67.71428571428572</ele><time>2026-05-01T07:57:00Z</time></trkpt><trkpt lat="44.44402881836629" lon="11.437493220102768"><ele>67.28571428571429</ele><time>2026-05-01T07:57:01Z</time></trkpt><trkpt lat="44.44404867232805" lon="11.437583799324395"><ele>66.85714285714286</ele><time>2026-05-01T07:57:02Z</time></trkpt><trkpt lat="44.44406695061452" lon="11.437674787384209"><ele>66.42857142857143</ele><time>2026-05-01T07:57:03Z</time></trkpt><trkpt lat="44.444082075254244" lon="11.437764724484648"><ele>66.0</ele><time>2026-05-01T07:57:04Z</time></trkpt><trkpt lat="44.44409832081979" lon="11.437859505511762"><ele>66.0</ele><time>2026-05-01T07:57:04.999Z</time></trkpt><trkpt lat="44.44411801420938" lon="11.437951647601315"><ele>66.0</ele><time>2026-05-01T07:57:05.999Z</time></trkpt><trkpt lat="44.44413878798049" lon="11.43804547377649"><ele>66.0</ele><time>2026-05-01T07:57:06.999Z</time></trkpt><trkpt lat="44.44415550720344" lon="11.438141319471825"><ele>66.0</ele><time>2026-05-01T07:57:07.999Z</time></trkpt><trkpt lat="44.444176196865456" lon="11.438233888135626"><ele>66.0</ele><time>2026-05-01T07:57:08.999Z</time></trkpt><trkpt lat="44.44418024274378" lon="11.438336953229433"><ele>66.0</ele><time>2026-05-01T07:57:09.999Z</time></trkpt><trkpt lat="44.444197438556195" lon="11.438437293711125"><ele>66.0</ele><time>2026-05-01T07:57:10.999Z</time></trkpt><trkpt lat="44.44421413514113" lon="11.43853691009402"><ele>66.16666666666667</ele><time>2026-05-01T07:57:11.999Z</time></trkpt><trkpt lat="44.444229433746216" lon="11.438632564735428"><ele>66.33333333333333</ele><time>2026-05-01T07:57:12.999Z</time></trkpt><trkpt lat="44.444243417768355" lon="11.438723484386143"><ele>66.5</ele><time>2026-05-01T07:57:13.999Z</time></trkpt><trkpt lat="44.444264923395444" lon="11.438886658743554"><ele>66.66666666666666</ele><time>2026-05-01T07:57:15.999Z</time></trkpt><trkpt lat="44.44427416819541" lon="11.439016103223038"><ele>66.83333333333333</ele><time>2026-05-01T07:57:17.999Z</time></trkpt><trkpt lat="44.444276706004466" lon="11.439109053593132"><ele>67.0</ele><time>2026-05-01T07:57:19.999Z</time></trkpt><trkpt lat="44.44428719335964" lon="11.439238066910512"><ele>67.0</ele><time>2026-05-01T07:57:22.999Z</time></trkpt><trkpt lat="44.44432758497907" lon="11.439317731267943"><ele>67.0</ele><time>2026-05-01T07:57:24.999Z</time></trkpt><trkpt lat="44.44438230115415" lon="11.43939828355397"><ele>67.0</ele><time>2026-05-01T07:57:26.999Z</time></trkpt><trkpt lat="44.44443161412836" lon="11.439491317109226"><ele>67.0</ele><time>2026-05-01T07:57:28.999Z</time></trkpt><trkpt lat="44.44450352243712" lon="11.439549826774375"><ele>67.0</ele><time>2026-05-01T07:57:30.999Z</time></trkpt><trkpt lat="44.44456531181336" lon="11.439636297398907"><ele>67.0</ele><time>2026-05-01T07:57:32.999Z</time></trkpt><trkpt lat="44.44463055604746" lon="11.439720318897054"><ele>67.16666666666666</ele><time>2026-05-01T07:57:34.999Z</time></trkpt><trkpt lat="44.44468317151973" lon="11.439821500260953"><ele>67.33333333333333</ele><time>2026-05-01T07:57:36.999Z</time></trkpt><trkpt lat="44.444702172953725" lon="11.439911990601422"><ele>67.5</ele><time>2026-05-01T07:57:38.999Z</time></trkpt><trkpt lat="44.4446732325844" lon="11.440015730698072"><ele>67.66666666666667</ele><time>2026-05-01T07:57:40.999Z</time></trkpt><trkpt lat="44.44465063468205" lon="11.440145551436794"><ele>67.83333333333334</ele><time>2026-05-01T07:57:42.999Z</time></trkpt><trkpt lat="44.444617086470565" lon="11.440239378171672"><ele>68.0</ele><time>2026-05-01T07:57:44.999Z</time></trkpt><trkpt lat="44.444582833217595" lon="11.440316894806637"><ele>67.99999999999999</ele><time>2026-05-01T07:57:46.999Z</time></trkpt><trkpt lat="44.44456783999281" lon="11.440426822942309"><ele>68.0</ele><time>2026-05-01T07:57:48.999Z</time></trkpt><trkpt lat="44.444531807655345" lon="11.440533176876855"><ele>68.0</ele><time>2026-05-01T07:57:50.999Z</time></trkpt><trkpt lat="44.4445074632322" lon="11.44063200138597"><ele>68.0</ele><time>2026-05-01T07:57:52.999Z</time></trkpt><trkpt lat="44.44447686551302" lon="11.44071147742493"><ele>68.0</ele><time>2026-05-01T07:57:55Z</time></trkpt><trkpt lat="44.444500505995954" lon="11.440624285196293"><ele>67.99999999999999</ele><time>2026-05-01T07:58:03Z</time></trkpt><trkpt lat="44.444460738761855" lon="11.440701360264491"><ele>68.0</ele><time>2026-05-01T07:58:09Z</time></trkpt><trkpt lat="44.44443312800339" lon="11.440789744397737"><ele>68.16666666666667</ele><time>2026-05-01T07:58:11Z</time></trkpt><trkpt lat="44.4443927778746" lon="11.44090088324257"><ele>68.33333333333334</ele><time>2026-05-01T07:58:13Z</time></trkpt><trkpt lat="44.44434923426598" lon="11.44099115607087"><ele>68.5</ele><time>2026-05-01T07:58:15Z</time></trkpt><trkpt lat="44.44432226615548" lon="11.441092753953477"><ele>68.66666666666667</ele><time>2026-05-01T07:58:17Z</time></trkpt><trkpt lat="44.44427820794005" lon="11.441196476583157"><ele>68.83333333333333</ele><time>2026-05-01T07:58:19Z</time></trkpt><trkpt lat="44.44425061902559" lon="11.44130382692421"><ele>69.0</ele><time>2026-05-01T07:58:21Z</time></trkpt><trkpt lat="44.444215156562976" lon="11.441402670243654"><ele>70.0</ele><time>2026-05-01T07:58:23Z</time></trkpt><trkpt lat="44.44418838141248" lon="11.441485474846798"><ele>71.0</ele><time>2026-05-01T07:58:25Z</time></trkpt><trkpt lat="44.444201785629154" lon="11.441591526823572"><ele>72.0</ele><time>2026-05-01T07:58:28Z</time></trkpt><trkpt lat="44.44413000547473" lon="11.441680866930934"><ele>73.0</ele><time>2026-05-01T07:58:30Z</time></trkpt><trkpt lat="44.444089636866586" lon="11.441777682531116"><ele>74.0</ele><time>2026-05-01T07:58:33Z</time></trkpt><trkpt lat="44.44405340353376" lon="11.441870394886683"><ele>75.0</ele><time>2026-05-01T07:58:36Z</time></trkpt><trkpt lat="44.44401091538145" lon="11.441980074442343"><ele>75.0</ele><time>2026-05-01T07:58:39Z</time></trkpt><trkpt lat="44.44397408005057" lon="11.442075161622462"><ele>75.0</ele><time>2026-05-01T07:58:42Z</time></trkpt><trkpt lat="44.44392994705314" lon="11.442178860546612"><ele>75.0</ele><time>2026-05-01T07:58:45Z</time></trkpt><trkpt lat="44.44388101894147" lon="11.44229035790041"><ele>75.0</ele><time>2026-05-01T07:58:48Z</time></trkpt><trkpt lat="44.44384540176857" lon="11.442371612052257"><ele>75.0</ele><time>2026-05-01T07:58:50Z</time></trkpt><trkpt lat="44.44381130558635" lon="11.442449396311508"><ele>75.0</ele><time>2026-05-01T07:58:52Z</time></trkpt><trkpt lat="44.4437633763482" lon="11.442558738132286"><ele>74.66666666666667</ele><time>2026-05-01T07:58:55Z</time></trkpt><trkpt lat="44.44372925754594" lon="11.442636573991631"><ele>74.33333333333333</ele><time>2026-05-01T07:58:57Z</time></trkpt><trkpt lat="44.443694127391" lon="11.442716717055914"><ele>74.0</ele><time>2026-05-01T07:58:59Z</time></trkpt><trkpt lat="44.44365227849798" lon="11.442812187714633"><ele>73.66666666666666</ele><time>2026-05-01T07:59:01Z</time></trkpt><trkpt lat="44.443609564860175" lon="11.442909631015269"><ele>73.33333333333333</ele><time>2026-05-01T07:59:03Z</time></trkpt><trkpt lat="44.4435640136902" lon="11.443013547756962"><ele>73.0</ele><time>2026-05-01T07:59:05Z</time></trkpt><trkpt lat="44.44352365198661" lon="11.443105625595269"><ele>73.0</ele><time>2026-05-01T07:59:07Z</time></trkpt><trkpt lat="44.44348525473611" lon="11.443193222170427"><ele>73.0</ele><time>2026-05-01T07:59:09Z</time></trkpt><trkpt lat="44.44344132907342" lon="11.443286169768209"><ele>73.0</ele><time>2026-05-01T07:59:10.999Z</time></trkpt><trkpt lat="44.44343038218073" lon="11.443409214336679"><ele>73.0</ele><time>2026-05-01T07:59:13.999Z</time></trkpt><trkpt lat="44.44348210554388" lon="11.443478227620565"><ele>73.0</ele><time>2026-05-01T07:59:16.999Z</time></trkpt><trkpt lat="44.443537997033225" lon="11.443530120246198"><ele>73.0</ele><time>2026-05-01T07:59:18.999Z</time></trkpt><trkpt lat="44.443601122734705" lon="11.443589387309517"><ele>73.0</ele><time>2026-05-01T07:59:20.999Z</time></trkpt><trkpt lat="44.44366798856348" lon="11.443653141095481"><ele>73.0</ele><time>2026-05-01T07:59:22.999Z</time></trkpt><trkpt lat="44.44374828733592" lon="11.443726912091403"><ele>73.0</ele><time>2026-05-01T07:59:24.999Z</time></trkpt><trkpt lat="44.44384482436005" lon="11.44381031273574"><ele>73.0</ele><time>2026-05-01T07:59:26.999Z</time></trkpt><trkpt lat="44.44394258481209" lon="11.443894770402595"><ele>73.0</ele><time>2026-05-01T07:59:28.999Z</time></trkpt><trkpt lat="44.44403646902339" lon="11.44397587919515"><ele>73.75</ele><time>2026-05-01T07:59:30.999Z</time></trkpt><trkpt lat="44.44412318690565" lon="11.444050796874485"><ele>74.5</ele><time>2026-05-01T07:59:32.999Z</time></trkpt><trkpt lat="44.44404889347945" lon="11.444323251570896"><ele>75.25</ele><time>2026-05-01T07:59:34.999Z</time></trkpt><trkpt lat="44.44399961859079" lon="11.44445064019455"><ele>76.0</ele><time>2026-05-01T07:59:36.999Z</time></trkpt><trkpt lat="44.44395011919485" lon="11.44457860970952"><ele>75.6</ele><time>2026-05-01T07:59:38.999Z</time></trkpt><trkpt lat="44.443912769521745" lon="11.44467516881676"><ele>75.19999999999999</ele><time>2026-05-01T07:59:40.999Z</time></trkpt><trkpt lat="44.44373019506274" lon="11.444592985280664"><ele>74.80000000000001</ele><time>2026-05-01T07:59:41.999Z</time></trkpt><trkpt lat="44.44365098728683" lon="11.444659223637787"><ele>74.4</ele><time>2026-05-01T07:59:43.999Z</time></trkpt><trkpt lat="44.44363822632764" lon="11.444776248114062"><ele>74.0</ele><time>2026-05-01T07:59:45.999Z</time></trkpt><trkpt lat="44.44370512315717" lon="11.444876863247398"><ele>73.83333333333334</ele><time>2026-05-01T07:59:47.999Z</time></trkpt><trkpt lat="44.443674052618306" lon="11.444979099382056"><ele>73.66666666666667</ele><time>2026-05-01T07:59:49.999Z</time></trkpt><trkpt lat="44.44360834486171" lon="11.445045653967465"><ele>73.5</ele><time>2026-05-01T07:59:51.999Z</time></trkpt><trkpt lat="44.44356227638484" lon="11.445142809288374"><ele>73.33333333333333</ele><time>2026-05-01T07:59:53.999Z</time></trkpt><trkpt lat="44.44351798439093" lon="11.44523419960872"><ele>73.16666666666666</ele><time>2026-05-01T07:59:55.999Z</time></trkpt><trkpt lat="44.44348469527238" lon="11.445332105862413"><ele>73.0</ele><time>2026-05-01T07:59:57.999Z</time></trkpt><trkpt lat="44.443486022203565" lon="11.445436779822247"><ele>73.14285714285714</ele><time>2026-05-01T07:59:59.999Z</time></trkpt><trkpt lat="44.44349657782888" lon="11.445542048604349"><ele>73.28571428571429</ele><time>2026-05-01T08:00:02Z</time></trkpt><trkpt lat="44.443508083215924" lon="11.44563660875991"><ele>73.42857142857143</ele><time>2026-05-01T08:00:04Z</time></trkpt><trkpt lat="44.44347593555343" lon="11.445729344133653"><ele>73.57142857142857</ele><time>2026-05-01T08:00:06Z</time></trkpt><trkpt lat="44.44344095573283" lon="11.445821113575787"><ele>73.71428571428571</ele><time>2026-05-01T08:00:09Z</time></trkpt><trkpt lat="44.44347441264077" lon="11.445916040220409"><ele>73.85714285714286</ele><time>2026-05-01T08:00:13Z</time></trkpt><trkpt lat="44.443532033076046" lon="11.445951897675057"><ele>74.0</ele><time>2026-05-01T08:00:15Z</time></trkpt><trkpt lat="44.443591731540685" lon="11.446003335121821"><ele>74.0</ele><time>2026-05-01T08:00:17Z</time></trkpt><trkpt lat="44.4436560051343" lon="11.446056028877894"><ele>74.0</ele><time>2026-05-01T08:00:19Z</time></trkpt><trkpt lat="44.44372138929796" lon="11.446109904426251"><ele>74.0</ele><time>2026-05-01T08:00:21Z</time></trkpt><trkpt lat="44.44378478053475" lon="11.446159589088381"><ele>74.0</ele><time>2026-05-01T08:00:23Z</time></trkpt><trkpt lat="44.4438265083951" lon="11.446249919281602"><ele>74.0</ele><time>2026-05-01T08:00:25Z</time></trkpt><trkpt lat="44.443825805021284" lon="11.446352468759317"><ele>74.0</ele><time>2026-05-01T08:00:27Z</time></trkpt><trkpt lat="44.44379954013013" lon="11.446460112657416"><ele>74.0</ele><time>2026-05-01T08:00:29Z</time></trkpt><trkpt lat="44.44377465920816" lon="11.446567869754332"><ele>74.0</ele><time>2026-05-01T08:00:31Z</time></trkpt><trkpt lat="44.44375369127771" lon="11.44667783086058"><ele>74.0</ele><time>2026-05-01T08:00:33Z</time></trkpt><trkpt lat="44.44380947543985" lon="11.446752508639062"><ele>74.0</ele><time>2026-05-01T08:00:35Z</time></trkpt><trkpt lat="44.443877120482846" lon="11.44676945200214"><ele>74.0</ele><time>2026-05-01T08:00:37Z</time></trkpt><trkpt lat="44.443873658123415" lon="11.446865550917417"><ele>74.0</ele><time>2026-05-01T08:00:40Z</time></trkpt><trkpt lat="44.44390022820214" lon="11.446963428184976"><ele>74.0</ele><time>2026-05-01T08:00:42Z</time></trkpt><trkpt lat="44.443893603459955" lon="11.447056476349735"><ele>74.0</ele><time>2026-05-01T08:00:45Z</time></trkpt><trkpt lat="44.44391047600834" lon="11.447161445322516"><ele>74.0</ele><time>2026-05-01T08:00:48Z</time></trkpt><trkpt lat="44.44393401533156" lon="11.447281838151477"><ele>74.0</ele><time>2026-05-01T08:00:51Z</time></trkpt><trkpt lat="44.44392041051002" lon="11.447385403307779"><ele>74.0</ele><time>2026-05-01T08:00:54Z</time></trkpt><trkpt lat="44.4439234388458" lon="11.44749404372542"><ele>74.0</ele><time>2026-05-01T08:04:46Z</time></trkpt><trkpt lat="44.443931656363645" lon="11.447605149714612"><ele>74.14285714285714</ele><time>2026-05-01T08:04:51Z</time></trkpt><trkpt lat="44.44394666973301" lon="11.447693042426359"><ele>74.28571428571428</ele><time>2026-05-01T08:04:54Z</time></trkpt><trkpt lat="44.443980715566376" lon="11.447789732200555"><ele>74.42857142857142</ele><time>2026-05-01T08:04:58Z</time></trkpt><trkpt lat="44.444001541656974" lon="11.447875519897192"><ele>74.57142857142857</ele><time>2026-05-01T08:05:02Z</time></trkpt><trkpt lat="44.44405333945297" lon="11.447954271495695"><ele>74.71428571428571</ele><time>2026-05-01T08:05:06Z</time></trkpt><trkpt lat="44.4440830898466" lon="11.448078316967509"><ele>74.85714285714285</ele><time>2026-05-01T08:05:09Z</time></trkpt><trkpt lat="44.444105834699485" lon="11.44816774345585"><ele>75.0</ele><time>2026-05-01T08:05:11Z</time></trkpt><trkpt lat="44.44413056550402" lon="11.448264980471933"><ele>75.0</ele><time>2026-05-01T08:05:13Z</time></trkpt><trkpt lat="44.44415726772473" lon="11.44836865273886"><ele>75.0</ele><time>2026-05-01T08:05:15Z</time></trkpt><trkpt lat="44.44418426513982" lon="11.448474281153551"><ele>75.0</ele><time>2026-05-01T08:05:17Z</time></trkpt><trkpt lat="44.444209780255555" lon="11.44858487852146"><ele>75.0</ele><time>2026-05-01T08:05:19Z</time></trkpt><trkpt lat="44.444233990320555" lon="11.44871809665046"><ele>75.0</ele><time>2026-05-01T08:05:22Z</time></trkpt><trkpt lat="44.4442410062235" lon="11.448860083595338"><ele>75.0</ele><time>2026-05-01T08:05:24Z</time></trkpt><trkpt lat="44.44422030976432" lon="11.448998189036176"><ele>74.5</ele><time>2026-05-01T08:05:26Z</time></trkpt><trkpt lat="44.44418360808905" lon="11.44911081531311"><ele>74.0</ele><time>2026-05-01T08:05:28Z</time></trkpt><trkpt lat="44.444144808692535" lon="11.449213124552251"><ele>73.5</ele><time>2026-05-01T08:05:29.999Z</time></trkpt><trkpt lat="44.444104458301396" lon="11.4493195235771"><ele>73.0</ele><time>2026-05-01T08:05:31.999Z</time></trkpt><trkpt lat="44.44406700780408" lon="11.449419644825019"><ele>72.5</ele><time>2026-05-01T08:05:33.999Z</time></trkpt><trkpt lat="44.44403478955526" lon="11.449508394307545"><ele>72.0</ele><time>2026-05-01T08:05:35.999Z</time></trkpt><trkpt lat="44.4440048878039" lon="11.449590762638362"><ele>72.0</ele><time>2026-05-01T08:05:37.999Z</time></trkpt><trkpt lat="44.44394379911428" lon="11.449663287523439"><ele>72.0</ele><time>2026-05-01T08:05:39.999Z</time></trkpt><trkpt lat="44.44390419394176" lon="11.44976929613452"><ele>72.0</ele><time>2026-05-01T08:05:41.999Z</time></trkpt><trkpt lat="44.443862797197895" lon="11.449884284476708"><ele>72.0</ele><time>2026-05-01T08:05:43.999Z</time></trkpt><trkpt lat="44.443817559444994" lon="11.450002146688677"><ele>72.0</ele><time>2026-05-01T08:05:45.999Z</time></trkpt><trkpt lat="44.443774937849184" lon="11.450115665145331"><ele>72.0</ele><time>2026-05-01T08:05:47.999Z</time></trkpt><trkpt lat="44.44373079949966" lon="11.45023500412567"><ele>72.2</ele><time>2026-05-01T08:05:49.999Z</time></trkpt><trkpt lat="44.44368543643786" lon="11.450353535958874"><ele>72.4</ele><time>2026-05-01T08:05:51.999Z</time></trkpt><trkpt lat="44.443641595165246" lon="11.45047667953161"><ele>72.6</ele><time>2026-05-01T08:05:53.999Z</time></trkpt><trkpt lat="44.44359695365799" lon="11.45059800128231"><ele>72.8</ele><time>2026-05-01T08:05:55.999Z</time></trkpt><trkpt lat="44.4435533759364" lon="11.45072120706993"><ele>73.0</ele><time>2026-05-01T08:05:57.999Z</time></trkpt><trkpt lat="44.44350730894939" lon="11.450842039792711"><ele>73.2</ele><time>2026-05-01T08:05:59.999Z</time></trkpt><trkpt lat="44.44346369476113" lon="11.450966667773876"><ele>73.4</ele><time>2026-05-01T08:06:01.999Z</time></trkpt><trkpt lat="44.44341627997855" lon="11.4510891483683"><ele>73.60000000000001</ele><time>2026-05-01T08:06:03.999Z</time></trkpt><trkpt lat="44.44337318056958" lon="11.451210722355947"><ele>73.8</ele><time>2026-05-01T08:06:05.999Z</time></trkpt><trkpt lat="44.44332591768283" lon="11.451334555224454"><ele>74.0</ele><time>2026-05-01T08:06:07.999Z</time></trkpt><trkpt lat="44.443315703807826" lon="11.451489045214206"><ele>74.4</ele><time>2026-05-01T08:06:09.999Z</time></trkpt><trkpt lat="44.44327010753784" lon="11.451614224088834"><ele>74.80000000000001</ele><time>2026-05-01T08:06:11.999Z</time></trkpt><trkpt lat="44.44322246501421" lon="11.45174502065925"><ele>75.19999999999999</ele><time>2026-05-01T08:06:13.999Z</time></trkpt><trkpt lat="44.44317586012879" lon="11.451872968561233"><ele>75.6</ele><time>2026-05-01T08:06:15.999Z</time></trkpt><trkpt lat="44.443128359493485" lon="11.452003375644852"><ele>76.0</ele><time>2026-05-01T08:06:17.999Z</time></trkpt><trkpt lat="44.443081122226836" lon="11.45213305961899"><ele>76.0</ele><time>2026-05-01T08:06:20Z</time></trkpt><trkpt lat="44.443033486761955" lon="11.452263836798094"><ele>76.0</ele><time>2026-05-01T08:06:22Z</time></trkpt><trkpt lat="44.442990889577814" lon="11.452380782083793"><ele>76.0</ele><time>2026-05-01T08:06:24Z</time></trkpt><trkpt lat="44.44294896917278" lon="11.45249586930824"><ele>76.0</ele><time>2026-05-01T08:06:26Z</time></trkpt><trkpt lat="44.44290591651401" lon="11.452614064997864"><ele>76.0</ele><time>2026-05-01T08:06:28Z</time></trkpt><trkpt lat="44.44286908404218" lon="11.452715183974968"><ele>76.0</ele><time>2026-05-01T08:06:30Z</time></trkpt><trkpt lat="44.44274931856828" lon="11.452688658040062"><ele>76.0</ele><time>2026-05-01T08:06:31Z</time></trkpt><trkpt lat="44.44266465511359" lon="11.452616859430616"><ele>76.0</ele><time>2026-05-01T08:06:33Z</time></trkpt><trkpt lat="44.44259395725451" lon="11.45255543761846"><ele>76.0</ele><time>2026-05-01T08:06:35Z</time></trkpt><trkpt lat="44.44251752465969" lon="11.452489084437495"><ele>76.0</ele><time>2026-05-01T08:06:37Z</time></trkpt><trkpt lat="44.44250431613668" lon="11.452402052103746"><ele>76.0</ele><time>2026-05-01T08:06:38Z</time></trkpt><trkpt lat="44.4424278859468" lon="11.452336687246648"><ele>76.0</ele><time>2026-05-01T08:06:40Z</time></trkpt><trkpt lat="44.442357913650056" lon="11.452270975955438"><ele>76.0</ele><time>2026-05-01T08:06:42Z</time></trkpt><trkpt lat="44.44228341402393" lon="11.452208585286556"><ele>76.0</ele><time>2026-05-01T08:06:44Z</time></trkpt><trkpt lat="44.44220479079419" lon="11.45213977667598"><ele>76.0</ele><time>2026-05-01T08:06:46Z</time></trkpt><trkpt lat="44.44213349171357" lon="11.452080075812708"><ele>76.0</ele><time>2026-05-01T08:06:48Z</time></trkpt><trkpt lat="44.44205753452376" lon="11.452021106456089"><ele>76.33333333333333</ele><time>2026-05-01T08:06:50Z</time></trkpt><trkpt lat="44.441981931087696" lon="11.451958789634551"><ele>76.66666666666666</ele><time>2026-05-01T08:06:52Z</time></trkpt><trkpt lat="44.441912239328104" lon="11.451891765908954"><ele>77.0</ele><time>2026-05-01T08:06:54Z</time></trkpt><trkpt lat="44.44183992994841" lon="11.451828304524923"><ele>77.33333333333333</ele><time>2026-05-01T08:06:56Z</time></trkpt><trkpt lat="44.441768935380324" lon="11.451759797405927"><ele>77.66666666666667</ele><time>2026-05-01T08:06:58Z</time></trkpt><trkpt lat="44.441694745984094" lon="11.451697803903135"><ele>78.0</ele><time>2026-05-01T08:07:00Z</time></trkpt><trkpt lat="44.44162274250542" lon="11.451640423243196"><ele>78.0</ele><time>2026-05-01T08:07:02Z</time></trkpt><trkpt lat="44.441546947389526" lon="11.451577338955646"><ele>78.0</ele><time>2026-05-01T08:07:04Z</time></trkpt><trkpt lat="44.44147283069423" lon="11.451515551914557"><ele>78.0</ele><time>2026-05-01T08:07:06Z</time></trkpt><trkpt lat="44.44139658065278" lon="11.45146499288498"><ele>78.0</ele><time>2026-05-01T08:07:08Z</time></trkpt><trkpt lat="44.44130678348579" lon="11.451446799726693"><ele>78.0</ele><time>2026-05-01T08:07:10Z</time></trkpt><trkpt lat="44.44123224047663" lon="11.451474293549603"><ele>78.0</ele><time>2026-05-01T08:07:12Z</time></trkpt><trkpt lat="44.44115829043499" lon="11.451522973320461"><ele>77.83333333333333</ele><time>2026-05-01T08:07:14Z</time></trkpt><trkpt lat="44.44109899438141" lon="11.451605453707105"><ele>77.66666666666667</ele><time>2026-05-01T08:07:16Z</time></trkpt><trkpt lat="44.44105613067246" lon="11.45171149847164"><ele>77.5</ele><time>2026-05-01T08:07:18Z</time></trkpt><trkpt lat="44.44102114648872" lon="11.451817864045704"><ele>77.33333333333334</ele><time>2026-05-01T08:07:20Z</time></trkpt><trkpt lat="44.440987378765605" lon="11.451928278431735"><ele>77.16666666666667</ele><time>2026-05-01T08:07:22Z</time></trkpt><trkpt lat="44.44094751579227" lon="11.452043350533522"><ele>77.0</ele><time>2026-05-01T08:07:24Z</time></trkpt><trkpt lat="44.440911693559976" lon="11.452157097758809"><ele>77.0</ele><time>2026-05-01T08:07:26Z</time></trkpt><trkpt lat="44.44087225998076" lon="11.452265121324983"><ele>77.0</ele><time>2026-05-01T08:07:28Z</time></trkpt><trkpt lat="44.44083765310643" lon="11.45237944993798"><ele>77.0</ele><time>2026-05-01T08:07:30Z</time></trkpt><trkpt lat="44.44080033906182" lon="11.452493421129697"><ele>77.0</ele><time>2026-05-01T08:07:32Z</time></trkpt><trkpt lat="44.4407645436509" lon="11.452607610318253"><ele>77.0</ele><time>2026-05-01T08:07:34Z</time></trkpt><trkpt lat="44.440726187222445" lon="11.452721258151744"><ele>77.0</ele><time>2026-05-01T08:07:35.999Z</time></trkpt><trkpt lat="44.44068844963912" lon="11.452832550258199"><ele>77.0</ele><time>2026-05-01T08:07:37.999Z</time></trkpt><trkpt lat="44.440657656855734" lon="11.452941747433352"><ele>77.0</ele><time>2026-05-01T08:07:39.999Z</time></trkpt><trkpt lat="44.44061626853717" lon="11.453054492393807"><ele>77.0</ele><time>2026-05-01T08:07:41.999Z</time></trkpt><trkpt lat="44.44057969689499" lon="11.45316529036206"><ele>77.0</ele><time>2026-05-01T08:07:43.999Z</time></trkpt><trkpt lat="44.440544606665064" lon="11.453277417569389"><ele>77.0</ele><time>2026-05-01T08:07:45.999Z</time></trkpt><trkpt lat="44.440509078296884" lon="11.453392527420712"><ele>77.0</ele><time>2026-05-01T08:07:47.999Z</time></trkpt><trkpt lat="44.44047036841287" lon="11.45350149746277"><ele>77.6</ele><time>2026-05-01T08:07:49.999Z</time></trkpt><trkpt lat="44.44043434692089" lon="11.453619563958322"><ele>78.2</ele><time>2026-05-01T08:07:51.999Z</time></trkpt><trkpt lat="44.44039443226614" lon="11.453736543121105"><ele>78.8</ele><time>2026-05-01T08:07:53.999Z</time></trkpt><trkpt lat="44.44036038079581" lon="11.45385962167936"><ele>79.4</ele><time>2026-05-01T08:07:55.999Z</time></trkpt><trkpt lat="44.44031524529214" lon="11.453974134579541"><ele>80.0</ele><time>2026-05-01T08:07:57.999Z</time></trkpt><trkpt lat="44.44026186576516" lon="11.454085045177127"><ele>80.0</ele><time>2026-05-01T08:07:59.999Z</time></trkpt><trkpt lat="44.44024420845703" lon="11.45422473963766"><ele>80.0</ele><time>2026-05-01T08:08:01.999Z</time></trkpt><trkpt lat="44.4402199420118" lon="11.454359697715558"><ele>80.0</ele><time>2026-05-01T08:08:03.999Z</time></trkpt><trkpt lat="44.44018437594027" lon="11.454495078709146"><ele>80.0</ele><time>2026-05-01T08:08:05.999Z</time></trkpt><trkpt lat="44.440155333857774" lon="11.454640008820345"><ele>80.0</ele><time>2026-05-01T08:08:07.999Z</time></trkpt><trkpt lat="44.440147447841774" lon="11.454799637282022"><ele>80.0</ele><time>2026-05-01T08:08:09.999Z</time></trkpt><trkpt lat="44.44011209632514" lon="11.454950089015474"><ele>80.0</ele><time>2026-05-01T08:08:11.999Z</time></trkpt><trkpt lat="44.44007636490191" lon="11.455104280939144"><ele>80.0</ele><time>2026-05-01T08:08:13.999Z</time></trkpt><trkpt lat="44.4400404759629" lon="11.455259152806807"><ele>80.0</ele><time>2026-05-01T08:08:15.999Z</time></trkpt><trkpt lat="44.44000794473126" lon="11.455398343065857"><ele>80.2</ele><time>2026-05-01T08:08:17.999Z</time></trkpt><trkpt lat="44.439976121818866" lon="11.455531167089129"><ele>80.4</ele><time>2026-05-01T08:08:19.999Z</time></trkpt><trkpt lat="44.4399438045432" lon="11.455666054495547"><ele>80.6</ele><time>2026-05-01T08:08:21.999Z</time></trkpt><trkpt lat="44.43991401137163" lon="11.455790406657215"><ele>80.8</ele><time>2026-05-01T08:08:23.999Z</time></trkpt><trkpt lat="44.439884104122676" lon="11.455915235990352"><ele>81.0</ele><time>2026-05-01T08:08:26Z</time></trkpt><trkpt lat="44.43985491320857" lon="11.45603707457153"><ele>81.0</ele><time>2026-05-01T08:08:28Z</time></trkpt><trkpt lat="44.43982635574664" lon="11.45615626903693"><ele>81.0</ele><time>2026-05-01T08:08:30Z</time></trkpt><trkpt lat="44.439797266200976" lon="11.456278234467215"><ele>81.0</ele><time>2026-05-01T08:08:32Z</time></trkpt><trkpt lat="44.439769007410895" lon="11.456397500703252"><ele>81.0</ele><time>2026-05-01T08:08:34Z</time></trkpt><trkpt lat="44.4397142015539" lon="11.456507412789232"><ele>81.0</ele><time>2026-05-01T08:08:36Z</time></trkpt><trkpt lat="44.43968835318588" lon="11.456623513665429"><ele>81.16666666666667</ele><time>2026-05-01T08:08:38Z</time></trkpt><trkpt lat="44.43966083968886" lon="11.456739146343285"><ele>81.33333333333333</ele><time>2026-05-01T08:08:40Z</time></trkpt><trkpt lat="44.4396316526966" lon="11.4568541346653"><ele>81.5</ele><time>2026-05-01T08:08:42Z</time></trkpt><trkpt lat="44.43960522009775" lon="11.456970521584287"><ele>81.66666666666666</ele><time>2026-05-01T08:08:44Z</time></trkpt><trkpt lat="44.4396051125531" lon="11.457096920873617"><ele>81.83333333333333</ele><time>2026-05-01T08:08:46Z</time></trkpt><trkpt lat="44.43957695511975" lon="11.457217082580467"><ele>82.0</ele><time>2026-05-01T08:08:48Z</time></trkpt><trkpt lat="44.439548181449815" lon="11.457339873754316"><ele>82.19999999999999</ele><time>2026-05-01T08:08:50Z</time></trkpt><trkpt lat="44.43952055977292" lon="11.457457748676333"><ele>82.4</ele><time>2026-05-01T08:08:52Z</time></trkpt><trkpt lat="44.439492112236586" lon="11.457579148459793"><ele>82.6</ele><time>2026-05-01T08:08:54Z</time></trkpt><trkpt lat="44.439464315144676" lon="11.457697772437932"><ele>82.80000000000001</ele><time>2026-05-01T08:08:56Z</time></trkpt><trkpt lat="44.43943527632322" lon="11.457821695288672"><ele>83.0</ele><time>2026-05-01T08:08:58Z</time></trkpt><trkpt lat="44.43940712086314" lon="11.457941848019463"><ele>83.60000000000001</ele><time>2026-05-01T08:09:00Z</time></trkpt><trkpt lat="44.439378743951615" lon="11.458062944058799"><ele>84.2</ele><time>2026-05-01T08:09:02Z</time></trkpt><trkpt lat="44.43935020537214" lon="11.458185664774396"><ele>84.8</ele><time>2026-05-01T08:09:04Z</time></trkpt><trkpt lat="44.43932151772255" lon="11.45830877606414"><ele>85.4</ele><time>2026-05-01T08:09:06Z</time></trkpt><trkpt lat="44.43929275230845" lon="11.45843222109413"><ele>86.0</ele><time>2026-05-01T08:09:08Z</time></trkpt><trkpt lat="44.439264439633874" lon="11.458553723252153"><ele>86.0</ele><time>2026-05-01T08:09:10Z</time></trkpt><trkpt lat="44.43923609051388" lon="11.458675381831041"><ele>86.0</ele><time>2026-05-01T08:09:12Z</time></trkpt><trkpt lat="44.43920736617191" lon="11.458796419899084"><ele>86.0</ele><time>2026-05-01T08:09:14Z</time></trkpt><trkpt lat="44.43917608030009" lon="11.458926580492138"><ele>86.0</ele><time>2026-05-01T08:09:16Z</time></trkpt><trkpt lat="44.439142061602645" lon="11.459063326626417"><ele>86.0</ele><time>2026-05-01T08:09:18Z</time></trkpt><trkpt lat="44.43910449012824" lon="11.45919875211187"><ele>86.0</ele><time>2026-05-01T08:09:20Z</time></trkpt><trkpt lat="44.43904688982819" lon="11.459325160624418"><ele>86.0</ele><time>2026-05-01T08:09:22Z</time></trkpt><trkpt lat="44.439006571546365" lon="11.459463305545746"><ele>86.0</ele><time>2026-05-01T08:09:24Z</time></trkpt><trkpt lat="44.43896103796793" lon="11.45959850084816"><ele>86.0</ele><time>2026-05-01T08:09:26Z</time></trkpt><trkpt lat="44.43891601227726" lon="11.459728639703451"><ele>86.0</ele><time>2026-05-01T08:09:28Z</time></trkpt><trkpt lat="44.43886757201525" lon="11.459858287188256"><ele>85.4</ele><time>2026-05-01T08:09:30Z</time></trkpt><trkpt lat="44.43881359254711" lon="11.459996259481429"><ele>84.8</ele><time>2026-05-01T08:09:32Z</time></trkpt><trkpt lat="44.43876279846258" lon="11.460131612188686"><ele>84.2</ele><time>2026-05-01T08:09:34Z</time></trkpt><trkpt lat="44.43871172265666" lon="11.460268236828224"><ele>83.60000000000001</ele><time>2026-05-01T08:09:36Z</time></trkpt><trkpt lat="44.438660638915906" lon="11.460395106245743"><ele>83.0</ele><time>2026-05-01T08:09:38Z</time></trkpt><trkpt lat="44.438609001384336" lon="11.460511812428129"><ele>83.0</ele><time>2026-05-01T08:09:40Z</time></trkpt><trkpt lat="44.438556889299576" lon="11.46064290936773"><ele>83.0</ele><time>2026-05-01T08:09:42Z</time></trkpt><trkpt lat="44.43848338963061" lon="11.460725131944615"><ele>83.0</ele><time>2026-05-01T08:09:43.999Z</time></trkpt><trkpt lat="44.438425051738356" lon="11.460835463555801"><ele>83.0</ele><time>2026-05-01T08:09:45.999Z</time></trkpt><trkpt lat="44.43834967073579" lon="11.460926902744696"><ele>83.0</ele><time>2026-05-01T08:09:47.999Z</time></trkpt><trkpt lat="44.43827479129394" lon="11.461022101682987"><ele>83.0</ele><time>2026-05-01T08:09:49.999Z</time></trkpt><trkpt lat="44.43819958863953" lon="11.461113501369777"><ele>83.0</ele><time>2026-05-01T08:09:51.999Z</time></trkpt><trkpt lat="44.43812554619563" lon="11.461205851058706"><ele>83.0</ele><time>2026-05-01T08:09:53.999Z</time></trkpt><trkpt lat="44.438045249875344" lon="11.461292664647686"><ele>83.0</ele><time>2026-05-01T08:09:55.999Z</time></trkpt><trkpt lat="44.43795979644845" lon="11.461372122200412"><ele>83.0</ele><time>2026-05-01T08:09:57.999Z</time></trkpt><trkpt lat="44.43787033738551" lon="11.461445590190383"><ele>82.4</ele><time>2026-05-01T08:09:59.999Z</time></trkpt><trkpt lat="44.43778102762957" lon="11.461517041258576"><ele>81.80000000000001</ele><time>2026-05-01T08:10:01.999Z</time></trkpt><trkpt lat="44.43769569093407" lon="11.461593423717316"><ele>81.2</ele><time>2026-05-01T08:10:03.999Z</time></trkpt><trkpt lat="44.43760994665941" lon="11.461669431983243"><ele>80.6</ele><time>2026-05-01T08:10:05.999Z</time></trkpt><trkpt lat="44.43752333231553" lon="11.46175416285594"><ele>80.0</ele><time>2026-05-01T08:10:07.999Z</time></trkpt><trkpt lat="44.43744735227448" lon="11.461854852583066"><ele>80.0</ele><time>2026-05-01T08:10:09.999Z</time></trkpt><trkpt lat="44.43737563087187" lon="11.461960562325423"><ele>80.0</ele><time>2026-05-01T08:10:11.999Z</time></trkpt><trkpt lat="44.43731294201873" lon="11.462088159194458"><ele>80.0</ele><time>2026-05-01T08:10:13.999Z</time></trkpt><trkpt lat="44.437234731581526" lon="11.462200916381665"><ele>80.0</ele><time>2026-05-01T08:10:15.999Z</time></trkpt><trkpt lat="44.43717505677395" lon="11.462336308858491"><ele>80.0</ele><time>2026-05-01T08:10:17.999Z</time></trkpt><trkpt lat="44.43711851863583" lon="11.462465233080339"><ele>80.6</ele><time>2026-05-01T08:10:19.999Z</time></trkpt><trkpt lat="44.437059745289794" lon="11.462582922939536"><ele>81.2</ele><time>2026-05-01T08:10:21.999Z</time></trkpt><trkpt lat="44.436999317746704" lon="11.462693418573902"><ele>81.80000000000001</ele><time>2026-05-01T08:10:23.999Z</time></trkpt><trkpt lat="44.43694472975538" lon="11.462801823442533"><ele>82.4</ele><time>2026-05-01T08:10:25.999Z</time></trkpt><trkpt lat="44.436882568304455" lon="11.462907339777884"><ele>83.0</ele><time>2026-05-01T08:10:27.999Z</time></trkpt><trkpt lat="44.43682674892653" lon="11.463017360760471"><ele>83.0</ele><time>2026-05-01T08:10:29.999Z</time></trkpt><trkpt lat="44.43677140104728" lon="11.463122506761911"><ele>83.0</ele><time>2026-05-01T08:10:32Z</time></trkpt><trkpt lat="44.43668554853887" lon="11.463102496274892"><ele>83.0</ele><time>2026-05-01T08:10:34Z</time></trkpt><trkpt lat="44.43663094619152" lon="11.463042257134699"><ele>83.0</ele><time>2026-05-01T08:10:36Z</time></trkpt><trkpt lat="44.4365917081647" lon="11.462972739531176"><ele>83.0</ele><time>2026-05-01T08:10:38Z</time></trkpt><trkpt lat="44.43655722713344" lon="11.46289883523512"><ele>83.0</ele><time>2026-05-01T08:10:40Z</time></trkpt><trkpt lat="44.43652295835554" lon="11.462823048280297"><ele>83.0</ele><time>2026-05-01T08:10:42Z</time></trkpt><trkpt lat="44.43647019268988" lon="11.462728198059366"><ele>83.0</ele><time>2026-05-01T08:10:45Z</time></trkpt><trkpt lat="44.43642761849184" lon="11.462661458270123"><ele>83.0</ele><time>2026-05-01T08:10:47Z</time></trkpt><trkpt lat="44.43637415482754" lon="11.462563546681086"><ele>83.0</ele><time>2026-05-01T08:10:50Z</time></trkpt><trkpt lat="44.43632426837449" lon="11.462455479276159"><ele>83.0</ele><time>2026-05-01T08:10:53Z</time></trkpt><trkpt lat="44.436270129786784" lon="11.462351016646245"><ele>83.0</ele><time>2026-05-01T08:10:56Z</time></trkpt><trkpt lat="44.43622059781256" lon="11.462256869929933"><ele>83.0</ele><time>2026-05-01T08:10:59Z</time></trkpt><trkpt lat="44.43617384954304" lon="11.46216897092222"><ele>84.14285714285714</ele><time>2026-05-01T08:11:02Z</time></trkpt><trkpt lat="44.43613155427098" lon="11.462077001041498"><ele>85.28571428571429</ele><time>2026-05-01T08:11:05Z</time></trkpt><trkpt lat="44.436087500884064" lon="11.461986231290421"><ele>86.42857142857143</ele><time>2026-05-01T08:11:08Z</time></trkpt><trkpt lat="44.436035560555915" lon="11.461913441163295"><ele>87.57142857142857</ele><time>2026-05-01T08:11:11Z</time></trkpt><trkpt lat="44.435995688895815" lon="11.461821352010507"><ele>88.71428571428572</ele><time>2026-05-01T08:11:14Z</time></trkpt><trkpt lat="44.43594348923966" lon="11.46175349750256"><ele>89.85714285714286</ele><time>2026-05-01T08:11:17Z</time></trkpt><trkpt lat="44.435881619196344" lon="11.461713077953311"><ele>91.0</ele><time>2026-05-01T08:11:20Z</time></trkpt><trkpt lat="44.43583794907292" lon="11.46164481721576"><ele>91.0</ele><time>2026-05-01T08:11:23Z</time></trkpt><trkpt lat="44.43577270710849" lon="11.461580597274098"><ele>91.0</ele><time>2026-05-01T08:11:27Z</time></trkpt><trkpt lat="44.43570402229853" lon="11.461516322366649"><ele>91.0</ele><time>2026-05-01T08:11:31Z</time></trkpt><trkpt lat="44.43565008329534" lon="11.461467568616293"><ele>91.0</ele><time>2026-05-01T08:11:34Z</time></trkpt><trkpt lat="44.43559469723458" lon="11.461417506979803"><ele>91.0</ele><time>2026-05-01T08:11:37Z</time></trkpt><trkpt lat="44.435536868336314" lon="11.461380644654273"><ele>91.0</ele><time>2026-05-01T08:11:40Z</time></trkpt><trkpt lat="44.43548384946458" lon="11.461327721754849"><ele>91.0</ele><time>2026-05-01T08:11:43Z</time></trkpt><trkpt lat="44.435425935065844" lon="11.46127159070877"><ele>91.85714285714286</ele><time>2026-05-01T08:11:46Z</time></trkpt><trkpt lat="44.43537477010149" lon="11.461212701214858"><ele>92.71428571428572</ele><time>2026-05-01T08:11:49Z</time></trkpt><trkpt lat="44.435326992218535" lon="11.461152963518796"><ele>93.57142857142857</ele><time>2026-05-01T08:11:52Z</time></trkpt><trkpt lat="44.43528382597464" lon="11.461088278551031"><ele>94.42857142857143</ele><time>2026-05-01T08:11:54.999Z</time></trkpt><trkpt lat="44.43523111394148" lon="11.461030667269961"><ele>95.28571428571429</ele><time>2026-05-01T08:11:57.999Z</time></trkpt><trkpt lat="44.435187043287144" lon="11.460962524594736"><ele>96.14285714285714</ele><time>2026-05-01T08:12:00.999Z</time></trkpt><trkpt lat="44.43515103963628" lon="11.460887272322505"><ele>97.0</ele><time>2026-05-01T08:12:03.999Z</time></trkpt><trkpt lat="44.43510579432754" lon="11.460820610260642"><ele>97.0</ele><time>2026-05-01T08:12:06.999Z</time></trkpt><trkpt lat="44.43505819819892" lon="11.460750487851847"><ele>97.0</ele><time>2026-05-01T08:12:09.999Z</time></trkpt><trkpt lat="44.435007454574404" lon="11.460675728260593"><ele>97.0</ele><time>2026-05-01T08:12:12.999Z</time></trkpt><trkpt lat="44.43495416067263" lon="11.460603978248438"><ele>97.0</ele><time>2026-05-01T08:12:15.999Z</time></trkpt><trkpt lat="44.43489381731057" lon="11.460544433628577"><ele>97.0</ele><time>2026-05-01T08:12:18.999Z</time></trkpt><trkpt lat="44.43484897815867" lon="11.460470952216394"><ele>97.0</ele><time>2026-05-01T08:12:21.999Z</time></trkpt><trkpt lat="44.43480005131937" lon="11.460400849661807"><ele>97.0</ele><time>2026-05-01T08:12:24.999Z</time></trkpt><trkpt lat="44.43474999876255" lon="11.460335554152755"><ele>97.28571428571428</ele><time>2026-05-01T08:12:27.999Z</time></trkpt><trkpt lat="44.434705005610404" lon="11.460270587245535"><ele>97.57142857142858</ele><time>2026-05-01T08:12:30.999Z</time></trkpt><trkpt lat="44.4346584142496" lon="11.460207482897676"><ele>97.85714285714286</ele><time>2026-05-01T08:12:33.999Z</time></trkpt><trkpt lat="44.434612021546094" lon="11.460139791064114"><ele>98.14285714285714</ele><time>2026-05-01T08:12:37Z</time></trkpt><trkpt lat="44.43456438710295" lon="11.460076995405823"><ele>98.42857142857142</ele><time>2026-05-01T08:12:40Z</time></trkpt><trkpt lat="44.43452004220594" lon="11.46001293276783"><ele>98.71428571428572</ele><time>2026-05-01T08:12:43Z</time></trkpt><trkpt lat="44.43447231232485" lon="11.459948313088764"><ele>99.0</ele><time>2026-05-01T08:12:46Z</time></trkpt><trkpt lat="44.434424964400115" lon="11.459884765405949"><ele>100.33333333333333</ele><time>2026-05-01T08:12:49Z</time></trkpt><trkpt lat="44.43438156750414" lon="11.459818679859882"><ele>101.66666666666666</ele><time>2026-05-01T08:12:52Z</time></trkpt><trkpt lat="44.434335139718534" lon="11.459758406068671"><ele>103.0</ele><time>2026-05-01T08:12:55Z</time></trkpt><trkpt lat="44.43427261954642" lon="11.459682791520274"><ele>104.33333333333333</ele><time>2026-05-01T08:12:59Z</time></trkpt><trkpt lat="44.434214057066704" lon="11.459604819675361"><ele>105.66666666666666</ele><time>2026-05-01T08:13:03Z</time></trkpt><trkpt lat="44.43414742876039" lon="11.459545602405772"><ele>107.0</ele><time>2026-05-01T08:13:07Z</time></trkpt><trkpt lat="44.434076122381924" lon="11.459485528268676"><ele>107.28571428571429</ele><time>2026-05-01T08:13:11Z</time></trkpt><trkpt lat="44.4340169713586" lon="11.459442984566744"><ele>107.57142857142857</ele><time>2026-05-01T08:13:14Z</time></trkpt><trkpt lat="44.43396099545112" lon="11.459389707637918"><ele>107.85714285714286</ele><time>2026-05-01T08:13:17Z</time></trkpt><trkpt lat="44.43390079100955" lon="11.459336627777816"><ele>108.14285714285714</ele><time>2026-05-01T08:13:20Z</time></trkpt><trkpt lat="44.43383823474001" lon="11.45928832102725"><ele>108.42857142857143</ele><time>2026-05-01T08:13:23Z</time></trkpt><trkpt lat="44.43378202646274" lon="11.459234959541408"><ele>108.71428571428572</ele><time>2026-05-01T08:13:26Z</time></trkpt><trkpt lat="44.43372046496469" lon="11.459190557629276"><ele>109.0</ele><time>2026-05-01T08:13:29Z</time></trkpt><trkpt lat="44.433661535719125" lon="11.459143453233375"><ele>109.42857142857143</ele><time>2026-05-01T08:13:32Z</time></trkpt><trkpt lat="44.43360284832688" lon="11.45909596717068"><ele>109.85714285714286</ele><time>2026-05-01T08:13:35Z</time></trkpt><trkpt lat="44.43354118950912" lon="11.459044811366905"><ele>110.28571428571428</ele><time>2026-05-01T08:13:38Z</time></trkpt><trkpt lat="44.43348278018014" lon="11.458988714298238"><ele>110.71428571428572</ele><time>2026-05-01T08:13:41Z</time></trkpt><trkpt lat="44.43341763958187" lon="11.45894147044487"><ele>111.14285714285714</ele><time>2026-05-01T08:13:44Z</time></trkpt><trkpt lat="44.43335539943001" lon="11.458892300501834"><ele>111.57142857142857</ele><time>2026-05-01T08:13:47Z</time></trkpt><trkpt lat="44.43329310844947" lon="11.458836092947712"><ele>112.0</ele><time>2026-05-01T08:13:50Z</time></trkpt><trkpt lat="44.43322621531885" lon="11.458789553736436"><ele>112.28571428571428</ele><time>2026-05-01T08:13:52.999Z</time></trkpt><trkpt lat="44.43316558790615" lon="11.458730329623217"><ele>112.57142857142857</ele><time>2026-05-01T08:13:55.999Z</time></trkpt><trkpt lat="44.433102953818256" lon="11.458673946356239"><ele>112.85714285714286</ele><time>2026-05-01T08:13:58.999Z</time></trkpt><trkpt lat="44.43303895451662" lon="11.458618586974262"><ele>113.14285714285714</ele><time>2026-05-01T08:14:01.999Z</time></trkpt><trkpt lat="44.43297899649455" lon="11.458567384439657"><ele>113.42857142857142</ele><time>2026-05-01T08:14:04.999Z</time></trkpt><trkpt lat="44.43291911240922" lon="11.45851753953934"><ele>113.71428571428571</ele><time>2026-05-01T08:14:07.999Z</time></trkpt><trkpt lat="44.4328532815682" lon="11.458461941238026"><ele>114.0</ele><time>2026-05-01T08:14:10.999Z</time></trkpt><trkpt lat="44.43278896541667" lon="11.458417352577184"><ele>114.14285714285714</ele><time>2026-05-01T08:14:13.999Z</time></trkpt><trkpt lat="44.43272661410119" lon="11.458359265347854"><ele>114.28571428571428</ele><time>2026-05-01T08:14:16.999Z</time></trkpt><trkpt lat="44.432661850401566" lon="11.458306838749182"><ele>114.42857142857142</ele><time>2026-05-01T08:14:19.999Z</time></trkpt><trkpt lat="44.432599873937264" lon="11.45825006393658"><ele>114.57142857142856</ele><time>2026-05-01T08:14:22.999Z</time></trkpt><trkpt lat="44.43253492324987" lon="11.45819399695742"><ele>114.71428571428571</ele><time>2026-05-01T08:14:25.999Z</time></trkpt><trkpt lat="44.43246911843969" lon="11.458145809778024"><ele>114.85714285714283</ele><time>2026-05-01T08:14:28.999Z</time></trkpt><trkpt lat="44.43240315445713" lon="11.45809826881237"><ele>114.99999999999999</ele><time>2026-05-01T08:14:31.999Z</time></trkpt><trkpt lat="44.432337365304136" lon="11.458040386905685"><ele>115.00000000000001</ele><time>2026-05-01T08:14:34.999Z</time></trkpt><trkpt lat="44.432271098592416" lon="11.457989500595142"><ele>115.0</ele><time>2026-05-01T08:14:37.999Z</time></trkpt><trkpt lat="44.432204583379026" lon="11.457941229508247"><ele>115.0</ele><time>2026-05-01T08:14:40.999Z</time></trkpt><trkpt lat="44.432138487061366" lon="11.457892173627434"><ele>115.0</ele><time>2026-05-01T08:14:44Z</time></trkpt><trkpt lat="44.43207705040523" lon="11.457832392541809"><ele>115.00000000000001</ele><time>2026-05-01T08:14:47Z</time></trkpt><trkpt lat="44.43200871769417" lon="11.457775437663273"><ele>115.0</ele><time>2026-05-01T08:14:50Z</time></trkpt><trkpt lat="44.43193962248091" lon="11.457723107470684"><ele>115.50000000000001</ele><time>2026-05-01T08:14:53Z</time></trkpt><trkpt lat="44.43186505540311" lon="11.457673717746491"><ele>116.0</ele><time>2026-05-01T08:14:56Z</time></trkpt><trkpt lat="44.43179626528619" lon="11.457612038107081"><ele>116.5</ele><time>2026-05-01T08:14:59Z</time></trkpt><trkpt lat="44.43172733076936" lon="11.457561219076531"><ele>117.0</ele><time>2026-05-01T08:15:02Z</time></trkpt><trkpt lat="44.431660933623945" lon="11.457513495740553"><ele>117.50000000000001</ele><time>2026-05-01T08:15:05Z</time></trkpt><trkpt lat="44.43159872367565" lon="11.457453736928617"><ele>118.0</ele><time>2026-05-01T08:15:08Z</time></trkpt><trkpt lat="44.431521349133455" lon="11.457393044360883"><ele>118.00000000000001</ele><time>2026-05-01T08:15:11Z</time></trkpt><trkpt lat="44.43145104182192" lon="11.457337522874738"><ele>118.0</ele><time>2026-05-01T08:15:14Z</time></trkpt><trkpt lat="44.43138568796432" lon="11.45728070759755"><ele>118.0</ele><time>2026-05-01T08:15:17Z</time></trkpt><trkpt lat="44.43132410210659" lon="11.457208508189359"><ele>118.0</ele><time>2026-05-01T08:15:20Z</time></trkpt><trkpt lat="44.43125781884176" lon="11.457159075729665"><ele>118.00000000000001</ele><time>2026-05-01T08:15:23Z</time></trkpt><trkpt lat="44.431193041659775" lon="11.457102595846557"><ele>118.0</ele><time>2026-05-01T08:15:26Z</time></trkpt><trkpt lat="44.43112792959289" lon="11.45705845560548"><ele>118.33333333333334</ele><time>2026-05-01T08:15:29Z</time></trkpt><trkpt lat="44.431065124365944" lon="11.457002580438253"><ele>118.66666666666667</ele><time>2026-05-01T08:15:32Z</time></trkpt><trkpt lat="44.43099636429102" lon="11.456937930719832"><ele>119.0</ele><time>2026-05-01T08:15:36Z</time></trkpt><trkpt lat="44.430928081463016" lon="11.456889222437992"><ele>119.33333333333334</ele><time>2026-05-01T08:15:39Z</time></trkpt><trkpt lat="44.430843859370434" lon="11.456837517666623"><ele>119.66666666666667</ele><time>2026-05-01T08:15:43Z</time></trkpt><trkpt lat="44.43078461211456" lon="11.456789837839372"><ele>120.0</ele><time>2026-05-01T08:15:46Z</time></trkpt><trkpt lat="44.43072979851265" lon="11.456735470410337"><ele>120.0</ele><time>2026-05-01T08:15:49Z</time></trkpt><trkpt lat="44.430678901761404" lon="11.456671827937901"><ele>120.0</ele><time>2026-05-01T08:15:52Z</time></trkpt><trkpt lat="44.43062898764174" lon="11.456617750811645"><ele>120.0</ele><time>2026-05-01T08:15:55Z</time></trkpt><trkpt lat="44.430563185118515" lon="11.456576449324931"><ele>120.0</ele><time>2026-05-01T08:15:57.999Z</time></trkpt><trkpt lat="44.430493062622155" lon="11.456525754375685"><ele>120.0</ele><time>2026-05-01T08:16:01.999Z</time></trkpt><trkpt lat="44.43043760949467" lon="11.45647872361701"><ele>120.0</ele><time>2026-05-01T08:16:04.999Z</time></trkpt><trkpt lat="44.4303753353914" lon="11.456432988839172"><ele>120.0</ele><time>2026-05-01T08:16:08.999Z</time></trkpt><trkpt lat="44.43031146893861" lon="11.456374813513596"><ele>121.28571428571429</ele><time>2026-05-01T08:16:12.999Z</time></trkpt><trkpt lat="44.43023982016013" lon="11.45632092967066"><ele>122.57142857142856</ele><time>2026-05-01T08:16:16.999Z</time></trkpt><trkpt lat="44.43017521641625" lon="11.456265653988206"><ele>123.85714285714285</ele><time>2026-05-01T08:16:20.999Z</time></trkpt><trkpt lat="44.43012261684848" lon="11.456189684145365"><ele>125.14285714285714</ele><time>2026-05-01T08:16:24.999Z</time></trkpt><trkpt lat="44.43006886993436" lon="11.456124908335626"><ele>126.42857142857142</ele><time>2026-05-01T08:16:28.999Z</time></trkpt><trkpt lat="44.43001263085028" lon="11.456082227522833"><ele>127.7142857142857</ele><time>2026-05-01T08:16:32.999Z</time></trkpt><trkpt lat="44.42995402273689" lon="11.456034487322182"><ele>129.0</ele><time>2026-05-01T08:16:36.999Z</time></trkpt><trkpt lat="44.42988781524217" lon="11.45598869115728"><ele>129.0</ele><time>2026-05-01T08:16:40.999Z</time></trkpt><trkpt lat="44.42983195245196" lon="11.45593457912576"><ele>129.0</ele><time>2026-05-01T08:16:44.999Z</time></trkpt><trkpt lat="44.42977569460345" lon="11.455864169551736"><ele>129.0</ele><time>2026-05-01T08:16:50Z</time></trkpt><trkpt lat="44.42970322247684" lon="11.455820907314028"><ele>129.0</ele><time>2026-05-01T08:16:54Z</time></trkpt><trkpt lat="44.42964533058624" lon="11.455755373371437"><ele>129.0</ele><time>2026-05-01T08:16:58Z</time></trkpt><trkpt lat="44.429583065362294" lon="11.455685211582907"><ele>129.0</ele><time>2026-05-01T08:17:02Z</time></trkpt><trkpt lat="44.42951891856041" lon="11.455627123912516"><ele>130.57142857142856</ele><time>2026-05-01T08:17:06Z</time></trkpt><trkpt lat="44.42946088765229" lon="11.455580838908022"><ele>132.14285714285714</ele><time>2026-05-01T08:17:10Z</time></trkpt><trkpt lat="44.429402528097654" lon="11.455545469870449"><ele>133.71428571428572</ele><time>2026-05-01T08:17:14Z</time></trkpt><trkpt lat="44.42933680356741" lon="11.455532354973121"><ele>135.28571428571428</ele><time>2026-05-01T08:17:18Z</time></trkpt><trkpt lat="44.42926091049266" lon="11.455534098254919"><ele>136.85714285714286</ele><time>2026-05-01T08:17:23Z</time></trkpt><trkpt lat="44.42919241972844" lon="11.45553848279877"><ele>138.42857142857142</ele><time>2026-05-01T08:17:27Z</time></trkpt><trkpt lat="44.429128369570904" lon="11.455552358523278"><ele>140.0</ele><time>2026-05-01T08:17:31Z</time></trkpt><trkpt lat="44.42906304419143" lon="11.455566319298457"><ele>140.0</ele><time>2026-05-01T08:17:35Z</time></trkpt><trkpt lat="44.428996524676045" lon="11.455595136674011"><ele>140.0</ele><time>2026-05-01T08:17:39Z</time></trkpt><trkpt lat="44.4289307421814" lon="11.45561472014995"><ele>140.0</ele><time>2026-05-01T08:17:43Z</time></trkpt><trkpt lat="44.42885620917454" lon="11.45564008410033"><ele>140.0</ele><time>2026-05-01T08:17:46.999Z</time></trkpt><trkpt lat="44.42877743285325" lon="11.455660400687348"><ele>140.0</ele><time>2026-05-01T08:17:50.999Z</time></trkpt><trkpt lat="44.42871058325587" lon="11.4556557447033"><ele>140.0</ele><time>2026-05-01T08:17:53.999Z</time></trkpt><trkpt lat="44.42864467413399" lon="11.455645844023735"><ele>140.0</ele><time>2026-05-01T08:17:56.999Z</time></trkpt><trkpt lat="44.42857770425131" lon="11.455620638350604"><ele>140.33333333333331</ele><time>2026-05-01T08:17:59.999Z</time></trkpt><trkpt lat="44.42850886706148" lon="11.455589572731961"><ele>140.66666666666666</ele><time>2026-05-01T08:18:02.999Z</time></trkpt><trkpt lat="44.428429844889884" lon="11.455554090056074"><ele>141.0</ele><time>2026-05-01T08:18:05.999Z</time></trkpt><trkpt lat="44.42834721970399" lon="11.455525690763988"><ele>141.33333333333334</ele><time>2026-05-01T08:18:08.999Z</time></trkpt><trkpt lat="44.42826416150066" lon="11.45549043357668"><ele>141.66666666666669</ele><time>2026-05-01T08:18:11.999Z</time></trkpt><trkpt lat="44.42817295073018" lon="11.455451326192119"><ele>142.0</ele><time>2026-05-01T08:18:14.999Z</time></trkpt><trkpt lat="44.42810419619999" lon="11.45542126686185"><ele>142.16666666666669</ele><time>2026-05-01T08:18:16.999Z</time></trkpt><trkpt lat="44.42803250626364" lon="11.455395895014984"><ele>142.33333333333334</ele><time>2026-05-01T08:18:18.999Z</time></trkpt><trkpt lat="44.42795929990278" lon="11.455367826958852"><ele>142.5</ele><time>2026-05-01T08:18:20.999Z</time></trkpt><trkpt lat="44.42788009115685" lon="11.455338067659483"><ele>142.66666666666666</ele><time>2026-05-01T08:18:22.999Z</time></trkpt><trkpt lat="44.42779444631745" lon="11.45530666141659"><ele>142.83333333333331</ele><time>2026-05-01T08:18:24.999Z</time></trkpt><trkpt lat="44.4277026030711" lon="11.455277339489063"><ele>143.0</ele><time>2026-05-01T08:18:26.999Z</time></trkpt><trkpt lat="44.427610969043805" lon="11.455252297646734"><ele>143.6</ele><time>2026-05-01T08:18:28.999Z</time></trkpt><trkpt lat="44.42752281211252" lon="11.455215981011268"><ele>144.20000000000002</ele><time>2026-05-01T08:18:30.999Z</time></trkpt><trkpt lat="44.42743212707969" lon="11.455184756008123"><ele>144.8</ele><time>2026-05-01T08:18:32.999Z</time></trkpt><trkpt lat="44.427341417801465" lon="11.455156463503553"><ele>145.4</ele><time>2026-05-01T08:18:34.999Z</time></trkpt><trkpt lat="44.42725440134458" lon="11.455127022919182"><ele>146.0</ele><time>2026-05-01T08:18:36.999Z</time></trkpt><trkpt lat="44.42716977989473" lon="11.45509290577873"><ele>146.42857142857142</ele><time>2026-05-01T08:18:38.999Z</time></trkpt><trkpt lat="44.42709103915963" lon="11.455065534027083"><ele>146.85714285714286</ele><time>2026-05-01T08:18:40.999Z</time></trkpt><trkpt lat="44.42701827487105" lon="11.455031021022227"><ele>147.28571428571428</ele><time>2026-05-01T08:18:42.999Z</time></trkpt><trkpt lat="44.426953306908736" lon="11.45500591961712"><ele>147.71428571428572</ele><time>2026-05-01T08:18:44.999Z</time></trkpt><trkpt lat="44.42688654357045" lon="11.45498645636868"><ele>148.14285714285714</ele><time>2026-05-01T08:18:46.999Z</time></trkpt><trkpt lat="44.42682308058421" lon="11.454961169808582"><ele>148.57142857142856</ele><time>2026-05-01T08:18:48.999Z</time></trkpt><trkpt lat="44.42676310596384" lon="11.454926985377314"><ele>149.0</ele><time>2026-05-01T08:18:50.999Z</time></trkpt><trkpt lat="44.42670675191554" lon="11.454885407669893"><ele>149.0</ele><time>2026-05-01T08:18:52.999Z</time></trkpt><trkpt lat="44.42662762073598" lon="11.454816868595541"><ele>149.0</ele><time>2026-05-01T08:18:56Z</time></trkpt><trkpt lat="44.42654940887702" lon="11.454747944039992"><ele>149.0</ele><time>2026-05-01T08:18:59Z</time></trkpt><trkpt lat="44.426470963704254" lon="11.454685497861355"><ele>149.0</ele><time>2026-05-01T08:19:02Z</time></trkpt><trkpt lat="44.42641506535583" lon="11.454644744736294"><ele>149.0</ele><time>2026-05-01T08:19:04Z</time></trkpt><trkpt lat="44.42633045760796" lon="11.454594083022853"><ele>149.0</ele><time>2026-05-01T08:19:07Z</time></trkpt><trkpt lat="44.426245656922504" lon="11.45455045207413"><ele>149.33333333333331</ele><time>2026-05-01T08:19:10Z</time></trkpt><trkpt lat="44.42615774424336" lon="11.454525582574613"><ele>149.66666666666666</ele><time>2026-05-01T08:19:13Z</time></trkpt><trkpt lat="44.42607857842685" lon="11.45447730429575"><ele>150.0</ele><time>2026-05-01T08:19:16Z</time></trkpt><trkpt lat="44.42600441249726" lon="11.454459344614104"><ele>150.33333333333334</ele><time>2026-05-01T08:19:19Z</time></trkpt><trkpt lat="44.4259273261561" lon="11.45444501846732"><ele>150.66666666666669</ele><time>2026-05-01T08:19:22Z</time></trkpt><trkpt lat="44.42585258062144" lon="11.454433152956073"><ele>151.0</ele><time>2026-05-01T08:19:25Z</time></trkpt><trkpt lat="44.42578149119061" lon="11.454425085094375"><ele>151.00000000000003</ele><time>2026-05-01T08:19:28Z</time></trkpt><trkpt lat="44.425714634936845" lon="11.454417497648308"><ele>151.0</ele><time>2026-05-01T08:19:31Z</time></trkpt><trkpt lat="44.42563713903522" lon="11.454411069374714"><ele>151.0</ele><time>2026-05-01T08:19:35Z</time></trkpt><trkpt lat="44.42556099272685" lon="11.454404906117952"><ele>151.0</ele><time>2026-05-01T08:19:39Z</time></trkpt><trkpt lat="44.42548745969477" lon="11.454401283535493"><ele>151.0</ele><time>2026-05-01T08:19:43Z</time></trkpt><trkpt lat="44.425418665688326" lon="11.45441354828886"><ele>151.00000000000003</ele><time>2026-05-01T08:19:47Z</time></trkpt><trkpt lat="44.42534857265599" lon="11.454418872633555"><ele>151.0</ele><time>2026-05-01T08:19:51Z</time></trkpt><trkpt lat="44.425270298407064" lon="11.454417102321521"><ele>152.2857142857143</ele><time>2026-05-01T08:19:55Z</time></trkpt><trkpt lat="44.42520590778451" lon="11.45439302544088"><ele>153.57142857142858</ele><time>2026-05-01T08:19:58Z</time></trkpt><trkpt lat="44.4251311467953" lon="11.454391262710834"><ele>154.85714285714286</ele><time>2026-05-01T08:20:02Z</time></trkpt><trkpt lat="44.42505800077283" lon="11.45438953811814"><ele>156.14285714285717</ele><time>2026-05-01T08:20:05.999Z</time></trkpt><trkpt lat="44.424978407023126" lon="11.45438766150762"><ele>157.42857142857144</ele><time>2026-05-01T08:20:10.999Z</time></trkpt><trkpt lat="44.4249158081817" lon="11.454416943786828"><ele>158.71428571428572</ele><time>2026-05-01T08:20:14.999Z</time></trkpt><trkpt lat="44.42484150125027" lon="11.454398928813385"><ele>160.0</ele><time>2026-05-01T08:20:20.999Z</time></trkpt><trkpt lat="44.424771486305765" lon="11.454383625823052"><ele>160.0</ele><time>2026-05-01T08:20:25.999Z</time></trkpt><trkpt lat="44.42469650669839" lon="11.45438633661705"><ele>160.0</ele><time>2026-05-01T08:20:30.999Z</time></trkpt><trkpt lat="44.42462648902735" lon="11.454393449131699"><ele>160.0</ele><time>2026-05-01T08:20:36.999Z</time></trkpt><trkpt lat="44.42456436019324" lon="11.454360922290629"><ele>160.0</ele><time>2026-05-01T08:20:40.999Z</time></trkpt><trkpt lat="44.42449262584799" lon="11.454383406209184"><ele>160.0</ele><time>2026-05-01T08:20:46.999Z</time></trkpt><trkpt lat="44.42442437075296" lon="11.454423659254484"><ele>160.0</ele><time>2026-05-01T08:20:52.999Z</time></trkpt><trkpt lat="44.42437163244187" lon="11.454488787026733"><ele>160.0</ele><time>2026-05-01T08:20:57.999Z</time></trkpt><trkpt lat="44.42430994382508" lon="11.454532524141543"><ele>162.83333333333334</ele><time>2026-05-01T08:21:06Z</time></trkpt><trkpt lat="44.42425597396528" lon="11.454600879442449"><ele>165.66666666666669</ele><time>2026-05-01T08:21:12Z</time></trkpt><trkpt lat="44.424205193431185" lon="11.454675761283738"><ele>168.5</ele><time>2026-05-01T08:21:17Z</time></trkpt><trkpt lat="44.42417756610099" lon="11.45475654680914"><ele>171.33333333333334</ele><time>2026-05-01T08:21:22Z</time></trkpt><trkpt lat="44.4241238968727" lon="11.454844436247559"><ele>174.16666666666666</ele><time>2026-05-01T08:21:28Z</time></trkpt><trkpt lat="44.424027934606706" lon="11.454996985299651"><ele>177.0</ele><time>2026-05-01T08:21:42Z</time></trkpt><trkpt lat="44.42398211261538" lon="11.45507746912224"><ele>177.2857142857143</ele><time>2026-05-01T08:21:47Z</time></trkpt><trkpt lat="44.42395494618033" lon="11.455161453775077"><ele>177.57142857142856</ele><time>2026-05-01T08:21:53Z</time></trkpt><trkpt lat="44.423927706203045" lon="11.45525418963003"><ele>177.85714285714286</ele><time>2026-05-01T08:21:58Z</time></trkpt><trkpt lat="44.42390726937453" lon="11.45534488210205"><ele>178.14285714285717</ele><time>2026-05-01T08:22:02Z</time></trkpt><trkpt lat="44.42388690033281" lon="11.455434232044485"><ele>178.42857142857144</ele><time>2026-05-01T08:22:05Z</time></trkpt><trkpt lat="44.4238614434708" lon="11.455549416200432"><ele>178.71428571428572</ele><time>2026-05-01T08:22:08Z</time></trkpt><trkpt lat="44.42381272366816" lon="11.45563416932816"><ele>179.0</ele><time>2026-05-01T08:22:10Z</time></trkpt><trkpt lat="44.42376243022284" lon="11.455736453765969"><ele>181.79999999999998</ele><time>2026-05-01T08:22:12Z</time></trkpt><trkpt lat="44.42367408282316" lon="11.455868490443493"><ele>184.6</ele><time>2026-05-01T08:22:14Z</time></trkpt><trkpt lat="44.423623054458915" lon="11.455959855818769"><ele>187.4</ele><time>2026-05-01T08:22:15Z</time></trkpt><trkpt lat="44.42353571569627" lon="11.456020156113583"><ele>190.2</ele><time>2026-05-01T08:22:16Z</time></trkpt><trkpt lat="44.42348411512969" lon="11.456096926218448"><ele>193.0</ele><time>2026-05-01T08:22:17Z</time></trkpt><trkpt lat="44.42342435018974" lon="11.4561858430435"><ele>192.99999999999997</ele><time>2026-05-01T08:22:18Z</time></trkpt><trkpt lat="44.42336486750948" lon="11.456275255311635"><ele>193.0</ele><time>2026-05-01T08:22:19Z</time></trkpt><trkpt lat="44.423305405018475" lon="11.456365932916055"><ele>193.0</ele><time>2026-05-01T08:22:20Z</time></trkpt><trkpt lat="44.423249815344455" lon="11.45645382878768"><ele>193.0</ele><time>2026-05-01T08:22:21Z</time></trkpt><trkpt lat="44.42319360931632" lon="11.456545163333468"><ele>192.99999999999997</ele><time>2026-05-01T08:22:22Z</time></trkpt><trkpt lat="44.42315191165231" lon="11.456637203891242"><ele>193.0</ele><time>2026-05-01T08:22:23Z</time></trkpt><trkpt lat="44.42309940243716" lon="11.456717950414243"><ele>193.66666666666666</ele><time>2026-05-01T08:22:24Z</time></trkpt><trkpt lat="44.423049771909334" lon="11.456785928999857"><ele>194.33333333333331</ele><time>2026-05-01T08:22:25Z</time></trkpt><trkpt lat="44.423003405238376" lon="11.456847042097484"><ele>195.0</ele><time>2026-05-01T08:22:26Z</time></trkpt><trkpt lat="44.422919220490144" lon="11.456950620260182"><ele>195.66666666666669</ele><time>2026-05-01T08:22:28Z</time></trkpt><trkpt lat="44.42284703979192" lon="11.457072055674267"><ele>196.33333333333334</ele><time>2026-05-01T08:22:29.999Z</time></trkpt><trkpt lat="44.42277715260574" lon="11.457143844675292"><ele>197.0</ele><time>2026-05-01T08:22:31.999Z</time></trkpt><trkpt lat="44.42273081035371" lon="11.457212420205611"><ele>194.71428571428572</ele><time>2026-05-01T08:22:33.999Z</time></trkpt><trkpt lat="44.422691860219636" lon="11.457284431666718"><ele>192.42857142857144</ele><time>2026-05-01T08:22:35.999Z</time></trkpt><trkpt lat="44.42263672512579" lon="11.45734055618095"><ele>190.14285714285714</ele><time>2026-05-01T08:22:37.999Z</time></trkpt><trkpt lat="44.42258648741643" lon="11.457429680336885"><ele>187.85714285714286</ele><time>2026-05-01T08:22:40.999Z</time></trkpt><trkpt lat="44.42253551852939" lon="11.457495286859231"><ele>185.57142857142856</ele><time>2026-05-01T08:22:43.999Z</time></trkpt><trkpt lat="44.422480040368406" lon="11.457570125406034"><ele>183.28571428571428</ele><time>2026-05-01T08:22:46.999Z</time></trkpt><trkpt lat="44.42242650322834" lon="11.457659613170515"><ele>181.0</ele><time>2026-05-01T08:22:50.999Z</time></trkpt><trkpt lat="44.42238243923505" lon="11.457723249441072"><ele>181.0</ele><time>2026-05-01T08:22:53.999Z</time></trkpt><trkpt lat="44.42233436540952" lon="11.45778568435212"><ele>181.0</ele><time>2026-05-01T08:22:56.999Z</time></trkpt><trkpt lat="44.42227407589822" lon="11.457870568073695"><ele>181.0</ele><time>2026-05-01T08:23:00.999Z</time></trkpt><trkpt lat="44.42222825037538" lon="11.4579367493569"><ele>181.0</ele><time>2026-05-01T08:23:03.999Z</time></trkpt><trkpt lat="44.42217706779475" lon="11.458003770126346"><ele>181.0</ele><time>2026-05-01T08:23:07Z</time></trkpt><trkpt lat="44.42213088621261" lon="11.458074573820882"><ele>181.0</ele><time>2026-05-01T08:23:10Z</time></trkpt><trkpt lat="44.42208217540753" lon="11.458138230524726"><ele>181.0</ele><time>2026-05-01T08:23:13Z</time></trkpt><trkpt lat="44.42203496753706" lon="11.458207947959115"><ele>182.16666666666669</ele><time>2026-05-01T08:23:16Z</time></trkpt><trkpt lat="44.42197594637565" lon="11.458285544065646"><ele>183.33333333333334</ele><time>2026-05-01T08:23:20Z</time></trkpt><trkpt lat="44.421920065100736" lon="11.458356089471014"><ele>184.5</ele><time>2026-05-01T08:23:24Z</time></trkpt><trkpt lat="44.42181218589856" lon="11.458311268174956"><ele>185.66666666666666</ele><time>2026-05-01T08:23:31Z</time></trkpt><trkpt lat="44.42176741343748" lon="11.458228456387744"><ele>186.83333333333331</ele><time>2026-05-01T08:23:36Z</time></trkpt><trkpt lat="44.42172390480153" lon="11.45815576753566"><ele>188.0</ele><time>2026-05-01T08:23:41Z</time></trkpt><trkpt lat="44.42170292929599" lon="11.458056902192629"><ele>188.0</ele><time>2026-05-01T08:23:47Z</time></trkpt><trkpt lat="44.42172231089156" lon="11.457959932412669"><ele>188.0</ele><time>2026-05-01T08:23:53Z</time></trkpt><trkpt lat="44.42175752714497" lon="11.457882691501842"><ele>188.0</ele><time>2026-05-01T08:23:58Z</time></trkpt><trkpt lat="44.42178884827497" lon="11.457801062583156"><ele>188.0</ele><time>2026-05-01T08:24:03Z</time></trkpt><trkpt lat="44.42182515169421" lon="11.457717444631108"><ele>188.0</ele><time>2026-05-01T08:24:08Z</time></trkpt><trkpt lat="44.421847152271894" lon="11.45762611015656"><ele>188.0</ele><time>2026-05-01T08:24:13Z</time></trkpt><trkpt lat="44.421870840457586" lon="11.457542219034874"><ele>188.0</ele><time>2026-05-01T08:24:18Z</time></trkpt><trkpt lat="44.421897414894914" lon="11.457458816811402"><ele>190.42857142857142</ele><time>2026-05-01T08:24:22Z</time></trkpt><trkpt lat="44.4219305863161" lon="11.457374606285196"><ele>192.85714285714283</ele><time>2026-05-01T08:24:26Z</time></trkpt><trkpt lat="44.42195194401617" lon="11.457286322817604"><ele>195.28571428571428</ele><time>2026-05-01T08:24:30.999Z</time></trkpt><trkpt lat="44.42198416576011" lon="11.457194367066466"><ele>197.71428571428572</ele><time>2026-05-01T08:24:36.999Z</time></trkpt><trkpt lat="44.42200214238332" lon="11.457103434527301"><ele>200.14285714285714</ele><time>2026-05-01T08:24:42.999Z</time></trkpt><trkpt lat="44.422019197400324" lon="11.457005082421617"><ele>202.57142857142858</ele><time>2026-05-01T08:24:48.999Z</time></trkpt><trkpt lat="44.42204870489092" lon="11.45691017639293"><ele>205.0</ele><time>2026-05-01T08:24:54.999Z</time></trkpt><trkpt lat="44.4220597827574" lon="11.45681793068194"><ele>203.85714285714286</ele><time>2026-05-01T08:25:00.999Z</time></trkpt><trkpt lat="44.42207906053306" lon="11.456723966998538"><ele>202.7142857142857</ele><time>2026-05-01T08:25:06.999Z</time></trkpt><trkpt lat="44.42209089725209" lon="11.45662421830443"><ele>201.57142857142856</ele><time>2026-05-01T08:25:13Z</time></trkpt><trkpt lat="44.42211787407537" lon="11.456533848124502"><ele>200.42857142857144</ele><time>2026-05-01T08:25:18Z</time></trkpt><trkpt lat="44.4221318140573" lon="11.456437868777815"><ele>199.28571428571428</ele><time>2026-05-01T08:25:23Z</time></trkpt><trkpt lat="44.42215478206988" lon="11.4563520425391"><ele>198.14285714285714</ele><time>2026-05-01T08:25:28Z</time></trkpt><trkpt lat="44.422188756578805" lon="11.45627676018339"><ele>197.0</ele><time>2026-05-01T08:25:33Z</time></trkpt><trkpt lat="44.422216189367454" lon="11.456179115748405"><ele>200.33333333333334</ele><time>2026-05-01T08:25:39Z</time></trkpt><trkpt lat="44.4222741412698" lon="11.45606187649832"><ele>203.66666666666669</ele><time>2026-05-01T08:25:49Z</time></trkpt><trkpt lat="44.422262633132775" lon="11.455959174546727"><ele>207.0</ele><time>2026-05-01T08:25:55Z</time></trkpt><trkpt lat="44.42220003749124" lon="11.455933086705373"><ele>210.33333333333331</ele><time>2026-05-01T08:26:00Z</time></trkpt><trkpt lat="44.422131597273705" lon="11.455979769509492"><ele>213.66666666666666</ele><time>2026-05-01T08:26:06Z</time></trkpt><trkpt lat="44.42206772145825" lon="11.456056145673433"><ele>217.0</ele><time>2026-05-01T08:26:11Z</time></trkpt><trkpt lat="44.42202456890761" lon="11.45612824599488"><ele>217.57142857142858</ele><time>2026-05-01T08:26:16Z</time></trkpt><trkpt lat="44.42197642163473" lon="11.456189354108954"><ele>218.14285714285714</ele><time>2026-05-01T08:26:20Z</time></trkpt><trkpt lat="44.42191462799602" lon="11.456231492477645"><ele>218.71428571428572</ele><time>2026-05-01T08:26:24Z</time></trkpt><trkpt lat="44.421855676914326" lon="11.456305233702716"><ele>219.28571428571428</ele><time>2026-05-01T08:26:29Z</time></trkpt><trkpt lat="44.42178899353293" lon="11.456371595869909"><ele>219.85714285714286</ele><time>2026-05-01T08:26:33.999Z</time></trkpt><trkpt lat="44.42173616249492" lon="11.45642287460174"><ele>220.42857142857144</ele><time>2026-05-01T08:26:37.999Z</time></trkpt><trkpt lat="44.421680418745716" lon="11.456484170608784"><ele>221.0</ele><time>2026-05-01T08:26:41.999Z</time></trkpt><trkpt lat="44.421633533076644" lon="11.456551373325743"><ele>221.00000000000003</ele><time>2026-05-01T08:26:45.999Z</time></trkpt><trkpt lat="44.42159398726607" lon="11.456640883572769"><ele>221.0</ele><time>2026-05-01T08:26:49.999Z</time></trkpt><trkpt lat="44.421559973065705" lon="11.456728513468057"><ele>221.0</ele><time>2026-05-01T08:26:54.999Z</time></trkpt><trkpt lat="44.421528254908495" lon="11.456806336458351"><ele>221.0</ele><time>2026-05-01T08:26:58.999Z</time></trkpt><trkpt lat="44.42149362186829" lon="11.45688284732029"><ele>221.0</ele><time>2026-05-01T08:27:02.999Z</time></trkpt><trkpt lat="44.42144330274773" lon="11.456947091553685"><ele>221.00000000000003</ele><time>2026-05-01T08:27:05.999Z</time></trkpt><trkpt lat="44.421391577016635" lon="11.457018696086969"><ele>221.0</ele><time>2026-05-01T08:27:09.999Z</time></trkpt><trkpt lat="44.42132878299019" lon="11.457062032554855"><ele>223.0</ele><time>2026-05-01T08:27:14.999Z</time></trkpt><trkpt lat="44.42126510902954" lon="11.45709184363133"><ele>225.0</ele><time>2026-05-01T08:27:19Z</time></trkpt><trkpt lat="44.421192018318486" lon="11.4571183066007"><ele>227.0</ele><time>2026-05-01T08:27:24Z</time></trkpt><trkpt lat="44.42112136178046" lon="11.457107428210422"><ele>229.0</ele><time>2026-05-01T08:27:29Z</time></trkpt><trkpt lat="44.42104797496286" lon="11.457095108793931"><ele>230.99999999999997</ele><time>2026-05-01T08:27:34Z</time></trkpt><trkpt lat="44.42097234865368" lon="11.457067173136293"><ele>233.0</ele><time>2026-05-01T08:27:39Z</time></trkpt><trkpt lat="44.42091337913119" lon="11.457020096772164"><ele>235.0</ele><time>2026-05-01T08:27:43Z</time></trkpt><trkpt lat="44.420843788995384" lon="11.45697568138135"><ele>235.0</ele><time>2026-05-01T08:27:47Z</time></trkpt><trkpt lat="44.4207890189729" lon="11.456916742341573"><ele>234.99999999999997</ele><time>2026-05-01T08:27:51Z</time></trkpt><trkpt lat="44.4207398423501" lon="11.456847188950904"><ele>235.0</ele><time>2026-05-01T08:27:55Z</time></trkpt><trkpt lat="44.420684346311944" lon="11.456801066023576"><ele>235.0</ele><time>2026-05-01T08:27:59Z</time></trkpt><trkpt lat="44.42062113896451" lon="11.456742168624938"><ele>234.99999999999997</ele><time>2026-05-01T08:28:03Z</time></trkpt><trkpt lat="44.42056422252115" lon="11.456686062144692"><ele>235.0</ele><time>2026-05-01T08:28:07Z</time></trkpt><trkpt lat="44.420514303306184" lon="11.456619037669416"><ele>235.0</ele><time>2026-05-01T08:28:11Z</time></trkpt><trkpt lat="44.42047045482579" lon="11.456533224383483"><ele>233.57142857142856</ele><time>2026-05-01T08:28:16Z</time></trkpt><trkpt lat="44.420420379287684" lon="11.45646718794525"><ele>232.1428571428571</ele><time>2026-05-01T08:28:21Z</time></trkpt><trkpt lat="44.42037149350986" lon="11.456410432293374"><ele>230.71428571428572</ele><time>2026-05-01T08:28:26Z</time></trkpt><trkpt lat="44.42031780788082" lon="11.45633834461705"><ele>229.28571428571428</ele><time>2026-05-01T08:28:31Z</time></trkpt><trkpt lat="44.42027754285862" lon="11.456269974792953"><ele>227.85714285714286</ele><time>2026-05-01T08:28:36Z</time></trkpt><trkpt lat="44.420219397127234" lon="11.456222155392883"><ele>226.42857142857144</ele><time>2026-05-01T08:28:41Z</time></trkpt><trkpt lat="44.420152430971626" lon="11.456182463893137"><ele>225.00000000000003</ele><time>2026-05-01T08:28:46.999Z</time></trkpt><trkpt lat="44.42010110873987" lon="11.456121163858946"><ele>229.14285714285717</ele><time>2026-05-01T08:28:52.999Z</time></trkpt><trkpt lat="44.42002762733693" lon="11.45609749409345"><ele>233.28571428571428</ele><time>2026-05-01T08:28:57.999Z</time></trkpt><trkpt lat="44.41996855131545" lon="11.456057256728213"><ele>237.42857142857144</ele><time>2026-05-01T08:29:02.999Z</time></trkpt><trkpt lat="44.419898673826935" lon="11.45603270682983"><ele>241.57142857142858</ele><time>2026-05-01T08:29:07.999Z</time></trkpt><trkpt lat="44.419842434995246" lon="11.455982609369782"><ele>245.71428571428572</ele><time>2026-05-01T08:29:12.999Z</time></trkpt><trkpt lat="44.419781306566605" lon="11.455952630706964"><ele>249.85714285714286</ele><time>2026-05-01T08:29:17.999Z</time></trkpt><trkpt lat="44.419722601322746" lon="11.455917218247789"><ele>254.0</ele><time>2026-05-01T08:29:21.999Z</time></trkpt><trkpt lat="44.41967856586343" lon="11.455848465727728"><ele>252.57142857142858</ele><time>2026-05-01T08:29:27Z</time></trkpt><trkpt lat="44.41962545046248" lon="11.455798235016285"><ele>251.1428571428571</ele><time>2026-05-01T08:29:32Z</time></trkpt><trkpt lat="44.41956383280122" lon="11.455745915624592"><ele>249.7142857142857</ele><time>2026-05-01T08:29:38Z</time></trkpt><trkpt lat="44.41950664849164" lon="11.455702676569155"><ele>248.28571428571428</ele><time>2026-05-01T08:29:43Z</time></trkpt><trkpt lat="44.41946093611973" lon="11.45562719159797"><ele>246.85714285714283</ele><time>2026-05-01T08:29:49Z</time></trkpt><trkpt lat="44.41941833688996" lon="11.455561737309983"><ele>245.4285714285714</ele><time>2026-05-01T08:29:55Z</time></trkpt><trkpt lat="44.41937299596987" lon="11.455479197683868"><ele>243.99999999999997</ele><time>2026-05-01T08:30:01Z</time></trkpt><trkpt lat="44.41931702973735" lon="11.455426143416894"><ele>247.85714285714283</ele><time>2026-05-01T08:30:07Z</time></trkpt><trkpt lat="44.4192619256054" lon="11.455376003651377"><ele>251.71428571428572</ele><time>2026-05-01T08:30:12Z</time></trkpt><trkpt lat="44.419200714431206" lon="11.455341988714121"><ele>255.57142857142856</ele><time>2026-05-01T08:30:18Z</time></trkpt><trkpt lat="44.41913373064746" lon="11.455287214673152"><ele>259.42857142857144</ele><time>2026-05-01T08:30:24Z</time></trkpt><trkpt lat="44.41907491057368" lon="11.455254963057522"><ele>263.2857142857143</ele><time>2026-05-01T08:30:29Z</time></trkpt><trkpt lat="44.41900964491527" lon="11.455220980209626"><ele>267.1428571428571</ele><time>2026-05-01T08:30:35Z</time></trkpt><trkpt lat="44.41894983759451" lon="11.45518505558073"><ele>271.0</ele><time>2026-05-01T08:30:40Z</time></trkpt><trkpt lat="44.41887963153827" lon="11.4551558402712"><ele>270.0</ele><time>2026-05-01T08:30:46Z</time></trkpt><trkpt lat="44.41880910358308" lon="11.455112215901487"><ele>269.0</ele><time>2026-05-01T08:30:50.999Z</time></trkpt><trkpt lat="44.418745956620825" lon="11.455066519468724"><ele>268.0</ele><time>2026-05-01T08:30:55.999Z</time></trkpt><trkpt lat="44.418691152503534" lon="11.455011752810432"><ele>267.0</ele><time>2026-05-01T08:31:00.999Z</time></trkpt><trkpt lat="44.418623179850066" lon="11.454977411716582"><ele>266.0</ele><time>2026-05-01T08:31:05.999Z</time></trkpt><trkpt lat="44.41856645424126" lon="11.454936841538203"><ele>265.0</ele><time>2026-05-01T08:31:10.999Z</time></trkpt><trkpt lat="44.418497614258776" lon="11.454898528119518"><ele>264.0</ele><time>2026-05-01T08:31:15.999Z</time></trkpt><trkpt lat="44.418431916590585" lon="11.454862218149248"><ele>264.0</ele><time>2026-05-01T08:31:21.999Z</time></trkpt><trkpt lat="44.41836815713344" lon="11.454812806692692"><ele>264.0</ele><time>2026-05-01T08:31:27.999Z</time></trkpt><trkpt lat="44.41831529239917" lon="11.454743121444833"><ele>264.0</ele><time>2026-05-01T08:31:33Z</time></trkpt><trkpt lat="44.41827059489572" lon="11.454659549713885"><ele>264.0</ele><time>2026-05-01T08:31:38Z</time></trkpt><trkpt lat="44.41824953039804" lon="11.454570027973098"><ele>264.0</ele><time>2026-05-01T08:31:43Z</time></trkpt><trkpt lat="44.4182230414067" lon="11.454486661047294"><ele>264.0</ele><time>2026-05-01T08:31:48Z</time></trkpt><trkpt lat="44.4182039835383" lon="11.454392113054078"><ele>264.0</ele><time>2026-05-01T08:31:53Z</time></trkpt><trkpt lat="44.4181770475847" lon="11.454299422038012"><ele>266.0</ele><time>2026-05-01T08:31:58Z</time></trkpt><trkpt lat="44.41815095231529" lon="11.454210364712942"><ele>268.0</ele><time>2026-05-01T08:32:03Z</time></trkpt><trkpt lat="44.418121767494505" lon="11.454119994735642"><ele>270.0</ele><time>2026-05-01T08:32:09Z</time></trkpt><trkpt lat="44.418085787616135" lon="11.454029306960996"><ele>272.0</ele><time>2026-05-01T08:32:15Z</time></trkpt><trkpt lat="44.418046221225005" lon="11.453950007707125"><ele>274.0</ele><time>2026-05-01T08:32:21Z</time></trkpt><trkpt lat="44.41801792878775" lon="11.453856197367939"><ele>276.0</ele><time>2026-05-01T08:32:26Z</time></trkpt><trkpt lat="44.417980402231194" lon="11.45378208047296"><ele>278.0</ele><time>2026-05-01T08:32:32Z</time></trkpt><trkpt lat="44.41792320823583" lon="11.453721619651848"><ele>278.85714285714283</ele><time>2026-05-01T08:32:40Z</time></trkpt><trkpt lat="44.417857861860384" lon="11.453687209642073"><ele>279.7142857142857</ele><time>2026-05-01T08:32:45Z</time></trkpt><trkpt lat="44.41779450182428" lon="11.453646705862074"><ele>280.57142857142856</ele><time>2026-05-01T08:32:49.999Z</time></trkpt><trkpt lat="44.417720959534485" lon="11.45361316426027"><ele>281.42857142857144</ele><time>2026-05-01T08:32:54.999Z</time></trkpt><trkpt lat="44.41765483685362" lon="11.453567543404972"><ele>282.2857142857143</ele><time>2026-05-01T08:32:58.999Z</time></trkpt><trkpt lat="44.41758593541873" lon="11.45353780055026"><ele>283.1428571428571</ele><time>2026-05-01T08:33:02.999Z</time></trkpt><trkpt lat="44.41751227218508" lon="11.453509854730376"><ele>284.0</ele><time>2026-05-01T08:33:06.999Z</time></trkpt><trkpt lat="44.417442538861174" lon="11.453483472211833"><ele>284.0</ele><time>2026-05-01T08:33:10.999Z</time></trkpt><trkpt lat="44.41737098626497" lon="11.453463823724183"><ele>284.0</ele><time>2026-05-01T08:33:14.999Z</time></trkpt><trkpt lat="44.41729683664511" lon="11.453425739258988"><ele>284.0</ele><time>2026-05-01T08:33:19.999Z</time></trkpt><trkpt lat="44.417222389770984" lon="11.453403725469126"><ele>284.0</ele><time>2026-05-01T08:33:24.999Z</time></trkpt><trkpt lat="44.41716075110301" lon="11.453366745750886"><ele>284.0</ele><time>2026-05-01T08:33:28.999Z</time></trkpt><trkpt lat="44.41709410283769" lon="11.453348330422926"><ele>284.0</ele><time>2026-05-01T08:33:32.999Z</time></trkpt><trkpt lat="44.417017618129336" lon="11.453341582763118"><ele>284.0</ele><time>2026-05-01T08:33:37Z</time></trkpt><trkpt lat="44.416944931182684" lon="11.453323756972427"><ele>283.6666666666667</ele><time>2026-05-01T08:33:41Z</time></trkpt><trkpt lat="44.416881048737196" lon="11.453305576120075"><ele>283.33333333333337</ele><time>2026-05-01T08:33:44Z</time></trkpt><trkpt lat="44.416789900746814" lon="11.453260668546664"><ele>283.0</ele><time>2026-05-01T08:33:47Z</time></trkpt><trkpt lat="44.416693682373825" lon="11.453246060592999"><ele>282.6666666666667</ele><time>2026-05-01T08:33:49Z</time></trkpt><trkpt lat="44.41663953399168" lon="11.453195168634801"><ele>282.3333333333333</ele><time>2026-05-01T08:33:50Z</time></trkpt><trkpt lat="44.41657808977151" lon="11.453150667892952"><ele>282.0</ele><time>2026-05-01T08:33:51Z</time></trkpt><trkpt lat="44.41651215396379" lon="11.453099888346312"><ele>282.0</ele><time>2026-05-01T08:33:52Z</time></trkpt><trkpt lat="44.4164399889346" lon="11.453048018657721"><ele>282.0</ele><time>2026-05-01T08:33:53Z</time></trkpt><trkpt lat="44.41636057928801" lon="11.452997836650473"><ele>282.0</ele><time>2026-05-01T08:33:54Z</time></trkpt><trkpt lat="44.41629049119008" lon="11.452917917533503"><ele>282.0</ele><time>2026-05-01T08:33:55Z</time></trkpt><trkpt lat="44.41620627393689" lon="11.45286082108281"><ele>282.0</ele><time>2026-05-01T08:33:56Z</time></trkpt><trkpt lat="44.41611976612071" lon="11.452801339894751"><ele>282.0</ele><time>2026-05-01T08:33:57Z</time></trkpt><trkpt lat="44.416031346845024" lon="11.452740000477265"><ele>280.2</ele><time>2026-05-01T08:33:58Z</time></trkpt><trkpt lat="44.41593808320539" lon="11.452694848037552"><ele>278.4</ele><time>2026-05-01T08:33:59Z</time></trkpt><trkpt lat="44.41585744039936" lon="11.452619356377484"><ele>276.6</ele><time>2026-05-01T08:34:00Z</time></trkpt><trkpt lat="44.4157774540004" lon="11.452559727730156"><ele>274.8</ele><time>2026-05-01T08:34:01Z</time></trkpt><trkpt lat="44.415697588582" lon="11.452499994651232"><ele>273.0</ele><time>2026-05-01T08:34:02Z</time></trkpt><trkpt lat="44.41562214596084" lon="11.452431196631077"><ele>273.0</ele><time>2026-05-01T08:34:03Z</time></trkpt><trkpt lat="44.4155760900624" lon="11.452343352278382"><ele>273.0</ele><time>2026-05-01T08:34:04Z</time></trkpt><trkpt lat="44.41555562020057" lon="11.452244954543042"><ele>273.0</ele><time>2026-05-01T08:34:05Z</time></trkpt><trkpt lat="44.41553851191016" lon="11.452145772237014"><ele>273.0</ele><time>2026-05-01T08:34:06Z</time></trkpt><trkpt lat="44.41551537297427" lon="11.451987552244626"><ele>273.0</ele><time>2026-05-01T08:34:08Z</time></trkpt><trkpt lat="44.415501589270505" lon="11.451858500480334"><ele>273.0</ele><time>2026-05-01T08:34:10Z</time></trkpt><trkpt lat="44.415489016889694" lon="11.451735722136657"><ele>273.7142857142857</ele><time>2026-05-01T08:34:12Z</time></trkpt><trkpt lat="44.41547718751886" lon="11.451636610644261"><ele>274.42857142857144</ele><time>2026-05-01T08:34:14Z</time></trkpt><trkpt lat="44.41546502369847" lon="11.451531427135107"><ele>275.1428571428571</ele><time>2026-05-01T08:34:17Z</time></trkpt><trkpt lat="44.415453912866056" lon="11.451436678214378"><ele>275.8571428571429</ele><time>2026-05-01T08:34:20Z</time></trkpt><trkpt lat="44.415440729111424" lon="11.45134545586523"><ele>276.57142857142856</ele><time>2026-05-01T08:34:23Z</time></trkpt><trkpt lat="44.41541314994325" lon="11.451240361019249"><ele>277.2857142857143</ele><time>2026-05-01T08:34:27Z</time></trkpt><trkpt lat="44.41538522493894" lon="11.451144609501373"><ele>278.0</ele><time>2026-05-01T08:34:31Z</time></trkpt><trkpt lat="44.415357082559645" lon="11.451052394691713"><ele>278.7142857142857</ele><time>2026-05-01T08:34:35Z</time></trkpt><trkpt lat="44.415318721778206" lon="11.450967341536504"><ele>279.42857142857144</ele><time>2026-05-01T08:34:40Z</time></trkpt><trkpt lat="44.415286251141495" lon="11.45087277088769"><ele>280.14285714285717</ele><time>2026-05-01T08:34:45Z</time></trkpt><trkpt lat="44.41524158568419" lon="11.450801153031591"><ele>280.8571428571429</ele><time>2026-05-01T08:34:50Z</time></trkpt><trkpt lat="44.41518527088284" lon="11.450750860447664"><ele>281.5714285714286</ele><time>2026-05-01T08:34:56Z</time></trkpt><trkpt lat="44.415135925265155" lon="11.450670412839234"><ele>282.2857142857143</ele><time>2026-05-01T08:35:00.999Z</time></trkpt><trkpt lat="44.4150828513385" lon="11.45060939242901"><ele>283.0</ele><time>2026-05-01T08:35:05.999Z</time></trkpt><trkpt lat="44.4150146688497" lon="11.450553804570925"><ele>283.0</ele><time>2026-05-01T08:35:10.999Z</time></trkpt><trkpt lat="44.414961138052796" lon="11.450487845661781"><ele>283.0</ele><time>2026-05-01T08:35:14.999Z</time></trkpt><trkpt lat="44.41491345204713" lon="11.450421274777408"><ele>283.0</ele><time>2026-05-01T08:35:17.999Z</time></trkpt><trkpt lat="44.41485669103313" lon="11.450356915184875"><ele>283.0</ele><time>2026-05-01T08:35:20.999Z</time></trkpt><trkpt lat="44.414793618434835" lon="11.450281571542373"><ele>283.0</ele><time>2026-05-01T08:35:23.999Z</time></trkpt><trkpt lat="44.414740257307336" lon="11.450228834409307"><ele>283.0</ele><time>2026-05-01T08:35:25.999Z</time></trkpt><trkpt lat="44.41468352715749" lon="11.45015985849712"><ele>283.0</ele><time>2026-05-01T08:35:27.999Z</time></trkpt><trkpt lat="44.414638009774876" lon="11.450090574981427"><ele>282.8333333333333</ele><time>2026-05-01T08:35:29.999Z</time></trkpt><trkpt lat="44.41457719137089" lon="11.450030986995962"><ele>282.66666666666663</ele><time>2026-05-01T08:35:31.999Z</time></trkpt><trkpt lat="44.414509232631104" lon="11.449967953031917"><ele>282.5</ele><time>2026-05-01T08:35:33.999Z</time></trkpt><trkpt lat="44.414440371437934" lon="11.449909339458507"><ele>282.3333333333333</ele><time>2026-05-01T08:35:35.999Z</time></trkpt><trkpt lat="44.414382577016795" lon="11.449827825736374"><ele>282.1666666666667</ele><time>2026-05-01T08:35:37.999Z</time></trkpt><trkpt lat="44.414308895734045" lon="11.449755330810907"><ele>282.0</ele><time>2026-05-01T08:35:39.999Z</time></trkpt><trkpt lat="44.414233358961326" lon="11.449682167615691"><ele>281.3333333333333</ele><time>2026-05-01T08:35:41.999Z</time></trkpt><trkpt lat="44.414167646859006" lon="11.449612120117308"><ele>280.6666666666667</ele><time>2026-05-01T08:35:44Z</time></trkpt><trkpt lat="44.41410121107719" lon="11.4495489558713"><ele>280.0</ele><time>2026-05-01T08:35:46Z</time></trkpt><trkpt lat="44.414041535802355" lon="11.44949130747114"><ele>279.33333333333337</ele><time>2026-05-01T08:35:48Z</time></trkpt><trkpt lat="44.413977631087334" lon="11.449441429144231"><ele>278.6666666666667</ele><time>2026-05-01T08:35:50Z</time></trkpt><trkpt lat="44.41392460255606" lon="11.449393670091427"><ele>278.0</ele><time>2026-05-01T08:35:52Z</time></trkpt><trkpt lat="44.41386402935923" lon="11.449307098689898"><ele>277.0</ele><time>2026-05-01T08:35:55Z</time></trkpt><trkpt lat="44.413783791884335" lon="11.449269451391531"><ele>276.0</ele><time>2026-05-01T08:35:58Z</time></trkpt><trkpt lat="44.413725003668354" lon="11.449232023710808"><ele>275.0</ele><time>2026-05-01T08:36:00Z</time></trkpt><trkpt lat="44.41366582856571" lon="11.449186337172446"><ele>274.0</ele><time>2026-05-01T08:36:02Z</time></trkpt><trkpt lat="44.41358665112388" lon="11.449150456564096"><ele>273.0</ele><time>2026-05-01T08:36:04Z</time></trkpt><trkpt lat="44.41350696010071" lon="11.449087789854607"><ele>272.0</ele><time>2026-05-01T08:36:06Z</time></trkpt><trkpt lat="44.41339852594432" lon="11.449025890741714"><ele>272.0</ele><time>2026-05-01T08:36:08Z</time></trkpt><trkpt lat="44.4133244263168" lon="11.449004733855247"><ele>272.0</ele><time>2026-05-01T08:36:09Z</time></trkpt><trkpt lat="44.413263817738844" lon="11.44895791586707"><ele>272.0</ele><time>2026-05-01T08:36:10Z</time></trkpt><trkpt lat="44.41319410550509" lon="11.448904655748525"><ele>272.0</ele><time>2026-05-01T08:36:11Z</time></trkpt><trkpt lat="44.41312441950209" lon="11.448834883213255"><ele>272.0</ele><time>2026-05-01T08:36:12Z</time></trkpt><trkpt lat="44.41306184609081" lon="11.448744778083155"><ele>272.0</ele><time>2026-05-01T08:36:13Z</time></trkpt><trkpt lat="44.41301905015597" lon="11.44864303301637"><ele>271.8</ele><time>2026-05-01T08:36:14Z</time></trkpt><trkpt lat="44.41299932974547" lon="11.448516425400653"><ele>271.6</ele><time>2026-05-01T08:36:15Z</time></trkpt><trkpt lat="44.412986139126446" lon="11.448393533485287"><ele>271.40000000000003</ele><time>2026-05-01T08:36:16Z</time></trkpt><trkpt lat="44.41297336432084" lon="11.448291166561674"><ele>271.2</ele><time>2026-05-01T08:36:17Z</time></trkpt><trkpt lat="44.41292194371723" lon="11.448198374170168"><ele>271.0</ele><time>2026-05-01T08:36:18Z</time></trkpt><trkpt lat="44.41289144862526" lon="11.44803723412282"><ele>274.1428571428571</ele><time>2026-05-01T08:36:20Z</time></trkpt><trkpt lat="44.41286085657291" lon="11.447950035214054"><ele>277.2857142857143</ele><time>2026-05-01T08:36:22Z</time></trkpt><trkpt lat="44.41281583653743" lon="11.447856913004706"><ele>280.42857142857144</ele><time>2026-05-01T08:36:27Z</time></trkpt><trkpt lat="44.41279839943843" lon="11.447744796731424"><ele>283.57142857142856</ele><time>2026-05-01T08:36:31Z</time></trkpt><trkpt lat="44.41279198536832" lon="11.447645873884392"><ele>286.7142857142857</ele><time>2026-05-01T08:36:36Z</time></trkpt><trkpt lat="44.41280045927517" lon="11.447558476824819"><ele>289.85714285714283</ele><time>2026-05-01T08:36:40Z</time></trkpt><trkpt lat="44.412803494808415" lon="11.447456572614302"><ele>293.0</ele><time>2026-05-01T08:36:46Z</time></trkpt><trkpt lat="44.41281723767342" lon="11.44735660685364"><ele>292.99999999999994</ele><time>2026-05-01T08:36:51Z</time></trkpt><trkpt lat="44.41280640168292" lon="11.44726439630846"><ele>293.0</ele><time>2026-05-01T08:36:56Z</time></trkpt><trkpt lat="44.41282786027881" lon="11.447164114885457"><ele>293.0</ele><time>2026-05-01T08:37:01.999Z</time></trkpt><trkpt lat="44.41278913937615" lon="11.447082377437175"><ele>293.0</ele><time>2026-05-01T08:37:06.999Z</time></trkpt><trkpt lat="44.41280593160096" lon="11.446987382216323"><ele>293.0</ele><time>2026-05-01T08:37:11.999Z</time></trkpt><trkpt lat="44.41278404484192" lon="11.446902778155428"><ele>292.99999999999994</ele><time>2026-05-01T08:37:16.999Z</time></trkpt><trkpt lat="44.412745988558115" lon="11.446830339789168"><ele>293.0</ele><time>2026-05-01T08:37:23.999Z</time></trkpt><trkpt lat="44.412741278785916" lon="11.44673596117229"><ele>293.2857142857143</ele><time>2026-05-01T08:37:29.999Z</time></trkpt><trkpt lat="44.41272175458553" lon="11.446651864024572"><ele>293.57142857142856</ele><time>2026-05-01T08:37:34.999Z</time></trkpt><trkpt lat="44.41266044650674" lon="11.44658867931876"><ele>293.8571428571429</ele><time>2026-05-01T08:37:40.999Z</time></trkpt><trkpt lat="44.41260457049312" lon="11.446526983088836"><ele>294.1428571428571</ele><time>2026-05-01T08:37:46.999Z</time></trkpt><trkpt lat="44.412548004630544" lon="11.446484062966361"><ele>294.42857142857144</ele><time>2026-05-01T08:37:51Z</time></trkpt><trkpt lat="44.41247962364559" lon="11.446438267851"><ele>294.7142857142857</ele><time>2026-05-01T08:37:56Z</time></trkpt><trkpt lat="44.41241924468077" lon="11.44639780370556"><ele>295.0</ele><time>2026-05-01T08:38:00Z</time></trkpt><trkpt lat="44.412354806198955" lon="11.446358045460046"><ele>295.0</ele><time>2026-05-01T08:38:03Z</time></trkpt><trkpt lat="44.412269693492476" lon="11.44632257315585"><ele>295.0</ele><time>2026-05-01T08:38:06Z</time></trkpt><trkpt lat="44.412198134804015" lon="11.446259539153194"><ele>295.0</ele><time>2026-05-01T08:38:08Z</time></trkpt><trkpt lat="44.41209913793451" lon="11.446203818121838"><ele>295.0</ele><time>2026-05-01T08:38:10Z</time></trkpt><trkpt lat="44.412000495355365" lon="11.446149839356774"><ele>295.0</ele><time>2026-05-01T08:38:12Z</time></trkpt><trkpt lat="44.41188695198944" lon="11.446096165614879"><ele>293.25</ele><time>2026-05-01T08:38:14Z</time></trkpt><trkpt lat="44.41177675453001" lon="11.446057264480459"><ele>291.5</ele><time>2026-05-01T08:38:16Z</time></trkpt><trkpt lat="44.41166170404268" lon="11.446049282568454"><ele>289.75</ele><time>2026-05-01T08:38:18Z</time></trkpt><trkpt lat="44.41155685535056" lon="11.446066969310001"><ele>288.0</ele><time>2026-05-01T08:38:20Z</time></trkpt><trkpt lat="44.41143626587875" lon="11.44610265795529"><ele>288.00000000000006</ele><time>2026-05-01T08:38:22Z</time></trkpt><trkpt lat="44.411368476965634" lon="11.446110206419089"><ele>288.0</ele><time>2026-05-01T08:38:23Z</time></trkpt><trkpt lat="44.41130325039067" lon="11.446099595544581"><ele>288.0</ele><time>2026-05-01T08:38:24Z</time></trkpt><trkpt lat="44.41123745521827" lon="11.446084325904785"><ele>288.0</ele><time>2026-05-01T08:38:25Z</time></trkpt><trkpt lat="44.41116647329714" lon="11.44605633871412"><ele>288.0</ele><time>2026-05-01T08:38:26Z</time></trkpt><trkpt lat="44.41108110407317" lon="11.446038999293497"><ele>288.00000000000006</ele><time>2026-05-01T08:38:28Z</time></trkpt><trkpt lat="44.411013131778795" lon="11.44600525029249"><ele>288.0</ele><time>2026-05-01T08:38:30Z</time></trkpt><trkpt lat="44.410968059441316" lon="11.445941149648668"><ele>289.1666666666667</ele><time>2026-05-01T08:38:34Z</time></trkpt><trkpt lat="44.41093000234295" lon="11.445862880873287"><ele>290.3333333333333</ele><time>2026-05-01T08:38:43Z</time></trkpt><trkpt lat="44.410989413462474" lon="11.4457118870362"><ele>291.5</ele><time>2026-05-01T08:38:46Z</time></trkpt><trkpt lat="44.410952670739604" lon="11.445620252617951"><ele>292.66666666666663</ele><time>2026-05-01T08:38:53Z</time></trkpt><trkpt lat="44.410910200953886" lon="11.445547633761247"><ele>293.8333333333333</ele><time>2026-05-01T08:38:58Z</time></trkpt><trkpt lat="44.410870562282376" lon="11.445473676173435"><ele>295.0</ele><time>2026-05-01T08:39:03.999Z</time></trkpt><trkpt lat="44.41080831651331" lon="11.445421613760576"><ele>296.14285714285717</ele><time>2026-05-01T08:39:09.999Z</time></trkpt><trkpt lat="44.41073534055425" lon="11.445478654334714"><ele>297.2857142857143</ele><time>2026-05-01T08:39:11.999Z</time></trkpt><trkpt lat="44.410662508105325" lon="11.445499231895216"><ele>298.42857142857144</ele><time>2026-05-01T08:39:16.999Z</time></trkpt><trkpt lat="44.41061218754594" lon="11.445561807581932"><ele>299.57142857142856</ele><time>2026-05-01T08:39:20.999Z</time></trkpt><trkpt lat="44.4105418711205" lon="11.445568940632553"><ele>300.7142857142857</ele><time>2026-05-01T08:39:24.999Z</time></trkpt><trkpt lat="44.410483540923146" lon="11.445603954955617"><ele>301.8571428571429</ele><time>2026-05-01T08:39:28.999Z</time></trkpt><trkpt lat="44.410415137384554" lon="11.445615545945344"><ele>303.0</ele><time>2026-05-01T08:39:32.999Z</time></trkpt><trkpt lat="44.410344946636684" lon="11.445640256261049"><ele>304.8571428571429</ele><time>2026-05-01T08:39:36.999Z</time></trkpt><trkpt lat="44.410279680116254" lon="11.44565442461901"><ele>306.7142857142857</ele><time>2026-05-01T08:39:40.999Z</time></trkpt><trkpt lat="44.41021321143843" lon="11.445654002133102"><ele>308.57142857142856</ele><time>2026-05-01T08:39:44.999Z</time></trkpt><trkpt lat="44.410148116638304" lon="11.445639796374842"><ele>310.42857142857144</ele><time>2026-05-01T08:39:48.999Z</time></trkpt><trkpt lat="44.41008290500841" lon="11.44566376892578"><ele>312.2857142857143</ele><time>2026-05-01T08:39:53.999Z</time></trkpt><trkpt lat="44.41004559097813" lon="11.44575290580302"><ele>314.14285714285717</ele><time>2026-05-01T08:40:00Z</time></trkpt><trkpt lat="44.41004379525144" lon="11.445854530158078"><ele>316.0</ele><time>2026-05-01T08:40:06Z</time></trkpt><trkpt lat="44.41007058835291" lon="11.445956152582399"><ele>316.00000000000006</ele><time>2026-05-01T08:40:12Z</time></trkpt><trkpt lat="44.410042616654586" lon="11.446035466622698"><ele>316.0</ele><time>2026-05-01T08:40:17Z</time></trkpt><trkpt lat="44.40999988909047" lon="11.446100895398043"><ele>316.0</ele><time>2026-05-01T08:40:23Z</time></trkpt><trkpt lat="44.40994092739896" lon="11.44616374290064"><ele>316.0</ele><time>2026-05-01T08:40:30Z</time></trkpt><trkpt lat="44.40987385928159" lon="11.446189015799105"><ele>316.0</ele><time>2026-05-01T08:40:36Z</time></trkpt><trkpt lat="44.40980680488114" lon="11.446177268034587"><ele>316.00000000000006</ele><time>2026-05-01T08:40:42Z</time></trkpt><trkpt lat="44.40974192870265" lon="11.446129489213488"><ele>316.0</ele><time>2026-05-01T08:40:48Z</time></trkpt><trkpt lat="44.40970020579633" lon="11.446059383989942"><ele>317.00000000000006</ele><time>2026-05-01T08:40:54Z</time></trkpt><trkpt lat="44.40964012899026" lon="11.446025179226627"><ele>318.0</ele><time>2026-05-01T08:41:02Z</time></trkpt><trkpt lat="44.40957267930513" lon="11.44600448425355"><ele>319.0</ele><time>2026-05-01T08:41:09Z</time></trkpt><trkpt lat="44.409516597690306" lon="11.445947764767306"><ele>320.0</ele><time>2026-05-01T08:41:17Z</time></trkpt><trkpt lat="44.40945770517021" lon="11.445884025924665"><ele>321.0</ele><time>2026-05-01T08:41:23.999Z</time></trkpt><trkpt lat="44.40940156093394" lon="11.445837934399469"><ele>322.00000000000006</ele><time>2026-05-01T08:41:30.999Z</time></trkpt><trkpt lat="44.409341494044426" lon="11.445792904317047"><ele>323.0</ele><time>2026-05-01T08:41:37.999Z</time></trkpt><trkpt lat="44.40928476205396" lon="11.445742922551048"><ele>323.00000000000006</ele><time>2026-05-01T08:41:44.999Z</time></trkpt><trkpt lat="44.409238445962885" lon="11.445669446346312"><ele>323.0</ele><time>2026-05-01T08:41:52.999Z</time></trkpt><trkpt lat="44.40919080932806" lon="11.445610427017192"><ele>323.0</ele><time>2026-05-01T08:41:59.999Z</time></trkpt><trkpt lat="44.40917448059853" lon="11.445522747333806"><ele>323.0</ele><time>2026-05-01T08:42:07Z</time></trkpt><trkpt lat="44.40916779085216" lon="11.445432765288508"><ele>323.0</ele><time>2026-05-01T08:42:14Z</time></trkpt><trkpt lat="44.40916288177002" lon="11.445332924540649"><ele>323.00000000000006</ele><time>2026-05-01T08:42:22Z</time></trkpt><trkpt lat="44.40913332402909" lon="11.445252278679376"><ele>323.0</ele><time>2026-05-01T08:42:28Z</time></trkpt><trkpt lat="44.40909552554798" lon="11.445176935800632"><ele>325.00000000000006</ele><time>2026-05-01T08:42:35Z</time></trkpt><trkpt lat="44.409053561538144" lon="11.445097258433666"><ele>327.0</ele><time>2026-05-01T08:42:43Z</time></trkpt><trkpt lat="44.40901426546698" lon="11.445027830824452"><ele>329.0</ele><time>2026-05-01T08:42:50Z</time></trkpt><trkpt lat="44.40897729666779" lon="11.444939868880173"><ele>331.0</ele><time>2026-05-01T08:42:57Z</time></trkpt><trkpt lat="44.40894145397958" lon="11.444860477627422"><ele>333.0</ele><time>2026-05-01T08:43:03Z</time></trkpt><trkpt lat="44.40889837728188" lon="11.444794460085777"><ele>335.00000000000006</ele><time>2026-05-01T08:43:09Z</time></trkpt><trkpt lat="44.40885864154625" lon="11.444713243169305"><ele>337.0</ele><time>2026-05-01T08:43:15Z</time></trkpt><trkpt lat="44.40882633283368" lon="11.44462723448808"><ele>339.42857142857144</ele><time>2026-05-01T08:43:21Z</time></trkpt><trkpt lat="44.408798882347604" lon="11.444545253073258"><ele>341.8571428571429</ele><time>2026-05-01T08:43:26.999Z</time></trkpt><trkpt lat="44.40877952623399" lon="11.444455967619719"><ele>344.28571428571433</ele><time>2026-05-01T08:43:31.999Z</time></trkpt><trkpt lat="44.40875587759485" lon="11.444374218823217"><ele>346.7142857142857</ele><time>2026-05-01T08:43:36.999Z</time></trkpt><trkpt lat="44.40874352489199" lon="11.44427488078553"><ele>349.1428571428571</ele><time>2026-05-01T08:43:43.999Z</time></trkpt><trkpt lat="44.40872294026633" lon="11.444188108179233"><ele>351.5714285714286</ele><time>2026-05-01T08:43:49.999Z</time></trkpt><trkpt lat="44.40872574191087" lon="11.444096343832122"><ele>354.0</ele><time>2026-05-01T08:43:54.999Z</time></trkpt><trkpt lat="44.40871085308796" lon="11.443990245480625"><ele>354.0</ele><time>2026-05-01T08:43:59.999Z</time></trkpt><trkpt lat="44.408690234389" lon="11.443905422464377"><ele>354.0</ele><time>2026-05-01T08:44:03.999Z</time></trkpt><trkpt lat="44.40865762467483" lon="11.443814233185382"><ele>354.0</ele><time>2026-05-01T08:44:09Z</time></trkpt><trkpt lat="44.40863509143816" lon="11.443707208729776"><ele>354.0</ele><time>2026-05-01T08:44:12Z</time></trkpt><trkpt lat="44.40861796429118" lon="11.443567808743841"><ele>354.0</ele><time>2026-05-01T08:44:14Z</time></trkpt><trkpt lat="44.40865317467565" lon="11.443407434595498"><ele>354.0</ele><time>2026-05-01T08:44:16Z</time></trkpt><trkpt lat="44.40867704033491" lon="11.44330293981538"><ele>352.0</ele><time>2026-05-01T08:44:18Z</time></trkpt><trkpt lat="44.408614543892796" lon="11.443345381782247"><ele>350.0</ele><time>2026-05-01T08:52:34Z</time></trkpt><trkpt lat="44.40855998778101" lon="11.443411929053067"><ele>348.0</ele><time>2026-05-01T08:52:37Z</time></trkpt><trkpt lat="44.408509160935154" lon="11.443515399393831"><ele>346.0</ele><time>2026-05-01T08:52:39Z</time></trkpt><trkpt lat="44.40843072245621" lon="11.44360771395551"><ele>344.0</ele><time>2026-05-01T08:52:41Z</time></trkpt><trkpt lat="44.408326933398875" lon="11.443671598941956"><ele>342.0</ele><time>2026-05-01T08:52:43Z</time></trkpt><trkpt lat="44.408229895468516" lon="11.443691647440774"><ele>342.0</ele><time>2026-05-01T08:52:45Z</time></trkpt><trkpt lat="44.40811385182747" lon="11.443685808441462"><ele>342.0</ele><time>2026-05-01T08:52:47Z</time></trkpt><trkpt lat="44.408047507512016" lon="11.44361836204745"><ele>342.0</ele><time>2026-05-01T08:52:48Z</time></trkpt><trkpt lat="44.40797598349637" lon="11.44357194043409"><ele>342.0</ele><time>2026-05-01T08:52:49Z</time></trkpt><trkpt lat="44.4079088792369" lon="11.443487094950092"><ele>342.0</ele><time>2026-05-01T08:52:50Z</time></trkpt><trkpt lat="44.40784309556777" lon="11.443400821159136"><ele>340.75</ele><time>2026-05-01T08:52:51Z</time></trkpt><trkpt lat="44.40778507846107" lon="11.443346284964575"><ele>339.5</ele><time>2026-05-01T08:52:52Z</time></trkpt><trkpt lat="44.40768992601963" lon="11.443258123949692"><ele>338.25</ele><time>2026-05-01T08:52:54Z</time></trkpt><trkpt lat="44.4075991989129" lon="11.443181528275762"><ele>337.0</ele><time>2026-05-01T08:52:56Z</time></trkpt><trkpt lat="44.40747807116753" lon="11.443340019974988"><ele>337.0</ele><time>2026-05-01T08:52:59Z</time></trkpt><trkpt lat="44.40746371296255" lon="11.443456812205161"><ele>337.0</ele><time>2026-05-01T08:53:01Z</time></trkpt><trkpt lat="44.40745885027068" lon="11.443546698951044"><ele>337.0</ele><time>2026-05-01T08:53:03Z</time></trkpt><trkpt lat="44.40744716867186" lon="11.443678245938147"><ele>337.0</ele><time>2026-05-01T08:53:06Z</time></trkpt><trkpt lat="44.4074383747083" lon="11.443778329648534"><ele>337.0</ele><time>2026-05-01T08:53:08Z</time></trkpt><trkpt lat="44.40742909232206" lon="11.443891805862235"><ele>337.0</ele><time>2026-05-01T08:53:10Z</time></trkpt><trkpt lat="44.40743203287206" lon="11.444013259052188"><ele>337.0</ele><time>2026-05-01T08:53:12Z</time></trkpt><trkpt lat="44.407417405198295" lon="11.444126636886015"><ele>337.0</ele><time>2026-05-01T08:53:14Z</time></trkpt><trkpt lat="44.40740758085316" lon="11.444239645043583"><ele>337.0</ele><time>2026-05-01T08:53:16Z</time></trkpt><trkpt lat="44.40739492122555" lon="11.444361708502724"><ele>337.0</ele><time>2026-05-01T08:53:18Z</time></trkpt><trkpt lat="44.407382036741986" lon="11.444492344024416"><ele>337.0</ele><time>2026-05-01T08:53:20Z</time></trkpt><trkpt lat="44.407366318214336" lon="11.444642485564158"><ele>337.0</ele><time>2026-05-01T08:53:22Z</time></trkpt><trkpt lat="44.40735400153568" lon="11.444733312159661"><ele>337.0</ele><time>2026-05-01T08:53:23Z</time></trkpt><trkpt lat="44.40732592322148" lon="11.444909253769746"><ele>337.0</ele><time>2026-05-01T08:53:25Z</time></trkpt><trkpt lat="44.40731864453048" lon="11.445002945944735"><ele>337.0</ele><time>2026-05-01T08:53:26Z</time></trkpt><trkpt lat="44.407313917401765" lon="11.445091431863432"><ele>337.0</ele><time>2026-05-01T08:53:27Z</time></trkpt><trkpt lat="44.40729740641102" lon="11.445265986683722"><ele>337.0</ele><time>2026-05-01T08:53:29Z</time></trkpt><trkpt lat="44.40725762731855" lon="11.445413061790068"><ele>337.0</ele><time>2026-05-01T08:53:30.999Z</time></trkpt><trkpt lat="44.40720360813877" lon="11.445532778229683"><ele>337.0</ele><time>2026-05-01T08:53:32.999Z</time></trkpt><trkpt lat="44.40716051458821" lon="11.445627935911034"><ele>337.0</ele><time>2026-05-01T08:53:34.999Z</time></trkpt><trkpt lat="44.407120694101" lon="11.445710654754452"><ele>337.0</ele><time>2026-05-01T08:53:36.999Z</time></trkpt><trkpt lat="44.407068991223646" lon="11.445811836068025"><ele>335.42857142857144</ele><time>2026-05-01T08:53:39.999Z</time></trkpt><trkpt lat="44.40702204702618" lon="11.445895940246993"><ele>333.8571428571429</ele><time>2026-05-01T08:53:42.999Z</time></trkpt><trkpt lat="44.40698127188665" lon="11.445968429182923"><ele>332.28571428571433</ele><time>2026-05-01T08:53:45.999Z</time></trkpt><trkpt lat="44.406938522471414" lon="11.446034116241613"><ele>330.7142857142857</ele><time>2026-05-01T08:53:48.999Z</time></trkpt><trkpt lat="44.40692058032337" lon="11.446145778556414"><ele>329.1428571428571</ele><time>2026-05-01T08:53:52.999Z</time></trkpt><trkpt lat="44.406914067406824" lon="11.446242010643166"><ele>327.5714285714286</ele><time>2026-05-01T08:53:58.999Z</time></trkpt><trkpt lat="44.40698197155701" lon="11.446278417963375"><ele>326.0</ele><time>2026-05-01T08:54:03.999Z</time></trkpt><trkpt lat="44.40704254254774" lon="11.44622254807247"><ele>326.0</ele><time>2026-05-01T08:54:07.999Z</time></trkpt><trkpt lat="44.40698035441554" lon="11.446265558224008"><ele>326.0</ele><time>2026-05-01T08:54:58Z</time></trkpt><trkpt lat="44.406923989811254" lon="11.44631989636223"><ele>326.0</ele><time>2026-05-01T08:55:02Z</time></trkpt><trkpt lat="44.40686755415312" lon="11.446363124913022"><ele>326.0</ele><time>2026-05-01T08:55:05Z</time></trkpt><trkpt lat="44.40681600774409" lon="11.446425822010811"><ele>326.0</ele><time>2026-05-01T08:55:07Z</time></trkpt><trkpt lat="44.40676367511978" lon="11.446499481481016"><ele>326.0</ele><time>2026-05-01T08:55:09Z</time></trkpt><trkpt lat="44.40672647797775" lon="11.446604733045561"><ele>326.0</ele><time>2026-05-01T08:55:12Z</time></trkpt><trkpt lat="44.40671094968869" lon="11.44670193041604"><ele>326.14285714285717</ele><time>2026-05-01T08:55:15Z</time></trkpt><trkpt lat="44.40668359292661" lon="11.446804997220529"><ele>326.2857142857143</ele><time>2026-05-01T08:55:18Z</time></trkpt><trkpt lat="44.40667246460232" lon="11.446894089504267"><ele>326.42857142857144</ele><time>2026-05-01T08:55:20Z</time></trkpt><trkpt lat="44.40665920675235" lon="11.447023925998128"><ele>326.57142857142856</ele><time>2026-05-01T08:55:23Z</time></trkpt><trkpt lat="44.40665600086115" lon="11.447132311223235"><ele>326.7142857142857</ele><time>2026-05-01T08:55:26Z</time></trkpt><trkpt lat="44.40666331588271" lon="11.447222442274313"><ele>326.85714285714283</ele><time>2026-05-01T08:55:29Z</time></trkpt><trkpt lat="44.4066952388959" lon="11.447298599772347"><ele>327.0</ele><time>2026-05-01T08:55:31Z</time></trkpt><trkpt lat="44.40671241557878" lon="11.447426508428252"><ele>327.0</ele><time>2026-05-01T08:55:33Z</time></trkpt><trkpt lat="44.40672152080928" lon="11.447584884127206"><ele>327.0</ele><time>2026-05-01T08:55:34.999Z</time></trkpt><trkpt lat="44.406722911211745" lon="11.447675231095538"><ele>327.0</ele><time>2026-05-01T08:55:35.999Z</time></trkpt><trkpt lat="44.406681802710864" lon="11.44776141339731"><ele>327.0</ele><time>2026-05-01T08:55:36.999Z</time></trkpt><trkpt lat="44.406669395901794" lon="11.447867179945202"><ele>327.0</ele><time>2026-05-01T08:55:37.999Z</time></trkpt><trkpt lat="44.406646994073505" lon="11.4479707626021"><ele>327.0</ele><time>2026-05-01T08:55:38.999Z</time></trkpt><trkpt lat="44.40663040819357" lon="11.448079614646055"><ele>325.3333333333333</ele><time>2026-05-01T08:55:39.999Z</time></trkpt><trkpt lat="44.406627834741805" lon="11.448207442244543"><ele>323.6666666666667</ele><time>2026-05-01T08:55:40.999Z</time></trkpt><trkpt lat="44.406635483834094" lon="11.448335881899686"><ele>322.0</ele><time>2026-05-01T08:55:41.999Z</time></trkpt><trkpt lat="44.40664156277752" lon="11.448466552355205"><ele>320.33333333333337</ele><time>2026-05-01T08:55:42.999Z</time></trkpt><trkpt lat="44.40663961482994" lon="11.448575418610574"><ele>318.6666666666667</ele><time>2026-05-01T08:55:43.999Z</time></trkpt><trkpt lat="44.40663187827725" lon="11.448691237476403"><ele>317.0</ele><time>2026-05-01T08:55:44.999Z</time></trkpt><trkpt lat="44.406615185272734" lon="11.448835626767591"><ele>315.75</ele><time>2026-05-01T08:55:45.999Z</time></trkpt><trkpt lat="44.40659145344032" lon="11.448982068783616"><ele>314.5</ele><time>2026-05-01T08:55:46.999Z</time></trkpt><trkpt lat="44.40655856265655" lon="11.44915558582797"><ele>313.25</ele><time>2026-05-01T08:55:47.999Z</time></trkpt><trkpt lat="44.40652310273271" lon="11.44931030243404"><ele>312.0</ele><time>2026-05-01T08:55:48.999Z</time></trkpt><trkpt lat="44.40650064764107" lon="11.449469091030597"><ele>312.0</ele><time>2026-05-01T08:55:49.999Z</time></trkpt><trkpt lat="44.40650304542266" lon="11.449634937427724"><ele>312.0</ele><time>2026-05-01T08:55:50.999Z</time></trkpt><trkpt lat="44.40650645811865" lon="11.449791472235475"><ele>312.0</ele><time>2026-05-01T08:55:51.999Z</time></trkpt><trkpt lat="44.40651627352161" lon="11.44994839895684"><ele>312.0</ele><time>2026-05-01T08:55:52.999Z</time></trkpt><trkpt lat="44.40652361642784" lon="11.450083155869239"><ele>312.0</ele><time>2026-05-01T08:55:53.999Z</time></trkpt><trkpt lat="44.40652851713386" lon="11.450220715098556"><ele>312.0</ele><time>2026-05-01T08:55:54.999Z</time></trkpt><trkpt lat="44.40653005219369" lon="11.45034700393001"><ele>312.0</ele><time>2026-05-01T08:55:55.999Z</time></trkpt><trkpt lat="44.40653005219117" lon="11.450472044929542"><ele>312.0</ele><time>2026-05-01T08:55:56.999Z</time></trkpt><trkpt lat="44.40653005219004" lon="11.450607175119416"><ele>312.0</ele><time>2026-05-01T08:55:57.999Z</time></trkpt><trkpt lat="44.40652831915968" lon="11.450736345259514"><ele>312.0</ele><time>2026-05-01T08:55:58.999Z</time></trkpt><trkpt lat="44.40652727869992" lon="11.450855697042769"><ele>312.0</ele><time>2026-05-01T08:55:59.999Z</time></trkpt><trkpt lat="44.406526324802805" lon="11.450965119215141"><ele>312.0</ele><time>2026-05-01T08:56:00.999Z</time></trkpt><trkpt lat="44.406525379039294" lon="11.45107360836378"><ele>312.0</ele><time>2026-05-01T08:56:01.999Z</time></trkpt><trkpt lat="44.40652296267073" lon="11.451167849474395"><ele>312.0</ele><time>2026-05-01T08:56:02.999Z</time></trkpt><trkpt lat="44.40651984318743" lon="11.451265441371767"><ele>312.0</ele><time>2026-05-01T08:56:03.999Z</time></trkpt><trkpt lat="44.406516458877945" lon="11.451359926598291"><ele>312.0</ele><time>2026-05-01T08:56:04.999Z</time></trkpt><trkpt lat="44.4065088768776" lon="11.45152790587789"><ele>311.8</ele><time>2026-05-01T08:56:06.999Z</time></trkpt><trkpt lat="44.40650105172354" lon="11.451667358459273"><ele>311.6</ele><time>2026-05-01T08:56:08.999Z</time></trkpt><trkpt lat="44.40650981110155" lon="11.451801961628465"><ele>311.40000000000003</ele><time>2026-05-01T08:56:10.999Z</time></trkpt><trkpt lat="44.40652189602334" lon="11.451932011240428"><ele>311.2</ele><time>2026-05-01T08:56:12.999Z</time></trkpt><trkpt lat="44.40652694045279" lon="11.452065663683786"><ele>311.0</ele><time>2026-05-01T08:56:14.999Z</time></trkpt><trkpt lat="44.40651572135645" lon="11.452185924321858"><ele>310.6666666666667</ele><time>2026-05-01T08:56:16.999Z</time></trkpt><trkpt lat="44.406496702557966" lon="11.45230265254555"><ele>310.33333333333337</ele><time>2026-05-01T08:56:18.999Z</time></trkpt><trkpt lat="44.40647054767242" lon="11.452412649134777"><ele>310.0</ele><time>2026-05-01T08:56:20.999Z</time></trkpt><trkpt lat="44.40646387328152" lon="11.452514833407168"><ele>309.6666666666667</ele><time>2026-05-01T08:56:22.999Z</time></trkpt><trkpt lat="44.406432261681786" lon="11.45259112888428"><ele>309.3333333333333</ele><time>2026-05-01T08:56:24.999Z</time></trkpt><trkpt lat="44.4063792163489" lon="11.45267989383475"><ele>309.0</ele><time>2026-05-01T08:56:27.999Z</time></trkpt><trkpt lat="44.40630459181639" lon="11.452754563487087"><ele>308.1666666666667</ele><time>2026-05-01T08:56:30.999Z</time></trkpt><trkpt lat="44.40624251704783" lon="11.45279548075084"><ele>307.3333333333333</ele><time>2026-05-01T08:56:32.999Z</time></trkpt><trkpt lat="44.40616985249635" lon="11.452820666687824"><ele>306.5</ele><time>2026-05-01T08:56:34.999Z</time></trkpt><trkpt lat="44.4060952618111" lon="11.452845629958109"><ele>305.66666666666663</ele><time>2026-05-01T08:56:36.999Z</time></trkpt><trkpt lat="44.406018350385985" lon="11.452872492228565"><ele>304.8333333333333</ele><time>2026-05-01T08:56:38.999Z</time></trkpt><trkpt lat="44.40593507279345" lon="11.452903593310463"><ele>304.0</ele><time>2026-05-01T08:56:40.999Z</time></trkpt><trkpt lat="44.40585545659138" lon="11.45295062489716"><ele>304.5</ele><time>2026-05-01T08:56:42.999Z</time></trkpt><trkpt lat="44.405787491321426" lon="11.453015401452069"><ele>305.0</ele><time>2026-05-01T08:56:45Z</time></trkpt><trkpt lat="44.40573264078732" lon="11.453072383758615"><ele>305.5</ele><time>2026-05-01T08:56:47Z</time></trkpt><trkpt lat="44.4056879933974" lon="11.453146809916172"><ele>306.0</ele><time>2026-05-01T08:57:29Z</time></trkpt><trkpt lat="44.405638207579244" lon="11.453222163020111"><ele>306.5</ele><time>2026-05-01T08:57:34Z</time></trkpt><trkpt lat="44.405576373019834" lon="11.453314305642762"><ele>307.0</ele><time>2026-05-01T08:57:37Z</time></trkpt><trkpt lat="44.405511545509846" lon="11.453424153369072"><ele>306.5</ele><time>2026-05-01T08:57:40Z</time></trkpt><trkpt lat="44.40546527575885" lon="11.453505198386965"><ele>306.0</ele><time>2026-05-01T08:57:42Z</time></trkpt><trkpt lat="44.405431917637095" lon="11.453581493288375"><ele>305.5</ele><time>2026-05-01T08:57:44Z</time></trkpt><trkpt lat="44.405379174213884" lon="11.453692636654974"><ele>305.0</ele><time>2026-05-01T08:57:47Z</time></trkpt><trkpt lat="44.4053387083002" lon="11.453811879047832"><ele>304.5</ele><time>2026-05-01T08:57:50Z</time></trkpt><trkpt lat="44.4053053329457" lon="11.453892990978344"><ele>304.0</ele><time>2026-05-01T08:57:51.999Z</time></trkpt><trkpt lat="44.40526478513801" lon="11.45397204098562"><ele>305.3333333333333</ele><time>2026-05-01T08:57:53.999Z</time></trkpt><trkpt lat="44.405226104990696" lon="11.454051946412651"><ele>306.66666666666663</ele><time>2026-05-01T08:57:55.999Z</time></trkpt><trkpt lat="44.40518452639026" lon="11.454139581694772"><ele>308.0</ele><time>2026-05-01T08:57:57.999Z</time></trkpt><trkpt lat="44.40513961712462" lon="11.454223132933217"><ele>309.3333333333333</ele><time>2026-05-01T08:57:59.999Z</time></trkpt><trkpt lat="44.40508882405493" lon="11.45429499424704"><ele>310.6666666666667</ele><time>2026-05-01T08:58:01.999Z</time></trkpt><trkpt lat="44.405018411593836" lon="11.454391127827776"><ele>312.0</ele><time>2026-05-01T08:58:04.999Z</time></trkpt><trkpt lat="44.404962547919986" lon="11.454473882217068"><ele>312.0</ele><time>2026-05-01T08:58:07.999Z</time></trkpt><trkpt lat="44.40490668307583" lon="11.454546666060963"><ele>312.0</ele><time>2026-05-01T08:58:10.999Z</time></trkpt><trkpt lat="44.40486333643658" lon="11.45461503906597"><ele>312.0</ele><time>2026-05-01T08:58:13.999Z</time></trkpt><trkpt lat="44.40481331290218" lon="11.45467255573312"><ele>312.0</ele><time>2026-05-01T08:58:16.999Z</time></trkpt><trkpt lat="44.40476092897142" lon="11.454751861541025"><ele>312.0</ele><time>2026-05-01T08:58:20.999Z</time></trkpt><trkpt lat="44.404710592777334" lon="11.454829793047693"><ele>312.0</ele><time>2026-05-01T08:58:24.999Z</time></trkpt><trkpt lat="44.40466694843625" lon="11.454900522053606"><ele>312.0</ele><time>2026-05-01T08:58:28.999Z</time></trkpt><trkpt lat="44.40462325931977" lon="11.45496971970934"><ele>313.5714285714286</ele><time>2026-05-01T08:58:32.999Z</time></trkpt><trkpt lat="44.40458771008951" lon="11.455060397126614"><ele>315.1428571428571</ele><time>2026-05-01T08:58:37.999Z</time></trkpt><trkpt lat="44.40457460480228" lon="11.4551549923803"><ele>316.7142857142857</ele><time>2026-05-01T08:58:42.999Z</time></trkpt><trkpt lat="44.40454308906307" lon="11.455254541479395"><ele>318.28571428571433</ele><time>2026-05-01T08:58:47.999Z</time></trkpt><trkpt lat="44.404498417257074" lon="11.455332479503427"><ele>319.8571428571429</ele><time>2026-05-01T08:58:52Z</time></trkpt><trkpt lat="44.40446471061083" lon="11.455417683825717"><ele>321.42857142857144</ele><time>2026-05-01T08:58:56Z</time></trkpt><trkpt lat="44.40443807607298" lon="11.45550448785337"><ele>323.0</ele><time>2026-05-01T08:59:00Z</time></trkpt><trkpt lat="44.40439839788973" lon="11.455597951205895"><ele>323.33333333333337</ele><time>2026-05-01T08:59:05Z</time></trkpt><trkpt lat="44.40436656895212" lon="11.455684598175411"><ele>323.6666666666667</ele><time>2026-05-01T08:59:09Z</time></trkpt><trkpt lat="44.404326988576834" lon="11.455768802045084"><ele>324.0</ele><time>2026-05-01T08:59:12Z</time></trkpt><trkpt lat="44.40428033281503" lon="11.455859286302188"><ele>324.3333333333333</ele><time>2026-05-01T08:59:16Z</time></trkpt><trkpt lat="44.404227309042994" lon="11.455935933026296"><ele>324.66666666666663</ele><time>2026-05-01T08:59:19Z</time></trkpt><trkpt lat="44.40417666122763" lon="11.45602790618653"><ele>325.0</ele><time>2026-05-01T08:59:22Z</time></trkpt><trkpt lat="44.4041088033136" lon="11.456105389008053"><ele>325.0</ele><time>2026-05-01T08:59:25Z</time></trkpt><trkpt lat="44.404048486192664" lon="11.456188723268108"><ele>325.0</ele><time>2026-05-01T08:59:28Z</time></trkpt><trkpt lat="44.403976224607135" lon="11.456277554886139"><ele>325.0</ele><time>2026-05-01T08:59:31Z</time></trkpt><trkpt lat="44.40392687582579" lon="11.456337441451465"><ele>325.0</ele><time>2026-05-01T08:59:33Z</time></trkpt><trkpt lat="44.40387328888847" lon="11.456396970402794"><ele>325.0</ele><time>2026-05-01T08:59:35Z</time></trkpt><trkpt lat="44.40382164676491" lon="11.456461232567541"><ele>325.0</ele><time>2026-05-01T08:59:37Z</time></trkpt><trkpt lat="44.40377243103599" lon="11.456516463872331"><ele>325.0</ele><time>2026-05-01T08:59:39Z</time></trkpt><trkpt lat="44.40371948849204" lon="11.45657923577181"><ele>325.16666666666663</ele><time>2026-05-01T08:59:41Z</time></trkpt><trkpt lat="44.4036702051556" lon="11.456634775553553"><ele>325.3333333333333</ele><time>2026-05-01T08:59:43Z</time></trkpt><trkpt lat="44.403618837024055" lon="11.45668654894455"><ele>325.5</ele><time>2026-05-01T08:59:45Z</time></trkpt><trkpt lat="44.4035459479343" lon="11.456765508314817"><ele>325.6666666666667</ele><time>2026-05-01T08:59:48Z</time></trkpt><trkpt lat="44.40348588991736" lon="11.456847465666772"><ele>325.83333333333337</ele><time>2026-05-01T08:59:51Z</time></trkpt><trkpt lat="44.40342753672571" lon="11.456931100460961"><ele>326.0</ele><time>2026-05-01T08:59:54Z</time></trkpt><trkpt lat="44.40337301360653" lon="11.457013517850285"><ele>326.0</ele><time>2026-05-01T08:59:57Z</time></trkpt><trkpt lat="44.40331870124891" lon="11.457100701062322"><ele>326.0</ele><time>2026-05-01T09:00:00Z</time></trkpt><trkpt lat="44.40327336414162" lon="11.457197053125821"><ele>326.0</ele><time>2026-05-01T09:00:03Z</time></trkpt><trkpt lat="44.40321945020202" lon="11.457288920263757"><ele>326.0</ele><time>2026-05-01T09:00:06Z</time></trkpt><trkpt lat="44.40317092501755" lon="11.457384931686033"><ele>326.0</ele><time>2026-05-01T09:00:09Z</time></trkpt><trkpt lat="44.403133021919686" lon="11.45745770982959"><ele>326.0</ele><time>2026-05-01T09:00:11Z</time></trkpt><trkpt lat="44.40308718238136" lon="11.457537831771136"><ele>326.42857142857144</ele><time>2026-05-01T09:00:13Z</time></trkpt><trkpt lat="44.40304893255594" lon="11.457613698804893"><ele>326.85714285714283</ele><time>2026-05-01T09:00:15Z</time></trkpt><trkpt lat="44.40300214515416" lon="11.45768865912041"><ele>327.2857142857143</ele><time>2026-05-01T09:00:17Z</time></trkpt><trkpt lat="44.40295988935356" lon="11.457759703193688"><ele>327.7142857142857</ele><time>2026-05-01T09:00:19Z</time></trkpt><trkpt lat="44.402919779133946" lon="11.457832633505932"><ele>328.1428571428571</ele><time>2026-05-01T09:00:21Z</time></trkpt><trkpt lat="44.402866145503666" lon="11.457933675719254"><ele>328.57142857142856</ele><time>2026-05-01T09:00:24Z</time></trkpt><trkpt lat="44.40280981505303" lon="11.458026907303973"><ele>329.0</ele><time>2026-05-01T09:00:27Z</time></trkpt><trkpt lat="44.402744783139646" lon="11.458103661709707"><ele>329.6666666666667</ele><time>2026-05-01T09:00:30Z</time></trkpt><trkpt lat="44.4026771626461" lon="11.458183865151993"><ele>330.33333333333337</ele><time>2026-05-01T09:00:32.999Z</time></trkpt><trkpt lat="44.402603435210025" lon="11.458247765138516"><ele>331.0</ele><time>2026-05-01T09:00:35.999Z</time></trkpt><trkpt lat="44.402522856545055" lon="11.45830377007741"><ele>331.6666666666667</ele><time>2026-05-01T09:00:38.999Z</time></trkpt><trkpt lat="44.40245936842357" lon="11.458335959828394"><ele>332.3333333333333</ele><time>2026-05-01T09:00:40.999Z</time></trkpt><trkpt lat="44.40239387015992" lon="11.458357784386937"><ele>333.0</ele><time>2026-05-01T09:00:42.999Z</time></trkpt><trkpt lat="44.402328995439284" lon="11.458373118762777"><ele>333.0</ele><time>2026-05-01T09:00:44.999Z</time></trkpt><trkpt lat="44.40226364605958" lon="11.458406929547285"><ele>333.0</ele><time>2026-05-01T09:00:46.999Z</time></trkpt><trkpt lat="44.402179708216025" lon="11.458438228130607"><ele>333.0</ele><time>2026-05-01T09:00:48.999Z</time></trkpt><trkpt lat="44.40209925457191" lon="11.458474931042932"><ele>333.0</ele><time>2026-05-01T09:00:50.999Z</time></trkpt><trkpt lat="44.40201042668469" lon="11.458530209317859"><ele>333.0</ele><time>2026-05-01T09:00:52.999Z</time></trkpt><trkpt lat="44.401930993655796" lon="11.45860811799574"><ele>333.0</ele><time>2026-05-01T09:00:55Z</time></trkpt><trkpt lat="44.40184437855602" lon="11.45869102476312"><ele>333.0</ele><time>2026-05-01T09:00:57Z</time></trkpt><trkpt lat="44.401762674562384" lon="11.458782303808988"><ele>333.0</ele><time>2026-05-01T09:00:59Z</time></trkpt><trkpt lat="44.40167674865706" lon="11.458869925699618"><ele>333.0</ele><time>2026-05-01T09:01:01Z</time></trkpt><trkpt lat="44.401572788809595" lon="11.458950374311577"><ele>333.0</ele><time>2026-05-01T09:01:03Z</time></trkpt><trkpt lat="44.40146837755996" lon="11.459061270436866"><ele>333.0</ele><time>2026-05-01T09:01:05Z</time></trkpt><trkpt lat="44.401400052729585" lon="11.459171743819713"><ele>333.0</ele><time>2026-05-01T09:01:07Z</time></trkpt><trkpt lat="44.401496868089666" lon="11.45936818276018"><ele>333.0</ele><time>2026-05-01T09:01:12Z</time></trkpt><trkpt lat="44.4015854237653" lon="11.459432276291517"><ele>333.0</ele><time>2026-05-01T09:01:14Z</time></trkpt><trkpt lat="44.40168521942726" lon="11.459492289025295"><ele>333.0</ele><time>2026-05-01T09:01:16Z</time></trkpt><trkpt lat="44.40178884602195" lon="11.459559138006306"><ele>333.0</ele><time>2026-05-01T09:01:18Z</time></trkpt><trkpt lat="44.40189430449328" lon="11.459625720447113"><ele>333.0</ele><time>2026-05-01T09:01:20Z</time></trkpt><trkpt lat="44.40199438633905" lon="11.459685830944316"><ele>333.0</ele><time>2026-05-01T09:01:22Z</time></trkpt><trkpt lat="44.40209902810125" lon="11.459740472233044"><ele>332.0</ele><time>2026-05-01T09:01:24Z</time></trkpt><trkpt lat="44.40220010830744" lon="11.459798243014628"><ele>331.0</ele><time>2026-05-01T09:01:26Z</time></trkpt><trkpt lat="44.402290306833514" lon="11.459863613269007"><ele>330.0</ele><time>2026-05-01T09:01:28Z</time></trkpt><trkpt lat="44.4023897805284" lon="11.459946177139738"><ele>329.0</ele><time>2026-05-01T09:01:30Z</time></trkpt><trkpt lat="44.40246973071266" lon="11.460024170983443"><ele>328.0</ele><time>2026-05-01T09:01:32Z</time></trkpt><trkpt lat="44.40253916929373" lon="11.46010557064156"><ele>328.0</ele><time>2026-05-01T09:01:34Z</time></trkpt><trkpt lat="44.40259631149614" lon="11.460158721374473"><ele>328.0</ele><time>2026-05-01T09:01:37Z</time></trkpt><trkpt lat="44.402674800746325" lon="11.460138800676408"><ele>328.0</ele><time>2026-05-01T09:01:59Z</time></trkpt><trkpt lat="44.40261525827089" lon="11.460192815287442"><ele>328.0</ele><time>2026-05-01T09:02:02Z</time></trkpt><trkpt lat="44.40270066595444" lon="11.460236473337229"><ele>328.0</ele><time>2026-05-01T09:03:32Z</time></trkpt><trkpt lat="44.40275938442158" lon="11.460286077713455"><ele>328.0</ele><time>2026-05-01T09:03:36Z</time></trkpt><trkpt lat="44.4028223135289" lon="11.460342030004526"><ele>328.0</ele><time>2026-05-01T09:03:39Z</time></trkpt><trkpt lat="44.402887997954835" lon="11.460401947936205"><ele>328.0</ele><time>2026-05-01T09:03:42Z</time></trkpt><trkpt lat="44.40294730633262" lon="11.460444411300399"><ele>328.0</ele><time>2026-05-01T09:03:44Z</time></trkpt><trkpt lat="44.403010316135386" lon="11.460497094244218"><ele>328.0</ele><time>2026-05-01T09:03:46Z</time></trkpt><trkpt lat="44.40308429907412" lon="11.46056499573798"><ele>328.0</ele><time>2026-05-01T09:03:48Z</time></trkpt><trkpt lat="44.40316490054196" lon="11.460640285045415"><ele>328.0</ele><time>2026-05-01T09:03:50Z</time></trkpt><trkpt lat="44.40325873844808" lon="11.460747660562681"><ele>327.59999999999997</ele><time>2026-05-01T09:03:52Z</time></trkpt><trkpt lat="44.40327831466571" lon="11.460853666731978"><ele>327.2</ele><time>2026-05-01T09:03:53Z</time></trkpt><trkpt lat="44.40331900983965" lon="11.460953005142866"><ele>326.8</ele><time>2026-05-01T09:03:54Z</time></trkpt><trkpt lat="44.40335910417987" lon="11.461064816351556"><ele>326.4</ele><time>2026-05-01T09:03:55Z</time></trkpt><trkpt lat="44.403403210831634" lon="11.46118540011623"><ele>326.0</ele><time>2026-05-01T09:03:56Z</time></trkpt><trkpt lat="44.4034534791333" lon="11.461313852655334"><ele>325.0</ele><time>2026-05-01T09:03:57Z</time></trkpt><trkpt lat="44.40350784425165" lon="11.461442327316771"><ele>324.0</ele><time>2026-05-01T09:03:58Z</time></trkpt><trkpt lat="44.40356731949359" lon="11.461567895147414"><ele>323.0</ele><time>2026-05-01T09:03:59Z</time></trkpt><trkpt lat="44.403633054275105" lon="11.461699065653734"><ele>322.0</ele><time>2026-05-01T09:04:00Z</time></trkpt><trkpt lat="44.40369749341932" lon="11.46182255648244"><ele>321.0</ele><time>2026-05-01T09:04:01Z</time></trkpt><trkpt lat="44.40377413093618" lon="11.46192671429725"><ele>317.8</ele><time>2026-05-01T09:04:02Z</time></trkpt><trkpt lat="44.40384534864374" lon="11.462051362258594"><ele>314.6</ele><time>2026-05-01T09:04:03Z</time></trkpt><trkpt lat="44.403905955785326" lon="11.462181719992675"><ele>311.4</ele><time>2026-05-01T09:04:04Z</time></trkpt><trkpt lat="44.40395293136335" lon="11.46231999360286"><ele>308.2</ele><time>2026-05-01T09:04:05Z</time></trkpt><trkpt lat="44.40400811393741" lon="11.46245486798612"><ele>305.0</ele><time>2026-05-01T09:04:06Z</time></trkpt><trkpt lat="44.404057453062386" lon="11.462595200805776"><ele>305.0</ele><time>2026-05-01T09:04:07Z</time></trkpt><trkpt lat="44.40410290041225" lon="11.4627380746573"><ele>305.0</ele><time>2026-05-01T09:04:08Z</time></trkpt><trkpt lat="44.40414067023881" lon="11.462883471901504"><ele>305.0</ele><time>2026-05-01T09:04:09Z</time></trkpt><trkpt lat="44.40417404575142" lon="11.463035189967743"><ele>305.0</ele><time>2026-05-01T09:04:10Z</time></trkpt><trkpt lat="44.40422350698118" lon="11.463190204699108"><ele>304.0</ele><time>2026-05-01T09:04:11Z</time></trkpt><trkpt lat="44.40425240961576" lon="11.463364266009691"><ele>303.0</ele><time>2026-05-01T09:04:12Z</time></trkpt><trkpt lat="44.40429211819014" lon="11.463527884104565"><ele>302.0</ele><time>2026-05-01T09:04:13Z</time></trkpt><trkpt lat="44.40435123219201" lon="11.46368619456075"><ele>301.0</ele><time>2026-05-01T09:04:14Z</time></trkpt><trkpt lat="44.40441849777157" lon="11.463840204461228"><ele>298.5</ele><time>2026-05-01T09:04:15Z</time></trkpt><trkpt lat="44.404497577207444" lon="11.463980809764669"><ele>296.0</ele><time>2026-05-01T09:04:16Z</time></trkpt><trkpt lat="44.40458117117066" lon="11.464117237923643"><ele>293.5</ele><time>2026-05-01T09:04:17Z</time></trkpt><trkpt lat="44.40466122944233" lon="11.464240957498669"><ele>291.0</ele><time>2026-05-01T09:04:18Z</time></trkpt><trkpt lat="44.40472711146857" lon="11.46435324852753"><ele>289.0</ele><time>2026-05-01T09:04:19Z</time></trkpt><trkpt lat="44.40479067641553" lon="11.46446106316126"><ele>287.0</ele><time>2026-05-01T09:04:20Z</time></trkpt><trkpt lat="44.4048689479471" lon="11.464542005425438"><ele>285.0</ele><time>2026-05-01T09:04:21Z</time></trkpt><trkpt lat="44.40496775918091" lon="11.464622271915305"><ele>283.0</ele><time>2026-05-01T09:04:22Z</time></trkpt><trkpt lat="44.40509555733227" lon="11.464673823898398"><ele>281.0</ele><time>2026-05-01T09:04:23Z</time></trkpt><trkpt lat="44.40521732917546" lon="11.464720597440358"><ele>280.0</ele><time>2026-05-01T09:04:24Z</time></trkpt><trkpt lat="44.405345336503245" lon="11.464767873534905"><ele>279.0</ele><time>2026-05-01T09:04:25Z</time></trkpt><trkpt lat="44.40544711795719" lon="11.46486893604912"><ele>278.0</ele><time>2026-05-01T09:04:26Z</time></trkpt><trkpt lat="44.40554709428265" lon="11.46498312878236"><ele>277.0</ele><time>2026-05-01T09:04:27Z</time></trkpt><trkpt lat="44.405614496894735" lon="11.465130232720895"><ele>274.75</ele><time>2026-05-01T09:04:28Z</time></trkpt><trkpt lat="44.40569382372397" lon="11.46528084204899"><ele>272.5</ele><time>2026-05-01T09:04:29Z</time></trkpt><trkpt lat="44.40576375454336" lon="11.4654156912073"><ele>270.25</ele><time>2026-05-01T09:04:30Z</time></trkpt><trkpt lat="44.40583503035373" lon="11.465553105302941"><ele>268.0</ele><time>2026-05-01T09:04:31Z</time></trkpt><trkpt lat="44.4059024446382" lon="11.465683074680944"><ele>267.6</ele><time>2026-05-01T09:04:32Z</time></trkpt><trkpt lat="44.40597182017022" lon="11.465812313012291"><ele>267.20000000000005</ele><time>2026-05-01T09:04:33Z</time></trkpt><trkpt lat="44.40603772805516" lon="11.465929908702384"><ele>266.8</ele><time>2026-05-01T09:04:34Z</time></trkpt><trkpt lat="44.406099213559926" lon="11.466037627120802"><ele>266.40000000000003</ele><time>2026-05-01T09:04:35Z</time></trkpt><trkpt lat="44.406159299397395" lon="11.466141502955738"><ele>266.0</ele><time>2026-05-01T09:04:35.999Z</time></trkpt><trkpt lat="44.40621621519731" lon="11.466237118620981"><ele>266.1666666666667</ele><time>2026-05-01T09:04:36.999Z</time></trkpt><trkpt lat="44.4062674722875" lon="11.466323227935534"><ele>266.33333333333337</ele><time>2026-05-01T09:04:37.999Z</time></trkpt><trkpt lat="44.40632505014437" lon="11.466400385458867"><ele>266.5</ele><time>2026-05-01T09:04:38.999Z</time></trkpt><trkpt lat="44.40637490132344" lon="11.466484731895788"><ele>266.6666666666667</ele><time>2026-05-01T09:04:39.999Z</time></trkpt><trkpt lat="44.40642201229746" lon="11.466564591758024"><ele>266.8333333333333</ele><time>2026-05-01T09:04:40.999Z</time></trkpt><trkpt lat="44.40647365737733" lon="11.46664305508166"><ele>267.0</ele><time>2026-05-01T09:04:41.999Z</time></trkpt><trkpt lat="44.40652240363558" lon="11.466722742590644"><ele>267.0</ele><time>2026-05-01T09:04:42.999Z</time></trkpt><trkpt lat="44.40657513655443" lon="11.46680192831824"><ele>267.0</ele><time>2026-05-01T09:04:43.999Z</time></trkpt><trkpt lat="44.406623597336576" lon="11.466879922230397"><ele>267.0</ele><time>2026-05-01T09:04:44.999Z</time></trkpt><trkpt lat="44.406674226971276" lon="11.466963067036769"><ele>267.0</ele><time>2026-05-01T09:04:45.999Z</time></trkpt><trkpt lat="44.406725546209714" lon="11.46705311463184"><ele>267.0</ele><time>2026-05-01T09:04:46.999Z</time></trkpt><trkpt lat="44.406766921752805" lon="11.467150116800305"><ele>267.0</ele><time>2026-05-01T09:04:47.999Z</time></trkpt><trkpt lat="44.40682557339802" lon="11.467240189680233"><ele>266.6666666666667</ele><time>2026-05-01T09:04:48.999Z</time></trkpt><trkpt lat="44.406882120343404" lon="11.467328055579022"><ele>266.3333333333333</ele><time>2026-05-01T09:04:49.999Z</time></trkpt><trkpt lat="44.406934146438466" lon="11.46741499650327"><ele>266.0</ele><time>2026-05-01T09:04:50.999Z</time></trkpt><trkpt lat="44.40698668803826" lon="11.467494063906981"><ele>265.66666666666663</ele><time>2026-05-01T09:04:51.999Z</time></trkpt><trkpt lat="44.407038965161725" lon="11.467578481821517"><ele>265.3333333333333</ele><time>2026-05-01T09:04:52.999Z</time></trkpt><trkpt lat="44.40709136761866" lon="11.467655277396272"><ele>265.0</ele><time>2026-05-01T09:04:53.999Z</time></trkpt><trkpt lat="44.40713871515086" lon="11.467744722522372"><ele>265.85714285714283</ele><time>2026-05-01T09:04:54.999Z</time></trkpt><trkpt lat="44.407183744863666" lon="11.467829356061648"><ele>266.7142857142857</ele><time>2026-05-01T09:04:55.999Z</time></trkpt><trkpt lat="44.40722450135381" lon="11.467920067206713"><ele>267.57142857142856</ele><time>2026-05-01T09:04:56.999Z</time></trkpt><trkpt lat="44.40725573594692" lon="11.468018083510605"><ele>268.42857142857144</ele><time>2026-05-01T09:04:57.999Z</time></trkpt><trkpt lat="44.40728384220519" lon="11.468113657126194"><ele>269.2857142857143</ele><time>2026-05-01T09:04:58.999Z</time></trkpt><trkpt lat="44.407305973688565" lon="11.46820432644327"><ele>270.1428571428571</ele><time>2026-05-01T09:04:59.999Z</time></trkpt><trkpt lat="44.40732941769563" lon="11.468290914290078"><ele>271.0</ele><time>2026-05-01T09:05:00.999Z</time></trkpt><trkpt lat="44.407351059455735" lon="11.468375897241"><ele>271.0</ele><time>2026-05-01T09:05:01.999Z</time></trkpt><trkpt lat="44.40738360044793" lon="11.46854022794723"><ele>271.0</ele><time>2026-05-01T09:05:03.999Z</time></trkpt><trkpt lat="44.40739901945861" lon="11.468700459581632"><ele>271.0</ele><time>2026-05-01T09:05:05.999Z</time></trkpt><trkpt lat="44.407402287968566" lon="11.468859427690454"><ele>271.0</ele><time>2026-05-01T09:05:08Z</time></trkpt><trkpt lat="44.40740747608338" lon="11.469012543989788"><ele>270.66666666666663</ele><time>2026-05-01T09:05:10Z</time></trkpt><trkpt lat="44.40737289662118" lon="11.46915645119597"><ele>270.3333333333333</ele><time>2026-05-01T09:05:12Z</time></trkpt><trkpt lat="44.407365860046994" lon="11.469284151861768"><ele>270.0</ele><time>2026-05-01T09:05:14Z</time></trkpt><trkpt lat="44.40735936501123" lon="11.469397024311593"><ele>269.6666666666667</ele><time>2026-05-01T09:05:16Z</time></trkpt><trkpt lat="44.40736485828198" lon="11.469495409754073"><ele>269.33333333333337</ele><time>2026-05-01T09:05:18Z</time></trkpt><trkpt lat="44.40734860105527" lon="11.469587847932303"><ele>269.0</ele><time>2026-05-01T09:05:20Z</time></trkpt><trkpt lat="44.40734278489281" lon="11.469720577984365"><ele>268.33333333333337</ele><time>2026-05-01T09:05:23Z</time></trkpt><trkpt lat="44.407340220240506" lon="11.46980924232701"><ele>267.6666666666667</ele><time>2026-05-01T09:05:25Z</time></trkpt><trkpt lat="44.407339154703834" lon="11.469910738593507"><ele>267.0</ele><time>2026-05-01T09:05:27Z</time></trkpt><trkpt lat="44.40734537391168" lon="11.47003771165435"><ele>266.3333333333333</ele><time>2026-05-01T09:05:29Z</time></trkpt><trkpt lat="44.4073671842357" lon="11.470175899482118"><ele>265.66666666666663</ele><time>2026-05-01T09:05:31Z</time></trkpt><trkpt lat="44.407409800767795" lon="11.470325704740143"><ele>265.0</ele><time>2026-05-01T09:05:33Z</time></trkpt><trkpt lat="44.407438366324044" lon="11.470408240572027"><ele>265.16666666666663</ele><time>2026-05-01T09:05:34Z</time></trkpt><trkpt lat="44.40746803517696" lon="11.470495315832526"><ele>265.3333333333333</ele><time>2026-05-01T09:05:35Z</time></trkpt><trkpt lat="44.407499786578626" lon="11.470588503153905"><ele>265.5</ele><time>2026-05-01T09:05:36Z</time></trkpt><trkpt lat="44.407517867627504" lon="11.470685531831025"><ele>265.6666666666667</ele><time>2026-05-01T09:05:37Z</time></trkpt><trkpt lat="44.40752743419411" lon="11.470802038580283"><ele>265.83333333333337</ele><time>2026-05-01T09:05:38Z</time></trkpt><trkpt lat="44.40750917109208" lon="11.47092433140818"><ele>266.0</ele><time>2026-05-01T09:05:39Z</time></trkpt><trkpt lat="44.40747905309405" lon="11.471055978962928"><ele>266.0</ele><time>2026-05-01T09:05:40Z</time></trkpt><trkpt lat="44.40745817782128" lon="11.471202359668949"><ele>266.0</ele><time>2026-05-01T09:05:41Z</time></trkpt><trkpt lat="44.40742175662964" lon="11.47134227803899"><ele>266.0</ele><time>2026-05-01T09:05:42Z</time></trkpt><trkpt lat="44.40737179371882" lon="11.471476625367321"><ele>266.0</ele><time>2026-05-01T09:05:43Z</time></trkpt><trkpt lat="44.40733296684389" lon="11.471621218569616"><ele>266.0</ele><time>2026-05-01T09:05:44Z</time></trkpt><trkpt lat="44.40728832377091" lon="11.471764330861232"><ele>263.75</ele><time>2026-05-01T09:05:45Z</time></trkpt><trkpt lat="44.40723815425237" lon="11.47190047926078"><ele>261.5</ele><time>2026-05-01T09:05:46Z</time></trkpt><trkpt lat="44.40717299442227" lon="11.472032145804484"><ele>259.25</ele><time>2026-05-01T09:05:47Z</time></trkpt><trkpt lat="44.40709578343727" lon="11.472150854635695"><ele>257.0</ele><time>2026-05-01T09:05:48Z</time></trkpt><trkpt lat="44.407002585689646" lon="11.472261356126404"><ele>255.0</ele><time>2026-05-01T09:05:49Z</time></trkpt><trkpt lat="44.40690735519375" lon="11.472367438609808"><ele>253.0</ele><time>2026-05-01T09:05:50Z</time></trkpt><trkpt lat="44.40681550754593" lon="11.4724904523521"><ele>251.0</ele><time>2026-05-01T09:05:51Z</time></trkpt><trkpt lat="44.40674219839746" lon="11.472640889684829"><ele>249.0</ele><time>2026-05-01T09:05:52Z</time></trkpt><trkpt lat="44.40664303613111" lon="11.472748912909116"><ele>249.0</ele><time>2026-05-01T09:05:53Z</time></trkpt><trkpt lat="44.40653203299368" lon="11.472836521331889"><ele>248.99999999999997</ele><time>2026-05-01T09:05:54Z</time></trkpt><trkpt lat="44.406436537696635" lon="11.472925436610069"><ele>248.99999999999997</ele><time>2026-05-01T09:05:55Z</time></trkpt><trkpt lat="44.40635080532761" lon="11.473013124281046"><ele>249.0</ele><time>2026-05-01T09:05:56Z</time></trkpt><trkpt lat="44.406289406165754" lon="11.473100840170758"><ele>249.0</ele><time>2026-05-01T09:05:57Z</time></trkpt><trkpt lat="44.40623141361678" lon="11.473170250632625"><ele>247.79999999999998</ele><time>2026-05-01T09:05:58Z</time></trkpt><trkpt lat="44.40617935702314" lon="11.473238071224479"><ele>246.59999999999997</ele><time>2026-05-01T09:05:59Z</time></trkpt><trkpt lat="44.40613242732432" lon="11.47330148498895"><ele>245.4</ele><time>2026-05-01T09:06:00Z</time></trkpt><trkpt lat="44.40605817307392" lon="11.473417560273212"><ele>244.2</ele><time>2026-05-01T09:06:02Z</time></trkpt><trkpt lat="44.405983774090274" lon="11.473521997377722"><ele>243.0</ele><time>2026-05-01T09:06:04Z</time></trkpt><trkpt lat="44.4059143002787" lon="11.473653083190289"><ele>243.0</ele><time>2026-05-01T09:06:06Z</time></trkpt><trkpt lat="44.40587542023897" lon="11.473727618470692"><ele>243.0</ele><time>2026-05-01T09:06:07Z</time></trkpt><trkpt lat="44.405836593882405" lon="11.47380205084803"><ele>243.0</ele><time>2026-05-01T09:06:08Z</time></trkpt><trkpt lat="44.40580876446288" lon="11.473893497273155"><ele>243.0</ele><time>2026-05-01T09:06:09Z</time></trkpt><trkpt lat="44.405761465847405" lon="11.47396083978529"><ele>243.0</ele><time>2026-05-01T09:06:10Z</time></trkpt><trkpt lat="44.40569251489596" lon="11.474095936170347"><ele>243.0</ele><time>2026-05-01T09:06:12Z</time></trkpt><trkpt lat="44.40561787388715" lon="11.474223907610755"><ele>243.4</ele><time>2026-05-01T09:06:14Z</time></trkpt><trkpt lat="44.40556348690389" lon="11.474363880555096"><ele>243.8</ele><time>2026-05-01T09:06:16Z</time></trkpt><trkpt lat="44.4055223799179" lon="11.474488220277681"><ele>244.2</ele><time>2026-05-01T09:06:18Z</time></trkpt><trkpt lat="44.405484613336455" lon="11.474607792318317"><ele>244.6</ele><time>2026-05-01T09:06:20Z</time></trkpt><trkpt lat="44.40545036383924" lon="11.474715944448437"><ele>245.0</ele><time>2026-05-01T09:06:22Z</time></trkpt><trkpt lat="44.40541372153167" lon="11.474838900233328"><ele>245.0</ele><time>2026-05-01T09:06:24Z</time></trkpt><trkpt lat="44.405394174394395" lon="11.474958741704128"><ele>245.0</ele><time>2026-05-01T09:06:26Z</time></trkpt><trkpt lat="44.405392160996875" lon="11.475061221494098"><ele>245.0</ele><time>2026-05-01T09:06:28Z</time></trkpt><trkpt lat="44.40539037969451" lon="11.47517575889278"><ele>245.0</ele><time>2026-05-01T09:06:30Z</time></trkpt><trkpt lat="44.405367942648624" lon="11.475318553200282"><ele>245.0</ele><time>2026-05-01T09:06:32Z</time></trkpt><trkpt lat="44.40532655997341" lon="11.475493999506963"><ele>243.4</ele><time>2026-05-01T09:06:34Z</time></trkpt><trkpt lat="44.405298959803616" lon="11.475573946634729"><ele>241.8</ele><time>2026-05-01T09:06:35Z</time></trkpt><trkpt lat="44.40526281381971" lon="11.475669842820494"><ele>240.2</ele><time>2026-05-01T09:06:36Z</time></trkpt><trkpt lat="44.405217170957584" lon="11.475791727285177"><ele>238.6</ele><time>2026-05-01T09:06:37Z</time></trkpt><trkpt lat="44.405173168096645" lon="11.47591364069686"><ele>237.0</ele><time>2026-05-01T09:06:38Z</time></trkpt><trkpt lat="44.405116365944224" lon="11.476057606101822"><ele>237.0</ele><time>2026-05-01T09:06:39Z</time></trkpt><trkpt lat="44.40505651867338" lon="11.47620256746164"><ele>237.0</ele><time>2026-05-01T09:06:40Z</time></trkpt><trkpt lat="44.40498873901973" lon="11.476359511374497"><ele>237.0</ele><time>2026-05-01T09:06:41Z</time></trkpt><trkpt lat="44.40491581968977" lon="11.476518041477227"><ele>237.0</ele><time>2026-05-01T09:06:42Z</time></trkpt><trkpt lat="44.40484197827141" lon="11.476684314577602"><ele>235.5</ele><time>2026-05-01T09:06:43Z</time></trkpt><trkpt lat="44.40477802529145" lon="11.47684976686205"><ele>234.0</ele><time>2026-05-01T09:06:44Z</time></trkpt><trkpt lat="44.40470975303316" lon="11.477009304920944"><ele>232.5</ele><time>2026-05-01T09:06:45Z</time></trkpt><trkpt lat="44.40464576349015" lon="11.477162575941382"><ele>231.0</ele><time>2026-05-01T09:06:46Z</time></trkpt><trkpt lat="44.40457905493898" lon="11.477310783153609"><ele>227.75</ele><time>2026-05-01T09:06:46.999Z</time></trkpt><trkpt lat="44.40451847796279" lon="11.47745601907993"><ele>224.5</ele><time>2026-05-01T09:06:47.999Z</time></trkpt><trkpt lat="44.40445932777014" lon="11.477594307297112"><ele>221.25</ele><time>2026-05-01T09:06:48.999Z</time></trkpt><trkpt lat="44.40440174363373" lon="11.477727643991235"><ele>218.0</ele><time>2026-05-01T09:06:49.999Z</time></trkpt><trkpt lat="44.40434444750077" lon="11.47785691814636"><ele>218.2</ele><time>2026-05-01T09:06:50.999Z</time></trkpt><trkpt lat="44.404286821033466" lon="11.477988241574856"><ele>218.4</ele><time>2026-05-01T09:06:51.999Z</time></trkpt><trkpt lat="44.404227829351626" lon="11.478104391962043"><ele>218.59999999999997</ele><time>2026-05-01T09:06:52.999Z</time></trkpt><trkpt lat="44.40417831216054" lon="11.478216739079667"><ele>218.79999999999998</ele><time>2026-05-01T09:06:53.999Z</time></trkpt><trkpt lat="44.4041249391809" lon="11.47831246367219"><ele>219.0</ele><time>2026-05-01T09:06:54.999Z</time></trkpt><trkpt lat="44.4040442188184" lon="11.47839365472618"><ele>219.0</ele><time>2026-05-01T09:06:55.999Z</time></trkpt><trkpt lat="44.40396816219884" lon="11.478494045043723"><ele>218.99999999999997</ele><time>2026-05-01T09:06:56.999Z</time></trkpt><trkpt lat="44.40390213710095" lon="11.478594953080979"><ele>218.99999999999997</ele><time>2026-05-01T09:06:57.999Z</time></trkpt><trkpt lat="44.40384139138405" lon="11.478711166782297"><ele>219.0</ele><time>2026-05-01T09:06:58.999Z</time></trkpt><trkpt lat="44.40380919436765" lon="11.47885925168173"><ele>219.0</ele><time>2026-05-01T09:06:59.999Z</time></trkpt><trkpt lat="44.40377950400811" lon="11.478986696383766"><ele>219.0</ele><time>2026-05-01T09:07:00.999Z</time></trkpt><trkpt lat="44.40374301276036" lon="11.479093338035309"><ele>219.0</ele><time>2026-05-01T09:07:01.999Z</time></trkpt><trkpt lat="44.40376930296905" lon="11.479240489488237"><ele>219.0</ele><time>2026-05-01T09:07:03.999Z</time></trkpt><trkpt lat="44.40384464446477" lon="11.47933367074918"><ele>219.0</ele><time>2026-05-01T09:07:05.999Z</time></trkpt><trkpt lat="44.4039055430704" lon="11.479366266197717"><ele>219.0</ele><time>2026-05-01T09:07:06.999Z</time></trkpt><trkpt lat="44.403969404755124" lon="11.479404053169972"><ele>219.0</ele><time>2026-05-01T09:07:07.999Z</time></trkpt><trkpt lat="44.40404044678349" lon="11.479441280740891"><ele>219.0</ele><time>2026-05-01T09:07:08.999Z</time></trkpt><trkpt lat="44.40410636830848" lon="11.479475290707526"><ele>219.0</ele><time>2026-05-01T09:07:09.999Z</time></trkpt><trkpt lat="44.40417771978132" lon="11.479494156348817"><ele>219.0</ele><time>2026-05-01T09:07:10.999Z</time></trkpt><trkpt lat="44.40423297036082" lon="11.47955412951687"><ele>219.0</ele><time>2026-05-01T09:07:11.999Z</time></trkpt><trkpt lat="44.4043132191824" lon="11.479646017862688"><ele>219.0</ele><time>2026-05-01T09:07:14Z</time></trkpt><trkpt lat="44.40437130817964" lon="11.479808549518802"><ele>219.0</ele><time>2026-05-01T09:07:16Z</time></trkpt><trkpt lat="44.40438460593353" lon="11.47992174010829"><ele>218.79999999999998</ele><time>2026-05-01T09:07:17Z</time></trkpt><trkpt lat="44.404388835042866" lon="11.480049581989748"><ele>218.59999999999997</ele><time>2026-05-01T09:07:18Z</time></trkpt><trkpt lat="44.404393193223584" lon="11.480209997426478"><ele>218.4</ele><time>2026-05-01T09:07:19Z</time></trkpt><trkpt lat="44.40439652003341" lon="11.480365325157313"><ele>218.2</ele><time>2026-05-01T09:07:20Z</time></trkpt><trkpt lat="44.40439462200156" lon="11.480519268406576"><ele>218.0</ele><time>2026-05-01T09:07:21Z</time></trkpt><trkpt lat="44.40439424137811" lon="11.480676009608066"><ele>218.0</ele><time>2026-05-01T09:07:22Z</time></trkpt><trkpt lat="44.40439415188874" lon="11.480836041847311"><ele>218.0</ele><time>2026-05-01T09:07:23Z</time></trkpt><trkpt lat="44.404394667760094" lon="11.480988377826973"><ele>218.0</ele><time>2026-05-01T09:07:24Z</time></trkpt><trkpt lat="44.40439694242217" lon="11.48114814728856"><ele>218.0</ele><time>2026-05-01T09:07:25Z</time></trkpt><trkpt lat="44.40442006050168" lon="11.48129021817434"><ele>218.0</ele><time>2026-05-01T09:07:26Z</time></trkpt><trkpt lat="44.40444830016959" lon="11.48141486582827"><ele>217.00000000000003</ele><time>2026-05-01T09:07:27Z</time></trkpt><trkpt lat="44.40445343620835" lon="11.481529945509548"><ele>216.0</ele><time>2026-05-01T09:07:28Z</time></trkpt><trkpt lat="44.40446302008197" lon="11.481628681697728"><ele>215.0</ele><time>2026-05-01T09:07:29Z</time></trkpt><trkpt lat="44.4044656616737" lon="11.48172317951345"><ele>214.0</ele><time>2026-05-01T09:07:30Z</time></trkpt><trkpt lat="44.404477071519395" lon="11.48183046167089"><ele>213.00000000000003</ele><time>2026-05-01T09:07:31Z</time></trkpt><trkpt lat="44.4045143637017" lon="11.48194436180724"><ele>212.0</ele><time>2026-05-01T09:07:32Z</time></trkpt><trkpt lat="44.40451168783629" lon="11.48207215617529"><ele>210.66666666666669</ele><time>2026-05-01T09:07:33Z</time></trkpt><trkpt lat="44.40446337676157" lon="11.482185516917593"><ele>209.33333333333334</ele><time>2026-05-01T09:07:34Z</time></trkpt><trkpt lat="44.40444415485169" lon="11.482295016481807"><ele>208.0</ele><time>2026-05-01T09:07:35Z</time></trkpt><trkpt lat="44.404425065579545" lon="11.482401268295769"><ele>206.66666666666669</ele><time>2026-05-01T09:07:36Z</time></trkpt><trkpt lat="44.4044100606466" lon="11.482500594378246"><ele>205.33333333333334</ele><time>2026-05-01T09:07:37Z</time></trkpt><trkpt lat="44.40439532780597" lon="11.482598119376732"><ele>204.0</ele><time>2026-05-01T09:07:38Z</time></trkpt><trkpt lat="44.40437983086063" lon="11.48270070240883"><ele>204.0</ele><time>2026-05-01T09:07:39Z</time></trkpt><trkpt lat="44.404367088896834" lon="11.482798722422087"><ele>204.0</ele><time>2026-05-01T09:07:40Z</time></trkpt><trkpt lat="44.40437344847162" lon="11.4829075792837"><ele>204.0</ele><time>2026-05-01T09:07:41Z</time></trkpt><trkpt lat="44.40435639748902" lon="11.483034703252033"><ele>204.0</ele><time>2026-05-01T09:07:42Z</time></trkpt><trkpt lat="44.40436589941941" lon="11.483152687528856"><ele>204.0</ele><time>2026-05-01T09:07:43Z</time></trkpt><trkpt lat="44.40438749504376" lon="11.483278358960368"><ele>204.0</ele><time>2026-05-01T09:07:44Z</time></trkpt><trkpt lat="44.404415756139365" lon="11.483392338562501"><ele>202.33333333333334</ele><time>2026-05-01T09:07:45Z</time></trkpt><trkpt lat="44.404451138515554" lon="11.483500399593366"><ele>200.66666666666669</ele><time>2026-05-01T09:07:46Z</time></trkpt><trkpt lat="44.40448759715193" lon="11.48361218652772"><ele>199.0</ele><time>2026-05-01T09:07:47Z</time></trkpt><trkpt lat="44.40452278229148" lon="11.483727880041663"><ele>197.33333333333334</ele><time>2026-05-01T09:07:48Z</time></trkpt><trkpt lat="44.404556579862955" lon="11.48383901104206"><ele>195.66666666666669</ele><time>2026-05-01T09:07:49Z</time></trkpt><trkpt lat="44.40459082773545" lon="11.483948177883018"><ele>194.0</ele><time>2026-05-01T09:07:50Z</time></trkpt><trkpt lat="44.404640463861156" lon="11.484044122877837"><ele>191.83333333333334</ele><time>2026-05-01T09:07:51Z</time></trkpt><trkpt lat="44.40466371583956" lon="11.484158893455426"><ele>189.66666666666669</ele><time>2026-05-01T09:07:52Z</time></trkpt><trkpt lat="44.40470105128581" lon="11.484266079901776"><ele>187.5</ele><time>2026-05-01T09:07:53Z</time></trkpt><trkpt lat="44.40473883461971" lon="11.484374552189493"><ele>185.33333333333334</ele><time>2026-05-01T09:07:54Z</time></trkpt><trkpt lat="44.404773194498645" lon="11.484482973110412"><ele>183.16666666666669</ele><time>2026-05-01T09:07:55Z</time></trkpt><trkpt lat="44.40479722632945" lon="11.484586644258615"><ele>181.0</ele><time>2026-05-01T09:07:56Z</time></trkpt><trkpt lat="44.40482004832247" lon="11.484694212129375"><ele>181.0</ele><time>2026-05-01T09:07:57Z</time></trkpt><trkpt lat="44.404842050411254" lon="11.48479791549298"><ele>181.0</ele><time>2026-05-01T09:07:58Z</time></trkpt><trkpt lat="44.40487819585812" lon="11.484892562850947"><ele>181.0</ele><time>2026-05-01T09:07:59Z</time></trkpt><trkpt lat="44.404894069896876" lon="11.4849910226547"><ele>181.0</ele><time>2026-05-01T09:08:00Z</time></trkpt><trkpt lat="44.40489032365187" lon="11.485088554133231"><ele>181.0</ele><time>2026-05-01T09:08:01Z</time></trkpt><trkpt lat="44.40489927875884" lon="11.485176884297513"><ele>181.0</ele><time>2026-05-01T09:08:02Z</time></trkpt><trkpt lat="44.40490641330441" lon="11.485347231914881"><ele>182.0</ele><time>2026-05-01T09:08:04Z</time></trkpt><trkpt lat="44.404904959857056" lon="11.485508564734063"><ele>183.0</ele><time>2026-05-01T09:08:06Z</time></trkpt><trkpt lat="44.404903631701075" lon="11.485652419209096"><ele>184.0</ele><time>2026-05-01T09:08:08Z</time></trkpt><trkpt lat="44.40490234521494" lon="11.485780934937276"><ele>185.0</ele><time>2026-05-01T09:08:10Z</time></trkpt><trkpt lat="44.40490120186688" lon="11.485895151658939"><ele>186.0</ele><time>2026-05-01T09:08:12Z</time></trkpt><trkpt lat="44.404915853999746" lon="11.48599928416607"><ele>186.00000000000003</ele><time>2026-05-01T09:08:14Z</time></trkpt><trkpt lat="44.40489890175969" lon="11.48609140675417"><ele>186.0</ele><time>2026-05-01T09:08:16Z</time></trkpt><trkpt lat="44.40489755583083" lon="11.486180503138804"><ele>186.0</ele><time>2026-05-01T09:08:18Z</time></trkpt><trkpt lat="44.40489506035715" lon="11.48630394815467"><ele>186.0</ele><time>2026-05-01T09:08:21Z</time></trkpt><trkpt lat="44.404892788473006" lon="11.486416332775029"><ele>186.0</ele><time>2026-05-01T09:08:24Z</time></trkpt><trkpt lat="44.40489071512092" lon="11.486518896474179"><ele>186.00000000000003</ele><time>2026-05-01T09:08:27Z</time></trkpt><trkpt lat="44.40488879384211" lon="11.486615648998482"><ele>186.0</ele><time>2026-05-01T09:08:30Z</time></trkpt><trkpt lat="44.40488639476741" lon="11.486736652450642"><ele>187.0</ele><time>2026-05-01T09:08:34Z</time></trkpt><trkpt lat="44.40488411495609" lon="11.486851640548213"><ele>188.0</ele><time>2026-05-01T09:08:38Z</time></trkpt><trkpt lat="44.404881876607675" lon="11.486964537356338"><ele>189.0</ele><time>2026-05-01T09:08:42Z</time></trkpt><trkpt lat="44.404877863868485" lon="11.487080507127196"><ele>190.0</ele><time>2026-05-01T09:08:45.999Z</time></trkpt><trkpt lat="44.404895697924246" lon="11.4871696337379"><ele>191.0</ele><time>2026-05-01T09:08:48.999Z</time></trkpt><trkpt lat="44.40489976264733" lon="11.487265636721053"><ele>192.0</ele><time>2026-05-01T09:08:51.999Z</time></trkpt><trkpt lat="44.404894406390824" lon="11.487370426558272"><ele>192.33333333333334</ele><time>2026-05-01T09:08:54.999Z</time></trkpt><trkpt lat="44.40488312653406" lon="11.487471075971229"><ele>192.66666666666669</ele><time>2026-05-01T09:08:57.999Z</time></trkpt><trkpt lat="44.40488157155745" lon="11.487582368664155"><ele>193.0</ele><time>2026-05-01T09:09:00.999Z</time></trkpt><trkpt lat="44.404884498600836" lon="11.487702923751925"><ele>193.33333333333334</ele><time>2026-05-01T09:09:03.999Z</time></trkpt><trkpt lat="44.40489042229344" lon="11.487832569462586"><ele>193.66666666666669</ele><time>2026-05-01T09:09:06.999Z</time></trkpt><trkpt lat="44.404902379765545" lon="11.48793649467184"><ele>194.0</ele><time>2026-05-01T09:09:08.999Z</time></trkpt><trkpt lat="44.40491766310872" lon="11.488053654949281"><ele>194.00000000000003</ele><time>2026-05-01T09:09:10.999Z</time></trkpt><trkpt lat="44.40493226672344" lon="11.48816510154192"><ele>194.0</ele><time>2026-05-01T09:09:12.999Z</time></trkpt><trkpt lat="44.40494134437932" lon="11.488278841716088"><ele>194.0</ele><time>2026-05-01T09:09:14.999Z</time></trkpt><trkpt lat="44.404958662861496" lon="11.488390197587654"><ele>194.0</ele><time>2026-05-01T09:09:16.999Z</time></trkpt><trkpt lat="44.404969561228285" lon="11.48851293140137"><ele>194.00000000000003</ele><time>2026-05-01T09:09:19Z</time></trkpt><trkpt lat="44.40498616265513" lon="11.48863867411142"><ele>194.0</ele><time>2026-05-01T09:09:21Z</time></trkpt><trkpt lat="44.405006132846495" lon="11.488767608849496"><ele>193.79999999999998</ele><time>2026-05-01T09:09:23Z</time></trkpt><trkpt lat="44.40503612415043" lon="11.488893691662957"><ele>193.6</ele><time>2026-05-01T09:09:25Z</time></trkpt><trkpt lat="44.40506445150311" lon="11.489025671771774"><ele>193.4</ele><time>2026-05-01T09:09:27Z</time></trkpt><trkpt lat="44.40508781518328" lon="11.489151309459743"><ele>193.2</ele><time>2026-05-01T09:09:29Z</time></trkpt><trkpt lat="44.40512238167742" lon="11.489290229079774"><ele>193.0</ele><time>2026-05-01T09:09:31Z</time></trkpt><trkpt lat="44.40510146047477" lon="11.489424923179566"><ele>193.0</ele><time>2026-05-01T09:09:33Z</time></trkpt><trkpt lat="44.405114852484374" lon="11.48955486275044"><ele>193.0</ele><time>2026-05-01T09:09:35Z</time></trkpt><trkpt lat="44.40512485067353" lon="11.489695882052468"><ele>193.0</ele><time>2026-05-01T09:09:37Z</time></trkpt><trkpt lat="44.40513007685364" lon="11.489839607725544"><ele>193.0</ele><time>2026-05-01T09:09:39Z</time></trkpt><trkpt lat="44.40513326829149" lon="11.489991638258845"><ele>193.0</ele><time>2026-05-01T09:09:41Z</time></trkpt><trkpt lat="44.40513530677971" lon="11.49015055553137"><ele>192.2</ele><time>2026-05-01T09:09:43Z</time></trkpt><trkpt lat="44.40516970384357" lon="11.49023519552952"><ele>191.4</ele><time>2026-05-01T09:09:44Z</time></trkpt><trkpt lat="44.40516599447072" lon="11.490409808166326"><ele>190.6</ele><time>2026-05-01T09:09:46Z</time></trkpt><trkpt lat="44.405166007332554" lon="11.490498463344121"><ele>189.79999999999998</ele><time>2026-05-01T09:09:47Z</time></trkpt><trkpt lat="44.405168041755424" lon="11.490678523337511"><ele>189.0</ele><time>2026-05-01T09:09:49Z</time></trkpt><trkpt lat="44.40516829504562" lon="11.490767579918359"><ele>188.57142857142858</ele><time>2026-05-01T09:09:50Z</time></trkpt><trkpt lat="44.40517029113367" lon="11.490860503477803"><ele>188.14285714285714</ele><time>2026-05-01T09:09:51Z</time></trkpt><trkpt lat="44.40517302513414" lon="11.490956003310377"><ele>187.71428571428572</ele><time>2026-05-01T09:09:52Z</time></trkpt><trkpt lat="44.40517993761922" lon="11.491054280745196"><ele>187.28571428571428</ele><time>2026-05-01T09:09:53Z</time></trkpt><trkpt lat="44.40518011042339" lon="11.491152061660733"><ele>186.85714285714286</ele><time>2026-05-01T09:09:54Z</time></trkpt><trkpt lat="44.405182740943516" lon="11.491251289970156"><ele>186.42857142857144</ele><time>2026-05-01T09:09:55Z</time></trkpt><trkpt lat="44.40518563276585" lon="11.491351205952641"><ele>186.0</ele><time>2026-05-01T09:09:56Z</time></trkpt><trkpt lat="44.405190927990404" lon="11.491452016800993"><ele>186.0</ele><time>2026-05-01T09:09:57Z</time></trkpt><trkpt lat="44.405193688993066" lon="11.49155633770106"><ele>186.0</ele><time>2026-05-01T09:09:58Z</time></trkpt><trkpt lat="44.40519441921386" lon="11.491662906907473"><ele>186.0</ele><time>2026-05-01T09:09:59Z</time></trkpt><trkpt lat="44.40519648477095" lon="11.491766395063197"><ele>186.0</ele><time>2026-05-01T09:10:00Z</time></trkpt><trkpt lat="44.405166721161436" lon="11.491876197381462"><ele>186.0</ele><time>2026-05-01T09:10:01Z</time></trkpt><trkpt lat="44.40516921307318" lon="11.491984356366103"><ele>186.0</ele><time>2026-05-01T09:10:02Z</time></trkpt><trkpt lat="44.40517174898395" lon="11.492094425085206"><ele>185.5</ele><time>2026-05-01T09:10:03Z</time></trkpt><trkpt lat="44.40517427235653" lon="11.49220394956776"><ele>185.0</ele><time>2026-05-01T09:10:04Z</time></trkpt><trkpt lat="44.40517674711874" lon="11.49231136416368"><ele>184.5</ele><time>2026-05-01T09:10:05Z</time></trkpt><trkpt lat="44.405179262270465" lon="11.49242053185644"><ele>184.0</ele><time>2026-05-01T09:10:06Z</time></trkpt><trkpt lat="44.40518166646668" lon="11.49252488360533"><ele>183.5</ele><time>2026-05-01T09:10:07Z</time></trkpt><trkpt lat="44.40518403897257" lon="11.49262785987498"><ele>183.0</ele><time>2026-05-01T09:10:08Z</time></trkpt><trkpt lat="44.405186407676986" lon="11.4927306711163"><ele>183.0</ele><time>2026-05-01T09:10:09Z</time></trkpt><trkpt lat="44.405188036300835" lon="11.492831833876652"><ele>183.0</ele><time>2026-05-01T09:10:10Z</time></trkpt><trkpt lat="44.40518882523272" lon="11.492929107788031"><ele>183.0</ele><time>2026-05-01T09:10:11Z</time></trkpt><trkpt lat="44.40518959282282" lon="11.49302375033451"><ele>183.0</ele><time>2026-05-01T09:10:12Z</time></trkpt><trkpt lat="44.40519035211341" lon="11.493117369670932"><ele>183.0</ele><time>2026-05-01T09:10:13Z</time></trkpt><trkpt lat="44.40519110689887" lon="11.493210433395742"><ele>183.0</ele><time>2026-05-01T09:10:14Z</time></trkpt><trkpt lat="44.405191863011275" lon="11.493303660738597"><ele>183.0</ele><time>2026-05-01T09:10:15Z</time></trkpt><trkpt lat="44.40519258327772" lon="11.493392468356612"><ele>182.85714285714286</ele><time>2026-05-01T09:10:16Z</time></trkpt><trkpt lat="44.405193313065695" lon="11.493482450035636"><ele>182.71428571428572</ele><time>2026-05-01T09:10:17Z</time></trkpt><trkpt lat="44.40519498108364" lon="11.493572579719071"><ele>182.57142857142856</ele><time>2026-05-01T09:10:18Z</time></trkpt><trkpt lat="44.4051969682959" lon="11.493663581791344"><ele>182.42857142857144</ele><time>2026-05-01T09:10:19Z</time></trkpt><trkpt lat="44.405199627846144" lon="11.493754181488661"><ele>182.28571428571428</ele><time>2026-05-01T09:10:20Z</time></trkpt><trkpt lat="44.40521661966941" lon="11.493842762061245"><ele>182.14285714285714</ele><time>2026-05-01T09:10:21Z</time></trkpt><trkpt lat="44.40521806482355" lon="11.4939425898095"><ele>182.0</ele><time>2026-05-01T09:10:22Z</time></trkpt><trkpt lat="44.405221613356844" lon="11.494039460018316"><ele>181.28571428571428</ele><time>2026-05-01T09:10:23Z</time></trkpt><trkpt lat="44.4052065808039" lon="11.494134183557033"><ele>180.57142857142856</ele><time>2026-05-01T09:10:24Z</time></trkpt><trkpt lat="44.4052077341443" lon="11.494234091736203"><ele>179.85714285714286</ele><time>2026-05-01T09:10:25Z</time></trkpt><trkpt lat="44.40520903562404" lon="11.494334152896574"><ele>179.14285714285714</ele><time>2026-05-01T09:10:26Z</time></trkpt><trkpt lat="44.40521092650892" lon="11.494434903184027"><ele>178.42857142857142</ele><time>2026-05-01T09:10:27Z</time></trkpt><trkpt lat="44.405213093363436" lon="11.49453909118312"><ele>177.71428571428572</ele><time>2026-05-01T09:10:28Z</time></trkpt><trkpt lat="44.405216361472746" lon="11.494644020800969"><ele>177.0</ele><time>2026-05-01T09:10:29Z</time></trkpt><trkpt lat="44.40524792845465" lon="11.494752841017489"><ele>177.0</ele><time>2026-05-01T09:10:30Z</time></trkpt><trkpt lat="44.405281772992744" lon="11.494856781563614"><ele>177.0</ele><time>2026-05-01T09:10:31Z</time></trkpt><trkpt lat="44.405343479624996" lon="11.494948892647288"><ele>177.0</ele><time>2026-05-01T09:10:32Z</time></trkpt><trkpt lat="44.405416616008154" lon="11.495031661881228"><ele>177.0</ele><time>2026-05-01T09:10:33Z</time></trkpt><trkpt lat="44.40549744236054" lon="11.49511676637883"><ele>177.0</ele><time>2026-05-01T09:10:34Z</time></trkpt><trkpt lat="44.405575000200976" lon="11.495217945340078"><ele>177.0</ele><time>2026-05-01T09:10:35Z</time></trkpt><trkpt lat="44.40565978959205" lon="11.495306230435355"><ele>177.0</ele><time>2026-05-01T09:10:36Z</time></trkpt><trkpt lat="44.40575131418197" lon="11.49539930029433"><ele>177.0</ele><time>2026-05-01T09:10:37Z</time></trkpt><trkpt lat="44.405846040680096" lon="11.495495667532635"><ele>177.0</ele><time>2026-05-01T09:10:38Z</time></trkpt><trkpt lat="44.405945115907784" lon="11.495596458823664"><ele>175.0</ele><time>2026-05-01T09:10:39Z</time></trkpt><trkpt lat="44.40604648048199" lon="11.495699579120657"><ele>173.0</ele><time>2026-05-01T09:10:40Z</time></trkpt><trkpt lat="44.40615937067103" lon="11.49581189852336"><ele>171.0</ele><time>2026-05-01T09:10:41Z</time></trkpt><trkpt lat="44.406269979019235" lon="11.495918634868167"><ele>169.0</ele><time>2026-05-01T09:10:42Z</time></trkpt><trkpt lat="44.406384599717086" lon="11.496029339436504"><ele>167.75</ele><time>2026-05-01T09:10:43Z</time></trkpt><trkpt lat="44.40649486594216" lon="11.496135838239631"><ele>166.5</ele><time>2026-05-01T09:10:44Z</time></trkpt><trkpt lat="44.40660585548561" lon="11.496240694440365"><ele>165.25</ele><time>2026-05-01T09:10:45Z</time></trkpt><trkpt lat="44.406708708923354" lon="11.496335762113791"><ele>164.0</ele><time>2026-05-01T09:10:46Z</time></trkpt><trkpt lat="44.40681032219146" lon="11.496429683490037"><ele>164.0</ele><time>2026-05-01T09:10:47Z</time></trkpt><trkpt lat="44.406908707228645" lon="11.496520621012914"><ele>164.0</ele><time>2026-05-01T09:10:48Z</time></trkpt><trkpt lat="44.40701032900326" lon="11.496614550254373"><ele>164.0</ele><time>2026-05-01T09:10:49Z</time></trkpt><trkpt lat="44.407105945277614" lon="11.496702928600953"><ele>164.0</ele><time>2026-05-01T09:10:50Z</time></trkpt><trkpt lat="44.40719706879543" lon="11.496787154277792"><ele>162.39999999999998</ele><time>2026-05-01T09:10:51Z</time></trkpt><trkpt lat="44.4072896835971" lon="11.496872758356512"><ele>160.79999999999998</ele><time>2026-05-01T09:10:52Z</time></trkpt><trkpt lat="44.40738979771387" lon="11.49694036847236"><ele>159.2</ele><time>2026-05-01T09:10:53Z</time></trkpt><trkpt lat="44.407474069030435" lon="11.49701918192014"><ele>157.6</ele><time>2026-05-01T09:10:54Z</time></trkpt><trkpt lat="44.40756269403664" lon="11.497101195112588"><ele>156.0</ele><time>2026-05-01T09:10:55Z</time></trkpt><trkpt lat="44.40763386164004" lon="11.497190882924738"><ele>155.8</ele><time>2026-05-01T09:10:56Z</time></trkpt><trkpt lat="44.40771882047939" lon="11.497269410576592"><ele>155.6</ele><time>2026-05-01T09:10:57Z</time></trkpt><trkpt lat="44.40780102754924" lon="11.497345394763062"><ele>155.4</ele><time>2026-05-01T09:10:58Z</time></trkpt><trkpt lat="44.40788118414763" lon="11.497419483696369"><ele>155.2</ele><time>2026-05-01T09:10:59Z</time></trkpt><trkpt lat="44.40795982452709" lon="11.497492171181161"><ele>155.0</ele><time>2026-05-01T09:11:00Z</time></trkpt><trkpt lat="44.408047199894376" lon="11.497547823897447"><ele>154.8</ele><time>2026-05-01T09:11:01Z</time></trkpt><trkpt lat="44.408121747408494" lon="11.497616502290677"><ele>154.6</ele><time>2026-05-01T09:11:02Z</time></trkpt><trkpt lat="44.408191454953396" lon="11.497706267725546"><ele>154.4</ele><time>2026-05-01T09:11:02.999Z</time></trkpt><trkpt lat="44.40827762287065" lon="11.497758639546937"><ele>154.2</ele><time>2026-05-01T09:11:03.999Z</time></trkpt><trkpt lat="44.40835569019673" lon="11.49783288557755"><ele>154.0</ele><time>2026-05-01T09:11:04.999Z</time></trkpt><trkpt lat="44.408430301670485" lon="11.497902487449549"><ele>153.66666666666669</ele><time>2026-05-01T09:11:05.999Z</time></trkpt><trkpt lat="44.408504320548985" lon="11.497973897024021"><ele>153.33333333333334</ele><time>2026-05-01T09:11:06.999Z</time></trkpt><trkpt lat="44.408579526216315" lon="11.498038923795669"><ele>153.0</ele><time>2026-05-01T09:11:07.999Z</time></trkpt><trkpt lat="44.40865532904087" lon="11.498112274926303"><ele>152.66666666666666</ele><time>2026-05-01T09:11:08.999Z</time></trkpt><trkpt lat="44.408726505928335" lon="11.498178355741933"><ele>152.33333333333331</ele><time>2026-05-01T09:11:09.999Z</time></trkpt><trkpt lat="44.40879637960968" lon="11.498244064977925"><ele>152.0</ele><time>2026-05-01T09:11:10.999Z</time></trkpt><trkpt lat="44.408867461293376" lon="11.498309499533285"><ele>151.33333333333331</ele><time>2026-05-01T09:11:11.999Z</time></trkpt><trkpt lat="44.408939180178784" lon="11.498378650759339"><ele>150.66666666666666</ele><time>2026-05-01T09:11:12.999Z</time></trkpt><trkpt lat="44.409009165122455" lon="11.49843981329551"><ele>150.0</ele><time>2026-05-01T09:11:13.999Z</time></trkpt><trkpt lat="44.40908702196841" lon="11.498513626773937"><ele>149.33333333333334</ele><time>2026-05-01T09:11:14.999Z</time></trkpt><trkpt lat="44.40915636889789" lon="11.498575606113858"><ele>148.66666666666669</ele><time>2026-05-01T09:11:15.999Z</time></trkpt><trkpt lat="44.40922400115973" lon="11.49864019879647"><ele>148.0</ele><time>2026-05-01T09:11:16.999Z</time></trkpt><trkpt lat="44.409288495993195" lon="11.498702149461002"><ele>147.83333333333334</ele><time>2026-05-01T09:11:17.999Z</time></trkpt><trkpt lat="44.40936516272216" lon="11.4987779144894"><ele>147.66666666666669</ele><time>2026-05-01T09:11:18.999Z</time></trkpt><trkpt lat="44.409428666408246" lon="11.498842480655828"><ele>147.5</ele><time>2026-05-01T09:11:19.999Z</time></trkpt><trkpt lat="44.409498336184804" lon="11.498905200907265"><ele>147.33333333333334</ele><time>2026-05-01T09:11:20.999Z</time></trkpt><trkpt lat="44.40956542403592" lon="11.498965446462668"><ele>147.16666666666666</ele><time>2026-05-01T09:11:21.999Z</time></trkpt><trkpt lat="44.40963044127324" lon="11.499028813167829"><ele>147.0</ele><time>2026-05-01T09:11:22.999Z</time></trkpt><trkpt lat="44.409696265279784" lon="11.499093944775348"><ele>146.66666666666666</ele><time>2026-05-01T09:11:23.999Z</time></trkpt><trkpt lat="44.409762899623274" lon="11.499154326096091"><ele>146.33333333333334</ele><time>2026-05-01T09:11:25Z</time></trkpt><trkpt lat="44.40983077455874" lon="11.499217246630522"><ele>146.0</ele><time>2026-05-01T09:11:26Z</time></trkpt><trkpt lat="44.40990070898045" lon="11.499279505209763"><ele>145.66666666666669</ele><time>2026-05-01T09:11:27Z</time></trkpt><trkpt lat="44.40996903278604" lon="11.499348988839005"><ele>145.33333333333334</ele><time>2026-05-01T09:11:28Z</time></trkpt><trkpt lat="44.41003903063863" lon="11.499412541273408"><ele>145.0</ele><time>2026-05-01T09:11:29Z</time></trkpt><trkpt lat="44.41010938243877" lon="11.499469050546836"><ele>145.0</ele><time>2026-05-01T09:11:30Z</time></trkpt><trkpt lat="44.41018259505187" lon="11.499533917137825"><ele>145.0</ele><time>2026-05-01T09:11:31Z</time></trkpt><trkpt lat="44.41025184109817" lon="11.499601342935643"><ele>145.0</ele><time>2026-05-01T09:11:32Z</time></trkpt><trkpt lat="44.410325496513586" lon="11.499668518516716"><ele>145.0</ele><time>2026-05-01T09:11:33Z</time></trkpt><trkpt lat="44.41039932416383" lon="11.499726309444346"><ele>145.0</ele><time>2026-05-01T09:11:34Z</time></trkpt><trkpt lat="44.410467341197275" lon="11.49979514488252"><ele>145.0</ele><time>2026-05-01T09:11:35Z</time></trkpt><trkpt lat="44.41053742997944" lon="11.49985701804799"><ele>143.33333333333334</ele><time>2026-05-01T09:11:36Z</time></trkpt><trkpt lat="44.41060190002858" lon="11.499939135770031"><ele>141.66666666666669</ele><time>2026-05-01T09:11:37Z</time></trkpt><trkpt lat="44.4106366963715" lon="11.50004821287372"><ele>140.0</ele><time>2026-05-01T09:11:38Z</time></trkpt><trkpt lat="44.410622039346" lon="11.500185814333486"><ele>138.33333333333334</ele><time>2026-05-01T09:11:39Z</time></trkpt><trkpt lat="44.41061117161098" lon="11.500301591938161"><ele>136.66666666666666</ele><time>2026-05-01T09:11:40Z</time></trkpt><trkpt lat="44.410601893227806" lon="11.500420497538569"><ele>135.0</ele><time>2026-05-01T09:11:41Z</time></trkpt><trkpt lat="44.410584043776126" lon="11.500550135099916"><ele>134.6</ele><time>2026-05-01T09:11:42Z</time></trkpt><trkpt lat="44.4105651176053" lon="11.500676134340454"><ele>134.2</ele><time>2026-05-01T09:11:43Z</time></trkpt><trkpt lat="44.410551947272154" lon="11.500800096865891"><ele>133.8</ele><time>2026-05-01T09:11:44Z</time></trkpt><trkpt lat="44.41053792268377" lon="11.500922311776748"><ele>133.4</ele><time>2026-05-01T09:11:45Z</time></trkpt><trkpt lat="44.41052295682648" lon="11.501053633502403"><ele>133.0</ele><time>2026-05-01T09:11:46Z</time></trkpt><trkpt lat="44.41050918302186" lon="11.501179763684267"><ele>131.8</ele><time>2026-05-01T09:11:47Z</time></trkpt><trkpt lat="44.41050556416123" lon="11.50131202891242"><ele>130.60000000000002</ele><time>2026-05-01T09:11:48Z</time></trkpt><trkpt lat="44.410529066354655" lon="11.501431851644567"><ele>129.39999999999998</ele><time>2026-05-01T09:11:49Z</time></trkpt><trkpt lat="44.41057045035071" lon="11.501554926676798"><ele>128.2</ele><time>2026-05-01T09:11:50Z</time></trkpt><trkpt lat="44.41061366277991" lon="11.50167599022786"><ele>127.0</ele><time>2026-05-01T09:11:51Z</time></trkpt><trkpt lat="44.41062684189398" lon="11.50182304693274"><ele>127.00000000000001</ele><time>2026-05-01T09:11:52Z</time></trkpt><trkpt lat="44.41063601918783" lon="11.501941593806265"><ele>127.0</ele><time>2026-05-01T09:11:53Z</time></trkpt><trkpt lat="44.41063203268564" lon="11.50204909730467"><ele>127.0</ele><time>2026-05-01T09:11:54Z</time></trkpt><trkpt lat="44.41062367953927" lon="11.502140187133374"><ele>127.0</ele><time>2026-05-01T09:11:55Z</time></trkpt><trkpt lat="44.41061316009403" lon="11.50224306524663"><ele>127.00000000000001</ele><time>2026-05-01T09:11:56Z</time></trkpt><trkpt lat="44.41060108185669" lon="11.502343861987235"><ele>127.0</ele><time>2026-05-01T09:11:57Z</time></trkpt><trkpt lat="44.41058369378058" lon="11.502485026647951"><ele>125.0</ele><time>2026-05-01T09:11:58Z</time></trkpt><trkpt lat="44.41056119121733" lon="11.502639306048847"><ele>123.0</ele><time>2026-05-01T09:11:59Z</time></trkpt><trkpt lat="44.41054576015667" lon="11.502732075092045"><ele>121.0</ele><time>2026-05-01T09:12:00Z</time></trkpt><trkpt lat="44.41043425503934" lon="11.503190794806791"><ele>118.0</ele><time>2026-05-01T09:12:01Z</time></trkpt><trkpt lat="44.41037392287691" lon="11.503362490459157"><ele>115.0</ele><time>2026-05-01T09:12:02Z</time></trkpt><trkpt lat="44.41030645142717" lon="11.503537369642741"><ele>112.0</ele><time>2026-05-01T09:12:03Z</time></trkpt><trkpt lat="44.41023715942142" lon="11.50370854011177"><ele>109.0</ele><time>2026-05-01T09:12:04Z</time></trkpt><trkpt lat="44.41016991583464" lon="11.503871516098862"><ele>107.25</ele><time>2026-05-01T09:12:05Z</time></trkpt><trkpt lat="44.41010508026659" lon="11.5040280116308"><ele>105.5</ele><time>2026-05-01T09:12:06Z</time></trkpt><trkpt lat="44.41005135257329" lon="11.504157695701627"><ele>103.75</ele><time>2026-05-01T09:12:07Z</time></trkpt><trkpt lat="44.40999600179404" lon="11.504289330543003"><ele>102.0</ele><time>2026-05-01T09:12:08Z</time></trkpt><trkpt lat="44.409936961787906" lon="11.504418126041637"><ele>102.0</ele><time>2026-05-01T09:12:09Z</time></trkpt><trkpt lat="44.40989389030295" lon="11.504532463708445"><ele>102.0</ele><time>2026-05-01T09:12:10Z</time></trkpt><trkpt lat="44.4098402047382" lon="11.504621806745552"><ele>102.0</ele><time>2026-05-01T09:12:11Z</time></trkpt><trkpt lat="44.409796770239694" lon="11.504690332079456"><ele>102.0</ele><time>2026-05-01T09:12:12Z</time></trkpt><trkpt lat="44.409742563761256" lon="11.50474432450973"><ele>102.0</ele><time>2026-05-01T09:12:13Z</time></trkpt><trkpt lat="44.40967992409437" lon="11.504804064709559"><ele>102.0</ele><time>2026-05-01T09:12:15Z</time></trkpt><trkpt lat="44.409588620727014" lon="11.504758819779902"><ele>101.6</ele><time>2026-05-01T09:12:19Z</time></trkpt><trkpt lat="44.40950141291686" lon="11.504721890188554"><ele>101.19999999999999</ele><time>2026-05-01T09:12:21Z</time></trkpt><trkpt lat="44.40942973170871" lon="11.50459696594318"><ele>100.8</ele><time>2026-05-01T09:12:23Z</time></trkpt><trkpt lat="44.409337680894886" lon="11.504495956401307"><ele>100.4</ele><time>2026-05-01T09:12:25Z</time></trkpt><trkpt lat="44.40925679214938" lon="11.504381136094668"><ele>100.0</ele><time>2026-05-01T09:12:27Z</time></trkpt><trkpt lat="44.40917932859864" lon="11.504261108946764"><ele>100.0</ele><time>2026-05-01T09:12:29Z</time></trkpt><trkpt lat="44.4090969791871" lon="11.504149022325597"><ele>100.0</ele><time>2026-05-01T09:12:31Z</time></trkpt><trkpt lat="44.40902226483883" lon="11.504036501463306"><ele>100.0</ele><time>2026-05-01T09:12:33Z</time></trkpt><trkpt lat="44.4089497665493" lon="11.503924339850512"><ele>100.0</ele><time>2026-05-01T09:12:35Z</time></trkpt><trkpt lat="44.40887235899682" lon="11.503820314402565"><ele>100.0</ele><time>2026-05-01T09:12:37Z</time></trkpt><trkpt lat="44.40879639512113" lon="11.503707839959544"><ele>100.0</ele><time>2026-05-01T09:12:39Z</time></trkpt><trkpt lat="44.4087233603773" lon="11.503597385224843"><ele>100.0</ele><time>2026-05-01T09:12:41Z</time></trkpt><trkpt lat="44.40864564035854" lon="11.503495701988937"><ele>100.0</ele><time>2026-05-01T09:12:43Z</time></trkpt><trkpt lat="44.4085804635882" lon="11.503372636089011"><ele>100.0</ele><time>2026-05-01T09:12:45Z</time></trkpt><trkpt lat="44.40850197065276" lon="11.503263309193146"><ele>100.0</ele><time>2026-05-01T09:12:47Z</time></trkpt><trkpt lat="44.40842360942587" lon="11.503159096208776"><ele>100.0</ele><time>2026-05-01T09:12:49Z</time></trkpt><trkpt lat="44.40835433345249" lon="11.503055876268808"><ele>100.0</ele><time>2026-05-01T09:12:51Z</time></trkpt><trkpt lat="44.40827822674026" lon="11.502968775410997"><ele>100.0</ele><time>2026-05-01T09:12:53Z</time></trkpt><trkpt lat="44.40821122490684" lon="11.502884833949688"><ele>100.0</ele><time>2026-05-01T09:12:55Z</time></trkpt><trkpt lat="44.408135188638276" lon="11.502832824206376"><ele>100.0</ele><time>2026-05-01T09:12:57Z</time></trkpt><trkpt lat="44.40805554181881" lon="11.502856613133858"><ele>100.00000000000001</ele><time>2026-05-01T09:12:59Z</time></trkpt><trkpt lat="44.40799432185743" lon="11.502940966596704"><ele>100.0</ele><time>2026-05-01T09:13:00.999Z</time></trkpt><trkpt lat="44.40793847086299" lon="11.50301287255344"><ele>100.0</ele><time>2026-05-01T09:13:02.999Z</time></trkpt><trkpt lat="44.407878104841565" lon="11.503085589875209"><ele>100.0</ele><time>2026-05-01T09:13:04.999Z</time></trkpt><trkpt lat="44.40782182579671" lon="11.50315700258766"><ele>100.00000000000001</ele><time>2026-05-01T09:13:06.999Z</time></trkpt><trkpt lat="44.40774715478786" lon="11.50323006794567"><ele>100.0</ele><time>2026-05-01T09:13:08.999Z</time></trkpt><trkpt lat="44.40768422405125" lon="11.503303562045021"><ele>99.8</ele><time>2026-05-01T09:13:10.999Z</time></trkpt><trkpt lat="44.40762505270169" lon="11.503387669079526"><ele>99.6</ele><time>2026-05-01T09:13:12.999Z</time></trkpt><trkpt lat="44.407564510631936" lon="11.5034702304404"><ele>99.4</ele><time>2026-05-01T09:13:14.999Z</time></trkpt><trkpt lat="44.407473718831895" lon="11.50353146650524"><ele>99.2</ele><time>2026-05-01T09:13:16.999Z</time></trkpt><trkpt lat="44.40740433864063" lon="11.503616279844897"><ele>99.0</ele><time>2026-05-01T09:13:18.999Z</time></trkpt><trkpt lat="44.40733523204269" lon="11.503697375331862"><ele>99.42857142857143</ele><time>2026-05-01T09:13:20.999Z</time></trkpt><trkpt lat="44.40726676820909" lon="11.503767778515071"><ele>99.85714285714285</ele><time>2026-05-01T09:13:22.999Z</time></trkpt><trkpt lat="44.407217370807885" lon="11.503841133538584"><ele>100.28571428571428</ele><time>2026-05-01T09:13:24.999Z</time></trkpt><trkpt lat="44.40717803270619" lon="11.50394447379347"><ele>100.71428571428572</ele><time>2026-05-01T09:13:27.999Z</time></trkpt><trkpt lat="44.40715059104189" lon="11.504034503958342"><ele>101.14285714285714</ele><time>2026-05-01T09:13:31Z</time></trkpt><trkpt lat="44.4071331529167" lon="11.50413211301186"><ele>101.57142857142857</ele><time>2026-05-01T09:13:34Z</time></trkpt><trkpt lat="44.407123543771014" lon="11.504222750666306"><ele>102.0</ele><time>2026-05-01T09:13:37Z</time></trkpt><trkpt lat="44.407116952718816" lon="11.504328479800636"><ele>102.57142857142857</ele><time>2026-05-01T09:13:41Z</time></trkpt><trkpt lat="44.40712117399989" lon="11.50444213950652"><ele>103.14285714285714</ele><time>2026-05-01T09:13:45Z</time></trkpt><trkpt lat="44.40711215204957" lon="11.504550779206115"><ele>103.71428571428572</ele><time>2026-05-01T09:13:49Z</time></trkpt><trkpt lat="44.40710629960786" lon="11.50465049493515"><ele>104.28571428571428</ele><time>2026-05-01T09:13:53Z</time></trkpt><trkpt lat="44.40710048835978" lon="11.504748242569313"><ele>104.85714285714285</ele><time>2026-05-01T09:13:57Z</time></trkpt><trkpt lat="44.40705664902117" lon="11.504839780977616"><ele>105.42857142857143</ele><time>2026-05-01T09:14:01Z</time></trkpt><trkpt lat="44.40704032835221" lon="11.504932389459091"><ele>106.0</ele><time>2026-05-01T09:14:05Z</time></trkpt><trkpt lat="44.40701520602817" lon="11.505027719219681"><ele>106.71428571428572</ele><time>2026-05-01T09:14:10Z</time></trkpt><trkpt lat="44.406996533232956" lon="11.50512434518247"><ele>107.42857142857142</ele><time>2026-05-01T09:14:15Z</time></trkpt><trkpt lat="44.406995370648026" lon="11.505232120289103"><ele>108.14285714285714</ele><time>2026-05-01T09:14:20Z</time></trkpt><trkpt lat="44.406990801412206" lon="11.505321686308465"><ele>108.85714285714286</ele><time>2026-05-01T09:14:24Z</time></trkpt><trkpt lat="44.406976091237865" lon="11.505424515242145"><ele>109.57142857142858</ele><time>2026-05-01T09:14:29Z</time></trkpt><trkpt lat="44.40697474440953" lon="11.505531385084382"><ele>110.28571428571428</ele><time>2026-05-01T09:14:34Z</time></trkpt><trkpt lat="44.406971574082796" lon="11.505628073542262"><ele>111.0</ele><time>2026-05-01T09:14:39Z</time></trkpt><trkpt lat="44.406987473116864" lon="11.505722984043455"><ele>110.57142857142857</ele><time>2026-05-01T09:14:44Z</time></trkpt><trkpt lat="44.406995207062444" lon="11.505824859928545"><ele>110.14285714285715</ele><time>2026-05-01T09:14:49Z</time></trkpt><trkpt lat="44.407048894580015" lon="11.505902138675532"><ele>109.71428571428572</ele><time>2026-05-01T09:14:55Z</time></trkpt><trkpt lat="44.4070852733427" lon="11.505974285596501"><ele>109.28571428571428</ele><time>2026-05-01T09:14:58.999Z</time></trkpt><trkpt lat="44.407114859756106" lon="11.506063208258057"><ele>108.85714285714286</ele><time>2026-05-01T09:15:03.999Z</time></trkpt><trkpt lat="44.40714138923332" lon="11.50615844968451"><ele>108.42857142857143</ele><time>2026-05-01T09:15:08.999Z</time></trkpt><trkpt lat="44.407183544870584" lon="11.506243537739564"><ele>108.0</ele><time>2026-05-01T09:15:13.999Z</time></trkpt><trkpt lat="44.40721386717656" lon="11.506322799113901"><ele>109.85714285714286</ele><time>2026-05-01T09:15:18.999Z</time></trkpt><trkpt lat="44.40725839238884" lon="11.506410935742489"><ele>111.71428571428571</ele><time>2026-05-01T09:15:23.999Z</time></trkpt><trkpt lat="44.40731339583972" lon="11.506503272134001"><ele>113.57142857142857</ele><time>2026-05-01T09:15:28.999Z</time></trkpt><trkpt lat="44.40735757899042" lon="11.506569802113537"><ele>115.42857142857142</ele><time>2026-05-01T09:15:32.999Z</time></trkpt><trkpt lat="44.407408476242914" lon="11.506648787548379"><ele>117.28571428571428</ele><time>2026-05-01T09:15:38Z</time></trkpt><trkpt lat="44.40743888341589" lon="11.506728706280882"><ele>119.14285714285714</ele><time>2026-05-01T09:15:42Z</time></trkpt><trkpt lat="44.407415261752035" lon="11.506836261189166"><ele>121.0</ele><time>2026-05-01T09:15:47Z</time></trkpt><trkpt lat="44.40735650704211" lon="11.506873599682441"><ele>121.0</ele><time>2026-05-01T09:15:51Z</time></trkpt><trkpt lat="44.40729592492388" lon="11.506836375114716"><ele>120.99999999999999</ele><time>2026-05-01T09:15:55Z</time></trkpt><trkpt lat="44.407244934526226" lon="11.506763514369439"><ele>121.0</ele><time>2026-05-01T09:16:00Z</time></trkpt><trkpt lat="44.40719170877225" lon="11.506697519680452"><ele>121.0</ele><time>2026-05-01T09:16:05Z</time></trkpt><trkpt lat="44.40713444997681" lon="11.506641238851596"><ele>120.99999999999999</ele><time>2026-05-01T09:16:10Z</time></trkpt><trkpt lat="44.40708778220657" lon="11.50656109566718"><ele>121.0</ele><time>2026-05-01T09:16:15Z</time></trkpt><trkpt lat="44.40702367842152" lon="11.5065094690884"><ele>121.0</ele><time>2026-05-01T09:16:20Z</time></trkpt><trkpt lat="44.40698478980775" lon="11.506427764292683"><ele>124.28571428571428</ele><time>2026-05-01T09:16:25Z</time></trkpt><trkpt lat="44.4069356746817" lon="11.506365138841458"><ele>127.57142857142856</ele><time>2026-05-01T09:16:30Z</time></trkpt><trkpt lat="44.40687176213085" lon="11.506323174158531"><ele>130.85714285714286</ele><time>2026-05-01T09:16:36Z</time></trkpt><trkpt lat="44.40680360995321" lon="11.506292714202429"><ele>134.14285714285714</ele><time>2026-05-01T09:16:41Z</time></trkpt><trkpt lat="44.406731949890464" lon="11.506312851926866"><ele>137.42857142857144</ele><time>2026-05-01T09:16:46Z</time></trkpt><trkpt lat="44.40665821184551" lon="11.506279534402939"><ele>140.71428571428572</ele><time>2026-05-01T09:16:51Z</time></trkpt><trkpt lat="44.406594739517985" lon="11.506286019814507"><ele>144.0</ele><time>2026-05-01T09:16:55Z</time></trkpt><trkpt lat="44.40652396357471" lon="11.506288978936935"><ele>144.00000000000003</ele><time>2026-05-01T09:16:59.999Z</time></trkpt><trkpt lat="44.40645133163217" lon="11.506269862694616"><ele>144.0</ele><time>2026-05-01T09:17:05.999Z</time></trkpt><trkpt lat="44.406386553881596" lon="11.506255386581278"><ele>144.0</ele><time>2026-05-01T09:17:10.999Z</time></trkpt><trkpt lat="44.406323827628995" lon="11.506238502289136"><ele>144.0</ele><time>2026-05-01T09:17:15.999Z</time></trkpt><trkpt lat="44.40626001542797" lon="11.506250178345539"><ele>144.0</ele><time>2026-05-01T09:17:20.999Z</time></trkpt><trkpt lat="44.40618919846304" lon="11.506242619615874"><ele>144.00000000000003</ele><time>2026-05-01T09:17:25.999Z</time></trkpt><trkpt lat="44.406123877155856" lon="11.506217260906844"><ele>144.0</ele><time>2026-05-01T09:17:30.999Z</time></trkpt><trkpt lat="44.4060535467598" lon="11.506209765289226"><ele>143.00000000000003</ele><time>2026-05-01T09:17:35.999Z</time></trkpt><trkpt lat="44.40598134546773" lon="11.506195815140446"><ele>142.0</ele><time>2026-05-01T09:17:40.999Z</time></trkpt><trkpt lat="44.40591260620745" lon="11.506181380201934"><ele>141.0</ele><time>2026-05-01T09:17:46Z</time></trkpt><trkpt lat="44.40584649090361" lon="11.506168471938247"><ele>140.0</ele><time>2026-05-01T09:17:51Z</time></trkpt><trkpt lat="44.405774139284816" lon="11.506171516657975"><ele>139.0</ele><time>2026-05-01T09:17:56Z</time></trkpt><trkpt lat="44.40570711784919" lon="11.506150264871424"><ele>138.00000000000003</ele><time>2026-05-01T09:18:01Z</time></trkpt><trkpt lat="44.40564535424256" lon="11.506132213923289"><ele>137.0</ele><time>2026-05-01T09:18:07Z</time></trkpt><trkpt lat="44.405579304535046" lon="11.50609141974632"><ele>137.00000000000003</ele><time>2026-05-01T09:18:13Z</time></trkpt><trkpt lat="44.40551598331886" lon="11.5061316753138"><ele>137.0</ele><time>2026-05-01T09:18:18Z</time></trkpt><trkpt lat="44.40547394956991" lon="11.506065743558711"><ele>137.0</ele><time>2026-05-01T09:18:22Z</time></trkpt><trkpt lat="44.40541341695706" lon="11.506105511163433"><ele>137.0</ele><time>2026-05-01T09:18:27Z</time></trkpt><trkpt lat="44.405368624617445" lon="11.506040666637805"><ele>137.0</ele><time>2026-05-01T09:18:31Z</time></trkpt><trkpt lat="44.405303197047274" lon="11.506062597796685"><ele>137.00000000000003</ele><time>2026-05-01T09:18:36Z</time></trkpt><trkpt lat="44.40524115121931" lon="11.50602030410806"><ele>137.0</ele><time>2026-05-01T09:18:41Z</time></trkpt><trkpt lat="44.40517321551877" lon="11.506029015645787"><ele>139.57142857142858</ele><time>2026-05-01T09:18:46Z</time></trkpt><trkpt lat="44.405118220750836" lon="11.505981259404109"><ele>142.14285714285714</ele><time>2026-05-01T09:18:51Z</time></trkpt><trkpt lat="44.40505491912903" lon="11.50597722038035"><ele>144.71428571428572</ele><time>2026-05-01T09:18:56Z</time></trkpt><trkpt lat="44.40498741592578" lon="11.506003116375396"><ele>147.28571428571428</ele><time>2026-05-01T09:19:01Z</time></trkpt><trkpt lat="44.4049242962965" lon="11.50595599817286"><ele>149.85714285714286</ele><time>2026-05-01T09:19:05Z</time></trkpt><trkpt lat="44.40485604042455" lon="11.505956686576548"><ele>152.42857142857144</ele><time>2026-05-01T09:19:10Z</time></trkpt><trkpt lat="44.40479295044204" lon="11.505958865011326"><ele>155.0</ele><time>2026-05-01T09:19:14.999Z</time></trkpt><trkpt lat="44.40472274997108" lon="11.505977979946795"><ele>156.0</ele><time>2026-05-01T09:19:19.999Z</time></trkpt><trkpt lat="44.40465727408058" lon="11.505988146736282"><ele>157.0</ele><time>2026-05-01T09:19:23.999Z</time></trkpt><trkpt lat="44.40458683678541" lon="11.506011341016661"><ele>158.0</ele><time>2026-05-01T09:19:28.999Z</time></trkpt><trkpt lat="44.40451993714344" lon="11.506058618119258"><ele>159.0</ele><time>2026-05-01T09:19:33.999Z</time></trkpt><trkpt lat="44.40445135863948" lon="11.506085007171404"><ele>160.0</ele><time>2026-05-01T09:19:37.999Z</time></trkpt><trkpt lat="44.40437350969186" lon="11.506107389450468"><ele>161.0</ele><time>2026-05-01T09:19:42.999Z</time></trkpt><trkpt lat="44.404299398150535" lon="11.50613480786959"><ele>162.0</ele><time>2026-05-01T09:19:47.999Z</time></trkpt><trkpt lat="44.40423371857584" lon="11.506140578323118"><ele>162.0</ele><time>2026-05-01T09:19:52Z</time></trkpt><trkpt lat="44.404155360237475" lon="11.506126256278137"><ele>162.0</ele><time>2026-05-01T09:19:57Z</time></trkpt><trkpt lat="44.40408678076559" lon="11.506171824310417"><ele>162.0</ele><time>2026-05-01T09:20:03Z</time></trkpt><trkpt lat="44.40402097023658" lon="11.506152204917639"><ele>162.0</ele><time>2026-05-01T09:20:07Z</time></trkpt><trkpt lat="44.40397037899331" lon="11.506084116212774"><ele>162.0</ele><time>2026-05-01T09:20:11Z</time></trkpt><trkpt lat="44.40390855742676" lon="11.506040130154927"><ele>162.0</ele><time>2026-05-01T09:20:16Z</time></trkpt><trkpt lat="44.40383503837156" lon="11.506000894908691"><ele>162.0</ele><time>2026-05-01T09:20:21Z</time></trkpt><trkpt lat="44.40376197328287" lon="11.505974830088194"><ele>163.0</ele><time>2026-05-01T09:20:26Z</time></trkpt><trkpt lat="44.403693572620654" lon="11.505947529371786"><ele>164.0</ele><time>2026-05-01T09:20:30Z</time></trkpt><trkpt lat="44.40361982473984" lon="11.505942237587396"><ele>165.0</ele><time>2026-05-01T09:20:34Z</time></trkpt><trkpt lat="44.40354589734937" lon="11.505912516088642"><ele>166.0</ele><time>2026-05-01T09:20:39Z</time></trkpt><trkpt lat="44.40348379211798" lon="11.505861684059656"><ele>167.0</ele><time>2026-05-01T09:20:43Z</time></trkpt><trkpt lat="44.40341306621101" lon="11.505829458755638"><ele>168.0</ele><time>2026-05-01T09:20:47Z</time></trkpt><trkpt lat="44.40335428436487" lon="11.505782046537062"><ele>169.0</ele><time>2026-05-01T09:20:51Z</time></trkpt><trkpt lat="44.403291740448964" lon="11.505731668218097"><ele>169.0</ele><time>2026-05-01T09:20:55Z</time></trkpt><trkpt lat="44.40322135798695" lon="11.505694780910831"><ele>169.0</ele><time>2026-05-01T09:20:59Z</time></trkpt><trkpt lat="44.40314368048792" lon="11.505682187163497"><ele>169.0</ele><time>2026-05-01T09:21:03Z</time></trkpt><trkpt lat="44.40307067889489" lon="11.505689995704698"><ele>169.0</ele><time>2026-05-01T09:21:06.999Z</time></trkpt><trkpt lat="44.40299777652129" lon="11.50570375902924"><ele>169.0</ele><time>2026-05-01T09:21:10.999Z</time></trkpt><trkpt lat="44.40292815556533" lon="11.505723214413601"><ele>169.0</ele><time>2026-05-01T09:21:14.999Z</time></trkpt><trkpt lat="44.402864763429605" lon="11.50574767864741"><ele>169.0</ele><time>2026-05-01T09:21:18.999Z</time></trkpt><trkpt lat="44.402800315056986" lon="11.505779115115928"><ele>170.14285714285714</ele><time>2026-05-01T09:21:23.999Z</time></trkpt><trkpt lat="44.40273735885705" lon="11.505805414930842"><ele>171.28571428571428</ele><time>2026-05-01T09:21:27.999Z</time></trkpt><trkpt lat="44.402673880118925" lon="11.505828452343948"><ele>172.42857142857144</ele><time>2026-05-01T09:21:32.999Z</time></trkpt><trkpt lat="44.40260225744652" lon="11.505853139329615"><ele>173.57142857142856</ele><time>2026-05-01T09:21:38.999Z</time></trkpt><trkpt lat="44.40253406423283" lon="11.505888982127606"><ele>174.7142857142857</ele><time>2026-05-01T09:21:44.999Z</time></trkpt><trkpt lat="44.402469539999856" lon="11.505906695360705"><ele>175.85714285714286</ele><time>2026-05-01T09:21:49.999Z</time></trkpt><trkpt lat="44.402406955696016" lon="11.505930911060041"><ele>177.0</ele><time>2026-05-01T09:21:55Z</time></trkpt><trkpt lat="44.402341398480424" lon="11.505962783052222"><ele>177.0</ele><time>2026-05-01T09:22:00Z</time></trkpt><trkpt lat="44.402272333577066" lon="11.506007732981052"><ele>177.0</ele><time>2026-05-01T09:22:05Z</time></trkpt><trkpt lat="44.40220930060876" lon="11.506023832110774"><ele>177.0</ele><time>2026-05-01T09:22:09Z</time></trkpt><trkpt lat="44.4021426304836" lon="11.506058348029068"><ele>177.0</ele><time>2026-05-01T09:22:14Z</time></trkpt><trkpt lat="44.40208181016789" lon="11.506107015017117"><ele>177.0</ele><time>2026-05-01T09:22:19Z</time></trkpt><trkpt lat="44.40202048518931" lon="11.50614972695188"><ele>177.0</ele><time>2026-05-01T09:22:24Z</time></trkpt><trkpt lat="44.401948914271856" lon="11.506183075201136"><ele>177.0</ele><time>2026-05-01T09:22:30Z</time></trkpt><trkpt lat="44.40188626026059" lon="11.506240430631673"><ele>179.42857142857144</ele><time>2026-05-01T09:22:36Z</time></trkpt><trkpt lat="44.40183238965566" lon="11.506297508764687"><ele>181.85714285714283</ele><time>2026-05-01T09:22:42Z</time></trkpt><trkpt lat="44.401771282094714" lon="11.506350362927828"><ele>184.28571428571428</ele><time>2026-05-01T09:22:48Z</time></trkpt><trkpt lat="44.40172709539895" lon="11.506419460243812"><ele>186.71428571428572</ele><time>2026-05-01T09:22:53Z</time></trkpt><trkpt lat="44.4016673596552" lon="11.506476067064256"><ele>189.14285714285717</ele><time>2026-05-01T09:22:58Z</time></trkpt><trkpt lat="44.40161566092882" lon="11.506550773392602"><ele>191.57142857142856</ele><time>2026-05-01T09:23:03Z</time></trkpt><trkpt lat="44.4015742736373" lon="11.50664089106243"><ele>194.0</ele><time>2026-05-01T09:23:08Z</time></trkpt><trkpt lat="44.4015160872524" lon="11.506707811920126"><ele>194.0</ele><time>2026-05-01T09:23:12.999Z</time></trkpt><trkpt lat="44.40146897451743" lon="11.50677113077401"><ele>194.0</ele><time>2026-05-01T09:23:16.999Z</time></trkpt><trkpt lat="44.40141824561284" lon="11.506839967439497"><ele>194.0</ele><time>2026-05-01T09:23:20.999Z</time></trkpt><trkpt lat="44.40138367540702" lon="11.50692333200474"><ele>194.0</ele><time>2026-05-01T09:23:24.999Z</time></trkpt><trkpt lat="44.40133557182644" lon="11.507000681071379"><ele>194.0</ele><time>2026-05-01T09:23:28.999Z</time></trkpt><trkpt lat="44.40129978241717" lon="11.507092115392"><ele>194.0</ele><time>2026-05-01T09:23:32.999Z</time></trkpt><trkpt lat="44.40124938225444" lon="11.507180472737637"><ele>194.0</ele><time>2026-05-01T09:23:36.999Z</time></trkpt><trkpt lat="44.401200358835226" lon="11.507268866299688"><ele>193.57142857142856</ele><time>2026-05-01T09:23:40.999Z</time></trkpt><trkpt lat="44.40117006843894" lon="11.507347643831551"><ele>193.14285714285717</ele><time>2026-05-01T09:23:43.999Z</time></trkpt><trkpt lat="44.4011216379147" lon="11.507421380216053"><ele>192.71428571428572</ele><time>2026-05-01T09:23:46.999Z</time></trkpt><trkpt lat="44.40108177380151" lon="11.507511435655276"><ele>192.28571428571428</ele><time>2026-05-01T09:23:49.999Z</time></trkpt><trkpt lat="44.40103347367697" lon="11.507587864457573"><ele>191.85714285714283</ele><time>2026-05-01T09:23:52.999Z</time></trkpt><trkpt lat="44.40099469767018" lon="11.507678194593344"><ele>191.42857142857144</ele><time>2026-05-01T09:23:55.999Z</time></trkpt><trkpt lat="44.40094808238517" lon="11.507766223623937"><ele>191.0</ele><time>2026-05-01T09:23:58.999Z</time></trkpt><trkpt lat="44.400901144693066" lon="11.507857736705827"><ele>193.33333333333331</ele><time>2026-05-01T09:24:02Z</time></trkpt><trkpt lat="44.40086118851162" lon="11.507950120188786"><ele>195.66666666666666</ele><time>2026-05-01T09:24:05Z</time></trkpt><trkpt lat="44.40082212991745" lon="11.508036845006961"><ele>198.0</ele><time>2026-05-01T09:24:08Z</time></trkpt><trkpt lat="44.400764264166106" lon="11.508110976186382"><ele>200.33333333333331</ele><time>2026-05-01T09:24:11Z</time></trkpt><trkpt lat="44.400720816595744" lon="11.508190819489316"><ele>202.66666666666666</ele><time>2026-05-01T09:24:14Z</time></trkpt><trkpt lat="44.40067528931003" lon="11.50827360254294"><ele>205.0</ele><time>2026-05-01T09:24:17Z</time></trkpt><trkpt lat="44.40062362278946" lon="11.508353599801008"><ele>204.99999999999997</ele><time>2026-05-01T09:24:20Z</time></trkpt><trkpt lat="44.40056589219047" lon="11.508436245667435"><ele>205.0</ele><time>2026-05-01T09:24:23Z</time></trkpt><trkpt lat="44.40051320803614" lon="11.508486330057186"><ele>205.0</ele><time>2026-05-01T09:24:25Z</time></trkpt><trkpt lat="44.4004476400649" lon="11.508522431512187"><ele>205.0</ele><time>2026-05-01T09:24:27Z</time></trkpt><trkpt lat="44.400374862766874" lon="11.508562881376355"><ele>204.99999999999997</ele><time>2026-05-01T09:24:29Z</time></trkpt><trkpt lat="44.40028721185714" lon="11.50859478273561"><ele>205.0</ele><time>2026-05-01T09:24:31Z</time></trkpt><trkpt lat="44.400212531516964" lon="11.50863451173016"><ele>203.57142857142858</ele><time>2026-05-01T09:24:33Z</time></trkpt><trkpt lat="44.4001497341178" lon="11.508668751049704"><ele>202.14285714285714</ele><time>2026-05-01T09:24:35Z</time></trkpt><trkpt lat="44.400084998570485" lon="11.508706092102845"><ele>200.71428571428572</ele><time>2026-05-01T09:24:37Z</time></trkpt><trkpt lat="44.40002055424387" lon="11.50873928119924"><ele>199.28571428571428</ele><time>2026-05-01T09:24:39Z</time></trkpt><trkpt lat="44.3999498588254" lon="11.508772699162316"><ele>197.85714285714283</ele><time>2026-05-01T09:24:41Z</time></trkpt><trkpt lat="44.399881860512075" lon="11.508812174281417"><ele>196.42857142857142</ele><time>2026-05-01T09:24:43Z</time></trkpt><trkpt lat="44.399805432149705" lon="11.508849508931197"><ele>195.0</ele><time>2026-05-01T09:24:45Z</time></trkpt><trkpt lat="44.39973995939895" lon="11.508903419387273"><ele>195.0</ele><time>2026-05-01T09:24:47Z</time></trkpt><trkpt lat="44.3996695359803" lon="11.508936262044774"><ele>195.0</ele><time>2026-05-01T09:24:49Z</time></trkpt><trkpt lat="44.399597967253094" lon="11.508969033338996"><ele>195.0</ele><time>2026-05-01T09:24:51Z</time></trkpt><trkpt lat="44.399528777821736" lon="11.508990955604386"><ele>195.0</ele><time>2026-05-01T09:24:53Z</time></trkpt><trkpt lat="44.39946184421579" lon="11.509021423031259"><ele>195.0</ele><time>2026-05-01T09:24:55Z</time></trkpt><trkpt lat="44.399380935433705" lon="11.509054668161017"><ele>195.0</ele><time>2026-05-01T09:24:58Z</time></trkpt><trkpt lat="44.39931296399132" lon="11.509103094343011"><ele>194.83333333333334</ele><time>2026-05-01T09:25:01Z</time></trkpt><trkpt lat="44.39924885299373" lon="11.509128746198973"><ele>194.66666666666669</ele><time>2026-05-01T09:25:03Z</time></trkpt><trkpt lat="44.3991687087479" lon="11.509177067542094"><ele>194.5</ele><time>2026-05-01T09:25:06Z</time></trkpt><trkpt lat="44.39910897065592" lon="11.509226435709738"><ele>194.33333333333334</ele><time>2026-05-01T09:25:08Z</time></trkpt><trkpt lat="44.39902082705287" lon="11.509265776495363"><ele>194.16666666666669</ele><time>2026-05-01T09:25:11Z</time></trkpt><trkpt lat="44.39895820402108" lon="11.509288485020459"><ele>194.0</ele><time>2026-05-01T09:25:13Z</time></trkpt><trkpt lat="44.3988904660566" lon="11.509317227629639"><ele>193.85714285714286</ele><time>2026-05-01T09:25:16Z</time></trkpt><trkpt lat="44.398829174186176" lon="11.509364112918792"><ele>193.71428571428572</ele><time>2026-05-01T09:25:17.999Z</time></trkpt><trkpt lat="44.398764928900725" lon="11.509395644238747"><ele>193.57142857142858</ele><time>2026-05-01T09:25:19.999Z</time></trkpt><trkpt lat="44.398699614246105" lon="11.50941501110995"><ele>193.42857142857144</ele><time>2026-05-01T09:25:21.999Z</time></trkpt><trkpt lat="44.398630547844455" lon="11.50944051179463"><ele>193.28571428571428</ele><time>2026-05-01T09:25:23.999Z</time></trkpt><trkpt lat="44.3985313609484" lon="11.509472345713885"><ele>193.14285714285717</ele><time>2026-05-01T09:25:26.999Z</time></trkpt><trkpt lat="44.39847227891499" lon="11.509507209963887"><ele>193.0</ele><time>2026-05-01T09:25:28.999Z</time></trkpt><trkpt lat="44.398408384463806" lon="11.509529013112243"><ele>192.99999999999997</ele><time>2026-05-01T09:25:30.999Z</time></trkpt><trkpt lat="44.39833770960903" lon="11.50956619345632"><ele>193.0</ele><time>2026-05-01T09:25:33.999Z</time></trkpt><trkpt lat="44.39826973650004" lon="11.509618559243043"><ele>193.0</ele><time>2026-05-01T09:25:36.999Z</time></trkpt><trkpt lat="44.39819929533791" lon="11.509662442078191"><ele>193.0</ele><time>2026-05-01T09:25:39.999Z</time></trkpt><trkpt lat="44.39815195180643" lon="11.509735036244715"><ele>192.99999999999997</ele><time>2026-05-01T09:25:43.999Z</time></trkpt><trkpt lat="44.398093097373355" lon="11.509786867155128"><ele>193.0</ele><time>2026-05-01T09:25:47.999Z</time></trkpt><trkpt lat="44.39802498809016" lon="11.509847918507855"><ele>194.00000000000003</ele><time>2026-05-01T09:25:51.999Z</time></trkpt><trkpt lat="44.39798593341771" lon="11.509928418353514"><ele>195.0</ele><time>2026-05-01T09:25:55.999Z</time></trkpt><trkpt lat="44.397924621217044" lon="11.509997656254956"><ele>196.0</ele><time>2026-05-01T09:25:59.999Z</time></trkpt><trkpt lat="44.397864236067974" lon="11.510052495395822"><ele>197.0</ele><time>2026-05-01T09:26:03.999Z</time></trkpt><trkpt lat="44.397804611134035" lon="11.510120431299075"><ele>198.0</ele><time>2026-05-01T09:26:08Z</time></trkpt><trkpt lat="44.39775271348786" lon="11.510194729155913"><ele>199.00000000000003</ele><time>2026-05-01T09:26:12Z</time></trkpt><trkpt lat="44.39770410982542" lon="11.510264540966029"><ele>200.0</ele><time>2026-05-01T09:26:16Z</time></trkpt><trkpt lat="44.397649306777375" lon="11.510327664255701"><ele>200.00000000000003</ele><time>2026-05-01T09:26:20Z</time></trkpt><trkpt lat="44.397595211389586" lon="11.510391718484742"><ele>200.0</ele><time>2026-05-01T09:26:24Z</time></trkpt><trkpt lat="44.39753450059396" lon="11.510462526977863"><ele>200.0</ele><time>2026-05-01T09:26:28Z</time></trkpt><trkpt lat="44.39746926613883" lon="11.510536534922888"><ele>200.0</ele><time>2026-05-01T09:26:32Z</time></trkpt><trkpt lat="44.3974148501301" lon="11.51061345423917"><ele>200.0</ele><time>2026-05-01T09:26:36Z</time></trkpt><trkpt lat="44.3973637178992" lon="11.510672778058009"><ele>200.00000000000003</ele><time>2026-05-01T09:26:39Z</time></trkpt><trkpt lat="44.397318925665004" lon="11.510736524305504"><ele>200.0</ele><time>2026-05-01T09:26:42Z</time></trkpt><trkpt lat="44.397273272785526" lon="11.51079726994071"><ele>200.2857142857143</ele><time>2026-05-01T09:26:45Z</time></trkpt><trkpt lat="44.397223811475264" lon="11.510861159670368"><ele>200.57142857142858</ele><time>2026-05-01T09:26:48Z</time></trkpt><trkpt lat="44.39717355444942" lon="11.510925502331185"><ele>200.85714285714286</ele><time>2026-05-01T09:26:51Z</time></trkpt><trkpt lat="44.39712219544667" lon="11.51097891064264"><ele>201.14285714285717</ele><time>2026-05-01T09:26:54Z</time></trkpt><trkpt lat="44.397078141157635" lon="11.51104765042566"><ele>201.42857142857142</ele><time>2026-05-01T09:26:57Z</time></trkpt><trkpt lat="44.39701453021781" lon="11.511126854921102"><ele>201.71428571428572</ele><time>2026-05-01T09:27:01Z</time></trkpt><trkpt lat="44.39696028468546" lon="11.511181116794695"><ele>202.0</ele><time>2026-05-01T09:27:04Z</time></trkpt><trkpt lat="44.39690907834029" lon="11.51123784009241"><ele>203.14285714285714</ele><time>2026-05-01T09:27:07Z</time></trkpt><trkpt lat="44.39685641956592" lon="11.511293488084126"><ele>204.28571428571428</ele><time>2026-05-01T09:27:10Z</time></trkpt><trkpt lat="44.39680222494664" lon="11.51133854363635"><ele>205.42857142857144</ele><time>2026-05-01T09:27:13Z</time></trkpt><trkpt lat="44.39673688363104" lon="11.511380846716946"><ele>206.57142857142856</ele><time>2026-05-01T09:27:16Z</time></trkpt><trkpt lat="44.39667135621142" lon="11.511398503783859"><ele>207.71428571428572</ele><time>2026-05-01T09:27:19Z</time></trkpt><trkpt lat="44.39661141205883" lon="11.511438023010465"><ele>208.85714285714286</ele><time>2026-05-01T09:27:22Z</time></trkpt><trkpt lat="44.39654702320796" lon="11.511456378606042"><ele>210.0</ele><time>2026-05-01T09:27:25Z</time></trkpt><trkpt lat="44.39647587215302" lon="11.511476670817705"><ele>210.0</ele><time>2026-05-01T09:27:28Z</time></trkpt><trkpt lat="44.396399900490934" lon="11.511514478853064"><ele>210.0</ele><time>2026-05-01T09:27:30.999Z</time></trkpt><trkpt lat="44.396325748859724" lon="11.511504848608832"><ele>210.0</ele><time>2026-05-01T09:27:33.999Z</time></trkpt><trkpt lat="44.39625235313108" lon="11.511517126767112"><ele>210.0</ele><time>2026-05-01T09:27:36.999Z</time></trkpt><trkpt lat="44.39618286935753" lon="11.51152750097355"><ele>210.0</ele><time>2026-05-01T09:27:39.999Z</time></trkpt><trkpt lat="44.396117075847414" lon="11.51154121225"><ele>210.0</ele><time>2026-05-01T09:27:42.999Z</time></trkpt><trkpt lat="44.396046967761066" lon="11.511558342487758"><ele>210.0</ele><time>2026-05-01T09:27:45.999Z</time></trkpt><trkpt lat="44.39596536191213" lon="11.51157382687779"><ele>210.28571428571428</ele><time>2026-05-01T09:27:49.999Z</time></trkpt><trkpt lat="44.395895971064874" lon="11.51157339474145"><ele>210.57142857142856</ele><time>2026-05-01T09:27:52.999Z</time></trkpt><trkpt lat="44.395833487998374" lon="11.51159439682602"><ele>210.85714285714286</ele><time>2026-05-01T09:27:55.999Z</time></trkpt><trkpt lat="44.395751307638875" lon="11.511616251896227"><ele>211.14285714285714</ele><time>2026-05-01T09:27:59.999Z</time></trkpt><trkpt lat="44.39568553379921" lon="11.511646886034782"><ele>211.42857142857142</ele><time>2026-05-01T09:28:02.999Z</time></trkpt><trkpt lat="44.3956209055475" lon="11.511666200466662"><ele>211.71428571428572</ele><time>2026-05-01T09:28:05.999Z</time></trkpt><trkpt lat="44.39554697971462" lon="11.511701774957745"><ele>212.0</ele><time>2026-05-01T09:28:08.999Z</time></trkpt><trkpt lat="44.39548223836847" lon="11.511731354106235"><ele>212.00000000000003</ele><time>2026-05-01T09:28:11.999Z</time></trkpt><trkpt lat="44.395415569195976" lon="11.511762525655946"><ele>212.0</ele><time>2026-05-01T09:28:15Z</time></trkpt><trkpt lat="44.39533376583465" lon="11.511800666103161"><ele>212.0</ele><time>2026-05-01T09:28:18Z</time></trkpt><trkpt lat="44.39526764080823" lon="11.511825555118854"><ele>212.0</ele><time>2026-05-01T09:28:20Z</time></trkpt><trkpt lat="44.3951936412687" lon="11.511852999260896"><ele>212.00000000000003</ele><time>2026-05-01T09:28:22Z</time></trkpt><trkpt lat="44.39511165585045" lon="11.511874413411066"><ele>212.0</ele><time>2026-05-01T09:28:24Z</time></trkpt><trkpt lat="44.39502513978762" lon="11.511889216500938"><ele>212.0</ele><time>2026-05-01T09:28:26Z</time></trkpt><trkpt lat="44.3949348980822" lon="11.51189100201764"><ele>212.0</ele><time>2026-05-01T09:28:28Z</time></trkpt><trkpt lat="44.39484569953999" lon="11.511890264102144"><ele>212.0</ele><time>2026-05-01T09:28:30Z</time></trkpt><trkpt lat="44.39474909981755" lon="11.511878698336751"><ele>212.0</ele><time>2026-05-01T09:28:32Z</time></trkpt><trkpt lat="44.39465486861248" lon="11.511860871955532"><ele>212.0</ele><time>2026-05-01T09:28:34Z</time></trkpt><trkpt lat="44.394562634403094" lon="11.511854685504225"><ele>211.8</ele><time>2026-05-01T09:28:36Z</time></trkpt><trkpt lat="44.39447330921427" lon="11.511821462490786"><ele>211.6</ele><time>2026-05-01T09:28:38Z</time></trkpt><trkpt lat="44.39438223790355" lon="11.511804125523089"><ele>211.4</ele><time>2026-05-01T09:28:40Z</time></trkpt><trkpt lat="44.39428980933071" lon="11.511792577306903"><ele>211.20000000000002</ele><time>2026-05-01T09:28:42Z</time></trkpt><trkpt lat="44.394197613596354" lon="11.51178975817297"><ele>211.0</ele><time>2026-05-01T09:28:44Z</time></trkpt><trkpt lat="44.39410610153865" lon="11.511770320217169"><ele>211.0</ele><time>2026-05-01T09:28:46Z</time></trkpt><trkpt lat="44.394014919232546" lon="11.511749332389833"><ele>211.0</ele><time>2026-05-01T09:28:48Z</time></trkpt><trkpt lat="44.39392242115274" lon="11.511720984663093"><ele>211.0</ele><time>2026-05-01T09:28:50Z</time></trkpt><trkpt lat="44.393831163507905" lon="11.511707221221949"><ele>211.0</ele><time>2026-05-01T09:28:52Z</time></trkpt><trkpt lat="44.393742607818986" lon="11.511692775689838"><ele>211.0</ele><time>2026-05-01T09:28:54Z</time></trkpt><trkpt lat="44.393657242893724" lon="11.511678669438368"><ele>210.83333333333331</ele><time>2026-05-01T09:28:56Z</time></trkpt><trkpt lat="44.39357106445398" lon="11.511662067753587"><ele>210.66666666666666</ele><time>2026-05-01T09:28:58Z</time></trkpt><trkpt lat="44.39348669837811" lon="11.511638522092"><ele>210.5</ele><time>2026-05-01T09:29:00Z</time></trkpt><trkpt lat="44.393403534219594" lon="11.511621975782056"><ele>210.33333333333331</ele><time>2026-05-01T09:29:02Z</time></trkpt><trkpt lat="44.393327691440625" lon="11.511602554121458"><ele>210.16666666666666</ele><time>2026-05-01T09:29:04Z</time></trkpt><trkpt lat="44.393250269084" lon="11.51159240769245"><ele>210.0</ele><time>2026-05-01T09:29:06Z</time></trkpt><trkpt lat="44.39316218924673" lon="11.511577284737218"><ele>210.0</ele><time>2026-05-01T09:29:08Z</time></trkpt><trkpt lat="44.39307915412127" lon="11.511564159520121"><ele>210.0</ele><time>2026-05-01T09:29:10Z</time></trkpt><trkpt lat="44.39301093629055" lon="11.511545129809903"><ele>210.0</ele><time>2026-05-01T09:29:12Z</time></trkpt><trkpt lat="44.39294372635399" lon="11.511528324840747"><ele>210.0</ele><time>2026-05-01T09:29:14Z</time></trkpt><trkpt lat="44.392869297546575" lon="11.511526285854824"><ele>210.0</ele><time>2026-05-01T09:29:16Z</time></trkpt><trkpt lat="44.39279940441327" lon="11.51151292361675"><ele>210.0</ele><time>2026-05-01T09:29:18Z</time></trkpt><trkpt lat="44.39273328232966" lon="11.511487818585898"><ele>210.0</ele><time>2026-05-01T09:29:20Z</time></trkpt><trkpt lat="44.39266931953422" lon="11.51147959011415"><ele>210.83333333333334</ele><time>2026-05-01T09:29:22Z</time></trkpt><trkpt lat="44.392586183028136" lon="11.511455789898314"><ele>211.66666666666669</ele><time>2026-05-01T09:29:25Z</time></trkpt><trkpt lat="44.39251136403428" lon="11.511453270157194"><ele>212.5</ele><time>2026-05-01T09:29:28Z</time></trkpt><trkpt lat="44.392448867113934" lon="11.5114361859573"><ele>213.33333333333334</ele><time>2026-05-01T09:29:31Z</time></trkpt><trkpt lat="44.39237612382315" lon="11.511423031055404"><ele>214.16666666666669</ele><time>2026-05-01T09:29:35Z</time></trkpt><trkpt lat="44.392294199522084" lon="11.511405861022647"><ele>215.0</ele><time>2026-05-01T09:29:39Z</time></trkpt><trkpt lat="44.39222273279827" lon="11.511397851394905"><ele>215.85714285714286</ele><time>2026-05-01T09:29:42.999Z</time></trkpt><trkpt lat="44.39215572675208" lon="11.511390383391841"><ele>216.71428571428572</ele><time>2026-05-01T09:29:46.999Z</time></trkpt><trkpt lat="44.39208760042049" lon="11.511386311316173"><ele>217.57142857142858</ele><time>2026-05-01T09:29:50.999Z</time></trkpt><trkpt lat="44.392023162150835" lon="11.511361730537038"><ele>218.42857142857144</ele><time>2026-05-01T09:29:54.999Z</time></trkpt><trkpt lat="44.391961020008786" lon="11.511347252292657"><ele>219.28571428571428</ele><time>2026-05-01T09:29:58.999Z</time></trkpt><trkpt lat="44.391894307401195" lon="11.511349327261906"><ele>220.14285714285717</ele><time>2026-05-01T09:30:02.999Z</time></trkpt><trkpt lat="44.39183068832733" lon="11.511329296024286"><ele>221.0</ele><time>2026-05-01T09:30:06.999Z</time></trkpt><trkpt lat="44.391766397868714" lon="11.51133074366891"><ele>221.00000000000003</ele><time>2026-05-01T09:30:10.999Z</time></trkpt><trkpt lat="44.39170306071074" lon="11.5113228327985"><ele>221.0</ele><time>2026-05-01T09:30:14.999Z</time></trkpt><trkpt lat="44.391639154165276" lon="11.51130726215261"><ele>221.0</ele><time>2026-05-01T09:30:19Z</time></trkpt><trkpt lat="44.39157386115405" lon="11.511285796639186"><ele>221.0</ele><time>2026-05-01T09:30:23Z</time></trkpt><trkpt lat="44.39150878300534" lon="11.511272994333787"><ele>221.0</ele><time>2026-05-01T09:30:27Z</time></trkpt><trkpt lat="44.391434097792896" lon="11.511296545906237"><ele>221.00000000000003</ele><time>2026-05-01T09:30:31Z</time></trkpt><trkpt lat="44.39136047428778" lon="11.511320250754949"><ele>221.0</ele><time>2026-05-01T09:30:35Z</time></trkpt><trkpt lat="44.39128524854125" lon="11.511345751989204"><ele>221.33333333333334</ele><time>2026-05-01T09:30:39Z</time></trkpt><trkpt lat="44.39122570783845" lon="11.511377752251231"><ele>221.66666666666669</ele><time>2026-05-01T09:30:42Z</time></trkpt><trkpt lat="44.391155879796486" lon="11.511417332154267"><ele>222.0</ele><time>2026-05-01T09:30:45Z</time></trkpt><trkpt lat="44.39107944038054" lon="11.511461155982323"><ele>222.33333333333331</ele><time>2026-05-01T09:30:48Z</time></trkpt><trkpt lat="44.39100129288829" lon="11.511536511008487"><ele>222.66666666666666</ele><time>2026-05-01T09:30:51Z</time></trkpt><trkpt lat="44.390936627182015" lon="11.511583921576124"><ele>223.0</ele><time>2026-05-01T09:30:53Z</time></trkpt><trkpt lat="44.390869812820846" lon="11.511633495832085"><ele>222.99999999999997</ele><time>2026-05-01T09:30:55Z</time></trkpt><trkpt lat="44.39080125852054" lon="11.511684771070586"><ele>223.0</ele><time>2026-05-01T09:30:57Z</time></trkpt><trkpt lat="44.39072291992582" lon="11.511717788147257"><ele>223.0</ele><time>2026-05-01T09:30:59Z</time></trkpt><trkpt lat="44.39064323515259" lon="11.511755884416097"><ele>223.0</ele><time>2026-05-01T09:31:01Z</time></trkpt><trkpt lat="44.390549855886164" lon="11.511777002157105"><ele>222.99999999999997</ele><time>2026-05-01T09:31:03Z</time></trkpt><trkpt lat="44.39046396858806" lon="11.51179384100996"><ele>223.0</ele><time>2026-05-01T09:31:05Z</time></trkpt><trkpt lat="44.39038565748976" lon="11.511818233679888"><ele>222.60000000000002</ele><time>2026-05-01T09:31:07Z</time></trkpt><trkpt lat="44.39029339908109" lon="11.511835317623234"><ele>222.20000000000002</ele><time>2026-05-01T09:31:09Z</time></trkpt><trkpt lat="44.39020483115878" lon="11.511865200888069"><ele>221.8</ele><time>2026-05-01T09:31:11Z</time></trkpt><trkpt lat="44.390114964244056" lon="11.511896718292071"><ele>221.4</ele><time>2026-05-01T09:31:13Z</time></trkpt><trkpt lat="44.390024552639744" lon="11.511929732557812"><ele>221.0</ele><time>2026-05-01T09:31:15Z</time></trkpt><trkpt lat="44.389933118343045" lon="11.51195260789962"><ele>221.00000000000003</ele><time>2026-05-01T09:31:17Z</time></trkpt><trkpt lat="44.38984419974938" lon="11.511966727587275"><ele>221.0</ele><time>2026-05-01T09:31:19Z</time></trkpt><trkpt lat="44.38976955295796" lon="11.51198045330371"><ele>221.0</ele><time>2026-05-01T09:31:21Z</time></trkpt><trkpt lat="44.38969043913811" lon="11.512013892375819"><ele>221.0</ele><time>2026-05-01T09:31:23Z</time></trkpt><trkpt lat="44.38962534560149" lon="11.512024825361815"><ele>221.00000000000003</ele><time>2026-05-01T09:31:25Z</time></trkpt><trkpt lat="44.389532420594456" lon="11.512053976743204"><ele>221.0</ele><time>2026-05-01T09:31:28Z</time></trkpt><trkpt lat="44.3894470431138" lon="11.512078272050724"><ele>222.14285714285717</ele><time>2026-05-01T09:31:31Z</time></trkpt><trkpt lat="44.38938393385493" lon="11.512093119725227"><ele>223.28571428571428</ele><time>2026-05-01T09:31:34Z</time></trkpt><trkpt lat="44.389318974773154" lon="11.512138353140617"><ele>224.42857142857144</ele><time>2026-05-01T09:31:37Z</time></trkpt><trkpt lat="44.38925138335203" lon="11.512208389106352"><ele>225.57142857142858</ele><time>2026-05-01T09:31:41Z</time></trkpt><trkpt lat="44.38917257685603" lon="11.512256682715119"><ele>226.71428571428572</ele><time>2026-05-01T09:31:44.999Z</time></trkpt><trkpt lat="44.38911419982328" lon="11.512304617021579"><ele>227.85714285714286</ele><time>2026-05-01T09:31:47.999Z</time></trkpt><trkpt lat="44.38905723301376" lon="11.51235185840043"><ele>229.0</ele><time>2026-05-01T09:31:50.999Z</time></trkpt><trkpt lat="44.388994156196645" lon="11.512405673434133"><ele>228.99999999999997</ele><time>2026-05-01T09:31:53.999Z</time></trkpt><trkpt lat="44.38892886748882" lon="11.512446837591858"><ele>229.0</ele><time>2026-05-01T09:31:57.999Z</time></trkpt><trkpt lat="44.38887008093091" lon="11.512507467816619"><ele>229.0</ele><time>2026-05-01T09:32:00.999Z</time></trkpt><trkpt lat="44.3888011472043" lon="11.512590501674207"><ele>229.0</ele><time>2026-05-01T09:32:03.999Z</time></trkpt><trkpt lat="44.38874584852737" lon="11.512634080953966"><ele>228.99999999999997</ele><time>2026-05-01T09:32:05.999Z</time></trkpt><trkpt lat="44.38867418933534" lon="11.512705251185013"><ele>229.0</ele><time>2026-05-01T09:32:08.999Z</time></trkpt><trkpt lat="44.388608162415565" lon="11.51279208026362"><ele>228.99999999999997</ele><time>2026-05-01T09:32:11.999Z</time></trkpt><trkpt lat="44.388553627716604" lon="11.512895198303575"><ele>229.0</ele><time>2026-05-01T09:32:14.999Z</time></trkpt><trkpt lat="44.38849613895548" lon="11.51300011687511"><ele>229.0</ele><time>2026-05-01T09:32:17.999Z</time></trkpt><trkpt lat="44.388468955412065" lon="11.5130832413971"><ele>229.0</ele><time>2026-05-01T09:32:19.999Z</time></trkpt><trkpt lat="44.38844011907303" lon="11.513163535083347"><ele>228.99999999999997</ele><time>2026-05-01T09:32:21.999Z</time></trkpt><trkpt lat="44.3883706642636" lon="11.513246896862743"><ele>229.0</ele><time>2026-05-01T09:32:25Z</time></trkpt><trkpt lat="44.388334921743684" lon="11.513331024290375"><ele>228.99999999999997</ele><time>2026-05-01T09:32:29Z</time></trkpt><trkpt lat="44.38835600046039" lon="11.513429374188439"><ele>229.0</ele><time>2026-05-01T09:34:47.999Z</time></trkpt><trkpt lat="44.388300685019175" lon="11.51352578883869"><ele>229.0</ele><time>2026-05-01T09:34:50.999Z</time></trkpt><trkpt lat="44.3882625160532" lon="11.513605684510816"><ele>229.0</ele><time>2026-05-01T09:34:52.999Z</time></trkpt><trkpt lat="44.38821604440728" lon="11.513689293666369"><ele>228.99999999999997</ele><time>2026-05-01T09:34:54.999Z</time></trkpt><trkpt lat="44.38816706672343" lon="11.513782345098916"><ele>229.0</ele><time>2026-05-01T09:34:56.999Z</time></trkpt><trkpt lat="44.38811941428105" lon="11.513878763667561"><ele>228.79999999999998</ele><time>2026-05-01T09:34:58.999Z</time></trkpt><trkpt lat="44.38808064362885" lon="11.513982886739106"><ele>228.59999999999997</ele><time>2026-05-01T09:35:00.999Z</time></trkpt><trkpt lat="44.38802402470702" lon="11.51408310408984"><ele>228.4</ele><time>2026-05-01T09:35:02.999Z</time></trkpt><trkpt lat="44.38797980927811" lon="11.514189547334718"><ele>228.2</ele><time>2026-05-01T09:35:04.999Z</time></trkpt><trkpt lat="44.387920226291655" lon="11.514292679596403"><ele>228.0</ele><time>2026-05-01T09:35:06.999Z</time></trkpt><trkpt lat="44.38786925366433" lon="11.514399382003969"><ele>228.2</ele><time>2026-05-01T09:35:08.999Z</time></trkpt><trkpt lat="44.38781532364771" lon="11.514506949940056"><ele>228.4</ele><time>2026-05-01T09:35:10.999Z</time></trkpt><trkpt lat="44.38776409902505" lon="11.514617842663972"><ele>228.59999999999997</ele><time>2026-05-01T09:35:12.999Z</time></trkpt><trkpt lat="44.3877074004476" lon="11.514733475606672"><ele>228.79999999999998</ele><time>2026-05-01T09:35:14.999Z</time></trkpt><trkpt lat="44.38765545583258" lon="11.514852132925242"><ele>229.0</ele><time>2026-05-01T09:35:16.999Z</time></trkpt><trkpt lat="44.38758707671292" lon="11.514969008297951"><ele>229.0</ele><time>2026-05-01T09:35:18.999Z</time></trkpt><trkpt lat="44.38752978365937" lon="11.515094477105691"><ele>228.99999999999997</ele><time>2026-05-01T09:35:20.999Z</time></trkpt><trkpt lat="44.387478210944195" lon="11.515236846787383"><ele>228.99999999999997</ele><time>2026-05-01T09:35:22.999Z</time></trkpt><trkpt lat="44.38742020321748" lon="11.51537402047636"><ele>229.0</ele><time>2026-05-01T09:35:24.999Z</time></trkpt><trkpt lat="44.38735590720811" lon="11.515504166804657"><ele>229.0</ele><time>2026-05-01T09:35:26.999Z</time></trkpt><trkpt lat="44.387277810550465" lon="11.515637872118326"><ele>228.28571428571428</ele><time>2026-05-01T09:35:28.999Z</time></trkpt><trkpt lat="44.3872425807125" lon="11.515712320043072"><ele>227.57142857142858</ele><time>2026-05-01T09:35:29.999Z</time></trkpt><trkpt lat="44.38721743199689" lon="11.51579375722303"><ele>226.85714285714286</ele><time>2026-05-01T09:35:30.999Z</time></trkpt><trkpt lat="44.38718373960864" lon="11.515870161918492"><ele>226.14285714285714</ele><time>2026-05-01T09:35:31.999Z</time></trkpt><trkpt lat="44.38714766745703" lon="11.515947504034182"><ele>225.42857142857144</ele><time>2026-05-01T09:35:32.999Z</time></trkpt><trkpt lat="44.3871118031108" lon="11.516023047954986"><ele>224.71428571428572</ele><time>2026-05-01T09:35:33.999Z</time></trkpt><trkpt lat="44.387038898465185" lon="11.516160963597265"><ele>224.0</ele><time>2026-05-01T09:35:35.999Z</time></trkpt><trkpt lat="44.387005197854386" lon="11.516236114484112"><ele>222.50000000000003</ele><time>2026-05-01T09:35:36.999Z</time></trkpt><trkpt lat="44.38694585499704" lon="11.51638634876068"><ele>221.0</ele><time>2026-05-01T09:35:38.999Z</time></trkpt><trkpt lat="44.38691014978312" lon="11.516547723442411"><ele>219.5</ele><time>2026-05-01T09:35:40.999Z</time></trkpt><trkpt lat="44.38691463523661" lon="11.516636840611609"><ele>218.0</ele><time>2026-05-01T09:35:41.999Z</time></trkpt><trkpt lat="44.38691055675528" lon="11.516731253416944"><ele>216.50000000000003</ele><time>2026-05-01T09:35:42.999Z</time></trkpt><trkpt lat="44.386933924875876" lon="11.51681386419372"><ele>215.0</ele><time>2026-05-01T09:35:43.999Z</time></trkpt><trkpt lat="44.38696234006067" lon="11.516894535520832"><ele>215.0</ele><time>2026-05-01T09:35:44.999Z</time></trkpt><trkpt lat="44.387027264477645" lon="11.51704625771419"><ele>215.0</ele><time>2026-05-01T09:35:46.999Z</time></trkpt><trkpt lat="44.387109063292755" lon="11.517173224140548"><ele>215.0</ele><time>2026-05-01T09:35:48.999Z</time></trkpt><trkpt lat="44.38717336287534" lon="11.517311758507478"><ele>215.0</ele><time>2026-05-01T09:35:50.999Z</time></trkpt><trkpt lat="44.387239503086924" lon="11.517425285616865"><ele>216.83333333333334</ele><time>2026-05-01T09:35:52.999Z</time></trkpt><trkpt lat="44.38729522868951" lon="11.517533795121368"><ele>218.66666666666669</ele><time>2026-05-01T09:35:54.999Z</time></trkpt><trkpt lat="44.38735166351287" lon="11.517634488900425"><ele>220.5</ele><time>2026-05-01T09:35:56.999Z</time></trkpt><trkpt lat="44.387399550778014" lon="11.51772962771541"><ele>222.33333333333331</ele><time>2026-05-01T09:35:58.999Z</time></trkpt><trkpt lat="44.38744678706429" lon="11.517809189683943"><ele>224.16666666666666</ele><time>2026-05-01T09:36:00.999Z</time></trkpt><trkpt lat="44.387493385964376" lon="11.51789013086803"><ele>226.0</ele><time>2026-05-01T09:36:02.999Z</time></trkpt><trkpt lat="44.38752789792026" lon="11.51796823969799"><ele>226.99999999999997</ele><time>2026-05-01T09:36:04.999Z</time></trkpt><trkpt lat="44.387568485762685" lon="11.518039249420033"><ele>228.0</ele><time>2026-05-01T09:36:06.999Z</time></trkpt><trkpt lat="44.38762202536372" lon="11.518143966552469"><ele>229.0</ele><time>2026-05-01T09:36:09.999Z</time></trkpt><trkpt lat="44.387669400485095" lon="11.518243055056026"><ele>230.0</ele><time>2026-05-01T09:36:12.999Z</time></trkpt><trkpt lat="44.38770918927139" lon="11.51834207641313"><ele>230.99999999999997</ele><time>2026-05-01T09:36:15.999Z</time></trkpt><trkpt lat="44.38775150884314" lon="11.518436892980755"><ele>232.0</ele><time>2026-05-01T09:36:18.999Z</time></trkpt><trkpt lat="44.38777166127923" lon="11.518542697698468"><ele>231.99999999999997</ele><time>2026-05-01T09:36:21.999Z</time></trkpt><trkpt lat="44.38781171371197" lon="11.518633320782335"><ele>232.0</ele><time>2026-05-01T09:36:24.999Z</time></trkpt><trkpt lat="44.38783420421289" lon="11.518742827277082"><ele>232.0</ele><time>2026-05-01T09:36:27.999Z</time></trkpt><trkpt lat="44.38786333175754" lon="11.518858534101465"><ele>232.0</ele><time>2026-05-01T09:36:30.999Z</time></trkpt><trkpt lat="44.38788498771003" lon="11.518956206403608"><ele>231.99999999999997</ele><time>2026-05-01T09:36:32.999Z</time></trkpt><trkpt lat="44.387913077348806" lon="11.519074857167771"><ele>232.0</ele><time>2026-05-01T09:36:34.999Z</time></trkpt><trkpt lat="44.387949702508394" lon="11.519207827058054"><ele>232.2</ele><time>2026-05-01T09:36:36.999Z</time></trkpt><trkpt lat="44.38800147041659" lon="11.519333174317868"><ele>232.39999999999998</ele><time>2026-05-01T09:36:38.999Z</time></trkpt><trkpt lat="44.38805813373654" lon="11.519447331079286"><ele>232.60000000000002</ele><time>2026-05-01T09:36:40.999Z</time></trkpt><trkpt lat="44.38813171608295" lon="11.519534585241104"><ele>232.8</ele><time>2026-05-01T09:36:42.999Z</time></trkpt><trkpt lat="44.38819911024361" lon="11.519613464079303"><ele>233.0</ele><time>2026-05-01T09:36:44.999Z</time></trkpt><trkpt lat="44.388259140379546" lon="11.519705335841778"><ele>233.0</ele><time>2026-05-01T09:36:46.999Z</time></trkpt><trkpt lat="44.3883014436271" lon="11.519810719642594"><ele>233.0</ele><time>2026-05-01T09:36:48.999Z</time></trkpt><trkpt lat="44.388336538146284" lon="11.519923944740276"><ele>233.0</ele><time>2026-05-01T09:36:50.999Z</time></trkpt><trkpt lat="44.388350540694006" lon="11.52004942829206"><ele>233.0</ele><time>2026-05-01T09:36:52.999Z</time></trkpt><trkpt lat="44.388350760947695" lon="11.52018993918796"><ele>233.0</ele><time>2026-05-01T09:36:54.999Z</time></trkpt><trkpt lat="44.388339163349414" lon="11.520339738600601"><ele>232.25</ele><time>2026-05-01T09:36:56.999Z</time></trkpt><trkpt lat="44.38832705777557" lon="11.520483548575939"><ele>231.5</ele><time>2026-05-01T09:36:58.999Z</time></trkpt><trkpt lat="44.38830478259315" lon="11.520644392511269"><ele>230.75</ele><time>2026-05-01T09:37:00.999Z</time></trkpt><trkpt lat="44.388299360336475" lon="11.520803481185045"><ele>230.0</ele><time>2026-05-01T09:37:02.999Z</time></trkpt><trkpt lat="44.388318050918386" lon="11.520965515058506"><ele>230.0</ele><time>2026-05-01T09:37:04.999Z</time></trkpt><trkpt lat="44.388331564495545" lon="11.521123213018038"><ele>230.0</ele><time>2026-05-01T09:37:06.999Z</time></trkpt><trkpt lat="44.388339747234674" lon="11.521288629154544"><ele>230.0</ele><time>2026-05-01T09:37:08.999Z</time></trkpt><trkpt lat="44.38833777211877" lon="11.521459301419801"><ele>230.0</ele><time>2026-05-01T09:37:10.999Z</time></trkpt><trkpt lat="44.38834735706095" lon="11.521626847332419"><ele>229.57142857142856</ele><time>2026-05-01T09:37:12.999Z</time></trkpt><trkpt lat="44.38835255251628" lon="11.521715671415452"><ele>229.14285714285714</ele><time>2026-05-01T09:37:13.999Z</time></trkpt><trkpt lat="44.388358896289525" lon="11.521811364711564"><ele>228.71428571428572</ele><time>2026-05-01T09:37:14.999Z</time></trkpt><trkpt lat="44.38836827138292" lon="11.5219119750862"><ele>228.28571428571428</ele><time>2026-05-01T09:37:15.999Z</time></trkpt><trkpt lat="44.38837910622333" lon="11.522015003333028"><ele>227.8571428571429</ele><time>2026-05-01T09:37:16.999Z</time></trkpt><trkpt lat="44.388389997270345" lon="11.522113357726719"><ele>227.42857142857144</ele><time>2026-05-01T09:37:17.999Z</time></trkpt><trkpt lat="44.38839347462146" lon="11.522224644057149"><ele>227.0</ele><time>2026-05-01T09:37:18.999Z</time></trkpt><trkpt lat="44.38841116855364" lon="11.522335265796867"><ele>226.66666666666669</ele><time>2026-05-01T09:37:19.999Z</time></trkpt><trkpt lat="44.38841811938311" lon="11.522454407411763"><ele>226.33333333333334</ele><time>2026-05-01T09:37:20.999Z</time></trkpt><trkpt lat="44.38843703220204" lon="11.522571205589424"><ele>226.0</ele><time>2026-05-01T09:37:21.999Z</time></trkpt><trkpt lat="44.388438715537404" lon="11.522693140212857"><ele>225.66666666666669</ele><time>2026-05-01T09:37:22.999Z</time></trkpt><trkpt lat="44.38845716441841" lon="11.522815233677022"><ele>225.33333333333334</ele><time>2026-05-01T09:37:23.999Z</time></trkpt><trkpt lat="44.38849110386349" lon="11.522919613747622"><ele>225.0</ele><time>2026-05-01T09:37:24.999Z</time></trkpt><trkpt lat="44.388509534292226" lon="11.523028179064237"><ele>224.2</ele><time>2026-05-01T09:37:25.999Z</time></trkpt><trkpt lat="44.38852789424646" lon="11.523129304179992"><ele>223.4</ele><time>2026-05-01T09:37:26.999Z</time></trkpt><trkpt lat="44.38852581898739" lon="11.523224557850552"><ele>222.60000000000002</ele><time>2026-05-01T09:37:27.999Z</time></trkpt><trkpt lat="44.3885515495707" lon="11.523392299827314"><ele>221.8</ele><time>2026-05-01T09:37:29.999Z</time></trkpt><trkpt lat="44.388565174334985" lon="11.52354976002548"><ele>221.0</ele><time>2026-05-01T09:37:31.999Z</time></trkpt><trkpt lat="44.38858386529114" lon="11.523696888599487"><ele>220.4</ele><time>2026-05-01T09:37:33.999Z</time></trkpt><trkpt lat="44.38859242161642" lon="11.523845178101862"><ele>219.8</ele><time>2026-05-01T09:37:35.999Z</time></trkpt><trkpt lat="44.38861438602177" lon="11.523980605662748"><ele>219.20000000000002</ele><time>2026-05-01T09:37:37.999Z</time></trkpt><trkpt lat="44.38863356511016" lon="11.524115577268956"><ele>218.60000000000002</ele><time>2026-05-01T09:37:39.999Z</time></trkpt><trkpt lat="44.3886634277389" lon="11.524232188825827"><ele>218.0</ele><time>2026-05-01T09:37:41.999Z</time></trkpt><trkpt lat="44.38868507604706" lon="11.52434043896818"><ele>218.00000000000003</ele><time>2026-05-01T09:37:43.999Z</time></trkpt><trkpt lat="44.38871218320632" lon="11.52446359443571"><ele>218.0</ele><time>2026-05-01T09:37:46.999Z</time></trkpt><trkpt lat="44.38873506291006" lon="11.52458277153083"><ele>218.0</ele><time>2026-05-01T09:37:49.999Z</time></trkpt><trkpt lat="44.388749228085466" lon="11.524695557693665"><ele>218.0</ele><time>2026-05-01T09:37:52.999Z</time></trkpt><trkpt lat="44.38877584653111" lon="11.52479787653541"><ele>218.00000000000003</ele><time>2026-05-01T09:37:55.999Z</time></trkpt><trkpt lat="44.38878106105043" lon="11.52492204438519"><ele>218.0</ele><time>2026-05-01T09:37:58.999Z</time></trkpt><trkpt lat="44.38880733845722" lon="11.525027695214611"><ele>218.83333333333334</ele><time>2026-05-01T09:38:00.999Z</time></trkpt><trkpt lat="44.38880734741484" lon="11.525162791995198"><ele>219.66666666666669</ele><time>2026-05-01T09:38:02.999Z</time></trkpt><trkpt lat="44.38882309396788" lon="11.525312562392548"><ele>220.5</ele><time>2026-05-01T09:38:04.999Z</time></trkpt><trkpt lat="44.38882772205896" lon="11.52540251400186"><ele>221.33333333333331</ele><time>2026-05-01T09:38:05.999Z</time></trkpt><trkpt lat="44.38887863129714" lon="11.525469752761992"><ele>222.16666666666666</ele><time>2026-05-01T09:38:06.999Z</time></trkpt><trkpt lat="44.388924241924386" lon="11.525539586321521"><ele>223.0</ele><time>2026-05-01T09:38:07.999Z</time></trkpt><trkpt lat="44.3889631833183" lon="11.52562546731905"><ele>223.83333333333331</ele><time>2026-05-01T09:38:08.999Z</time></trkpt><trkpt lat="44.38902392705844" lon="11.525691286438214"><ele>224.66666666666666</ele><time>2026-05-01T09:38:09.999Z</time></trkpt><trkpt lat="44.389073846564806" lon="11.52577675182814"><ele>225.5</ele><time>2026-05-01T09:38:10.999Z</time></trkpt><trkpt lat="44.38913787950509" lon="11.525861344209213"><ele>226.33333333333331</ele><time>2026-05-01T09:38:11.999Z</time></trkpt><trkpt lat="44.389203629332" lon="11.525950160851444"><ele>227.16666666666666</ele><time>2026-05-01T09:38:12.999Z</time></trkpt><trkpt lat="44.38927534386775" lon="11.5260380964344"><ele>228.0</ele><time>2026-05-01T09:38:13.999Z</time></trkpt><trkpt lat="44.389343209485574" lon="11.526136275761012"><ele>228.0</ele><time>2026-05-01T09:38:14.999Z</time></trkpt><trkpt lat="44.38941511116781" lon="11.526227642300402"><ele>228.0</ele><time>2026-05-01T09:38:15.999Z</time></trkpt><trkpt lat="44.389472662456754" lon="11.526333632555927"><ele>228.0</ele><time>2026-05-01T09:38:16.999Z</time></trkpt><trkpt lat="44.38953903099368" lon="11.526426159211676"><ele>228.0</ele><time>2026-05-01T09:38:17.999Z</time></trkpt><trkpt lat="44.38960418624275" lon="11.526516470462862"><ele>228.0</ele><time>2026-05-01T09:38:18.999Z</time></trkpt><trkpt lat="44.389678367716115" lon="11.526583825538136"><ele>228.14285714285714</ele><time>2026-05-01T09:38:19.999Z</time></trkpt><trkpt lat="44.389736479357516" lon="11.526664008209256"><ele>228.28571428571428</ele><time>2026-05-01T09:38:20.999Z</time></trkpt><trkpt lat="44.38978857279725" lon="11.526738513216191"><ele>228.42857142857142</ele><time>2026-05-01T09:38:21.999Z</time></trkpt><trkpt lat="44.389844975671245" lon="11.52681116762369"><ele>228.57142857142856</ele><time>2026-05-01T09:38:22.999Z</time></trkpt><trkpt lat="44.38989432025503" lon="11.52689522299687"><ele>228.71428571428572</ele><time>2026-05-01T09:38:23.999Z</time></trkpt><trkpt lat="44.38995134078851" lon="11.526944402828466"><ele>228.85714285714283</ele><time>2026-05-01T09:38:24.999Z</time></trkpt><trkpt lat="44.38999810372913" lon="11.527009106280547"><ele>229.0</ele><time>2026-05-01T09:38:25.999Z</time></trkpt><trkpt lat="44.39004778926862" lon="11.527068877427913"><ele>228.99999999999997</ele><time>2026-05-01T09:38:26.999Z</time></trkpt><trkpt lat="44.39009285673388" lon="11.5271499397538"><ele>229.0</ele><time>2026-05-01T09:38:27.999Z</time></trkpt><trkpt lat="44.39014126469136" lon="11.52721204581147"><ele>229.0</ele><time>2026-05-01T09:38:28.999Z</time></trkpt><trkpt lat="44.39018692141562" lon="11.52727465297846"><ele>229.0</ele><time>2026-05-01T09:38:29.999Z</time></trkpt><trkpt lat="44.39023284043375" lon="11.527338440020866"><ele>228.99999999999997</ele><time>2026-05-01T09:38:30.999Z</time></trkpt><trkpt lat="44.39028349964697" lon="11.527391620916148"><ele>229.0</ele><time>2026-05-01T09:38:31.999Z</time></trkpt><trkpt lat="44.390356991817136" lon="11.52753839008766"><ele>229.0</ele><time>2026-05-01T09:38:33.999Z</time></trkpt><trkpt lat="44.39037162529529" lon="11.527633081887334"><ele>228.99999999999997</ele><time>2026-05-01T09:38:34.999Z</time></trkpt><trkpt lat="44.39039911627477" lon="11.527724466356277"><ele>228.99999999999997</ele><time>2026-05-01T09:38:35.999Z</time></trkpt><trkpt lat="44.390423385727885" lon="11.527814676169154"><ele>229.0</ele><time>2026-05-01T09:38:36.999Z</time></trkpt><trkpt lat="44.390452702344476" lon="11.52798725989125"><ele>229.0</ele><time>2026-05-01T09:38:38.999Z</time></trkpt><trkpt lat="44.390476093115176" lon="11.528154151529323"><ele>229.39999999999998</ele><time>2026-05-01T09:38:40.999Z</time></trkpt><trkpt lat="44.390500684623476" lon="11.528326453050111"><ele>229.79999999999998</ele><time>2026-05-01T09:38:42.999Z</time></trkpt><trkpt lat="44.390528179475496" lon="11.528489512399544"><ele>230.20000000000002</ele><time>2026-05-01T09:38:44.999Z</time></trkpt><trkpt lat="44.39055028560725" lon="11.528648435664747"><ele>230.60000000000002</ele><time>2026-05-01T09:38:46.999Z</time></trkpt><trkpt lat="44.39056116645528" lon="11.528735506590523"><ele>231.0</ele><time>2026-05-01T09:38:47.999Z</time></trkpt><trkpt lat="44.39057158931478" lon="11.528825873391929"><ele>229.5</ele><time>2026-05-01T09:38:48.999Z</time></trkpt><trkpt lat="44.39058897032015" lon="11.528925831490817"><ele>228.0</ele><time>2026-05-01T09:38:49.999Z</time></trkpt><trkpt lat="44.39061147730672" lon="11.529020504538392"><ele>226.5</ele><time>2026-05-01T09:38:50.999Z</time></trkpt><trkpt lat="44.39064061899523" lon="11.529123657639468"><ele>225.0</ele><time>2026-05-01T09:38:51.999Z</time></trkpt><trkpt lat="44.3906815884876" lon="11.529233031857814"><ele>223.5</ele><time>2026-05-01T09:38:52.999Z</time></trkpt><trkpt lat="44.39072448943914" lon="11.52934914721242"><ele>222.0</ele><time>2026-05-01T09:38:53.999Z</time></trkpt><trkpt lat="44.39077760949786" lon="11.529478304412788"><ele>219.5</ele><time>2026-05-01T09:38:54.999Z</time></trkpt><trkpt lat="44.390835096613856" lon="11.52961433527949"><ele>217.0</ele><time>2026-05-01T09:38:55.999Z</time></trkpt><trkpt lat="44.390891872287014" lon="11.52976330460674"><ele>214.5</ele><time>2026-05-01T09:38:56.999Z</time></trkpt><trkpt lat="44.39094869671667" lon="11.529919034586728"><ele>212.0</ele><time>2026-05-01T09:38:57.999Z</time></trkpt><trkpt lat="44.39101225628289" lon="11.530075025383999"><ele>212.0</ele><time>2026-05-01T09:38:58.999Z</time></trkpt><trkpt lat="44.391072326302066" lon="11.53022570956018"><ele>212.0</ele><time>2026-05-01T09:38:59.999Z</time></trkpt><trkpt lat="44.391123849188006" lon="11.5303645020694"><ele>212.0</ele><time>2026-05-01T09:39:01Z</time></trkpt><trkpt lat="44.39117165508421" lon="11.530495339939593"><ele>212.0</ele><time>2026-05-01T09:39:02Z</time></trkpt><trkpt lat="44.39121023688031" lon="11.530626685516232"><ele>212.0</ele><time>2026-05-01T09:39:03Z</time></trkpt><trkpt lat="44.391214215181066" lon="11.530783140978413"><ele>210.0</ele><time>2026-05-01T09:39:04Z</time></trkpt><trkpt lat="44.391223335530476" lon="11.530947216678936"><ele>208.0</ele><time>2026-05-01T09:39:05Z</time></trkpt><trkpt lat="44.391237440691015" lon="11.531122330713135"><ele>206.0</ele><time>2026-05-01T09:39:06Z</time></trkpt><trkpt lat="44.39125326955701" lon="11.531318844496221"><ele>204.0</ele><time>2026-05-01T09:39:07Z</time></trkpt><trkpt lat="44.39126969840873" lon="11.531522807094953"><ele>201.0</ele><time>2026-05-01T09:39:08Z</time></trkpt><trkpt lat="44.3912872048067" lon="11.531733869751243"><ele>198.0</ele><time>2026-05-01T09:39:09Z</time></trkpt><trkpt lat="44.391303867756875" lon="11.531953173518323"><ele>195.0</ele><time>2026-05-01T09:39:10Z</time></trkpt><trkpt lat="44.3913212816322" lon="11.532174760534096"><ele>192.0</ele><time>2026-05-01T09:39:11Z</time></trkpt><trkpt lat="44.391339464945105" lon="11.532387674087277"><ele>189.0</ele><time>2026-05-01T09:39:12Z</time></trkpt><trkpt lat="44.391359714710546" lon="11.532584765324945"><ele>186.0</ele><time>2026-05-01T09:39:13Z</time></trkpt><trkpt lat="44.39137794225566" lon="11.532754503514816"><ele>183.0</ele><time>2026-05-01T09:39:14Z</time></trkpt><trkpt lat="44.391396476987424" lon="11.532893975326624"><ele>181.83333333333334</ele><time>2026-05-01T09:39:15Z</time></trkpt><trkpt lat="44.39140308551578" lon="11.533023583859917"><ele>180.66666666666666</ele><time>2026-05-01T09:39:16Z</time></trkpt><trkpt lat="44.39139315215181" lon="11.533152616202672"><ele>179.5</ele><time>2026-05-01T09:39:17Z</time></trkpt><trkpt lat="44.39136241448734" lon="11.533261626831532"><ele>178.33333333333331</ele><time>2026-05-01T09:39:18Z</time></trkpt><trkpt lat="44.39130435249552" lon="11.533345071621765"><ele>177.16666666666666</ele><time>2026-05-01T09:39:19Z</time></trkpt><trkpt lat="44.391235458306674" lon="11.533439577518557"><ele>176.0</ele><time>2026-05-01T09:39:20Z</time></trkpt><trkpt lat="44.39115882728463" lon="11.533552539985044"><ele>176.0</ele><time>2026-05-01T09:39:21Z</time></trkpt><trkpt lat="44.39108482159282" lon="11.533660251231892"><ele>176.0</ele><time>2026-05-01T09:39:22Z</time></trkpt><trkpt lat="44.391019712731016" lon="11.533755013634078"><ele>176.0</ele><time>2026-05-01T09:39:23Z</time></trkpt><trkpt lat="44.39095904497009" lon="11.533843312273715"><ele>176.0</ele><time>2026-05-01T09:39:24Z</time></trkpt><trkpt lat="44.390908662532304" lon="11.533920541043003"><ele>176.0</ele><time>2026-05-01T09:39:25Z</time></trkpt><trkpt lat="44.390861884713104" lon="11.533995343637189"><ele>176.0</ele><time>2026-05-01T09:39:26Z</time></trkpt><trkpt lat="44.390835338450344" lon="11.53409250522314"><ele>174.20000000000002</ele><time>2026-05-01T09:39:27Z</time></trkpt><trkpt lat="44.39078195534505" lon="11.53416556269081"><ele>172.4</ele><time>2026-05-01T09:39:28Z</time></trkpt><trkpt lat="44.390782206346444" lon="11.534304206593513"><ele>170.6</ele><time>2026-05-01T09:39:29Z</time></trkpt><trkpt lat="44.39077704787387" lon="11.534446223770718"><ele>168.8</ele><time>2026-05-01T09:39:30Z</time></trkpt><trkpt lat="44.39078309978604" lon="11.53460110392765"><ele>167.0</ele><time>2026-05-01T09:39:31Z</time></trkpt><trkpt lat="44.39079776086002" lon="11.534753072767778"><ele>165.6</ele><time>2026-05-01T09:39:32Z</time></trkpt><trkpt lat="44.39083102546682" lon="11.53489356137663"><ele>164.2</ele><time>2026-05-01T09:39:33Z</time></trkpt><trkpt lat="44.39086846484999" lon="11.535009495718278"><ele>162.8</ele><time>2026-05-01T09:39:34Z</time></trkpt><trkpt lat="44.39091791931562" lon="11.535106372940433"><ele>161.4</ele><time>2026-05-01T09:39:35Z</time></trkpt><trkpt lat="44.39100095399214" lon="11.535172944848844"><ele>160.0</ele><time>2026-05-01T09:39:36Z</time></trkpt><trkpt lat="44.39109753375444" lon="11.535211792403992"><ele>160.0</ele><time>2026-05-01T09:39:37Z</time></trkpt><trkpt lat="44.391207731822355" lon="11.535222133549683"><ele>160.0</ele><time>2026-05-01T09:39:38Z</time></trkpt><trkpt lat="44.39131337385036" lon="11.535227272760215"><ele>160.0</ele><time>2026-05-01T09:39:39Z</time></trkpt><trkpt lat="44.39142962329223" lon="11.535230259936734"><ele>160.0</ele><time>2026-05-01T09:39:40Z</time></trkpt><trkpt lat="44.39154643558343" lon="11.535231861500266"><ele>160.0</ele><time>2026-05-01T09:39:41Z</time></trkpt><trkpt lat="44.39166389891229" lon="11.535245803310955"><ele>158.5</ele><time>2026-05-01T09:39:42Z</time></trkpt><trkpt lat="44.39179130393072" lon="11.535261558188859"><ele>157.0</ele><time>2026-05-01T09:39:43Z</time></trkpt><trkpt lat="44.39192436164273" lon="11.535284899863594"><ele>155.5</ele><time>2026-05-01T09:39:44Z</time></trkpt><trkpt lat="44.39205979786169" lon="11.535300717250752"><ele>154.0</ele><time>2026-05-01T09:39:45Z</time></trkpt><trkpt lat="44.39220480794573" lon="11.535311045787179"><ele>152.0</ele><time>2026-05-01T09:39:46Z</time></trkpt><trkpt lat="44.39234175229358" lon="11.535335047573207"><ele>150.0</ele><time>2026-05-01T09:39:47Z</time></trkpt><trkpt lat="44.39248526848787" lon="11.535366801778661"><ele>148.0</ele><time>2026-05-01T09:39:48Z</time></trkpt><trkpt lat="44.39262878689628" lon="11.53539987571905"><ele>146.0</ele><time>2026-05-01T09:39:49Z</time></trkpt><trkpt lat="44.392759732734184" lon="11.535430947942563"><ele>146.0</ele><time>2026-05-01T09:39:50Z</time></trkpt><trkpt lat="44.39288827893685" lon="11.535462356035294"><ele>146.0</ele><time>2026-05-01T09:39:51Z</time></trkpt><trkpt lat="44.39299469370444" lon="11.535478114818096"><ele>146.0</ele><time>2026-05-01T09:39:52Z</time></trkpt><trkpt lat="44.393118655369555" lon="11.535498200867684"><ele>146.0</ele><time>2026-05-01T09:39:53Z</time></trkpt><trkpt lat="44.393250993908694" lon="11.535536188104487"><ele>141.75</ele><time>2026-05-01T09:39:54Z</time></trkpt><trkpt lat="44.3933777254866" lon="11.535554315342624"><ele>137.5</ele><time>2026-05-01T09:39:55Z</time></trkpt><trkpt lat="44.393522085879816" lon="11.535583867800819"><ele>133.25</ele><time>2026-05-01T09:39:56Z</time></trkpt><trkpt lat="44.39366224916018" lon="11.535608658830403"><ele>129.0</ele><time>2026-05-01T09:39:57Z</time></trkpt><trkpt lat="44.39380235584608" lon="11.535632656939686"><ele>124.75</ele><time>2026-05-01T09:39:58Z</time></trkpt><trkpt lat="44.39392324273302" lon="11.535643201814828"><ele>120.5</ele><time>2026-05-01T09:39:59Z</time></trkpt><trkpt lat="44.39403728959742" lon="11.53566862679388"><ele>116.25</ele><time>2026-05-01T09:40:00Z</time></trkpt><trkpt lat="44.39416776976307" lon="11.535683049941268"><ele>112.0</ele><time>2026-05-01T09:40:01Z</time></trkpt><trkpt lat="44.39428526666202" lon="11.53568367407604"><ele>112.0</ele><time>2026-05-01T09:40:02Z</time></trkpt><trkpt lat="44.39441725787275" lon="11.535687117781986"><ele>112.0</ele><time>2026-05-01T09:40:03Z</time></trkpt><trkpt lat="44.39454727153748" lon="11.53569865691634"><ele>112.0</ele><time>2026-05-01T09:40:04Z</time></trkpt><trkpt lat="44.394662201552165" lon="11.535706452343817"><ele>112.0</ele><time>2026-05-01T09:40:05Z</time></trkpt><trkpt lat="44.39477641310627" lon="11.535712104044073"><ele>110.25</ele><time>2026-05-01T09:40:06Z</time></trkpt><trkpt lat="44.394895052652885" lon="11.535699355092738"><ele>108.5</ele><time>2026-05-01T09:40:07Z</time></trkpt><trkpt lat="44.395037590995976" lon="11.535704800299216"><ele>106.75</ele><time>2026-05-01T09:40:08Z</time></trkpt><trkpt lat="44.395155162833525" lon="11.535617314180298"><ele>105.0</ele><time>2026-05-01T09:40:09Z</time></trkpt><trkpt lat="44.39527404276747" lon="11.53555523053133"><ele>105.0</ele><time>2026-05-01T09:40:10Z</time></trkpt><trkpt lat="44.39537899122542" lon="11.535459319200262"><ele>105.0</ele><time>2026-05-01T09:40:11Z</time></trkpt><trkpt lat="44.395479680255605" lon="11.53537629373847"><ele>105.0</ele><time>2026-05-01T09:40:12Z</time></trkpt><trkpt lat="44.39557422124873" lon="11.535295098324005"><ele>105.0</ele><time>2026-05-01T09:40:13Z</time></trkpt><trkpt lat="44.39566516672478" lon="11.535212262425105"><ele>105.2</ele><time>2026-05-01T09:40:14Z</time></trkpt><trkpt lat="44.395747225818646" lon="11.53513117666967"><ele>105.4</ele><time>2026-05-01T09:40:15Z</time></trkpt><trkpt lat="44.395821120345765" lon="11.535039072507667"><ele>105.6</ele><time>2026-05-01T09:40:16Z</time></trkpt><trkpt lat="44.395894831027405" lon="11.534948454490172"><ele>105.8</ele><time>2026-05-01T09:40:17Z</time></trkpt><trkpt lat="44.39596792207579" lon="11.534862343686237"><ele>106.0</ele><time>2026-05-01T09:40:18Z</time></trkpt><trkpt lat="44.396041663080084" lon="11.53478441785169"><ele>106.0</ele><time>2026-05-01T09:40:19Z</time></trkpt><trkpt lat="44.3961183114491" lon="11.534703617360453"><ele>106.0</ele><time>2026-05-01T09:40:20Z</time></trkpt><trkpt lat="44.396205284913314" lon="11.534644755536975"><ele>106.0</ele><time>2026-05-01T09:40:21Z</time></trkpt><trkpt lat="44.39629798529323" lon="11.534621701289494"><ele>106.0</ele><time>2026-05-01T09:40:22Z</time></trkpt><trkpt lat="44.39639917704804" lon="11.534584787128628"><ele>106.0</ele><time>2026-05-01T09:40:23Z</time></trkpt><trkpt lat="44.39649925564877" lon="11.534574752954843"><ele>105.0</ele><time>2026-05-01T09:40:24Z</time></trkpt><trkpt lat="44.39659772300061" lon="11.534563349021036"><ele>104.0</ele><time>2026-05-01T09:40:25Z</time></trkpt><trkpt lat="44.396699351203566" lon="11.534554028974638"><ele>103.0</ele><time>2026-05-01T09:40:26Z</time></trkpt><trkpt lat="44.39680297599677" lon="11.534525693217294"><ele>102.0</ele><time>2026-05-01T09:40:27Z</time></trkpt><trkpt lat="44.39691369420127" lon="11.534537661102531"><ele>101.0</ele><time>2026-05-01T09:40:28Z</time></trkpt><trkpt lat="44.397029081806195" lon="11.534540533233073"><ele>102.25</ele><time>2026-05-01T09:40:29Z</time></trkpt><trkpt lat="44.39714040749442" lon="11.534539678965459"><ele>103.5</ele><time>2026-05-01T09:40:30Z</time></trkpt><trkpt lat="44.39726096890223" lon="11.53454407767723"><ele>104.75</ele><time>2026-05-01T09:40:31Z</time></trkpt><trkpt lat="44.39737714225443" lon="11.534538056685111"><ele>106.0</ele><time>2026-05-01T09:40:32Z</time></trkpt><trkpt lat="44.397495050240714" lon="11.534539046949174"><ele>106.0</ele><time>2026-05-01T09:40:33Z</time></trkpt><trkpt lat="44.39760516556566" lon="11.534539609748812"><ele>106.0</ele><time>2026-05-01T09:40:34Z</time></trkpt><trkpt lat="44.39771643393" lon="11.53453607833827"><ele>106.0</ele><time>2026-05-01T09:40:35Z</time></trkpt><trkpt lat="44.39782755804454" lon="11.534541753127552"><ele>106.0</ele><time>2026-05-01T09:40:36Z</time></trkpt><trkpt lat="44.397941157679746" lon="11.53453780729306"><ele>106.0</ele><time>2026-05-01T09:40:37Z</time></trkpt><trkpt lat="44.398047145012576" lon="11.534541822213711"><ele>107.4</ele><time>2026-05-01T09:40:38Z</time></trkpt><trkpt lat="44.398153961651" lon="11.53454742139575"><ele>108.8</ele><time>2026-05-01T09:40:39Z</time></trkpt><trkpt lat="44.39826035066235" lon="11.53454404186376"><ele>110.20000000000002</ele><time>2026-05-01T09:40:40Z</time></trkpt><trkpt lat="44.39836889050712" lon="11.534539137103248"><ele>111.60000000000001</ele><time>2026-05-01T09:40:41Z</time></trkpt><trkpt lat="44.398473980872936" lon="11.534539993286284"><ele>113.0</ele><time>2026-05-01T09:40:42Z</time></trkpt><trkpt lat="44.398579982159625" lon="11.53454467722865"><ele>113.0</ele><time>2026-05-01T09:40:43Z</time></trkpt><trkpt lat="44.39868190198454" lon="11.534543384161287"><ele>113.00000000000001</ele><time>2026-05-01T09:40:44Z</time></trkpt><trkpt lat="44.39878089850957" lon="11.534553294990143"><ele>113.00000000000001</ele><time>2026-05-01T09:40:45Z</time></trkpt><trkpt lat="44.398877095462" lon="11.534551083194605"><ele>113.0</ele><time>2026-05-01T09:40:46Z</time></trkpt><trkpt lat="44.39898091594181" lon="11.534560122578245"><ele>113.0</ele><time>2026-05-01T09:40:47Z</time></trkpt><trkpt lat="44.399080369135284" lon="11.53456217371665"><ele>108.80000000000001</ele><time>2026-05-01T09:40:48Z</time></trkpt><trkpt lat="44.39917632337935" lon="11.53457230749965"><ele>104.60000000000001</ele><time>2026-05-01T09:40:49Z</time></trkpt><trkpt lat="44.39927376629614" lon="11.534598112025131"><ele>100.4</ele><time>2026-05-01T09:40:50Z</time></trkpt><trkpt lat="44.39936396839431" lon="11.534646179959015"><ele>96.19999999999999</ele><time>2026-05-01T09:40:51Z</time></trkpt><trkpt lat="44.39944912035953" lon="11.534715628164868"><ele>92.0</ele><time>2026-05-01T09:40:52Z</time></trkpt><trkpt lat="44.399526487858736" lon="11.534777521474913"><ele>92.0</ele><time>2026-05-01T09:40:53Z</time></trkpt><trkpt lat="44.39960719779318" lon="11.534832355893801"><ele>92.0</ele><time>2026-05-01T09:40:54Z</time></trkpt><trkpt lat="44.39968477675844" lon="11.534880869166107"><ele>92.0</ele><time>2026-05-01T09:40:55Z</time></trkpt><trkpt lat="44.39976217049505" lon="11.534933068346517"><ele>92.0</ele><time>2026-05-01T09:40:56Z</time></trkpt><trkpt lat="44.399835983771865" lon="11.534987724285687"><ele>92.0</ele><time>2026-05-01T09:40:57Z</time></trkpt><trkpt lat="44.39990933657601" lon="11.535038298451129"><ele>92.0</ele><time>2026-05-01T09:40:58Z</time></trkpt><trkpt lat="44.399982650127505" lon="11.535093659943028"><ele>92.33333333333334</ele><time>2026-05-01T09:40:59Z</time></trkpt><trkpt lat="44.40005121786754" lon="11.53514477545692"><ele>92.66666666666667</ele><time>2026-05-01T09:41:00Z</time></trkpt><trkpt lat="44.40012577158228" lon="11.535199032307393"><ele>93.0</ele><time>2026-05-01T09:41:01Z</time></trkpt><trkpt lat="44.400197208001984" lon="11.535248597512325"><ele>93.33333333333333</ele><time>2026-05-01T09:41:02Z</time></trkpt><trkpt lat="44.40026986690067" lon="11.535297310774464"><ele>93.66666666666666</ele><time>2026-05-01T09:41:03Z</time></trkpt><trkpt lat="44.40033994531902" lon="11.535342499095778"><ele>94.0</ele><time>2026-05-01T09:41:04Z</time></trkpt><trkpt lat="44.400408617772236" lon="11.535391971432022"><ele>93.83333333333333</ele><time>2026-05-01T09:41:05Z</time></trkpt><trkpt lat="44.400479664478866" lon="11.535440585431527"><ele>93.66666666666666</ele><time>2026-05-01T09:41:06Z</time></trkpt><trkpt lat="44.40054433424748" lon="11.535480186151647"><ele>93.5</ele><time>2026-05-01T09:41:07Z</time></trkpt><trkpt lat="44.40061845148044" lon="11.535522429294566"><ele>93.33333333333333</ele><time>2026-05-01T09:41:08Z</time></trkpt><trkpt lat="44.40068828117706" lon="11.535562516910653"><ele>93.16666666666667</ele><time>2026-05-01T09:41:09Z</time></trkpt><trkpt lat="44.40075315998368" lon="11.535618035105355"><ele>93.0</ele><time>2026-05-01T09:41:10Z</time></trkpt><trkpt lat="44.40080772421494" lon="11.53570093097475"><ele>93.0</ele><time>2026-05-01T09:41:11Z</time></trkpt><trkpt lat="44.40085987659052" lon="11.535789890713287"><ele>93.0</ele><time>2026-05-01T09:41:12Z</time></trkpt><trkpt lat="44.40090500778036" lon="11.53589631605176"><ele>93.0</ele><time>2026-05-01T09:41:13Z</time></trkpt><trkpt lat="44.40093676355207" lon="11.536018631171363"><ele>93.0</ele><time>2026-05-01T09:41:14Z</time></trkpt><trkpt lat="44.40096722588733" lon="11.536135444205653"><ele>93.0</ele><time>2026-05-01T09:41:15Z</time></trkpt><trkpt lat="44.40098713929035" lon="11.53625567827786"><ele>93.0</ele><time>2026-05-01T09:41:16Z</time></trkpt><trkpt lat="44.401003725062104" lon="11.53637980789645"><ele>92.33333333333333</ele><time>2026-05-01T09:41:17Z</time></trkpt><trkpt lat="44.401039111681925" lon="11.53648874972766"><ele>91.66666666666667</ele><time>2026-05-01T09:41:18Z</time></trkpt><trkpt lat="44.40106944019092" lon="11.53660024444353"><ele>91.0</ele><time>2026-05-01T09:41:19Z</time></trkpt><trkpt lat="44.40111455436625" lon="11.53669703263343"><ele>90.33333333333334</ele><time>2026-05-01T09:41:20Z</time></trkpt><trkpt lat="44.40117404364554" lon="11.536779516456408"><ele>89.66666666666667</ele><time>2026-05-01T09:41:21Z</time></trkpt><trkpt lat="44.40124096869047" lon="11.53684362316564"><ele>89.0</ele><time>2026-05-01T09:41:22Z</time></trkpt><trkpt lat="44.401305876755565" lon="11.536906993200974"><ele>89.0</ele><time>2026-05-01T09:41:23Z</time></trkpt><trkpt lat="44.40137337003162" lon="11.536974001333771"><ele>89.0</ele><time>2026-05-01T09:41:24Z</time></trkpt><trkpt lat="44.401428442903125" lon="11.537055769036698"><ele>89.0</ele><time>2026-05-01T09:41:25Z</time></trkpt><trkpt lat="44.401487299488586" lon="11.537132066428095"><ele>89.0</ele><time>2026-05-01T09:41:26Z</time></trkpt><trkpt lat="44.40154792361685" lon="11.537205364696828"><ele>89.0</ele><time>2026-05-01T09:41:27Z</time></trkpt><trkpt lat="44.40160385878439" lon="11.537281859198457"><ele>89.0</ele><time>2026-05-01T09:41:28Z</time></trkpt><trkpt lat="44.40165023420996" lon="11.537373846456164"><ele>88.99999999999999</ele><time>2026-05-01T09:41:29Z</time></trkpt><trkpt lat="44.4017159635875" lon="11.537432003628368"><ele>89.0</ele><time>2026-05-01T09:41:30Z</time></trkpt><trkpt lat="44.40177081099941" lon="11.537504082810528"><ele>89.0</ele><time>2026-05-01T09:41:31Z</time></trkpt><trkpt lat="44.40182793353101" lon="11.53757589802714"><ele>89.0</ele><time>2026-05-01T09:41:32Z</time></trkpt><trkpt lat="44.4018823923197" lon="11.537636367909771"><ele>89.0</ele><time>2026-05-01T09:41:33Z</time></trkpt><trkpt lat="44.40194122216679" lon="11.537695877432247"><ele>88.99999999999999</ele><time>2026-05-01T09:41:34Z</time></trkpt><trkpt lat="44.40200037898269" lon="11.5377556270644"><ele>89.0</ele><time>2026-05-01T09:41:35Z</time></trkpt><trkpt lat="44.4020592387275" lon="11.53781556034181"><ele>88.99999999999999</ele><time>2026-05-01T09:41:36Z</time></trkpt><trkpt lat="44.40212065255567" lon="11.537880853266113"><ele>89.0</ele><time>2026-05-01T09:41:37Z</time></trkpt><trkpt lat="44.40218059171414" lon="11.537940206606123"><ele>89.0</ele><time>2026-05-01T09:41:38Z</time></trkpt><trkpt lat="44.4022332945291" lon="11.538006846977927"><ele>89.0</ele><time>2026-05-01T09:41:39Z</time></trkpt><trkpt lat="44.40227900175946" lon="11.538081163384978"><ele>89.0</ele><time>2026-05-01T09:41:40Z</time></trkpt><trkpt lat="44.40232004206652" lon="11.538164945679476"><ele>88.99999999999999</ele><time>2026-05-01T09:41:41Z</time></trkpt><trkpt lat="44.402358651711396" lon="11.538249355534171"><ele>89.0</ele><time>2026-05-01T09:41:42Z</time></trkpt><trkpt lat="44.40237835015231" lon="11.538339231577194"><ele>88.71428571428571</ele><time>2026-05-01T09:41:43Z</time></trkpt><trkpt lat="44.402400008926655" lon="11.538426190435649"><ele>88.42857142857143</ele><time>2026-05-01T09:41:44Z</time></trkpt><trkpt lat="44.40242330510026" lon="11.538512568361034"><ele>88.14285714285714</ele><time>2026-05-01T09:41:45Z</time></trkpt><trkpt lat="44.402446137822054" lon="11.53859886456782"><ele>87.85714285714286</ele><time>2026-05-01T09:41:46Z</time></trkpt><trkpt lat="44.40247029088935" lon="11.538691593509528"><ele>87.57142857142857</ele><time>2026-05-01T09:41:47Z</time></trkpt><trkpt lat="44.4024926072149" lon="11.538777271611082"><ele>87.28571428571428</ele><time>2026-05-01T09:41:48Z</time></trkpt><trkpt lat="44.40251338205997" lon="11.538863597763608"><ele>87.0</ele><time>2026-05-01T09:41:49Z</time></trkpt><trkpt lat="44.402533164090656" lon="11.538951393910034"><ele>86.83333333333333</ele><time>2026-05-01T09:41:50Z</time></trkpt><trkpt lat="44.40255153072053" lon="11.53903900311122"><ele>86.66666666666667</ele><time>2026-05-01T09:41:51Z</time></trkpt><trkpt lat="44.402568955741465" lon="11.539125665035506"><ele>86.5</ele><time>2026-05-01T09:41:52Z</time></trkpt><trkpt lat="44.402585661017525" lon="11.539213888312046"><ele>86.33333333333334</ele><time>2026-05-01T09:41:53Z</time></trkpt><trkpt lat="44.40261596612068" lon="11.539385613542471"><ele>86.16666666666667</ele><time>2026-05-01T09:41:55Z</time></trkpt><trkpt lat="44.40264508055911" lon="11.539559663814423"><ele>86.0</ele><time>2026-05-01T09:41:57Z</time></trkpt><trkpt lat="44.40265912043954" lon="11.53964957760711"><ele>86.0</ele><time>2026-05-01T09:41:58Z</time></trkpt><trkpt lat="44.40267218160426" lon="11.53973664687312"><ele>86.0</ele><time>2026-05-01T09:41:59Z</time></trkpt><trkpt lat="44.40269432651352" lon="11.539908620109955"><ele>86.0</ele><time>2026-05-01T09:42:01Z</time></trkpt><trkpt lat="44.40272181699587" lon="11.540074089355379"><ele>86.0</ele><time>2026-05-01T09:42:03Z</time></trkpt><trkpt lat="44.40275639458569" lon="11.540151366239751"><ele>86.0</ele><time>2026-05-01T09:42:04Z</time></trkpt><trkpt lat="44.402779799941094" lon="11.540233635060021"><ele>86.0</ele><time>2026-05-01T09:42:05Z</time></trkpt><trkpt lat="44.40284418144796" lon="11.540387179451594"><ele>85.66666666666667</ele><time>2026-05-01T09:42:07Z</time></trkpt><trkpt lat="44.40289132175946" lon="11.540453618014142"><ele>85.33333333333334</ele><time>2026-05-01T09:42:08Z</time></trkpt><trkpt lat="44.40293910143708" lon="11.54051463344749"><ele>85.0</ele><time>2026-05-01T09:42:09Z</time></trkpt><trkpt lat="44.4029887423799" lon="11.540572698800416"><ele>84.66666666666667</ele><time>2026-05-01T09:42:10Z</time></trkpt><trkpt lat="44.4030887823165" lon="11.54067469799529"><ele>84.33333333333333</ele><time>2026-05-01T09:42:12Z</time></trkpt><trkpt lat="44.403144242405254" lon="11.54072435330086"><ele>84.0</ele><time>2026-05-01T09:42:13Z</time></trkpt><trkpt lat="44.40324201984786" lon="11.54080050395747"><ele>84.0</ele><time>2026-05-01T09:42:15Z</time></trkpt><trkpt lat="44.40333215371717" lon="11.540851182664406"><ele>84.0</ele><time>2026-05-01T09:42:17Z</time></trkpt><trkpt lat="44.40341833843581" lon="11.54090069919902"><ele>84.0</ele><time>2026-05-01T09:42:19Z</time></trkpt><trkpt lat="44.40344706237566" lon="11.54100457249658"><ele>84.0</ele><time>2026-05-01T09:42:21Z</time></trkpt><trkpt lat="44.40339451424121" lon="11.541100792396087"><ele>84.0</ele><time>2026-05-01T09:42:23Z</time></trkpt><trkpt lat="44.40337647716329" lon="11.541195733887989"><ele>84.0</ele><time>2026-05-01T09:42:25Z</time></trkpt><trkpt lat="44.40334230064905" lon="11.54130609123661"><ele>84.85714285714286</ele><time>2026-05-01T09:42:28Z</time></trkpt><trkpt lat="44.403313898072966" lon="11.54139760947794"><ele>85.71428571428572</ele><time>2026-05-01T09:42:31Z</time></trkpt><trkpt lat="44.40327245696004" lon="11.54148412404594"><ele>86.57142857142857</ele><time>2026-05-01T09:42:35Z</time></trkpt><trkpt lat="44.40322193324341" lon="11.541541319525628"><ele>87.42857142857143</ele><time>2026-05-01T09:42:39Z</time></trkpt><trkpt lat="44.40314878895233" lon="11.54157282455265"><ele>88.28571428571429</ele><time>2026-05-01T09:42:44Z</time></trkpt><trkpt lat="44.403079541759475" lon="11.541562160416376"><ele>89.14285714285714</ele><time>2026-05-01T09:42:48Z</time></trkpt><trkpt lat="44.40300547245954" lon="11.541580347494952"><ele>90.0</ele><time>2026-05-01T09:42:53Z</time></trkpt><trkpt lat="44.40294003135538" lon="11.541563165770006"><ele>91.57142857142857</ele><time>2026-05-01T09:42:58.001Z</time></trkpt><trkpt lat="44.40286507162498" lon="11.54154932138566"><ele>93.14285714285715</ele><time>2026-05-01T09:43:03Z</time></trkpt><trkpt lat="44.40279768315126" lon="11.541547359646078"><ele>94.71428571428572</ele><time>2026-05-01T09:43:07Z</time></trkpt><trkpt lat="44.40273738255918" lon="11.541521991410585"><ele>96.28571428571428</ele><time>2026-05-01T09:43:11Z</time></trkpt><trkpt lat="44.402676227764935" lon="11.541483686727645"><ele>97.85714285714286</ele><time>2026-05-01T09:43:15Z</time></trkpt><trkpt lat="44.40261277737876" lon="11.541438467334071"><ele>99.42857142857143</ele><time>2026-05-01T09:43:20Z</time></trkpt><trkpt lat="44.40255132232658" lon="11.541378809669073"><ele>101.0</ele><time>2026-05-01T09:43:25Z</time></trkpt><trkpt lat="44.40249153273519" lon="11.541325626517205"><ele>101.0</ele><time>2026-05-01T09:43:30Z</time></trkpt><trkpt lat="44.40243540082082" lon="11.541279583462922"><ele>101.0</ele><time>2026-05-01T09:43:35Z</time></trkpt><trkpt lat="44.40236586764394" lon="11.541252884152081"><ele>101.0</ele><time>2026-05-01T09:43:40Z</time></trkpt><trkpt lat="44.402296482850204" lon="11.541241617372977"><ele>101.0</ele><time>2026-05-01T09:43:45Z</time></trkpt><trkpt lat="44.40223952328807" lon="11.541280121011518"><ele>101.0</ele><time>2026-05-01T09:43:50Z</time></trkpt><trkpt lat="44.402188735861024" lon="11.541337975598886"><ele>101.0</ele><time>2026-05-01T09:43:55Z</time></trkpt><trkpt lat="44.4021711496745" lon="11.541441013388296"><ele>101.0</ele><time>2026-05-01T09:44:00Z</time></trkpt><trkpt lat="44.40219724660551" lon="11.54152586775513"><ele>101.0</ele><time>2026-05-01T09:44:04Z</time></trkpt><trkpt lat="44.40223248942561" lon="11.541607997900972"><ele>101.0</ele><time>2026-05-01T09:44:09Z</time></trkpt><trkpt lat="44.40226253085416" lon="11.541695482544922"><ele>101.0</ele><time>2026-05-01T09:44:14Z</time></trkpt><trkpt lat="44.40227062617082" lon="11.541789709246205"><ele>101.0</ele><time>2026-05-01T09:44:19Z</time></trkpt><trkpt lat="44.40227475595759" lon="11.541877805814424"><ele>101.0</ele><time>2026-05-01T09:44:25Z</time></trkpt><trkpt lat="44.40223378167085" lon="11.541965649937929"><ele>101.0</ele><time>2026-05-01T09:44:30Z</time></trkpt><trkpt lat="44.40220957366927" lon="11.54204705806684"><ele>101.0</ele><time>2026-05-01T09:44:35Z</time></trkpt><trkpt lat="44.402160217126074" lon="11.54210839296883"><ele>102.85714285714286</ele><time>2026-05-01T09:44:40Z</time></trkpt><trkpt lat="44.40214476096863" lon="11.542194947288653"><ele>104.71428571428571</ele><time>2026-05-01T09:44:45Z</time></trkpt><trkpt lat="44.40209515756729" lon="11.542256969981386"><ele>106.57142857142857</ele><time>2026-05-01T09:44:50Z</time></trkpt><trkpt lat="44.402086271368304" lon="11.542352134510653"><ele>108.42857142857142</ele><time>2026-05-01T09:44:56Z</time></trkpt><trkpt lat="44.40201630011653" lon="11.542372354558625"><ele>110.28571428571428</ele><time>2026-05-01T09:45:00Z</time></trkpt><trkpt lat="44.40199971731111" lon="11.542467008777262"><ele>112.14285714285714</ele><time>2026-05-01T09:45:05.001Z</time></trkpt><trkpt lat="44.40193759992191" lon="11.542508243297132"><ele>114.0</ele><time>2026-05-01T09:45:10.001Z</time></trkpt><trkpt lat="44.4018687569767" lon="11.542542515057242"><ele>114.0</ele><time>2026-05-01T09:45:16Z</time></trkpt><trkpt lat="44.40179867176851" lon="11.542568040149064"><ele>113.99999999999999</ele><time>2026-05-01T09:45:21Z</time></trkpt><trkpt lat="44.40173523878676" lon="11.542544804965065"><ele>114.0</ele><time>2026-05-01T09:45:26Z</time></trkpt><trkpt lat="44.40167034566502" lon="11.5425008200018"><ele>114.0</ele><time>2026-05-01T09:45:32Z</time></trkpt><trkpt lat="44.40161595191258" lon="11.54244708263223"><ele>113.99999999999999</ele><time>2026-05-01T09:45:37Z</time></trkpt><trkpt lat="44.40156148507505" lon="11.542381812013543"><ele>114.0</ele><time>2026-05-01T09:45:43Z</time></trkpt><trkpt lat="44.40151258600709" lon="11.542317191254432"><ele>114.0</ele><time>2026-05-01T09:45:48Z</time></trkpt><trkpt lat="44.40147894532153" lon="11.542229063200214"><ele>114.0</ele><time>2026-05-01T09:45:53Z</time></trkpt><trkpt lat="44.401438905215024" lon="11.542143795915242"><ele>113.99999999999999</ele><time>2026-05-01T09:45:59Z</time></trkpt><trkpt lat="44.40139105949572" lon="11.542074203295279"><ele>114.0</ele><time>2026-05-01T09:46:04Z</time></trkpt><trkpt lat="44.40135432513591" lon="11.5420014795928"><ele>114.0</ele><time>2026-05-01T09:46:09Z</time></trkpt><trkpt lat="44.401333045672395" lon="11.541909540918025"><ele>113.99999999999999</ele><time>2026-05-01T09:46:14Z</time></trkpt><trkpt lat="44.401282833182094" lon="11.541855836107453"><ele>114.0</ele><time>2026-05-01T09:46:18Z</time></trkpt><trkpt lat="44.4012425280344" lon="11.541769773873689"><ele>114.0</ele><time>2026-05-01T09:46:23Z</time></trkpt><trkpt lat="44.40119345512167" lon="11.541695975783643"><ele>115.71428571428571</ele><time>2026-05-01T09:46:28Z</time></trkpt><trkpt lat="44.40113328806197" lon="11.541639214496298"><ele>117.42857142857142</ele><time>2026-05-01T09:46:33Z</time></trkpt><trkpt lat="44.401069776618435" lon="11.541602389765087"><ele>119.14285714285714</ele><time>2026-05-01T09:46:38Z</time></trkpt><trkpt lat="44.40099305864927" lon="11.54157996275354"><ele>120.85714285714286</ele><time>2026-05-01T09:46:43Z</time></trkpt><trkpt lat="44.40091338253606" lon="11.541570634019616"><ele>122.57142857142857</ele><time>2026-05-01T09:46:48Z</time></trkpt><trkpt lat="44.40084575110353" lon="11.541546445719375"><ele>124.28571428571428</ele><time>2026-05-01T09:46:52Z</time></trkpt><trkpt lat="44.40077762179668" lon="11.541531170840138"><ele>126.0</ele><time>2026-05-01T09:46:56Z</time></trkpt><trkpt lat="44.400707330288824" lon="11.541520459883628"><ele>126.0</ele><time>2026-05-01T09:47:00Z</time></trkpt><trkpt lat="44.40064055928166" lon="11.541519498725155"><ele>126.0</ele><time>2026-05-01T09:47:04Z</time></trkpt><trkpt lat="44.400577270617674" lon="11.541510332720286"><ele>126.0</ele><time>2026-05-01T09:47:08.001Z</time></trkpt><trkpt lat="44.40050806612192" lon="11.541523631497649"><ele>126.0</ele><time>2026-05-01T09:47:12Z</time></trkpt><trkpt lat="44.40043295188982" lon="11.541520721422051"><ele>126.0</ele><time>2026-05-01T09:47:17Z</time></trkpt><trkpt lat="44.40035725917835" lon="11.541535252065604"><ele>126.0</ele><time>2026-05-01T09:47:22Z</time></trkpt><trkpt lat="44.40027008909511" lon="11.541554748317711"><ele>126.0</ele><time>2026-05-01T09:47:27Z</time></trkpt><trkpt lat="44.400206758489325" lon="11.541582235129695"><ele>127.0</ele><time>2026-05-01T09:47:32Z</time></trkpt><trkpt lat="44.400145184922614" lon="11.541612127771886"><ele>128.0</ele><time>2026-05-01T09:47:36Z</time></trkpt><trkpt lat="44.40007844116757" lon="11.54163048849265"><ele>129.0</ele><time>2026-05-01T09:47:40Z</time></trkpt><trkpt lat="44.39999426113755" lon="11.541638648035422"><ele>130.0</ele><time>2026-05-01T09:47:44Z</time></trkpt><trkpt lat="44.399932157243654" lon="11.541680554285326"><ele>131.0</ele><time>2026-05-01T09:47:48Z</time></trkpt><trkpt lat="44.399858884607085" lon="11.541700356540991"><ele>132.0</ele><time>2026-05-01T09:47:52Z</time></trkpt><trkpt lat="44.39979196497645" lon="11.541740396815394"><ele>133.0</ele><time>2026-05-01T09:47:56Z</time></trkpt><trkpt lat="44.399731076016536" lon="11.54178239857364"><ele>133.28571428571428</ele><time>2026-05-01T09:48:00Z</time></trkpt><trkpt lat="44.39966121516986" lon="11.54181791383748"><ele>133.57142857142856</ele><time>2026-05-01T09:48:04Z</time></trkpt><trkpt lat="44.39959076849756" lon="11.541843179972174"><ele>133.85714285714286</ele><time>2026-05-01T09:48:08Z</time></trkpt><trkpt lat="44.39951641221318" lon="11.541868181077643"><ele>134.14285714285714</ele><time>2026-05-01T09:48:12Z</time></trkpt><trkpt lat="44.39944706336776" lon="11.541900601891639"><ele>134.42857142857142</ele><time>2026-05-01T09:48:16Z</time></trkpt><trkpt lat="44.39937668658117" lon="11.541931322279751"><ele>134.71428571428572</ele><time>2026-05-01T09:48:20Z</time></trkpt><trkpt lat="44.399313994948535" lon="11.541976395453347"><ele>135.0</ele><time>2026-05-01T09:48:24Z</time></trkpt><trkpt lat="44.39922397057584" lon="11.542018636279979"><ele>135.0</ele><time>2026-05-01T09:48:29Z</time></trkpt><trkpt lat="44.39914708566293" lon="11.542035259877794"><ele>135.0</ele><time>2026-05-01T09:48:33Z</time></trkpt><trkpt lat="44.39908583974519" lon="11.542056136661037"><ele>135.0</ele><time>2026-05-01T09:48:36Z</time></trkpt><trkpt lat="44.39901572703088" lon="11.542081698965916"><ele>135.0</ele><time>2026-05-01T09:48:40Z</time></trkpt><trkpt lat="44.39894437519396" lon="11.542118786740067"><ele>135.0</ele><time>2026-05-01T09:48:44Z</time></trkpt><trkpt lat="44.398875116211855" lon="11.542153838815961"><ele>135.0</ele><time>2026-05-01T09:48:48Z</time></trkpt><trkpt lat="44.39879956695089" lon="11.54218102402859"><ele>135.0</ele><time>2026-05-01T09:48:52Z</time></trkpt><trkpt lat="44.39871959255589" lon="11.542191605879259"><ele>136.42857142857142</ele><time>2026-05-01T09:48:56Z</time></trkpt><trkpt lat="44.39865759948588" lon="11.542210664322038"><ele>137.85714285714283</ele><time>2026-05-01T09:48:59Z</time></trkpt><trkpt lat="44.39859523437353" lon="11.542227504716433"><ele>139.28571428571428</ele><time>2026-05-01T09:49:02Z</time></trkpt><trkpt lat="44.39852015122318" lon="11.542258748714175"><ele>140.71428571428572</ele><time>2026-05-01T09:49:06Z</time></trkpt><trkpt lat="44.39843820495346" lon="11.54226367628117"><ele>142.14285714285717</ele><time>2026-05-01T09:49:10Z</time></trkpt><trkpt lat="44.398366348362686" lon="11.542279769910447"><ele>143.57142857142858</ele><time>2026-05-01T09:49:14Z</time></trkpt><trkpt lat="44.398289559201196" lon="11.542265015519277"><ele>145.0</ele><time>2026-05-01T09:49:18Z</time></trkpt><trkpt lat="44.398215581142026" lon="11.542278414647017"><ele>145.0</ele><time>2026-05-01T09:49:22Z</time></trkpt><trkpt lat="44.39814758874051" lon="11.5423161991248"><ele>145.0</ele><time>2026-05-01T09:49:26Z</time></trkpt><trkpt lat="44.39808271256429" lon="11.542312396330054"><ele>145.0</ele><time>2026-05-01T09:49:29Z</time></trkpt><trkpt lat="44.3980145813103" lon="11.542350330358325"><ele>145.0</ele><time>2026-05-01T09:49:33Z</time></trkpt><trkpt lat="44.39795617815654" lon="11.542387164986197"><ele>145.0</ele><time>2026-05-01T09:49:36Z</time></trkpt><trkpt lat="44.397893258497575" lon="11.542424182457728"><ele>145.0</ele><time>2026-05-01T09:49:40Z</time></trkpt><trkpt lat="44.39784323509172" lon="11.542499687523335"><ele>145.0</ele><time>2026-05-01T09:49:44Z</time></trkpt><trkpt lat="44.397771571215195" lon="11.54252984407215"><ele>145.33333333333334</ele><time>2026-05-01T09:49:48Z</time></trkpt><trkpt lat="44.397697054255644" lon="11.542575814199141"><ele>145.66666666666669</ele><time>2026-05-01T09:49:52Z</time></trkpt><trkpt lat="44.397618027832415" lon="11.542619255945237"><ele>146.0</ele><time>2026-05-01T09:49:57Z</time></trkpt><trkpt lat="44.39756319366341" lon="11.54267933446563"><ele>146.33333333333334</ele><time>2026-05-01T09:50:00Z</time></trkpt><trkpt lat="44.397482569534816" lon="11.542694060721683"><ele>146.66666666666666</ele><time>2026-05-01T09:50:04Z</time></trkpt><trkpt lat="44.39740851204124" lon="11.542728899853453"><ele>147.0</ele><time>2026-05-01T09:50:08Z</time></trkpt><trkpt lat="44.39732893422471" lon="11.542760966751677"><ele>147.0</ele><time>2026-05-01T09:50:12Z</time></trkpt><trkpt lat="44.397253931459346" lon="11.542806314265016"><ele>147.0</ele><time>2026-05-01T09:50:16Z</time></trkpt><trkpt lat="44.39718552961808" lon="11.542851480197175"><ele>147.0</ele><time>2026-05-01T09:50:20Z</time></trkpt><trkpt lat="44.3971101300822" lon="11.542880937615466"><ele>147.0</ele><time>2026-05-01T09:50:24Z</time></trkpt><trkpt lat="44.39702848583003" lon="11.542886210943616"><ele>147.0</ele><time>2026-05-01T09:50:28Z</time></trkpt><trkpt lat="44.39696212372692" lon="11.542888909762336"><ele>147.0</ele><time>2026-05-01T09:50:31Z</time></trkpt><trkpt lat="44.39689443538638" lon="11.542890113656552"><ele>147.42857142857142</ele><time>2026-05-01T09:50:34Z</time></trkpt><trkpt lat="44.39682974723581" lon="11.54289326736361"><ele>147.85714285714286</ele><time>2026-05-01T09:50:37Z</time></trkpt><trkpt lat="44.39674899794807" lon="11.542879929496689"><ele>148.28571428571428</ele><time>2026-05-01T09:50:41Z</time></trkpt><trkpt lat="44.39666501522225" lon="11.542870217293766"><ele>148.71428571428572</ele><time>2026-05-01T09:50:45Z</time></trkpt><trkpt lat="44.39659995531388" lon="11.542881760018986"><ele>149.14285714285714</ele><time>2026-05-01T09:50:48Z</time></trkpt><trkpt lat="44.39652369007294" lon="11.54288227197805"><ele>149.57142857142856</ele><time>2026-05-01T09:50:52Z</time></trkpt><trkpt lat="44.39646021932458" lon="11.542880633891793"><ele>150.0</ele><time>2026-05-01T09:50:55Z</time></trkpt><trkpt lat="44.39638356907028" lon="11.542880927862713"><ele>151.33333333333334</ele><time>2026-05-01T09:50:59Z</time></trkpt><trkpt lat="44.39630237005833" lon="11.54286825690497"><ele>152.66666666666666</ele><time>2026-05-01T09:51:03Z</time></trkpt><trkpt lat="44.396224741342664" lon="11.542873663229994"><ele>154.0</ele><time>2026-05-01T09:51:07Z</time></trkpt><trkpt lat="44.396148909726044" lon="11.542874263622641"><ele>155.33333333333331</ele><time>2026-05-01T09:51:11Z</time></trkpt><trkpt lat="44.39607755050458" lon="11.542863165773989"><ele>156.66666666666666</ele><time>2026-05-01T09:51:15Z</time></trkpt><trkpt lat="44.39599574014299" lon="11.54286375760742"><ele>158.0</ele><time>2026-05-01T09:51:19Z</time></trkpt><trkpt lat="44.39591336455705" lon="11.542857593384062"><ele>158.00000000000003</ele><time>2026-05-01T09:51:23Z</time></trkpt><trkpt lat="44.39583396086859" lon="11.542855092454364"><ele>158.0</ele><time>2026-05-01T09:51:28Z</time></trkpt><trkpt lat="44.39575791164185" lon="11.54284799193274"><ele>158.0</ele><time>2026-05-01T09:51:32Z</time></trkpt><trkpt lat="44.39567913906126" lon="11.542842683948296"><ele>158.0</ele><time>2026-05-01T09:51:37Z</time></trkpt><trkpt lat="44.395611876761635" lon="11.542842740505707"><ele>158.0</ele><time>2026-05-01T09:51:41Z</time></trkpt><trkpt lat="44.39554573945362" lon="11.542827863897498"><ele>158.00000000000003</ele><time>2026-05-01T09:51:45Z</time></trkpt><trkpt lat="44.395481035697365" lon="11.54283828766117"><ele>158.0</ele><time>2026-05-01T09:51:49Z</time></trkpt><trkpt lat="44.39540873136923" lon="11.542830113507375"><ele>158.85714285714286</ele><time>2026-05-01T09:51:53Z</time></trkpt><trkpt lat="44.39533198741489" lon="11.54281280449203"><ele>159.71428571428572</ele><time>2026-05-01T09:51:57Z</time></trkpt><trkpt lat="44.395267316114364" lon="11.5427884228381"><ele>160.57142857142856</ele><time>2026-05-01T09:52:01Z</time></trkpt><trkpt lat="44.39520689631902" lon="11.542763492263846"><ele>161.42857142857144</ele><time>2026-05-01T09:52:05Z</time></trkpt><trkpt lat="44.39514031861953" lon="11.54273770732008"><ele>162.28571428571428</ele><time>2026-05-01T09:52:09Z</time></trkpt><trkpt lat="44.395079013925795" lon="11.542705512307847"><ele>163.14285714285714</ele><time>2026-05-01T09:52:13Z</time></trkpt><trkpt lat="44.395012121881805" lon="11.542700437830327"><ele>164.0</ele><time>2026-05-01T09:52:17Z</time></trkpt><trkpt lat="44.39494281102226" lon="11.542673539111941"><ele>163.99999999999997</ele><time>2026-05-01T09:52:21Z</time></trkpt><trkpt lat="44.394877125171824" lon="11.542646670802686"><ele>164.0</ele><time>2026-05-01T09:52:25Z</time></trkpt><trkpt lat="44.39479916780325" lon="11.542619981858525"><ele>164.0</ele><time>2026-05-01T09:52:30Z</time></trkpt><trkpt lat="44.3947366102211" lon="11.542598604933898"><ele>164.0</ele><time>2026-05-01T09:52:34Z</time></trkpt><trkpt lat="44.39466407528755" lon="11.542577220786237"><ele>164.0</ele><time>2026-05-01T09:52:39Z</time></trkpt><trkpt lat="44.39459086853142" lon="11.54254708951754"><ele>163.99999999999997</ele><time>2026-05-01T09:52:44Z</time></trkpt><trkpt lat="44.39451793502731" lon="11.542524505993544"><ele>164.0</ele><time>2026-05-01T09:52:49Z</time></trkpt><trkpt lat="44.39445552534272" lon="11.542473277484659"><ele>165.28571428571428</ele><time>2026-05-01T09:52:54Z</time></trkpt><trkpt lat="44.39437774579333" lon="11.542458707883867"><ele>166.57142857142856</ele><time>2026-05-01T09:52:59Z</time></trkpt><trkpt lat="44.39430709707377" lon="11.54243171780284"><ele>167.85714285714283</ele><time>2026-05-01T09:53:04Z</time></trkpt><trkpt lat="44.39423581587631" lon="11.542405960889415"><ele>169.14285714285714</ele><time>2026-05-01T09:53:09Z</time></trkpt><trkpt lat="44.39416209327565" lon="11.542385770392853"><ele>170.42857142857144</ele><time>2026-05-01T09:53:14Z</time></trkpt><trkpt lat="44.394098964685625" lon="11.542372462835479"><ele>171.7142857142857</ele><time>2026-05-01T09:53:17.999Z</time></trkpt><trkpt lat="44.3940367819501" lon="11.542353938819229"><ele>173.0</ele><time>2026-05-01T09:53:21.999Z</time></trkpt><trkpt lat="44.3939640041711" lon="11.542327386446216"><ele>173.0</ele><time>2026-05-01T09:53:27Z</time></trkpt><trkpt lat="44.39389317197653" lon="11.542296314771272"><ele>173.0</ele><time>2026-05-01T09:53:32Z</time></trkpt><trkpt lat="44.393819279377006" lon="11.542282439077098"><ele>173.0</ele><time>2026-05-01T09:53:37Z</time></trkpt><trkpt lat="44.39375008044991" lon="11.542256446849935"><ele>173.0</ele><time>2026-05-01T09:53:42Z</time></trkpt><trkpt lat="44.39368479250334" lon="11.542232604480391"><ele>173.0</ele><time>2026-05-01T09:53:47Z</time></trkpt><trkpt lat="44.39362011227608" lon="11.542203850960222"><ele>173.0</ele><time>2026-05-01T09:53:52Z</time></trkpt><trkpt lat="44.393557475965906" lon="11.542165149229694"><ele>173.0</ele><time>2026-05-01T09:53:57Z</time></trkpt><trkpt lat="44.39349580392776" lon="11.542144069611044"><ele>173.57142857142856</ele><time>2026-05-01T09:54:01Z</time></trkpt><trkpt lat="44.393431981030375" lon="11.542130089524893"><ele>174.14285714285717</ele><time>2026-05-01T09:54:05Z</time></trkpt><trkpt lat="44.393359060013196" lon="11.542101664317029"><ele>174.71428571428572</ele><time>2026-05-01T09:54:09Z</time></trkpt><trkpt lat="44.393286741779775" lon="11.542064074517628"><ele>175.28571428571428</ele><time>2026-05-01T09:54:13Z</time></trkpt><trkpt lat="44.39322336833387" lon="11.542057665204824"><ele>175.85714285714283</ele><time>2026-05-01T09:54:16Z</time></trkpt><trkpt lat="44.393156570672666" lon="11.542084680095835"><ele>176.42857142857144</ele><time>2026-05-01T09:54:19Z</time></trkpt><trkpt lat="44.39309116215735" lon="11.542118586183424"><ele>177.0</ele><time>2026-05-01T09:54:23Z</time></trkpt><trkpt lat="44.393027899507906" lon="11.542132174200766"><ele>178.0</ele><time>2026-05-01T09:54:25Z</time></trkpt><trkpt lat="44.39295723925652" lon="11.542159363286297"><ele>179.0</ele><time>2026-05-01T09:54:28Z</time></trkpt><trkpt lat="44.392875699240626" lon="11.542190879280263"><ele>180.0</ele><time>2026-05-01T09:54:31Z</time></trkpt><trkpt lat="44.39278546359477" lon="11.542229780091315"><ele>181.0</ele><time>2026-05-01T09:54:34Z</time></trkpt><trkpt lat="44.39270786670017" lon="11.542288531890993"><ele>182.0</ele><time>2026-05-01T09:54:37Z</time></trkpt><trkpt lat="44.392641546073804" lon="11.542297544282503"><ele>183.0</ele><time>2026-05-01T09:54:39Z</time></trkpt><trkpt lat="44.39255819464257" lon="11.54233724661684"><ele>183.0</ele><time>2026-05-01T09:54:42Z</time></trkpt><trkpt lat="44.39247592834838" lon="11.542368413585773"><ele>183.0</ele><time>2026-05-01T09:54:45Z</time></trkpt><trkpt lat="44.39240030452862" lon="11.542386665885756"><ele>183.0</ele><time>2026-05-01T09:54:48Z</time></trkpt><trkpt lat="44.39233282025236" lon="11.542441291258235"><ele>183.0</ele><time>2026-05-01T09:54:51Z</time></trkpt><trkpt lat="44.39227530428484" lon="11.542481585414963"><ele>183.0</ele><time>2026-05-01T09:54:54Z</time></trkpt><trkpt lat="44.3922253227372" lon="11.542555484498564"><ele>183.0</ele><time>2026-05-01T09:54:58Z</time></trkpt><trkpt lat="44.39215943971389" lon="11.54257653329063"><ele>183.0</ele><time>2026-05-01T09:55:02Z</time></trkpt><trkpt lat="44.39209647920178" lon="11.542530651199575"><ele>183.85714285714286</ele><time>2026-05-01T09:55:05Z</time></trkpt><trkpt lat="44.39203281729888" lon="11.542506804724644"><ele>184.71428571428572</ele><time>2026-05-01T09:55:08Z</time></trkpt><trkpt lat="44.391966487766716" lon="11.542492196122693"><ele>185.57142857142856</ele><time>2026-05-01T09:55:11Z</time></trkpt><trkpt lat="44.39189763981789" lon="11.542476346851384"><ele>186.42857142857144</ele><time>2026-05-01T09:55:13.999Z</time></trkpt><trkpt lat="44.39182216081763" lon="11.542458310212417"><ele>187.28571428571428</ele><time>2026-05-01T09:55:16.999Z</time></trkpt><trkpt lat="44.39174750658825" lon="11.542425960487181"><ele>188.14285714285714</ele><time>2026-05-01T09:55:19.999Z</time></trkpt><trkpt lat="44.39167215495607" lon="11.5424090711984"><ele>189.0</ele><time>2026-05-01T09:55:22.999Z</time></trkpt><trkpt lat="44.3915802604586" lon="11.542395315406662"><ele>189.0</ele><time>2026-05-01T09:55:25.999Z</time></trkpt><trkpt lat="44.391494862287004" lon="11.542384356559742"><ele>189.0</ele><time>2026-05-01T09:55:29.999Z</time></trkpt><trkpt lat="44.39142619860981" lon="11.542401917564568"><ele>189.0</ele><time>2026-05-01T09:55:33Z</time></trkpt><trkpt lat="44.39135389372826" lon="11.542420199924027"><ele>189.0</ele><time>2026-05-01T09:55:36Z</time></trkpt><trkpt lat="44.39127865203332" lon="11.542430452748746"><ele>189.0</ele><time>2026-05-01T09:55:39Z</time></trkpt><trkpt lat="44.391210954908736" lon="11.542495041465287"><ele>189.0</ele><time>2026-05-01T09:55:42Z</time></trkpt><trkpt lat="44.39116151942148" lon="11.542551844196563"><ele>188.66666666666666</ele><time>2026-05-01T09:55:44Z</time></trkpt><trkpt lat="44.39110883878492" lon="11.542618486775892"><ele>188.33333333333334</ele><time>2026-05-01T09:55:46Z</time></trkpt><trkpt lat="44.39105428261324" lon="11.542685577460013"><ele>188.0</ele><time>2026-05-01T09:55:48Z</time></trkpt><trkpt lat="44.390994198335875" lon="11.542730572073364"><ele>187.66666666666669</ele><time>2026-05-01T09:55:50Z</time></trkpt><trkpt lat="44.39090961408889" lon="11.542790265093853"><ele>187.33333333333334</ele><time>2026-05-01T09:55:53Z</time></trkpt><trkpt lat="44.390842918692826" lon="11.542821526970778"><ele>187.0</ele><time>2026-05-01T09:55:55Z</time></trkpt><trkpt lat="44.39075349545331" lon="11.54283624587497"><ele>187.0</ele><time>2026-05-01T09:55:58Z</time></trkpt><trkpt lat="44.39066340075085" lon="11.542826831878322"><ele>187.0</ele><time>2026-05-01T09:56:01Z</time></trkpt><trkpt lat="44.39058586264878" lon="11.542796160089154"><ele>187.0</ele><time>2026-05-01T09:56:04Z</time></trkpt><trkpt lat="44.3905151717348" lon="11.542777600647291"><ele>187.0</ele><time>2026-05-01T09:56:07Z</time></trkpt><trkpt lat="44.39045206706333" lon="11.542746074775744"><ele>187.0</ele><time>2026-05-01T09:56:10Z</time></trkpt><trkpt lat="44.39038561793271" lon="11.542714438492593"><ele>187.0</ele><time>2026-05-01T09:56:14Z</time></trkpt><trkpt lat="44.39031795557959" lon="11.54270415824497"><ele>187.0</ele><time>2026-05-01T09:56:18Z</time></trkpt><trkpt lat="44.39025035575793" lon="11.542675466110556"><ele>187.5</ele><time>2026-05-01T09:56:22Z</time></trkpt><trkpt lat="44.39017319638179" lon="11.542665718426083"><ele>188.0</ele><time>2026-05-01T09:56:26Z</time></trkpt><trkpt lat="44.39009965738154" lon="11.542635564830949"><ele>188.5</ele><time>2026-05-01T09:56:30Z</time></trkpt><trkpt lat="44.39002525993374" lon="11.542635205206912"><ele>189.0</ele><time>2026-05-01T09:56:34Z</time></trkpt><trkpt lat="44.389951532945986" lon="11.54262803582746"><ele>189.5</ele><time>2026-05-01T09:56:38Z</time></trkpt><trkpt lat="44.389867919057735" lon="11.542637066285273"><ele>190.0</ele><time>2026-05-01T09:56:42Z</time></trkpt><trkpt lat="44.38980161501207" lon="11.542642701809207"><ele>190.0</ele><time>2026-05-01T09:56:45Z</time></trkpt><trkpt lat="44.389732472232886" lon="11.54266030134932"><ele>190.0</ele><time>2026-05-01T09:56:48Z</time></trkpt><trkpt lat="44.38966974069469" lon="11.542682322760886"><ele>190.0</ele><time>2026-05-01T09:56:51Z</time></trkpt><trkpt lat="44.3896053776242" lon="11.542713217935317"><ele>190.0</ele><time>2026-05-01T09:56:54Z</time></trkpt><trkpt lat="44.38953760490169" lon="11.542712244391783"><ele>190.0</ele><time>2026-05-01T09:56:57Z</time></trkpt><trkpt lat="44.38946183518865" lon="11.542739547917227"><ele>190.0</ele><time>2026-05-01T09:57:00Z</time></trkpt><trkpt lat="44.38939170080555" lon="11.542752629030138"><ele>190.0</ele><time>2026-05-01T09:57:03Z</time></trkpt><trkpt lat="44.389317462245245" lon="11.542767883115571"><ele>190.5</ele><time>2026-05-01T09:57:06Z</time></trkpt><trkpt lat="44.38924434099328" lon="11.542799177607995"><ele>191.0</ele><time>2026-05-01T09:57:09Z</time></trkpt><trkpt lat="44.38916516209255" lon="11.542837420310242"><ele>191.5</ele><time>2026-05-01T09:57:12Z</time></trkpt><trkpt lat="44.389089643496156" lon="11.542875151130692"><ele>192.0</ele><time>2026-05-01T09:57:15Z</time></trkpt><trkpt lat="44.38901497150038" lon="11.54286244476154"><ele>192.49999999999997</ele><time>2026-05-01T09:57:18Z</time></trkpt><trkpt lat="44.38893712252173" lon="11.542892012380834"><ele>193.0</ele><time>2026-05-01T09:57:22Z</time></trkpt><trkpt lat="44.3888616320454" lon="11.542914019287744"><ele>194.71428571428572</ele><time>2026-05-01T09:57:26Z</time></trkpt><trkpt lat="44.388790412526696" lon="11.542923090888028"><ele>196.42857142857144</ele><time>2026-05-01T09:57:29.999Z</time></trkpt><trkpt lat="44.38872165952748" lon="11.54294490101651"><ele>198.14285714285717</ele><time>2026-05-01T09:57:33.999Z</time></trkpt><trkpt lat="44.388654873849255" lon="11.542961408023844"><ele>199.85714285714286</ele><time>2026-05-01T09:57:38Z</time></trkpt><trkpt lat="44.388588427699325" lon="11.54296600325081"><ele>201.57142857142856</ele><time>2026-05-01T09:57:42Z</time></trkpt><trkpt lat="44.38852302173501" lon="11.542987367683178"><ele>203.2857142857143</ele><time>2026-05-01T09:57:46Z</time></trkpt><trkpt lat="44.38846007449391" lon="11.543016594000779"><ele>205.0</ele><time>2026-05-01T09:57:50Z</time></trkpt><trkpt lat="44.38839222502321" lon="11.543017904734214"><ele>205.0</ele><time>2026-05-01T09:57:54Z</time></trkpt><trkpt lat="44.38832764154454" lon="11.54303957231484"><ele>205.0</ele><time>2026-05-01T09:57:58Z</time></trkpt><trkpt lat="44.38825303592981" lon="11.543070864732654"><ele>205.0</ele><time>2026-05-01T09:58:03Z</time></trkpt><trkpt lat="44.388190142007666" lon="11.54307522927679"><ele>205.0</ele><time>2026-05-01T09:58:07Z</time></trkpt><trkpt lat="44.38812495257191" lon="11.54310777482556"><ele>205.0</ele><time>2026-05-01T09:58:11Z</time></trkpt><trkpt lat="44.38806022671482" lon="11.54315068039623"><ele>205.0</ele><time>2026-05-01T09:58:15Z</time></trkpt><trkpt lat="44.38798676121314" lon="11.543159215677887"><ele>205.0</ele><time>2026-05-01T09:58:19Z</time></trkpt><trkpt lat="44.38791096000326" lon="11.543185770693508"><ele>206.14285714285714</ele><time>2026-05-01T09:58:23Z</time></trkpt><trkpt lat="44.387831037472864" lon="11.543208303045281"><ele>207.28571428571428</ele><time>2026-05-01T09:58:27Z</time></trkpt><trkpt lat="44.38776458559755" lon="11.543232468078717"><ele>208.42857142857142</ele><time>2026-05-01T09:58:30Z</time></trkpt><trkpt lat="44.38769643091241" lon="11.543245040910094"><ele>209.57142857142856</ele><time>2026-05-01T09:58:33Z</time></trkpt><trkpt lat="44.38762539768378" lon="11.543266544899604"><ele>210.71428571428572</ele><time>2026-05-01T09:58:36Z</time></trkpt><trkpt lat="44.38755787915899" lon="11.543283673361127"><ele>211.85714285714283</ele><time>2026-05-01T09:58:39Z</time></trkpt><trkpt lat="44.3874896003248" lon="11.543313429820184"><ele>213.0</ele><time>2026-05-01T09:58:42Z</time></trkpt><trkpt lat="44.38741591754499" lon="11.543318975531815"><ele>213.0</ele><time>2026-05-01T09:58:45Z</time></trkpt><trkpt lat="44.38734466079265" lon="11.54334335064968"><ele>213.0</ele><time>2026-05-01T09:58:48Z</time></trkpt><trkpt lat="44.38727845258785" lon="11.54336853064805"><ele>213.0</ele><time>2026-05-01T09:58:51Z</time></trkpt><trkpt lat="44.38720534723516" lon="11.543400866584225"><ele>213.0</ele><time>2026-05-01T09:58:54Z</time></trkpt><trkpt lat="44.38712019008208" lon="11.543397002849598"><ele>213.0</ele><time>2026-05-01T09:58:57Z</time></trkpt><trkpt lat="44.38702575205239" lon="11.543400885367989"><ele>213.0</ele><time>2026-05-01T09:59:00Z</time></trkpt><trkpt lat="44.38696057730833" lon="11.543391472853083"><ele>213.14285714285714</ele><time>2026-05-01T09:59:02Z</time></trkpt><trkpt lat="44.38688134679897" lon="11.543383749735868"><ele>213.28571428571428</ele><time>2026-05-01T09:59:05Z</time></trkpt><trkpt lat="44.386812327705705" lon="11.543360416302415"><ele>213.42857142857144</ele><time>2026-05-01T09:59:08Z</time></trkpt><trkpt lat="44.38673053781549" lon="11.5433356635967"><ele>213.57142857142856</ele><time>2026-05-01T09:59:11Z</time></trkpt><trkpt lat="44.3866682891172" lon="11.543308771555001"><ele>213.71428571428572</ele><time>2026-05-01T09:59:13Z</time></trkpt><trkpt lat="44.386596304448005" lon="11.543290814178482"><ele>213.85714285714286</ele><time>2026-05-01T09:59:15Z</time></trkpt><trkpt lat="44.38652790213532" lon="11.543264170383258"><ele>214.0</ele><time>2026-05-01T09:59:17Z</time></trkpt><trkpt lat="44.386463396365656" lon="11.54324471775706"><ele>213.99999999999997</ele><time>2026-05-01T09:59:18.999Z</time></trkpt><trkpt lat="44.38639819962513" lon="11.543219478014535"><ele>214.0</ele><time>2026-05-01T09:59:20.999Z</time></trkpt><trkpt lat="44.386333750435284" lon="11.543201627172232"><ele>214.0</ele><time>2026-05-01T09:59:22.999Z</time></trkpt><trkpt lat="44.386245829769976" lon="11.543161506668769"><ele>214.0</ele><time>2026-05-01T09:59:25.999Z</time></trkpt><trkpt lat="44.38615772379567" lon="11.543135148075466"><ele>213.99999999999997</ele><time>2026-05-01T09:59:28.999Z</time></trkpt><trkpt lat="44.38606795741351" lon="11.543098968127778"><ele>214.0</ele><time>2026-05-01T09:59:31.999Z</time></trkpt><trkpt lat="44.386004934576704" lon="11.543077006023768"><ele>214.66666666666666</ele><time>2026-05-01T09:59:33.999Z</time></trkpt><trkpt lat="44.38592335849735" lon="11.543040341935079"><ele>215.33333333333331</ele><time>2026-05-01T09:59:36.999Z</time></trkpt><trkpt lat="44.38584953533912" lon="11.543004689027837"><ele>216.0</ele><time>2026-05-01T09:59:39.999Z</time></trkpt><trkpt lat="44.38577955741316" lon="11.5429868971688"><ele>216.66666666666669</ele><time>2026-05-01T09:59:43Z</time></trkpt><trkpt lat="44.38571019002035" lon="11.542974742932074"><ele>217.33333333333334</ele><time>2026-05-01T09:59:46Z</time></trkpt><trkpt lat="44.38563269043474" lon="11.543004571118741"><ele>218.0</ele><time>2026-05-01T09:59:50Z</time></trkpt><trkpt lat="44.38555959219974" lon="11.543008566706416"><ele>218.16666666666669</ele><time>2026-05-01T09:59:54Z</time></trkpt><trkpt lat="44.385491602646674" lon="11.542986665015093"><ele>218.33333333333334</ele><time>2026-05-01T09:59:58Z</time></trkpt><trkpt lat="44.38541862752911" lon="11.542965866019063"><ele>218.5</ele><time>2026-05-01T10:00:02Z</time></trkpt><trkpt lat="44.38534829202804" lon="11.542940523843422"><ele>218.66666666666669</ele><time>2026-05-01T10:00:06Z</time></trkpt><trkpt lat="44.38527035192358" lon="11.542918168424206"><ele>218.83333333333334</ele><time>2026-05-01T10:00:10Z</time></trkpt><trkpt lat="44.38519509619974" lon="11.542864183264221"><ele>219.0</ele><time>2026-05-01T10:00:14Z</time></trkpt><trkpt lat="44.38513467932888" lon="11.542800120822582"><ele>219.0</ele><time>2026-05-01T10:00:17Z</time></trkpt><trkpt lat="44.38507818968302" lon="11.542722276649053"><ele>219.0</ele><time>2026-05-01T10:00:21Z</time></trkpt><trkpt lat="44.384999518202356" lon="11.54269860450828"><ele>219.0</ele><time>2026-05-01T10:00:25Z</time></trkpt><trkpt lat="44.384923526883746" lon="11.542692379660465"><ele>219.0</ele><time>2026-05-01T10:00:29Z</time></trkpt><trkpt lat="44.38484338253562" lon="11.542678523123168"><ele>219.0</ele><time>2026-05-01T10:00:33Z</time></trkpt><trkpt lat="44.384759101376346" lon="11.542679346391598"><ele>219.0</ele><time>2026-05-01T10:00:37Z</time></trkpt><trkpt lat="44.384692897195265" lon="11.542684322150913"><ele>219.85714285714286</ele><time>2026-05-01T10:00:40Z</time></trkpt><trkpt lat="44.384619963103056" lon="11.54268332116369"><ele>220.71428571428572</ele><time>2026-05-01T10:00:43Z</time></trkpt><trkpt lat="44.38454863915223" lon="11.54268393261701"><ele>221.57142857142858</ele><time>2026-05-01T10:00:46Z</time></trkpt><trkpt lat="44.38447742919585" lon="11.542690976042874"><ele>222.42857142857144</ele><time>2026-05-01T10:00:49Z</time></trkpt><trkpt lat="44.384406203000154" lon="11.54271686106066"><ele>223.28571428571428</ele><time>2026-05-01T10:00:52Z</time></trkpt><trkpt lat="44.38434120152254" lon="11.542706730112895"><ele>224.14285714285717</ele><time>2026-05-01T10:00:54Z</time></trkpt><trkpt lat="44.38425576807603" lon="11.542720233877766"><ele>225.00000000000003</ele><time>2026-05-01T10:00:56Z</time></trkpt><trkpt lat="44.38417436218521" lon="11.542714777858459"><ele>225.0</ele><time>2026-05-01T10:00:59Z</time></trkpt><trkpt lat="44.38411048398688" lon="11.542710620188238"><ele>225.0</ele><time>2026-05-01T10:01:01Z</time></trkpt><trkpt lat="44.38401708868261" lon="11.542714771848303"><ele>225.0</ele><time>2026-05-01T10:01:04Z</time></trkpt><trkpt lat="44.384999518202356" lon="11.54269860450828"><ele>225.0</ele><time>2026-05-01T10:00:25Z</time></trkpt><trkpt lat="44.384923526883746" lon="11.542692379660465"><ele>225.0</ele><time>2026-05-01T10:00:29Z</time></trkpt><trkpt lat="44.38484338253562" lon="11.542678523123168"><ele>225.0</ele><time>2026-05-01T10:00:33Z</time></trkpt><trkpt lat="44.384759101376346" lon="11.542679346391598"><ele>225.0</ele><time>2026-05-01T10:00:37Z</time></trkpt><trkpt lat="44.384692897195265" lon="11.542684322150913"><ele>225.0</ele><time>2026-05-01T10:00:40Z</time></trkpt><trkpt lat="44.384619963103056" lon="11.54268332116369"><ele>225.0</ele><time>2026-05-01T10:00:43Z</time></trkpt><trkpt lat="44.38454863915223" lon="11.54268393261701"><ele>225.00000000000003</ele><time>2026-05-01T10:00:46Z</time></trkpt><trkpt lat="44.38447742919585" lon="11.542690976042874"><ele>225.0</ele><time>2026-05-01T10:00:49Z</time></trkpt><trkpt lat="44.384406203000154" lon="11.54271686106066"><ele>225.00000000000003</ele><time>2026-05-01T10:00:52Z</time></trkpt><trkpt lat="44.38434120152254" lon="11.542706730112895"><ele>225.00000000000003</ele><time>2026-05-01T10:00:54Z</time></trkpt><trkpt lat="44.38425576807603" lon="11.542720233877766"><ele>225.0</ele><time>2026-05-01T10:00:56Z</time></trkpt><trkpt lat="44.38417436218521" lon="11.542714777858459"><ele>225.00000000000003</ele><time>2026-05-01T10:00:59Z</time></trkpt><trkpt lat="44.38411048398688" lon="11.542710620188238"><ele>225.00000000000003</ele><time>2026-05-01T10:01:01Z</time></trkpt><trkpt lat="44.38401708868261" lon="11.542714771848303"><ele>225.00000000000003</ele><time>2026-05-01T10:01:04Z</time></trkpt><trkpt lat="44.383952352440865" lon="11.542710254210848"><ele>225.0</ele><time>2026-05-01T10:01:06Z</time></trkpt><trkpt lat="44.38388962116514" lon="11.542691420456869"><ele>225.00000000000003</ele><time>2026-05-01T10:01:08Z</time></trkpt><trkpt lat="44.38382517757695" lon="11.542666471608213"><ele>225.00000000000003</ele><time>2026-05-01T10:01:10Z</time></trkpt><trkpt lat="44.38375580968951" lon="11.542644061495462"><ele>225.0</ele><time>2026-05-01T10:01:12Z</time></trkpt><trkpt lat="44.38368550593106" lon="11.542605419747954"><ele>225.00000000000003</ele><time>2026-05-01T10:01:14Z</time></trkpt><trkpt lat="44.38362205833047" lon="11.542546440916402"><ele>225.00000000000003</ele><time>2026-05-01T10:01:16Z</time></trkpt><trkpt lat="44.38355441769264" lon="11.542479415195416"><ele>225.33333333333334</ele><time>2026-05-01T10:01:18Z</time></trkpt><trkpt lat="44.38347550970192" lon="11.542425029583535"><ele>225.66666666666669</ele><time>2026-05-01T10:01:20Z</time></trkpt><trkpt lat="44.383395944269836" lon="11.542379153664362"><ele>226.0</ele><time>2026-05-01T10:01:22Z</time></trkpt><trkpt lat="44.38332409768615" lon="11.542317932913917"><ele>226.33333333333334</ele><time>2026-05-01T10:01:24Z</time></trkpt><trkpt lat="44.38325597058847" lon="11.542279477683998"><ele>226.66666666666669</ele><time>2026-05-01T10:01:26Z</time></trkpt><trkpt lat="44.38318517514862" lon="11.542242919062613"><ele>227.0</ele><time>2026-05-01T10:01:28Z</time></trkpt><trkpt lat="44.38312171202314" lon="11.542189125365839"><ele>227.0</ele><time>2026-05-01T10:01:30Z</time></trkpt><trkpt lat="44.383050309170784" lon="11.542138455886514"><ele>227.0</ele><time>2026-05-01T10:01:31.999Z</time></trkpt><trkpt lat="44.38297092343095" lon="11.54211528651485"><ele>227.0</ele><time>2026-05-01T10:01:33.999Z</time></trkpt><trkpt lat="44.382878833162806" lon="11.542109043925828"><ele>227.0</ele><time>2026-05-01T10:01:35.999Z</time></trkpt><trkpt lat="44.38278062963915" lon="11.542151943295064"><ele>227.0</ele><time>2026-05-01T10:01:37.999Z</time></trkpt><trkpt lat="44.382677486497236" lon="11.542200302179873"><ele>226.39999999999998</ele><time>2026-05-01T10:01:39.999Z</time></trkpt><trkpt lat="44.38261710613632" lon="11.542235998062736"><ele>225.79999999999998</ele><time>2026-05-01T10:01:40.999Z</time></trkpt><trkpt lat="44.382500771451284" lon="11.542298949303744"><ele>225.2</ele><time>2026-05-01T10:01:42.999Z</time></trkpt><trkpt lat="44.38238744157719" lon="11.542375321608297"><ele>224.6</ele><time>2026-05-01T10:01:44.999Z</time></trkpt><trkpt lat="44.38232899823016" lon="11.542409743185294"><ele>224.0</ele><time>2026-05-01T10:01:45.999Z</time></trkpt><trkpt lat="44.382214385576155" lon="11.542474401153573"><ele>224.6</ele><time>2026-05-01T10:01:47.999Z</time></trkpt><trkpt lat="44.382103138343446" lon="11.542551619320239"><ele>225.2</ele><time>2026-05-01T10:01:50Z</time></trkpt><trkpt lat="44.382046197607934" lon="11.542598050432"><ele>225.79999999999998</ele><time>2026-05-01T10:01:51Z</time></trkpt><trkpt lat="44.38194346989101" lon="11.542667134923361"><ele>226.39999999999998</ele><time>2026-05-01T10:01:53Z</time></trkpt><trkpt lat="44.38184495209435" lon="11.542717704144204"><ele>227.0</ele><time>2026-05-01T10:01:55Z</time></trkpt><trkpt lat="44.38175683925618" lon="11.54275506529862"><ele>227.00000000000003</ele><time>2026-05-01T10:01:57Z</time></trkpt><trkpt lat="44.38167333129311" lon="11.542804939908091"><ele>227.0</ele><time>2026-05-01T10:01:59Z</time></trkpt><trkpt lat="44.381581907718" lon="11.54284836020025"><ele>227.0</ele><time>2026-05-01T10:02:01Z</time></trkpt><trkpt lat="44.38150717082442" lon="11.542881947295502"><ele>227.0</ele><time>2026-05-01T10:02:03Z</time></trkpt><trkpt lat="44.38142735085241" lon="11.542915532465587"><ele>227.00000000000003</ele><time>2026-05-01T10:02:05Z</time></trkpt><trkpt lat="44.38135935698633" lon="11.542967316502716"><ele>227.0</ele><time>2026-05-01T10:02:07Z</time></trkpt><trkpt lat="44.381291331600764" lon="11.543014515167048"><ele>226.66666666666669</ele><time>2026-05-01T10:02:09Z</time></trkpt><trkpt lat="44.3812169346323" lon="11.543060001083314"><ele>226.33333333333334</ele><time>2026-05-01T10:02:11Z</time></trkpt><trkpt lat="44.381150820576" lon="11.543098594651557"><ele>226.0</ele><time>2026-05-01T10:02:13Z</time></trkpt><trkpt lat="44.38109045674961" lon="11.543131225319245"><ele>225.66666666666669</ele><time>2026-05-01T10:02:15Z</time></trkpt><trkpt lat="44.38103154964394" lon="11.543169154588744"><ele>225.33333333333334</ele><time>2026-05-01T10:02:17Z</time></trkpt><trkpt lat="44.38094213245525" lon="11.543200223544451"><ele>225.0</ele><time>2026-05-01T10:02:20Z</time></trkpt><trkpt lat="44.380855478543786" lon="11.543241690837961"><ele>225.0</ele><time>2026-05-01T10:02:23Z</time></trkpt><trkpt lat="44.38077703502014" lon="11.543304693815257"><ele>225.0</ele><time>2026-05-01T10:02:26Z</time></trkpt><trkpt lat="44.38069125272184" lon="11.543349725797642"><ele>225.0</ele><time>2026-05-01T10:02:29Z</time></trkpt><trkpt lat="44.38061721423687" lon="11.543389272863891"><ele>225.0</ele><time>2026-05-01T10:02:32Z</time></trkpt><trkpt lat="44.38054495055533" lon="11.543454299081855"><ele>225.0</ele><time>2026-05-01T10:02:35Z</time></trkpt><trkpt lat="44.38045955463827" lon="11.543478177900074"><ele>225.0</ele><time>2026-05-01T10:02:38Z</time></trkpt><trkpt lat="44.38037855963734" lon="11.54351726027254"><ele>225.5</ele><time>2026-05-01T10:02:41Z</time></trkpt><trkpt lat="44.380303580782034" lon="11.543565460857195"><ele>226.0</ele><time>2026-05-01T10:02:44Z</time></trkpt><trkpt lat="44.380229367378696" lon="11.543607802529698"><ele>226.5</ele><time>2026-05-01T10:02:47Z</time></trkpt><trkpt lat="44.38015644636718" lon="11.543655832161338"><ele>227.0</ele><time>2026-05-01T10:02:50Z</time></trkpt><trkpt lat="44.38008054744588" lon="11.543688863888"><ele>227.5</ele><time>2026-05-01T10:02:53Z</time></trkpt><trkpt lat="44.38000638491809" lon="11.543738561258584"><ele>228.0</ele><time>2026-05-01T10:02:56Z</time></trkpt><trkpt lat="44.37993305094671" lon="11.543784826246608"><ele>228.0</ele><time>2026-05-01T10:02:59Z</time></trkpt><trkpt lat="44.379857089519895" lon="11.54382712537614"><ele>228.0</ele><time>2026-05-01T10:03:02Z</time></trkpt><trkpt lat="44.37978387284309" lon="11.543873901114015"><ele>228.0</ele><time>2026-05-01T10:03:05Z</time></trkpt><trkpt lat="44.37971016781456" lon="11.543935603330787"><ele>228.0</ele><time>2026-05-01T10:03:08Z</time></trkpt><trkpt lat="44.37963533349437" lon="11.543997468329744"><ele>228.0</ele><time>2026-05-01T10:03:11Z</time></trkpt><trkpt lat="44.37956184836872" lon="11.544071087456635"><ele>228.0</ele><time>2026-05-01T10:03:14Z</time></trkpt><trkpt lat="44.37949646651974" lon="11.544156375303844"><ele>229.14285714285714</ele><time>2026-05-01T10:03:17Z</time></trkpt><trkpt lat="44.37942782141024" lon="11.544220721612762"><ele>230.28571428571428</ele><time>2026-05-01T10:03:20Z</time></trkpt><trkpt lat="44.379370731536106" lon="11.544294211314936"><ele>231.42857142857142</ele><time>2026-05-01T10:03:22.999Z</time></trkpt><trkpt lat="44.37931622979403" lon="11.54436646416472"><ele>232.57142857142856</ele><time>2026-05-01T10:03:25.999Z</time></trkpt><trkpt lat="44.379258182627204" lon="11.544428077201255"><ele>233.71428571428572</ele><time>2026-05-01T10:03:28.999Z</time></trkpt><trkpt lat="44.379207427855306" lon="11.544496074076717"><ele>234.85714285714283</ele><time>2026-05-01T10:03:31.999Z</time></trkpt><trkpt lat="44.37915270738451" lon="11.544556962994106"><ele>236.0</ele><time>2026-05-01T10:03:34.999Z</time></trkpt><trkpt lat="44.379096796800845" lon="11.544617134911377"><ele>236.00000000000003</ele><time>2026-05-01T10:03:37.999Z</time></trkpt><trkpt lat="44.37904816124147" lon="11.54468329144819"><ele>236.0</ele><time>2026-05-01T10:03:40.999Z</time></trkpt><trkpt lat="44.37898065445621" lon="11.544749186243553"><ele>236.0</ele><time>2026-05-01T10:03:44.999Z</time></trkpt><trkpt lat="44.378930184156836" lon="11.544828964776567"><ele>236.0</ele><time>2026-05-01T10:03:48.999Z</time></trkpt><trkpt lat="44.378882805495486" lon="11.54491073074778"><ele>236.00000000000003</ele><time>2026-05-01T10:03:52.999Z</time></trkpt><trkpt lat="44.37885220790611" lon="11.545019833452255"><ele>236.0</ele><time>2026-05-01T10:03:57Z</time></trkpt><trkpt lat="44.37885659745459" lon="11.545136818382668"><ele>236.0</ele><time>2026-05-01T10:04:01Z</time></trkpt><trkpt lat="44.378876168533914" lon="11.545231996634586"><ele>236.0</ele><time>2026-05-01T10:04:04Z</time></trkpt><trkpt lat="44.378900599353024" lon="11.545334242511226"><ele>236.0</ele><time>2026-05-01T10:04:07Z</time></trkpt><trkpt lat="44.37893170149873" lon="11.545418357749805"><ele>236.0</ele><time>2026-05-01T10:04:10Z</time></trkpt><trkpt lat="44.378973646538036" lon="11.54550130605466"><ele>236.0</ele><time>2026-05-01T10:04:13Z</time></trkpt><trkpt lat="44.37899263495634" lon="11.545589791123831"><ele>236.0</ele><time>2026-05-01T10:04:16Z</time></trkpt><trkpt lat="44.379014797595005" lon="11.54567562711767"><ele>236.0</ele><time>2026-05-01T10:04:19Z</time></trkpt><trkpt lat="44.37905269840833" lon="11.545779341286103"><ele>236.71428571428572</ele><time>2026-05-01T10:04:23Z</time></trkpt><trkpt lat="44.379071509134214" lon="11.545864435692081"><ele>237.42857142857144</ele><time>2026-05-01T10:04:26Z</time></trkpt><trkpt lat="44.37910959490501" lon="11.545967499387991"><ele>238.14285714285717</ele><time>2026-05-01T10:04:30Z</time></trkpt><trkpt lat="44.37913665715384" lon="11.54605226895658"><ele>238.85714285714286</ele><time>2026-05-01T10:04:33Z</time></trkpt><trkpt lat="44.37914852011655" lon="11.54614485619389"><ele>239.5714285714286</ele><time>2026-05-01T10:04:36Z</time></trkpt><trkpt lat="44.37917002655862" lon="11.546233372418062"><ele>240.2857142857143</ele><time>2026-05-01T10:04:39Z</time></trkpt><trkpt lat="44.379189889867526" lon="11.546331922585896"><ele>241.0</ele><time>2026-05-01T10:04:42Z</time></trkpt><trkpt lat="44.37920359967406" lon="11.546437632355671"><ele>241.66666666666666</ele><time>2026-05-01T10:04:45Z</time></trkpt><trkpt lat="44.37920940506694" lon="11.546551298553943"><ele>242.33333333333331</ele><time>2026-05-01T10:04:48Z</time></trkpt><trkpt lat="44.379218364208604" lon="11.546666383879916"><ele>243.0</ele><time>2026-05-01T10:04:51Z</time></trkpt><trkpt lat="44.379229830371834" lon="11.5467822521553"><ele>243.66666666666669</ele><time>2026-05-01T10:04:54Z</time></trkpt><trkpt lat="44.3792170789747" lon="11.546913200041146"><ele>244.33333333333334</ele><time>2026-05-01T10:04:57Z</time></trkpt><trkpt lat="44.37921662378842" lon="11.547034992968808"><ele>245.0</ele><time>2026-05-01T10:05:00Z</time></trkpt><trkpt lat="44.37921173487803" lon="11.547126961290877"><ele>245.0</ele><time>2026-05-01T10:05:03Z</time></trkpt><trkpt lat="44.37920581525415" lon="11.54721518727497"><ele>245.0</ele><time>2026-05-01T10:05:07Z</time></trkpt><trkpt lat="44.37917393611414" lon="11.547326612011709"><ele>245.0</ele><time>2026-05-01T10:05:11Z</time></trkpt><trkpt lat="44.37910317700606" lon="11.547321404185398"><ele>245.0</ele><time>2026-05-01T10:05:14Z</time></trkpt><trkpt lat="44.37904290910266" lon="11.547272862181083"><ele>245.0</ele><time>2026-05-01T10:05:17Z</time></trkpt><trkpt lat="44.37897855937702" lon="11.547223032715015"><ele>245.0</ele><time>2026-05-01T10:05:20Z</time></trkpt><trkpt lat="44.37890337189836" lon="11.547174667675483"><ele>245.0</ele><time>2026-05-01T10:05:23Z</time></trkpt><trkpt lat="44.37882639072128" lon="11.547141973890234"><ele>246.16666666666669</ele><time>2026-05-01T10:05:26Z</time></trkpt><trkpt lat="44.37875456057802" lon="11.547100368211494"><ele>247.33333333333334</ele><time>2026-05-01T10:05:29Z</time></trkpt><trkpt lat="44.37868233201033" lon="11.547105098603451"><ele>248.5</ele><time>2026-05-01T10:05:31Z</time></trkpt><trkpt lat="44.378589561317455" lon="11.547116668060534"><ele>249.66666666666669</ele><time>2026-05-01T10:05:33Z</time></trkpt><trkpt lat="44.37849544538462" lon="11.547145025213007"><ele>250.83333333333334</ele><time>2026-05-01T10:05:35Z</time></trkpt><trkpt lat="44.37839707960952" lon="11.5471946386337"><ele>252.0</ele><time>2026-05-01T10:05:36.999Z</time></trkpt><trkpt lat="44.378302998266854" lon="11.54724842614951"><ele>252.0</ele><time>2026-05-01T10:05:38.999Z</time></trkpt><trkpt lat="44.37822578048275" lon="11.547307453136318"><ele>252.0</ele><time>2026-05-01T10:05:40.999Z</time></trkpt><trkpt lat="44.37814598764732" lon="11.54734951550489"><ele>252.0</ele><time>2026-05-01T10:05:42.999Z</time></trkpt><trkpt lat="44.37807763158319" lon="11.547368963910351"><ele>252.0</ele><time>2026-05-01T10:05:44.999Z</time></trkpt><trkpt lat="44.377991540465835" lon="11.547391413246304"><ele>252.0</ele><time>2026-05-01T10:05:47.999Z</time></trkpt><trkpt lat="44.37792744114619" lon="11.547412427364629"><ele>252.0</ele><time>2026-05-01T10:05:50.999Z</time></trkpt><trkpt lat="44.37785384550672" lon="11.547421004543056"><ele>252.85714285714286</ele><time>2026-05-01T10:05:55.999Z</time></trkpt><trkpt lat="44.37777723115184" lon="11.54744291426657"><ele>253.71428571428572</ele><time>2026-05-01T10:06:01Z</time></trkpt><trkpt lat="44.37769229339059" lon="11.54744007575836"><ele>254.57142857142856</ele><time>2026-05-01T10:06:06Z</time></trkpt><trkpt lat="44.37762793468779" lon="11.547451989108565"><ele>255.42857142857142</ele><time>2026-05-01T10:06:11Z</time></trkpt><trkpt lat="44.37754257669491" lon="11.547449305016485"><ele>256.2857142857143</ele><time>2026-05-01T10:06:16Z</time></trkpt><trkpt lat="44.37747972362538" lon="11.547439012398133"><ele>257.1428571428571</ele><time>2026-05-01T10:06:20Z</time></trkpt><trkpt lat="44.37741216627011" lon="11.547440280278114"><ele>258.0</ele><time>2026-05-01T10:06:25Z</time></trkpt><trkpt lat="44.37734473636102" lon="11.547452065433038"><ele>258.0</ele><time>2026-05-01T10:06:29Z</time></trkpt><trkpt lat="44.37727237106055" lon="11.547476914154545"><ele>258.0</ele><time>2026-05-01T10:06:34Z</time></trkpt><trkpt lat="44.37720929446035" lon="11.547446116570754"><ele>258.0</ele><time>2026-05-01T10:06:37Z</time></trkpt><trkpt lat="44.37713889685545" lon="11.547449233055387"><ele>258.0</ele><time>2026-05-01T10:06:39Z</time></trkpt><trkpt lat="44.37705374310183" lon="11.547440673455837"><ele>258.0</ele><time>2026-05-01T10:06:42Z</time></trkpt><trkpt lat="44.37697941332951" lon="11.547443180126738"><ele>258.0</ele><time>2026-05-01T10:06:44Z</time></trkpt><trkpt lat="44.37689368468747" lon="11.547461501230941"><ele>258.8333333333333</ele><time>2026-05-01T10:06:46Z</time></trkpt><trkpt lat="44.3767957729139" lon="11.547489305935665"><ele>259.6666666666667</ele><time>2026-05-01T10:06:48Z</time></trkpt><trkpt lat="44.376702369938975" lon="11.547532956716957"><ele>260.5</ele><time>2026-05-01T10:06:50Z</time></trkpt><trkpt lat="44.376629941894485" lon="11.547562936278192"><ele>261.33333333333337</ele><time>2026-05-01T10:06:52Z</time></trkpt><trkpt lat="44.37657112494196" lon="11.547611944496415"><ele>262.1666666666667</ele><time>2026-05-01T10:06:54Z</time></trkpt><trkpt lat="44.376507600828276" lon="11.547647821457645"><ele>263.0</ele><time>2026-05-01T10:06:56Z</time></trkpt><trkpt lat="44.376428361875426" lon="11.547706836543687"><ele>263.0</ele><time>2026-05-01T10:06:59Z</time></trkpt><trkpt lat="44.376356128439376" lon="11.547760316534971"><ele>263.0</ele><time>2026-05-01T10:07:02Z</time></trkpt><trkpt lat="44.37628942341891" lon="11.547800924492218"><ele>263.0</ele><time>2026-05-01T10:07:05Z</time></trkpt><trkpt lat="44.37622416053068" lon="11.547849226726857"><ele>263.0</ele><time>2026-05-01T10:07:08Z</time></trkpt><trkpt lat="44.37616498465754" lon="11.547888783402993"><ele>263.0</ele><time>2026-05-01T10:07:11Z</time></trkpt><trkpt lat="44.37609176383076" lon="11.547932282487686"><ele>263.0</ele><time>2026-05-01T10:07:15Z</time></trkpt><trkpt lat="44.37601561576395" lon="11.547983124624986"><ele>262.6666666666667</ele><time>2026-05-01T10:07:19Z</time></trkpt><trkpt lat="44.37594989460604" lon="11.548023361772417"><ele>262.33333333333337</ele><time>2026-05-01T10:07:22Z</time></trkpt><trkpt lat="44.37587801799077" lon="11.548066867502959"><ele>262.0</ele><time>2026-05-01T10:07:25Z</time></trkpt><trkpt lat="44.375801266465984" lon="11.548113584106288"><ele>261.6666666666667</ele><time>2026-05-01T10:07:28Z</time></trkpt><trkpt lat="44.37574061564231" lon="11.548156960927336"><ele>261.3333333333333</ele><time>2026-05-01T10:07:30Z</time></trkpt><trkpt lat="44.37566983692373" lon="11.548194469436718"><ele>261.0</ele><time>2026-05-01T10:07:32Z</time></trkpt><trkpt lat="44.375602633814964" lon="11.548237413127728"><ele>261.0</ele><time>2026-05-01T10:07:34Z</time></trkpt><trkpt lat="44.37553572786832" lon="11.548285378610693"><ele>261.0</ele><time>2026-05-01T10:07:36Z</time></trkpt><trkpt lat="44.37546236053282" lon="11.548323275007135"><ele>261.0</ele><time>2026-05-01T10:07:38Z</time></trkpt><trkpt lat="44.37539771830759" lon="11.548368843607507"><ele>261.0</ele><time>2026-05-01T10:07:40Z</time></trkpt><trkpt lat="44.375335649465455" lon="11.548412378708903"><ele>261.0</ele><time>2026-05-01T10:07:41.999Z</time></trkpt><trkpt lat="44.375250125022525" lon="11.548453818351105"><ele>261.0</ele><time>2026-05-01T10:07:44.999Z</time></trkpt><trkpt lat="44.375173363989745" lon="11.548495386015588"><ele>261.7142857142857</ele><time>2026-05-01T10:07:47.999Z</time></trkpt><trkpt lat="44.37510544363327" lon="11.548549532372311"><ele>262.42857142857144</ele><time>2026-05-01T10:07:50.999Z</time></trkpt><trkpt lat="44.37502856071473" lon="11.548568878483012"><ele>263.1428571428571</ele><time>2026-05-01T10:07:53.999Z</time></trkpt><trkpt lat="44.37496967413857" lon="11.548602788513724"><ele>263.8571428571429</ele><time>2026-05-01T10:07:56.999Z</time></trkpt><trkpt lat="44.37489804666141" lon="11.548646069849637"><ele>264.57142857142856</ele><time>2026-05-01T10:08:00.999Z</time></trkpt><trkpt lat="44.37483449504739" lon="11.54865503796726"><ele>265.2857142857143</ele><time>2026-05-01T10:08:03.999Z</time></trkpt><trkpt lat="44.37476849199772" lon="11.548672209105785"><ele>266.0</ele><time>2026-05-01T10:08:07Z</time></trkpt><trkpt lat="44.37471122092018" lon="11.548728212921386"><ele>267.0</ele><time>2026-05-01T10:08:10Z</time></trkpt><trkpt lat="44.37465175855135" lon="11.548774229049009"><ele>268.0</ele><time>2026-05-01T10:08:13Z</time></trkpt><trkpt lat="44.37457978841456" lon="11.548829307576696"><ele>269.0</ele><time>2026-05-01T10:08:17Z</time></trkpt><trkpt lat="44.37452104466367" lon="11.548864234420838"><ele>270.0</ele><time>2026-05-01T10:08:20Z</time></trkpt><trkpt lat="44.37447154430575" lon="11.548928671393725"><ele>271.0</ele><time>2026-05-01T10:08:23Z</time></trkpt><trkpt lat="44.374398695296215" lon="11.548978539472207"><ele>272.0</ele><time>2026-05-01T10:10:49Z</time></trkpt><trkpt lat="44.37429527819971" lon="11.548981188077054"><ele>272.0</ele><time>2026-05-01T10:10:52Z</time></trkpt><trkpt lat="44.37419549167878" lon="11.54901037870432"><ele>272.0</ele><time>2026-05-01T10:10:54Z</time></trkpt><trkpt lat="44.37407387197898" lon="11.549050666783428"><ele>272.0</ele><time>2026-05-01T10:10:56Z</time></trkpt><trkpt lat="44.37400096641777" lon="11.549086946997862"><ele>272.0</ele><time>2026-05-01T10:10:57Z</time></trkpt><trkpt lat="44.37392884129465" lon="11.549110804418564"><ele>272.0</ele><time>2026-05-01T10:10:58Z</time></trkpt><trkpt lat="44.37384611130696" lon="11.549141233770971"><ele>271.83333333333337</ele><time>2026-05-01T10:10:59Z</time></trkpt><trkpt lat="44.37377371640373" lon="11.549171753918733"><ele>271.6666666666667</ele><time>2026-05-01T10:11:00Z</time></trkpt><trkpt lat="44.37369478899858" lon="11.54920219847798"><ele>271.5</ele><time>2026-05-01T10:11:01Z</time></trkpt><trkpt lat="44.37361514574079" lon="11.549251021091132"><ele>271.3333333333333</ele><time>2026-05-01T10:11:02Z</time></trkpt><trkpt lat="44.373531040135845" lon="11.54925443187811"><ele>271.16666666666663</ele><time>2026-05-01T10:11:03Z</time></trkpt><trkpt lat="44.373445932438244" lon="11.549269319788639"><ele>271.0</ele><time>2026-05-01T10:11:04Z</time></trkpt><trkpt lat="44.37336065290543" lon="11.54928468360499"><ele>271.0</ele><time>2026-05-01T10:11:05Z</time></trkpt><trkpt lat="44.37324839658908" lon="11.549349329490951"><ele>271.0</ele><time>2026-05-01T10:11:07Z</time></trkpt><trkpt lat="44.373190420311175" lon="11.549427717232387"><ele>271.0</ele><time>2026-05-01T10:11:08Z</time></trkpt><trkpt lat="44.37313776717481" lon="11.549535618740096"><ele>271.0</ele><time>2026-05-01T10:11:09Z</time></trkpt><trkpt lat="44.373095575739676" lon="11.549636749046108"><ele>271.0</ele><time>2026-05-01T10:11:10Z</time></trkpt><trkpt lat="44.37301889712397" lon="11.54970283859997"><ele>268.0</ele><time>2026-05-01T10:11:11Z</time></trkpt><trkpt lat="44.372941793744126" lon="11.549751287828164"><ele>265.0</ele><time>2026-05-01T10:11:12Z</time></trkpt><trkpt lat="44.372855934244384" lon="11.549768562684848"><ele>262.0</ele><time>2026-05-01T10:11:13Z</time></trkpt><trkpt lat="44.372770295507934" lon="11.549788119044148"><ele>259.0</ele><time>2026-05-01T10:11:14Z</time></trkpt><trkpt lat="44.37269193321418" lon="11.549801735435157"><ele>255.99999999999997</ele><time>2026-05-01T10:11:15Z</time></trkpt><trkpt lat="44.37261427825496" lon="11.549815251584565"><ele>253.0</ele><time>2026-05-01T10:11:16Z</time></trkpt><trkpt lat="44.372535849452966" lon="11.549831185351021"><ele>252.99999999999997</ele><time>2026-05-01T10:11:17Z</time></trkpt><trkpt lat="44.37245629695089" lon="11.549865248908656"><ele>253.0</ele><time>2026-05-01T10:11:18Z</time></trkpt><trkpt lat="44.37238966027102" lon="11.549921277394057"><ele>253.0</ele><time>2026-05-01T10:11:19Z</time></trkpt><trkpt lat="44.37230805800568" lon="11.549946488514793"><ele>253.0</ele><time>2026-05-01T10:11:20Z</time></trkpt><trkpt lat="44.37223090618107" lon="11.549993136997752"><ele>252.99999999999997</ele><time>2026-05-01T10:11:21Z</time></trkpt><trkpt lat="44.37215851763729" lon="11.550039341395191"><ele>253.0</ele><time>2026-05-01T10:11:22Z</time></trkpt><trkpt lat="44.37207900628352" lon="11.550077889639473"><ele>252.60000000000002</ele><time>2026-05-01T10:11:23Z</time></trkpt><trkpt lat="44.37199816679878" lon="11.550091199123555"><ele>252.20000000000002</ele><time>2026-05-01T10:11:24Z</time></trkpt><trkpt lat="44.37191074056892" lon="11.55008477411135"><ele>251.8</ele><time>2026-05-01T10:11:25Z</time></trkpt><trkpt lat="44.37180992171432" lon="11.550092882373063"><ele>251.4</ele><time>2026-05-01T10:11:26Z</time></trkpt><trkpt lat="44.37171779490396" lon="11.550083845338925"><ele>251.0</ele><time>2026-05-01T10:11:27Z</time></trkpt><trkpt lat="44.37162867703136" lon="11.550100284944033"><ele>251.0</ele><time>2026-05-01T10:11:28Z</time></trkpt><trkpt lat="44.37153866955961" lon="11.550105894547306"><ele>251.00000000000003</ele><time>2026-05-01T10:11:29Z</time></trkpt><trkpt lat="44.37143920964898" lon="11.55011778184517"><ele>251.00000000000003</ele><time>2026-05-01T10:11:30Z</time></trkpt><trkpt lat="44.371354088081944" lon="11.550109064683932"><ele>251.0</ele><time>2026-05-01T10:11:31Z</time></trkpt><trkpt lat="44.37125176312848" lon="11.55012100544754"><ele>251.0</ele><time>2026-05-01T10:11:32Z</time></trkpt><trkpt lat="44.371153885014195" lon="11.550120851172304"><ele>250.20000000000002</ele><time>2026-05-01T10:11:33Z</time></trkpt><trkpt lat="44.371042211304506" lon="11.55013155207341"><ele>249.40000000000003</ele><time>2026-05-01T10:11:34Z</time></trkpt><trkpt lat="44.370951651590026" lon="11.55016331108374"><ele>248.6</ele><time>2026-05-01T10:11:35Z</time></trkpt><trkpt lat="44.37085070538732" lon="11.550217711105377"><ele>247.8</ele><time>2026-05-01T10:11:36Z</time></trkpt><trkpt lat="44.370753709456544" lon="11.550256922189062"><ele>247.0</ele><time>2026-05-01T10:11:37Z</time></trkpt><trkpt lat="44.370659425702094" lon="11.55028961043011"><ele>247.0</ele><time>2026-05-01T10:11:38Z</time></trkpt><trkpt lat="44.370558972495076" lon="11.550316591184973"><ele>247.0</ele><time>2026-05-01T10:11:39Z</time></trkpt><trkpt lat="44.37046287305748" lon="11.550323925966357"><ele>247.0</ele><time>2026-05-01T10:11:40Z</time></trkpt><trkpt lat="44.37036546574142" lon="11.550329390953355"><ele>247.0</ele><time>2026-05-01T10:11:41Z</time></trkpt><trkpt lat="44.37026890055242" lon="11.55032415046059"><ele>247.0</ele><time>2026-05-01T10:11:42Z</time></trkpt><trkpt lat="44.37016828348304" lon="11.550331625185157"><ele>244.2</ele><time>2026-05-01T10:11:43Z</time></trkpt><trkpt lat="44.37007701250602" lon="11.550378020250877"><ele>241.39999999999998</ele><time>2026-05-01T10:11:44Z</time></trkpt><trkpt lat="44.369993503287304" lon="11.550442658946926"><ele>238.60000000000002</ele><time>2026-05-01T10:11:45Z</time></trkpt><trkpt lat="44.369932494088985" lon="11.550542481041765"><ele>235.8</ele><time>2026-05-01T10:11:46Z</time></trkpt><trkpt lat="44.369888637910016" lon="11.550672983720222"><ele>233.0</ele><time>2026-05-01T10:11:47Z</time></trkpt><trkpt lat="44.36986122957369" lon="11.550800985606594"><ele>233.0</ele><time>2026-05-01T10:11:48Z</time></trkpt><trkpt lat="44.36984711472381" lon="11.550928114511736"><ele>233.0</ele><time>2026-05-01T10:11:49Z</time></trkpt><trkpt lat="44.36984295423562" lon="11.55105741560906"><ele>233.0</ele><time>2026-05-01T10:11:50Z</time></trkpt><trkpt lat="44.36984133295427" lon="11.551188736126928"><ele>233.0</ele><time>2026-05-01T10:11:51Z</time></trkpt><trkpt lat="44.36983283440278" lon="11.551325676832327"><ele>233.0</ele><time>2026-05-01T10:11:52Z</time></trkpt><trkpt lat="44.36981419284058" lon="11.551465759171924"><ele>231.2</ele><time>2026-05-01T10:11:53Z</time></trkpt><trkpt lat="44.369792571978294" lon="11.551593153115329"><ele>229.4</ele><time>2026-05-01T10:11:54Z</time></trkpt><trkpt lat="44.369764800579944" lon="11.551724633621546"><ele>227.59999999999997</ele><time>2026-05-01T10:11:55Z</time></trkpt><trkpt lat="44.369736529816436" lon="11.551854933575411"><ele>225.79999999999998</ele><time>2026-05-01T10:11:56Z</time></trkpt><trkpt lat="44.369725264722724" lon="11.551978854190875"><ele>224.0</ele><time>2026-05-01T10:11:57Z</time></trkpt><trkpt lat="44.36967897995024" lon="11.552093911738703"><ele>223.83333333333334</ele><time>2026-05-01T10:11:57.999Z</time></trkpt><trkpt lat="44.36964684653131" lon="11.552212993402211"><ele>223.66666666666669</ele><time>2026-05-01T10:11:58.999Z</time></trkpt><trkpt lat="44.369610964690565" lon="11.552324713189181"><ele>223.5</ele><time>2026-05-01T10:11:59.999Z</time></trkpt><trkpt lat="44.369571245304776" lon="11.552432085705489"><ele>223.33333333333331</ele><time>2026-05-01T10:12:00.999Z</time></trkpt><trkpt lat="44.36954905531721" lon="11.552536319673544"><ele>223.16666666666666</ele><time>2026-05-01T10:12:01.999Z</time></trkpt><trkpt lat="44.36950595632671" lon="11.552627168572839"><ele>223.0</ele><time>2026-05-01T10:12:02.999Z</time></trkpt><trkpt lat="44.36947679302444" lon="11.552716777029339"><ele>222.99999999999997</ele><time>2026-05-01T10:12:03.999Z</time></trkpt><trkpt lat="44.36944685946593" lon="11.552795554231754"><ele>223.0</ele><time>2026-05-01T10:12:04.999Z</time></trkpt><trkpt lat="44.36939943861405" lon="11.552930095628904"><ele>223.0</ele><time>2026-05-01T10:12:06.999Z</time></trkpt><trkpt lat="44.36935593098488" lon="11.552993875420478"><ele>223.0</ele><time>2026-05-01T10:12:07.999Z</time></trkpt><trkpt lat="44.36930814856307" lon="11.553110756651572"><ele>222.99999999999997</ele><time>2026-05-01T10:12:09.999Z</time></trkpt><trkpt lat="44.36925247447511" lon="11.553242342052453"><ele>223.0</ele><time>2026-05-01T10:12:11.999Z</time></trkpt><trkpt lat="44.36921854616814" lon="11.553370460160167"><ele>224.4</ele><time>2026-05-01T10:12:13.999Z</time></trkpt><trkpt lat="44.36916883271421" lon="11.553495943506228"><ele>225.8</ele><time>2026-05-01T10:12:15.999Z</time></trkpt><trkpt lat="44.369134549131985" lon="11.55363474785662"><ele>227.2</ele><time>2026-05-01T10:12:17.999Z</time></trkpt><trkpt lat="44.36909183294968" lon="11.553784063399656"><ele>228.6</ele><time>2026-05-01T10:12:20Z</time></trkpt><trkpt lat="44.36907060849164" lon="11.553940200939456"><ele>230.0</ele><time>2026-05-01T10:12:22Z</time></trkpt><trkpt lat="44.369068597886965" lon="11.554099925977273"><ele>230.0</ele><time>2026-05-01T10:12:24Z</time></trkpt><trkpt lat="44.369072792459455" lon="11.554258732457626"><ele>230.0</ele><time>2026-05-01T10:12:26Z</time></trkpt><trkpt lat="44.36907658520895" lon="11.554406923468958"><ele>230.0</ele><time>2026-05-01T10:12:28Z</time></trkpt><trkpt lat="44.3691134619612" lon="11.554550126379674"><ele>230.0</ele><time>2026-05-01T10:12:30Z</time></trkpt><trkpt lat="44.36913941413134" lon="11.554688628271549"><ele>230.0</ele><time>2026-05-01T10:12:32Z</time></trkpt><trkpt lat="44.36916506013346" lon="11.55482577448843"><ele>230.2</ele><time>2026-05-01T10:12:34Z</time></trkpt><trkpt lat="44.369209288504415" lon="11.554940330259353"><ele>230.4</ele><time>2026-05-01T10:12:36Z</time></trkpt><trkpt lat="44.36923585513098" lon="11.555073604862349"><ele>230.60000000000002</ele><time>2026-05-01T10:12:38Z</time></trkpt><trkpt lat="44.369270696113205" lon="11.555188866572461"><ele>230.8</ele><time>2026-05-01T10:12:40Z</time></trkpt><trkpt lat="44.36931824337681" lon="11.555292903665418"><ele>231.0</ele><time>2026-05-01T10:12:42Z</time></trkpt><trkpt lat="44.369367071204636" lon="11.555384325816494"><ele>231.8</ele><time>2026-05-01T10:12:44Z</time></trkpt><trkpt lat="44.36941289569502" lon="11.555474004908914"><ele>232.60000000000002</ele><time>2026-05-01T10:12:46Z</time></trkpt><trkpt lat="44.369465580704755" lon="11.555575091294758"><ele>233.4</ele><time>2026-05-01T10:12:48Z</time></trkpt><trkpt lat="44.36952301430519" lon="11.555690805433192"><ele>234.2</ele><time>2026-05-01T10:12:50Z</time></trkpt><trkpt lat="44.36958983985966" lon="11.555814836432498"><ele>235.0</ele><time>2026-05-01T10:12:52Z</time></trkpt><trkpt lat="44.36963541556704" lon="11.555963868393368"><ele>232.5</ele><time>2026-05-01T10:12:54Z</time></trkpt><trkpt lat="44.36969554901913" lon="11.55610489979513"><ele>230.0</ele><time>2026-05-01T10:12:56Z</time></trkpt><trkpt lat="44.369756052807084" lon="11.556281421486482"><ele>227.5</ele><time>2026-05-01T10:12:58Z</time></trkpt><trkpt lat="44.36977782182921" lon="11.556370534124216"><ele>225.0</ele><time>2026-05-01T10:12:59Z</time></trkpt><trkpt lat="44.36979708549562" lon="11.556548923446313"><ele>225.0</ele><time>2026-05-01T10:13:01Z</time></trkpt><trkpt lat="44.369806132726275" lon="11.55665155511063"><ele>225.0</ele><time>2026-05-01T10:13:02Z</time></trkpt><trkpt lat="44.36981901107892" lon="11.55676219817861"><ele>225.0</ele><time>2026-05-01T10:13:03Z</time></trkpt><trkpt lat="44.36984796793412" lon="11.556872708358707"><ele>225.0</ele><time>2026-05-01T10:13:04Z</time></trkpt><trkpt lat="44.36986093556452" lon="11.556987523430138"><ele>225.0</ele><time>2026-05-01T10:13:05Z</time></trkpt><trkpt lat="44.36987943157022" lon="11.557103746749476"><ele>225.0</ele><time>2026-05-01T10:13:06Z</time></trkpt><trkpt lat="44.369893776803345" lon="11.557224342232528"><ele>224.6</ele><time>2026-05-01T10:13:07Z</time></trkpt><trkpt lat="44.36990080824959" lon="11.5573564131417"><ele>224.2</ele><time>2026-05-01T10:13:08Z</time></trkpt><trkpt lat="44.369930892752635" lon="11.557473232728514"><ele>223.8</ele><time>2026-05-01T10:13:09Z</time></trkpt><trkpt lat="44.36995676741434" lon="11.557577474367866"><ele>223.4</ele><time>2026-05-01T10:13:10Z</time></trkpt><trkpt lat="44.36996340474009" lon="11.5577491985064"><ele>223.0</ele><time>2026-05-01T10:13:12Z</time></trkpt><trkpt lat="44.36996550047291" lon="11.557902782067314"><ele>220.33333333333331</ele><time>2026-05-01T10:13:14Z</time></trkpt><trkpt lat="44.369985048428084" lon="11.55806691182383"><ele>217.66666666666669</ele><time>2026-05-01T10:13:16Z</time></trkpt><trkpt lat="44.370297035025665" lon="11.55813089313041"><ele>215.0</ele><time>2026-05-01T10:13:17Z</time></trkpt><trkpt lat="44.370358245285146" lon="11.558219420987207"><ele>215.0</ele><time>2026-05-01T10:13:18Z</time></trkpt><trkpt lat="44.37041454662942" lon="11.558329098226361"><ele>215.0</ele><time>2026-05-01T10:13:19Z</time></trkpt><trkpt lat="44.37044916340722" lon="11.558454716763777"><ele>215.0</ele><time>2026-05-01T10:13:20Z</time></trkpt><trkpt lat="44.37047949321084" lon="11.558585578431577"><ele>215.0</ele><time>2026-05-01T10:13:21Z</time></trkpt><trkpt lat="44.37048936747353" lon="11.558713279232888"><ele>215.0</ele><time>2026-05-01T10:13:22Z</time></trkpt><trkpt lat="44.37047842807386" lon="11.558833543545337"><ele>213.2</ele><time>2026-05-01T10:13:23Z</time></trkpt><trkpt lat="44.37045971376324" lon="11.55896564273049"><ele>211.4</ele><time>2026-05-01T10:13:24Z</time></trkpt><trkpt lat="44.37044024872279" lon="11.559098257493556"><ele>209.60000000000002</ele><time>2026-05-01T10:13:25Z</time></trkpt><trkpt lat="44.370419434905344" lon="11.55923423988987"><ele>207.8</ele><time>2026-05-01T10:13:26Z</time></trkpt><trkpt lat="44.3704017684156" lon="11.559380209161466"><ele>206.0</ele><time>2026-05-01T10:13:27Z</time></trkpt><trkpt lat="44.37038115260267" lon="11.559512816511054"><ele>204.8</ele><time>2026-05-01T10:13:28Z</time></trkpt><trkpt lat="44.370369998492095" lon="11.559657286899993"><ele>203.60000000000002</ele><time>2026-05-01T10:13:29Z</time></trkpt><trkpt lat="44.370367952443196" lon="11.559800005504313"><ele>202.4</ele><time>2026-05-01T10:13:30Z</time></trkpt><trkpt lat="44.370385286549414" lon="11.559936527854395"><ele>201.2</ele><time>2026-05-01T10:13:31Z</time></trkpt><trkpt lat="44.370422746927076" lon="11.560057300277052"><ele>200.0</ele><time>2026-05-01T10:13:32Z</time></trkpt><trkpt lat="44.37044930773297" lon="11.560170779841817"><ele>200.00000000000003</ele><time>2026-05-01T10:13:33Z</time></trkpt><trkpt lat="44.370458138799066" lon="11.560283279302924"><ele>200.0</ele><time>2026-05-01T10:13:34Z</time></trkpt><trkpt lat="44.37045796106674" lon="11.560405333858004"><ele>200.0</ele><time>2026-05-01T10:13:35Z</time></trkpt><trkpt lat="44.37044656445319" lon="11.56051476365918"><ele>200.0</ele><time>2026-05-01T10:13:36Z</time></trkpt><trkpt lat="44.370433452136844" lon="11.560623851822921"><ele>200.00000000000003</ele><time>2026-05-01T10:13:37Z</time></trkpt><trkpt lat="44.37042273228596" lon="11.560742248630579"><ele>200.0</ele><time>2026-05-01T10:13:38Z</time></trkpt><trkpt lat="44.370414508804295" lon="11.560853591124962"><ele>199.83333333333334</ele><time>2026-05-01T10:13:39Z</time></trkpt><trkpt lat="44.370404447183596" lon="11.560963263970738"><ele>199.66666666666669</ele><time>2026-05-01T10:13:40Z</time></trkpt><trkpt lat="44.37039697516266" lon="11.561074898222268"><ele>199.5</ele><time>2026-05-01T10:13:41Z</time></trkpt><trkpt lat="44.37038898825205" lon="11.56118519924281"><ele>199.33333333333331</ele><time>2026-05-01T10:13:42Z</time></trkpt><trkpt lat="44.370390197964454" lon="11.561289514555526"><ele>199.16666666666666</ele><time>2026-05-01T10:13:43Z</time></trkpt><trkpt lat="44.37042017107206" lon="11.561380394448236"><ele>199.0</ele><time>2026-05-01T10:13:44Z</time></trkpt><trkpt lat="44.37047009091034" lon="11.561472964125839"><ele>198.99999999999997</ele><time>2026-05-01T10:13:45Z</time></trkpt><trkpt lat="44.37050923792673" lon="11.561549582716367"><ele>199.0</ele><time>2026-05-01T10:13:46Z</time></trkpt><trkpt lat="44.370543482361356" lon="11.561645049714954"><ele>199.0</ele><time>2026-05-01T10:13:47Z</time></trkpt><trkpt lat="44.37056466124116" lon="11.561753314729286"><ele>199.0</ele><time>2026-05-01T10:13:48Z</time></trkpt><trkpt lat="44.370570691487465" lon="11.561847360710285"><ele>198.99999999999997</ele><time>2026-05-01T10:13:49Z</time></trkpt><trkpt lat="44.37057322696656" lon="11.561936150388801"><ele>199.0</ele><time>2026-05-01T10:13:50Z</time></trkpt><trkpt lat="44.37057035797166" lon="11.562094821434885"><ele>198.83333333333331</ele><time>2026-05-01T10:13:52Z</time></trkpt><trkpt lat="44.37056176959745" lon="11.5622259048713"><ele>198.66666666666666</ele><time>2026-05-01T10:13:54Z</time></trkpt><trkpt lat="44.37054730702912" lon="11.562329016509088"><ele>198.5</ele><time>2026-05-01T10:13:56Z</time></trkpt><trkpt lat="44.370534155015626" lon="11.562438398403543"><ele>198.33333333333331</ele><time>2026-05-01T10:13:58Z</time></trkpt><trkpt lat="44.37052064375224" lon="11.562567961821074"><ele>198.16666666666666</ele><time>2026-05-01T10:14:00Z</time></trkpt><trkpt lat="44.37050363980021" lon="11.562707988517042"><ele>198.0</ele><time>2026-05-01T10:14:02Z</time></trkpt><trkpt lat="44.37057452826479" lon="11.562874234444953"><ele>196.2</ele><time>2026-05-01T10:14:04Z</time></trkpt><trkpt lat="44.37063179777814" lon="11.562963215681961"><ele>194.4</ele><time>2026-05-01T10:14:05Z</time></trkpt><trkpt lat="44.37068712025782" lon="11.563057525975472"><ele>192.6</ele><time>2026-05-01T10:14:06Z</time></trkpt><trkpt lat="44.37074848766552" lon="11.563172166268954"><ele>190.79999999999998</ele><time>2026-05-01T10:14:07Z</time></trkpt><trkpt lat="44.37080979054271" lon="11.563289175970112"><ele>189.0</ele><time>2026-05-01T10:14:08Z</time></trkpt><trkpt lat="44.37087038032098" lon="11.563415799996864"><ele>189.0</ele><time>2026-05-01T10:14:09Z</time></trkpt><trkpt lat="44.37094256401096" lon="11.563533506015132"><ele>189.0</ele><time>2026-05-01T10:14:10Z</time></trkpt><trkpt lat="44.37101139355635" lon="11.563655340703399"><ele>189.0</ele><time>2026-05-01T10:14:11Z</time></trkpt><trkpt lat="44.3710754738037" lon="11.563774161488736"><ele>189.0</ele><time>2026-05-01T10:14:12Z</time></trkpt><trkpt lat="44.37113858952879" lon="11.56388601995356"><ele>189.0</ele><time>2026-05-01T10:14:13Z</time></trkpt><trkpt lat="44.37119152594072" lon="11.563991632299938"><ele>187.83333333333334</ele><time>2026-05-01T10:14:14Z</time></trkpt><trkpt lat="44.37121267064564" lon="11.564111099165027"><ele>186.66666666666666</ele><time>2026-05-01T10:14:15Z</time></trkpt><trkpt lat="44.371218797720886" lon="11.564223307648891"><ele>185.5</ele><time>2026-05-01T10:14:16Z</time></trkpt><trkpt lat="44.37120291923955" lon="11.564335170341955"><ele>184.33333333333331</ele><time>2026-05-01T10:14:17Z</time></trkpt><trkpt lat="44.37116937808327" lon="11.564438615121162"><ele>183.16666666666666</ele><time>2026-05-01T10:14:18Z</time></trkpt><trkpt lat="44.371134964943415" lon="11.564550527322355"><ele>182.0</ele><time>2026-05-01T10:14:19Z</time></trkpt><trkpt lat="44.37110097789649" lon="11.564650045022429"><ele>180.33333333333331</ele><time>2026-05-01T10:14:20Z</time></trkpt><trkpt lat="44.37106264502085" lon="11.5647429099905"><ele>178.66666666666666</ele><time>2026-05-01T10:14:21Z</time></trkpt><trkpt lat="44.37101713415015" lon="11.56483401778801"><ele>177.0</ele><time>2026-05-01T10:14:22Z</time></trkpt><trkpt lat="44.37096702941936" lon="11.564933985069809"><ele>175.33333333333334</ele><time>2026-05-01T10:14:23Z</time></trkpt><trkpt lat="44.370914603148115" lon="11.565045906321094"><ele>173.66666666666669</ele><time>2026-05-01T10:14:23.999Z</time></trkpt><trkpt lat="44.37085979648359" lon="11.565162909640682"><ele>172.0</ele><time>2026-05-01T10:14:25Z</time></trkpt><trkpt lat="44.37080944416621" lon="11.565270753665681"><ele>171.2</ele><time>2026-05-01T10:14:26Z</time></trkpt><trkpt lat="44.37076123990612" lon="11.565378758023334"><ele>170.39999999999998</ele><time>2026-05-01T10:14:27Z</time></trkpt><trkpt lat="44.370707089785654" lon="11.56549989335391"><ele>169.60000000000002</ele><time>2026-05-01T10:14:28Z</time></trkpt><trkpt lat="44.370663341767575" lon="11.565629969428631"><ele>168.8</ele><time>2026-05-01T10:14:29Z</time></trkpt><trkpt lat="44.37058419599429" lon="11.565738118063114"><ele>168.0</ele><time>2026-05-01T10:14:30Z</time></trkpt><trkpt lat="44.37050378852429" lon="11.565851768630752"><ele>165.75</ele><time>2026-05-01T10:14:31Z</time></trkpt><trkpt lat="44.3704120932881" lon="11.565954855745783"><ele>163.5</ele><time>2026-05-01T10:14:32Z</time></trkpt><trkpt lat="44.370314353032484" lon="11.566046587304463"><ele>161.25</ele><time>2026-05-01T10:14:33Z</time></trkpt><trkpt lat="44.37022632806462" lon="11.566154939497475"><ele>159.0</ele><time>2026-05-01T10:14:34Z</time></trkpt><trkpt lat="44.37013331186603" lon="11.566238883841905"><ele>156.75</ele><time>2026-05-01T10:14:35Z</time></trkpt><trkpt lat="44.37004627421197" lon="11.566334343337157"><ele>154.5</ele><time>2026-05-01T10:14:36Z</time></trkpt><trkpt lat="44.36997391257278" lon="11.566482836527443"><ele>152.25</ele><time>2026-05-01T10:14:37Z</time></trkpt><trkpt lat="44.369903684238665" lon="11.566635190531075"><ele>150.0</ele><time>2026-05-01T10:14:38Z</time></trkpt><trkpt lat="44.3698402730523" lon="11.566791030866955"><ele>150.0</ele><time>2026-05-01T10:14:39Z</time></trkpt><trkpt lat="44.36975762698815" lon="11.566927538083029"><ele>150.0</ele><time>2026-05-01T10:14:40Z</time></trkpt><trkpt lat="44.36970363697848" lon="11.567074180071883"><ele>150.0</ele><time>2026-05-01T10:14:41Z</time></trkpt><trkpt lat="44.36964541157958" lon="11.567198490982726"><ele>150.0</ele><time>2026-05-01T10:14:42Z</time></trkpt><trkpt lat="44.36958445690066" lon="11.567318690407529"><ele>148.0</ele><time>2026-05-01T10:14:43Z</time></trkpt><trkpt lat="44.369518483975476" lon="11.56746249103074"><ele>146.0</ele><time>2026-05-01T10:14:44Z</time></trkpt><trkpt lat="44.369453275422494" lon="11.567586040518142"><ele>144.0</ele><time>2026-05-01T10:14:45Z</time></trkpt><trkpt lat="44.369387694637496" lon="11.567684564123379"><ele>142.0</ele><time>2026-05-01T10:14:46Z</time></trkpt><trkpt lat="44.3693526794821" lon="11.567797322190254"><ele>140.0</ele><time>2026-05-01T10:14:47Z</time></trkpt><trkpt lat="44.369326491241374" lon="11.567896773154683"><ele>139.33333333333331</ele><time>2026-05-01T10:14:48Z</time></trkpt><trkpt lat="44.36931510569327" lon="11.568008485376092"><ele>138.66666666666666</ele><time>2026-05-01T10:14:49Z</time></trkpt><trkpt lat="44.369334267973265" lon="11.568133492576353"><ele>138.0</ele><time>2026-05-01T10:14:50Z</time></trkpt><trkpt lat="44.369368800477105" lon="11.568256554312017"><ele>137.33333333333334</ele><time>2026-05-01T10:14:51Z</time></trkpt><trkpt lat="44.36940766085112" lon="11.568367730563939"><ele>136.66666666666669</ele><time>2026-05-01T10:14:52Z</time></trkpt><trkpt lat="44.36943685505804" lon="11.568491197995172"><ele>136.0</ele><time>2026-05-01T10:14:53Z</time></trkpt><trkpt lat="44.36948036715061" lon="11.568602122429345"><ele>135.4</ele><time>2026-05-01T10:14:54Z</time></trkpt><trkpt lat="44.3695322774189" lon="11.568717746500218"><ele>134.8</ele><time>2026-05-01T10:14:55Z</time></trkpt><trkpt lat="44.369591298761584" lon="11.568826594791197"><ele>134.20000000000002</ele><time>2026-05-01T10:14:56Z</time></trkpt><trkpt lat="44.36966446705541" lon="11.568938149826863"><ele>133.6</ele><time>2026-05-01T10:14:57Z</time></trkpt><trkpt lat="44.36975338667369" lon="11.569016800030282"><ele>133.0</ele><time>2026-05-01T10:14:58Z</time></trkpt><trkpt lat="44.369809220284" lon="11.569117687796538"><ele>132.85714285714286</ele><time>2026-05-01T10:14:59Z</time></trkpt><trkpt lat="44.36982758585481" lon="11.569235464691452"><ele>132.71428571428572</ele><time>2026-05-01T10:15:00Z</time></trkpt><trkpt lat="44.36981770851494" lon="11.569332452432636"><ele>132.57142857142856</ele><time>2026-05-01T10:15:01Z</time></trkpt><trkpt lat="44.36978166604016" lon="11.569411172388525"><ele>132.42857142857144</ele><time>2026-05-01T10:15:02Z</time></trkpt><trkpt lat="44.369743402877276" lon="11.569499654969901"><ele>132.28571428571428</ele><time>2026-05-01T10:15:03Z</time></trkpt><trkpt lat="44.36970746557431" lon="11.569588129412654"><ele>132.14285714285714</ele><time>2026-05-01T10:15:04Z</time></trkpt><trkpt lat="44.3696727555525" lon="11.56967358221855"><ele>132.0</ele><time>2026-05-01T10:15:05Z</time></trkpt><trkpt lat="44.369639751863666" lon="11.569754834127174"><ele>132.0</ele><time>2026-05-01T10:15:06Z</time></trkpt><trkpt lat="44.36960628679287" lon="11.569837221872538"><ele>132.0</ele><time>2026-05-01T10:15:07Z</time></trkpt><trkpt lat="44.369570981344275" lon="11.569924140542078"><ele>132.0</ele><time>2026-05-01T10:15:08Z</time></trkpt><trkpt lat="44.369537783784736" lon="11.570006350623082"><ele>132.0</ele><time>2026-05-01T10:15:09Z</time></trkpt><trkpt lat="44.36950666150875" lon="11.57008434346731"><ele>132.0</ele><time>2026-05-01T10:15:10Z</time></trkpt><trkpt lat="44.36947410275311" lon="11.570165936168003"><ele>132.0</ele><time>2026-05-01T10:15:11Z</time></trkpt><trkpt lat="44.3694379163462" lon="11.570256619748704"><ele>132.0</ele><time>2026-05-01T10:15:12Z</time></trkpt><trkpt lat="44.36940303100333" lon="11.570344583290632"><ele>130.57142857142856</ele><time>2026-05-01T10:15:13Z</time></trkpt><trkpt lat="44.369370664846215" lon="11.570426529521757"><ele>129.14285714285714</ele><time>2026-05-01T10:15:14Z</time></trkpt><trkpt lat="44.369338532766605" lon="11.5705078831595"><ele>127.71428571428571</ele><time>2026-05-01T10:15:15Z</time></trkpt><trkpt lat="44.3693051658776" lon="11.570592363366293"><ele>126.28571428571428</ele><time>2026-05-01T10:15:16Z</time></trkpt><trkpt lat="44.36927289330186" lon="11.57067407283003"><ele>124.85714285714286</ele><time>2026-05-01T10:15:17Z</time></trkpt><trkpt lat="44.36924230950625" lon="11.570751506470062"><ele>123.42857142857142</ele><time>2026-05-01T10:15:18Z</time></trkpt><trkpt lat="44.36918681003625" lon="11.57089278060125"><ele>121.99999999999999</ele><time>2026-05-01T10:15:20Z</time></trkpt><trkpt lat="44.36913312847328" lon="11.571030309059772"><ele>122.0</ele><time>2026-05-01T10:15:22Z</time></trkpt><trkpt lat="44.36907673327954" lon="11.571174789507483"><ele>122.0</ele><time>2026-05-01T10:15:24Z</time></trkpt><trkpt lat="44.36901858224563" lon="11.571323498168793"><ele>122.0</ele><time>2026-05-01T10:15:26Z</time></trkpt><trkpt lat="44.3689604092196" lon="11.571472140252357"><ele>122.0</ele><time>2026-05-01T10:15:28Z</time></trkpt><trkpt lat="44.368900213580396" lon="11.571620704893652"><ele>123.25</ele><time>2026-05-01T10:15:30Z</time></trkpt><trkpt lat="44.368838300835165" lon="11.571771253012898"><ele>124.5</ele><time>2026-05-01T10:15:32Z</time></trkpt><trkpt lat="44.368779824937846" lon="11.571913443920927"><ele>125.75</ele><time>2026-05-01T10:15:34Z</time></trkpt><trkpt lat="44.36872800945036" lon="11.572039439491562"><ele>127.0</ele><time>2026-05-01T10:15:36Z</time></trkpt><trkpt lat="44.368674148354245" lon="11.572173906630123"><ele>124.8</ele><time>2026-05-01T10:15:38Z</time></trkpt><trkpt lat="44.368618349932646" lon="11.572314856290788"><ele>122.6</ele><time>2026-05-01T10:15:40Z</time></trkpt><trkpt lat="44.368564984117015" lon="11.572452738427671"><ele>120.39999999999999</ele><time>2026-05-01T10:15:42Z</time></trkpt><trkpt lat="44.36853299139794" lon="11.572537017521704"><ele>118.19999999999999</ele><time>2026-05-01T10:15:43Z</time></trkpt><trkpt lat="44.36849688123638" lon="11.572633881598366"><ele>116.0</ele><time>2026-05-01T10:15:44Z</time></trkpt><trkpt lat="44.368455956692024" lon="11.572743660238073"><ele>114.4</ele><time>2026-05-01T10:15:45Z</time></trkpt><trkpt lat="44.36841169801689" lon="11.572864854356947"><ele>112.8</ele><time>2026-05-01T10:15:46Z</time></trkpt><trkpt lat="44.36836475870694" lon="11.572994383450107"><ele>111.20000000000002</ele><time>2026-05-01T10:15:47Z</time></trkpt><trkpt lat="44.36831429701761" lon="11.57313363222168"><ele>109.60000000000001</ele><time>2026-05-01T10:15:48Z</time></trkpt><trkpt lat="44.36826262362779" lon="11.573276224731277"><ele>108.0</ele><time>2026-05-01T10:15:49Z</time></trkpt><trkpt lat="44.3682163853251" lon="11.573425254566295"><ele>108.0</ele><time>2026-05-01T10:15:50Z</time></trkpt><trkpt lat="44.36816580960855" lon="11.573583995516904"><ele>108.0</ele><time>2026-05-01T10:15:51Z</time></trkpt><trkpt lat="44.36809934454323" lon="11.573727590907133"><ele>108.0</ele><time>2026-05-01T10:15:52Z</time></trkpt><trkpt lat="44.36804619389255" lon="11.573874697202283"><ele>108.0</ele><time>2026-05-01T10:15:53Z</time></trkpt><trkpt lat="44.368003367546486" lon="11.574023838816744"><ele>107.2</ele><time>2026-05-01T10:15:54Z</time></trkpt><trkpt lat="44.36795540424373" lon="11.574158768688243"><ele>106.4</ele><time>2026-05-01T10:15:55Z</time></trkpt><trkpt lat="44.36790373476365" lon="11.574295218809413"><ele>105.60000000000001</ele><time>2026-05-01T10:15:56Z</time></trkpt><trkpt lat="44.36786067856473" lon="11.574421865127302"><ele>104.80000000000001</ele><time>2026-05-01T10:15:57Z</time></trkpt><trkpt lat="44.367820007735595" lon="11.574526153219539"><ele>104.0</ele><time>2026-05-01T10:15:58Z</time></trkpt><trkpt lat="44.367783962725234" lon="11.574629670661595"><ele>103.14285714285714</ele><time>2026-05-01T10:15:59Z</time></trkpt><trkpt lat="44.36775854146501" lon="11.574714912671666"><ele>102.28571428571429</ele><time>2026-05-01T10:16:00Z</time></trkpt><trkpt lat="44.36772051439912" lon="11.574817368957993"><ele>101.42857142857143</ele><time>2026-05-01T10:16:02Z</time></trkpt><trkpt lat="44.36769902795292" lon="11.574910453981422"><ele>100.57142857142857</ele><time>2026-05-01T10:16:03Z</time></trkpt><trkpt lat="44.36773785837318" lon="11.574989359598732"><ele>99.71428571428572</ele><time>2026-05-01T10:18:07Z</time></trkpt><trkpt lat="44.3677539599901" lon="11.575076848487482"><ele>98.85714285714286</ele><time>2026-05-01T10:18:11Z</time></trkpt><trkpt lat="44.36783149515304" lon="11.5751061773366"><ele>98.0</ele><time>2026-05-01T10:18:14Z</time></trkpt><trkpt lat="44.367896009889094" lon="11.575125613387868"><ele>98.0</ele><time>2026-05-01T10:18:15.999Z</time></trkpt><trkpt lat="44.367976622521745" lon="11.575160722860115"><ele>98.0</ele><time>2026-05-01T10:18:17.999Z</time></trkpt><trkpt lat="44.3680636359343" lon="11.575201954096926"><ele>98.0</ele><time>2026-05-01T10:18:19.999Z</time></trkpt><trkpt lat="44.368155537418424" lon="11.575261534565996"><ele>98.0</ele><time>2026-05-01T10:18:21.999Z</time></trkpt><trkpt lat="44.3682578634695" lon="11.57533230225224"><ele>98.0</ele><time>2026-05-01T10:18:23.999Z</time></trkpt><trkpt lat="44.36835829283782" lon="11.575409395564536"><ele>97.80000000000001</ele><time>2026-05-01T10:18:25.999Z</time></trkpt><trkpt lat="44.36846469959713" lon="11.575486695232149"><ele>97.6</ele><time>2026-05-01T10:18:27.999Z</time></trkpt><trkpt lat="44.36857191342851" lon="11.57556921377571"><ele>97.4</ele><time>2026-05-01T10:18:29.999Z</time></trkpt><trkpt lat="44.368680678332865" lon="11.575650675430236"><ele>97.19999999999999</ele><time>2026-05-01T10:18:31.999Z</time></trkpt><trkpt lat="44.36873668097717" lon="11.575691730121838"><ele>97.0</ele><time>2026-05-01T10:18:32.999Z</time></trkpt><trkpt lat="44.36879132193108" lon="11.57573621211085"><ele>96.0</ele><time>2026-05-01T10:18:33.999Z</time></trkpt><trkpt lat="44.36889706717795" lon="11.575822581398088"><ele>95.0</ele><time>2026-05-01T10:18:35.999Z</time></trkpt><trkpt lat="44.36900627658556" lon="11.575908282327683"><ele>94.0</ele><time>2026-05-01T10:18:38Z</time></trkpt><trkpt lat="44.369063435914654" lon="11.575948275698845"><ele>93.0</ele><time>2026-05-01T10:18:39Z</time></trkpt><trkpt lat="44.3691183474601" lon="11.575994860282076"><ele>92.0</ele><time>2026-05-01T10:18:40Z</time></trkpt><trkpt lat="44.36922864127735" lon="11.576082358456835"><ele>92.0</ele><time>2026-05-01T10:18:42Z</time></trkpt><trkpt lat="44.36928856601549" lon="11.57612312704354"><ele>92.0</ele><time>2026-05-01T10:18:43Z</time></trkpt><trkpt lat="44.36934535440047" lon="11.576167677409385"><ele>92.0</ele><time>2026-05-01T10:18:44Z</time></trkpt><trkpt lat="44.36945275617401" lon="11.576259836677115"><ele>92.0</ele><time>2026-05-01T10:18:46Z</time></trkpt><trkpt lat="44.36955149643144" lon="11.57632955201752"><ele>92.0</ele><time>2026-05-01T10:18:48Z</time></trkpt><trkpt lat="44.36963388140626" lon="11.576386445451513"><ele>92.57142857142857</ele><time>2026-05-01T10:18:50Z</time></trkpt><trkpt lat="44.36970782581427" lon="11.576415655582743"><ele>93.14285714285714</ele><time>2026-05-01T10:18:52Z</time></trkpt><trkpt lat="44.369778190086585" lon="11.576445508109824"><ele>93.71428571428571</ele><time>2026-05-01T10:18:54Z</time></trkpt><trkpt lat="44.36984347788419" lon="11.576463592614994"><ele>94.28571428571428</ele><time>2026-05-01T10:18:56Z</time></trkpt><trkpt lat="44.36991209468409" lon="11.576471123224035"><ele>94.85714285714286</ele><time>2026-05-01T10:18:58Z</time></trkpt><trkpt lat="44.37000251313154" lon="11.576466117309828"><ele>95.42857142857142</ele><time>2026-05-01T10:19:01Z</time></trkpt><trkpt lat="44.37006746502822" lon="11.576460231638166"><ele>96.0</ele><time>2026-05-01T10:19:03Z</time></trkpt><trkpt lat="44.370150817845406" lon="11.576453192870204"><ele>96.0</ele><time>2026-05-01T10:19:06Z</time></trkpt><trkpt lat="44.37023519301648" lon="11.576441277125411"><ele>96.0</ele><time>2026-05-01T10:19:09Z</time></trkpt><trkpt lat="44.37032651604713" lon="11.576428454101963"><ele>96.0</ele><time>2026-05-01T10:19:12Z</time></trkpt><trkpt lat="44.37041440924729" lon="11.576423592080168"><ele>96.0</ele><time>2026-05-01T10:19:15Z</time></trkpt><trkpt lat="44.37050736299056" lon="11.576424836265511"><ele>96.0</ele><time>2026-05-01T10:19:18Z</time></trkpt><trkpt lat="44.37059535210995" lon="11.576439206282494"><ele>96.0</ele><time>2026-05-01T10:19:21Z</time></trkpt><trkpt lat="44.37067986926726" lon="11.576439689701852"><ele>96.28571428571428</ele><time>2026-05-01T10:19:25Z</time></trkpt><trkpt lat="44.3707490491337" lon="11.576454774453577"><ele>96.57142857142857</ele><time>2026-05-01T10:19:27Z</time></trkpt><trkpt lat="44.370830941885885" lon="11.576464009478622"><ele>96.85714285714286</ele><time>2026-05-01T10:19:29Z</time></trkpt><trkpt lat="44.3708999961964" lon="11.576470963295018"><ele>97.14285714285714</ele><time>2026-05-01T10:19:31Z</time></trkpt><trkpt lat="44.370964794852576" lon="11.576484756924415"><ele>97.42857142857143</ele><time>2026-05-01T10:19:33Z</time></trkpt><trkpt lat="44.37104200037619" lon="11.576498101414922"><ele>97.71428571428571</ele><time>2026-05-01T10:19:35Z</time></trkpt><trkpt lat="44.37112072561504" lon="11.576513584264733"><ele>98.0</ele><time>2026-05-01T10:19:37Z</time></trkpt><trkpt lat="44.37120486066705" lon="11.576528320996463"><ele>98.0</ele><time>2026-05-01T10:19:39Z</time></trkpt><trkpt lat="44.37129894649608" lon="11.57655068929445"><ele>98.0</ele><time>2026-05-01T10:19:41Z</time></trkpt><trkpt lat="44.371395425323044" lon="11.576576058330907"><ele>98.0</ele><time>2026-05-01T10:19:43Z</time></trkpt><trkpt lat="44.37149872819349" lon="11.576593607721911"><ele>98.0</ele><time>2026-05-01T10:19:45Z</time></trkpt><trkpt lat="44.3716063970497" lon="11.576622848474319"><ele>98.0</ele><time>2026-05-01T10:19:47Z</time></trkpt><trkpt lat="44.37172155476752" lon="11.57665104804846"><ele>97.83333333333333</ele><time>2026-05-01T10:19:49Z</time></trkpt><trkpt lat="44.371841942925016" lon="11.576672892740264"><ele>97.66666666666666</ele><time>2026-05-01T10:19:51Z</time></trkpt><trkpt lat="44.37196506066208" lon="11.576693107701082"><ele>97.5</ele><time>2026-05-01T10:19:53Z</time></trkpt><trkpt lat="44.372029880597495" lon="11.576711863054268"><ele>97.33333333333334</ele><time>2026-05-01T10:19:54Z</time></trkpt><trkpt lat="44.372093817603684" lon="11.576722326089142"><ele>97.16666666666667</ele><time>2026-05-01T10:19:55Z</time></trkpt><trkpt lat="44.37215977103598" lon="11.576728926146012"><ele>97.0</ele><time>2026-05-01T10:19:56Z</time></trkpt><trkpt lat="44.372227377158694" lon="11.576736170337952"><ele>97.0</ele><time>2026-05-01T10:19:57Z</time></trkpt><trkpt lat="44.37229604005376" lon="11.576746188446938"><ele>97.0</ele><time>2026-05-01T10:19:58Z</time></trkpt><trkpt lat="44.37236401038866" lon="11.576759289088521"><ele>97.0</ele><time>2026-05-01T10:19:59Z</time></trkpt><trkpt lat="44.372432769600884" lon="11.576763023572145"><ele>97.0</ele><time>2026-05-01T10:20:00Z</time></trkpt><trkpt lat="44.37250334456814" lon="11.576760865707078"><ele>97.0</ele><time>2026-05-01T10:20:01Z</time></trkpt><trkpt lat="44.372571181749066" lon="11.57677005473717"><ele>97.0</ele><time>2026-05-01T10:20:02Z</time></trkpt><trkpt lat="44.37263990961923" lon="11.576783198651409"><ele>97.0</ele><time>2026-05-01T10:20:03Z</time></trkpt><trkpt lat="44.37271042717045" lon="11.576798546572316"><ele>97.00000000000001</ele><time>2026-05-01T10:20:04Z</time></trkpt><trkpt lat="44.372785949058105" lon="11.57682755152285"><ele>97.0</ele><time>2026-05-01T10:20:05Z</time></trkpt><trkpt lat="44.372855900332404" lon="11.576854755809046"><ele>97.0</ele><time>2026-05-01T10:20:06Z</time></trkpt><trkpt lat="44.37292722977998" lon="11.576885580823426"><ele>97.0</ele><time>2026-05-01T10:20:07Z</time></trkpt><trkpt lat="44.37304998141005" lon="11.576961248786203"><ele>97.00000000000001</ele><time>2026-05-01T10:20:09Z</time></trkpt><trkpt lat="44.37311815905523" lon="11.577011315114037"><ele>97.0</ele><time>2026-05-01T10:20:10Z</time></trkpt><trkpt lat="44.37318824040896" lon="11.57705395642386"><ele>96.28571428571428</ele><time>2026-05-01T10:20:11Z</time></trkpt><trkpt lat="44.37325666612303" lon="11.577093022752548"><ele>95.57142857142858</ele><time>2026-05-01T10:20:12Z</time></trkpt><trkpt lat="44.37332252282971" lon="11.577147230106164"><ele>94.85714285714286</ele><time>2026-05-01T10:20:13Z</time></trkpt><trkpt lat="44.37339180415236" lon="11.577192376584321"><ele>94.14285714285714</ele><time>2026-05-01T10:20:14Z</time></trkpt><trkpt lat="44.373458742820915" lon="11.577233948587848"><ele>93.42857142857142</ele><time>2026-05-01T10:20:15Z</time></trkpt><trkpt lat="44.37352489998785" lon="11.577274672901217"><ele>92.71428571428572</ele><time>2026-05-01T10:20:15.999Z</time></trkpt><trkpt lat="44.3735930520163" lon="11.577307936854238"><ele>92.0</ele><time>2026-05-01T10:20:16.999Z</time></trkpt><trkpt lat="44.373659632683804" lon="11.577343582246598"><ele>92.0</ele><time>2026-05-01T10:20:17.999Z</time></trkpt><trkpt lat="44.37372499527826" lon="11.577385593614581"><ele>92.0</ele><time>2026-05-01T10:20:18.999Z</time></trkpt><trkpt lat="44.373791955318055" lon="11.57742481628225"><ele>92.0</ele><time>2026-05-01T10:20:19.999Z</time></trkpt><trkpt lat="44.373858552690336" lon="11.577462223867194"><ele>92.0</ele><time>2026-05-01T10:20:20.999Z</time></trkpt><trkpt lat="44.37392671000497" lon="11.577497396398133"><ele>92.0</ele><time>2026-05-01T10:20:21.999Z</time></trkpt><trkpt lat="44.37399322992049" lon="11.577532292167055"><ele>92.0</ele><time>2026-05-01T10:20:22.999Z</time></trkpt><trkpt lat="44.37405480340897" lon="11.57757387132724"><ele>92.0</ele><time>2026-05-01T10:20:23.999Z</time></trkpt><trkpt lat="44.374124050355846" lon="11.577616933010884"><ele>91.85714285714286</ele><time>2026-05-01T10:20:24.999Z</time></trkpt><trkpt lat="44.37419066958146" lon="11.577646195896154"><ele>91.71428571428571</ele><time>2026-05-01T10:20:25.999Z</time></trkpt><trkpt lat="44.3742591535909" lon="11.577680982178357"><ele>91.57142857142857</ele><time>2026-05-01T10:20:26.999Z</time></trkpt><trkpt lat="44.37432490268498" lon="11.577719041225109"><ele>91.42857142857143</ele><time>2026-05-01T10:20:27.999Z</time></trkpt><trkpt lat="44.37439419329549" lon="11.577757655762987"><ele>91.28571428571428</ele><time>2026-05-01T10:20:28.999Z</time></trkpt><trkpt lat="44.37446320735909" lon="11.577786712577867"><ele>91.14285714285714</ele><time>2026-05-01T10:20:29.999Z</time></trkpt><trkpt lat="44.374528919043925" lon="11.577823427617341"><ele>91.0</ele><time>2026-05-01T10:20:30.999Z</time></trkpt><trkpt lat="44.374592311967525" lon="11.577865952726567"><ele>91.0</ele><time>2026-05-01T10:20:31.999Z</time></trkpt><trkpt lat="44.37466340386095" lon="11.577908458965439"><ele>91.0</ele><time>2026-05-01T10:20:32.999Z</time></trkpt><trkpt lat="44.37473116308688" lon="11.577942120080767"><ele>91.0</ele><time>2026-05-01T10:20:33.999Z</time></trkpt><trkpt lat="44.37479549294221" lon="11.577977218435784"><ele>91.0</ele><time>2026-05-01T10:20:34.999Z</time></trkpt><trkpt lat="44.37485859189279" lon="11.578013218757262"><ele>91.0</ele><time>2026-05-01T10:20:35.999Z</time></trkpt><trkpt lat="44.374923612744794" lon="11.578051235689287"><ele>91.0</ele><time>2026-05-01T10:20:36.999Z</time></trkpt><trkpt lat="44.3749829336896" lon="11.578082916812424"><ele>91.0</ele><time>2026-05-01T10:20:37.999Z</time></trkpt><trkpt lat="44.37504710857385" lon="11.578121793117607"><ele>91.71428571428571</ele><time>2026-05-01T10:20:38.999Z</time></trkpt><trkpt lat="44.375107803396546" lon="11.578156308139155"><ele>92.42857142857143</ele><time>2026-05-01T10:20:39.999Z</time></trkpt><trkpt lat="44.375172168619144" lon="11.578195261045199"><ele>93.14285714285714</ele><time>2026-05-01T10:20:40.999Z</time></trkpt><trkpt lat="44.37523373482472" lon="11.578233310552015"><ele>93.85714285714286</ele><time>2026-05-01T10:20:41.999Z</time></trkpt><trkpt lat="44.37529589685985" lon="11.578269555825257"><ele>94.57142857142857</ele><time>2026-05-01T10:20:43Z</time></trkpt><trkpt lat="44.37535951087633" lon="11.578303912114748"><ele>95.28571428571428</ele><time>2026-05-01T10:20:44Z</time></trkpt><trkpt lat="44.37542419201054" lon="11.578338548740685"><ele>96.0</ele><time>2026-05-01T10:20:45Z</time></trkpt><trkpt lat="44.37548841886045" lon="11.578372327166932"><ele>95.85714285714285</ele><time>2026-05-01T10:20:46Z</time></trkpt><trkpt lat="44.37555234028783" lon="11.578403422701259"><ele>95.71428571428571</ele><time>2026-05-01T10:20:47Z</time></trkpt><trkpt lat="44.37561421948648" lon="11.578426735216361"><ele>95.57142857142857</ele><time>2026-05-01T10:20:48Z</time></trkpt><trkpt lat="44.37567938756566" lon="11.57845360814425"><ele>95.42857142857142</ele><time>2026-05-01T10:20:49Z</time></trkpt><trkpt lat="44.3757423393658" lon="11.578483725303295"><ele>95.28571428571429</ele><time>2026-05-01T10:20:50Z</time></trkpt><trkpt lat="44.375810868288376" lon="11.5785076481583"><ele>95.14285714285714</ele><time>2026-05-01T10:20:51Z</time></trkpt><trkpt lat="44.375880837369316" lon="11.57852934747086"><ele>95.0</ele><time>2026-05-01T10:20:52Z</time></trkpt><trkpt lat="44.37594961393908" lon="11.578551009792758"><ele>95.0</ele><time>2026-05-01T10:20:53Z</time></trkpt><trkpt lat="44.37602181592711" lon="11.578570557269739"><ele>95.0</ele><time>2026-05-01T10:20:54Z</time></trkpt><trkpt lat="44.376095957103416" lon="11.578596254888144"><ele>95.0</ele><time>2026-05-01T10:20:55Z</time></trkpt><trkpt lat="44.37616608109683" lon="11.578617879894907"><ele>95.0</ele><time>2026-05-01T10:20:56Z</time></trkpt><trkpt lat="44.37624611900285" lon="11.57864727538111"><ele>95.0</ele><time>2026-05-01T10:20:57Z</time></trkpt><trkpt lat="44.37632945594383" lon="11.578673724006077"><ele>95.0</ele><time>2026-05-01T10:20:58Z</time></trkpt><trkpt lat="44.37640642654471" lon="11.578697152944873"><ele>94.16666666666667</ele><time>2026-05-01T10:20:59Z</time></trkpt><trkpt lat="44.37648120352747" lon="11.578722224623275"><ele>93.33333333333334</ele><time>2026-05-01T10:21:00Z</time></trkpt><trkpt lat="44.37656260965922" lon="11.578747911402273"><ele>92.5</ele><time>2026-05-01T10:21:01Z</time></trkpt><trkpt lat="44.37663908201316" lon="11.578774746400585"><ele>91.66666666666667</ele><time>2026-05-01T10:21:02Z</time></trkpt><trkpt lat="44.37671494509389" lon="11.57880131349418"><ele>90.83333333333333</ele><time>2026-05-01T10:21:03Z</time></trkpt><trkpt lat="44.37679195615548" lon="11.578823663466286"><ele>90.0</ele><time>2026-05-01T10:21:04Z</time></trkpt><trkpt lat="44.37686833915659" lon="11.578847977986557"><ele>90.0</ele><time>2026-05-01T10:21:05Z</time></trkpt><trkpt lat="44.37694445056856" lon="11.578870215613424"><ele>90.0</ele><time>2026-05-01T10:21:06Z</time></trkpt><trkpt lat="44.377020391610706" lon="11.57889398407106"><ele>90.0</ele><time>2026-05-01T10:21:07Z</time></trkpt><trkpt lat="44.377096211096315" lon="11.578922568607524"><ele>90.0</ele><time>2026-05-01T10:21:08Z</time></trkpt><trkpt lat="44.37717214261431" lon="11.578947663826451"><ele>90.0</ele><time>2026-05-01T10:21:09Z</time></trkpt><trkpt lat="44.377247992970084" lon="11.578973696944908"><ele>90.0</ele><time>2026-05-01T10:21:10Z</time></trkpt><trkpt lat="44.37732245770406" lon="11.578999951056492"><ele>89.85714285714285</ele><time>2026-05-01T10:21:11Z</time></trkpt><trkpt lat="44.37739768761729" lon="11.57902127452037"><ele>89.71428571428572</ele><time>2026-05-01T10:21:12Z</time></trkpt><trkpt lat="44.37746860088871" lon="11.579045123089426"><ele>89.57142857142857</ele><time>2026-05-01T10:21:13Z</time></trkpt><trkpt lat="44.37754182233692" lon="11.57906497980496"><ele>89.42857142857142</ele><time>2026-05-01T10:21:14Z</time></trkpt><trkpt lat="44.37761229824231" lon="11.579091161004325"><ele>89.28571428571428</ele><time>2026-05-01T10:21:15Z</time></trkpt><trkpt lat="44.377683427445966" lon="11.579116232950511"><ele>89.14285714285714</ele><time>2026-05-01T10:21:16Z</time></trkpt><trkpt lat="44.37775409443466" lon="11.579140698622915"><ele>89.0</ele><time>2026-05-01T10:21:17Z</time></trkpt><trkpt lat="44.37782225491267" lon="11.579157022109909"><ele>89.0</ele><time>2026-05-01T10:21:18Z</time></trkpt><trkpt lat="44.3778882288108" lon="11.579179807897038"><ele>89.0</ele><time>2026-05-01T10:21:19Z</time></trkpt><trkpt lat="44.377952849195324" lon="11.579201280439404"><ele>89.0</ele><time>2026-05-01T10:21:20Z</time></trkpt><trkpt lat="44.37801719087807" lon="11.579218709058823"><ele>89.0</ele><time>2026-05-01T10:21:21Z</time></trkpt><trkpt lat="44.37807880500035" lon="11.579241587610674"><ele>89.0</ele><time>2026-05-01T10:21:22Z</time></trkpt><trkpt lat="44.378140307244855" lon="11.579260565899009"><ele>89.0</ele><time>2026-05-01T10:21:23Z</time></trkpt><trkpt lat="44.37826231764815" lon="11.579294487793334"><ele>89.0</ele><time>2026-05-01T10:21:25Z</time></trkpt><trkpt lat="44.37837443601245" lon="11.579333775723159"><ele>89.0</ele><time>2026-05-01T10:21:27Z</time></trkpt><trkpt lat="44.37848446766514" lon="11.579375532484892"><ele>89.0</ele><time>2026-05-01T10:21:29Z</time></trkpt><trkpt lat="44.37859596090243" lon="11.579415117731456"><ele>89.0</ele><time>2026-05-01T10:21:31Z</time></trkpt><trkpt lat="44.37870801540557" lon="11.57945293451596"><ele>89.0</ele><time>2026-05-01T10:21:33Z</time></trkpt><trkpt lat="44.37882011053181" lon="11.57950241343527"><ele>89.0</ele><time>2026-05-01T10:21:35Z</time></trkpt><trkpt lat="44.37893598684069" lon="11.579550749492158"><ele>89.0</ele><time>2026-05-01T10:21:37Z</time></trkpt><trkpt lat="44.37905228152551" lon="11.579595841654847"><ele>89.0</ele><time>2026-05-01T10:21:39Z</time></trkpt><trkpt lat="44.37916988178298" lon="11.57963711921275"><ele>88.83333333333334</ele><time>2026-05-01T10:21:41Z</time></trkpt><trkpt lat="44.37923258419047" lon="11.579660088882036"><ele>88.66666666666667</ele><time>2026-05-01T10:21:42Z</time></trkpt><trkpt lat="44.37935301446124" lon="11.5797036018698"><ele>88.5</ele><time>2026-05-01T10:21:44Z</time></trkpt><trkpt lat="44.37947688757885" lon="11.57974372398389"><ele>88.33333333333333</ele><time>2026-05-01T10:21:46Z</time></trkpt><trkpt lat="44.37953965733084" lon="11.579763578120636"><ele>88.16666666666666</ele><time>2026-05-01T10:21:47Z</time></trkpt><trkpt lat="44.379603436649695" lon="11.57978239364827"><ele>88.0</ele><time>2026-05-01T10:21:48Z</time></trkpt><trkpt lat="44.37966801406274" lon="11.579801732198433"><ele>87.85714285714286</ele><time>2026-05-01T10:21:49Z</time></trkpt><trkpt lat="44.37973269671189" lon="11.579822861910609"><ele>87.71428571428571</ele><time>2026-05-01T10:21:50Z</time></trkpt><trkpt lat="44.37979577681464" lon="11.579842540116811"><ele>87.57142857142857</ele><time>2026-05-01T10:21:51Z</time></trkpt><trkpt lat="44.379862718739325" lon="11.579859124612332"><ele>87.42857142857143</ele><time>2026-05-01T10:21:52Z</time></trkpt><trkpt lat="44.37992675666044" lon="11.57988036683788"><ele>87.28571428571429</ele><time>2026-05-01T10:21:53Z</time></trkpt><trkpt lat="44.37999325533629" lon="11.579904371814596"><ele>87.14285714285714</ele><time>2026-05-01T10:21:54Z</time></trkpt><trkpt lat="44.38005876753942" lon="11.579922840036252"><ele>87.0</ele><time>2026-05-01T10:21:55Z</time></trkpt><trkpt lat="44.380122423215795" lon="11.579940262714985"><ele>87.0</ele><time>2026-05-01T10:21:56Z</time></trkpt><trkpt lat="44.38018721116289" lon="11.579959218355759"><ele>87.0</ele><time>2026-05-01T10:21:57Z</time></trkpt><trkpt lat="44.38025179474542" lon="11.57998312440632"><ele>87.0</ele><time>2026-05-01T10:21:58Z</time></trkpt><trkpt lat="44.3803145317206" lon="11.580004473813771"><ele>87.0</ele><time>2026-05-01T10:21:59Z</time></trkpt><trkpt lat="44.380380856030136" lon="11.580023548859781"><ele>87.0</ele><time>2026-05-01T10:22:00Z</time></trkpt><trkpt lat="44.38050643189896" lon="11.580061286646997"><ele>87.0</ele><time>2026-05-01T10:22:02Z</time></trkpt><trkpt lat="44.38057010086634" lon="11.580080151691247"><ele>87.0</ele><time>2026-05-01T10:22:03Z</time></trkpt><trkpt lat="44.38063122453636" lon="11.580101578634787"><ele>87.0</ele><time>2026-05-01T10:22:04Z</time></trkpt><trkpt lat="44.38075462584127" lon="11.580143913742745"><ele>87.0</ele><time>2026-05-01T10:22:06Z</time></trkpt><trkpt lat="44.38081650267627" lon="11.580163468066516"><ele>87.0</ele><time>2026-05-01T10:22:07Z</time></trkpt><trkpt lat="44.3809368435731" lon="11.580202947926004"><ele>87.0</ele><time>2026-05-01T10:22:09Z</time></trkpt><trkpt lat="44.380999690346165" lon="11.580222454594596"><ele>87.0</ele><time>2026-05-01T10:22:10Z</time></trkpt><trkpt lat="44.38111692174432" lon="11.580284993152004"><ele>87.0</ele><time>2026-05-01T10:22:12Z</time></trkpt><trkpt lat="44.381170023396486" lon="11.580338490444309"><ele>87.0</ele><time>2026-05-01T10:22:13Z</time></trkpt><trkpt lat="44.38125772885577" lon="11.580384596264977"><ele>87.0</ele><time>2026-05-01T10:22:15Z</time></trkpt><trkpt lat="44.3812440731018" lon="11.580685450653931"><ele>87.0</ele><time>2026-05-01T10:22:17Z</time></trkpt><trkpt lat="44.38122889413347" lon="11.580773075007729"><ele>87.0</ele><time>2026-05-01T10:22:18Z</time></trkpt><trkpt lat="44.38120525043262" lon="11.580861988933934"><ele>86.71428571428571</ele><time>2026-05-01T10:22:19Z</time></trkpt><trkpt lat="44.38118053888925" lon="11.580948582218076"><ele>86.42857142857143</ele><time>2026-05-01T10:22:20Z</time></trkpt><trkpt lat="44.38116076490093" lon="11.581033857115985"><ele>86.14285714285714</ele><time>2026-05-01T10:22:21Z</time></trkpt><trkpt lat="44.3811435234006" lon="11.581121408084654"><ele>85.85714285714286</ele><time>2026-05-01T10:22:22Z</time></trkpt><trkpt lat="44.38112697309405" lon="11.58121058935873"><ele>85.57142857142857</ele><time>2026-05-01T10:22:23Z</time></trkpt><trkpt lat="44.381110263602146" lon="11.581297362140832"><ele>85.28571428571429</ele><time>2026-05-01T10:22:24Z</time></trkpt><trkpt lat="44.381092105916906" lon="11.58138221533424"><ele>85.0</ele><time>2026-05-01T10:22:25Z</time></trkpt><trkpt lat="44.38105980681699" lon="11.581550974775393"><ele>84.8</ele><time>2026-05-01T10:22:27Z</time></trkpt><trkpt lat="44.38102689300034" lon="11.581689286213457"><ele>84.6</ele><time>2026-05-01T10:22:29Z</time></trkpt><trkpt lat="44.381168404425964" lon="11.581779788161"><ele>84.4</ele><time>2026-05-01T10:22:30.999Z</time></trkpt><trkpt lat="44.38126383064334" lon="11.581808919117254"><ele>84.2</ele><time>2026-05-01T10:22:32.999Z</time></trkpt><trkpt lat="44.38134032115728" lon="11.58186226054494"><ele>84.0</ele><time>2026-05-01T10:22:34.999Z</time></trkpt><trkpt lat="44.38141083006815" lon="11.581909784127454"><ele>83.83333333333333</ele><time>2026-05-01T10:22:36.999Z</time></trkpt><trkpt lat="44.38148059400463" lon="11.581948379809443"><ele>83.66666666666667</ele><time>2026-05-01T10:22:38.999Z</time></trkpt><trkpt lat="44.381553185723554" lon="11.582000795634162"><ele>83.5</ele><time>2026-05-01T10:22:40.999Z</time></trkpt><trkpt lat="44.381634223647" lon="11.58203505132895"><ele>83.33333333333334</ele><time>2026-05-01T10:22:42.999Z</time></trkpt><trkpt lat="44.38171243429585" lon="11.582073789279631"><ele>83.16666666666667</ele><time>2026-05-01T10:22:44.999Z</time></trkpt><trkpt lat="44.38178626013835" lon="11.582131116379617"><ele>83.0</ele><time>2026-05-01T10:22:46.999Z</time></trkpt><trkpt lat="44.38187015767685" lon="11.582185515515349"><ele>82.2</ele><time>2026-05-01T10:22:49Z</time></trkpt><trkpt lat="44.381960002954756" lon="11.582240439652947"><ele>81.4</ele><time>2026-05-01T10:22:51Z</time></trkpt><trkpt lat="44.38204901548133" lon="11.582306965411687"><ele>80.60000000000001</ele><time>2026-05-01T10:22:53Z</time></trkpt><trkpt lat="44.38215608814518" lon="11.582362392384114"><ele>79.80000000000001</ele><time>2026-05-01T10:22:55Z</time></trkpt><trkpt lat="44.382268406782124" lon="11.582424223323333"><ele>79.0</ele><time>2026-05-01T10:22:57Z</time></trkpt><trkpt lat="44.382375050553165" lon="11.582512172462524"><ele>78.71428571428572</ele><time>2026-05-01T10:22:59Z</time></trkpt><trkpt lat="44.382421867685416" lon="11.582576322285112"><ele>78.42857142857143</ele><time>2026-05-01T10:23:00Z</time></trkpt><trkpt lat="44.382467178565115" lon="11.582642193960918"><ele>78.14285714285714</ele><time>2026-05-01T10:23:01Z</time></trkpt><trkpt lat="44.38250638631214" lon="11.582719302911768"><ele>77.85714285714286</ele><time>2026-05-01T10:23:02Z</time></trkpt><trkpt lat="44.38253419190284" lon="11.582801379366014"><ele>77.57142857142857</ele><time>2026-05-01T10:23:03Z</time></trkpt><trkpt lat="44.38255618606051" lon="11.58289556797561"><ele>77.28571428571429</ele><time>2026-05-01T10:23:04Z</time></trkpt><trkpt lat="44.38257534258841" lon="11.582982367927455"><ele>77.0</ele><time>2026-05-01T10:23:05Z</time></trkpt><trkpt lat="44.38260113343859" lon="11.583071828612786"><ele>76.6</ele><time>2026-05-01T10:23:06Z</time></trkpt><trkpt lat="44.38263664563397" lon="11.583240397533391"><ele>76.2</ele><time>2026-05-01T10:23:08Z</time></trkpt><trkpt lat="44.38265672068822" lon="11.58332520423547"><ele>75.8</ele><time>2026-05-01T10:23:09Z</time></trkpt><trkpt lat="44.38271226995578" lon="11.583479490119132"><ele>75.4</ele><time>2026-05-01T10:23:11Z</time></trkpt><trkpt lat="44.382793764466676" lon="11.583602162990305"><ele>75.0</ele><time>2026-05-01T10:23:13Z</time></trkpt><trkpt lat="44.382894582473156" lon="11.583690416823128"><ele>75.0</ele><time>2026-05-01T10:23:15Z</time></trkpt><trkpt lat="44.383011540336916" lon="11.583725636334249"><ele>75.0</ele><time>2026-05-01T10:23:17Z</time></trkpt><trkpt lat="44.3831284824449" lon="11.583734970962745"><ele>75.0</ele><time>2026-05-01T10:23:19Z</time></trkpt><trkpt lat="44.383244347517866" lon="11.583745975800474"><ele>75.0</ele><time>2026-05-01T10:23:21Z</time></trkpt><trkpt lat="44.383354953670334" lon="11.58376158126196"><ele>75.0</ele><time>2026-05-01T10:23:23Z</time></trkpt><trkpt lat="44.383459660379344" lon="11.5837874974208"><ele>75.0</ele><time>2026-05-01T10:23:25Z</time></trkpt><trkpt lat="44.38356391369336" lon="11.58379370622787"><ele>75.0</ele><time>2026-05-01T10:23:27Z</time></trkpt><trkpt lat="44.38365926186489" lon="11.583828714071476"><ele>75.0</ele><time>2026-05-01T10:23:29Z</time></trkpt><trkpt lat="44.3837524587576" lon="11.58384504668092"><ele>75.0</ele><time>2026-05-01T10:23:31Z</time></trkpt><trkpt lat="44.38383777443297" lon="11.583859971519994"><ele>75.2</ele><time>2026-05-01T10:23:33Z</time></trkpt><trkpt lat="44.383937185902724" lon="11.583877362161742"><ele>75.4</ele><time>2026-05-01T10:23:35Z</time></trkpt><trkpt lat="44.3840443676443" lon="11.583874343377756"><ele>75.6</ele><time>2026-05-01T10:23:37Z</time></trkpt><trkpt lat="44.38414143766127" lon="11.583913603618887"><ele>75.8</ele><time>2026-05-01T10:23:39Z</time></trkpt><trkpt lat="44.38422599423311" lon="11.5839286756456"><ele>76.0</ele><time>2026-05-01T10:23:41Z</time></trkpt><trkpt lat="44.38430981994189" lon="11.583943617386351"><ele>76.0</ele><time>2026-05-01T10:23:43Z</time></trkpt><trkpt lat="44.38440782223891" lon="11.583961086057647"><ele>76.0</ele><time>2026-05-01T10:23:45Z</time></trkpt><trkpt lat="44.38450236950269" lon="11.583959040515271"><ele>76.0</ele><time>2026-05-01T10:23:47Z</time></trkpt><trkpt lat="44.38458701295301" lon="11.583975523386078"><ele>76.0</ele><time>2026-05-01T10:23:49Z</time></trkpt><trkpt lat="44.38466708699286" lon="11.583929098503482"><ele>76.0</ele><time>2026-05-01T10:23:51Z</time></trkpt><trkpt lat="44.38473396948817" lon="11.583867730165542"><ele>76.0</ele><time>2026-05-01T10:23:53Z</time></trkpt><trkpt lat="44.384803564776846" lon="11.58390770583229"><ele>76.6</ele><time>2026-05-01T10:23:56Z</time></trkpt><trkpt lat="44.38485253378496" lon="11.58383645000162"><ele>77.19999999999999</ele><time>2026-05-01T10:23:59Z</time></trkpt><trkpt lat="44.38487766186158" lon="11.583735652709432"><ele>77.80000000000001</ele><time>2026-05-01T10:24:01Z</time></trkpt><trkpt lat="44.38494804256053" lon="11.583655258211367"><ele>78.4</ele><time>2026-05-01T10:24:03Z</time></trkpt><trkpt lat="44.38502860829867" lon="11.583592186918537"><ele>79.0</ele><time>2026-05-01T10:24:05Z</time></trkpt><trkpt lat="44.385170217009325" lon="11.58358288483163"><ele>79.0</ele><time>2026-05-01T10:24:08Z</time></trkpt><trkpt lat="44.385256599302494" lon="11.583602373926844"><ele>79.0</ele><time>2026-05-01T10:24:10Z</time></trkpt><trkpt lat="44.38536476053937" lon="11.583632344983023"><ele>79.0</ele><time>2026-05-01T10:24:12Z</time></trkpt><trkpt lat="44.385463579197044" lon="11.583675434878913"><ele>79.0</ele><time>2026-05-01T10:24:14Z</time></trkpt><trkpt lat="44.38554395827616" lon="11.583715264068983"><ele>79.0</ele><time>2026-05-01T10:24:16Z</time></trkpt><trkpt lat="44.38562907353568" lon="11.583731382919284"><ele>78.66666666666666</ele><time>2026-05-01T10:24:18Z</time></trkpt><trkpt lat="44.38569086199777" lon="11.583659110724414"><ele>78.33333333333333</ele><time>2026-05-01T10:24:20Z</time></trkpt><trkpt lat="44.38573095531544" lon="11.583577068260627"><ele>78.0</ele><time>2026-05-01T10:24:22Z</time></trkpt><trkpt lat="44.38578458258687" lon="11.583474591979945"><ele>77.66666666666667</ele><time>2026-05-01T10:24:23.999Z</time></trkpt><trkpt lat="44.38587401660425" lon="11.58345851060454"><ele>77.33333333333334</ele><time>2026-05-01T10:24:25.999Z</time></trkpt><trkpt lat="44.38594171073851" lon="11.58353422042956"><ele>77.0</ele><time>2026-05-01T10:24:27.999Z</time></trkpt><trkpt lat="44.38600458240726" lon="11.583559255435908"><ele>77.0</ele><time>2026-05-01T10:24:29.999Z</time></trkpt><trkpt lat="44.38606223954222" lon="11.58361063049168"><ele>77.0</ele><time>2026-05-01T10:24:31.999Z</time></trkpt><trkpt lat="44.38612496831271" lon="11.58366267473439"><ele>77.0</ele><time>2026-05-01T10:24:33.999Z</time></trkpt><trkpt lat="44.38618696131082" lon="11.583686074091487"><ele>77.0</ele><time>2026-05-01T10:24:35.999Z</time></trkpt><trkpt lat="44.38625143668551" lon="11.583731718988064"><ele>77.0</ele><time>2026-05-01T10:24:37.999Z</time></trkpt><trkpt lat="44.38625014714073" lon="11.583843264978709"><ele>77.0</ele><time>2026-05-01T10:24:40.999Z</time></trkpt><trkpt lat="44.38621296330169" lon="11.583985707645212"><ele>76.5</ele><time>2026-05-01T10:24:42.999Z</time></trkpt><trkpt lat="44.38617552041227" lon="11.584097731337458"><ele>76.0</ele><time>2026-05-01T10:24:44.999Z</time></trkpt><trkpt lat="44.38615072669931" lon="11.584201313912468"><ele>75.5</ele><time>2026-05-01T10:24:46.999Z</time></trkpt><trkpt lat="44.38612811356029" lon="11.584302055303802"><ele>75.0</ele><time>2026-05-01T10:24:48.999Z</time></trkpt><trkpt lat="44.386097793707314" lon="11.584412779756702"><ele>74.5</ele><time>2026-05-01T10:24:50.999Z</time></trkpt><trkpt lat="44.38607999305913" lon="11.584532789524243"><ele>74.0</ele><time>2026-05-01T10:24:52.999Z</time></trkpt><trkpt lat="44.38606012765937" lon="11.584659676768183"><ele>73.60000000000001</ele><time>2026-05-01T10:24:55Z</time></trkpt><trkpt lat="44.386015305996786" lon="11.58477906459965"><ele>73.2</ele><time>2026-05-01T10:24:57Z</time></trkpt><trkpt lat="44.38597780007567" lon="11.584899172629232"><ele>72.80000000000001</ele><time>2026-05-01T10:24:59Z</time></trkpt><trkpt lat="44.38594627421529" lon="11.585019107562085"><ele>72.4</ele><time>2026-05-01T10:25:01Z</time></trkpt><trkpt lat="44.385906441736175" lon="11.585134883472257"><ele>72.0</ele><time>2026-05-01T10:25:03Z</time></trkpt><trkpt lat="44.38586261126178" lon="11.585245714960788"><ele>71.83333333333333</ele><time>2026-05-01T10:25:05Z</time></trkpt><trkpt lat="44.38584293156969" lon="11.585355913807067"><ele>71.66666666666667</ele><time>2026-05-01T10:25:07Z</time></trkpt><trkpt lat="44.3858139582411" lon="11.585472191598011"><ele>71.5</ele><time>2026-05-01T10:25:09Z</time></trkpt><trkpt lat="44.385778277386585" lon="11.585592814456453"><ele>71.33333333333334</ele><time>2026-05-01T10:25:11Z</time></trkpt><trkpt lat="44.38574980904149" lon="11.585710027544225"><ele>71.16666666666667</ele><time>2026-05-01T10:25:13Z</time></trkpt><trkpt lat="44.38571649899458" lon="11.58582382544084"><ele>71.0</ele><time>2026-05-01T10:25:15Z</time></trkpt><trkpt lat="44.38568573675116" lon="11.585942473231691"><ele>71.0</ele><time>2026-05-01T10:25:17Z</time></trkpt><trkpt lat="44.38563361649551" lon="11.5860582781106"><ele>71.0</ele><time>2026-05-01T10:25:19Z</time></trkpt><trkpt lat="44.38559014527689" lon="11.586177646741987"><ele>71.0</ele><time>2026-05-01T10:25:21Z</time></trkpt><trkpt lat="44.385525541787594" lon="11.58626678617798"><ele>71.0</ele><time>2026-05-01T10:25:23Z</time></trkpt><trkpt lat="44.38546005822334" lon="11.58635273022657"><ele>71.0</ele><time>2026-05-01T10:25:25Z</time></trkpt><trkpt lat="44.38541578626463" lon="11.586428689280751"><ele>71.0</ele><time>2026-05-01T10:25:27Z</time></trkpt><trkpt lat="44.38538876826005" lon="11.586529487130619"><ele>71.6</ele><time>2026-05-01T10:25:29Z</time></trkpt><trkpt lat="44.38536683366244" lon="11.586644110447297"><ele>72.19999999999999</ele><time>2026-05-01T10:25:31Z</time></trkpt><trkpt lat="44.38536172666332" lon="11.586795740486476"><ele>72.80000000000001</ele><time>2026-05-01T10:25:33Z</time></trkpt><trkpt lat="44.38537269043192" lon="11.586958681746479"><ele>73.4</ele><time>2026-05-01T10:25:35Z</time></trkpt><trkpt lat="44.38535643355885" lon="11.587110097298417"><ele>74.0</ele><time>2026-05-01T10:25:37Z</time></trkpt><trkpt lat="44.385318305140565" lon="11.587268147995301"><ele>74.0</ele><time>2026-05-01T10:25:39Z</time></trkpt><trkpt lat="44.385268636657536" lon="11.587402278599019"><ele>74.0</ele><time>2026-05-01T10:25:41Z</time></trkpt><trkpt lat="44.38521882055243" lon="11.587557677562048"><ele>74.0</ele><time>2026-05-01T10:25:43Z</time></trkpt><trkpt lat="44.38519368735791" lon="11.5876803133883"><ele>74.0</ele><time>2026-05-01T10:25:45Z</time></trkpt><trkpt lat="44.38516807183898" lon="11.587802586801484"><ele>74.0</ele><time>2026-05-01T10:25:47Z</time></trkpt><trkpt lat="44.385146731468865" lon="11.587920236826525"><ele>73.85714285714286</ele><time>2026-05-01T10:25:49Z</time></trkpt><trkpt lat="44.385113580312385" lon="11.588031457080326"><ele>73.71428571428571</ele><time>2026-05-01T10:25:51Z</time></trkpt><trkpt lat="44.385084691196624" lon="11.588134371433808"><ele>73.57142857142857</ele><time>2026-05-01T10:25:53Z</time></trkpt><trkpt lat="44.385070208267344" lon="11.588230943813466"><ele>73.42857142857143</ele><time>2026-05-01T10:25:55Z</time></trkpt><trkpt lat="44.38508011889105" lon="11.58834019060536"><ele>73.28571428571429</ele><time>2026-05-01T10:25:58Z</time></trkpt><trkpt lat="44.38511821314529" lon="11.58841168016739"><ele>73.14285714285714</ele><time>2026-05-01T10:26:00Z</time></trkpt><trkpt lat="44.38517522164432" lon="11.588457277519394"><ele>73.0</ele><time>2026-05-01T10:26:02Z</time></trkpt><trkpt lat="44.385276763669694" lon="11.588474616364003"><ele>73.0</ele><time>2026-05-01T10:26:04Z</time></trkpt><trkpt lat="44.385366735875735" lon="11.588465942810807"><ele>73.0</ele><time>2026-05-01T10:26:06Z</time></trkpt><trkpt lat="44.38546723652743" lon="11.588465716134277"><ele>73.0</ele><time>2026-05-01T10:26:08Z</time></trkpt><trkpt lat="44.385563349607594" lon="11.588468318807264"><ele>73.0</ele><time>2026-05-01T10:26:10Z</time></trkpt><trkpt lat="44.38567092405247" lon="11.588474884877591"><ele>73.0</ele><time>2026-05-01T10:26:12Z</time></trkpt><trkpt lat="44.385774467974905" lon="11.588476635774967"><ele>73.0</ele><time>2026-05-01T10:26:14Z</time></trkpt><trkpt lat="44.38588251274622" lon="11.588479335190678"><ele>73.0</ele><time>2026-05-01T10:26:16Z</time></trkpt><trkpt lat="44.38599661429953" lon="11.588502216603302"><ele>73.0</ele><time>2026-05-01T10:26:18Z</time></trkpt><trkpt lat="44.386104302702144" lon="11.588492073297706"><ele>73.0</ele><time>2026-05-01T10:26:20Z</time></trkpt><trkpt lat="44.38620759604636" lon="11.58850083141439"><ele>73.0</ele><time>2026-05-01T10:26:22Z</time></trkpt><trkpt lat="44.38631332769409" lon="11.588499881592204"><ele>72.6</ele><time>2026-05-01T10:26:24Z</time></trkpt><trkpt lat="44.386420165372655" lon="11.588505357716866"><ele>72.19999999999999</ele><time>2026-05-01T10:26:25.999Z</time></trkpt><trkpt lat="44.38652524487397" lon="11.588532265205199"><ele>71.8</ele><time>2026-05-01T10:26:27.999Z</time></trkpt><trkpt lat="44.38664443734951" lon="11.588528291216805"><ele>71.39999999999999</ele><time>2026-05-01T10:26:29.999Z</time></trkpt><trkpt lat="44.38674659985189" lon="11.588524118310625"><ele>71.0</ele><time>2026-05-01T10:26:31.999Z</time></trkpt><trkpt lat="44.386848586617766" lon="11.58853352395598"><ele>71.0</ele><time>2026-05-01T10:26:33.999Z</time></trkpt><trkpt lat="44.386954658580855" lon="11.588535049383806"><ele>71.0</ele><time>2026-05-01T10:26:35.999Z</time></trkpt><trkpt lat="44.387063673841574" lon="11.58854188815453"><ele>71.0</ele><time>2026-05-01T10:26:37.999Z</time></trkpt><trkpt lat="44.38717484316861" lon="11.588530822854112"><ele>71.0</ele><time>2026-05-01T10:26:39.999Z</time></trkpt><trkpt lat="44.38727652698678" lon="11.588515517014551"><ele>71.0</ele><time>2026-05-01T10:26:41.999Z</time></trkpt><trkpt lat="44.38738795794401" lon="11.588511540923205"><ele>70.8</ele><time>2026-05-01T10:26:43.999Z</time></trkpt><trkpt lat="44.38749422567005" lon="11.588487797959019"><ele>70.6</ele><time>2026-05-01T10:26:45.999Z</time></trkpt><trkpt lat="44.38760104679228" lon="11.588475702000304"><ele>70.4</ele><time>2026-05-01T10:26:47.999Z</time></trkpt><trkpt lat="44.38769483143072" lon="11.588486875492423"><ele>70.2</ele><time>2026-05-01T10:26:49.999Z</time></trkpt><trkpt lat="44.38778930184864" lon="11.588468281518177"><ele>70.0</ele><time>2026-05-01T10:26:51.999Z</time></trkpt><trkpt lat="44.3878884462702" lon="11.588467027921624"><ele>70.0</ele><time>2026-05-01T10:26:53.999Z</time></trkpt><trkpt lat="44.387997548680715" lon="11.588469677437574"><ele>70.0</ele><time>2026-05-01T10:26:55.999Z</time></trkpt><trkpt lat="44.38810466782965" lon="11.588454823763275"><ele>70.0</ele><time>2026-05-01T10:26:57.999Z</time></trkpt><trkpt lat="44.38820497787816" lon="11.588438824857567"><ele>70.0</ele><time>2026-05-01T10:26:59.999Z</time></trkpt><trkpt lat="44.388310059316865" lon="11.588425333690653"><ele>70.0</ele><time>2026-05-01T10:27:02Z</time></trkpt><trkpt lat="44.38840732822524" lon="11.588411815311002"><ele>70.0</ele><time>2026-05-01T10:27:04Z</time></trkpt><trkpt lat="44.388512706774186" lon="11.588404905994533"><ele>70.0</ele><time>2026-05-01T10:27:06Z</time></trkpt><trkpt lat="44.388617359327895" lon="11.58840501010762"><ele>70.0</ele><time>2026-05-01T10:27:08Z</time></trkpt><trkpt lat="44.388728039982155" lon="11.588385079778762"><ele>70.0</ele><time>2026-05-01T10:27:10Z</time></trkpt><trkpt lat="44.38884067543571" lon="11.588371643802457"><ele>70.0</ele><time>2026-05-01T10:27:12Z</time></trkpt><trkpt lat="44.38895072764069" lon="11.588358819205943"><ele>70.0</ele><time>2026-05-01T10:27:14Z</time></trkpt><trkpt lat="44.38906173680469" lon="11.588350809369256"><ele>70.0</ele><time>2026-05-01T10:27:16Z</time></trkpt><trkpt lat="44.38917336825607" lon="11.588330975382759"><ele>70.0</ele><time>2026-05-01T10:27:18Z</time></trkpt><trkpt lat="44.38927240132599" lon="11.588328194265285"><ele>70.0</ele><time>2026-05-01T10:27:20Z</time></trkpt><trkpt lat="44.389389906400574" lon="11.588322937318292"><ele>70.0</ele><time>2026-05-01T10:27:22Z</time></trkpt><trkpt lat="44.389499344106525" lon="11.588345567668622"><ele>70.0</ele><time>2026-05-01T10:27:24Z</time></trkpt><trkpt lat="44.38960485501827" lon="11.588389427867012"><ele>70.0</ele><time>2026-05-01T10:27:26Z</time></trkpt><trkpt lat="44.389714082994544" lon="11.58842230843568"><ele>70.0</ele><time>2026-05-01T10:27:28Z</time></trkpt><trkpt lat="44.389821338150036" lon="11.58847892244904"><ele>70.0</ele><time>2026-05-01T10:27:30Z</time></trkpt><trkpt lat="44.38992673980919" lon="11.58852397319722"><ele>70.0</ele><time>2026-05-01T10:27:32Z</time></trkpt><trkpt lat="44.39003981397468" lon="11.588564144573052"><ele>70.0</ele><time>2026-05-01T10:27:34Z</time></trkpt><trkpt lat="44.39014722771354" lon="11.588611007199884"><ele>70.0</ele><time>2026-05-01T10:27:36Z</time></trkpt><trkpt lat="44.390254687900295" lon="11.588635976330954"><ele>70.0</ele><time>2026-05-01T10:27:38Z</time></trkpt><trkpt lat="44.39035955242593" lon="11.58863698260059"><ele>70.0</ele><time>2026-05-01T10:27:40Z</time></trkpt><trkpt lat="44.390465465516606" lon="11.588634863209593"><ele>70.0</ele><time>2026-05-01T10:27:42Z</time></trkpt><trkpt lat="44.39057149890422" lon="11.58865271946438"><ele>70.0</ele><time>2026-05-01T10:27:44Z</time></trkpt><trkpt lat="44.39067822613806" lon="11.588640353591957"><ele>70.0</ele><time>2026-05-01T10:27:46Z</time></trkpt><trkpt lat="44.39079695834939" lon="11.588628409772125"><ele>70.0</ele><time>2026-05-01T10:27:48Z</time></trkpt><trkpt lat="44.390915101633695" lon="11.588625366059246"><ele>70.0</ele><time>2026-05-01T10:27:50Z</time></trkpt><trkpt lat="44.391027029745445" lon="11.588611789328537"><ele>70.0</ele><time>2026-05-01T10:27:52Z</time></trkpt><trkpt lat="44.391133734619515" lon="11.588603820476319"><ele>70.0</ele><time>2026-05-01T10:27:54Z</time></trkpt><trkpt lat="44.39123943021757" lon="11.588594145205077"><ele>70.0</ele><time>2026-05-01T10:27:56Z</time></trkpt><trkpt lat="44.39134591787318" lon="11.588582928210165"><ele>70.0</ele><time>2026-05-01T10:27:58Z</time></trkpt><trkpt lat="44.391454993072244" lon="11.588577527589361"><ele>70.0</ele><time>2026-05-01T10:28:00Z</time></trkpt><trkpt lat="44.39155638272832" lon="11.588574983716112"><ele>70.6</ele><time>2026-05-01T10:28:02Z</time></trkpt><trkpt lat="44.39166540874154" lon="11.588565253199087"><ele>71.2</ele><time>2026-05-01T10:28:04Z</time></trkpt><trkpt lat="44.39176504631392" lon="11.58855566937571"><ele>71.8</ele><time>2026-05-01T10:28:06Z</time></trkpt><trkpt lat="44.39186421825166" lon="11.588565618451591"><ele>72.4</ele><time>2026-05-01T10:28:08Z</time></trkpt><trkpt lat="44.39195602354557" lon="11.588602626743597"><ele>73.0</ele><time>2026-05-01T10:28:10Z</time></trkpt><trkpt lat="44.39203676706899" lon="11.588652050553598"><ele>72.33333333333333</ele><time>2026-05-01T10:28:12Z</time></trkpt><trkpt lat="44.3921109014088" lon="11.588681752353212"><ele>71.66666666666666</ele><time>2026-05-01T10:28:14Z</time></trkpt><trkpt lat="44.39218202340576" lon="11.588718327069097"><ele>71.0</ele><time>2026-05-01T10:28:16Z</time></trkpt><trkpt lat="44.39225745571232" lon="11.588758750777057"><ele>70.33333333333333</ele><time>2026-05-01T10:28:18Z</time></trkpt><trkpt lat="44.392334201733" lon="11.588797529515771"><ele>69.66666666666667</ele><time>2026-05-01T10:28:20Z</time></trkpt><trkpt lat="44.39240707286767" lon="11.588829278785978"><ele>69.0</ele><time>2026-05-01T10:28:22Z</time></trkpt><trkpt lat="44.39247704434314" lon="11.588853340932328"><ele>69.0</ele><time>2026-05-01T10:28:24Z</time></trkpt><trkpt lat="44.3925511947076" lon="11.588877781915144"><ele>69.0</ele><time>2026-05-01T10:28:26Z</time></trkpt><trkpt lat="44.392628138828705" lon="11.588895514258692"><ele>69.0</ele><time>2026-05-01T10:28:28Z</time></trkpt><trkpt lat="44.39269828255113" lon="11.588908293997761"><ele>69.0</ele><time>2026-05-01T10:28:30Z</time></trkpt><trkpt lat="44.39276227361226" lon="11.588914747343347"><ele>69.0</ele><time>2026-05-01T10:28:32Z</time></trkpt><trkpt lat="44.39285387190131" lon="11.588924071310947"><ele>69.0</ele><time>2026-05-01T10:28:35Z</time></trkpt><trkpt lat="44.39297042044971" lon="11.588944576027693"><ele>69.60000000000001</ele><time>2026-05-01T10:28:37.999Z</time></trkpt><trkpt lat="44.39305737246181" lon="11.58894995952692"><ele>70.2</ele><time>2026-05-01T10:28:40.999Z</time></trkpt><trkpt lat="44.393141251085254" lon="11.588964292621307"><ele>70.80000000000001</ele><time>2026-05-01T10:28:43.999Z</time></trkpt><trkpt lat="44.39320551527512" lon="11.588958928024924"><ele>71.4</ele><time>2026-05-01T10:28:45.999Z</time></trkpt><trkpt lat="44.39337231241935" lon="11.588931557247022"><ele>72.0</ele><time>2026-05-01T10:28:50.999Z</time></trkpt><trkpt lat="44.393447237483585" lon="11.588917516218974"><ele>72.00000000000001</ele><time>2026-05-01T10:28:52.999Z</time></trkpt><trkpt lat="44.39351557835744" lon="11.588892909364612"><ele>72.0</ele><time>2026-05-01T10:28:54.999Z</time></trkpt><trkpt lat="44.39358351837562" lon="11.588865656538163"><ele>72.0</ele><time>2026-05-01T10:28:56.999Z</time></trkpt><trkpt lat="44.39365107245573" lon="11.588836424637298"><ele>72.0</ele><time>2026-05-01T10:28:58.999Z</time></trkpt><trkpt lat="44.39371988775511" lon="11.588823301150743"><ele>72.0</ele><time>2026-05-01T10:29:00.999Z</time></trkpt><trkpt lat="44.39381400723418" lon="11.588831463254515"><ele>72.00000000000001</ele><time>2026-05-01T10:29:03.999Z</time></trkpt><trkpt lat="44.393882746771446" lon="11.58883453311911"><ele>72.0</ele><time>2026-05-01T10:29:05.999Z</time></trkpt><trkpt lat="44.393946805216714" lon="11.588851981967894"><ele>73.0</ele><time>2026-05-01T10:29:08Z</time></trkpt><trkpt lat="44.394015554514226" lon="11.588866289877306"><ele>74.0</ele><time>2026-05-01T10:29:10Z</time></trkpt><trkpt lat="44.39408034856017" lon="11.588883304314226"><ele>75.0</ele><time>2026-05-01T10:29:12Z</time></trkpt><trkpt lat="44.39415768253676" lon="11.588923434436108"><ele>76.0</ele><time>2026-05-01T10:29:15Z</time></trkpt><trkpt lat="44.39423454209488" lon="11.588959070721149"><ele>77.0</ele><time>2026-05-01T10:29:18Z</time></trkpt><trkpt lat="44.394308098639414" lon="11.588991359878301"><ele>78.0</ele><time>2026-05-01T10:29:21Z</time></trkpt><trkpt lat="44.39437983953882" lon="11.589047131880031"><ele>78.0</ele><time>2026-05-01T10:29:24Z</time></trkpt><trkpt lat="44.3944566846337" lon="11.589086362787528"><ele>78.0</ele><time>2026-05-01T10:29:27Z</time></trkpt><trkpt lat="44.39451418799242" lon="11.58913404467888"><ele>78.0</ele><time>2026-05-01T10:29:29Z</time></trkpt><trkpt lat="44.394592541909624" lon="11.589187587404425"><ele>78.0</ele><time>2026-05-01T10:29:32Z</time></trkpt><trkpt lat="44.3946478210768" lon="11.589231385148565"><ele>78.0</ele><time>2026-05-01T10:29:34Z</time></trkpt><trkpt lat="44.394729371500084" lon="11.589271062944864"><ele>78.0</ele><time>2026-05-01T10:29:37Z</time></trkpt><trkpt lat="44.39481287424089" lon="11.589331271882354"><ele>78.66666666666667</ele><time>2026-05-01T10:29:40Z</time></trkpt><trkpt lat="44.39487679562211" lon="11.589352184526922"><ele>79.33333333333333</ele><time>2026-05-01T10:29:42Z</time></trkpt><trkpt lat="44.39495777268092" lon="11.589397906447262"><ele>80.0</ele><time>2026-05-01T10:29:45Z</time></trkpt><trkpt lat="44.39504538149163" lon="11.589428950445908"><ele>80.66666666666666</ele><time>2026-05-01T10:29:48Z</time></trkpt><trkpt lat="44.395134563829544" lon="11.589468632379054"><ele>81.33333333333333</ele><time>2026-05-01T10:29:51Z</time></trkpt><trkpt lat="44.39520158080002" lon="11.589482807382417"><ele>82.0</ele><time>2026-05-01T10:29:53Z</time></trkpt><trkpt lat="44.395266653206114" lon="11.58950514652897"><ele>82.0</ele><time>2026-05-01T10:29:55Z</time></trkpt><trkpt lat="44.39533572082216" lon="11.58951519646984"><ele>82.0</ele><time>2026-05-01T10:29:57Z</time></trkpt><trkpt lat="44.39542309986347" lon="11.58955366165457"><ele>82.0</ele><time>2026-05-01T10:30:00Z</time></trkpt><trkpt lat="44.395513431501975" lon="11.589612402517828"><ele>82.0</ele><time>2026-05-01T10:30:27Z</time></trkpt><trkpt lat="44.39559126135751" lon="11.58967948226599"><ele>82.0</ele><time>2026-05-01T10:32:12Z</time></trkpt><trkpt lat="44.39565673551551" lon="11.589773564949247"><ele>82.0</ele><time>2026-05-01T10:32:15Z</time></trkpt><trkpt lat="44.39569783504145" lon="11.589845234153215"><ele>82.0</ele><time>2026-05-01T10:32:17Z</time></trkpt><trkpt lat="44.39575316770869" lon="11.589911295412564"><ele>82.0</ele><time>2026-05-01T10:32:19Z</time></trkpt><trkpt lat="44.39579657696151" lon="11.589982168547307"><ele>82.0</ele><time>2026-05-01T10:32:21Z</time></trkpt><trkpt lat="44.395852319269316" lon="11.590060929287848"><ele>82.0</ele><time>2026-05-01T10:32:23Z</time></trkpt><trkpt lat="44.39590614599456" lon="11.590143545666812"><ele>82.0</ele><time>2026-05-01T10:32:25Z</time></trkpt><trkpt lat="44.39595708572119" lon="11.590233510090004"><ele>82.0</ele><time>2026-05-01T10:32:27Z</time></trkpt><trkpt lat="44.39601699019668" lon="11.590311752261238"><ele>80.66666666666666</ele><time>2026-05-01T10:32:29Z</time></trkpt><trkpt lat="44.39606920471533" lon="11.590390828332346"><ele>79.33333333333333</ele><time>2026-05-01T10:32:31Z</time></trkpt><trkpt lat="44.396123355834156" lon="11.590480693016504"><ele>78.0</ele><time>2026-05-01T10:32:33Z</time></trkpt><trkpt lat="44.39616336475072" lon="11.590554522845485"><ele>76.66666666666667</ele><time>2026-05-01T10:32:35Z</time></trkpt><trkpt lat="44.39621938528988" lon="11.590623193820926"><ele>75.33333333333334</ele><time>2026-05-01T10:32:37Z</time></trkpt><trkpt lat="44.39626566352638" lon="11.590706367043257"><ele>74.0</ele><time>2026-05-01T10:32:39Z</time></trkpt><trkpt lat="44.39632154292461" lon="11.590790399595152"><ele>74.85714285714286</ele><time>2026-05-01T10:32:41Z</time></trkpt><trkpt lat="44.39638664985373" lon="11.590859298204881"><ele>75.71428571428571</ele><time>2026-05-01T10:32:43Z</time></trkpt><trkpt lat="44.39645745983373" lon="11.590896992167142"><ele>76.57142857142857</ele><time>2026-05-01T10:32:44.999Z</time></trkpt><trkpt lat="44.39652934470363" lon="11.590930871308217"><ele>77.42857142857143</ele><time>2026-05-01T10:32:46.999Z</time></trkpt><trkpt lat="44.39659759428427" lon="11.590967958043873"><ele>78.28571428571429</ele><time>2026-05-01T10:32:48.999Z</time></trkpt><trkpt lat="44.39666615457054" lon="11.590982706989305"><ele>79.14285714285714</ele><time>2026-05-01T10:32:50.999Z</time></trkpt><trkpt lat="44.396731997091166" lon="11.591013362691392"><ele>80.0</ele><time>2026-05-01T10:32:52.999Z</time></trkpt><trkpt lat="44.39681057266424" lon="11.591058976971702"><ele>80.0</ele><time>2026-05-01T10:32:55.999Z</time></trkpt><trkpt lat="44.39681342361207" lon="11.591151179482813"><ele>80.0</ele><time>2026-05-01T10:32:57.999Z</time></trkpt><trkpt lat="44.39672819437713" lon="11.591165418565858"><ele>80.0</ele><time>2026-05-01T10:33:01.999Z</time></trkpt><trkpt lat="44.39664186732485" lon="11.591143827529393"><ele>80.0</ele><time>2026-05-01T10:33:03.999Z</time></trkpt><trkpt lat="44.39653064232672" lon="11.591103076167578"><ele>80.0</ele><time>2026-05-01T10:33:05.999Z</time></trkpt><trkpt lat="44.3964295400335" lon="11.591082869564751"><ele>80.0</ele><time>2026-05-01T10:33:07.999Z</time></trkpt><trkpt lat="44.39634143216645" lon="11.591046127781823"><ele>80.0</ele><time>2026-05-01T10:33:09.999Z</time></trkpt><trkpt lat="44.39625677107137" lon="11.591061645774365"><ele>80.0</ele><time>2026-05-01T10:33:11.999Z</time></trkpt><trkpt lat="44.39618117103625" lon="11.591082155916546"><ele>80.0</ele><time>2026-05-01T10:33:13.999Z</time></trkpt><trkpt lat="44.39608740217148" lon="11.591109192970697"><ele>80.0</ele><time>2026-05-01T10:33:16.999Z</time></trkpt><trkpt lat="44.39598807795056" lon="11.591137831279948"><ele>78.8</ele><time>2026-05-01T10:33:19Z</time></trkpt><trkpt lat="44.39588679992746" lon="11.591187230102364"><ele>77.6</ele><time>2026-05-01T10:33:21Z</time></trkpt><trkpt lat="44.395785197322375" lon="11.591175722513256"><ele>76.4</ele><time>2026-05-01T10:33:23Z</time></trkpt><trkpt lat="44.3956847581816" lon="11.591134681066961"><ele>75.2</ele><time>2026-05-01T10:33:25Z</time></trkpt><trkpt lat="44.395619792275745" lon="11.591040531157624"><ele>74.0</ele><time>2026-05-01T10:33:27Z</time></trkpt><trkpt lat="44.39560730696819" lon="11.590931229936533"><ele>74.0</ele><time>2026-05-01T10:33:29Z</time></trkpt><trkpt lat="44.39558977749693" lon="11.59082877274855"><ele>74.0</ele><time>2026-05-01T10:33:32Z</time></trkpt><trkpt lat="44.395528003020615" lon="11.590868866816823"><ele>74.0</ele><time>2026-05-01T11:03:59Z</time></trkpt><trkpt lat="44.39554546224612" lon="11.590964108948125"><ele>74.0</ele><time>2026-05-01T11:04:02Z</time></trkpt><trkpt lat="44.39558982258229" lon="11.591059253317558"><ele>74.0</ele><time>2026-05-01T11:04:05.999Z</time></trkpt><trkpt lat="44.3956504204506" lon="11.591122685696302"><ele>74.0</ele><time>2026-05-01T11:04:09.999Z</time></trkpt><trkpt lat="44.39571163987001" lon="11.591161632842224"><ele>74.0</ele><time>2026-05-01T11:04:13.999Z</time></trkpt><trkpt lat="44.39579342250672" lon="11.59119440420922"><ele>72.16666666666667</ele><time>2026-05-01T11:04:17.999Z</time></trkpt><trkpt lat="44.39586745836618" lon="11.591213078944065"><ele>70.33333333333334</ele><time>2026-05-01T11:04:21.999Z</time></trkpt><trkpt lat="44.395938558512206" lon="11.591207252809346"><ele>68.5</ele><time>2026-05-01T11:04:25.999Z</time></trkpt><trkpt lat="44.39602172910964" lon="11.591203687509683"><ele>66.66666666666667</ele><time>2026-05-01T11:04:30.999Z</time></trkpt><trkpt lat="44.39613297144411" lon="11.591203191122403"><ele>64.83333333333333</ele><time>2026-05-01T11:04:36.999Z</time></trkpt><trkpt lat="44.396196543498064" lon="11.591237303946356"><ele>63.0</ele><time>2026-05-01T11:04:39.999Z</time></trkpt><trkpt lat="44.39626312426989" lon="11.591276955270674"><ele>63.0</ele><time>2026-05-01T11:04:42.999Z</time></trkpt><trkpt lat="44.39631534857749" lon="11.591327369613184"><ele>63.0</ele><time>2026-05-01T11:04:45.999Z</time></trkpt><trkpt lat="44.3963786427366" lon="11.591368442669303"><ele>63.0</ele><time>2026-05-01T11:04:49Z</time></trkpt><trkpt lat="44.39645474164442" lon="11.591414489309082"><ele>63.0</ele><time>2026-05-01T11:04:52Z</time></trkpt><trkpt lat="44.396524355346756" lon="11.591447610234708"><ele>63.0</ele><time>2026-05-01T11:04:55Z</time></trkpt><trkpt lat="44.396587892076596" lon="11.591488900026148"><ele>63.0</ele><time>2026-05-01T11:04:58Z</time></trkpt><trkpt lat="44.3966628129278" lon="11.591535132816299"><ele>63.0</ele><time>2026-05-01T11:05:01Z</time></trkpt><trkpt lat="44.396723530937635" lon="11.591569418020134"><ele>64.16666666666667</ele><time>2026-05-01T11:05:04Z</time></trkpt><trkpt lat="44.39679849971078" lon="11.591615749403147"><ele>65.33333333333333</ele><time>2026-05-01T11:05:07Z</time></trkpt><trkpt lat="44.39686111340381" lon="11.591657742466678"><ele>66.5</ele><time>2026-05-01T11:05:09Z</time></trkpt><trkpt lat="44.39693574908575" lon="11.591702654006115"><ele>67.66666666666666</ele><time>2026-05-01T11:05:12Z</time></trkpt><trkpt lat="44.397012559882185" lon="11.591765352445321"><ele>68.83333333333333</ele><time>2026-05-01T11:05:15Z</time></trkpt><trkpt lat="44.397089929333895" lon="11.591747177610483"><ele>70.0</ele><time>2026-05-01T11:05:18Z</time></trkpt><trkpt lat="44.39714763730117" lon="11.591682429359626"><ele>70.28571428571429</ele><time>2026-05-01T11:05:24Z</time></trkpt><trkpt lat="44.39721244050481" lon="11.591700442416672"><ele>70.57142857142857</ele><time>2026-05-01T11:05:30Z</time></trkpt><trkpt lat="44.397278447868615" lon="11.591739610749991"><ele>70.85714285714286</ele><time>2026-05-01T11:05:34Z</time></trkpt><trkpt lat="44.397351999454884" lon="11.591741472973936"><ele>71.14285714285714</ele><time>2026-05-01T11:05:38Z</time></trkpt><trkpt lat="44.39742531182215" lon="11.591700439308369"><ele>71.42857142857143</ele><time>2026-05-01T11:05:43Z</time></trkpt><trkpt lat="44.39749346103407" lon="11.591685865318075"><ele>71.71428571428572</ele><time>2026-05-01T11:05:48Z</time></trkpt><trkpt lat="44.3974475631163" lon="11.591754609681827"><ele>72.0</ele><time>2026-05-01T11:06:07.999Z</time></trkpt><trkpt lat="44.397350814068" lon="11.59179817398186"><ele>72.0</ele><time>2026-05-01T11:06:11.999Z</time></trkpt><trkpt lat="44.39726486571208" lon="11.5917617313822"><ele>72.0</ele><time>2026-05-01T11:06:14.999Z</time></trkpt><trkpt lat="44.397177680706086" lon="11.591748955821737"><ele>72.0</ele><time>2026-05-01T11:06:17.999Z</time></trkpt><trkpt lat="44.39712484673533" lon="11.591814858315185"><ele>72.0</ele><time>2026-05-01T11:06:19.999Z</time></trkpt><trkpt lat="44.39704647855472" lon="11.591825959108853"><ele>72.0</ele><time>2026-05-01T11:06:21.999Z</time></trkpt><trkpt lat="44.39698616082996" lon="11.591769473357132"><ele>72.0</ele><time>2026-05-01T11:06:23.999Z</time></trkpt><trkpt lat="44.396905942443" lon="11.591713428285942"><ele>71.66666666666667</ele><time>2026-05-01T11:06:26.999Z</time></trkpt><trkpt lat="44.39684128855092" lon="11.591680101556028"><ele>71.33333333333333</ele><time>2026-05-01T11:06:29.999Z</time></trkpt><trkpt lat="44.39676587320167" lon="11.591639256432964"><ele>71.0</ele><time>2026-05-01T11:06:32.999Z</time></trkpt><trkpt lat="44.396681046415615" lon="11.591576306651445"><ele>70.66666666666666</ele><time>2026-05-01T11:06:35.999Z</time></trkpt><trkpt lat="44.39660515650093" lon="11.591526826703584"><ele>70.33333333333333</ele><time>2026-05-01T11:06:38.999Z</time></trkpt><trkpt lat="44.39654497690192" lon="11.591496770929462"><ele>70.0</ele><time>2026-05-01T11:06:41.999Z</time></trkpt><trkpt lat="44.39646216861231" lon="11.591448737780683"><ele>70.0</ele><time>2026-05-01T11:06:44.999Z</time></trkpt><trkpt lat="44.396400548370224" lon="11.591411582174342"><ele>70.0</ele><time>2026-05-01T11:06:46.999Z</time></trkpt><trkpt lat="44.39634018077363" lon="11.591380678149497"><ele>70.0</ele><time>2026-05-01T11:06:48.999Z</time></trkpt><trkpt lat="44.39625741888035" lon="11.591341939745732"><ele>70.0</ele><time>2026-05-01T11:06:51.999Z</time></trkpt><trkpt lat="44.39618080940322" lon="11.591312838981205"><ele>70.0</ele><time>2026-05-01T11:06:55Z</time></trkpt><trkpt lat="44.39610822558186" lon="11.591318709280635"><ele>70.0</ele><time>2026-05-01T11:06:57Z</time></trkpt><trkpt lat="44.39602761051254" lon="11.591347193284436"><ele>70.66666666666666</ele><time>2026-05-01T11:06:59Z</time></trkpt><trkpt lat="44.39594050770512" lon="11.591337830014933"><ele>71.33333333333333</ele><time>2026-05-01T11:07:01Z</time></trkpt><trkpt lat="44.39585553602302" lon="11.591321462991605"><ele>72.0</ele><time>2026-05-01T11:07:03Z</time></trkpt><trkpt lat="44.3957758788361" lon="11.591288146862626"><ele>72.66666666666667</ele><time>2026-05-01T11:07:05Z</time></trkpt><trkpt lat="44.39571012515833" lon="11.591238658129335"><ele>73.33333333333334</ele><time>2026-05-01T11:07:07Z</time></trkpt><trkpt lat="44.39566644791995" lon="11.591148800441152"><ele>74.0</ele><time>2026-05-01T11:07:10Z</time></trkpt><trkpt lat="44.395614694911046" lon="11.591043033857858"><ele>74.0</ele><time>2026-05-01T11:13:14Z</time></trkpt><trkpt lat="44.3955555334561" lon="11.591086942347728"><ele>74.0</ele><time>2026-05-01T11:13:27Z</time></trkpt><trkpt lat="44.39548882275154" lon="11.591107789911208"><ele>74.0</ele><time>2026-05-01T11:13:32Z</time></trkpt><trkpt lat="44.3954114586106" lon="11.591107620160425"><ele>74.0</ele><time>2026-05-01T11:13:36Z</time></trkpt><trkpt lat="44.39534651544481" lon="11.591088337774641"><ele>74.0</ele><time>2026-05-01T11:13:39Z</time></trkpt><trkpt lat="44.395284470624304" lon="11.591062755759431"><ele>74.0</ele><time>2026-05-01T11:13:42Z</time></trkpt><trkpt lat="44.395212115397285" lon="11.591028050242794"><ele>74.0</ele><time>2026-05-01T11:13:46Z</time></trkpt><trkpt lat="44.395153766766946" lon="11.59099423233033"><ele>73.0</ele><time>2026-05-01T11:13:50Z</time></trkpt><trkpt lat="44.395094215492705" lon="11.590962213486568"><ele>72.0</ele><time>2026-05-01T11:13:55Z</time></trkpt><trkpt lat="44.39503228008384" lon="11.590916237580478"><ele>71.0</ele><time>2026-05-01T11:13:58Z</time></trkpt><trkpt lat="44.394965873932364" lon="11.590868066828401"><ele>70.0</ele><time>2026-05-01T11:14:01Z</time></trkpt><trkpt lat="44.394904272338714" lon="11.590813083693046"><ele>69.0</ele><time>2026-05-01T11:14:04Z</time></trkpt><trkpt lat="44.39484924442541" lon="11.590760535269535"><ele>68.0</ele><time>2026-05-01T11:14:07Z</time></trkpt><trkpt lat="44.3947836434332" lon="11.590697923227728"><ele>67.0</ele><time>2026-05-01T11:14:10Z</time></trkpt><trkpt lat="44.39471272465528" lon="11.59063936685403"><ele>66.0</ele><time>2026-05-01T11:14:13Z</time></trkpt><trkpt lat="44.3946558928823" lon="11.590578311460666"><ele>65.0</ele><time>2026-05-01T11:14:16Z</time></trkpt><trkpt lat="44.39458546441346" lon="11.590543857709484"><ele>64.0</ele><time>2026-05-01T11:14:18.999Z</time></trkpt><trkpt lat="44.39451714971944" lon="11.590505278485573"><ele>63.0</ele><time>2026-05-01T11:14:21.999Z</time></trkpt><trkpt lat="44.39443772357943" lon="11.590462288362371"><ele>61.99999999999999</ele><time>2026-05-01T11:14:24.999Z</time></trkpt><trkpt lat="44.394369239023746" lon="11.590429146819876"><ele>61.0</ele><time>2026-05-01T11:14:26.999Z</time></trkpt><trkpt lat="44.39429881490731" lon="11.590366985470489"><ele>62.199999999999996</ele><time>2026-05-01T11:14:28.999Z</time></trkpt><trkpt lat="44.39422362800406" lon="11.590314619938992"><ele>63.39999999999999</ele><time>2026-05-01T11:14:30.999Z</time></trkpt><trkpt lat="44.39414513719529" lon="11.590261135720157"><ele>64.6</ele><time>2026-05-01T11:14:32.999Z</time></trkpt><trkpt lat="44.394054930912446" lon="11.590220646562852"><ele>65.8</ele><time>2026-05-01T11:14:34.999Z</time></trkpt><trkpt lat="44.3939645109479" lon="11.590159222410632"><ele>67.0</ele><time>2026-05-01T11:14:36.999Z</time></trkpt><trkpt lat="44.393881565477024" lon="11.590095732755074"><ele>66.57142857142857</ele><time>2026-05-01T11:14:38.999Z</time></trkpt><trkpt lat="44.39381303411603" lon="11.59003512666422"><ele>66.14285714285714</ele><time>2026-05-01T11:14:40.999Z</time></trkpt><trkpt lat="44.39376665688905" lon="11.589971827779761"><ele>65.71428571428571</ele><time>2026-05-01T11:14:42.999Z</time></trkpt><trkpt lat="44.393700441640846" lon="11.589891995052778"><ele>65.28571428571428</ele><time>2026-05-01T11:14:45.999Z</time></trkpt><trkpt lat="44.39364538074433" lon="11.589836894753969"><ele>64.85714285714285</ele><time>2026-05-01T11:14:48.999Z</time></trkpt><trkpt lat="44.39357021607865" lon="11.589813752821755"><ele>64.42857142857143</ele><time>2026-05-01T11:14:51.999Z</time></trkpt><trkpt lat="44.39350167531198" lon="11.58980692314384"><ele>64.0</ele><time>2026-05-01T11:14:53.999Z</time></trkpt><trkpt lat="44.39342980722533" lon="11.589791062491202"><ele>63.99999999999999</ele><time>2026-05-01T11:14:55.999Z</time></trkpt><trkpt lat="44.393353661793064" lon="11.589773850952245"><ele>64.0</ele><time>2026-05-01T11:14:57.999Z</time></trkpt><trkpt lat="44.39326153840195" lon="11.58975853983416"><ele>64.0</ele><time>2026-05-01T11:14:59.999Z</time></trkpt><trkpt lat="44.393153441496516" lon="11.589752749058915"><ele>64.0</ele><time>2026-05-01T11:15:01.999Z</time></trkpt><trkpt lat="44.39306164199519" lon="11.589741477015984"><ele>63.99999999999999</ele><time>2026-05-01T11:15:03.999Z</time></trkpt><trkpt lat="44.392984864589046" lon="11.589724113773938"><ele>64.0</ele><time>2026-05-01T11:15:05.999Z</time></trkpt><trkpt lat="44.392900284606156" lon="11.58972018534203"><ele>63.666666666666664</ele><time>2026-05-01T11:15:07.999Z</time></trkpt><trkpt lat="44.39282209358437" lon="11.58969186925807"><ele>63.33333333333333</ele><time>2026-05-01T11:15:09.999Z</time></trkpt><trkpt lat="44.392739037020796" lon="11.58968233520529"><ele>63.0</ele><time>2026-05-01T11:15:11.999Z</time></trkpt><trkpt lat="44.39265563450102" lon="11.589691586714512"><ele>62.66666666666667</ele><time>2026-05-01T11:15:13.999Z</time></trkpt><trkpt lat="44.39256113841914" lon="11.589681113448037"><ele>62.333333333333336</ele><time>2026-05-01T11:15:15.999Z</time></trkpt><trkpt lat="44.39246813373093" lon="11.589657424522922"><ele>62.0</ele><time>2026-05-01T11:15:18Z</time></trkpt><trkpt lat="44.39238212021785" lon="11.58964749141899"><ele>62.00000000000001</ele><time>2026-05-01T11:15:20Z</time></trkpt><trkpt lat="44.39231435273216" lon="11.58962249865894"><ele>62.0</ele><time>2026-05-01T11:15:22Z</time></trkpt><trkpt lat="44.3922192038125" lon="11.589598991508339"><ele>62.0</ele><time>2026-05-01T11:15:25Z</time></trkpt><trkpt lat="44.39214398287899" lon="11.589594671125425"><ele>62.0</ele><time>2026-05-01T11:15:27Z</time></trkpt><trkpt lat="44.3920761624486" lon="11.589640673323746"><ele>62.00000000000001</ele><time>2026-05-01T11:15:29Z</time></trkpt><trkpt lat="44.39202383516174" lon="11.589723882862781"><ele>62.0</ele><time>2026-05-01T11:15:32Z</time></trkpt><trkpt lat="44.391967468510416" lon="11.589803682920767"><ele>61.833333333333336</ele><time>2026-05-01T11:15:36Z</time></trkpt><trkpt lat="44.39191816985905" lon="11.58988718281688"><ele>61.66666666666667</ele><time>2026-05-01T11:15:40Z</time></trkpt><trkpt lat="44.391863670342275" lon="11.58995066970369"><ele>61.5</ele><time>2026-05-01T11:15:43Z</time></trkpt><trkpt lat="44.39181171167781" lon="11.590033434705433"><ele>61.33333333333333</ele><time>2026-05-01T11:15:46Z</time></trkpt><trkpt lat="44.39175385804701" lon="11.590110804363468"><ele>61.166666666666664</ele><time>2026-05-01T11:15:49Z</time></trkpt><trkpt lat="44.391681493448544" lon="11.590203931366137"><ele>61.0</ele><time>2026-05-01T11:15:52Z</time></trkpt><trkpt lat="44.39162767440752" lon="11.590287722925646"><ele>61.599999999999994</ele><time>2026-05-01T11:15:54Z</time></trkpt><trkpt lat="44.39159963188905" lon="11.590394489876278"><ele>62.199999999999996</ele><time>2026-05-01T11:15:56Z</time></trkpt><trkpt lat="44.39165187459972" lon="11.59052778648645"><ele>62.800000000000004</ele><time>2026-05-01T11:15:58Z</time></trkpt><trkpt lat="44.39169343848341" lon="11.590653759983217"><ele>63.400000000000006</ele><time>2026-05-01T11:16:00Z</time></trkpt><trkpt lat="44.391730395945075" lon="11.590762236976333"><ele>64.0</ele><time>2026-05-01T11:16:02Z</time></trkpt><trkpt lat="44.3917730523564" lon="11.590878672454847"><ele>64.0</ele><time>2026-05-01T11:16:04Z</time></trkpt><trkpt lat="44.391808438797725" lon="11.590984766390129"><ele>64.0</ele><time>2026-05-01T11:16:07Z</time></trkpt><trkpt lat="44.3918797675623" lon="11.591032113698153"><ele>64.0</ele><time>2026-05-01T11:16:10Z</time></trkpt><trkpt lat="44.391974262208464" lon="11.591062193676239"><ele>64.0</ele><time>2026-05-01T11:16:13Z</time></trkpt><trkpt lat="44.392044866765055" lon="11.591102784399588"><ele>64.0</ele><time>2026-05-01T11:16:15Z</time></trkpt><trkpt lat="44.39227013230609" lon="11.591115890643636"><ele>63.83333333333333</ele><time>2026-05-01T11:16:22Z</time></trkpt><trkpt lat="44.39234243121268" lon="11.591145112117523"><ele>63.666666666666664</ele><time>2026-05-01T11:16:24Z</time></trkpt><trkpt lat="44.39241278871462" lon="11.591170564461803"><ele>63.5</ele><time>2026-05-01T11:16:26Z</time></trkpt><trkpt lat="44.39248568292892" lon="11.591198682938298"><ele>63.33333333333333</ele><time>2026-05-01T11:16:28Z</time></trkpt><trkpt lat="44.39254676634725" lon="11.591221735737546"><ele>63.166666666666664</ele><time>2026-05-01T11:16:30Z</time></trkpt><trkpt lat="44.39262148347284" lon="11.59124400912009"><ele>63.0</ele><time>2026-05-01T11:16:32Z</time></trkpt><trkpt lat="44.39270630257681" lon="11.591275215990658"><ele>63.0</ele><time>2026-05-01T11:16:35Z</time></trkpt><trkpt lat="44.392767200197675" lon="11.59131389934611"><ele>63.0</ele><time>2026-05-01T11:16:37Z</time></trkpt><trkpt lat="44.39282894111355" lon="11.591333418188693"><ele>63.0</ele><time>2026-05-01T11:16:39Z</time></trkpt><trkpt lat="44.39289207104259" lon="11.59136198081209"><ele>63.0</ele><time>2026-05-01T11:16:41Z</time></trkpt><trkpt lat="44.39296246126695" lon="11.591386355176738"><ele>63.0</ele><time>2026-05-01T11:16:43Z</time></trkpt><trkpt lat="44.39303823936114" lon="11.59141797072828"><ele>63.0</ele><time>2026-05-01T11:16:44.999Z</time></trkpt><trkpt lat="44.393114905393624" lon="11.591439094467125"><ele>63.0</ele><time>2026-05-01T11:16:46.999Z</time></trkpt><trkpt lat="44.39318974064884" lon="11.591456693199232"><ele>62.666666666666664</ele><time>2026-05-01T11:16:48.999Z</time></trkpt><trkpt lat="44.39326277749152" lon="11.59149010354792"><ele>62.33333333333333</ele><time>2026-05-01T11:16:50.999Z</time></trkpt><trkpt lat="44.39334531223977" lon="11.591504379230313"><ele>62.0</ele><time>2026-05-01T11:16:52.999Z</time></trkpt><trkpt lat="44.39341589313077" lon="11.591528792254161"><ele>61.666666666666664</ele><time>2026-05-01T11:16:54.999Z</time></trkpt><trkpt lat="44.393504405481664" lon="11.59156705437725"><ele>61.33333333333333</ele><time>2026-05-01T11:16:57.999Z</time></trkpt><trkpt lat="44.393576055785665" lon="11.591597843442532"><ele>61.0</ele><time>2026-05-01T11:16:59.999Z</time></trkpt><trkpt lat="44.393665585168606" lon="11.591646696917245"><ele>60.99999999999999</ele><time>2026-05-01T11:17:02.999Z</time></trkpt><trkpt lat="44.39372605543978" lon="11.591682884239917"><ele>61.0</ele><time>2026-05-01T11:17:04.999Z</time></trkpt><trkpt lat="44.39379668854763" lon="11.591709929538643"><ele>61.0</ele><time>2026-05-01T11:17:06.999Z</time></trkpt><trkpt lat="44.393891507796134" lon="11.591732463027082"><ele>61.0</ele><time>2026-05-01T11:17:09.999Z</time></trkpt><trkpt lat="44.393956645211816" lon="11.591761129271624"><ele>60.99999999999999</ele><time>2026-05-01T11:17:11.999Z</time></trkpt><trkpt lat="44.394021731702566" lon="11.5917876029316"><ele>61.0</ele><time>2026-05-01T11:17:13.999Z</time></trkpt><trkpt lat="44.3941128687452" lon="11.591809273271457"><ele>60.85714285714285</ele><time>2026-05-01T11:17:16.999Z</time></trkpt><trkpt lat="44.39417626581727" lon="11.591836813459729"><ele>60.71428571428571</ele><time>2026-05-01T11:17:18.999Z</time></trkpt><trkpt lat="44.39424157883466" lon="11.59185666138237"><ele>60.57142857142857</ele><time>2026-05-01T11:17:20.999Z</time></trkpt><trkpt lat="44.39430818234529" lon="11.591878696654609"><ele>60.42857142857142</ele><time>2026-05-01T11:17:22.999Z</time></trkpt><trkpt lat="44.39438253874585" lon="11.591913256565515"><ele>60.28571428571428</ele><time>2026-05-01T11:17:25Z</time></trkpt><trkpt lat="44.39446035925407" lon="11.591947734202618"><ele>60.142857142857146</ele><time>2026-05-01T11:17:27Z</time></trkpt><trkpt lat="44.39453745400082" lon="11.591974788947603"><ele>60.0</ele><time>2026-05-01T11:17:29Z</time></trkpt><trkpt lat="44.39459879636455" lon="11.592005982860789"><ele>60.0</ele><time>2026-05-01T11:17:31Z</time></trkpt><trkpt lat="44.39468798855649" lon="11.592052020988067"><ele>60.0</ele><time>2026-05-01T11:17:34Z</time></trkpt><trkpt lat="44.3947536592653" lon="11.592094471612734"><ele>60.0</ele><time>2026-05-01T11:17:36Z</time></trkpt><trkpt lat="44.39482275826222" lon="11.592137435459797"><ele>60.0</ele><time>2026-05-01T11:17:38Z</time></trkpt><trkpt lat="44.39489692591301" lon="11.592185038048896"><ele>60.0</ele><time>2026-05-01T11:17:40Z</time></trkpt><trkpt lat="44.3949606403611" lon="11.592229924816456"><ele>60.0</ele><time>2026-05-01T11:17:42Z</time></trkpt><trkpt lat="44.39503160037046" lon="11.592290705878682"><ele>60.0</ele><time>2026-05-01T11:17:44Z</time></trkpt><trkpt lat="44.39509581561226" lon="11.592339233793368"><ele>60.0</ele><time>2026-05-01T11:17:46Z</time></trkpt><trkpt lat="44.39516287665105" lon="11.592393348891022"><ele>60.0</ele><time>2026-05-01T11:17:48Z</time></trkpt><trkpt lat="44.395225840116694" lon="11.592458240593004"><ele>60.0</ele><time>2026-05-01T11:17:50Z</time></trkpt><trkpt lat="44.395292323491226" lon="11.59251826984738"><ele>60.0</ele><time>2026-05-01T11:17:52Z</time></trkpt><trkpt lat="44.39535126942646" lon="11.592581839880049"><ele>60.0</ele><time>2026-05-01T11:17:54Z</time></trkpt><trkpt lat="44.39541226938951" lon="11.592660556412522"><ele>60.0</ele><time>2026-05-01T11:17:56Z</time></trkpt><trkpt lat="44.39547061858946" lon="11.592733342862774"><ele>60.0</ele><time>2026-05-01T11:17:58Z</time></trkpt><trkpt lat="44.39553110730622" lon="11.592799071905995"><ele>60.0</ele><time>2026-05-01T11:18:00Z</time></trkpt><trkpt lat="44.395589080393044" lon="11.592881582896405"><ele>60.0</ele><time>2026-05-01T11:18:02Z</time></trkpt><trkpt lat="44.395647388112735" lon="11.592959437513974"><ele>60.0</ele><time>2026-05-01T11:18:04Z</time></trkpt><trkpt lat="44.39570842370039" lon="11.593042270700005"><ele>60.0</ele><time>2026-05-01T11:18:06Z</time></trkpt><trkpt lat="44.39576629274778" lon="11.593115694321845"><ele>59.833333333333336</ele><time>2026-05-01T11:18:08Z</time></trkpt><trkpt lat="44.39582125490915" lon="11.593198154196257"><ele>59.66666666666667</ele><time>2026-05-01T11:18:10Z</time></trkpt><trkpt lat="44.395876692373726" lon="11.593274836071377"><ele>59.5</ele><time>2026-05-01T11:18:12Z</time></trkpt><trkpt lat="44.395934033677634" lon="11.593346514647301"><ele>59.333333333333336</ele><time>2026-05-01T11:18:14Z</time></trkpt><trkpt lat="44.395986010091164" lon="11.593425063270592"><ele>59.16666666666667</ele><time>2026-05-01T11:18:16Z</time></trkpt><trkpt lat="44.396046457364356" lon="11.593493922357474"><ele>59.0</ele><time>2026-05-01T11:18:18Z</time></trkpt><trkpt lat="44.39609591624471" lon="11.593573509320322"><ele>59.00000000000001</ele><time>2026-05-01T11:18:20Z</time></trkpt><trkpt lat="44.39615462393396" lon="11.593651828061953"><ele>59.0</ele><time>2026-05-01T11:18:22Z</time></trkpt><trkpt lat="44.396211228603256" lon="11.593717292228545"><ele>59.0</ele><time>2026-05-01T11:18:24Z</time></trkpt><trkpt lat="44.396262174680025" lon="11.593796953197987"><ele>59.0</ele><time>2026-05-01T11:18:26Z</time></trkpt><trkpt lat="44.39631178349606" lon="11.593864677495263"><ele>59.00000000000001</ele><time>2026-05-01T11:18:28Z</time></trkpt><trkpt lat="44.39635974154258" lon="11.59393313249544"><ele>59.0</ele><time>2026-05-01T11:18:30Z</time></trkpt><trkpt lat="44.3964263921086" lon="11.59401991607258"><ele>59.00000000000001</ele><time>2026-05-01T11:18:33Z</time></trkpt><trkpt lat="44.39649352170001" lon="11.594101444694475"><ele>59.0</ele><time>2026-05-01T11:18:36Z</time></trkpt><trkpt lat="44.39651022077123" lon="11.594221063384575"><ele>59.0</ele><time>2026-05-01T11:18:39Z</time></trkpt><trkpt lat="44.396447918180556" lon="11.59427175138991"><ele>59.0</ele><time>2026-05-01T11:18:42Z</time></trkpt><trkpt lat="44.39638030790405" lon="11.594299828029754"><ele>59.00000000000001</ele><time>2026-05-01T11:18:45Z</time></trkpt><trkpt lat="44.39629372577757" lon="11.594323173708244"><ele>59.0</ele><time>2026-05-01T11:18:48Z</time></trkpt><trkpt lat="44.396212850795756" lon="11.594373703171978"><ele>59.00000000000001</ele><time>2026-05-01T11:18:51Z</time></trkpt><trkpt lat="44.3961698158328" lon="11.594440513101455"><ele>59.0</ele><time>2026-05-01T11:18:53Z</time></trkpt><trkpt lat="44.39611143566868" lon="11.59453372271935"><ele>59.0</ele><time>2026-05-01T11:18:55.999Z</time></trkpt><trkpt lat="44.39605546719494" lon="11.594627192887264"><ele>59.0</ele><time>2026-05-01T11:18:58.999Z</time></trkpt><trkpt lat="44.395996017667315" lon="11.594702764431892"><ele>59.00000000000001</ele><time>2026-05-01T11:19:01.999Z</time></trkpt><trkpt lat="44.395924900550405" lon="11.594775269681103"><ele>59.0</ele><time>2026-05-01T11:19:04.999Z</time></trkpt><trkpt lat="44.39585769928764" lon="11.594836756147057"><ele>59.16666666666667</ele><time>2026-05-01T11:19:07.999Z</time></trkpt><trkpt lat="44.39580499295592" lon="11.59493196520709"><ele>59.333333333333336</ele><time>2026-05-01T11:19:10.999Z</time></trkpt><trkpt lat="44.395751418951235" lon="11.595011801523606"><ele>59.5</ele><time>2026-05-01T11:19:13.999Z</time></trkpt><trkpt lat="44.39568406048459" lon="11.595097528674563"><ele>59.66666666666667</ele><time>2026-05-01T11:19:16.999Z</time></trkpt><trkpt lat="44.395614649372284" lon="11.595187417865414"><ele>59.833333333333336</ele><time>2026-05-01T11:19:19.999Z</time></trkpt><trkpt lat="44.395567576685245" lon="11.59525323988097"><ele>60.0</ele><time>2026-05-01T11:19:21.999Z</time></trkpt><trkpt lat="44.39552050050478" lon="11.595320156770413"><ele>60.42857142857143</ele><time>2026-05-01T11:19:23.999Z</time></trkpt><trkpt lat="44.39546370100807" lon="11.59537580531036"><ele>60.857142857142854</ele><time>2026-05-01T11:19:25.999Z</time></trkpt><trkpt lat="44.39541839932291" lon="11.595453079507964"><ele>61.285714285714285</ele><time>2026-05-01T11:19:27.999Z</time></trkpt><trkpt lat="44.39535996845548" lon="11.595515122381345"><ele>61.714285714285715</ele><time>2026-05-01T11:19:30Z</time></trkpt><trkpt lat="44.39531037313492" lon="11.59558656393539"><ele>62.14285714285714</ele><time>2026-05-01T11:19:32Z</time></trkpt><trkpt lat="44.39525545240692" lon="11.595650816913997"><ele>62.57142857142857</ele><time>2026-05-01T11:19:34Z</time></trkpt><trkpt lat="44.395201184848545" lon="11.595719738399787"><ele>63.0</ele><time>2026-05-01T11:19:36Z</time></trkpt><trkpt lat="44.395148957768846" lon="11.595787316972473"><ele>63.0</ele><time>2026-05-01T11:19:38Z</time></trkpt><trkpt lat="44.395089728441064" lon="11.595851540614806"><ele>63.0</ele><time>2026-05-01T11:19:40Z</time></trkpt><trkpt lat="44.3950407887379" lon="11.595920861164121"><ele>63.0</ele><time>2026-05-01T11:19:42Z</time></trkpt><trkpt lat="44.39499005024509" lon="11.595990570022385"><ele>63.0</ele><time>2026-05-01T11:19:44Z</time></trkpt><trkpt lat="44.394937886206485" lon="11.59605016927405"><ele>63.0</ele><time>2026-05-01T11:19:46Z</time></trkpt><trkpt lat="44.394894343395926" lon="11.596114205210158"><ele>63.0</ele><time>2026-05-01T11:19:48Z</time></trkpt><trkpt lat="44.39485032526825" lon="11.596179270216322"><ele>63.0</ele><time>2026-05-01T11:19:50Z</time></trkpt><trkpt lat="44.39480645859964" lon="11.596267054803112"><ele>63.0</ele><time>2026-05-01T11:19:53Z</time></trkpt><trkpt lat="44.3947602668843" lon="11.596334052887796"><ele>63.0</ele><time>2026-05-01T11:19:56Z</time></trkpt><trkpt lat="44.39471660736991" lon="11.596420614635363"><ele>63.0</ele><time>2026-05-01T11:20:00Z</time></trkpt><trkpt lat="44.39469359339431" lon="11.596530757244986"><ele>63.0</ele><time>2026-05-01T11:20:04Z</time></trkpt><trkpt lat="44.39466502599234" lon="11.59663209626242"><ele>63.0</ele><time>2026-05-01T11:20:08Z</time></trkpt><trkpt lat="44.39465868886069" lon="11.596728151171"><ele>63.0</ele><time>2026-05-01T11:20:11Z</time></trkpt><trkpt lat="44.39463381730353" lon="11.596825519333175"><ele>63.0</ele><time>2026-05-01T11:20:14Z</time></trkpt><trkpt lat="44.39461627057204" lon="11.596923311325964"><ele>63.5</ele><time>2026-05-01T11:20:17Z</time></trkpt><trkpt lat="44.39458682397146" lon="11.597044911790565"><ele>64.0</ele><time>2026-05-01T11:20:20Z</time></trkpt><trkpt lat="44.39456405852966" lon="11.597128870649867"><ele>64.5</ele><time>2026-05-01T11:20:22Z</time></trkpt><trkpt lat="44.3945407479031" lon="11.597241712315803"><ele>65.0</ele><time>2026-05-01T11:20:25Z</time></trkpt><trkpt lat="44.3945098644709" lon="11.597364726027731"><ele>65.5</ele><time>2026-05-01T11:20:28Z</time></trkpt><trkpt lat="44.39448514002675" lon="11.597481047185337"><ele>66.0</ele><time>2026-05-01T11:20:31Z</time></trkpt><trkpt lat="44.394465177706806" lon="11.597568039549863"><ele>66.0</ele><time>2026-05-01T11:20:33Z</time></trkpt><trkpt lat="44.394440589200364" lon="11.59765364135846"><ele>66.0</ele><time>2026-05-01T11:20:35Z</time></trkpt><trkpt lat="44.394414824742704" lon="11.59773986732438"><ele>66.0</ele><time>2026-05-01T11:20:37Z</time></trkpt><trkpt lat="44.39439402142685" lon="11.597837816973593"><ele>66.0</ele><time>2026-05-01T11:20:39Z</time></trkpt><trkpt lat="44.394367295511046" lon="11.59792328494915"><ele>66.0</ele><time>2026-05-01T11:20:41Z</time></trkpt><trkpt lat="44.39434448053058" lon="11.598018992440291"><ele>66.0</ele><time>2026-05-01T11:20:43Z</time></trkpt><trkpt lat="44.39431162166881" lon="11.598124300230632"><ele>66.0</ele><time>2026-05-01T11:20:45Z</time></trkpt><trkpt lat="44.3942836142028" lon="11.598235992626304"><ele>66.16666666666667</ele><time>2026-05-01T11:20:47Z</time></trkpt><trkpt lat="44.39425817574974" lon="11.59834080750035"><ele>66.33333333333333</ele><time>2026-05-01T11:20:49Z</time></trkpt><trkpt lat="44.394231997477036" lon="11.598441995705281"><ele>66.5</ele><time>2026-05-01T11:20:51Z</time></trkpt><trkpt lat="44.394204577906834" lon="11.598541176089538"><ele>66.66666666666666</ele><time>2026-05-01T11:20:53Z</time></trkpt><trkpt lat="44.39417746374423" lon="11.598639898807347"><ele>66.83333333333333</ele><time>2026-05-01T11:20:55Z</time></trkpt><trkpt lat="44.39414597610974" lon="11.598739158293883"><ele>67.0</ele><time>2026-05-01T11:20:57Z</time></trkpt><trkpt lat="44.394115696300084" lon="11.598826518983467"><ele>67.5</ele><time>2026-05-01T11:20:58.999Z</time></trkpt><trkpt lat="44.39405972806838" lon="11.598922829740728"><ele>68.0</ele><time>2026-05-01T11:21:01.999Z</time></trkpt><trkpt lat="44.393980805831994" lon="11.5989538623879"><ele>68.5</ele><time>2026-05-01T11:21:04.999Z</time></trkpt><trkpt lat="44.39391629314664" lon="11.598928479615575"><ele>69.0</ele><time>2026-05-01T11:21:06.999Z</time></trkpt><trkpt lat="44.39382027838461" lon="11.598891801074798"><ele>69.5</ele><time>2026-05-01T11:21:09.999Z</time></trkpt><trkpt lat="44.39375100368881" lon="11.598868254710801"><ele>70.0</ele><time>2026-05-01T11:21:11.999Z</time></trkpt><trkpt lat="44.39368309807982" lon="11.598842086723787"><ele>70.0</ele><time>2026-05-01T11:21:13.999Z</time></trkpt><trkpt lat="44.39361911863233" lon="11.598814206970872"><ele>70.0</ele><time>2026-05-01T11:21:15.999Z</time></trkpt><trkpt lat="44.39355351145634" lon="11.59877848571727"><ele>70.0</ele><time>2026-05-01T11:21:17.999Z</time></trkpt><trkpt lat="44.39348391607824" lon="11.598752588001021"><ele>70.0</ele><time>2026-05-01T11:21:19.999Z</time></trkpt><trkpt lat="44.39341887790234" lon="11.59872501776583"><ele>70.0</ele><time>2026-05-01T11:21:21.999Z</time></trkpt><trkpt lat="44.39335207575101" lon="11.598703788467628"><ele>70.0</ele><time>2026-05-01T11:21:23.999Z</time></trkpt><trkpt lat="44.39327972081543" lon="11.59866616568908"><ele>70.0</ele><time>2026-05-01T11:21:25.999Z</time></trkpt><trkpt lat="44.39320419647953" lon="11.598649866006655"><ele>69.66666666666666</ele><time>2026-05-01T11:21:27.999Z</time></trkpt><trkpt lat="44.393126645216334" lon="11.598638991180076"><ele>69.33333333333333</ele><time>2026-05-01T11:21:29.999Z</time></trkpt><trkpt lat="44.39305033117874" lon="11.598625265159773"><ele>69.0</ele><time>2026-05-01T11:21:31.999Z</time></trkpt><trkpt lat="44.3929734136814" lon="11.598615225721636"><ele>68.66666666666667</ele><time>2026-05-01T11:21:33.999Z</time></trkpt><trkpt lat="44.39289073256591" lon="11.598612452935964"><ele>68.33333333333334</ele><time>2026-05-01T11:21:36Z</time></trkpt><trkpt lat="44.39281429566507" lon="11.598615603868282"><ele>68.0</ele><time>2026-05-01T11:21:38Z</time></trkpt><trkpt lat="44.3927379474108" lon="11.59861261466541"><ele>68.0</ele><time>2026-05-01T11:21:40Z</time></trkpt><trkpt lat="44.39266036651629" lon="11.598601822479754"><ele>68.0</ele><time>2026-05-01T11:21:42Z</time></trkpt><trkpt lat="44.39258680746257" lon="11.59859914541448"><ele>68.0</ele><time>2026-05-01T11:21:44Z</time></trkpt><trkpt lat="44.392513117600096" lon="11.598597558095053"><ele>68.0</ele><time>2026-05-01T11:21:46Z</time></trkpt><trkpt lat="44.39243821591521" lon="11.598595155925493"><ele>68.0</ele><time>2026-05-01T11:21:48Z</time></trkpt><trkpt lat="44.392356380491016" lon="11.598613023022525"><ele>68.0</ele><time>2026-05-01T11:21:50Z</time></trkpt><trkpt lat="44.3922763247156" lon="11.598633880365993"><ele>68.33333333333334</ele><time>2026-05-01T11:21:52Z</time></trkpt><trkpt lat="44.39220345070906" lon="11.59867935807503"><ele>68.66666666666667</ele><time>2026-05-01T11:21:54Z</time></trkpt><trkpt lat="44.39212748873033" lon="11.598722072477448"><ele>69.0</ele><time>2026-05-01T11:21:56Z</time></trkpt><trkpt lat="44.392054716717524" lon="11.598774477629092"><ele>69.33333333333333</ele><time>2026-05-01T11:21:58Z</time></trkpt><trkpt lat="44.39197347628798" lon="11.598820720787444"><ele>69.66666666666666</ele><time>2026-05-01T11:22:00Z</time></trkpt><trkpt lat="44.39189316570668" lon="11.598877132856433"><ele>70.0</ele><time>2026-05-01T11:22:02Z</time></trkpt><trkpt lat="44.39181508361589" lon="11.598925476285961"><ele>70.0</ele><time>2026-05-01T11:22:04Z</time></trkpt><trkpt lat="44.391728758547636" lon="11.598975391993426"><ele>70.0</ele><time>2026-05-01T11:22:06Z</time></trkpt><trkpt lat="44.39164438942281" lon="11.599022690588491"><ele>70.0</ele><time>2026-05-01T11:22:08Z</time></trkpt><trkpt lat="44.391557915041716" lon="11.599075645227057"><ele>70.0</ele><time>2026-05-01T11:22:10Z</time></trkpt><trkpt lat="44.39147315040238" lon="11.599130862550389"><ele>70.0</ele><time>2026-05-01T11:22:12Z</time></trkpt><trkpt lat="44.39139079745603" lon="11.599181263376101"><ele>70.2</ele><time>2026-05-01T11:22:14Z</time></trkpt><trkpt lat="44.39130228326314" lon="11.5992160831137"><ele>70.4</ele><time>2026-05-01T11:22:16Z</time></trkpt><trkpt lat="44.39121658834337" lon="11.59926760449917"><ele>70.6</ele><time>2026-05-01T11:22:18Z</time></trkpt><trkpt lat="44.39112985736318" lon="11.599312228130715"><ele>70.8</ele><time>2026-05-01T11:22:20Z</time></trkpt><trkpt lat="44.39105082575885" lon="11.599358790700535"><ele>71.0</ele><time>2026-05-01T11:22:22Z</time></trkpt><trkpt lat="44.39096108002894" lon="11.599390211364375"><ele>71.0</ele><time>2026-05-01T11:22:24Z</time></trkpt><trkpt lat="44.390873969371924" lon="11.599422377058975"><ele>71.0</ele><time>2026-05-01T11:22:26Z</time></trkpt><trkpt lat="44.39078759317424" lon="11.599444932947465"><ele>71.0</ele><time>2026-05-01T11:22:28Z</time></trkpt><trkpt lat="44.39069725031122" lon="11.599467980218543"><ele>71.0</ele><time>2026-05-01T11:22:30Z</time></trkpt><trkpt lat="44.390608264394444" lon="11.599493372959108"><ele>71.0</ele><time>2026-05-01T11:22:32Z</time></trkpt><trkpt lat="44.39052696934666" lon="11.599523682277535"><ele>71.0</ele><time>2026-05-01T11:22:34Z</time></trkpt><trkpt lat="44.39043844795178" lon="11.59956367302867"><ele>71.16666666666667</ele><time>2026-05-01T11:22:36Z</time></trkpt><trkpt lat="44.3903554371808" lon="11.599593434875361"><ele>71.33333333333334</ele><time>2026-05-01T11:22:38Z</time></trkpt><trkpt lat="44.39027318863975" lon="11.599610827125412"><ele>71.5</ele><time>2026-05-01T11:22:40Z</time></trkpt><trkpt lat="44.39019089105748" lon="11.599649847246676"><ele>71.66666666666667</ele><time>2026-05-01T11:22:42Z</time></trkpt><trkpt lat="44.39010839990401" lon="11.599655205037683"><ele>71.83333333333333</ele><time>2026-05-01T11:22:44Z</time></trkpt><trkpt lat="44.39002637971299" lon="11.599690450037478"><ele>72.0</ele><time>2026-05-01T11:22:46Z</time></trkpt><trkpt lat="44.389946383448255" lon="11.599704494524389"><ele>72.0</ele><time>2026-05-01T11:22:48Z</time></trkpt><trkpt lat="44.389865181594836" lon="11.59972940025401"><ele>72.0</ele><time>2026-05-01T11:22:50Z</time></trkpt><trkpt lat="44.38978314205174" lon="11.599740062502244"><ele>72.0</ele><time>2026-05-01T11:22:52Z</time></trkpt><trkpt lat="44.38969667782344" lon="11.599761598323513"><ele>72.0</ele><time>2026-05-01T11:22:54Z</time></trkpt><trkpt lat="44.38961709415302" lon="11.599782211861532"><ele>72.0</ele><time>2026-05-01T11:22:56Z</time></trkpt><trkpt lat="44.38953498211588" lon="11.59979899266035"><ele>72.0</ele><time>2026-05-01T11:22:58Z</time></trkpt><trkpt lat="44.389455696130476" lon="11.599817225127389"><ele>72.16666666666667</ele><time>2026-05-01T11:23:00Z</time></trkpt><trkpt lat="44.3893793449102" lon="11.599841614617347"><ele>72.33333333333333</ele><time>2026-05-01T11:23:02Z</time></trkpt><trkpt lat="44.389305812591026" lon="11.599839186156066"><ele>72.5</ele><time>2026-05-01T11:23:04Z</time></trkpt><trkpt lat="44.38922300228699" lon="11.599840490516264"><ele>72.66666666666666</ele><time>2026-05-01T11:23:06Z</time></trkpt><trkpt lat="44.38913987993062" lon="11.599827545426033"><ele>72.83333333333333</ele><time>2026-05-01T11:23:08Z</time></trkpt><trkpt lat="44.38905778056182" lon="11.59980408677997"><ele>73.0</ele><time>2026-05-01T11:23:09.999Z</time></trkpt><trkpt lat="44.388976643186695" lon="11.599786619049462"><ele>73.0</ele><time>2026-05-01T11:23:11.999Z</time></trkpt><trkpt lat="44.38889298089321" lon="11.599748838673541"><ele>73.0</ele><time>2026-05-01T11:23:13.999Z</time></trkpt><trkpt lat="44.38880831521512" lon="11.599731265344367"><ele>73.0</ele><time>2026-05-01T11:23:15.999Z</time></trkpt><trkpt lat="44.38872471624669" lon="11.59971067829346"><ele>73.0</ele><time>2026-05-01T11:23:17.999Z</time></trkpt><trkpt lat="44.38863948895039" lon="11.59969836877701"><ele>73.0</ele><time>2026-05-01T11:23:19.999Z</time></trkpt><trkpt lat="44.38855703891545" lon="11.599684914624799"><ele>73.0</ele><time>2026-05-01T11:23:21.999Z</time></trkpt><trkpt lat="44.388475869100525" lon="11.59967478026811"><ele>73.66666666666666</ele><time>2026-05-01T11:23:23.999Z</time></trkpt><trkpt lat="44.38839549790427" lon="11.59966824214273"><ele>74.33333333333333</ele><time>2026-05-01T11:23:25.999Z</time></trkpt><trkpt lat="44.38830529495872" lon="11.59966969258075"><ele>75.0</ele><time>2026-05-01T11:23:27.999Z</time></trkpt><trkpt lat="44.388227265165085" lon="11.59967396100527"><ele>75.66666666666667</ele><time>2026-05-01T11:23:29.999Z</time></trkpt><trkpt lat="44.388137814064244" lon="11.599690122052662"><ele>76.33333333333334</ele><time>2026-05-01T11:23:31.999Z</time></trkpt><trkpt lat="44.38805278487989" lon="11.599710142929926"><ele>77.0</ele><time>2026-05-01T11:23:33.999Z</time></trkpt><trkpt lat="44.38797176345511" lon="11.599720260843107"><ele>77.5</ele><time>2026-05-01T11:23:35.999Z</time></trkpt><trkpt lat="44.387890826600284" lon="11.599742950510272"><ele>78.0</ele><time>2026-05-01T11:23:37.999Z</time></trkpt><trkpt lat="44.38782509120946" lon="11.5997599720173"><ele>78.5</ele><time>2026-05-01T11:23:39.999Z</time></trkpt><trkpt lat="44.38774606405983" lon="11.59978001730041"><ele>79.0</ele><time>2026-05-01T11:23:42Z</time></trkpt><trkpt lat="44.387647063017724" lon="11.599800398757392"><ele>79.5</ele><time>2026-05-01T11:23:44Z</time></trkpt><trkpt lat="44.38756713793764" lon="11.59982227183077"><ele>80.0</ele><time>2026-05-01T11:23:46Z</time></trkpt><trkpt lat="44.387483955039464" lon="11.599831302634316"><ele>80.0</ele><time>2026-05-01T11:23:48Z</time></trkpt><trkpt lat="44.387410007246906" lon="11.599855137521358"><ele>80.0</ele><time>2026-05-01T11:23:50Z</time></trkpt><trkpt lat="44.38731787606124" lon="11.59987271075769"><ele>80.0</ele><time>2026-05-01T11:23:52Z</time></trkpt><trkpt lat="44.387232009430996" lon="11.599891205835931"><ele>80.0</ele><time>2026-05-01T11:23:54Z</time></trkpt><trkpt lat="44.387144834972055" lon="11.599911265996406"><ele>80.0</ele><time>2026-05-01T11:23:56Z</time></trkpt><trkpt lat="44.387055312091505" lon="11.599932133153443"><ele>80.0</ele><time>2026-05-01T11:23:58Z</time></trkpt><trkpt lat="44.38696947264808" lon="11.599954289686355"><ele>79.5</ele><time>2026-05-01T11:24:00Z</time></trkpt><trkpt lat="44.38689012551066" lon="11.59997711114117"><ele>79.0</ele><time>2026-05-01T11:24:02Z</time></trkpt><trkpt lat="44.38679411908448" lon="11.59998460135308"><ele>78.5</ele><time>2026-05-01T11:24:04Z</time></trkpt><trkpt lat="44.386707510496656" lon="11.59998383983102"><ele>78.0</ele><time>2026-05-01T11:24:06Z</time></trkpt><trkpt lat="44.38661760292978" lon="11.599975250342872"><ele>77.5</ele><time>2026-05-01T11:24:08Z</time></trkpt><trkpt lat="44.386529043721815" lon="11.599957348245727"><ele>77.0</ele><time>2026-05-01T11:24:10Z</time></trkpt><trkpt lat="44.386440910884694" lon="11.59992963207509"><ele>77.0</ele><time>2026-05-01T11:24:12Z</time></trkpt><trkpt lat="44.38634766731022" lon="11.59992361178318"><ele>77.0</ele><time>2026-05-01T11:24:14Z</time></trkpt><trkpt lat="44.38625730833838" lon="11.599913693764634"><ele>77.0</ele><time>2026-05-01T11:24:16Z</time></trkpt><trkpt lat="44.38616734361003" lon="11.599903343855521"><ele>77.0</ele><time>2026-05-01T11:24:18Z</time></trkpt><trkpt lat="44.38608236098748" lon="11.599887060043875"><ele>77.0</ele><time>2026-05-01T11:24:20Z</time></trkpt><trkpt lat="44.38599635213534" lon="11.599874518345667"><ele>77.0</ele><time>2026-05-01T11:24:22Z</time></trkpt><trkpt lat="44.38591369700726" lon="11.599870188053423"><ele>76.83333333333334</ele><time>2026-05-01T11:24:24Z</time></trkpt><trkpt lat="44.385830332085554" lon="11.599847583723625"><ele>76.66666666666667</ele><time>2026-05-01T11:24:26Z</time></trkpt><trkpt lat="44.38574545603264" lon="11.599833085677066"><ele>76.5</ele><time>2026-05-01T11:24:28Z</time></trkpt><trkpt lat="44.38565905710345" lon="11.599822988438172"><ele>76.33333333333333</ele><time>2026-05-01T11:24:30Z</time></trkpt><trkpt lat="44.385570513946035" lon="11.599809031163593"><ele>76.16666666666666</ele><time>2026-05-01T11:24:32Z</time></trkpt><trkpt lat="44.38548125258109" lon="11.599794630638533"><ele>76.0</ele><time>2026-05-01T11:24:34Z</time></trkpt><trkpt lat="44.38539112217481" lon="11.599790262918388"><ele>76.0</ele><time>2026-05-01T11:24:36Z</time></trkpt><trkpt lat="44.385302764221564" lon="11.599784423738235"><ele>76.0</ele><time>2026-05-01T11:24:38Z</time></trkpt><trkpt lat="44.38521955015027" lon="11.599771209982801"><ele>76.0</ele><time>2026-05-01T11:24:40Z</time></trkpt><trkpt lat="44.38513534857353" lon="11.599772152262855"><ele>76.0</ele><time>2026-05-01T11:24:42Z</time></trkpt><trkpt lat="44.38505448123362" lon="11.599774832148173"><ele>76.0</ele><time>2026-05-01T11:24:44Z</time></trkpt><trkpt lat="44.38497609623693" lon="11.599784800714051"><ele>76.0</ele><time>2026-05-01T11:24:46Z</time></trkpt><trkpt lat="44.384903292036334" lon="11.599795466259266"><ele>76.0</ele><time>2026-05-01T11:24:48Z</time></trkpt><trkpt lat="44.38482478347676" lon="11.59982521490788"><ele>76.0</ele><time>2026-05-01T11:24:50Z</time></trkpt><trkpt lat="44.38474890578043" lon="11.599851642618988"><ele>76.0</ele><time>2026-05-01T11:24:52Z</time></trkpt><trkpt lat="44.38467521861219" lon="11.599868052231946"><ele>76.0</ele><time>2026-05-01T11:24:54Z</time></trkpt><trkpt lat="44.38460168735253" lon="11.59988863920479"><ele>76.0</ele><time>2026-05-01T11:24:56Z</time></trkpt><trkpt lat="44.38452807926859" lon="11.599915684667984"><ele>76.0</ele><time>2026-05-01T11:24:58Z</time></trkpt><trkpt lat="44.384456703995625" lon="11.599938841074497"><ele>76.16666666666666</ele><time>2026-05-01T11:25:00Z</time></trkpt><trkpt lat="44.38438954561394" lon="11.599951281567341"><ele>76.33333333333333</ele><time>2026-05-01T11:25:02Z</time></trkpt><trkpt lat="44.384321328568326" lon="11.59997340448556"><ele>76.5</ele><time>2026-05-01T11:25:04Z</time></trkpt><trkpt lat="44.3842568076162" lon="11.599990056572153"><ele>76.66666666666667</ele><time>2026-05-01T11:25:06Z</time></trkpt><trkpt lat="44.38416378018931" lon="11.600020728088612"><ele>76.83333333333334</ele><time>2026-05-01T11:25:09Z</time></trkpt><trkpt lat="44.384074220859674" lon="11.60004381494374"><ele>77.0</ele><time>2026-05-01T11:25:11.999Z</time></trkpt><trkpt lat="44.383991061700115" lon="11.60007750790189"><ele>77.0</ele><time>2026-05-01T11:25:14.999Z</time></trkpt><trkpt lat="44.38391453842225" lon="11.600100397502999"><ele>77.0</ele><time>2026-05-01T11:25:17.999Z</time></trkpt><trkpt lat="44.383836670163454" lon="11.600121517339465"><ele>77.0</ele><time>2026-05-01T11:25:20.999Z</time></trkpt><trkpt lat="44.38376693395556" lon="11.600144597773683"><ele>77.0</ele><time>2026-05-01T11:25:23.999Z</time></trkpt><trkpt lat="44.383694361325404" lon="11.60016160620838"><ele>77.0</ele><time>2026-05-01T11:25:26.999Z</time></trkpt><trkpt lat="44.38362788858537" lon="11.600165081372358"><ele>77.0</ele><time>2026-05-01T11:25:29.999Z</time></trkpt><trkpt lat="44.38354700854518" lon="11.600148216539415"><ele>77.85714285714286</ele><time>2026-05-01T11:25:33.999Z</time></trkpt><trkpt lat="44.38347202583835" lon="11.600117723919118"><ele>78.71428571428572</ele><time>2026-05-01T11:25:37.999Z</time></trkpt><trkpt lat="44.38339863461964" lon="11.600112846621958"><ele>79.57142857142857</ele><time>2026-05-01T11:25:41.999Z</time></trkpt><trkpt lat="44.38332727299825" lon="11.600107202063098"><ele>80.42857142857143</ele><time>2026-05-01T11:25:45.999Z</time></trkpt><trkpt lat="44.383258544604594" lon="11.60007957433838"><ele>81.28571428571429</ele><time>2026-05-01T11:25:50Z</time></trkpt><trkpt lat="44.383184867113805" lon="11.600070381085054"><ele>82.14285714285714</ele><time>2026-05-01T11:25:54Z</time></trkpt><trkpt lat="44.38311424183479" lon="11.600052505488705"><ele>83.0</ele><time>2026-05-01T11:25:58Z</time></trkpt><trkpt lat="44.38304605854169" lon="11.600037434600734"><ele>84.71428571428571</ele><time>2026-05-01T11:26:02Z</time></trkpt><trkpt lat="44.38298273975263" lon="11.60002792599925"><ele>86.42857142857143</ele><time>2026-05-01T11:26:06Z</time></trkpt><trkpt lat="44.38291918094492" lon="11.600011168622675"><ele>88.14285714285714</ele><time>2026-05-01T11:26:10Z</time></trkpt><trkpt lat="44.382853411717875" lon="11.5999994098651"><ele>89.85714285714286</ele><time>2026-05-01T11:26:14Z</time></trkpt><trkpt lat="44.38277587657465" lon="11.599979597294444"><ele>91.57142857142858</ele><time>2026-05-01T11:26:19Z</time></trkpt><trkpt lat="44.38271101386916" lon="11.5999624133766"><ele>93.28571428571429</ele><time>2026-05-01T11:26:23Z</time></trkpt><trkpt lat="44.38263048408501" lon="11.599949780698436"><ele>95.0</ele><time>2026-05-01T11:26:28Z</time></trkpt><trkpt lat="44.38256211577379" lon="11.599929781443866"><ele>95.0</ele><time>2026-05-01T11:26:33Z</time></trkpt><trkpt lat="44.38249926795553" lon="11.599903041876514"><ele>95.0</ele><time>2026-05-01T11:26:37Z</time></trkpt><trkpt lat="44.38243711372303" lon="11.599862818697321"><ele>95.0</ele><time>2026-05-01T11:26:42Z</time></trkpt><trkpt lat="44.38237991715786" lon="11.599810165056113"><ele>95.0</ele><time>2026-05-01T11:26:45Z</time></trkpt><trkpt lat="44.38231283323733" lon="11.599783821058427"><ele>95.0</ele><time>2026-05-01T11:26:48Z</time></trkpt><trkpt lat="44.38224021210345" lon="11.59973367342204"><ele>95.0</ele><time>2026-05-01T11:26:52Z</time></trkpt><trkpt lat="44.38217775153289" lon="11.599700099913669"><ele>95.0</ele><time>2026-05-01T11:26:55Z</time></trkpt><trkpt lat="44.382098827824386" lon="11.59965014426666"><ele>95.0</ele><time>2026-05-01T11:26:59Z</time></trkpt><trkpt lat="44.38202303392667" lon="11.599600097657628"><ele>95.0</ele><time>2026-05-01T11:27:03Z</time></trkpt><trkpt lat="44.38195690203542" lon="11.599557246734324"><ele>95.0</ele><time>2026-05-01T11:27:06Z</time></trkpt><trkpt lat="44.381893426103396" lon="11.599529635846677"><ele>95.0</ele><time>2026-05-01T11:27:09Z</time></trkpt><trkpt lat="44.38183600769376" lon="11.599482806011467"><ele>95.0</ele><time>2026-05-01T11:27:12Z</time></trkpt><trkpt lat="44.38177586199164" lon="11.599446989509925"><ele>95.0</ele><time>2026-05-01T11:27:14.999Z</time></trkpt><trkpt lat="44.38171412805272" lon="11.599408523426378"><ele>95.0</ele><time>2026-05-01T11:27:17.999Z</time></trkpt><trkpt lat="44.38165302984114" lon="11.599374901831188"><ele>95.0</ele><time>2026-05-01T11:27:20.999Z</time></trkpt><trkpt lat="44.38159491622771" lon="11.599324265242132"><ele>95.0</ele><time>2026-05-01T11:27:23.999Z</time></trkpt><trkpt lat="44.38153374257969" lon="11.599282089486145"><ele>95.0</ele><time>2026-05-01T11:27:26.999Z</time></trkpt><trkpt lat="44.38147226532639" lon="11.59924345066279"><ele>95.0</ele><time>2026-05-01T11:27:29.999Z</time></trkpt><trkpt lat="44.38141099242299" lon="11.599206986259896"><ele>95.0</ele><time>2026-05-01T11:27:32.999Z</time></trkpt><trkpt lat="44.38134427058548" lon="11.59916084649761"><ele>95.0</ele><time>2026-05-01T11:27:35.999Z</time></trkpt><trkpt lat="44.381262219934186" lon="11.599137503336658"><ele>95.0</ele><time>2026-05-01T11:27:39.999Z</time></trkpt><trkpt lat="44.38119894946275" lon="11.599133648818041"><ele>96.28571428571429</ele><time>2026-05-01T11:27:42.999Z</time></trkpt><trkpt lat="44.38112417720412" lon="11.599146105780855"><ele>97.57142857142858</ele><time>2026-05-01T11:27:46.999Z</time></trkpt><trkpt lat="44.381059878487044" lon="11.599166824245437"><ele>98.85714285714286</ele><time>2026-05-01T11:27:50.999Z</time></trkpt><trkpt lat="44.381002480128146" lon="11.599204730292756"><ele>100.14285714285714</ele><time>2026-05-01T11:27:55Z</time></trkpt><trkpt lat="44.38093162042689" lon="11.599244640047635"><ele>101.42857142857143</ele><time>2026-05-01T11:28:00Z</time></trkpt><trkpt lat="44.38086702808433" lon="11.599285366237758"><ele>102.71428571428571</ele><time>2026-05-01T11:28:05Z</time></trkpt><trkpt lat="44.380809145879205" lon="11.599328195838408"><ele>104.0</ele><time>2026-05-01T11:28:10Z</time></trkpt><trkpt lat="44.380746058886515" lon="11.59937517954364"><ele>104.0</ele><time>2026-05-01T11:28:16Z</time></trkpt><trkpt lat="44.38068725696886" lon="11.599418029763791"><ele>104.0</ele><time>2026-05-01T11:28:22Z</time></trkpt><trkpt lat="44.38063133697648" lon="11.599463799722907"><ele>104.0</ele><time>2026-05-01T11:28:27Z</time></trkpt><trkpt lat="44.38056721519244" lon="11.59951649994968"><ele>104.0</ele><time>2026-05-01T11:28:32Z</time></trkpt><trkpt lat="44.38050946352436" lon="11.599560323721777"><ele>104.0</ele><time>2026-05-01T11:28:37Z</time></trkpt><trkpt lat="44.380456618266535" lon="11.59961268880267"><ele>104.0</ele><time>2026-05-01T11:28:42Z</time></trkpt><trkpt lat="44.38039133103197" lon="11.599660930041335"><ele>104.0</ele><time>2026-05-01T11:28:48Z</time></trkpt><trkpt lat="44.38032988634713" lon="11.599696645529548"><ele>105.14285714285714</ele><time>2026-05-01T11:28:52Z</time></trkpt><trkpt lat="44.38025438390228" lon="11.599724189643394"><ele>106.28571428571429</ele><time>2026-05-01T11:28:57Z</time></trkpt><trkpt lat="44.38017761431479" lon="11.599759641104024"><ele>107.42857142857143</ele><time>2026-05-01T11:29:01Z</time></trkpt><trkpt lat="44.380098462962295" lon="11.599773468417842"><ele>108.57142857142857</ele><time>2026-05-01T11:29:05Z</time></trkpt><trkpt lat="44.38002160169899" lon="11.599764827475333"><ele>109.71428571428572</ele><time>2026-05-01T11:29:09Z</time></trkpt><trkpt lat="44.37995687423372" lon="11.599777065227777"><ele>110.85714285714286</ele><time>2026-05-01T11:29:12Z</time></trkpt><trkpt lat="44.379890980278304" lon="11.59979631391581"><ele>112.0</ele><time>2026-05-01T11:29:15Z</time></trkpt><trkpt lat="44.3798116023182" lon="11.599844214410822"><ele>112.00000000000001</ele><time>2026-05-01T11:29:18Z</time></trkpt><trkpt lat="44.379753255413654" lon="11.59989156768804"><ele>112.0</ele><time>2026-05-01T11:29:20Z</time></trkpt><trkpt lat="44.37968191791787" lon="11.599933178383607"><ele>112.0</ele><time>2026-05-01T11:29:21.999Z</time></trkpt><trkpt lat="44.379596475331866" lon="11.599985922171179"><ele>112.0</ele><time>2026-05-01T11:29:23.999Z</time></trkpt><trkpt lat="44.37950323562355" lon="11.600042425699312"><ele>112.00000000000001</ele><time>2026-05-01T11:29:25.999Z</time></trkpt><trkpt lat="44.37941418090499" lon="11.600111788835921"><ele>112.0</ele><time>2026-05-01T11:29:27.999Z</time></trkpt><trkpt lat="44.3793132027146" lon="11.60018584881488"><ele>111.6</ele><time>2026-05-01T11:29:29.999Z</time></trkpt><trkpt lat="44.37923672430484" lon="11.600304553250089"><ele>111.19999999999999</ele><time>2026-05-01T11:29:31.999Z</time></trkpt><trkpt lat="44.3791761524947" lon="11.600423505227056"><ele>110.8</ele><time>2026-05-01T11:29:33.999Z</time></trkpt><trkpt lat="44.37912401181114" lon="11.600536902452674"><ele>110.4</ele><time>2026-05-01T11:29:35.999Z</time></trkpt><trkpt lat="44.379085274686034" lon="11.60063727155892"><ele>110.0</ele><time>2026-05-01T11:29:37.999Z</time></trkpt><trkpt lat="44.37905227310383" lon="11.600731344186396"><ele>109.99999999999999</ele><time>2026-05-01T11:29:40.999Z</time></trkpt><trkpt lat="44.37901620758562" lon="11.600831167796526"><ele>110.0</ele><time>2026-05-01T11:29:44.999Z</time></trkpt><trkpt lat="44.37897151119896" lon="11.60089388935575"><ele>110.0</ele><time>2026-05-01T11:29:48.999Z</time></trkpt><trkpt lat="44.378947143482215" lon="11.600997016787321"><ele>110.0</ele><time>2026-05-01T11:29:53.999Z</time></trkpt><trkpt lat="44.37889583211169" lon="11.601074308956"><ele>110.0</ele><time>2026-05-01T11:29:58.999Z</time></trkpt><trkpt lat="44.378860460080396" lon="11.60115870148107"><ele>109.99999999999999</ele><time>2026-05-01T11:30:04Z</time></trkpt><trkpt lat="44.37882445528964" lon="11.601244626249372"><ele>110.0</ele><time>2026-05-01T11:30:09Z</time></trkpt><trkpt lat="44.37879210459266" lon="11.60132257679509"><ele>112.28571428571428</ele><time>2026-05-01T11:30:13Z</time></trkpt><trkpt lat="44.37875835095245" lon="11.601403907810136"><ele>114.57142857142857</ele><time>2026-05-01T11:30:17Z</time></trkpt><trkpt lat="44.378719870467464" lon="11.601498527738848"><ele>116.85714285714286</ele><time>2026-05-01T11:30:22Z</time></trkpt><trkpt lat="44.37869519863543" lon="11.60160146749132"><ele>119.14285714285714</ele><time>2026-05-01T11:30:27Z</time></trkpt><trkpt lat="44.37865576832102" lon="11.601690126008565"><ele>121.42857142857143</ele><time>2026-05-01T11:30:32Z</time></trkpt><trkpt lat="44.37863307569741" lon="11.601785478613806"><ele>123.71428571428571</ele><time>2026-05-01T11:30:37Z</time></trkpt><trkpt lat="44.3786228348812" lon="11.601884638521225"><ele>126.0</ele><time>2026-05-01T11:30:42Z</time></trkpt><trkpt lat="44.37861486747035" lon="11.601980940550442"><ele>126.57142857142857</ele><time>2026-05-01T11:30:47Z</time></trkpt><trkpt lat="44.378625363601735" lon="11.60207018633683"><ele>127.14285714285714</ele><time>2026-05-01T11:30:51Z</time></trkpt><trkpt lat="44.378620300184686" lon="11.602168847926949"><ele>127.71428571428572</ele><time>2026-05-01T11:30:56Z</time></trkpt><trkpt lat="44.378634000314065" lon="11.602274442800189"><ele>128.28571428571428</ele><time>2026-05-01T11:31:01Z</time></trkpt><trkpt lat="44.378618254245126" lon="11.602374952351719"><ele>128.85714285714286</ele><time>2026-05-01T11:31:06Z</time></trkpt><trkpt lat="44.378606593182205" lon="11.602486241410801"><ele>129.42857142857144</ele><time>2026-05-01T11:31:11Z</time></trkpt><trkpt lat="44.37858765651108" lon="11.60257665279277"><ele>130.0</ele><time>2026-05-01T11:31:15Z</time></trkpt><trkpt lat="44.37858694729804" lon="11.60268499268998"><ele>130.00000000000003</ele><time>2026-05-01T11:31:20Z</time></trkpt><trkpt lat="44.37856279888157" lon="11.602769532972195"><ele>130.0</ele><time>2026-05-01T11:31:24Z</time></trkpt><trkpt lat="44.37856793337533" lon="11.602877601667666"><ele>130.0</ele><time>2026-05-01T11:31:28.999Z</time></trkpt><trkpt lat="44.37855794672422" lon="11.602980060602054"><ele>130.0</ele><time>2026-05-01T11:31:33.999Z</time></trkpt><trkpt lat="44.37854099863428" lon="11.603072682662075"><ele>130.0</ele><time>2026-05-01T11:31:37.999Z</time></trkpt><trkpt lat="44.37851315242875" lon="11.603177787509269"><ele>130.00000000000003</ele><time>2026-05-01T11:31:41.999Z</time></trkpt><trkpt lat="44.37850600894383" lon="11.603288932688223"><ele>130.0</ele><time>2026-05-01T11:31:45.999Z</time></trkpt><trkpt lat="44.37850721314175" lon="11.603390542650846"><ele>130.5</ele><time>2026-05-01T11:31:49.999Z</time></trkpt><trkpt lat="44.3785002004411" lon="11.603495434842394"><ele>131.0</ele><time>2026-05-01T11:31:53.999Z</time></trkpt><trkpt lat="44.3784855090491" lon="11.603595574482785"><ele>131.5</ele><time>2026-05-01T11:31:57.999Z</time></trkpt><trkpt lat="44.37847722651051" lon="11.603700476184875"><ele>132.0</ele><time>2026-05-01T11:32:01.999Z</time></trkpt><trkpt lat="44.37846907561616" lon="11.603826869346177"><ele>132.5</ele><time>2026-05-01T11:32:06Z</time></trkpt><trkpt lat="44.37845836997346" lon="11.603935008647344"><ele>133.0</ele><time>2026-05-01T11:32:09Z</time></trkpt><trkpt lat="44.37845705879244" lon="11.604025981096829"><ele>133.0</ele><time>2026-05-01T11:32:11Z</time></trkpt><trkpt lat="44.37845321157381" lon="11.604159851359984"><ele>133.0</ele><time>2026-05-01T11:32:14Z</time></trkpt><trkpt lat="44.37844505722733" lon="11.604254778216674"><ele>133.0</ele><time>2026-05-01T11:32:16Z</time></trkpt><trkpt lat="44.378429381238966" lon="11.604353325787427"><ele>133.0</ele><time>2026-05-01T11:32:18Z</time></trkpt><trkpt lat="44.37841954128619" lon="11.604454023149223"><ele>133.0</ele><time>2026-05-01T11:32:20Z</time></trkpt><trkpt lat="44.37840655908796" lon="11.604569278674756"><ele>133.0</ele><time>2026-05-01T11:32:22Z</time></trkpt><trkpt lat="44.37839543449803" lon="11.604682095846686"><ele>132.4</ele><time>2026-05-01T11:32:24Z</time></trkpt><trkpt lat="44.378385575328515" lon="11.604814285077808"><ele>131.8</ele><time>2026-05-01T11:32:26Z</time></trkpt><trkpt lat="44.37837912014922" lon="11.604948745148407"><ele>131.2</ele><time>2026-05-01T11:32:28Z</time></trkpt><trkpt lat="44.37836577665505" lon="11.60508533458222"><ele>130.6</ele><time>2026-05-01T11:32:30Z</time></trkpt><trkpt lat="44.378346019094906" lon="11.605234133431379"><ele>130.0</ele><time>2026-05-01T11:32:32Z</time></trkpt><trkpt lat="44.37834365508076" lon="11.605372559963747"><ele>129.8</ele><time>2026-05-01T11:32:34Z</time></trkpt><trkpt lat="44.37832267579957" lon="11.605514013989117"><ele>129.6</ele><time>2026-05-01T11:32:36Z</time></trkpt><trkpt lat="44.378306950098576" lon="11.605662187237819"><ele>129.4</ele><time>2026-05-01T11:32:38Z</time></trkpt><trkpt lat="44.378293073975755" lon="11.60580270880367"><ele>129.2</ele><time>2026-05-01T11:32:40Z</time></trkpt><trkpt lat="44.37827849449155" lon="11.605937481617783"><ele>129.0</ele><time>2026-05-01T11:32:42Z</time></trkpt><trkpt lat="44.37826805366141" lon="11.606066358991912"><ele>128.66666666666666</ele><time>2026-05-01T11:32:44Z</time></trkpt><trkpt lat="44.37825987581564" lon="11.606190629731067"><ele>128.33333333333334</ele><time>2026-05-01T11:32:46Z</time></trkpt><trkpt lat="44.37825499720551" lon="11.606312786821388"><ele>128.0</ele><time>2026-05-01T11:32:48Z</time></trkpt><trkpt lat="44.37824848568325" lon="11.60642665307956"><ele>127.66666666666667</ele><time>2026-05-01T11:32:50Z</time></trkpt><trkpt lat="44.37824052595145" lon="11.606537519512406"><ele>127.33333333333334</ele><time>2026-05-01T11:32:52Z</time></trkpt><trkpt lat="44.37822837283895" lon="11.606648617411192"><ele>127.0</ele><time>2026-05-01T11:32:54Z</time></trkpt><trkpt lat="44.378221718154784" lon="11.606761450711998"><ele>127.00000000000001</ele><time>2026-05-01T11:32:56Z</time></trkpt><trkpt lat="44.3782072082705" lon="11.606876937137159"><ele>127.0</ele><time>2026-05-01T11:32:58Z</time></trkpt><trkpt lat="44.3782022099693" lon="11.606995992545903"><ele>127.0</ele><time>2026-05-01T11:33:00Z</time></trkpt><trkpt lat="44.378189578269804" lon="11.607120302188495"><ele>127.0</ele><time>2026-05-01T11:33:02Z</time></trkpt><trkpt lat="44.3781787917505" lon="11.607236255085967"><ele>127.00000000000001</ele><time>2026-05-01T11:33:04Z</time></trkpt><trkpt lat="44.37816756014233" lon="11.607362660645002"><ele>127.0</ele><time>2026-05-01T11:33:06Z</time></trkpt><trkpt lat="44.378156354714385" lon="11.60748482317011"><ele>126.8</ele><time>2026-05-01T11:33:08Z</time></trkpt><trkpt lat="44.37814825505358" lon="11.607621717503967"><ele>126.6</ele><time>2026-05-01T11:33:10Z</time></trkpt><trkpt lat="44.37814704598855" lon="11.607750178775495"><ele>126.39999999999999</ele><time>2026-05-01T11:33:12Z</time></trkpt><trkpt lat="44.37812462063006" lon="11.607897394922633"><ele>126.19999999999999</ele><time>2026-05-01T11:33:14Z</time></trkpt><trkpt lat="44.378111848922735" lon="11.608048261952403"><ele>126.0</ele><time>2026-05-01T11:33:16Z</time></trkpt><trkpt lat="44.3781022099844" lon="11.608199781508278"><ele>125.8</ele><time>2026-05-01T11:33:18Z</time></trkpt><trkpt lat="44.37807522576869" lon="11.608350931714352"><ele>125.6</ele><time>2026-05-01T11:33:20Z</time></trkpt><trkpt lat="44.378077327413926" lon="11.60848954083321"><ele>125.4</ele><time>2026-05-01T11:33:22Z</time></trkpt><trkpt lat="44.37806635414983" lon="11.60861664043198"><ele>125.2</ele><time>2026-05-01T11:33:24Z</time></trkpt><trkpt lat="44.37804670648133" lon="11.608752974865075"><ele>125.0</ele><time>2026-05-01T11:33:26Z</time></trkpt><trkpt lat="44.37802992625448" lon="11.608878980590092"><ele>125.0</ele><time>2026-05-01T11:33:28Z</time></trkpt><trkpt lat="44.378016891166254" lon="11.609006401410193"><ele>125.0</ele><time>2026-05-01T11:33:30Z</time></trkpt><trkpt lat="44.37801121172621" lon="11.609130759412285"><ele>125.0</ele><time>2026-05-01T11:33:32Z</time></trkpt><trkpt lat="44.37799553080562" lon="11.609256672238127"><ele>125.0</ele><time>2026-05-01T11:33:34Z</time></trkpt><trkpt lat="44.377972767607275" lon="11.609398407219116"><ele>125.0</ele><time>2026-05-01T11:33:35.999Z</time></trkpt><trkpt lat="44.377959277939425" lon="11.609548757473366"><ele>124.75</ele><time>2026-05-01T11:33:37.999Z</time></trkpt><trkpt lat="44.37794764010488" lon="11.609714203925"><ele>124.5</ele><time>2026-05-01T11:33:39.999Z</time></trkpt><trkpt lat="44.37793404818596" lon="11.609875465909566"><ele>124.25</ele><time>2026-05-01T11:33:41.999Z</time></trkpt><trkpt lat="44.37791790734952" lon="11.61004356951304"><ele>124.0</ele><time>2026-05-01T11:33:43.999Z</time></trkpt><trkpt lat="44.3779069630063" lon="11.610199673153637"><ele>124.0</ele><time>2026-05-01T11:33:45.999Z</time></trkpt><trkpt lat="44.37789216038853" lon="11.61033937844634"><ele>124.0</ele><time>2026-05-01T11:33:47.999Z</time></trkpt><trkpt lat="44.37787586867148" lon="11.61048027475859"><ele>124.0</ele><time>2026-05-01T11:33:49.999Z</time></trkpt><trkpt lat="44.377864761266956" lon="11.610629687332423"><ele>124.0</ele><time>2026-05-01T11:33:51.999Z</time></trkpt><trkpt lat="44.377857051320376" lon="11.610764039744671"><ele>124.0</ele><time>2026-05-01T11:33:53.999Z</time></trkpt><trkpt lat="44.37785442708363" lon="11.610898390593304"><ele>124.00000000000001</ele><time>2026-05-01T11:33:55.999Z</time></trkpt><trkpt lat="44.3778572081032" lon="11.611043778242792"><ele>124.0</ele><time>2026-05-01T11:33:57.999Z</time></trkpt><trkpt lat="44.377838485147464" lon="11.611179416825614"><ele>124.0</ele><time>2026-05-01T11:33:59.999Z</time></trkpt><trkpt lat="44.37782411026531" lon="11.611298285544729"><ele>124.0</ele><time>2026-05-01T11:34:01.999Z</time></trkpt><trkpt lat="44.37782007755936" lon="11.61140946086171"><ele>124.00000000000001</ele><time>2026-05-01T11:34:03.999Z</time></trkpt><trkpt lat="44.377821687458" lon="11.61152208766739"><ele>124.0</ele><time>2026-05-01T11:34:05.999Z</time></trkpt><trkpt lat="44.37780601423403" lon="11.611624150349755"><ele>123.6</ele><time>2026-05-01T11:34:07.999Z</time></trkpt><trkpt lat="44.37779831119142" lon="11.611739009020141"><ele>123.2</ele><time>2026-05-01T11:34:09.999Z</time></trkpt><trkpt lat="44.37779083760715" lon="11.611864136638868"><ele>122.79999999999998</ele><time>2026-05-01T11:34:12Z</time></trkpt><trkpt lat="44.377784347165125" lon="11.61200757283071"><ele>122.39999999999999</ele><time>2026-05-01T11:34:14Z</time></trkpt><trkpt lat="44.37776770629698" lon="11.61211653871469"><ele>122.0</ele><time>2026-05-01T11:34:16Z</time></trkpt><trkpt lat="44.37775259044574" lon="11.612250456688743"><ele>122.0</ele><time>2026-05-01T11:34:18Z</time></trkpt><trkpt lat="44.377756339667634" lon="11.612413613568558"><ele>121.99999999999999</ele><time>2026-05-01T11:34:20Z</time></trkpt><trkpt lat="44.377742455589214" lon="11.612527147109258"><ele>121.99999999999999</ele><time>2026-05-01T11:34:22Z</time></trkpt><trkpt lat="44.37774301042703" lon="11.612628871979235"><ele>122.0</ele><time>2026-05-01T11:34:23Z</time></trkpt><trkpt lat="44.377728901194025" lon="11.612799706059164"><ele>122.0</ele><time>2026-05-01T11:34:25Z</time></trkpt><trkpt lat="44.37768903846025" lon="11.61294551782793"><ele>121.8</ele><time>2026-05-01T11:34:27Z</time></trkpt><trkpt lat="44.377611293932596" lon="11.61307143600605"><ele>121.6</ele><time>2026-05-01T11:34:29Z</time></trkpt><trkpt lat="44.37752978238676" lon="11.6131544652299"><ele>121.39999999999999</ele><time>2026-05-01T11:34:31Z</time></trkpt><trkpt lat="44.37745520540333" lon="11.613245672674712"><ele>121.19999999999999</ele><time>2026-05-01T11:34:33Z</time></trkpt><trkpt lat="44.37738166143863" lon="11.613331399573902"><ele>121.0</ele><time>2026-05-01T11:34:35Z</time></trkpt><trkpt lat="44.37730632672801" lon="11.613382726728204"><ele>121.00000000000001</ele><time>2026-05-01T11:34:37Z</time></trkpt><trkpt lat="44.37723511243516" lon="11.613462917749816"><ele>121.0</ele><time>2026-05-01T11:34:39Z</time></trkpt><trkpt lat="44.37718002053422" lon="11.613534338528844"><ele>121.0</ele><time>2026-05-01T11:34:41Z</time></trkpt><trkpt lat="44.377120375041706" lon="11.613633502182719"><ele>121.0</ele><time>2026-05-01T11:34:43Z</time></trkpt><trkpt lat="44.377084794359476" lon="11.613740544931758"><ele>121.00000000000001</ele><time>2026-05-01T11:34:45Z</time></trkpt><trkpt lat="44.37707317132202" lon="11.61386435485868"><ele>121.0</ele><time>2026-05-01T11:34:47Z</time></trkpt><trkpt lat="44.377053000137764" lon="11.613984732978503"><ele>121.0</ele><time>2026-05-01T11:34:49Z</time></trkpt><trkpt lat="44.37703757793061" lon="11.61411376576157"><ele>121.0</ele><time>2026-05-01T11:34:51Z</time></trkpt><trkpt lat="44.37701997294074" lon="11.614240008089585"><ele>121.0</ele><time>2026-05-01T11:34:53Z</time></trkpt><trkpt lat="44.376998101235216" lon="11.614365532237203"><ele>121.0</ele><time>2026-05-01T11:34:55Z</time></trkpt><trkpt lat="44.37697775336921" lon="11.614482371503572"><ele>121.0</ele><time>2026-05-01T11:34:57Z</time></trkpt><trkpt lat="44.37696068109573" lon="11.61460551900186"><ele>120.6</ele><time>2026-05-01T11:34:59Z</time></trkpt><trkpt lat="44.37694086909879" lon="11.614724873439823"><ele>120.19999999999999</ele><time>2026-05-01T11:35:01Z</time></trkpt><trkpt lat="44.37691651327261" lon="11.61484978663816"><ele>119.80000000000001</ele><time>2026-05-01T11:35:03Z</time></trkpt><trkpt lat="44.37689285226953" lon="11.614986118899052"><ele>119.4</ele><time>2026-05-01T11:35:05Z</time></trkpt><trkpt lat="44.376877939927624" lon="11.61511974936989"><ele>119.0</ele><time>2026-05-01T11:35:07Z</time></trkpt><trkpt lat="44.37685608972938" lon="11.615257807625383"><ele>118.80000000000001</ele><time>2026-05-01T11:35:09Z</time></trkpt><trkpt lat="44.37684335162299" lon="11.615400048356314"><ele>118.60000000000001</ele><time>2026-05-01T11:35:11Z</time></trkpt><trkpt lat="44.376823971567006" lon="11.61554162309938"><ele>118.4</ele><time>2026-05-01T11:35:13Z</time></trkpt><trkpt lat="44.37679859823186" lon="11.615675022679168"><ele>118.2</ele><time>2026-05-01T11:35:15Z</time></trkpt><trkpt lat="44.37666889441352" lon="11.615665250327524"><ele>118.0</ele><time>2026-05-01T11:35:16Z</time></trkpt><trkpt lat="44.376594211090904" lon="11.615691634472144"><ele>118.0</ele><time>2026-05-01T11:35:17Z</time></trkpt><trkpt lat="44.376515209793965" lon="11.615719544059825"><ele>118.00000000000001</ele><time>2026-05-01T11:35:18Z</time></trkpt><trkpt lat="44.37644041372568" lon="11.615749065032274"><ele>118.00000000000001</ele><time>2026-05-01T11:35:19Z</time></trkpt><trkpt lat="44.376334371349124" lon="11.615789984004193"><ele>118.0</ele><time>2026-05-01T11:35:20Z</time></trkpt><trkpt lat="44.37625729758861" lon="11.615808989545556"><ele>118.0</ele><time>2026-05-01T11:35:21Z</time></trkpt><trkpt lat="44.37614606895308" lon="11.615846881227077"><ele>114.5</ele><time>2026-05-01T11:35:22Z</time></trkpt><trkpt lat="44.3760183812859" lon="11.615901025934596"><ele>111.0</ele><time>2026-05-01T11:35:23Z</time></trkpt><trkpt lat="44.375882820711176" lon="11.615943815517403"><ele>107.5</ele><time>2026-05-01T11:35:24Z</time></trkpt><trkpt lat="44.37574571317996" lon="11.615985400481094"><ele>104.0</ele><time>2026-05-01T11:35:25Z</time></trkpt><trkpt lat="44.375604192173796" lon="11.616000013605227"><ele>102.25</ele><time>2026-05-01T11:35:26Z</time></trkpt><trkpt lat="44.3754587115573" lon="11.616015090402495"><ele>100.5</ele><time>2026-05-01T11:35:27Z</time></trkpt><trkpt lat="44.37531256707776" lon="11.616016886341301"><ele>98.75</ele><time>2026-05-01T11:35:28Z</time></trkpt><trkpt lat="44.37517442677235" lon="11.61600668972938"><ele>97.0</ele><time>2026-05-01T11:35:29Z</time></trkpt><trkpt lat="44.375038780111915" lon="11.61598774519969"><ele>97.0</ele><time>2026-05-01T11:35:30Z</time></trkpt><trkpt lat="44.374907480783506" lon="11.61595755082715"><ele>97.0</ele><time>2026-05-01T11:35:31Z</time></trkpt><trkpt lat="44.374784800387246" lon="11.615938603672625"><ele>97.0</ele><time>2026-05-01T11:35:32Z</time></trkpt><trkpt lat="44.37467107463529" lon="11.615886538718991"><ele>97.0</ele><time>2026-05-01T11:35:33Z</time></trkpt><trkpt lat="44.37457780982325" lon="11.6157977554287"><ele>97.50000000000001</ele><time>2026-05-01T11:35:34Z</time></trkpt><trkpt lat="44.37449725046584" lon="11.615706875550647"><ele>98.0</ele><time>2026-05-01T11:35:35Z</time></trkpt><trkpt lat="44.37445635521152" lon="11.615586441658918"><ele>98.5</ele><time>2026-05-01T11:35:35.999Z</time></trkpt><trkpt lat="44.374431872073494" lon="11.615483197040442"><ele>99.0</ele><time>2026-05-01T11:35:36.999Z</time></trkpt><trkpt lat="44.37440549609578" lon="11.615352210394361"><ele>99.50000000000001</ele><time>2026-05-01T11:35:38.999Z</time></trkpt><trkpt lat="44.37439191605894" lon="11.615265434519241"><ele>100.0</ele><time>2026-05-01T11:35:41.999Z</time></trkpt><trkpt lat="44.374362128191834" lon="11.615164581624573"><ele>100.14285714285715</ele><time>2026-05-01T11:35:46.999Z</time></trkpt><trkpt lat="44.3743363820018" lon="11.615082564339602"><ele>100.28571428571429</ele><time>2026-05-01T11:35:51.999Z</time></trkpt><trkpt lat="44.37432065243862" lon="11.614977762840761"><ele>100.42857142857143</ele><time>2026-05-01T11:35:57.999Z</time></trkpt><trkpt lat="44.37430986524765" lon="11.614876417484115"><ele>100.57142857142858</ele><time>2026-05-01T11:36:03.999Z</time></trkpt><trkpt lat="44.3742926419491" lon="11.614781335191116"><ele>100.71428571428571</ele><time>2026-05-01T11:36:09.999Z</time></trkpt><trkpt lat="44.374262943895424" lon="11.61469689862033"><ele>100.85714285714286</ele><time>2026-05-01T11:36:15.999Z</time></trkpt><trkpt lat="44.37424733777535" lon="11.614593986598491"><ele>101.0</ele><time>2026-05-01T11:36:23Z</time></trkpt><trkpt lat="44.37423000149455" lon="11.614507268230522"><ele>102.0</ele><time>2026-05-01T11:36:29Z</time></trkpt><trkpt lat="44.37420736313559" lon="11.614412575937193"><ele>103.0</ele><time>2026-05-01T11:36:36Z</time></trkpt><trkpt lat="44.374187332937176" lon="11.614328251551123"><ele>104.0</ele><time>2026-05-01T11:36:42Z</time></trkpt><trkpt lat="44.37417121162035" lon="11.61423804772292"><ele>105.0</ele><time>2026-05-01T11:36:49Z</time></trkpt><trkpt lat="44.37416476333386" lon="11.614136207621081"><ele>106.0</ele><time>2026-05-01T11:36:56Z</time></trkpt><trkpt lat="44.37415261917001" lon="11.614037703828018"><ele>107.0</ele><time>2026-05-01T11:37:03Z</time></trkpt><trkpt lat="44.374141072038874" lon="11.613942856080504"><ele>108.0</ele><time>2026-05-01T11:37:10Z</time></trkpt><trkpt lat="44.37413217292604" lon="11.613844307554784"><ele>108.0</ele><time>2026-05-01T11:37:17Z</time></trkpt><trkpt lat="44.374112827534844" lon="11.61375765296633"><ele>108.0</ele><time>2026-05-01T11:37:24Z</time></trkpt><trkpt lat="44.37410332181983" lon="11.613663240503582"><ele>108.0</ele><time>2026-05-01T11:37:30Z</time></trkpt><trkpt lat="44.37408780565951" lon="11.613564350625749"><ele>108.0</ele><time>2026-05-01T11:37:37Z</time></trkpt><trkpt lat="44.374065373301875" lon="11.61346894567907"><ele>108.0</ele><time>2026-05-01T11:37:44Z</time></trkpt><trkpt lat="44.374048348634474" lon="11.613383914092285"><ele>108.0</ele><time>2026-05-01T11:37:50.999Z</time></trkpt><trkpt lat="44.374028232802246" lon="11.61329856291649"><ele>108.0</ele><time>2026-05-01T11:37:56.999Z</time></trkpt><trkpt lat="44.37401175167289" lon="11.613206977396786"><ele>109.57142857142857</ele><time>2026-05-01T11:38:03.999Z</time></trkpt><trkpt lat="44.374000879958245" lon="11.61311979032593"><ele>111.14285714285714</ele><time>2026-05-01T11:38:09.999Z</time></trkpt><trkpt lat="44.373986791806026" lon="11.613021627997357"><ele>112.71428571428572</ele><time>2026-05-01T11:38:16.999Z</time></trkpt><trkpt lat="44.37396820521661" lon="11.612931043724956"><ele>114.28571428571428</ele><time>2026-05-01T11:38:25Z</time></trkpt><trkpt lat="44.37393670632525" lon="11.61283991467714"><ele>115.85714285714286</ele><time>2026-05-01T11:38:33Z</time></trkpt><trkpt lat="44.3739265970867" lon="11.612736550634313"><ele>117.42857142857143</ele><time>2026-05-01T11:38:40Z</time></trkpt><trkpt lat="44.37390574049026" lon="11.612640444727347"><ele>119.0</ele><time>2026-05-01T11:38:46Z</time></trkpt><trkpt lat="44.37389061690023" lon="11.61254415954876"><ele>122.0</ele><time>2026-05-01T11:38:52Z</time></trkpt><trkpt lat="44.37385177567034" lon="11.612454004478677"><ele>125.0</ele><time>2026-05-01T11:38:58Z</time></trkpt><trkpt lat="44.37382540483313" lon="11.61236621113651"><ele>128.0</ele><time>2026-05-01T11:39:03Z</time></trkpt><trkpt lat="44.373790037926426" lon="11.612284329917909"><ele>131.0</ele><time>2026-05-01T11:39:07Z</time></trkpt><trkpt lat="44.37375500236403" lon="11.612193431762483"><ele>134.0</ele><time>2026-05-01T11:39:12Z</time></trkpt><trkpt lat="44.373716671435375" lon="11.612116382838073"><ele>137.0</ele><time>2026-05-01T11:39:16Z</time></trkpt><trkpt lat="44.37367955625166" lon="11.612030180766233"><ele>140.0</ele><time>2026-05-01T11:39:20Z</time></trkpt><trkpt lat="44.37364361758717" lon="11.611939817954317"><ele>140.14285714285714</ele><time>2026-05-01T11:39:24Z</time></trkpt><trkpt lat="44.3735993434513" lon="11.611860569108943"><ele>140.28571428571428</ele><time>2026-05-01T11:39:28Z</time></trkpt><trkpt lat="44.373557721138994" lon="11.61177356209022"><ele>140.42857142857144</ele><time>2026-05-01T11:39:32Z</time></trkpt><trkpt lat="44.373518525132546" lon="11.611696369753512"><ele>140.57142857142856</ele><time>2026-05-01T11:39:35.999Z</time></trkpt><trkpt lat="44.37347956169734" lon="11.611604621363409"><ele>140.71428571428572</ele><time>2026-05-01T11:39:40.999Z</time></trkpt><trkpt lat="44.373434348188184" lon="11.611535277606885"><ele>140.85714285714286</ele><time>2026-05-01T11:39:44.999Z</time></trkpt><trkpt lat="44.373392401727905" lon="11.611459502299107"><ele>141.0</ele><time>2026-05-01T11:39:49.999Z</time></trkpt><trkpt lat="44.37334077134373" lon="11.611388215224485"><ele>141.0</ele><time>2026-05-01T11:39:54.999Z</time></trkpt><trkpt lat="44.37329026112335" lon="11.611331274366998"><ele>141.0</ele><time>2026-05-01T11:39:59.999Z</time></trkpt><trkpt lat="44.373228281372796" lon="11.611287334532975"><ele>141.0</ele><time>2026-05-01T11:40:04.999Z</time></trkpt><trkpt lat="44.3731588097123" lon="11.611253226804237"><ele>141.0</ele><time>2026-05-01T11:40:10.999Z</time></trkpt><trkpt lat="44.37310264231595" lon="11.611211181187635"><ele>141.0</ele><time>2026-05-01T11:40:15.999Z</time></trkpt><trkpt lat="44.373039154046" lon="11.611183679142039"><ele>141.0</ele><time>2026-05-01T11:40:20.999Z</time></trkpt><trkpt lat="44.37296723039967" lon="11.611176123787212"><ele>141.0</ele><time>2026-05-01T11:40:25.999Z</time></trkpt><trkpt lat="44.37290786882458" lon="11.611133418069718"><ele>142.71428571428572</ele><time>2026-05-01T11:40:31Z</time></trkpt><trkpt lat="44.37284182314203" lon="11.611109012213342"><ele>144.42857142857142</ele><time>2026-05-01T11:40:36Z</time></trkpt><trkpt lat="44.37278097732392" lon="11.611084752206429"><ele>146.14285714285714</ele><time>2026-05-01T11:40:41Z</time></trkpt><trkpt lat="44.3727132962169" lon="11.611074735937253"><ele>147.85714285714286</ele><time>2026-05-01T11:40:46Z</time></trkpt><trkpt lat="44.37264040737315" lon="11.611051458657059"><ele>149.57142857142858</ele><time>2026-05-01T11:40:51Z</time></trkpt><trkpt lat="44.37257142885651" lon="11.611025247574672"><ele>151.28571428571428</ele><time>2026-05-01T11:40:55Z</time></trkpt><trkpt lat="44.37250065124112" lon="11.611023381708813"><ele>153.0</ele><time>2026-05-01T11:40:59Z</time></trkpt><trkpt lat="44.37241962345389" lon="11.610998102566773"><ele>153.0</ele><time>2026-05-01T11:41:03Z</time></trkpt><trkpt lat="44.372350820890574" lon="11.611007484133147"><ele>153.0</ele><time>2026-05-01T11:41:06Z</time></trkpt><trkpt lat="44.37228084346256" lon="11.610983260538143"><ele>153.0</ele><time>2026-05-01T11:41:09Z</time></trkpt><trkpt lat="44.37221504777788" lon="11.610931170314922"><ele>153.0</ele><time>2026-05-01T11:41:12Z</time></trkpt><trkpt lat="44.372157944872946" lon="11.610871832905403"><ele>153.0</ele><time>2026-05-01T11:41:15Z</time></trkpt><trkpt lat="44.372113839431854" lon="11.610788454098563"><ele>153.0</ele><time>2026-05-01T11:41:18Z</time></trkpt><trkpt lat="44.37207071770103" lon="11.610706625186058"><ele>153.0</ele><time>2026-05-01T11:41:21Z</time></trkpt><trkpt lat="44.37202121083467" lon="11.610616209608722"><ele>152.71428571428572</ele><time>2026-05-01T11:41:25Z</time></trkpt><trkpt lat="44.371984902966254" lon="11.6105411272654"><ele>152.42857142857144</ele><time>2026-05-01T11:41:28Z</time></trkpt><trkpt lat="44.371938858034866" lon="11.610450813816822"><ele>152.14285714285717</ele><time>2026-05-01T11:41:32Z</time></trkpt><trkpt lat="44.37188883401595" lon="11.610363827311255"><ele>151.85714285714286</ele><time>2026-05-01T11:41:36Z</time></trkpt><trkpt lat="44.371844278786725" lon="11.61029322804767"><ele>151.57142857142858</ele><time>2026-05-01T11:41:40Z</time></trkpt><trkpt lat="44.37179733734866" lon="11.610232201867452"><ele>151.2857142857143</ele><time>2026-05-01T11:41:44Z</time></trkpt><trkpt lat="44.3717425467899" lon="11.610182843621109"><ele>151.0</ele><time>2026-05-01T11:41:47.999Z</time></trkpt><trkpt lat="44.37168247530123" lon="11.61012454002162"><ele>152.14285714285717</ele><time>2026-05-01T11:41:52.999Z</time></trkpt><trkpt lat="44.371612672329114" lon="11.610082542410543"><ele>153.28571428571428</ele><time>2026-05-01T11:41:57.999Z</time></trkpt><trkpt lat="44.37155672130392" lon="11.610020130372588"><ele>154.42857142857144</ele><time>2026-05-01T11:42:02.999Z</time></trkpt><trkpt lat="44.37149571703664" lon="11.609981164557249"><ele>155.57142857142858</ele><time>2026-05-01T11:42:07.999Z</time></trkpt><trkpt lat="44.37143486644535" lon="11.609942895244103"><ele>156.71428571428572</ele><time>2026-05-01T11:42:12.999Z</time></trkpt><trkpt lat="44.37137208602316" lon="11.609903412249565"><ele>157.85714285714286</ele><time>2026-05-01T11:42:18.999Z</time></trkpt><trkpt lat="44.37130183942262" lon="11.609877334888651"><ele>159.0</ele><time>2026-05-01T11:42:24.999Z</time></trkpt><trkpt lat="44.37123866159353" lon="11.609843229923552"><ele>159.7142857142857</ele><time>2026-05-01T11:42:29.999Z</time></trkpt><trkpt lat="44.37118017499919" lon="11.609803518064457"><ele>160.42857142857144</ele><time>2026-05-01T11:42:34.999Z</time></trkpt><trkpt lat="44.37111865617168" lon="11.609761782383972"><ele>161.14285714285714</ele><time>2026-05-01T11:42:40Z</time></trkpt><trkpt lat="44.37105251630043" lon="11.609704754216834"><ele>161.85714285714283</ele><time>2026-05-01T11:42:46Z</time></trkpt><trkpt lat="44.37099103496825" lon="11.609676379128064"><ele>162.57142857142856</ele><time>2026-05-01T11:42:51Z</time></trkpt><trkpt lat="44.370932827288385" lon="11.609623372182293"><ele>163.28571428571428</ele><time>2026-05-01T11:42:56Z</time></trkpt><trkpt lat="44.37087298032655" lon="11.609581892884846"><ele>164.0</ele><time>2026-05-01T11:43:00Z</time></trkpt><trkpt lat="44.3708109144706" lon="11.609542353702333"><ele>164.7142857142857</ele><time>2026-05-01T11:43:05Z</time></trkpt><trkpt lat="44.370749288821905" lon="11.609487661185858"><ele>165.42857142857142</ele><time>2026-05-01T11:43:10Z</time></trkpt><trkpt lat="44.370683836315955" lon="11.609438538531432"><ele>166.14285714285714</ele><time>2026-05-01T11:43:15Z</time></trkpt><trkpt lat="44.37062919011023" lon="11.609392825891323"><ele>166.85714285714283</ele><time>2026-05-01T11:43:19Z</time></trkpt><trkpt lat="44.370569392463786" lon="11.609351867838411"><ele>167.57142857142856</ele><time>2026-05-01T11:43:24Z</time></trkpt><trkpt lat="44.370508810339594" lon="11.609288714978453"><ele>168.28571428571428</ele><time>2026-05-01T11:43:29Z</time></trkpt><trkpt lat="44.37043849040876" lon="11.609247371113714"><ele>169.0</ele><time>2026-05-01T11:43:34Z</time></trkpt><trkpt lat="44.3703749746397" lon="11.609187731474675"><ele>169.42857142857144</ele><time>2026-05-01T11:43:39Z</time></trkpt><trkpt lat="44.370318443392776" lon="11.609147560067173"><ele>169.85714285714286</ele><time>2026-05-01T11:43:43Z</time></trkpt><trkpt lat="44.37026145222246" lon="11.609084195245073"><ele>170.28571428571428</ele><time>2026-05-01T11:43:48Z</time></trkpt><trkpt lat="44.37019026667426" lon="11.609038919481867"><ele>170.71428571428572</ele><time>2026-05-01T11:43:53Z</time></trkpt><trkpt lat="44.370135018754965" lon="11.608992918707242"><ele>171.14285714285714</ele><time>2026-05-01T11:43:57Z</time></trkpt><trkpt lat="44.37007084511812" lon="11.608927888099563"><ele>171.57142857142858</ele><time>2026-05-01T11:44:01.999Z</time></trkpt><trkpt lat="44.3700162622954" lon="11.608883505764476"><ele>172.0</ele><time>2026-05-01T11:44:05.999Z</time></trkpt><trkpt lat="44.36995469784984" lon="11.608822390436144"><ele>172.00000000000003</ele><time>2026-05-01T11:44:10.999Z</time></trkpt><trkpt lat="44.36989134184172" lon="11.608760429783167"><ele>172.0</ele><time>2026-05-01T11:44:15.999Z</time></trkpt><trkpt lat="44.36983176831431" lon="11.60870149382266"><ele>172.0</ele><time>2026-05-01T11:44:20.999Z</time></trkpt><trkpt lat="44.36977465712671" lon="11.608647863332052"><ele>172.0</ele><time>2026-05-01T11:44:25.999Z</time></trkpt><trkpt lat="44.3697252027742" lon="11.608592307192124"><ele>172.0</ele><time>2026-05-01T11:44:29.999Z</time></trkpt><trkpt lat="44.36966671018331" lon="11.608533679053446"><ele>172.00000000000003</ele><time>2026-05-01T11:44:34.999Z</time></trkpt><trkpt lat="44.36960621397843" lon="11.608474877192394"><ele>172.0</ele><time>2026-05-01T11:44:39.999Z</time></trkpt><trkpt lat="44.36954192627199" lon="11.608421717389946"><ele>173.42857142857144</ele><time>2026-05-01T11:44:45Z</time></trkpt><trkpt lat="44.369479066020155" lon="11.608366860481068"><ele>174.85714285714286</ele><time>2026-05-01T11:44:50Z</time></trkpt><trkpt lat="44.369418990798" lon="11.608313771359363"><ele>176.28571428571428</ele><time>2026-05-01T11:44:54Z</time></trkpt><trkpt lat="44.36936744635421" lon="11.608259883984001"><ele>177.71428571428572</ele><time>2026-05-01T11:44:58Z</time></trkpt><trkpt lat="44.369303372737846" lon="11.608198863199792"><ele>179.14285714285714</ele><time>2026-05-01T11:45:03Z</time></trkpt><trkpt lat="44.36924453383234" lon="11.60814613550757"><ele>180.57142857142858</ele><time>2026-05-01T11:45:07Z</time></trkpt><trkpt lat="44.36919716266503" lon="11.60808726891426"><ele>182.0</ele><time>2026-05-01T11:45:11Z</time></trkpt><trkpt lat="44.36913991067057" lon="11.608040098737167"><ele>182.0</ele><time>2026-05-01T11:45:15Z</time></trkpt><trkpt lat="44.369083772336154" lon="11.607994778998881"><ele>182.0</ele><time>2026-05-01T11:45:19Z</time></trkpt><trkpt lat="44.36903304859841" lon="11.607939815784249"><ele>182.0</ele><time>2026-05-01T11:45:23Z</time></trkpt><trkpt lat="44.36897123258829" lon="11.6078811883494"><ele>182.0</ele><time>2026-05-01T11:45:28Z</time></trkpt><trkpt lat="44.36890577659606" lon="11.607821788101381"><ele>182.0</ele><time>2026-05-01T11:45:33Z</time></trkpt><trkpt lat="44.36884910481041" lon="11.607768061809383"><ele>182.0</ele><time>2026-05-01T11:45:37Z</time></trkpt><trkpt lat="44.36879038338271" lon="11.607703066249165"><ele>182.0</ele><time>2026-05-01T11:45:42Z</time></trkpt><trkpt lat="44.36874010159414" lon="11.607638000913898"><ele>183.0</ele><time>2026-05-01T11:45:46Z</time></trkpt><trkpt lat="44.36869302432444" lon="11.607579261926666"><ele>184.0</ele><time>2026-05-01T11:45:50Z</time></trkpt><trkpt lat="44.36864828638943" lon="11.607516783011647"><ele>185.0</ele><time>2026-05-01T11:45:54Z</time></trkpt><trkpt lat="44.368607355486084" lon="11.607439955606981"><ele>186.0</ele><time>2026-05-01T11:45:59Z</time></trkpt><trkpt lat="44.36855876154986" lon="11.607370020058392"><ele>187.0</ele><time>2026-05-01T11:46:04Z</time></trkpt><trkpt lat="44.36849717916107" lon="11.60729481230654"><ele>188.0</ele><time>2026-05-01T11:46:09Z</time></trkpt><trkpt lat="44.368447091234295" lon="11.607219058393712"><ele>189.0</ele><time>2026-05-01T11:46:14Z</time></trkpt><trkpt lat="44.36839655022912" lon="11.607144040176877"><ele>189.0</ele><time>2026-05-01T11:46:18.999Z</time></trkpt><trkpt lat="44.36835424016222" lon="11.607074725486694"><ele>189.0</ele><time>2026-05-01T11:46:23.999Z</time></trkpt><trkpt lat="44.368277036299354" lon="11.607041498285652"><ele>189.0</ele><time>2026-05-01T11:46:28.999Z</time></trkpt><trkpt lat="44.36821320516434" lon="11.607018826745279"><ele>189.0</ele><time>2026-05-01T11:46:32.999Z</time></trkpt><trkpt lat="44.36814773021665" lon="11.607012092678502"><ele>189.0</ele><time>2026-05-01T11:46:36.999Z</time></trkpt><trkpt lat="44.36807101650971" lon="11.606995723036212"><ele>189.0</ele><time>2026-05-01T11:46:41.999Z</time></trkpt><trkpt lat="44.36800056013282" lon="11.606991288012708"><ele>189.0</ele><time>2026-05-01T11:46:45.999Z</time></trkpt><trkpt lat="44.36794933126943" lon="11.606931623538532"><ele>190.28571428571428</ele><time>2026-05-01T11:46:49Z</time></trkpt><trkpt lat="44.36788604789447" lon="11.606918023592202"><ele>191.57142857142856</ele><time>2026-05-01T11:46:52Z</time></trkpt><trkpt lat="44.367819180908846" lon="11.606902999552766"><ele>192.85714285714286</ele><time>2026-05-01T11:46:56Z</time></trkpt><trkpt lat="44.36775665642993" lon="11.606889441685109"><ele>194.14285714285714</ele><time>2026-05-01T11:46:59Z</time></trkpt><trkpt lat="44.367686841588096" lon="11.60687728547904"><ele>195.42857142857142</ele><time>2026-05-01T11:47:02Z</time></trkpt><trkpt lat="44.367607502738444" lon="11.606863931416258"><ele>196.71428571428572</ele><time>2026-05-01T11:47:06Z</time></trkpt><trkpt lat="44.36753340814968" lon="11.60685216565032"><ele>198.0</ele><time>2026-05-01T11:47:10Z</time></trkpt><trkpt lat="44.36745701099848" lon="11.60684200466039"><ele>198.0</ele><time>2026-05-01T11:47:14Z</time></trkpt><trkpt lat="44.36738573819439" lon="11.606832525232768"><ele>198.0</ele><time>2026-05-01T11:47:18Z</time></trkpt><trkpt lat="44.367318135911894" lon="11.60684675238277"><ele>198.0</ele><time>2026-05-01T11:47:22Z</time></trkpt><trkpt lat="44.367246386148835" lon="11.606832474531226"><ele>198.0</ele><time>2026-05-01T11:47:26Z</time></trkpt><trkpt lat="44.367179476072934" lon="11.606830223745987"><ele>198.0</ele><time>2026-05-01T11:47:30Z</time></trkpt><trkpt lat="44.36710558642295" lon="11.606815854263756"><ele>198.0</ele><time>2026-05-01T11:47:34Z</time></trkpt><trkpt lat="44.36702580844993" lon="11.606802851058665"><ele>198.0</ele><time>2026-05-01T11:47:39Z</time></trkpt><trkpt lat="44.36694710064333" lon="11.606795319453571"><ele>198.85714285714286</ele><time>2026-05-01T11:47:44Z</time></trkpt><trkpt lat="44.36687560789241" lon="11.606794130074043"><ele>199.7142857142857</ele><time>2026-05-01T11:47:49Z</time></trkpt><trkpt lat="44.366800219105954" lon="11.606783245531856"><ele>200.57142857142856</ele><time>2026-05-01T11:47:54Z</time></trkpt><trkpt lat="44.36672678181101" lon="11.60677038350371"><ele>201.42857142857144</ele><time>2026-05-01T11:47:59Z</time></trkpt><trkpt lat="44.36665394926807" lon="11.606761958754758"><ele>202.28571428571428</ele><time>2026-05-01T11:48:04Z</time></trkpt><trkpt lat="44.366588742481525" lon="11.606750361417406"><ele>203.14285714285714</ele><time>2026-05-01T11:48:09Z</time></trkpt><trkpt lat="44.36651957378929" lon="11.606731285153483"><ele>204.0</ele><time>2026-05-01T11:48:14Z</time></trkpt><trkpt lat="44.36644161400521" lon="11.606721423416307"><ele>204.0</ele><time>2026-05-01T11:48:18.999Z</time></trkpt><trkpt lat="44.36637025780431" lon="11.606710473438426"><ele>204.0</ele><time>2026-05-01T11:48:23.999Z</time></trkpt><trkpt lat="44.366302332590905" lon="11.606699524733761"><ele>204.0</ele><time>2026-05-01T11:48:28.999Z</time></trkpt><trkpt lat="44.36623300903047" lon="11.606688350635139"><ele>204.0</ele><time>2026-05-01T11:48:33.999Z</time></trkpt><trkpt lat="44.36616313487597" lon="11.606677087780666"><ele>204.0</ele><time>2026-05-01T11:48:38.999Z</time></trkpt><trkpt lat="44.36609319606043" lon="11.606667144596551"><ele>204.0</ele><time>2026-05-01T11:48:43.999Z</time></trkpt><trkpt lat="44.36603027074101" lon="11.606658887499057"><ele>204.0</ele><time>2026-05-01T11:48:47.999Z</time></trkpt><trkpt lat="44.365952207262296" lon="11.606649632989688"><ele>204.85714285714286</ele><time>2026-05-01T11:48:52.999Z</time></trkpt><trkpt lat="44.3658731014569" lon="11.606644197097499"><ele>205.71428571428572</ele><time>2026-05-01T11:48:58Z</time></trkpt><trkpt lat="44.36580006783066" lon="11.606645565083218"><ele>206.57142857142856</ele><time>2026-05-01T11:49:03Z</time></trkpt><trkpt lat="44.36572901106771" lon="11.60665055372346"><ele>207.42857142857144</ele><time>2026-05-01T11:49:08Z</time></trkpt><trkpt lat="44.365652278048124" lon="11.606654927828426"><ele>208.28571428571428</ele><time>2026-05-01T11:49:13Z</time></trkpt><trkpt lat="44.36558580571671" lon="11.606658717032374"><ele>209.14285714285714</ele><time>2026-05-01T11:49:17Z</time></trkpt><trkpt lat="44.36552301719305" lon="11.606684231953293"><ele>210.0</ele><time>2026-05-01T11:49:21Z</time></trkpt><trkpt lat="44.36544564070085" lon="11.60668483207101"><ele>210.57142857142858</ele><time>2026-05-01T11:49:25Z</time></trkpt><trkpt lat="44.36537200083918" lon="11.606690035351098"><ele>211.14285714285714</ele><time>2026-05-01T11:49:29Z</time></trkpt><trkpt lat="44.36530949374692" lon="11.606669397672915"><ele>211.71428571428572</ele><time>2026-05-01T11:49:32Z</time></trkpt><trkpt lat="44.36523201132186" lon="11.606669690665624"><ele>212.28571428571428</ele><time>2026-05-01T11:49:36Z</time></trkpt><trkpt lat="44.36515159093308" lon="11.606666133534034"><ele>212.85714285714286</ele><time>2026-05-01T11:49:40Z</time></trkpt><trkpt lat="44.36508431752751" lon="11.60667425324986"><ele>213.42857142857144</ele><time>2026-05-01T11:49:43Z</time></trkpt><trkpt lat="44.365021145413436" lon="11.60666625372572"><ele>214.0</ele><time>2026-05-01T11:49:46Z</time></trkpt><trkpt lat="44.364956642468734" lon="11.606654497999815"><ele>214.00000000000003</ele><time>2026-05-01T11:49:49Z</time></trkpt><trkpt lat="44.36488757782134" lon="11.606630425706937"><ele>214.0</ele><time>2026-05-01T11:49:52Z</time></trkpt><trkpt lat="44.36480633618198" lon="11.606611135639293"><ele>214.0</ele><time>2026-05-01T11:49:56Z</time></trkpt><trkpt lat="44.364725193425194" lon="11.606582342355674"><ele>214.0</ele><time>2026-05-01T11:50:00Z</time></trkpt><trkpt lat="44.364656790155166" lon="11.60656986151147"><ele>214.0</ele><time>2026-05-01T11:50:03Z</time></trkpt><trkpt lat="44.364593747916196" lon="11.606547040966515"><ele>214.00000000000003</ele><time>2026-05-01T11:50:06Z</time></trkpt><trkpt lat="44.36452562357177" lon="11.606532489250737"><ele>214.0</ele><time>2026-05-01T11:50:09Z</time></trkpt><trkpt lat="44.364454095169684" lon="11.606518027474447"><ele>214.00000000000003</ele><time>2026-05-01T11:50:12Z</time></trkpt><trkpt lat="44.36438096878976" lon="11.60650771936081"><ele>214.0</ele><time>2026-05-01T11:50:15Z</time></trkpt><trkpt lat="44.36431494457295" lon="11.606492423574615"><ele>214.0</ele><time>2026-05-01T11:50:18Z</time></trkpt><trkpt lat="44.36424193335877" lon="11.606485510743314"><ele>214.0</ele><time>2026-05-01T11:50:20.999Z</time></trkpt><trkpt lat="44.36417530912653" lon="11.606476957458328"><ele>214.0</ele><time>2026-05-01T11:50:23.999Z</time></trkpt><trkpt lat="44.36409306857533" lon="11.606468127128942"><ele>214.00000000000003</ele><time>2026-05-01T11:50:27.999Z</time></trkpt><trkpt lat="44.36402266656729" lon="11.60646263477169"><ele>214.0</ele><time>2026-05-01T11:50:30.999Z</time></trkpt><trkpt lat="44.363955101405836" lon="11.606458993278892"><ele>214.00000000000003</ele><time>2026-05-01T11:50:33.999Z</time></trkpt><trkpt lat="44.36389058594221" lon="11.60645591124935"><ele>214.0</ele><time>2026-05-01T11:50:36.999Z</time></trkpt><trkpt lat="44.36381198049673" lon="11.606448025845916"><ele>214.0</ele><time>2026-05-01T11:50:40.999Z</time></trkpt><trkpt lat="44.36373293328461" lon="11.606451124220152"><ele>214.0</ele><time>2026-05-01T11:50:44.999Z</time></trkpt><trkpt lat="44.36365754080208" lon="11.606443935062508"><ele>214.0</ele><time>2026-05-01T11:50:48.999Z</time></trkpt><trkpt lat="44.363585644875606" lon="11.606441920044412"><ele>214.00000000000003</ele><time>2026-05-01T11:50:52.999Z</time></trkpt><trkpt lat="44.36351825192044" lon="11.606445182025025"><ele>214.0</ele><time>2026-05-01T11:50:56.999Z</time></trkpt><trkpt lat="44.363450686294264" lon="11.606444657931986"><ele>214.57142857142858</ele><time>2026-05-01T11:51:01Z</time></trkpt><trkpt lat="44.3633773251519" lon="11.606450451514295"><ele>215.14285714285714</ele><time>2026-05-01T11:51:05Z</time></trkpt><trkpt lat="44.3633049759272" lon="11.606442843231374"><ele>215.71428571428572</ele><time>2026-05-01T11:51:09Z</time></trkpt><trkpt lat="44.363228124496466" lon="11.606437608875412"><ele>216.28571428571428</ele><time>2026-05-01T11:51:13Z</time></trkpt><trkpt lat="44.36316237921456" lon="11.606436413528385"><ele>216.85714285714286</ele><time>2026-05-01T11:51:16Z</time></trkpt><trkpt lat="44.3630935542433" lon="11.606427546455578"><ele>217.42857142857144</ele><time>2026-05-01T11:51:19Z</time></trkpt><trkpt lat="44.36301789626094" lon="11.606424028403012"><ele>218.0</ele><time>2026-05-01T11:51:22Z</time></trkpt><trkpt lat="44.36293123161008" lon="11.606418646587821"><ele>218.28571428571428</ele><time>2026-05-01T11:51:25Z</time></trkpt><trkpt lat="44.362866573221744" lon="11.60640806509769"><ele>218.57142857142858</ele><time>2026-05-01T11:51:27Z</time></trkpt><trkpt lat="44.36279462829062" lon="11.606387029540837"><ele>218.85714285714283</ele><time>2026-05-01T11:51:29Z</time></trkpt><trkpt lat="44.36272790539975" lon="11.606382297118625"><ele>219.14285714285714</ele><time>2026-05-01T11:51:31Z</time></trkpt><trkpt lat="44.362664142572385" lon="11.60637823118667"><ele>219.42857142857142</ele><time>2026-05-01T11:51:33Z</time></trkpt><trkpt lat="44.36259697463599" lon="11.606374592555518"><ele>219.7142857142857</ele><time>2026-05-01T11:51:35Z</time></trkpt><trkpt lat="44.362528259207544" lon="11.606375201720295"><ele>220.0</ele><time>2026-05-01T11:51:37Z</time></trkpt><trkpt lat="44.362439075504106" lon="11.606381533091781"><ele>220.0</ele><time>2026-05-01T11:51:40Z</time></trkpt><trkpt lat="44.362359479626214" lon="11.606394197086296"><ele>220.0</ele><time>2026-05-01T11:51:42Z</time></trkpt><trkpt lat="44.36227659346556" lon="11.60640852550741"><ele>220.0</ele><time>2026-05-01T11:51:44Z</time></trkpt><trkpt lat="44.362174234530265" lon="11.606434940894433"><ele>220.0</ele><time>2026-05-01T11:51:46Z</time></trkpt><trkpt lat="44.362054163726235" lon="11.606467951701898"><ele>220.0</ele><time>2026-05-01T11:51:48Z</time></trkpt><trkpt lat="44.361989174687764" lon="11.606486872552981"><ele>220.33333333333331</ele><time>2026-05-01T11:51:49Z</time></trkpt><trkpt lat="44.36192165539339" lon="11.606506530460331"><ele>220.66666666666666</ele><time>2026-05-01T11:51:50Z</time></trkpt><trkpt lat="44.361857939863825" lon="11.606551833030673"><ele>221.0</ele><time>2026-05-01T11:51:51Z</time></trkpt><trkpt lat="44.36179409313911" lon="11.606564954137484"><ele>221.33333333333331</ele><time>2026-05-01T11:51:52Z</time></trkpt><trkpt lat="44.36167702002458" lon="11.606584361667572"><ele>221.66666666666666</ele><time>2026-05-01T11:51:54Z</time></trkpt><trkpt lat="44.36156751703893" lon="11.606630858131062"><ele>222.0</ele><time>2026-05-01T11:51:56Z</time></trkpt><trkpt lat="44.36144985039413" lon="11.60672067940661"><ele>222.0</ele><time>2026-05-01T11:51:58Z</time></trkpt><trkpt lat="44.36140378651221" lon="11.606782933534582"><ele>222.0</ele><time>2026-05-01T11:51:59Z</time></trkpt><trkpt lat="44.36136032727198" lon="11.60686504129136"><ele>222.0</ele><time>2026-05-01T11:52:00Z</time></trkpt><trkpt lat="44.36132218537871" lon="11.60694120271726"><ele>222.0</ele><time>2026-05-01T11:52:01Z</time></trkpt><trkpt lat="44.36130633088449" lon="11.607029583852736"><ele>222.0</ele><time>2026-05-01T11:52:02Z</time></trkpt><trkpt lat="44.36129601841127" lon="11.607125395384582"><ele>222.0</ele><time>2026-05-01T11:52:03Z</time></trkpt><trkpt lat="44.361288147420176" lon="11.607216792789364"><ele>222.0</ele><time>2026-05-01T11:52:04Z</time></trkpt><trkpt lat="44.36128037731383" lon="11.607310833948468"><ele>221.6</ele><time>2026-05-01T11:52:05Z</time></trkpt><trkpt lat="44.36126772536317" lon="11.607463909028418"><ele>221.2</ele><time>2026-05-01T11:52:07Z</time></trkpt><trkpt lat="44.3612540470888" lon="11.607620639645383"><ele>220.8</ele><time>2026-05-01T11:52:09Z</time></trkpt><trkpt lat="44.361230013862894" lon="11.607763831260293"><ele>220.4</ele><time>2026-05-01T11:52:11Z</time></trkpt><trkpt lat="44.36119123878594" lon="11.60790561322373"><ele>220.0</ele><time>2026-05-01T11:52:13Z</time></trkpt><trkpt lat="44.36113991111135" lon="11.60805101107711"><ele>220.0</ele><time>2026-05-01T11:52:15Z</time></trkpt><trkpt lat="44.36108228063532" lon="11.608198122562214"><ele>220.0</ele><time>2026-05-01T11:52:17Z</time></trkpt><trkpt lat="44.361020658387936" lon="11.608334686775805"><ele>220.0</ele><time>2026-05-01T11:52:19Z</time></trkpt><trkpt lat="44.360955188187674" lon="11.608464254083463"><ele>220.0</ele><time>2026-05-01T11:52:21Z</time></trkpt><trkpt lat="44.360884385606255" lon="11.608584709753918"><ele>218.6</ele><time>2026-05-01T11:52:23Z</time></trkpt><trkpt lat="44.36080920847032" lon="11.608690613405223"><ele>217.2</ele><time>2026-05-01T11:52:24.999Z</time></trkpt><trkpt lat="44.36073536495387" lon="11.608775447145945"><ele>215.8</ele><time>2026-05-01T11:52:26.999Z</time></trkpt><trkpt lat="44.36065695577506" lon="11.608847234808344"><ele>214.4</ele><time>2026-05-01T11:52:28.999Z</time></trkpt><trkpt lat="44.360593010000336" lon="11.608900397930693"><ele>213.0</ele><time>2026-05-01T11:52:30.999Z</time></trkpt><trkpt lat="44.36052099546908" lon="11.608958606622869"><ele>215.5</ele><time>2026-05-01T11:52:32.999Z</time></trkpt><trkpt lat="44.36045517850364" lon="11.609015313240803"><ele>218.0</ele><time>2026-05-01T11:52:34.999Z</time></trkpt><trkpt lat="44.36040336191619" lon="11.609072814335903"><ele>220.5</ele><time>2026-05-01T11:52:36.999Z</time></trkpt><trkpt lat="44.36034987819027" lon="11.609156567934914"><ele>223.0</ele><time>2026-05-01T11:52:38.999Z</time></trkpt><trkpt lat="44.36030733112446" lon="11.609250640011519"><ele>225.5</ele><time>2026-05-01T11:52:40.999Z</time></trkpt><trkpt lat="44.36028792624664" lon="11.609346039244416"><ele>228.0</ele><time>2026-05-01T11:52:42.999Z</time></trkpt><trkpt lat="44.36027991833173" lon="11.609453569018031"><ele>228.0</ele><time>2026-05-01T11:52:44.999Z</time></trkpt><trkpt lat="44.360281616600126" lon="11.609558803419276"><ele>228.0</ele><time>2026-05-01T11:52:46.999Z</time></trkpt><trkpt lat="44.36029573655998" lon="11.609661070546698"><ele>228.0</ele><time>2026-05-01T11:52:48.999Z</time></trkpt><trkpt lat="44.36031021612644" lon="11.609759185022527"><ele>228.0</ele><time>2026-05-01T11:52:50.999Z</time></trkpt><trkpt lat="44.36032620575147" lon="11.609849629235859"><ele>228.0</ele><time>2026-05-01T11:52:52.999Z</time></trkpt><trkpt lat="44.36034764876079" lon="11.609972416549086"><ele>228.0</ele><time>2026-05-01T11:52:55.999Z</time></trkpt><trkpt lat="44.36036654630621" lon="11.610085917334642"><ele>228.0</ele><time>2026-05-01T11:52:58.999Z</time></trkpt><trkpt lat="44.36038333415252" lon="11.61019666858257"><ele>227.99999999999997</ele><time>2026-05-01T11:53:01.999Z</time></trkpt><trkpt lat="44.36039776631378" lon="11.610304643661816"><ele>228.0</ele><time>2026-05-01T11:53:04.999Z</time></trkpt><trkpt lat="44.36040969391081" lon="11.610395930064277"><ele>228.0</ele><time>2026-05-01T11:53:08Z</time></trkpt><trkpt lat="44.3604424647771" lon="11.61048383586235"><ele>227.99999999999997</ele><time>2026-05-01T11:53:11Z</time></trkpt><trkpt lat="44.36045395571816" lon="11.610584127047755"><ele>228.0</ele><time>2026-05-01T11:53:15Z</time></trkpt><trkpt lat="44.360477338326326" lon="11.61068864979225"><ele>228.0</ele><time>2026-05-01T11:53:19Z</time></trkpt><trkpt lat="44.360438767164105" lon="11.610778638451599"><ele>228.14285714285714</ele><time>2026-05-01T11:53:24Z</time></trkpt><trkpt lat="44.36040270809333" lon="11.610853437728911"><ele>228.28571428571428</ele><time>2026-05-01T11:53:28Z</time></trkpt><trkpt lat="44.36034055862705" lon="11.61090711761459"><ele>228.42857142857142</ele><time>2026-05-01T11:53:33Z</time></trkpt><trkpt lat="44.360294620564176" lon="11.610969362164111"><ele>228.57142857142856</ele><time>2026-05-01T11:53:38Z</time></trkpt><trkpt lat="44.36022947599513" lon="11.61098956615535"><ele>228.71428571428572</ele><time>2026-05-01T11:53:41Z</time></trkpt><trkpt lat="44.36016943395577" lon="11.611043921750092"><ele>228.85714285714283</ele><time>2026-05-01T11:53:46Z</time></trkpt><trkpt lat="44.36011763763095" lon="11.61109411226959"><ele>229.0</ele><time>2026-05-01T11:53:50Z</time></trkpt><trkpt lat="44.36006004130319" lon="11.611131314608832"><ele>229.0</ele><time>2026-05-01T11:53:54Z</time></trkpt><trkpt lat="44.3599928249151" lon="11.611133906885575"><ele>229.0</ele><time>2026-05-01T11:53:58Z</time></trkpt><trkpt lat="44.35991668479817" lon="11.611130287377188"><ele>229.0</ele><time>2026-05-01T11:54:02Z</time></trkpt><trkpt lat="44.35985265877084" lon="11.611120668140089"><ele>229.0</ele><time>2026-05-01T11:54:05Z</time></trkpt><trkpt lat="44.35977378073949" lon="11.61109973879818"><ele>229.0</ele><time>2026-05-01T11:54:09Z</time></trkpt><trkpt lat="44.35969551883811" lon="11.611083393391574"><ele>229.0</ele><time>2026-05-01T11:54:13Z</time></trkpt><trkpt lat="44.35961519197136" lon="11.611088496500356"><ele>229.0</ele><time>2026-05-01T11:54:17Z</time></trkpt><trkpt lat="44.3595359603139" lon="11.611073277042413"><ele>230.0</ele><time>2026-05-01T11:54:21Z</time></trkpt><trkpt lat="44.35946029979622" lon="11.611104236533595"><ele>231.0</ele><time>2026-05-01T11:54:25Z</time></trkpt><trkpt lat="44.35941761970162" lon="11.611177542729541"><ele>232.0</ele><time>2026-05-01T11:54:29Z</time></trkpt><trkpt lat="44.35938803753398" lon="11.611258965214434"><ele>233.0</ele><time>2026-05-01T11:54:33Z</time></trkpt><trkpt lat="44.35936137209215" lon="11.611365181985661"><ele>234.0</ele><time>2026-05-01T11:54:37.999Z</time></trkpt><trkpt lat="44.35933060479038" lon="11.61146803219252"><ele>235.0</ele><time>2026-05-01T11:54:42.999Z</time></trkpt><trkpt lat="44.35930272933753" lon="11.611561867417821"><ele>236.0</ele><time>2026-05-01T11:54:47.999Z</time></trkpt><trkpt lat="44.359265312648745" lon="11.611660586962746"><ele>236.00000000000003</ele><time>2026-05-01T11:54:53.999Z</time></trkpt><trkpt lat="44.359221950111476" lon="11.61174390149717"><ele>236.0</ele><time>2026-05-01T11:54:57.999Z</time></trkpt><trkpt lat="44.359175712940534" lon="11.611830519722648"><ele>236.0</ele><time>2026-05-01T11:55:02.999Z</time></trkpt><trkpt lat="44.359147003700976" lon="11.611931795554769"><ele>236.0</ele><time>2026-05-01T11:55:06.999Z</time></trkpt><trkpt lat="44.35912876225185" lon="11.61203517102028"><ele>236.00000000000003</ele><time>2026-05-01T11:55:10.999Z</time></trkpt><trkpt lat="44.3591346943762" lon="11.61213439486952"><ele>236.0</ele><time>2026-05-01T11:55:15Z</time></trkpt><trkpt lat="44.359146937450774" lon="11.612236492083397"><ele>236.28571428571428</ele><time>2026-05-01T11:55:19Z</time></trkpt><trkpt lat="44.35914716007401" lon="11.612332750240446"><ele>236.57142857142858</ele><time>2026-05-01T11:55:23Z</time></trkpt><trkpt lat="44.359137794203654" lon="11.612424056487432"><ele>236.85714285714286</ele><time>2026-05-01T11:55:27Z</time></trkpt><trkpt lat="44.35911754892246" lon="11.612508562763525"><ele>237.14285714285714</ele><time>2026-05-01T11:55:31Z</time></trkpt><trkpt lat="44.359076575796635" lon="11.61257895899133"><ele>237.42857142857144</ele><time>2026-05-01T11:55:35Z</time></trkpt><trkpt lat="44.3590086956061" lon="11.612600461028148"><ele>237.71428571428572</ele><time>2026-05-01T11:55:39Z</time></trkpt><trkpt lat="44.35894320292609" lon="11.612596662796387"><ele>238.0</ele><time>2026-05-01T11:55:43Z</time></trkpt><trkpt lat="44.358880114406304" lon="11.612610091512291"><ele>239.83333333333331</ele><time>2026-05-01T11:55:47Z</time></trkpt><trkpt lat="44.358809214077255" lon="11.61262012112599"><ele>241.66666666666666</ele><time>2026-05-01T11:55:51Z</time></trkpt><trkpt lat="44.35874746056963" lon="11.612597532667033"><ele>243.5</ele><time>2026-05-01T11:55:55Z</time></trkpt><trkpt lat="44.358676980978714" lon="11.612594097899935"><ele>245.33333333333331</ele><time>2026-05-01T11:55:59Z</time></trkpt><trkpt lat="44.35861065522068" lon="11.61260181823284"><ele>247.16666666666666</ele><time>2026-05-01T11:56:03Z</time></trkpt><trkpt lat="44.35854120156297" lon="11.61262456060733"><ele>249.0</ele><time>2026-05-01T11:56:07Z</time></trkpt><trkpt lat="44.35842875197346" lon="11.612604875979475"><ele>249.0</ele><time>2026-05-01T12:00:06Z</time></trkpt><trkpt lat="44.35840561900258" lon="11.612711394647706"><ele>249.0</ele><time>2026-05-01T12:00:16Z</time></trkpt><trkpt lat="44.35841509909971" lon="11.61282817678567"><ele>249.0</ele><time>2026-05-01T12:00:19Z</time></trkpt><trkpt lat="44.358415594512145" lon="11.612963280131437"><ele>249.0</ele><time>2026-05-01T12:00:22Z</time></trkpt><trkpt lat="44.35841988920058" lon="11.613074565363439"><ele>249.0</ele><time>2026-05-01T12:00:24Z</time></trkpt><trkpt lat="44.35842002596538" lon="11.613201842329627"><ele>249.0</ele><time>2026-05-01T12:00:26Z</time></trkpt><trkpt lat="44.35843365208189" lon="11.613347409506824"><ele>248.2</ele><time>2026-05-01T12:00:28Z</time></trkpt><trkpt lat="44.358435374095" lon="11.613480815740234"><ele>247.39999999999998</ele><time>2026-05-01T12:00:30Z</time></trkpt><trkpt lat="44.35845074284632" lon="11.61364023222924"><ele>246.6</ele><time>2026-05-01T12:00:32Z</time></trkpt><trkpt lat="44.35845781375856" lon="11.613802619119495"><ele>245.8</ele><time>2026-05-01T12:00:34Z</time></trkpt><trkpt lat="44.35844571159162" lon="11.613893920466886"><ele>245.0</ele><time>2026-05-01T12:00:35Z</time></trkpt><trkpt lat="44.358453343055466" lon="11.614071750390137"><ele>243.83333333333334</ele><time>2026-05-01T12:00:37Z</time></trkpt><trkpt lat="44.35845717826997" lon="11.61416111899314"><ele>242.66666666666669</ele><time>2026-05-01T12:00:38Z</time></trkpt><trkpt lat="44.35846130709153" lon="11.614257329465799"><ele>241.5</ele><time>2026-05-01T12:00:39Z</time></trkpt><trkpt lat="44.35846630851265" lon="11.61435686183858"><ele>240.33333333333331</ele><time>2026-05-01T12:00:40Z</time></trkpt><trkpt lat="44.35847182878254" lon="11.614464725549938"><ele>239.16666666666666</ele><time>2026-05-01T12:00:41Z</time></trkpt><trkpt lat="44.35848126081644" lon="11.614649023580936"><ele>238.0</ele><time>2026-05-01T12:00:43Z</time></trkpt><trkpt lat="44.3584863993217" lon="11.614749427611885"><ele>237.71428571428572</ele><time>2026-05-01T12:00:44Z</time></trkpt><trkpt lat="44.35850386150424" lon="11.614850905415052"><ele>237.42857142857144</ele><time>2026-05-01T12:00:45Z</time></trkpt><trkpt lat="44.35850510067828" lon="11.614962118494297"><ele>237.14285714285714</ele><time>2026-05-01T12:00:46Z</time></trkpt><trkpt lat="44.35851179329553" lon="11.615068539825106"><ele>236.85714285714286</ele><time>2026-05-01T12:00:47Z</time></trkpt><trkpt lat="44.358514485244136" lon="11.615161890869482"><ele>236.57142857142858</ele><time>2026-05-01T12:00:48Z</time></trkpt><trkpt lat="44.358515695659406" lon="11.615261904610561"><ele>236.28571428571428</ele><time>2026-05-01T12:00:49Z</time></trkpt><trkpt lat="44.358515005774606" lon="11.615374240842174"><ele>236.0</ele><time>2026-05-01T12:00:50Z</time></trkpt><trkpt lat="44.35850187945006" lon="11.61547682196587"><ele>235.33333333333334</ele><time>2026-05-01T12:00:51Z</time></trkpt><trkpt lat="44.3585138227984" lon="11.615579716528302"><ele>234.66666666666669</ele><time>2026-05-01T12:00:52Z</time></trkpt><trkpt lat="44.358511031658715" lon="11.615685679092538"><ele>234.0</ele><time>2026-05-01T12:00:53Z</time></trkpt><trkpt lat="44.35850590455124" lon="11.615785282898402"><ele>233.33333333333331</ele><time>2026-05-01T12:00:54Z</time></trkpt><trkpt lat="44.35850198109051" lon="11.615935831130116"><ele>232.66666666666666</ele><time>2026-05-01T12:00:55Z</time></trkpt><trkpt lat="44.35850392317374" lon="11.616050899604145"><ele>232.0</ele><time>2026-05-01T12:00:56Z</time></trkpt><trkpt lat="44.35852171972137" lon="11.616173431312658"><ele>231.83333333333331</ele><time>2026-05-01T12:00:57Z</time></trkpt><trkpt lat="44.35852815455022" lon="11.61630154903668"><ele>231.66666666666666</ele><time>2026-05-01T12:00:58Z</time></trkpt><trkpt lat="44.35854071436411" lon="11.616431163338632"><ele>231.5</ele><time>2026-05-01T12:00:59Z</time></trkpt><trkpt lat="44.35856039633301" lon="11.616546447210945"><ele>231.33333333333331</ele><time>2026-05-01T12:01:00Z</time></trkpt><trkpt lat="44.358568042717884" lon="11.616664137540882"><ele>231.16666666666666</ele><time>2026-05-01T12:01:01Z</time></trkpt><trkpt lat="44.3585885050691" lon="11.61677255050378"><ele>231.0</ele><time>2026-05-01T12:01:02Z</time></trkpt><trkpt lat="44.358608822122754" lon="11.616890042821371"><ele>230.66666666666666</ele><time>2026-05-01T12:01:03Z</time></trkpt><trkpt lat="44.35862657567591" lon="11.61699911639174"><ele>230.33333333333331</ele><time>2026-05-01T12:01:04Z</time></trkpt><trkpt lat="44.35864510513634" lon="11.617119035561624"><ele>230.0</ele><time>2026-05-01T12:01:05Z</time></trkpt><trkpt lat="44.35866355798662" lon="11.617221518725087"><ele>229.66666666666666</ele><time>2026-05-01T12:01:06Z</time></trkpt><trkpt lat="44.35867980139974" lon="11.617330883066792"><ele>229.33333333333331</ele><time>2026-05-01T12:01:07Z</time></trkpt><trkpt lat="44.35869457162761" lon="11.617443604623078"><ele>229.0</ele><time>2026-05-01T12:01:07.999Z</time></trkpt><trkpt lat="44.358707514395796" lon="11.617553602463111"><ele>228.99999999999997</ele><time>2026-05-01T12:01:08.999Z</time></trkpt><trkpt lat="44.358730969421025" lon="11.61766715003681"><ele>229.0</ele><time>2026-05-01T12:01:09.999Z</time></trkpt><trkpt lat="44.35875302242943" lon="11.617784507853216"><ele>229.0</ele><time>2026-05-01T12:01:10.999Z</time></trkpt><trkpt lat="44.35876246234134" lon="11.617902736907459"><ele>229.0</ele><time>2026-05-01T12:01:11.999Z</time></trkpt><trkpt lat="44.35878408315926" lon="11.618019149546948"><ele>228.99999999999997</ele><time>2026-05-01T12:01:12.999Z</time></trkpt><trkpt lat="44.35881050744688" lon="11.61812936548744"><ele>229.0</ele><time>2026-05-01T12:01:13.999Z</time></trkpt><trkpt lat="44.35883260723705" lon="11.618251101692655"><ele>228.39999999999998</ele><time>2026-05-01T12:01:14.999Z</time></trkpt><trkpt lat="44.35885491733645" lon="11.618381808871266"><ele>227.79999999999998</ele><time>2026-05-01T12:01:15.999Z</time></trkpt><trkpt lat="44.35888793781091" lon="11.618515651574683"><ele>227.20000000000002</ele><time>2026-05-01T12:01:16.999Z</time></trkpt><trkpt lat="44.35892169144361" lon="11.618640483023693"><ele>226.60000000000002</ele><time>2026-05-01T12:01:17.999Z</time></trkpt><trkpt lat="44.358942766194964" lon="11.618760949706228"><ele>226.0</ele><time>2026-05-01T12:01:18.999Z</time></trkpt><trkpt lat="44.358968837985145" lon="11.61886559818631"><ele>225.33333333333331</ele><time>2026-05-01T12:01:19.999Z</time></trkpt><trkpt lat="44.35899750239252" lon="11.61896561967689"><ele>224.66666666666666</ele><time>2026-05-01T12:01:20.999Z</time></trkpt><trkpt lat="44.35902457591439" lon="11.619054996634427"><ele>224.0</ele><time>2026-05-01T12:01:21.999Z</time></trkpt><trkpt lat="44.359054560283695" lon="11.619149151001809"><ele>223.33333333333331</ele><time>2026-05-01T12:01:22.999Z</time></trkpt><trkpt lat="44.359084928378934" lon="11.619240757540492"><ele>222.66666666666666</ele><time>2026-05-01T12:01:23.999Z</time></trkpt><trkpt lat="44.359126795611125" lon="11.619341612073598"><ele>222.0</ele><time>2026-05-01T12:01:24.999Z</time></trkpt><trkpt lat="44.35916161160162" lon="11.619436208961494"><ele>221.33333333333334</ele><time>2026-05-01T12:01:25.999Z</time></trkpt><trkpt lat="44.35920389238409" lon="11.619537572297604"><ele>220.66666666666669</ele><time>2026-05-01T12:01:26.999Z</time></trkpt><trkpt lat="44.359248116307334" lon="11.61964287088651"><ele>220.0</ele><time>2026-05-01T12:01:27.999Z</time></trkpt><trkpt lat="44.35929944494719" lon="11.61975531913794"><ele>219.33333333333334</ele><time>2026-05-01T12:01:28.999Z</time></trkpt><trkpt lat="44.3593469218914" lon="11.619847638712887"><ele>218.66666666666669</ele><time>2026-05-01T12:01:30Z</time></trkpt><trkpt lat="44.359407844787754" lon="11.619947812483945"><ele>218.0</ele><time>2026-05-01T12:01:31Z</time></trkpt><trkpt lat="44.35945390004588" lon="11.620034063729971"><ele>218.00000000000003</ele><time>2026-05-01T12:01:32Z</time></trkpt><trkpt lat="44.35950898174449" lon="11.620112577557078"><ele>218.0</ele><time>2026-05-01T12:01:33Z</time></trkpt><trkpt lat="44.35955790439627" lon="11.620201291149227"><ele>218.0</ele><time>2026-05-01T12:01:34Z</time></trkpt><trkpt lat="44.35960856809044" lon="11.620294778712696"><ele>218.0</ele><time>2026-05-01T12:01:35Z</time></trkpt><trkpt lat="44.35966157875406" lon="11.620381446241273"><ele>218.00000000000003</ele><time>2026-05-01T12:01:36Z</time></trkpt><trkpt lat="44.359714054814894" lon="11.620478121055632"><ele>218.0</ele><time>2026-05-01T12:01:37Z</time></trkpt><trkpt lat="44.359767406223675" lon="11.620566931234823"><ele>217.16666666666669</ele><time>2026-05-01T12:01:38Z</time></trkpt><trkpt lat="44.35981978994169" lon="11.62065736305856"><ele>216.33333333333334</ele><time>2026-05-01T12:01:39Z</time></trkpt><trkpt lat="44.35988081289535" lon="11.620749727411987"><ele>215.5</ele><time>2026-05-01T12:01:40Z</time></trkpt><trkpt lat="44.359938975355696" lon="11.620847083085726"><ele>214.66666666666669</ele><time>2026-05-01T12:01:41Z</time></trkpt><trkpt lat="44.3599939374113" lon="11.620939919502845"><ele>213.83333333333334</ele><time>2026-05-01T12:01:42Z</time></trkpt><trkpt lat="44.36004808544475" lon="11.62101887348771"><ele>213.0</ele><time>2026-05-01T12:01:43Z</time></trkpt><trkpt lat="44.36009854192329" lon="11.621097090833917"><ele>212.33333333333334</ele><time>2026-05-01T12:01:44Z</time></trkpt><trkpt lat="44.360146530157145" lon="11.621174062076365"><ele>211.66666666666669</ele><time>2026-05-01T12:01:45Z</time></trkpt><trkpt lat="44.360193334140504" lon="11.621242167325414"><ele>211.0</ele><time>2026-05-01T12:01:46Z</time></trkpt><trkpt lat="44.360234370364665" lon="11.621309905007875"><ele>210.33333333333334</ele><time>2026-05-01T12:01:47Z</time></trkpt><trkpt lat="44.360311986351824" lon="11.621452334841115"><ele>209.66666666666669</ele><time>2026-05-01T12:01:49Z</time></trkpt><trkpt lat="44.360331613233846" lon="11.621546760368894"><ele>209.0</ele><time>2026-05-01T12:01:50Z</time></trkpt><trkpt lat="44.36036065530939" lon="11.621635102626811"><ele>209.00000000000003</ele><time>2026-05-01T12:01:51Z</time></trkpt><trkpt lat="44.36039091020713" lon="11.621728898278949"><ele>209.0</ele><time>2026-05-01T12:01:52Z</time></trkpt><trkpt lat="44.3604197025625" lon="11.62182556065823"><ele>209.0</ele><time>2026-05-01T12:01:53Z</time></trkpt><trkpt lat="44.3604508788704" lon="11.621922679071579"><ele>209.0</ele><time>2026-05-01T12:01:54Z</time></trkpt><trkpt lat="44.36049750733372" lon="11.62201232889776"><ele>209.00000000000003</ele><time>2026-05-01T12:01:55Z</time></trkpt><trkpt lat="44.360523401579115" lon="11.622118373757937"><ele>209.0</ele><time>2026-05-01T12:01:56Z</time></trkpt><trkpt lat="44.36055476542237" lon="11.622215188462093"><ele>208.2</ele><time>2026-05-01T12:01:57Z</time></trkpt><trkpt lat="44.36059486986572" lon="11.62236329018975"><ele>207.39999999999998</ele><time>2026-05-01T12:01:59Z</time></trkpt><trkpt lat="44.360612565799954" lon="11.62248065106332"><ele>206.6</ele><time>2026-05-01T12:02:01Z</time></trkpt><trkpt lat="44.36062849612964" lon="11.622581472237952"><ele>205.8</ele><time>2026-05-01T12:02:03Z</time></trkpt><trkpt lat="44.3605489188984" lon="11.622633496041052"><ele>205.0</ele><time>2026-05-01T12:02:04Z</time></trkpt><trkpt lat="44.36043090893617" lon="11.622634730727523"><ele>204.6</ele><time>2026-05-01T12:02:06Z</time></trkpt><trkpt lat="44.360316507331035" lon="11.622621159621684"><ele>204.2</ele><time>2026-05-01T12:02:08Z</time></trkpt><trkpt lat="44.360193351931684" lon="11.622634058293908"><ele>203.8</ele><time>2026-05-01T12:02:10Z</time></trkpt><trkpt lat="44.360123041880335" lon="11.622643712638142"><ele>203.4</ele><time>2026-05-01T12:02:11Z</time></trkpt><trkpt lat="44.36004795441222" lon="11.62266305843624"><ele>203.0</ele><time>2026-05-01T12:02:12Z</time></trkpt><trkpt lat="44.35996977528097" lon="11.622677993650496"><ele>203.0</ele><time>2026-05-01T12:02:13Z</time></trkpt><trkpt lat="44.35988102664684" lon="11.62270967896338"><ele>203.0</ele><time>2026-05-01T12:02:14Z</time></trkpt><trkpt lat="44.359783984766544" lon="11.622756772817374"><ele>203.0</ele><time>2026-05-01T12:02:15Z</time></trkpt><trkpt lat="44.35968581677843" lon="11.622805160557231"><ele>203.0</ele><time>2026-05-01T12:02:16Z</time></trkpt><trkpt lat="44.35959052215438" lon="11.622859684149756"><ele>203.0</ele><time>2026-05-01T12:02:17Z</time></trkpt><trkpt lat="44.35949330593217" lon="11.622922262676838"><ele>200.8</ele><time>2026-05-01T12:02:18Z</time></trkpt><trkpt lat="44.359396398319554" lon="11.623005089555924"><ele>198.60000000000002</ele><time>2026-05-01T12:02:19Z</time></trkpt><trkpt lat="44.35931028235022" lon="11.623088807032735"><ele>196.39999999999998</ele><time>2026-05-01T12:02:20Z</time></trkpt><trkpt lat="44.35922217286137" lon="11.62317516407524"><ele>194.2</ele><time>2026-05-01T12:02:21Z</time></trkpt><trkpt lat="44.35914418813332" lon="11.62326811098496"><ele>192.0</ele><time>2026-05-01T12:02:22Z</time></trkpt><trkpt lat="44.359065869746246" lon="11.623349032787715"><ele>192.0</ele><time>2026-05-01T12:02:23Z</time></trkpt><trkpt lat="44.358987666812155" lon="11.623426399762238"><ele>192.0</ele><time>2026-05-01T12:02:24Z</time></trkpt><trkpt lat="44.35891562296947" lon="11.623496868074353"><ele>192.0</ele><time>2026-05-01T12:02:25Z</time></trkpt><trkpt lat="44.358843505433065" lon="11.623554615696015"><ele>192.0</ele><time>2026-05-01T12:02:26Z</time></trkpt><trkpt lat="44.35876474060109" lon="11.623589714791315"><ele>192.0</ele><time>2026-05-01T12:02:27Z</time></trkpt><trkpt lat="44.358693961480014" lon="11.623599830793644"><ele>192.0</ele><time>2026-05-01T12:02:28Z</time></trkpt><trkpt lat="44.358632361254536" lon="11.62363169054584"><ele>189.0</ele><time>2026-05-01T12:02:29Z</time></trkpt><trkpt lat="44.3585996677309" lon="11.623717276264138"><ele>186.0</ele><time>2026-05-01T12:02:30Z</time></trkpt><trkpt lat="44.358591343166175" lon="11.62380750701469"><ele>183.0</ele><time>2026-05-01T12:02:31Z</time></trkpt><trkpt lat="44.35864768850183" lon="11.623894849288869"><ele>180.0</ele><time>2026-05-01T12:02:32Z</time></trkpt><trkpt lat="44.35870770998088" lon="11.624030955670861"><ele>177.0</ele><time>2026-05-01T12:02:34Z</time></trkpt><trkpt lat="44.358704416756815" lon="11.62419410358796"><ele>177.0</ele><time>2026-05-01T12:02:36Z</time></trkpt><trkpt lat="44.35868939438877" lon="11.624354247668478"><ele>177.0</ele><time>2026-05-01T12:02:38Z</time></trkpt><trkpt lat="44.35866037836633" lon="11.62450371232113"><ele>177.0</ele><time>2026-05-01T12:02:40Z</time></trkpt><trkpt lat="44.35865190974911" lon="11.624644354811368"><ele>177.0</ele><time>2026-05-01T12:02:42Z</time></trkpt><trkpt lat="44.3586597043184" lon="11.624793784438939"><ele>177.0</ele><time>2026-05-01T12:02:44Z</time></trkpt><trkpt lat="44.3586491622494" lon="11.62493586554289"><ele>176.33333333333334</ele><time>2026-05-01T12:02:46Z</time></trkpt><trkpt lat="44.35864555349589" lon="11.625072793300363"><ele>175.66666666666666</ele><time>2026-05-01T12:02:48Z</time></trkpt><trkpt lat="44.35864602784445" lon="11.625205580314091"><ele>175.0</ele><time>2026-05-01T12:02:50Z</time></trkpt><trkpt lat="44.358650048200076" lon="11.62532430137109"><ele>174.33333333333331</ele><time>2026-05-01T12:02:52Z</time></trkpt><trkpt lat="44.35864805316136" lon="11.625435050881869"><ele>173.66666666666666</ele><time>2026-05-01T12:02:54Z</time></trkpt><trkpt lat="44.35865983545725" lon="11.625547758011436"><ele>173.0</ele><time>2026-05-01T12:02:56Z</time></trkpt><trkpt lat="44.35869047633487" lon="11.62564874915615"><ele>172.7142857142857</ele><time>2026-05-01T12:02:58Z</time></trkpt><trkpt lat="44.3587099629203" lon="11.625756807628347"><ele>172.42857142857144</ele><time>2026-05-01T12:03:00Z</time></trkpt><trkpt lat="44.35873421015832" lon="11.62586771498774"><ele>172.14285714285714</ele><time>2026-05-01T12:03:02Z</time></trkpt><trkpt lat="44.35875612234592" lon="11.625980967022214"><ele>171.85714285714283</ele><time>2026-05-01T12:03:04Z</time></trkpt><trkpt lat="44.358778715156156" lon="11.626064095648573"><ele>171.57142857142856</ele><time>2026-05-01T12:03:06Z</time></trkpt><trkpt lat="44.358796378344444" lon="11.626159856314269"><ele>171.28571428571428</ele><time>2026-05-01T12:03:09Z</time></trkpt><trkpt lat="44.35882490257863" lon="11.626243280646932"><ele>171.0</ele><time>2026-05-01T12:03:11Z</time></trkpt><trkpt lat="44.35883494522085" lon="11.626341845305078"><ele>170.83333333333334</ele><time>2026-05-01T12:03:12.999Z</time></trkpt><trkpt lat="44.35885524014394" lon="11.626439456871456"><ele>170.66666666666666</ele><time>2026-05-01T12:03:14.999Z</time></trkpt><trkpt lat="44.35889125742617" lon="11.626543440747005"><ele>170.5</ele><time>2026-05-01T12:03:16.999Z</time></trkpt><trkpt lat="44.35890818242497" lon="11.626641055815094"><ele>170.33333333333331</ele><time>2026-05-01T12:03:18.999Z</time></trkpt><trkpt lat="44.358942475405634" lon="11.626719295736658"><ele>170.16666666666666</ele><time>2026-05-01T12:03:20.999Z</time></trkpt><trkpt lat="44.3589815293003" lon="11.626843691613486"><ele>170.0</ele><time>2026-05-01T12:03:22.999Z</time></trkpt><trkpt lat="44.35900411982275" lon="11.62693900475716"><ele>173.5</ele><time>2026-05-01T12:03:24.999Z</time></trkpt><trkpt lat="44.3590400138882" lon="11.627038098968166"><ele>177.0</ele><time>2026-05-01T12:03:26.999Z</time></trkpt><trkpt lat="44.35905576766347" lon="11.62713312482947"><ele>180.5</ele><time>2026-05-01T12:03:28.999Z</time></trkpt><trkpt lat="44.35909862872553" lon="11.627213910363054"><ele>184.0</ele><time>2026-05-01T12:03:30.999Z</time></trkpt><trkpt lat="44.35914797763264" lon="11.627293391355632"><ele>187.5</ele><time>2026-05-01T12:03:32.999Z</time></trkpt><trkpt lat="44.35920177079301" lon="11.627409435337336"><ele>191.0</ele><time>2026-05-01T12:03:36Z</time></trkpt><trkpt lat="44.359222302215535" lon="11.627496094452061"><ele>191.0</ele><time>2026-05-01T12:03:38Z</time></trkpt><trkpt lat="44.35923914648383" lon="11.627594508569716"><ele>191.0</ele><time>2026-05-01T12:03:40Z</time></trkpt><trkpt lat="44.35922046846825" lon="11.627711510791155"><ele>191.0</ele><time>2026-05-01T12:03:43Z</time></trkpt><trkpt lat="44.3591531322128" lon="11.627753239771648"><ele>191.0</ele><time>2026-05-01T12:03:45Z</time></trkpt><trkpt lat="44.35907994089968" lon="11.627835946195392"><ele>191.0</ele><time>2026-05-01T12:03:49Z</time></trkpt><trkpt lat="44.35901452269144" lon="11.627910856299255"><ele>191.0</ele><time>2026-05-01T12:03:52Z</time></trkpt><trkpt lat="44.35896480612353" lon="11.627969426435318"><ele>191.14285714285714</ele><time>2026-05-01T12:03:55Z</time></trkpt><trkpt lat="44.35890559089291" lon="11.628022268152208"><ele>191.28571428571428</ele><time>2026-05-01T12:03:58Z</time></trkpt><trkpt lat="44.358886870025906" lon="11.628110197021009"><ele>191.42857142857142</ele><time>2026-05-01T12:04:02Z</time></trkpt><trkpt lat="44.35890164411457" lon="11.628213301657759"><ele>191.57142857142856</ele><time>2026-05-01T12:04:06Z</time></trkpt><trkpt lat="44.35891653352005" lon="11.628301714415654"><ele>191.71428571428572</ele><time>2026-05-01T12:04:09Z</time></trkpt><trkpt lat="44.35891534752619" lon="11.628425177577384"><ele>191.85714285714283</ele><time>2026-05-01T12:04:14Z</time></trkpt><trkpt lat="44.35894864386082" lon="11.628512308428732"><ele>192.0</ele><time>2026-05-01T12:04:17Z</time></trkpt><trkpt lat="44.358970042307355" lon="11.62861935218104"><ele>191.0</ele><time>2026-05-01T12:04:20Z</time></trkpt><trkpt lat="44.359077732582946" lon="11.628756116522709"><ele>190.0</ele><time>2026-05-01T12:04:24Z</time></trkpt><trkpt lat="44.35910460564627" lon="11.62885385680962"><ele>189.0</ele><time>2026-05-01T12:04:26Z</time></trkpt><trkpt lat="44.35912711127058" lon="11.628937736461548"><ele>188.0</ele><time>2026-05-01T12:04:28Z</time></trkpt><trkpt lat="44.3591244905742" lon="11.629053158564812"><ele>187.0</ele><time>2026-05-01T12:04:31Z</time></trkpt><trkpt lat="44.35916899655873" lon="11.629156700186766"><ele>187.0</ele><time>2026-05-01T12:05:12.999Z</time></trkpt><trkpt lat="44.35921096549548" lon="11.629238124593241"><ele>187.0</ele><time>2026-05-01T12:05:15.999Z</time></trkpt><trkpt lat="44.359247991877155" lon="11.629321426106598"><ele>187.0</ele><time>2026-05-01T12:05:16.999Z</time></trkpt><trkpt lat="44.35928936650622" lon="11.629438064103526"><ele>187.0</ele><time>2026-05-01T12:05:18.999Z</time></trkpt><trkpt lat="44.35932261757546" lon="11.629550964674422"><ele>187.0</ele><time>2026-05-01T12:05:21.999Z</time></trkpt><trkpt lat="44.35934203492733" lon="11.629657679422698"><ele>187.0</ele><time>2026-05-01T12:05:23.999Z</time></trkpt><trkpt lat="44.35937017586435" lon="11.629783942985053"><ele>183.8</ele><time>2026-05-01T12:05:25.999Z</time></trkpt><trkpt lat="44.35939639662994" lon="11.629939955468917"><ele>180.6</ele><time>2026-05-01T12:05:27.999Z</time></trkpt><trkpt lat="44.35941092877207" lon="11.630089987484046"><ele>177.4</ele><time>2026-05-01T12:05:29.999Z</time></trkpt><trkpt lat="44.3594008271677" lon="11.630181209881217"><ele>174.20000000000002</ele><time>2026-05-01T12:05:30.999Z</time></trkpt><trkpt lat="44.35943900639394" lon="11.630252328430924"><ele>171.0</ele><time>2026-05-01T12:05:31.999Z</time></trkpt><trkpt lat="44.35950110988593" lon="11.63035884022585"><ele>171.0</ele><time>2026-05-01T12:05:33.999Z</time></trkpt><trkpt lat="44.359603028901944" lon="11.630330698606572"><ele>171.0</ele><time>2026-05-01T12:05:35.999Z</time></trkpt><trkpt lat="44.35967782402618" lon="11.630262670667713"><ele>171.0</ele><time>2026-05-01T12:05:37.999Z</time></trkpt><trkpt lat="44.359671644417126" lon="11.630547048046147"><ele>171.0</ele><time>2026-05-01T12:05:42.999Z</time></trkpt><trkpt lat="44.35968241946733" lon="11.630649866119553"><ele>170.8</ele><time>2026-05-01T12:05:43.999Z</time></trkpt><trkpt lat="44.35969784257361" lon="11.630780529315397"><ele>170.60000000000002</ele><time>2026-05-01T12:05:45.999Z</time></trkpt><trkpt lat="44.3597147823079" lon="11.630924794254584"><ele>170.4</ele><time>2026-05-01T12:05:47.999Z</time></trkpt><trkpt lat="44.35973404378673" lon="11.63107041187302"><ele>170.2</ele><time>2026-05-01T12:05:49.999Z</time></trkpt><trkpt lat="44.359789962067765" lon="11.631192494497878"><ele>170.0</ele><time>2026-05-01T12:05:51.999Z</time></trkpt><trkpt lat="44.3598028380338" lon="11.631340211225128"><ele>170.0</ele><time>2026-05-01T12:05:54Z</time></trkpt><trkpt lat="44.35981885882524" lon="11.631494976046946"><ele>170.0</ele><time>2026-05-01T12:05:56Z</time></trkpt><trkpt lat="44.3598340648194" lon="11.631645056342776"><ele>170.0</ele><time>2026-05-01T12:05:58Z</time></trkpt><trkpt lat="44.35984893129933" lon="11.631770668748524"><ele>170.0</ele><time>2026-05-01T12:06:00Z</time></trkpt><trkpt lat="44.359861867534235" lon="11.631890367663427"><ele>170.0</ele><time>2026-05-01T12:06:02Z</time></trkpt><trkpt lat="44.35989164118476" lon="11.632017368962233"><ele>170.0</ele><time>2026-05-01T12:06:04Z</time></trkpt><trkpt lat="44.35992369360196" lon="11.632162854916652"><ele>170.0</ele><time>2026-05-01T12:06:06Z</time></trkpt><trkpt lat="44.35994142991788" lon="11.632292566724717"><ele>170.0</ele><time>2026-05-01T12:06:08Z</time></trkpt><trkpt lat="44.35997484093445" lon="11.632411581621367"><ele>170.0</ele><time>2026-05-01T12:06:10Z</time></trkpt><trkpt lat="44.36000912280968" lon="11.632533718869759"><ele>170.0</ele><time>2026-05-01T12:06:12Z</time></trkpt><trkpt lat="44.360031195310185" lon="11.632678773490564"><ele>170.0</ele><time>2026-05-01T12:06:14Z</time></trkpt><trkpt lat="44.36009763411613" lon="11.632863384152122"><ele>170.0</ele><time>2026-05-01T12:06:17Z</time></trkpt><trkpt lat="44.36011596788371" lon="11.633005133988991"><ele>170.0</ele><time>2026-05-01T12:06:19Z</time></trkpt><trkpt lat="44.36014860830719" lon="11.63313516920364"><ele>170.0</ele><time>2026-05-01T12:06:21Z</time></trkpt><trkpt lat="44.360182541618364" lon="11.633271078260028"><ele>170.0</ele><time>2026-05-01T12:06:23Z</time></trkpt><trkpt lat="44.36021807456077" lon="11.633413394120225"><ele>170.0</ele><time>2026-05-01T12:06:25Z</time></trkpt><trkpt lat="44.360254093476684" lon="11.633557656458617"><ele>170.0</ele><time>2026-05-01T12:06:27Z</time></trkpt><trkpt lat="44.360291997762886" lon="11.633709469980966"><ele>170.0</ele><time>2026-05-01T12:06:29Z</time></trkpt><trkpt lat="44.360330537445485" lon="11.633863810097983"><ele>170.0</ele><time>2026-05-01T12:06:31Z</time></trkpt><trkpt lat="44.3603693032887" lon="11.63395238617991"><ele>169.85714285714286</ele><time>2026-05-01T12:06:32Z</time></trkpt><trkpt lat="44.36037579904718" lon="11.634045063680723"><ele>169.7142857142857</ele><time>2026-05-01T12:06:33Z</time></trkpt><trkpt lat="44.360418529506845" lon="11.634128553190962"><ele>169.57142857142856</ele><time>2026-05-01T12:06:34Z</time></trkpt><trkpt lat="44.36044091747658" lon="11.634227593203661"><ele>169.42857142857144</ele><time>2026-05-01T12:06:35Z</time></trkpt><trkpt lat="44.36046313581249" lon="11.634321850610664"><ele>169.28571428571428</ele><time>2026-05-01T12:06:36Z</time></trkpt><trkpt lat="44.36048772603504" lon="11.634420467705095"><ele>169.14285714285714</ele><time>2026-05-01T12:06:37Z</time></trkpt><trkpt lat="44.36051624006504" lon="11.634524599538285"><ele>169.0</ele><time>2026-05-01T12:06:38Z</time></trkpt><trkpt lat="44.36054044476595" lon="11.634625356527824"><ele>169.0</ele><time>2026-05-01T12:06:38.999Z</time></trkpt><trkpt lat="44.36056160592053" lon="11.63473218563962"><ele>169.0</ele><time>2026-05-01T12:06:39.999Z</time></trkpt><trkpt lat="44.36059483697306" lon="11.634842158450754"><ele>169.0</ele><time>2026-05-01T12:06:40.999Z</time></trkpt><trkpt lat="44.360615253673984" lon="11.634951527484082"><ele>169.0</ele><time>2026-05-01T12:06:41.999Z</time></trkpt><trkpt lat="44.360648018028414" lon="11.635056880809314"><ele>169.0</ele><time>2026-05-01T12:06:42.999Z</time></trkpt><trkpt lat="44.360680001779556" lon="11.635165997777012"><ele>169.0</ele><time>2026-05-01T12:06:43.999Z</time></trkpt><trkpt lat="44.36070423337739" lon="11.63527695900419"><ele>168.16666666666669</ele><time>2026-05-01T12:06:44.999Z</time></trkpt><trkpt lat="44.36073217862161" lon="11.635383878550076"><ele>167.33333333333334</ele><time>2026-05-01T12:06:45.999Z</time></trkpt><trkpt lat="44.36075858351809" lon="11.63548946847037"><ele>166.5</ele><time>2026-05-01T12:06:46.999Z</time></trkpt><trkpt lat="44.3607825318671" lon="11.635598304680851"><ele>165.66666666666666</ele><time>2026-05-01T12:06:47.999Z</time></trkpt><trkpt lat="44.360808804619936" lon="11.635703206100183"><ele>164.83333333333331</ele><time>2026-05-01T12:06:48.999Z</time></trkpt><trkpt lat="44.36083426214235" lon="11.635811707238455"><ele>164.0</ele><time>2026-05-01T12:06:49.999Z</time></trkpt><trkpt lat="44.36086225432759" lon="11.635924844653637"><ele>164.0</ele><time>2026-05-01T12:06:50.999Z</time></trkpt><trkpt lat="44.36089734258335" lon="11.63603131765758"><ele>164.0</ele><time>2026-05-01T12:06:51.999Z</time></trkpt><trkpt lat="44.36092925260633" lon="11.63613441785037"><ele>164.0</ele><time>2026-05-01T12:06:52.999Z</time></trkpt><trkpt lat="44.36095325553376" lon="11.636232641011404"><ele>164.0</ele><time>2026-05-01T12:06:53.999Z</time></trkpt><trkpt lat="44.36098666246357" lon="11.636337797573798"><ele>164.0</ele><time>2026-05-01T12:06:54.999Z</time></trkpt><trkpt lat="44.36103227044451" lon="11.636447975226652"><ele>164.0</ele><time>2026-05-01T12:06:55.999Z</time></trkpt><trkpt lat="44.36099828578831" lon="11.636523987380532"><ele>163.33333333333331</ele><time>2026-05-01T12:06:56.999Z</time></trkpt><trkpt lat="44.36101154364063" lon="11.63663169670675"><ele>162.66666666666666</ele><time>2026-05-01T12:06:57.999Z</time></trkpt><trkpt lat="44.3610435684742" lon="11.636716132892563"><ele>162.0</ele><time>2026-05-01T12:06:58.999Z</time></trkpt><trkpt lat="44.3610948930552" lon="11.636785000645556"><ele>161.33333333333334</ele><time>2026-05-01T12:06:59.999Z</time></trkpt><trkpt lat="44.361159286869565" lon="11.636847383623792"><ele>160.66666666666669</ele><time>2026-05-01T12:07:00.999Z</time></trkpt><trkpt lat="44.36119243002283" lon="11.636939049794913"><ele>160.0</ele><time>2026-05-01T12:07:01.999Z</time></trkpt><trkpt lat="44.36124521178502" lon="11.637033723526866"><ele>158.83333333333334</ele><time>2026-05-01T12:07:02.999Z</time></trkpt><trkpt lat="44.36131212785691" lon="11.63710851914888"><ele>157.66666666666669</ele><time>2026-05-01T12:07:03.999Z</time></trkpt><trkpt lat="44.36136871417321" lon="11.63719853959937"><ele>156.5</ele><time>2026-05-01T12:07:04.999Z</time></trkpt><trkpt lat="44.36142833129633" lon="11.637286929466715"><ele>155.33333333333334</ele><time>2026-05-01T12:07:05.999Z</time></trkpt><trkpt lat="44.36149007552705" lon="11.637382817653203"><ele>154.16666666666666</ele><time>2026-05-01T12:07:06.999Z</time></trkpt><trkpt lat="44.361550200138375" lon="11.63747963392779"><ele>153.0</ele><time>2026-05-01T12:07:07.999Z</time></trkpt><trkpt lat="44.36161287417546" lon="11.637577140945591"><ele>152.8</ele><time>2026-05-01T12:07:08.999Z</time></trkpt><trkpt lat="44.36167564265222" lon="11.637678525540132"><ele>152.60000000000002</ele><time>2026-05-01T12:07:09.999Z</time></trkpt><trkpt lat="44.36174141097758" lon="11.637779001869124"><ele>152.39999999999998</ele><time>2026-05-01T12:07:10.999Z</time></trkpt><trkpt lat="44.36180724537897" lon="11.63787836314971"><ele>152.2</ele><time>2026-05-01T12:07:11.999Z</time></trkpt><trkpt lat="44.361874370821525" lon="11.637980052796502"><ele>152.0</ele><time>2026-05-01T12:07:12.999Z</time></trkpt><trkpt lat="44.361939248832165" lon="11.63808077875714"><ele>151.79999999999998</ele><time>2026-05-01T12:07:13.999Z</time></trkpt><trkpt lat="44.36200674802636" lon="11.638182402027832"><ele>151.6</ele><time>2026-05-01T12:07:14.999Z</time></trkpt><trkpt lat="44.36207339688048" lon="11.638294712586475"><ele>151.39999999999998</ele><time>2026-05-01T12:07:15.999Z</time></trkpt><trkpt lat="44.3621356754026" lon="11.638387061629704"><ele>151.2</ele><time>2026-05-01T12:07:16.999Z</time></trkpt><trkpt lat="44.36220146253749" lon="11.638487813233237"><ele>151.0</ele><time>2026-05-01T12:07:17.999Z</time></trkpt><trkpt lat="44.36227104599677" lon="11.638590920828142"><ele>150.2</ele><time>2026-05-01T12:07:18.999Z</time></trkpt><trkpt lat="44.362337158218864" lon="11.638694304881504"><ele>149.39999999999998</ele><time>2026-05-01T12:07:19.999Z</time></trkpt><trkpt lat="44.36240553621592" lon="11.638791739466845"><ele>148.6</ele><time>2026-05-01T12:07:20.999Z</time></trkpt><trkpt lat="44.36246230158372" lon="11.638906027785456"><ele>147.79999999999998</ele><time>2026-05-01T12:07:21.999Z</time></trkpt><trkpt lat="44.362538884585895" lon="11.638993993697506"><ele>147.0</ele><time>2026-05-01T12:07:22.999Z</time></trkpt><trkpt lat="44.36259290833534" lon="11.63910458079223"><ele>147.0</ele><time>2026-05-01T12:07:23.999Z</time></trkpt><trkpt lat="44.36262519820599" lon="11.639238411040967"><ele>147.0</ele><time>2026-05-01T12:07:24.999Z</time></trkpt><trkpt lat="44.36267789532697" lon="11.639356516168426"><ele>147.0</ele><time>2026-05-01T12:07:25.999Z</time></trkpt><trkpt lat="44.36271945433268" lon="11.639486467012222"><ele>147.0</ele><time>2026-05-01T12:07:26.999Z</time></trkpt><trkpt lat="44.36275133545925" lon="11.639619159987607"><ele>147.0</ele><time>2026-05-01T12:07:27.999Z</time></trkpt><trkpt lat="44.36280978221399" lon="11.639753008592697"><ele>146.6</ele><time>2026-05-01T12:07:28.999Z</time></trkpt><trkpt lat="44.36285013724759" lon="11.639892005566795"><ele>146.2</ele><time>2026-05-01T12:07:29.999Z</time></trkpt><trkpt lat="44.36289138505197" lon="11.640026518530496"><ele>145.8</ele><time>2026-05-01T12:07:30.999Z</time></trkpt><trkpt lat="44.36293372778679" lon="11.640162388153634"><ele>145.4</ele><time>2026-05-01T12:07:31.999Z</time></trkpt><trkpt lat="44.36297010928881" lon="11.640294145562825"><ele>145.0</ele><time>2026-05-01T12:07:32.999Z</time></trkpt><trkpt lat="44.363012897446694" lon="11.640423175443058"><ele>143.2</ele><time>2026-05-01T12:07:33.999Z</time></trkpt><trkpt lat="44.36305570143422" lon="11.640548782988912"><ele>141.4</ele><time>2026-05-01T12:07:34.999Z</time></trkpt><trkpt lat="44.36309605384453" lon="11.640676602161404"><ele>139.6</ele><time>2026-05-01T12:07:35.999Z</time></trkpt><trkpt lat="44.36313605374006" lon="11.640811806372636"><ele>137.8</ele><time>2026-05-01T12:07:36.999Z</time></trkpt><trkpt lat="44.36317622231924" lon="11.640947036004421"><ele>136.0</ele><time>2026-05-01T12:07:37.999Z</time></trkpt><trkpt lat="44.363220516885264" lon="11.641074896881475"><ele>135.4</ele><time>2026-05-01T12:07:38.999Z</time></trkpt><trkpt lat="44.36326298380301" lon="11.641207170125309"><ele>134.8</ele><time>2026-05-01T12:07:39.999Z</time></trkpt><trkpt lat="44.363303193643546" lon="11.641333598097852"><ele>134.20000000000002</ele><time>2026-05-01T12:07:40.999Z</time></trkpt><trkpt lat="44.36332503774873" lon="11.641462289715026"><ele>133.6</ele><time>2026-05-01T12:07:41.999Z</time></trkpt><trkpt lat="44.36337632196883" lon="11.641573950268985"><ele>133.0</ele><time>2026-05-01T12:07:42.999Z</time></trkpt><trkpt lat="44.36340190554624" lon="11.641695667410957"><ele>133.0</ele><time>2026-05-01T12:07:43.999Z</time></trkpt><trkpt lat="44.36343452204705" lon="11.641821381253106"><ele>133.0</ele><time>2026-05-01T12:07:44.999Z</time></trkpt><trkpt lat="44.363467999634736" lon="11.641951535918244"><ele>133.0</ele><time>2026-05-01T12:07:45.999Z</time></trkpt><trkpt lat="44.363498712402446" lon="11.642084375082739"><ele>133.0</ele><time>2026-05-01T12:07:46.999Z</time></trkpt><trkpt lat="44.36352951183213" lon="11.64221531259066"><ele>133.0</ele><time>2026-05-01T12:07:48Z</time></trkpt><trkpt lat="44.36355209821558" lon="11.64236040576335"><ele>132.20000000000002</ele><time>2026-05-01T12:07:49Z</time></trkpt><trkpt lat="44.36357909076826" lon="11.642498473362126"><ele>131.4</ele><time>2026-05-01T12:07:50Z</time></trkpt><trkpt lat="44.363605935419415" lon="11.642635777443864"><ele>130.60000000000002</ele><time>2026-05-01T12:07:51Z</time></trkpt><trkpt lat="44.36363198464702" lon="11.642774721327246"><ele>129.8</ele><time>2026-05-01T12:07:52Z</time></trkpt><trkpt lat="44.36365902029387" lon="11.642910808103585"><ele>129.0</ele><time>2026-05-01T12:07:53Z</time></trkpt><trkpt lat="44.36368160228936" lon="11.643047255572466"><ele>128.6</ele><time>2026-05-01T12:07:54Z</time></trkpt><trkpt lat="44.36370812576905" lon="11.643183845158216"><ele>128.2</ele><time>2026-05-01T12:07:55Z</time></trkpt><trkpt lat="44.36373048485173" lon="11.643320236146595"><ele>127.79999999999998</ele><time>2026-05-01T12:07:56Z</time></trkpt><trkpt lat="44.36375845435518" lon="11.64345661615759"><ele>127.39999999999999</ele><time>2026-05-01T12:07:57Z</time></trkpt><trkpt lat="44.36378527278624" lon="11.643590262936653"><ele>127.0</ele><time>2026-05-01T12:07:58Z</time></trkpt><trkpt lat="44.363810320795096" lon="11.643728945476807"><ele>127.0</ele><time>2026-05-01T12:07:59Z</time></trkpt><trkpt lat="44.36383253331473" lon="11.643865868483577"><ele>126.99999999999999</ele><time>2026-05-01T12:08:00Z</time></trkpt><trkpt lat="44.3638569065397" lon="11.644001870468689"><ele>126.99999999999999</ele><time>2026-05-01T12:08:01Z</time></trkpt><trkpt lat="44.36388299127888" lon="11.644137860134684"><ele>127.0</ele><time>2026-05-01T12:08:02Z</time></trkpt><trkpt lat="44.36390775733996" lon="11.644275621168006"><ele>127.0</ele><time>2026-05-01T12:08:03Z</time></trkpt><trkpt lat="44.363933133336" lon="11.644412732418061"><ele>127.0</ele><time>2026-05-01T12:08:04Z</time></trkpt><trkpt lat="44.363960757702316" lon="11.644550257516258"><ele>126.99999999999999</ele><time>2026-05-01T12:08:05Z</time></trkpt><trkpt lat="44.36398674332066" lon="11.644691037811683"><ele>126.99999999999999</ele><time>2026-05-01T12:08:06Z</time></trkpt><trkpt lat="44.3640140754654" lon="11.644832618975558"><ele>127.0</ele><time>2026-05-01T12:08:07Z</time></trkpt><trkpt lat="44.36404706966412" lon="11.644969618741612"><ele>127.0</ele><time>2026-05-01T12:08:08Z</time></trkpt><trkpt lat="44.36408282289921" lon="11.645102290606426"><ele>127.0</ele><time>2026-05-01T12:08:09Z</time></trkpt><trkpt lat="44.36413003060448" lon="11.645233689830716"><ele>126.99999999999999</ele><time>2026-05-01T12:08:10Z</time></trkpt><trkpt lat="44.36418212977326" lon="11.645370319498994"><ele>126.99999999999999</ele><time>2026-05-01T12:08:11Z</time></trkpt><trkpt lat="44.36425066300596" lon="11.645481784502033"><ele>127.0</ele><time>2026-05-01T12:08:12Z</time></trkpt><trkpt lat="44.36431016402676" lon="11.645600753696888"><ele>127.0</ele><time>2026-05-01T12:08:13Z</time></trkpt><trkpt lat="44.364377789097404" lon="11.645718511440537"><ele>125.8</ele><time>2026-05-01T12:08:14Z</time></trkpt><trkpt lat="44.364451665027694" lon="11.645826678467342"><ele>124.6</ele><time>2026-05-01T12:08:15Z</time></trkpt><trkpt lat="44.364524872751744" lon="11.64593130042371"><ele>123.39999999999999</ele><time>2026-05-01T12:08:16Z</time></trkpt><trkpt lat="44.36459759496157" lon="11.64604475914842"><ele>122.19999999999999</ele><time>2026-05-01T12:08:17Z</time></trkpt><trkpt lat="44.36467422759177" lon="11.646148087055678"><ele>121.0</ele><time>2026-05-01T12:08:18Z</time></trkpt><trkpt lat="44.36475563769974" lon="11.646250444294322"><ele>119.6</ele><time>2026-05-01T12:08:19Z</time></trkpt><trkpt lat="44.3648252076655" lon="11.6463536649188"><ele>118.19999999999999</ele><time>2026-05-01T12:08:20Z</time></trkpt><trkpt lat="44.36490512029618" lon="11.646454422213774"><ele>116.80000000000001</ele><time>2026-05-01T12:08:21Z</time></trkpt><trkpt lat="44.364981757315036" lon="11.646558424111978"><ele>115.4</ele><time>2026-05-01T12:08:22Z</time></trkpt><trkpt lat="44.36505581465848" lon="11.64666117837719"><ele>114.0</ele><time>2026-05-01T12:08:23Z</time></trkpt><trkpt lat="44.36512995297622" lon="11.646766196504242"><ele>114.0</ele><time>2026-05-01T12:08:24Z</time></trkpt><trkpt lat="44.36520761011181" lon="11.646865420382131"><ele>114.0</ele><time>2026-05-01T12:08:25Z</time></trkpt><trkpt lat="44.36527906677327" lon="11.646965196536957"><ele>114.0</ele><time>2026-05-01T12:08:26Z</time></trkpt><trkpt lat="44.365354388572044" lon="11.647067415019993"><ele>114.0</ele><time>2026-05-01T12:08:27Z</time></trkpt><trkpt lat="44.365424978000576" lon="11.647162122821031"><ele>114.0</ele><time>2026-05-01T12:08:28Z</time></trkpt><trkpt lat="44.365496263678466" lon="11.647254925325425"><ele>112.80000000000001</ele><time>2026-05-01T12:08:29Z</time></trkpt><trkpt lat="44.36556727411284" lon="11.647346324081724"><ele>111.60000000000001</ele><time>2026-05-01T12:08:30Z</time></trkpt><trkpt lat="44.36563136804021" lon="11.647440770617443"><ele>110.4</ele><time>2026-05-01T12:08:31Z</time></trkpt><trkpt lat="44.365699947990656" lon="11.647525133011767"><ele>109.2</ele><time>2026-05-01T12:08:32Z</time></trkpt><trkpt lat="44.36576372829455" lon="11.647614948437774"><ele>108.0</ele><time>2026-05-01T12:08:33Z</time></trkpt><trkpt lat="44.36582762237693" lon="11.647706568391898"><ele>108.0</ele><time>2026-05-01T12:08:34Z</time></trkpt><trkpt lat="44.36589276300962" lon="11.647789486761807"><ele>108.0</ele><time>2026-05-01T12:08:35Z</time></trkpt><trkpt lat="44.36595830148976" lon="11.647876895160573"><ele>108.0</ele><time>2026-05-01T12:08:36Z</time></trkpt><trkpt lat="44.36602331364144" lon="11.647965415200565"><ele>108.0</ele><time>2026-05-01T12:08:37Z</time></trkpt><trkpt lat="44.36608839276643" lon="11.648054212725208"><ele>108.0</ele><time>2026-05-01T12:08:38Z</time></trkpt><trkpt lat="44.36615037852517" lon="11.648138127127062"><ele>108.0</ele><time>2026-05-01T12:08:39Z</time></trkpt><trkpt lat="44.3662121164202" lon="11.648220071220111"><ele>108.0</ele><time>2026-05-01T12:08:40Z</time></trkpt><trkpt lat="44.36626519257823" lon="11.648296189686702"><ele>108.0</ele><time>2026-05-01T12:08:41Z</time></trkpt><trkpt lat="44.366316049518346" lon="11.648369454345337"><ele>108.0</ele><time>2026-05-01T12:08:42Z</time></trkpt><trkpt lat="44.36636979144008" lon="11.648446183957187"><ele>108.0</ele><time>2026-05-01T12:08:43Z</time></trkpt><trkpt lat="44.366422071587465" lon="11.648520581709274"><ele>108.0</ele><time>2026-05-01T12:08:44Z</time></trkpt><trkpt lat="44.36647372008884" lon="11.648599042491723"><ele>108.0</ele><time>2026-05-01T12:08:45Z</time></trkpt><trkpt lat="44.36652699504855" lon="11.648675975292994"><ele>107.83333333333333</ele><time>2026-05-01T12:08:46Z</time></trkpt><trkpt lat="44.36658072841631" lon="11.648742643753804"><ele>107.66666666666666</ele><time>2026-05-01T12:08:47Z</time></trkpt><trkpt lat="44.36662765635696" lon="11.648806760736392"><ele>107.5</ele><time>2026-05-01T12:08:48Z</time></trkpt><trkpt lat="44.36667928933593" lon="11.64893291720907"><ele>107.33333333333333</ele><time>2026-05-01T12:08:50Z</time></trkpt><trkpt lat="44.36661060071295" lon="11.64907997531836"><ele>107.16666666666666</ele><time>2026-05-01T12:08:52Z</time></trkpt><trkpt lat="44.36657011186988" lon="11.649163989278025"><ele>107.0</ele><time>2026-05-01T12:08:53Z</time></trkpt><trkpt lat="44.36648203944314" lon="11.649282822825427"><ele>106.99999999999999</ele><time>2026-05-01T12:08:55Z</time></trkpt><trkpt lat="44.366425900673136" lon="11.649336711951547"><ele>107.0</ele><time>2026-05-01T12:08:56Z</time></trkpt><trkpt lat="44.366384710697865" lon="11.64942760319301"><ele>107.0</ele><time>2026-05-01T12:08:57Z</time></trkpt><trkpt lat="44.36633939001733" lon="11.649524718841958"><ele>107.0</ele><time>2026-05-01T12:08:58Z</time></trkpt><trkpt lat="44.36629097067061" lon="11.64962589573742"><ele>106.99999999999999</ele><time>2026-05-01T12:08:59Z</time></trkpt><trkpt lat="44.366238650108734" lon="11.6497346828648"><ele>107.0</ele><time>2026-05-01T12:09:00Z</time></trkpt><trkpt lat="44.36618112650498" lon="11.649849655733725"><ele>106.0</ele><time>2026-05-01T12:09:01Z</time></trkpt><trkpt lat="44.36611484691291" lon="11.64997782676094"><ele>105.0</ele><time>2026-05-01T12:09:02Z</time></trkpt><trkpt lat="44.36604316475794" lon="11.650111146692353"><ele>104.0</ele><time>2026-05-01T12:09:03Z</time></trkpt><trkpt lat="44.36596195205754" lon="11.650253433110368"><ele>103.0</ele><time>2026-05-01T12:09:04Z</time></trkpt><trkpt lat="44.36587792357821" lon="11.650392148315492"><ele>99.25</ele><time>2026-05-01T12:09:05Z</time></trkpt><trkpt lat="44.36578703708074" lon="11.650533453141525"><ele>95.5</ele><time>2026-05-01T12:09:06Z</time></trkpt><trkpt lat="44.36569193484037" lon="11.650676015817782"><ele>91.75</ele><time>2026-05-01T12:09:07Z</time></trkpt><trkpt lat="44.36559380194257" lon="11.650822770165492"><ele>88.0</ele><time>2026-05-01T12:09:08Z</time></trkpt><trkpt lat="44.36550359838787" lon="11.65095528636831"><ele>87.75</ele><time>2026-05-01T12:09:09Z</time></trkpt><trkpt lat="44.36541919178143" lon="11.651077289272152"><ele>87.5</ele><time>2026-05-01T12:09:10Z</time></trkpt><trkpt lat="44.365328573904804" lon="11.651198703095622"><ele>87.25</ele><time>2026-05-01T12:09:11Z</time></trkpt><trkpt lat="44.3652413826971" lon="11.651332027619052"><ele>87.0</ele><time>2026-05-01T12:09:12Z</time></trkpt><trkpt lat="44.36515440702196" lon="11.651426497471663"><ele>86.66666666666667</ele><time>2026-05-01T12:09:13Z</time></trkpt><trkpt lat="44.365079185142456" lon="11.651515089474435"><ele>86.33333333333333</ele><time>2026-05-01T12:09:14Z</time></trkpt><trkpt lat="44.36501135573258" lon="11.651578931488618"><ele>86.0</ele><time>2026-05-01T12:09:15Z</time></trkpt><trkpt lat="44.36494844969646" lon="11.651632777833532"><ele>85.66666666666666</ele><time>2026-05-01T12:09:16Z</time></trkpt><trkpt lat="44.36488871464561" lon="11.651680988713576"><ele>85.33333333333333</ele><time>2026-05-01T12:09:17Z</time></trkpt><trkpt lat="44.36479598246397" lon="11.651737811451703"><ele>85.0</ele><time>2026-05-01T12:09:19Z</time></trkpt><trkpt lat="44.364692346411005" lon="11.651690680986816"><ele>84.75</ele><time>2026-05-01T12:09:21Z</time></trkpt><trkpt lat="44.36460083880335" lon="11.651605610302006"><ele>84.5</ele><time>2026-05-01T12:09:23Z</time></trkpt><trkpt lat="44.36450651805675" lon="11.651525501895767"><ele>84.25</ele><time>2026-05-01T12:09:25Z</time></trkpt><trkpt lat="44.36440918218164" lon="11.651440128449664"><ele>84.0</ele><time>2026-05-01T12:09:27Z</time></trkpt><trkpt lat="44.36431425219756" lon="11.651350202166107"><ele>84.0</ele><time>2026-05-01T12:09:29Z</time></trkpt><trkpt lat="44.36422369042692" lon="11.651254142460084"><ele>84.0</ele><time>2026-05-01T12:09:31Z</time></trkpt><trkpt lat="44.36413764613578" lon="11.651149691868921"><ele>84.0</ele><time>2026-05-01T12:09:33Z</time></trkpt><trkpt lat="44.36404894665675" lon="11.65104729001564"><ele>84.0</ele><time>2026-05-01T12:09:35Z</time></trkpt><trkpt lat="44.36396227745175" lon="11.650940957813923"><ele>84.25</ele><time>2026-05-01T12:09:37Z</time></trkpt><trkpt lat="44.36387920294709" lon="11.650826364982464"><ele>84.5</ele><time>2026-05-01T12:09:38.999Z</time></trkpt><trkpt lat="44.3637972794195" lon="11.65070535662596"><ele>84.75</ele><time>2026-05-01T12:09:40.999Z</time></trkpt><trkpt lat="44.36371439332229" lon="11.650580488508556"><ele>85.0</ele><time>2026-05-01T12:09:42.999Z</time></trkpt><trkpt lat="44.36363686209121" lon="11.650440050831389"><ele>84.71428571428572</ele><time>2026-05-01T12:09:44.999Z</time></trkpt><trkpt lat="44.363597455371824" lon="11.650370714780358"><ele>84.42857142857142</ele><time>2026-05-01T12:09:45.999Z</time></trkpt><trkpt lat="44.363555682478484" lon="11.650296050303032"><ele>84.14285714285714</ele><time>2026-05-01T12:09:46.999Z</time></trkpt><trkpt lat="44.363514835028944" lon="11.65022584961651"><ele>83.85714285714286</ele><time>2026-05-01T12:09:47.999Z</time></trkpt><trkpt lat="44.36347553031832" lon="11.650151873079773"><ele>83.57142857142858</ele><time>2026-05-01T12:09:48.999Z</time></trkpt><trkpt lat="44.363435245901535" lon="11.65007562539742"><ele>83.28571428571428</ele><time>2026-05-01T12:09:49.999Z</time></trkpt><trkpt lat="44.36339482811125" lon="11.649995380994655"><ele>83.0</ele><time>2026-05-01T12:09:50.999Z</time></trkpt><trkpt lat="44.36335520676421" lon="11.649925133454518"><ele>83.0</ele><time>2026-05-01T12:09:51.999Z</time></trkpt><trkpt lat="44.363316792542406" lon="11.649849010795498"><ele>83.0</ele><time>2026-05-01T12:09:52.999Z</time></trkpt><trkpt lat="44.36327678679018" lon="11.649774756531942"><ele>83.0</ele><time>2026-05-01T12:09:54Z</time></trkpt><trkpt lat="44.363238288117564" lon="11.649700524065192"><ele>83.0</ele><time>2026-05-01T12:09:55Z</time></trkpt><trkpt lat="44.36319934587035" lon="11.649628147817827"><ele>83.0</ele><time>2026-05-01T12:09:56Z</time></trkpt><trkpt lat="44.363128853593246" lon="11.649481169222147"><ele>83.0</ele><time>2026-05-01T12:09:58Z</time></trkpt><trkpt lat="44.363088489805" lon="11.649412583894822"><ele>82.25</ele><time>2026-05-01T12:09:59Z</time></trkpt><trkpt lat="44.363015990744984" lon="11.649274031007522"><ele>81.5</ele><time>2026-05-01T12:10:01Z</time></trkpt><trkpt lat="44.362940455260635" lon="11.649137998127163"><ele>80.75</ele><time>2026-05-01T12:10:03Z</time></trkpt><trkpt lat="44.36286527383418" lon="11.648996494848877"><ele>80.0</ele><time>2026-05-01T12:10:05Z</time></trkpt><trkpt lat="44.362789458749965" lon="11.648859110897254"><ele>80.0</ele><time>2026-05-01T12:10:07Z</time></trkpt><trkpt lat="44.36271717225892" lon="11.648718054781847"><ele>80.0</ele><time>2026-05-01T12:10:09Z</time></trkpt><trkpt lat="44.362680105403726" lon="11.648645906518812"><ele>80.0</ele><time>2026-05-01T12:10:10Z</time></trkpt><trkpt lat="44.362604169261715" lon="11.648510961675514"><ele>80.0</ele><time>2026-05-01T12:10:12Z</time></trkpt><trkpt lat="44.362540000069174" lon="11.64836987061304"><ele>80.0</ele><time>2026-05-01T12:10:14Z</time></trkpt><trkpt lat="44.36250199483279" lon="11.648299337918422"><ele>81.25</ele><time>2026-05-01T12:10:15Z</time></trkpt><trkpt lat="44.36243086380327" lon="11.648158216200846"><ele>82.5</ele><time>2026-05-01T12:10:17Z</time></trkpt><trkpt lat="44.36236076500924" lon="11.648022373263265"><ele>83.75</ele><time>2026-05-01T12:10:19Z</time></trkpt><trkpt lat="44.362293052683114" lon="11.647888681025815"><ele>85.0</ele><time>2026-05-01T12:10:21Z</time></trkpt><trkpt lat="44.362227937942045" lon="11.64774828080965"><ele>84.5</ele><time>2026-05-01T12:10:23Z</time></trkpt><trkpt lat="44.36215645510248" lon="11.647616459189628"><ele>84.0</ele><time>2026-05-01T12:10:25Z</time></trkpt><trkpt lat="44.3620879911776" lon="11.64748313554078"><ele>83.5</ele><time>2026-05-01T12:10:27Z</time></trkpt><trkpt lat="44.36201575082671" lon="11.647345883995373"><ele>83.0</ele><time>2026-05-01T12:10:29Z</time></trkpt><trkpt lat="44.36194365426563" lon="11.647210645346531"><ele>83.0</ele><time>2026-05-01T12:10:31Z</time></trkpt><trkpt lat="44.36187483932406" lon="11.647077380952378"><ele>83.0</ele><time>2026-05-01T12:10:33Z</time></trkpt><trkpt lat="44.36181020888193" lon="11.646940257236867"><ele>83.0</ele><time>2026-05-01T12:10:35Z</time></trkpt><trkpt lat="44.36174236894069" lon="11.646807346670036"><ele>83.0</ele><time>2026-05-01T12:10:37Z</time></trkpt><trkpt lat="44.3616734216193" lon="11.64667737067158"><ele>83.2</ele><time>2026-05-01T12:10:39Z</time></trkpt><trkpt lat="44.36160584643185" lon="11.646550033289557"><ele>83.4</ele><time>2026-05-01T12:10:41Z</time></trkpt><trkpt lat="44.36154733945981" lon="11.646427499633939"><ele>83.60000000000001</ele><time>2026-05-01T12:10:43Z</time></trkpt><trkpt lat="44.3614836472882" lon="11.646298626064544"><ele>83.80000000000001</ele><time>2026-05-01T12:10:45Z</time></trkpt><trkpt lat="44.36141113084561" lon="11.646173416282375"><ele>84.0</ele><time>2026-05-01T12:10:47Z</time></trkpt><trkpt lat="44.361343316890725" lon="11.64603845214403"><ele>84.0</ele><time>2026-05-01T12:10:49Z</time></trkpt><trkpt lat="44.361284899691114" lon="11.645907859942014"><ele>84.0</ele><time>2026-05-01T12:10:51Z</time></trkpt><trkpt lat="44.36121001200981" lon="11.645776507103829"><ele>84.0</ele><time>2026-05-01T12:10:53Z</time></trkpt><trkpt lat="44.36114058770683" lon="11.645640477299661"><ele>84.0</ele><time>2026-05-01T12:10:55Z</time></trkpt><trkpt lat="44.36110637027655" lon="11.645566189088013"><ele>84.0</ele><time>2026-05-01T12:10:56Z</time></trkpt><trkpt lat="44.361035482237384" lon="11.64543098896241"><ele>84.0</ele><time>2026-05-01T12:10:58Z</time></trkpt><trkpt lat="44.36096915902531" lon="11.645297261372853"><ele>84.0</ele><time>2026-05-01T12:11:00Z</time></trkpt><trkpt lat="44.360892871938724" lon="11.645166297357003"><ele>84.0</ele><time>2026-05-01T12:11:02Z</time></trkpt><trkpt lat="44.360823528519276" lon="11.645039259392128"><ele>84.0</ele><time>2026-05-01T12:11:04Z</time></trkpt><trkpt lat="44.36075465314434" lon="11.644910061496573"><ele>84.2</ele><time>2026-05-01T12:11:06Z</time></trkpt><trkpt lat="44.36068290059345" lon="11.644781837495032"><ele>84.4</ele><time>2026-05-01T12:11:08Z</time></trkpt><trkpt lat="44.36061935159761" lon="11.644653866846332"><ele>84.6</ele><time>2026-05-01T12:11:10Z</time></trkpt><trkpt lat="44.36057057845823" lon="11.64451839385632"><ele>84.8</ele><time>2026-05-01T12:11:12Z</time></trkpt><trkpt lat="44.36052470033567" lon="11.644428828035519"><ele>85.0</ele><time>2026-05-01T12:11:14Z</time></trkpt><trkpt lat="44.360395502833896" lon="11.64455958085628"><ele>84.71428571428572</ele><time>2026-05-01T12:11:15Z</time></trkpt><trkpt lat="44.36035046469281" lon="11.644631110165118"><ele>84.42857142857142</ele><time>2026-05-01T12:11:16Z</time></trkpt><trkpt lat="44.36030631148364" lon="11.644708376977915"><ele>84.14285714285714</ele><time>2026-05-01T12:11:17Z</time></trkpt><trkpt lat="44.36026084812155" lon="11.644782884830008"><ele>83.85714285714286</ele><time>2026-05-01T12:11:18Z</time></trkpt><trkpt lat="44.360209757964924" lon="11.644860080350849"><ele>83.57142857142858</ele><time>2026-05-01T12:11:19Z</time></trkpt><trkpt lat="44.36015844178786" lon="11.644935960732727"><ele>83.28571428571428</ele><time>2026-05-01T12:11:20Z</time></trkpt><trkpt lat="44.36010999525615" lon="11.645009534480936"><ele>83.0</ele><time>2026-05-01T12:11:21Z</time></trkpt><trkpt lat="44.36006505959063" lon="11.645079532077837"><ele>83.0</ele><time>2026-05-01T12:11:22Z</time></trkpt><trkpt lat="44.36002023178297" lon="11.64514541084281"><ele>83.0</ele><time>2026-05-01T12:11:23Z</time></trkpt><trkpt lat="44.35997688277348" lon="11.645209420145015"><ele>83.0</ele><time>2026-05-01T12:11:24Z</time></trkpt><trkpt lat="44.3599023404231" lon="11.64533345695761"><ele>83.0</ele><time>2026-05-01T12:11:26Z</time></trkpt><trkpt lat="44.359826918040405" lon="11.645449917800866"><ele>83.0</ele><time>2026-05-01T12:11:28Z</time></trkpt><trkpt lat="44.359761312415515" lon="11.645561641052275"><ele>84.4</ele><time>2026-05-01T12:11:30Z</time></trkpt><trkpt lat="44.35968418566165" lon="11.645651588833354"><ele>85.80000000000001</ele><time>2026-05-01T12:11:32Z</time></trkpt><trkpt lat="44.35961679760418" lon="11.64575716693449"><ele>87.2</ele><time>2026-05-01T12:11:34Z</time></trkpt><trkpt lat="44.359550851528226" lon="11.645857156012873"><ele>88.6</ele><time>2026-05-01T12:11:36Z</time></trkpt><trkpt lat="44.359500908288645" lon="11.645959016166495"><ele>90.0</ele><time>2026-05-01T12:11:38Z</time></trkpt><trkpt lat="44.359459258302394" lon="11.646039726541225"><ele>90.16666666666667</ele><time>2026-05-01T12:11:40Z</time></trkpt><trkpt lat="44.3594057725396" lon="11.646130378013032"><ele>90.33333333333333</ele><time>2026-05-01T12:11:43Z</time></trkpt><trkpt lat="44.35936593641327" lon="11.64620871324125"><ele>90.5</ele><time>2026-05-01T12:11:46Z</time></trkpt><trkpt lat="44.359328555762076" lon="11.646296969654816"><ele>90.66666666666666</ele><time>2026-05-01T12:11:49Z</time></trkpt><trkpt lat="44.35929591164371" lon="11.646406162413"><ele>90.83333333333333</ele><time>2026-05-01T12:11:52Z</time></trkpt><trkpt lat="44.359252282765375" lon="11.646510219368352"><ele>91.0</ele><time>2026-05-01T12:11:55Z</time></trkpt><trkpt lat="44.359220623612146" lon="11.646623090438887"><ele>91.0</ele><time>2026-05-01T12:11:58Z</time></trkpt><trkpt lat="44.35920180544822" lon="11.64673602735679"><ele>91.0</ele><time>2026-05-01T12:12:01Z</time></trkpt><trkpt lat="44.35918187394188" lon="11.646849379996237"><ele>91.0</ele><time>2026-05-01T12:12:04Z</time></trkpt><trkpt lat="44.35917998452732" lon="11.64697406529433"><ele>91.0</ele><time>2026-05-01T12:12:07Z</time></trkpt><trkpt lat="44.35917708726272" lon="11.647100197269175"><ele>91.0</ele><time>2026-05-01T12:12:10Z</time></trkpt><trkpt lat="44.35917210144603" lon="11.647188635699425"><ele>91.0</ele><time>2026-05-01T12:12:12Z</time></trkpt><trkpt lat="44.359146621368566" lon="11.647274450574093"><ele>90.85714285714286</ele><time>2026-05-01T12:12:14Z</time></trkpt><trkpt lat="44.35912056168298" lon="11.647362058389149"><ele>90.71428571428572</ele><time>2026-05-01T12:12:16Z</time></trkpt><trkpt lat="44.35909055879753" lon="11.647449414860635"><ele>90.57142857142857</ele><time>2026-05-01T12:12:18Z</time></trkpt><trkpt lat="44.3590606213488" lon="11.647540859175168"><ele>90.42857142857143</ele><time>2026-05-01T12:12:20Z</time></trkpt><trkpt lat="44.35903792144532" lon="11.647627188184597"><ele>90.28571428571429</ele><time>2026-05-01T12:12:22Z</time></trkpt><trkpt lat="44.35903758884424" lon="11.647717594770253"><ele>90.14285714285714</ele><time>2026-05-01T12:12:24Z</time></trkpt><trkpt lat="44.35904515955064" lon="11.647840462698019"><ele>90.0</ele><time>2026-05-01T12:12:27Z</time></trkpt><trkpt lat="44.359084534627065" lon="11.647951923980154"><ele>90.66666666666667</ele><time>2026-05-01T12:12:30Z</time></trkpt><trkpt lat="44.359128355806966" lon="11.648046196395176"><ele>91.33333333333333</ele><time>2026-05-01T12:12:33Z</time></trkpt><trkpt lat="44.35917119957441" lon="11.64814053334829"><ele>92.0</ele><time>2026-05-01T12:12:36Z</time></trkpt><trkpt lat="44.35921694196211" lon="11.648224683986403"><ele>92.66666666666666</ele><time>2026-05-01T12:12:39Z</time></trkpt><trkpt lat="44.35925791941348" lon="11.648311193971411"><ele>93.33333333333333</ele><time>2026-05-01T12:12:42Z</time></trkpt><trkpt lat="44.35930190669406" lon="11.64840637389791"><ele>94.0</ele><time>2026-05-01T12:12:45Z</time></trkpt><trkpt lat="44.359349162889124" lon="11.648486474006454"><ele>94.0</ele><time>2026-05-01T12:12:48Z</time></trkpt><trkpt lat="44.359393151024584" lon="11.648565727357191"><ele>94.0</ele><time>2026-05-01T12:12:51Z</time></trkpt><trkpt lat="44.359428324797776" lon="11.64864014453727"><ele>94.0</ele><time>2026-05-01T12:12:54Z</time></trkpt><trkpt lat="44.3594613194263" lon="11.64874014693828"><ele>94.0</ele><time>2026-05-01T12:12:58Z</time></trkpt><trkpt lat="44.35949058341251" lon="11.648830927110518"><ele>94.0</ele><time>2026-05-01T12:13:02Z</time></trkpt><trkpt lat="44.35951592359908" lon="11.648916193805757"><ele>94.0</ele><time>2026-05-01T12:13:06Z</time></trkpt><trkpt lat="44.359518190410746" lon="11.649007979263317"><ele>94.0</ele><time>2026-05-01T12:13:10Z</time></trkpt><trkpt lat="44.359537313797304" lon="11.64909264947413"><ele>95.14285714285714</ele><time>2026-05-01T12:13:14Z</time></trkpt><trkpt lat="44.3595510238318" lon="11.649197909315653"><ele>96.28571428571428</ele><time>2026-05-01T12:13:19Z</time></trkpt><trkpt lat="44.359568097953755" lon="11.649297466778563"><ele>97.42857142857143</ele><time>2026-05-01T12:13:24Z</time></trkpt><trkpt lat="44.35955689565814" lon="11.649388385066679"><ele>98.57142857142857</ele><time>2026-05-01T12:13:29Z</time></trkpt><trkpt lat="44.35954172700738" lon="11.649489781143808"><ele>99.71428571428572</ele><time>2026-05-01T12:13:35Z</time></trkpt><trkpt lat="44.3595221051726" lon="11.649579480775634"><ele>100.85714285714286</ele><time>2026-05-01T12:13:41Z</time></trkpt><trkpt lat="44.359502384720884" lon="11.649671939237026"><ele>102.0</ele><time>2026-05-01T12:13:47Z</time></trkpt><trkpt lat="44.359498109707616" lon="11.649765203472917"><ele>103.71428571428572</ele><time>2026-05-01T12:13:53Z</time></trkpt><trkpt lat="44.35948887707853" lon="11.649858361140751"><ele>105.42857142857143</ele><time>2026-05-01T12:13:58.999Z</time></trkpt><trkpt lat="44.35947736847343" lon="11.649951539188447"><ele>107.14285714285714</ele><time>2026-05-01T12:14:04.999Z</time></trkpt><trkpt lat="44.35943799801539" lon="11.650025388192152"><ele>108.85714285714286</ele><time>2026-05-01T12:14:10Z</time></trkpt><trkpt lat="44.35942647007751" lon="11.650112397743024"><ele>110.57142857142856</ele><time>2026-05-01T12:14:16Z</time></trkpt><trkpt lat="44.35943339514511" lon="11.650204360745876"><ele>112.28571428571428</ele><time>2026-05-01T12:14:22Z</time></trkpt><trkpt lat="44.359377831014235" lon="11.650273486187022"><ele>114.0</ele><time>2026-05-01T12:14:27Z</time></trkpt><trkpt lat="44.3593844639126" lon="11.650374173288668"><ele>114.42857142857142</ele><time>2026-05-01T12:14:33Z</time></trkpt><trkpt lat="44.35934538073553" lon="11.650448597098144"><ele>114.85714285714285</ele><time>2026-05-01T12:14:39Z</time></trkpt><trkpt lat="44.35933323748301" lon="11.650548609275138"><ele>115.28571428571428</ele><time>2026-05-01T12:14:45Z</time></trkpt><trkpt lat="44.35932853780915" lon="11.650649954791266"><ele>115.71428571428572</ele><time>2026-05-01T12:14:51Z</time></trkpt><trkpt lat="44.35932436897529" lon="11.650743770049354"><ele>116.14285714285715</ele><time>2026-05-01T12:14:57Z</time></trkpt><trkpt lat="44.35931420913239" lon="11.650839106200348"><ele>116.57142857142858</ele><time>2026-05-01T12:15:02Z</time></trkpt><trkpt lat="44.35930449379517" lon="11.650932974205782"><ele>117.0</ele><time>2026-05-01T12:15:07Z</time></trkpt><trkpt lat="44.35932673984777" lon="11.651036079589408"><ele>116.33333333333333</ele><time>2026-05-01T12:15:12Z</time></trkpt><trkpt lat="44.35931374220743" lon="11.651132051587277"><ele>115.66666666666666</ele><time>2026-05-01T12:15:16Z</time></trkpt><trkpt lat="44.35927514768303" lon="11.651225894905961"><ele>115.0</ele><time>2026-05-01T12:15:20Z</time></trkpt><trkpt lat="44.35924509443453" lon="11.651335353975128"><ele>114.33333333333333</ele><time>2026-05-01T12:15:24Z</time></trkpt><trkpt lat="44.359200577844035" lon="11.651439093848083"><ele>113.66666666666666</ele><time>2026-05-01T12:15:27Z</time></trkpt><trkpt lat="44.35913904931062" lon="11.651537758719085"><ele>113.0</ele><time>2026-05-01T12:15:30Z</time></trkpt><trkpt lat="44.359094475200784" lon="11.651624624571932"><ele>112.99999999999999</ele><time>2026-05-01T12:15:32Z</time></trkpt><trkpt lat="44.359039056980706" lon="11.651728021764264"><ele>113.0</ele><time>2026-05-01T12:15:34Z</time></trkpt><trkpt lat="44.35896445492973" lon="11.651845098384047"><ele>113.0</ele><time>2026-05-01T12:15:36Z</time></trkpt><trkpt lat="44.35892392047526" lon="11.651913873525586"><ele>113.0</ele><time>2026-05-01T12:15:37Z</time></trkpt><trkpt lat="44.358881183277916" lon="11.651994452969767"><ele>112.99999999999999</ele><time>2026-05-01T12:15:38Z</time></trkpt><trkpt lat="44.35883782564192" lon="11.652078209149101"><ele>113.0</ele><time>2026-05-01T12:15:39Z</time></trkpt><trkpt lat="44.358798857363325" lon="11.652158368546164"><ele>113.16666666666666</ele><time>2026-05-01T12:15:40Z</time></trkpt><trkpt lat="44.35878006450562" lon="11.65225366599377"><ele>113.33333333333333</ele><time>2026-05-01T12:15:41Z</time></trkpt><trkpt lat="44.35876929408266" lon="11.6523462624606"><ele>113.5</ele><time>2026-05-01T12:15:42Z</time></trkpt><trkpt lat="44.35879240444353" lon="11.652436871458068"><ele>113.66666666666666</ele><time>2026-05-01T12:15:43Z</time></trkpt><trkpt lat="44.35882344854374" lon="11.652515458575177"><ele>113.83333333333333</ele><time>2026-05-01T12:15:44Z</time></trkpt><trkpt lat="44.358885420124544" lon="11.652632917327374"><ele>114.0</ele><time>2026-05-01T12:15:46Z</time></trkpt><trkpt lat="44.35892446856899" lon="11.65272474250045"><ele>114.5</ele><time>2026-05-01T12:15:48Z</time></trkpt><trkpt lat="44.35895577347484" lon="11.652826684973508"><ele>115.0</ele><time>2026-05-01T12:15:51Z</time></trkpt><trkpt lat="44.3589837600056" lon="11.652936596444757"><ele>115.5</ele><time>2026-05-01T12:15:53.999Z</time></trkpt><trkpt lat="44.3590023356012" lon="11.653038643126179"><ele>116.0</ele><time>2026-05-01T12:15:56.999Z</time></trkpt><trkpt lat="44.359022693588805" lon="11.653140253309127"><ele>116.5</ele><time>2026-05-01T12:15:59.999Z</time></trkpt><trkpt lat="44.35903200429099" lon="11.653244343815919"><ele>117.0</ele><time>2026-05-01T12:16:02.999Z</time></trkpt><trkpt lat="44.359068066108634" lon="11.653337440273612"><ele>117.0</ele><time>2026-05-01T12:16:05.999Z</time></trkpt><trkpt lat="44.35910003478156" lon="11.653438362418575"><ele>117.0</ele><time>2026-05-01T12:16:08.999Z</time></trkpt><trkpt lat="44.359125904939454" lon="11.653519768513434"><ele>117.0</ele><time>2026-05-01T12:16:10.999Z</time></trkpt><trkpt lat="44.35913842457664" lon="11.653626471892075"><ele>117.0</ele><time>2026-05-01T12:16:13Z</time></trkpt><trkpt lat="44.35916154005471" lon="11.653736657196458"><ele>117.0</ele><time>2026-05-01T12:16:15Z</time></trkpt><trkpt lat="44.35917873873035" lon="11.65385933850613"><ele>117.0</ele><time>2026-05-01T12:16:17Z</time></trkpt><trkpt lat="44.35919015711256" lon="11.65397800098026"><ele>117.16666666666667</ele><time>2026-05-01T12:16:19Z</time></trkpt><trkpt lat="44.35918819403627" lon="11.654098214313912"><ele>117.33333333333334</ele><time>2026-05-01T12:16:21Z</time></trkpt><trkpt lat="44.35919123532825" lon="11.654215819075578"><ele>117.5</ele><time>2026-05-01T12:16:23Z</time></trkpt><trkpt lat="44.35918922012065" lon="11.654331424220175"><ele>117.66666666666667</ele><time>2026-05-01T12:16:25Z</time></trkpt><trkpt lat="44.359177784742286" lon="11.654448118482016"><ele>117.83333333333334</ele><time>2026-05-01T12:16:27Z</time></trkpt><trkpt lat="44.359167533997365" lon="11.654563562757318"><ele>118.0</ele><time>2026-05-01T12:16:29Z</time></trkpt><trkpt lat="44.35915481623046" lon="11.654676933281419"><ele>117.66666666666667</ele><time>2026-05-01T12:16:31Z</time></trkpt><trkpt lat="44.35913910304655" lon="11.65478994178013"><ele>117.33333333333334</ele><time>2026-05-01T12:16:33Z</time></trkpt><trkpt lat="44.35912803198988" lon="11.654900947254974"><ele>117.0</ele><time>2026-05-01T12:16:35Z</time></trkpt><trkpt lat="44.3591165189317" lon="11.655011774314048"><ele>116.66666666666666</ele><time>2026-05-01T12:16:37Z</time></trkpt><trkpt lat="44.359108609034934" lon="11.65512012625412"><ele>116.33333333333333</ele><time>2026-05-01T12:16:39Z</time></trkpt><trkpt lat="44.35910187385396" lon="11.655228165983896"><ele>116.0</ele><time>2026-05-01T12:16:41Z</time></trkpt><trkpt lat="44.35908709510592" lon="11.655346571493087"><ele>116.00000000000001</ele><time>2026-05-01T12:16:43Z</time></trkpt><trkpt lat="44.35907872400047" lon="11.655445074470574"><ele>116.0</ele><time>2026-05-01T12:16:45Z</time></trkpt><trkpt lat="44.35907173626397" lon="11.655545622535069"><ele>116.00000000000001</ele><time>2026-05-01T12:16:47Z</time></trkpt><trkpt lat="44.359057474455454" lon="11.655637592715468"><ele>116.00000000000001</ele><time>2026-05-01T12:16:49Z</time></trkpt><trkpt lat="44.35906376044942" lon="11.655725617657042"><ele>116.0</ele><time>2026-05-01T12:16:51Z</time></trkpt><trkpt lat="44.359047675974175" lon="11.655850692519445"><ele>116.00000000000001</ele><time>2026-05-01T12:16:54Z</time></trkpt><trkpt lat="44.35903907527672" lon="11.655957057465974"><ele>116.00000000000001</ele><time>2026-05-01T12:16:57Z</time></trkpt><trkpt lat="44.35903104484983" lon="11.656046816173065"><ele>115.85714285714288</ele><time>2026-05-01T12:17:00Z</time></trkpt><trkpt lat="44.35902508105649" lon="11.65615977953982"><ele>115.71428571428572</ele><time>2026-05-01T12:17:03Z</time></trkpt><trkpt lat="44.35900487161796" lon="11.656258532909156"><ele>115.57142857142857</ele><time>2026-05-01T12:17:06Z</time></trkpt><trkpt lat="44.35893569812916" lon="11.656269879723814"><ele>115.42857142857143</ele><time>2026-05-01T12:17:10Z</time></trkpt><trkpt lat="44.35888589562163" lon="11.656215129774662"><ele>115.28571428571428</ele><time>2026-05-01T12:17:14Z</time></trkpt><trkpt lat="44.35881853493115" lon="11.656170320004904"><ele>115.14285714285712</ele><time>2026-05-01T12:17:19Z</time></trkpt><trkpt lat="44.35876007941746" lon="11.656128422609108"><ele>114.99999999999999</ele><time>2026-05-01T12:17:23Z</time></trkpt><trkpt lat="44.35870152333238" lon="11.656070722832597"><ele>117.00000000000001</ele><time>2026-05-01T12:17:28Z</time></trkpt><trkpt lat="44.35864269657463" lon="11.656006385353264"><ele>119.0</ele><time>2026-05-01T12:17:33Z</time></trkpt><trkpt lat="44.35857983056269" lon="11.655949402178043"><ele>121.0</ele><time>2026-05-01T12:17:38Z</time></trkpt><trkpt lat="44.35852264301359" lon="11.655873435899897"><ele>123.0</ele><time>2026-05-01T12:17:43Z</time></trkpt><trkpt lat="44.35846585237734" lon="11.65580715935459"><ele>125.00000000000001</ele><time>2026-05-01T12:17:48Z</time></trkpt><trkpt lat="44.358410402299974" lon="11.655728397336247"><ele>127.0</ele><time>2026-05-01T12:17:53Z</time></trkpt><trkpt lat="44.35836933284795" lon="11.655644102683658"><ele>127.0</ele><time>2026-05-01T12:17:57.999Z</time></trkpt><trkpt lat="44.358323353816495" lon="11.655562863014346"><ele>127.0</ele><time>2026-05-01T12:18:02.999Z</time></trkpt><trkpt lat="44.35827173602068" lon="11.65548850632189"><ele>127.0</ele><time>2026-05-01T12:18:07.999Z</time></trkpt><trkpt lat="44.3582352553754" lon="11.655394645728032"><ele>127.0</ele><time>2026-05-01T12:18:11.999Z</time></trkpt><trkpt lat="44.35819676639127" lon="11.655323048277118"><ele>127.0</ele><time>2026-05-01T12:18:15.999Z</time></trkpt><trkpt lat="44.35815596013329" lon="11.655234135687325"><ele>127.0</ele><time>2026-05-01T12:18:21Z</time></trkpt><trkpt lat="44.35811524012011" lon="11.655149432904075"><ele>127.0</ele><time>2026-05-01T12:18:26Z</time></trkpt><trkpt lat="44.35807530747365" lon="11.655078389944409"><ele>127.14285714285714</ele><time>2026-05-01T12:18:30Z</time></trkpt><trkpt lat="44.35803542325249" lon="11.654987769283123"><ele>127.28571428571428</ele><time>2026-05-01T12:18:35Z</time></trkpt><trkpt lat="44.3579949032411" lon="11.654920229599494"><ele>127.42857142857142</ele><time>2026-05-01T12:18:39Z</time></trkpt><trkpt lat="44.35795291957958" lon="11.654851768144413"><ele>127.57142857142857</ele><time>2026-05-01T12:18:43Z</time></trkpt><trkpt lat="44.357914187764216" lon="11.654780468407719"><ele>127.7142857142857</ele><time>2026-05-01T12:18:47Z</time></trkpt><trkpt lat="44.357875404258365" lon="11.65470266543182"><ele>127.85714285714285</ele><time>2026-05-01T12:18:51Z</time></trkpt><trkpt lat="44.35783001846941" lon="11.654615858271853"><ele>128.0</ele><time>2026-05-01T12:18:56Z</time></trkpt><trkpt lat="44.3577917508331" lon="11.654541957909522"><ele>128.42857142857142</ele><time>2026-05-01T12:19:00Z</time></trkpt><trkpt lat="44.357754987367684" lon="11.65447017967912"><ele>128.85714285714283</ele><time>2026-05-01T12:19:04Z</time></trkpt><trkpt lat="44.357719298614676" lon="11.65439650620458"><ele>129.28571428571428</ele><time>2026-05-01T12:19:08Z</time></trkpt><trkpt lat="44.35768098866475" lon="11.654304013333205"><ele>129.71428571428572</ele><time>2026-05-01T12:19:13Z</time></trkpt><trkpt lat="44.35764273297019" lon="11.654232532484551"><ele>130.14285714285717</ele><time>2026-05-01T12:19:17Z</time></trkpt><trkpt lat="44.35760507996892" lon="11.654140009158946"><ele>130.57142857142858</ele><time>2026-05-01T12:19:22Z</time></trkpt><trkpt lat="44.35756486540264" lon="11.65406476129633"><ele>131.0</ele><time>2026-05-01T12:19:27Z</time></trkpt><trkpt lat="44.35752601784519" lon="11.65397367430237"><ele>132.0</ele><time>2026-05-01T12:19:31Z</time></trkpt><trkpt lat="44.357492550071925" lon="11.653895994985225"><ele>133.0</ele><time>2026-05-01T12:19:35Z</time></trkpt><trkpt lat="44.357466756675066" lon="11.65380714648915"><ele>134.0</ele><time>2026-05-01T12:19:39Z</time></trkpt><trkpt lat="44.35742616788385" lon="11.653728055859341"><ele>135.0</ele><time>2026-05-01T12:19:43Z</time></trkpt><trkpt lat="44.35739377185504" lon="11.65363926639885"><ele>136.0</ele><time>2026-05-01T12:19:47Z</time></trkpt><trkpt lat="44.35735465489897" lon="11.653551191260696"><ele>137.0</ele><time>2026-05-01T12:19:51Z</time></trkpt><trkpt lat="44.35731853859097" lon="11.653466098154636"><ele>138.0</ele><time>2026-05-01T12:19:54.999Z</time></trkpt><trkpt lat="44.3572623779231" lon="11.653401690192236"><ele>138.14285714285714</ele><time>2026-05-01T12:19:58.999Z</time></trkpt><trkpt lat="44.3572134864837" lon="11.653329357863978"><ele>138.2857142857143</ele><time>2026-05-01T12:20:02.999Z</time></trkpt><trkpt lat="44.357159567201236" lon="11.653260338309014"><ele>138.42857142857144</ele><time>2026-05-01T12:20:06.999Z</time></trkpt><trkpt lat="44.357113624158146" lon="11.653194606222085"><ele>138.57142857142858</ele><time>2026-05-01T12:20:10.999Z</time></trkpt><trkpt lat="44.357053396365814" lon="11.653131330243898"><ele>138.71428571428572</ele><time>2026-05-01T12:20:14.999Z</time></trkpt><trkpt lat="44.35699547761008" lon="11.653071738505778"><ele>138.85714285714286</ele><time>2026-05-01T12:20:18.999Z</time></trkpt><trkpt lat="44.35693531782007" lon="11.653016205453646"><ele>139.0</ele><time>2026-05-01T12:20:22.999Z</time></trkpt><trkpt lat="44.356874811800786" lon="11.65295070307221"><ele>139.85714285714286</ele><time>2026-05-01T12:20:27Z</time></trkpt><trkpt lat="44.35681588534504" lon="11.65288816760629"><ele>140.71428571428572</ele><time>2026-05-01T12:20:31Z</time></trkpt><trkpt lat="44.35675877409096" lon="11.652813101120566"><ele>141.57142857142858</ele><time>2026-05-01T12:20:35Z</time></trkpt><trkpt lat="44.35670209844269" lon="11.652743470926229"><ele>142.42857142857144</ele><time>2026-05-01T12:20:39Z</time></trkpt><trkpt lat="44.35664881144915" lon="11.65267523999138"><ele>143.2857142857143</ele><time>2026-05-01T12:20:43Z</time></trkpt><trkpt lat="44.35661608869954" lon="11.652596741639064"><ele>144.14285714285714</ele><time>2026-05-01T12:20:46Z</time></trkpt><trkpt lat="44.356580411909626" lon="11.652503916381935"><ele>145.0</ele><time>2026-05-01T12:20:50Z</time></trkpt><trkpt lat="44.356530138485" lon="11.652428037150441"><ele>145.57142857142858</ele><time>2026-05-01T12:20:54Z</time></trkpt><trkpt lat="44.35649199278797" lon="11.65234066067245"><ele>146.14285714285717</ele><time>2026-05-01T12:20:58Z</time></trkpt><trkpt lat="44.35645412036895" lon="11.652260671668856"><ele>146.71428571428572</ele><time>2026-05-01T12:21:02Z</time></trkpt><trkpt lat="44.35641118122198" lon="11.652183858957669"><ele>147.28571428571428</ele><time>2026-05-01T12:21:06Z</time></trkpt><trkpt lat="44.35635882733257" lon="11.652113467703497"><ele>147.85714285714283</ele><time>2026-05-01T12:21:10Z</time></trkpt><trkpt lat="44.356307945588284" lon="11.652045571849643"><ele>148.42857142857142</ele><time>2026-05-01T12:21:14Z</time></trkpt><trkpt lat="44.35625157870603" lon="11.651980880376803"><ele>149.0</ele><time>2026-05-01T12:21:18Z</time></trkpt><trkpt lat="44.356199255548574" lon="11.651914089390903"><ele>150.42857142857142</ele><time>2026-05-01T12:21:22Z</time></trkpt><trkpt lat="44.35616115386569" lon="11.651839841973969"><ele>151.85714285714283</ele><time>2026-05-01T12:21:26Z</time></trkpt><trkpt lat="44.35610606635527" lon="11.651785491900723"><ele>153.28571428571428</ele><time>2026-05-01T12:21:30Z</time></trkpt><trkpt lat="44.35605930643214" lon="11.651718411119898"><ele>154.71428571428572</ele><time>2026-05-01T12:21:34Z</time></trkpt><trkpt lat="44.356005725292206" lon="11.651660511100628"><ele>156.14285714285717</ele><time>2026-05-01T12:21:38Z</time></trkpt><trkpt lat="44.355957853438554" lon="11.651602357055028"><ele>157.57142857142856</ele><time>2026-05-01T12:21:41Z</time></trkpt><trkpt lat="44.35590551473005" lon="11.651538981705725"><ele>159.0</ele><time>2026-05-01T12:21:45Z</time></trkpt><trkpt lat="44.355861553074824" lon="11.651458493216536"><ele>159.0</ele><time>2026-05-01T12:21:49Z</time></trkpt><trkpt lat="44.355806697980306" lon="11.651389995584545"><ele>159.0</ele><time>2026-05-01T12:21:53Z</time></trkpt><trkpt lat="44.35576878127645" lon="11.651294398594755"><ele>159.0</ele><time>2026-05-01T12:21:57Z</time></trkpt><trkpt lat="44.35573135859326" lon="11.651203766191031"><ele>159.0</ele><time>2026-05-01T12:22:01Z</time></trkpt><trkpt lat="44.35570548911436" lon="11.65111959468301"><ele>159.0</ele><time>2026-05-01T12:22:03.999Z</time></trkpt><trkpt lat="44.35567490824878" lon="11.651019772386633"><ele>159.0</ele><time>2026-05-01T12:22:07.999Z</time></trkpt><trkpt lat="44.35564753255205" lon="11.650913972330681"><ele>159.33333333333334</ele><time>2026-05-01T12:22:11.999Z</time></trkpt><trkpt lat="44.35560895188739" lon="11.650816522652601"><ele>159.66666666666666</ele><time>2026-05-01T12:22:15.999Z</time></trkpt><trkpt lat="44.35558591171809" lon="11.650708392510326"><ele>160.0</ele><time>2026-05-01T12:22:19.999Z</time></trkpt><trkpt lat="44.35556116189677" lon="11.650625412257993"><ele>160.33333333333331</ele><time>2026-05-01T12:22:22.999Z</time></trkpt><trkpt lat="44.35548744595881" lon="11.65063661580091"><ele>160.66666666666666</ele><time>2026-05-01T12:22:26.999Z</time></trkpt><trkpt lat="44.355446860411305" lon="11.650711402547335"><ele>161.0</ele><time>2026-05-01T12:22:30Z</time></trkpt><trkpt lat="44.35538435626596" lon="11.650789808580127"><ele>161.57142857142858</ele><time>2026-05-01T12:22:34Z</time></trkpt><trkpt lat="44.355337893631194" lon="11.650850809824032"><ele>162.14285714285714</ele><time>2026-05-01T12:22:37Z</time></trkpt><trkpt lat="44.3552866619858" lon="11.65090279808135"><ele>162.71428571428572</ele><time>2026-05-01T12:22:40Z</time></trkpt><trkpt lat="44.35524165290403" lon="11.650975411787643"><ele>163.28571428571428</ele><time>2026-05-01T12:22:43Z</time></trkpt><trkpt lat="44.3552032406485" lon="11.651054942216605"><ele>163.85714285714286</ele><time>2026-05-01T12:22:46Z</time></trkpt><trkpt lat="44.355161274787676" lon="11.651135708738192"><ele>164.42857142857144</ele><time>2026-05-01T12:22:49Z</time></trkpt><trkpt lat="44.355124486396555" lon="11.651221445980575"><ele>165.0</ele><time>2026-05-01T12:22:52Z</time></trkpt><trkpt lat="44.35509609808259" lon="11.651322832292012"><ele>165.00000000000003</ele><time>2026-05-01T12:22:55Z</time></trkpt><trkpt lat="44.35507130198037" lon="11.651421457898522"><ele>165.0</ele><time>2026-05-01T12:22:57.999Z</time></trkpt><trkpt lat="44.35503408401999" lon="11.651521327039685"><ele>165.0</ele><time>2026-05-01T12:23:00.999Z</time></trkpt><trkpt lat="44.35501208746568" lon="11.651612874307135"><ele>165.0</ele><time>2026-05-01T12:23:02.999Z</time></trkpt><trkpt lat="44.35497591746769" lon="11.65170331481995"><ele>165.0</ele><time>2026-05-01T12:23:04.999Z</time></trkpt><trkpt lat="44.354941848750315" lon="11.651785624759746"><ele>165.00000000000003</ele><time>2026-05-01T12:23:06.999Z</time></trkpt><trkpt lat="44.35490846216208" lon="11.65187171282799"><ele>165.0</ele><time>2026-05-01T12:23:08.999Z</time></trkpt><trkpt lat="44.35487581700089" lon="11.651968863749333"><ele>165.0</ele><time>2026-05-01T12:23:10.999Z</time></trkpt><trkpt lat="44.354835099406124" lon="11.652078074361354"><ele>165.0</ele><time>2026-05-01T12:23:12.999Z</time></trkpt><trkpt lat="44.354803938671374" lon="11.652196894578067"><ele>165.0</ele><time>2026-05-01T12:23:14.999Z</time></trkpt><trkpt lat="44.3547665423367" lon="11.65232047763405"><ele>165.0</ele><time>2026-05-01T12:23:16.999Z</time></trkpt><trkpt lat="44.35473146893205" lon="11.652440089582656"><ele>165.0</ele><time>2026-05-01T12:23:18.999Z</time></trkpt><trkpt lat="44.35471595496965" lon="11.652567224822883"><ele>164.8</ele><time>2026-05-01T12:23:20.999Z</time></trkpt><trkpt lat="44.35469785401956" lon="11.652703483670601"><ele>164.6</ele><time>2026-05-01T12:23:22.999Z</time></trkpt><trkpt lat="44.35468175717056" lon="11.652834517722686"><ele>164.39999999999998</ele><time>2026-05-01T12:23:24.999Z</time></trkpt><trkpt lat="44.35467075788057" lon="11.652974187887095"><ele>164.2</ele><time>2026-05-01T12:23:26.999Z</time></trkpt><trkpt lat="44.354657675705624" lon="11.653113586580385"><ele>164.0</ele><time>2026-05-01T12:23:28.999Z</time></trkpt><trkpt lat="44.35462098549729" lon="11.65324961468248"><ele>164.0</ele><time>2026-05-01T12:23:30.999Z</time></trkpt><trkpt lat="44.35461078029643" lon="11.653390254196136"><ele>164.0</ele><time>2026-05-01T12:23:32.999Z</time></trkpt><trkpt lat="44.354599986905846" lon="11.653538999599984"><ele>164.0</ele><time>2026-05-01T12:23:34.999Z</time></trkpt><trkpt lat="44.354588670195376" lon="11.65369495708391"><ele>164.0</ele><time>2026-05-01T12:23:36.999Z</time></trkpt><trkpt lat="44.354576702947575" lon="11.653859879421542"><ele>164.0</ele><time>2026-05-01T12:23:38.999Z</time></trkpt><trkpt lat="44.35457033040171" lon="11.65394770059586"><ele>163.66666666666666</ele><time>2026-05-01T12:23:39.999Z</time></trkpt><trkpt lat="44.35456292518949" lon="11.654041999824463"><ele>163.33333333333331</ele><time>2026-05-01T12:23:40.999Z</time></trkpt><trkpt lat="44.3545550463417" lon="11.654134878617285"><ele>163.0</ele><time>2026-05-01T12:23:41.999Z</time></trkpt><trkpt lat="44.35454657738907" lon="11.654227475204994"><ele>162.66666666666666</ele><time>2026-05-01T12:23:42.999Z</time></trkpt><trkpt lat="44.35453787871562" lon="11.65432258334785"><ele>162.33333333333334</ele><time>2026-05-01T12:23:43.999Z</time></trkpt><trkpt lat="44.35451677228803" lon="11.654500967931726"><ele>162.0</ele><time>2026-05-01T12:23:45.999Z</time></trkpt><trkpt lat="44.35450412009561" lon="11.654593558860125"><ele>161.71428571428572</ele><time>2026-05-01T12:23:46.999Z</time></trkpt><trkpt lat="44.3544905546678" lon="11.654682686420744"><ele>161.42857142857142</ele><time>2026-05-01T12:23:47.999Z</time></trkpt><trkpt lat="44.354474954797944" lon="11.65476898359773"><ele>161.14285714285714</ele><time>2026-05-01T12:23:48.999Z</time></trkpt><trkpt lat="44.354458470631286" lon="11.654854546340857"><ele>160.85714285714286</ele><time>2026-05-01T12:23:49.999Z</time></trkpt><trkpt lat="44.35444079588973" lon="11.654941577675784"><ele>160.57142857142858</ele><time>2026-05-01T12:23:50.999Z</time></trkpt><trkpt lat="44.354404915469964" lon="11.65510887947396"><ele>160.28571428571428</ele><time>2026-05-01T12:23:52.999Z</time></trkpt><trkpt lat="44.354384903946325" lon="11.655195657335122"><ele>160.0</ele><time>2026-05-01T12:23:53.999Z</time></trkpt><trkpt lat="44.354392520331984" lon="11.655299854712297"><ele>159.83333333333334</ele><time>2026-05-01T12:23:54.999Z</time></trkpt><trkpt lat="44.354370486232504" lon="11.655388304336439"><ele>159.66666666666669</ele><time>2026-05-01T12:23:55.999Z</time></trkpt><trkpt lat="44.354352217143386" lon="11.655476280081531"><ele>159.5</ele><time>2026-05-01T12:23:56.999Z</time></trkpt><trkpt lat="44.35431330384997" lon="11.655642225730137"><ele>159.33333333333334</ele><time>2026-05-01T12:23:58.999Z</time></trkpt><trkpt lat="44.354283839996604" lon="11.655721264068918"><ele>159.16666666666666</ele><time>2026-05-01T12:23:59.999Z</time></trkpt><trkpt lat="44.354219767581476" lon="11.65587255238982"><ele>159.0</ele><time>2026-05-01T12:24:01.999Z</time></trkpt><trkpt lat="44.35422449218597" lon="11.655964503542885"><ele>158.0</ele><time>2026-05-01T12:24:02.999Z</time></trkpt><trkpt lat="44.35419159826551" lon="11.656124571264598"><ele>157.0</ele><time>2026-05-01T12:24:04.999Z</time></trkpt><trkpt lat="44.35415444987746" lon="11.656291933117119"><ele>156.0</ele><time>2026-05-01T12:24:06.999Z</time></trkpt><trkpt lat="44.35408385922029" lon="11.656437870381605"><ele>155.0</ele><time>2026-05-01T12:24:08.999Z</time></trkpt><trkpt lat="44.354045869959236" lon="11.656597304953154"><ele>155.0</ele><time>2026-05-01T12:24:10.999Z</time></trkpt><trkpt lat="44.354007659742265" lon="11.656757688828225"><ele>155.0</ele><time>2026-05-01T12:24:12.999Z</time></trkpt><trkpt lat="44.35398766306655" lon="11.656841623087454"><ele>155.0</ele><time>2026-05-01T12:24:13.999Z</time></trkpt><trkpt lat="44.353949590026275" lon="11.657001431168315"><ele>155.0</ele><time>2026-05-01T12:24:15.999Z</time></trkpt><trkpt lat="44.35391066404102" lon="11.657164819238274"><ele>155.0</ele><time>2026-05-01T12:24:17.999Z</time></trkpt><trkpt lat="44.353871946902714" lon="11.65732356648106"><ele>155.0</ele><time>2026-05-01T12:24:19.999Z</time></trkpt><trkpt lat="44.35383388223692" lon="11.657478653242675"><ele>155.0</ele><time>2026-05-01T12:24:21.999Z</time></trkpt><trkpt lat="44.353797862235425" lon="11.657625409311432"><ele>155.0</ele><time>2026-05-01T12:24:23.999Z</time></trkpt><trkpt lat="44.353762707783105" lon="11.657768638899247"><ele>155.0</ele><time>2026-05-01T12:24:25.999Z</time></trkpt><trkpt lat="44.35372387423316" lon="11.657928070028122"><ele>154.2</ele><time>2026-05-01T12:24:27.999Z</time></trkpt><trkpt lat="44.35368549434145" lon="11.658088397569776"><ele>153.4</ele><time>2026-05-01T12:24:29.999Z</time></trkpt><trkpt lat="44.35364729389097" lon="11.658247975620705"><ele>152.6</ele><time>2026-05-01T12:24:31.999Z</time></trkpt><trkpt lat="44.35360907639491" lon="11.658407624959269"><ele>151.8</ele><time>2026-05-01T12:24:33.999Z</time></trkpt><trkpt lat="44.353588961421444" lon="11.658491653099848"><ele>151.0</ele><time>2026-05-01T12:24:34.999Z</time></trkpt><trkpt lat="44.35356675283721" lon="11.658575322302182"><ele>150.57142857142858</ele><time>2026-05-01T12:24:35.999Z</time></trkpt><trkpt lat="44.35354258169162" lon="11.658659786786705"><ele>150.14285714285714</ele><time>2026-05-01T12:24:36.999Z</time></trkpt><trkpt lat="44.353514701735236" lon="11.658746156996997"><ele>149.71428571428572</ele><time>2026-05-01T12:24:37.999Z</time></trkpt><trkpt lat="44.35348454057956" lon="11.6588356180591"><ele>149.28571428571428</ele><time>2026-05-01T12:24:38.999Z</time></trkpt><trkpt lat="44.35345117424967" lon="11.65892830268204"><ele>148.85714285714286</ele><time>2026-05-01T12:24:39.999Z</time></trkpt><trkpt lat="44.353412064370424" lon="11.659025399254407"><ele>148.42857142857144</ele><time>2026-05-01T12:24:40.999Z</time></trkpt><trkpt lat="44.35336914961644" lon="11.65912723828756"><ele>148.0</ele><time>2026-05-01T12:24:42Z</time></trkpt><trkpt lat="44.353323212132764" lon="11.65923258809037"><ele>148.0</ele><time>2026-05-01T12:24:43Z</time></trkpt><trkpt lat="44.35327547211299" lon="11.659340848292416"><ele>148.0</ele><time>2026-05-01T12:24:44Z</time></trkpt><trkpt lat="44.353225342426775" lon="11.659453392189855"><ele>148.0</ele><time>2026-05-01T12:24:45Z</time></trkpt><trkpt lat="44.35317387660121" lon="11.659568935653816"><ele>148.0</ele><time>2026-05-01T12:24:46Z</time></trkpt><trkpt lat="44.353120291493404" lon="11.65968819094961"><ele>148.0</ele><time>2026-05-01T12:24:47Z</time></trkpt><trkpt lat="44.35306555376755" lon="11.659809915807399"><ele>145.25</ele><time>2026-05-01T12:24:48Z</time></trkpt><trkpt lat="44.35300872683437" lon="11.659936286801226"><ele>142.5</ele><time>2026-05-01T12:24:49Z</time></trkpt><trkpt lat="44.3529485422" lon="11.66006762385836"><ele>139.75</ele><time>2026-05-01T12:24:50Z</time></trkpt><trkpt lat="44.352886518850674" lon="11.660202466624423"><ele>137.0</ele><time>2026-05-01T12:24:51Z</time></trkpt><trkpt lat="44.35282236493207" lon="11.66033871183046"><ele>135.0</ele><time>2026-05-01T12:24:52Z</time></trkpt><trkpt lat="44.35275595979531" lon="11.660474453986412"><ele>133.0</ele><time>2026-05-01T12:24:53Z</time></trkpt><trkpt lat="44.35268858724756" lon="11.660618991914173"><ele>131.0</ele><time>2026-05-01T12:24:54Z</time></trkpt><trkpt lat="44.35264246282247" lon="11.66077591309349"><ele>129.0</ele><time>2026-05-01T12:24:55Z</time></trkpt><trkpt lat="44.35260897559527" lon="11.660922855885827"><ele>129.0</ele><time>2026-05-01T12:24:56Z</time></trkpt><trkpt lat="44.352623347447285" lon="11.661076297093427"><ele>129.0</ele><time>2026-05-01T12:24:57Z</time></trkpt><trkpt lat="44.35266591239165" lon="11.66122864068689"><ele>129.0</ele><time>2026-05-01T12:24:58Z</time></trkpt><trkpt lat="44.35272849391538" lon="11.661359611033221"><ele>129.0</ele><time>2026-05-01T12:24:59Z</time></trkpt><trkpt lat="44.35278851069041" lon="11.661485074764604"><ele>129.0</ele><time>2026-05-01T12:25:00Z</time></trkpt><trkpt lat="44.35284178116839" lon="11.661611039508434"><ele>128.0</ele><time>2026-05-01T12:25:01Z</time></trkpt><trkpt lat="44.35287859691762" lon="11.661752282736193"><ele>127.0</ele><time>2026-05-01T12:25:02Z</time></trkpt><trkpt lat="44.35294235731792" lon="11.661871002254168"><ele>126.0</ele><time>2026-05-01T12:25:03Z</time></trkpt><trkpt lat="44.35296821372552" lon="11.662016809463736"><ele>125.0</ele><time>2026-05-01T12:25:04Z</time></trkpt><trkpt lat="44.35299281302376" lon="11.662156049804285"><ele>124.0</ele><time>2026-05-01T12:25:05Z</time></trkpt><trkpt lat="44.35301126841494" lon="11.662301077564928"><ele>122.80000000000001</ele><time>2026-05-01T12:25:06Z</time></trkpt><trkpt lat="44.353004137328945" lon="11.662442218558457"><ele>121.60000000000001</ele><time>2026-05-01T12:25:07Z</time></trkpt><trkpt lat="44.35300553124931" lon="11.662595060415397"><ele>120.4</ele><time>2026-05-01T12:25:08Z</time></trkpt><trkpt lat="44.35300585154513" lon="11.662741947067024"><ele>119.2</ele><time>2026-05-01T12:25:09Z</time></trkpt><trkpt lat="44.35300585154427" lon="11.662886978007009"><ele>118.0</ele><time>2026-05-01T12:25:10Z</time></trkpt><trkpt lat="44.35302163777652" lon="11.6630308691151"><ele>117.2</ele><time>2026-05-01T12:25:11Z</time></trkpt><trkpt lat="44.353004697578" lon="11.663172656416009"><ele>116.4</ele><time>2026-05-01T12:25:12Z</time></trkpt><trkpt lat="44.35300398172336" lon="11.663312692077351"><ele>115.60000000000001</ele><time>2026-05-01T12:25:13Z</time></trkpt><trkpt lat="44.35300327418166" lon="11.663451102020867"><ele>114.80000000000001</ele><time>2026-05-01T12:25:14Z</time></trkpt><trkpt lat="44.35300264330426" lon="11.663587768183652"><ele>114.0</ele><time>2026-05-01T12:25:15Z</time></trkpt><trkpt lat="44.35300207500542" lon="11.663723347869361"><ele>113.6</ele><time>2026-05-01T12:25:16Z</time></trkpt><trkpt lat="44.35300150832764" lon="11.663858540804714"><ele>113.2</ele><time>2026-05-01T12:25:17Z</time></trkpt><trkpt lat="44.35300094364559" lon="11.663993257592018"><ele>112.79999999999998</ele><time>2026-05-01T12:25:18Z</time></trkpt><trkpt lat="44.35300037991753" lon="11.664127746766106"><ele>112.39999999999999</ele><time>2026-05-01T12:25:19Z</time></trkpt><trkpt lat="44.35299979376341" lon="11.664260521537395"><ele>112.0</ele><time>2026-05-01T12:25:20Z</time></trkpt><trkpt lat="44.3529991888054" lon="11.664392911274929"><ele>112.19999999999999</ele><time>2026-05-01T12:25:21Z</time></trkpt><trkpt lat="44.35299858682678" lon="11.664524649343022"><ele>112.39999999999999</ele><time>2026-05-01T12:25:22Z</time></trkpt><trkpt lat="44.35299811851421" lon="11.664653859440097"><ele>112.60000000000001</ele><time>2026-05-01T12:25:23Z</time></trkpt><trkpt lat="44.35299781151192" lon="11.664782641366475"><ele>112.80000000000001</ele><time>2026-05-01T12:25:24Z</time></trkpt><trkpt lat="44.352997509905464" lon="11.664909159958402"><ele>113.0</ele><time>2026-05-01T12:25:25Z</time></trkpt><trkpt lat="44.35299721616704" lon="11.665032377749977"><ele>112.99999999999999</ele><time>2026-05-01T12:25:26Z</time></trkpt><trkpt lat="44.352996919127335" lon="11.665156980828337"><ele>113.0</ele><time>2026-05-01T12:25:27Z</time></trkpt><trkpt lat="44.35299662332824" lon="11.665281063161903"><ele>113.0</ele><time>2026-05-01T12:25:28Z</time></trkpt><trkpt lat="44.3529963278786" lon="11.665404998885148"><ele>113.0</ele><time>2026-05-01T12:25:29Z</time></trkpt><trkpt lat="44.35299602760353" lon="11.66553095891805"><ele>112.99999999999999</ele><time>2026-05-01T12:25:30Z</time></trkpt><trkpt lat="44.35299573021982" lon="11.665655705929758"><ele>113.0</ele><time>2026-05-01T12:25:31Z</time></trkpt><trkpt lat="44.352995436011376" lon="11.66577912122165"><ele>112.99999999999999</ele><time>2026-05-01T12:25:32Z</time></trkpt><trkpt lat="44.35299481268345" lon="11.665898230235923"><ele>113.0</ele><time>2026-05-01T12:25:33Z</time></trkpt><trkpt lat="44.353008401156266" lon="11.666018238918644"><ele>113.0</ele><time>2026-05-01T12:25:34Z</time></trkpt><trkpt lat="44.35300555596926" lon="11.666135743481751"><ele>113.0</ele><time>2026-05-01T12:25:35Z</time></trkpt><trkpt lat="44.35300513393391" lon="11.666252452989266"><ele>112.99999999999999</ele><time>2026-05-01T12:25:36Z</time></trkpt><trkpt lat="44.353003323995075" lon="11.666371574608577"><ele>113.0</ele><time>2026-05-01T12:25:37Z</time></trkpt><trkpt lat="44.35300177552971" lon="11.666489849240307"><ele>112.99999999999999</ele><time>2026-05-01T12:25:38Z</time></trkpt><trkpt lat="44.353003432198186" lon="11.666607278655482"><ele>113.0</ele><time>2026-05-01T12:25:39Z</time></trkpt><trkpt lat="44.353002717093844" lon="11.666724421896335"><ele>113.0</ele><time>2026-05-01T12:25:40Z</time></trkpt><trkpt lat="44.35300265278129" lon="11.666839050209287"><ele>113.0</ele><time>2026-05-01T12:25:41Z</time></trkpt><trkpt lat="44.35300115002094" lon="11.666952796630875"><ele>112.99999999999999</ele><time>2026-05-01T12:25:42Z</time></trkpt><trkpt lat="44.35300160719384" lon="11.6670651777465"><ele>113.0</ele><time>2026-05-01T12:25:43Z</time></trkpt><trkpt lat="44.35300327930325" lon="11.667173957578553"><ele>112.99999999999999</ele><time>2026-05-01T12:25:44Z</time></trkpt><trkpt lat="44.353002960671276" lon="11.667284686118453"><ele>113.0</ele><time>2026-05-01T12:25:45Z</time></trkpt><trkpt lat="44.35300241471821" lon="11.667393788684421"><ele>113.0</ele><time>2026-05-01T12:25:46Z</time></trkpt><trkpt lat="44.352985206662005" lon="11.66749906005297"><ele>113.0</ele><time>2026-05-01T12:25:47Z</time></trkpt><trkpt lat="44.35298219784841" lon="11.667604109097478"><ele>112.99999999999999</ele><time>2026-05-01T12:25:48Z</time></trkpt><trkpt lat="44.35297886032063" lon="11.667706037679979"><ele>113.0</ele><time>2026-05-01T12:25:49Z</time></trkpt><trkpt lat="44.35297387690593" lon="11.66780573784686"><ele>113.0</ele><time>2026-05-01T12:25:50Z</time></trkpt><trkpt lat="44.35296657595136" lon="11.667905480942341"><ele>113.0</ele><time>2026-05-01T12:25:51Z</time></trkpt><trkpt lat="44.352958127793954" lon="11.668003517328176"><ele>113.0</ele><time>2026-05-01T12:25:52Z</time></trkpt><trkpt lat="44.35294830519118" lon="11.668098743141947"><ele>113.0</ele><time>2026-05-01T12:25:53Z</time></trkpt><trkpt lat="44.352937419797236" lon="11.668199197068594"><ele>113.0</ele><time>2026-05-01T12:25:54Z</time></trkpt><trkpt lat="44.35292642068127" lon="11.668300700324204"><ele>113.0</ele><time>2026-05-01T12:25:55Z</time></trkpt><trkpt lat="44.35291526909584" lon="11.66840361278746"><ele>113.0</ele><time>2026-05-01T12:25:56Z</time></trkpt><trkpt lat="44.35290206587325" lon="11.668507116181209"><ele>112.57142857142857</ele><time>2026-05-01T12:25:57Z</time></trkpt><trkpt lat="44.35290627764325" lon="11.668611091306596"><ele>112.14285714285714</ele><time>2026-05-01T12:25:58Z</time></trkpt><trkpt lat="44.352892117060435" lon="11.668708327278274"><ele>111.71428571428571</ele><time>2026-05-01T12:25:59Z</time></trkpt><trkpt lat="44.352865818927626" lon="11.6688069607862"><ele>111.28571428571428</ele><time>2026-05-01T12:26:00Z</time></trkpt><trkpt lat="44.352852935563895" lon="11.668909475416834"><ele>110.85714285714286</ele><time>2026-05-01T12:26:01Z</time></trkpt><trkpt lat="44.35285634220801" lon="11.669016177546332"><ele>110.42857142857142</ele><time>2026-05-01T12:26:01.999Z</time></trkpt><trkpt lat="44.35282779572156" lon="11.669109516252536"><ele>110.0</ele><time>2026-05-01T12:26:02.999Z</time></trkpt><trkpt lat="44.352815119275014" lon="11.669210384391711"><ele>109.99999999999999</ele><time>2026-05-01T12:26:03.999Z</time></trkpt><trkpt lat="44.35280250883573" lon="11.669310727149114"><ele>110.0</ele><time>2026-05-01T12:26:04.999Z</time></trkpt><trkpt lat="44.35279011153944" lon="11.669409374081768"><ele>110.0</ele><time>2026-05-01T12:26:05.999Z</time></trkpt><trkpt lat="44.35277708851267" lon="11.669510541220733"><ele>110.0</ele><time>2026-05-01T12:26:06.999Z</time></trkpt><trkpt lat="44.35276366052107" lon="11.669610258631167"><ele>110.0</ele><time>2026-05-01T12:26:07.999Z</time></trkpt><trkpt lat="44.35275015679476" lon="11.669710538472568"><ele>109.99999999999999</ele><time>2026-05-01T12:26:08.999Z</time></trkpt><trkpt lat="44.352737438550555" lon="11.669814795643248"><ele>110.0</ele><time>2026-05-01T12:26:09.999Z</time></trkpt><trkpt lat="44.35272511550163" lon="11.669920119782372"><ele>109.99999999999999</ele><time>2026-05-01T12:26:10.999Z</time></trkpt><trkpt lat="44.35273310795558" lon="11.6700297968771"><ele>110.0</ele><time>2026-05-01T12:26:11.999Z</time></trkpt><trkpt lat="44.35273722632259" lon="11.670136194096926"><ele>110.0</ele><time>2026-05-01T12:26:12.999Z</time></trkpt><trkpt lat="44.35277402715551" lon="11.670232968922377"><ele>110.0</ele><time>2026-05-01T12:26:13.999Z</time></trkpt><trkpt lat="44.35283892334507" lon="11.670298665910206"><ele>109.99999999999999</ele><time>2026-05-01T12:26:14.999Z</time></trkpt><trkpt lat="44.35291949203586" lon="11.670325555228406"><ele>110.0</ele><time>2026-05-01T12:26:15.999Z</time></trkpt><trkpt lat="44.35299636921363" lon="11.670329495231355"><ele>109.57142857142857</ele><time>2026-05-01T12:26:16.999Z</time></trkpt><trkpt lat="44.35306872351213" lon="11.670321173326647"><ele>109.14285714285714</ele><time>2026-05-01T12:26:17.999Z</time></trkpt><trkpt lat="44.35314340420683" lon="11.670315692393917"><ele>108.71428571428572</ele><time>2026-05-01T12:26:18.999Z</time></trkpt><trkpt lat="44.35321762401898" lon="11.670314912219077"><ele>108.28571428571428</ele><time>2026-05-01T12:26:19.999Z</time></trkpt><trkpt lat="44.35329114722088" lon="11.67031335823443"><ele>107.85714285714286</ele><time>2026-05-01T12:26:20.999Z</time></trkpt><trkpt lat="44.353364140586706" lon="11.670310956218383"><ele>107.42857142857143</ele><time>2026-05-01T12:26:21.999Z</time></trkpt><trkpt lat="44.353438563298184" lon="11.670307100387971"><ele>107.0</ele><time>2026-05-01T12:26:22.999Z</time></trkpt><trkpt lat="44.3535115556608" lon="11.670312553552256"><ele>106.99999999999999</ele><time>2026-05-01T12:26:23.999Z</time></trkpt><trkpt lat="44.35358467139871" lon="11.67031698919558"><ele>107.0</ele><time>2026-05-01T12:26:24.999Z</time></trkpt><trkpt lat="44.35366139500316" lon="11.67031543042422"><ele>107.0</ele><time>2026-05-01T12:26:25.999Z</time></trkpt><trkpt lat="44.35373717998172" lon="11.670327175285172"><ele>107.0</ele><time>2026-05-01T12:26:26.999Z</time></trkpt><trkpt lat="44.353814382362096" lon="11.670356170686496"><ele>106.99999999999999</ele><time>2026-05-01T12:26:27.999Z</time></trkpt><trkpt lat="44.35389485781471" lon="11.670398536553199"><ele>107.0</ele><time>2026-05-01T12:26:28.999Z</time></trkpt><trkpt lat="44.35394773115776" lon="11.670488771231064"><ele>106.49999999999999</ele><time>2026-05-01T12:26:29.999Z</time></trkpt><trkpt lat="44.35400713985688" lon="11.670561292980205"><ele>106.0</ele><time>2026-05-01T12:26:30.999Z</time></trkpt><trkpt lat="44.354066057485596" lon="11.67063642368653"><ele>105.5</ele><time>2026-05-01T12:26:31.999Z</time></trkpt><trkpt lat="44.35413416736336" lon="11.67069609412256"><ele>105.0</ele><time>2026-05-01T12:26:32.999Z</time></trkpt><trkpt lat="44.354186738012324" lon="11.67077613503284"><ele>104.49999999999999</ele><time>2026-05-01T12:26:33.999Z</time></trkpt><trkpt lat="44.35424124565018" lon="11.670855696556183"><ele>104.0</ele><time>2026-05-01T12:26:34.999Z</time></trkpt><trkpt lat="44.35429861693807" lon="11.670932205862238"><ele>104.0</ele><time>2026-05-01T12:26:35.999Z</time></trkpt><trkpt lat="44.354353693436806" lon="11.671004622984631"><ele>104.0</ele><time>2026-05-01T12:26:36.999Z</time></trkpt><trkpt lat="44.354406082199986" lon="11.67107773403226"><ele>104.0</ele><time>2026-05-01T12:26:37.999Z</time></trkpt><trkpt lat="44.35445957384967" lon="11.671152942351156"><ele>104.0</ele><time>2026-05-01T12:26:38.999Z</time></trkpt><trkpt lat="44.35451145584424" lon="11.671225946964515"><ele>104.0</ele><time>2026-05-01T12:26:39.999Z</time></trkpt><trkpt lat="44.3545652085716" lon="11.671299222265425"><ele>104.0</ele><time>2026-05-01T12:26:40.999Z</time></trkpt><trkpt lat="44.354619019720595" lon="11.67136793237525"><ele>104.0</ele><time>2026-05-01T12:26:42Z</time></trkpt><trkpt lat="44.35467159752024" lon="11.671436467252155"><ele>103.57142857142857</ele><time>2026-05-01T12:26:43Z</time></trkpt><trkpt lat="44.35472410425723" lon="11.671510483804166"><ele>103.14285714285715</ele><time>2026-05-01T12:26:44Z</time></trkpt><trkpt lat="44.35477653158795" lon="11.671591306414971"><ele>102.71428571428572</ele><time>2026-05-01T12:26:45Z</time></trkpt><trkpt lat="44.35482532788908" lon="11.67166965444529"><ele>102.28571428571428</ele><time>2026-05-01T12:26:46Z</time></trkpt><trkpt lat="44.35487759456815" lon="11.671739950524746"><ele>101.85714285714286</ele><time>2026-05-01T12:26:47Z</time></trkpt><trkpt lat="44.35492824655699" lon="11.67181109269578"><ele>101.42857142857143</ele><time>2026-05-01T12:26:48Z</time></trkpt><trkpt lat="44.35497549652705" lon="11.671883983226774"><ele>101.0</ele><time>2026-05-01T12:26:49Z</time></trkpt><trkpt lat="44.355019341207594" lon="11.671961223646866"><ele>100.71428571428571</ele><time>2026-05-01T12:26:50Z</time></trkpt><trkpt lat="44.3550602564999" lon="11.672042654805761"><ele>100.42857142857142</ele><time>2026-05-01T12:26:51Z</time></trkpt><trkpt lat="44.35509654741941" lon="11.672121117495243"><ele>100.14285714285714</ele><time>2026-05-01T12:26:52Z</time></trkpt><trkpt lat="44.355129591245046" lon="11.672204624094547"><ele>99.85714285714286</ele><time>2026-05-01T12:26:53Z</time></trkpt><trkpt lat="44.355161606569276" lon="11.672289799397245"><ele>99.57142857142857</ele><time>2026-05-01T12:26:54Z</time></trkpt><trkpt lat="44.355194823011146" lon="11.672383606775707"><ele>99.28571428571429</ele><time>2026-05-01T12:26:55Z</time></trkpt><trkpt lat="44.35522808634402" lon="11.672482358853097"><ele>99.0</ele><time>2026-05-01T12:26:56Z</time></trkpt><trkpt lat="44.355259520417896" lon="11.672578678625824"><ele>99.0</ele><time>2026-05-01T12:26:57Z</time></trkpt><trkpt lat="44.35529102609665" lon="11.672677667323734"><ele>99.0</ele><time>2026-05-01T12:26:58Z</time></trkpt><trkpt lat="44.35531871989397" lon="11.672781767871804"><ele>99.0</ele><time>2026-05-01T12:26:59Z</time></trkpt><trkpt lat="44.3553497453554" lon="11.67289170787926"><ele>99.0</ele><time>2026-05-01T12:27:00Z</time></trkpt><trkpt lat="44.35538793527748" lon="11.673004442660309"><ele>99.0</ele><time>2026-05-01T12:27:01Z</time></trkpt><trkpt lat="44.3554217733791" lon="11.67312319365336"><ele>99.0</ele><time>2026-05-01T12:27:02Z</time></trkpt><trkpt lat="44.355458596463606" lon="11.673246362633183"><ele>98.4</ele><time>2026-05-01T12:27:03Z</time></trkpt><trkpt lat="44.35549888448482" lon="11.673373252685645"><ele>97.80000000000001</ele><time>2026-05-01T12:27:04Z</time></trkpt><trkpt lat="44.355540266000524" lon="11.673502152821166"><ele>97.19999999999999</ele><time>2026-05-01T12:27:05Z</time></trkpt><trkpt lat="44.355581518396534" lon="11.673639639111158"><ele>96.6</ele><time>2026-05-01T12:27:06Z</time></trkpt><trkpt lat="44.35562459050224" lon="11.673782362722811"><ele>96.0</ele><time>2026-05-01T12:27:07Z</time></trkpt><trkpt lat="44.35567234213301" lon="11.673925168846367"><ele>93.0</ele><time>2026-05-01T12:27:08Z</time></trkpt><trkpt lat="44.35572452685447" lon="11.674067262178456"><ele>90.0</ele><time>2026-05-01T12:27:09Z</time></trkpt><trkpt lat="44.355775042187354" lon="11.674220013219685"><ele>87.0</ele><time>2026-05-01T12:27:10Z</time></trkpt><trkpt lat="44.35583466176357" lon="11.674365695177556"><ele>84.0</ele><time>2026-05-01T12:27:11Z</time></trkpt><trkpt lat="44.35591067780419" lon="11.674498200609372"><ele>83.0</ele><time>2026-05-01T12:27:12Z</time></trkpt><trkpt lat="44.35600606243696" lon="11.67459626408817"><ele>82.0</ele><time>2026-05-01T12:27:13Z</time></trkpt><trkpt lat="44.35610904565411" lon="11.674681561853703"><ele>81.0</ele><time>2026-05-01T12:27:14Z</time></trkpt><trkpt lat="44.35621476913887" lon="11.674757239121975"><ele>80.0</ele><time>2026-05-01T12:27:15Z</time></trkpt><trkpt lat="44.35631903320258" lon="11.674828626081874"><ele>79.25</ele><time>2026-05-01T12:27:16Z</time></trkpt><trkpt lat="44.35642223793325" lon="11.674900400084509"><ele>78.5</ele><time>2026-05-01T12:27:17Z</time></trkpt><trkpt lat="44.35651629662524" lon="11.67499364057841"><ele>77.75</ele><time>2026-05-01T12:27:18Z</time></trkpt><trkpt lat="44.356624292372416" lon="11.675048247365991"><ele>77.0</ele><time>2026-05-01T12:27:19Z</time></trkpt><trkpt lat="44.356721884661965" lon="11.675125818437765"><ele>77.0</ele><time>2026-05-01T12:27:20Z</time></trkpt><trkpt lat="44.35681857809997" lon="11.675202726283896"><ele>77.0</ele><time>2026-05-01T12:27:21Z</time></trkpt><trkpt lat="44.356897574197724" lon="11.675308197608862"><ele>77.0</ele><time>2026-05-01T12:27:22Z</time></trkpt><trkpt lat="44.35697970459991" lon="11.675404005359878"><ele>77.0</ele><time>2026-05-01T12:27:23Z</time></trkpt><trkpt lat="44.35705293605306" lon="11.675509314434914"><ele>77.0</ele><time>2026-05-01T12:27:24Z</time></trkpt><trkpt lat="44.357117790680896" lon="11.675622404935057"><ele>76.6</ele><time>2026-05-01T12:27:25Z</time></trkpt><trkpt lat="44.357185020533315" lon="11.675737919645336"><ele>76.2</ele><time>2026-05-01T12:27:26Z</time></trkpt><trkpt lat="44.357251463612876" lon="11.67584949718238"><ele>75.8</ele><time>2026-05-01T12:27:27Z</time></trkpt><trkpt lat="44.35732165305077" lon="11.675962701504238"><ele>75.4</ele><time>2026-05-01T12:27:28Z</time></trkpt><trkpt lat="44.35739279497771" lon="11.676070160845551"><ele>75.0</ele><time>2026-05-01T12:27:29Z</time></trkpt><trkpt lat="44.357463750457036" lon="11.676171890966254"><ele>74.2</ele><time>2026-05-01T12:27:30Z</time></trkpt><trkpt lat="44.35754763088142" lon="11.676249011902554"><ele>73.4</ele><time>2026-05-01T12:27:31Z</time></trkpt><trkpt lat="44.357628306184075" lon="11.676335321053319"><ele>72.6</ele><time>2026-05-01T12:27:32Z</time></trkpt><trkpt lat="44.35769554299394" lon="11.676435095375238"><ele>71.8</ele><time>2026-05-01T12:27:33Z</time></trkpt><trkpt lat="44.35777207295825" lon="11.67651544209959"><ele>71.0</ele><time>2026-05-01T12:27:34Z</time></trkpt><trkpt lat="44.357847053090886" lon="11.676594023450798"><ele>71.0</ele><time>2026-05-01T12:27:35Z</time></trkpt><trkpt lat="44.35793034925784" lon="11.676652552817828"><ele>71.0</ele><time>2026-05-01T12:27:36Z</time></trkpt><trkpt lat="44.358000406444944" lon="11.676733276076675"><ele>71.0</ele><time>2026-05-01T12:27:37Z</time></trkpt><trkpt lat="44.3580722956866" lon="11.676809601675629"><ele>71.0</ele><time>2026-05-01T12:27:38Z</time></trkpt><trkpt lat="44.358146375691334" lon="11.676877507819203"><ele>71.0</ele><time>2026-05-01T12:27:39Z</time></trkpt><trkpt lat="44.35821841728101" lon="11.67694952684179"><ele>70.5</ele><time>2026-05-01T12:27:40Z</time></trkpt><trkpt lat="44.358286455059705" lon="11.67702394557855"><ele>70.0</ele><time>2026-05-01T12:27:41Z</time></trkpt><trkpt lat="44.358348911484185" lon="11.677098453143495"><ele>69.5</ele><time>2026-05-01T12:27:42Z</time></trkpt><trkpt lat="44.35840947829694" lon="11.677175409955224"><ele>69.0</ele><time>2026-05-01T12:27:43Z</time></trkpt><trkpt lat="44.358469194109674" lon="11.677246980529299"><ele>68.5</ele><time>2026-05-01T12:27:44Z</time></trkpt><trkpt lat="44.35853019772585" lon="11.677317681761439"><ele>68.0</ele><time>2026-05-01T12:27:45Z</time></trkpt><trkpt lat="44.35858766456886" lon="11.67738629814004"><ele>67.99999999999999</ele><time>2026-05-01T12:27:46Z</time></trkpt><trkpt lat="44.35864310639895" lon="11.677452722503945"><ele>68.0</ele><time>2026-05-01T12:27:47Z</time></trkpt><trkpt lat="44.35869879099184" lon="11.677514195000656"><ele>68.0</ele><time>2026-05-01T12:27:48Z</time></trkpt><trkpt lat="44.35875349301708" lon="11.677573428342459"><ele>68.0</ele><time>2026-05-01T12:27:49Z</time></trkpt><trkpt lat="44.358804827151864" lon="11.677633244606845"><ele>68.0</ele><time>2026-05-01T12:27:50Z</time></trkpt><trkpt lat="44.35885557513441" lon="11.67769401954127"><ele>67.99999999999999</ele><time>2026-05-01T12:27:51Z</time></trkpt><trkpt lat="44.35890643235983" lon="11.67774800956345"><ele>68.0</ele><time>2026-05-01T12:27:52Z</time></trkpt><trkpt lat="44.358946477924555" lon="11.67781894167565"><ele>68.2</ele><time>2026-05-01T12:27:53Z</time></trkpt><trkpt lat="44.358996268687655" lon="11.677875893879856"><ele>68.4</ele><time>2026-05-01T12:27:54Z</time></trkpt><trkpt lat="44.35910121353907" lon="11.677969730490345"><ele>68.60000000000001</ele><time>2026-05-01T12:27:56Z</time></trkpt><trkpt lat="44.35919327488266" lon="11.678070933324754"><ele>68.8</ele><time>2026-05-01T12:27:58Z</time></trkpt><trkpt lat="44.35927438036725" lon="11.678171128931128"><ele>69.0</ele><time>2026-05-01T12:28:00Z</time></trkpt><trkpt lat="44.35936307331607" lon="11.678265446458498"><ele>69.0</ele><time>2026-05-01T12:28:02Z</time></trkpt><trkpt lat="44.359446082342934" lon="11.678357357309931"><ele>69.0</ele><time>2026-05-01T12:28:04Z</time></trkpt><trkpt lat="44.35952127030631" lon="11.678456711757304"><ele>69.0</ele><time>2026-05-01T12:28:06Z</time></trkpt><trkpt lat="44.35959506642119" lon="11.678562425198846"><ele>69.0</ele><time>2026-05-01T12:28:07.999Z</time></trkpt><trkpt lat="44.35966540075026" lon="11.678676909628374"><ele>69.0</ele><time>2026-05-01T12:28:09.999Z</time></trkpt><trkpt lat="44.35973259993861" lon="11.67880577510611"><ele>69.0</ele><time>2026-05-01T12:28:11.999Z</time></trkpt><trkpt lat="44.35979231519451" lon="11.67894077290381"><ele>69.0</ele><time>2026-05-01T12:28:13.999Z</time></trkpt><trkpt lat="44.3598553246402" lon="11.679089944601424"><ele>69.0</ele><time>2026-05-01T12:28:15.999Z</time></trkpt><trkpt lat="44.359901745521654" lon="11.679247981042222"><ele>69.0</ele><time>2026-05-01T12:28:17.999Z</time></trkpt><trkpt lat="44.35993408038355" lon="11.679333483018633"><ele>69.0</ele><time>2026-05-01T12:28:18.999Z</time></trkpt><trkpt lat="44.359976183000974" lon="11.679405575778828"><ele>68.57142857142857</ele><time>2026-05-01T12:28:19.999Z</time></trkpt><trkpt lat="44.35999778389849" lon="11.67948969417503"><ele>68.14285714285715</ele><time>2026-05-01T12:28:20.999Z</time></trkpt><trkpt lat="44.36002446651472" lon="11.679575076044046"><ele>67.71428571428572</ele><time>2026-05-01T12:28:21.999Z</time></trkpt><trkpt lat="44.3600314072193" lon="11.67966824407857"><ele>67.28571428571429</ele><time>2026-05-01T12:28:22.999Z</time></trkpt><trkpt lat="44.360049458136395" lon="11.679755590164817"><ele>66.85714285714286</ele><time>2026-05-01T12:28:23.999Z</time></trkpt><trkpt lat="44.36006573929331" lon="11.679845054704266"><ele>66.42857142857143</ele><time>2026-05-01T12:28:24.999Z</time></trkpt><trkpt lat="44.36007774696304" lon="11.6799321856927"><ele>66.0</ele><time>2026-05-01T12:28:25.999Z</time></trkpt><trkpt lat="44.3600877775147" lon="11.680025846587995"><ele>66.0</ele><time>2026-05-01T12:28:26.999Z</time></trkpt><trkpt lat="44.360095356085125" lon="11.680119965643627"><ele>66.0</ele><time>2026-05-01T12:28:27.999Z</time></trkpt><trkpt lat="44.360103074706316" lon="11.68021773468524"><ele>66.0</ele><time>2026-05-01T12:28:28.999Z</time></trkpt><trkpt lat="44.36012847931237" lon="11.680313237907006"><ele>66.0</ele><time>2026-05-01T12:28:29.999Z</time></trkpt><trkpt lat="44.360136015981276" lon="11.680408922724178"><ele>66.0</ele><time>2026-05-01T12:28:30.999Z</time></trkpt><trkpt lat="44.36014929258958" lon="11.68050515314535"><ele>66.0</ele><time>2026-05-01T12:28:31.999Z</time></trkpt><trkpt lat="44.36016628747262" lon="11.68060105674672"><ele>66.0</ele><time>2026-05-01T12:28:32.999Z</time></trkpt><trkpt lat="44.360187244279764" lon="11.68069266443363"><ele>65.85714285714286</ele><time>2026-05-01T12:28:33.999Z</time></trkpt><trkpt lat="44.3602134045029" lon="11.680785640572271"><ele>65.71428571428572</ele><time>2026-05-01T12:28:34.999Z</time></trkpt><trkpt lat="44.360243038793605" lon="11.68087786001194"><ele>65.57142857142858</ele><time>2026-05-01T12:28:35.999Z</time></trkpt><trkpt lat="44.360270175236" lon="11.68097257568136"><ele>65.42857142857143</ele><time>2026-05-01T12:28:36.999Z</time></trkpt><trkpt lat="44.3602980130026" lon="11.681063356126995"><ele>65.28571428571429</ele><time>2026-05-01T12:28:37.999Z</time></trkpt><trkpt lat="44.36032017914537" lon="11.681161590161414"><ele>65.14285714285715</ele><time>2026-05-01T12:28:38.999Z</time></trkpt><trkpt lat="44.360342120720475" lon="11.681259433270517"><ele>65.0</ele><time>2026-05-01T12:28:39.999Z</time></trkpt><trkpt lat="44.360357697505044" lon="11.68136089088148"><ele>64.71428571428572</ele><time>2026-05-01T12:28:40.999Z</time></trkpt><trkpt lat="44.36037156694078" lon="11.681461139014292"><ele>64.42857142857143</ele><time>2026-05-01T12:28:41.999Z</time></trkpt><trkpt lat="44.36037777897253" lon="11.681562818923032"><ele>64.14285714285714</ele><time>2026-05-01T12:28:42.999Z</time></trkpt><trkpt lat="44.360383220186186" lon="11.681666127953092"><ele>63.85714285714286</ele><time>2026-05-01T12:28:43.999Z</time></trkpt><trkpt lat="44.36038747622964" lon="11.681763369404639"><ele>63.57142857142857</ele><time>2026-05-01T12:28:44.999Z</time></trkpt><trkpt lat="44.36038977352132" lon="11.681866910248251"><ele>63.285714285714285</ele><time>2026-05-01T12:28:45.999Z</time></trkpt><trkpt lat="44.36039116348795" lon="11.68196670758227"><ele>63.0</ele><time>2026-05-01T12:28:46.999Z</time></trkpt><trkpt lat="44.36038699161599" lon="11.68207267940288"><ele>63.0</ele><time>2026-05-01T12:28:48Z</time></trkpt><trkpt lat="44.3603759610903" lon="11.68217561292527"><ele>63.0</ele><time>2026-05-01T12:28:49Z</time></trkpt><trkpt lat="44.36035984964784" lon="11.68227593220543"><ele>63.0</ele><time>2026-05-01T12:28:50Z</time></trkpt><trkpt lat="44.360338034366556" lon="11.68237677903759"><ele>63.0</ele><time>2026-05-01T12:28:51Z</time></trkpt><trkpt lat="44.36031814825567" lon="11.682477164550926"><ele>63.0</ele><time>2026-05-01T12:28:52Z</time></trkpt><trkpt lat="44.36029322872499" lon="11.682577925364775"><ele>63.0</ele><time>2026-05-01T12:28:53Z</time></trkpt><trkpt lat="44.36026749148573" lon="11.6826754011669"><ele>63.0</ele><time>2026-05-01T12:28:54Z</time></trkpt><trkpt lat="44.36024390660401" lon="11.682769294567024"><ele>63.166666666666664</ele><time>2026-05-01T12:28:55Z</time></trkpt><trkpt lat="44.36021819015636" lon="11.682866798926426"><ele>63.33333333333333</ele><time>2026-05-01T12:28:56Z</time></trkpt><trkpt lat="44.3601943297379" lon="11.682966198016956"><ele>63.5</ele><time>2026-05-01T12:28:57Z</time></trkpt><trkpt lat="44.3601691714398" lon="11.68306035768424"><ele>63.666666666666664</ele><time>2026-05-01T12:28:58Z</time></trkpt><trkpt lat="44.36013677936182" lon="11.683161698483717"><ele>63.83333333333333</ele><time>2026-05-01T12:28:59Z</time></trkpt><trkpt lat="44.36010694300446" lon="11.683258404018707"><ele>64.0</ele><time>2026-05-01T12:29:00Z</time></trkpt><trkpt lat="44.36007546917381" lon="11.683361459212678"><ele>63.99999999999999</ele><time>2026-05-01T12:29:01Z</time></trkpt><trkpt lat="44.36004380824264" lon="11.68346103598866"><ele>64.0</ele><time>2026-05-01T12:29:02Z</time></trkpt><trkpt lat="44.36001492569169" lon="11.683569973106227"><ele>64.0</ele><time>2026-05-01T12:29:03Z</time></trkpt><trkpt lat="44.35998983996425" lon="11.683675967482948"><ele>64.0</ele><time>2026-05-01T12:29:04Z</time></trkpt><trkpt lat="44.35996297410842" lon="11.683781951541425"><ele>63.99999999999999</ele><time>2026-05-01T12:29:05Z</time></trkpt><trkpt lat="44.35994346265345" lon="11.683888794996692"><ele>64.0</ele><time>2026-05-01T12:29:06Z</time></trkpt><trkpt lat="44.359930830761755" lon="11.683992929425496"><ele>63.857142857142854</ele><time>2026-05-01T12:29:07Z</time></trkpt><trkpt lat="44.35992284021619" lon="11.684094682110302"><ele>63.71428571428571</ele><time>2026-05-01T12:29:08Z</time></trkpt><trkpt lat="44.35991726414709" lon="11.684197262843695"><ele>63.57142857142857</ele><time>2026-05-01T12:29:09Z</time></trkpt><trkpt lat="44.35991560297785" lon="11.684300028684918"><ele>63.42857142857143</ele><time>2026-05-01T12:29:10Z</time></trkpt><trkpt lat="44.35991787630951" lon="11.684402313024183"><ele>63.285714285714285</ele><time>2026-05-01T12:29:11Z</time></trkpt><trkpt lat="44.35992789974479" lon="11.684500899585757"><ele>63.14285714285714</ele><time>2026-05-01T12:29:12Z</time></trkpt><trkpt lat="44.35993845773897" lon="11.684597479329433"><ele>63.0</ele><time>2026-05-01T12:29:13Z</time></trkpt><trkpt lat="44.359950606233575" lon="11.68469149225041"><ele>62.833333333333336</ele><time>2026-05-01T12:29:14Z</time></trkpt><trkpt lat="44.35994567217401" lon="11.684786402901366"><ele>62.66666666666667</ele><time>2026-05-01T12:29:15Z</time></trkpt><trkpt lat="44.35995564438777" lon="11.684875330990689"><ele>62.5</ele><time>2026-05-01T12:29:16Z</time></trkpt><trkpt lat="44.359979886644034" lon="11.68496035015238"><ele>62.333333333333336</ele><time>2026-05-01T12:29:17Z</time></trkpt><trkpt lat="44.36000021956239" lon="11.685131616091356"><ele>62.16666666666667</ele><time>2026-05-01T12:29:19Z</time></trkpt><trkpt lat="44.36000579220397" lon="11.685291492015349"><ele>62.0</ele><time>2026-05-01T12:29:21Z</time></trkpt><trkpt lat="44.36002338672099" lon="11.685437208854282"><ele>62.0</ele><time>2026-05-01T12:29:23Z</time></trkpt><trkpt lat="44.360040305679654" lon="11.685577330526005"><ele>62.0</ele><time>2026-05-01T12:29:25Z</time></trkpt><trkpt lat="44.360056930318244" lon="11.685715014841584"><ele>62.0</ele><time>2026-05-01T12:29:27Z</time></trkpt><trkpt lat="44.36007370179003" lon="11.685853915094079"><ele>62.0</ele><time>2026-05-01T12:29:29Z</time></trkpt><trkpt lat="44.36009116296792" lon="11.685998527476919"><ele>62.0</ele><time>2026-05-01T12:29:31Z</time></trkpt><trkpt lat="44.36010758146577" lon="11.686149496480283"><ele>61.8</ele><time>2026-05-01T12:29:33Z</time></trkpt><trkpt lat="44.36012238300537" lon="11.68630134282372"><ele>61.6</ele><time>2026-05-01T12:29:35Z</time></trkpt><trkpt lat="44.36013451727305" lon="11.68645276630961"><ele>61.39999999999999</ele><time>2026-05-01T12:29:37Z</time></trkpt><trkpt lat="44.36014000954451" lon="11.686608914949806"><ele>61.199999999999996</ele><time>2026-05-01T12:29:39Z</time></trkpt><trkpt lat="44.36016121673885" lon="11.68676277436745"><ele>61.0</ele><time>2026-05-01T12:29:41Z</time></trkpt><trkpt lat="44.36016889631318" lon="11.68691380882915"><ele>61.199999999999996</ele><time>2026-05-01T12:29:43Z</time></trkpt><trkpt lat="44.36017522181434" lon="11.687068553510073"><ele>61.39999999999999</ele><time>2026-05-01T12:29:45Z</time></trkpt><trkpt lat="44.360180722285534" lon="11.68721918162372"><ele>61.6</ele><time>2026-05-01T12:29:47Z</time></trkpt><trkpt lat="44.36018723393056" lon="11.6873710967735"><ele>61.8</ele><time>2026-05-01T12:29:49Z</time></trkpt><trkpt lat="44.360192525779695" lon="11.687525933074104"><ele>62.0</ele><time>2026-05-01T12:29:51Z</time></trkpt><trkpt lat="44.36020338484808" lon="11.687685023423139"><ele>61.2</ele><time>2026-05-01T12:29:53Z</time></trkpt><trkpt lat="44.36020660415634" lon="11.6878457341494"><ele>60.400000000000006</ele><time>2026-05-01T12:29:55Z</time></trkpt><trkpt lat="44.36021522630685" lon="11.688002751128428"><ele>59.599999999999994</ele><time>2026-05-01T12:29:57Z</time></trkpt><trkpt lat="44.36022182173902" lon="11.68815035127138"><ele>58.8</ele><time>2026-05-01T12:29:59Z</time></trkpt><trkpt lat="44.36022152091493" lon="11.688293076811796"><ele>58.0</ele><time>2026-05-01T12:30:01Z</time></trkpt><trkpt lat="44.36021972403805" lon="11.688428403243076"><ele>58.0</ele><time>2026-05-01T12:30:03Z</time></trkpt><trkpt lat="44.360213189579326" lon="11.688567289996062"><ele>58.0</ele><time>2026-05-01T12:30:05Z</time></trkpt><trkpt lat="44.36020605286416" lon="11.688710940052104"><ele>58.0</ele><time>2026-05-01T12:30:07Z</time></trkpt><trkpt lat="44.360188506091504" lon="11.688860322541021"><ele>58.0</ele><time>2026-05-01T12:30:09Z</time></trkpt><trkpt lat="44.36017360536594" lon="11.689017752986224"><ele>58.0</ele><time>2026-05-01T12:30:11Z</time></trkpt><trkpt lat="44.360146409821766" lon="11.689180376462476"><ele>57.49999999999999</ele><time>2026-05-01T12:30:13Z</time></trkpt><trkpt lat="44.36018288073898" lon="11.689342085832344"><ele>57.0</ele><time>2026-05-01T12:30:14.999Z</time></trkpt><trkpt lat="44.36021670084273" lon="11.689421972380533"><ele>56.5</ele><time>2026-05-01T12:30:15.999Z</time></trkpt><trkpt lat="44.3602423934761" lon="11.689510706241578"><ele>56.0</ele><time>2026-05-01T12:30:16.999Z</time></trkpt><trkpt lat="44.360247299090034" lon="11.689608707175845"><ele>55.49999999999999</ele><time>2026-05-01T12:30:17.999Z</time></trkpt><trkpt lat="44.36023491213098" lon="11.68970609801477"><ele>55.0</ele><time>2026-05-01T12:30:18.999Z</time></trkpt><trkpt lat="44.360221844154765" lon="11.689802841716649"><ele>54.99999999999999</ele><time>2026-05-01T12:30:19.999Z</time></trkpt><trkpt lat="44.360206881358266" lon="11.68989464733799"><ele>55.0</ele><time>2026-05-01T12:30:20.999Z</time></trkpt><trkpt lat="44.36018429735509" lon="11.689983857107434"><ele>55.0</ele><time>2026-05-01T12:30:21.999Z</time></trkpt><trkpt lat="44.36015531671983" lon="11.690068688197616"><ele>55.0</ele><time>2026-05-01T12:30:22.999Z</time></trkpt><trkpt lat="44.360125974616096" lon="11.690150141829344"><ele>55.0</ele><time>2026-05-01T12:30:23.999Z</time></trkpt><trkpt lat="44.3600728615247" lon="11.690287705427599"><ele>54.99999999999999</ele><time>2026-05-01T12:30:25.999Z</time></trkpt><trkpt lat="44.36001271024096" lon="11.690336706770498"><ele>55.0</ele><time>2026-05-01T12:30:27.999Z</time></trkpt><trkpt lat="44.35994713224932" lon="11.69033297145416"><ele>54.99999999999999</ele><time>2026-05-01T12:30:29.999Z</time></trkpt><trkpt lat="44.35988047773746" lon="11.690315648378256"><ele>55.0</ele><time>2026-05-01T12:30:32.999Z</time></trkpt><trkpt lat="44.359794717426944" lon="11.690295213847223"><ele>55.0</ele><time>2026-05-01T12:31:11Z</time></trkpt><trkpt lat="44.35973143463961" lon="11.690246170784722"><ele>55.0</ele><time>2026-05-01T12:31:13Z</time></trkpt><trkpt lat="44.3596717463016" lon="11.690180899636596"><ele>54.99999999999999</ele><time>2026-05-01T12:31:15Z</time></trkpt><trkpt lat="44.35959493337185" lon="11.690151588475436"><ele>55.0</ele><time>2026-05-01T12:31:17Z</time></trkpt><trkpt lat="44.35950986423397" lon="11.690204687800726"><ele>55.2</ele><time>2026-05-01T12:31:19Z</time></trkpt><trkpt lat="44.359444949474415" lon="11.69029752188448"><ele>55.4</ele><time>2026-05-01T12:31:21Z</time></trkpt><trkpt lat="44.35936106033307" lon="11.69037578585231"><ele>55.599999999999994</ele><time>2026-05-01T12:31:23Z</time></trkpt><trkpt lat="44.35927974180833" lon="11.690472384999405"><ele>55.8</ele><time>2026-05-01T12:31:25Z</time></trkpt><trkpt lat="44.3592076249536" lon="11.690581130696089"><ele>56.0</ele><time>2026-05-01T12:31:27Z</time></trkpt><trkpt lat="44.35912348804139" lon="11.690685004737299"><ele>56.00000000000001</ele><time>2026-05-01T12:31:29Z</time></trkpt><trkpt lat="44.359054733890886" lon="11.690742947393112"><ele>56.0</ele><time>2026-05-01T12:31:31Z</time></trkpt><trkpt lat="44.35895621763865" lon="11.69078176720934"><ele>56.0</ele><time>2026-05-01T12:31:33Z</time></trkpt><trkpt lat="44.35887909702714" lon="11.6908122019165"><ele>56.0</ele><time>2026-05-01T12:31:35Z</time></trkpt><trkpt lat="44.358790723717775" lon="11.690798669832024"><ele>56.00000000000001</ele><time>2026-05-01T12:31:37Z</time></trkpt><trkpt lat="44.35870497464705" lon="11.690766781278722"><ele>56.0</ele><time>2026-05-01T12:31:39Z</time></trkpt><trkpt lat="44.35862990239048" lon="11.6907249528004"><ele>55.857142857142854</ele><time>2026-05-01T12:31:41Z</time></trkpt><trkpt lat="44.3585695175843" lon="11.690689227037875"><ele>55.714285714285715</ele><time>2026-05-01T12:31:43Z</time></trkpt><trkpt lat="44.358512714142456" lon="11.690646332631173"><ele>55.57142857142857</ele><time>2026-05-01T12:31:45Z</time></trkpt><trkpt lat="44.35846336081667" lon="11.690584351523599"><ele>55.42857142857143</ele><time>2026-05-01T12:31:47Z</time></trkpt><trkpt lat="44.358412763386376" lon="11.690529544312843"><ele>55.285714285714285</ele><time>2026-05-01T12:31:49Z</time></trkpt><trkpt lat="44.35835686833148" lon="11.690477413515463"><ele>55.14285714285714</ele><time>2026-05-01T12:31:51Z</time></trkpt><trkpt lat="44.35829716763502" lon="11.69044532948448"><ele>55.0</ele><time>2026-05-01T12:31:53Z</time></trkpt><trkpt lat="44.35821220411709" lon="11.690408521757362"><ele>54.99999999999999</ele><time>2026-05-01T12:31:56Z</time></trkpt><trkpt lat="44.35814265432583" lon="11.690323870605349"><ele>55.0</ele><time>2026-05-01T12:31:59Z</time></trkpt><trkpt lat="44.35810029618651" lon="11.69025749768396"><ele>55.0</ele><time>2026-05-01T12:32:01Z</time></trkpt><trkpt lat="44.35802552455594" lon="11.69017440424646"><ele>55.0</ele><time>2026-05-01T12:40:14Z</time></trkpt><trkpt lat="44.357964489229055" lon="11.690140573726008"><ele>54.99999999999999</ele><time>2026-05-01T12:40:19Z</time></trkpt><trkpt lat="44.35788519997644" lon="11.690077224307371"><ele>55.0</ele><time>2026-05-01T12:40:22Z</time></trkpt><trkpt lat="44.35782653409172" lon="11.690034251732254"><ele>54.83333333333333</ele><time>2026-05-01T12:40:24Z</time></trkpt><trkpt lat="44.35775740238292" lon="11.689990582040535"><ele>54.666666666666664</ele><time>2026-05-01T12:40:26Z</time></trkpt><trkpt lat="44.35768101580121" lon="11.689941685860564"><ele>54.5</ele><time>2026-05-01T12:40:28Z</time></trkpt><trkpt lat="44.35761510980347" lon="11.689887955916625"><ele>54.33333333333333</ele><time>2026-05-01T12:40:30Z</time></trkpt><trkpt lat="44.35753406558358" lon="11.689834810094824"><ele>54.166666666666664</ele><time>2026-05-01T12:40:31.999Z</time></trkpt><trkpt lat="44.35746240232262" lon="11.689785496987675"><ele>54.0</ele><time>2026-05-01T12:40:33.999Z</time></trkpt><trkpt lat="44.35738314408994" lon="11.689721134883438"><ele>54.0</ele><time>2026-05-01T12:40:35.999Z</time></trkpt><trkpt lat="44.357306739908665" lon="11.689660207484534"><ele>54.0</ele><time>2026-05-01T12:40:37.999Z</time></trkpt><trkpt lat="44.357232923093406" lon="11.689596285129925"><ele>54.0</ele><time>2026-05-01T12:40:39.999Z</time></trkpt><trkpt lat="44.35715910069807" lon="11.68954540994846"><ele>54.0</ele><time>2026-05-01T12:40:41.999Z</time></trkpt><trkpt lat="44.357088398756545" lon="11.689469326199793"><ele>54.0</ele><time>2026-05-01T12:40:43.999Z</time></trkpt><trkpt lat="44.357018360322726" lon="11.689367098986734"><ele>54.0</ele><time>2026-05-01T12:40:45.999Z</time></trkpt><trkpt lat="44.3569411378354" lon="11.689307906129676"><ele>53.800000000000004</ele><time>2026-05-01T12:40:47.999Z</time></trkpt><trkpt lat="44.35684793353985" lon="11.689260837117475"><ele>53.60000000000001</ele><time>2026-05-01T12:40:49.999Z</time></trkpt><trkpt lat="44.356780210121414" lon="11.689204976384637"><ele>53.4</ele><time>2026-05-01T12:40:51.999Z</time></trkpt><trkpt lat="44.356671523994166" lon="11.689135468728322"><ele>53.2</ele><time>2026-05-01T12:40:53.999Z</time></trkpt><trkpt lat="44.35657545951805" lon="11.689063550280625"><ele>53.0</ele><time>2026-05-01T12:40:55.999Z</time></trkpt><trkpt lat="44.3564806333902" lon="11.68899077364208"><ele>53.0</ele><time>2026-05-01T12:40:57.999Z</time></trkpt><trkpt lat="44.35637897935859" lon="11.688951319585227"><ele>53.0</ele><time>2026-05-01T12:40:59.999Z</time></trkpt><trkpt lat="44.356283763729444" lon="11.688880047692948"><ele>53.0</ele><time>2026-05-01T12:41:01.999Z</time></trkpt><trkpt lat="44.35619313955292" lon="11.688812212608159"><ele>53.0</ele><time>2026-05-01T12:41:03.999Z</time></trkpt><trkpt lat="44.356097449744624" lon="11.688740587198799"><ele>53.0</ele><time>2026-05-01T12:41:05.999Z</time></trkpt><trkpt lat="44.35601787736248" lon="11.688681027977369"><ele>53.2</ele><time>2026-05-01T12:41:07.999Z</time></trkpt><trkpt lat="44.35592730046386" lon="11.688608303170584"><ele>53.4</ele><time>2026-05-01T12:41:09.999Z</time></trkpt><trkpt lat="44.35583649526751" lon="11.688542194597218"><ele>53.60000000000001</ele><time>2026-05-01T12:41:11.999Z</time></trkpt><trkpt lat="44.35574771013528" lon="11.688482971902129"><ele>53.800000000000004</ele><time>2026-05-01T12:41:13.999Z</time></trkpt><trkpt lat="44.35565691493828" lon="11.68843156927571"><ele>54.0</ele><time>2026-05-01T12:41:15.999Z</time></trkpt><trkpt lat="44.35556594180185" lon="11.688397444291503"><ele>53.666666666666664</ele><time>2026-05-01T12:41:17.999Z</time></trkpt><trkpt lat="44.35547539532162" lon="11.688372073861883"><ele>53.33333333333333</ele><time>2026-05-01T12:41:19.999Z</time></trkpt><trkpt lat="44.35538782893616" lon="11.688349268095013"><ele>53.0</ele><time>2026-05-01T12:41:21.999Z</time></trkpt><trkpt lat="44.35530976327584" lon="11.688290220543601"><ele>52.666666666666664</ele><time>2026-05-01T12:41:24Z</time></trkpt><trkpt lat="44.35522586865935" lon="11.688263176808851"><ele>52.33333333333333</ele><time>2026-05-01T12:41:26Z</time></trkpt><trkpt lat="44.35514275595202" lon="11.68823965651367"><ele>52.0</ele><time>2026-05-01T12:41:28Z</time></trkpt><trkpt lat="44.355057909516304" lon="11.688213529554528"><ele>52.0</ele><time>2026-05-01T12:41:30Z</time></trkpt><trkpt lat="44.35497667059104" lon="11.688193944521453"><ele>52.0</ele><time>2026-05-01T12:41:32Z</time></trkpt><trkpt lat="44.354904611905354" lon="11.688170826951948"><ele>52.0</ele><time>2026-05-01T12:41:34Z</time></trkpt><trkpt lat="44.35482956571927" lon="11.688148346586102"><ele>52.0</ele><time>2026-05-01T12:41:36Z</time></trkpt><trkpt lat="44.354766837947196" lon="11.688132273995038"><ele>52.0</ele><time>2026-05-01T12:41:38Z</time></trkpt><trkpt lat="44.35470140464423" lon="11.688110625187702"><ele>52.0</ele><time>2026-05-01T12:41:40Z</time></trkpt><trkpt lat="44.35462464007415" lon="11.68809208687463"><ele>52.0</ele><time>2026-05-01T12:41:43Z</time></trkpt><trkpt lat="44.354562834728775" lon="11.688064736184376"><ele>52.285714285714285</ele><time>2026-05-01T12:41:45Z</time></trkpt><trkpt lat="44.35449606455308" lon="11.688069933244671"><ele>52.57142857142858</ele><time>2026-05-01T12:41:48Z</time></trkpt><trkpt lat="44.35442883425164" lon="11.688088164153557"><ele>52.85714285714286</ele><time>2026-05-01T12:41:51Z</time></trkpt><trkpt lat="44.354362593065225" lon="11.688040795044678"><ele>53.14285714285714</ele><time>2026-05-01T12:41:53Z</time></trkpt><trkpt lat="44.35429889155925" lon="11.68799680339481"><ele>53.42857142857143</ele><time>2026-05-01T12:41:55Z</time></trkpt><trkpt lat="44.354232192504725" lon="11.687960713333892"><ele>53.714285714285715</ele><time>2026-05-01T12:41:57Z</time></trkpt><trkpt lat="44.354175962863714" lon="11.687920939864588"><ele>54.0</ele><time>2026-05-01T12:41:59Z</time></trkpt><trkpt lat="44.35411408761856" lon="11.687866162992913"><ele>54.0</ele><time>2026-05-01T12:42:01Z</time></trkpt><trkpt lat="44.35405864780781" lon="11.687810359614126"><ele>54.0</ele><time>2026-05-01T12:42:03Z</time></trkpt><trkpt lat="44.3539922891499" lon="11.687763232646502"><ele>54.0</ele><time>2026-05-01T12:42:05Z</time></trkpt><trkpt lat="44.353923638001234" lon="11.687713019618732"><ele>54.0</ele><time>2026-05-01T12:42:07Z</time></trkpt><trkpt lat="44.353851794405834" lon="11.687661104536135"><ele>54.0</ele><time>2026-05-01T12:42:09Z</time></trkpt><trkpt lat="44.353775931151084" lon="11.68760993990021"><ele>54.0</ele><time>2026-05-01T12:42:11Z</time></trkpt><trkpt lat="44.35370127897654" lon="11.687556948374988"><ele>54.166666666666664</ele><time>2026-05-01T12:42:13Z</time></trkpt><trkpt lat="44.35362927058893" lon="11.687502271866297"><ele>54.33333333333333</ele><time>2026-05-01T12:42:15Z</time></trkpt><trkpt lat="44.35356283506749" lon="11.687453962716603"><ele>54.5</ele><time>2026-05-01T12:42:17Z</time></trkpt><trkpt lat="44.35350189834394" lon="11.687403150843814"><ele>54.666666666666664</ele><time>2026-05-01T12:42:19Z</time></trkpt><trkpt lat="44.35343627617375" lon="11.687354707893121"><ele>54.83333333333333</ele><time>2026-05-01T12:42:22Z</time></trkpt><trkpt lat="44.35336332827618" lon="11.687318734423114"><ele>55.0</ele><time>2026-05-01T12:42:27Z</time></trkpt><trkpt lat="44.353322555136465" lon="11.687400915917443"><ele>54.99999999999999</ele><time>2026-05-01T12:42:30Z</time></trkpt><trkpt lat="44.3532621430094" lon="11.687440650108437"><ele>55.0</ele><time>2026-05-01T12:42:33Z</time></trkpt><trkpt lat="44.353206923510136" lon="11.6873612306413"><ele>55.0</ele><time>2026-05-01T12:42:37Z</time></trkpt><trkpt lat="44.353141086796924" lon="11.687319917425027"><ele>55.0</ele><time>2026-05-01T12:42:39Z</time></trkpt><trkpt lat="44.35306841493326" lon="11.687280649246832"><ele>54.99999999999999</ele><time>2026-05-01T12:42:41Z</time></trkpt><trkpt lat="44.35299386625534" lon="11.687251915848323"><ele>55.0</ele><time>2026-05-01T12:42:43Z</time></trkpt><trkpt lat="44.35291572365301" lon="11.687221750407906"><ele>54.99999999999999</ele><time>2026-05-01T12:42:45Z</time></trkpt><trkpt lat="44.35283520420032" lon="11.687191961014364"><ele>55.0</ele><time>2026-05-01T12:42:47Z</time></trkpt><trkpt lat="44.352748334035994" lon="11.687210339941604"><ele>55.0</ele><time>2026-05-01T12:42:48.999Z</time></trkpt><trkpt lat="44.352671099020945" lon="11.68725279209178"><ele>55.0</ele><time>2026-05-01T12:42:50.999Z</time></trkpt><trkpt lat="44.35258725645706" lon="11.687270084889452"><ele>54.99999999999999</ele><time>2026-05-01T12:42:52.999Z</time></trkpt><trkpt lat="44.352521278545105" lon="11.687380570797476"><ele>55.0</ele><time>2026-05-01T12:42:54.999Z</time></trkpt><trkpt lat="44.3524719349174" lon="11.68750242004591"><ele>55.0</ele><time>2026-05-01T12:42:56.999Z</time></trkpt><trkpt lat="44.352416736282294" lon="11.687609311142042"><ele>55.0</ele><time>2026-05-01T12:42:58.999Z</time></trkpt><trkpt lat="44.352367420911584" lon="11.68771952600286"><ele>55.0</ele><time>2026-05-01T12:43:00.999Z</time></trkpt><trkpt lat="44.35231407928434" lon="11.687819275835716"><ele>55.0</ele><time>2026-05-01T12:43:02.999Z</time></trkpt><trkpt lat="44.35226468672314" lon="11.687919810464571"><ele>55.0</ele><time>2026-05-01T12:43:04.999Z</time></trkpt><trkpt lat="44.35221529703944" lon="11.688026458057163"><ele>55.0</ele><time>2026-05-01T12:43:06.999Z</time></trkpt><trkpt lat="44.35215944936093" lon="11.688149938537313"><ele>55.0</ele><time>2026-05-01T12:43:08.999Z</time></trkpt><trkpt lat="44.35210658890217" lon="11.688277069938362"><ele>55.0</ele><time>2026-05-01T12:43:10.999Z</time></trkpt><trkpt lat="44.35205581421424" lon="11.68841698455164"><ele>55.0</ele><time>2026-05-01T12:43:12.999Z</time></trkpt><trkpt lat="44.351999630552065" lon="11.688543154446862"><ele>55.0</ele><time>2026-05-01T12:43:14.999Z</time></trkpt><trkpt lat="44.351939057050764" lon="11.688658207557"><ele>54.8</ele><time>2026-05-01T12:43:16.999Z</time></trkpt><trkpt lat="44.351880214578635" lon="11.688782039331352"><ele>54.6</ele><time>2026-05-01T12:43:18.999Z</time></trkpt><trkpt lat="44.351828191946076" lon="11.688915993301475"><ele>54.400000000000006</ele><time>2026-05-01T12:43:20.999Z</time></trkpt><trkpt lat="44.351767015899696" lon="11.689030800541824"><ele>54.2</ele><time>2026-05-01T12:43:22.999Z</time></trkpt><trkpt lat="44.351712826948834" lon="11.689145545476064"><ele>54.0</ele><time>2026-05-01T12:43:24.999Z</time></trkpt><trkpt lat="44.35166225877955" lon="11.689269689075202"><ele>54.0</ele><time>2026-05-01T12:43:26.999Z</time></trkpt><trkpt lat="44.3516054249403" lon="11.689386880044188"><ele>54.00000000000001</ele><time>2026-05-01T12:43:28.999Z</time></trkpt><trkpt lat="44.351549518163495" lon="11.68951373347043"><ele>54.00000000000001</ele><time>2026-05-01T12:43:31Z</time></trkpt><trkpt lat="44.35149698758757" lon="11.689632922326185"><ele>54.0</ele><time>2026-05-01T12:43:33Z</time></trkpt><trkpt lat="44.351462165870224" lon="11.689751603408418"><ele>54.0</ele><time>2026-05-01T12:43:35Z</time></trkpt><trkpt lat="44.35142042420296" lon="11.689854528980822"><ele>54.14285714285714</ele><time>2026-05-01T12:43:37Z</time></trkpt><trkpt lat="44.351371055086" lon="11.689937598886804"><ele>54.285714285714285</ele><time>2026-05-01T12:43:39Z</time></trkpt><trkpt lat="44.351297424885814" lon="11.68993088015804"><ele>54.42857142857143</ele><time>2026-05-01T12:43:43Z</time></trkpt><trkpt lat="44.35123269514677" lon="11.689969677373037"><ele>54.57142857142857</ele><time>2026-05-01T12:48:03Z</time></trkpt><trkpt lat="44.3511782121821" lon="11.689919618381655"><ele>54.714285714285715</ele><time>2026-05-01T12:48:09Z</time></trkpt><trkpt lat="44.35111636763468" lon="11.689874950925532"><ele>54.857142857142854</ele><time>2026-05-01T12:48:13Z</time></trkpt><trkpt lat="44.35106298829207" lon="11.689802908627064"><ele>55.0</ele><time>2026-05-01T12:48:17Z</time></trkpt><trkpt lat="44.35100478397226" lon="11.689747189732765"><ele>54.99999999999999</ele><time>2026-05-01T12:48:20Z</time></trkpt><trkpt lat="44.350923630788394" lon="11.689697525197944"><ele>55.0</ele><time>2026-05-01T12:48:23Z</time></trkpt><trkpt lat="44.35087041399832" lon="11.689642967479388"><ele>55.0</ele><time>2026-05-01T12:48:25Z</time></trkpt><trkpt lat="44.35079080361527" lon="11.689595980976968"><ele>55.0</ele><time>2026-05-01T12:48:28Z</time></trkpt><trkpt lat="44.35072539522145" lon="11.689553493852445"><ele>54.99999999999999</ele><time>2026-05-01T12:48:30Z</time></trkpt><trkpt lat="44.35066611129599" lon="11.68949520801074"><ele>55.0</ele><time>2026-05-01T12:48:32Z</time></trkpt><trkpt lat="44.350601779495015" lon="11.6893958259382"><ele>54.666666666666664</ele><time>2026-05-01T12:48:35Z</time></trkpt><trkpt lat="44.350527811416356" lon="11.689324689801662"><ele>54.33333333333333</ele><time>2026-05-01T12:48:38Z</time></trkpt><trkpt lat="44.350456725908415" lon="11.689255750056969"><ele>54.0</ele><time>2026-05-01T12:48:41Z</time></trkpt><trkpt lat="44.35038923349167" lon="11.689182895339094"><ele>53.66666666666667</ele><time>2026-05-01T12:48:44Z</time></trkpt><trkpt lat="44.35032828811613" lon="11.689150520716934"><ele>53.333333333333336</ele><time>2026-05-01T12:48:46Z</time></trkpt><trkpt lat="44.35027375401923" lon="11.689103613903923"><ele>53.0</ele><time>2026-05-01T12:48:48Z</time></trkpt><trkpt lat="44.35021593406206" lon="11.689048024705901"><ele>53.0</ele><time>2026-05-01T12:48:50Z</time></trkpt><trkpt lat="44.350147699514245" lon="11.688989048655602"><ele>53.0</ele><time>2026-05-01T12:48:52Z</time></trkpt><trkpt lat="44.350087650862825" lon="11.688941067847903"><ele>53.0</ele><time>2026-05-01T12:48:54Z</time></trkpt><trkpt lat="44.35002816843462" lon="11.68889404797127"><ele>53.0</ele><time>2026-05-01T12:48:56Z</time></trkpt><trkpt lat="44.349961279864395" lon="11.688840605851642"><ele>53.0</ele><time>2026-05-01T12:48:58Z</time></trkpt><trkpt lat="44.349900639115006" lon="11.688783005880508"><ele>53.0</ele><time>2026-05-01T12:49:00Z</time></trkpt><trkpt lat="44.34983207121091" lon="11.688732747840405"><ele>53.0</ele><time>2026-05-01T12:49:02Z</time></trkpt><trkpt lat="44.34976794039892" lon="11.688671118538556"><ele>53.333333333333336</ele><time>2026-05-01T12:49:04Z</time></trkpt><trkpt lat="44.34972682801325" lon="11.688568152961867"><ele>53.66666666666667</ele><time>2026-05-01T12:49:06Z</time></trkpt><trkpt lat="44.34968034174636" lon="11.688474567463409"><ele>54.0</ele><time>2026-05-01T12:49:07.999Z</time></trkpt><trkpt lat="44.34961220647058" lon="11.688419823765857"><ele>54.33333333333333</ele><time>2026-05-01T12:49:09.999Z</time></trkpt><trkpt lat="44.34953159551007" lon="11.688408492387493"><ele>54.666666666666664</ele><time>2026-05-01T12:49:11.999Z</time></trkpt><trkpt lat="44.349453484570404" lon="11.688386020761905"><ele>55.0</ele><time>2026-05-01T12:49:13.999Z</time></trkpt><trkpt lat="44.34938372536929" lon="11.68832557413852"><ele>55.666666666666664</ele><time>2026-05-01T12:49:15.999Z</time></trkpt><trkpt lat="44.34932050201673" lon="11.688239269368788"><ele>56.33333333333333</ele><time>2026-05-01T12:49:17.999Z</time></trkpt><trkpt lat="44.34925041350946" lon="11.688159245189622"><ele>57.0</ele><time>2026-05-01T12:49:19.999Z</time></trkpt><trkpt lat="44.349200946556515" lon="11.688076557345596"><ele>57.66666666666667</ele><time>2026-05-01T12:49:21.999Z</time></trkpt><trkpt lat="44.349134233956676" lon="11.68799466255561"><ele>58.333333333333336</ele><time>2026-05-01T12:49:23.999Z</time></trkpt><trkpt lat="44.3490761181416" lon="11.687905663681093"><ele>59.0</ele><time>2026-05-01T12:49:25.999Z</time></trkpt><trkpt lat="44.349014364023" lon="11.687826505816506"><ele>59.00000000000001</ele><time>2026-05-01T12:49:27.999Z</time></trkpt><trkpt lat="44.34896089118552" lon="11.687744178113098"><ele>59.0</ele><time>2026-05-01T12:49:29.999Z</time></trkpt><trkpt lat="44.3489371909978" lon="11.68765704741859"><ele>59.0</ele><time>2026-05-01T12:49:31.999Z</time></trkpt><trkpt lat="44.34888030403569" lon="11.687586257666137"><ele>59.0</ele><time>2026-05-01T12:49:33.999Z</time></trkpt><trkpt lat="44.34881125450597" lon="11.687548283851386"><ele>59.00000000000001</ele><time>2026-05-01T12:49:35.999Z</time></trkpt><trkpt lat="44.348733174284156" lon="11.68751930581493"><ele>59.0</ele><time>2026-05-01T12:49:37.999Z</time></trkpt><trkpt lat="44.34865548838649" lon="11.687489994994799"><ele>59.00000000000001</ele><time>2026-05-01T12:49:39.999Z</time></trkpt><trkpt lat="44.34858255539306" lon="11.687426173087832"><ele>59.0</ele><time>2026-05-01T12:49:41.999Z</time></trkpt><trkpt lat="44.348506765681094" lon="11.68736394994136"><ele>59.0</ele><time>2026-05-01T12:49:43.999Z</time></trkpt><trkpt lat="44.34843827061255" lon="11.687301863083375"><ele>59.0</ele><time>2026-05-01T12:49:45.999Z</time></trkpt><trkpt lat="44.34836260632907" lon="11.68723833703024"><ele>59.00000000000001</ele><time>2026-05-01T12:49:48Z</time></trkpt><trkpt lat="44.348284874286115" lon="11.687172467688807"><ele>59.0</ele><time>2026-05-01T12:49:50Z</time></trkpt><trkpt lat="44.34820648871412" lon="11.687124204830159"><ele>59.00000000000001</ele><time>2026-05-01T12:49:52Z</time></trkpt><trkpt lat="44.34813043466113" lon="11.68706410721794"><ele>59.0</ele><time>2026-05-01T12:49:54Z</time></trkpt><trkpt lat="44.34805734008314" lon="11.68700786644051"><ele>59.0</ele><time>2026-05-01T12:49:56Z</time></trkpt><trkpt lat="44.34797280295343" lon="11.686951567863426"><ele>59.0</ele><time>2026-05-01T12:49:58Z</time></trkpt><trkpt lat="44.347894266550085" lon="11.68688644818232"><ele>59.00000000000001</ele><time>2026-05-01T12:50:00Z</time></trkpt><trkpt lat="44.34782253380525" lon="11.686820784136469"><ele>59.0</ele><time>2026-05-01T12:50:02Z</time></trkpt><trkpt lat="44.347747718050194" lon="11.686747731744756"><ele>59.50000000000001</ele><time>2026-05-01T12:50:04Z</time></trkpt><trkpt lat="44.3476813934205" lon="11.686697794829149"><ele>60.0</ele><time>2026-05-01T12:50:06Z</time></trkpt><trkpt lat="44.34760542027614" lon="11.686637037122381"><ele>60.5</ele><time>2026-05-01T12:50:08Z</time></trkpt><trkpt lat="44.3475355008759" lon="11.686571822807457"><ele>61.0</ele><time>2026-05-01T12:50:10Z</time></trkpt><trkpt lat="44.3474486250241" lon="11.686506602538952"><ele>61.50000000000001</ele><time>2026-05-01T12:50:12Z</time></trkpt><trkpt lat="44.34737697002058" lon="11.686453295390562"><ele>62.0</ele><time>2026-05-01T12:50:14Z</time></trkpt><trkpt lat="44.34729762881867" lon="11.686393050548102"><ele>62.0</ele><time>2026-05-01T12:50:16Z</time></trkpt><trkpt lat="44.34722354216185" lon="11.68633113841475"><ele>62.0</ele><time>2026-05-01T12:50:18Z</time></trkpt><trkpt lat="44.347142060996845" lon="11.686264711590976"><ele>62.0</ele><time>2026-05-01T12:50:20Z</time></trkpt><trkpt lat="44.34706026675589" lon="11.68619347310994"><ele>62.0</ele><time>2026-05-01T12:50:22Z</time></trkpt><trkpt lat="44.34699047198423" lon="11.686111995075562"><ele>62.0</ele><time>2026-05-01T12:50:24Z</time></trkpt><trkpt lat="44.346906784369715" lon="11.686037964809685"><ele>61.66666666666667</ele><time>2026-05-01T12:50:26Z</time></trkpt><trkpt lat="44.34683267220688" lon="11.685971997577415"><ele>61.333333333333336</ele><time>2026-05-01T12:50:28Z</time></trkpt><trkpt lat="44.346755843210794" lon="11.685906533010494"><ele>61.0</ele><time>2026-05-01T12:50:30Z</time></trkpt><trkpt lat="44.346685845078156" lon="11.685843220324628"><ele>60.66666666666667</ele><time>2026-05-01T12:50:32Z</time></trkpt><trkpt lat="44.34660052272187" lon="11.685784104318866"><ele>60.333333333333336</ele><time>2026-05-01T12:50:34Z</time></trkpt><trkpt lat="44.34653161448383" lon="11.685727390665022"><ele>60.0</ele><time>2026-05-01T12:50:36Z</time></trkpt><trkpt lat="44.34645366088567" lon="11.68567361550891"><ele>60.0</ele><time>2026-05-01T12:50:38Z</time></trkpt><trkpt lat="44.34638529751479" lon="11.685613832046872"><ele>60.0</ele><time>2026-05-01T12:50:40Z</time></trkpt><trkpt lat="44.346322226835404" lon="11.685553802912986"><ele>60.0</ele><time>2026-05-01T12:50:42Z</time></trkpt><trkpt lat="44.346241820353946" lon="11.685502654229866"><ele>60.0</ele><time>2026-05-01T12:50:44Z</time></trkpt><trkpt lat="44.34617455619447" lon="11.685438723494206"><ele>60.0</ele><time>2026-05-01T12:50:46Z</time></trkpt><trkpt lat="44.34611646979917" lon="11.685381419967106"><ele>60.0</ele><time>2026-05-01T12:50:48Z</time></trkpt><trkpt lat="44.346034892115014" lon="11.685327550615325"><ele>60.166666666666664</ele><time>2026-05-01T12:50:50Z</time></trkpt><trkpt lat="44.34596784323069" lon="11.685257264082953"><ele>60.33333333333333</ele><time>2026-05-01T12:50:52Z</time></trkpt><trkpt lat="44.34588344696126" lon="11.68519656967482"><ele>60.5</ele><time>2026-05-01T12:50:54Z</time></trkpt><trkpt lat="44.34581352551388" lon="11.685145981104109"><ele>60.666666666666664</ele><time>2026-05-01T12:50:56Z</time></trkpt><trkpt lat="44.34574111769724" lon="11.685096359355263"><ele>60.83333333333333</ele><time>2026-05-01T12:50:58Z</time></trkpt><trkpt lat="44.34566566650477" lon="11.685045143887612"><ele>61.0</ele><time>2026-05-01T12:51:00Z</time></trkpt><trkpt lat="44.34559407838461" lon="11.684981539296453"><ele>61.166666666666664</ele><time>2026-05-01T12:51:02Z</time></trkpt><trkpt lat="44.345520094372525" lon="11.684921900652027"><ele>61.33333333333333</ele><time>2026-05-01T12:51:04Z</time></trkpt><trkpt lat="44.34544688447019" lon="11.684865935115944"><ele>61.5</ele><time>2026-05-01T12:51:06Z</time></trkpt><trkpt lat="44.34537301435778" lon="11.684801005463427"><ele>61.66666666666667</ele><time>2026-05-01T12:51:08Z</time></trkpt><trkpt lat="44.34530559735084" lon="11.684724713545151"><ele>61.833333333333336</ele><time>2026-05-01T12:51:10Z</time></trkpt><trkpt lat="44.345234048051765" lon="11.68465726656428"><ele>62.0</ele><time>2026-05-01T12:51:12Z</time></trkpt><trkpt lat="44.345149771653695" lon="11.68460045192867"><ele>62.00000000000001</ele><time>2026-05-01T12:51:14Z</time></trkpt><trkpt lat="44.34509531629652" lon="11.68454471129406"><ele>62.0</ele><time>2026-05-01T12:51:16Z</time></trkpt><trkpt lat="44.3450120839185" lon="11.684479542579519"><ele>62.0</ele><time>2026-05-01T12:51:18Z</time></trkpt><trkpt lat="44.34493532953963" lon="11.684412119536098"><ele>62.0</ele><time>2026-05-01T12:51:19.999Z</time></trkpt><trkpt lat="44.34486292731927" lon="11.684349747486184"><ele>62.00000000000001</ele><time>2026-05-01T12:51:21.999Z</time></trkpt><trkpt lat="44.344790958298574" lon="11.684283687619684"><ele>62.0</ele><time>2026-05-01T12:51:23.999Z</time></trkpt><trkpt lat="44.34471206254087" lon="11.684227997229856"><ele>62.00000000000001</ele><time>2026-05-01T12:51:25.999Z</time></trkpt><trkpt lat="44.34463392424263" lon="11.684180848289719"><ele>62.0</ele><time>2026-05-01T12:51:27.999Z</time></trkpt><trkpt lat="44.344560556242996" lon="11.684124625259289"><ele>62.0</ele><time>2026-05-01T12:51:29.999Z</time></trkpt><trkpt lat="44.34448498080522" lon="11.684063677009012"><ele>62.0</ele><time>2026-05-01T12:51:31.999Z</time></trkpt><trkpt lat="44.34440288950792" lon="11.684013642535279"><ele>62.00000000000001</ele><time>2026-05-01T12:51:33.999Z</time></trkpt><trkpt lat="44.344327205016626" lon="11.683949107963405"><ele>62.0</ele><time>2026-05-01T12:51:35.999Z</time></trkpt><trkpt lat="44.34425308816829" lon="11.683890384786853"><ele>62.00000000000001</ele><time>2026-05-01T12:51:37.999Z</time></trkpt><trkpt lat="44.34418063141179" lon="11.683827119880082"><ele>62.0</ele><time>2026-05-01T12:51:39.999Z</time></trkpt><trkpt lat="44.34410814472458" lon="11.683763778013937"><ele>62.0</ele><time>2026-05-01T12:51:41.999Z</time></trkpt><trkpt lat="44.3440339942038" lon="11.683708555641639"><ele>62.0</ele><time>2026-05-01T12:51:43.999Z</time></trkpt><trkpt lat="44.34395830214093" lon="11.683639060474592"><ele>62.00000000000001</ele><time>2026-05-01T12:51:45.999Z</time></trkpt><trkpt lat="44.34388336958986" lon="11.683577570428355"><ele>62.0</ele><time>2026-05-01T12:51:47.999Z</time></trkpt><trkpt lat="44.343803887734005" lon="11.683510752545388"><ele>62.16666666666667</ele><time>2026-05-01T12:51:49.999Z</time></trkpt><trkpt lat="44.34372755343915" lon="11.683454401664598"><ele>62.333333333333336</ele><time>2026-05-01T12:51:51.999Z</time></trkpt><trkpt lat="44.34365224242496" lon="11.683391167579478"><ele>62.5</ele><time>2026-05-01T12:51:54Z</time></trkpt><trkpt lat="44.34357551521836" lon="11.683327787384412"><ele>62.66666666666667</ele><time>2026-05-01T12:51:56Z</time></trkpt><trkpt lat="44.343500670408076" lon="11.683255827802727"><ele>62.833333333333336</ele><time>2026-05-01T12:51:58Z</time></trkpt><trkpt lat="44.343420627117574" lon="11.683198682622466"><ele>63.0</ele><time>2026-05-01T12:52:00Z</time></trkpt><trkpt lat="44.343338830320064" lon="11.683131596823635"><ele>63.0</ele><time>2026-05-01T12:52:02Z</time></trkpt><trkpt lat="44.34325102881408" lon="11.683075209565535"><ele>63.0</ele><time>2026-05-01T12:52:04Z</time></trkpt><trkpt lat="44.343181524848305" lon="11.683025664407824"><ele>63.0</ele><time>2026-05-01T12:52:06Z</time></trkpt><trkpt lat="44.34309712901174" lon="11.682955791608421"><ele>63.0</ele><time>2026-05-01T12:52:08Z</time></trkpt><trkpt lat="44.34302066069709" lon="11.682891849507552"><ele>63.0</ele><time>2026-05-01T12:52:10Z</time></trkpt><trkpt lat="44.34294811953977" lon="11.682851680119052"><ele>63.0</ele><time>2026-05-01T12:52:12Z</time></trkpt><trkpt lat="44.3428968192924" lon="11.682783517722513"><ele>63.0</ele><time>2026-05-01T12:52:14Z</time></trkpt><trkpt lat="44.342802980089935" lon="11.682735703412309"><ele>63.0</ele><time>2026-05-01T12:52:16Z</time></trkpt><trkpt lat="44.3427283750519" lon="11.682652303810624"><ele>63.0</ele><time>2026-05-01T12:52:18Z</time></trkpt><trkpt lat="44.34265739768993" lon="11.682690355232252"><ele>63.0</ele><time>2026-05-01T12:52:19Z</time></trkpt><trkpt lat="44.342613490838744" lon="11.682766445150742"><ele>63.0</ele><time>2026-05-01T12:52:20Z</time></trkpt><trkpt lat="44.34261756443425" lon="11.682884767887217"><ele>63.0</ele><time>2026-05-01T12:52:21Z</time></trkpt><trkpt lat="44.342667720177595" lon="11.683020401785448"><ele>63.0</ele><time>2026-05-01T12:52:23Z</time></trkpt><trkpt lat="44.34268134740113" lon="11.6831471876988"><ele>63.0</ele><time>2026-05-01T12:52:25Z</time></trkpt><trkpt lat="44.34267159658018" lon="11.68327441577865"><ele>63.0</ele><time>2026-05-01T12:52:27Z</time></trkpt><trkpt lat="44.342669002916224" lon="11.68340421170789"><ele>63.0</ele><time>2026-05-01T12:52:29Z</time></trkpt><trkpt lat="44.34266732879093" lon="11.683548368667207"><ele>63.0</ele><time>2026-05-01T12:52:31Z</time></trkpt><trkpt lat="44.34267827718832" lon="11.683681906421638"><ele>63.0</ele><time>2026-05-01T12:52:33Z</time></trkpt><trkpt lat="44.34269278809361" lon="11.683817286812781"><ele>63.0</ele><time>2026-05-01T12:52:35Z</time></trkpt><trkpt lat="44.34270370765801" lon="11.683955213219306"><ele>63.0</ele><time>2026-05-01T12:52:37Z</time></trkpt><trkpt lat="44.34271977446238" lon="11.684093894273591"><ele>63.0</ele><time>2026-05-01T12:52:39Z</time></trkpt><trkpt lat="44.34273537004119" lon="11.684239408101604"><ele>63.0</ele><time>2026-05-01T12:52:41Z</time></trkpt><trkpt lat="44.342752600985804" lon="11.684387900539948"><ele>63.0</ele><time>2026-05-01T12:52:43Z</time></trkpt><trkpt lat="44.34276080318642" lon="11.684532291039671"><ele>63.0</ele><time>2026-05-01T12:52:45Z</time></trkpt><trkpt lat="44.342777145083744" lon="11.684681723617919"><ele>63.0</ele><time>2026-05-01T12:52:47Z</time></trkpt><trkpt lat="44.34279012100039" lon="11.684833804398549"><ele>63.0</ele><time>2026-05-01T12:52:49Z</time></trkpt><trkpt lat="44.342807260989574" lon="11.684980893071202"><ele>63.0</ele><time>2026-05-01T12:52:51Z</time></trkpt><trkpt lat="44.34281988347727" lon="11.685129360710752"><ele>62.5</ele><time>2026-05-01T12:52:53Z</time></trkpt><trkpt lat="44.342793154859486" lon="11.685276469696111"><ele>62.0</ele><time>2026-05-01T12:52:55Z</time></trkpt><trkpt lat="44.34277943213602" lon="11.685438625469793"><ele>61.5</ele><time>2026-05-01T12:52:57Z</time></trkpt><trkpt lat="44.34277522770728" lon="11.68560222747949"><ele>61.0</ele><time>2026-05-01T12:52:59Z</time></trkpt><trkpt lat="44.342746874900556" lon="11.685752669193393"><ele>61.0</ele><time>2026-05-01T12:53:01Z</time></trkpt><trkpt lat="44.34272359518661" lon="11.685895061663555"><ele>60.99999999999999</ele><time>2026-05-01T12:53:03Z</time></trkpt><trkpt lat="44.34269577110806" lon="11.68603568845071"><ele>60.99999999999999</ele><time>2026-05-01T12:53:05Z</time></trkpt><trkpt lat="44.34267024984276" lon="11.686165997566233"><ele>61.0</ele><time>2026-05-01T12:53:07Z</time></trkpt><trkpt lat="44.34264821752179" lon="11.686291895382155"><ele>61.0</ele><time>2026-05-01T12:53:09Z</time></trkpt><trkpt lat="44.34262032997515" lon="11.686412561322328"><ele>60.599999999999994</ele><time>2026-05-01T12:53:11Z</time></trkpt><trkpt lat="44.34260517317071" lon="11.686557991262186"><ele>60.199999999999996</ele><time>2026-05-01T12:53:13Z</time></trkpt><trkpt lat="44.34257539192946" lon="11.686702916357191"><ele>59.800000000000004</ele><time>2026-05-01T12:53:15Z</time></trkpt><trkpt lat="44.3425217740702" lon="11.686839862019035"><ele>59.400000000000006</ele><time>2026-05-01T12:53:17Z</time></trkpt><trkpt lat="44.342475156935116" lon="11.686962244071097"><ele>59.0</ele><time>2026-05-01T12:53:19Z</time></trkpt><trkpt lat="44.342425385627436" lon="11.68708620802961"><ele>59.0</ele><time>2026-05-01T12:53:21Z</time></trkpt><trkpt lat="44.34236731888217" lon="11.687214688309004"><ele>59.00000000000001</ele><time>2026-05-01T12:53:23Z</time></trkpt><trkpt lat="44.34228954749824" lon="11.687316269125807"><ele>59.00000000000001</ele><time>2026-05-01T12:53:25Z</time></trkpt><trkpt lat="44.34222197375449" lon="11.68729601402934"><ele>59.0</ele><time>2026-05-01T12:53:26Z</time></trkpt><trkpt lat="44.3421075371825" lon="11.687266330061233"><ele>59.0</ele><time>2026-05-01T12:53:28Z</time></trkpt><trkpt lat="44.34199482233757" lon="11.68729783663705"><ele>59.0</ele><time>2026-05-01T12:53:29.999Z</time></trkpt><trkpt lat="44.34194252263412" lon="11.687347494538518"><ele>59.0</ele><time>2026-05-01T12:53:30.999Z</time></trkpt><trkpt lat="44.34186699186668" lon="11.687482902943351"><ele>59.0</ele><time>2026-05-01T12:53:32.999Z</time></trkpt><trkpt lat="44.34182770064766" lon="11.687552544070789"><ele>59.0</ele><time>2026-05-01T12:53:33.999Z</time></trkpt><trkpt lat="44.34176961651875" lon="11.68759922272351"><ele>59.0</ele><time>2026-05-01T12:53:34.999Z</time></trkpt><trkpt lat="44.34170192379019" lon="11.68760783790903"><ele>59.0</ele><time>2026-05-01T12:53:35.999Z</time></trkpt><trkpt lat="44.34164188660647" lon="11.687636451095939"><ele>59.0</ele><time>2026-05-01T12:53:36.999Z</time></trkpt><trkpt lat="44.34159022158791" lon="11.68769171154931"><ele>58.833333333333336</ele><time>2026-05-01T12:53:37.999Z</time></trkpt><trkpt lat="44.34152150023673" lon="11.687838674610724"><ele>58.66666666666667</ele><time>2026-05-01T12:53:39.999Z</time></trkpt><trkpt lat="44.34148636161153" lon="11.687917142688955"><ele>58.5</ele><time>2026-05-01T12:53:40.999Z</time></trkpt><trkpt lat="44.34145514272945" lon="11.687994413351692"><ele>58.33333333333333</ele><time>2026-05-01T12:53:41.999Z</time></trkpt><trkpt lat="44.34138178358144" lon="11.688138768212852"><ele>58.166666666666664</ele><time>2026-05-01T12:53:43.999Z</time></trkpt><trkpt lat="44.34134829001053" lon="11.68821500037907"><ele>58.0</ele><time>2026-05-01T12:53:44.999Z</time></trkpt><trkpt lat="44.341316687157935" lon="11.688291928667747"><ele>57.75</ele><time>2026-05-01T12:53:45.999Z</time></trkpt><trkpt lat="44.3412403801517" lon="11.688428682147661"><ele>57.5</ele><time>2026-05-01T12:53:47.999Z</time></trkpt><trkpt lat="44.34118096880667" lon="11.68856834170878"><ele>57.25</ele><time>2026-05-01T12:53:49.999Z</time></trkpt><trkpt lat="44.34111493661658" lon="11.688696711924427"><ele>57.0</ele><time>2026-05-01T12:53:51.999Z</time></trkpt><trkpt lat="44.34105501528352" lon="11.688826478343623"><ele>56.6</ele><time>2026-05-01T12:53:53.999Z</time></trkpt><trkpt lat="44.34099067178428" lon="11.688952528884279"><ele>56.2</ele><time>2026-05-01T12:53:55.999Z</time></trkpt><trkpt lat="44.34094010774018" lon="11.689114251285467"><ele>55.8</ele><time>2026-05-01T12:53:57.999Z</time></trkpt><trkpt lat="44.34093022031043" lon="11.68921824547726"><ele>55.4</ele><time>2026-05-01T12:53:58.999Z</time></trkpt><trkpt lat="44.340916366845974" lon="11.689327853420846"><ele>55.0</ele><time>2026-05-01T12:54:00Z</time></trkpt><trkpt lat="44.34090167542688" lon="11.689440063683616"><ele>54.4</ele><time>2026-05-01T12:54:01Z</time></trkpt><trkpt lat="44.340883040560534" lon="11.689561008176522"><ele>53.8</ele><time>2026-05-01T12:54:02Z</time></trkpt><trkpt lat="44.34086151287778" lon="11.689692570853275"><ele>53.2</ele><time>2026-05-01T12:54:03Z</time></trkpt><trkpt lat="44.34084324393943" lon="11.68981905829973"><ele>52.6</ele><time>2026-05-01T12:54:04Z</time></trkpt><trkpt lat="44.34083051542156" lon="11.68994274054784"><ele>52.0</ele><time>2026-05-01T12:54:05Z</time></trkpt><trkpt lat="44.34081077899158" lon="11.690060559735423"><ele>51.99999999999999</ele><time>2026-05-01T12:54:06Z</time></trkpt><trkpt lat="44.3407843430716" lon="11.690169804254413"><ele>52.0</ele><time>2026-05-01T12:54:07Z</time></trkpt><trkpt lat="44.34076851398944" lon="11.690279644786312"><ele>52.0</ele><time>2026-05-01T12:54:08Z</time></trkpt><trkpt lat="44.3407524820564" lon="11.690376208228061"><ele>52.0</ele><time>2026-05-01T12:54:09Z</time></trkpt><trkpt lat="44.34071611872536" lon="11.690515238138593"><ele>51.99999999999999</ele><time>2026-05-01T12:54:11Z</time></trkpt><trkpt lat="44.340695815626326" lon="11.690606119432491"><ele>52.0</ele><time>2026-05-01T12:54:12Z</time></trkpt><trkpt lat="44.34068352486904" lon="11.690693625321972"><ele>51.6</ele><time>2026-05-01T12:54:13Z</time></trkpt><trkpt lat="44.340699811613106" lon="11.69079149866224"><ele>51.2</ele><time>2026-05-01T12:54:14Z</time></trkpt><trkpt lat="44.340633813607504" lon="11.69094677628316"><ele>50.8</ele><time>2026-05-01T12:54:16Z</time></trkpt><trkpt lat="44.34055007378501" lon="11.69106307743502"><ele>50.4</ele><time>2026-05-01T12:54:18Z</time></trkpt><trkpt lat="44.34048321212261" lon="11.691184717993693"><ele>50.0</ele><time>2026-05-01T12:54:20Z</time></trkpt><trkpt lat="44.340421107142" lon="11.691298835990352"><ele>50.0</ele><time>2026-05-01T12:54:22Z</time></trkpt><trkpt lat="44.34035982011523" lon="11.691400416110595"><ele>50.0</ele><time>2026-05-01T12:54:24Z</time></trkpt><trkpt lat="44.34030159758841" lon="11.691500403187765"><ele>50.0</ele><time>2026-05-01T12:54:26Z</time></trkpt><trkpt lat="44.340251804084474" lon="11.69159399297385"><ele>50.0</ele><time>2026-05-01T12:54:28Z</time></trkpt><trkpt lat="44.34018472623739" lon="11.69162672784078"><ele>50.0</ele><time>2026-05-01T12:54:30Z</time></trkpt><trkpt lat="44.34006418839615" lon="11.691662475298552"><ele>50.00000000000001</ele><time>2026-05-01T12:54:32Z</time></trkpt><trkpt lat="44.34001297107361" lon="11.691592531105904"><ele>50.0</ele><time>2026-05-01T12:54:34Z</time></trkpt><trkpt lat="44.339947699685894" lon="11.691503394206975"><ele>50.0</ele><time>2026-05-01T12:54:36Z</time></trkpt><trkpt lat="44.33989347316661" lon="11.691425660089541"><ele>50.0</ele><time>2026-05-01T12:54:38Z</time></trkpt><trkpt lat="44.3398465530524" lon="11.691358278193718"><ele>50.00000000000001</ele><time>2026-05-01T12:54:40Z</time></trkpt><trkpt lat="44.339790463083354" lon="11.691277727456681"><ele>50.0</ele><time>2026-05-01T12:54:43Z</time></trkpt><trkpt lat="44.33972407893987" lon="11.691148832289993"><ele>50.2</ele><time>2026-05-01T12:54:47Z</time></trkpt><trkpt lat="44.33964929756437" lon="11.691036734356143"><ele>50.4</ele><time>2026-05-01T12:54:49Z</time></trkpt><trkpt lat="44.33957085612986" lon="11.690948277257439"><ele>50.599999999999994</ele><time>2026-05-01T12:54:51Z</time></trkpt><trkpt lat="44.339511890836" lon="11.690856607696197"><ele>50.8</ele><time>2026-05-01T12:54:53Z</time></trkpt><trkpt lat="44.33945122189815" lon="11.690761876093841"><ele>51.0</ele><time>2026-05-01T12:54:55Z</time></trkpt><trkpt lat="44.33939586365378" lon="11.690654154571678"><ele>51.0</ele><time>2026-05-01T12:54:57Z</time></trkpt><trkpt lat="44.33933959174936" lon="11.690552956740268"><ele>51.0</ele><time>2026-05-01T12:54:59Z</time></trkpt><trkpt lat="44.339281705439824" lon="11.690436168465913"><ele>51.0</ele><time>2026-05-01T12:55:01Z</time></trkpt><trkpt lat="44.33922884516488" lon="11.69032696427754"><ele>51.0</ele><time>2026-05-01T12:55:03Z</time></trkpt><trkpt lat="44.339185550641275" lon="11.690201245350462"><ele>51.0</ele><time>2026-05-01T12:55:05Z</time></trkpt><trkpt lat="44.33918506488616" lon="11.690079533374536"><ele>51.199999999999996</ele><time>2026-05-01T12:55:07Z</time></trkpt><trkpt lat="44.33923299333855" lon="11.6899607791624"><ele>51.4</ele><time>2026-05-01T12:55:09Z</time></trkpt><trkpt lat="44.33919461765619" lon="11.689841848000812"><ele>51.6</ele><time>2026-05-01T12:55:11Z</time></trkpt><trkpt lat="44.33912513406158" lon="11.68974507577401"><ele>51.8</ele><time>2026-05-01T12:55:13Z</time></trkpt><trkpt lat="44.33906697523323" lon="11.689641412908008"><ele>52.0</ele><time>2026-05-01T12:55:15Z</time></trkpt><trkpt lat="44.338992755294406" lon="11.68954459967243"><ele>52.0</ele><time>2026-05-01T12:55:17Z</time></trkpt><trkpt lat="44.338922525472306" lon="11.689442632719453"><ele>52.0</ele><time>2026-05-01T12:55:19Z</time></trkpt><trkpt lat="44.338865395910666" lon="11.689343234710437"><ele>52.0</ele><time>2026-05-01T12:55:21Z</time></trkpt><trkpt lat="44.33879813404673" lon="11.689245470628173"><ele>52.0</ele><time>2026-05-01T12:55:23Z</time></trkpt><trkpt lat="44.338741246851235" lon="11.689153579122232"><ele>52.0</ele><time>2026-05-01T12:55:25Z</time></trkpt><trkpt lat="44.33867853214823" lon="11.689059327687529"><ele>51.8</ele><time>2026-05-01T12:55:27Z</time></trkpt><trkpt lat="44.338598440779585" lon="11.688989237129558"><ele>51.6</ele><time>2026-05-01T12:55:28.999Z</time></trkpt><trkpt lat="44.338547282430035" lon="11.688883628476805"><ele>51.4</ele><time>2026-05-01T12:55:30.999Z</time></trkpt><trkpt lat="44.338485491811575" lon="11.688787317226963"><ele>51.199999999999996</ele><time>2026-05-01T12:55:32.999Z</time></trkpt><trkpt lat="44.33841968999481" lon="11.688695405415919"><ele>51.0</ele><time>2026-05-01T12:55:34.999Z</time></trkpt><trkpt lat="44.338353914665696" lon="11.688605634397216"><ele>51.0</ele><time>2026-05-01T12:55:36.999Z</time></trkpt><trkpt lat="44.338228654756094" lon="11.68868083631959"><ele>51.0</ele><time>2026-05-01T12:55:37.999Z</time></trkpt><trkpt lat="44.33815863658311" lon="11.688580192745697"><ele>51.0</ele><time>2026-05-01T12:55:39.999Z</time></trkpt><trkpt lat="44.33808876849352" lon="11.68847976246659"><ele>51.0</ele><time>2026-05-01T12:55:41.999Z</time></trkpt><trkpt lat="44.33802269531761" lon="11.688384787093932"><ele>51.0</ele><time>2026-05-01T12:55:43.999Z</time></trkpt><trkpt lat="44.33795591232347" lon="11.688288791412912"><ele>51.4</ele><time>2026-05-01T12:55:45.999Z</time></trkpt><trkpt lat="44.33788839392374" lon="11.688191738637446"><ele>51.8</ele><time>2026-05-01T12:55:47.999Z</time></trkpt><trkpt lat="44.33781767560512" lon="11.688090086218349"><ele>52.199999999999996</ele><time>2026-05-01T12:55:49.999Z</time></trkpt><trkpt lat="44.33774471223273" lon="11.687985206689158"><ele>52.599999999999994</ele><time>2026-05-01T12:55:51.999Z</time></trkpt><trkpt lat="44.33767078290068" lon="11.687880565765534"><ele>53.0</ele><time>2026-05-01T12:55:53.999Z</time></trkpt><trkpt lat="44.337592744908484" lon="11.687769270648714"><ele>53.0</ele><time>2026-05-01T12:55:55.999Z</time></trkpt><trkpt lat="44.33751663505147" lon="11.687657808985948"><ele>53.0</ele><time>2026-05-01T12:55:57.999Z</time></trkpt><trkpt lat="44.3374392809944" lon="11.687539665683957"><ele>53.0</ele><time>2026-05-01T12:55:59.999Z</time></trkpt><trkpt lat="44.33736905175959" lon="11.68742965955588"><ele>53.0</ele><time>2026-05-01T12:56:01.999Z</time></trkpt><trkpt lat="44.3373018219559" lon="11.687323378018117"><ele>53.0</ele><time>2026-05-01T12:56:03.999Z</time></trkpt><trkpt lat="44.33723692636638" lon="11.687220365517831"><ele>53.00000000000001</ele><time>2026-05-01T12:56:06Z</time></trkpt><trkpt lat="44.337164956878176" lon="11.687106124197642"><ele>53.0</ele><time>2026-05-01T12:56:08Z</time></trkpt><trkpt lat="44.33708555977419" lon="11.686980092603585"><ele>53.0</ele><time>2026-05-01T12:56:10Z</time></trkpt><trkpt lat="44.33704298894131" lon="11.68691251747054"><ele>53.0</ele><time>2026-05-01T12:56:11Z</time></trkpt><trkpt lat="44.336999191460656" lon="11.686842995202516"><ele>53.00000000000001</ele><time>2026-05-01T12:56:12Z</time></trkpt><trkpt lat="44.33695671500009" lon="11.686775569877344"><ele>53.0</ele><time>2026-05-01T12:56:13Z</time></trkpt><trkpt lat="44.336910679679576" lon="11.68670249536014"><ele>53.00000000000001</ele><time>2026-05-01T12:56:14Z</time></trkpt><trkpt lat="44.33686783301812" lon="11.686634482395839"><ele>53.0</ele><time>2026-05-01T12:56:15Z</time></trkpt><trkpt lat="44.336823325324346" lon="11.686564064555595"><ele>53.0</ele><time>2026-05-01T12:56:16Z</time></trkpt><trkpt lat="44.33675083863049" lon="11.686451658502824"><ele>53.0</ele><time>2026-05-01T12:56:18Z</time></trkpt><trkpt lat="44.336686020011435" lon="11.686357234009227"><ele>53.00000000000001</ele><time>2026-05-01T12:56:20Z</time></trkpt><trkpt lat="44.33661682689906" lon="11.686261332711537"><ele>53.0</ele><time>2026-05-01T12:56:22Z</time></trkpt><trkpt lat="44.33654847209533" lon="11.686172015382656"><ele>53.0</ele><time>2026-05-01T12:56:24Z</time></trkpt><trkpt lat="44.336483422113346" lon="11.686100591030547"><ele>53.0</ele><time>2026-05-01T12:56:26Z</time></trkpt><trkpt lat="44.33640404270735" lon="11.686022051332225"><ele>53.0</ele><time>2026-05-01T12:56:28Z</time></trkpt><trkpt lat="44.33632643513854" lon="11.68594322337335"><ele>53.0</ele><time>2026-05-01T12:56:30Z</time></trkpt><trkpt lat="44.33624591516315" lon="11.685861437211335"><ele>53.0</ele><time>2026-05-01T12:56:32Z</time></trkpt><trkpt lat="44.33624301941625" lon="11.685742227068737"><ele>52.599999999999994</ele><time>2026-05-01T12:56:33Z</time></trkpt><trkpt lat="44.3361601036947" lon="11.685653040722254"><ele>52.199999999999996</ele><time>2026-05-01T12:56:35Z</time></trkpt><trkpt lat="44.336078795324916" lon="11.685564477630477"><ele>51.8</ele><time>2026-05-01T12:56:37Z</time></trkpt><trkpt lat="44.33599999939167" lon="11.685466725171432"><ele>51.4</ele><time>2026-05-01T12:56:39Z</time></trkpt><trkpt lat="44.335925823202274" lon="11.685367324887821"><ele>51.0</ele><time>2026-05-01T12:56:41Z</time></trkpt><trkpt lat="44.335853988293216" lon="11.685297688375185"><ele>51.4</ele><time>2026-05-01T12:56:43Z</time></trkpt><trkpt lat="44.33579423111897" lon="11.685218353465235"><ele>51.8</ele><time>2026-05-01T12:56:45Z</time></trkpt><trkpt lat="44.33578751544729" lon="11.685079161009153"><ele>52.199999999999996</ele><time>2026-05-01T12:56:47Z</time></trkpt><trkpt lat="44.335726386552004" lon="11.684969226060561"><ele>52.599999999999994</ele><time>2026-05-01T12:56:49Z</time></trkpt><trkpt lat="44.33564968702458" lon="11.684871445288659"><ele>53.0</ele><time>2026-05-01T12:56:51Z</time></trkpt><trkpt lat="44.33557399750096" lon="11.684784217378933"><ele>52.8</ele><time>2026-05-01T12:56:53Z</time></trkpt><trkpt lat="44.335484957384374" lon="11.684714474363656"><ele>52.599999999999994</ele><time>2026-05-01T12:56:55Z</time></trkpt><trkpt lat="44.33539482807326" lon="11.684644313018975"><ele>52.400000000000006</ele><time>2026-05-01T12:56:57Z</time></trkpt><trkpt lat="44.335317863151595" lon="11.684547355026563"><ele>52.2</ele><time>2026-05-01T12:56:59Z</time></trkpt><trkpt lat="44.33524561858797" lon="11.68445328079284"><ele>52.0</ele><time>2026-05-01T12:57:01Z</time></trkpt><trkpt lat="44.33518773847625" lon="11.684337848963715"><ele>52.0</ele><time>2026-05-01T12:57:03Z</time></trkpt><trkpt lat="44.335082693515446" lon="11.684391504077059"><ele>52.0</ele><time>2026-05-01T12:57:04Z</time></trkpt><trkpt lat="44.33500935729627" lon="11.684296683290443"><ele>52.0</ele><time>2026-05-01T12:57:06Z</time></trkpt><trkpt lat="44.334939431930465" lon="11.684206272599795"><ele>52.0</ele><time>2026-05-01T12:57:08Z</time></trkpt><trkpt lat="44.33486374925359" lon="11.684107560396892"><ele>52.0</ele><time>2026-05-01T12:57:10Z</time></trkpt><trkpt lat="44.33478653926147" lon="11.684005984238043"><ele>52.0</ele><time>2026-05-01T12:57:12Z</time></trkpt><trkpt lat="44.334706487459975" lon="11.68390066953724"><ele>52.0</ele><time>2026-05-01T12:57:14Z</time></trkpt><trkpt lat="44.33461723895764" lon="11.68378732964828"><ele>52.0</ele><time>2026-05-01T12:57:16Z</time></trkpt><trkpt lat="44.334535552809164" lon="11.683683006013021"><ele>52.0</ele><time>2026-05-01T12:57:18Z</time></trkpt><trkpt lat="44.33445321412866" lon="11.68357440910535"><ele>51.75</ele><time>2026-05-01T12:57:20Z</time></trkpt><trkpt lat="44.334445023990256" lon="11.68337028996509"><ele>51.5</ele><time>2026-05-01T12:57:22Z</time></trkpt><trkpt lat="44.334351380824" lon="11.68330299356308"><ele>51.25</ele><time>2026-05-01T12:57:24Z</time></trkpt><trkpt lat="44.33426959707848" lon="11.683196935559499"><ele>51.0</ele><time>2026-05-01T12:57:25.999Z</time></trkpt><trkpt lat="44.334199560582874" lon="11.683084224001739"><ele>51.0</ele><time>2026-05-01T12:57:27.999Z</time></trkpt><trkpt lat="44.334124286291704" lon="11.682982169668216"><ele>51.0</ele><time>2026-05-01T12:57:29.999Z</time></trkpt><trkpt lat="44.334034140614996" lon="11.682883359574378"><ele>51.0</ele><time>2026-05-01T12:57:31.999Z</time></trkpt><trkpt lat="44.33394956508522" lon="11.682781026999471"><ele>51.0</ele><time>2026-05-01T12:57:33.999Z</time></trkpt><trkpt lat="44.33386780655318" lon="11.682677635892391"><ele>51.0</ele><time>2026-05-01T12:57:35.999Z</time></trkpt><trkpt lat="44.33378987900891" lon="11.68257091899153"><ele>51.0</ele><time>2026-05-01T12:57:37.999Z</time></trkpt><trkpt lat="44.33369931872882" lon="11.682480703284588"><ele>51.0</ele><time>2026-05-01T12:57:39.999Z</time></trkpt><trkpt lat="44.33359788829682" lon="11.682425778094743"><ele>51.0</ele><time>2026-05-01T12:57:41.999Z</time></trkpt><trkpt lat="44.33346813750875" lon="11.682447762075979"><ele>51.0</ele><time>2026-05-01T12:57:43.999Z</time></trkpt><trkpt lat="44.333364717470964" lon="11.682383712954449"><ele>51.0</ele><time>2026-05-01T12:57:45.999Z</time></trkpt><trkpt lat="44.333259817254344" lon="11.682318743485247"><ele>51.0</ele><time>2026-05-01T12:57:47.999Z</time></trkpt><trkpt lat="44.33316009758756" lon="11.682257772217321"><ele>51.0</ele><time>2026-05-01T12:57:49.999Z</time></trkpt><trkpt lat="44.33305935196974" lon="11.682198101371343"><ele>51.0</ele><time>2026-05-01T12:57:51.999Z</time></trkpt><trkpt lat="44.33295896898271" lon="11.682138645433742"><ele>51.0</ele><time>2026-05-01T12:57:53.999Z</time></trkpt><trkpt lat="44.332860063441785" lon="11.682080064575821"><ele>51.0</ele><time>2026-05-01T12:57:55.999Z</time></trkpt><trkpt lat="44.33284111021224" lon="11.681953697872004"><ele>51.0</ele><time>2026-05-01T12:57:56.999Z</time></trkpt><trkpt lat="44.332740860197895" lon="11.681884223611993"><ele>51.0</ele><time>2026-05-01T12:57:58.999Z</time></trkpt><trkpt lat="44.3326562635723" lon="11.681959355743713"><ele>51.0</ele><time>2026-05-01T12:57:59.999Z</time></trkpt><trkpt lat="44.33255819587765" lon="11.681900640496591"><ele>51.0</ele><time>2026-05-01T12:58:01.999Z</time></trkpt><trkpt lat="44.33255468901627" lon="11.681734451184731"><ele>51.199999999999996</ele><time>2026-05-01T12:58:02.999Z</time></trkpt><trkpt lat="44.33245196189112" lon="11.68167401420543"><ele>51.4</ele><time>2026-05-01T12:58:04.999Z</time></trkpt><trkpt lat="44.33235229774553" lon="11.681626217706429"><ele>51.6</ele><time>2026-05-01T12:58:06.999Z</time></trkpt><trkpt lat="44.33224603529693" lon="11.681570519891718"><ele>51.8</ele><time>2026-05-01T12:58:08.999Z</time></trkpt><trkpt lat="44.33216407622744" lon="11.681488409951847"><ele>52.0</ele><time>2026-05-01T12:58:10.999Z</time></trkpt><trkpt lat="44.33207685829398" lon="11.681389360700782"><ele>52.0</ele><time>2026-05-01T12:58:13Z</time></trkpt><trkpt lat="44.33199133698937" lon="11.681294429892386"><ele>52.0</ele><time>2026-05-01T12:58:15Z</time></trkpt><trkpt lat="44.33190598954591" lon="11.68120703595868"><ele>52.0</ele><time>2026-05-01T12:58:17Z</time></trkpt><trkpt lat="44.33182409094701" lon="11.681124054735871"><ele>52.0</ele><time>2026-05-01T12:58:19Z</time></trkpt><trkpt lat="44.33175200196315" lon="11.681036421424523"><ele>52.0</ele><time>2026-05-01T12:58:21Z</time></trkpt><trkpt lat="44.331671332813926" lon="11.680978765021393"><ele>51.99999999999999</ele><time>2026-05-01T12:58:24Z</time></trkpt><trkpt lat="44.33162318091565" lon="11.68108707638588"><ele>52.0</ele><time>2026-05-01T12:58:26Z</time></trkpt><trkpt lat="44.33153000543712" lon="11.681151005943523"><ele>52.0</ele><time>2026-05-01T12:58:29Z</time></trkpt><trkpt lat="44.3314592182232" lon="11.68120854918297"><ele>52.0</ele><time>2026-05-01T12:58:31Z</time></trkpt><trkpt lat="44.33138562524318" lon="11.681177607442955"><ele>51.99999999999999</ele><time>2026-05-01T12:58:33Z</time></trkpt><trkpt lat="44.3313182491462" lon="11.681107870461046"><ele>52.0</ele><time>2026-05-01T12:58:35Z</time></trkpt><trkpt lat="44.33123900115816" lon="11.681048649205284"><ele>52.0</ele><time>2026-05-01T12:58:37Z</time></trkpt><trkpt lat="44.331161043383574" lon="11.680981588598105"><ele>52.0</ele><time>2026-05-01T12:58:39Z</time></trkpt><trkpt lat="44.33108373646475" lon="11.68090991985305"><ele>52.0</ele><time>2026-05-01T12:58:41Z</time></trkpt><trkpt lat="44.33100862950813" lon="11.680838930059117"><ele>52.0</ele><time>2026-05-01T12:58:43Z</time></trkpt><trkpt lat="44.330921064829816" lon="11.680766414335043"><ele>52.0</ele><time>2026-05-01T12:58:45Z</time></trkpt><trkpt lat="44.33083413799922" lon="11.680707736119887"><ele>52.0</ele><time>2026-05-01T12:58:47Z</time></trkpt><trkpt lat="44.330751691021675" lon="11.680635115392239"><ele>52.0</ele><time>2026-05-01T12:58:49Z</time></trkpt><trkpt lat="44.33066314907096" lon="11.680574277398334"><ele>52.0</ele><time>2026-05-01T12:58:51Z</time></trkpt><trkpt lat="44.33057243403793" lon="11.68050842302709"><ele>52.0</ele><time>2026-05-01T12:58:53Z</time></trkpt><trkpt lat="44.330482554912344" lon="11.680430805945607"><ele>52.0</ele><time>2026-05-01T12:58:55Z</time></trkpt><trkpt lat="44.33039126692877" lon="11.680359207154789"><ele>52.0</ele><time>2026-05-01T12:58:57Z</time></trkpt><trkpt lat="44.33029803268976" lon="11.680294163121044"><ele>52.0</ele><time>2026-05-01T12:58:59Z</time></trkpt><trkpt lat="44.33020273010224" lon="11.680250147496281"><ele>52.0</ele><time>2026-05-01T12:59:01Z</time></trkpt><trkpt lat="44.33011599137153" lon="11.680204318378538"><ele>52.0</ele><time>2026-05-01T12:59:03Z</time></trkpt><trkpt lat="44.3300303352529" lon="11.680157823470525"><ele>52.0</ele><time>2026-05-01T12:59:05Z</time></trkpt><trkpt lat="44.3299411049345" lon="11.680103211984832"><ele>52.0</ele><time>2026-05-01T12:59:07Z</time></trkpt><trkpt lat="44.32984437037946" lon="11.680056266621072"><ele>52.0</ele><time>2026-05-01T12:59:09Z</time></trkpt><trkpt lat="44.32974450987082" lon="11.6800612852263"><ele>52.0</ele><time>2026-05-01T12:59:11Z</time></trkpt><trkpt lat="44.32964260190486" lon="11.680094117871388"><ele>52.0</ele><time>2026-05-01T12:59:13Z</time></trkpt><trkpt lat="44.32954616424383" lon="11.680139339113513"><ele>52.0</ele><time>2026-05-01T12:59:15Z</time></trkpt><trkpt lat="44.329456221592274" lon="11.680173019380032"><ele>52.2</ele><time>2026-05-01T12:59:17Z</time></trkpt><trkpt lat="44.32936167014875" lon="11.680144462455559"><ele>52.400000000000006</ele><time>2026-05-01T12:59:19Z</time></trkpt><trkpt lat="44.32927320936359" lon="11.6800895116116"><ele>52.599999999999994</ele><time>2026-05-01T12:59:21Z</time></trkpt><trkpt lat="44.32918704470233" lon="11.68002609514205"><ele>52.8</ele><time>2026-05-01T12:59:23Z</time></trkpt><trkpt lat="44.32910718351023" lon="11.679968177148739"><ele>53.0</ele><time>2026-05-01T12:59:25Z</time></trkpt><trkpt lat="44.3290312699523" lon="11.679908744202962"><ele>53.0</ele><time>2026-05-01T12:59:27Z</time></trkpt><trkpt lat="44.32895575226187" lon="11.679856560047973"><ele>53.0</ele><time>2026-05-01T12:59:29Z</time></trkpt><trkpt lat="44.328879994108156" lon="11.679790487367553"><ele>53.0</ele><time>2026-05-01T12:59:31Z</time></trkpt><trkpt lat="44.32881911555268" lon="11.67971319285644"><ele>53.0</ele><time>2026-05-01T12:59:33Z</time></trkpt><trkpt lat="44.32874307206699" lon="11.679622548857425"><ele>53.0</ele><time>2026-05-01T12:59:35Z</time></trkpt><trkpt lat="44.32867762087522" lon="11.679506758025699"><ele>53.0</ele><time>2026-05-01T12:59:37Z</time></trkpt><trkpt lat="44.328623277920805" lon="11.679388243407777"><ele>53.0</ele><time>2026-05-01T12:59:39Z</time></trkpt><trkpt lat="44.328570237998875" lon="11.679277927013453"><ele>53.0</ele><time>2026-05-01T12:59:41Z</time></trkpt><trkpt lat="44.32851581742604" lon="11.679151494077786"><ele>53.0</ele><time>2026-05-01T12:59:43Z</time></trkpt><trkpt lat="44.32846622217268" lon="11.679030364097004"><ele>53.0</ele><time>2026-05-01T12:59:45Z</time></trkpt><trkpt lat="44.32841778777559" lon="11.678907157581817"><ele>53.00000000000001</ele><time>2026-05-01T12:59:46.999Z</time></trkpt><trkpt lat="44.32837518957777" lon="11.67879075995058"><ele>53.0</ele><time>2026-05-01T12:59:48.999Z</time></trkpt><trkpt lat="44.32831458731962" lon="11.67865496318116"><ele>53.0</ele><time>2026-05-01T12:59:50.999Z</time></trkpt><trkpt lat="44.328269860480766" lon="11.678580381747297"><ele>53.0</ele><time>2026-05-01T12:59:51.999Z</time></trkpt><trkpt lat="44.32822019350409" lon="11.678523529304153"><ele>53.00000000000001</ele><time>2026-05-01T12:59:52.999Z</time></trkpt><trkpt lat="44.328160667689396" lon="11.678475644392412"><ele>53.0</ele><time>2026-05-01T12:59:53.999Z</time></trkpt><trkpt lat="44.32804281758633" lon="11.678436647179852"><ele>52.75</ele><time>2026-05-01T12:59:55.999Z</time></trkpt><trkpt lat="44.32792480620965" lon="11.678412115188326"><ele>52.5</ele><time>2026-05-01T12:59:57.999Z</time></trkpt><trkpt lat="44.327812101624154" lon="11.678367455061569"><ele>52.25</ele><time>2026-05-01T12:59:59.999Z</time></trkpt><trkpt lat="44.32770408865871" lon="11.678318110717417"><ele>52.0</ele><time>2026-05-01T13:00:01.999Z</time></trkpt><trkpt lat="44.32759473582164" lon="11.678271079042192"><ele>52.0</ele><time>2026-05-01T13:00:03.999Z</time></trkpt><trkpt lat="44.3274911574388" lon="11.678223645515017"><ele>52.0</ele><time>2026-05-01T13:00:05.999Z</time></trkpt><trkpt lat="44.32739669415996" lon="11.678182181122633"><ele>52.0</ele><time>2026-05-01T13:00:07.999Z</time></trkpt><trkpt lat="44.32730491001622" lon="11.678140849105576"><ele>52.0</ele><time>2026-05-01T13:00:09.999Z</time></trkpt><trkpt lat="44.32723816673981" lon="11.678066872272344"><ele>52.0</ele><time>2026-05-01T13:00:11.999Z</time></trkpt><trkpt lat="44.32716435021447" lon="11.677978230310039"><ele>51.83333333333333</ele><time>2026-05-01T13:00:13.999Z</time></trkpt><trkpt lat="44.32710784263869" lon="11.67787500532822"><ele>51.666666666666664</ele><time>2026-05-01T13:00:15.999Z</time></trkpt><trkpt lat="44.32705127868463" lon="11.677779706227804"><ele>51.5</ele><time>2026-05-01T13:00:18Z</time></trkpt><trkpt lat="44.326990137136924" lon="11.677685247492914"><ele>51.33333333333333</ele><time>2026-05-01T13:00:20Z</time></trkpt><trkpt lat="44.32692849376742" lon="11.677594446372181"><ele>51.166666666666664</ele><time>2026-05-01T13:00:22Z</time></trkpt><trkpt lat="44.32689276444872" lon="11.677493956702246"><ele>51.0</ele><time>2026-05-01T13:00:24Z</time></trkpt><trkpt lat="44.3268330447196" lon="11.677403309224907"><ele>51.666666666666664</ele><time>2026-05-01T13:00:26Z</time></trkpt><trkpt lat="44.326775812912764" lon="11.677310633134923"><ele>52.33333333333333</ele><time>2026-05-01T13:00:28Z</time></trkpt><trkpt lat="44.326722205979245" lon="11.677215169317831"><ele>53.0</ele><time>2026-05-01T13:00:30Z</time></trkpt><trkpt lat="44.326664935167656" lon="11.67712567190954"><ele>53.666666666666664</ele><time>2026-05-01T13:00:32Z</time></trkpt><trkpt lat="44.326600790951055" lon="11.67703399468452"><ele>54.33333333333333</ele><time>2026-05-01T13:00:34Z</time></trkpt><trkpt lat="44.32654972345298" lon="11.676953251577372"><ele>55.0</ele><time>2026-05-01T13:00:36Z</time></trkpt><trkpt lat="44.32647402427199" lon="11.676863597727172"><ele>55.0</ele><time>2026-05-01T13:00:38Z</time></trkpt><trkpt lat="44.32641665755151" lon="11.67675722490417"><ele>55.0</ele><time>2026-05-01T13:00:40Z</time></trkpt><trkpt lat="44.32635438555558" lon="11.67665752505253"><ele>55.0</ele><time>2026-05-01T13:00:42Z</time></trkpt><trkpt lat="44.32628158936501" lon="11.67654824042834"><ele>55.0</ele><time>2026-05-01T13:00:44Z</time></trkpt><trkpt lat="44.32623611103562" lon="11.676434136327469"><ele>55.0</ele><time>2026-05-01T13:00:46Z</time></trkpt><trkpt lat="44.32614672833502" lon="11.676333035224998"><ele>55.0</ele><time>2026-05-01T13:00:48Z</time></trkpt><trkpt lat="44.326070522271" lon="11.676220004697871"><ele>55.0</ele><time>2026-05-01T13:00:50Z</time></trkpt><trkpt lat="44.3259964918802" lon="11.676105857421458"><ele>55.0</ele><time>2026-05-01T13:00:52Z</time></trkpt><trkpt lat="44.325933264088626" lon="11.675980989131784"><ele>55.0</ele><time>2026-05-01T13:00:54Z</time></trkpt><trkpt lat="44.32587100456456" lon="11.675857057041167"><ele>55.0</ele><time>2026-05-01T13:00:56Z</time></trkpt><trkpt lat="44.325803819681184" lon="11.675731838272508"><ele>55.0</ele><time>2026-05-01T13:00:58Z</time></trkpt><trkpt lat="44.32573923844175" lon="11.675612576015663"><ele>55.0</ele><time>2026-05-01T13:01:00Z</time></trkpt><trkpt lat="44.325668326567964" lon="11.675492966542103"><ele>55.0</ele><time>2026-05-01T13:01:02Z</time></trkpt><trkpt lat="44.325588212557" lon="11.675392741150498"><ele>55.0</ele><time>2026-05-01T13:01:04Z</time></trkpt><trkpt lat="44.32550078183262" lon="11.675295923242226"><ele>55.0</ele><time>2026-05-01T13:01:06Z</time></trkpt><trkpt lat="44.325412885353366" lon="11.675204083514558"><ele>55.0</ele><time>2026-05-01T13:01:08Z</time></trkpt><trkpt lat="44.32531664826089" lon="11.675106285918138"><ele>55.0</ele><time>2026-05-01T13:01:10Z</time></trkpt><trkpt lat="44.32522306275913" lon="11.675008455352199"><ele>55.0</ele><time>2026-05-01T13:01:12Z</time></trkpt><trkpt lat="44.32512054016544" lon="11.674921608441817"><ele>55.0</ele><time>2026-05-01T13:01:14Z</time></trkpt><trkpt lat="44.32502098258521" lon="11.674839238679688"><ele>55.0</ele><time>2026-05-01T13:01:16Z</time></trkpt><trkpt lat="44.32491513608714" lon="11.674757291350984"><ele>55.0</ele><time>2026-05-01T13:01:18Z</time></trkpt><trkpt lat="44.32480712738074" lon="11.674685970119574"><ele>55.0</ele><time>2026-05-01T13:01:20Z</time></trkpt><trkpt lat="44.3247064735839" lon="11.674601962489227"><ele>55.0</ele><time>2026-05-01T13:01:22Z</time></trkpt><trkpt lat="44.32460396497781" lon="11.67452798312783"><ele>55.0</ele><time>2026-05-01T13:01:24Z</time></trkpt><trkpt lat="44.32450253051858" lon="11.674458669294555"><ele>55.0</ele><time>2026-05-01T13:01:26Z</time></trkpt><trkpt lat="44.32440034431335" lon="11.674396422888769"><ele>55.0</ele><time>2026-05-01T13:01:28Z</time></trkpt><trkpt lat="44.32430420345099" lon="11.674321690070826"><ele>55.0</ele><time>2026-05-01T13:01:30Z</time></trkpt><trkpt lat="44.32420556541853" lon="11.674261097834632"><ele>55.0</ele><time>2026-05-01T13:01:32Z</time></trkpt><trkpt lat="44.32410555945259" lon="11.674203618095273"><ele>55.0</ele><time>2026-05-01T13:01:34Z</time></trkpt><trkpt lat="44.32400301963295" lon="11.674153669937343"><ele>55.0</ele><time>2026-05-01T13:01:36Z</time></trkpt><trkpt lat="44.32390464861698" lon="11.674094608866877"><ele>55.0</ele><time>2026-05-01T13:01:38Z</time></trkpt><trkpt lat="44.323801940578285" lon="11.674026558385243"><ele>55.0</ele><time>2026-05-01T13:01:40Z</time></trkpt><trkpt lat="44.323702306710345" lon="11.67394230701505"><ele>55.0</ele><time>2026-05-01T13:01:42Z</time></trkpt><trkpt lat="44.32362589023747" lon="11.673811653538086"><ele>55.0</ele><time>2026-05-01T13:01:44Z</time></trkpt><trkpt lat="44.32357885731674" lon="11.673666950332688"><ele>55.0</ele><time>2026-05-01T13:01:46Z</time></trkpt><trkpt lat="44.32352428864692" lon="11.673527846464783"><ele>55.0</ele><time>2026-05-01T13:01:48Z</time></trkpt><trkpt lat="44.323475225181966" lon="11.673388380911964"><ele>55.0</ele><time>2026-05-01T13:01:50Z</time></trkpt><trkpt lat="44.32340497518794" lon="11.673268148043686"><ele>55.0</ele><time>2026-05-01T13:01:51.999Z</time></trkpt><trkpt lat="44.32333142549656" lon="11.673166598111077"><ele>55.0</ele><time>2026-05-01T13:01:53.999Z</time></trkpt><trkpt lat="44.323237897766255" lon="11.67308170914574"><ele>55.0</ele><time>2026-05-01T13:01:55.999Z</time></trkpt><trkpt lat="44.3231447852775" lon="11.672995315445588"><ele>55.0</ele><time>2026-05-01T13:01:57.999Z</time></trkpt><trkpt lat="44.323045461381795" lon="11.672914860117745"><ele>55.0</ele><time>2026-05-01T13:01:59.999Z</time></trkpt><trkpt lat="44.322944031259226" lon="11.672848238624997"><ele>54.8</ele><time>2026-05-01T13:02:01.999Z</time></trkpt><trkpt lat="44.32285410400547" lon="11.672764696525014"><ele>54.6</ele><time>2026-05-01T13:02:03.999Z</time></trkpt><trkpt lat="44.32276981320026" lon="11.672690905774795"><ele>54.400000000000006</ele><time>2026-05-01T13:02:05.999Z</time></trkpt><trkpt lat="44.32269065245197" lon="11.67264124686309"><ele>54.2</ele><time>2026-05-01T13:02:07.999Z</time></trkpt><trkpt lat="44.32261219123116" lon="11.67254600788028"><ele>54.0</ele><time>2026-05-01T13:02:09.999Z</time></trkpt><trkpt lat="44.32251360397364" lon="11.672484735062215"><ele>54.0</ele><time>2026-05-01T13:02:11.999Z</time></trkpt><trkpt lat="44.32244231276376" lon="11.672399722649534"><ele>54.0</ele><time>2026-05-01T13:02:13.999Z</time></trkpt><trkpt lat="44.32237018358836" lon="11.67235834080446"><ele>54.0</ele><time>2026-05-01T13:02:15.999Z</time></trkpt><trkpt lat="44.32230703747175" lon="11.67228835097078"><ele>54.0</ele><time>2026-05-01T13:02:17.999Z</time></trkpt><trkpt lat="44.32224293972356" lon="11.672229463212732"><ele>54.0</ele><time>2026-05-01T13:02:19.999Z</time></trkpt><trkpt lat="44.322186449531365" lon="11.672156419122036"><ele>54.0</ele><time>2026-05-01T13:02:21.999Z</time></trkpt><trkpt lat="44.3221394414016" lon="11.67206584685252"><ele>53.800000000000004</ele><time>2026-05-01T13:02:24Z</time></trkpt><trkpt lat="44.322105391032814" lon="11.671946995628844"><ele>53.60000000000001</ele><time>2026-05-01T13:02:26Z</time></trkpt><trkpt lat="44.32206606831269" lon="11.671814668899405"><ele>53.4</ele><time>2026-05-01T13:02:28Z</time></trkpt><trkpt lat="44.32201246420118" lon="11.671672698126025"><ele>53.2</ele><time>2026-05-01T13:02:30Z</time></trkpt><trkpt lat="44.32197146771412" lon="11.671604132245998"><ele>53.0</ele><time>2026-05-01T13:02:31Z</time></trkpt><trkpt lat="44.32188448500322" lon="11.671501565582423"><ele>53.4</ele><time>2026-05-01T13:02:33Z</time></trkpt><trkpt lat="44.32183152448588" lon="11.671381213377728"><ele>53.8</ele><time>2026-05-01T13:02:35Z</time></trkpt><trkpt lat="44.32176113628584" lon="11.671289628100176"><ele>54.2</ele><time>2026-05-01T13:02:37Z</time></trkpt><trkpt lat="44.32170746797153" lon="11.671174766582398"><ele>54.6</ele><time>2026-05-01T13:02:39Z</time></trkpt><trkpt lat="44.3216383324744" lon="11.671095473088622"><ele>55.0</ele><time>2026-05-01T13:02:41Z</time></trkpt><trkpt lat="44.32158033078787" lon="11.67099258743875"><ele>55.0</ele><time>2026-05-01T13:02:43Z</time></trkpt><trkpt lat="44.32150990887801" lon="11.670893675816808"><ele>55.0</ele><time>2026-05-01T13:02:45Z</time></trkpt><trkpt lat="44.32145444862208" lon="11.670794461217612"><ele>55.0</ele><time>2026-05-01T13:02:47Z</time></trkpt><trkpt lat="44.32140009407545" lon="11.670704116435248"><ele>55.0</ele><time>2026-05-01T13:02:49Z</time></trkpt><trkpt lat="44.32134691329015" lon="11.670601333486687"><ele>55.0</ele><time>2026-05-01T13:02:51Z</time></trkpt><trkpt lat="44.32129553183602" lon="11.670497865252475"><ele>54.8</ele><time>2026-05-01T13:02:53Z</time></trkpt><trkpt lat="44.32123916490675" lon="11.670387551772256"><ele>54.6</ele><time>2026-05-01T13:02:55Z</time></trkpt><trkpt lat="44.32118317672519" lon="11.670255535233064"><ele>54.400000000000006</ele><time>2026-05-01T13:02:57Z</time></trkpt><trkpt lat="44.32112241591105" lon="11.670129943030801"><ele>54.2</ele><time>2026-05-01T13:02:59Z</time></trkpt><trkpt lat="44.32106317340069" lon="11.67000597923918"><ele>54.0</ele><time>2026-05-01T13:03:01Z</time></trkpt><trkpt lat="44.32102723911972" lon="11.669867235085478"><ele>54.0</ele><time>2026-05-01T13:03:03Z</time></trkpt><trkpt lat="44.32096339298991" lon="11.66975369597833"><ele>54.00000000000001</ele><time>2026-05-01T13:03:05Z</time></trkpt><trkpt lat="44.32091681598924" lon="11.669626975864977"><ele>54.00000000000001</ele><time>2026-05-01T13:03:07Z</time></trkpt><trkpt lat="44.32085972115574" lon="11.669517562973702"><ele>54.0</ele><time>2026-05-01T13:03:09Z</time></trkpt><trkpt lat="44.32078079409931" lon="11.669435407079805"><ele>54.0</ele><time>2026-05-01T13:03:11Z</time></trkpt><trkpt lat="44.320729624472236" lon="11.669339308834243"><ele>54.166666666666664</ele><time>2026-05-01T13:03:13Z</time></trkpt><trkpt lat="44.32069313422957" lon="11.669238581958094"><ele>54.33333333333333</ele><time>2026-05-01T13:03:15Z</time></trkpt><trkpt lat="44.32066124817619" lon="11.669135954009299"><ele>54.5</ele><time>2026-05-01T13:03:17Z</time></trkpt><trkpt lat="44.320633935457884" lon="11.669047620927575"><ele>54.666666666666664</ele><time>2026-05-01T13:03:19Z</time></trkpt><trkpt lat="44.32060971387029" lon="11.668950524666956"><ele>54.83333333333333</ele><time>2026-05-01T13:03:21Z</time></trkpt><trkpt lat="44.32058502559271" lon="11.66884267195107"><ele>55.0</ele><time>2026-05-01T13:03:23Z</time></trkpt><trkpt lat="44.3205703093144" lon="11.668719662907353"><ele>55.6</ele><time>2026-05-01T13:03:25Z</time></trkpt><trkpt lat="44.32053305927947" lon="11.668603415524116"><ele>56.2</ele><time>2026-05-01T13:03:27Z</time></trkpt><trkpt lat="44.320510167422555" lon="11.668478343967875"><ele>56.8</ele><time>2026-05-01T13:03:29Z</time></trkpt><trkpt lat="44.32047955661036" lon="11.668354165138892"><ele>57.4</ele><time>2026-05-01T13:03:31Z</time></trkpt><trkpt lat="44.320445091106784" lon="11.66822740016809"><ele>58.0</ele><time>2026-05-01T13:03:33Z</time></trkpt><trkpt lat="44.32041122350184" lon="11.668096071866756"><ele>58.0</ele><time>2026-05-01T13:03:35Z</time></trkpt><trkpt lat="44.32038413600506" lon="11.667962893379773"><ele>58.0</ele><time>2026-05-01T13:03:37Z</time></trkpt><trkpt lat="44.32034626871876" lon="11.667829717120682"><ele>58.0</ele><time>2026-05-01T13:03:39Z</time></trkpt><trkpt lat="44.32030676091544" lon="11.6677057899381"><ele>58.0</ele><time>2026-05-01T13:03:41Z</time></trkpt><trkpt lat="44.32026368131304" lon="11.66757035369721"><ele>58.0</ele><time>2026-05-01T13:03:43Z</time></trkpt><trkpt lat="44.32022271457454" lon="11.667441137598102"><ele>58.0</ele><time>2026-05-01T13:03:45Z</time></trkpt><trkpt lat="44.32018435500689" lon="11.66730809764003"><ele>58.0</ele><time>2026-05-01T13:03:47Z</time></trkpt><trkpt lat="44.32014611978345" lon="11.667180194979464"><ele>58.0</ele><time>2026-05-01T13:03:49Z</time></trkpt><trkpt lat="44.32010935566946" lon="11.667054424931143"><ele>58.0</ele><time>2026-05-01T13:03:51Z</time></trkpt><trkpt lat="44.32008155845353" lon="11.66693035336886"><ele>58.0</ele><time>2026-05-01T13:03:53Z</time></trkpt><trkpt lat="44.320046578162774" lon="11.666803492889459"><ele>58.0</ele><time>2026-05-01T13:03:55Z</time></trkpt><trkpt lat="44.32001532242572" lon="11.666676253368445"><ele>58.0</ele><time>2026-05-01T13:03:57Z</time></trkpt><trkpt lat="44.31997778954825" lon="11.666554663931022"><ele>58.0</ele><time>2026-05-01T13:03:59Z</time></trkpt><trkpt lat="44.319930727445275" lon="11.66643872617945"><ele>58.0</ele><time>2026-05-01T13:04:01Z</time></trkpt><trkpt lat="44.31987336503093" lon="11.666330556857133"><ele>58.0</ele><time>2026-05-01T13:04:03Z</time></trkpt><trkpt lat="44.31980869426939" lon="11.66624177285418"><ele>58.0</ele><time>2026-05-01T13:04:04.999Z</time></trkpt><trkpt lat="44.31973414553368" lon="11.666172004927429"><ele>58.0</ele><time>2026-05-01T13:04:06.999Z</time></trkpt><trkpt lat="44.319656879309214" lon="11.666087142379723"><ele>58.0</ele><time>2026-05-01T13:04:08.999Z</time></trkpt><trkpt lat="44.3195857074292" lon="11.665994066348084"><ele>58.0</ele><time>2026-05-01T13:04:10.999Z</time></trkpt><trkpt lat="44.3195091174826" lon="11.665892138651719"><ele>58.0</ele><time>2026-05-01T13:04:12.999Z</time></trkpt><trkpt lat="44.31943403241609" lon="11.665767833254131"><ele>58.0</ele><time>2026-05-01T13:04:14.999Z</time></trkpt><trkpt lat="44.31936233080442" lon="11.665658702624368"><ele>58.0</ele><time>2026-05-01T13:04:16.999Z</time></trkpt><trkpt lat="44.319281758408195" lon="11.665557295170954"><ele>58.0</ele><time>2026-05-01T13:04:18.999Z</time></trkpt><trkpt lat="44.31918833423358" lon="11.665466682585379"><ele>58.0</ele><time>2026-05-01T13:04:20.999Z</time></trkpt><trkpt lat="44.31908243573108" lon="11.665393567837375"><ele>58.0</ele><time>2026-05-01T13:04:22.999Z</time></trkpt><trkpt lat="44.31897513711403" lon="11.665337131933356"><ele>57.8</ele><time>2026-05-01T13:04:24.999Z</time></trkpt><trkpt lat="44.31886513785647" lon="11.665279759534988"><ele>57.599999999999994</ele><time>2026-05-01T13:04:26.999Z</time></trkpt><trkpt lat="44.318760264154406" lon="11.665229874868958"><ele>57.400000000000006</ele><time>2026-05-01T13:04:28.999Z</time></trkpt><trkpt lat="44.318654903942935" lon="11.665183809745534"><ele>57.2</ele><time>2026-05-01T13:04:31Z</time></trkpt><trkpt lat="44.31855323627626" lon="11.665137409311898"><ele>57.0</ele><time>2026-05-01T13:04:33Z</time></trkpt><trkpt lat="44.318454862907174" lon="11.665089049262692"><ele>57.0</ele><time>2026-05-01T13:04:35Z</time></trkpt><trkpt lat="44.31835500122227" lon="11.665041670435938"><ele>57.0</ele><time>2026-05-01T13:04:37Z</time></trkpt><trkpt lat="44.31826021099956" lon="11.66499000339445"><ele>57.0</ele><time>2026-05-01T13:04:39Z</time></trkpt><trkpt lat="44.31817054494455" lon="11.664950104490849"><ele>57.0</ele><time>2026-05-01T13:04:41Z</time></trkpt><trkpt lat="44.31807775899" lon="11.664913781672642"><ele>57.0</ele><time>2026-05-01T13:04:43Z</time></trkpt><trkpt lat="44.31798637669189" lon="11.664868950384982"><ele>57.2</ele><time>2026-05-01T13:04:45Z</time></trkpt><trkpt lat="44.3178975793934" lon="11.6648304517385"><ele>57.400000000000006</ele><time>2026-05-01T13:04:47Z</time></trkpt><trkpt lat="44.31781103034046" lon="11.664785178256702"><ele>57.599999999999994</ele><time>2026-05-01T13:04:49Z</time></trkpt><trkpt lat="44.317725943860225" lon="11.664721836513431"><ele>57.8</ele><time>2026-05-01T13:04:51Z</time></trkpt><trkpt lat="44.31765821717032" lon="11.66463273462986"><ele>58.0</ele><time>2026-05-01T13:04:53Z</time></trkpt><trkpt lat="44.31758946594295" lon="11.664542826299245"><ele>58.0</ele><time>2026-05-01T13:04:55Z</time></trkpt><trkpt lat="44.31750812620906" lon="11.664488529039279"><ele>58.0</ele><time>2026-05-01T13:04:57Z</time></trkpt><trkpt lat="44.317424469995764" lon="11.664443086243569"><ele>58.0</ele><time>2026-05-01T13:04:59Z</time></trkpt><trkpt lat="44.317333110965315" lon="11.664412054869134"><ele>58.0</ele><time>2026-05-01T13:05:01Z</time></trkpt><trkpt lat="44.31723849058205" lon="11.664462106944754"><ele>58.0</ele><time>2026-05-01T13:05:03Z</time></trkpt><trkpt lat="44.317162370923896" lon="11.664567039354289"><ele>58.2</ele><time>2026-05-01T13:05:05Z</time></trkpt><trkpt lat="44.31709191782854" lon="11.664663712971793"><ele>58.4</ele><time>2026-05-01T13:05:07Z</time></trkpt><trkpt lat="44.317011518581324" lon="11.664768391074714"><ele>58.60000000000001</ele><time>2026-05-01T13:05:09Z</time></trkpt><trkpt lat="44.316927713176405" lon="11.66487717795533"><ele>58.800000000000004</ele><time>2026-05-01T13:05:11Z</time></trkpt><trkpt lat="44.316854620386046" lon="11.664974983929833"><ele>59.0</ele><time>2026-05-01T13:05:13Z</time></trkpt><trkpt lat="44.31678629316459" lon="11.665072579545066"><ele>59.0</ele><time>2026-05-01T13:05:15Z</time></trkpt><trkpt lat="44.3167227849245" lon="11.665161574642642"><ele>59.00000000000001</ele><time>2026-05-01T13:05:17Z</time></trkpt><trkpt lat="44.31663568276359" lon="11.665248139776473"><ele>59.00000000000001</ele><time>2026-05-01T13:05:19Z</time></trkpt><trkpt lat="44.31656410990466" lon="11.665366528331349"><ele>59.0</ele><time>2026-05-01T13:05:21Z</time></trkpt><trkpt lat="44.31649097586715" lon="11.665460025617922"><ele>59.0</ele><time>2026-05-01T13:05:23Z</time></trkpt><trkpt lat="44.31641433380913" lon="11.665539908350231"><ele>58.6</ele><time>2026-05-01T13:05:25Z</time></trkpt><trkpt lat="44.31631926701771" lon="11.665604469861044"><ele>58.2</ele><time>2026-05-01T13:05:27Z</time></trkpt><trkpt lat="44.316211690670634" lon="11.665623049493982"><ele>57.800000000000004</ele><time>2026-05-01T13:05:29Z</time></trkpt><trkpt lat="44.316118792205856" lon="11.665642758892057"><ele>57.400000000000006</ele><time>2026-05-01T13:05:31Z</time></trkpt><trkpt lat="44.31603768765505" lon="11.665652603084938"><ele>57.0</ele><time>2026-05-01T13:05:33Z</time></trkpt><trkpt lat="44.31594179443519" lon="11.66566063959803"><ele>57.0</ele><time>2026-05-01T13:05:35Z</time></trkpt><trkpt lat="44.31584984979626" lon="11.66567888254253"><ele>57.0</ele><time>2026-05-01T13:05:37Z</time></trkpt><trkpt lat="44.31576531523836" lon="11.665691385297382"><ele>57.0</ele><time>2026-05-01T13:05:39Z</time></trkpt><trkpt lat="44.315689528373866" lon="11.665701491757858"><ele>57.0</ele><time>2026-05-01T13:05:41Z</time></trkpt><trkpt lat="44.31560884949372" lon="11.665719448976931"><ele>57.0</ele><time>2026-05-01T13:05:43Z</time></trkpt><trkpt lat="44.31551368095953" lon="11.66574375729087"><ele>57.0</ele><time>2026-05-01T13:05:45Z</time></trkpt><trkpt lat="44.31543733123848" lon="11.665714528482916"><ele>57.0</ele><time>2026-05-01T13:05:47Z</time></trkpt><trkpt lat="44.315391576411294" lon="11.665615038637723"><ele>57.0</ele><time>2026-05-01T13:05:49Z</time></trkpt><trkpt lat="44.315356993534444" lon="11.665511025934812"><ele>57.0</ele><time>2026-05-01T13:05:51Z</time></trkpt><trkpt lat="44.3152947064501" lon="11.665425419756467"><ele>57.0</ele><time>2026-05-01T13:05:53Z</time></trkpt><trkpt lat="44.315215751386894" lon="11.665357650752632"><ele>57.0</ele><time>2026-05-01T13:05:54.999Z</time></trkpt><trkpt lat="44.31514501372917" lon="11.665283693671702"><ele>57.0</ele><time>2026-05-01T13:05:56.999Z</time></trkpt><trkpt lat="44.31507576377145" lon="11.665214833801903"><ele>57.0</ele><time>2026-05-01T13:05:58.999Z</time></trkpt><trkpt lat="44.3150029607711" lon="11.665116291991772"><ele>57.0</ele><time>2026-05-01T13:06:00.999Z</time></trkpt><trkpt lat="44.31493412852209" lon="11.665005904717873"><ele>57.0</ele><time>2026-05-01T13:06:02.999Z</time></trkpt><trkpt lat="44.314850963199305" lon="11.664867472152164"><ele>57.0</ele><time>2026-05-01T13:06:04.999Z</time></trkpt><trkpt lat="44.314814066801624" lon="11.664790295359495"><ele>57.0</ele><time>2026-05-01T13:06:05.999Z</time></trkpt><trkpt lat="44.31477189256526" lon="11.664717531921566"><ele>56.857142857142854</ele><time>2026-05-01T13:06:06.999Z</time></trkpt><trkpt lat="44.31472331026614" lon="11.664651253330256"><ele>56.71428571428571</ele><time>2026-05-01T13:06:07.999Z</time></trkpt><trkpt lat="44.31467475585675" lon="11.664585946558141"><ele>56.57142857142857</ele><time>2026-05-01T13:06:08.999Z</time></trkpt><trkpt lat="44.31462581517134" lon="11.664520964043001"><ele>56.42857142857143</ele><time>2026-05-01T13:06:09.999Z</time></trkpt><trkpt lat="44.31457849264501" lon="11.664459225282348"><ele>56.285714285714285</ele><time>2026-05-01T13:06:10.999Z</time></trkpt><trkpt lat="44.314530514746494" lon="11.6644020075435"><ele>56.14285714285714</ele><time>2026-05-01T13:06:11.999Z</time></trkpt><trkpt lat="44.31444874016547" lon="11.66428716250672"><ele>56.0</ele><time>2026-05-01T13:06:13.999Z</time></trkpt><trkpt lat="44.31436328834218" lon="11.664177632620644"><ele>56.0</ele><time>2026-05-01T13:06:15.999Z</time></trkpt><trkpt lat="44.3142771735533" lon="11.664068770115485"><ele>56.0</ele><time>2026-05-01T13:06:17.999Z</time></trkpt><trkpt lat="44.314190103824274" lon="11.66396213796243"><ele>56.0</ele><time>2026-05-01T13:06:19.999Z</time></trkpt><trkpt lat="44.314109334518434" lon="11.663849912216579"><ele>56.0</ele><time>2026-05-01T13:06:21.999Z</time></trkpt><trkpt lat="44.31402120287072" lon="11.663737189607529"><ele>56.0</ele><time>2026-05-01T13:06:23.999Z</time></trkpt><trkpt lat="44.31393228847746" lon="11.663631592885588"><ele>55.99999999999999</ele><time>2026-05-01T13:06:25.999Z</time></trkpt><trkpt lat="44.31384844076715" lon="11.663518597781241"><ele>55.99999999999999</ele><time>2026-05-01T13:06:27.999Z</time></trkpt><trkpt lat="44.31379954548477" lon="11.663459417732122"><ele>56.0</ele><time>2026-05-01T13:06:28.999Z</time></trkpt><trkpt lat="44.3137151758419" lon="11.663346447276549"><ele>56.0</ele><time>2026-05-01T13:06:30.999Z</time></trkpt><trkpt lat="44.31362861577649" lon="11.663228592419431"><ele>56.0</ele><time>2026-05-01T13:06:32.999Z</time></trkpt><trkpt lat="44.31353929810483" lon="11.663117778235627"><ele>56.0</ele><time>2026-05-01T13:06:34.999Z</time></trkpt><trkpt lat="44.31345252992003" lon="11.663011950099621"><ele>56.0</ele><time>2026-05-01T13:06:37Z</time></trkpt><trkpt lat="44.31337399481284" lon="11.66290122607191"><ele>56.0</ele><time>2026-05-01T13:06:39Z</time></trkpt><trkpt lat="44.313287808554406" lon="11.66280001137924"><ele>56.0</ele><time>2026-05-01T13:06:41Z</time></trkpt><trkpt lat="44.31320857885111" lon="11.6626896281633"><ele>55.99999999999999</ele><time>2026-05-01T13:06:43Z</time></trkpt><trkpt lat="44.31312342352202" lon="11.662585295719762"><ele>55.99999999999999</ele><time>2026-05-01T13:06:45Z</time></trkpt><trkpt lat="44.31304755859866" lon="11.662483594325627"><ele>56.0</ele><time>2026-05-01T13:06:47Z</time></trkpt><trkpt lat="44.3129662616597" lon="11.662381818825748"><ele>56.0</ele><time>2026-05-01T13:06:49Z</time></trkpt><trkpt lat="44.312891228384736" lon="11.662288549089567"><ele>56.0</ele><time>2026-05-01T13:06:51Z</time></trkpt><trkpt lat="44.312804257477005" lon="11.662183648478386"><ele>56.0</ele><time>2026-05-01T13:06:53Z</time></trkpt><trkpt lat="44.312724508665454" lon="11.662076387214816"><ele>56.0</ele><time>2026-05-01T13:06:55Z</time></trkpt><trkpt lat="44.31263604624768" lon="11.661967099879387"><ele>56.0</ele><time>2026-05-01T13:06:57Z</time></trkpt><trkpt lat="44.312553070119634" lon="11.661856371768666"><ele>56.0</ele><time>2026-05-01T13:06:59Z</time></trkpt><trkpt lat="44.31247009111983" lon="11.661752646591918"><ele>55.99999999999999</ele><time>2026-05-01T13:07:01Z</time></trkpt><trkpt lat="44.3123889883917" lon="11.661647846816226"><ele>55.99999999999999</ele><time>2026-05-01T13:07:03Z</time></trkpt><trkpt lat="44.312302970731224" lon="11.661543131677096"><ele>56.0</ele><time>2026-05-01T13:07:05Z</time></trkpt><trkpt lat="44.31222361772481" lon="11.661445041246457"><ele>56.0</ele><time>2026-05-01T13:07:07Z</time></trkpt><trkpt lat="44.31215530822141" lon="11.661342242471019"><ele>55.8</ele><time>2026-05-01T13:07:09Z</time></trkpt><trkpt lat="44.31211242920855" lon="11.661226805004315"><ele>55.599999999999994</ele><time>2026-05-01T13:07:11Z</time></trkpt><trkpt lat="44.312093230555625" lon="11.661103734961506"><ele>55.4</ele><time>2026-05-01T13:07:13Z</time></trkpt><trkpt lat="44.31208486541688" lon="11.66096321427844"><ele>55.2</ele><time>2026-05-01T13:07:15Z</time></trkpt><trkpt lat="44.31210781204774" lon="11.660803207418308"><ele>55.0</ele><time>2026-05-01T13:07:17Z</time></trkpt><trkpt lat="44.3121662505358" lon="11.66066338466634"><ele>55.2</ele><time>2026-05-01T13:07:19Z</time></trkpt><trkpt lat="44.31224481916352" lon="11.660552113625176"><ele>55.4</ele><time>2026-05-01T13:07:21Z</time></trkpt><trkpt lat="44.31232669901349" lon="11.660444503272197"><ele>55.599999999999994</ele><time>2026-05-01T13:07:23Z</time></trkpt><trkpt lat="44.312408805321155" lon="11.660342679502339"><ele>55.8</ele><time>2026-05-01T13:07:25Z</time></trkpt><trkpt lat="44.3124901326249" lon="11.660235442493454"><ele>56.0</ele><time>2026-05-01T13:07:27Z</time></trkpt><trkpt lat="44.312574611347515" lon="11.660135883974997"><ele>56.199999999999996</ele><time>2026-05-01T13:07:29Z</time></trkpt><trkpt lat="44.31264847245617" lon="11.660027353566823"><ele>56.39999999999999</ele><time>2026-05-01T13:07:31Z</time></trkpt><trkpt lat="44.3127167438954" lon="11.659908930817997"><ele>56.6</ele><time>2026-05-01T13:07:33Z</time></trkpt><trkpt lat="44.31273925994023" lon="11.659765210927644"><ele>56.8</ele><time>2026-05-01T13:07:35Z</time></trkpt><trkpt lat="44.31271380324496" lon="11.659627692712462"><ele>57.0</ele><time>2026-05-01T13:07:37Z</time></trkpt><trkpt lat="44.312660247782034" lon="11.659499349041461"><ele>57.2</ele><time>2026-05-01T13:07:39Z</time></trkpt><trkpt lat="44.31260374950215" lon="11.659388856693425"><ele>57.400000000000006</ele><time>2026-05-01T13:07:41Z</time></trkpt><trkpt lat="44.312547176048625" lon="11.659262385914865"><ele>57.599999999999994</ele><time>2026-05-01T13:07:43Z</time></trkpt><trkpt lat="44.31247329858953" lon="11.65913858654605"><ele>57.8</ele><time>2026-05-01T13:07:45Z</time></trkpt><trkpt lat="44.31242731503415" lon="11.65900783722399"><ele>58.0</ele><time>2026-05-01T13:07:47Z</time></trkpt><trkpt lat="44.312442298389946" lon="11.658856384935742"><ele>58.0</ele><time>2026-05-01T13:07:49Z</time></trkpt><trkpt lat="44.31252035747359" lon="11.6587717862633"><ele>58.0</ele><time>2026-05-01T13:07:51Z</time></trkpt><trkpt lat="44.31259874254622" lon="11.658696792310895"><ele>58.0</ele><time>2026-05-01T13:07:53Z</time></trkpt><trkpt lat="44.31266842771474" lon="11.658596229576919"><ele>58.0</ele><time>2026-05-01T13:07:55Z</time></trkpt><trkpt lat="44.31273466527448" lon="11.658488892651896"><ele>58.0</ele><time>2026-05-01T13:07:57Z</time></trkpt><trkpt lat="44.31275336606287" lon="11.658347086703701"><ele>57.8</ele><time>2026-05-01T13:07:59Z</time></trkpt><trkpt lat="44.31273689030224" lon="11.658208926383164"><ele>57.599999999999994</ele><time>2026-05-01T13:08:01Z</time></trkpt><trkpt lat="44.31269432385872" lon="11.658085806736395"><ele>57.400000000000006</ele><time>2026-05-01T13:08:03Z</time></trkpt><trkpt lat="44.31264613151264" lon="11.657962142943038"><ele>57.2</ele><time>2026-05-01T13:08:05Z</time></trkpt><trkpt lat="44.31259163693711" lon="11.657838872623554"><ele>57.0</ele><time>2026-05-01T13:08:07Z</time></trkpt><trkpt lat="44.312536234532814" lon="11.657704751984419"><ele>57.0</ele><time>2026-05-01T13:08:09Z</time></trkpt><trkpt lat="44.312484664433576" lon="11.657577157249806"><ele>57.0</ele><time>2026-05-01T13:08:11Z</time></trkpt><trkpt lat="44.312427916634846" lon="11.65745138812917"><ele>57.0</ele><time>2026-05-01T13:08:13Z</time></trkpt><trkpt lat="44.312374749193886" lon="11.657316582552157"><ele>57.0</ele><time>2026-05-01T13:08:14.999Z</time></trkpt><trkpt lat="44.31232485304738" lon="11.657187707916446"><ele>57.0</ele><time>2026-05-01T13:08:16.999Z</time></trkpt><trkpt lat="44.31227325886953" lon="11.657054428986985"><ele>57.0</ele><time>2026-05-01T13:08:18.999Z</time></trkpt><trkpt lat="44.312221197857674" lon="11.65692167392667"><ele>57.0</ele><time>2026-05-01T13:08:20.999Z</time></trkpt><trkpt lat="44.312170812675326" lon="11.656790523919673"><ele>57.0</ele><time>2026-05-01T13:08:22.999Z</time></trkpt><trkpt lat="44.31212196201852" lon="11.656665114485275"><ele>57.0</ele><time>2026-05-01T13:08:24.999Z</time></trkpt><trkpt lat="44.31207455336762" lon="11.656541229772523"><ele>57.0</ele><time>2026-05-01T13:08:26.999Z</time></trkpt><trkpt lat="44.312021831057876" lon="11.656426608089633"><ele>57.0</ele><time>2026-05-01T13:08:28.999Z</time></trkpt><trkpt lat="44.311973960580694" lon="11.656310821374278"><ele>57.0</ele><time>2026-05-01T13:08:30.999Z</time></trkpt><trkpt lat="44.31192752815572" lon="11.656198099654139"><ele>57.0</ele><time>2026-05-01T13:08:32.999Z</time></trkpt><trkpt lat="44.31188382108699" lon="11.65607746063229"><ele>57.0</ele><time>2026-05-01T13:08:34.999Z</time></trkpt><trkpt lat="44.31183677053184" lon="11.655956872541825"><ele>57.0</ele><time>2026-05-01T13:08:36.999Z</time></trkpt><trkpt lat="44.31179335738926" lon="11.655838493488975"><ele>57.400000000000006</ele><time>2026-05-01T13:08:38.999Z</time></trkpt><trkpt lat="44.31175037451959" lon="11.655724133713036"><ele>57.800000000000004</ele><time>2026-05-01T13:08:40.999Z</time></trkpt><trkpt lat="44.311695122252544" lon="11.655605424224259"><ele>58.2</ele><time>2026-05-01T13:08:43Z</time></trkpt><trkpt lat="44.311638371223296" lon="11.655504332235028"><ele>58.6</ele><time>2026-05-01T13:08:45Z</time></trkpt><trkpt lat="44.311582719013856" lon="11.655403395832389"><ele>59.0</ele><time>2026-05-01T13:08:47Z</time></trkpt><trkpt lat="44.311519165424606" lon="11.655290870592545"><ele>59.2</ele><time>2026-05-01T13:08:49Z</time></trkpt><trkpt lat="44.311454751856346" lon="11.65517761714341"><ele>59.400000000000006</ele><time>2026-05-01T13:08:51Z</time></trkpt><trkpt lat="44.31139337721217" lon="11.65506388775558"><ele>59.6</ele><time>2026-05-01T13:08:53Z</time></trkpt><trkpt lat="44.31133653246605" lon="11.654957283052493"><ele>59.8</ele><time>2026-05-01T13:08:55Z</time></trkpt><trkpt lat="44.31127687405069" lon="11.654842425822869"><ele>60.0</ele><time>2026-05-01T13:08:57Z</time></trkpt><trkpt lat="44.311217657062755" lon="11.654724194024313"><ele>60.0</ele><time>2026-05-01T13:08:59Z</time></trkpt><trkpt lat="44.311153925894146" lon="11.654603562630095"><ele>60.0</ele><time>2026-05-01T13:09:01Z</time></trkpt><trkpt lat="44.31109197564799" lon="11.654468276186096"><ele>60.0</ele><time>2026-05-01T13:09:03Z</time></trkpt><trkpt lat="44.31101378731695" lon="11.654347280655893"><ele>60.0</ele><time>2026-05-01T13:09:05Z</time></trkpt><trkpt lat="44.31094040781638" lon="11.654220067643532"><ele>60.25</ele><time>2026-05-01T13:09:07Z</time></trkpt><trkpt lat="44.31087923872162" lon="11.654082037579384"><ele>60.5</ele><time>2026-05-01T13:09:09Z</time></trkpt><trkpt lat="44.31080796900418" lon="11.653956746662924"><ele>60.75</ele><time>2026-05-01T13:09:11Z</time></trkpt><trkpt lat="44.31072068395761" lon="11.653835881545005"><ele>61.0</ele><time>2026-05-01T13:09:13Z</time></trkpt><trkpt lat="44.31065330546762" lon="11.653713877009823"><ele>60.75</ele><time>2026-05-01T13:09:15Z</time></trkpt><trkpt lat="44.31058238698725" lon="11.653582931787852"><ele>60.5</ele><time>2026-05-01T13:09:17Z</time></trkpt><trkpt lat="44.31051580302001" lon="11.653454804687334"><ele>60.25</ele><time>2026-05-01T13:09:19Z</time></trkpt><trkpt lat="44.31043953236359" lon="11.6533338391692"><ele>60.0</ele><time>2026-05-01T13:09:21Z</time></trkpt><trkpt lat="44.31037284460492" lon="11.653203779687853"><ele>60.0</ele><time>2026-05-01T13:09:23Z</time></trkpt><trkpt lat="44.31030712556416" lon="11.6530704812713"><ele>60.0</ele><time>2026-05-01T13:09:25Z</time></trkpt><trkpt lat="44.31024027195458" lon="11.65294661469702"><ele>60.0</ele><time>2026-05-01T13:09:27Z</time></trkpt><trkpt lat="44.31017293921171" lon="11.652823699495432"><ele>60.0</ele><time>2026-05-01T13:09:29Z</time></trkpt><trkpt lat="44.31010215484605" lon="11.652696032018229"><ele>60.0</ele><time>2026-05-01T13:09:31Z</time></trkpt><trkpt lat="44.31003260419512" lon="11.652572812508035"><ele>60.0</ele><time>2026-05-01T13:09:33Z</time></trkpt><trkpt lat="44.30996748722717" lon="11.652446923465591"><ele>60.0</ele><time>2026-05-01T13:09:35Z</time></trkpt><trkpt lat="44.30989592604642" lon="11.652330351474003"><ele>60.0</ele><time>2026-05-01T13:09:37Z</time></trkpt><trkpt lat="44.30983025980587" lon="11.652213435057137"><ele>60.0</ele><time>2026-05-01T13:09:39Z</time></trkpt><trkpt lat="44.30976389693487" lon="11.652130143026836"><ele>60.2</ele><time>2026-05-01T13:09:41Z</time></trkpt><trkpt lat="44.30968234975358" lon="11.652074818131"><ele>60.4</ele><time>2026-05-01T13:09:43Z</time></trkpt><trkpt lat="44.30960569946687" lon="11.6519867498133"><ele>60.599999999999994</ele><time>2026-05-01T13:09:45Z</time></trkpt><trkpt lat="44.309531408692735" lon="11.651889334712795"><ele>60.8</ele><time>2026-05-01T13:09:47Z</time></trkpt><trkpt lat="44.30947066775184" lon="11.651786075822484"><ele>61.0</ele><time>2026-05-01T13:09:49Z</time></trkpt><trkpt lat="44.30940413841188" lon="11.65168709954975"><ele>61.0</ele><time>2026-05-01T13:09:51Z</time></trkpt><trkpt lat="44.309363903829784" lon="11.65156601783567"><ele>60.99999999999999</ele><time>2026-05-01T13:09:53Z</time></trkpt><trkpt lat="44.309299978609815" lon="11.651457908093963"><ele>60.99999999999999</ele><time>2026-05-01T13:09:55Z</time></trkpt><trkpt lat="44.30923379882616" lon="11.651364970218445"><ele>61.0</ele><time>2026-05-01T13:09:57Z</time></trkpt><trkpt lat="44.30917231546036" lon="11.651257559492349"><ele>61.0</ele><time>2026-05-01T13:09:59Z</time></trkpt><trkpt lat="44.309085723996745" lon="11.651162223236856"><ele>61.4</ele><time>2026-05-01T13:10:01Z</time></trkpt><trkpt lat="44.309039882226735" lon="11.651048408925323"><ele>61.8</ele><time>2026-05-01T13:10:03Z</time></trkpt><trkpt lat="44.308964232403675" lon="11.650940495775306"><ele>62.199999999999996</ele><time>2026-05-01T13:10:05Z</time></trkpt><trkpt lat="44.30890011635415" lon="11.650830819648833"><ele>62.599999999999994</ele><time>2026-05-01T13:10:07Z</time></trkpt><trkpt lat="44.308830918114175" lon="11.650725149309526"><ele>63.0</ele><time>2026-05-01T13:10:09Z</time></trkpt><trkpt lat="44.308764171142975" lon="11.650618529112776"><ele>63.0</ele><time>2026-05-01T13:10:11Z</time></trkpt><trkpt lat="44.30869919539075" lon="11.650514064352677"><ele>63.0</ele><time>2026-05-01T13:10:13Z</time></trkpt><trkpt lat="44.30862260260679" lon="11.650414112660842"><ele>63.0</ele><time>2026-05-01T13:10:15Z</time></trkpt><trkpt lat="44.30854582997267" lon="11.650317624158806"><ele>63.0</ele><time>2026-05-01T13:10:17Z</time></trkpt><trkpt lat="44.30846618293975" lon="11.650220501713266"><ele>63.0</ele><time>2026-05-01T13:10:19Z</time></trkpt><trkpt lat="44.30840194871959" lon="11.650110543022413"><ele>63.0</ele><time>2026-05-01T13:10:20.999Z</time></trkpt><trkpt lat="44.30834743924349" lon="11.64998827313256"><ele>63.0</ele><time>2026-05-01T13:10:22.999Z</time></trkpt><trkpt lat="44.30829201181969" lon="11.649858590135423"><ele>63.0</ele><time>2026-05-01T13:10:24.999Z</time></trkpt><trkpt lat="44.308236168802324" lon="11.64974207732098"><ele>63.0</ele><time>2026-05-01T13:10:26.999Z</time></trkpt><trkpt lat="44.308171458650286" lon="11.649632188714145"><ele>63.0</ele><time>2026-05-01T13:10:28.999Z</time></trkpt><trkpt lat="44.308103218073" lon="11.649504970157436"><ele>62.599999999999994</ele><time>2026-05-01T13:10:30.999Z</time></trkpt><trkpt lat="44.30804144751334" lon="11.649394454912668"><ele>62.199999999999996</ele><time>2026-05-01T13:10:32.999Z</time></trkpt><trkpt lat="44.30799968637195" lon="11.64925790765159"><ele>61.8</ele><time>2026-05-01T13:10:34.999Z</time></trkpt><trkpt lat="44.30800524496674" lon="11.649102433745753"><ele>61.4</ele><time>2026-05-01T13:10:36.999Z</time></trkpt><trkpt lat="44.308014600263064" lon="11.648947546586262"><ele>61.0</ele><time>2026-05-01T13:10:38.999Z</time></trkpt><trkpt lat="44.30802852444181" lon="11.648783657487328"><ele>61.4</ele><time>2026-05-01T13:10:40.999Z</time></trkpt><trkpt lat="44.308041092093184" lon="11.64861953750422"><ele>61.8</ele><time>2026-05-01T13:10:42.999Z</time></trkpt><trkpt lat="44.30804296955536" lon="11.648465123136106"><ele>62.199999999999996</ele><time>2026-05-01T13:10:44.999Z</time></trkpt><trkpt lat="44.308008834778974" lon="11.64832401670917"><ele>62.599999999999994</ele><time>2026-05-01T13:10:46.999Z</time></trkpt><trkpt lat="44.307925574802205" lon="11.648233344669624"><ele>63.0</ele><time>2026-05-01T13:10:49Z</time></trkpt><trkpt lat="44.30782841153628" lon="11.64827686590766"><ele>63.0</ele><time>2026-05-01T13:10:51Z</time></trkpt><trkpt lat="44.30775449954376" lon="11.648403202484827"><ele>63.0</ele><time>2026-05-01T13:10:53Z</time></trkpt><trkpt lat="44.307664616001475" lon="11.648481126997163"><ele>63.0</ele><time>2026-05-01T13:10:55Z</time></trkpt><trkpt lat="44.307564650241126" lon="11.648407645956528"><ele>63.0</ele><time>2026-05-01T13:10:57Z</time></trkpt><trkpt lat="44.30750115285799" lon="11.64828575585264"><ele>63.0</ele><time>2026-05-01T13:10:59Z</time></trkpt><trkpt lat="44.30742744896148" lon="11.648188496504106"><ele>63.0</ele><time>2026-05-01T13:11:01Z</time></trkpt><trkpt lat="44.30735286600032" lon="11.648092884900763"><ele>63.0</ele><time>2026-05-01T13:11:03Z</time></trkpt><trkpt lat="44.30727381765657" lon="11.647996446077432"><ele>63.0</ele><time>2026-05-01T13:11:05Z</time></trkpt><trkpt lat="44.30720072920507" lon="11.64789279577234"><ele>63.0</ele><time>2026-05-01T13:11:07Z</time></trkpt><trkpt lat="44.30712257933443" lon="11.647792339775734"><ele>63.0</ele><time>2026-05-01T13:11:09Z</time></trkpt><trkpt lat="44.3070387683192" lon="11.64769189351519"><ele>62.8</ele><time>2026-05-01T13:11:11Z</time></trkpt><trkpt lat="44.30695755715869" lon="11.647590032120451"><ele>62.599999999999994</ele><time>2026-05-01T13:11:13Z</time></trkpt><trkpt lat="44.30687864533346" lon="11.647491664158212"><ele>62.400000000000006</ele><time>2026-05-01T13:11:15Z</time></trkpt><trkpt lat="44.30680509216499" lon="11.647386051932894"><ele>62.2</ele><time>2026-05-01T13:11:17Z</time></trkpt><trkpt lat="44.306729809489006" lon="11.647284562348258"><ele>62.0</ele><time>2026-05-01T13:11:19Z</time></trkpt><trkpt lat="44.30665181086799" lon="11.647184723110584"><ele>62.0</ele><time>2026-05-01T13:11:21Z</time></trkpt><trkpt lat="44.30657167474639" lon="11.647082645112686"><ele>62.0</ele><time>2026-05-01T13:11:23Z</time></trkpt><trkpt lat="44.30649275380222" lon="11.646985727603624"><ele>62.0</ele><time>2026-05-01T13:11:25Z</time></trkpt><trkpt lat="44.30641442099198" lon="11.646891440487483"><ele>62.0</ele><time>2026-05-01T13:11:27Z</time></trkpt><trkpt lat="44.30633905097705" lon="11.646785062474478"><ele>62.0</ele><time>2026-05-01T13:11:29Z</time></trkpt><trkpt lat="44.306263245590706" lon="11.646686484797069"><ele>62.16666666666667</ele><time>2026-05-01T13:11:31Z</time></trkpt><trkpt lat="44.30618715663143" lon="11.646599135301845"><ele>62.333333333333336</ele><time>2026-05-01T13:11:33Z</time></trkpt><trkpt lat="44.306118284114824" lon="11.646506347725984"><ele>62.5</ele><time>2026-05-01T13:11:35Z</time></trkpt><trkpt lat="44.306083951068715" lon="11.646401907874283"><ele>62.66666666666667</ele><time>2026-05-01T13:11:37Z</time></trkpt><trkpt lat="44.30612886489494" lon="11.646295600309543"><ele>62.833333333333336</ele><time>2026-05-01T13:11:39Z</time></trkpt><trkpt lat="44.306179436398864" lon="11.646208560790043"><ele>63.0</ele><time>2026-05-01T13:11:41Z</time></trkpt><trkpt lat="44.30622647569182" lon="11.646119926026513"><ele>63.166666666666664</ele><time>2026-05-01T13:11:43Z</time></trkpt><trkpt lat="44.3062778374223" lon="11.646030941221447"><ele>63.33333333333333</ele><time>2026-05-01T13:11:45Z</time></trkpt><trkpt lat="44.30632705252296" lon="11.645946192509212"><ele>63.5</ele><time>2026-05-01T13:11:47Z</time></trkpt><trkpt lat="44.30637158249829" lon="11.645863526707814"><ele>63.666666666666664</ele><time>2026-05-01T13:11:49Z</time></trkpt><trkpt lat="44.30641690013183" lon="11.645781962927126"><ele>63.83333333333333</ele><time>2026-05-01T13:11:51Z</time></trkpt><trkpt lat="44.30646754975792" lon="11.645675956812282"><ele>64.0</ele><time>2026-05-01T13:11:54Z</time></trkpt><trkpt lat="44.306503686970416" lon="11.645578615505231"><ele>63.99999999999999</ele><time>2026-05-01T13:11:57Z</time></trkpt><trkpt lat="44.306473106961406" lon="11.645497113618887"><ele>64.0</ele><time>2026-05-01T13:11:59Z</time></trkpt><trkpt lat="44.3063923225106" lon="11.645490145227134"><ele>64.0</ele><time>2026-05-01T13:12:01Z</time></trkpt><trkpt lat="44.30631364664739" lon="11.645539877787469"><ele>64.0</ele><time>2026-05-01T13:12:03Z</time></trkpt><trkpt lat="44.30622676276666" lon="11.645567249809305"><ele>63.99999999999999</ele><time>2026-05-01T13:12:05Z</time></trkpt><trkpt lat="44.30612525149878" lon="11.645530747529783"><ele>64.0</ele><time>2026-05-01T13:12:07Z</time></trkpt><trkpt lat="44.30603436619216" lon="11.645468378716199"><ele>64.0</ele><time>2026-05-01T13:12:09Z</time></trkpt><trkpt lat="44.30595326861659" lon="11.64543094956823"><ele>64.0</ele><time>2026-05-01T13:12:11Z</time></trkpt><trkpt lat="44.30589585417651" lon="11.645369838771762"><ele>64.0</ele><time>2026-05-01T13:12:12Z</time></trkpt><trkpt lat="44.30578836576315" lon="11.645337395751467"><ele>64.0</ele><time>2026-05-01T13:12:14Z</time></trkpt><trkpt lat="44.30568156013823" lon="11.645297255832949"><ele>64.0</ele><time>2026-05-01T13:12:15.999Z</time></trkpt><trkpt lat="44.30557635387478" lon="11.645276293231223"><ele>64.0</ele><time>2026-05-01T13:12:17.999Z</time></trkpt><trkpt lat="44.30547116777513" lon="11.64526970135305"><ele>64.0</ele><time>2026-05-01T13:12:19.999Z</time></trkpt><trkpt lat="44.30536762975952" lon="11.645262349962957"><ele>64.0</ele><time>2026-05-01T13:12:21.999Z</time></trkpt><trkpt lat="44.30526558684624" lon="11.645253612737353"><ele>64.0</ele><time>2026-05-01T13:12:23.999Z</time></trkpt><trkpt lat="44.30516114753568" lon="11.64525573032304"><ele>64.0</ele><time>2026-05-01T13:12:25.999Z</time></trkpt><trkpt lat="44.30505958759482" lon="11.64525722966416"><ele>64.0</ele><time>2026-05-01T13:12:27.999Z</time></trkpt><trkpt lat="44.304959652897566" lon="11.645227396102136"><ele>64.0</ele><time>2026-05-01T13:12:29.999Z</time></trkpt><trkpt lat="44.304870290406996" lon="11.645204361088043"><ele>64.0</ele><time>2026-05-01T13:12:31.999Z</time></trkpt><trkpt lat="44.304780845060904" lon="11.645159060712427"><ele>64.0</ele><time>2026-05-01T13:12:33.999Z</time></trkpt><trkpt lat="44.30469074190373" lon="11.645115787904599"><ele>64.0</ele><time>2026-05-01T13:12:35.999Z</time></trkpt><trkpt lat="44.30459998291876" lon="11.645078277683899"><ele>64.2</ele><time>2026-05-01T13:12:37.999Z</time></trkpt><trkpt lat="44.30450972207659" lon="11.645030792013026"><ele>64.4</ele><time>2026-05-01T13:12:39.999Z</time></trkpt><trkpt lat="44.304415908245545" lon="11.64499031325556"><ele>64.6</ele><time>2026-05-01T13:12:41.999Z</time></trkpt><trkpt lat="44.304321863711074" lon="11.644916681699426"><ele>64.8</ele><time>2026-05-01T13:12:43.999Z</time></trkpt><trkpt lat="44.304250286185656" lon="11.644829366366197"><ele>65.0</ele><time>2026-05-01T13:12:45.999Z</time></trkpt><trkpt lat="44.30417912722399" lon="11.644744478991438"><ele>65.0</ele><time>2026-05-01T13:12:47.999Z</time></trkpt><trkpt lat="44.304122892373336" lon="11.644653225762672"><ele>65.0</ele><time>2026-05-01T13:12:49.999Z</time></trkpt><trkpt lat="44.304044623701856" lon="11.644589237251381"><ele>65.0</ele><time>2026-05-01T13:12:51.999Z</time></trkpt><trkpt lat="44.30395386596651" lon="11.644572093557574"><ele>65.0</ele><time>2026-05-01T13:12:54Z</time></trkpt><trkpt lat="44.30386593037956" lon="11.644641768764771"><ele>65.0</ele><time>2026-05-01T13:12:56Z</time></trkpt><trkpt lat="44.30378987670389" lon="11.64475241393671"><ele>64.25</ele><time>2026-05-01T13:12:58Z</time></trkpt><trkpt lat="44.303718219263075" lon="11.644871578249196"><ele>63.5</ele><time>2026-05-01T13:13:00Z</time></trkpt><trkpt lat="44.303644861632165" lon="11.644968809690907"><ele>62.75</ele><time>2026-05-01T13:13:02Z</time></trkpt><trkpt lat="44.30372115407959" lon="11.645194818323937"><ele>62.0</ele><time>2026-05-01T13:13:03Z</time></trkpt><trkpt lat="44.303652974219915" lon="11.645278457594307"><ele>61.8</ele><time>2026-05-01T13:13:05Z</time></trkpt><trkpt lat="44.30358094993141" lon="11.645368000432798"><ele>61.6</ele><time>2026-05-01T13:13:07Z</time></trkpt><trkpt lat="44.30350569316114" lon="11.645461562040248"><ele>61.39999999999999</ele><time>2026-05-01T13:13:09Z</time></trkpt><trkpt lat="44.30344073403435" lon="11.645543066063633"><ele>61.199999999999996</ele><time>2026-05-01T13:13:11Z</time></trkpt><trkpt lat="44.30337108062511" lon="11.645630907013233"><ele>61.0</ele><time>2026-05-01T13:13:13Z</time></trkpt><trkpt lat="44.3033010865549" lon="11.64572037757523"><ele>61.0</ele><time>2026-05-01T13:13:15Z</time></trkpt><trkpt lat="44.303228990829666" lon="11.645814945614877"><ele>61.0</ele><time>2026-05-01T13:13:17Z</time></trkpt><trkpt lat="44.30316389364628" lon="11.645900330486183"><ele>61.0</ele><time>2026-05-01T13:13:19Z</time></trkpt><trkpt lat="44.30295752413844" lon="11.645628486049416"><ele>61.199999999999996</ele><time>2026-05-01T13:13:21Z</time></trkpt><trkpt lat="44.30293105215212" lon="11.645489158988745"><ele>61.39999999999999</ele><time>2026-05-01T13:13:23Z</time></trkpt><trkpt lat="44.30287528908168" lon="11.64537968832151"><ele>61.6</ele><time>2026-05-01T13:13:25Z</time></trkpt><trkpt lat="44.30282682138657" lon="11.645261774569372"><ele>61.8</ele><time>2026-05-01T13:13:27Z</time></trkpt><trkpt lat="44.30277550227296" lon="11.645148216206605"><ele>62.0</ele><time>2026-05-01T13:13:29Z</time></trkpt><trkpt lat="44.30272564336916" lon="11.645037189790465"><ele>62.0</ele><time>2026-05-01T13:13:31Z</time></trkpt><trkpt lat="44.302681716155426" lon="11.644921248255597"><ele>62.0</ele><time>2026-05-01T13:13:33Z</time></trkpt><trkpt lat="44.302635230699295" lon="11.644806121975495"><ele>62.0</ele><time>2026-05-01T13:13:35Z</time></trkpt><trkpt lat="44.30259075432697" lon="11.644690793880692"><ele>62.0</ele><time>2026-05-01T13:13:37Z</time></trkpt><trkpt lat="44.30253869591925" lon="11.644582235070663"><ele>62.0</ele><time>2026-05-01T13:13:39Z</time></trkpt><trkpt lat="44.302488436242484" lon="11.644467620702898"><ele>62.0</ele><time>2026-05-01T13:13:41Z</time></trkpt><trkpt lat="44.30244044838639" lon="11.6443567641037"><ele>62.0</ele><time>2026-05-01T13:13:43Z</time></trkpt><trkpt lat="44.30238861622207" lon="11.644241771905904"><ele>62.0</ele><time>2026-05-01T13:13:45Z</time></trkpt><trkpt lat="44.30234367754946" lon="11.644133677656598"><ele>62.0</ele><time>2026-05-01T13:13:47Z</time></trkpt><trkpt lat="44.302298786644926" lon="11.644024682806423"><ele>62.0</ele><time>2026-05-01T13:13:49Z</time></trkpt><trkpt lat="44.30225250973432" lon="11.643922075633968"><ele>62.16666666666667</ele><time>2026-05-01T13:13:51Z</time></trkpt><trkpt lat="44.302208054060365" lon="11.643822369678023"><ele>62.333333333333336</ele><time>2026-05-01T13:13:53Z</time></trkpt><trkpt lat="44.30216481076715" lon="11.643726091862316"><ele>62.5</ele><time>2026-05-01T13:13:55Z</time></trkpt><trkpt lat="44.302117405636096" lon="11.643632942137193"><ele>62.66666666666667</ele><time>2026-05-01T13:13:57Z</time></trkpt><trkpt lat="44.30207515138901" lon="11.643537664694463"><ele>62.833333333333336</ele><time>2026-05-01T13:13:59Z</time></trkpt><trkpt lat="44.302032046959056" lon="11.643443432810082"><ele>63.0</ele><time>2026-05-01T13:14:01Z</time></trkpt><trkpt lat="44.30198921613862" lon="11.6433466159109"><ele>63.0</ele><time>2026-05-01T13:14:03Z</time></trkpt><trkpt lat="44.30197297335796" lon="11.643231653983978"><ele>63.0</ele><time>2026-05-01T13:14:05Z</time></trkpt><trkpt lat="44.302007333173904" lon="11.643119955860392"><ele>63.0</ele><time>2026-05-01T13:14:07Z</time></trkpt><trkpt lat="44.30205811255697" lon="11.64302287682941"><ele>63.0</ele><time>2026-05-01T13:14:09Z</time></trkpt><trkpt lat="44.30210408464521" lon="11.642918676727872"><ele>63.0</ele><time>2026-05-01T13:14:11Z</time></trkpt><trkpt lat="44.302158479594176" lon="11.642822466235435"><ele>63.0</ele><time>2026-05-01T13:14:13Z</time></trkpt><trkpt lat="44.30221509443169" lon="11.6427243532811"><ele>63.2</ele><time>2026-05-01T13:14:15Z</time></trkpt><trkpt lat="44.30227697372707" lon="11.64262594986384"><ele>63.4</ele><time>2026-05-01T13:14:17Z</time></trkpt><trkpt lat="44.302336905665754" lon="11.64251251062723"><ele>63.60000000000001</ele><time>2026-05-01T13:14:19Z</time></trkpt><trkpt lat="44.30240105949207" lon="11.642401823790829"><ele>63.800000000000004</ele><time>2026-05-01T13:14:21Z</time></trkpt><trkpt lat="44.30246026214991" lon="11.642291384507143"><ele>64.0</ele><time>2026-05-01T13:14:23Z</time></trkpt><trkpt lat="44.30252399042976" lon="11.642180698010623"><ele>64.0</ele><time>2026-05-01T13:14:25Z</time></trkpt><trkpt lat="44.30258329830233" lon="11.642075700248252"><ele>64.0</ele><time>2026-05-01T13:14:27Z</time></trkpt><trkpt lat="44.30264573601974" lon="11.641966216188354"><ele>64.0</ele><time>2026-05-01T13:14:29Z</time></trkpt><trkpt lat="44.302712972021155" lon="11.64188121554306"><ele>64.0</ele><time>2026-05-01T13:14:31Z</time></trkpt><trkpt lat="44.30277253822673" lon="11.641784959348923"><ele>64.0</ele><time>2026-05-01T13:14:32.999Z</time></trkpt><trkpt lat="44.30283204350473" lon="11.641689848636915"><ele>64.16666666666666</ele><time>2026-05-01T13:14:34.999Z</time></trkpt><trkpt lat="44.30288678290456" lon="11.64160612334587"><ele>64.33333333333333</ele><time>2026-05-01T13:14:36.999Z</time></trkpt><trkpt lat="44.302935572234894" lon="11.641532753091704"><ele>64.5</ele><time>2026-05-01T13:14:38.999Z</time></trkpt><trkpt lat="44.302998942432474" lon="11.641450159633875"><ele>64.66666666666667</ele><time>2026-05-01T13:14:41.999Z</time></trkpt><trkpt lat="44.30306959607956" lon="11.641376930128343"><ele>64.83333333333334</ele><time>2026-05-01T13:14:44.999Z</time></trkpt><trkpt lat="44.30311792716064" lon="11.641317341749614"><ele>65.0</ele><time>2026-05-01T13:14:46.999Z</time></trkpt><trkpt lat="44.30307889762887" lon="11.641222615816988"><ele>65.0</ele><time>2026-05-01T13:14:47.999Z</time></trkpt><trkpt lat="44.30302366441532" lon="11.641138757390637"><ele>65.0</ele><time>2026-05-01T13:14:50.999Z</time></trkpt><trkpt lat="44.30293019683251" lon="11.641142432925962"><ele>65.0</ele><time>2026-05-01T13:14:53.999Z</time></trkpt><trkpt lat="44.30285659935439" lon="11.641150019568856"><ele>65.0</ele><time>2026-05-01T13:14:55.999Z</time></trkpt><trkpt lat="44.3027797133841" lon="11.641148300968716"><ele>65.0</ele><time>2026-05-01T13:14:57.999Z</time></trkpt><trkpt lat="44.302707008347994" lon="11.641147102815639"><ele>65.0</ele><time>2026-05-01T13:15:00Z</time></trkpt><trkpt lat="44.30264375392375" lon="11.641132198487607"><ele>65.0</ele><time>2026-05-01T13:15:02Z</time></trkpt><trkpt lat="44.30255404335122" lon="11.64113626762811"><ele>65.0</ele><time>2026-05-01T13:15:05Z</time></trkpt><trkpt lat="44.302481671844156" lon="11.641134526510072"><ele>65.0</ele><time>2026-05-01T13:15:08Z</time></trkpt><trkpt lat="44.30241876268136" lon="11.641128709981508"><ele>65.0</ele><time>2026-05-01T13:15:11Z</time></trkpt><trkpt lat="44.30234561541064" lon="11.641126340587078"><ele>65.0</ele><time>2026-05-01T13:15:15Z</time></trkpt><trkpt lat="44.30227096276079" lon="11.641133901885327"><ele>65.0</ele><time>2026-05-01T13:15:19Z</time></trkpt><trkpt lat="44.30218974364644" lon="11.641120249380394"><ele>65.16666666666667</ele><time>2026-05-01T13:15:22Z</time></trkpt><trkpt lat="44.30209988799878" lon="11.641116844858356"><ele>65.33333333333334</ele><time>2026-05-01T13:15:25Z</time></trkpt><trkpt lat="44.30200501457815" lon="11.64111278868197"><ele>65.5</ele><time>2026-05-01T13:15:28Z</time></trkpt><trkpt lat="44.3019370492973" lon="11.641103814339198"><ele>65.66666666666667</ele><time>2026-05-01T13:15:30Z</time></trkpt><trkpt lat="44.301865772976114" lon="11.641098332837316"><ele>65.83333333333333</ele><time>2026-05-01T13:15:32Z</time></trkpt><trkpt lat="44.30178912366374" lon="11.641097955754983"><ele>66.0</ele><time>2026-05-01T13:15:34Z</time></trkpt><trkpt lat="44.30171314333687" lon="11.641086378484346"><ele>66.0</ele><time>2026-05-01T13:15:36Z</time></trkpt><trkpt lat="44.30163744211488" lon="11.641090715583557"><ele>66.0</ele><time>2026-05-01T13:15:38Z</time></trkpt><trkpt lat="44.30156157134033" lon="11.641081674687715"><ele>66.0</ele><time>2026-05-01T13:15:40Z</time></trkpt><trkpt lat="44.30148278368197" lon="11.64107439564063"><ele>66.0</ele><time>2026-05-01T13:15:42Z</time></trkpt><trkpt lat="44.301404036695" lon="11.641070604433105"><ele>66.0</ele><time>2026-05-01T13:15:44Z</time></trkpt><trkpt lat="44.30132605996623" lon="11.641066840485617"><ele>66.0</ele><time>2026-05-01T13:15:46Z</time></trkpt><trkpt lat="44.301247544490764" lon="11.641060556668762"><ele>66.16666666666667</ele><time>2026-05-01T13:15:48Z</time></trkpt><trkpt lat="44.30116809096529" lon="11.641048103032599"><ele>66.33333333333333</ele><time>2026-05-01T13:15:50Z</time></trkpt><trkpt lat="44.30108353573828" lon="11.641045120867975"><ele>66.5</ele><time>2026-05-01T13:15:52Z</time></trkpt><trkpt lat="44.300994864798014" lon="11.641039354024398"><ele>66.66666666666666</ele><time>2026-05-01T13:15:54Z</time></trkpt><trkpt lat="44.3009015835811" lon="11.64102698881458"><ele>66.83333333333333</ele><time>2026-05-01T13:15:56Z</time></trkpt><trkpt lat="44.300812814533415" lon="11.64102319728507"><ele>67.0</ele><time>2026-05-01T13:15:58Z</time></trkpt><trkpt lat="44.300724023156185" lon="11.641016758926233"><ele>67.0</ele><time>2026-05-01T13:16:00Z</time></trkpt><trkpt lat="44.3006393769948" lon="11.641011310437657"><ele>67.0</ele><time>2026-05-01T13:16:02Z</time></trkpt><trkpt lat="44.3005522396231" lon="11.641006322681397"><ele>67.0</ele><time>2026-05-01T13:16:04Z</time></trkpt><trkpt lat="44.300466421382175" lon="11.64099681579184"><ele>67.0</ele><time>2026-05-01T13:16:06Z</time></trkpt><trkpt lat="44.30038105264623" lon="11.640998089029244"><ele>67.0</ele><time>2026-05-01T13:16:08Z</time></trkpt><trkpt lat="44.30029976921627" lon="11.64099083763396"><ele>67.0</ele><time>2026-05-01T13:16:10Z</time></trkpt><trkpt lat="44.30021666501761" lon="11.640986993241702"><ele>67.0</ele><time>2026-05-01T13:16:12Z</time></trkpt><trkpt lat="44.30013446968475" lon="11.64096941085083"><ele>67.0</ele><time>2026-05-01T13:16:14Z</time></trkpt><trkpt lat="44.300056470905105" lon="11.64097131382712"><ele>67.0</ele><time>2026-05-01T13:16:16Z</time></trkpt><trkpt lat="44.29999008246132" lon="11.640955956058228"><ele>67.0</ele><time>2026-05-01T13:16:18Z</time></trkpt><trkpt lat="44.29991768625408" lon="11.64095113926327"><ele>67.0</ele><time>2026-05-01T13:16:22Z</time></trkpt><trkpt lat="44.2998676525343" lon="11.641026580842682"><ele>67.0</ele><time>2026-05-01T13:16:25Z</time></trkpt><trkpt lat="44.29981486025036" lon="11.641107401802191"><ele>66.85714285714286</ele><time>2026-05-01T13:16:28Z</time></trkpt><trkpt lat="44.29977113902258" lon="11.641176312784623"><ele>66.71428571428571</ele><time>2026-05-01T13:16:30Z</time></trkpt><trkpt lat="44.299725299559206" lon="11.641240573153532"><ele>66.57142857142857</ele><time>2026-05-01T13:16:31.999Z</time></trkpt><trkpt lat="44.299677807379744" lon="11.641312903211533"><ele>66.42857142857143</ele><time>2026-05-01T13:16:33.999Z</time></trkpt><trkpt lat="44.29963358952895" lon="11.641387387934596"><ele>66.28571428571429</ele><time>2026-05-01T13:16:35.999Z</time></trkpt><trkpt lat="44.299581996518" lon="11.641466439301247"><ele>66.14285714285714</ele><time>2026-05-01T13:16:37.999Z</time></trkpt><trkpt lat="44.29953081001782" lon="11.64153914090561"><ele>66.0</ele><time>2026-05-01T13:16:39.999Z</time></trkpt><trkpt lat="44.29947789345468" lon="11.6416126314398"><ele>66.0</ele><time>2026-05-01T13:16:41.999Z</time></trkpt><trkpt lat="44.29942542475472" lon="11.641696548206294"><ele>66.0</ele><time>2026-05-01T13:16:43.999Z</time></trkpt><trkpt lat="44.29937464205007" lon="11.641779031005848"><ele>66.0</ele><time>2026-05-01T13:16:45.999Z</time></trkpt><trkpt lat="44.2993215458759" lon="11.641861473280057"><ele>66.0</ele><time>2026-05-01T13:16:47.999Z</time></trkpt><trkpt lat="44.29927071654883" lon="11.641948630778224"><ele>66.0</ele><time>2026-05-01T13:16:49.999Z</time></trkpt><trkpt lat="44.2992140049464" lon="11.642030961993582"><ele>66.0</ele><time>2026-05-01T13:16:51.999Z</time></trkpt><trkpt lat="44.299163791260206" lon="11.642109417050994"><ele>65.42857142857143</ele><time>2026-05-01T13:16:53.999Z</time></trkpt><trkpt lat="44.29911987496879" lon="11.642195847603302"><ele>64.85714285714286</ele><time>2026-05-01T13:16:55.999Z</time></trkpt><trkpt lat="44.29906595861484" lon="11.642264484713595"><ele>64.28571428571429</ele><time>2026-05-01T13:16:57.999Z</time></trkpt><trkpt lat="44.29901733674788" lon="11.642342416525867"><ele>63.714285714285715</ele><time>2026-05-01T13:16:59.999Z</time></trkpt><trkpt lat="44.29897269862571" lon="11.642410337138267"><ele>63.14285714285715</ele><time>2026-05-01T13:17:01.999Z</time></trkpt><trkpt lat="44.2989257977027" lon="11.642485009459595"><ele>62.57142857142858</ele><time>2026-05-01T13:17:03.999Z</time></trkpt><trkpt lat="44.298878852794964" lon="11.642565348599677"><ele>62.0</ele><time>2026-05-01T13:17:06Z</time></trkpt><trkpt lat="44.29882203021392" lon="11.642641309820446"><ele>62.00000000000001</ele><time>2026-05-01T13:17:08Z</time></trkpt><trkpt lat="44.298768930175655" lon="11.642721643036179"><ele>62.0</ele><time>2026-05-01T13:17:10Z</time></trkpt><trkpt lat="44.29871955672637" lon="11.64280106780786"><ele>62.0</ele><time>2026-05-01T13:17:12Z</time></trkpt><trkpt lat="44.29865700191747" lon="11.642885362329142"><ele>62.0</ele><time>2026-05-01T13:17:14Z</time></trkpt><trkpt lat="44.29859956423138" lon="11.642972995635153"><ele>62.00000000000001</ele><time>2026-05-01T13:17:16Z</time></trkpt><trkpt lat="44.29853914967128" lon="11.643063617787956"><ele>62.0</ele><time>2026-05-01T13:17:18Z</time></trkpt><trkpt lat="44.298478596133144" lon="11.64315861505571"><ele>62.66666666666667</ele><time>2026-05-01T13:17:20Z</time></trkpt><trkpt lat="44.29841974529377" lon="11.643249618670561"><ele>63.333333333333336</ele><time>2026-05-01T13:17:22Z</time></trkpt><trkpt lat="44.29835709344877" lon="11.643333173415165"><ele>64.0</ele><time>2026-05-01T13:17:24Z</time></trkpt><trkpt lat="44.298305423930806" lon="11.643406031249652"><ele>64.66666666666667</ele><time>2026-05-01T13:17:26Z</time></trkpt><trkpt lat="44.298245506576116" lon="11.643485539727138"><ele>65.33333333333333</ele><time>2026-05-01T13:17:29Z</time></trkpt><trkpt lat="44.298185158467625" lon="11.643558596763025"><ele>66.0</ele><time>2026-05-01T13:17:32Z</time></trkpt><trkpt lat="44.29812664710946" lon="11.643605805737483"><ele>68.28571428571428</ele><time>2026-05-01T13:17:35Z</time></trkpt><trkpt lat="44.298058838985945" lon="11.643637562010284"><ele>70.57142857142857</ele><time>2026-05-01T13:17:38Z</time></trkpt><trkpt lat="44.29799650607505" lon="11.643653000191357"><ele>72.85714285714286</ele><time>2026-05-01T13:17:41Z</time></trkpt><trkpt lat="44.297937881517456" lon="11.643616255828263"><ele>75.14285714285714</ele><time>2026-05-01T13:17:44Z</time></trkpt><trkpt lat="44.2978658910876" lon="11.643575495155424"><ele>77.42857142857143</ele><time>2026-05-01T13:17:48Z</time></trkpt><trkpt lat="44.29780950127893" lon="11.643536193075324"><ele>79.71428571428571</ele><time>2026-05-01T13:17:52Z</time></trkpt><trkpt lat="44.29774241182868" lon="11.643501700157731"><ele>82.0</ele><time>2026-05-01T13:17:56Z</time></trkpt><trkpt lat="44.297679666171504" lon="11.643458331521806"><ele>81.99999999999999</ele><time>2026-05-01T13:18:00Z</time></trkpt><trkpt lat="44.297620085864004" lon="11.64340823703924"><ele>82.0</ele><time>2026-05-01T13:18:03Z</time></trkpt><trkpt lat="44.29754956258623" lon="11.643361632567428"><ele>82.0</ele><time>2026-05-01T13:18:07Z</time></trkpt><trkpt lat="44.29749506214364" lon="11.643316365128713"><ele>82.0</ele><time>2026-05-01T13:18:11Z</time></trkpt><trkpt lat="44.297425669021514" lon="11.643263358312723"><ele>82.0</ele><time>2026-05-01T13:18:15Z</time></trkpt><trkpt lat="44.29735536683487" lon="11.643220137721693"><ele>81.99999999999999</ele><time>2026-05-01T13:18:19Z</time></trkpt><trkpt lat="44.297283412017535" lon="11.643186606165147"><ele>82.0</ele><time>2026-05-01T13:18:23Z</time></trkpt><trkpt lat="44.29722074592627" lon="11.643138475323976"><ele>82.85714285714285</ele><time>2026-05-01T13:18:27Z</time></trkpt><trkpt lat="44.297161760486645" lon="11.643085882175392"><ele>83.71428571428571</ele><time>2026-05-01T13:18:31Z</time></trkpt><trkpt lat="44.29709999329941" lon="11.643046242332465"><ele>84.57142857142857</ele><time>2026-05-01T13:18:34.999Z</time></trkpt><trkpt lat="44.297038317574696" lon="11.64299749528715"><ele>85.42857142857142</ele><time>2026-05-01T13:18:38.999Z</time></trkpt><trkpt lat="44.29697636751079" lon="11.642963068203013"><ele>86.28571428571428</ele><time>2026-05-01T13:18:41.999Z</time></trkpt><trkpt lat="44.29691406918303" lon="11.642907919354732"><ele>87.14285714285714</ele><time>2026-05-01T13:18:45.999Z</time></trkpt><trkpt lat="44.296846289169984" lon="11.642854126818714"><ele>88.0</ele><time>2026-05-01T13:18:49.999Z</time></trkpt><trkpt lat="44.296789641117584" lon="11.642802601309583"><ele>87.66666666666666</ele><time>2026-05-01T13:18:53.999Z</time></trkpt><trkpt lat="44.29672338370883" lon="11.642751656181444"><ele>87.33333333333333</ele><time>2026-05-01T13:18:57.999Z</time></trkpt><trkpt lat="44.296663102428525" lon="11.642704553426736"><ele>87.0</ele><time>2026-05-01T13:19:01.999Z</time></trkpt><trkpt lat="44.29659079098043" lon="11.642658596580533"><ele>86.66666666666667</ele><time>2026-05-01T13:19:05.999Z</time></trkpt><trkpt lat="44.29651436067456" lon="11.64260733411093"><ele>86.33333333333334</ele><time>2026-05-01T13:19:09.999Z</time></trkpt><trkpt lat="44.296451234736836" lon="11.642553914128749"><ele>86.0</ele><time>2026-05-01T13:19:13Z</time></trkpt><trkpt lat="44.29638541476856" lon="11.642506268326759"><ele>86.0</ele><time>2026-05-01T13:19:16Z</time></trkpt><trkpt lat="44.296317921719826" lon="11.642452656154058"><ele>86.0</ele><time>2026-05-01T13:19:19Z</time></trkpt><trkpt lat="44.2962422636871" lon="11.642411119426962"><ele>86.0</ele><time>2026-05-01T13:19:22Z</time></trkpt><trkpt lat="44.296170624028115" lon="11.642356738575344"><ele>86.0</ele><time>2026-05-01T13:19:25Z</time></trkpt><trkpt lat="44.29609163087552" lon="11.642302005699962"><ele>86.0</ele><time>2026-05-01T13:19:28Z</time></trkpt><trkpt lat="44.29601741365961" lon="11.64223703501961"><ele>86.0</ele><time>2026-05-01T13:19:31Z</time></trkpt><trkpt lat="44.29593724599909" lon="11.642174914830148"><ele>86.0</ele><time>2026-05-01T13:19:34Z</time></trkpt><trkpt lat="44.29585326230696" lon="11.642121804701093"><ele>86.0</ele><time>2026-05-01T13:19:37Z</time></trkpt><trkpt lat="44.295771998443534" lon="11.642110671863005"><ele>86.0</ele><time>2026-05-01T13:19:40Z</time></trkpt><trkpt lat="44.295679427987174" lon="11.642142661482534"><ele>86.0</ele><time>2026-05-01T13:19:43Z</time></trkpt><trkpt lat="44.295616848216895" lon="11.64216784732983"><ele>86.0</ele><time>2026-05-01T13:19:45Z</time></trkpt><trkpt lat="44.295562464785434" lon="11.642219754239742"><ele>86.0</ele><time>2026-05-01T13:19:47Z</time></trkpt><trkpt lat="44.29550697447586" lon="11.64226817886291"><ele>86.66666666666667</ele><time>2026-05-01T13:19:49Z</time></trkpt><trkpt lat="44.29543466955945" lon="11.642337423370085"><ele>87.33333333333334</ele><time>2026-05-01T13:19:52Z</time></trkpt><trkpt lat="44.29537736291604" lon="11.642384091051953"><ele>88.0</ele><time>2026-05-01T13:19:54Z</time></trkpt><trkpt lat="44.29531187006384" lon="11.64246159076453"><ele>88.66666666666667</ele><time>2026-05-01T13:19:57Z</time></trkpt><trkpt lat="44.29523642355657" lon="11.642521528009961"><ele>89.33333333333333</ele><time>2026-05-01T13:20:00Z</time></trkpt><trkpt lat="44.29517051274038" lon="11.6425676718213"><ele>90.0</ele><time>2026-05-01T13:20:03Z</time></trkpt><trkpt lat="44.29510369744176" lon="11.642619076506781"><ele>90.0</ele><time>2026-05-01T13:20:06Z</time></trkpt><trkpt lat="44.295100619004984" lon="11.642713112097772"><ele>90.0</ele><time>2026-05-01T13:20:12Z</time></trkpt><trkpt lat="44.295035776954826" lon="11.642731975896247"><ele>90.0</ele><time>2026-05-01T13:23:50Z</time></trkpt><trkpt lat="44.294998060558946" lon="11.642806557380391"><ele>90.0</ele><time>2026-05-01T13:24:00Z</time></trkpt><trkpt lat="44.29494035142332" lon="11.6428492968016"><ele>90.0</ele><time>2026-05-01T13:24:09Z</time></trkpt><trkpt lat="44.294876801305" lon="11.642796538787469"><ele>90.0</ele><time>2026-05-01T13:24:24Z</time></trkpt><trkpt lat="44.29479484622718" lon="11.642820861446163"><ele>90.0</ele><time>2026-05-01T13:24:28Z</time></trkpt><trkpt lat="44.29472568596978" lon="11.642861097898965"><ele>90.42857142857143</ele><time>2026-05-01T13:24:31Z</time></trkpt><trkpt lat="44.29466081885007" lon="11.642904529641372"><ele>90.85714285714286</ele><time>2026-05-01T13:24:34Z</time></trkpt><trkpt lat="44.29460340338443" lon="11.642942290032138"><ele>91.28571428571429</ele><time>2026-05-01T13:24:37Z</time></trkpt><trkpt lat="44.294535847877164" lon="11.642990696020705"><ele>91.71428571428572</ele><time>2026-05-01T13:24:40Z</time></trkpt><trkpt lat="44.29446617288066" lon="11.643030619077697"><ele>92.14285714285714</ele><time>2026-05-01T13:24:43Z</time></trkpt><trkpt lat="44.29440225011762" lon="11.643069870370244"><ele>92.57142857142858</ele><time>2026-05-01T13:24:46Z</time></trkpt><trkpt lat="44.294351812871525" lon="11.643125326018387"><ele>93.0</ele><time>2026-05-01T13:24:48.999Z</time></trkpt><trkpt lat="44.29430159466698" lon="11.643184584573117"><ele>93.0</ele><time>2026-05-01T13:24:51.999Z</time></trkpt><trkpt lat="44.29429819066105" lon="11.643286093085157"><ele>93.0</ele><time>2026-05-01T13:24:54.999Z</time></trkpt><trkpt lat="44.29434327227909" lon="11.643400213019394"><ele>93.0</ele><time>2026-05-01T13:24:57.999Z</time></trkpt><trkpt lat="44.29437516075294" lon="11.64347994124894"><ele>93.0</ele><time>2026-05-01T13:24:59.999Z</time></trkpt><trkpt lat="44.29440444934419" lon="11.64356647298161"><ele>93.0</ele><time>2026-05-01T13:25:01.999Z</time></trkpt><trkpt lat="44.294448475803996" lon="11.643661364546857"><ele>93.0</ele><time>2026-05-01T13:25:03.999Z</time></trkpt><trkpt lat="44.294499863091254" lon="11.643752035060347"><ele>93.33333333333333</ele><time>2026-05-01T13:25:05.999Z</time></trkpt><trkpt lat="44.29456064782251" lon="11.64384224896846"><ele>93.66666666666667</ele><time>2026-05-01T13:25:07.999Z</time></trkpt><trkpt lat="44.29462144097985" lon="11.643932292675338"><ele>94.0</ele><time>2026-05-01T13:25:09.999Z</time></trkpt><trkpt lat="44.294682268403896" lon="11.644017421227955"><ele>94.33333333333334</ele><time>2026-05-01T13:25:11.999Z</time></trkpt><trkpt lat="44.2947370666599" lon="11.644106511681846"><ele>94.66666666666667</ele><time>2026-05-01T13:25:13.999Z</time></trkpt><trkpt lat="44.2947987011131" lon="11.644185356127455"><ele>95.0</ele><time>2026-05-01T13:25:15.999Z</time></trkpt><trkpt lat="44.29485676294424" lon="11.644263901496165"><ele>94.2</ele><time>2026-05-01T13:25:17.999Z</time></trkpt><trkpt lat="44.29490678038302" lon="11.644344482038866"><ele>93.4</ele><time>2026-05-01T13:25:19.999Z</time></trkpt><trkpt lat="44.29497965841982" lon="11.64444154283197"><ele>92.6</ele><time>2026-05-01T13:25:21.999Z</time></trkpt><trkpt lat="44.29504529023455" lon="11.6445380678543"><ele>91.8</ele><time>2026-05-01T13:25:23.999Z</time></trkpt><trkpt lat="44.295107557211495" lon="11.644628531828602"><ele>91.0</ele><time>2026-05-01T13:25:25.999Z</time></trkpt><trkpt lat="44.29517255605259" lon="11.644726860832357"><ele>91.0</ele><time>2026-05-01T13:25:27.999Z</time></trkpt><trkpt lat="44.295239538392906" lon="11.644826690610298"><ele>91.0</ele><time>2026-05-01T13:25:30Z</time></trkpt><trkpt lat="44.2953119696693" lon="11.644938538991346"><ele>91.0</ele><time>2026-05-01T13:25:32Z</time></trkpt><trkpt lat="44.29538379523292" lon="11.64505290678074"><ele>91.0</ele><time>2026-05-01T13:25:34Z</time></trkpt><trkpt lat="44.29546537168938" lon="11.645167153412826"><ele>91.0</ele><time>2026-05-01T13:25:36Z</time></trkpt><trkpt lat="44.29554752590406" lon="11.64529110928287"><ele>89.5</ele><time>2026-05-01T13:25:38Z</time></trkpt><trkpt lat="44.295628178944334" lon="11.645419634396294"><ele>88.0</ele><time>2026-05-01T13:25:40Z</time></trkpt><trkpt lat="44.295705114526385" lon="11.645539357675982"><ele>86.5</ele><time>2026-05-01T13:25:42Z</time></trkpt><trkpt lat="44.295777951900675" lon="11.645660591361592"><ele>85.0</ele><time>2026-05-01T13:25:44Z</time></trkpt><trkpt lat="44.295856215818" lon="11.645782248862758"><ele>85.0</ele><time>2026-05-01T13:25:46Z</time></trkpt><trkpt lat="44.29590041542062" lon="11.645846437815386"><ele>85.0</ele><time>2026-05-01T13:25:47Z</time></trkpt><trkpt lat="44.29594741548304" lon="11.645912572219155"><ele>85.0</ele><time>2026-05-01T13:25:48Z</time></trkpt><trkpt lat="44.29598929419982" lon="11.645978259737209"><ele>85.0</ele><time>2026-05-01T13:25:49Z</time></trkpt><trkpt lat="44.29607238495954" lon="11.646096701267853"><ele>85.0</ele><time>2026-05-01T13:25:51Z</time></trkpt><trkpt lat="44.29615452895889" lon="11.646217951609797"><ele>85.0</ele><time>2026-05-01T13:25:53Z</time></trkpt><trkpt lat="44.29623717686624" lon="11.646335664079668"><ele>84.8</ele><time>2026-05-01T13:25:55Z</time></trkpt><trkpt lat="44.29630757842703" lon="11.646452116082923"><ele>84.6</ele><time>2026-05-01T13:25:57Z</time></trkpt><trkpt lat="44.296386054949515" lon="11.646570273987445"><ele>84.4</ele><time>2026-05-01T13:25:59Z</time></trkpt><trkpt lat="44.296459210171456" lon="11.646678140271872"><ele>84.2</ele><time>2026-05-01T13:26:01Z</time></trkpt><trkpt lat="44.2965270764868" lon="11.646775681257292"><ele>84.0</ele><time>2026-05-01T13:26:03Z</time></trkpt><trkpt lat="44.296593387181595" lon="11.646869512967847"><ele>84.66666666666667</ele><time>2026-05-01T13:26:05Z</time></trkpt><trkpt lat="44.29665378263861" lon="11.646966523305617"><ele>85.33333333333333</ele><time>2026-05-01T13:26:07Z</time></trkpt><trkpt lat="44.2967146225337" lon="11.647059798449076"><ele>86.0</ele><time>2026-05-01T13:26:09Z</time></trkpt><trkpt lat="44.296777355010434" lon="11.647150837312992"><ele>86.66666666666666</ele><time>2026-05-01T13:26:11Z</time></trkpt><trkpt lat="44.29683660820871" lon="11.647235597351779"><ele>87.33333333333333</ele><time>2026-05-01T13:26:13Z</time></trkpt><trkpt lat="44.2968935601036" lon="11.64732239778402"><ele>88.0</ele><time>2026-05-01T13:26:15Z</time></trkpt><trkpt lat="44.29695138370052" lon="11.6474068326203"><ele>88.0</ele><time>2026-05-01T13:26:17Z</time></trkpt><trkpt lat="44.29700699265966" lon="11.647490425088996"><ele>88.0</ele><time>2026-05-01T13:26:19Z</time></trkpt><trkpt lat="44.29706360506556" lon="11.647575984643957"><ele>88.0</ele><time>2026-05-01T13:26:21Z</time></trkpt><trkpt lat="44.297117700287686" lon="11.64766020896894"><ele>88.0</ele><time>2026-05-01T13:26:23Z</time></trkpt><trkpt lat="44.297178305442216" lon="11.647745275404315"><ele>88.0</ele><time>2026-05-01T13:26:25Z</time></trkpt><trkpt lat="44.29723449396676" lon="11.647829705802557"><ele>88.0</ele><time>2026-05-01T13:26:27Z</time></trkpt><trkpt lat="44.29729132803934" lon="11.647909723051358"><ele>88.33333333333333</ele><time>2026-05-01T13:26:29Z</time></trkpt><trkpt lat="44.29734704081303" lon="11.647990181240466"><ele>88.66666666666666</ele><time>2026-05-01T13:26:31Z</time></trkpt><trkpt lat="44.29739799584207" lon="11.648078023745656"><ele>89.0</ele><time>2026-05-01T13:26:33Z</time></trkpt><trkpt lat="44.29745198568504" lon="11.648160735036495"><ele>89.33333333333333</ele><time>2026-05-01T13:26:35Z</time></trkpt><trkpt lat="44.29750634080663" lon="11.648235605880616"><ele>89.66666666666667</ele><time>2026-05-01T13:26:37Z</time></trkpt><trkpt lat="44.29755862089089" lon="11.648308839255044"><ele>90.0</ele><time>2026-05-01T13:26:39Z</time></trkpt><trkpt lat="44.29761145793993" lon="11.648388703028044"><ele>90.0</ele><time>2026-05-01T13:26:41Z</time></trkpt><trkpt lat="44.297667613969296" lon="11.648475768801104"><ele>90.0</ele><time>2026-05-01T13:26:43Z</time></trkpt><trkpt lat="44.29772389066086" lon="11.64856362989578"><ele>90.0</ele><time>2026-05-01T13:26:45Z</time></trkpt><trkpt lat="44.297780228176094" lon="11.648649089193905"><ele>90.0</ele><time>2026-05-01T13:26:47Z</time></trkpt><trkpt lat="44.29783668853368" lon="11.648728661050724"><ele>90.0</ele><time>2026-05-01T13:26:49Z</time></trkpt><trkpt lat="44.297887924776155" lon="11.64881631569758"><ele>90.0</ele><time>2026-05-01T13:26:51Z</time></trkpt><trkpt lat="44.29794118310885" lon="11.648897929266159"><ele>90.16666666666667</ele><time>2026-05-01T13:26:52.999Z</time></trkpt><trkpt lat="44.29799789679657" lon="11.648976689153528"><ele>90.33333333333333</ele><time>2026-05-01T13:26:54.999Z</time></trkpt><trkpt lat="44.29805110453026" lon="11.64905810260916"><ele>90.5</ele><time>2026-05-01T13:26:56.999Z</time></trkpt><trkpt lat="44.298107477360766" lon="11.649133658973486"><ele>90.66666666666666</ele><time>2026-05-01T13:26:58.999Z</time></trkpt><trkpt lat="44.29814650073143" lon="11.649220858720293"><ele>90.83333333333333</ele><time>2026-05-01T13:27:00.999Z</time></trkpt><trkpt lat="44.29813024466559" lon="11.6493291905735"><ele>91.0</ele><time>2026-05-01T13:27:02.999Z</time></trkpt><trkpt lat="44.298061603665126" lon="11.649375824791793"><ele>91.0</ele><time>2026-05-01T13:27:04.999Z</time></trkpt><trkpt lat="44.29799006457864" lon="11.649412269476942"><ele>91.0</ele><time>2026-05-01T13:27:07.999Z</time></trkpt><trkpt lat="44.297931110440366" lon="11.649458505393662"><ele>91.0</ele><time>2026-05-01T13:27:10.999Z</time></trkpt><trkpt lat="44.29787497314746" lon="11.649538223656139"><ele>91.0</ele><time>2026-05-01T13:27:13.999Z</time></trkpt><trkpt lat="44.29780524999669" lon="11.649595025462292"><ele>91.0</ele><time>2026-05-01T13:27:16.999Z</time></trkpt><trkpt lat="44.29774318446995" lon="11.649663158794304"><ele>91.0</ele><time>2026-05-01T13:27:19.999Z</time></trkpt><trkpt lat="44.2976816857965" lon="11.649740407652116"><ele>91.5</ele><time>2026-05-01T13:27:22.999Z</time></trkpt><trkpt lat="44.29761504976519" lon="11.64980695576619"><ele>92.0</ele><time>2026-05-01T13:27:25.999Z</time></trkpt><trkpt lat="44.29754987389843" lon="11.649879725081023"><ele>92.5</ele><time>2026-05-01T13:27:28.999Z</time></trkpt><trkpt lat="44.29749125112336" lon="11.649946145461605"><ele>93.0</ele><time>2026-05-01T13:27:31.999Z</time></trkpt><trkpt lat="44.29743488535585" lon="11.650017920050756"><ele>93.5</ele><time>2026-05-01T13:27:34.999Z</time></trkpt><trkpt lat="44.29738005715641" lon="11.650090150841208"><ele>94.0</ele><time>2026-05-01T13:27:38Z</time></trkpt><trkpt lat="44.297323118024394" lon="11.650152165006242"><ele>94.0</ele><time>2026-05-01T13:27:41Z</time></trkpt><trkpt lat="44.29726773806307" lon="11.650234852321752"><ele>94.0</ele><time>2026-05-01T13:27:44Z</time></trkpt><trkpt lat="44.29721426777331" lon="11.65029768898631"><ele>94.0</ele><time>2026-05-01T13:27:47Z</time></trkpt><trkpt lat="44.29716315950692" lon="11.650364001006418"><ele>94.0</ele><time>2026-05-01T13:27:51Z</time></trkpt><trkpt lat="44.297105025068156" lon="11.6504435921951"><ele>94.0</ele><time>2026-05-01T13:27:55Z</time></trkpt><trkpt lat="44.2970515391529" lon="11.650507162813662"><ele>94.0</ele><time>2026-05-01T13:27:58Z</time></trkpt><trkpt lat="44.296986716298" lon="11.650576707828222"><ele>95.0</ele><time>2026-05-01T13:28:01Z</time></trkpt><trkpt lat="44.296924583824044" lon="11.650625879077875"><ele>96.0</ele><time>2026-05-01T13:28:03Z</time></trkpt><trkpt lat="44.29687420517562" lon="11.650704184585946"><ele>97.0</ele><time>2026-05-01T13:28:07Z</time></trkpt><trkpt lat="44.2968271488613" lon="11.650770974675465"><ele>98.0</ele><time>2026-05-01T13:28:10Z</time></trkpt><trkpt lat="44.29678144233009" lon="11.65087296696827"><ele>99.00000000000001</ele><time>2026-05-01T13:28:14Z</time></trkpt><trkpt lat="44.29672145954798" lon="11.650941425051917"><ele>100.0</ele><time>2026-05-01T13:28:16Z</time></trkpt><trkpt lat="44.29664915168158" lon="11.65100231089689"><ele>100.00000000000001</ele><time>2026-05-01T13:28:19Z</time></trkpt><trkpt lat="44.29657880134306" lon="11.651054808945753"><ele>100.0</ele><time>2026-05-01T13:28:22Z</time></trkpt><trkpt lat="44.29651232768916" lon="11.651115019225323"><ele>100.0</ele><time>2026-05-01T13:28:25Z</time></trkpt><trkpt lat="44.29645344580155" lon="11.651187387605887"><ele>100.0</ele><time>2026-05-01T13:28:28Z</time></trkpt><trkpt lat="44.29639479319417" lon="11.65125537536238"><ele>100.00000000000001</ele><time>2026-05-01T13:28:31Z</time></trkpt><trkpt lat="44.29632951396969" lon="11.65131083460734"><ele>100.0</ele><time>2026-05-01T13:28:34Z</time></trkpt><trkpt lat="44.29626983110659" lon="11.651370361680687"><ele>101.14285714285715</ele><time>2026-05-01T13:28:37Z</time></trkpt><trkpt lat="44.296203193844306" lon="11.651416442369834"><ele>102.28571428571429</ele><time>2026-05-01T13:28:41Z</time></trkpt><trkpt lat="44.296151639152285" lon="11.651478941357205"><ele>103.42857142857143</ele><time>2026-05-01T13:28:44Z</time></trkpt><trkpt lat="44.29608681203624" lon="11.651544885184359"><ele>104.57142857142858</ele><time>2026-05-01T13:28:48Z</time></trkpt><trkpt lat="44.29602786562912" lon="11.65161072722964"><ele>105.71428571428571</ele><time>2026-05-01T13:28:52Z</time></trkpt><trkpt lat="44.29597576371726" lon="11.651678379938396"><ele>106.85714285714286</ele><time>2026-05-01T13:28:56Z</time></trkpt><trkpt lat="44.29592216671083" lon="11.6517322869775"><ele>108.0</ele><time>2026-05-01T13:29:00Z</time></trkpt><trkpt lat="44.29586561709026" lon="11.651781127640563"><ele>108.0</ele><time>2026-05-01T13:29:04Z</time></trkpt><trkpt lat="44.29581622589001" lon="11.651841713510452"><ele>108.0</ele><time>2026-05-01T13:29:08Z</time></trkpt><trkpt lat="44.295760703102324" lon="11.651900965926936"><ele>108.0</ele><time>2026-05-01T13:29:12Z</time></trkpt><trkpt lat="44.29569724587452" lon="11.651951064750202"><ele>108.0</ele><time>2026-05-01T13:29:16.999Z</time></trkpt><trkpt lat="44.295634310803415" lon="11.6520064420225"><ele>108.0</ele><time>2026-05-01T13:29:21.999Z</time></trkpt><trkpt lat="44.295564398058154" lon="11.652048994397221"><ele>108.0</ele><time>2026-05-01T13:29:27.999Z</time></trkpt><trkpt lat="44.29549763723091" lon="11.652091172043837"><ele>108.0</ele><time>2026-05-01T13:29:33.999Z</time></trkpt><trkpt lat="44.29543610252498" lon="11.652120967166297"><ele>109.85714285714286</ele><time>2026-05-01T13:29:39.999Z</time></trkpt><trkpt lat="44.29536556144967" lon="11.652148863223381"><ele>111.71428571428571</ele><time>2026-05-01T13:29:46.999Z</time></trkpt><trkpt lat="44.295304067465786" lon="11.65218460503317"><ele>113.57142857142857</ele><time>2026-05-01T13:29:52.999Z</time></trkpt><trkpt lat="44.29523445608619" lon="11.652223542616255"><ele>115.42857142857142</ele><time>2026-05-01T13:30:00Z</time></trkpt><trkpt lat="44.29517989657988" lon="11.65226891742911"><ele>117.28571428571428</ele><time>2026-05-01T13:30:06Z</time></trkpt><trkpt lat="44.29511789477232" lon="11.652294491481562"><ele>119.14285714285714</ele><time>2026-05-01T13:30:12Z</time></trkpt><trkpt lat="44.29504054766923" lon="11.652312377169796"><ele>121.0</ele><time>2026-05-01T13:30:18Z</time></trkpt><trkpt lat="44.294977429094885" lon="11.652311014045814"><ele>121.0</ele><time>2026-05-01T13:30:23Z</time></trkpt><trkpt lat="44.29490033056273" lon="11.65231633492605"><ele>120.99999999999999</ele><time>2026-05-01T13:30:29Z</time></trkpt><trkpt lat="44.2948327477101" lon="11.652336294219163"><ele>121.0</ele><time>2026-05-01T13:30:35Z</time></trkpt><trkpt lat="44.29475870732461" lon="11.652345991083946"><ele>121.0</ele><time>2026-05-01T13:30:41Z</time></trkpt><trkpt lat="44.294688723693135" lon="11.652365267994396"><ele>120.99999999999999</ele><time>2026-05-01T13:30:48Z</time></trkpt><trkpt lat="44.29461990439563" lon="11.652393658770984"><ele>121.0</ele><time>2026-05-01T13:30:54Z</time></trkpt><trkpt lat="44.294564322314194" lon="11.652445493998547"><ele>121.0</ele><time>2026-05-01T13:31:00Z</time></trkpt><trkpt lat="44.294505925096665" lon="11.652507695204005"><ele>122.28571428571428</ele><time>2026-05-01T13:31:06Z</time></trkpt><trkpt lat="44.294449880510086" lon="11.652570504160543"><ele>123.57142857142856</ele><time>2026-05-01T13:31:11.999Z</time></trkpt><trkpt lat="44.29438681521067" lon="11.652631391706162"><ele>124.85714285714286</ele><time>2026-05-01T13:31:17.999Z</time></trkpt><trkpt lat="44.29432025108301" lon="11.652679097103398"><ele>126.14285714285714</ele><time>2026-05-01T13:31:22.999Z</time></trkpt><trkpt lat="44.29425042670094" lon="11.652711951802623"><ele>127.42857142857143</ele><time>2026-05-01T13:31:27.999Z</time></trkpt><trkpt lat="44.29417896101087" lon="11.652736628992312"><ele>128.71428571428572</ele><time>2026-05-01T13:31:33.999Z</time></trkpt><trkpt lat="44.2941088877171" lon="11.65277205306781"><ele>130.0</ele><time>2026-05-01T13:31:39.999Z</time></trkpt><trkpt lat="44.29404379677546" lon="11.652796979565233"><ele>130.00000000000003</ele><time>2026-05-01T13:31:45.999Z</time></trkpt><trkpt lat="44.29398654978209" lon="11.652839732668625"><ele>130.0</ele><time>2026-05-01T13:31:51.999Z</time></trkpt><trkpt lat="44.29391677211166" lon="11.652861247257613"><ele>130.0</ele><time>2026-05-01T13:31:58Z</time></trkpt><trkpt lat="44.29385791281336" lon="11.65289293449334"><ele>130.0</ele><time>2026-05-01T13:32:04Z</time></trkpt><trkpt lat="44.29379141611929" lon="11.652864532612863"><ele>130.0</ele><time>2026-05-01T13:32:11Z</time></trkpt><trkpt lat="44.293727907164175" lon="11.65282461015434"><ele>130.00000000000003</ele><time>2026-05-01T13:32:18Z</time></trkpt><trkpt lat="44.29367649246302" lon="11.652753225548697"><ele>130.0</ele><time>2026-05-01T13:32:25Z</time></trkpt><trkpt lat="44.29361483019474" lon="11.652728731379279"><ele>132.42857142857144</ele><time>2026-05-01T13:32:31Z</time></trkpt><trkpt lat="44.29354706533676" lon="11.652705287992797"><ele>134.85714285714286</ele><time>2026-05-01T13:32:38Z</time></trkpt><trkpt lat="44.29349645060218" lon="11.65265111124575"><ele>137.28571428571428</ele><time>2026-05-01T13:32:44Z</time></trkpt><trkpt lat="44.29343594323471" lon="11.652626617120326"><ele>139.71428571428572</ele><time>2026-05-01T13:32:50Z</time></trkpt><trkpt lat="44.29336881815931" lon="11.652601063730994"><ele>142.14285714285714</ele><time>2026-05-01T13:32:57Z</time></trkpt><trkpt lat="44.293296301135456" lon="11.652598537575203"><ele>144.57142857142858</ele><time>2026-05-01T13:33:04Z</time></trkpt><trkpt lat="44.29322757741768" lon="11.652599167334591"><ele>147.0</ele><time>2026-05-01T13:33:11Z</time></trkpt><trkpt lat="44.29315278417027" lon="11.652604295022295"><ele>149.42857142857142</ele><time>2026-05-01T13:33:18Z</time></trkpt><trkpt lat="44.29308726813347" lon="11.652581413421819"><ele>151.85714285714286</ele><time>2026-05-01T13:33:25Z</time></trkpt><trkpt lat="44.29302200108523" lon="11.652574218850326"><ele>154.28571428571428</ele><time>2026-05-01T13:33:31.999Z</time></trkpt><trkpt lat="44.2929486562399" lon="11.652575376969306"><ele>156.71428571428572</ele><time>2026-05-01T13:33:39.999Z</time></trkpt><trkpt lat="44.29287975909307" lon="11.652570183572369"><ele>159.14285714285714</ele><time>2026-05-01T13:33:46.999Z</time></trkpt><trkpt lat="44.29280622683176" lon="11.65256820883369"><ele>161.57142857142856</ele><time>2026-05-01T13:33:54Z</time></trkpt><trkpt lat="44.29274046047999" lon="11.652560215547794"><ele>164.0</ele><time>2026-05-01T13:34:00Z</time></trkpt><trkpt lat="44.29267329054914" lon="11.652574469446398"><ele>163.99999999999997</ele><time>2026-05-01T13:34:06Z</time></trkpt><trkpt lat="44.29260591057427" lon="11.652579653215886"><ele>164.0</ele><time>2026-05-01T13:34:12Z</time></trkpt><trkpt lat="44.29254300909424" lon="11.652610400841233"><ele>164.0</ele><time>2026-05-01T13:34:18Z</time></trkpt><trkpt lat="44.292478444599155" lon="11.65263044500747"><ele>164.0</ele><time>2026-05-01T13:34:24Z</time></trkpt><trkpt lat="44.29241250578289" lon="11.652681064462236"><ele>164.0</ele><time>2026-05-01T13:34:30Z</time></trkpt><trkpt lat="44.2923543640716" lon="11.652737102216847"><ele>163.99999999999997</ele><time>2026-05-01T13:34:35Z</time></trkpt><trkpt lat="44.292291849612766" lon="11.652782084624578"><ele>164.0</ele><time>2026-05-01T13:34:40Z</time></trkpt><trkpt lat="44.2922350637115" lon="11.652841177897239"><ele>165.0</ele><time>2026-05-01T13:34:44Z</time></trkpt><trkpt lat="44.29217577110222" lon="11.65289395050551"><ele>166.0</ele><time>2026-05-01T13:34:48Z</time></trkpt><trkpt lat="44.29210868296337" lon="11.652959929124759"><ele>167.0</ele><time>2026-05-01T13:34:52Z</time></trkpt><trkpt lat="44.29204912438016" lon="11.653019742853596"><ele>168.0</ele><time>2026-05-01T13:34:55Z</time></trkpt><trkpt lat="44.29198371092227" lon="11.653083277420647"><ele>169.0</ele><time>2026-05-01T13:34:58Z</time></trkpt><trkpt lat="44.29191077505162" lon="11.653155655660413"><ele>170.0</ele><time>2026-05-01T13:35:01Z</time></trkpt><trkpt lat="44.29183493110394" lon="11.653232303480785"><ele>170.0</ele><time>2026-05-01T13:35:04Z</time></trkpt><trkpt lat="44.29177910390466" lon="11.653283717648696"><ele>170.0</ele><time>2026-05-01T13:35:06Z</time></trkpt><trkpt lat="44.29170580062046" lon="11.653352748433838"><ele>170.0</ele><time>2026-05-01T13:35:09Z</time></trkpt><trkpt lat="44.29163773633343" lon="11.65341841185625"><ele>170.0</ele><time>2026-05-01T13:35:12Z</time></trkpt><trkpt lat="44.29157327655481" lon="11.653477361392895"><ele>170.0</ele><time>2026-05-01T13:35:15Z</time></trkpt><trkpt lat="44.291518296327325" lon="11.65352510281266"><ele>170.0</ele><time>2026-05-01T13:35:18Z</time></trkpt><trkpt lat="44.29145608806808" lon="11.653566739243429"><ele>170.0</ele><time>2026-05-01T13:35:21Z</time></trkpt><trkpt lat="44.291398585053145" lon="11.653603493214968"><ele>170.14285714285714</ele><time>2026-05-01T13:35:24Z</time></trkpt><trkpt lat="44.291333961041246" lon="11.653669664149188"><ele>170.28571428571428</ele><time>2026-05-01T13:35:28Z</time></trkpt><trkpt lat="44.29126462566546" lon="11.653713299528372"><ele>170.42857142857142</ele><time>2026-05-01T13:35:32Z</time></trkpt><trkpt lat="44.29120802479189" lon="11.653762781647062"><ele>170.57142857142856</ele><time>2026-05-01T13:35:36Z</time></trkpt><trkpt lat="44.29114729894588" lon="11.653815208761939"><ele>170.71428571428572</ele><time>2026-05-01T13:35:40Z</time></trkpt><trkpt lat="44.2910848307492" lon="11.653845266218363"><ele>170.85714285714283</ele><time>2026-05-01T13:35:44Z</time></trkpt><trkpt lat="44.291015944618735" lon="11.653880540328057"><ele>171.0</ele><time>2026-05-01T13:35:48Z</time></trkpt><trkpt lat="44.29095203408578" lon="11.653895284991309"><ele>170.99999999999997</ele><time>2026-05-01T13:35:52Z</time></trkpt><trkpt lat="44.29088319255012" lon="11.653900545764643"><ele>171.0</ele><time>2026-05-01T13:35:56Z</time></trkpt><trkpt lat="44.29081571762184" lon="11.653909225683925"><ele>171.0</ele><time>2026-05-01T13:36:00Z</time></trkpt><trkpt lat="44.29074884018608" lon="11.65390958033704"><ele>171.0</ele><time>2026-05-01T13:36:04Z</time></trkpt><trkpt lat="44.290677003335574" lon="11.653914595570345"><ele>171.0</ele><time>2026-05-01T13:36:08Z</time></trkpt><trkpt lat="44.290599073287126" lon="11.653919476279807"><ele>170.99999999999997</ele><time>2026-05-01T13:36:13Z</time></trkpt><trkpt lat="44.290533716170295" lon="11.653919433663399"><ele>171.0</ele><time>2026-05-01T13:36:18Z</time></trkpt><trkpt lat="44.29046618994853" lon="11.653918773687765"><ele>172.7142857142857</ele><time>2026-05-01T13:36:23Z</time></trkpt><trkpt lat="44.29040143656922" lon="11.653930345770819"><ele>174.42857142857142</ele><time>2026-05-01T13:36:28Z</time></trkpt><trkpt lat="44.29033254792812" lon="11.653934066611853"><ele>176.14285714285714</ele><time>2026-05-01T13:36:33Z</time></trkpt><trkpt lat="44.2902619966786" lon="11.653931970703816"><ele>177.85714285714283</ele><time>2026-05-01T13:36:38Z</time></trkpt><trkpt lat="44.29019689295842" lon="11.653942563219307"><ele>179.57142857142858</ele><time>2026-05-01T13:36:43Z</time></trkpt><trkpt lat="44.29013043877903" lon="11.65398433239559"><ele>181.28571428571428</ele><time>2026-05-01T13:36:49Z</time></trkpt><trkpt lat="44.29006221743923" lon="11.654034373683"><ele>183.0</ele><time>2026-05-01T13:36:54Z</time></trkpt><trkpt lat="44.29001632138571" lon="11.654099732798993"><ele>183.0</ele><time>2026-05-01T13:36:58Z</time></trkpt><trkpt lat="44.28996706194229" lon="11.65417790599523"><ele>183.0</ele><time>2026-05-01T13:37:03Z</time></trkpt><trkpt lat="44.28991925895481" lon="11.654258431676285"><ele>183.0</ele><time>2026-05-01T13:37:07Z</time></trkpt><trkpt lat="44.28986929917573" lon="11.65434126020457"><ele>183.0</ele><time>2026-05-01T13:37:10Z</time></trkpt><trkpt lat="44.28983008567923" lon="11.654414648816653"><ele>183.0</ele><time>2026-05-01T13:37:12Z</time></trkpt><trkpt lat="44.289783839776554" lon="11.65449936579919"><ele>183.0</ele><time>2026-05-01T13:37:14Z</time></trkpt><trkpt lat="44.28973919836974" lon="11.654571717433518"><ele>183.0</ele><time>2026-05-01T13:37:16Z</time></trkpt><trkpt lat="44.28969502113967" lon="11.654660665297772"><ele>184.85714285714286</ele><time>2026-05-01T13:37:19Z</time></trkpt><trkpt lat="44.289654476843616" lon="11.654743057076937"><ele>186.71428571428572</ele><time>2026-05-01T13:37:23Z</time></trkpt><trkpt lat="44.2896131828739" lon="11.654814354767899"><ele>188.57142857142856</ele><time>2026-05-01T13:37:26Z</time></trkpt><trkpt lat="44.289565038575795" lon="11.654889764024322"><ele>190.42857142857144</ele><time>2026-05-01T13:37:30Z</time></trkpt><trkpt lat="44.28953861340091" lon="11.65497613997861"><ele>192.28571428571428</ele><time>2026-05-01T13:37:34Z</time></trkpt><trkpt lat="44.289496237571726" lon="11.655049166388897"><ele>194.14285714285714</ele><time>2026-05-01T13:37:38Z</time></trkpt><trkpt lat="44.289446609290515" lon="11.655117484176367"><ele>196.0</ele><time>2026-05-01T13:37:43Z</time></trkpt><trkpt lat="44.289396307861644" lon="11.655198211687251"><ele>196.0</ele><time>2026-05-01T13:37:48Z</time></trkpt><trkpt lat="44.289350234830714" lon="11.655265486760532"><ele>196.0</ele><time>2026-05-01T13:37:53Z</time></trkpt><trkpt lat="44.28930445608025" lon="11.655341541171714"><ele>196.0</ele><time>2026-05-01T13:37:58Z</time></trkpt><trkpt lat="44.28925496020706" lon="11.655423629688539"><ele>196.0</ele><time>2026-05-01T13:38:03Z</time></trkpt><trkpt lat="44.28920611075883" lon="11.655499509185965"><ele>196.0</ele><time>2026-05-01T13:38:08Z</time></trkpt><trkpt lat="44.28916298163943" lon="11.65557794636556"><ele>196.0</ele><time>2026-05-01T13:38:13Z</time></trkpt><trkpt lat="44.28912019388071" lon="11.655652999230368"><ele>196.0</ele><time>2026-05-01T13:38:18Z</time></trkpt><trkpt lat="44.289071091347125" lon="11.655737865718997"><ele>195.85714285714286</ele><time>2026-05-01T13:38:23Z</time></trkpt><trkpt lat="44.28902173373145" lon="11.655813338571132"><ele>195.71428571428572</ele><time>2026-05-01T13:38:28Z</time></trkpt><trkpt lat="44.288976254765394" lon="11.655886348814477"><ele>195.57142857142856</ele><time>2026-05-01T13:38:33Z</time></trkpt><trkpt lat="44.28892963016752" lon="11.655952335281698"><ele>195.42857142857144</ele><time>2026-05-01T13:38:38Z</time></trkpt><trkpt lat="44.28888696345796" lon="11.656031301690636"><ele>195.28571428571428</ele><time>2026-05-01T13:38:43Z</time></trkpt><trkpt lat="44.28884081055929" lon="11.656100695425406"><ele>195.14285714285714</ele><time>2026-05-01T13:38:48Z</time></trkpt><trkpt lat="44.28878565345404" lon="11.656168102661354"><ele>195.0</ele><time>2026-05-01T13:38:54Z</time></trkpt><trkpt lat="44.288728585773526" lon="11.656239381952684"><ele>196.28571428571428</ele><time>2026-05-01T13:39:00Z</time></trkpt><trkpt lat="44.28866216756518" lon="11.65629297608992"><ele>197.57142857142856</ele><time>2026-05-01T13:39:06Z</time></trkpt><trkpt lat="44.28860530482742" lon="11.656355251038638"><ele>198.85714285714286</ele><time>2026-05-01T13:39:12Z</time></trkpt><trkpt lat="44.28854697114859" lon="11.656414149850002"><ele>200.14285714285714</ele><time>2026-05-01T13:39:18Z</time></trkpt><trkpt lat="44.28849328739022" lon="11.656462230237944"><ele>201.42857142857144</ele><time>2026-05-01T13:39:24Z</time></trkpt><trkpt lat="44.28843314303558" lon="11.65651536124363"><ele>202.71428571428572</ele><time>2026-05-01T13:39:30Z</time></trkpt><trkpt lat="44.288384030894456" lon="11.656591271560593"><ele>204.0</ele><time>2026-05-01T13:39:36Z</time></trkpt><trkpt lat="44.28834454422852" lon="11.656670685804498"><ele>204.0</ele><time>2026-05-01T13:39:43Z</time></trkpt><trkpt lat="44.28831068688439" lon="11.656753738655555"><ele>204.0</ele><time>2026-05-01T13:39:49Z</time></trkpt><trkpt lat="44.288280011521174" lon="11.656835880180058"><ele>204.0</ele><time>2026-05-01T13:39:55Z</time></trkpt><trkpt lat="44.28826365530867" lon="11.656922192251045"><ele>204.0</ele><time>2026-05-01T13:40:00Z</time></trkpt><trkpt lat="44.288250780013136" lon="11.657021713945971"><ele>204.0</ele><time>2026-05-01T13:40:06Z</time></trkpt><trkpt lat="44.2882267626859" lon="11.657107605468529"><ele>204.0</ele><time>2026-05-01T13:40:11Z</time></trkpt><trkpt lat="44.288219163837724" lon="11.657194954706215"><ele>204.0</ele><time>2026-05-01T13:40:16Z</time></trkpt><trkpt lat="44.28820511992862" lon="11.657292812107896"><ele>204.57142857142858</ele><time>2026-05-01T13:40:22Z</time></trkpt><trkpt lat="44.288189322702756" lon="11.657392909497549"><ele>205.14285714285717</ele><time>2026-05-01T13:40:28Z</time></trkpt><trkpt lat="44.28817554655334" lon="11.657489882724056"><ele>205.71428571428572</ele><time>2026-05-01T13:40:33Z</time></trkpt><trkpt lat="44.28816122641075" lon="11.65757672227626"><ele>206.28571428571428</ele><time>2026-05-01T13:40:37Z</time></trkpt><trkpt lat="44.288148701685785" lon="11.657670527476153"><ele>206.85714285714286</ele><time>2026-05-01T13:40:41Z</time></trkpt><trkpt lat="44.28813702614286" lon="11.65775818035097"><ele>207.42857142857142</ele><time>2026-05-01T13:40:45Z</time></trkpt><trkpt lat="44.28812721919731" lon="11.657856781620897"><ele>208.0</ele><time>2026-05-01T13:40:49Z</time></trkpt><trkpt lat="44.288114050398654" lon="11.657946358257254"><ele>209.85714285714286</ele><time>2026-05-01T13:40:53Z</time></trkpt><trkpt lat="44.28810802453056" lon="11.6580520281024"><ele>211.71428571428572</ele><time>2026-05-01T13:40:58Z</time></trkpt><trkpt lat="44.28810641182423" lon="11.65814685022923"><ele>213.57142857142858</ele><time>2026-05-01T13:41:02Z</time></trkpt><trkpt lat="44.28811225508918" lon="11.658246228688238"><ele>215.42857142857144</ele><time>2026-05-01T13:41:06Z</time></trkpt><trkpt lat="44.288124358804" lon="11.658346283292849"><ele>217.28571428571428</ele><time>2026-05-01T13:41:10Z</time></trkpt><trkpt lat="44.28813828913871" lon="11.658444842738213"><ele>219.14285714285717</ele><time>2026-05-01T13:41:14Z</time></trkpt><trkpt lat="44.28815542018394" lon="11.658547210200632"><ele>221.0</ele><time>2026-05-01T13:41:18Z</time></trkpt><trkpt lat="44.28817986796553" lon="11.658639864458335"><ele>222.0</ele><time>2026-05-01T13:41:22Z</time></trkpt><trkpt lat="44.288213618276174" lon="11.658731933133936"><ele>223.0</ele><time>2026-05-01T13:41:26Z</time></trkpt><trkpt lat="44.288226477522755" lon="11.658828411833719"><ele>224.0</ele><time>2026-05-01T13:41:30Z</time></trkpt><trkpt lat="44.288244514562294" lon="11.658923233439307"><ele>225.0</ele><time>2026-05-01T13:41:34Z</time></trkpt><trkpt lat="44.288267165520764" lon="11.659024168118654"><ele>225.99999999999997</ele><time>2026-05-01T13:41:38Z</time></trkpt><trkpt lat="44.28829502319419" lon="11.659109620664136"><ele>227.0</ele><time>2026-05-01T13:41:42Z</time></trkpt><trkpt lat="44.288327162964116" lon="11.659186498649095"><ele>228.0</ele><time>2026-05-01T13:41:45Z</time></trkpt><trkpt lat="44.288354139116564" lon="11.659267743744758"><ele>228.0</ele><time>2026-05-01T13:41:48Z</time></trkpt><trkpt lat="44.28839208512133" lon="11.659362137781855"><ele>228.0</ele><time>2026-05-01T13:41:52Z</time></trkpt><trkpt lat="44.288419815218745" lon="11.65944141414752"><ele>228.0</ele><time>2026-05-01T13:41:55Z</time></trkpt><trkpt lat="44.28845515712059" lon="11.659539768479478"><ele>228.0</ele><time>2026-05-01T13:41:59Z</time></trkpt><trkpt lat="44.2885009441192" lon="11.659637091005973"><ele>228.0</ele><time>2026-05-01T13:42:03Z</time></trkpt><trkpt lat="44.28853825432546" lon="11.659736859513307"><ele>228.0</ele><time>2026-05-01T13:42:07Z</time></trkpt><trkpt lat="44.28857079963405" lon="11.659819983333092"><ele>227.66666666666666</ele><time>2026-05-01T13:42:10Z</time></trkpt><trkpt lat="44.28858828213826" lon="11.65992894506508"><ele>227.33333333333331</ele><time>2026-05-01T13:42:13.999Z</time></trkpt><trkpt lat="44.28861045877224" lon="11.660034628118016"><ele>227.0</ele><time>2026-05-01T13:42:18Z</time></trkpt><trkpt lat="44.288622533076705" lon="11.66013552653132"><ele>226.66666666666666</ele><time>2026-05-01T13:42:21.999Z</time></trkpt><trkpt lat="44.28862415622731" lon="11.660243409956417"><ele>226.33333333333331</ele><time>2026-05-01T13:42:27Z</time></trkpt><trkpt lat="44.28861668006882" lon="11.6603377576936"><ele>226.0</ele><time>2026-05-01T13:42:31Z</time></trkpt><trkpt lat="44.28860326434946" lon="11.660454554993251"><ele>225.85714285714286</ele><time>2026-05-01T13:42:35Z</time></trkpt><trkpt lat="44.288595167702795" lon="11.660545174182573"><ele>225.71428571428572</ele><time>2026-05-01T13:42:38Z</time></trkpt><trkpt lat="44.28859506903968" lon="11.660633269483156"><ele>225.57142857142858</ele><time>2026-05-01T13:42:41Z</time></trkpt><trkpt lat="44.28859183205533" lon="11.660742632183885"><ele>225.42857142857144</ele><time>2026-05-01T13:42:45Z</time></trkpt><trkpt lat="44.28859029714514" lon="11.660848002258783"><ele>225.28571428571428</ele><time>2026-05-01T13:42:49Z</time></trkpt><trkpt lat="44.28857899815045" lon="11.66094370830262"><ele>225.14285714285717</ele><time>2026-05-01T13:42:53Z</time></trkpt><trkpt lat="44.28858165546412" lon="11.661039639602928"><ele>225.00000000000003</ele><time>2026-05-01T13:42:57Z</time></trkpt><trkpt lat="44.28858580537848" lon="11.661142674039997"><ele>224.8571428571429</ele><time>2026-05-01T13:43:02Z</time></trkpt><trkpt lat="44.28858886449759" lon="11.661238337204221"><ele>224.71428571428572</ele><time>2026-05-01T13:43:07Z</time></trkpt><trkpt lat="44.28859583962075" lon="11.661341933571302"><ele>224.57142857142858</ele><time>2026-05-01T13:43:12Z</time></trkpt><trkpt lat="44.28861340312153" lon="11.66143551912045"><ele>224.42857142857144</ele><time>2026-05-01T13:43:17Z</time></trkpt><trkpt lat="44.28863546718388" lon="11.66154102139653"><ele>224.28571428571428</ele><time>2026-05-01T13:43:23Z</time></trkpt><trkpt lat="44.288661140223226" lon="11.661629893036269"><ele>224.14285714285714</ele><time>2026-05-01T13:43:28Z</time></trkpt><trkpt lat="44.2886860484683" lon="11.661730739607693"><ele>224.0</ele><time>2026-05-01T13:43:33Z</time></trkpt><trkpt lat="44.28870681055541" lon="11.66181968593029"><ele>224.0</ele><time>2026-05-01T13:43:37.999Z</time></trkpt><trkpt lat="44.28874124255893" lon="11.661901892735798"><ele>224.0</ele><time>2026-05-01T13:43:41.999Z</time></trkpt><trkpt lat="44.2887590722134" lon="11.662000925131565"><ele>224.0</ele><time>2026-05-01T13:43:46.999Z</time></trkpt><trkpt lat="44.28876541762365" lon="11.662102298863694"><ele>224.0</ele><time>2026-05-01T13:43:51.999Z</time></trkpt><trkpt lat="44.288753858148645" lon="11.662209218212528"><ele>224.0</ele><time>2026-05-01T13:43:55.999Z</time></trkpt><trkpt lat="44.288728064478214" lon="11.662306928770528"><ele>224.0</ele><time>2026-05-01T13:43:59.999Z</time></trkpt><trkpt lat="44.288693411126424" lon="11.662406119109534"><ele>224.0</ele><time>2026-05-01T13:44:03.999Z</time></trkpt><trkpt lat="44.28865511978719" lon="11.662503036659835"><ele>225.16666666666669</ele><time>2026-05-01T13:44:06.999Z</time></trkpt><trkpt lat="44.28860821780934" lon="11.662599754100457"><ele>226.33333333333334</ele><time>2026-05-01T13:44:08.999Z</time></trkpt><trkpt lat="44.2885405841856" lon="11.662726747289287"><ele>227.5</ele><time>2026-05-01T13:44:10.999Z</time></trkpt><trkpt lat="44.288496901293755" lon="11.662790815883156"><ele>228.66666666666669</ele><time>2026-05-01T13:44:11.999Z</time></trkpt><trkpt lat="44.288456462776836" lon="11.66286197897951"><ele>229.83333333333334</ele><time>2026-05-01T13:44:12.999Z</time></trkpt><trkpt lat="44.288392193868404" lon="11.662916249946926"><ele>231.0</ele><time>2026-05-01T13:44:13.999Z</time></trkpt><trkpt lat="44.2883400922188" lon="11.663005814549887"><ele>231.8</ele><time>2026-05-01T13:44:14.999Z</time></trkpt><trkpt lat="44.2882857212488" lon="11.66309928186704"><ele>232.60000000000002</ele><time>2026-05-01T13:44:15.999Z</time></trkpt><trkpt lat="44.28822955721661" lon="11.663194559624158"><ele>233.4</ele><time>2026-05-01T13:44:16.999Z</time></trkpt><trkpt lat="44.288170898187225" lon="11.663290966374284"><ele>234.2</ele><time>2026-05-01T13:44:17.999Z</time></trkpt><trkpt lat="44.28811351594315" lon="11.66338527486616"><ele>235.0</ele><time>2026-05-01T13:44:18.999Z</time></trkpt><trkpt lat="44.28804661967411" lon="11.66350023671219"><ele>233.4</ele><time>2026-05-01T13:44:19.999Z</time></trkpt><trkpt lat="44.287985044980985" lon="11.66360799210881"><ele>231.8</ele><time>2026-05-01T13:44:20.999Z</time></trkpt><trkpt lat="44.28791874488408" lon="11.663711766507774"><ele>230.2</ele><time>2026-05-01T13:44:21.999Z</time></trkpt><trkpt lat="44.28784096101897" lon="11.663810408736042"><ele>228.6</ele><time>2026-05-01T13:44:22.999Z</time></trkpt><trkpt lat="44.2877656283633" lon="11.663884823381874"><ele>227.0</ele><time>2026-05-01T13:44:24Z</time></trkpt><trkpt lat="44.28768835295834" lon="11.663943673915929"><ele>227.00000000000003</ele><time>2026-05-01T13:44:25Z</time></trkpt><trkpt lat="44.28761005866951" lon="11.66399000990615"><ele>227.0</ele><time>2026-05-01T13:44:26Z</time></trkpt><trkpt lat="44.28752617151196" lon="11.664034240956642"><ele>227.0</ele><time>2026-05-01T13:44:27Z</time></trkpt><trkpt lat="44.2874520536314" lon="11.664062037148236"><ele>227.0</ele><time>2026-05-01T13:44:28Z</time></trkpt><trkpt lat="44.28737319426452" lon="11.664072716702643"><ele>227.00000000000003</ele><time>2026-05-01T13:44:29Z</time></trkpt><trkpt lat="44.28730725504136" lon="11.664077746989241"><ele>227.0</ele><time>2026-05-01T13:44:30Z</time></trkpt><trkpt lat="44.287191331622594" lon="11.664092376448362"><ele>228.00000000000003</ele><time>2026-05-01T13:44:32Z</time></trkpt><trkpt lat="44.28710902565351" lon="11.664133842480654"><ele>229.0</ele><time>2026-05-01T13:44:34Z</time></trkpt><trkpt lat="44.28703107411082" lon="11.664157952551639"><ele>230.0</ele><time>2026-05-01T13:44:36Z</time></trkpt><trkpt lat="44.28694641426074" lon="11.664188554321907"><ele>231.0</ele><time>2026-05-01T13:44:39Z</time></trkpt><trkpt lat="44.28688999542481" lon="11.664246285908142"><ele>232.00000000000003</ele><time>2026-05-01T13:44:42Z</time></trkpt><trkpt lat="44.28683512247726" lon="11.664302262566565"><ele>233.0</ele><time>2026-05-01T13:44:45Z</time></trkpt><trkpt lat="44.286783197328205" lon="11.664363665439943"><ele>233.0</ele><time>2026-05-01T13:44:48Z</time></trkpt><trkpt lat="44.286718852460574" lon="11.664422992580553"><ele>233.0</ele><time>2026-05-01T13:44:52Z</time></trkpt><trkpt lat="44.28665472663533" lon="11.664482512111647"><ele>233.0</ele><time>2026-05-01T13:44:56Z</time></trkpt><trkpt lat="44.286591842512685" lon="11.664530599192798"><ele>233.0</ele><time>2026-05-01T13:45:00Z</time></trkpt><trkpt lat="44.28652564299006" lon="11.664564229483272"><ele>233.0</ele><time>2026-05-01T13:45:04Z</time></trkpt><trkpt lat="44.28646296908361" lon="11.664587932443716"><ele>233.0</ele><time>2026-05-01T13:45:08Z</time></trkpt><trkpt lat="44.28638548582338" lon="11.664626657163891"><ele>233.0</ele><time>2026-05-01T13:45:13Z</time></trkpt><trkpt lat="44.286317828009345" lon="11.664645530371164"><ele>235.14285714285717</ele><time>2026-05-01T13:45:17Z</time></trkpt><trkpt lat="44.28624293308232" lon="11.664669338818833"><ele>237.28571428571428</ele><time>2026-05-01T13:45:22Z</time></trkpt><trkpt lat="44.28617751875851" lon="11.664701629149604"><ele>239.42857142857144</ele><time>2026-05-01T13:45:27Z</time></trkpt><trkpt lat="44.28611665248299" lon="11.66476144746097"><ele>241.57142857142858</ele><time>2026-05-01T13:45:33Z</time></trkpt><trkpt lat="44.28606074953687" lon="11.66482546338842"><ele>243.71428571428572</ele><time>2026-05-01T13:45:39Z</time></trkpt><trkpt lat="44.28602099239816" lon="11.664904756927832"><ele>245.85714285714286</ele><time>2026-05-01T13:45:45Z</time></trkpt><trkpt lat="44.285971735939036" lon="11.664976828128125"><ele>248.0</ele><time>2026-05-01T13:45:50Z</time></trkpt><trkpt lat="44.28592380969659" lon="11.665039545529792"><ele>248.0</ele><time>2026-05-01T13:45:55Z</time></trkpt><trkpt lat="44.28586469074349" lon="11.665087240611374"><ele>248.00000000000003</ele><time>2026-05-01T13:46:00Z</time></trkpt><trkpt lat="44.28580510516237" lon="11.665135060164502"><ele>248.0</ele><time>2026-05-01T13:46:05Z</time></trkpt><trkpt lat="44.2857342251022" lon="11.665172702470974"><ele>248.0</ele><time>2026-05-01T13:46:10Z</time></trkpt><trkpt lat="44.2856688743884" lon="11.665197731371912"><ele>248.00000000000003</ele><time>2026-05-01T13:46:14Z</time></trkpt><trkpt lat="44.285581117289375" lon="11.665227127439563"><ele>248.0</ele><time>2026-05-01T13:46:18Z</time></trkpt><trkpt lat="44.28551790963663" lon="11.665250977761355"><ele>248.0</ele><time>2026-05-01T13:46:20Z</time></trkpt><trkpt lat="44.285454337849124" lon="11.66525586264366"><ele>248.2857142857143</ele><time>2026-05-01T13:46:22Z</time></trkpt><trkpt lat="44.285392661442344" lon="11.665276822028858"><ele>248.5714285714286</ele><time>2026-05-01T13:46:24Z</time></trkpt><trkpt lat="44.28531552410812" lon="11.665299312325928"><ele>248.85714285714286</ele><time>2026-05-01T13:46:27Z</time></trkpt><trkpt lat="44.28525201575992" lon="11.665301687357548"><ele>249.14285714285717</ele><time>2026-05-01T13:46:30Z</time></trkpt><trkpt lat="44.285170801125574" lon="11.665294555790098"><ele>249.42857142857144</ele><time>2026-05-01T13:46:34Z</time></trkpt><trkpt lat="44.285096921117194" lon="11.665272018498893"><ele>249.71428571428572</ele><time>2026-05-01T13:46:38Z</time></trkpt><trkpt lat="44.285019278420656" lon="11.665273927660484"><ele>250.0</ele><time>2026-05-01T13:46:42Z</time></trkpt><trkpt lat="44.284947814226825" lon="11.665289086423806"><ele>248.57142857142856</ele><time>2026-05-01T13:46:46Z</time></trkpt><trkpt lat="44.284886978686295" lon="11.66531796733198"><ele>247.14285714285717</ele><time>2026-05-01T13:46:49Z</time></trkpt><trkpt lat="44.28481049261176" lon="11.66535304151478"><ele>245.71428571428572</ele><time>2026-05-01T13:46:52Z</time></trkpt><trkpt lat="44.2847492073605" lon="11.665381494505587"><ele>244.28571428571428</ele><time>2026-05-01T13:46:54Z</time></trkpt><trkpt lat="44.28468368616558" lon="11.665407880660952"><ele>242.85714285714283</ele><time>2026-05-01T13:46:56Z</time></trkpt><trkpt lat="44.284620061980064" lon="11.665437273961661"><ele>241.42857142857144</ele><time>2026-05-01T13:46:58Z</time></trkpt><trkpt lat="44.28453706726068" lon="11.665451852059086"><ele>240.0</ele><time>2026-05-01T13:47:00Z</time></trkpt><trkpt lat="44.28445867835924" lon="11.665461695979651"><ele>240.0</ele><time>2026-05-01T13:47:02Z</time></trkpt><trkpt lat="44.28436603201626" lon="11.665437965750732"><ele>240.0</ele><time>2026-05-01T13:47:05Z</time></trkpt><trkpt lat="44.28426906021494" lon="11.665413059380253"><ele>240.0</ele><time>2026-05-01T13:47:08Z</time></trkpt><trkpt lat="44.28419204309096" lon="11.665413476123485"><ele>240.0</ele><time>2026-05-01T13:47:10Z</time></trkpt><trkpt lat="44.28412629109822" lon="11.665414479135366"><ele>240.0</ele><time>2026-05-01T13:47:12Z</time></trkpt><trkpt lat="44.284057983210175" lon="11.665416161299559"><ele>240.0</ele><time>2026-05-01T13:47:14Z</time></trkpt><trkpt lat="44.283993428454394" lon="11.665419605252872"><ele>242.0</ele><time>2026-05-01T13:47:16Z</time></trkpt><trkpt lat="44.28392545250609" lon="11.6654149525844"><ele>244.0</ele><time>2026-05-01T13:47:18Z</time></trkpt><trkpt lat="44.28383409081424" lon="11.665421257713408"><ele>246.0</ele><time>2026-05-01T13:47:21Z</time></trkpt><trkpt lat="44.28373850199893" lon="11.66541750697661"><ele>248.0</ele><time>2026-05-01T13:47:24Z</time></trkpt><trkpt lat="44.2836720253457" lon="11.665419529571617"><ele>250.0</ele><time>2026-05-01T13:47:26Z</time></trkpt><trkpt lat="44.28360329348902" lon="11.665433340359115"><ele>252.0</ele><time>2026-05-01T13:47:28Z</time></trkpt><trkpt lat="44.283526124492155" lon="11.665436286794815"><ele>252.0</ele><time>2026-05-01T13:47:30Z</time></trkpt><trkpt lat="44.283455362400325" lon="11.665452167815209"><ele>252.0</ele><time>2026-05-01T13:47:32Z</time></trkpt><trkpt lat="44.2833900973699" lon="11.66547684797886"><ele>252.0</ele><time>2026-05-01T13:47:34Z</time></trkpt><trkpt lat="44.2833227876497" lon="11.665496598324397"><ele>252.0</ele><time>2026-05-01T13:47:36Z</time></trkpt><trkpt lat="44.283251964188686" lon="11.665520398104352"><ele>252.0</ele><time>2026-05-01T13:47:38Z</time></trkpt><trkpt lat="44.28315762867926" lon="11.66557270276173"><ele>252.0</ele><time>2026-05-01T13:47:41Z</time></trkpt><trkpt lat="44.28307190505982" lon="11.665606658994728"><ele>254.0</ele><time>2026-05-01T13:47:44Z</time></trkpt><trkpt lat="44.28299193869158" lon="11.665642831448965"><ele>256.0</ele><time>2026-05-01T13:47:47Z</time></trkpt><trkpt lat="44.28292826104116" lon="11.665720981715506"><ele>258.0</ele><time>2026-05-01T13:47:50Z</time></trkpt><trkpt lat="44.28288965170004" lon="11.665811392249408"><ele>260.0</ele><time>2026-05-01T13:47:53Z</time></trkpt><trkpt lat="44.28284286002201" lon="11.665880443684944"><ele>262.0</ele><time>2026-05-01T13:47:56Z</time></trkpt><trkpt lat="44.282791689945796" lon="11.665950334365286"><ele>264.0</ele><time>2026-05-01T13:47:59Z</time></trkpt><trkpt lat="44.28273838920833" lon="11.666035700694653"><ele>263.6666666666667</ele><time>2026-05-01T13:48:02Z</time></trkpt><trkpt lat="44.282682290651906" lon="11.666128871535436"><ele>263.3333333333333</ele><time>2026-05-01T13:48:05Z</time></trkpt><trkpt lat="44.282634581633225" lon="11.666210632703683"><ele>263.0</ele><time>2026-05-01T13:48:08Z</time></trkpt><trkpt lat="44.28257861036718" lon="11.666305798703707"><ele>262.66666666666663</ele><time>2026-05-01T13:48:11Z</time></trkpt><trkpt lat="44.28254049104814" lon="11.66640842249978"><ele>262.3333333333333</ele><time>2026-05-01T13:48:14Z</time></trkpt><trkpt lat="44.28248436822642" lon="11.666491549140082"><ele>262.0</ele><time>2026-05-01T13:48:17Z</time></trkpt><trkpt lat="44.28243600296434" lon="11.666577664983047"><ele>262.0</ele><time>2026-05-01T13:48:20Z</time></trkpt><trkpt lat="44.28238060037319" lon="11.666669407092671"><ele>262.0</ele><time>2026-05-01T13:48:23Z</time></trkpt><trkpt lat="44.2823219842269" lon="11.666738232529411"><ele>262.0</ele><time>2026-05-01T13:48:26Z</time></trkpt><trkpt lat="44.2822694174882" lon="11.666794790880681"><ele>262.0</ele><time>2026-05-01T13:48:28Z</time></trkpt><trkpt lat="44.28220458420308" lon="11.666884418499922"><ele>262.0</ele><time>2026-05-01T13:48:31Z</time></trkpt><trkpt lat="44.28214386611868" lon="11.666977576317903"><ele>262.0</ele><time>2026-05-01T13:48:34Z</time></trkpt><trkpt lat="44.282093658157045" lon="11.667055456983475"><ele>263.7142857142857</ele><time>2026-05-01T13:48:37Z</time></trkpt><trkpt lat="44.28205497038423" lon="11.667138288564546"><ele>265.42857142857144</ele><time>2026-05-01T13:48:40Z</time></trkpt><trkpt lat="44.28200949297901" lon="11.66722494435001"><ele>267.14285714285717</ele><time>2026-05-01T13:48:44Z</time></trkpt><trkpt lat="44.28197980799545" lon="11.66730744982083"><ele>268.8571428571429</ele><time>2026-05-01T13:48:48Z</time></trkpt><trkpt lat="44.28193473584628" lon="11.667384947100695"><ele>270.57142857142856</ele><time>2026-05-01T13:48:53Z</time></trkpt><trkpt lat="44.28189106485316" lon="11.667466970621426"><ele>272.28571428571433</ele><time>2026-05-01T13:48:58Z</time></trkpt><trkpt lat="44.28185838677088" lon="11.667544290691165"><ele>274.0</ele><time>2026-05-01T13:49:02Z</time></trkpt><trkpt lat="44.281830843198726" lon="11.667627734854547"><ele>274.0</ele><time>2026-05-01T13:49:06Z</time></trkpt><trkpt lat="44.281803364284464" lon="11.667712688566255"><ele>274.0</ele><time>2026-05-01T13:49:10Z</time></trkpt><trkpt lat="44.28177865522831" lon="11.66780360342698"><ele>274.0</ele><time>2026-05-01T13:49:14Z</time></trkpt><trkpt lat="44.28175466085154" lon="11.667898850628859"><ele>274.0</ele><time>2026-05-01T13:49:17Z</time></trkpt><trkpt lat="44.2817278177139" lon="11.667984520495706"><ele>274.0</ele><time>2026-05-01T13:49:19Z</time></trkpt><trkpt lat="44.28166859567602" lon="11.668070036956665"><ele>274.0</ele><time>2026-05-01T13:49:21Z</time></trkpt><trkpt lat="44.28160312396932" lon="11.668166651834813"><ele>273.4</ele><time>2026-05-01T13:49:23Z</time></trkpt><trkpt lat="44.28152661325819" lon="11.668279227431253"><ele>272.79999999999995</ele><time>2026-05-01T13:49:25Z</time></trkpt><trkpt lat="44.281447717608046" lon="11.66838799799622"><ele>272.20000000000005</ele><time>2026-05-01T13:49:27Z</time></trkpt><trkpt lat="44.28140529331271" lon="11.668453928581156"><ele>271.6</ele><time>2026-05-01T13:49:28Z</time></trkpt><trkpt lat="44.2813267177375" lon="11.668557470186181"><ele>271.0</ele><time>2026-05-01T13:49:30Z</time></trkpt><trkpt lat="44.281244967310414" lon="11.66866164678003"><ele>269.8333333333333</ele><time>2026-05-01T13:49:32Z</time></trkpt><trkpt lat="44.28118690551027" lon="11.668767955214"><ele>268.66666666666663</ele><time>2026-05-01T13:49:34Z</time></trkpt><trkpt lat="44.28111595851364" lon="11.668872752162676"><ele>267.5</ele><time>2026-05-01T13:49:36Z</time></trkpt><trkpt lat="44.281064918782604" lon="11.668962823191125"><ele>266.3333333333333</ele><time>2026-05-01T13:49:38Z</time></trkpt><trkpt lat="44.28102187417818" lon="11.6690537547878"><ele>265.1666666666667</ele><time>2026-05-01T13:49:40Z</time></trkpt><trkpt lat="44.28095830102819" lon="11.669134700674942"><ele>264.0</ele><time>2026-05-01T13:49:42Z</time></trkpt><trkpt lat="44.2808917963821" lon="11.669255144724838"><ele>264.0</ele><time>2026-05-01T13:49:44Z</time></trkpt><trkpt lat="44.28084336647832" lon="11.669374945157116"><ele>264.0</ele><time>2026-05-01T13:49:46Z</time></trkpt><trkpt lat="44.280786592682865" lon="11.669435405077998"><ele>264.0</ele><time>2026-05-01T13:49:47Z</time></trkpt><trkpt lat="44.2807461359156" lon="11.66950359201253"><ele>264.0</ele><time>2026-05-01T13:49:48Z</time></trkpt><trkpt lat="44.28072389626812" lon="11.66960005667498"><ele>264.0</ele><time>2026-05-01T13:49:49Z</time></trkpt><trkpt lat="44.28070179663316" lon="11.669693580217233"><ele>264.0</ele><time>2026-05-01T13:49:50Z</time></trkpt><trkpt lat="44.280672841726464" lon="11.669794949458018"><ele>263.0</ele><time>2026-05-01T13:49:51Z</time></trkpt><trkpt lat="44.28066138405074" lon="11.669883418139884"><ele>262.0</ele><time>2026-05-01T13:49:52Z</time></trkpt><trkpt lat="44.280657631294" lon="11.66997303355572"><ele>261.0</ele><time>2026-05-01T13:49:53Z</time></trkpt><trkpt lat="44.28066011841349" lon="11.670129304839223"><ele>260.0</ele><time>2026-05-01T13:49:55Z</time></trkpt><trkpt lat="44.28063628600502" lon="11.670214014777791"><ele>259.0</ele><time>2026-05-01T13:49:56Z</time></trkpt><trkpt lat="44.28062810445563" lon="11.67030655039536"><ele>258.0</ele><time>2026-05-01T13:49:57Z</time></trkpt><trkpt lat="44.2806099898447" lon="11.670476984132092"><ele>256.0</ele><time>2026-05-01T13:49:59Z</time></trkpt><trkpt lat="44.28058291185737" lon="11.670651058572664"><ele>254.0</ele><time>2026-05-01T13:50:01Z</time></trkpt><trkpt lat="44.280567104835384" lon="11.670739282778566"><ele>252.0</ele><time>2026-05-01T13:50:02Z</time></trkpt><trkpt lat="44.280564105861494" lon="11.670830732861077"><ele>250.0</ele><time>2026-05-01T13:50:03Z</time></trkpt><trkpt lat="44.28054968972644" lon="11.670930105227876"><ele>248.0</ele><time>2026-05-01T13:50:04Z</time></trkpt><trkpt lat="44.2805578654999" lon="11.67102159193689"><ele>246.0</ele><time>2026-05-01T13:50:05Z</time></trkpt><trkpt lat="44.280555597701316" lon="11.671125296597602"><ele>246.0</ele><time>2026-05-01T13:50:06Z</time></trkpt><trkpt lat="44.28059619780357" lon="11.671220312936404"><ele>246.0</ele><time>2026-05-01T13:50:07Z</time></trkpt><trkpt lat="44.280628576809335" lon="11.67132296592117"><ele>246.0</ele><time>2026-05-01T13:50:08Z</time></trkpt><trkpt lat="44.280659212728985" lon="11.671415511475539"><ele>246.0</ele><time>2026-05-01T13:50:09Z</time></trkpt><trkpt lat="44.28070981500597" lon="11.671509562637828"><ele>246.0</ele><time>2026-05-01T13:50:10Z</time></trkpt><trkpt lat="44.28075553378907" lon="11.671602780264982"><ele>246.0</ele><time>2026-05-01T13:50:11Z</time></trkpt><trkpt lat="44.280808418609865" lon="11.671702675107925"><ele>247.4</ele><time>2026-05-01T13:50:12Z</time></trkpt><trkpt lat="44.2808677056888" lon="11.671799861585153"><ele>248.8</ele><time>2026-05-01T13:50:13Z</time></trkpt><trkpt lat="44.280932391943644" lon="11.671886361354238"><ele>250.20000000000002</ele><time>2026-05-01T13:50:14Z</time></trkpt><trkpt lat="44.280997868059565" lon="11.671977363886775"><ele>251.60000000000002</ele><time>2026-05-01T13:50:15Z</time></trkpt><trkpt lat="44.28106602066103" lon="11.67207925894824"><ele>253.0</ele><time>2026-05-01T13:50:16Z</time></trkpt><trkpt lat="44.28112490707483" lon="11.672184139479812"><ele>254.60000000000002</ele><time>2026-05-01T13:50:17Z</time></trkpt><trkpt lat="44.28117189035516" lon="11.67230051039628"><ele>256.20000000000005</ele><time>2026-05-01T13:50:18Z</time></trkpt><trkpt lat="44.281236348330786" lon="11.672402751076861"><ele>257.8</ele><time>2026-05-01T13:50:19Z</time></trkpt><trkpt lat="44.281316292337316" lon="11.672494083704976"><ele>259.40000000000003</ele><time>2026-05-01T13:50:20Z</time></trkpt><trkpt lat="44.28140548623377" lon="11.672581693348357"><ele>261.0</ele><time>2026-05-01T13:50:21Z</time></trkpt><trkpt lat="44.281455008910264" lon="11.672709292245807"><ele>258.2</ele><time>2026-05-01T13:50:22Z</time></trkpt><trkpt lat="44.281519328315945" lon="11.672809043489584"><ele>255.40000000000003</ele><time>2026-05-01T13:50:23Z</time></trkpt><trkpt lat="44.28155933738876" lon="11.672928373135349"><ele>252.6</ele><time>2026-05-01T13:50:24Z</time></trkpt><trkpt lat="44.28158065027914" lon="11.673057641068167"><ele>249.8</ele><time>2026-05-01T13:50:25Z</time></trkpt><trkpt lat="44.28160548039866" lon="11.67318128200164"><ele>247.0</ele><time>2026-05-01T13:50:26Z</time></trkpt><trkpt lat="44.28162891957289" lon="11.673297897985329"><ele>247.0</ele><time>2026-05-01T13:50:27Z</time></trkpt><trkpt lat="44.28165674234701" lon="11.673398109158882"><ele>247.0</ele><time>2026-05-01T13:50:28Z</time></trkpt><trkpt lat="44.28167583209921" lon="11.673486711161484"><ele>247.0</ele><time>2026-05-01T13:50:29Z</time></trkpt><trkpt lat="44.2816915040118" lon="11.673573421318078"><ele>247.0</ele><time>2026-05-01T13:50:30Z</time></trkpt><trkpt lat="44.281710929702264" lon="11.67366674271871"><ele>247.0</ele><time>2026-05-01T13:50:31Z</time></trkpt><trkpt lat="44.28172770181196" lon="11.673754902904596"><ele>247.0</ele><time>2026-05-01T13:50:32Z</time></trkpt><trkpt lat="44.28175187636842" lon="11.673840834331063"><ele>247.0</ele><time>2026-05-01T13:50:33Z</time></trkpt><trkpt lat="44.28177885505815" lon="11.673934644257198"><ele>247.99999999999997</ele><time>2026-05-01T13:50:34Z</time></trkpt><trkpt lat="44.2817971648068" lon="11.674032345971481"><ele>249.0</ele><time>2026-05-01T13:50:35Z</time></trkpt><trkpt lat="44.28184303193452" lon="11.674119901695686"><ele>250.0</ele><time>2026-05-01T13:50:36Z</time></trkpt><trkpt lat="44.28189728762385" lon="11.67420090311613"><ele>251.0</ele><time>2026-05-01T13:50:37Z</time></trkpt><trkpt lat="44.28195129942416" lon="11.674290956793666"><ele>251.99999999999997</ele><time>2026-05-01T13:50:38Z</time></trkpt><trkpt lat="44.28200291799232" lon="11.674394177743002"><ele>253.0</ele><time>2026-05-01T13:50:39Z</time></trkpt><trkpt lat="44.2820568574483" lon="11.674483703091735"><ele>252.16666666666666</ele><time>2026-05-01T13:50:40Z</time></trkpt><trkpt lat="44.28210834330773" lon="11.674564042431545"><ele>251.33333333333331</ele><time>2026-05-01T13:50:41Z</time></trkpt><trkpt lat="44.28216076979083" lon="11.674641544571376"><ele>250.5</ele><time>2026-05-01T13:50:42Z</time></trkpt><trkpt lat="44.28221073561217" lon="11.674708819529487"><ele>249.66666666666669</ele><time>2026-05-01T13:50:43Z</time></trkpt><trkpt lat="44.28226132503921" lon="11.674775645707587"><ele>248.83333333333334</ele><time>2026-05-01T13:50:44Z</time></trkpt><trkpt lat="44.282339644207084" lon="11.674848656456259"><ele>248.0</ele><time>2026-05-01T13:50:46Z</time></trkpt><trkpt lat="44.28239293895015" lon="11.674897988810622"><ele>248.00000000000003</ele><time>2026-05-01T13:50:48Z</time></trkpt><trkpt lat="44.28247254651814" lon="11.674936481138579"><ele>248.0</ele><time>2026-05-01T13:50:51Z</time></trkpt><trkpt lat="44.28255185580383" lon="11.675011056252167"><ele>248.0</ele><time>2026-05-01T13:50:54Z</time></trkpt><trkpt lat="44.282665106644146" lon="11.675058048740977"><ele>248.0</ele><time>2026-05-01T13:50:57Z</time></trkpt><trkpt lat="44.282717695554894" lon="11.675127319539152"><ele>248.00000000000003</ele><time>2026-05-01T13:50:59Z</time></trkpt><trkpt lat="44.28277106053761" lon="11.675203638363003"><ele>248.0</ele><time>2026-05-01T13:51:01Z</time></trkpt><trkpt lat="44.282804642495385" lon="11.675283190379567"><ele>249.83333333333334</ele><time>2026-05-01T13:51:03Z</time></trkpt><trkpt lat="44.28284949958827" lon="11.675395900930283"><ele>251.66666666666669</ele><time>2026-05-01T13:51:06Z</time></trkpt><trkpt lat="44.28289113511746" lon="11.675525141428013"><ele>253.5</ele><time>2026-05-01T13:51:09Z</time></trkpt><trkpt lat="44.28291933279643" lon="11.675622099306636"><ele>255.33333333333331</ele><time>2026-05-01T13:51:11Z</time></trkpt><trkpt lat="44.28294695417793" lon="11.67570686203729"><ele>257.16666666666663</ele><time>2026-05-01T13:51:13Z</time></trkpt><trkpt lat="44.282961889150414" lon="11.675808515206162"><ele>259.0</ele><time>2026-05-01T13:51:16Z</time></trkpt><trkpt lat="44.28301450179712" lon="11.675861801332346"><ele>259.0</ele><time>2026-05-01T13:52:02Z</time></trkpt><trkpt lat="44.28301012622029" lon="11.67596754100066"><ele>259.0</ele><time>2026-05-01T13:52:06Z</time></trkpt><trkpt lat="44.28301530782631" lon="11.676060563270704"><ele>259.0</ele><time>2026-05-01T13:52:09Z</time></trkpt><trkpt lat="44.28304593970006" lon="11.676178793687168"><ele>259.0</ele><time>2026-05-01T13:52:12Z</time></trkpt><trkpt lat="44.28306887710726" lon="11.67626946456969"><ele>259.0</ele><time>2026-05-01T13:52:14Z</time></trkpt><trkpt lat="44.28310103334492" lon="11.676396383156552"><ele>259.0</ele><time>2026-05-01T13:52:16Z</time></trkpt><trkpt lat="44.28314115465762" lon="11.676547782733351"><ele>256.5</ele><time>2026-05-01T13:52:18Z</time></trkpt><trkpt lat="44.283169477955056" lon="11.676638525800271"><ele>254.0</ele><time>2026-05-01T13:52:19Z</time></trkpt><trkpt lat="44.283196867151354" lon="11.676735021392227"><ele>251.5</ele><time>2026-05-01T13:52:20Z</time></trkpt><trkpt lat="44.2832301585056" lon="11.676839954407656"><ele>249.0</ele><time>2026-05-01T13:52:21Z</time></trkpt><trkpt lat="44.283261445246396" lon="11.676954732578004"><ele>246.49999999999997</ele><time>2026-05-01T13:52:22Z</time></trkpt><trkpt lat="44.28329660697676" lon="11.67706980352719"><ele>244.0</ele><time>2026-05-01T13:52:23Z</time></trkpt><trkpt lat="44.28333319512676" lon="11.677185417784338"><ele>242.49999999999997</ele><time>2026-05-01T13:52:24Z</time></trkpt><trkpt lat="44.283379229786554" lon="11.677293318841718"><ele>241.0</ele><time>2026-05-01T13:52:25Z</time></trkpt><trkpt lat="44.283438285194954" lon="11.67738247294724"><ele>239.5</ele><time>2026-05-01T13:52:26Z</time></trkpt><trkpt lat="44.283505866724695" lon="11.677454272514982"><ele>238.0</ele><time>2026-05-01T13:52:27Z</time></trkpt><trkpt lat="44.283582015220475" lon="11.677498746632239"><ele>236.49999999999997</ele><time>2026-05-01T13:52:28Z</time></trkpt><trkpt lat="44.28364337240367" lon="11.677545438973816"><ele>235.0</ele><time>2026-05-01T13:52:29Z</time></trkpt><trkpt lat="44.28369178337572" lon="11.677601838647956"><ele>234.99999999999997</ele><time>2026-05-01T13:52:30Z</time></trkpt><trkpt lat="44.283765535701434" lon="11.677712608701103"><ele>235.0</ele><time>2026-05-01T13:52:32Z</time></trkpt><trkpt lat="44.28382033238312" lon="11.67780786485507"><ele>235.0</ele><time>2026-05-01T13:52:34Z</time></trkpt><trkpt lat="44.28386042596277" lon="11.677883922175198"><ele>235.0</ele><time>2026-05-01T13:52:36Z</time></trkpt><trkpt lat="44.28389789754519" lon="11.677971434032624"><ele>234.99999999999997</ele><time>2026-05-01T13:52:39Z</time></trkpt><trkpt lat="44.28392925099423" lon="11.678051564767323"><ele>235.0</ele><time>2026-05-01T13:52:42Z</time></trkpt><trkpt lat="44.28396777050772" lon="11.678135971430335"><ele>236.28571428571428</ele><time>2026-05-01T13:52:46Z</time></trkpt><trkpt lat="44.284003322914465" lon="11.678228826115475"><ele>237.57142857142856</ele><time>2026-05-01T13:52:51Z</time></trkpt><trkpt lat="44.28404576713214" lon="11.678313721315202"><ele>238.85714285714283</ele><time>2026-05-01T13:52:56Z</time></trkpt><trkpt lat="44.28407386713146" lon="11.678404910734539"><ele>240.1428571428571</ele><time>2026-05-01T13:53:01Z</time></trkpt><trkpt lat="44.28410438531667" lon="11.67848483069073"><ele>241.42857142857142</ele><time>2026-05-01T13:53:06Z</time></trkpt><trkpt lat="44.28414126730646" lon="11.678558401322581"><ele>242.71428571428567</ele><time>2026-05-01T13:53:11Z</time></trkpt><trkpt lat="44.28415306966061" lon="11.67864880356562"><ele>243.99999999999997</ele><time>2026-05-01T13:53:17Z</time></trkpt><trkpt lat="44.28419414093526" lon="11.67873898086831"><ele>244.1428571428571</ele><time>2026-05-01T13:53:23Z</time></trkpt><trkpt lat="44.28422894365228" lon="11.678812398719502"><ele>244.28571428571428</ele><time>2026-05-01T13:53:29Z</time></trkpt><trkpt lat="44.28427466935468" lon="11.678881890096287"><ele>244.42857142857142</ele><time>2026-05-01T13:53:35Z</time></trkpt><trkpt lat="44.284306678253614" lon="11.678966119943524"><ele>244.57142857142856</ele><time>2026-05-01T13:53:41Z</time></trkpt><trkpt lat="44.28435140147954" lon="11.679031523443339"><ele>244.71428571428572</ele><time>2026-05-01T13:53:47Z</time></trkpt><trkpt lat="44.28440120859154" lon="11.679091811203131"><ele>244.85714285714286</ele><time>2026-05-01T13:53:53Z</time></trkpt><trkpt lat="44.28442233056606" lon="11.67918114199032"><ele>245.0</ele><time>2026-05-01T13:53:59Z</time></trkpt><trkpt lat="44.284460612971756" lon="11.679253818882588"><ele>245.0</ele><time>2026-05-01T13:54:05Z</time></trkpt><trkpt lat="44.28450888594093" lon="11.67933465872927"><ele>245.0</ele><time>2026-05-01T13:54:14Z</time></trkpt><trkpt lat="44.284520164097174" lon="11.679441386407152"><ele>245.0</ele><time>2026-05-01T13:54:20Z</time></trkpt><trkpt lat="44.2845353037857" lon="11.679527901781919"><ele>245.0</ele><time>2026-05-01T13:54:25Z</time></trkpt><trkpt lat="44.284547721914194" lon="11.679614904444428"><ele>245.0</ele><time>2026-05-01T13:54:30Z</time></trkpt><trkpt lat="44.28455791801896" lon="11.679712507386787"><ele>245.0</ele><time>2026-05-01T13:54:35Z</time></trkpt><trkpt lat="44.2845622904265" lon="11.679806176609546"><ele>245.0</ele><time>2026-05-01T13:54:40Z</time></trkpt><trkpt lat="44.28455921613921" lon="11.679913059192517"><ele>245.66666666666669</ele><time>2026-05-01T13:54:45Z</time></trkpt><trkpt lat="44.28456302227399" lon="11.680011401570262"><ele>246.33333333333334</ele><time>2026-05-01T13:54:49Z</time></trkpt><trkpt lat="44.28456971089128" lon="11.680126303826551"><ele>247.0</ele><time>2026-05-01T13:54:53Z</time></trkpt><trkpt lat="44.28456258210776" lon="11.680245876279473"><ele>247.66666666666669</ele><time>2026-05-01T13:54:57Z</time></trkpt><trkpt lat="44.28458480341801" lon="11.680334510719337"><ele>248.33333333333334</ele><time>2026-05-01T13:55:00Z</time></trkpt><trkpt lat="44.28460639621322" lon="11.680432213132498"><ele>249.0</ele><time>2026-05-01T13:55:06Z</time></trkpt><trkpt lat="44.28461297303202" lon="11.680532598708908"><ele>250.79999999999998</ele><time>2026-05-01T13:55:12Z</time></trkpt><trkpt lat="44.284646763868096" lon="11.680607757411545"><ele>252.59999999999997</ele><time>2026-05-01T14:00:15Z</time></trkpt><trkpt lat="44.284597245953016" lon="11.680757434792621"><ele>254.4</ele><time>2026-05-01T14:00:18Z</time></trkpt><trkpt lat="44.28454117675115" lon="11.68091579139126"><ele>256.2</ele><time>2026-05-01T14:00:20Z</time></trkpt><trkpt lat="44.284512177337554" lon="11.681005235770407"><ele>258.0</ele><time>2026-05-01T14:00:21Z</time></trkpt><trkpt lat="44.28448259927966" lon="11.681098101508026"><ele>258.0</ele><time>2026-05-01T14:00:22Z</time></trkpt><trkpt lat="44.28443255380413" lon="11.681181651953635"><ele>258.0</ele><time>2026-05-01T14:00:23Z</time></trkpt><trkpt lat="44.28440614234807" lon="11.681283712383493"><ele>258.0</ele><time>2026-05-01T14:00:24Z</time></trkpt><trkpt lat="44.284379638191844" lon="11.681389156535044"><ele>258.0</ele><time>2026-05-01T14:00:25Z</time></trkpt><trkpt lat="44.28436930667817" lon="11.681498077842138"><ele>258.0</ele><time>2026-05-01T14:00:26Z</time></trkpt><trkpt lat="44.284340741670256" lon="11.681603708428032"><ele>258.0</ele><time>2026-05-01T14:00:27Z</time></trkpt><trkpt lat="44.28429823967421" lon="11.681695033387985"><ele>258.0</ele><time>2026-05-01T14:00:28Z</time></trkpt><trkpt lat="44.2842640504125" lon="11.681795499579696"><ele>258.0</ele><time>2026-05-01T14:00:29Z</time></trkpt><trkpt lat="44.284228024177374" lon="11.681891442810496"><ele>258.0</ele><time>2026-05-01T14:00:30Z</time></trkpt><trkpt lat="44.284201496924204" lon="11.681987866887452"><ele>258.0</ele><time>2026-05-01T14:00:31Z</time></trkpt><trkpt lat="44.284154581946545" lon="11.682063663831583"><ele>258.0</ele><time>2026-05-01T14:00:32Z</time></trkpt><trkpt lat="44.284102566321884" lon="11.68213198277805"><ele>258.0</ele><time>2026-05-01T14:00:33Z</time></trkpt><trkpt lat="44.284040366514034" lon="11.682201830039183"><ele>256.6666666666667</ele><time>2026-05-01T14:00:34Z</time></trkpt><trkpt lat="44.28397844485288" lon="11.682270000738487"><ele>255.33333333333331</ele><time>2026-05-01T14:00:35Z</time></trkpt><trkpt lat="44.28391274854996" lon="11.682334262004366"><ele>254.0</ele><time>2026-05-01T14:00:36Z</time></trkpt><trkpt lat="44.28385325858999" lon="11.682403534725713"><ele>252.66666666666666</ele><time>2026-05-01T14:00:37Z</time></trkpt><trkpt lat="44.28379543232255" lon="11.68246925874275"><ele>251.33333333333331</ele><time>2026-05-01T14:00:38Z</time></trkpt><trkpt lat="44.28374700656035" lon="11.682528900859095"><ele>250.0</ele><time>2026-05-01T14:00:39Z</time></trkpt><trkpt lat="44.283674176935804" lon="11.68263179127196"><ele>249.6</ele><time>2026-05-01T14:00:41Z</time></trkpt><trkpt lat="44.28360128627532" lon="11.682725239733639"><ele>249.2</ele><time>2026-05-01T14:00:43Z</time></trkpt><trkpt lat="44.283531291229124" lon="11.682825521403796"><ele>248.8</ele><time>2026-05-01T14:00:45Z</time></trkpt><trkpt lat="44.28346571243704" lon="11.682919595334985"><ele>248.4</ele><time>2026-05-01T14:00:47Z</time></trkpt><trkpt lat="44.28340523636477" lon="11.683009398685039"><ele>248.0</ele><time>2026-05-01T14:00:49Z</time></trkpt><trkpt lat="44.2833545093328" lon="11.683086041593247"><ele>248.85714285714286</ele><time>2026-05-01T14:00:51Z</time></trkpt><trkpt lat="44.28330658284494" lon="11.683148894457291"><ele>249.71428571428572</ele><time>2026-05-01T14:00:53Z</time></trkpt><trkpt lat="44.28325967970454" lon="11.683212277492743"><ele>250.57142857142858</ele><time>2026-05-01T14:00:54.999Z</time></trkpt><trkpt lat="44.28319079153244" lon="11.683287992842601"><ele>251.42857142857144</ele><time>2026-05-01T14:00:57.999Z</time></trkpt><trkpt lat="44.28313489417485" lon="11.683328490951604"><ele>252.28571428571428</ele><time>2026-05-01T14:00:59.999Z</time></trkpt><trkpt lat="44.2830560310895" lon="11.683355922021974"><ele>253.14285714285717</ele><time>2026-05-01T14:01:04.999Z</time></trkpt><trkpt lat="44.28298642851791" lon="11.683381671385812"><ele>254.0</ele><time>2026-05-01T14:01:08.999Z</time></trkpt><trkpt lat="44.28292075084689" lon="11.683410161628304"><ele>254.57142857142858</ele><time>2026-05-01T14:01:13Z</time></trkpt><trkpt lat="44.28285499079627" lon="11.683432997465054"><ele>255.1428571428571</ele><time>2026-05-01T14:01:17Z</time></trkpt><trkpt lat="44.282784950096776" lon="11.683446939430036"><ele>255.7142857142857</ele><time>2026-05-01T14:01:21Z</time></trkpt><trkpt lat="44.28271913344465" lon="11.68347134885839"><ele>256.2857142857143</ele><time>2026-05-01T14:01:25Z</time></trkpt><trkpt lat="44.2826410108933" lon="11.683464629534832"><ele>256.85714285714283</ele><time>2026-05-01T14:01:29Z</time></trkpt><trkpt lat="44.28256366367417" lon="11.683473535805282"><ele>257.4285714285714</ele><time>2026-05-01T14:01:33Z</time></trkpt><trkpt lat="44.28248226659623" lon="11.683460686783022"><ele>258.0</ele><time>2026-05-01T14:01:37Z</time></trkpt><trkpt lat="44.2824054751241" lon="11.683460310570695"><ele>258.0</ele><time>2026-05-01T14:01:40Z</time></trkpt><trkpt lat="44.28231276022965" lon="11.68347478243395"><ele>258.0</ele><time>2026-05-01T14:01:43Z</time></trkpt><trkpt lat="44.2822465854843" lon="11.683491171602169"><ele>258.0</ele><time>2026-05-01T14:01:45Z</time></trkpt><trkpt lat="44.28217946180157" lon="11.68352080415534"><ele>258.0</ele><time>2026-05-01T14:01:47Z</time></trkpt><trkpt lat="44.28210611435676" lon="11.68355394815749"><ele>258.0</ele><time>2026-05-01T14:01:49Z</time></trkpt><trkpt lat="44.28202647395968" lon="11.68357759392831"><ele>258.0</ele><time>2026-05-01T14:01:51Z</time></trkpt><trkpt lat="44.281937913558295" lon="11.683620841569317"><ele>257.71428571428567</ele><time>2026-05-01T14:01:53Z</time></trkpt><trkpt lat="44.28183098075804" lon="11.683667401286934"><ele>257.42857142857144</ele><time>2026-05-01T14:01:55Z</time></trkpt><trkpt lat="44.28177190823415" lon="11.683698115557574"><ele>257.1428571428571</ele><time>2026-05-01T14:01:56Z</time></trkpt><trkpt lat="44.281708487291475" lon="11.683728017863487"><ele>256.85714285714283</ele><time>2026-05-01T14:01:57Z</time></trkpt><trkpt lat="44.28164781405546" lon="11.683763349110622"><ele>256.57142857142856</ele><time>2026-05-01T14:01:58Z</time></trkpt><trkpt lat="44.28158866605391" lon="11.683803395643777"><ele>256.2857142857143</ele><time>2026-05-01T14:01:59Z</time></trkpt><trkpt lat="44.28152967500253" lon="11.683845543903123"><ele>256.0</ele><time>2026-05-01T14:02:00Z</time></trkpt><trkpt lat="44.281471421484646" lon="11.683892890347662"><ele>256.42857142857144</ele><time>2026-05-01T14:02:01Z</time></trkpt><trkpt lat="44.28141507691641" lon="11.683945787284685"><ele>256.85714285714283</ele><time>2026-05-01T14:02:02Z</time></trkpt><trkpt lat="44.28136048012649" lon="11.684001215786273"><ele>257.2857142857143</ele><time>2026-05-01T14:02:03Z</time></trkpt><trkpt lat="44.281308606815145" lon="11.68406311178542"><ele>257.7142857142857</ele><time>2026-05-01T14:02:04Z</time></trkpt><trkpt lat="44.28126345959277" lon="11.68413205220236"><ele>258.1428571428571</ele><time>2026-05-01T14:02:05Z</time></trkpt><trkpt lat="44.2812208326191" lon="11.68420908996074"><ele>258.57142857142856</ele><time>2026-05-01T14:02:06Z</time></trkpt><trkpt lat="44.281179175154655" lon="11.684288082629717"><ele>259.0</ele><time>2026-05-01T14:02:07Z</time></trkpt><trkpt lat="44.281140959733754" lon="11.684369159848316"><ele>257.8333333333333</ele><time>2026-05-01T14:02:08Z</time></trkpt><trkpt lat="44.28109382311194" lon="11.68445439205655"><ele>256.66666666666663</ele><time>2026-05-01T14:02:09Z</time></trkpt><trkpt lat="44.28105385887299" lon="11.684546189874823"><ele>255.5</ele><time>2026-05-01T14:02:10Z</time></trkpt><trkpt lat="44.28100722232376" lon="11.684644894673749"><ele>254.33333333333331</ele><time>2026-05-01T14:02:11Z</time></trkpt><trkpt lat="44.28096377410706" lon="11.684741456364847"><ele>253.16666666666666</ele><time>2026-05-01T14:02:12Z</time></trkpt><trkpt lat="44.2809247989967" lon="11.684824596173137"><ele>252.0</ele><time>2026-05-01T14:02:13Z</time></trkpt><trkpt lat="44.28088531100019" lon="11.684895069837937"><ele>252.0</ele><time>2026-05-01T14:02:14Z</time></trkpt><trkpt lat="44.280818004539896" lon="11.68501623866955"><ele>252.0</ele><time>2026-05-01T14:02:16Z</time></trkpt><trkpt lat="44.28076220039708" lon="11.685109991381033"><ele>252.0</ele><time>2026-05-01T14:02:18Z</time></trkpt><trkpt lat="44.28085874468626" lon="11.68522470464114"><ele>252.0</ele><time>2026-05-01T14:02:21Z</time></trkpt><trkpt lat="44.280938410603525" lon="11.68519583572114"><ele>252.0</ele><time>2026-05-01T14:02:23Z</time></trkpt><trkpt lat="44.28102069789028" lon="11.685184128790166"><ele>252.0</ele><time>2026-05-01T14:02:25Z</time></trkpt><trkpt lat="44.28111492270234" lon="11.685169585749852"><ele>252.0</ele><time>2026-05-01T14:02:27Z</time></trkpt><trkpt lat="44.28123287688127" lon="11.685151992749343"><ele>252.0</ele><time>2026-05-01T14:02:29Z</time></trkpt><trkpt lat="44.28130288527595" lon="11.685133498327048"><ele>252.0</ele><time>2026-05-01T14:02:30Z</time></trkpt><trkpt lat="44.28137569049945" lon="11.685141830634327"><ele>252.0</ele><time>2026-05-01T14:02:31Z</time></trkpt><trkpt lat="44.28145667569065" lon="11.685131215993174"><ele>252.0</ele><time>2026-05-01T14:02:32Z</time></trkpt><trkpt lat="44.28154550513428" lon="11.685113839859614"><ele>251.2</ele><time>2026-05-01T14:02:33Z</time></trkpt><trkpt lat="44.28163244856113" lon="11.685115119534307"><ele>250.39999999999998</ele><time>2026-05-01T14:02:34Z</time></trkpt><trkpt lat="44.28173415272273" lon="11.685121100394374"><ele>249.60000000000002</ele><time>2026-05-01T14:02:35Z</time></trkpt><trkpt lat="44.281838020803825" lon="11.685122379860537"><ele>248.8</ele><time>2026-05-01T14:02:36Z</time></trkpt><trkpt lat="44.28194240250465" lon="11.685108533786142"><ele>248.0</ele><time>2026-05-01T14:02:37Z</time></trkpt><trkpt lat="44.282050092662566" lon="11.685080608755221"><ele>248.0</ele><time>2026-05-01T14:02:38Z</time></trkpt><trkpt lat="44.282147107678846" lon="11.68500582458068"><ele>248.0</ele><time>2026-05-01T14:02:39Z</time></trkpt><trkpt lat="44.28224355630815" lon="11.684929171812962"><ele>248.0</ele><time>2026-05-01T14:02:40Z</time></trkpt><trkpt lat="44.28234974581181" lon="11.684910325354375"><ele>248.0</ele><time>2026-05-01T14:02:41Z</time></trkpt><trkpt lat="44.28245898028468" lon="11.684909505746623"><ele>248.0</ele><time>2026-05-01T14:02:42Z</time></trkpt><trkpt lat="44.28255608436516" lon="11.684886133388497"><ele>245.75</ele><time>2026-05-01T14:02:43Z</time></trkpt><trkpt lat="44.28267306044714" lon="11.68488740634497"><ele>243.5</ele><time>2026-05-01T14:02:44Z</time></trkpt><trkpt lat="44.28278582526607" lon="11.68488575826087"><ele>241.25</ele><time>2026-05-01T14:02:45Z</time></trkpt><trkpt lat="44.28289813391983" lon="11.684879855552548"><ele>239.0</ele><time>2026-05-01T14:02:46Z</time></trkpt><trkpt lat="44.283009306161965" lon="11.684874521074649"><ele>237.6</ele><time>2026-05-01T14:02:47Z</time></trkpt><trkpt lat="44.283115558284294" lon="11.684882004301832"><ele>236.2</ele><time>2026-05-01T14:02:48Z</time></trkpt><trkpt lat="44.28322436747951" lon="11.684896710864187"><ele>234.79999999999998</ele><time>2026-05-01T14:02:49Z</time></trkpt><trkpt lat="44.283328774249085" lon="11.684927098605888"><ele>233.39999999999998</ele><time>2026-05-01T14:02:50Z</time></trkpt><trkpt lat="44.283436626848854" lon="11.684971432723428"><ele>232.0</ele><time>2026-05-01T14:02:51Z</time></trkpt><trkpt lat="44.28354042921593" lon="11.685013276645302"><ele>232.0</ele><time>2026-05-01T14:02:52Z</time></trkpt><trkpt lat="44.28364729090619" lon="11.6850574099139"><ele>232.0</ele><time>2026-05-01T14:02:53Z</time></trkpt><trkpt lat="44.28374763921195" lon="11.685084566233973"><ele>232.0</ele><time>2026-05-01T14:02:54Z</time></trkpt><trkpt lat="44.2838640307704" lon="11.685083232453316"><ele>232.0</ele><time>2026-05-01T14:02:55Z</time></trkpt><trkpt lat="44.283977737180905" lon="11.68505550589257"><ele>232.0</ele><time>2026-05-01T14:02:56Z</time></trkpt><trkpt lat="44.284081892593306" lon="11.685023768667582"><ele>232.2</ele><time>2026-05-01T14:02:57Z</time></trkpt><trkpt lat="44.28417796575277" lon="11.685008764803257"><ele>232.39999999999998</ele><time>2026-05-01T14:02:58Z</time></trkpt><trkpt lat="44.28428883343861" lon="11.68502017230245"><ele>232.60000000000002</ele><time>2026-05-01T14:02:59Z</time></trkpt><trkpt lat="44.28439466168139" lon="11.685005534689804"><ele>232.8</ele><time>2026-05-01T14:03:00Z</time></trkpt><trkpt lat="44.28449244055588" lon="11.684973552793416"><ele>233.0</ele><time>2026-05-01T14:03:01Z</time></trkpt><trkpt lat="44.28459474031929" lon="11.684963598659639"><ele>233.0</ele><time>2026-05-01T14:03:02Z</time></trkpt><trkpt lat="44.284690960918056" lon="11.684948909678868"><ele>233.0</ele><time>2026-05-01T14:03:02.999Z</time></trkpt><trkpt lat="44.28476841768226" lon="11.684943195395595"><ele>233.0</ele><time>2026-05-01T14:03:03.999Z</time></trkpt><trkpt lat="44.28487460961859" lon="11.685037288038401"><ele>233.0</ele><time>2026-05-01T14:03:05.999Z</time></trkpt><trkpt lat="44.28490804140857" lon="11.685138672407447"><ele>233.0</ele><time>2026-05-01T14:03:06.999Z</time></trkpt><trkpt lat="44.28490929408435" lon="11.685252776133938"><ele>231.00000000000003</ele><time>2026-05-01T14:03:07.999Z</time></trkpt><trkpt lat="44.28491171436762" lon="11.685370872584075"><ele>229.0</ele><time>2026-05-01T14:03:08.999Z</time></trkpt><trkpt lat="44.28489854283596" lon="11.685493174690261"><ele>227.0</ele><time>2026-05-01T14:03:09.999Z</time></trkpt><trkpt lat="44.28487691094146" lon="11.685607521599877"><ele>225.0</ele><time>2026-05-01T14:03:10.999Z</time></trkpt><trkpt lat="44.28485766683692" lon="11.685736117475836"><ele>223.00000000000003</ele><time>2026-05-01T14:03:11.999Z</time></trkpt><trkpt lat="44.2848439214817" lon="11.685864410297722"><ele>221.0</ele><time>2026-05-01T14:03:12.999Z</time></trkpt><trkpt lat="44.2848432059709" lon="11.685999303829231"><ele>220.50000000000003</ele><time>2026-05-01T14:03:13.999Z</time></trkpt><trkpt lat="44.28485615478522" lon="11.68612804827143"><ele>220.0</ele><time>2026-05-01T14:03:14.999Z</time></trkpt><trkpt lat="44.284870563580064" lon="11.686255338642944"><ele>219.5</ele><time>2026-05-01T14:03:15.999Z</time></trkpt><trkpt lat="44.28488448582476" lon="11.686375476049209"><ele>219.0</ele><time>2026-05-01T14:03:16.999Z</time></trkpt><trkpt lat="44.28489406526584" lon="11.6864952322691"><ele>218.50000000000003</ele><time>2026-05-01T14:03:18Z</time></trkpt><trkpt lat="44.28490625052457" lon="11.686611213935668"><ele>218.0</ele><time>2026-05-01T14:03:19Z</time></trkpt><trkpt lat="44.28491792903941" lon="11.686720847430884"><ele>218.0</ele><time>2026-05-01T14:03:20Z</time></trkpt><trkpt lat="44.28492697091121" lon="11.686826764670293"><ele>218.0</ele><time>2026-05-01T14:03:21Z</time></trkpt><trkpt lat="44.28493035307965" lon="11.686930638349393"><ele>218.0</ele><time>2026-05-01T14:03:22Z</time></trkpt><trkpt lat="44.284939193510944" lon="11.687027619395447"><ele>218.0</ele><time>2026-05-01T14:03:23Z</time></trkpt><trkpt lat="44.2849402887901" lon="11.6871315396963"><ele>218.0</ele><time>2026-05-01T14:03:24Z</time></trkpt><trkpt lat="44.28493619030877" lon="11.68723176269802"><ele>218.0</ele><time>2026-05-01T14:03:25Z</time></trkpt><trkpt lat="44.284932591452176" lon="11.687334040145839"><ele>218.0</ele><time>2026-05-01T14:03:26Z</time></trkpt><trkpt lat="44.28493171743606" lon="11.687439613989854"><ele>217.57142857142858</ele><time>2026-05-01T14:03:27Z</time></trkpt><trkpt lat="44.28493169756233" lon="11.687546159105697"><ele>217.14285714285717</ele><time>2026-05-01T14:03:28Z</time></trkpt><trkpt lat="44.28493582837309" lon="11.68765247337555"><ele>216.71428571428572</ele><time>2026-05-01T14:03:29Z</time></trkpt><trkpt lat="44.284941112572845" lon="11.687757314390623"><ele>216.28571428571428</ele><time>2026-05-01T14:03:30Z</time></trkpt><trkpt lat="44.28495211749764" lon="11.687854593500681"><ele>215.85714285714286</ele><time>2026-05-01T14:03:31Z</time></trkpt><trkpt lat="44.28496115842995" lon="11.687949260506793"><ele>215.42857142857142</ele><time>2026-05-01T14:03:32Z</time></trkpt><trkpt lat="44.28496980116496" lon="11.688040960703336"><ele>215.0</ele><time>2026-05-01T14:03:33Z</time></trkpt><trkpt lat="44.28498582468568" lon="11.688128426313382"><ele>214.50000000000003</ele><time>2026-05-01T14:03:34Z</time></trkpt><trkpt lat="44.285011335058535" lon="11.688209540238233"><ele>214.0</ele><time>2026-05-01T14:03:35Z</time></trkpt><trkpt lat="44.285037251051506" lon="11.688290231158977"><ele>213.5</ele><time>2026-05-01T14:03:36Z</time></trkpt><trkpt lat="44.28508628687925" lon="11.688454316032301"><ele>213.0</ele><time>2026-05-01T14:03:38Z</time></trkpt><trkpt lat="44.28511435702263" lon="11.68854020131412"><ele>212.50000000000003</ele><time>2026-05-01T14:03:39Z</time></trkpt><trkpt lat="44.285145572021996" lon="11.688632758789788"><ele>212.0</ele><time>2026-05-01T14:03:40Z</time></trkpt><trkpt lat="44.28518081111838" lon="11.688723297307638"><ele>211.50000000000003</ele><time>2026-05-01T14:03:41Z</time></trkpt><trkpt lat="44.285214046080306" lon="11.688823072570452"><ele>211.0</ele><time>2026-05-01T14:03:42Z</time></trkpt><trkpt lat="44.2852497326566" lon="11.688925771978163"><ele>210.5</ele><time>2026-05-01T14:03:43Z</time></trkpt><trkpt lat="44.28528503860464" lon="11.689038563452268"><ele>210.0</ele><time>2026-05-01T14:03:44Z</time></trkpt><trkpt lat="44.285316199165365" lon="11.689140623253005"><ele>209.50000000000003</ele><time>2026-05-01T14:03:45Z</time></trkpt><trkpt lat="44.28534358592737" lon="11.68922739519665"><ele>209.0</ele><time>2026-05-01T14:03:46Z</time></trkpt><trkpt lat="44.28537483643075" lon="11.689306167118056"><ele>212.33333333333334</ele><time>2026-05-01T14:03:47Z</time></trkpt><trkpt lat="44.285411572228995" lon="11.689445529258876"><ele>215.66666666666669</ele><time>2026-05-01T14:03:49Z</time></trkpt><trkpt lat="44.28544611062177" lon="11.689549804363963"><ele>219.0</ele><time>2026-05-01T14:03:51Z</time></trkpt><trkpt lat="44.285472231423704" lon="11.689632686399294"><ele>222.33333333333331</ele><time>2026-05-01T14:03:53Z</time></trkpt><trkpt lat="44.28550157603644" lon="11.689742280704118"><ele>225.66666666666666</ele><time>2026-05-01T14:03:56Z</time></trkpt><trkpt lat="44.28551806832378" lon="11.689836862702242"><ele>229.0</ele><time>2026-05-01T14:03:59Z</time></trkpt><trkpt lat="44.28552345159064" lon="11.689942728634701"><ele>228.99999999999997</ele><time>2026-05-01T14:04:02Z</time></trkpt><trkpt lat="44.285541469450266" lon="11.69005857904074"><ele>229.0</ele><time>2026-05-01T14:04:05Z</time></trkpt><trkpt lat="44.28552336508235" lon="11.690180249620136"><ele>229.0</ele><time>2026-05-01T14:04:08Z</time></trkpt><trkpt lat="44.285496602071525" lon="11.690271507055414"><ele>229.0</ele><time>2026-05-01T14:04:10Z</time></trkpt><trkpt lat="44.28546886979611" lon="11.6903615373042"><ele>228.99999999999997</ele><time>2026-05-01T14:04:12Z</time></trkpt><trkpt lat="44.28544890350289" lon="11.690450281788515"><ele>229.0</ele><time>2026-05-01T14:04:14Z</time></trkpt><trkpt lat="44.28543165371123" lon="11.690546235287863"><ele>228.71428571428572</ele><time>2026-05-01T14:04:16Z</time></trkpt><trkpt lat="44.2854107006193" lon="11.690642120373942"><ele>228.42857142857144</ele><time>2026-05-01T14:04:18Z</time></trkpt><trkpt lat="44.28538475800717" lon="11.690745092783974"><ele>228.14285714285717</ele><time>2026-05-01T14:04:20Z</time></trkpt><trkpt lat="44.28538132914503" lon="11.690835792453509"><ele>227.85714285714286</ele><time>2026-05-01T14:04:22Z</time></trkpt><trkpt lat="44.28536761221306" lon="11.69094010021604"><ele>227.5714285714286</ele><time>2026-05-01T14:04:24Z</time></trkpt><trkpt lat="44.28534589155919" lon="11.691039766585812"><ele>227.2857142857143</ele><time>2026-05-01T14:04:26Z</time></trkpt><trkpt lat="44.285335826647895" lon="11.691138990125422"><ele>227.0</ele><time>2026-05-01T14:04:28Z</time></trkpt><trkpt lat="44.28530693641337" lon="11.691231179902031"><ele>227.0</ele><time>2026-05-01T14:04:30Z</time></trkpt><trkpt lat="44.285273778843795" lon="11.691321683788965"><ele>227.00000000000003</ele><time>2026-05-01T14:04:32Z</time></trkpt><trkpt lat="44.28524508640343" lon="11.691429109901195"><ele>227.0</ele><time>2026-05-01T14:04:34Z</time></trkpt><trkpt lat="44.28522397632431" lon="11.691523335741792"><ele>227.0</ele><time>2026-05-01T14:04:36Z</time></trkpt><trkpt lat="44.285189813790964" lon="11.691602269001715"><ele>227.00000000000003</ele><time>2026-05-01T14:04:40Z</time></trkpt><trkpt lat="44.28512780877386" lon="11.69157172018522"><ele>227.0</ele><time>2026-05-01T14:04:46Z</time></trkpt><trkpt lat="44.285186632663724" lon="11.691603403705185"><ele>227.0</ele><time>2026-05-01T14:06:39Z</time></trkpt><trkpt lat="44.28523206453206" lon="11.691693349830118"><ele>227.00000000000003</ele><time>2026-05-01T14:06:45Z</time></trkpt><trkpt lat="44.28525575173341" lon="11.69179124413966"><ele>227.0</ele><time>2026-05-01T14:06:47Z</time></trkpt><trkpt lat="44.28530180138625" lon="11.691897393984732"><ele>227.0</ele><time>2026-05-01T14:06:49Z</time></trkpt><trkpt lat="44.28535505597439" lon="11.691992275705687"><ele>227.0</ele><time>2026-05-01T14:06:51Z</time></trkpt><trkpt lat="44.28541979561266" lon="11.692085977883465"><ele>227.00000000000003</ele><time>2026-05-01T14:06:53Z</time></trkpt><trkpt lat="44.28549005246177" lon="11.69217445478351"><ele>227.0</ele><time>2026-05-01T14:06:55Z</time></trkpt><trkpt lat="44.28555697470505" lon="11.692278828001703"><ele>227.39999999999998</ele><time>2026-05-01T14:06:56.999Z</time></trkpt><trkpt lat="44.285608019625634" lon="11.69240096682216"><ele>227.79999999999998</ele><time>2026-05-01T14:06:58.999Z</time></trkpt><trkpt lat="44.28563167292044" lon="11.692544605134708"><ele>228.2</ele><time>2026-05-01T14:07:00.999Z</time></trkpt><trkpt lat="44.28565865225248" lon="11.69266563262841"><ele>228.6</ele><time>2026-05-01T14:07:02.999Z</time></trkpt><trkpt lat="44.285684873521106" lon="11.692786250483678"><ele>229.0</ele><time>2026-05-01T14:07:04.999Z</time></trkpt><trkpt lat="44.28570547619487" lon="11.692886222534936"><ele>229.0</ele><time>2026-05-01T14:07:06.999Z</time></trkpt><trkpt lat="44.28572804529405" lon="11.692996882148767"><ele>229.0</ele><time>2026-05-01T14:07:09.999Z</time></trkpt><trkpt lat="44.28574756779097" lon="11.693094816586616"><ele>229.0</ele><time>2026-05-01T14:07:12.999Z</time></trkpt><trkpt lat="44.28576724452135" lon="11.693178813951794"><ele>229.0</ele><time>2026-05-01T14:07:15.999Z</time></trkpt><trkpt lat="44.2857921442131" lon="11.693265191079592"><ele>229.0</ele><time>2026-05-01T14:07:18.999Z</time></trkpt><trkpt lat="44.285803334874124" lon="11.693355140535887"><ele>229.0</ele><time>2026-05-01T14:07:21.999Z</time></trkpt><trkpt lat="44.285754407432265" lon="11.693443102350438"><ele>229.0</ele><time>2026-05-01T14:07:24.999Z</time></trkpt><trkpt lat="44.28570477983862" lon="11.693507675057791"><ele>228.99999999999997</ele><time>2026-05-01T14:07:27.999Z</time></trkpt><trkpt lat="44.28565201972668" lon="11.69358055969934"><ele>229.0</ele><time>2026-05-01T14:07:31Z</time></trkpt><trkpt lat="44.285586908142434" lon="11.693672194447961"><ele>229.0</ele><time>2026-05-01T14:07:34Z</time></trkpt><trkpt lat="44.28553619519756" lon="11.693747614034631"><ele>229.0</ele><time>2026-05-01T14:07:36Z</time></trkpt><trkpt lat="44.28548428837848" lon="11.693828083481174"><ele>228.99999999999997</ele><time>2026-05-01T14:07:38Z</time></trkpt><trkpt lat="44.285430743865696" lon="11.693927982970589"><ele>229.0</ele><time>2026-05-01T14:07:40Z</time></trkpt><trkpt lat="44.28537128615148" lon="11.694040369051455"><ele>226.2</ele><time>2026-05-01T14:07:42Z</time></trkpt><trkpt lat="44.28530771936054" lon="11.694164212888367"><ele>223.39999999999998</ele><time>2026-05-01T14:07:44Z</time></trkpt><trkpt lat="44.285229188946374" lon="11.694303290894503"><ele>220.6</ele><time>2026-05-01T14:07:46Z</time></trkpt><trkpt lat="44.28516849783731" lon="11.69436275482382"><ele>217.8</ele><time>2026-05-01T14:07:47Z</time></trkpt><trkpt lat="44.28512020127223" lon="11.694457279504695"><ele>215.0</ele><time>2026-05-01T14:07:48Z</time></trkpt><trkpt lat="44.285056757810025" lon="11.694539063259501"><ele>214.83333333333334</ele><time>2026-05-01T14:07:49Z</time></trkpt><trkpt lat="44.28498839915207" lon="11.694618962513031"><ele>214.66666666666669</ele><time>2026-05-01T14:07:50Z</time></trkpt><trkpt lat="44.284921064774814" lon="11.69469203917647"><ele>214.5</ele><time>2026-05-01T14:07:51Z</time></trkpt><trkpt lat="44.284847205625894" lon="11.694749524406284"><ele>214.33333333333331</ele><time>2026-05-01T14:07:52Z</time></trkpt><trkpt lat="44.2847866400334" lon="11.694834142298694"><ele>214.16666666666666</ele><time>2026-05-01T14:07:53Z</time></trkpt><trkpt lat="44.28471671546649" lon="11.694919034418843"><ele>214.0</ele><time>2026-05-01T14:07:54Z</time></trkpt><trkpt lat="44.28463866049501" lon="11.69496837379648"><ele>210.2</ele><time>2026-05-01T14:07:55Z</time></trkpt><trkpt lat="44.28458439252153" lon="11.69503608328781"><ele>206.39999999999998</ele><time>2026-05-01T14:07:56Z</time></trkpt><trkpt lat="44.28452396694316" lon="11.695065624794497"><ele>202.6</ele><time>2026-05-01T14:07:57Z</time></trkpt><trkpt lat="44.28445322824401" lon="11.695123706589742"><ele>198.8</ele><time>2026-05-01T14:07:59Z</time></trkpt><trkpt lat="44.28458077402199" lon="11.695271234099406"><ele>195.0</ele><time>2026-05-01T14:08:04Z</time></trkpt><trkpt lat="44.28465865086642" lon="11.695279352512742"><ele>195.16666666666666</ele><time>2026-05-01T14:08:06Z</time></trkpt><trkpt lat="44.28474811219129" lon="11.695288678571027"><ele>195.33333333333331</ele><time>2026-05-01T14:08:08Z</time></trkpt><trkpt lat="44.28481601169504" lon="11.695295756876003"><ele>195.5</ele><time>2026-05-01T14:08:10Z</time></trkpt><trkpt lat="44.284845769233044" lon="11.695158897103031"><ele>195.66666666666666</ele><time>2026-05-01T14:08:11Z</time></trkpt><trkpt lat="44.28491690579055" lon="11.695137212736832"><ele>195.83333333333331</ele><time>2026-05-01T14:08:13Z</time></trkpt><trkpt lat="44.28498766449702" lon="11.69513187965307"><ele>196.0</ele><time>2026-05-01T14:08:16Z</time></trkpt><trkpt lat="44.285050349848234" lon="11.695182469404912"><ele>196.0</ele><time>2026-05-01T14:08:23Z</time></trkpt><trkpt lat="44.285044305975994" lon="11.695271862333943"><ele>196.0</ele><time>2026-05-01T14:08:25Z</time></trkpt><trkpt lat="44.28504109927371" lon="11.695362233943198"><ele>196.0</ele><time>2026-05-01T14:08:27Z</time></trkpt><trkpt lat="44.28503864556171" lon="11.695465159523085"><ele>196.0</ele><time>2026-05-01T14:08:29Z</time></trkpt><trkpt lat="44.2850270325536" lon="11.695580704851627"><ele>196.0</ele><time>2026-05-01T14:08:32Z</time></trkpt><trkpt lat="44.28496032959208" lon="11.69560231511789"><ele>196.0</ele><time>2026-05-01T14:08:37Z</time></trkpt><trkpt lat="44.28488195910599" lon="11.695558815039805"><ele>196.0</ele><time>2026-05-01T14:08:41Z</time></trkpt><trkpt lat="44.28481497986891" lon="11.695529565307229"><ele>195.57142857142858</ele><time>2026-05-01T14:08:45Z</time></trkpt><trkpt lat="44.284742282236806" lon="11.695494064307628"><ele>195.14285714285714</ele><time>2026-05-01T14:08:49Z</time></trkpt><trkpt lat="44.284670938159586" lon="11.695472768759814"><ele>194.71428571428572</ele><time>2026-05-01T14:08:54Z</time></trkpt><trkpt lat="44.284595910158586" lon="11.69544815072872"><ele>194.28571428571428</ele><time>2026-05-01T14:08:58.999Z</time></trkpt><trkpt lat="44.284519955110575" lon="11.695436293960036"><ele>193.85714285714286</ele><time>2026-05-01T14:09:03.999Z</time></trkpt><trkpt lat="44.28444773627156" lon="11.695405049322114"><ele>193.42857142857144</ele><time>2026-05-01T14:09:08.999Z</time></trkpt><trkpt lat="44.284384035511266" lon="11.695383214322218"><ele>193.0</ele><time>2026-05-01T14:09:12.999Z</time></trkpt><trkpt lat="44.28431283464747" lon="11.695354718159901"><ele>193.0</ele><time>2026-05-01T14:09:16.999Z</time></trkpt><trkpt lat="44.284237243864176" lon="11.695338435137185"><ele>193.0</ele><time>2026-05-01T14:09:20.999Z</time></trkpt><trkpt lat="44.28414931693687" lon="11.695362018838322"><ele>193.0</ele><time>2026-05-01T14:09:23.999Z</time></trkpt><trkpt lat="44.28407575250131" lon="11.695418443806878"><ele>193.0</ele><time>2026-05-01T14:09:25.999Z</time></trkpt><trkpt lat="44.28398906112931" lon="11.695491588074814"><ele>193.0</ele><time>2026-05-01T14:09:27.999Z</time></trkpt><trkpt lat="44.28389847871865" lon="11.69555601570202"><ele>190.83333333333331</ele><time>2026-05-01T14:09:29.999Z</time></trkpt><trkpt lat="44.28381231910285" lon="11.695607524306602"><ele>188.66666666666666</ele><time>2026-05-01T14:09:31.999Z</time></trkpt><trkpt lat="44.2837247940694" lon="11.695622823248025"><ele>186.5</ele><time>2026-05-01T14:09:33.999Z</time></trkpt><trkpt lat="44.28368767666989" lon="11.695711492286744"><ele>184.33333333333331</ele><time>2026-05-01T14:09:36Z</time></trkpt><trkpt lat="44.28369777478602" lon="11.695841029727678"><ele>182.16666666666666</ele><time>2026-05-01T14:09:39Z</time></trkpt><trkpt lat="44.283691684002335" lon="11.695979320478674"><ele>180.0</ele><time>2026-05-01T14:09:41Z</time></trkpt><trkpt lat="44.28368544351179" lon="11.696130967680448"><ele>177.5</ele><time>2026-05-01T14:09:43Z</time></trkpt><trkpt lat="44.283677406188104" lon="11.696290886144487"><ele>175.0</ele><time>2026-05-01T14:09:45Z</time></trkpt><trkpt lat="44.283675022849806" lon="11.696392049257486"><ele>172.5</ele><time>2026-05-01T14:09:47Z</time></trkpt><trkpt lat="44.283664657528405" lon="11.696524104203458"><ele>170.0</ele><time>2026-05-01T14:09:49Z</time></trkpt><trkpt lat="44.28365855166779" lon="11.696627363260854"><ele>167.5</ele><time>2026-05-01T14:09:51Z</time></trkpt><trkpt lat="44.283650650014174" lon="11.696739977238623"><ele>165.0</ele><time>2026-05-01T14:09:53Z</time></trkpt><trkpt lat="44.283647295892614" lon="11.696838270490733"><ele>162.33333333333334</ele><time>2026-05-01T14:09:55Z</time></trkpt><trkpt lat="44.28364571945588" lon="11.696930334008139"><ele>159.66666666666666</ele><time>2026-05-01T14:09:57Z</time></trkpt><trkpt lat="44.283633466752434" lon="11.69701924223915"><ele>157.0</ele><time>2026-05-01T14:10:00Z</time></trkpt><trkpt lat="44.28363331781365" lon="11.69711333673206"><ele>154.33333333333331</ele><time>2026-05-01T14:10:02Z</time></trkpt><trkpt lat="44.283699946862825" lon="11.697185683298601"><ele>151.66666666666666</ele><time>2026-05-01T14:10:04Z</time></trkpt><trkpt lat="44.28378921971099" lon="11.697245276965273"><ele>149.0</ele><time>2026-05-01T14:10:06Z</time></trkpt><trkpt lat="44.28387245602182" lon="11.6973041559191"><ele>150.0</ele><time>2026-05-01T14:10:08Z</time></trkpt><trkpt lat="44.283971130557845" lon="11.697386636177848"><ele>151.0</ele><time>2026-05-01T14:10:10Z</time></trkpt><trkpt lat="44.28402801699506" lon="11.69743118726716"><ele>152.0</ele><time>2026-05-01T14:10:11Z</time></trkpt><trkpt lat="44.28409065406276" lon="11.69749351091767"><ele>153.0</ele><time>2026-05-01T14:10:12Z</time></trkpt><trkpt lat="44.28420371145509" lon="11.697574180624011"><ele>154.0</ele><time>2026-05-01T14:10:14Z</time></trkpt><trkpt lat="44.28427576531423" lon="11.697631550499175"><ele>154.0</ele><time>2026-05-01T14:10:15Z</time></trkpt><trkpt lat="44.28435534965345" lon="11.697678566252945"><ele>154.0</ele><time>2026-05-01T14:10:16Z</time></trkpt><trkpt lat="44.284419850539734" lon="11.697724737987603"><ele>154.0</ele><time>2026-05-01T14:10:17Z</time></trkpt><trkpt lat="44.284497416133746" lon="11.697779789459"><ele>154.0</ele><time>2026-05-01T14:10:18Z</time></trkpt><trkpt lat="44.2845625355057" lon="11.697830521014255"><ele>154.0</ele><time>2026-05-01T14:10:19Z</time></trkpt><trkpt lat="44.28462258933941" lon="11.697875199404399"><ele>154.0</ele><time>2026-05-01T14:10:20Z</time></trkpt><trkpt lat="44.284744593857596" lon="11.69797552816227"><ele>152.16666666666669</ele><time>2026-05-01T14:10:22Z</time></trkpt><trkpt lat="44.28480502009294" lon="11.698019056725103"><ele>150.33333333333334</ele><time>2026-05-01T14:10:23Z</time></trkpt><trkpt lat="44.28487260546078" lon="11.698068958254503"><ele>148.5</ele><time>2026-05-01T14:10:24Z</time></trkpt><trkpt lat="44.28493883823046" lon="11.698121486677234"><ele>146.66666666666666</ele><time>2026-05-01T14:10:25Z</time></trkpt><trkpt lat="44.28500974823833" lon="11.698177201335861"><ele>144.83333333333331</ele><time>2026-05-01T14:10:26Z</time></trkpt><trkpt lat="44.28507294051682" lon="11.698216585097072"><ele>143.0</ele><time>2026-05-01T14:10:27Z</time></trkpt><trkpt lat="44.285172357507385" lon="11.698286381300042"><ele>143.0</ele><time>2026-05-01T14:10:29Z</time></trkpt><trkpt lat="44.28524184946197" lon="11.698260908233252"><ele>143.0</ele><time>2026-05-01T14:10:31Z</time></trkpt><trkpt lat="44.28529496963954" lon="11.698196203955726"><ele>143.0</ele><time>2026-05-01T14:10:34Z</time></trkpt><trkpt lat="44.28535329529376" lon="11.698246323681655"><ele>143.0</ele><time>2026-05-01T14:10:39Z</time></trkpt><trkpt lat="44.285286601528" lon="11.698286776591736"><ele>143.0</ele><time>2026-05-01T14:10:41Z</time></trkpt><trkpt lat="44.285208236715725" lon="11.698337230908825"><ele>143.0</ele><time>2026-05-01T14:10:43Z</time></trkpt><trkpt lat="44.285111578650856" lon="11.698386715219849"><ele>143.0</ele><time>2026-05-01T14:10:45Z</time></trkpt><trkpt lat="44.28501248757769" lon="11.69841490716893"><ele>143.0</ele><time>2026-05-01T14:10:47Z</time></trkpt><trkpt lat="44.28488134825782" lon="11.69842546223662"><ele>143.0</ele><time>2026-05-01T14:10:49Z</time></trkpt><trkpt lat="44.28480473311084" lon="11.698447597419808"><ele>143.0</ele><time>2026-05-01T14:10:50Z</time></trkpt><trkpt lat="44.28472473691038" lon="11.698478851789632"><ele>143.0</ele><time>2026-05-01T14:10:51Z</time></trkpt><trkpt lat="44.28464889291822" lon="11.698501835286708"><ele>142.16666666666666</ele><time>2026-05-01T14:10:52Z</time></trkpt><trkpt lat="44.2845604732005" lon="11.698530355757027"><ele>141.33333333333331</ele><time>2026-05-01T14:10:53Z</time></trkpt><trkpt lat="44.284476186313626" lon="11.698561383627938"><ele>140.5</ele><time>2026-05-01T14:10:54Z</time></trkpt><trkpt lat="44.28438050470579" lon="11.698590672663826"><ele>139.66666666666666</ele><time>2026-05-01T14:10:55Z</time></trkpt><trkpt lat="44.284295812941096" lon="11.698616874138468"><ele>138.83333333333334</ele><time>2026-05-01T14:10:56Z</time></trkpt><trkpt lat="44.284209586424204" lon="11.698625484419958"><ele>138.0</ele><time>2026-05-01T14:10:57Z</time></trkpt><trkpt lat="44.28412292751428" lon="11.698624748786274"><ele>138.0</ele><time>2026-05-01T14:10:58Z</time></trkpt><trkpt lat="44.284042819619536" lon="11.698631289666455"><ele>138.0</ele><time>2026-05-01T14:10:59Z</time></trkpt><trkpt lat="44.28396297854681" lon="11.698620314443362"><ele>138.0</ele><time>2026-05-01T14:11:00Z</time></trkpt><trkpt lat="44.28389182846729" lon="11.698626697656334"><ele>138.0</ele><time>2026-05-01T14:11:01Z</time></trkpt><trkpt lat="44.283806703307874" lon="11.698643410787167"><ele>138.0</ele><time>2026-05-01T14:11:02Z</time></trkpt><trkpt lat="44.28372921618798" lon="11.698641323180695"><ele>138.0</ele><time>2026-05-01T14:11:03Z</time></trkpt><trkpt lat="44.28364596110889" lon="11.698646670953563"><ele>137.0</ele><time>2026-05-01T14:11:04Z</time></trkpt><trkpt lat="44.283551163608315" lon="11.698658686620902"><ele>136.0</ele><time>2026-05-01T14:11:05Z</time></trkpt><trkpt lat="44.2834542490971" lon="11.698656183254382"><ele>135.0</ele><time>2026-05-01T14:11:06Z</time></trkpt><trkpt lat="44.283368438554476" lon="11.698657740241735"><ele>134.0</ele><time>2026-05-01T14:11:06.999Z</time></trkpt><trkpt lat="44.28327209668379" lon="11.698652766227045"><ele>133.0</ele><time>2026-05-01T14:11:07.999Z</time></trkpt><trkpt lat="44.28320995121805" lon="11.698614037078318"><ele>132.0</ele><time>2026-05-01T14:11:08.999Z</time></trkpt><trkpt lat="44.28312503001376" lon="11.698578255104792"><ele>130.66666666666666</ele><time>2026-05-01T14:11:09.999Z</time></trkpt><trkpt lat="44.283029949946275" lon="11.698535813288075"><ele>129.33333333333334</ele><time>2026-05-01T14:11:10.999Z</time></trkpt><trkpt lat="44.28294703730711" lon="11.6985291196512"><ele>128.0</ele><time>2026-05-01T14:11:11.999Z</time></trkpt><trkpt lat="44.28285736329261" lon="11.698501707508992"><ele>126.66666666666667</ele><time>2026-05-01T14:11:12.999Z</time></trkpt><trkpt lat="44.28278190367801" lon="11.698493445558015"><ele>125.33333333333334</ele><time>2026-05-01T14:11:13.999Z</time></trkpt><trkpt lat="44.28268951758649" lon="11.698480255278358"><ele>124.0</ele><time>2026-05-01T14:11:14.999Z</time></trkpt><trkpt lat="44.2825836691778" lon="11.698417606733525"><ele>124.0</ele><time>2026-05-01T14:11:15.999Z</time></trkpt><trkpt lat="44.28249191127866" lon="11.698360679972806"><ele>124.0</ele><time>2026-05-01T14:11:16.999Z</time></trkpt><trkpt lat="44.28240165985057" lon="11.698296130098454"><ele>124.0</ele><time>2026-05-01T14:11:17.999Z</time></trkpt><trkpt lat="44.28232607040391" lon="11.698218105424491"><ele>124.0</ele><time>2026-05-01T14:11:18.999Z</time></trkpt><trkpt lat="44.28221793905664" lon="11.698254796659965"><ele>124.0</ele><time>2026-05-01T14:11:19.999Z</time></trkpt><trkpt lat="44.28214658431074" lon="11.698182930548896"><ele>125.2</ele><time>2026-05-01T14:11:20.999Z</time></trkpt><trkpt lat="44.282058393240234" lon="11.698133421363003"><ele>126.4</ele><time>2026-05-01T14:11:21.999Z</time></trkpt><trkpt lat="44.28197855655646" lon="11.698042795273098"><ele>127.6</ele><time>2026-05-01T14:11:22.999Z</time></trkpt><trkpt lat="44.281904811779675" lon="11.697957512461333"><ele>128.8</ele><time>2026-05-01T14:11:23.999Z</time></trkpt><trkpt lat="44.28184202883544" lon="11.69788490656274"><ele>130.0</ele><time>2026-05-01T14:11:24.999Z</time></trkpt><trkpt lat="44.28186808838764" lon="11.697648836189506"><ele>127.6</ele><time>2026-05-01T14:11:25.999Z</time></trkpt><trkpt lat="44.281792251105294" lon="11.697551276101654"><ele>125.2</ele><time>2026-05-01T14:11:26.999Z</time></trkpt><trkpt lat="44.28173321358362" lon="11.697453993461291"><ele>122.80000000000001</ele><time>2026-05-01T14:11:27.999Z</time></trkpt><trkpt lat="44.28168796916652" lon="11.69736075072895"><ele>120.4</ele><time>2026-05-01T14:11:28.999Z</time></trkpt><trkpt lat="44.28166984459754" lon="11.697227561866965"><ele>118.0</ele><time>2026-05-01T14:11:29.999Z</time></trkpt><trkpt lat="44.28162105486944" lon="11.697131444008468"><ele>118.0</ele><time>2026-05-01T14:11:30.999Z</time></trkpt><trkpt lat="44.281561500936846" lon="11.697025560203013"><ele>118.00000000000001</ele><time>2026-05-01T14:11:31.999Z</time></trkpt><trkpt lat="44.281497372726946" lon="11.696943939375936"><ele>118.00000000000001</ele><time>2026-05-01T14:11:32.999Z</time></trkpt><trkpt lat="44.28141570203748" lon="11.696859640821957"><ele>118.0</ele><time>2026-05-01T14:11:33.999Z</time></trkpt><trkpt lat="44.28133807246905" lon="11.696799266899472"><ele>118.0</ele><time>2026-05-01T14:11:34.999Z</time></trkpt><trkpt lat="44.2812536752192" lon="11.696738179358569"><ele>117.0</ele><time>2026-05-01T14:11:35.999Z</time></trkpt><trkpt lat="44.28115873672681" lon="11.696666014749098"><ele>116.00000000000001</ele><time>2026-05-01T14:11:36.999Z</time></trkpt><trkpt lat="44.28108622085303" lon="11.696603681944088"><ele>115.00000000000001</ele><time>2026-05-01T14:11:37.999Z</time></trkpt><trkpt lat="44.281018688642725" lon="11.696529658166478"><ele>114.0</ele><time>2026-05-01T14:11:38.999Z</time></trkpt><trkpt lat="44.28095822204241" lon="11.696432378154128"><ele>113.0</ele><time>2026-05-01T14:11:39.999Z</time></trkpt><trkpt lat="44.28090088025518" lon="11.696326145796766"><ele>112.99999999999999</ele><time>2026-05-01T14:11:40.999Z</time></trkpt><trkpt lat="44.2808464726212" lon="11.696222846862444"><ele>113.0</ele><time>2026-05-01T14:11:42Z</time></trkpt><trkpt lat="44.28078939362573" lon="11.696127907951725"><ele>113.0</ele><time>2026-05-01T14:11:43Z</time></trkpt><trkpt lat="44.28072438238785" lon="11.69605412146815"><ele>113.0</ele><time>2026-05-01T14:11:44Z</time></trkpt><trkpt lat="44.28066248563946" lon="11.69596195145678"><ele>112.99999999999999</ele><time>2026-05-01T14:11:45Z</time></trkpt><trkpt lat="44.28059729809028" lon="11.695882926671501"><ele>113.0</ele><time>2026-05-01T14:11:46Z</time></trkpt><trkpt lat="44.28050996483352" lon="11.69585080663283"><ele>112.16666666666666</ele><time>2026-05-01T14:11:47Z</time></trkpt><trkpt lat="44.28044601475219" lon="11.695776741791677"><ele>111.33333333333333</ele><time>2026-05-01T14:11:48Z</time></trkpt><trkpt lat="44.28037374659894" lon="11.695721488583503"><ele>110.5</ele><time>2026-05-01T14:11:49Z</time></trkpt><trkpt lat="44.28029211658266" lon="11.695676333084927"><ele>109.66666666666666</ele><time>2026-05-01T14:11:50Z</time></trkpt><trkpt lat="44.280205907192354" lon="11.695656126336043"><ele>108.83333333333333</ele><time>2026-05-01T14:11:51Z</time></trkpt><trkpt lat="44.28012550723076" lon="11.695611186932624"><ele>108.0</ele><time>2026-05-01T14:11:52Z</time></trkpt><trkpt lat="44.28005016338072" lon="11.69559927763226"><ele>108.0</ele><time>2026-05-01T14:11:53Z</time></trkpt><trkpt lat="44.27999421910072" lon="11.69554557545812"><ele>108.0</ele><time>2026-05-01T14:11:54Z</time></trkpt><trkpt lat="44.27992880101133" lon="11.695532074444934"><ele>108.0</ele><time>2026-05-01T14:11:55Z</time></trkpt><trkpt lat="44.27982491151129" lon="11.69543727005646"><ele>108.0</ele><time>2026-05-01T14:11:57Z</time></trkpt><trkpt lat="44.27976009083862" lon="11.695419410599579"><ele>108.0</ele><time>2026-05-01T14:11:58Z</time></trkpt><trkpt lat="44.27965817506611" lon="11.695359889839631"><ele>108.0</ele><time>2026-05-01T14:12:00Z</time></trkpt><trkpt lat="44.279559761749496" lon="11.695309494509358"><ele>107.4</ele><time>2026-05-01T14:12:02Z</time></trkpt><trkpt lat="44.279458700246" lon="11.695273945173485"><ele>106.80000000000001</ele><time>2026-05-01T14:12:04Z</time></trkpt><trkpt lat="44.279352239599575" lon="11.695245782189014"><ele>106.2</ele><time>2026-05-01T14:12:06Z</time></trkpt><trkpt lat="44.27924245365096" lon="11.695238250319363"><ele>105.6</ele><time>2026-05-01T14:12:08Z</time></trkpt><trkpt lat="44.27916184569043" lon="11.695336430298441"><ele>105.0</ele><time>2026-05-01T14:12:10Z</time></trkpt><trkpt lat="44.27910801654238" lon="11.695467099152186"><ele>105.0</ele><time>2026-05-01T14:12:12Z</time></trkpt><trkpt lat="44.27905564901673" lon="11.69559335337289"><ele>105.0</ele><time>2026-05-01T14:12:14Z</time></trkpt><trkpt lat="44.27898610595737" lon="11.695714671268425"><ele>105.0</ele><time>2026-05-01T14:12:16Z</time></trkpt><trkpt lat="44.278912728772085" lon="11.695809069609517"><ele>105.0</ele><time>2026-05-01T14:12:18Z</time></trkpt><trkpt lat="44.278818626338506" lon="11.695894571551683"><ele>105.0</ele><time>2026-05-01T14:12:20Z</time></trkpt><trkpt lat="44.27873639649136" lon="11.69597284522765"><ele>105.4</ele><time>2026-05-01T14:12:22Z</time></trkpt><trkpt lat="44.27864085456584" lon="11.696049171765681"><ele>105.8</ele><time>2026-05-01T14:12:24Z</time></trkpt><trkpt lat="44.27853450132606" lon="11.696125491402436"><ele>106.19999999999999</ele><time>2026-05-01T14:12:26Z</time></trkpt><trkpt lat="44.278449441838774" lon="11.696207161150845"><ele>106.6</ele><time>2026-05-01T14:12:28Z</time></trkpt><trkpt lat="44.27835671036823" lon="11.696275246110917"><ele>107.0</ele><time>2026-05-01T14:12:30Z</time></trkpt><trkpt lat="44.27825643621192" lon="11.696353474176952"><ele>107.0</ele><time>2026-05-01T14:12:32Z</time></trkpt><trkpt lat="44.278152650750194" lon="11.696437170690569"><ele>106.99999999999999</ele><time>2026-05-01T14:12:34Z</time></trkpt><trkpt lat="44.27804212293935" lon="11.696500150522924"><ele>106.99999999999999</ele><time>2026-05-01T14:12:36Z</time></trkpt><trkpt lat="44.27794002748054" lon="11.696565281948393"><ele>107.0</ele><time>2026-05-01T14:12:38Z</time></trkpt><trkpt lat="44.27787843210948" lon="11.6965873776333"><ele>107.0</ele><time>2026-05-01T14:12:39Z</time></trkpt><trkpt lat="44.27781543303987" lon="11.696605444948643"><ele>106.6</ele><time>2026-05-01T14:12:40Z</time></trkpt><trkpt lat="44.2777088982491" lon="11.696659368256235"><ele>106.19999999999999</ele><time>2026-05-01T14:12:42Z</time></trkpt><trkpt lat="44.27760293493657" lon="11.696692333147418"><ele>105.8</ele><time>2026-05-01T14:12:44Z</time></trkpt><trkpt lat="44.2775186902914" lon="11.696705487889453"><ele>105.4</ele><time>2026-05-01T14:12:46Z</time></trkpt><trkpt lat="44.27743321952799" lon="11.696718075655438"><ele>105.0</ele><time>2026-05-01T14:12:48Z</time></trkpt><trkpt lat="44.277349242507334" lon="11.696752880952872"><ele>105.0</ele><time>2026-05-01T14:12:50Z</time></trkpt><trkpt lat="44.27727107659116" lon="11.696778081269114"><ele>105.0</ele><time>2026-05-01T14:12:52Z</time></trkpt><trkpt lat="44.277208287379935" lon="11.696787328600927"><ele>105.0</ele><time>2026-05-01T14:12:54Z</time></trkpt><trkpt lat="44.27713612799154" lon="11.696808715065695"><ele>105.0</ele><time>2026-05-01T14:12:57Z</time></trkpt><trkpt lat="44.27706380039309" lon="11.696852917248613"><ele>105.0</ele><time>2026-05-01T14:13:01Z</time></trkpt><trkpt lat="44.27699030752002" lon="11.696873761532087"><ele>105.0</ele><time>2026-05-01T14:13:05Z</time></trkpt><trkpt lat="44.27691646077607" lon="11.696912483055934"><ele>104.16666666666667</ele><time>2026-05-01T14:13:09Z</time></trkpt><trkpt lat="44.27683555458996" lon="11.696929202754854"><ele>103.33333333333334</ele><time>2026-05-01T14:13:13Z</time></trkpt><trkpt lat="44.27676737855329" lon="11.696946868608988"><ele>102.5</ele><time>2026-05-01T14:13:17Z</time></trkpt><trkpt lat="44.276695283291915" lon="11.69694970695554"><ele>101.66666666666667</ele><time>2026-05-01T14:13:20.999Z</time></trkpt><trkpt lat="44.276618557903454" lon="11.696969078478348"><ele>100.83333333333334</ele><time>2026-05-01T14:13:24.999Z</time></trkpt><trkpt lat="44.276538998612104" lon="11.696979860855523"><ele>100.0</ele><time>2026-05-01T14:13:28.999Z</time></trkpt><trkpt lat="44.27646363093322" lon="11.69699460519382"><ele>101.28571428571429</ele><time>2026-05-01T14:13:32.999Z</time></trkpt><trkpt lat="44.276390188254126" lon="11.697008234162602"><ele>102.57142857142857</ele><time>2026-05-01T14:13:36.999Z</time></trkpt><trkpt lat="44.276318995308436" lon="11.697016244794057"><ele>103.85714285714286</ele><time>2026-05-01T14:13:40.999Z</time></trkpt><trkpt lat="44.276249461292366" lon="11.697025204709506"><ele>105.14285714285714</ele><time>2026-05-01T14:13:44.999Z</time></trkpt><trkpt lat="44.276174233156944" lon="11.697036535183328"><ele>106.42857142857143</ele><time>2026-05-01T14:13:49Z</time></trkpt><trkpt lat="44.276099436070666" lon="11.69705182997658"><ele>107.71428571428572</ele><time>2026-05-01T14:13:53Z</time></trkpt><trkpt lat="44.276021756152524" lon="11.697090846719162"><ele>109.0</ele><time>2026-05-01T14:13:57Z</time></trkpt><trkpt lat="44.275957461713126" lon="11.697117214149442"><ele>109.0</ele><time>2026-05-01T14:14:00Z</time></trkpt><trkpt lat="44.27588769829693" lon="11.697152239353068"><ele>109.0</ele><time>2026-05-01T14:14:04Z</time></trkpt><trkpt lat="44.275816682816796" lon="11.697183262245922"><ele>109.0</ele><time>2026-05-01T14:14:08Z</time></trkpt><trkpt lat="44.27574355340411" lon="11.69721425336863"><ele>109.0</ele><time>2026-05-01T14:14:13Z</time></trkpt><trkpt lat="44.2756659223939" lon="11.697233362973236"><ele>109.0</ele><time>2026-05-01T14:14:18Z</time></trkpt><trkpt lat="44.275604841149104" lon="11.697205981726006"><ele>109.0</ele><time>2026-05-01T14:14:22Z</time></trkpt><trkpt lat="44.275533417614795" lon="11.697237477755314"><ele>109.0</ele><time>2026-05-01T14:14:25Z</time></trkpt><trkpt lat="44.2754668669489" lon="11.697287611771673"><ele>109.83333333333334</ele><time>2026-05-01T14:14:28Z</time></trkpt><trkpt lat="44.27539169991309" lon="11.69732365645841"><ele>110.66666666666667</ele><time>2026-05-01T14:14:31Z</time></trkpt><trkpt lat="44.275319467523616" lon="11.697359303596036"><ele>111.5</ele><time>2026-05-01T14:14:34Z</time></trkpt><trkpt lat="44.27524475987972" lon="11.697395231182881"><ele>112.33333333333334</ele><time>2026-05-01T14:14:37Z</time></trkpt><trkpt lat="44.27516238097496" lon="11.697425096080151"><ele>113.16666666666667</ele><time>2026-05-01T14:14:40Z</time></trkpt><trkpt lat="44.275100922683045" lon="11.697452079251255"><ele>114.0</ele><time>2026-05-01T14:14:42Z</time></trkpt><trkpt lat="44.27502952707303" lon="11.697451344889995"><ele>114.0</ele><time>2026-05-01T14:14:44Z</time></trkpt><trkpt lat="44.274967016887295" lon="11.69739421967955"><ele>114.0</ele><time>2026-05-01T14:14:46Z</time></trkpt><trkpt lat="44.274924025169966" lon="11.697288181330999"><ele>114.0</ele><time>2026-05-01T14:14:48Z</time></trkpt><trkpt lat="44.27488650343487" lon="11.69718146063925"><ele>114.0</ele><time>2026-05-01T14:14:50Z</time></trkpt><trkpt lat="44.27484475625887" lon="11.697067286610233"><ele>114.0</ele><time>2026-05-01T14:14:52Z</time></trkpt><trkpt lat="44.27481809114457" lon="11.696957150037301"><ele>114.0</ele><time>2026-05-01T14:14:54Z</time></trkpt><trkpt lat="44.274791288938324" lon="11.69684716456006"><ele>113.83333333333333</ele><time>2026-05-01T14:14:56Z</time></trkpt><trkpt lat="44.27475548911103" lon="11.696728519477961"><ele>113.66666666666666</ele><time>2026-05-01T14:14:58Z</time></trkpt><trkpt lat="44.27471892773796" lon="11.696618199050981"><ele>113.5</ele><time>2026-05-01T14:15:00Z</time></trkpt><trkpt lat="44.27467682623401" lon="11.696513266571937"><ele>113.33333333333333</ele><time>2026-05-01T14:15:02Z</time></trkpt><trkpt lat="44.27463174888505" lon="11.696412797829932"><ele>113.16666666666666</ele><time>2026-05-01T14:15:04Z</time></trkpt><trkpt lat="44.27458715467974" lon="11.696304295915517"><ele>113.0</ele><time>2026-05-01T14:15:06Z</time></trkpt><trkpt lat="44.27455024594214" lon="11.696184917961915"><ele>112.99999999999999</ele><time>2026-05-01T14:15:08Z</time></trkpt><trkpt lat="44.27449595390504" lon="11.696086259841993"><ele>113.0</ele><time>2026-05-01T14:15:10Z</time></trkpt><trkpt lat="44.27443454789664" lon="11.695998383335931"><ele>113.0</ele><time>2026-05-01T14:15:12Z</time></trkpt><trkpt lat="44.274386808230446" lon="11.695907683579405"><ele>113.0</ele><time>2026-05-01T14:15:14Z</time></trkpt><trkpt lat="44.27433928813725" lon="11.695827893231685"><ele>112.99999999999999</ele><time>2026-05-01T14:15:16Z</time></trkpt><trkpt lat="44.27428992157257" lon="11.695759730401933"><ele>113.0</ele><time>2026-05-01T14:15:18Z</time></trkpt><trkpt lat="44.274236011488014" lon="11.695706814969682"><ele>112.99999999999999</ele><time>2026-05-01T14:15:20Z</time></trkpt><trkpt lat="44.27416776387031" lon="11.695688736289002"><ele>113.0</ele><time>2026-05-01T14:15:21.999Z</time></trkpt><trkpt lat="44.274091325543964" lon="11.695718879617893"><ele>113.0</ele><time>2026-05-01T14:15:23.999Z</time></trkpt><trkpt lat="44.27401548329605" lon="11.695787930175698"><ele>113.0</ele><time>2026-05-01T14:15:25.999Z</time></trkpt><trkpt lat="44.27394286849551" lon="11.695872992535042"><ele>112.99999999999999</ele><time>2026-05-01T14:15:27.999Z</time></trkpt><trkpt lat="44.2738686516695" lon="11.695957516027487"><ele>113.0</ele><time>2026-05-01T14:15:29.999Z</time></trkpt><trkpt lat="44.27378901579254" lon="11.696039132854997"><ele>112.60000000000001</ele><time>2026-05-01T14:15:31.999Z</time></trkpt><trkpt lat="44.27370939330807" lon="11.696125855547791"><ele>112.20000000000002</ele><time>2026-05-01T14:15:33.999Z</time></trkpt><trkpt lat="44.27363063222211" lon="11.69621202679676"><ele>111.8</ele><time>2026-05-01T14:15:35.999Z</time></trkpt><trkpt lat="44.273536349109165" lon="11.69626628660944"><ele>111.4</ele><time>2026-05-01T14:15:37.999Z</time></trkpt><trkpt lat="44.27343450408302" lon="11.696272484954699"><ele>111.0</ele><time>2026-05-01T14:15:39.999Z</time></trkpt><trkpt lat="44.27333460245602" lon="11.696246736273325"><ele>111.0</ele><time>2026-05-01T14:15:41.999Z</time></trkpt><trkpt lat="44.2732302143985" lon="11.69621106778438"><ele>111.0</ele><time>2026-05-01T14:15:43.999Z</time></trkpt><trkpt lat="44.273127294801135" lon="11.696178924691466"><ele>111.0</ele><time>2026-05-01T14:15:45.999Z</time></trkpt><trkpt lat="44.27302287053149" lon="11.696145494766485"><ele>111.0</ele><time>2026-05-01T14:15:47.999Z</time></trkpt><trkpt lat="44.27291738300677" lon="11.696119999898645"><ele>111.0</ele><time>2026-05-01T14:15:49.999Z</time></trkpt><trkpt lat="44.272812285016755" lon="11.69608880349427"><ele>111.5</ele><time>2026-05-01T14:15:51.999Z</time></trkpt><trkpt lat="44.27270388440134" lon="11.696068527984549"><ele>112.0</ele><time>2026-05-01T14:15:54Z</time></trkpt><trkpt lat="44.27259444440044" lon="11.696029683408272"><ele>112.5</ele><time>2026-05-01T14:15:56Z</time></trkpt><trkpt lat="44.272477421340284" lon="11.695987724527471"><ele>113.0</ele><time>2026-05-01T14:15:58Z</time></trkpt><trkpt lat="44.27236302927821" lon="11.695939014897982"><ele>111.0</ele><time>2026-05-01T14:16:00Z</time></trkpt><trkpt lat="44.2722367645121" lon="11.695927579600095"><ele>109.00000000000001</ele><time>2026-05-01T14:16:02Z</time></trkpt><trkpt lat="44.272173648185735" lon="11.695926129788598"><ele>107.0</ele><time>2026-05-01T14:16:03Z</time></trkpt><trkpt lat="44.27210586600638" lon="11.695927427823479"><ele>105.0</ele><time>2026-05-01T14:16:04Z</time></trkpt><trkpt lat="44.27204106566197" lon="11.69592284919313"><ele>103.0</ele><time>2026-05-01T14:16:05Z</time></trkpt><trkpt lat="44.271911512620406" lon="11.695910055143973"><ele>102.99999999999999</ele><time>2026-05-01T14:16:07Z</time></trkpt><trkpt lat="44.27184154150889" lon="11.695909651606216"><ele>103.0</ele><time>2026-05-01T14:16:08Z</time></trkpt><trkpt lat="44.27176801623309" lon="11.695913576105708"><ele>103.0</ele><time>2026-05-01T14:16:09Z</time></trkpt><trkpt lat="44.271696688795906" lon="11.695892917637062"><ele>103.0</ele><time>2026-05-01T14:16:10Z</time></trkpt><trkpt lat="44.27162439850774" lon="11.695875363414082"><ele>103.0</ele><time>2026-05-01T14:16:11Z</time></trkpt><trkpt lat="44.27155254014331" lon="11.695840614053443"><ele>102.99999999999999</ele><time>2026-05-01T14:16:12Z</time></trkpt><trkpt lat="44.27148317354833" lon="11.695793915391857"><ele>103.0</ele><time>2026-05-01T14:16:13Z</time></trkpt><trkpt lat="44.27141980152834" lon="11.695706000785535"><ele>104.0</ele><time>2026-05-01T14:16:14Z</time></trkpt><trkpt lat="44.27139288578651" lon="11.695583527936975"><ele>105.0</ele><time>2026-05-01T14:16:15Z</time></trkpt><trkpt lat="44.27140705833985" lon="11.695447658667183"><ele>106.00000000000001</ele><time>2026-05-01T14:16:16Z</time></trkpt><trkpt lat="44.27142423196683" lon="11.695313869091736"><ele>107.0</ele><time>2026-05-01T14:16:17Z</time></trkpt><trkpt lat="44.27144200604332" lon="11.69518689178415"><ele>108.0</ele><time>2026-05-01T14:16:18Z</time></trkpt><trkpt lat="44.27145028515589" lon="11.695056948483698"><ele>108.0</ele><time>2026-05-01T14:16:19Z</time></trkpt><trkpt lat="44.27145699426307" lon="11.69492754557519"><ele>108.0</ele><time>2026-05-01T14:16:20Z</time></trkpt><trkpt lat="44.271459661318325" lon="11.694811768281507"><ele>108.0</ele><time>2026-05-01T14:16:21Z</time></trkpt><trkpt lat="44.27143857981743" lon="11.694718215674431"><ele>108.0</ele><time>2026-05-01T14:16:22Z</time></trkpt><trkpt lat="44.27137045956657" lon="11.694675606118027"><ele>108.0</ele><time>2026-05-01T14:16:23Z</time></trkpt><trkpt lat="44.27130107707329" lon="11.69466691441803"><ele>108.0</ele><time>2026-05-01T14:16:24Z</time></trkpt><trkpt lat="44.271242059198315" lon="11.694731181576067"><ele>106.4</ele><time>2026-05-01T14:16:25Z</time></trkpt><trkpt lat="44.2712087976694" lon="11.694818421300036"><ele>104.80000000000001</ele><time>2026-05-01T14:16:26Z</time></trkpt><trkpt lat="44.27119420166718" lon="11.69494084368486"><ele>103.2</ele><time>2026-05-01T14:16:28Z</time></trkpt><trkpt lat="44.27116425283378" lon="11.695080986032092"><ele>101.6</ele><time>2026-05-01T14:16:31Z</time></trkpt><trkpt lat="44.27122931835557" lon="11.695256207875657"><ele>100.0</ele><time>2026-05-01T14:16:33Z</time></trkpt><trkpt lat="44.27118684416852" lon="11.695357247979784"><ele>98.4</ele><time>2026-05-01T14:16:35Z</time></trkpt><trkpt lat="44.27111797894683" lon="11.695470663403594"><ele>96.8</ele><time>2026-05-01T14:16:38Z</time></trkpt><trkpt lat="44.27104407775328" lon="11.695596497752426"><ele>95.19999999999999</ele><time>2026-05-01T14:16:40Z</time></trkpt><trkpt lat="44.27099861602949" lon="11.695661485639661"><ele>93.6</ele><time>2026-05-01T14:16:41Z</time></trkpt><trkpt lat="44.27089267506937" lon="11.695753760442342"><ele>92.0</ele><time>2026-05-01T14:16:43Z</time></trkpt><trkpt lat="44.27083223947147" lon="11.695788769818641"><ele>92.0</ele><time>2026-05-01T14:16:44Z</time></trkpt><trkpt lat="44.27077411742782" lon="11.695831257421993"><ele>92.0</ele><time>2026-05-01T14:16:45Z</time></trkpt><trkpt lat="44.270714472626445" lon="11.695898153093093"><ele>92.0</ele><time>2026-05-01T14:16:46Z</time></trkpt><trkpt lat="44.27064388580598" lon="11.695948565023079"><ele>92.0</ele><time>2026-05-01T14:16:47Z</time></trkpt><trkpt lat="44.270567484250805" lon="11.695976192807354"><ele>92.0</ele><time>2026-05-01T14:16:48Z</time></trkpt><trkpt lat="44.270490607229796" lon="11.696023689453646"><ele>92.0</ele><time>2026-05-01T14:16:49Z</time></trkpt><trkpt lat="44.27041806580664" lon="11.696101002988154"><ele>89.8</ele><time>2026-05-01T14:16:50Z</time></trkpt><trkpt lat="44.270343570274235" lon="11.6961955895094"><ele>87.6</ele><time>2026-05-01T14:16:51Z</time></trkpt><trkpt lat="44.270283658786894" lon="11.696301737286243"><ele>85.39999999999999</ele><time>2026-05-01T14:16:52Z</time></trkpt><trkpt lat="44.27022836197036" lon="11.696400108049962"><ele>83.19999999999999</ele><time>2026-05-01T14:16:53Z</time></trkpt><trkpt lat="44.27017557805821" lon="11.696486978319497"><ele>81.0</ele><time>2026-05-01T14:16:54Z</time></trkpt><trkpt lat="44.27009345721118" lon="11.696615670380567"><ele>81.0</ele><time>2026-05-01T14:16:56Z</time></trkpt><trkpt lat="44.27005006261863" lon="11.69668586987844"><ele>81.0</ele><time>2026-05-01T14:16:57Z</time></trkpt><trkpt lat="44.269971887740795" lon="11.696803054829576"><ele>81.0</ele><time>2026-05-01T14:16:59Z</time></trkpt><trkpt lat="44.269919657945465" lon="11.696881039811801"><ele>81.0</ele><time>2026-05-01T14:17:01Z</time></trkpt><trkpt lat="44.2698770619801" lon="11.696952342720422"><ele>81.0</ele><time>2026-05-01T14:17:04Z</time></trkpt><trkpt lat="44.269828748946296" lon="11.69702777689407"><ele>81.0</ele><time>2026-05-01T14:17:07Z</time></trkpt><trkpt lat="44.269771639250635" lon="11.697090791004465"><ele>80.66666666666667</ele><time>2026-05-01T14:17:10Z</time></trkpt><trkpt lat="44.26972403676797" lon="11.697157664327765"><ele>80.33333333333333</ele><time>2026-05-01T14:17:15Z</time></trkpt><trkpt lat="44.269679513682334" lon="11.697244498204018"><ele>80.0</ele><time>2026-05-01T14:17:21Z</time></trkpt><trkpt lat="44.26962178402427" lon="11.697289412276454"><ele>79.66666666666666</ele><time>2026-05-01T14:17:24Z</time></trkpt><trkpt lat="44.26968505497739" lon="11.697246236199618"><ele>79.33333333333333</ele><time>2026-05-01T14:17:31.999Z</time></trkpt><trkpt lat="44.26974554250165" lon="11.697165149962743"><ele>79.0</ele><time>2026-05-01T14:17:34.999Z</time></trkpt><trkpt lat="44.269807486771725" lon="11.697076463728843"><ele>79.00000000000001</ele><time>2026-05-01T14:17:37.999Z</time></trkpt><trkpt lat="44.26987010063543" lon="11.696976438001048"><ele>79.0</ele><time>2026-05-01T14:17:40.999Z</time></trkpt><trkpt lat="44.26991946508653" lon="11.696906409443065"><ele>79.0</ele><time>2026-05-01T14:17:42.999Z</time></trkpt><trkpt lat="44.26996541192679" lon="11.69682913486392"><ele>79.0</ele><time>2026-05-01T14:17:44.999Z</time></trkpt><trkpt lat="44.270006280782574" lon="11.696754486297051"><ele>79.0</ele><time>2026-05-01T14:17:46.999Z</time></trkpt><trkpt lat="44.27005239424952" lon="11.696686099487351"><ele>79.00000000000001</ele><time>2026-05-01T14:17:48.999Z</time></trkpt><trkpt lat="44.27009887806315" lon="11.69662039336466"><ele>79.0</ele><time>2026-05-01T14:17:50.999Z</time></trkpt><trkpt lat="44.27016114746885" lon="11.696538031629013"><ele>79.33333333333333</ele><time>2026-05-01T14:17:53.999Z</time></trkpt><trkpt lat="44.27014735851623" lon="11.696424775705408"><ele>79.66666666666666</ele><time>2026-05-01T14:17:57.999Z</time></trkpt><trkpt lat="44.2700945889687" lon="11.696332709466608"><ele>80.0</ele><time>2026-05-01T14:18:02Z</time></trkpt><trkpt lat="44.270040035056546" lon="11.696249712793888"><ele>80.33333333333333</ele><time>2026-05-01T14:18:06Z</time></trkpt><trkpt lat="44.26999099692245" lon="11.696184235580885"><ele>80.66666666666667</ele><time>2026-05-01T14:18:09Z</time></trkpt><trkpt lat="44.26994031775094" lon="11.696113128241915"><ele>81.0</ele><time>2026-05-01T14:18:12Z</time></trkpt><trkpt lat="44.26989873475116" lon="11.696045829731109"><ele>81.57142857142857</ele><time>2026-05-01T14:18:16Z</time></trkpt><trkpt lat="44.26982574355251" lon="11.696019060669508"><ele>82.14285714285714</ele><time>2026-05-01T14:18:20Z</time></trkpt><trkpt lat="44.26975168677657" lon="11.695976831119687"><ele>82.71428571428572</ele><time>2026-05-01T14:18:22Z</time></trkpt><trkpt lat="44.26967152285485" lon="11.695937927822175"><ele>83.28571428571428</ele><time>2026-05-01T14:18:24Z</time></trkpt><trkpt lat="44.26960685774972" lon="11.695917585153346"><ele>83.85714285714285</ele><time>2026-05-01T14:18:26Z</time></trkpt><trkpt lat="44.26953657740547" lon="11.695899673313576"><ele>84.42857142857143</ele><time>2026-05-01T14:18:28Z</time></trkpt><trkpt lat="44.26947014908385" lon="11.6958898202323"><ele>85.0</ele><time>2026-05-01T14:18:30Z</time></trkpt><trkpt lat="44.26939477278522" lon="11.695869474231323"><ele>85.0</ele><time>2026-05-01T14:18:32Z</time></trkpt><trkpt lat="44.26932695179902" lon="11.695844981831765"><ele>85.0</ele><time>2026-05-01T14:18:34Z</time></trkpt><trkpt lat="44.26924790199579" lon="11.695819881677076"><ele>85.0</ele><time>2026-05-01T14:18:36Z</time></trkpt><trkpt lat="44.26917404161844" lon="11.695811323631002"><ele>85.0</ele><time>2026-05-01T14:18:38Z</time></trkpt><trkpt lat="44.26910841350658" lon="11.69578543022702"><ele>85.0</ele><time>2026-05-01T14:18:40Z</time></trkpt><trkpt lat="44.269040439289036" lon="11.695761989367563"><ele>85.0</ele><time>2026-05-01T14:18:42Z</time></trkpt><trkpt lat="44.26896434736677" lon="11.695738521735171"><ele>85.0</ele><time>2026-05-01T14:18:44Z</time></trkpt><trkpt lat="44.26890120393977" lon="11.695724819421775"><ele>84.85714285714286</ele><time>2026-05-01T14:18:46Z</time></trkpt><trkpt lat="44.268831142797204" lon="11.695715110789784"><ele>84.71428571428571</ele><time>2026-05-01T14:18:49Z</time></trkpt><trkpt lat="44.26876102119543" lon="11.695709424596627"><ele>84.57142857142857</ele><time>2026-05-01T14:18:51Z</time></trkpt><trkpt lat="44.268681917961906" lon="11.695696924512188"><ele>84.42857142857143</ele><time>2026-05-01T14:18:54Z</time></trkpt><trkpt lat="44.26860805173843" lon="11.69567122888595"><ele>84.28571428571428</ele><time>2026-05-01T14:18:58Z</time></trkpt><trkpt lat="44.26852541406209" lon="11.695668181807077"><ele>84.14285714285714</ele><time>2026-05-01T14:19:01Z</time></trkpt><trkpt lat="44.26845513773628" lon="11.695662888331368"><ele>84.0</ele><time>2026-05-01T14:19:04Z</time></trkpt><trkpt lat="44.26839157434807" lon="11.695663980018457"><ele>84.0</ele><time>2026-05-01T14:19:07Z</time></trkpt><trkpt lat="44.26832487613345" lon="11.69565382923633"><ele>84.0</ele><time>2026-05-01T14:19:10Z</time></trkpt><trkpt lat="44.26825231451359" lon="11.695642601690636"><ele>84.0</ele><time>2026-05-01T14:19:13Z</time></trkpt><trkpt lat="44.26817064843913" lon="11.695636047699464"><ele>84.0</ele><time>2026-05-01T14:19:17Z</time></trkpt><trkpt lat="44.2680877706599" lon="11.695627471529567"><ele>84.0</ele><time>2026-05-01T14:19:21Z</time></trkpt><trkpt lat="44.2680158270202" lon="11.695610894036323"><ele>84.0</ele><time>2026-05-01T14:19:23.999Z</time></trkpt><trkpt lat="44.267927588084646" lon="11.695614038110236"><ele>84.2</ele><time>2026-05-01T14:19:27.999Z</time></trkpt><trkpt lat="44.26785602943031" lon="11.69560117954874"><ele>84.4</ele><time>2026-05-01T14:19:29.999Z</time></trkpt><trkpt lat="44.26779018706728" lon="11.695555428270143"><ele>84.6</ele><time>2026-05-01T14:19:32.999Z</time></trkpt><trkpt lat="44.26772107546747" lon="11.695671018077721"><ele>84.8</ele><time>2026-05-01T14:19:35.999Z</time></trkpt><trkpt lat="44.26770032813636" lon="11.695804906351047"><ele>85.0</ele><time>2026-05-01T14:19:37.999Z</time></trkpt><trkpt lat="44.26765827750517" lon="11.695941641288478"><ele>84.25</ele><time>2026-05-01T14:19:39.999Z</time></trkpt><trkpt lat="44.26762412125052" lon="11.69608943483782"><ele>83.5</ele><time>2026-05-01T14:19:41.999Z</time></trkpt><trkpt lat="44.26756797920052" lon="11.696243405760239"><ele>82.75</ele><time>2026-05-01T14:19:43.999Z</time></trkpt><trkpt lat="44.267513866614905" lon="11.696388632709773"><ele>82.0</ele><time>2026-05-01T14:19:45.999Z</time></trkpt><trkpt lat="44.26746493376853" lon="11.69653514477296"><ele>82.0</ele><time>2026-05-01T14:19:47.999Z</time></trkpt><trkpt lat="44.267414304964376" lon="11.696665784944576"><ele>82.0</ele><time>2026-05-01T14:19:49.999Z</time></trkpt><trkpt lat="44.26736899738303" lon="11.696793300304124"><ele>82.0</ele><time>2026-05-01T14:19:51.999Z</time></trkpt><trkpt lat="44.26733211942171" lon="11.696898307012047"><ele>82.0</ele><time>2026-05-01T14:19:53.999Z</time></trkpt><trkpt lat="44.267311322218916" lon="11.697003115813708"><ele>82.0</ele><time>2026-05-01T14:19:58.999Z</time></trkpt><trkpt lat="44.26727003602393" lon="11.69707439127523"><ele>82.0</ele><time>2026-05-01T14:20:02.999Z</time></trkpt><trkpt lat="44.26722876969608" lon="11.697180561865137"><ele>81.83333333333333</ele><time>2026-05-01T14:20:07Z</time></trkpt><trkpt lat="44.26718970632358" lon="11.697287975964597"><ele>81.66666666666666</ele><time>2026-05-01T14:20:10Z</time></trkpt><trkpt lat="44.26715684304361" lon="11.697365894999546"><ele>81.5</ele><time>2026-05-01T14:20:12Z</time></trkpt><trkpt lat="44.267112685961116" lon="11.697478723886645"><ele>81.33333333333333</ele><time>2026-05-01T14:20:15Z</time></trkpt><trkpt lat="44.26708931365452" lon="11.697586789635738"><ele>81.16666666666667</ele><time>2026-05-01T14:20:18Z</time></trkpt><trkpt lat="44.2671435013664" lon="11.69763408061619"><ele>81.0</ele><time>2026-05-01T14:20:20Z</time></trkpt><trkpt lat="44.267213268472865" lon="11.697672367889123"><ele>80.8</ele><time>2026-05-01T14:20:22Z</time></trkpt><trkpt lat="44.26730679838704" lon="11.697721651009983"><ele>80.6</ele><time>2026-05-01T14:20:24Z</time></trkpt><trkpt lat="44.267401307284" lon="11.697788207862674"><ele>80.4</ele><time>2026-05-01T14:20:26Z</time></trkpt><trkpt lat="44.26748220283967" lon="11.697873421648689"><ele>80.2</ele><time>2026-05-01T14:20:28Z</time></trkpt><trkpt lat="44.26756730097819" lon="11.697931766710974"><ele>80.0</ele><time>2026-05-01T14:20:30Z</time></trkpt><trkpt lat="44.26764647185796" lon="11.697987836302605"><ele>79.83333333333334</ele><time>2026-05-01T14:20:32Z</time></trkpt><trkpt lat="44.26772747289979" lon="11.698047075756639"><ele>79.66666666666667</ele><time>2026-05-01T14:20:34Z</time></trkpt><trkpt lat="44.26780962767599" lon="11.69808792035002"><ele>79.5</ele><time>2026-05-01T14:20:36Z</time></trkpt><trkpt lat="44.267887409459725" lon="11.698154117626588"><ele>79.33333333333333</ele><time>2026-05-01T14:20:38Z</time></trkpt><trkpt lat="44.26796118173289" lon="11.698218348773553"><ele>79.16666666666666</ele><time>2026-05-01T14:20:40Z</time></trkpt><trkpt lat="44.26802840183593" lon="11.698294491971971"><ele>79.0</ele><time>2026-05-01T14:20:42Z</time></trkpt><trkpt lat="44.26810345140212" lon="11.698366744873342"><ele>79.4</ele><time>2026-05-01T14:20:44Z</time></trkpt><trkpt lat="44.26817427063783" lon="11.698457896210128"><ele>79.80000000000001</ele><time>2026-05-01T14:20:46Z</time></trkpt><trkpt lat="44.26824496072685" lon="11.698553127105775"><ele>80.19999999999999</ele><time>2026-05-01T14:20:48Z</time></trkpt><trkpt lat="44.268314467310034" lon="11.698650608930937"><ele>80.6</ele><time>2026-05-01T14:20:50Z</time></trkpt><trkpt lat="44.26838594147176" lon="11.698751562471037"><ele>81.0</ele><time>2026-05-01T14:20:52Z</time></trkpt><trkpt lat="44.26845447917397" lon="11.698857119936529"><ele>81.0</ele><time>2026-05-01T14:20:54Z</time></trkpt><trkpt lat="44.26851863282626" lon="11.698960632749742"><ele>81.0</ele><time>2026-05-01T14:20:56Z</time></trkpt><trkpt lat="44.26858976231451" lon="11.699061514412012"><ele>81.0</ele><time>2026-05-01T14:20:58Z</time></trkpt><trkpt lat="44.26865925043156" lon="11.699159935180015"><ele>81.0</ele><time>2026-05-01T14:21:00Z</time></trkpt><trkpt lat="44.26872847768262" lon="11.69925966398293"><ele>81.0</ele><time>2026-05-01T14:21:02Z</time></trkpt><trkpt lat="44.26879421562783" lon="11.699357339427195"><ele>80.8</ele><time>2026-05-01T14:21:04Z</time></trkpt><trkpt lat="44.26885544088969" lon="11.699459671959339"><ele>80.6</ele><time>2026-05-01T14:21:06Z</time></trkpt><trkpt lat="44.26891653292327" lon="11.699562105692548"><ele>80.4</ele><time>2026-05-01T14:21:08Z</time></trkpt><trkpt lat="44.26896841107811" lon="11.6996730585928"><ele>80.2</ele><time>2026-05-01T14:21:10Z</time></trkpt><trkpt lat="44.26903324654366" lon="11.699764182199964"><ele>80.0</ele><time>2026-05-01T14:21:12Z</time></trkpt><trkpt lat="44.26909412491333" lon="11.69987354177887"><ele>80.0</ele><time>2026-05-01T14:21:14Z</time></trkpt><trkpt lat="44.269155969830585" lon="11.699984893488471"><ele>80.0</ele><time>2026-05-01T14:21:16Z</time></trkpt><trkpt lat="44.269220529493296" lon="11.700088010304242"><ele>80.0</ele><time>2026-05-01T14:21:18Z</time></trkpt><trkpt lat="44.26927914725737" lon="11.700204918974277"><ele>80.0</ele><time>2026-05-01T14:21:20Z</time></trkpt><trkpt lat="44.269338202071545" lon="11.70031818664336"><ele>80.0</ele><time>2026-05-01T14:21:22Z</time></trkpt><trkpt lat="44.26939841747832" lon="11.700436811677708"><ele>79.6</ele><time>2026-05-01T14:21:24Z</time></trkpt><trkpt lat="44.269464709475116" lon="11.700550218852321"><ele>79.2</ele><time>2026-05-01T14:21:26Z</time></trkpt><trkpt lat="44.2695223729313" lon="11.700664055446232"><ele>78.8</ele><time>2026-05-01T14:21:28Z</time></trkpt><trkpt lat="44.26957979949351" lon="11.700772743122835"><ele>78.4</ele><time>2026-05-01T14:21:30Z</time></trkpt><trkpt lat="44.26964399630191" lon="11.700883024331729"><ele>78.0</ele><time>2026-05-01T14:21:32Z</time></trkpt><trkpt lat="44.26969567254008" lon="11.700993132350987"><ele>78.0</ele><time>2026-05-01T14:21:33.999Z</time></trkpt><trkpt lat="44.269746364741046" lon="11.701101164922832"><ele>78.0</ele><time>2026-05-01T14:21:35.999Z</time></trkpt><trkpt lat="44.26979327140857" lon="11.701215726916637"><ele>78.0</ele><time>2026-05-01T14:21:37.999Z</time></trkpt><trkpt lat="44.26982917424058" lon="11.701346841230139"><ele>78.0</ele><time>2026-05-01T14:21:39.999Z</time></trkpt><trkpt lat="44.26985368531115" lon="11.70147786970735"><ele>78.0</ele><time>2026-05-01T14:21:41.999Z</time></trkpt><trkpt lat="44.26985354145485" lon="11.701619608838305"><ele>78.0</ele><time>2026-05-01T14:21:43.999Z</time></trkpt><trkpt lat="44.269870664206614" lon="11.70175827024532"><ele>78.0</ele><time>2026-05-01T14:21:45.999Z</time></trkpt><trkpt lat="44.269862552631004" lon="11.701895045492652"><ele>78.0</ele><time>2026-05-01T14:21:47.999Z</time></trkpt><trkpt lat="44.269819501007454" lon="11.70203063671608"><ele>78.0</ele><time>2026-05-01T14:21:49.999Z</time></trkpt><trkpt lat="44.26978659606649" lon="11.702159615842659"><ele>78.0</ele><time>2026-05-01T14:21:51.999Z</time></trkpt><trkpt lat="44.26973736633268" lon="11.702290812797857"><ele>77.6</ele><time>2026-05-01T14:21:53.999Z</time></trkpt><trkpt lat="44.269690037307015" lon="11.702421454947865"><ele>77.19999999999999</ele><time>2026-05-01T14:21:55.999Z</time></trkpt><trkpt lat="44.26961076205204" lon="11.702521073389619"><ele>76.8</ele><time>2026-05-01T14:21:57.999Z</time></trkpt><trkpt lat="44.269541255628425" lon="11.702635136238976"><ele>76.39999999999999</ele><time>2026-05-01T14:21:59.999Z</time></trkpt><trkpt lat="44.269474067104575" lon="11.702746681389282"><ele>76.0</ele><time>2026-05-01T14:22:01.999Z</time></trkpt><trkpt lat="44.2694066534909" lon="11.702857734580313"><ele>76.0</ele><time>2026-05-01T14:22:03.999Z</time></trkpt><trkpt lat="44.269336400194135" lon="11.70298079841439"><ele>76.0</ele><time>2026-05-01T14:22:05.999Z</time></trkpt><trkpt lat="44.26925608496353" lon="11.703095585703712"><ele>76.0</ele><time>2026-05-01T14:22:07.999Z</time></trkpt><trkpt lat="44.26917034598582" lon="11.703202130961934"><ele>76.0</ele><time>2026-05-01T14:22:09.999Z</time></trkpt><trkpt lat="44.269083920708866" lon="11.703317555375477"><ele>76.0</ele><time>2026-05-01T14:22:12Z</time></trkpt><trkpt lat="44.26903755160058" lon="11.703377862872829"><ele>76.0</ele><time>2026-05-01T14:22:13Z</time></trkpt><trkpt lat="44.268989350274786" lon="11.703434485314805"><ele>76.0</ele><time>2026-05-01T14:22:14Z</time></trkpt><trkpt lat="44.26889571073696" lon="11.703538784230608"><ele>76.0</ele><time>2026-05-01T14:22:16Z</time></trkpt><trkpt lat="44.26879919203058" lon="11.703643640429817"><ele>76.0</ele><time>2026-05-01T14:22:18Z</time></trkpt><trkpt lat="44.268704260318096" lon="11.703744240267305"><ele>75.75</ele><time>2026-05-01T14:22:20Z</time></trkpt><trkpt lat="44.2686087783901" lon="11.703832601768392"><ele>75.5</ele><time>2026-05-01T14:22:22Z</time></trkpt><trkpt lat="44.26850480957378" lon="11.70390772894866"><ele>75.25</ele><time>2026-05-01T14:22:24Z</time></trkpt><trkpt lat="44.26839290919505" lon="11.703975217100373"><ele>75.0</ele><time>2026-05-01T14:22:26Z</time></trkpt><trkpt lat="44.26828205339716" lon="11.704031788129269"><ele>75.0</ele><time>2026-05-01T14:22:28Z</time></trkpt><trkpt lat="44.26816690240286" lon="11.704071035397783"><ele>75.0</ele><time>2026-05-01T14:22:30Z</time></trkpt><trkpt lat="44.26806717938178" lon="11.704110918323547"><ele>75.0</ele><time>2026-05-01T14:22:32Z</time></trkpt><trkpt lat="44.26795099341441" lon="11.70415131361201"><ele>75.0</ele><time>2026-05-01T14:22:34Z</time></trkpt><trkpt lat="44.26784850266329" lon="11.704179947900677"><ele>75.0</ele><time>2026-05-01T14:22:36Z</time></trkpt><trkpt lat="44.267744765700975" lon="11.704213790406941"><ele>75.8</ele><time>2026-05-01T14:22:38Z</time></trkpt><trkpt lat="44.2676356316199" lon="11.704244986717248"><ele>76.6</ele><time>2026-05-01T14:22:40Z</time></trkpt><trkpt lat="44.26753500090105" lon="11.704283852535966"><ele>77.4</ele><time>2026-05-01T14:22:42Z</time></trkpt><trkpt lat="44.26743285733675" lon="11.704322372522963"><ele>78.2</ele><time>2026-05-01T14:22:44Z</time></trkpt><trkpt lat="44.267342056587204" lon="11.70437323886758"><ele>79.0</ele><time>2026-05-01T14:22:46Z</time></trkpt><trkpt lat="44.267269055593594" lon="11.70443277853712"><ele>81.57142857142858</ele><time>2026-05-01T14:22:48Z</time></trkpt><trkpt lat="44.26721383377332" lon="11.70449317092418"><ele>84.14285714285714</ele><time>2026-05-01T14:22:50Z</time></trkpt><trkpt lat="44.267174157277296" lon="11.704564153797454"><ele>86.71428571428572</ele><time>2026-05-01T14:22:52Z</time></trkpt><trkpt lat="44.26713828239047" lon="11.704644174010365"><ele>89.28571428571429</ele><time>2026-05-01T14:22:54Z</time></trkpt><trkpt lat="44.26711116600625" lon="11.70473115639142"><ele>91.85714285714286</ele><time>2026-05-01T14:22:56Z</time></trkpt><trkpt lat="44.26708532038543" lon="11.704822634541973"><ele>94.42857142857143</ele><time>2026-05-01T14:22:58Z</time></trkpt><trkpt lat="44.267066469354624" lon="11.704914689700235"><ele>97.0</ele><time>2026-05-01T14:23:00Z</time></trkpt><trkpt lat="44.26706146923284" lon="11.705024430389045"><ele>97.00000000000001</ele><time>2026-05-01T14:23:02Z</time></trkpt><trkpt lat="44.26705722869915" lon="11.705137462923346"><ele>97.0</ele><time>2026-05-01T14:23:04Z</time></trkpt><trkpt lat="44.26706389113136" lon="11.705251731441859"><ele>97.0</ele><time>2026-05-01T14:23:06Z</time></trkpt><trkpt lat="44.2670749966135" lon="11.705364269735735"><ele>97.0</ele><time>2026-05-01T14:23:08Z</time></trkpt><trkpt lat="44.267098023657645" lon="11.705479313903199"><ele>97.00000000000001</ele><time>2026-05-01T14:23:10Z</time></trkpt><trkpt lat="44.267123062664474" lon="11.7056042502064"><ele>97.0</ele><time>2026-05-01T14:23:12Z</time></trkpt><trkpt lat="44.267145570599304" lon="11.705719434337889"><ele>95.66666666666667</ele><time>2026-05-01T14:23:14Z</time></trkpt><trkpt lat="44.26717214142865" lon="11.705838575492898"><ele>94.33333333333334</ele><time>2026-05-01T14:23:16Z</time></trkpt><trkpt lat="44.26720630882654" lon="11.705959355492155"><ele>93.0</ele><time>2026-05-01T14:23:18Z</time></trkpt><trkpt lat="44.26723831378956" lon="11.706073005002011"><ele>91.66666666666667</ele><time>2026-05-01T14:23:20Z</time></trkpt><trkpt lat="44.267257588909956" lon="11.706186340799428"><ele>90.33333333333334</ele><time>2026-05-01T14:23:22Z</time></trkpt><trkpt lat="44.267297228355154" lon="11.706298382147592"><ele>89.0</ele><time>2026-05-01T14:23:24Z</time></trkpt><trkpt lat="44.26733293055329" lon="11.70642440518462"><ele>87.66666666666667</ele><time>2026-05-01T14:23:26Z</time></trkpt><trkpt lat="44.2674003086021" lon="11.706554827650645"><ele>86.33333333333334</ele><time>2026-05-01T14:23:28Z</time></trkpt><trkpt lat="44.267441707448626" lon="11.706622488109392"><ele>85.0</ele><time>2026-05-01T14:23:29Z</time></trkpt><trkpt lat="44.26748227030326" lon="11.706693106576214"><ele>83.66666666666667</ele><time>2026-05-01T14:23:30Z</time></trkpt><trkpt lat="44.2675631833715" lon="11.706832323778585"><ele>82.33333333333333</ele><time>2026-05-01T14:23:32Z</time></trkpt><trkpt lat="44.267605620617275" lon="11.706901804494542"><ele>81.0</ele><time>2026-05-01T14:23:33Z</time></trkpt><trkpt lat="44.267693135531985" lon="11.707016648336566"><ele>81.0</ele><time>2026-05-01T14:23:35Z</time></trkpt><trkpt lat="44.267771959117134" lon="11.70714904982529"><ele>81.0</ele><time>2026-05-01T14:23:37Z</time></trkpt><trkpt lat="44.267846723642165" lon="11.707285086826918"><ele>81.0</ele><time>2026-05-01T14:23:39Z</time></trkpt><trkpt lat="44.26789311477782" lon="11.707347932673343"><ele>81.0</ele><time>2026-05-01T14:23:39.999Z</time></trkpt><trkpt lat="44.26798462278653" lon="11.707464596627855"><ele>81.0</ele><time>2026-05-01T14:23:41.999Z</time></trkpt><trkpt lat="44.26806829669812" lon="11.707590226517398"><ele>80.25</ele><time>2026-05-01T14:23:43.999Z</time></trkpt><trkpt lat="44.268151633167946" lon="11.707712312546521"><ele>79.5</ele><time>2026-05-01T14:23:45.999Z</time></trkpt><trkpt lat="44.26823368697348" lon="11.70783513226937"><ele>78.75</ele><time>2026-05-01T14:23:47.999Z</time></trkpt><trkpt lat="44.26830820863554" lon="11.707955348646832"><ele>78.0</ele><time>2026-05-01T14:23:49.999Z</time></trkpt><trkpt lat="44.26838640628398" lon="11.708078943246331"><ele>79.4</ele><time>2026-05-01T14:23:51.999Z</time></trkpt><trkpt lat="44.26846909256964" lon="11.708192337198845"><ele>80.8</ele><time>2026-05-01T14:23:53.999Z</time></trkpt><trkpt lat="44.2685420255839" lon="11.708307925048151"><ele>82.2</ele><time>2026-05-01T14:23:55.999Z</time></trkpt><trkpt lat="44.26860839664654" lon="11.708424638730722"><ele>83.6</ele><time>2026-05-01T14:23:57.999Z</time></trkpt><trkpt lat="44.26867794121842" lon="11.708521311069774"><ele>85.0</ele><time>2026-05-01T14:23:59.999Z</time></trkpt><trkpt lat="44.26874457307091" lon="11.70860906649541"><ele>86.2</ele><time>2026-05-01T14:24:01.999Z</time></trkpt><trkpt lat="44.26878683792894" lon="11.708698571122918"><ele>87.4</ele><time>2026-05-01T14:24:03.999Z</time></trkpt><trkpt lat="44.26882478910098" lon="11.708787092789679"><ele>88.6</ele><time>2026-05-01T14:24:06.999Z</time></trkpt><trkpt lat="44.26889803581411" lon="11.70885174925188"><ele>89.8</ele><time>2026-05-01T14:24:08.999Z</time></trkpt><trkpt lat="44.26897865414802" lon="11.708882684435588"><ele>91.0</ele><time>2026-05-01T14:24:10.999Z</time></trkpt><trkpt lat="44.26920664175771" lon="11.708945033612308"><ele>91.0</ele><time>2026-05-01T14:24:15.999Z</time></trkpt><trkpt lat="44.269301037657165" lon="11.708991836306193"><ele>91.0</ele><time>2026-05-01T14:24:18Z</time></trkpt><trkpt lat="44.269409441272174" lon="11.709019353325402"><ele>91.0</ele><time>2026-05-01T14:24:20Z</time></trkpt><trkpt lat="44.26951050824005" lon="11.709040877273484"><ele>91.0</ele><time>2026-05-01T14:24:22Z</time></trkpt><trkpt lat="44.26961576096854" lon="11.709049885765719"><ele>91.0</ele><time>2026-05-01T14:24:24Z</time></trkpt><trkpt lat="44.269717434839976" lon="11.709050583125048"><ele>88.2</ele><time>2026-05-01T14:24:26Z</time></trkpt><trkpt lat="44.26981251121989" lon="11.709010867206874"><ele>85.39999999999999</ele><time>2026-05-01T14:24:28Z</time></trkpt><trkpt lat="44.26989717634359" lon="11.709011584568373"><ele>82.6</ele><time>2026-05-01T14:24:30Z</time></trkpt><trkpt lat="44.26999606808237" lon="11.709002647546193"><ele>79.8</ele><time>2026-05-01T14:24:32Z</time></trkpt><trkpt lat="44.27007600850357" lon="11.708981235237259"><ele>77.0</ele><time>2026-05-01T14:24:34Z</time></trkpt><trkpt lat="44.27016306494267" lon="11.708961200899891"><ele>77.0</ele><time>2026-05-01T14:24:36Z</time></trkpt><trkpt lat="44.27025179582201" lon="11.708945332489883"><ele>77.0</ele><time>2026-05-01T14:24:38Z</time></trkpt><trkpt lat="44.27031465351089" lon="11.709006726146914"><ele>77.0</ele><time>2026-05-01T14:24:40Z</time></trkpt><trkpt lat="44.27031567562068" lon="11.709103302603879"><ele>77.0</ele><time>2026-05-01T14:24:42Z</time></trkpt><trkpt lat="44.27030111895009" lon="11.709199683491162"><ele>77.0</ele><time>2026-05-01T14:24:47Z</time></trkpt><trkpt lat="44.27027020899209" lon="11.709297927210779"><ele>77.0</ele><time>2026-05-01T14:24:51Z</time></trkpt><trkpt lat="44.270238685722404" lon="11.709382904550411"><ele>77.0</ele><time>2026-05-01T14:24:56Z</time></trkpt><trkpt lat="44.270272724790935" lon="11.709299265174309"><ele>77.0</ele><time>2026-05-01T14:25:09Z</time></trkpt><trkpt lat="44.27028178619045" lon="11.709204113875787"><ele>77.0</ele><time>2026-05-01T14:25:11Z</time></trkpt><trkpt lat="44.27030192124759" lon="11.709116839229505"><ele>77.0</ele><time>2026-05-01T14:25:14Z</time></trkpt><trkpt lat="44.27035585424254" lon="11.709167270724766"><ele>77.0</ele><time>2026-05-01T14:25:17Z</time></trkpt><trkpt lat="44.27038173513578" lon="11.709247951363453"><ele>77.0</ele><time>2026-05-01T14:25:19Z</time></trkpt><trkpt lat="44.27042037968403" lon="11.709322780052219"><ele>77.0</ele><time>2026-05-01T14:25:21Z</time></trkpt><trkpt lat="44.270471948279976" lon="11.709400125890513"><ele>77.6</ele><time>2026-05-01T14:25:23Z</time></trkpt><trkpt lat="44.27052660417174" lon="11.709485523490317"><ele>78.2</ele><time>2026-05-01T14:25:25Z</time></trkpt><trkpt lat="44.2705851094705" lon="11.709580377511683"><ele>78.8</ele><time>2026-05-01T14:25:27Z</time></trkpt><trkpt lat="44.2706306733369" lon="11.709700102293423"><ele>79.4</ele><time>2026-05-01T14:25:29Z</time></trkpt><trkpt lat="44.27061839127523" lon="11.709835210617047"><ele>80.0</ele><time>2026-05-01T14:25:31Z</time></trkpt><trkpt lat="44.27060170315986" lon="11.709956795910134"><ele>80.0</ele><time>2026-05-01T14:25:33Z</time></trkpt><trkpt lat="44.27057243193297" lon="11.71006830652381"><ele>80.0</ele><time>2026-05-01T14:25:35Z</time></trkpt><trkpt lat="44.27053723955985" lon="11.710141779239194"><ele>80.0</ele><time>2026-05-01T14:25:37Z</time></trkpt><trkpt lat="44.270480882715205" lon="11.710241362516607"><ele>80.0</ele><time>2026-05-01T14:25:40Z</time></trkpt><trkpt lat="44.270445049829746" lon="11.710336435280587"><ele>80.0</ele><time>2026-05-01T14:25:42Z</time></trkpt><trkpt lat="44.27039601263326" lon="11.710463492060232"><ele>80.0</ele><time>2026-05-01T14:25:44Z</time></trkpt><trkpt lat="44.27039293072446" lon="11.710610527301093"><ele>79.0</ele><time>2026-05-01T14:25:45.999Z</time></trkpt><trkpt lat="44.270457547023135" lon="11.710739378494187"><ele>78.0</ele><time>2026-05-01T14:25:47.999Z</time></trkpt><trkpt lat="44.27049523317249" lon="11.710869594175298"><ele>77.0</ele><time>2026-05-01T14:25:49.999Z</time></trkpt><trkpt lat="44.27045963037775" lon="11.71098995820558"><ele>76.0</ele><time>2026-05-01T14:25:51.999Z</time></trkpt><trkpt lat="44.27040825541597" lon="11.7110841514171"><ele>75.0</ele><time>2026-05-01T14:25:53.999Z</time></trkpt><trkpt lat="44.270357188934895" lon="11.711176224671256"><ele>74.2</ele><time>2026-05-01T14:25:55.999Z</time></trkpt><trkpt lat="44.27029778763868" lon="11.711280203860372"><ele>73.4</ele><time>2026-05-01T14:25:57.999Z</time></trkpt><trkpt lat="44.27024545449996" lon="11.711374205502313"><ele>72.6</ele><time>2026-05-01T14:25:59.999Z</time></trkpt><trkpt lat="44.27018306277662" lon="11.71145372058794"><ele>71.8</ele><time>2026-05-01T14:26:01.999Z</time></trkpt><trkpt lat="44.27010187962199" lon="11.711518984913917"><ele>71.0</ele><time>2026-05-01T14:26:03.999Z</time></trkpt><trkpt lat="44.27001669289851" lon="11.711575642694275"><ele>71.0</ele><time>2026-05-01T14:26:05.999Z</time></trkpt><trkpt lat="44.26994428615232" lon="11.71166207073406"><ele>71.0</ele><time>2026-05-01T14:26:07.999Z</time></trkpt><trkpt lat="44.269888936169274" lon="11.711770967905602"><ele>71.0</ele><time>2026-05-01T14:26:09.999Z</time></trkpt><trkpt lat="44.26983909112312" lon="11.711877678175503"><ele>71.0</ele><time>2026-05-01T14:26:11.999Z</time></trkpt><trkpt lat="44.26980243588422" lon="11.711986608209838"><ele>71.0</ele><time>2026-05-01T14:26:13.999Z</time></trkpt><trkpt lat="44.26975362046619" lon="11.712085458060342"><ele>73.0</ele><time>2026-05-01T14:26:15.999Z</time></trkpt><trkpt lat="44.269701364930846" lon="11.712181308725073"><ele>75.0</ele><time>2026-05-01T14:26:17.999Z</time></trkpt><trkpt lat="44.269652403321295" lon="11.712282250032873"><ele>77.0</ele><time>2026-05-01T14:26:19.999Z</time></trkpt><trkpt lat="44.2696069347956" lon="11.712376342008554"><ele>79.0</ele><time>2026-05-01T14:26:21.999Z</time></trkpt><trkpt lat="44.26955534977644" lon="11.712478525934106"><ele>81.0</ele><time>2026-05-01T14:26:24Z</time></trkpt><trkpt lat="44.2695104550372" lon="11.712577257642547"><ele>83.0</ele><time>2026-05-01T14:26:26Z</time></trkpt><trkpt lat="44.26946782853897" lon="11.712678549105489"><ele>81.66666666666667</ele><time>2026-05-01T14:26:28Z</time></trkpt><trkpt lat="44.26942231766903" lon="11.71278905237861"><ele>80.33333333333334</ele><time>2026-05-01T14:26:30Z</time></trkpt><trkpt lat="44.26937661007484" lon="11.712893402718604"><ele>79.0</ele><time>2026-05-01T14:26:32Z</time></trkpt><trkpt lat="44.26933223859161" lon="11.712981024802447"><ele>77.66666666666667</ele><time>2026-05-01T14:26:34Z</time></trkpt><trkpt lat="44.26927960430031" lon="11.713062050738074"><ele>76.33333333333333</ele><time>2026-05-01T14:26:36Z</time></trkpt><trkpt lat="44.269225207222426" lon="11.713150675357845"><ele>75.0</ele><time>2026-05-01T14:26:38Z</time></trkpt><trkpt lat="44.26919799998827" lon="11.713264600473964"><ele>75.0</ele><time>2026-05-01T14:26:40Z</time></trkpt><trkpt lat="44.26922264132793" lon="11.713389196098133"><ele>75.0</ele><time>2026-05-01T14:26:42Z</time></trkpt><trkpt lat="44.26924279247005" lon="11.713516098413931"><ele>75.0</ele><time>2026-05-01T14:26:44Z</time></trkpt><trkpt lat="44.269224080917745" lon="11.713658517730105"><ele>75.0</ele><time>2026-05-01T14:26:46Z</time></trkpt><trkpt lat="44.269222637741976" lon="11.713828408866155"><ele>75.0</ele><time>2026-05-01T14:26:48Z</time></trkpt><trkpt lat="44.26923331472677" lon="11.713993323305194"><ele>75.0</ele><time>2026-05-01T14:26:50Z</time></trkpt><trkpt lat="44.26924579914422" lon="11.714152675914224"><ele>75.0</ele><time>2026-05-01T14:26:52Z</time></trkpt><trkpt lat="44.26927643050488" lon="11.714299465250086"><ele>75.0</ele><time>2026-05-01T14:26:54Z</time></trkpt><trkpt lat="44.26933420689477" lon="11.714407314899677"><ele>75.0</ele><time>2026-05-01T14:26:56Z</time></trkpt><trkpt lat="44.269391460438705" lon="11.714501821376306"><ele>75.0</ele><time>2026-05-01T14:26:58Z</time></trkpt><trkpt lat="44.26945512665639" lon="11.714600025623502"><ele>75.0</ele><time>2026-05-01T14:27:00Z</time></trkpt><trkpt lat="44.2695235999029" lon="11.714696258042927"><ele>75.0</ele><time>2026-05-01T14:27:02Z</time></trkpt><trkpt lat="44.269591568157786" lon="11.714789727084542"><ele>75.0</ele><time>2026-05-01T14:27:04Z</time></trkpt><trkpt lat="44.26967481233143" lon="11.714869549037946"><ele>75.0</ele><time>2026-05-01T14:27:06Z</time></trkpt><trkpt lat="44.26974879190328" lon="11.714906729695931"><ele>75.0</ele><time>2026-05-01T14:27:08Z</time></trkpt><trkpt lat="44.26984190476119" lon="11.714931056715969"><ele>74.5</ele><time>2026-05-01T14:27:10Z</time></trkpt><trkpt lat="44.26994252704606" lon="11.714931888470876"><ele>74.0</ele><time>2026-05-01T14:27:12Z</time></trkpt><trkpt lat="44.27001699689353" lon="11.714915518527656"><ele>73.5</ele><time>2026-05-01T14:27:14Z</time></trkpt><trkpt lat="44.27010044609504" lon="11.714895416753928"><ele>73.0</ele><time>2026-05-01T14:27:16Z</time></trkpt><trkpt lat="44.270211584803256" lon="11.714890394180799"><ele>72.5</ele><time>2026-05-01T14:27:19Z</time></trkpt><trkpt lat="44.27027642782144" lon="11.714883199615103"><ele>72.0</ele><time>2026-05-01T14:27:21Z</time></trkpt><trkpt lat="44.270526819648715" lon="11.714869328831362"><ele>72.0</ele><time>2026-05-01T14:27:29Z</time></trkpt><trkpt lat="44.27059093799321" lon="11.714860642802783"><ele>72.0</ele><time>2026-05-01T14:27:31Z</time></trkpt><trkpt lat="44.270654621368834" lon="11.7148518331234"><ele>72.0</ele><time>2026-05-01T14:27:33Z</time></trkpt><trkpt lat="44.270718658170935" lon="11.714850671811984"><ele>72.0</ele><time>2026-05-01T14:27:35Z</time></trkpt><trkpt lat="44.27078660181424" lon="11.714849233450396"><ele>72.0</ele><time>2026-05-01T14:27:37Z</time></trkpt><trkpt lat="44.270972050038424" lon="11.714849287283654"><ele>72.0</ele><time>2026-05-01T14:27:46Z</time></trkpt><trkpt lat="44.2710226446042" lon="11.714901731972729"><ele>72.0</ele><time>2026-05-01T14:27:50Z</time></trkpt><trkpt lat="44.27109311476095" lon="11.714955009020906"><ele>72.0</ele><time>2026-05-01T14:27:54Z</time></trkpt><trkpt lat="44.27113158285339" lon="11.715048555223555"><ele>72.0</ele><time>2026-05-01T14:27:57.999Z</time></trkpt><trkpt lat="44.27114989088677" lon="11.715134583921628"><ele>72.0</ele><time>2026-05-01T14:28:00.999Z</time></trkpt><trkpt lat="44.27115891550305" lon="11.715233879527672"><ele>72.0</ele><time>2026-05-01T14:28:03.999Z</time></trkpt><trkpt lat="44.27116837690667" lon="11.715346050924664"><ele>72.0</ele><time>2026-05-01T14:28:06.999Z</time></trkpt><trkpt lat="44.27115413271439" lon="11.715455907327824"><ele>72.0</ele><time>2026-05-01T14:28:09.999Z</time></trkpt><trkpt lat="44.27114655732983" lon="11.715592644962657"><ele>72.0</ele><time>2026-05-01T14:28:12.999Z</time></trkpt><trkpt lat="44.27113503166234" lon="11.715683225375953"><ele>72.0</ele><time>2026-05-01T14:28:14.999Z</time></trkpt><trkpt lat="44.27111821435417" lon="11.715814897160984"><ele>72.0</ele><time>2026-05-01T14:28:17.999Z</time></trkpt><trkpt lat="44.27111142572126" lon="11.715907165540402"><ele>72.0</ele><time>2026-05-01T14:28:19.999Z</time></trkpt><trkpt lat="44.271100454716645" lon="11.716006080936587"><ele>72.0</ele><time>2026-05-01T14:28:21.999Z</time></trkpt><trkpt lat="44.271094212213896" lon="11.716109657633826"><ele>72.0</ele><time>2026-05-01T14:28:23.999Z</time></trkpt><trkpt lat="44.27108848476083" lon="11.716215573208368"><ele>72.0</ele><time>2026-05-01T14:28:25.999Z</time></trkpt><trkpt lat="44.27108419873825" lon="11.716326480441543"><ele>72.0</ele><time>2026-05-01T14:28:27.999Z</time></trkpt><trkpt lat="44.27106563335862" lon="11.716443469458579"><ele>72.0</ele><time>2026-05-01T14:28:30Z</time></trkpt><trkpt lat="44.27105472867433" lon="11.716569836295633"><ele>72.0</ele><time>2026-05-01T14:28:32Z</time></trkpt><trkpt lat="44.27104325943839" lon="11.716694980982014"><ele>72.0</ele><time>2026-05-01T14:28:34Z</time></trkpt><trkpt lat="44.27103959858517" lon="11.716814304259433"><ele>72.33333333333333</ele><time>2026-05-01T14:28:36Z</time></trkpt><trkpt lat="44.271029095649865" lon="11.716940637284738"><ele>72.66666666666667</ele><time>2026-05-01T14:28:38Z</time></trkpt><trkpt lat="44.271019243303634" lon="11.717052598086585"><ele>73.0</ele><time>2026-05-01T14:28:40Z</time></trkpt><trkpt lat="44.27100295629481" lon="11.717159601743623"><ele>73.33333333333334</ele><time>2026-05-01T14:28:42Z</time></trkpt><trkpt lat="44.270989925205164" lon="11.717261316243851"><ele>73.66666666666667</ele><time>2026-05-01T14:28:44Z</time></trkpt><trkpt lat="44.27097168227912" lon="11.717348130618612"><ele>74.0</ele><time>2026-05-01T14:28:46Z</time></trkpt><trkpt lat="44.270957655668475" lon="11.717465235467916"><ele>74.0</ele><time>2026-05-01T14:28:49Z</time></trkpt><trkpt lat="44.27095811407103" lon="11.717562141759904"><ele>74.0</ele><time>2026-05-01T14:28:51Z</time></trkpt><trkpt lat="44.27099670865366" lon="11.71767401588972"><ele>74.0</ele><time>2026-05-01T14:28:53Z</time></trkpt><trkpt lat="44.2710454329536" lon="11.717767071194714"><ele>74.0</ele><time>2026-05-01T14:28:55Z</time></trkpt><trkpt lat="44.271064650481904" lon="11.717859159342416"><ele>74.0</ele><time>2026-05-01T14:28:57Z</time></trkpt><trkpt lat="44.27109846993701" lon="11.717948516975502"><ele>74.0</ele><time>2026-05-01T14:28:59Z</time></trkpt><trkpt lat="44.27112852243455" lon="11.718037153033872"><ele>74.33333333333334</ele><time>2026-05-01T14:29:01Z</time></trkpt><trkpt lat="44.271153004652675" lon="11.718137040829172"><ele>74.66666666666667</ele><time>2026-05-01T14:29:03Z</time></trkpt><trkpt lat="44.27117753684703" lon="11.718231878186318"><ele>75.0</ele><time>2026-05-01T14:29:05Z</time></trkpt><trkpt lat="44.2712093400674" lon="11.718341143790822"><ele>75.33333333333333</ele><time>2026-05-01T14:29:07Z</time></trkpt><trkpt lat="44.27123926166296" lon="11.718447204451879"><ele>75.66666666666666</ele><time>2026-05-01T14:29:09Z</time></trkpt><trkpt lat="44.27127181368683" lon="11.718560276683661"><ele>76.0</ele><time>2026-05-01T14:29:11Z</time></trkpt><trkpt lat="44.27130714387376" lon="11.71867700645347"><ele>76.0</ele><time>2026-05-01T14:29:13Z</time></trkpt><trkpt lat="44.27134216481079" lon="11.718802184639202"><ele>76.0</ele><time>2026-05-01T14:29:15Z</time></trkpt><trkpt lat="44.27137511926936" lon="11.718920878263452"><ele>76.0</ele><time>2026-05-01T14:29:17Z</time></trkpt><trkpt lat="44.27141102086286" lon="11.719049036973686"><ele>76.0</ele><time>2026-05-01T14:29:19Z</time></trkpt><trkpt lat="44.27144578232323" lon="11.719175523192352"><ele>76.0</ele><time>2026-05-01T14:29:21Z</time></trkpt><trkpt lat="44.271480180140195" lon="11.719303234875687"><ele>75.8</ele><time>2026-05-01T14:29:23Z</time></trkpt><trkpt lat="44.27152004318658" lon="11.71942515318613"><ele>75.6</ele><time>2026-05-01T14:29:25Z</time></trkpt><trkpt lat="44.27155785520898" lon="11.719548653232025"><ele>75.4</ele><time>2026-05-01T14:29:27Z</time></trkpt><trkpt lat="44.27159190356466" lon="11.719679382875269"><ele>75.2</ele><time>2026-05-01T14:29:29Z</time></trkpt><trkpt lat="44.271631786766946" lon="11.719806577330962"><ele>75.0</ele><time>2026-05-01T14:29:31Z</time></trkpt><trkpt lat="44.271670019434964" lon="11.719937672232167"><ele>75.0</ele><time>2026-05-01T14:29:33Z</time></trkpt><trkpt lat="44.27170740356789" lon="11.720068947894651"><ele>75.0</ele><time>2026-05-01T14:29:35Z</time></trkpt><trkpt lat="44.271744406224336" lon="11.720197344287577"><ele>75.0</ele><time>2026-05-01T14:29:37Z</time></trkpt><trkpt lat="44.27178751987498" lon="11.720319314793574"><ele>75.0</ele><time>2026-05-01T14:29:39Z</time></trkpt><trkpt lat="44.27181974587449" lon="11.720426684518724"><ele>75.0</ele><time>2026-05-01T14:29:41Z</time></trkpt><trkpt lat="44.27183497372599" lon="11.72054302548938"><ele>74.83333333333333</ele><time>2026-05-01T14:29:43Z</time></trkpt><trkpt lat="44.271828691768754" lon="11.72063253110633"><ele>74.66666666666667</ele><time>2026-05-01T14:29:45Z</time></trkpt><trkpt lat="44.27191765183832" lon="11.72068382699246"><ele>74.5</ele><time>2026-05-01T14:54:19Z</time></trkpt><trkpt lat="44.271968473628945" lon="11.720759689544899"><ele>74.33333333333334</ele><time>2026-05-01T14:54:23Z</time></trkpt><trkpt lat="44.27204051836104" lon="11.72083966408683"><ele>74.16666666666667</ele><time>2026-05-01T14:54:27Z</time></trkpt><trkpt lat="44.2720920168051" lon="11.720901065876284"><ele>74.0</ele><time>2026-05-01T14:54:29Z</time></trkpt><trkpt lat="44.27213778173576" lon="11.720968148885547"><ele>74.0</ele><time>2026-05-01T14:54:31Z</time></trkpt><trkpt lat="44.272181171427356" lon="11.721043753274012"><ele>74.0</ele><time>2026-05-01T14:54:33Z</time></trkpt><trkpt lat="44.27217013963772" lon="11.721164495351326"><ele>74.0</ele><time>2026-05-01T14:54:35Z</time></trkpt><trkpt lat="44.27212076931587" lon="11.721263435766726"><ele>74.0</ele><time>2026-05-01T14:54:37Z</time></trkpt><trkpt lat="44.272070110597625" lon="11.721349947685317"><ele>74.0</ele><time>2026-05-01T14:54:39Z</time></trkpt><trkpt lat="44.27202913805447" lon="11.721438691657198"><ele>74.0</ele><time>2026-05-01T14:54:41Z</time></trkpt><trkpt lat="44.27198008984332" lon="11.721534370259718"><ele>73.71428571428572</ele><time>2026-05-01T14:54:43Z</time></trkpt><trkpt lat="44.27193369138206" lon="11.721615935662845"><ele>73.42857142857143</ele><time>2026-05-01T14:54:45Z</time></trkpt><trkpt lat="44.271883364993" lon="11.721689625221194"><ele>73.14285714285714</ele><time>2026-05-01T14:54:47Z</time></trkpt><trkpt lat="44.27184755677324" lon="11.721762806788819"><ele>72.85714285714286</ele><time>2026-05-01T14:54:49Z</time></trkpt><trkpt lat="44.27179353308256" lon="11.721833237250904"><ele>72.57142857142857</ele><time>2026-05-01T14:54:51Z</time></trkpt><trkpt lat="44.2717490458244" lon="11.721902834676095"><ele>72.28571428571429</ele><time>2026-05-01T14:54:53Z</time></trkpt><trkpt lat="44.27170973594514" lon="11.721977040671947"><ele>72.0</ele><time>2026-05-01T14:54:55Z</time></trkpt><trkpt lat="44.27167847444857" lon="11.722056634804625"><ele>71.66666666666667</ele><time>2026-05-01T14:54:57Z</time></trkpt><trkpt lat="44.27163191647761" lon="11.722137530949452"><ele>71.33333333333333</ele><time>2026-05-01T14:54:59Z</time></trkpt><trkpt lat="44.27159796166598" lon="11.722229332091356"><ele>71.0</ele><time>2026-05-01T14:55:01Z</time></trkpt><trkpt lat="44.27153754844904" lon="11.722301717516139"><ele>70.66666666666666</ele><time>2026-05-01T14:55:03Z</time></trkpt><trkpt lat="44.27148604206464" lon="11.7223738690037"><ele>70.33333333333333</ele><time>2026-05-01T14:55:05Z</time></trkpt><trkpt lat="44.271433310190965" lon="11.722466993925796"><ele>70.0</ele><time>2026-05-01T14:55:07Z</time></trkpt><trkpt lat="44.27138164424818" lon="11.722563761728722"><ele>70.0</ele><time>2026-05-01T14:55:09Z</time></trkpt><trkpt lat="44.27133890304665" lon="11.722656936262577"><ele>70.0</ele><time>2026-05-01T14:55:11Z</time></trkpt><trkpt lat="44.27129275367552" lon="11.722754287647748"><ele>70.0</ele><time>2026-05-01T14:55:13Z</time></trkpt><trkpt lat="44.27124318449795" lon="11.722851886914246"><ele>70.0</ele><time>2026-05-01T14:55:15Z</time></trkpt><trkpt lat="44.27119985824793" lon="11.722952785950017"><ele>70.0</ele><time>2026-05-01T14:55:17Z</time></trkpt><trkpt lat="44.271159068153125" lon="11.723052069164137"><ele>70.0</ele><time>2026-05-01T14:55:19Z</time></trkpt><trkpt lat="44.27111795227909" lon="11.723159359214609"><ele>70.0</ele><time>2026-05-01T14:55:21Z</time></trkpt><trkpt lat="44.271076799887" lon="11.723265343549803"><ele>70.0</ele><time>2026-05-01T14:55:23Z</time></trkpt><trkpt lat="44.27103483621484" lon="11.72338623028"><ele>70.0</ele><time>2026-05-01T14:55:25Z</time></trkpt><trkpt lat="44.2709997043661" lon="11.723491888090175"><ele>70.0</ele><time>2026-05-01T14:55:27Z</time></trkpt><trkpt lat="44.27095694301645" lon="11.723611050998988"><ele>70.0</ele><time>2026-05-01T14:55:28.999Z</time></trkpt><trkpt lat="44.270915355646814" lon="11.723712998143256"><ele>70.0</ele><time>2026-05-01T14:55:30.999Z</time></trkpt><trkpt lat="44.2708783882643" lon="11.723826889585037"><ele>69.83333333333333</ele><time>2026-05-01T14:55:32.999Z</time></trkpt><trkpt lat="44.270838892129156" lon="11.72392697220278"><ele>69.66666666666666</ele><time>2026-05-01T14:55:34.999Z</time></trkpt><trkpt lat="44.27079773353185" lon="11.724038829178891"><ele>69.5</ele><time>2026-05-01T14:55:36.999Z</time></trkpt><trkpt lat="44.270766861728326" lon="11.724155903796632"><ele>69.33333333333333</ele><time>2026-05-01T14:55:38.999Z</time></trkpt><trkpt lat="44.270731027429484" lon="11.724257821894863"><ele>69.16666666666667</ele><time>2026-05-01T14:55:40.999Z</time></trkpt><trkpt lat="44.27069507994585" lon="11.724359293642623"><ele>69.0</ele><time>2026-05-01T14:55:42.999Z</time></trkpt><trkpt lat="44.2706533169136" lon="11.724467658647328"><ele>69.0</ele><time>2026-05-01T14:55:44.999Z</time></trkpt><trkpt lat="44.27061505922687" lon="11.724576226222966"><ele>69.0</ele><time>2026-05-01T14:55:46.999Z</time></trkpt><trkpt lat="44.27057513128252" lon="11.724684968432584"><ele>69.0</ele><time>2026-05-01T14:55:49Z</time></trkpt><trkpt lat="44.27054002179836" lon="11.72479549632963"><ele>69.0</ele><time>2026-05-01T14:55:51Z</time></trkpt><trkpt lat="44.27050197637289" lon="11.724897712363417"><ele>69.0</ele><time>2026-05-01T14:55:53Z</time></trkpt><trkpt lat="44.270465965775685" lon="11.725008790233499"><ele>69.0</ele><time>2026-05-01T14:55:55Z</time></trkpt><trkpt lat="44.27042159189981" lon="11.725115082927216"><ele>69.2</ele><time>2026-05-01T14:55:57Z</time></trkpt><trkpt lat="44.270383981474474" lon="11.725222419583922"><ele>69.4</ele><time>2026-05-01T14:55:59Z</time></trkpt><trkpt lat="44.27034617513344" lon="11.725340711907437"><ele>69.6</ele><time>2026-05-01T14:56:01Z</time></trkpt><trkpt lat="44.27030822873217" lon="11.725445662389228"><ele>69.8</ele><time>2026-05-01T14:56:03Z</time></trkpt><trkpt lat="44.27027087424766" lon="11.72556562551869"><ele>70.0</ele><time>2026-05-01T14:56:05Z</time></trkpt><trkpt lat="44.27022728640594" lon="11.725684465775398"><ele>70.0</ele><time>2026-05-01T14:56:07Z</time></trkpt><trkpt lat="44.270192795560874" lon="11.725795894371041"><ele>70.0</ele><time>2026-05-01T14:56:09Z</time></trkpt><trkpt lat="44.27015570591114" lon="11.725906975893022"><ele>70.0</ele><time>2026-05-01T14:56:11Z</time></trkpt><trkpt lat="44.27011360143022" lon="11.72602445942088"><ele>70.0</ele><time>2026-05-01T14:56:13Z</time></trkpt><trkpt lat="44.27007177627179" lon="11.726143712909911"><ele>70.0</ele><time>2026-05-01T14:56:15Z</time></trkpt><trkpt lat="44.270027520705746" lon="11.726273134154939"><ele>69.8</ele><time>2026-05-01T14:56:17Z</time></trkpt><trkpt lat="44.269985589267556" lon="11.726389851329236"><ele>69.6</ele><time>2026-05-01T14:56:19Z</time></trkpt><trkpt lat="44.269947791479574" lon="11.726503086443033"><ele>69.4</ele><time>2026-05-01T14:56:21Z</time></trkpt><trkpt lat="44.269904811665356" lon="11.726628563446246"><ele>69.2</ele><time>2026-05-01T14:56:23Z</time></trkpt><trkpt lat="44.26985810193501" lon="11.726749946231275"><ele>69.0</ele><time>2026-05-01T14:56:25Z</time></trkpt><trkpt lat="44.26981617685301" lon="11.726871660057355"><ele>68.75</ele><time>2026-05-01T14:56:27Z</time></trkpt><trkpt lat="44.269768213174494" lon="11.727001858765892"><ele>68.5</ele><time>2026-05-01T14:56:29Z</time></trkpt><trkpt lat="44.26972465164067" lon="11.727140016238632"><ele>68.25</ele><time>2026-05-01T14:56:31Z</time></trkpt><trkpt lat="44.26966945475078" lon="11.727288806586316"><ele>68.0</ele><time>2026-05-01T14:56:33Z</time></trkpt><trkpt lat="44.269619307020804" lon="11.727436227886114"><ele>68.0</ele><time>2026-05-01T14:56:35Z</time></trkpt><trkpt lat="44.26957132528409" lon="11.727578828052525"><ele>68.0</ele><time>2026-05-01T14:56:37Z</time></trkpt><trkpt lat="44.26952145992402" lon="11.727717599028953"><ele>68.0</ele><time>2026-05-01T14:56:39Z</time></trkpt><trkpt lat="44.269471096900105" lon="11.727857341396414"><ele>68.0</ele><time>2026-05-01T14:56:41Z</time></trkpt><trkpt lat="44.2694176375406" lon="11.7279949432766"><ele>68.0</ele><time>2026-05-01T14:56:43Z</time></trkpt><trkpt lat="44.26936771815052" lon="11.72814577903987"><ele>68.4</ele><time>2026-05-01T14:56:45Z</time></trkpt><trkpt lat="44.269322024374105" lon="11.728284137645423"><ele>68.8</ele><time>2026-05-01T14:56:47Z</time></trkpt><trkpt lat="44.26927365101275" lon="11.728412927038361"><ele>69.2</ele><time>2026-05-01T14:56:49Z</time></trkpt><trkpt lat="44.26923078862069" lon="11.72853982247632"><ele>69.6</ele><time>2026-05-01T14:56:51Z</time></trkpt><trkpt lat="44.269190788905206" lon="11.728655441849963"><ele>70.0</ele><time>2026-05-01T14:56:53Z</time></trkpt><trkpt lat="44.269146884409096" lon="11.728767487123818"><ele>70.0</ele><time>2026-05-01T14:56:55Z</time></trkpt><trkpt lat="44.26911329544557" lon="11.728872612024908"><ele>70.0</ele><time>2026-05-01T14:56:57Z</time></trkpt><trkpt lat="44.26907982406982" lon="11.728968457752432"><ele>70.0</ele><time>2026-05-01T14:56:59Z</time></trkpt><trkpt lat="44.269050847498555" lon="11.729057336570916"><ele>70.0</ele><time>2026-05-01T14:57:01Z</time></trkpt><trkpt lat="44.26902109518798" lon="11.729181270273392"><ele>70.0</ele><time>2026-05-01T14:57:04Z</time></trkpt><trkpt lat="44.26900035222468" lon="11.72929373401889"><ele>70.0</ele><time>2026-05-01T14:57:07Z</time></trkpt><trkpt lat="44.26898931608023" lon="11.72940832717984"><ele>70.83333333333333</ele><time>2026-05-01T14:57:10Z</time></trkpt><trkpt lat="44.26897311028082" lon="11.729514066720162"><ele>71.66666666666666</ele><time>2026-05-01T14:57:13Z</time></trkpt><trkpt lat="44.26897491539703" lon="11.729626428783883"><ele>72.5</ele><time>2026-05-01T14:57:16Z</time></trkpt><trkpt lat="44.26896674941745" lon="11.729728957174975"><ele>73.33333333333333</ele><time>2026-05-01T14:57:19Z</time></trkpt><trkpt lat="44.26896729181256" lon="11.729826789958432"><ele>74.16666666666667</ele><time>2026-05-01T14:57:22Z</time></trkpt><trkpt lat="44.26896448509628" lon="11.72994076013587"><ele>75.0</ele><time>2026-05-01T14:57:25.999Z</time></trkpt><trkpt lat="44.268958177848056" lon="11.730053120903333"><ele>75.0</ele><time>2026-05-01T14:57:29.999Z</time></trkpt><trkpt lat="44.268952670970286" lon="11.730160465700168"><ele>75.0</ele><time>2026-05-01T14:57:33.999Z</time></trkpt><trkpt lat="44.26892874599174" lon="11.73026249858493"><ele>75.0</ele><time>2026-05-01T14:57:37.999Z</time></trkpt><trkpt lat="44.268880215157274" lon="11.730348771781848"><ele>75.0</ele><time>2026-05-01T14:57:41.999Z</time></trkpt><trkpt lat="44.26880354465373" lon="11.730368933224327"><ele>75.0</ele><time>2026-05-01T14:57:45.999Z</time></trkpt><trkpt lat="44.268735256563126" lon="11.730337589099229"><ele>75.0</ele><time>2026-05-01T14:57:49.999Z</time></trkpt><trkpt lat="44.26867967113276" lon="11.730275905252267"><ele>76.28571428571428</ele><time>2026-05-01T14:57:54Z</time></trkpt><trkpt lat="44.268646991586074" lon="11.730183824124905"><ele>77.57142857142857</ele><time>2026-05-01T14:57:58Z</time></trkpt><trkpt lat="44.268625950662376" lon="11.730094287336211"><ele>78.85714285714286</ele><time>2026-05-01T14:58:02Z</time></trkpt><trkpt lat="44.26860128769034" lon="11.72999073529791"><ele>80.14285714285714</ele><time>2026-05-01T14:58:07Z</time></trkpt><trkpt lat="44.26857500750735" lon="11.729901294116164"><ele>81.42857142857143</ele><time>2026-05-01T14:58:11Z</time></trkpt><trkpt lat="44.26854954975292" lon="11.729816026188221"><ele>82.71428571428571</ele><time>2026-05-01T14:58:15Z</time></trkpt><trkpt lat="44.268524661781484" lon="11.72973310297118"><ele>84.0</ele><time>2026-05-01T14:58:19Z</time></trkpt><trkpt lat="44.26849467240333" lon="11.729632148060285"><ele>84.0</ele><time>2026-05-01T14:58:24Z</time></trkpt><trkpt lat="44.26846411450093" lon="11.729532218137907"><ele>84.0</ele><time>2026-05-01T14:58:29Z</time></trkpt><trkpt lat="44.2684460051229" lon="11.729446323695997"><ele>84.0</ele><time>2026-05-01T14:58:33Z</time></trkpt><trkpt lat="44.26841867778983" lon="11.729341621480293"><ele>84.0</ele><time>2026-05-01T14:58:38Z</time></trkpt><trkpt lat="44.26838809722533" lon="11.729244113810973"><ele>84.0</ele><time>2026-05-01T14:58:43Z</time></trkpt><trkpt lat="44.26835069071851" lon="11.729148928175341"><ele>84.0</ele><time>2026-05-01T14:58:48Z</time></trkpt><trkpt lat="44.2683180101786" lon="11.729050707511217"><ele>83.66666666666667</ele><time>2026-05-01T14:58:53Z</time></trkpt><trkpt lat="44.268266630283925" lon="11.728976742996887"><ele>83.33333333333333</ele><time>2026-05-01T14:58:57Z</time></trkpt><trkpt lat="44.26820544797526" lon="11.72892152706607"><ele>83.0</ele><time>2026-05-01T14:59:01Z</time></trkpt><trkpt lat="44.26814485833979" lon="11.728862960728069"><ele>82.66666666666666</ele><time>2026-05-01T14:59:05Z</time></trkpt><trkpt lat="44.26807711775216" lon="11.728813442744348"><ele>82.33333333333333</ele><time>2026-05-01T14:59:09Z</time></trkpt><trkpt lat="44.268005047922635" lon="11.728765491255198"><ele>82.0</ele><time>2026-05-01T14:59:13Z</time></trkpt><trkpt lat="44.26794127007435" lon="11.72871550943127"><ele>83.42857142857142</ele><time>2026-05-01T14:59:17Z</time></trkpt><trkpt lat="44.267875703841064" lon="11.728676654878349"><ele>84.85714285714286</ele><time>2026-05-01T14:59:21Z</time></trkpt><trkpt lat="44.26781049074368" lon="11.728634891686367"><ele>86.28571428571428</ele><time>2026-05-01T14:59:25Z</time></trkpt><trkpt lat="44.2677424923062" lon="11.728608331073302"><ele>87.71428571428571</ele><time>2026-05-01T14:59:29Z</time></trkpt><trkpt lat="44.2676688135539" lon="11.728581439666089"><ele>89.14285714285714</ele><time>2026-05-01T14:59:33Z</time></trkpt><trkpt lat="44.26759729294484" lon="11.728581860007901"><ele>90.57142857142857</ele><time>2026-05-01T14:59:36.999Z</time></trkpt><trkpt lat="44.26752261396895" lon="11.72860126101349"><ele>92.0</ele><time>2026-05-01T14:59:40.999Z</time></trkpt><trkpt lat="44.267449693208" lon="11.728627460426804"><ele>92.0</ele><time>2026-05-01T14:59:44.999Z</time></trkpt><trkpt lat="44.26737211002955" lon="11.72865112035037"><ele>92.0</ele><time>2026-05-01T14:59:48.999Z</time></trkpt><trkpt lat="44.267297406661044" lon="11.728680468803296"><ele>92.0</ele><time>2026-05-01T14:59:52.999Z</time></trkpt><trkpt lat="44.26722843612313" lon="11.728711442789475"><ele>92.0</ele><time>2026-05-01T14:59:56.999Z</time></trkpt><trkpt lat="44.2671540639419" lon="11.728744845915658"><ele>92.0</ele><time>2026-05-01T15:00:01Z</time></trkpt><trkpt lat="44.26707653249815" lon="11.728772969374912"><ele>92.0</ele><time>2026-05-01T15:00:05Z</time></trkpt><trkpt lat="44.267004443042694" lon="11.728793283742721"><ele>93.16666666666667</ele><time>2026-05-01T15:00:09Z</time></trkpt><trkpt lat="44.26692929969786" lon="11.728817473272253"><ele>94.33333333333334</ele><time>2026-05-01T15:00:13Z</time></trkpt><trkpt lat="44.26685064451584" lon="11.728846493702008"><ele>95.5</ele><time>2026-05-01T15:00:17Z</time></trkpt><trkpt lat="44.26676918513163" lon="11.728839335814367"><ele>96.66666666666667</ele><time>2026-05-01T15:00:21Z</time></trkpt><trkpt lat="44.26669147119517" lon="11.728833249916987"><ele>97.83333333333333</ele><time>2026-05-01T15:00:25Z</time></trkpt><trkpt lat="44.2666306769913" lon="11.728800469675308"><ele>99.0</ele><time>2026-05-01T15:00:28Z</time></trkpt><trkpt lat="44.266565087775945" lon="11.728783454852865"><ele>99.0</ele><time>2026-05-01T15:00:31Z</time></trkpt><trkpt lat="44.2665054164377" lon="11.728753647928807"><ele>99.0</ele><time>2026-05-01T15:00:34Z</time></trkpt><trkpt lat="44.26644028199505" lon="11.728726240008205"><ele>99.0</ele><time>2026-05-01T15:00:37Z</time></trkpt><trkpt lat="44.266375166696385" lon="11.728695413722434"><ele>99.0</ele><time>2026-05-01T15:00:40Z</time></trkpt><trkpt lat="44.266310286203286" lon="11.728674243009179"><ele>99.0</ele><time>2026-05-01T15:00:43Z</time></trkpt><trkpt lat="44.26623153611079" lon="11.728637769513796"><ele>99.0</ele><time>2026-05-01T15:00:47Z</time></trkpt><trkpt lat="44.266168867518" lon="11.728626872886618"><ele>99.0</ele><time>2026-05-01T15:00:50Z</time></trkpt><trkpt lat="44.26610471944662" lon="11.728599308171828"><ele>99.71428571428572</ele><time>2026-05-01T15:00:53Z</time></trkpt><trkpt lat="44.266041883941156" lon="11.728582241903627"><ele>100.42857142857142</ele><time>2026-05-01T15:00:56Z</time></trkpt><trkpt lat="44.26597624508392" lon="11.72857350101175"><ele>101.14285714285714</ele><time>2026-05-01T15:00:59Z</time></trkpt><trkpt lat="44.265892835549174" lon="11.728589831065124"><ele>101.85714285714286</ele><time>2026-05-01T15:01:03Z</time></trkpt><trkpt lat="44.265829347256656" lon="11.728611822672907"><ele>102.57142857142858</ele><time>2026-05-01T15:01:06Z</time></trkpt><trkpt lat="44.26576672415377" lon="11.728639844000575"><ele>103.28571428571428</ele><time>2026-05-01T15:01:09Z</time></trkpt><trkpt lat="44.26570329605789" lon="11.728684478783494"><ele>104.0</ele><time>2026-05-01T15:01:12Z</time></trkpt><trkpt lat="44.265631910842565" lon="11.728744729578711"><ele>103.99999999999999</ele><time>2026-05-01T15:01:15Z</time></trkpt><trkpt lat="44.2655656509732" lon="11.728820340700343"><ele>104.0</ele><time>2026-05-01T15:01:18Z</time></trkpt><trkpt lat="44.265508024195036" lon="11.728914769254095"><ele>104.0</ele><time>2026-05-01T15:01:21Z</time></trkpt><trkpt lat="44.265470014171385" lon="11.728997145819902"><ele>104.0</ele><time>2026-05-01T15:01:23Z</time></trkpt><trkpt lat="44.26543539465409" lon="11.729079477607453"><ele>103.99999999999999</ele><time>2026-05-01T15:01:25Z</time></trkpt><trkpt lat="44.265390074681655" lon="11.729166365745579"><ele>104.0</ele><time>2026-05-01T15:01:27Z</time></trkpt><trkpt lat="44.26535597763078" lon="11.729266516821623"><ele>104.0</ele><time>2026-05-01T15:01:29Z</time></trkpt><trkpt lat="44.265318697679206" lon="11.729374201589854"><ele>104.0</ele><time>2026-05-01T15:01:30.999Z</time></trkpt><trkpt lat="44.26528051435403" lon="11.72948067519998"><ele>104.0</ele><time>2026-05-01T15:01:32.999Z</time></trkpt><trkpt lat="44.26524436343795" lon="11.729599007153904"><ele>104.0</ele><time>2026-05-01T15:01:34.999Z</time></trkpt><trkpt lat="44.26521081740122" lon="11.729723672629717"><ele>104.0</ele><time>2026-05-01T15:01:36.999Z</time></trkpt><trkpt lat="44.26517983559616" lon="11.729851030742442"><ele>103.80000000000001</ele><time>2026-05-01T15:01:38.999Z</time></trkpt><trkpt lat="44.265151455041284" lon="11.729982384996308"><ele>103.60000000000001</ele><time>2026-05-01T15:01:40.999Z</time></trkpt><trkpt lat="44.26513326593107" lon="11.730117263640677"><ele>103.4</ele><time>2026-05-01T15:01:42.999Z</time></trkpt><trkpt lat="44.265112904625404" lon="11.73026057351516"><ele>103.2</ele><time>2026-05-01T15:01:44.999Z</time></trkpt><trkpt lat="44.26508963389054" lon="11.73039806651997"><ele>103.0</ele><time>2026-05-01T15:01:46.999Z</time></trkpt><trkpt lat="44.265078442887635" lon="11.730535664355289"><ele>103.0</ele><time>2026-05-01T15:01:48.999Z</time></trkpt><trkpt lat="44.26507028737701" lon="11.730671118301558"><ele>103.0</ele><time>2026-05-01T15:01:50.999Z</time></trkpt><trkpt lat="44.265069640607486" lon="11.73080678731865"><ele>103.0</ele><time>2026-05-01T15:01:52.999Z</time></trkpt><trkpt lat="44.26507375231522" lon="11.730943570864408"><ele>103.0</ele><time>2026-05-01T15:01:54.999Z</time></trkpt><trkpt lat="44.265091036132965" lon="11.731077838951256"><ele>103.0</ele><time>2026-05-01T15:01:56.999Z</time></trkpt><trkpt lat="44.265106699599784" lon="11.731211435008369"><ele>103.0</ele><time>2026-05-01T15:01:58.999Z</time></trkpt><trkpt lat="44.26511731740985" lon="11.731351924882588"><ele>103.0</ele><time>2026-05-01T15:02:00.999Z</time></trkpt><trkpt lat="44.265125731479415" lon="11.7314902558527"><ele>103.0</ele><time>2026-05-01T15:02:02.999Z</time></trkpt><trkpt lat="44.26514186266689" lon="11.73162555116833"><ele>103.0</ele><time>2026-05-01T15:02:04.999Z</time></trkpt><trkpt lat="44.265158588525644" lon="11.7317618550883"><ele>103.0</ele><time>2026-05-01T15:02:07Z</time></trkpt><trkpt lat="44.26516748911232" lon="11.731899637946167"><ele>102.60000000000001</ele><time>2026-05-01T15:02:09Z</time></trkpt><trkpt lat="44.26518632794166" lon="11.732035114571621"><ele>102.2</ele><time>2026-05-01T15:02:11Z</time></trkpt><trkpt lat="44.265198119556445" lon="11.732173246939292"><ele>101.8</ele><time>2026-05-01T15:02:13Z</time></trkpt><trkpt lat="44.265217751442634" lon="11.73230979254958"><ele>101.4</ele><time>2026-05-01T15:02:15Z</time></trkpt><trkpt lat="44.2652360780766" lon="11.73245025289412"><ele>101.0</ele><time>2026-05-01T15:02:17Z</time></trkpt><trkpt lat="44.26523902373469" lon="11.732592870738886"><ele>100.6</ele><time>2026-05-01T15:02:19Z</time></trkpt><trkpt lat="44.26523882874499" lon="11.732741543962206"><ele>100.19999999999999</ele><time>2026-05-01T15:02:21Z</time></trkpt><trkpt lat="44.26522321796659" lon="11.732884967593058"><ele>99.80000000000001</ele><time>2026-05-01T15:02:23Z</time></trkpt><trkpt lat="44.265200589115636" lon="11.733033607842328"><ele>99.4</ele><time>2026-05-01T15:02:25Z</time></trkpt><trkpt lat="44.265184263265574" lon="11.733182535380125"><ele>99.0</ele><time>2026-05-01T15:02:27Z</time></trkpt><trkpt lat="44.26516495937801" lon="11.733324515929478"><ele>99.0</ele><time>2026-05-01T15:02:29Z</time></trkpt><trkpt lat="44.265151330829944" lon="11.733471172674742"><ele>99.0</ele><time>2026-05-01T15:02:31Z</time></trkpt><trkpt lat="44.26513278422015" lon="11.733615745788743"><ele>99.0</ele><time>2026-05-01T15:02:33Z</time></trkpt><trkpt lat="44.265115070695835" lon="11.733760344232836"><ele>99.0</ele><time>2026-05-01T15:02:35Z</time></trkpt><trkpt lat="44.26510706548914" lon="11.733902301976435"><ele>99.0</ele><time>2026-05-01T15:02:37Z</time></trkpt><trkpt lat="44.265081859041814" lon="11.734050615660301"><ele>99.0</ele><time>2026-05-01T15:02:39Z</time></trkpt><trkpt lat="44.26505968692809" lon="11.734196757323929"><ele>99.0</ele><time>2026-05-01T15:02:41Z</time></trkpt><trkpt lat="44.26504024834149" lon="11.734340105534871"><ele>99.0</ele><time>2026-05-01T15:02:43Z</time></trkpt><trkpt lat="44.26501979206313" lon="11.734492467623742"><ele>99.0</ele><time>2026-05-01T15:02:45Z</time></trkpt><trkpt lat="44.265002942079" lon="11.73464454609476"><ele>99.0</ele><time>2026-05-01T15:02:47Z</time></trkpt><trkpt lat="44.26498442341934" lon="11.734794663678539"><ele>99.0</ele><time>2026-05-01T15:02:49Z</time></trkpt><trkpt lat="44.26496752223748" lon="11.734949750021906"><ele>99.0</ele><time>2026-05-01T15:02:51Z</time></trkpt><trkpt lat="44.26495093888444" lon="11.735104508491956"><ele>99.0</ele><time>2026-05-01T15:02:53Z</time></trkpt><trkpt lat="44.26493193970648" lon="11.735267966021938"><ele>99.0</ele><time>2026-05-01T15:02:55Z</time></trkpt><trkpt lat="44.26490741226947" lon="11.73542557262008"><ele>98.25</ele><time>2026-05-01T15:02:57Z</time></trkpt><trkpt lat="44.26486401240262" lon="11.735579248836299"><ele>97.5</ele><time>2026-05-01T15:02:59Z</time></trkpt><trkpt lat="44.26479905705053" lon="11.735717068584512"><ele>96.75</ele><time>2026-05-01T15:03:01Z</time></trkpt><trkpt lat="44.264727597439474" lon="11.735846121184224"><ele>96.0</ele><time>2026-05-01T15:03:03Z</time></trkpt><trkpt lat="44.26465717550219" lon="11.735974562401346"><ele>95.5</ele><time>2026-05-01T15:03:05Z</time></trkpt><trkpt lat="44.26458182980492" lon="11.736098970919913"><ele>95.0</ele><time>2026-05-01T15:03:07Z</time></trkpt><trkpt lat="44.264507541134606" lon="11.73622001723026"><ele>94.5</ele><time>2026-05-01T15:03:09Z</time></trkpt><trkpt lat="44.26443878876764" lon="11.736338391059446"><ele>94.0</ele><time>2026-05-01T15:03:11Z</time></trkpt><trkpt lat="44.264374866867946" lon="11.73647125490893"><ele>94.0</ele><time>2026-05-01T15:03:13Z</time></trkpt><trkpt lat="44.264302288156955" lon="11.736591690961985"><ele>94.0</ele><time>2026-05-01T15:03:15Z</time></trkpt><trkpt lat="44.26423662332933" lon="11.736706761416098"><ele>94.0</ele><time>2026-05-01T15:03:17Z</time></trkpt><trkpt lat="44.26417440447417" lon="11.736826920191001"><ele>94.0</ele><time>2026-05-01T15:03:19Z</time></trkpt><trkpt lat="44.26410943324077" lon="11.736940215250513"><ele>94.0</ele><time>2026-05-01T15:03:21Z</time></trkpt><trkpt lat="44.26404354158511" lon="11.737056347273436"><ele>93.6</ele><time>2026-05-01T15:03:23Z</time></trkpt><trkpt lat="44.26398078501687" lon="11.737171383434784"><ele>93.2</ele><time>2026-05-01T15:03:25Z</time></trkpt><trkpt lat="44.263915461361286" lon="11.737283377756585"><ele>92.8</ele><time>2026-05-01T15:03:27Z</time></trkpt><trkpt lat="44.263856265225726" lon="11.737392026526097"><ele>92.39999999999999</ele><time>2026-05-01T15:03:29Z</time></trkpt><trkpt lat="44.26379484337383" lon="11.737504287941253"><ele>92.0</ele><time>2026-05-01T15:03:31Z</time></trkpt><trkpt lat="44.26373523872293" lon="11.737610580719148"><ele>92.8</ele><time>2026-05-01T15:03:33Z</time></trkpt><trkpt lat="44.2636855471693" lon="11.737716944784745"><ele>93.6</ele><time>2026-05-01T15:03:35Z</time></trkpt><trkpt lat="44.263638616029084" lon="11.737842073899161"><ele>94.39999999999999</ele><time>2026-05-01T15:03:37Z</time></trkpt><trkpt lat="44.263588848225105" lon="11.737958205892568"><ele>95.19999999999999</ele><time>2026-05-01T15:03:39Z</time></trkpt><trkpt lat="44.26354506916272" lon="11.738084900414737"><ele>96.0</ele><time>2026-05-01T15:03:41Z</time></trkpt><trkpt lat="44.263496010083905" lon="11.738201821203035"><ele>96.8</ele><time>2026-05-01T15:03:43Z</time></trkpt><trkpt lat="44.263451139535036" lon="11.738323231612144"><ele>97.6</ele><time>2026-05-01T15:03:44.999Z</time></trkpt><trkpt lat="44.263402205446276" lon="11.73844371114685"><ele>98.4</ele><time>2026-05-01T15:03:46.999Z</time></trkpt><trkpt lat="44.26336316149255" lon="11.738562299888356"><ele>99.2</ele><time>2026-05-01T15:03:48.999Z</time></trkpt><trkpt lat="44.263313522600235" lon="11.738683703166394"><ele>100.0</ele><time>2026-05-01T15:03:50.999Z</time></trkpt><trkpt lat="44.26326532007719" lon="11.738800782662759"><ele>100.2</ele><time>2026-05-01T15:03:52.999Z</time></trkpt><trkpt lat="44.26321817292517" lon="11.738918938560014"><ele>100.4</ele><time>2026-05-01T15:03:54.999Z</time></trkpt><trkpt lat="44.26315674853524" lon="11.739036400108382"><ele>100.6</ele><time>2026-05-01T15:03:56.999Z</time></trkpt><trkpt lat="44.2631132802198" lon="11.739153216057638"><ele>100.8</ele><time>2026-05-01T15:03:58.999Z</time></trkpt><trkpt lat="44.263066713745864" lon="11.739274924854941"><ele>101.0</ele><time>2026-05-01T15:04:00.999Z</time></trkpt><trkpt lat="44.26302420038147" lon="11.739403609930529"><ele>100.4</ele><time>2026-05-01T15:04:02.999Z</time></trkpt><trkpt lat="44.26297229530027" lon="11.739526344207686"><ele>99.8</ele><time>2026-05-01T15:04:04.999Z</time></trkpt><trkpt lat="44.26292759091662" lon="11.739654768837571"><ele>99.2</ele><time>2026-05-01T15:04:06.999Z</time></trkpt><trkpt lat="44.262882384012244" lon="11.739789366562329"><ele>98.60000000000001</ele><time>2026-05-01T15:04:08.999Z</time></trkpt><trkpt lat="44.2628612010455" lon="11.739932390117357"><ele>98.0</ele><time>2026-05-01T15:04:10.999Z</time></trkpt><trkpt lat="44.26284088037769" lon="11.740079856976298"><ele>97.80000000000001</ele><time>2026-05-01T15:04:13Z</time></trkpt><trkpt lat="44.2628294885727" lon="11.740229752838893"><ele>97.6</ele><time>2026-05-01T15:04:15Z</time></trkpt><trkpt lat="44.26282106167362" lon="11.7403760626151"><ele>97.4</ele><time>2026-05-01T15:04:17Z</time></trkpt><trkpt lat="44.26281257858351" lon="11.740530973168651"><ele>97.19999999999999</ele><time>2026-05-01T15:04:19Z</time></trkpt><trkpt lat="44.2628016869221" lon="11.740683015521002"><ele>97.0</ele><time>2026-05-01T15:04:21Z</time></trkpt><trkpt lat="44.26279621632611" lon="11.740840283782553"><ele>97.0</ele><time>2026-05-01T15:04:23Z</time></trkpt><trkpt lat="44.2627813332264" lon="11.740998002903778"><ele>97.0</ele><time>2026-05-01T15:04:25Z</time></trkpt><trkpt lat="44.26276142143488" lon="11.74115362935821"><ele>97.0</ele><time>2026-05-01T15:04:27Z</time></trkpt><trkpt lat="44.262736524452954" lon="11.741318761030826"><ele>97.0</ele><time>2026-05-01T15:04:29Z</time></trkpt><trkpt lat="44.262701516532395" lon="11.74147458144557"><ele>97.0</ele><time>2026-05-01T15:04:31Z</time></trkpt><trkpt lat="44.262661732020916" lon="11.741630065602704"><ele>97.0</ele><time>2026-05-01T15:04:33Z</time></trkpt><trkpt lat="44.26261521924851" lon="11.741788069092662"><ele>97.0</ele><time>2026-05-01T15:04:35Z</time></trkpt><trkpt lat="44.26256056727368" lon="11.74193685558428"><ele>97.0</ele><time>2026-05-01T15:04:37Z</time></trkpt><trkpt lat="44.262506040309084" lon="11.742074112873818"><ele>96.6</ele><time>2026-05-01T15:04:39Z</time></trkpt><trkpt lat="44.26245291241897" lon="11.742211245863032"><ele>96.19999999999999</ele><time>2026-05-01T15:04:41Z</time></trkpt><trkpt lat="44.262400576851945" lon="11.742343313762328"><ele>95.8</ele><time>2026-05-01T15:04:43Z</time></trkpt><trkpt lat="44.26235093581152" lon="11.7424776858472"><ele>95.4</ele><time>2026-05-01T15:04:45Z</time></trkpt><trkpt lat="44.26230230961326" lon="11.742603891523355"><ele>95.0</ele><time>2026-05-01T15:04:47Z</time></trkpt><trkpt lat="44.26225094803239" lon="11.742721983592913"><ele>95.0</ele><time>2026-05-01T15:04:49Z</time></trkpt><trkpt lat="44.26220500688384" lon="11.742846562758826"><ele>95.0</ele><time>2026-05-01T15:04:51Z</time></trkpt><trkpt lat="44.26215753618163" lon="11.742966058575604"><ele>95.0</ele><time>2026-05-01T15:04:53Z</time></trkpt><trkpt lat="44.262111349558005" lon="11.743089696146153"><ele>95.0</ele><time>2026-05-01T15:04:55Z</time></trkpt><trkpt lat="44.26206475331043" lon="11.74320766954524"><ele>95.0</ele><time>2026-05-01T15:04:57Z</time></trkpt><trkpt lat="44.26202055798939" lon="11.74332657278909"><ele>95.0</ele><time>2026-05-01T15:04:59Z</time></trkpt><trkpt lat="44.26197171860697" lon="11.743455382014293"><ele>95.0</ele><time>2026-05-01T15:05:01Z</time></trkpt><trkpt lat="44.26192453421756" lon="11.743575348593374"><ele>95.0</ele><time>2026-05-01T15:05:03Z</time></trkpt><trkpt lat="44.261878194069126" lon="11.743701878195132"><ele>95.0</ele><time>2026-05-01T15:05:05Z</time></trkpt><trkpt lat="44.26183332405622" lon="11.743827262186343"><ele>95.0</ele><time>2026-05-01T15:05:07Z</time></trkpt><trkpt lat="44.26178686577536" lon="11.743946624277216"><ele>95.0</ele><time>2026-05-01T15:05:09Z</time></trkpt><trkpt lat="44.26174391713043" lon="11.744070207816444"><ele>95.0</ele><time>2026-05-01T15:05:11Z</time></trkpt><trkpt lat="44.26169819740912" lon="11.7442016239176"><ele>95.0</ele><time>2026-05-01T15:05:13Z</time></trkpt><trkpt lat="44.26164820622136" lon="11.744321471441987"><ele>95.0</ele><time>2026-05-01T15:05:15Z</time></trkpt><trkpt lat="44.2616009782755" lon="11.744443848626362"><ele>95.0</ele><time>2026-05-01T15:05:17Z</time></trkpt><trkpt lat="44.26155078127967" lon="11.744565433202204"><ele>95.0</ele><time>2026-05-01T15:05:19Z</time></trkpt><trkpt lat="44.261503553993734" lon="11.744688083860511"><ele>95.0</ele><time>2026-05-01T15:05:21Z</time></trkpt><trkpt lat="44.26145019919642" lon="11.744796930537902"><ele>95.0</ele><time>2026-05-01T15:05:23Z</time></trkpt><trkpt lat="44.26141123009427" lon="11.744930270213878"><ele>95.0</ele><time>2026-05-01T15:05:25Z</time></trkpt><trkpt lat="44.261361079442615" lon="11.745058090914394"><ele>95.0</ele><time>2026-05-01T15:05:27Z</time></trkpt><trkpt lat="44.26130251136869" lon="11.745164234044998"><ele>94.8</ele><time>2026-05-01T15:05:29Z</time></trkpt><trkpt lat="44.26123215605905" lon="11.745243879762116"><ele>94.6</ele><time>2026-05-01T15:05:31Z</time></trkpt><trkpt lat="44.26115427994081" lon="11.745267370551515"><ele>94.4</ele><time>2026-05-01T15:05:33Z</time></trkpt><trkpt lat="44.26118935115143" lon="11.74547717826669"><ele>94.2</ele><time>2026-05-01T15:05:36Z</time></trkpt><trkpt lat="44.261273992447585" lon="11.745547933533409"><ele>94.0</ele><time>2026-05-01T15:05:38Z</time></trkpt><trkpt lat="44.261363642464346" lon="11.745614999506815"><ele>93.80000000000001</ele><time>2026-05-01T15:05:40Z</time></trkpt><trkpt lat="44.26145579859358" lon="11.745684066842017"><ele>93.60000000000001</ele><time>2026-05-01T15:05:41.999Z</time></trkpt><trkpt lat="44.26154882588985" lon="11.745760571942359"><ele>93.4</ele><time>2026-05-01T15:05:43.999Z</time></trkpt><trkpt lat="44.26164700181269" lon="11.74582714047359"><ele>93.2</ele><time>2026-05-01T15:05:45.999Z</time></trkpt><trkpt lat="44.26173721697006" lon="11.745913189117807"><ele>93.0</ele><time>2026-05-01T15:05:47.999Z</time></trkpt><trkpt lat="44.26182650120667" lon="11.746001769438578"><ele>93.2</ele><time>2026-05-01T15:05:49.999Z</time></trkpt><trkpt lat="44.261916024060874" lon="11.746084579766224"><ele>93.4</ele><time>2026-05-01T15:05:51.999Z</time></trkpt><trkpt lat="44.26200801126102" lon="11.74616350629245"><ele>93.60000000000001</ele><time>2026-05-01T15:05:53.999Z</time></trkpt><trkpt lat="44.26210450966705" lon="11.74623684383037"><ele>93.80000000000001</ele><time>2026-05-01T15:05:55.999Z</time></trkpt><trkpt lat="44.262199726777496" lon="11.746323276097206"><ele>94.0</ele><time>2026-05-01T15:05:57.999Z</time></trkpt><trkpt lat="44.262297677031505" lon="11.746410901925705"><ele>93.5</ele><time>2026-05-01T15:05:59.999Z</time></trkpt><trkpt lat="44.262401870079465" lon="11.746495984228442"><ele>93.0</ele><time>2026-05-01T15:06:01.999Z</time></trkpt><trkpt lat="44.262501917586135" lon="11.746582850854324"><ele>92.5</ele><time>2026-05-01T15:06:03.999Z</time></trkpt><trkpt lat="44.262604999888076" lon="11.74666166037905"><ele>92.0</ele><time>2026-05-01T15:06:05.999Z</time></trkpt><trkpt lat="44.26270732431985" lon="11.746752221598054"><ele>92.0</ele><time>2026-05-01T15:06:07.999Z</time></trkpt><trkpt lat="44.26281460838242" lon="11.746830595076018"><ele>92.0</ele><time>2026-05-01T15:06:09.999Z</time></trkpt><trkpt lat="44.26291357592075" lon="11.74691834432059"><ele>92.0</ele><time>2026-05-01T15:06:11.999Z</time></trkpt><trkpt lat="44.262966153025666" lon="11.746968952328023"><ele>92.0</ele><time>2026-05-01T15:06:12.999Z</time></trkpt><trkpt lat="44.26307058695998" lon="11.74705817870657"><ele>92.0</ele><time>2026-05-01T15:06:14.999Z</time></trkpt><trkpt lat="44.26317466778355" lon="11.747144112209597"><ele>91.5</ele><time>2026-05-01T15:06:16.999Z</time></trkpt><trkpt lat="44.26327684647715" lon="11.747243852369262"><ele>91.0</ele><time>2026-05-01T15:06:19Z</time></trkpt><trkpt lat="44.26338264359709" lon="11.747330939536358"><ele>90.5</ele><time>2026-05-01T15:06:21Z</time></trkpt><trkpt lat="44.26348296695397" lon="11.747429308059761"><ele>90.0</ele><time>2026-05-01T15:06:23Z</time></trkpt><trkpt lat="44.26358883241695" lon="11.74751776402083"><ele>90.0</ele><time>2026-05-01T15:06:25Z</time></trkpt><trkpt lat="44.26369046427695" lon="11.747603305968505"><ele>90.0</ele><time>2026-05-01T15:06:27Z</time></trkpt><trkpt lat="44.263793098486886" lon="11.747687346117713"><ele>90.0</ele><time>2026-05-01T15:06:29Z</time></trkpt><trkpt lat="44.26389734382243" lon="11.747766442577985"><ele>90.0</ele><time>2026-05-01T15:06:31Z</time></trkpt><trkpt lat="44.26400324651592" lon="11.747830415788426"><ele>90.0</ele><time>2026-05-01T15:06:33Z</time></trkpt><trkpt lat="44.26411697048566" lon="11.747877199791075"><ele>90.0</ele><time>2026-05-01T15:06:35Z</time></trkpt><trkpt lat="44.26422803019298" lon="11.747929833499992"><ele>90.0</ele><time>2026-05-01T15:06:37Z</time></trkpt><trkpt lat="44.26433587297657" lon="11.747980796171083"><ele>90.0</ele><time>2026-05-01T15:06:39Z</time></trkpt><trkpt lat="44.26443777085806" lon="11.748049691988568"><ele>90.0</ele><time>2026-05-01T15:06:41Z</time></trkpt><trkpt lat="44.26453130083083" lon="11.7481346047854"><ele>90.0</ele><time>2026-05-01T15:06:43Z</time></trkpt><trkpt lat="44.26461971858317" lon="11.748216809947882"><ele>90.0</ele><time>2026-05-01T15:06:45Z</time></trkpt><trkpt lat="44.2647094349403" lon="11.748284769769961"><ele>90.0</ele><time>2026-05-01T15:06:47Z</time></trkpt><trkpt lat="44.264790284343924" lon="11.748354304887243"><ele>90.0</ele><time>2026-05-01T15:06:49Z</time></trkpt><trkpt lat="44.26486416825035" lon="11.748442085859846"><ele>89.6</ele><time>2026-05-01T15:06:51Z</time></trkpt><trkpt lat="44.26492374849563" lon="11.748554766096918"><ele>89.2</ele><time>2026-05-01T15:06:53Z</time></trkpt><trkpt lat="44.26486724014434" lon="11.748682973647576"><ele>88.80000000000001</ele><time>2026-05-01T15:06:55Z</time></trkpt><trkpt lat="44.26480385941748" lon="11.748784527206894"><ele>88.4</ele><time>2026-05-01T15:06:57Z</time></trkpt><trkpt lat="44.26476002363163" lon="11.748871638227424"><ele>88.0</ele><time>2026-05-01T15:06:59Z</time></trkpt><trkpt lat="44.26469836192107" lon="11.74891878890717"><ele>88.0</ele><time>2026-05-01T15:07:01Z</time></trkpt><trkpt lat="44.26461253435364" lon="11.748894017319584"><ele>88.0</ele><time>2026-05-01T15:07:04Z</time></trkpt><trkpt lat="44.26454107823685" lon="11.748914122367069"><ele>88.0</ele><time>2026-05-01T15:07:06Z</time></trkpt><trkpt lat="44.26445862574152" lon="11.748936625855583"><ele>88.0</ele><time>2026-05-01T15:07:09Z</time></trkpt><trkpt lat="44.264369635066025" lon="11.748956056189389"><ele>88.0</ele><time>2026-05-01T15:07:12Z</time></trkpt><trkpt lat="44.2643210395045" lon="11.749033741788486"><ele>88.0</ele><time>2026-05-01T15:07:14Z</time></trkpt><trkpt lat="44.26425465174959" lon="11.749141975497022"><ele>88.0</ele><time>2026-05-01T15:07:17Z</time></trkpt><trkpt lat="44.26420519705498" lon="11.749226512854012"><ele>88.0</ele><time>2026-05-01T15:07:19Z</time></trkpt><trkpt lat="44.264144856679295" lon="11.749316144402849"><ele>88.0</ele><time>2026-05-01T15:07:21Z</time></trkpt><trkpt lat="44.26410707591173" lon="11.749420581873704"><ele>88.0</ele><time>2026-05-01T15:07:23Z</time></trkpt><trkpt lat="44.264061643835014" lon="11.74950391421821"><ele>88.0</ele><time>2026-05-01T15:07:25Z</time></trkpt><trkpt lat="44.264019091817964" lon="11.749589094337232"><ele>88.0</ele><time>2026-05-01T15:07:27Z</time></trkpt><trkpt lat="44.263980512434784" lon="11.749681738495097"><ele>87.83333333333333</ele><time>2026-05-01T15:07:29Z</time></trkpt><trkpt lat="44.2639271641948" lon="11.749783911978081"><ele>87.66666666666666</ele><time>2026-05-01T15:07:31Z</time></trkpt><trkpt lat="44.26388493295622" lon="11.749891154386113"><ele>87.5</ele><time>2026-05-01T15:07:33Z</time></trkpt><trkpt lat="44.26383902114509" lon="11.749997194584433"><ele>87.33333333333333</ele><time>2026-05-01T15:07:35Z</time></trkpt><trkpt lat="44.263793902390745" lon="11.750092605779447"><ele>87.16666666666667</ele><time>2026-05-01T15:07:37Z</time></trkpt><trkpt lat="44.26375513593262" lon="11.750186443215906"><ele>87.0</ele><time>2026-05-01T15:07:39Z</time></trkpt><trkpt lat="44.26371398614893" lon="11.75027481637383"><ele>86.71428571428571</ele><time>2026-05-01T15:07:41Z</time></trkpt><trkpt lat="44.26368078515254" lon="11.750362015779302"><ele>86.42857142857143</ele><time>2026-05-01T15:07:42.999Z</time></trkpt><trkpt lat="44.26364527439203" lon="11.75044480897478"><ele>86.14285714285714</ele><time>2026-05-01T15:07:44.999Z</time></trkpt><trkpt lat="44.26361687787059" lon="11.750526295463452"><ele>85.85714285714286</ele><time>2026-05-01T15:07:46.999Z</time></trkpt><trkpt lat="44.26358616933461" lon="11.750607062514899"><ele>85.57142857142857</ele><time>2026-05-01T15:07:48.999Z</time></trkpt><trkpt lat="44.263546702704" lon="11.750686412424958"><ele>85.28571428571429</ele><time>2026-05-01T15:07:50.999Z</time></trkpt><trkpt lat="44.26351586583683" lon="11.750777408298983"><ele>85.0</ele><time>2026-05-01T15:07:52.999Z</time></trkpt><trkpt lat="44.26348562089799" lon="11.750870215095574"><ele>85.0</ele><time>2026-05-01T15:07:54.999Z</time></trkpt><trkpt lat="44.26345187948897" lon="11.750964296283053"><ele>85.0</ele><time>2026-05-01T15:07:56.999Z</time></trkpt><trkpt lat="44.26341360177087" lon="11.751063641760291"><ele>85.0</ele><time>2026-05-01T15:07:58.999Z</time></trkpt><trkpt lat="44.26336994590538" lon="11.751169742334886"><ele>85.0</ele><time>2026-05-01T15:08:00.999Z</time></trkpt><trkpt lat="44.263319027877216" lon="11.751298121720279"><ele>85.0</ele><time>2026-05-01T15:08:02.999Z</time></trkpt><trkpt lat="44.263260162134884" lon="11.751456722443853"><ele>84.28571428571429</ele><time>2026-05-01T15:08:04.999Z</time></trkpt><trkpt lat="44.26324982505741" lon="11.751558828455531"><ele>83.57142857142857</ele><time>2026-05-01T15:08:05.999Z</time></trkpt><trkpt lat="44.263225655945185" lon="11.751653004850787"><ele>82.85714285714286</ele><time>2026-05-01T15:08:06.999Z</time></trkpt><trkpt lat="44.26321508982615" lon="11.751746596589596"><ele>82.14285714285714</ele><time>2026-05-01T15:08:07.999Z</time></trkpt><trkpt lat="44.26321828063615" lon="11.751839526370357"><ele>81.42857142857143</ele><time>2026-05-01T15:08:08.999Z</time></trkpt><trkpt lat="44.26323666917959" lon="11.751942372482018"><ele>80.71428571428571</ele><time>2026-05-01T15:08:09.999Z</time></trkpt><trkpt lat="44.263257257782364" lon="11.752054531908263"><ele>80.0</ele><time>2026-05-01T15:08:10.999Z</time></trkpt><trkpt lat="44.26328723887134" lon="11.752174512155202"><ele>78.8</ele><time>2026-05-01T15:08:11.999Z</time></trkpt><trkpt lat="44.26332002157227" lon="11.752305499124377"><ele>77.6</ele><time>2026-05-01T15:08:12.999Z</time></trkpt><trkpt lat="44.26335611664897" lon="11.752433596632335"><ele>76.4</ele><time>2026-05-01T15:08:13.999Z</time></trkpt><trkpt lat="44.2633947784374" lon="11.75255943875122"><ele>75.2</ele><time>2026-05-01T15:08:14.999Z</time></trkpt><trkpt lat="44.26343221362925" lon="11.752679532155534"><ele>74.0</ele><time>2026-05-01T15:08:15.999Z</time></trkpt><trkpt lat="44.263468912529746" lon="11.752790396625638"><ele>72.60000000000001</ele><time>2026-05-01T15:08:16.999Z</time></trkpt><trkpt lat="44.26349572377641" lon="11.752908603597623"><ele>71.2</ele><time>2026-05-01T15:08:17.999Z</time></trkpt><trkpt lat="44.26351291216341" lon="11.753035694831194"><ele>69.80000000000001</ele><time>2026-05-01T15:08:18.999Z</time></trkpt><trkpt lat="44.263511813236875" lon="11.753188357592533"><ele>68.4</ele><time>2026-05-01T15:08:19.999Z</time></trkpt><trkpt lat="44.263472507243996" lon="11.75334382117067"><ele>67.0</ele><time>2026-05-01T15:08:20.999Z</time></trkpt><trkpt lat="44.26342389854667" lon="11.753486932430802"><ele>66.5</ele><time>2026-05-01T15:08:21.999Z</time></trkpt><trkpt lat="44.26337315338869" lon="11.753579481099885"><ele>66.0</ele><time>2026-05-01T15:08:22.999Z</time></trkpt><trkpt lat="44.26331606129928" lon="11.753647647028389"><ele>65.5</ele><time>2026-05-01T15:08:24Z</time></trkpt><trkpt lat="44.26324185672473" lon="11.753651454548287"><ele>65.0</ele><time>2026-05-01T15:08:25Z</time></trkpt><trkpt lat="44.26314836569325" lon="11.753621105334545"><ele>64.5</ele><time>2026-05-01T15:08:26Z</time></trkpt><trkpt lat="44.26306348438531" lon="11.753625620498987"><ele>64.0</ele><time>2026-05-01T15:08:27Z</time></trkpt><trkpt lat="44.26297995914721" lon="11.753646351685466"><ele>64.0</ele><time>2026-05-01T15:08:28Z</time></trkpt><trkpt lat="44.26290163178746" lon="11.75366559669907"><ele>63.99999999999999</ele><time>2026-05-01T15:08:29Z</time></trkpt><trkpt lat="44.262830025260904" lon="11.753691945494877"><ele>64.0</ele><time>2026-05-01T15:08:30Z</time></trkpt><trkpt lat="44.26275372392103" lon="11.753720412252125"><ele>64.0</ele><time>2026-05-01T15:08:31Z</time></trkpt><trkpt lat="44.262685016132984" lon="11.753752126396174"><ele>63.99999999999999</ele><time>2026-05-01T15:08:32Z</time></trkpt><trkpt lat="44.26262123545958" lon="11.753801463972087"><ele>64.0</ele><time>2026-05-01T15:08:33Z</time></trkpt><trkpt lat="44.26256671030062" lon="11.75386057442264"><ele>64.0</ele><time>2026-05-01T15:08:34Z</time></trkpt><trkpt lat="44.262510176372324" lon="11.75391091648024"><ele>63.99999999999999</ele><time>2026-05-01T15:08:35Z</time></trkpt><trkpt lat="44.26246015895122" lon="11.753964797826198"><ele>64.0</ele><time>2026-05-01T15:08:36Z</time></trkpt><trkpt lat="44.26236783988498" lon="11.754057424601898"><ele>64.0</ele><time>2026-05-01T15:08:38Z</time></trkpt><trkpt lat="44.26228858127846" lon="11.7541282799023"><ele>64.0</ele><time>2026-05-01T15:08:40Z</time></trkpt><trkpt lat="44.26222077871833" lon="11.754192087764542"><ele>63.99999999999999</ele><time>2026-05-01T15:08:43Z</time></trkpt><trkpt lat="44.26216910846424" lon="11.754250602706904"><ele>64.0</ele><time>2026-05-01T15:08:47Z</time></trkpt><trkpt lat="44.262116455587964" lon="11.754312973991478"><ele>68.5</ele><time>2026-05-01T15:08:51Z</time></trkpt><trkpt lat="44.2621202066252" lon="11.754467936637091"><ele>73.0</ele><time>2026-05-01T15:08:56Z</time></trkpt><trkpt lat="44.26214452350417" lon="11.754563680714938"><ele>77.5</ele><time>2026-05-01T15:09:01Z</time></trkpt><trkpt lat="44.262177635766015" lon="11.754639870300572"><ele>82.0</ele><time>2026-05-01T15:09:05Z</time></trkpt><trkpt lat="44.262203362181175" lon="11.754743371916382"><ele>86.5</ele><time>2026-05-01T15:09:09Z</time></trkpt><trkpt lat="44.26223219615724" lon="11.754827533090035"><ele>91.0</ele><time>2026-05-01T15:09:12Z</time></trkpt><trkpt lat="44.26225914613697" lon="11.754919207242207"><ele>89.66666666666666</ele><time>2026-05-01T15:09:16Z</time></trkpt><trkpt lat="44.262295026606644" lon="11.75499760988077"><ele>88.33333333333333</ele><time>2026-05-01T15:09:19Z</time></trkpt><trkpt lat="44.262329133103805" lon="11.755089331001374"><ele>87.0</ele><time>2026-05-01T15:09:22Z</time></trkpt><trkpt lat="44.26236816829417" lon="11.755201530701372"><ele>85.66666666666667</ele><time>2026-05-01T15:09:26Z</time></trkpt><trkpt lat="44.26240951110513" lon="11.755291575419092"><ele>84.33333333333334</ele><time>2026-05-01T15:09:29Z</time></trkpt><trkpt lat="44.262456782384405" lon="11.755374383713134"><ele>83.0</ele><time>2026-05-01T15:09:33Z</time></trkpt><trkpt lat="44.2625025455505" lon="11.755456415082605"><ele>83.0</ele><time>2026-05-01T15:09:37Z</time></trkpt><trkpt lat="44.26254713640287" lon="11.755532682215467"><ele>83.0</ele><time>2026-05-01T15:09:41Z</time></trkpt><trkpt lat="44.26258267164246" lon="11.755616474416279"><ele>83.0</ele><time>2026-05-01T15:09:47Z</time></trkpt><trkpt lat="44.262620710456595" lon="11.755688297836702"><ele>83.0</ele><time>2026-05-01T15:09:51.999Z</time></trkpt><trkpt lat="44.26265629528402" lon="11.755775434766772"><ele>83.0</ele><time>2026-05-01T15:09:55.999Z</time></trkpt><trkpt lat="44.26269633677103" lon="11.755864593442938"><ele>83.0</ele><time>2026-05-01T15:10:00.999Z</time></trkpt><trkpt lat="44.262728797646545" lon="11.755955217307571"><ele>83.0</ele><time>2026-05-01T15:10:05.999Z</time></trkpt><trkpt lat="44.26275467675869" lon="11.756045016713827"><ele>84.14285714285714</ele><time>2026-05-01T15:10:09.999Z</time></trkpt><trkpt lat="44.262764774871236" lon="11.756148764003548"><ele>85.28571428571429</ele><time>2026-05-01T15:10:14.999Z</time></trkpt><trkpt lat="44.26277322759835" lon="11.756268595167064"><ele>86.42857142857143</ele><time>2026-05-01T15:10:19.999Z</time></trkpt><trkpt lat="44.26275720865087" lon="11.756358934517948"><ele>87.57142857142857</ele><time>2026-05-01T15:10:23.999Z</time></trkpt><trkpt lat="44.26272829095854" lon="11.756447142412807"><ele>88.71428571428572</ele><time>2026-05-01T15:10:30Z</time></trkpt><trkpt lat="44.26268731958426" lon="11.75652306681615"><ele>89.85714285714286</ele><time>2026-05-01T15:10:35Z</time></trkpt><trkpt lat="44.26264190650496" lon="11.756589675416878"><ele>91.0</ele><time>2026-05-01T15:10:40Z</time></trkpt><trkpt lat="44.26261396768666" lon="11.756678601983905"><ele>91.0</ele><time>2026-05-01T15:10:44Z</time></trkpt><trkpt lat="44.26260414831001" lon="11.756777430255369"><ele>91.0</ele><time>2026-05-01T15:10:48Z</time></trkpt><trkpt lat="44.26260209627808" lon="11.756883149652728"><ele>91.0</ele><time>2026-05-01T15:10:52Z</time></trkpt><trkpt lat="44.26264155055422" lon="11.756989429180763"><ele>91.0</ele><time>2026-05-01T15:10:56Z</time></trkpt><trkpt lat="44.262685165637066" lon="11.757071200152408"><ele>91.0</ele><time>2026-05-01T15:11:00Z</time></trkpt><trkpt lat="44.26275264981002" lon="11.757135485078148"><ele>91.0</ele><time>2026-05-01T15:11:06Z</time></trkpt><trkpt lat="44.262893865968" lon="11.75718658534823"><ele>90.14285714285714</ele><time>2026-05-01T15:11:15Z</time></trkpt><trkpt lat="44.262953246614885" lon="11.757108076676857"><ele>89.28571428571428</ele><time>2026-05-01T15:11:21Z</time></trkpt><trkpt lat="44.263009673756784" lon="11.75706127620738"><ele>88.42857142857143</ele><time>2026-05-01T15:11:25Z</time></trkpt><trkpt lat="44.26306355339244" lon="11.757003328741174"><ele>87.57142857142857</ele><time>2026-05-01T15:11:30Z</time></trkpt><trkpt lat="44.263124516194225" lon="11.75696566929608"><ele>86.71428571428571</ele><time>2026-05-01T15:11:34Z</time></trkpt><trkpt lat="44.263176867454696" lon="11.756914685417817"><ele>85.85714285714286</ele><time>2026-05-01T15:11:38Z</time></trkpt><trkpt lat="44.263240137593144" lon="11.756858017052355"><ele>85.0</ele><time>2026-05-01T15:11:42Z</time></trkpt><trkpt lat="44.26330323099848" lon="11.756812061689468"><ele>85.0</ele><time>2026-05-01T15:11:47Z</time></trkpt><trkpt lat="44.2633504730794" lon="11.756738914933898"><ele>85.0</ele><time>2026-05-01T15:11:53Z</time></trkpt><trkpt lat="44.26342870496273" lon="11.756749945023063"><ele>85.0</ele><time>2026-05-01T15:11:59Z</time></trkpt><trkpt lat="44.26349537755676" lon="11.756778638447214"><ele>85.0</ele><time>2026-05-01T15:12:03Z</time></trkpt><trkpt lat="44.26355924081737" lon="11.756790546559516"><ele>85.0</ele><time>2026-05-01T15:12:06.999Z</time></trkpt><trkpt lat="44.26363880723406" lon="11.756809240542161"><ele>85.0</ele><time>2026-05-01T15:12:11.999Z</time></trkpt><trkpt lat="44.26371127994867" lon="11.756832617022843"><ele>85.0</ele><time>2026-05-01T15:12:18.999Z</time></trkpt><trkpt lat="44.26378607656226" lon="11.756859458384573"><ele>86.85714285714286</ele><time>2026-05-01T15:12:24.999Z</time></trkpt><trkpt lat="44.26384312354151" lon="11.75691388318698"><ele>88.71428571428571</ele><time>2026-05-01T15:12:29.999Z</time></trkpt><trkpt lat="44.26384817952535" lon="11.757006429951765"><ele>90.57142857142857</ele><time>2026-05-01T15:12:34.999Z</time></trkpt><trkpt lat="44.26379760602423" lon="11.757078799616028"><ele>92.42857142857143</ele><time>2026-05-01T15:12:41Z</time></trkpt><trkpt lat="44.263730369280985" lon="11.757107665563439"><ele>94.28571428571428</ele><time>2026-05-01T15:12:46Z</time></trkpt><trkpt lat="44.263669107691044" lon="11.757065522976529"><ele>96.14285714285714</ele><time>2026-05-01T15:12:51Z</time></trkpt><trkpt lat="44.26360563606879" lon="11.757072995227526"><ele>98.0</ele><time>2026-05-01T15:12:55Z</time></trkpt><trkpt lat="44.26353150015345" lon="11.75706888777953"><ele>98.0</ele><time>2026-05-01T15:13:01Z</time></trkpt><trkpt lat="44.26345913203985" lon="11.757095926334006"><ele>98.0</ele><time>2026-05-01T15:13:07Z</time></trkpt><trkpt lat="44.26339896623311" lon="11.75713124652342"><ele>98.0</ele><time>2026-05-01T15:13:12Z</time></trkpt><trkpt lat="44.26335817684047" lon="11.757201925912819"><ele>98.0</ele><time>2026-05-01T15:13:16Z</time></trkpt><trkpt lat="44.26332378619563" lon="11.757277368539594"><ele>98.0</ele><time>2026-05-01T15:13:21Z</time></trkpt><trkpt lat="44.26332048896232" lon="11.757376156054379"><ele>98.0</ele><time>2026-05-01T15:13:27Z</time></trkpt><trkpt lat="44.26330447783564" lon="11.757462301692255"><ele>98.0</ele><time>2026-05-01T15:13:33Z</time></trkpt><trkpt lat="44.263297980441905" lon="11.757553193779971"><ele>98.0</ele><time>2026-05-01T15:13:37Z</time></trkpt><trkpt lat="44.26330321011014" lon="11.757656550939046"><ele>98.0</ele><time>2026-05-01T15:13:44Z</time></trkpt><trkpt lat="44.26331569498224" lon="11.75776129912792"><ele>98.0</ele><time>2026-05-01T15:13:51Z</time></trkpt><trkpt lat="44.26331720872892" lon="11.757859986348418"><ele>98.0</ele><time>2026-05-01T15:13:56Z</time></trkpt><trkpt lat="44.26333214979114" lon="11.757948262313587"><ele>98.0</ele><time>2026-05-01T15:14:00Z</time></trkpt><trkpt lat="44.26333496691395" lon="11.758044451353236"><ele>98.0</ele><time>2026-05-01T15:14:05Z</time></trkpt><trkpt lat="44.263337257906734" lon="11.758134358515642"><ele>98.0</ele><time>2026-05-01T15:14:09Z</time></trkpt><trkpt lat="44.26336459598612" lon="11.758227741984227"><ele>99.85714285714286</ele><time>2026-05-01T15:14:15Z</time></trkpt><trkpt lat="44.26337098514546" lon="11.75832122469795"><ele>101.71428571428572</ele><time>2026-05-01T15:14:21Z</time></trkpt><trkpt lat="44.263370100409894" lon="11.758415270133849"><ele>103.57142857142857</ele><time>2026-05-01T15:14:25.999Z</time></trkpt><trkpt lat="44.26337391211967" lon="11.758514518067292"><ele>105.42857142857143</ele><time>2026-05-01T15:14:29.999Z</time></trkpt><trkpt lat="44.263370187121325" lon="11.758609784708069"><ele>107.28571428571429</ele><time>2026-05-01T15:14:33.999Z</time></trkpt><trkpt lat="44.26336198371329" lon="11.758702159025132"><ele>109.14285714285714</ele><time>2026-05-01T15:14:38.999Z</time></trkpt><trkpt lat="44.263369786716616" lon="11.75879735833123"><ele>111.0</ele><time>2026-05-01T15:14:44Z</time></trkpt><trkpt lat="44.26337452070506" lon="11.758894248372053"><ele>111.85714285714286</ele><time>2026-05-01T15:14:48Z</time></trkpt><trkpt lat="44.26338360266203" lon="11.7590062183442"><ele>112.71428571428572</ele><time>2026-05-01T15:14:52Z</time></trkpt><trkpt lat="44.263397118629506" lon="11.759114220893409"><ele>113.57142857142858</ele><time>2026-05-01T15:14:56Z</time></trkpt><trkpt lat="44.26340258239024" lon="11.75922227990489"><ele>114.42857142857143</ele><time>2026-05-01T15:15:00Z</time></trkpt><trkpt lat="44.263428480776554" lon="11.759305382716532"><ele>115.2857142857143</ele><time>2026-05-01T15:15:03Z</time></trkpt><trkpt lat="44.263433641399516" lon="11.759408776841504"><ele>116.14285714285715</ele><time>2026-05-01T15:15:06Z</time></trkpt><trkpt lat="44.263440555423344" lon="11.759510791595487"><ele>117.0</ele><time>2026-05-01T15:15:09Z</time></trkpt><trkpt lat="44.26344689853068" lon="11.75960365631064"><ele>117.0</ele><time>2026-05-01T15:15:12Z</time></trkpt><trkpt lat="44.26344968176762" lon="11.759709262370455"><ele>117.0</ele><time>2026-05-01T15:15:15Z</time></trkpt><trkpt lat="44.26346663195693" lon="11.759806270132865"><ele>117.0</ele><time>2026-05-01T15:15:18Z</time></trkpt><trkpt lat="44.26348274115445" lon="11.759909809328601"><ele>117.0</ele><time>2026-05-01T15:15:22Z</time></trkpt><trkpt lat="44.26349365039988" lon="11.760015500039657"><ele>117.0</ele><time>2026-05-01T15:15:27Z</time></trkpt><trkpt lat="44.263501430845785" lon="11.76011931544718"><ele>117.0</ele><time>2026-05-01T15:15:32Z</time></trkpt><trkpt lat="44.263488653074404" lon="11.760228271939825"><ele>117.0</ele><time>2026-05-01T15:15:38Z</time></trkpt><trkpt lat="44.26345469070165" lon="11.760314302319399"><ele>117.00000000000001</ele><time>2026-05-01T15:15:44Z</time></trkpt><trkpt lat="44.26339954689687" lon="11.760370214032196"><ele>117.0</ele><time>2026-05-01T15:15:50Z</time></trkpt><trkpt lat="44.263332426787564" lon="11.760424473507719"><ele>117.0</ele><time>2026-05-01T15:15:57Z</time></trkpt><trkpt lat="44.26327468303574" lon="11.760460252227393"><ele>117.00000000000001</ele><time>2026-05-01T15:16:02Z</time></trkpt><trkpt lat="44.26321450024042" lon="11.760515184291284"><ele>117.0</ele><time>2026-05-01T15:16:07Z</time></trkpt><trkpt lat="44.26316006263733" lon="11.760569967398624"><ele>117.0</ele><time>2026-05-01T15:16:13Z</time></trkpt><trkpt lat="44.2631036558064" lon="11.760614308991457"><ele>119.42857142857143</ele><time>2026-05-01T15:16:18Z</time></trkpt><trkpt lat="44.26304743434235" lon="11.760658047911816"><ele>121.85714285714286</ele><time>2026-05-01T15:16:23Z</time></trkpt><trkpt lat="44.262994220994" lon="11.76072530533553"><ele>124.28571428571429</ele><time>2026-05-01T15:16:27.999Z</time></trkpt><trkpt lat="44.26294461781896" lon="11.760783961406704"><ele>126.71428571428572</ele><time>2026-05-01T15:16:32.999Z</time></trkpt><trkpt lat="44.26288446566091" lon="11.760839406458418"><ele>129.14285714285714</ele><time>2026-05-01T15:16:38.999Z</time></trkpt><trkpt lat="44.26281303793891" lon="11.760898338256103"><ele>131.57142857142858</ele><time>2026-05-01T15:16:44.999Z</time></trkpt><trkpt lat="44.26275358001338" lon="11.760931400367422"><ele>134.0</ele><time>2026-05-01T15:16:50Z</time></trkpt><trkpt lat="44.262680021008535" lon="11.760974621565685"><ele>134.0</ele><time>2026-05-01T15:16:54Z</time></trkpt><trkpt lat="44.262616407915424" lon="11.760992855851907"><ele>134.0</ele><time>2026-05-01T15:16:58Z</time></trkpt><trkpt lat="44.262541203300195" lon="11.761000839686924"><ele>134.0</ele><time>2026-05-01T15:17:03Z</time></trkpt><trkpt lat="44.262462753971086" lon="11.760988426932412"><ele>134.0</ele><time>2026-05-01T15:17:08Z</time></trkpt><trkpt lat="44.26239053585416" lon="11.760966438238004"><ele>134.0</ele><time>2026-05-01T15:17:14Z</time></trkpt><trkpt lat="44.262317363026106" lon="11.760961302373872"><ele>134.0</ele><time>2026-05-01T15:17:19Z</time></trkpt><trkpt lat="44.26223657711012" lon="11.76093705593376"><ele>134.0</ele><time>2026-05-01T15:17:24Z</time></trkpt><trkpt lat="44.262167931095014" lon="11.760903774825413"><ele>134.42857142857144</ele><time>2026-05-01T15:17:30Z</time></trkpt><trkpt lat="44.26210184014775" lon="11.760862436973502"><ele>134.85714285714286</ele><time>2026-05-01T15:17:35Z</time></trkpt><trkpt lat="44.26205409229963" lon="11.760791090052958"><ele>135.28571428571428</ele><time>2026-05-01T15:17:41Z</time></trkpt><trkpt lat="44.26198865770156" lon="11.760785137369236"><ele>135.71428571428572</ele><time>2026-05-01T15:17:45Z</time></trkpt><trkpt lat="44.26191349024993" lon="11.760748002240899"><ele>136.14285714285714</ele><time>2026-05-01T15:17:51Z</time></trkpt><trkpt lat="44.2618528392933" lon="11.760698157108312"><ele>136.57142857142858</ele><time>2026-05-01T15:17:56Z</time></trkpt><trkpt lat="44.26179274393498" lon="11.760655149306283"><ele>137.0</ele><time>2026-05-01T15:18:00Z</time></trkpt><trkpt lat="44.26171536951589" lon="11.76061147607899"><ele>137.00000000000003</ele><time>2026-05-01T15:18:05Z</time></trkpt><trkpt lat="44.26165674195511" lon="11.760567241554527"><ele>137.0</ele><time>2026-05-01T15:18:09Z</time></trkpt><trkpt lat="44.26157700113774" lon="11.760549856901088"><ele>137.0</ele><time>2026-05-01T15:18:14Z</time></trkpt><trkpt lat="44.26150729633058" lon="11.760527118476356"><ele>137.0</ele><time>2026-05-01T15:18:20Z</time></trkpt><trkpt lat="44.26142324777182" lon="11.760510080629272"><ele>137.0</ele><time>2026-05-01T15:18:25Z</time></trkpt><trkpt lat="44.26135706005335" lon="11.760491509930922"><ele>137.00000000000003</ele><time>2026-05-01T15:18:30Z</time></trkpt><trkpt lat="44.26129309723323" lon="11.760469918074877"><ele>137.0</ele><time>2026-05-01T15:18:35Z</time></trkpt><trkpt lat="44.261232260033466" lon="11.760434073574052"><ele>137.71428571428572</ele><time>2026-05-01T15:18:39.999Z</time></trkpt><trkpt lat="44.261164661698025" lon="11.760411305292557"><ele>138.42857142857144</ele><time>2026-05-01T15:18:46.999Z</time></trkpt><trkpt lat="44.26109534706111" lon="11.760364395651438"><ele>139.14285714285714</ele><time>2026-05-01T15:18:51.999Z</time></trkpt><trkpt lat="44.26104071796047" lon="11.760320095203019"><ele>139.85714285714286</ele><time>2026-05-01T15:18:58Z</time></trkpt><trkpt lat="44.26096385201229" lon="11.7602666348938"><ele>140.57142857142856</ele><time>2026-05-01T15:19:04Z</time></trkpt><trkpt lat="44.26090603820305" lon="11.760231138434044"><ele>141.28571428571428</ele><time>2026-05-01T15:19:08Z</time></trkpt><trkpt lat="44.26084392186143" lon="11.760201504915283"><ele>142.0</ele><time>2026-05-01T15:19:15Z</time></trkpt><trkpt lat="44.26077588989235" lon="11.760149177810163"><ele>143.57142857142856</ele><time>2026-05-01T15:19:21Z</time></trkpt><trkpt lat="44.260703914446" lon="11.760132847050954"><ele>145.14285714285714</ele><time>2026-05-01T15:19:25Z</time></trkpt><trkpt lat="44.26063908311714" lon="11.76010135185143"><ele>146.71428571428572</ele><time>2026-05-01T15:19:29Z</time></trkpt><trkpt lat="44.260562123645244" lon="11.760068373407426"><ele>148.28571428571428</ele><time>2026-05-01T15:19:36Z</time></trkpt><trkpt lat="44.26049965432253" lon="11.760042403539206"><ele>149.85714285714286</ele><time>2026-05-01T15:19:40Z</time></trkpt><trkpt lat="44.2604364051677" lon="11.760019477761679"><ele>151.42857142857142</ele><time>2026-05-01T15:19:45Z</time></trkpt><trkpt lat="44.26036717390928" lon="11.760024264578494"><ele>153.0</ele><time>2026-05-01T15:19:49Z</time></trkpt><trkpt lat="44.2602952500204" lon="11.76002517482558"><ele>154.57142857142856</ele><time>2026-05-01T15:19:55Z</time></trkpt><trkpt lat="44.260224970200646" lon="11.760031007510447"><ele>156.14285714285714</ele><time>2026-05-01T15:20:01Z</time></trkpt><trkpt lat="44.26014671840075" lon="11.760045651894158"><ele>157.71428571428572</ele><time>2026-05-01T15:20:08Z</time></trkpt><trkpt lat="44.2600738132306" lon="11.760052419660347"><ele>159.28571428571428</ele><time>2026-05-01T15:20:15Z</time></trkpt><trkpt lat="44.260010542076415" lon="11.760098664238393"><ele>160.85714285714286</ele><time>2026-05-01T15:20:20Z</time></trkpt><trkpt lat="44.25994420100067" lon="11.760117005301103"><ele>162.42857142857142</ele><time>2026-05-01T15:20:25Z</time></trkpt><trkpt lat="44.259878946753666" lon="11.760105202334602"><ele>164.0</ele><time>2026-05-01T15:20:30Z</time></trkpt><trkpt lat="44.259816736431844" lon="11.760143365618653"><ele>164.28571428571428</ele><time>2026-05-01T15:20:36Z</time></trkpt><trkpt lat="44.259754949113834" lon="11.760188555843031"><ele>164.57142857142856</ele><time>2026-05-01T15:20:38.999Z</time></trkpt><trkpt lat="44.25968768520387" lon="11.760187152236444"><ele>164.85714285714283</ele><time>2026-05-01T15:20:45.999Z</time></trkpt><trkpt lat="44.259622384989704" lon="11.760201408604276"><ele>165.14285714285714</ele><time>2026-05-01T15:20:49.999Z</time></trkpt><trkpt lat="44.25954901089582" lon="11.760218501433796"><ele>165.42857142857144</ele><time>2026-05-01T15:20:54.999Z</time></trkpt><trkpt lat="44.259470087114224" lon="11.760194080080954"><ele>165.7142857142857</ele><time>2026-05-01T15:21:01Z</time></trkpt><trkpt lat="44.25939360945531" lon="11.760195306334003"><ele>166.0</ele><time>2026-05-01T15:21:08Z</time></trkpt><trkpt lat="44.259328369198656" lon="11.760239527329555"><ele>166.0</ele><time>2026-05-01T15:21:12Z</time></trkpt><trkpt lat="44.2592673619472" lon="11.7603083047069"><ele>166.0</ele><time>2026-05-01T15:21:16Z</time></trkpt><trkpt lat="44.25922894128108" lon="11.76040525311563"><ele>166.0</ele><time>2026-05-01T15:21:20Z</time></trkpt><trkpt lat="44.259191657755885" lon="11.760488152114004"><ele>166.0</ele><time>2026-05-01T15:21:25Z</time></trkpt><trkpt lat="44.259150710726914" lon="11.76057031699322"><ele>166.0</ele><time>2026-05-01T15:21:28Z</time></trkpt><trkpt lat="44.259096593128994" lon="11.760650145852733"><ele>166.0</ele><time>2026-05-01T15:21:32Z</time></trkpt><trkpt lat="44.259049430326336" lon="11.76073058067525"><ele>166.0</ele><time>2026-05-01T15:21:37Z</time></trkpt><trkpt lat="44.25901010377988" lon="11.760824836411045"><ele>166.0</ele><time>2026-05-01T15:21:41Z</time></trkpt><trkpt lat="44.25895137733143" lon="11.760872086747053"><ele>166.0</ele><time>2026-05-01T15:21:45Z</time></trkpt><trkpt lat="44.25889560909277" lon="11.760934455501326"><ele>166.0</ele><time>2026-05-01T15:21:49Z</time></trkpt><trkpt lat="44.25885382468394" lon="11.76100896680629"><ele>166.0</ele><time>2026-05-01T15:21:52Z</time></trkpt><trkpt lat="44.258794549952306" lon="11.761082017939634"><ele>166.0</ele><time>2026-05-01T15:21:55Z</time></trkpt><trkpt lat="44.258750111151706" lon="11.761171805827265"><ele>166.0</ele><time>2026-05-01T15:22:01Z</time></trkpt><trkpt lat="44.25869556045324" lon="11.761227008498928"><ele>166.28571428571428</ele><time>2026-05-01T15:22:04Z</time></trkpt><trkpt lat="44.25863556031461" lon="11.761267323275455"><ele>166.57142857142858</ele><time>2026-05-01T15:22:07Z</time></trkpt><trkpt lat="44.258559164137836" lon="11.761308070647267"><ele>166.85714285714286</ele><time>2026-05-01T15:22:11Z</time></trkpt><trkpt lat="44.2584828968487" lon="11.76135570477178"><ele>167.14285714285714</ele><time>2026-05-01T15:22:15Z</time></trkpt><trkpt lat="44.25841381894596" lon="11.761396369677966"><ele>167.42857142857144</ele><time>2026-05-01T15:22:19Z</time></trkpt><trkpt lat="44.258355892129245" lon="11.761437434278234"><ele>167.71428571428572</ele><time>2026-05-01T15:22:23Z</time></trkpt><trkpt lat="44.25828600032677" lon="11.761468105680876"><ele>168.0</ele><time>2026-05-01T15:22:27Z</time></trkpt><trkpt lat="44.25820712802615" lon="11.761501597703234"><ele>168.0</ele><time>2026-05-01T15:22:31Z</time></trkpt><trkpt lat="44.25813640357249" lon="11.761507777421153"><ele>168.0</ele><time>2026-05-01T15:22:33.999Z</time></trkpt><trkpt lat="44.25806525142563" lon="11.761547426019792"><ele>168.0</ele><time>2026-05-01T15:22:37Z</time></trkpt><trkpt lat="44.257999485444785" lon="11.761563345033252"><ele>168.0</ele><time>2026-05-01T15:22:39.999Z</time></trkpt><trkpt lat="44.257928561092065" lon="11.761590497099663"><ele>168.0</ele><time>2026-05-01T15:22:42.999Z</time></trkpt><trkpt lat="44.25786238969882" lon="11.761653160483842"><ele>168.0</ele><time>2026-05-01T15:22:46.999Z</time></trkpt><trkpt lat="44.25779737559217" lon="11.761689584894809"><ele>168.0</ele><time>2026-05-01T15:22:49.999Z</time></trkpt><trkpt lat="44.25773515341713" lon="11.761722103678268"><ele>167.28571428571428</ele><time>2026-05-01T15:22:52.999Z</time></trkpt><trkpt lat="44.257663936867374" lon="11.761723335659394"><ele>166.57142857142856</ele><time>2026-05-01T15:22:55.999Z</time></trkpt><trkpt lat="44.257588601532774" lon="11.76170169120162"><ele>165.85714285714286</ele><time>2026-05-01T15:22:59.999Z</time></trkpt><trkpt lat="44.257529594190146" lon="11.761665594267066"><ele>165.14285714285714</ele><time>2026-05-01T15:23:02.999Z</time></trkpt><trkpt lat="44.25746157636706" lon="11.761633163811172"><ele>164.42857142857142</ele><time>2026-05-01T15:23:06Z</time></trkpt><trkpt lat="44.25739803765911" lon="11.761573440692962"><ele>163.71428571428572</ele><time>2026-05-01T15:23:09Z</time></trkpt><trkpt lat="44.25733164886335" lon="11.761513355735733"><ele>163.0</ele><time>2026-05-01T15:23:13Z</time></trkpt><trkpt lat="44.257284251172145" lon="11.761443774710894"><ele>163.0</ele><time>2026-05-01T15:23:16Z</time></trkpt><trkpt lat="44.25723441540221" lon="11.761384196335202"><ele>163.0</ele><time>2026-05-01T15:23:20Z</time></trkpt><trkpt lat="44.25717780655809" lon="11.761343015195465"><ele>163.0</ele><time>2026-05-01T15:23:24Z</time></trkpt><trkpt lat="44.25710601173553" lon="11.761299420551783"><ele>163.0</ele><time>2026-05-01T15:23:27Z</time></trkpt><trkpt lat="44.25703741220472" lon="11.761257091512398"><ele>163.0</ele><time>2026-05-01T15:23:30Z</time></trkpt><trkpt lat="44.25696916517517" lon="11.761204889083716"><ele>163.0</ele><time>2026-05-01T15:23:33Z</time></trkpt><trkpt lat="44.256897443899504" lon="11.761163228936994"><ele>163.0</ele><time>2026-05-01T15:23:35Z</time></trkpt><trkpt lat="44.256836589943894" lon="11.761122409385752"><ele>163.0</ele><time>2026-05-01T15:23:37Z</time></trkpt><trkpt lat="44.25677558341986" lon="11.761062400696629"><ele>163.0</ele><time>2026-05-01T15:23:39Z</time></trkpt><trkpt lat="44.256720759530495" lon="11.761016804052444"><ele>163.0</ele><time>2026-05-01T15:23:43Z</time></trkpt><trkpt lat="44.25666932828529" lon="11.760952804434185"><ele>163.0</ele><time>2026-05-01T15:23:46Z</time></trkpt><trkpt lat="44.256621132696544" lon="11.760874712219467"><ele>163.0</ele><time>2026-05-01T15:23:50Z</time></trkpt><trkpt lat="44.25656907604184" lon="11.76082073835628"><ele>163.0</ele><time>2026-05-01T15:23:54Z</time></trkpt><trkpt lat="44.25652378970034" lon="11.7607269109418"><ele>163.0</ele><time>2026-05-01T15:23:58Z</time></trkpt><trkpt lat="44.256476382702736" lon="11.760654069594557"><ele>163.57142857142858</ele><time>2026-05-01T15:24:03Z</time></trkpt><trkpt lat="44.256426776579644" lon="11.760576520310705"><ele>164.14285714285714</ele><time>2026-05-01T15:24:08Z</time></trkpt><trkpt lat="44.25638491972131" lon="11.76048698219494"><ele>164.71428571428572</ele><time>2026-05-01T15:24:12Z</time></trkpt><trkpt lat="44.256324809506566" lon="11.760434515244032"><ele>165.28571428571428</ele><time>2026-05-01T15:24:16Z</time></trkpt><trkpt lat="44.25627943994606" lon="11.760361884250917"><ele>165.85714285714286</ele><time>2026-05-01T15:24:19Z</time></trkpt><trkpt lat="44.256241459252614" lon="11.760281923042198"><ele>166.42857142857142</ele><time>2026-05-01T15:24:23Z</time></trkpt><trkpt lat="44.256167380947446" lon="11.760220811245333"><ele>167.0</ele><time>2026-05-01T15:24:28Z</time></trkpt><trkpt lat="44.25611090333711" lon="11.7601581980123"><ele>170.0</ele><time>2026-05-01T15:24:32Z</time></trkpt><trkpt lat="44.256063353422505" lon="11.760070331172813"><ele>173.0</ele><time>2026-05-01T15:24:38Z</time></trkpt><trkpt lat="44.25602138292673" lon="11.759994176034242"><ele>176.0</ele><time>2026-05-01T15:24:42Z</time></trkpt><trkpt lat="44.25595964695896" lon="11.759905795615722"><ele>179.0</ele><time>2026-05-01T15:24:46Z</time></trkpt><trkpt lat="44.255919236627285" lon="11.759833207091697"><ele>182.0</ele><time>2026-05-01T15:24:50Z</time></trkpt><trkpt lat="44.255863716301626" lon="11.759755900356827"><ele>185.0</ele><time>2026-05-01T15:24:53.999Z</time></trkpt><trkpt lat="44.25580177576828" lon="11.759698823504873"><ele>184.99999999999997</ele><time>2026-05-01T15:24:57.999Z</time></trkpt><trkpt lat="44.25574734735367" lon="11.759640825150601"><ele>185.0</ele><time>2026-05-01T15:25:01.999Z</time></trkpt><trkpt lat="44.255693411900474" lon="11.759573784207067"><ele>185.0</ele><time>2026-05-01T15:25:06.999Z</time></trkpt><trkpt lat="44.25563775124045" lon="11.759490425538033"><ele>185.0</ele><time>2026-05-01T15:25:10.999Z</time></trkpt><trkpt lat="44.255585187026746" lon="11.759426721751435"><ele>185.0</ele><time>2026-05-01T15:25:15Z</time></trkpt><trkpt lat="44.25554110578417" lon="11.759341925352683"><ele>184.99999999999997</ele><time>2026-05-01T15:25:19Z</time></trkpt><trkpt lat="44.25548897094462" lon="11.759291093152413"><ele>185.0</ele><time>2026-05-01T15:25:22Z</time></trkpt><trkpt lat="44.25543747512366" lon="11.759190928349526"><ele>185.83333333333331</ele><time>2026-05-01T15:25:26Z</time></trkpt><trkpt lat="44.25537656855997" lon="11.759130913456907"><ele>186.66666666666666</ele><time>2026-05-01T15:25:29Z</time></trkpt><trkpt lat="44.25531401085941" lon="11.759067269768197"><ele>187.5</ele><time>2026-05-01T15:25:33Z</time></trkpt><trkpt lat="44.25526061996669" lon="11.75900953311931"><ele>188.33333333333334</ele><time>2026-05-01T15:25:36Z</time></trkpt><trkpt lat="44.255204374399895" lon="11.758961026019314"><ele>189.16666666666669</ele><time>2026-05-01T15:25:39Z</time></trkpt><trkpt lat="44.255140819687945" lon="11.758900443259224"><ele>190.0</ele><time>2026-05-01T15:25:42Z</time></trkpt><trkpt lat="44.25507091188662" lon="11.758822602358887"><ele>190.0</ele><time>2026-05-01T15:25:46Z</time></trkpt><trkpt lat="44.25500177243679" lon="11.758785882506789"><ele>190.0</ele><time>2026-05-01T15:25:49Z</time></trkpt><trkpt lat="44.25494271873789" lon="11.758754681953368"><ele>190.0</ele><time>2026-05-01T15:25:52Z</time></trkpt><trkpt lat="44.254852688806366" lon="11.758728443682978"><ele>190.0</ele><time>2026-05-01T15:25:55Z</time></trkpt><trkpt lat="44.25475953045906" lon="11.758742808846991"><ele>190.0</ele><time>2026-05-01T15:25:58Z</time></trkpt><trkpt lat="44.254695530286625" lon="11.758741989869943"><ele>190.0</ele><time>2026-05-01T15:26:00Z</time></trkpt><trkpt lat="44.254627032710395" lon="11.758709685106957"><ele>189.66666666666669</ele><time>2026-05-01T15:26:02Z</time></trkpt><trkpt lat="44.254556118059746" lon="11.758679920759207"><ele>189.33333333333334</ele><time>2026-05-01T15:26:04Z</time></trkpt><trkpt lat="44.25447560918341" lon="11.758669656719228"><ele>189.0</ele><time>2026-05-01T15:26:06Z</time></trkpt><trkpt lat="44.254396056302724" lon="11.758662920819827"><ele>188.66666666666666</ele><time>2026-05-01T15:26:08Z</time></trkpt><trkpt lat="44.25430704861553" lon="11.758665692618255"><ele>188.33333333333331</ele><time>2026-05-01T15:26:10Z</time></trkpt><trkpt lat="44.25422764177312" lon="11.758689363194927"><ele>188.0</ele><time>2026-05-01T15:26:12Z</time></trkpt><trkpt lat="44.25413429310287" lon="11.758662338877603"><ele>188.0</ele><time>2026-05-01T15:26:14Z</time></trkpt><trkpt lat="44.25406067588621" lon="11.758664994984109"><ele>188.0</ele><time>2026-05-01T15:26:16Z</time></trkpt><trkpt lat="44.25398464696056" lon="11.75867070861308"><ele>188.0</ele><time>2026-05-01T15:26:18Z</time></trkpt><trkpt lat="44.253902824246865" lon="11.758681073013848"><ele>188.0</ele><time>2026-05-01T15:26:20Z</time></trkpt><trkpt lat="44.25381061352274" lon="11.758680750263887"><ele>188.0</ele><time>2026-05-01T15:26:23Z</time></trkpt><trkpt lat="44.253728119906604" lon="11.758679832975254"><ele>188.0</ele><time>2026-05-01T15:26:26Z</time></trkpt><trkpt lat="44.25366210433839" lon="11.75864578675806"><ele>188.28571428571428</ele><time>2026-05-01T15:26:29Z</time></trkpt><trkpt lat="44.25357115900789" lon="11.758637103507352"><ele>188.57142857142856</ele><time>2026-05-01T15:26:33Z</time></trkpt><trkpt lat="44.25350118482478" lon="11.758628152014419"><ele>188.85714285714286</ele><time>2026-05-01T15:26:36Z</time></trkpt><trkpt lat="44.25342020417965" lon="11.758638349584778"><ele>189.14285714285714</ele><time>2026-05-01T15:26:40Z</time></trkpt><trkpt lat="44.25334909040427" lon="11.75862441172935"><ele>189.42857142857144</ele><time>2026-05-01T15:26:43.999Z</time></trkpt><trkpt lat="44.25329338940026" lon="11.758573571400218"><ele>189.71428571428572</ele><time>2026-05-01T15:29:28Z</time></trkpt><trkpt lat="44.25323291049665" lon="11.758532158277813"><ele>190.0</ele><time>2026-05-01T15:29:34Z</time></trkpt><trkpt lat="44.25317588568387" lon="11.758482141437254"><ele>190.71428571428572</ele><time>2026-05-01T15:29:41Z</time></trkpt><trkpt lat="44.25311422178416" lon="11.758455605357947"><ele>191.42857142857144</ele><time>2026-05-01T15:31:37Z</time></trkpt><trkpt lat="44.253058450671546" lon="11.758413871585072"><ele>192.14285714285714</ele><time>2026-05-01T15:31:51Z</time></trkpt><trkpt lat="44.25300527139085" lon="11.758344769217196"><ele>192.85714285714286</ele><time>2026-05-01T15:32:01Z</time></trkpt><trkpt lat="44.252948102872296" lon="11.758279644269082"><ele>193.57142857142856</ele><time>2026-05-01T15:32:07Z</time></trkpt><trkpt lat="44.25288650073123" lon="11.758260930210064"><ele>194.28571428571428</ele><time>2026-05-01T15:32:11Z</time></trkpt><trkpt lat="44.25282379840185" lon="11.758198132027726"><ele>195.0</ele><time>2026-05-01T15:32:15Z</time></trkpt><trkpt lat="44.25278152794721" lon="11.758132800480777"><ele>195.0</ele><time>2026-05-01T15:32:19Z</time></trkpt><trkpt lat="44.252714970976264" lon="11.758097222287786"><ele>195.0</ele><time>2026-05-01T15:32:24Z</time></trkpt><trkpt lat="44.252647267117155" lon="11.758052254373997"><ele>195.0</ele><time>2026-05-01T15:32:30Z</time></trkpt><trkpt lat="44.25259690332127" lon="11.75799066588712"><ele>195.0</ele><time>2026-05-01T15:32:34Z</time></trkpt><trkpt lat="44.252525421207096" lon="11.757955349997657"><ele>195.0</ele><time>2026-05-01T15:32:39Z</time></trkpt><trkpt lat="44.25246689263328" lon="11.757912555681338"><ele>195.0</ele><time>2026-05-01T15:32:43Z</time></trkpt><trkpt lat="44.25240827631312" lon="11.75784023358283"><ele>195.0</ele><time>2026-05-01T15:32:49Z</time></trkpt><trkpt lat="44.25234913005311" lon="11.757793971433175"><ele>195.0</ele><time>2026-05-01T15:32:53Z</time></trkpt><trkpt lat="44.25229570206952" lon="11.757738605535183"><ele>195.0</ele><time>2026-05-01T15:32:57Z</time></trkpt><trkpt lat="44.2522366510567" lon="11.757703741310674"><ele>195.0</ele><time>2026-05-01T15:33:01Z</time></trkpt><trkpt lat="44.252174660156" lon="11.757659762319276"><ele>195.0</ele><time>2026-05-01T15:33:06Z</time></trkpt><trkpt lat="44.25211633495576" lon="11.757599097655728"><ele>195.0</ele><time>2026-05-01T15:33:10.999Z</time></trkpt><trkpt lat="44.252041176611975" lon="11.757546792028895"><ele>195.0</ele><time>2026-05-01T15:33:15.999Z</time></trkpt><trkpt lat="44.2519796868616" lon="11.757504748693405"><ele>195.0</ele><time>2026-05-01T15:33:19.999Z</time></trkpt><trkpt lat="44.25192545914457" lon="11.757455202708892"><ele>195.0</ele><time>2026-05-01T15:33:23.999Z</time></trkpt><trkpt lat="44.25186031410838" lon="11.757399091437668"><ele>195.0</ele><time>2026-05-01T15:33:28.999Z</time></trkpt><trkpt lat="44.25180579351925" lon="11.757346915363144"><ele>195.0</ele><time>2026-05-01T15:33:32.999Z</time></trkpt><trkpt lat="44.25174576729126" lon="11.757289773292399"><ele>195.0</ele><time>2026-05-01T15:33:37Z</time></trkpt><trkpt lat="44.251684468364594" lon="11.757247015449742"><ele>195.0</ele><time>2026-05-01T15:33:41Z</time></trkpt><trkpt lat="44.25162521731532" lon="11.75719896117304"><ele>195.0</ele><time>2026-05-01T15:33:45Z</time></trkpt><trkpt lat="44.25156328391443" lon="11.75715869489116"><ele>195.0</ele><time>2026-05-01T15:33:49Z</time></trkpt><trkpt lat="44.25149624189929" lon="11.757111321817456"><ele>196.28571428571428</ele><time>2026-05-01T15:33:53Z</time></trkpt><trkpt lat="44.25143615645799" lon="11.757062338489918"><ele>197.57142857142856</ele><time>2026-05-01T15:33:57Z</time></trkpt><trkpt lat="44.2513716638884" lon="11.757025322659802"><ele>198.85714285714286</ele><time>2026-05-01T15:34:01Z</time></trkpt><trkpt lat="44.251310166453734" lon="11.756969100224936"><ele>200.14285714285714</ele><time>2026-05-01T15:34:05Z</time></trkpt><trkpt lat="44.25124681569902" lon="11.756930944877276"><ele>201.42857142857144</ele><time>2026-05-01T15:34:09Z</time></trkpt><trkpt lat="44.25117699175795" lon="11.75688884633319"><ele>202.71428571428572</ele><time>2026-05-01T15:34:13Z</time></trkpt><trkpt lat="44.25110550710287" lon="11.75684641932655"><ele>204.0</ele><time>2026-05-01T15:34:17Z</time></trkpt><trkpt lat="44.25103913445079" lon="11.756803526996995"><ele>204.0</ele><time>2026-05-01T15:34:21Z</time></trkpt><trkpt lat="44.25096307659625" lon="11.756766891800776"><ele>204.0</ele><time>2026-05-01T15:34:25Z</time></trkpt><trkpt lat="44.250903387418646" lon="11.756730912584418"><ele>204.0</ele><time>2026-05-01T15:34:28Z</time></trkpt><trkpt lat="44.25083771563284" lon="11.75670069435153"><ele>204.0</ele><time>2026-05-01T15:34:31Z</time></trkpt><trkpt lat="44.250764412848426" lon="11.756668492188865"><ele>204.0</ele><time>2026-05-01T15:34:34Z</time></trkpt><trkpt lat="44.25068367243577" lon="11.756651751574239"><ele>204.0</ele><time>2026-05-01T15:34:37Z</time></trkpt><trkpt lat="44.25061007140328" lon="11.756639133926985"><ele>204.0</ele><time>2026-05-01T15:34:40Z</time></trkpt><trkpt lat="44.250541553784345" lon="11.756632465656248"><ele>202.16666666666666</ele><time>2026-05-01T15:34:43Z</time></trkpt><trkpt lat="44.25047074826813" lon="11.756619344625468"><ele>200.33333333333331</ele><time>2026-05-01T15:34:46Z</time></trkpt><trkpt lat="44.250393025590974" lon="11.756605926559086"><ele>198.5</ele><time>2026-05-01T15:34:49Z</time></trkpt><trkpt lat="44.25031577229505" lon="11.756579416478198"><ele>196.66666666666666</ele><time>2026-05-01T15:34:52Z</time></trkpt><trkpt lat="44.25024887677351" lon="11.756539077594411"><ele>194.83333333333331</ele><time>2026-05-01T15:34:54Z</time></trkpt><trkpt lat="44.2501593703343" lon="11.7564982261237"><ele>193.0</ele><time>2026-05-01T15:34:56Z</time></trkpt><trkpt lat="44.250042986230156" lon="11.756464331554787"><ele>192.99999999999997</ele><time>2026-05-01T15:34:58Z</time></trkpt><trkpt lat="44.249974602014866" lon="11.756460067410423"><ele>193.0</ele><time>2026-05-01T15:34:59Z</time></trkpt><trkpt lat="44.24989978764025" lon="11.756460002946076"><ele>193.0</ele><time>2026-05-01T15:35:00Z</time></trkpt><trkpt lat="44.249823204209676" lon="11.756461604918652"><ele>193.0</ele><time>2026-05-01T15:35:01Z</time></trkpt><trkpt lat="44.24975109697572" lon="11.756441893924585"><ele>192.99999999999997</ele><time>2026-05-01T15:35:02Z</time></trkpt><trkpt lat="44.2496802348289" lon="11.756391732833336"><ele>193.0</ele><time>2026-05-01T15:35:03Z</time></trkpt><trkpt lat="44.249616957177984" lon="11.756309471536106"><ele>191.8</ele><time>2026-05-01T15:35:04Z</time></trkpt><trkpt lat="44.249546436357285" lon="11.756233558664562"><ele>190.60000000000002</ele><time>2026-05-01T15:35:05Z</time></trkpt><trkpt lat="44.249456283982596" lon="11.756208402430577"><ele>189.39999999999998</ele><time>2026-05-01T15:35:06Z</time></trkpt><trkpt lat="44.2493628938217" lon="11.756246522418662"><ele>188.2</ele><time>2026-05-01T15:35:07Z</time></trkpt><trkpt lat="44.249282942106426" lon="11.756316228920975"><ele>187.0</ele><time>2026-05-01T15:35:08Z</time></trkpt><trkpt lat="44.24920841553857" lon="11.75638495572238"><ele>187.0</ele><time>2026-05-01T15:35:09Z</time></trkpt><trkpt lat="44.24914158888392" lon="11.75647432523916"><ele>187.0</ele><time>2026-05-01T15:35:10Z</time></trkpt><trkpt lat="44.24907666809158" lon="11.756538216468858"><ele>187.0</ele><time>2026-05-01T15:35:11Z</time></trkpt><trkpt lat="44.24900140228137" lon="11.756589503642264"><ele>187.0</ele><time>2026-05-01T15:35:12Z</time></trkpt><trkpt lat="44.24890429821864" lon="11.75652924167131"><ele>187.0</ele><time>2026-05-01T15:35:13Z</time></trkpt><trkpt lat="44.24880500827721" lon="11.756521537651139"><ele>187.0</ele><time>2026-05-01T15:35:14Z</time></trkpt><trkpt lat="44.24870001419072" lon="11.75656996182704"><ele>187.0</ele><time>2026-05-01T15:35:15Z</time></trkpt><trkpt lat="44.248598279406416" lon="11.756600435105073"><ele>187.0</ele><time>2026-05-01T15:35:16Z</time></trkpt><trkpt lat="44.248496234763095" lon="11.756582783344772"><ele>187.0</ele><time>2026-05-01T15:35:17Z</time></trkpt><trkpt lat="44.24838729892123" lon="11.756586381106695"><ele>187.0</ele><time>2026-05-01T15:35:18Z</time></trkpt><trkpt lat="44.24827414318829" lon="11.75660066020517"><ele>187.0</ele><time>2026-05-01T15:35:19Z</time></trkpt><trkpt lat="44.24816254442362" lon="11.756625627175072"><ele>187.0</ele><time>2026-05-01T15:35:20Z</time></trkpt><trkpt lat="44.24804618467242" lon="11.75672034799758"><ele>187.0</ele><time>2026-05-01T15:35:21Z</time></trkpt><trkpt lat="44.24795456798845" lon="11.75680077287234"><ele>187.0</ele><time>2026-05-01T15:35:22Z</time></trkpt><trkpt lat="44.24787598703416" lon="11.756841543401388"><ele>187.0</ele><time>2026-05-01T15:35:23Z</time></trkpt><trkpt lat="44.247777298700704" lon="11.756811832025031"><ele>187.75</ele><time>2026-05-01T15:35:24Z</time></trkpt><trkpt lat="44.24768288973845" lon="11.756713438498089"><ele>188.5</ele><time>2026-05-01T15:35:25Z</time></trkpt><trkpt lat="44.24756725289408" lon="11.756715883426235"><ele>189.25</ele><time>2026-05-01T15:35:26Z</time></trkpt><trkpt lat="44.24746101056545" lon="11.756758167642737"><ele>190.0</ele><time>2026-05-01T15:35:27Z</time></trkpt><trkpt lat="44.247365666324825" lon="11.756830007038895"><ele>187.8</ele><time>2026-05-01T15:35:28Z</time></trkpt><trkpt lat="44.24729581598751" lon="11.756978802582367"><ele>185.6</ele><time>2026-05-01T15:35:29Z</time></trkpt><trkpt lat="44.2472423614485" lon="11.757094692716656"><ele>183.39999999999998</ele><time>2026-05-01T15:35:30Z</time></trkpt><trkpt lat="44.24716351822245" lon="11.75716609245041"><ele>181.2</ele><time>2026-05-01T15:35:30.999Z</time></trkpt><trkpt lat="44.24705933420824" lon="11.757161123559316"><ele>179.0</ele><time>2026-05-01T15:35:31.999Z</time></trkpt><trkpt lat="44.246971984199064" lon="11.757112083597747"><ele>179.0</ele><time>2026-05-01T15:35:32.999Z</time></trkpt><trkpt lat="44.24688247203075" lon="11.757131036227236"><ele>179.0</ele><time>2026-05-01T15:35:33.999Z</time></trkpt><trkpt lat="44.24681569385323" lon="11.757219864416651"><ele>179.0</ele><time>2026-05-01T15:35:34.999Z</time></trkpt><trkpt lat="44.24679679259286" lon="11.757378775742984"><ele>179.0</ele><time>2026-05-01T15:35:35.999Z</time></trkpt><trkpt lat="44.246804405584804" lon="11.757549589504306"><ele>179.0</ele><time>2026-05-01T15:35:36.999Z</time></trkpt><trkpt lat="44.24682952195539" lon="11.757715141652133"><ele>179.2</ele><time>2026-05-01T15:35:37.999Z</time></trkpt><trkpt lat="44.24684918523295" lon="11.75787695927851"><ele>179.39999999999998</ele><time>2026-05-01T15:35:38.999Z</time></trkpt><trkpt lat="44.246860860071216" lon="11.758034004351359"><ele>179.6</ele><time>2026-05-01T15:35:39.999Z</time></trkpt><trkpt lat="44.24687955688256" lon="11.758150483950937"><ele>179.8</ele><time>2026-05-01T15:35:40.999Z</time></trkpt><trkpt lat="44.2469188813585" lon="11.75824050140827"><ele>180.0</ele><time>2026-05-01T15:35:42Z</time></trkpt><trkpt lat="44.24698681386533" lon="11.758301381566108"><ele>180.0</ele><time>2026-05-01T15:35:43Z</time></trkpt><trkpt lat="44.247065097169205" lon="11.758339865554928"><ele>180.0</ele><time>2026-05-01T15:35:44Z</time></trkpt><trkpt lat="44.24713024547334" lon="11.758363415730472"><ele>180.0</ele><time>2026-05-01T15:35:45Z</time></trkpt><trkpt lat="44.247202441500804" lon="11.758405621568716"><ele>180.0</ele><time>2026-05-01T15:35:47Z</time></trkpt><trkpt lat="44.247271830151384" lon="11.758486513655152"><ele>180.0</ele><time>2026-05-01T15:35:50Z</time></trkpt><trkpt lat="44.2473157209111" lon="11.758550808823404"><ele>180.0</ele><time>2026-05-01T15:35:52Z</time></trkpt><trkpt lat="44.24736979165441" lon="11.758632492346168"><ele>179.14285714285714</ele><time>2026-05-01T15:35:55Z</time></trkpt><trkpt lat="44.247417857948584" lon="11.758719722573906"><ele>178.2857142857143</ele><time>2026-05-01T15:35:59Z</time></trkpt><trkpt lat="44.247459871316046" lon="11.758792167737566"><ele>177.42857142857144</ele><time>2026-05-01T15:36:02Z</time></trkpt><trkpt lat="44.24749815533869" lon="11.758865023858109"><ele>176.57142857142856</ele><time>2026-05-01T15:36:05Z</time></trkpt><trkpt lat="44.24754301584788" lon="11.758948261026838"><ele>175.71428571428572</ele><time>2026-05-01T15:36:09Z</time></trkpt><trkpt lat="44.24758989943532" lon="11.759022135736272"><ele>174.85714285714286</ele><time>2026-05-01T15:36:13Z</time></trkpt><trkpt lat="44.24763695719233" lon="11.75910407821203"><ele>174.0</ele><time>2026-05-01T15:36:18Z</time></trkpt><trkpt lat="44.24768582672953" lon="11.759190969731007"><ele>174.0</ele><time>2026-05-01T15:36:23Z</time></trkpt><trkpt lat="44.24772058529935" lon="11.759280670309076"><ele>174.0</ele><time>2026-05-01T15:36:28Z</time></trkpt><trkpt lat="44.247735221933546" lon="11.75937947178251"><ele>174.0</ele><time>2026-05-01T15:36:32Z</time></trkpt><trkpt lat="44.2477434767831" lon="11.759485296441058"><ele>174.0</ele><time>2026-05-01T15:36:37Z</time></trkpt><trkpt lat="44.247735109548735" lon="11.759592795785073"><ele>174.0</ele><time>2026-05-01T15:36:42Z</time></trkpt><trkpt lat="44.24773062678583" lon="11.759697739805862"><ele>174.0</ele><time>2026-05-01T15:36:47Z</time></trkpt><trkpt lat="44.2476933999291" lon="11.75976921010093"><ele>174.0</ele><time>2026-05-01T15:36:52Z</time></trkpt><trkpt lat="44.247686056146456" lon="11.75987543822759"><ele>174.85714285714286</ele><time>2026-05-01T15:36:57Z</time></trkpt><trkpt lat="44.247641657867604" lon="11.75994923604754"><ele>175.71428571428572</ele><time>2026-05-01T15:37:02Z</time></trkpt><trkpt lat="44.2476094523699" lon="11.76003097943033"><ele>176.57142857142856</ele><time>2026-05-01T15:37:07Z</time></trkpt><trkpt lat="44.247583933463396" lon="11.76012226608203"><ele>177.42857142857144</ele><time>2026-05-01T15:37:12Z</time></trkpt><trkpt lat="44.247540957932884" lon="11.760201793480702"><ele>178.2857142857143</ele><time>2026-05-01T15:37:17Z</time></trkpt><trkpt lat="44.24749563803942" lon="11.76028039424417"><ele>179.14285714285714</ele><time>2026-05-01T15:37:23Z</time></trkpt><trkpt lat="44.247453330898125" lon="11.76036152402679"><ele>180.0</ele><time>2026-05-01T15:37:27.999Z</time></trkpt><trkpt lat="44.24742146861351" lon="11.760439564235371"><ele>180.14285714285714</ele><time>2026-05-01T15:37:31.999Z</time></trkpt><trkpt lat="44.24738103896637" lon="11.760515037807156"><ele>180.2857142857143</ele><time>2026-05-01T15:37:35.999Z</time></trkpt><trkpt lat="44.24735903746692" lon="11.760612854175333"><ele>180.42857142857144</ele><time>2026-05-01T15:37:39.999Z</time></trkpt><trkpt lat="44.247343966801445" lon="11.760704436575121"><ele>180.57142857142856</ele><time>2026-05-01T15:37:44.999Z</time></trkpt><trkpt lat="44.24732934117744" lon="11.76080020450005"><ele>180.71428571428572</ele><time>2026-05-01T15:37:50Z</time></trkpt><trkpt lat="44.24732528139853" lon="11.760896404530559"><ele>180.85714285714286</ele><time>2026-05-01T15:37:54Z</time></trkpt><trkpt lat="44.24730736832954" lon="11.760991960136808"><ele>181.0</ele><time>2026-05-01T15:37:59Z</time></trkpt><trkpt lat="44.247316004428775" lon="11.761085296646817"><ele>181.42857142857142</ele><time>2026-05-01T15:38:03Z</time></trkpt><trkpt lat="44.24730481756707" lon="11.761185668772194"><ele>181.85714285714283</ele><time>2026-05-01T15:38:08Z</time></trkpt><trkpt lat="44.24728424494883" lon="11.76127811976246"><ele>182.28571428571428</ele><time>2026-05-01T15:38:13Z</time></trkpt><trkpt lat="44.24727570349143" lon="11.761371552197716"><ele>182.71428571428572</ele><time>2026-05-01T15:38:17Z</time></trkpt><trkpt lat="44.24722137785791" lon="11.761418116791829"><ele>183.14285714285714</ele><time>2026-05-01T15:38:21Z</time></trkpt><trkpt lat="44.24716176206915" lon="11.761455391776623"><ele>183.57142857142858</ele><time>2026-05-01T15:38:25Z</time></trkpt><trkpt lat="44.247080487230654" lon="11.761485215263662"><ele>184.0</ele><time>2026-05-01T15:38:29Z</time></trkpt><trkpt lat="44.247005788934594" lon="11.761524571497725"><ele>184.16666666666669</ele><time>2026-05-01T15:38:32Z</time></trkpt><trkpt lat="44.24693548811219" lon="11.761545410387098"><ele>184.33333333333334</ele><time>2026-05-01T15:38:34Z</time></trkpt><trkpt lat="44.24684829576675" lon="11.761571977463342"><ele>184.5</ele><time>2026-05-01T15:38:36Z</time></trkpt><trkpt lat="44.24675362975992" lon="11.761474952756478"><ele>184.66666666666666</ele><time>2026-05-01T15:38:38Z</time></trkpt><trkpt lat="44.24671801628148" lon="11.761400293996976"><ele>184.83333333333331</ele><time>2026-05-01T15:38:39Z</time></trkpt><trkpt lat="44.24669360997939" lon="11.76129549286054"><ele>185.0</ele><time>2026-05-01T15:38:40Z</time></trkpt><trkpt lat="44.24663867191201" lon="11.76121490639864"><ele>185.0</ele><time>2026-05-01T15:38:41Z</time></trkpt><trkpt lat="44.24656354277204" lon="11.761138322843424"><ele>185.0</ele><time>2026-05-01T15:38:42Z</time></trkpt><trkpt lat="44.24648068301615" lon="11.761104120831748"><ele>185.0</ele><time>2026-05-01T15:38:43Z</time></trkpt><trkpt lat="44.24639406404302" lon="11.761028044289741"><ele>185.0</ele><time>2026-05-01T15:38:44Z</time></trkpt><trkpt lat="44.24632684737934" lon="11.760937076060745"><ele>185.0</ele><time>2026-05-01T15:38:45Z</time></trkpt><trkpt lat="44.24629225084885" lon="11.760789483809186"><ele>181.0</ele><time>2026-05-01T15:38:46Z</time></trkpt><trkpt lat="44.246215325624604" lon="11.760684593658993"><ele>177.0</ele><time>2026-05-01T15:38:47Z</time></trkpt><trkpt lat="44.2461165385719" lon="11.760638986620268"><ele>173.0</ele><time>2026-05-01T15:38:48Z</time></trkpt><trkpt lat="44.246042104487614" lon="11.760563211962479"><ele>169.0</ele><time>2026-05-01T15:38:49Z</time></trkpt><trkpt lat="44.246019024199796" lon="11.760426351238202"><ele>165.0</ele><time>2026-05-01T15:38:50Z</time></trkpt><trkpt lat="44.24599224192488" lon="11.760307181009075"><ele>167.6</ele><time>2026-05-01T15:38:51Z</time></trkpt><trkpt lat="44.245966848395156" lon="11.76019482165836"><ele>170.2</ele><time>2026-05-01T15:38:52Z</time></trkpt><trkpt lat="44.24591396446429" lon="11.760108686217238"><ele>172.8</ele><time>2026-05-01T15:38:53Z</time></trkpt><trkpt lat="44.24582733728969" lon="11.76006522102517"><ele>175.4</ele><time>2026-05-01T15:38:54Z</time></trkpt><trkpt lat="44.24572269360418" lon="11.7600619915945"><ele>178.0</ele><time>2026-05-01T15:38:55Z</time></trkpt><trkpt lat="44.245631174974385" lon="11.76015457590972"><ele>172.6</ele><time>2026-05-01T15:38:56Z</time></trkpt><trkpt lat="44.245544374410535" lon="11.7602201054452"><ele>167.20000000000002</ele><time>2026-05-01T15:38:57Z</time></trkpt><trkpt lat="44.2454540193831" lon="11.760241665774933"><ele>161.8</ele><time>2026-05-01T15:38:58Z</time></trkpt><trkpt lat="44.24536791395132" lon="11.76024703848409"><ele>156.4</ele><time>2026-05-01T15:38:59Z</time></trkpt><trkpt lat="44.245270301646485" lon="11.760205404502372"><ele>151.0</ele><time>2026-05-01T15:39:00Z</time></trkpt><trkpt lat="44.245180923441275" lon="11.760208760424264"><ele>151.0</ele><time>2026-05-01T15:39:01Z</time></trkpt><trkpt lat="44.2451142975301" lon="11.760267191242743"><ele>151.0</ele><time>2026-05-01T15:39:02Z</time></trkpt><trkpt lat="44.24507976424953" lon="11.760369437171342"><ele>151.0</ele><time>2026-05-01T15:39:03Z</time></trkpt><trkpt lat="44.245117393676125" lon="11.76050847384595"><ele>151.0</ele><time>2026-05-01T15:39:04Z</time></trkpt><trkpt lat="44.245185744472344" lon="11.760593119595718"><ele>151.0</ele><time>2026-05-01T15:39:05Z</time></trkpt><trkpt lat="44.245285792397695" lon="11.760610013484959"><ele>151.0</ele><time>2026-05-01T15:39:06Z</time></trkpt><trkpt lat="44.2453793421107" lon="11.760576494714046"><ele>151.0</ele><time>2026-05-01T15:39:07Z</time></trkpt><trkpt lat="44.24546063500183" lon="11.760541498312394"><ele>151.0</ele><time>2026-05-01T15:39:08Z</time></trkpt><trkpt lat="44.24554770645009" lon="11.760522100738275"><ele>151.0</ele><time>2026-05-01T15:39:09Z</time></trkpt><trkpt lat="44.24563558235034" lon="11.760515017547936"><ele>151.0</ele><time>2026-05-01T15:39:10Z</time></trkpt><trkpt lat="44.24572298118124" lon="11.760571609072644"><ele>153.6</ele><time>2026-05-01T15:39:11Z</time></trkpt><trkpt lat="44.24574936933147" lon="11.760716939120385"><ele>156.2</ele><time>2026-05-01T15:39:12Z</time></trkpt><trkpt lat="44.245785409117794" lon="11.760842243690705"><ele>158.79999999999998</ele><time>2026-05-01T15:39:13Z</time></trkpt><trkpt lat="44.2458465554873" lon="11.76095281749789"><ele>161.39999999999998</ele><time>2026-05-01T15:39:14Z</time></trkpt><trkpt lat="44.24588519427625" lon="11.761065863956851"><ele>164.0</ele><time>2026-05-01T15:39:15Z</time></trkpt><trkpt lat="44.245881794895084" lon="11.76118749397352"><ele>164.0</ele><time>2026-05-01T15:39:16Z</time></trkpt><trkpt lat="44.24584895811489" lon="11.76127969260781"><ele>164.0</ele><time>2026-05-01T15:39:17Z</time></trkpt><trkpt lat="44.24579712115072" lon="11.761342853319883"><ele>164.0</ele><time>2026-05-01T15:39:18Z</time></trkpt><trkpt lat="44.245717816043886" lon="11.761270851004298"><ele>164.0</ele><time>2026-05-01T15:39:19Z</time></trkpt><trkpt lat="44.245639135377914" lon="11.761250022855913"><ele>164.0</ele><time>2026-05-01T15:39:20Z</time></trkpt><trkpt lat="44.245546900785726" lon="11.761265697803067"><ele>164.0</ele><time>2026-05-01T15:39:21Z</time></trkpt><trkpt lat="44.24545797823155" lon="11.761283535635718"><ele>162.2</ele><time>2026-05-01T15:39:22Z</time></trkpt><trkpt lat="44.24537784750906" lon="11.761351173488208"><ele>160.39999999999998</ele><time>2026-05-01T15:39:23Z</time></trkpt><trkpt lat="44.24531116787582" lon="11.761454911036468"><ele>158.6</ele><time>2026-05-01T15:39:24Z</time></trkpt><trkpt lat="44.245270965873935" lon="11.761590416411057"><ele>156.8</ele><time>2026-05-01T15:39:25Z</time></trkpt><trkpt lat="44.24525613614419" lon="11.7617406626093"><ele>155.0</ele><time>2026-05-01T15:39:26Z</time></trkpt><trkpt lat="44.24526258950238" lon="11.761884858187853"><ele>155.0</ele><time>2026-05-01T15:39:26.999Z</time></trkpt><trkpt lat="44.24525769803534" lon="11.762028560450009"><ele>155.0</ele><time>2026-05-01T15:39:27.999Z</time></trkpt><trkpt lat="44.24525466979017" lon="11.762152553769093"><ele>155.0</ele><time>2026-05-01T15:39:28.999Z</time></trkpt><trkpt lat="44.245162244639516" lon="11.76224683946429"><ele>155.0</ele><time>2026-05-01T15:39:30.999Z</time></trkpt><trkpt lat="44.24508674299948" lon="11.762087323501088"><ele>155.0</ele><time>2026-05-01T15:39:32.999Z</time></trkpt><trkpt lat="44.24505079041225" lon="11.761999978159151"><ele>155.0</ele><time>2026-05-01T15:39:33.999Z</time></trkpt><trkpt lat="44.245012183154756" lon="11.761901509444064"><ele>155.0</ele><time>2026-05-01T15:39:34.999Z</time></trkpt><trkpt lat="44.24496072867673" lon="11.761796650117098"><ele>155.0</ele><time>2026-05-01T15:39:35.999Z</time></trkpt><trkpt lat="44.24490154018589" lon="11.761694286483342"><ele>155.0</ele><time>2026-05-01T15:39:36.999Z</time></trkpt><trkpt lat="44.24482359306684" lon="11.76159741054497"><ele>155.0</ele><time>2026-05-01T15:39:37.999Z</time></trkpt><trkpt lat="44.24472163847484" lon="11.76153483511992"><ele>153.25</ele><time>2026-05-01T15:39:38.999Z</time></trkpt><trkpt lat="44.244620807639315" lon="11.76147471875872"><ele>151.5</ele><time>2026-05-01T15:39:39.999Z</time></trkpt><trkpt lat="44.24451492175145" lon="11.7614139312973"><ele>149.75</ele><time>2026-05-01T15:39:40.999Z</time></trkpt><trkpt lat="44.24441312063635" lon="11.761341706481286"><ele>148.0</ele><time>2026-05-01T15:39:41.999Z</time></trkpt><trkpt lat="44.244306542211774" lon="11.761286761207426"><ele>148.0</ele><time>2026-05-01T15:39:42.999Z</time></trkpt><trkpt lat="44.2442047717746" lon="11.761235287534294"><ele>148.0</ele><time>2026-05-01T15:39:43.999Z</time></trkpt><trkpt lat="44.24409402101973" lon="11.761179181517189"><ele>148.0</ele><time>2026-05-01T15:39:44.999Z</time></trkpt><trkpt lat="44.2439946160946" lon="11.761127433659226"><ele>148.0</ele><time>2026-05-01T15:39:45.999Z</time></trkpt><trkpt lat="44.24388884360145" lon="11.761092194648132"><ele>148.0</ele><time>2026-05-01T15:39:46.999Z</time></trkpt><trkpt lat="44.24379561582402" lon="11.76102002950224"><ele>145.4</ele><time>2026-05-01T15:39:47.999Z</time></trkpt><trkpt lat="44.24369303521321" lon="11.760964409961707"><ele>142.8</ele><time>2026-05-01T15:39:48.999Z</time></trkpt><trkpt lat="44.24359271216912" lon="11.76091111608092"><ele>140.2</ele><time>2026-05-01T15:39:49.999Z</time></trkpt><trkpt lat="44.24349509633047" lon="11.760857412817352"><ele>137.6</ele><time>2026-05-01T15:39:50.999Z</time></trkpt><trkpt lat="44.243396482855836" lon="11.760788701991418"><ele>135.0</ele><time>2026-05-01T15:39:51.999Z</time></trkpt><trkpt lat="44.24330616395696" lon="11.760707439774883"><ele>135.0</ele><time>2026-05-01T15:39:52.999Z</time></trkpt><trkpt lat="44.243216682023004" lon="11.760624796745443"><ele>135.0</ele><time>2026-05-01T15:39:54Z</time></trkpt><trkpt lat="44.243116428166566" lon="11.76054711214233"><ele>135.0</ele><time>2026-05-01T15:39:55Z</time></trkpt><trkpt lat="44.243031941460515" lon="11.760459030861014"><ele>135.0</ele><time>2026-05-01T15:39:56Z</time></trkpt><trkpt lat="44.24294486222452" lon="11.760377438451032"><ele>135.0</ele><time>2026-05-01T15:39:57Z</time></trkpt><trkpt lat="44.242859375248024" lon="11.760285686522138"><ele>133.8</ele><time>2026-05-01T15:39:58Z</time></trkpt><trkpt lat="44.242772687452714" lon="11.760197771349478"><ele>132.6</ele><time>2026-05-01T15:39:59Z</time></trkpt><trkpt lat="44.242687375272745" lon="11.760110452547595"><ele>131.4</ele><time>2026-05-01T15:40:00Z</time></trkpt><trkpt lat="44.24260465953156" lon="11.760024453349228"><ele>130.2</ele><time>2026-05-01T15:40:01Z</time></trkpt><trkpt lat="44.24251590631791" lon="11.759961431892782"><ele>129.0</ele><time>2026-05-01T15:40:02Z</time></trkpt><trkpt lat="44.24241788711748" lon="11.759902195730199"><ele>129.0</ele><time>2026-05-01T15:40:03Z</time></trkpt><trkpt lat="44.24231964190506" lon="11.759864575651564"><ele>129.0</ele><time>2026-05-01T15:40:04Z</time></trkpt><trkpt lat="44.24221786557465" lon="11.759862728387679"><ele>129.0</ele><time>2026-05-01T15:40:05Z</time></trkpt><trkpt lat="44.24211807684846" lon="11.759896516557005"><ele>129.0</ele><time>2026-05-01T15:40:06Z</time></trkpt><trkpt lat="44.242019176193416" lon="11.759939927157756"><ele>129.0</ele><time>2026-05-01T15:40:07Z</time></trkpt><trkpt lat="44.24192268359969" lon="11.759984534620452"><ele>128.0</ele><time>2026-05-01T15:40:08Z</time></trkpt><trkpt lat="44.241830377210476" lon="11.760040043670765"><ele>127.0</ele><time>2026-05-01T15:40:09Z</time></trkpt><trkpt lat="44.241734308939485" lon="11.760077568142236"><ele>126.0</ele><time>2026-05-01T15:40:10Z</time></trkpt><trkpt lat="44.24164826492881" lon="11.7601214161122"><ele>125.0</ele><time>2026-05-01T15:40:11Z</time></trkpt><trkpt lat="44.2415620233541" lon="11.760165530191356"><ele>124.0</ele><time>2026-05-01T15:40:12Z</time></trkpt><trkpt lat="44.241474624124905" lon="11.760204738108852"><ele>123.66666666666667</ele><time>2026-05-01T15:40:13Z</time></trkpt><trkpt lat="44.241388440602215" lon="11.760247418287495"><ele>123.33333333333334</ele><time>2026-05-01T15:40:14Z</time></trkpt><trkpt lat="44.24130707792472" lon="11.760290113021886"><ele>123.0</ele><time>2026-05-01T15:40:15Z</time></trkpt><trkpt lat="44.24122787426616" lon="11.76033861345749"><ele>122.66666666666666</ele><time>2026-05-01T15:40:16Z</time></trkpt><trkpt lat="44.24114791564699" lon="11.760391037135747"><ele>122.33333333333333</ele><time>2026-05-01T15:40:17Z</time></trkpt><trkpt lat="44.241072583646854" lon="11.760448119043431"><ele>122.0</ele><time>2026-05-01T15:40:18Z</time></trkpt><trkpt lat="44.240997871237795" lon="11.76050567206318"><ele>121.99999999999999</ele><time>2026-05-01T15:40:19Z</time></trkpt><trkpt lat="44.24092600703266" lon="11.76056272399147"><ele>122.0</ele><time>2026-05-01T15:40:20Z</time></trkpt><trkpt lat="44.24085249349655" lon="11.760619041521196"><ele>122.0</ele><time>2026-05-01T15:40:21Z</time></trkpt><trkpt lat="44.24078342732052" lon="11.760672102690807"><ele>122.0</ele><time>2026-05-01T15:40:22Z</time></trkpt><trkpt lat="44.24071550178964" lon="11.760734332703665"><ele>121.99999999999999</ele><time>2026-05-01T15:40:23Z</time></trkpt><trkpt lat="44.240648297376936" lon="11.760793730548428"><ele>122.0</ele><time>2026-05-01T15:40:24Z</time></trkpt><trkpt lat="44.240580327944606" lon="11.760850401154979"><ele>121.42857142857142</ele><time>2026-05-01T15:40:25Z</time></trkpt><trkpt lat="44.24051278806729" lon="11.760898277806136"><ele>120.85714285714286</ele><time>2026-05-01T15:40:26Z</time></trkpt><trkpt lat="44.240448265554576" lon="11.760947260152237"><ele>120.28571428571428</ele><time>2026-05-01T15:40:27Z</time></trkpt><trkpt lat="44.24038808672757" lon="11.761003992790542"><ele>119.71428571428571</ele><time>2026-05-01T15:40:28Z</time></trkpt><trkpt lat="44.240324192367815" lon="11.761055853008891"><ele>119.14285714285714</ele><time>2026-05-01T15:40:29Z</time></trkpt><trkpt lat="44.24026816875139" lon="11.761106467298866"><ele>118.57142857142857</ele><time>2026-05-01T15:40:30Z</time></trkpt><trkpt lat="44.24021520526487" lon="11.761160555891742"><ele>118.0</ele><time>2026-05-01T15:40:31Z</time></trkpt><trkpt lat="44.24011526102195" lon="11.761266206550339"><ele>118.00000000000001</ele><time>2026-05-01T15:40:33Z</time></trkpt><trkpt lat="44.240034095242116" lon="11.76140666277176"><ele>118.0</ele><time>2026-05-01T15:40:35Z</time></trkpt><trkpt lat="44.239996656337325" lon="11.761487853831984"><ele>118.0</ele><time>2026-05-01T15:40:36Z</time></trkpt><trkpt lat="44.23996006633617" lon="11.761576932485477"><ele>118.0</ele><time>2026-05-01T15:40:37Z</time></trkpt><trkpt lat="44.239909745323516" lon="11.761659412322961"><ele>118.00000000000001</ele><time>2026-05-01T15:40:38Z</time></trkpt><trkpt lat="44.239833120412015" lon="11.761687171570534"><ele>118.0</ele><time>2026-05-01T15:40:39Z</time></trkpt><trkpt lat="44.239751758902216" lon="11.761678785462381"><ele>118.33333333333334</ele><time>2026-05-01T15:40:40Z</time></trkpt><trkpt lat="44.23967012789826" lon="11.761698215293286"><ele>118.66666666666667</ele><time>2026-05-01T15:40:41Z</time></trkpt><trkpt lat="44.239603026104135" lon="11.76174437781539"><ele>119.0</ele><time>2026-05-01T15:40:42Z</time></trkpt><trkpt lat="44.239545299185174" lon="11.7618278711301"><ele>119.33333333333334</ele><time>2026-05-01T15:40:43Z</time></trkpt><trkpt lat="44.2395566351792" lon="11.761974188227953"><ele>119.66666666666667</ele><time>2026-05-01T15:40:44Z</time></trkpt><trkpt lat="44.23957020625902" lon="11.762094420866928"><ele>120.0</ele><time>2026-05-01T15:40:45Z</time></trkpt><trkpt lat="44.23956130572039" lon="11.762207064669859"><ele>120.0</ele><time>2026-05-01T15:40:46Z</time></trkpt><trkpt lat="44.239564109716426" lon="11.762318947374057"><ele>120.0</ele><time>2026-05-01T15:40:47Z</time></trkpt><trkpt lat="44.23956330216742" lon="11.762431994527747"><ele>120.0</ele><time>2026-05-01T15:40:48Z</time></trkpt><trkpt lat="44.23955915247245" lon="11.762548397935067"><ele>120.0</ele><time>2026-05-01T15:40:49Z</time></trkpt><trkpt lat="44.23954838433121" lon="11.76266608940409"><ele>120.0</ele><time>2026-05-01T15:40:50Z</time></trkpt><trkpt lat="44.23952813934465" lon="11.762780784983672"><ele>120.0</ele><time>2026-05-01T15:40:51Z</time></trkpt><trkpt lat="44.239501116607066" lon="11.762894014596748"><ele>119.0</ele><time>2026-05-01T15:40:52Z</time></trkpt><trkpt lat="44.23946914268312" lon="11.763004596162839"><ele>118.0</ele><time>2026-05-01T15:40:53Z</time></trkpt><trkpt lat="44.239433476814035" lon="11.76310819576481"><ele>117.0</ele><time>2026-05-01T15:40:54Z</time></trkpt><trkpt lat="44.239396071594676" lon="11.763205999001446"><ele>116.0</ele><time>2026-05-01T15:40:55Z</time></trkpt><trkpt lat="44.23937010818514" lon="11.763315202683215"><ele>115.0</ele><time>2026-05-01T15:40:56Z</time></trkpt><trkpt lat="44.239319378941765" lon="11.763401396622873"><ele>114.0</ele><time>2026-05-01T15:40:57Z</time></trkpt><trkpt lat="44.239296375845925" lon="11.763507499569513"><ele>113.71428571428571</ele><time>2026-05-01T15:40:58Z</time></trkpt><trkpt lat="44.23925963068567" lon="11.76359952564957"><ele>113.42857142857142</ele><time>2026-05-01T15:40:59Z</time></trkpt><trkpt lat="44.2392250481748" lon="11.763691192276228"><ele>113.14285714285714</ele><time>2026-05-01T15:41:00Z</time></trkpt><trkpt lat="44.2391907235904" lon="11.763780179902206"><ele>112.85714285714286</ele><time>2026-05-01T15:41:01Z</time></trkpt><trkpt lat="44.23915677276207" lon="11.763867759890717"><ele>112.57142857142857</ele><time>2026-05-01T15:41:02Z</time></trkpt><trkpt lat="44.23912388013127" lon="11.763954548207941"><ele>112.28571428571428</ele><time>2026-05-01T15:41:03Z</time></trkpt><trkpt lat="44.23909246096521" lon="11.764041449010847"><ele>112.0</ele><time>2026-05-01T15:41:04Z</time></trkpt><trkpt lat="44.23905454875837" lon="11.764131566048764"><ele>112.00000000000001</ele><time>2026-05-01T15:41:05Z</time></trkpt><trkpt lat="44.23902154692399" lon="11.764214857042175"><ele>112.0</ele><time>2026-05-01T15:41:06Z</time></trkpt><trkpt lat="44.23898773367961" lon="11.764297263067428"><ele>112.0</ele><time>2026-05-01T15:41:07Z</time></trkpt><trkpt lat="44.2389197011279" lon="11.764450430928333"><ele>112.0</ele><time>2026-05-01T15:41:09Z</time></trkpt><trkpt lat="44.23887788418736" lon="11.764525678823292"><ele>112.00000000000001</ele><time>2026-05-01T15:41:10Z</time></trkpt><trkpt lat="44.23883558658796" lon="11.764598733505025"><ele>112.0</ele><time>2026-05-01T15:41:11Z</time></trkpt><trkpt lat="44.23874153569469" lon="11.764715961303368"><ele>111.85714285714286</ele><time>2026-05-01T15:41:13Z</time></trkpt><trkpt lat="44.238698494186025" lon="11.764780999844922"><ele>111.71428571428572</ele><time>2026-05-01T15:41:14Z</time></trkpt><trkpt lat="44.23865478025531" lon="11.764845825375236"><ele>111.57142857142857</ele><time>2026-05-01T15:41:15Z</time></trkpt><trkpt lat="44.23861914324688" lon="11.764923298442872"><ele>111.42857142857143</ele><time>2026-05-01T15:41:16Z</time></trkpt><trkpt lat="44.238575432844065" lon="11.7649877024876"><ele>111.28571428571429</ele><time>2026-05-01T15:41:17Z</time></trkpt><trkpt lat="44.23853054978453" lon="11.765056665531816"><ele>111.14285714285714</ele><time>2026-05-01T15:41:18Z</time></trkpt><trkpt lat="44.23848650828784" lon="11.765126047824468"><ele>111.0</ele><time>2026-05-01T15:41:19Z</time></trkpt><trkpt lat="44.238437927192116" lon="11.765193319624457"><ele>110.71428571428571</ele><time>2026-05-01T15:41:20Z</time></trkpt><trkpt lat="44.23839020423315" lon="11.765262581486676"><ele>110.42857142857143</ele><time>2026-05-01T15:41:21Z</time></trkpt><trkpt lat="44.238344195302666" lon="11.76534401308956"><ele>110.14285714285714</ele><time>2026-05-01T15:41:22Z</time></trkpt><trkpt lat="44.23828721333112" lon="11.765411596748693"><ele>109.85714285714286</ele><time>2026-05-01T15:41:23Z</time></trkpt><trkpt lat="44.2382425642352" lon="11.765490487915237"><ele>109.57142857142858</ele><time>2026-05-01T15:41:24Z</time></trkpt><trkpt lat="44.2382004507138" lon="11.765565948821791"><ele>109.28571428571429</ele><time>2026-05-01T15:41:25Z</time></trkpt><trkpt lat="44.2381547199664" lon="11.765647891281809"><ele>109.0</ele><time>2026-05-01T15:41:26Z</time></trkpt><trkpt lat="44.23812040892884" lon="11.76573627214706"><ele>109.0</ele><time>2026-05-01T15:41:27Z</time></trkpt><trkpt lat="44.23807402588392" lon="11.765806275343238"><ele>109.0</ele><time>2026-05-01T15:41:28Z</time></trkpt><trkpt lat="44.2380305980786" lon="11.765887616182935"><ele>109.0</ele><time>2026-05-01T15:41:29Z</time></trkpt><trkpt lat="44.23798604328985" lon="11.765964183111667"><ele>109.0</ele><time>2026-05-01T15:41:30Z</time></trkpt><trkpt lat="44.23794257890523" lon="11.766044180367766"><ele>109.0</ele><time>2026-05-01T15:41:31Z</time></trkpt><trkpt lat="44.237887678332406" lon="11.766111138478887"><ele>109.0</ele><time>2026-05-01T15:41:31.999Z</time></trkpt><trkpt lat="44.237845938612054" lon="11.76619460015123"><ele>109.0</ele><time>2026-05-01T15:41:32.999Z</time></trkpt><trkpt lat="44.23781602287784" lon="11.766285934441875"><ele>109.0</ele><time>2026-05-01T15:41:33.999Z</time></trkpt><trkpt lat="44.23780006700017" lon="11.766394510177003"><ele>109.0</ele><time>2026-05-01T15:41:34.999Z</time></trkpt><trkpt lat="44.23779922451042" lon="11.766499281885888"><ele>109.0</ele><time>2026-05-01T15:41:35.999Z</time></trkpt><trkpt lat="44.23778132717336" lon="11.766589187040774"><ele>109.0</ele><time>2026-05-01T15:41:36.999Z</time></trkpt><trkpt lat="44.23775104465798" lon="11.766677391808008"><ele>109.0</ele><time>2026-05-01T15:41:37.999Z</time></trkpt><trkpt lat="44.23773039492145" lon="11.766772595363895"><ele>109.0</ele><time>2026-05-01T15:41:38.999Z</time></trkpt><trkpt lat="44.237665489179854" lon="11.766837900664035"><ele>109.0</ele><time>2026-05-01T15:41:39.999Z</time></trkpt><trkpt lat="44.237608500659235" lon="11.766897062309406"><ele>108.4</ele><time>2026-05-01T15:41:40.999Z</time></trkpt><trkpt lat="44.237510603249966" lon="11.767003440761105"><ele>107.80000000000001</ele><time>2026-05-01T15:41:42.999Z</time></trkpt><trkpt lat="44.23741114140911" lon="11.767105254986246"><ele>107.19999999999999</ele><time>2026-05-01T15:41:44.999Z</time></trkpt><trkpt lat="44.23732166355893" lon="11.767208475347166"><ele>106.6</ele><time>2026-05-01T15:41:46.999Z</time></trkpt><trkpt lat="44.23726753445658" lon="11.767260212582515"><ele>106.0</ele><time>2026-05-01T15:41:47.999Z</time></trkpt><trkpt lat="44.23721898581051" lon="11.767320183847689"><ele>105.6</ele><time>2026-05-01T15:41:48.999Z</time></trkpt><trkpt lat="44.237172210396395" lon="11.767379793692593"><ele>105.19999999999999</ele><time>2026-05-01T15:41:49.999Z</time></trkpt><trkpt lat="44.23709454813713" lon="11.76751078408688"><ele>104.80000000000001</ele><time>2026-05-01T15:41:51.999Z</time></trkpt><trkpt lat="44.2370384378942" lon="11.767667358754057"><ele>104.4</ele><time>2026-05-01T15:41:53.999Z</time></trkpt><trkpt lat="44.23699627966665" lon="11.767814776577264"><ele>104.0</ele><time>2026-05-01T15:41:55.999Z</time></trkpt><trkpt lat="44.23694836682371" lon="11.767963072991607"><ele>104.0</ele><time>2026-05-01T15:41:57.999Z</time></trkpt><trkpt lat="44.236909995130986" lon="11.768110832485455"><ele>104.0</ele><time>2026-05-01T15:42:00Z</time></trkpt><trkpt lat="44.236852664761" lon="11.76825534877097"><ele>104.0</ele><time>2026-05-01T15:42:02Z</time></trkpt><trkpt lat="44.23678714107272" lon="11.768382565988496"><ele>104.0</ele><time>2026-05-01T15:42:04Z</time></trkpt><trkpt lat="44.236714143172854" lon="11.768511259227477"><ele>104.0</ele><time>2026-05-01T15:42:06Z</time></trkpt><trkpt lat="44.236644316349285" lon="11.768629842623612"><ele>104.0</ele><time>2026-05-01T15:42:08Z</time></trkpt><trkpt lat="44.23656885658092" lon="11.768748563134826"><ele>104.0</ele><time>2026-05-01T15:42:10Z</time></trkpt><trkpt lat="44.23651734212061" lon="11.768867486783918"><ele>104.0</ele><time>2026-05-01T15:42:12Z</time></trkpt><trkpt lat="44.236446517640964" lon="11.768989270579644"><ele>104.0</ele><time>2026-05-01T15:42:14Z</time></trkpt><trkpt lat="44.23639633519627" lon="11.769128954888597"><ele>104.5</ele><time>2026-05-01T15:42:16Z</time></trkpt><trkpt lat="44.23633955485707" lon="11.769275481622808"><ele>105.0</ele><time>2026-05-01T15:42:18Z</time></trkpt><trkpt lat="44.236285626776514" lon="11.76941941269786"><ele>105.5</ele><time>2026-05-01T15:42:20Z</time></trkpt><trkpt lat="44.23623711596085" lon="11.769565321128765"><ele>106.0</ele><time>2026-05-01T15:42:22Z</time></trkpt><trkpt lat="44.23619079452127" lon="11.76971696832926"><ele>106.0</ele><time>2026-05-01T15:42:24Z</time></trkpt><trkpt lat="44.23614777762571" lon="11.769877397544718"><ele>106.0</ele><time>2026-05-01T15:42:26Z</time></trkpt><trkpt lat="44.23611089895043" lon="11.770046679855955"><ele>106.0</ele><time>2026-05-01T15:42:28Z</time></trkpt><trkpt lat="44.23609899929115" lon="11.770138536594231"><ele>106.0</ele><time>2026-05-01T15:42:29Z</time></trkpt><trkpt lat="44.236084463460685" lon="11.770231053776513"><ele>106.0</ele><time>2026-05-01T15:42:30Z</time></trkpt><trkpt lat="44.2360570156005" lon="11.770315227885456"><ele>105.33333333333334</ele><time>2026-05-01T15:42:31Z</time></trkpt><trkpt lat="44.23600368423362" lon="11.770472435986333"><ele>104.66666666666667</ele><time>2026-05-01T15:42:33Z</time></trkpt><trkpt lat="44.23597359660104" lon="11.770550504810686"><ele>104.0</ele><time>2026-05-01T15:42:34Z</time></trkpt><trkpt lat="44.23594221117593" lon="11.770630676060675"><ele>103.33333333333334</ele><time>2026-05-01T15:42:35Z</time></trkpt><trkpt lat="44.23590764340422" lon="11.770712005705649"><ele>102.66666666666667</ele><time>2026-05-01T15:42:36Z</time></trkpt><trkpt lat="44.235874278597606" lon="11.770786890208637"><ele>102.0</ele><time>2026-05-01T15:42:37Z</time></trkpt><trkpt lat="44.235806390108074" lon="11.770925085814476"><ele>102.0</ele><time>2026-05-01T15:42:39Z</time></trkpt><trkpt lat="44.23577262000222" lon="11.771003666559194"><ele>102.0</ele><time>2026-05-01T15:42:40Z</time></trkpt><trkpt lat="44.23570565895297" lon="11.771136484798086"><ele>102.0</ele><time>2026-05-01T15:42:42Z</time></trkpt><trkpt lat="44.23564352415841" lon="11.77123974121382"><ele>102.0</ele><time>2026-05-01T15:42:44Z</time></trkpt><trkpt lat="44.23558940386563" lon="11.771371787272406"><ele>102.0</ele><time>2026-05-01T15:42:46Z</time></trkpt><trkpt lat="44.23553297815739" lon="11.771482231321848"><ele>102.39999999999999</ele><time>2026-05-01T15:42:48Z</time></trkpt><trkpt lat="44.23547383063208" lon="11.771604796548381"><ele>102.8</ele><time>2026-05-01T15:42:50Z</time></trkpt><trkpt lat="44.23541345594588" lon="11.771730897076539"><ele>103.2</ele><time>2026-05-01T15:42:52Z</time></trkpt><trkpt lat="44.23535532166121" lon="11.771861493819868"><ele>103.6</ele><time>2026-05-01T15:42:54Z</time></trkpt><trkpt lat="44.235296829832954" lon="11.771992569375247"><ele>104.0</ele><time>2026-05-01T15:42:56Z</time></trkpt><trkpt lat="44.23524003016211" lon="11.772132536253915"><ele>102.5</ele><time>2026-05-01T15:42:58Z</time></trkpt><trkpt lat="44.23517390846488" lon="11.772272040443568"><ele>101.0</ele><time>2026-05-01T15:43:00Z</time></trkpt><trkpt lat="44.23510168698743" lon="11.772409806691924"><ele>99.5</ele><time>2026-05-01T15:43:02Z</time></trkpt><trkpt lat="44.235041078307425" lon="11.772529780813558"><ele>98.0</ele><time>2026-05-01T15:43:04Z</time></trkpt><trkpt lat="44.234982130682084" lon="11.772660765995463"><ele>97.60000000000001</ele><time>2026-05-01T15:43:06Z</time></trkpt><trkpt lat="44.23491307614056" lon="11.772792004473308"><ele>97.2</ele><time>2026-05-01T15:43:08Z</time></trkpt><trkpt lat="44.23485288703797" lon="11.772927328193596"><ele>96.8</ele><time>2026-05-01T15:43:10Z</time></trkpt><trkpt lat="44.23481185079416" lon="11.773065712460712"><ele>96.4</ele><time>2026-05-01T15:43:12Z</time></trkpt><trkpt lat="44.23477383699787" lon="11.773197661558765"><ele>96.0</ele><time>2026-05-01T15:43:14Z</time></trkpt><trkpt lat="44.23473100496512" lon="11.773331264625503"><ele>96.4</ele><time>2026-05-01T15:43:16Z</time></trkpt><trkpt lat="44.2346948829583" lon="11.773472587048587"><ele>96.8</ele><time>2026-05-01T15:43:18Z</time></trkpt><trkpt lat="44.23465523346181" lon="11.773593835697152"><ele>97.2</ele><time>2026-05-01T15:43:20Z</time></trkpt><trkpt lat="44.23461223839491" lon="11.773716667871804"><ele>97.60000000000001</ele><time>2026-05-01T15:43:22Z</time></trkpt><trkpt lat="44.23458005946276" lon="11.773839184647093"><ele>98.0</ele><time>2026-05-01T15:43:24Z</time></trkpt><trkpt lat="44.234573818195905" lon="11.773978097189287"><ele>98.0</ele><time>2026-05-01T15:43:26Z</time></trkpt><trkpt lat="44.234608626676334" lon="11.774117825850144"><ele>98.0</ele><time>2026-05-01T15:43:28Z</time></trkpt><trkpt lat="44.23467671936422" lon="11.774220440292375"><ele>98.0</ele><time>2026-05-01T15:43:30Z</time></trkpt><trkpt lat="44.23476826296283" lon="11.774268559591361"><ele>98.0</ele><time>2026-05-01T15:43:32Z</time></trkpt><trkpt lat="44.23483814265266" lon="11.774343155086195"><ele>98.0</ele><time>2026-05-01T15:43:34Z</time></trkpt><trkpt lat="44.23487656990876" lon="11.774488715901391"><ele>97.85714285714286</ele><time>2026-05-01T15:43:36Z</time></trkpt><trkpt lat="44.23486824546575" lon="11.774579370801682"><ele>97.71428571428572</ele><time>2026-05-01T15:43:37Z</time></trkpt><trkpt lat="44.234849870190175" lon="11.774670427382903"><ele>97.57142857142857</ele><time>2026-05-01T15:43:38Z</time></trkpt><trkpt lat="44.23482466361158" lon="11.774754483988868"><ele>97.42857142857143</ele><time>2026-05-01T15:43:39Z</time></trkpt><trkpt lat="44.23480035228465" lon="11.774840410777138"><ele>97.28571428571429</ele><time>2026-05-01T15:43:40Z</time></trkpt><trkpt lat="44.234781023377245" lon="11.77492997611175"><ele>97.14285714285714</ele><time>2026-05-01T15:43:41Z</time></trkpt><trkpt lat="44.23476220615527" lon="11.77502058391724"><ele>97.0</ele><time>2026-05-01T15:43:42Z</time></trkpt><trkpt lat="44.23474582460752" lon="11.775112068264708"><ele>96.16666666666667</ele><time>2026-05-01T15:43:43Z</time></trkpt><trkpt lat="44.23473159590495" lon="11.775209234444471"><ele>95.33333333333334</ele><time>2026-05-01T15:43:44Z</time></trkpt><trkpt lat="44.23470054495174" lon="11.775312363189157"><ele>94.5</ele><time>2026-05-01T15:43:45Z</time></trkpt><trkpt lat="44.23468381938735" lon="11.775416465171817"><ele>93.66666666666667</ele><time>2026-05-01T15:43:46Z</time></trkpt><trkpt lat="44.23466709084333" lon="11.77552195749322"><ele>92.83333333333334</ele><time>2026-05-01T15:43:47Z</time></trkpt><trkpt lat="44.234660257631326" lon="11.775626046330935"><ele>92.0</ele><time>2026-05-01T15:43:48Z</time></trkpt><trkpt lat="44.234660127679525" lon="11.775725898985403"><ele>92.0</ele><time>2026-05-01T15:43:49Z</time></trkpt><trkpt lat="44.234654934666366" lon="11.775826156951215"><ele>92.0</ele><time>2026-05-01T15:43:50Z</time></trkpt><trkpt lat="44.234635772235265" lon="11.77593570488824"><ele>92.0</ele><time>2026-05-01T15:43:50.999Z</time></trkpt><trkpt lat="44.23462987627145" lon="11.776030781867208"><ele>92.0</ele><time>2026-05-01T15:43:51.999Z</time></trkpt><trkpt lat="44.234628445954" lon="11.776120113503518"><ele>92.0</ele><time>2026-05-01T15:43:52.999Z</time></trkpt><trkpt lat="44.2346271037449" lon="11.776288901381214"><ele>92.0</ele><time>2026-05-01T15:43:54.999Z</time></trkpt><trkpt lat="44.23461960806057" lon="11.776452902818093"><ele>91.83333333333334</ele><time>2026-05-01T15:43:56.999Z</time></trkpt><trkpt lat="44.23460658288102" lon="11.776607546624735"><ele>91.66666666666667</ele><time>2026-05-01T15:43:58.999Z</time></trkpt><trkpt lat="44.234583427618034" lon="11.7767861429501"><ele>91.5</ele><time>2026-05-01T15:44:00.999Z</time></trkpt><trkpt lat="44.234593447021446" lon="11.776878026888099"><ele>91.33333333333333</ele><time>2026-05-01T15:44:01.999Z</time></trkpt><trkpt lat="44.23459093346297" lon="11.776972357710717"><ele>91.16666666666666</ele><time>2026-05-01T15:44:02.999Z</time></trkpt><trkpt lat="44.234586456009154" lon="11.777063508803476"><ele>91.0</ele><time>2026-05-01T15:44:03.999Z</time></trkpt><trkpt lat="44.23457257593295" lon="11.777219716330842"><ele>90.4</ele><time>2026-05-01T15:44:06Z</time></trkpt><trkpt lat="44.234556569479956" lon="11.7773097494549"><ele>89.8</ele><time>2026-05-01T15:44:07Z</time></trkpt><trkpt lat="44.23455249780675" lon="11.777503197554841"><ele>89.2</ele><time>2026-05-01T15:44:09Z</time></trkpt><trkpt lat="44.23455948935793" lon="11.7776804162727"><ele>88.60000000000001</ele><time>2026-05-01T15:44:11Z</time></trkpt><trkpt lat="44.23454403741773" lon="11.777790996751495"><ele>88.0</ele><time>2026-05-01T15:44:12Z</time></trkpt><trkpt lat="44.234512790099544" lon="11.7779744185085"><ele>88.0</ele><time>2026-05-01T15:44:14Z</time></trkpt><trkpt lat="44.23449153323885" lon="11.778082142005687"><ele>88.0</ele><time>2026-05-01T15:44:15Z</time></trkpt><trkpt lat="44.23446758251164" lon="11.778183484112873"><ele>88.0</ele><time>2026-05-01T15:44:16Z</time></trkpt><trkpt lat="44.23443868110227" lon="11.778268882360017"><ele>88.0</ele><time>2026-05-01T15:44:17Z</time></trkpt><trkpt lat="44.23439845583152" lon="11.778344617319295"><ele>88.0</ele><time>2026-05-01T15:44:18Z</time></trkpt><trkpt lat="44.23435989540511" lon="11.77842288880103"><ele>88.0</ele><time>2026-05-01T15:44:19Z</time></trkpt><trkpt lat="44.2343295052863" lon="11.77850597078932"><ele>88.0</ele><time>2026-05-01T15:44:20Z</time></trkpt><trkpt lat="44.23429651277879" lon="11.778593326470642"><ele>88.0</ele><time>2026-05-01T15:44:21Z</time></trkpt><trkpt lat="44.23426809387421" lon="11.778679097131496"><ele>88.0</ele><time>2026-05-01T15:44:22Z</time></trkpt><trkpt lat="44.23424462854751" lon="11.778768430027627"><ele>88.0</ele><time>2026-05-01T15:44:23Z</time></trkpt><trkpt lat="44.23423010045815" lon="11.778861351224107"><ele>88.0</ele><time>2026-05-01T15:44:24Z</time></trkpt><trkpt lat="44.234223863061295" lon="11.778962627315055"><ele>88.0</ele><time>2026-05-01T15:44:25Z</time></trkpt><trkpt lat="44.234220701030544" lon="11.779062282163517"><ele>88.0</ele><time>2026-05-01T15:44:26Z</time></trkpt><trkpt lat="44.23421921860816" lon="11.779169556931173"><ele>88.0</ele><time>2026-05-01T15:44:27Z</time></trkpt><trkpt lat="44.234223453306015" lon="11.779273136449275"><ele>87.71428571428572</ele><time>2026-05-01T15:44:28Z</time></trkpt><trkpt lat="44.234231209335206" lon="11.779373850413364"><ele>87.42857142857143</ele><time>2026-05-01T15:44:29Z</time></trkpt><trkpt lat="44.23422893635777" lon="11.779473895035869"><ele>87.14285714285714</ele><time>2026-05-01T15:44:30Z</time></trkpt><trkpt lat="44.234221940188434" lon="11.779571176937624"><ele>86.85714285714286</ele><time>2026-05-01T15:44:31Z</time></trkpt><trkpt lat="44.23421204039603" lon="11.779671232515625"><ele>86.57142857142857</ele><time>2026-05-01T15:44:32Z</time></trkpt><trkpt lat="44.23420296761907" lon="11.77976810200454"><ele>86.28571428571429</ele><time>2026-05-01T15:44:33Z</time></trkpt><trkpt lat="44.23418471451605" lon="11.779863998093036"><ele>86.0</ele><time>2026-05-01T15:44:34Z</time></trkpt><trkpt lat="44.2341751633949" lon="11.779958632325554"><ele>86.0</ele><time>2026-05-01T15:44:35Z</time></trkpt><trkpt lat="44.234165548171674" lon="11.780051988549047"><ele>86.0</ele><time>2026-05-01T15:44:36Z</time></trkpt><trkpt lat="44.23416580094892" lon="11.780142018659468"><ele>86.0</ele><time>2026-05-01T15:44:37Z</time></trkpt><trkpt lat="44.23414499343307" lon="11.780237279406004"><ele>86.0</ele><time>2026-05-01T15:44:38Z</time></trkpt><trkpt lat="44.234123391106" lon="11.780328608979614"><ele>86.0</ele><time>2026-05-01T15:44:39Z</time></trkpt><trkpt lat="44.23409743302513" lon="11.780412623933822"><ele>86.0</ele><time>2026-05-01T15:44:40Z</time></trkpt><trkpt lat="44.23403650589644" lon="11.780579708581744"><ele>86.19999999999999</ele><time>2026-05-01T15:44:42Z</time></trkpt><trkpt lat="44.23400859560086" lon="11.780667217461083"><ele>86.39999999999999</ele><time>2026-05-01T15:44:43Z</time></trkpt><trkpt lat="44.23397503849006" lon="11.780750617894665"><ele>86.6</ele><time>2026-05-01T15:44:44Z</time></trkpt><trkpt lat="44.23390506601251" lon="11.780905825234926"><ele>86.8</ele><time>2026-05-01T15:44:46Z</time></trkpt><trkpt lat="44.233847544874685" lon="11.781065505840605"><ele>87.0</ele><time>2026-05-01T15:44:48Z</time></trkpt><trkpt lat="44.23381071183465" lon="11.781151004431983"><ele>87.0</ele><time>2026-05-01T15:44:49Z</time></trkpt><trkpt lat="44.233773780714465" lon="11.78123134951064"><ele>87.0</ele><time>2026-05-01T15:44:50Z</time></trkpt><trkpt lat="44.233741398652036" lon="11.781308752067691"><ele>87.0</ele><time>2026-05-01T15:44:51Z</time></trkpt><trkpt lat="44.23371111904095" lon="11.781393420498283"><ele>87.0</ele><time>2026-05-01T15:44:52Z</time></trkpt><trkpt lat="44.233675917775635" lon="11.781475426164597"><ele>87.0</ele><time>2026-05-01T15:44:53Z</time></trkpt><trkpt lat="44.233639444352555" lon="11.781547298087837"><ele>87.0</ele><time>2026-05-01T15:44:54Z</time></trkpt><trkpt lat="44.23359189442611" lon="11.781617920839398"><ele>87.0</ele><time>2026-05-01T15:44:55Z</time></trkpt><trkpt lat="44.23354579599843" lon="11.781685810027563"><ele>87.0</ele><time>2026-05-01T15:44:56Z</time></trkpt><trkpt lat="44.23346929552307" lon="11.781831184306633"><ele>87.0</ele><time>2026-05-01T15:44:58Z</time></trkpt><trkpt lat="44.23342970546117" lon="11.781907489740263"><ele>87.0</ele><time>2026-05-01T15:44:59Z</time></trkpt><trkpt lat="44.23338326803435" lon="11.781981255383798"><ele>87.0</ele><time>2026-05-01T15:45:00Z</time></trkpt><trkpt lat="44.23333414904915" lon="11.78205011950945"><ele>87.0</ele><time>2026-05-01T15:45:01Z</time></trkpt><trkpt lat="44.23328586438042" lon="11.782116034380676"><ele>87.0</ele><time>2026-05-01T15:45:02Z</time></trkpt><trkpt lat="44.23323070073303" lon="11.782175079265642"><ele>86.85714285714286</ele><time>2026-05-01T15:45:03Z</time></trkpt><trkpt lat="44.23318844393463" lon="11.782246408388517"><ele>86.71428571428572</ele><time>2026-05-01T15:45:04Z</time></trkpt><trkpt lat="44.23314869059347" lon="11.782325129432076"><ele>86.57142857142858</ele><time>2026-05-01T15:45:05Z</time></trkpt><trkpt lat="44.233109594552715" lon="11.78240123557327"><ele>86.42857142857143</ele><time>2026-05-01T15:45:06Z</time></trkpt><trkpt lat="44.2330674281989" lon="11.782482822279336"><ele>86.28571428571429</ele><time>2026-05-01T15:45:07Z</time></trkpt><trkpt lat="44.23302371053117" lon="11.78256633127079"><ele>86.14285714285715</ele><time>2026-05-01T15:45:08Z</time></trkpt><trkpt lat="44.23298568191706" lon="11.782655479729831"><ele>86.0</ele><time>2026-05-01T15:45:09Z</time></trkpt><trkpt lat="44.23295708900913" lon="11.782742456355784"><ele>86.00000000000001</ele><time>2026-05-01T15:45:10Z</time></trkpt><trkpt lat="44.23292878019768" lon="11.782834340735082"><ele>86.0</ele><time>2026-05-01T15:45:11Z</time></trkpt><trkpt lat="44.23289892686462" lon="11.78292380490881"><ele>86.0</ele><time>2026-05-01T15:45:12Z</time></trkpt><trkpt lat="44.23287289978556" lon="11.783010099501125"><ele>86.0</ele><time>2026-05-01T15:45:13Z</time></trkpt><trkpt lat="44.232842191764036" lon="11.783100726749316"><ele>86.0</ele><time>2026-05-01T15:45:14Z</time></trkpt><trkpt lat="44.2327925482801" lon="11.783187193828281"><ele>86.00000000000001</ele><time>2026-05-01T15:45:15Z</time></trkpt><trkpt lat="44.232761066665624" lon="11.783267452911296"><ele>86.0</ele><time>2026-05-01T15:45:16Z</time></trkpt><trkpt lat="44.23270550141783" lon="11.783333780254262"><ele>86.00000000000001</ele><time>2026-05-01T15:45:17Z</time></trkpt><trkpt lat="44.232643832253764" lon="11.783395448866667"><ele>86.0</ele><time>2026-05-01T15:45:18Z</time></trkpt><trkpt lat="44.23257423900994" lon="11.78343744894065"><ele>86.0</ele><time>2026-05-01T15:45:19Z</time></trkpt><trkpt lat="44.23250318276545" lon="11.78345556718474"><ele>86.0</ele><time>2026-05-01T15:45:20Z</time></trkpt><trkpt lat="44.23242680669673" lon="11.783449066252375"><ele>86.0</ele><time>2026-05-01T15:45:21Z</time></trkpt><trkpt lat="44.23235721485388" lon="11.783445540903541"><ele>86.00000000000001</ele><time>2026-05-01T15:45:22Z</time></trkpt><trkpt lat="44.232285654543475" lon="11.783452755774263"><ele>86.0</ele><time>2026-05-01T15:45:23Z</time></trkpt><trkpt lat="44.23221526548184" lon="11.783464746152996"><ele>85.83333333333334</ele><time>2026-05-01T15:45:24Z</time></trkpt><trkpt lat="44.23214973211683" lon="11.783480155635974"><ele>85.66666666666667</ele><time>2026-05-01T15:45:25Z</time></trkpt><trkpt lat="44.23208030856924" lon="11.783503619511494"><ele>85.5</ele><time>2026-05-01T15:45:26Z</time></trkpt><trkpt lat="44.23201906710558" lon="11.78352708852688"><ele>85.33333333333333</ele><time>2026-05-01T15:45:27Z</time></trkpt><trkpt lat="44.23195957244514" lon="11.783567921772823"><ele>85.16666666666666</ele><time>2026-05-01T15:45:28Z</time></trkpt><trkpt lat="44.23186020594617" lon="11.783665690626147"><ele>85.0</ele><time>2026-05-01T15:45:30Z</time></trkpt><trkpt lat="44.23176266670256" lon="11.783776183383253"><ele>85.0</ele><time>2026-05-01T15:45:32Z</time></trkpt><trkpt lat="44.23171186811713" lon="11.783832536983233"><ele>85.0</ele><time>2026-05-01T15:45:33Z</time></trkpt><trkpt lat="44.231664083632495" lon="11.783890933582029"><ele>85.0</ele><time>2026-05-01T15:45:34Z</time></trkpt><trkpt lat="44.23156916389293" lon="11.78399571382177"><ele>85.0</ele><time>2026-05-01T15:45:36Z</time></trkpt><trkpt lat="44.231518038023715" lon="11.784051936329748"><ele>85.0</ele><time>2026-05-01T15:45:37Z</time></trkpt><trkpt lat="44.23143186533078" lon="11.784157015117282"><ele>85.0</ele><time>2026-05-01T15:45:39Z</time></trkpt><trkpt lat="44.23133962118223" lon="11.784271044020311"><ele>85.0</ele><time>2026-05-01T15:45:41Z</time></trkpt><trkpt lat="44.2312410277966" lon="11.784374605590482"><ele>85.0</ele><time>2026-05-01T15:45:43Z</time></trkpt><trkpt lat="44.23118555683774" lon="11.784416684964384"><ele>85.0</ele><time>2026-05-01T15:45:44Z</time></trkpt><trkpt lat="44.23110185363579" lon="11.784537986544365"><ele>85.0</ele><time>2026-05-01T15:45:46Z</time></trkpt><trkpt lat="44.23100245434342" lon="11.784647656721859"><ele>85.0</ele><time>2026-05-01T15:45:48Z</time></trkpt><trkpt lat="44.230946653335714" lon="11.784692590960988"><ele>85.0</ele><time>2026-05-01T15:45:49Z</time></trkpt><trkpt lat="44.23089656119415" lon="11.784746775632259"><ele>85.0</ele><time>2026-05-01T15:45:49.999Z</time></trkpt><trkpt lat="44.230792855118196" lon="11.784839129664812"><ele>85.0</ele><time>2026-05-01T15:45:51.999Z</time></trkpt><trkpt lat="44.23073929738945" lon="11.78489010365771"><ele>85.0</ele><time>2026-05-01T15:45:52.999Z</time></trkpt><trkpt lat="44.23063649576299" lon="11.784964056632292"><ele>85.0</ele><time>2026-05-01T15:45:54.999Z</time></trkpt><trkpt lat="44.23053284221085" lon="11.785051414709832"><ele>85.25</ele><time>2026-05-01T15:45:56.999Z</time></trkpt><trkpt lat="44.23043206141935" lon="11.785118014979679"><ele>85.5</ele><time>2026-05-01T15:45:58.999Z</time></trkpt><trkpt lat="44.23033196622868" lon="11.785201503927354"><ele>85.75</ele><time>2026-05-01T15:46:00.999Z</time></trkpt><trkpt lat="44.23023006585359" lon="11.785287432804678"><ele>86.0</ele><time>2026-05-01T15:46:02.999Z</time></trkpt><trkpt lat="44.23012851673154" lon="11.785372700061837"><ele>86.0</ele><time>2026-05-01T15:46:04.999Z</time></trkpt><trkpt lat="44.23002917176999" lon="11.78544717805056"><ele>86.0</ele><time>2026-05-01T15:46:06.999Z</time></trkpt><trkpt lat="44.229925062947075" lon="11.78551868217341"><ele>86.0</ele><time>2026-05-01T15:46:08.999Z</time></trkpt><trkpt lat="44.229818473546324" lon="11.785583043837557"><ele>86.0</ele><time>2026-05-01T15:46:10.999Z</time></trkpt><trkpt lat="44.2297191515519" lon="11.785652968656356"><ele>84.8</ele><time>2026-05-01T15:46:13Z</time></trkpt><trkpt lat="44.22962003263621" lon="11.785721887446568"><ele>83.6</ele><time>2026-05-01T15:46:15Z</time></trkpt><trkpt lat="44.22951176300922" lon="11.785759978628265"><ele>82.4</ele><time>2026-05-01T15:46:17Z</time></trkpt><trkpt lat="44.22940727310937" lon="11.785791968670942"><ele>81.2</ele><time>2026-05-01T15:46:19Z</time></trkpt><trkpt lat="44.22930254024337" lon="11.785734712601595"><ele>80.0</ele><time>2026-05-01T15:46:21Z</time></trkpt><trkpt lat="44.22929178410547" lon="11.785646918537932"><ele>80.0</ele><time>2026-05-01T15:46:22Z</time></trkpt><trkpt lat="44.22922836129763" lon="11.785518588893533"><ele>80.0</ele><time>2026-05-01T15:46:24Z</time></trkpt><trkpt lat="44.22913816992062" lon="11.78543878070249"><ele>80.0</ele><time>2026-05-01T15:46:26Z</time></trkpt><trkpt lat="44.22904271278028" lon="11.785438639882724"><ele>80.0</ele><time>2026-05-01T15:46:28Z</time></trkpt><trkpt lat="44.22895262664515" lon="11.785458200592272"><ele>80.0</ele><time>2026-05-01T15:46:30Z</time></trkpt><trkpt lat="44.22887608565265" lon="11.785491106902853"><ele>80.5</ele><time>2026-05-01T15:46:32Z</time></trkpt><trkpt lat="44.22880468550016" lon="11.785528261771121"><ele>81.0</ele><time>2026-05-01T15:46:34Z</time></trkpt><trkpt lat="44.22874069552349" lon="11.785556107481057"><ele>81.5</ele><time>2026-05-01T15:46:36Z</time></trkpt><trkpt lat="44.22865214486614" lon="11.785571792315414"><ele>82.0</ele><time>2026-05-01T15:46:39Z</time></trkpt><trkpt lat="44.22858229516525" lon="11.785606586622558"><ele>82.5</ele><time>2026-05-01T15:46:42Z</time></trkpt><trkpt lat="44.2285180654275" lon="11.785625792757262"><ele>83.0</ele><time>2026-05-01T15:46:45Z</time></trkpt><trkpt lat="44.22844467361974" lon="11.785669795542754"><ele>83.0</ele><time>2026-05-01T15:46:49Z</time></trkpt><trkpt lat="44.22838049477189" lon="11.785697764708134"><ele>83.0</ele><time>2026-05-01T15:46:53Z</time></trkpt><trkpt lat="44.228318623482544" lon="11.78572708997512"><ele>83.0</ele><time>2026-05-01T15:46:57Z</time></trkpt><trkpt lat="44.22824437737795" lon="11.78575869996566"><ele>83.0</ele><time>2026-05-01T15:47:02Z</time></trkpt><trkpt lat="44.22817179479049" lon="11.785796193641009"><ele>83.0</ele><time>2026-05-01T15:47:07Z</time></trkpt><trkpt lat="44.22809573087355" lon="11.78581871807254"><ele>83.0</ele><time>2026-05-01T15:47:12Z</time></trkpt><trkpt lat="44.228026814560174" lon="11.785856458900177"><ele>83.0</ele><time>2026-05-01T15:47:17Z</time></trkpt><trkpt lat="44.22796248730626" lon="11.785899867823849"><ele>83.57142857142857</ele><time>2026-05-01T15:47:22Z</time></trkpt><trkpt lat="44.227896490924884" lon="11.785937831102135"><ele>84.14285714285715</ele><time>2026-05-01T15:47:27Z</time></trkpt><trkpt lat="44.22783299105489" lon="11.785976899263906"><ele>84.71428571428572</ele><time>2026-05-01T15:47:32Z</time></trkpt><trkpt lat="44.22777231618161" lon="11.786015117670072"><ele>85.28571428571428</ele><time>2026-05-01T15:47:37Z</time></trkpt><trkpt lat="44.227703213292415" lon="11.786069005779455"><ele>85.85714285714286</ele><time>2026-05-01T15:47:42Z</time></trkpt><trkpt lat="44.22764133499446" lon="11.786119421101027"><ele>86.42857142857143</ele><time>2026-05-01T15:47:47Z</time></trkpt><trkpt lat="44.227573951764896" lon="11.78615333647832"><ele>87.0</ele><time>2026-05-01T15:47:51.999Z</time></trkpt><trkpt lat="44.22751456337675" lon="11.786191674230242"><ele>87.0</ele><time>2026-05-01T15:47:55.999Z</time></trkpt><trkpt lat="44.227443696094106" lon="11.786214226884049"><ele>87.0</ele><time>2026-05-01T15:47:59.999Z</time></trkpt><trkpt lat="44.227366357293604" lon="11.78621614418036"><ele>87.0</ele><time>2026-05-01T15:48:04.999Z</time></trkpt><trkpt lat="44.22731142290598" lon="11.786165227719128"><ele>87.0</ele><time>2026-05-01T15:48:10.999Z</time></trkpt><trkpt lat="44.22730168071854" lon="11.78606632661225"><ele>87.0</ele><time>2026-05-01T15:48:14.999Z</time></trkpt><trkpt lat="44.22730361029611" lon="11.78597685904572"><ele>87.0</ele><time>2026-05-01T15:48:18Z</time></trkpt><trkpt lat="44.22728555644759" lon="11.78587103659262"><ele>87.0</ele><time>2026-05-01T15:48:21Z</time></trkpt><trkpt lat="44.22727334811936" lon="11.785762181261758"><ele>87.16666666666667</ele><time>2026-05-01T15:48:24Z</time></trkpt><trkpt lat="44.227259622386974" lon="11.785641703716617"><ele>87.33333333333333</ele><time>2026-05-01T15:48:27Z</time></trkpt><trkpt lat="44.22724141982724" lon="11.785528021505968"><ele>87.5</ele><time>2026-05-01T15:48:30Z</time></trkpt><trkpt lat="44.22722000352797" lon="11.785407645406881"><ele>87.66666666666666</ele><time>2026-05-01T15:48:33Z</time></trkpt><trkpt lat="44.22719447044133" lon="11.785280974753842"><ele>87.83333333333333</ele><time>2026-05-01T15:48:36Z</time></trkpt><trkpt lat="44.22717370755805" lon="11.785183700813635"><ele>88.0</ele><time>2026-05-01T15:48:38Z</time></trkpt><trkpt lat="44.227154907497116" lon="11.785097659226993"><ele>88.5</ele><time>2026-05-01T15:48:40Z</time></trkpt><trkpt lat="44.22713468753793" lon="11.785009627121429"><ele>89.0</ele><time>2026-05-01T15:48:42Z</time></trkpt><trkpt lat="44.227103357764136" lon="11.784888556420633"><ele>89.5</ele><time>2026-05-01T15:48:45Z</time></trkpt><trkpt lat="44.22708156227252" lon="11.78476853540492"><ele>90.0</ele><time>2026-05-01T15:48:48Z</time></trkpt><trkpt lat="44.227137205474016" lon="11.784691622493032"><ele>90.5</ele><time>2026-05-01T15:48:51Z</time></trkpt><trkpt lat="44.22709459946762" lon="11.784588820212523"><ele>91.0</ele><time>2026-05-01T15:48:54Z</time></trkpt><trkpt lat="44.22702155451286" lon="11.784568946594504"><ele>91.0</ele><time>2026-05-01T15:48:56Z</time></trkpt><trkpt lat="44.22698700969342" lon="11.784454815905573"><ele>91.0</ele><time>2026-05-01T15:48:59Z</time></trkpt><trkpt lat="44.22696161781644" lon="11.784367238820177"><ele>91.0</ele><time>2026-05-01T15:49:01Z</time></trkpt><trkpt lat="44.22692947323" lon="11.78428199993655"><ele>91.0</ele><time>2026-05-01T15:49:03Z</time></trkpt><trkpt lat="44.226906826947435" lon="11.784188532844142"><ele>91.0</ele><time>2026-05-01T15:49:05Z</time></trkpt><trkpt lat="44.22686766115409" lon="11.784097890057554"><ele>91.0</ele><time>2026-05-01T15:49:07Z</time></trkpt><trkpt lat="44.22684346350965" lon="11.784001216048765"><ele>91.0</ele><time>2026-05-01T15:49:09Z</time></trkpt><trkpt lat="44.22681535108911" lon="11.783910020135256"><ele>91.5</ele><time>2026-05-01T15:49:11Z</time></trkpt><trkpt lat="44.2267876507742" lon="11.78382801585714"><ele>92.0</ele><time>2026-05-01T15:49:13Z</time></trkpt><trkpt lat="44.22675739473167" lon="11.783749873856031"><ele>92.5</ele><time>2026-05-01T15:49:15Z</time></trkpt><trkpt lat="44.22672132555742" lon="11.783638726126801"><ele>93.0</ele><time>2026-05-01T15:49:18Z</time></trkpt><trkpt lat="44.226681760578224" lon="11.78351401637487"><ele>93.5</ele><time>2026-05-01T15:49:21Z</time></trkpt><trkpt lat="44.22666099662411" lon="11.783417139459594"><ele>94.0</ele><time>2026-05-01T15:49:23Z</time></trkpt><trkpt lat="44.22662715507679" lon="11.783309577854384"><ele>93.80000000000001</ele><time>2026-05-01T15:49:26Z</time></trkpt><trkpt lat="44.22658766048063" lon="11.78318297723342"><ele>93.60000000000001</ele><time>2026-05-01T15:49:29Z</time></trkpt><trkpt lat="44.226560756859556" lon="11.783091391266355"><ele>93.4</ele><time>2026-05-01T15:49:31Z</time></trkpt><trkpt lat="44.226530009448126" lon="11.7829664261946"><ele>93.2</ele><time>2026-05-01T15:49:34Z</time></trkpt><trkpt lat="44.22648964230245" lon="11.782845393860178"><ele>93.0</ele><time>2026-05-01T15:49:37Z</time></trkpt><trkpt lat="44.22645981119641" lon="11.782726349405648"><ele>93.66666666666667</ele><time>2026-05-01T15:49:40Z</time></trkpt><trkpt lat="44.22641996011028" lon="11.78261141514931"><ele>94.33333333333334</ele><time>2026-05-01T15:49:43Z</time></trkpt><trkpt lat="44.22639467070985" lon="11.782497681894172"><ele>95.0</ele><time>2026-05-01T15:49:46Z</time></trkpt><trkpt lat="44.22635420477599" lon="11.782385610153872"><ele>95.66666666666667</ele><time>2026-05-01T15:49:48.999Z</time></trkpt><trkpt lat="44.226327103166334" lon="11.782302803488138"><ele>96.33333333333334</ele><time>2026-05-01T15:49:50.999Z</time></trkpt><trkpt lat="44.226286141668524" lon="11.782201218024106"><ele>97.0</ele><time>2026-05-01T15:49:53.999Z</time></trkpt><trkpt lat="44.226251634187626" lon="11.782099479737695"><ele>97.0</ele><time>2026-05-01T15:49:56.999Z</time></trkpt><trkpt lat="44.226194670319046" lon="11.782007270108142"><ele>97.0</ele><time>2026-05-01T15:49:59.999Z</time></trkpt><trkpt lat="44.226129621194154" lon="11.781931340126976"><ele>97.0</ele><time>2026-05-01T15:50:02.999Z</time></trkpt><trkpt lat="44.22609140560075" lon="11.781859410297988"><ele>97.0</ele><time>2026-05-01T15:50:04.999Z</time></trkpt><trkpt lat="44.22604379615113" lon="11.78178873025503"><ele>97.0</ele><time>2026-05-01T15:50:06.999Z</time></trkpt><trkpt lat="44.22599417427479" lon="11.781730418078734"><ele>97.0</ele><time>2026-05-01T15:50:08.999Z</time></trkpt><trkpt lat="44.22594021154487" lon="11.781669581466327"><ele>97.0</ele><time>2026-05-01T15:50:10.999Z</time></trkpt><trkpt lat="44.225875353855606" lon="11.781590734657657"><ele>97.28571428571428</ele><time>2026-05-01T15:50:12.999Z</time></trkpt><trkpt lat="44.22582319576856" lon="11.781520605118274"><ele>97.57142857142858</ele><time>2026-05-01T15:50:14.999Z</time></trkpt><trkpt lat="44.22577207865199" lon="11.781457754029706"><ele>97.85714285714286</ele><time>2026-05-01T15:50:16.999Z</time></trkpt><trkpt lat="44.225712178462494" lon="11.78140066556394"><ele>98.14285714285714</ele><time>2026-05-01T15:50:18.999Z</time></trkpt><trkpt lat="44.22565865335395" lon="11.781324059422502"><ele>98.42857142857142</ele><time>2026-05-01T15:50:20.999Z</time></trkpt><trkpt lat="44.22560734954033" lon="11.781249989307652"><ele>98.71428571428572</ele><time>2026-05-01T15:50:22.999Z</time></trkpt><trkpt lat="44.22555695968814" lon="11.781179952122832"><ele>99.0</ele><time>2026-05-01T15:50:25Z</time></trkpt><trkpt lat="44.225501724534965" lon="11.781109326567744"><ele>98.66666666666667</ele><time>2026-05-01T15:50:27Z</time></trkpt><trkpt lat="44.22545853854352" lon="11.781037942851738"><ele>98.33333333333334</ele><time>2026-05-01T15:50:29Z</time></trkpt><trkpt lat="44.22541298557117" lon="11.780960828499"><ele>98.0</ele><time>2026-05-01T15:50:31Z</time></trkpt><trkpt lat="44.2253711052641" lon="11.780885863557462"><ele>97.66666666666667</ele><time>2026-05-01T15:50:33Z</time></trkpt><trkpt lat="44.22531776528316" lon="11.780773203961504"><ele>97.33333333333334</ele><time>2026-05-01T15:50:36Z</time></trkpt><trkpt lat="44.22528237449038" lon="11.780692695187962"><ele>97.0</ele><time>2026-05-01T15:50:38Z</time></trkpt><trkpt lat="44.22522590202714" lon="11.780578663846386"><ele>97.00000000000001</ele><time>2026-05-01T15:50:41Z</time></trkpt><trkpt lat="44.22518057979098" lon="11.78046727191358"><ele>97.0</ele><time>2026-05-01T15:50:44Z</time></trkpt><trkpt lat="44.22513706518257" lon="11.780359098714285"><ele>97.0</ele><time>2026-05-01T15:50:47Z</time></trkpt><trkpt lat="44.22509863254891" lon="11.780254192155189"><ele>97.0</ele><time>2026-05-01T15:50:50Z</time></trkpt><trkpt lat="44.22505520334529" lon="11.780143664090101"><ele>97.00000000000001</ele><time>2026-05-01T15:50:53Z</time></trkpt><trkpt lat="44.22501348644755" lon="11.780028519646626"><ele>97.0</ele><time>2026-05-01T15:50:56Z</time></trkpt><trkpt lat="44.224967214087215" lon="11.779917634545892"><ele>96.83333333333334</ele><time>2026-05-01T15:50:59Z</time></trkpt><trkpt lat="44.22493932028509" lon="11.779835294360407"><ele>96.66666666666667</ele><time>2026-05-01T15:51:01Z</time></trkpt><trkpt lat="44.22489916702046" lon="11.77972050681643"><ele>96.5</ele><time>2026-05-01T15:51:04Z</time></trkpt><trkpt lat="44.22485042483014" lon="11.779609665300955"><ele>96.33333333333334</ele><time>2026-05-01T15:51:07Z</time></trkpt><trkpt lat="44.22480527736727" lon="11.77949307049207"><ele>96.16666666666667</ele><time>2026-05-01T15:51:10Z</time></trkpt><trkpt lat="44.22476419657839" lon="11.779389003911506"><ele>96.0</ele><time>2026-05-01T15:51:13Z</time></trkpt><trkpt lat="44.224717867446785" lon="11.779284229152378"><ele>96.66666666666667</ele><time>2026-05-01T15:51:16Z</time></trkpt><trkpt lat="44.22468065854867" lon="11.779180807238015"><ele>97.33333333333334</ele><time>2026-05-01T15:51:19Z</time></trkpt><trkpt lat="44.224638779004486" lon="11.779072507709497"><ele>98.0</ele><time>2026-05-01T15:51:22Z</time></trkpt><trkpt lat="44.224597341294455" lon="11.77896987581625"><ele>98.66666666666667</ele><time>2026-05-01T15:51:25Z</time></trkpt><trkpt lat="44.224556435388806" lon="11.7788664896951"><ele>99.33333333333334</ele><time>2026-05-01T15:51:28Z</time></trkpt><trkpt lat="44.22452008570044" lon="11.778777558374845"><ele>100.0</ele><time>2026-05-01T15:51:31Z</time></trkpt><trkpt lat="44.22448376330758" lon="11.77868138285196"><ele>100.00000000000001</ele><time>2026-05-01T15:51:34Z</time></trkpt><trkpt lat="44.224447299603696" lon="11.778595856687271"><ele>100.0</ele><time>2026-05-01T15:51:37Z</time></trkpt><trkpt lat="44.22440062340039" lon="11.778514364402296"><ele>100.0</ele><time>2026-05-01T15:51:40Z</time></trkpt><trkpt lat="44.22436366519841" lon="11.778418106587505"><ele>100.0</ele><time>2026-05-01T15:51:43Z</time></trkpt><trkpt lat="44.224326825716865" lon="11.778337652477923"><ele>100.0</ele><time>2026-05-01T15:51:46Z</time></trkpt><trkpt lat="44.22428717177212" lon="11.77824329316737"><ele>100.00000000000001</ele><time>2026-05-01T15:51:49Z</time></trkpt><trkpt lat="44.22425500251172" lon="11.778151064515253"><ele>100.0</ele><time>2026-05-01T15:51:52Z</time></trkpt><trkpt lat="44.22421728539012" lon="11.778065365886656"><ele>100.71428571428572</ele><time>2026-05-01T15:51:55Z</time></trkpt><trkpt lat="44.22418273540816" lon="11.777981612036404"><ele>101.42857142857143</ele><time>2026-05-01T15:51:58Z</time></trkpt><trkpt lat="44.22417482160925" lon="11.777892498099716"><ele>102.14285714285714</ele><time>2026-05-01T15:52:01Z</time></trkpt><trkpt lat="44.224147275894424" lon="11.777808261923598"><ele>102.85714285714286</ele><time>2026-05-01T15:52:04Z</time></trkpt><trkpt lat="44.22411284793041" lon="11.777722930914567"><ele>103.57142857142857</ele><time>2026-05-01T15:52:06.999Z</time></trkpt><trkpt lat="44.224080455576335" lon="11.777641582205812"><ele>104.28571428571429</ele><time>2026-05-01T15:52:09.999Z</time></trkpt><trkpt lat="44.2240573225302" lon="11.777558074644238"><ele>105.0</ele><time>2026-05-01T15:52:12.999Z</time></trkpt><trkpt lat="44.224025768083614" lon="11.77746464692961"><ele>104.71428571428571</ele><time>2026-05-01T15:52:16.999Z</time></trkpt><trkpt lat="44.22400007067489" lon="11.777373506007963"><ele>104.42857142857143</ele><time>2026-05-01T15:52:19.999Z</time></trkpt><trkpt lat="44.22397459064228" lon="11.777276133762232"><ele>104.14285714285714</ele><time>2026-05-01T15:52:22.999Z</time></trkpt><trkpt lat="44.223942250790245" lon="11.777188226021797"><ele>103.85714285714286</ele><time>2026-05-01T15:52:25.999Z</time></trkpt><trkpt lat="44.22390958502956" lon="11.777088974754122"><ele>103.57142857142857</ele><time>2026-05-01T15:52:28.999Z</time></trkpt><trkpt lat="44.223885961082225" lon="11.776979860353835"><ele>103.28571428571428</ele><time>2026-05-01T15:52:32Z</time></trkpt><trkpt lat="44.223874467532895" lon="11.77687863267034"><ele>103.0</ele><time>2026-05-01T15:52:35Z</time></trkpt><trkpt lat="44.22385080218581" lon="11.776770109867606"><ele>103.83333333333334</ele><time>2026-05-01T15:52:38Z</time></trkpt><trkpt lat="44.223836435407975" lon="11.776668624236896"><ele>104.66666666666667</ele><time>2026-05-01T15:52:41Z</time></trkpt><trkpt lat="44.223815777402606" lon="11.77657235503987"><ele>105.5</ele><time>2026-05-01T15:52:44Z</time></trkpt><trkpt lat="44.22378943629612" lon="11.776467785972331"><ele>106.33333333333334</ele><time>2026-05-01T15:52:47Z</time></trkpt><trkpt lat="44.22377095412949" lon="11.77635812681878"><ele>107.16666666666667</ele><time>2026-05-01T15:52:50Z</time></trkpt><trkpt lat="44.22374131085983" lon="11.776256845505543"><ele>108.0</ele><time>2026-05-01T15:52:53Z</time></trkpt><trkpt lat="44.22373090133994" lon="11.776155400797306"><ele>108.0</ele><time>2026-05-01T15:52:56Z</time></trkpt><trkpt lat="44.22370748760705" lon="11.776050088988153"><ele>108.0</ele><time>2026-05-01T15:52:59Z</time></trkpt><trkpt lat="44.22368092300209" lon="11.775945156744429"><ele>108.0</ele><time>2026-05-01T15:53:02Z</time></trkpt><trkpt lat="44.22366672200175" lon="11.77583818092656"><ele>108.0</ele><time>2026-05-01T15:53:05Z</time></trkpt><trkpt lat="44.22363972411843" lon="11.77573769287195"><ele>108.0</ele><time>2026-05-01T15:53:08Z</time></trkpt><trkpt lat="44.22361152118242" lon="11.775634256831962"><ele>108.0</ele><time>2026-05-01T15:53:11Z</time></trkpt><trkpt lat="44.2235899381552" lon="11.77551697287634"><ele>108.57142857142857</ele><time>2026-05-01T15:53:14Z</time></trkpt><trkpt lat="44.22355965853865" lon="11.775420920434534"><ele>109.14285714285714</ele><time>2026-05-01T15:53:17Z</time></trkpt><trkpt lat="44.22354939101848" lon="11.775308172894357"><ele>109.71428571428572</ele><time>2026-05-01T15:53:21Z</time></trkpt><trkpt lat="44.22353312665048" lon="11.775203945287084"><ele>110.28571428571428</ele><time>2026-05-01T15:53:24Z</time></trkpt><trkpt lat="44.223513297438956" lon="11.775111185410774"><ele>110.85714285714286</ele><time>2026-05-01T15:53:27Z</time></trkpt><trkpt lat="44.2234877861537" lon="11.775018492395942"><ele>111.42857142857143</ele><time>2026-05-01T15:53:30Z</time></trkpt><trkpt lat="44.22346887413833" lon="11.77492488629685"><ele>112.0</ele><time>2026-05-01T15:53:33Z</time></trkpt><trkpt lat="44.22345079967646" lon="11.774839010097477"><ele>112.71428571428572</ele><time>2026-05-01T15:53:36Z</time></trkpt><trkpt lat="44.2234288162057" lon="11.77474963802623"><ele>113.42857142857143</ele><time>2026-05-01T15:53:39Z</time></trkpt><trkpt lat="44.223403469302276" lon="11.774651433854132"><ele>114.14285714285714</ele><time>2026-05-01T15:53:42Z</time></trkpt><trkpt lat="44.22338074680217" lon="11.774562624034765"><ele>114.85714285714286</ele><time>2026-05-01T15:53:45Z</time></trkpt><trkpt lat="44.22335939177496" lon="11.774466215094844"><ele>115.57142857142858</ele><time>2026-05-01T15:53:48Z</time></trkpt><trkpt lat="44.22334247735165" lon="11.7743705180143"><ele>116.28571428571429</ele><time>2026-05-01T15:53:51Z</time></trkpt><trkpt lat="44.22332637501243" lon="11.77426597182789"><ele>117.0</ele><time>2026-05-01T15:53:54Z</time></trkpt><trkpt lat="44.2233068827393" lon="11.774172457781871"><ele>118.0</ele><time>2026-05-01T15:53:57Z</time></trkpt><trkpt lat="44.2232955074376" lon="11.774060431466834"><ele>119.00000000000001</ele><time>2026-05-01T15:54:01Z</time></trkpt><trkpt lat="44.22327863892091" lon="11.773971027286906"><ele>120.0</ele><time>2026-05-01T15:54:04Z</time></trkpt><trkpt lat="44.22325845265745" lon="11.773879706722594"><ele>121.0</ele><time>2026-05-01T15:54:06.999Z</time></trkpt><trkpt lat="44.223230940272565" lon="11.773768409212156"><ele>122.00000000000001</ele><time>2026-05-01T15:54:10.999Z</time></trkpt><trkpt lat="44.22321212087893" lon="11.773671617288592"><ele>123.0</ele><time>2026-05-01T15:54:13.999Z</time></trkpt><trkpt lat="44.223193005963346" lon="11.773569716992034"><ele>124.0</ele><time>2026-05-01T15:54:16.999Z</time></trkpt><trkpt lat="44.22317549235058" lon="11.773458565699414"><ele>124.42857142857143</ele><time>2026-05-01T15:54:19.999Z</time></trkpt><trkpt lat="44.22316210802323" lon="11.77334981171891"><ele>124.85714285714286</ele><time>2026-05-01T15:54:22.999Z</time></trkpt><trkpt lat="44.22314324773037" lon="11.773246605693927"><ele>125.28571428571429</ele><time>2026-05-01T15:54:25.999Z</time></trkpt><trkpt lat="44.22314529030051" lon="11.77314996352963"><ele>125.71428571428572</ele><time>2026-05-01T15:54:28.999Z</time></trkpt><trkpt lat="44.22314689971417" lon="11.773038010769989"><ele>126.14285714285714</ele><time>2026-05-01T15:54:32.999Z</time></trkpt><trkpt lat="44.22314597577718" lon="11.772949124677837"><ele>126.57142857142858</ele><time>2026-05-01T15:54:36Z</time></trkpt><trkpt lat="44.22314689927063" lon="11.772839565332168"><ele>127.0</ele><time>2026-05-01T15:54:39Z</time></trkpt><trkpt lat="44.223160476411095" lon="11.772730899224284"><ele>127.00000000000001</ele><time>2026-05-01T15:54:42Z</time></trkpt><trkpt lat="44.223166396721794" lon="11.772620667558785"><ele>127.0</ele><time>2026-05-01T15:54:45Z</time></trkpt><trkpt lat="44.22317525000038" lon="11.772507004505309"><ele>127.0</ele><time>2026-05-01T15:54:48Z</time></trkpt><trkpt lat="44.22318080417483" lon="11.772400035771932"><ele>127.0</ele><time>2026-05-01T15:54:51Z</time></trkpt><trkpt lat="44.22317574228785" lon="11.772272901532094"><ele>127.00000000000001</ele><time>2026-05-01T15:54:54Z</time></trkpt><trkpt lat="44.22317667675797" lon="11.772159717012798"><ele>127.0</ele><time>2026-05-01T15:54:57Z</time></trkpt><trkpt lat="44.223154416811965" lon="11.772056150539841"><ele>125.71428571428572</ele><time>2026-05-01T15:55:01Z</time></trkpt><trkpt lat="44.223125133566015" lon="11.77195139270024"><ele>124.42857142857142</ele><time>2026-05-01T15:55:04Z</time></trkpt><trkpt lat="44.2230917812422" lon="11.771864710982296"><ele>123.14285714285714</ele><time>2026-05-01T15:55:06Z</time></trkpt><trkpt lat="44.2230351422213" lon="11.771815999568698"><ele>121.85714285714286</ele><time>2026-05-01T15:55:11Z</time></trkpt><trkpt lat="44.22300125279912" lon="11.771740929056595"><ele>120.57142857142858</ele><time>2026-05-01T15:55:15Z</time></trkpt><trkpt lat="44.2229368386838" lon="11.771721967639643"><ele>119.28571428571428</ele><time>2026-05-01T15:55:18Z</time></trkpt><trkpt lat="44.22287549292804" lon="11.77174626054632"><ele>118.0</ele><time>2026-05-01T15:55:21Z</time></trkpt><trkpt lat="44.22280888852586" lon="11.7717899549823"><ele>118.0</ele><time>2026-05-01T15:55:26Z</time></trkpt><trkpt lat="44.22271577534584" lon="11.771786705735805"><ele>118.00000000000001</ele><time>2026-05-01T15:55:29Z</time></trkpt><trkpt lat="44.22263973511721" lon="11.77176852190818"><ele>118.00000000000001</ele><time>2026-05-01T15:55:31Z</time></trkpt><trkpt lat="44.22255868548108" lon="11.771759103358752"><ele>118.0</ele><time>2026-05-01T15:55:33Z</time></trkpt><trkpt lat="44.222462430175526" lon="11.771756104503275"><ele>118.0</ele><time>2026-05-01T15:55:35Z</time></trkpt><trkpt lat="44.222359802582176" lon="11.771763132364502"><ele>116.4</ele><time>2026-05-01T15:55:37Z</time></trkpt><trkpt lat="44.222245654955415" lon="11.771744098159868"><ele>114.80000000000001</ele><time>2026-05-01T15:55:39Z</time></trkpt><trkpt lat="44.22215023534141" lon="11.771750202358517"><ele>113.2</ele><time>2026-05-01T15:55:41Z</time></trkpt><trkpt lat="44.22208440816472" lon="11.771702006582057"><ele>111.6</ele><time>2026-05-01T15:55:44Z</time></trkpt><trkpt lat="44.22214514628422" lon="11.77160313548718"><ele>110.0</ele><time>2026-05-01T15:55:46Z</time></trkpt><trkpt lat="44.22211796513294" lon="11.771503303921124"><ele>110.0</ele><time>2026-05-01T15:55:51Z</time></trkpt><trkpt lat="44.222142926867136" lon="11.771597469358692"><ele>110.0</ele><time>2026-05-01T15:56:04.999Z</time></trkpt><trkpt lat="44.22212698681882" lon="11.771682555829596"><ele>110.0</ele><time>2026-05-01T15:56:10.999Z</time></trkpt><trkpt lat="44.22218108804764" lon="11.771739186262035"><ele>110.0</ele><time>2026-05-01T15:56:15.999Z</time></trkpt><trkpt lat="44.222370145585174" lon="11.771746962608443"><ele>110.0</ele><time>2026-05-01T15:56:48Z</time></trkpt><trkpt lat="44.22255480928123" lon="11.771725141355697"><ele>118.0</ele><time>2026-05-01T15:57:01Z</time></trkpt><trkpt lat="44.22275888608783" lon="11.771760003964875"><ele>118.0</ele><time>2026-05-01T15:57:17Z</time></trkpt></trkseg><trkseg><trkpt lat="44.22242379802961" lon="11.771133294719906"><ele>118.0</ele><time>2026-05-02T05:49:53.032Z</time></trkpt><trkpt lat="44.22256063151258" lon="11.77109058113102"><ele>118.00000000000001</ele><time>2026-05-02T05:50:29.544Z</time></trkpt><trkpt lat="44.22261630131106" lon="11.771046598123588"><ele>118.00000000000001</ele><time>2026-05-02T05:51:59.999Z</time></trkpt><trkpt lat="44.2226978516359" lon="11.771066581624233"><ele>118.0</ele><time>2026-05-02T05:52:56Z</time></trkpt><trkpt lat="44.2227753943924" lon="11.771111456394863"><ele>118.0</ele><time>2026-05-02T05:53:11Z</time></trkpt><trkpt lat="44.2228017894477" lon="11.771216158989088"><ele>118.00000000000001</ele><time>2026-05-02T05:53:16Z</time></trkpt><trkpt lat="44.22283942336972" lon="11.771296119244573"><ele>118.0</ele><time>2026-05-02T05:53:20Z</time></trkpt><trkpt lat="44.22285403366559" lon="11.771403294006225"><ele>118.0</ele><time>2026-05-02T05:53:24Z</time></trkpt><trkpt lat="44.22286368340837" lon="11.771504323410694"><ele>118.0</ele><time>2026-05-02T05:53:28Z</time></trkpt><trkpt lat="44.22289678244144" lon="11.771603965761692"><ele>118.00000000000001</ele><time>2026-05-02T05:53:31Z</time></trkpt><trkpt lat="44.22289199529017" lon="11.771703169335995"><ele>118.0</ele><time>2026-05-02T05:53:34.999Z</time></trkpt><trkpt lat="44.22281839377228" lon="11.77176563677992"><ele>118.00000000000001</ele><time>2026-05-02T05:53:38.999Z</time></trkpt><trkpt lat="44.22271544396207" lon="11.771798050421546"><ele>118.0</ele><time>2026-05-02T05:53:40.999Z</time></trkpt><trkpt lat="44.222629313058995" lon="11.771837358064381"><ele>118.0</ele><time>2026-05-02T05:53:42.999Z</time></trkpt><trkpt lat="44.22257040654386" lon="11.771805427281398"><ele>118.0</ele><time>2026-05-02T05:53:43.999Z</time></trkpt><trkpt lat="44.2224976898632" lon="11.771804528334645"><ele>118.00000000000001</ele><time>2026-05-02T05:53:46.999Z</time></trkpt><trkpt lat="44.22242425765074" lon="11.77180535930173"><ele>118.0</ele><time>2026-05-02T05:53:48.999Z</time></trkpt><trkpt lat="44.22233801217007" lon="11.771800485847159"><ele>116.66666666666667</ele><time>2026-05-02T05:53:50.999Z</time></trkpt><trkpt lat="44.22225219454026" lon="11.771797823480362"><ele>115.33333333333334</ele><time>2026-05-02T05:53:52.999Z</time></trkpt><trkpt lat="44.222167811650756" lon="11.771803320914078"><ele>114.0</ele><time>2026-05-02T05:53:54.999Z</time></trkpt><trkpt lat="44.22210241876338" lon="11.771784061940242"><ele>112.66666666666666</ele><time>2026-05-02T05:53:56.999Z</time></trkpt><trkpt lat="44.222039202267375" lon="11.771760872572749"><ele>111.33333333333333</ele><time>2026-05-02T05:53:59.999Z</time></trkpt><trkpt lat="44.22197340406342" lon="11.77179420968561"><ele>110.0</ele><time>2026-05-02T05:54:03.999Z</time></trkpt><trkpt lat="44.22189554951476" lon="11.771772523646478"><ele>109.99999999999999</ele><time>2026-05-02T05:54:05.999Z</time></trkpt><trkpt lat="44.22180626564163" lon="11.771753717307838"><ele>110.0</ele><time>2026-05-02T05:54:07.999Z</time></trkpt><trkpt lat="44.221703190055216" lon="11.771740968951768"><ele>110.0</ele><time>2026-05-02T05:54:09.999Z</time></trkpt><trkpt lat="44.22161949464487" lon="11.771767914270491"><ele>110.0</ele><time>2026-05-02T05:54:11.999Z</time></trkpt><trkpt lat="44.22154668728041" lon="11.77173484733565"><ele>109.99999999999999</ele><time>2026-05-02T05:54:13.999Z</time></trkpt><trkpt lat="44.221481281169375" lon="11.771731445623988"><ele>110.0</ele><time>2026-05-02T05:54:19Z</time></trkpt><trkpt lat="44.22148190951339" lon="11.771839858576358"><ele>109.49999999999999</ele><time>2026-05-02T05:54:21Z</time></trkpt><trkpt lat="44.22150488693971" lon="11.771926777575556"><ele>109.0</ele><time>2026-05-02T05:54:23Z</time></trkpt><trkpt lat="44.22152888709078" lon="11.7720326704034"><ele>108.5</ele><time>2026-05-02T05:54:25Z</time></trkpt><trkpt lat="44.22156073850614" lon="11.772150890767326"><ele>108.0</ele><time>2026-05-02T05:54:27Z</time></trkpt><trkpt lat="44.22158072667649" lon="11.772272480474387"><ele>107.49999999999999</ele><time>2026-05-02T05:54:29Z</time></trkpt><trkpt lat="44.22160784029812" lon="11.77238915060717"><ele>107.0</ele><time>2026-05-02T05:54:31Z</time></trkpt><trkpt lat="44.22163525600279" lon="11.772518457377592"><ele>106.99999999999999</ele><time>2026-05-02T05:54:33Z</time></trkpt><trkpt lat="44.221663675108246" lon="11.772646089980228"><ele>107.0</ele><time>2026-05-02T05:54:35Z</time></trkpt><trkpt lat="44.221691377145866" lon="11.772761324306488"><ele>107.0</ele><time>2026-05-02T05:54:37Z</time></trkpt><trkpt lat="44.22171597877374" lon="11.772872665178276"><ele>107.0</ele><time>2026-05-02T05:54:39Z</time></trkpt><trkpt lat="44.22173965455343" lon="11.772980715659948"><ele>106.99999999999999</ele><time>2026-05-02T05:54:41Z</time></trkpt><trkpt lat="44.22177015917921" lon="11.773083936373542"><ele>107.0</ele><time>2026-05-02T05:54:43Z</time></trkpt><trkpt lat="44.22179442467232" lon="11.773191060812985"><ele>106.99999999999999</ele><time>2026-05-02T05:54:45Z</time></trkpt><trkpt lat="44.22182182442041" lon="11.773292451322023"><ele>107.0</ele><time>2026-05-02T05:54:47Z</time></trkpt><trkpt lat="44.22184015420351" lon="11.773388626055578"><ele>107.0</ele><time>2026-05-02T05:54:49Z</time></trkpt><trkpt lat="44.221862687301524" lon="11.773483107768554"><ele>107.0</ele><time>2026-05-02T05:54:51Z</time></trkpt><trkpt lat="44.22188917840407" lon="11.77359668014507"><ele>106.99999999999999</ele><time>2026-05-02T05:54:53Z</time></trkpt><trkpt lat="44.221922578896546" lon="11.773702996330108"><ele>107.0</ele><time>2026-05-02T05:54:55Z</time></trkpt><trkpt lat="44.22194891733808" lon="11.773809996647607"><ele>107.0</ele><time>2026-05-02T05:54:57Z</time></trkpt><trkpt lat="44.22197716934869" lon="11.773934071786574"><ele>106.99999999999999</ele><time>2026-05-02T05:54:59Z</time></trkpt><trkpt lat="44.22201621193213" lon="11.774056271626382"><ele>106.99999999999999</ele><time>2026-05-02T05:55:01Z</time></trkpt><trkpt lat="44.222055425741075" lon="11.774178274244804"><ele>107.0</ele><time>2026-05-02T05:55:03Z</time></trkpt><trkpt lat="44.22210193837595" lon="11.774303866778082"><ele>107.0</ele><time>2026-05-02T05:55:05Z</time></trkpt><trkpt lat="44.22215082828742" lon="11.774435997821376"><ele>107.19999999999999</ele><time>2026-05-02T05:55:07Z</time></trkpt><trkpt lat="44.22220331848216" lon="11.774553560041502"><ele>107.39999999999999</ele><time>2026-05-02T05:55:09Z</time></trkpt><trkpt lat="44.222257256594595" lon="11.774672646184595"><ele>107.60000000000001</ele><time>2026-05-02T05:55:11Z</time></trkpt><trkpt lat="44.2223108571915" lon="11.774797776160094"><ele>107.80000000000001</ele><time>2026-05-02T05:55:13Z</time></trkpt><trkpt lat="44.22237594504682" lon="11.774905057063565"><ele>108.0</ele><time>2026-05-02T05:55:15Z</time></trkpt><trkpt lat="44.2224310127481" lon="11.77502908809303"><ele>108.0</ele><time>2026-05-02T05:55:17Z</time></trkpt><trkpt lat="44.22248230729377" lon="11.77515843384821"><ele>108.0</ele><time>2026-05-02T05:55:19Z</time></trkpt><trkpt lat="44.222552464286615" lon="11.775284491306493"><ele>108.0</ele><time>2026-05-02T05:55:21Z</time></trkpt><trkpt lat="44.22262733604141" lon="11.775414086048158"><ele>108.0</ele><time>2026-05-02T05:55:23Z</time></trkpt><trkpt lat="44.22269143752463" lon="11.775545639852297"><ele>107.2</ele><time>2026-05-02T05:55:25Z</time></trkpt><trkpt lat="44.22275909955289" lon="11.775669639442727"><ele>106.4</ele><time>2026-05-02T05:55:27Z</time></trkpt><trkpt lat="44.22282325432759" lon="11.775790761831107"><ele>105.60000000000001</ele><time>2026-05-02T05:55:28.999Z</time></trkpt><trkpt lat="44.22288699901169" lon="11.77591054199818"><ele>104.80000000000001</ele><time>2026-05-02T05:55:30.999Z</time></trkpt><trkpt lat="44.222960428270795" lon="11.776024511305874"><ele>104.0</ele><time>2026-05-02T05:55:32.999Z</time></trkpt><trkpt lat="44.22302186465137" lon="11.776151261871071"><ele>103.25</ele><time>2026-05-02T05:55:34.999Z</time></trkpt><trkpt lat="44.22309280791274" lon="11.776278317669549"><ele>102.5</ele><time>2026-05-02T05:55:36.999Z</time></trkpt><trkpt lat="44.22315486897219" lon="11.776409611592387"><ele>101.75</ele><time>2026-05-02T05:55:38.999Z</time></trkpt><trkpt lat="44.223230690170695" lon="11.776539591164816"><ele>101.0</ele><time>2026-05-02T05:55:40.999Z</time></trkpt><trkpt lat="44.223296551446545" lon="11.77666774995629"><ele>101.5</ele><time>2026-05-02T05:55:42.999Z</time></trkpt><trkpt lat="44.22336092616318" lon="11.776795651587216"><ele>102.0</ele><time>2026-05-02T05:55:44.999Z</time></trkpt><trkpt lat="44.223424491579095" lon="11.776938250178269"><ele>102.5</ele><time>2026-05-02T05:55:46.999Z</time></trkpt><trkpt lat="44.223491251703564" lon="11.777063998726659"><ele>103.0</ele><time>2026-05-02T05:55:48.999Z</time></trkpt><trkpt lat="44.22355497302344" lon="11.77718192673325"><ele>103.0</ele><time>2026-05-02T05:55:50.999Z</time></trkpt><trkpt lat="44.22361746580608" lon="11.77730584368708"><ele>103.0</ele><time>2026-05-02T05:55:52.999Z</time></trkpt><trkpt lat="44.22368264477029" lon="11.77741455305717"><ele>103.0</ele><time>2026-05-02T05:55:54.999Z</time></trkpt><trkpt lat="44.22374066871148" lon="11.77751982656304"><ele>103.0</ele><time>2026-05-02T05:55:56.999Z</time></trkpt><trkpt lat="44.22379772043538" lon="11.777624046130903"><ele>103.0</ele><time>2026-05-02T05:55:58.999Z</time></trkpt><trkpt lat="44.223782228228394" lon="11.777751580446859"><ele>102.66666666666667</ele><time>2026-05-02T05:56:00.999Z</time></trkpt><trkpt lat="44.22372981511579" lon="11.777865019579233"><ele>102.33333333333334</ele><time>2026-05-02T05:56:02.999Z</time></trkpt><trkpt lat="44.22368134679774" lon="11.77798549629319"><ele>102.0</ele><time>2026-05-02T05:56:04.999Z</time></trkpt><trkpt lat="44.22367562580647" lon="11.77815233960181"><ele>101.66666666666666</ele><time>2026-05-02T05:56:06.999Z</time></trkpt><trkpt lat="44.22369515198343" lon="11.77823806136851"><ele>101.33333333333333</ele><time>2026-05-02T05:56:07.999Z</time></trkpt><trkpt lat="44.223733186207944" lon="11.778316843171813"><ele>101.0</ele><time>2026-05-02T05:56:08.999Z</time></trkpt><trkpt lat="44.22377809205648" lon="11.778387658804592"><ele>100.99999999999999</ele><time>2026-05-02T05:56:09.999Z</time></trkpt><trkpt lat="44.223822208183215" lon="11.778461474515181"><ele>101.0</ele><time>2026-05-02T05:56:10.999Z</time></trkpt><trkpt lat="44.22386850109533" lon="11.778536060108541"><ele>101.0</ele><time>2026-05-02T05:56:11.999Z</time></trkpt><trkpt lat="44.22391386628297" lon="11.778619035287749"><ele>101.0</ele><time>2026-05-02T05:56:12.999Z</time></trkpt><trkpt lat="44.22396213365024" lon="11.778700290574434"><ele>100.99999999999999</ele><time>2026-05-02T05:56:13.999Z</time></trkpt><trkpt lat="44.22401251524018" lon="11.778785135496912"><ele>101.0</ele><time>2026-05-02T05:56:14.999Z</time></trkpt><trkpt lat="44.22406414187167" lon="11.778872533588661"><ele>100.83333333333333</ele><time>2026-05-02T05:56:15.999Z</time></trkpt><trkpt lat="44.224115970172356" lon="11.77896011160926"><ele>100.66666666666666</ele><time>2026-05-02T05:56:16.999Z</time></trkpt><trkpt lat="44.22416846199494" lon="11.77905231339097"><ele>100.5</ele><time>2026-05-02T05:56:17.999Z</time></trkpt><trkpt lat="44.224224718175826" lon="11.779156957464705"><ele>100.33333333333334</ele><time>2026-05-02T05:56:18.999Z</time></trkpt><trkpt lat="44.2242804240728" lon="11.7792506064046"><ele>100.16666666666667</ele><time>2026-05-02T05:56:19.999Z</time></trkpt><trkpt lat="44.22434381656102" lon="11.779347454219923"><ele>100.0</ele><time>2026-05-02T05:56:20.999Z</time></trkpt><trkpt lat="44.2243967403358" lon="11.779437998251941"><ele>99.33333333333334</ele><time>2026-05-02T05:56:22Z</time></trkpt><trkpt lat="44.22444294773421" lon="11.779510906836453"><ele>98.66666666666667</ele><time>2026-05-02T05:56:23Z</time></trkpt><trkpt lat="44.22448402727589" lon="11.77958871331021"><ele>98.0</ele><time>2026-05-02T05:56:24Z</time></trkpt><trkpt lat="44.22449466476753" lon="11.779702168030429"><ele>97.33333333333334</ele><time>2026-05-02T05:56:25Z</time></trkpt><trkpt lat="44.22444963360809" lon="11.779799789290808"><ele>96.66666666666667</ele><time>2026-05-02T05:56:26Z</time></trkpt><trkpt lat="44.22442683462026" lon="11.779895928631941"><ele>96.0</ele><time>2026-05-02T05:56:27Z</time></trkpt><trkpt lat="44.2243490671106" lon="11.780022135174603"><ele>96.0</ele><time>2026-05-02T05:56:29Z</time></trkpt><trkpt lat="44.22430178510116" lon="11.780086010314058"><ele>96.0</ele><time>2026-05-02T05:56:30Z</time></trkpt><trkpt lat="44.224249322360635" lon="11.780138998807738"><ele>96.0</ele><time>2026-05-02T05:56:31Z</time></trkpt><trkpt lat="44.224151781935284" lon="11.78023250170871"><ele>96.0</ele><time>2026-05-02T05:56:33Z</time></trkpt><trkpt lat="44.22408443721216" lon="11.780301414426638"><ele>96.0</ele><time>2026-05-02T05:56:35Z</time></trkpt><trkpt lat="44.224018507302674" lon="11.78037999183708"><ele>96.0</ele><time>2026-05-02T05:56:37Z</time></trkpt><trkpt lat="44.223950656500854" lon="11.780462686510871"><ele>94.42857142857142</ele><time>2026-05-02T05:56:39Z</time></trkpt><trkpt lat="44.2238830480133" lon="11.780580301766605"><ele>92.85714285714286</ele><time>2026-05-02T05:56:41Z</time></trkpt><trkpt lat="44.223844145413196" lon="11.780649789897396"><ele>91.28571428571428</ele><time>2026-05-02T05:56:42Z</time></trkpt><trkpt lat="44.22380457666842" lon="11.780724222420897"><ele>89.71428571428571</ele><time>2026-05-02T05:56:43Z</time></trkpt><trkpt lat="44.223769674326235" lon="11.780803722354316"><ele>88.14285714285714</ele><time>2026-05-02T05:56:44Z</time></trkpt><trkpt lat="44.22374321445213" lon="11.780891905565822"><ele>86.57142857142857</ele><time>2026-05-02T05:56:45Z</time></trkpt><trkpt lat="44.22370250801483" lon="11.780975296305535"><ele>85.0</ele><time>2026-05-02T05:56:46Z</time></trkpt><trkpt lat="44.2236641108482" lon="11.7810609394579"><ele>84.16666666666666</ele><time>2026-05-02T05:56:47Z</time></trkpt><trkpt lat="44.22362714606198" lon="11.781156385722905"><ele>83.33333333333333</ele><time>2026-05-02T05:56:48Z</time></trkpt><trkpt lat="44.22358893549459" lon="11.78125141760914"><ele>82.5</ele><time>2026-05-02T05:56:49Z</time></trkpt><trkpt lat="44.223550663345335" lon="11.781357501706346"><ele>81.66666666666667</ele><time>2026-05-02T05:56:50Z</time></trkpt><trkpt lat="44.22350990953515" lon="11.781457487110643"><ele>80.83333333333334</ele><time>2026-05-02T05:56:51Z</time></trkpt><trkpt lat="44.22346864530614" lon="11.781563875435735"><ele>80.0</ele><time>2026-05-02T05:56:52Z</time></trkpt><trkpt lat="44.223422792787495" lon="11.7816710470251"><ele>80.0</ele><time>2026-05-02T05:56:53Z</time></trkpt><trkpt lat="44.223380546695374" lon="11.781773755774532"><ele>80.0</ele><time>2026-05-02T05:56:54Z</time></trkpt><trkpt lat="44.22333884431135" lon="11.781879022395577"><ele>80.0</ele><time>2026-05-02T05:56:55Z</time></trkpt><trkpt lat="44.223295786961586" lon="11.781981236059634"><ele>80.0</ele><time>2026-05-02T05:56:56Z</time></trkpt><trkpt lat="44.223250547074905" lon="11.782084113296792"><ele>80.0</ele><time>2026-05-02T05:56:57Z</time></trkpt><trkpt lat="44.22320818400687" lon="11.782188839378396"><ele>80.0</ele><time>2026-05-02T05:56:58Z</time></trkpt><trkpt lat="44.22316710931511" lon="11.782295493052898"><ele>79.66666666666667</ele><time>2026-05-02T05:56:59Z</time></trkpt><trkpt lat="44.2231255736863" lon="11.782398406281976"><ele>79.33333333333334</ele><time>2026-05-02T05:57:00Z</time></trkpt><trkpt lat="44.22308097031739" lon="11.78250138780141"><ele>79.0</ele><time>2026-05-02T05:57:01Z</time></trkpt><trkpt lat="44.223039444824224" lon="11.78260299337264"><ele>78.66666666666667</ele><time>2026-05-02T05:57:02Z</time></trkpt><trkpt lat="44.2229984302518" lon="11.782707023906209"><ele>78.33333333333333</ele><time>2026-05-02T05:57:03Z</time></trkpt><trkpt lat="44.222955592709646" lon="11.782811697303744"><ele>78.0</ele><time>2026-05-02T05:57:04Z</time></trkpt><trkpt lat="44.22291166745494" lon="11.7829144697086"><ele>78.0</ele><time>2026-05-02T05:57:05Z</time></trkpt><trkpt lat="44.22286724507128" lon="11.783011566559306"><ele>78.0</ele><time>2026-05-02T05:57:06Z</time></trkpt><trkpt lat="44.222825375445346" lon="11.783108246993429"><ele>78.0</ele><time>2026-05-02T05:57:07Z</time></trkpt><trkpt lat="44.22278642583442" lon="11.783209928169203"><ele>78.0</ele><time>2026-05-02T05:57:08Z</time></trkpt><trkpt lat="44.22275632524596" lon="11.783313805339988"><ele>78.0</ele><time>2026-05-02T05:57:09Z</time></trkpt><trkpt lat="44.22272744498741" lon="11.783421807737746"><ele>78.0</ele><time>2026-05-02T05:57:10Z</time></trkpt><trkpt lat="44.22269815914163" lon="11.783524273157498"><ele>77.33333333333333</ele><time>2026-05-02T05:57:11Z</time></trkpt><trkpt lat="44.22266721740715" lon="11.783637803212129"><ele>76.66666666666667</ele><time>2026-05-02T05:57:12Z</time></trkpt><trkpt lat="44.22264189266696" lon="11.783751989503283"><ele>76.0</ele><time>2026-05-02T05:57:13Z</time></trkpt><trkpt lat="44.22261802500853" lon="11.783867615513135"><ele>75.33333333333334</ele><time>2026-05-02T05:57:14Z</time></trkpt><trkpt lat="44.222593308185004" lon="11.783981520357711"><ele>74.66666666666667</ele><time>2026-05-02T05:57:15Z</time></trkpt><trkpt lat="44.22257391797464" lon="11.784093335588704"><ele>74.0</ele><time>2026-05-02T05:57:16Z</time></trkpt><trkpt lat="44.222551507230285" lon="11.784207619533568"><ele>74.0</ele><time>2026-05-02T05:57:17Z</time></trkpt><trkpt lat="44.22253037204356" lon="11.78432270859856"><ele>74.0</ele><time>2026-05-02T05:57:18Z</time></trkpt><trkpt lat="44.22250458744273" lon="11.784436990046743"><ele>74.0</ele><time>2026-05-02T05:57:19Z</time></trkpt><trkpt lat="44.2224847400474" lon="11.78454247361738"><ele>74.0</ele><time>2026-05-02T05:57:20Z</time></trkpt><trkpt lat="44.22246170891212" lon="11.784649563307328"><ele>74.0</ele><time>2026-05-02T05:57:21Z</time></trkpt><trkpt lat="44.22242985650851" lon="11.784755890741115"><ele>74.0</ele><time>2026-05-02T05:57:22Z</time></trkpt><trkpt lat="44.22240112759977" lon="11.784850954333267"><ele>73.57142857142857</ele><time>2026-05-02T05:57:23Z</time></trkpt><trkpt lat="44.22237313419024" lon="11.784955972620788"><ele>73.14285714285714</ele><time>2026-05-02T05:57:24Z</time></trkpt><trkpt lat="44.22234638951819" lon="11.785048630283653"><ele>72.71428571428571</ele><time>2026-05-02T05:57:25Z</time></trkpt><trkpt lat="44.222321216956715" lon="11.785138246639255"><ele>72.28571428571428</ele><time>2026-05-02T05:57:26Z</time></trkpt><trkpt lat="44.222289951991165" lon="11.785219631738444"><ele>71.85714285714285</ele><time>2026-05-02T05:57:27Z</time></trkpt><trkpt lat="44.22225753260159" lon="11.785305004736347"><ele>71.42857142857143</ele><time>2026-05-02T05:57:28Z</time></trkpt><trkpt lat="44.222225228854924" lon="11.785391409988483"><ele>71.0</ele><time>2026-05-02T05:57:29Z</time></trkpt><trkpt lat="44.22219431954096" lon="11.785473515569722"><ele>70.8</ele><time>2026-05-02T05:57:30Z</time></trkpt><trkpt lat="44.22213872067258" lon="11.785630882707181"><ele>70.6</ele><time>2026-05-02T05:57:32Z</time></trkpt><trkpt lat="44.22210832548249" lon="11.785708063527505"><ele>70.4</ele><time>2026-05-02T05:57:33Z</time></trkpt><trkpt lat="44.22205297405107" lon="11.78585746725596"><ele>70.2</ele><time>2026-05-02T05:57:35Z</time></trkpt><trkpt lat="44.22200081534535" lon="11.786009855190118"><ele>70.0</ele><time>2026-05-02T05:57:37Z</time></trkpt><trkpt lat="44.221950663555475" lon="11.78615019749664"><ele>70.0</ele><time>2026-05-02T05:57:39Z</time></trkpt><trkpt lat="44.22190134265938" lon="11.786277578500874"><ele>70.0</ele><time>2026-05-02T05:57:41Z</time></trkpt><trkpt lat="44.22184730599822" lon="11.78640415275983"><ele>70.0</ele><time>2026-05-02T05:57:43Z</time></trkpt><trkpt lat="44.2217936491185" lon="11.786534089454257"><ele>70.0</ele><time>2026-05-02T05:57:45Z</time></trkpt><trkpt lat="44.221743772143725" lon="11.786661783873258"><ele>70.0</ele><time>2026-05-02T05:57:47Z</time></trkpt><trkpt lat="44.2217063893914" lon="11.786808895070138"><ele>70.2</ele><time>2026-05-02T05:57:48.999Z</time></trkpt><trkpt lat="44.22165232438221" lon="11.786953045795352"><ele>70.4</ele><time>2026-05-02T05:57:50.999Z</time></trkpt><trkpt lat="44.221622021607914" lon="11.78703091261808"><ele>70.6</ele><time>2026-05-02T05:57:51.999Z</time></trkpt><trkpt lat="44.22158994444894" lon="11.787107632976774"><ele>70.8</ele><time>2026-05-02T05:57:52.999Z</time></trkpt><trkpt lat="44.22153207695699" lon="11.787254908161117"><ele>71.0</ele><time>2026-05-02T05:57:54.999Z</time></trkpt><trkpt lat="44.22147805950934" lon="11.787406425080665"><ele>73.0</ele><time>2026-05-02T05:57:56.999Z</time></trkpt><trkpt lat="44.22142134508559" lon="11.787556993319981"><ele>75.0</ele><time>2026-05-02T05:57:58.999Z</time></trkpt><trkpt lat="44.221392202605735" lon="11.787636432267567"><ele>77.0</ele><time>2026-05-02T05:57:59.999Z</time></trkpt><trkpt lat="44.22134634355552" lon="11.787785536990944"><ele>79.0</ele><time>2026-05-02T05:58:01.999Z</time></trkpt><trkpt lat="44.221319058753444" lon="11.787929699373048"><ele>81.0</ele><time>2026-05-02T05:58:03.999Z</time></trkpt><trkpt lat="44.22129841927608" lon="11.788082620744696"><ele>81.8</ele><time>2026-05-02T05:58:05.999Z</time></trkpt><trkpt lat="44.221292170912704" lon="11.788236350799263"><ele>82.6</ele><time>2026-05-02T05:58:07.999Z</time></trkpt><trkpt lat="44.22129682420836" lon="11.788391581726446"><ele>83.4</ele><time>2026-05-02T05:58:09.999Z</time></trkpt><trkpt lat="44.22131452160602" lon="11.788542611819542"><ele>84.2</ele><time>2026-05-02T05:58:11.999Z</time></trkpt><trkpt lat="44.22133498062199" lon="11.788688544820836"><ele>85.0</ele><time>2026-05-02T05:58:13.999Z</time></trkpt><trkpt lat="44.221360086269655" lon="11.788836352257263"><ele>85.0</ele><time>2026-05-02T05:58:15.999Z</time></trkpt><trkpt lat="44.22139720103075" lon="11.788984232398299"><ele>85.0</ele><time>2026-05-02T05:58:17.999Z</time></trkpt><trkpt lat="44.221443093086044" lon="11.789129882055574"><ele>85.0</ele><time>2026-05-02T05:58:19.999Z</time></trkpt><trkpt lat="44.2215090994634" lon="11.789267062560402"><ele>85.0</ele><time>2026-05-02T05:58:21.999Z</time></trkpt><trkpt lat="44.22158020063091" lon="11.78940027331797"><ele>82.25</ele><time>2026-05-02T05:58:23.999Z</time></trkpt><trkpt lat="44.22165137422111" lon="11.789531907906857"><ele>79.5</ele><time>2026-05-02T05:58:25.999Z</time></trkpt><trkpt lat="44.22172187876765" lon="11.789664137547229"><ele>76.75</ele><time>2026-05-02T05:58:28Z</time></trkpt><trkpt lat="44.22179339693508" lon="11.789802499731293"><ele>74.0</ele><time>2026-05-02T05:58:30Z</time></trkpt><trkpt lat="44.221865375765155" lon="11.789939581284653"><ele>74.0</ele><time>2026-05-02T05:58:32Z</time></trkpt><trkpt lat="44.221938157980034" lon="11.790082496196467"><ele>74.0</ele><time>2026-05-02T05:58:34Z</time></trkpt><trkpt lat="44.222009510499596" lon="11.790219773160107"><ele>74.0</ele><time>2026-05-02T05:58:36Z</time></trkpt><trkpt lat="44.222081180748766" lon="11.790358641539433"><ele>74.0</ele><time>2026-05-02T05:58:38Z</time></trkpt><trkpt lat="44.22214351652282" lon="11.790493255696859"><ele>73.5</ele><time>2026-05-02T05:58:40Z</time></trkpt><trkpt lat="44.2222051226316" lon="11.79062815612948"><ele>73.0</ele><time>2026-05-02T05:58:42Z</time></trkpt><trkpt lat="44.22225974225182" lon="11.790768904770816"><ele>72.5</ele><time>2026-05-02T05:58:44Z</time></trkpt><trkpt lat="44.22231145480296" lon="11.790910176990412"><ele>72.0</ele><time>2026-05-02T05:58:46Z</time></trkpt><trkpt lat="44.222351593898445" lon="11.791056999146983"><ele>72.0</ele><time>2026-05-02T05:58:48Z</time></trkpt><trkpt lat="44.22238901956504" lon="11.791203738724386"><ele>72.0</ele><time>2026-05-02T05:58:50Z</time></trkpt><trkpt lat="44.22241955809439" lon="11.791357566501274"><ele>72.0</ele><time>2026-05-02T05:58:52Z</time></trkpt><trkpt lat="44.22244967153163" lon="11.791516134916368"><ele>72.0</ele><time>2026-05-02T05:58:54Z</time></trkpt><trkpt lat="44.22247881704543" lon="11.791676058274174"><ele>72.25</ele><time>2026-05-02T05:58:56Z</time></trkpt><trkpt lat="44.22250778952723" lon="11.791841359995283"><ele>72.5</ele><time>2026-05-02T05:58:58Z</time></trkpt><trkpt lat="44.22253727109001" lon="11.792014455360222"><ele>72.75</ele><time>2026-05-02T05:59:00Z</time></trkpt><trkpt lat="44.22256470522703" lon="11.792180671898961"><ele>73.0</ele><time>2026-05-02T05:59:02Z</time></trkpt><trkpt lat="44.222593359054635" lon="11.79235006666299"><ele>73.0</ele><time>2026-05-02T05:59:04Z</time></trkpt><trkpt lat="44.22262103019812" lon="11.79251906471992"><ele>73.0</ele><time>2026-05-02T05:59:06Z</time></trkpt><trkpt lat="44.22265099605649" lon="11.79268018731757"><ele>73.0</ele><time>2026-05-02T05:59:08Z</time></trkpt><trkpt lat="44.22267639004817" lon="11.792837112007438"><ele>73.0</ele><time>2026-05-02T05:59:10Z</time></trkpt><trkpt lat="44.22270539986598" lon="11.793006066512996"><ele>73.4</ele><time>2026-05-02T05:59:12Z</time></trkpt><trkpt lat="44.222728942292925" lon="11.79317803355588"><ele>73.8</ele><time>2026-05-02T05:59:14Z</time></trkpt><trkpt lat="44.222746276246184" lon="11.79326453361014"><ele>74.2</ele><time>2026-05-02T05:59:15Z</time></trkpt><trkpt lat="44.222768219341525" lon="11.793357134791554"><ele>74.6</ele><time>2026-05-02T05:59:16Z</time></trkpt><trkpt lat="44.22281200724691" lon="11.793521064297185"><ele>75.0</ele><time>2026-05-02T05:59:18Z</time></trkpt><trkpt lat="44.222837508651715" lon="11.793604193830884"><ele>75.57142857142857</ele><time>2026-05-02T05:59:19Z</time></trkpt><trkpt lat="44.22286745977022" lon="11.793687829789404"><ele>76.14285714285714</ele><time>2026-05-02T05:59:20Z</time></trkpt><trkpt lat="44.222902015890675" lon="11.79377548250016"><ele>76.71428571428572</ele><time>2026-05-02T05:59:21Z</time></trkpt><trkpt lat="44.22293449227716" lon="11.79385826607467"><ele>77.28571428571428</ele><time>2026-05-02T05:59:22Z</time></trkpt><trkpt lat="44.22296804873984" lon="11.79394141131208"><ele>77.85714285714286</ele><time>2026-05-02T05:59:23Z</time></trkpt><trkpt lat="44.2230015362377" lon="11.794024403191209"><ele>78.42857142857143</ele><time>2026-05-02T05:59:24Z</time></trkpt><trkpt lat="44.22303794074218" lon="11.794107938607496"><ele>79.0</ele><time>2026-05-02T05:59:25Z</time></trkpt><trkpt lat="44.223075573363914" lon="11.794192798782557"><ele>79.00000000000001</ele><time>2026-05-02T05:59:26Z</time></trkpt><trkpt lat="44.22311335749964" lon="11.794277511471066"><ele>79.0</ele><time>2026-05-02T05:59:27Z</time></trkpt><trkpt lat="44.22314894602546" lon="11.794362714826807"><ele>79.0</ele><time>2026-05-02T05:59:28Z</time></trkpt><trkpt lat="44.22318233057739" lon="11.79444714560457"><ele>79.0</ele><time>2026-05-02T05:59:29Z</time></trkpt><trkpt lat="44.22321519509093" lon="11.794533901278315"><ele>79.0</ele><time>2026-05-02T05:59:30Z</time></trkpt><trkpt lat="44.223251683360196" lon="11.794617311233004"><ele>79.00000000000001</ele><time>2026-05-02T05:59:31Z</time></trkpt><trkpt lat="44.223290511683125" lon="11.7946961163014"><ele>79.0</ele><time>2026-05-02T05:59:32Z</time></trkpt><trkpt lat="44.223332448944404" lon="11.794769644523242"><ele>79.16666666666666</ele><time>2026-05-02T05:59:33Z</time></trkpt><trkpt lat="44.223373060094076" lon="11.794837645969835"><ele>79.33333333333333</ele><time>2026-05-02T05:59:34Z</time></trkpt><trkpt lat="44.22345704087633" lon="11.794967556662552"><ele>79.5</ele><time>2026-05-02T05:59:36Z</time></trkpt><trkpt lat="44.223503601737356" lon="11.795033919962897"><ele>79.66666666666667</ele><time>2026-05-02T05:59:37Z</time></trkpt><trkpt lat="44.22354780601102" lon="11.795098965680467"><ele>79.83333333333334</ele><time>2026-05-02T05:59:38Z</time></trkpt><trkpt lat="44.22359451196875" lon="11.795163763789676"><ele>80.0</ele><time>2026-05-02T05:59:39Z</time></trkpt><trkpt lat="44.22364410593679" lon="11.79522516149537"><ele>80.0</ele><time>2026-05-02T05:59:40Z</time></trkpt><trkpt lat="44.223693617252884" lon="11.795286475285735"><ele>80.0</ele><time>2026-05-02T05:59:41Z</time></trkpt><trkpt lat="44.22374277492946" lon="11.79534594400687"><ele>80.0</ele><time>2026-05-02T05:59:42Z</time></trkpt><trkpt lat="44.22382889419232" lon="11.795467486989509"><ele>80.0</ele><time>2026-05-02T05:59:44Z</time></trkpt><trkpt lat="44.22390184154393" lon="11.7956005947225"><ele>80.0</ele><time>2026-05-02T05:59:46Z</time></trkpt><trkpt lat="44.223963557129395" lon="11.795748675172037"><ele>77.25</ele><time>2026-05-02T05:59:47.999Z</time></trkpt><trkpt lat="44.224010316697004" lon="11.795902376757992"><ele>74.5</ele><time>2026-05-02T05:59:49.999Z</time></trkpt><trkpt lat="44.22404678721229" lon="11.79606284076129"><ele>71.75</ele><time>2026-05-02T05:59:51.999Z</time></trkpt><trkpt lat="44.22406422124028" lon="11.7962317832008"><ele>69.0</ele><time>2026-05-02T05:59:53.999Z</time></trkpt><trkpt lat="44.22408192573692" lon="11.796398222761619"><ele>69.0</ele><time>2026-05-02T05:59:55.999Z</time></trkpt><trkpt lat="44.2240972409672" lon="11.796565912488026"><ele>69.0</ele><time>2026-05-02T05:59:57.999Z</time></trkpt><trkpt lat="44.224109777333794" lon="11.796724028061679"><ele>69.0</ele><time>2026-05-02T05:59:59.999Z</time></trkpt><trkpt lat="44.22412151234335" lon="11.796872019375403"><ele>69.0</ele><time>2026-05-02T06:00:01.999Z</time></trkpt><trkpt lat="44.22414101079461" lon="11.79700673272051"><ele>69.0</ele><time>2026-05-02T06:00:03.999Z</time></trkpt><trkpt lat="44.2241479016919" lon="11.797140296375037"><ele>69.5</ele><time>2026-05-02T06:00:05.999Z</time></trkpt><trkpt lat="44.22415060242891" lon="11.79724926741276"><ele>70.0</ele><time>2026-05-02T06:00:07.999Z</time></trkpt><trkpt lat="44.22415246604863" lon="11.79735593486427"><ele>70.5</ele><time>2026-05-02T06:00:09.999Z</time></trkpt><trkpt lat="44.22415908371764" lon="11.797453983508657"><ele>71.0</ele><time>2026-05-02T06:00:11.999Z</time></trkpt><trkpt lat="44.224165532273794" lon="11.797542339687919"><ele>71.5</ele><time>2026-05-02T06:00:13.999Z</time></trkpt><trkpt lat="44.22417287517685" lon="11.797670230462709"><ele>72.0</ele><time>2026-05-02T06:00:16.999Z</time></trkpt><trkpt lat="44.22418336669935" lon="11.797789160571496"><ele>72.42857142857143</ele><time>2026-05-02T06:00:19.999Z</time></trkpt><trkpt lat="44.22419384740917" lon="11.797906710264717"><ele>72.85714285714286</ele><time>2026-05-02T06:00:22.999Z</time></trkpt><trkpt lat="44.22420646178495" lon="11.798009723297668"><ele>73.28571428571428</ele><time>2026-05-02T06:00:25.999Z</time></trkpt><trkpt lat="44.22421288400751" lon="11.79810685271769"><ele>73.71428571428572</ele><time>2026-05-02T06:00:28.999Z</time></trkpt><trkpt lat="44.22422755335114" lon="11.79819885450374"><ele>74.14285714285714</ele><time>2026-05-02T06:00:31.999Z</time></trkpt><trkpt lat="44.22424165559513" lon="11.798287238826594"><ele>74.57142857142857</ele><time>2026-05-02T06:00:35Z</time></trkpt><trkpt lat="44.22426796197658" lon="11.798397160932538"><ele>75.0</ele><time>2026-05-02T06:00:39Z</time></trkpt><trkpt lat="44.224289968640015" lon="11.798499396636954"><ele>76.28571428571428</ele><time>2026-05-02T06:00:43Z</time></trkpt><trkpt lat="44.22432379591867" lon="11.798596219923672"><ele>77.57142857142857</ele><time>2026-05-02T06:00:47Z</time></trkpt><trkpt lat="44.22435240051785" lon="11.798692533541011"><ele>78.85714285714286</ele><time>2026-05-02T06:00:51Z</time></trkpt><trkpt lat="44.224378211661275" lon="11.798791614250307"><ele>80.14285714285714</ele><time>2026-05-02T06:00:55Z</time></trkpt><trkpt lat="44.22440047146104" lon="11.798887143492651"><ele>81.42857142857143</ele><time>2026-05-02T06:00:59Z</time></trkpt><trkpt lat="44.224418664571594" lon="11.79898692340522"><ele>82.71428571428571</ele><time>2026-05-02T06:01:03Z</time></trkpt><trkpt lat="44.224433762891934" lon="11.799083581527693"><ele>84.0</ele><time>2026-05-02T06:01:07Z</time></trkpt><trkpt lat="44.22444034269907" lon="11.799187062715383"><ele>84.0</ele><time>2026-05-02T06:01:11Z</time></trkpt><trkpt lat="44.22444082645518" lon="11.799291726231345"><ele>84.0</ele><time>2026-05-02T06:01:15Z</time></trkpt><trkpt lat="44.22444020262101" lon="11.799391496654184"><ele>84.0</ele><time>2026-05-02T06:01:19Z</time></trkpt><trkpt lat="44.22444235008502" lon="11.799493238013058"><ele>84.0</ele><time>2026-05-02T06:01:23Z</time></trkpt><trkpt lat="44.22442978397989" lon="11.799591729289139"><ele>84.0</ele><time>2026-05-02T06:01:27Z</time></trkpt><trkpt lat="44.22441825804581" lon="11.799691231779278"><ele>84.0</ele><time>2026-05-02T06:01:31Z</time></trkpt><trkpt lat="44.224403213108125" lon="11.799789702679897"><ele>84.0</ele><time>2026-05-02T06:01:35Z</time></trkpt><trkpt lat="44.2243960051856" lon="11.799884848204986"><ele>84.42857142857143</ele><time>2026-05-02T06:01:39Z</time></trkpt><trkpt lat="44.22437293179332" lon="11.79997667937278"><ele>84.85714285714286</ele><time>2026-05-02T06:01:43Z</time></trkpt><trkpt lat="44.224362488124385" lon="11.800088999089382"><ele>85.28571428571428</ele><time>2026-05-02T06:01:48Z</time></trkpt><trkpt lat="44.22434311968123" lon="11.800175570824697"><ele>85.71428571428572</ele><time>2026-05-02T06:01:51.999Z</time></trkpt><trkpt lat="44.2243304993287" lon="11.800263610964901"><ele>86.14285714285714</ele><time>2026-05-02T06:01:55.999Z</time></trkpt><trkpt lat="44.22431846578661" lon="11.800352882828406"><ele>86.57142857142857</ele><time>2026-05-02T06:01:59.999Z</time></trkpt><trkpt lat="44.22430394830741" lon="11.800446916654542"><ele>87.0</ele><time>2026-05-02T06:02:03.999Z</time></trkpt><trkpt lat="44.22428613287357" lon="11.800540027277972"><ele>87.33333333333333</ele><time>2026-05-02T06:02:07.999Z</time></trkpt><trkpt lat="44.22427402002766" lon="11.800634388632634"><ele>87.66666666666667</ele><time>2026-05-02T06:02:11.999Z</time></trkpt><trkpt lat="44.22425988964162" lon="11.800731379207233"><ele>88.0</ele><time>2026-05-02T06:02:15.999Z</time></trkpt><trkpt lat="44.224247887279034" lon="11.800834100014878"><ele>88.33333333333334</ele><time>2026-05-02T06:02:19.999Z</time></trkpt><trkpt lat="44.224231313797205" lon="11.800939561731962"><ele>88.66666666666667</ele><time>2026-05-02T06:02:23.999Z</time></trkpt><trkpt lat="44.22422471749584" lon="11.801051215065883"><ele>89.0</ele><time>2026-05-02T06:02:27.999Z</time></trkpt><trkpt lat="44.224216172151614" lon="11.801160128841381"><ele>89.28571428571428</ele><time>2026-05-02T06:02:31.999Z</time></trkpt><trkpt lat="44.22420899081429" lon="11.801248147635663"><ele>89.57142857142857</ele><time>2026-05-02T06:02:34.999Z</time></trkpt><trkpt lat="44.22420091645246" lon="11.80134381002049"><ele>89.85714285714286</ele><time>2026-05-02T06:02:37.999Z</time></trkpt><trkpt lat="44.224198288597776" lon="11.801445724445687"><ele>90.14285714285714</ele><time>2026-05-02T06:02:41Z</time></trkpt><trkpt lat="44.2241992533663" lon="11.801555794567202"><ele>90.42857142857143</ele><time>2026-05-02T06:02:44Z</time></trkpt><trkpt lat="44.2242114406539" lon="11.801683715182445"><ele>90.71428571428571</ele><time>2026-05-02T06:02:47Z</time></trkpt><trkpt lat="44.22422528744168" lon="11.801780345311078"><ele>91.0</ele><time>2026-05-02T06:02:49Z</time></trkpt><trkpt lat="44.2242441916408" lon="11.801891970397248"><ele>91.0</ele><time>2026-05-02T06:02:51Z</time></trkpt><trkpt lat="44.22427328344872" lon="11.802011858290607"><ele>91.0</ele><time>2026-05-02T06:02:53Z</time></trkpt><trkpt lat="44.224319173820355" lon="11.802141839796993"><ele>91.0</ele><time>2026-05-02T06:02:55Z</time></trkpt><trkpt lat="44.22436782046397" lon="11.802291526892105"><ele>91.0</ele><time>2026-05-02T06:02:57Z</time></trkpt><trkpt lat="44.22439475212805" lon="11.802379543454288"><ele>91.0</ele><time>2026-05-02T06:02:58Z</time></trkpt><trkpt lat="44.22442363832214" lon="11.802468486563289"><ele>91.0</ele><time>2026-05-02T06:02:59Z</time></trkpt><trkpt lat="44.22445593605351" lon="11.802561053704492"><ele>91.0</ele><time>2026-05-02T06:03:00Z</time></trkpt><trkpt lat="44.2244888945067" lon="11.802659336912097"><ele>91.0</ele><time>2026-05-02T06:03:01Z</time></trkpt><trkpt lat="44.224523579018374" lon="11.802757582865363"><ele>91.0</ele><time>2026-05-02T06:03:02Z</time></trkpt><trkpt lat="44.2245605945318" lon="11.802862266135469"><ele>91.0</ele><time>2026-05-02T06:03:03Z</time></trkpt><trkpt lat="44.224600052549555" lon="11.802966673183926"><ele>91.0</ele><time>2026-05-02T06:03:04Z</time></trkpt><trkpt lat="44.224636112551146" lon="11.803080930024553"><ele>91.0</ele><time>2026-05-02T06:03:05Z</time></trkpt><trkpt lat="44.22467428867805" lon="11.803195611618381"><ele>91.0</ele><time>2026-05-02T06:03:06Z</time></trkpt><trkpt lat="44.224714644670414" lon="11.803312658298122"><ele>91.0</ele><time>2026-05-02T06:03:07Z</time></trkpt><trkpt lat="44.22475449155057" lon="11.80343074730696"><ele>91.0</ele><time>2026-05-02T06:03:08Z</time></trkpt><trkpt lat="44.22479749648705" lon="11.803544561032195"><ele>91.0</ele><time>2026-05-02T06:03:09Z</time></trkpt><trkpt lat="44.22483661882788" lon="11.80366394866105"><ele>88.6</ele><time>2026-05-02T06:03:10Z</time></trkpt><trkpt lat="44.224875287463625" lon="11.803783451570188"><ele>86.19999999999999</ele><time>2026-05-02T06:03:11Z</time></trkpt><trkpt lat="44.22491622888261" lon="11.80389855274194"><ele>83.80000000000001</ele><time>2026-05-02T06:03:12Z</time></trkpt><trkpt lat="44.224960149363085" lon="11.804008435169163"><ele>81.4</ele><time>2026-05-02T06:03:13Z</time></trkpt><trkpt lat="44.22500602875985" lon="11.80413221798841"><ele>79.0</ele><time>2026-05-02T06:03:14Z</time></trkpt><trkpt lat="44.22505764260704" lon="11.804239003079836"><ele>78.60000000000001</ele><time>2026-05-02T06:03:15Z</time></trkpt><trkpt lat="44.225108376772226" lon="11.80435377715571"><ele>78.2</ele><time>2026-05-02T06:03:16Z</time></trkpt><trkpt lat="44.22515516855206" lon="11.804467239091142"><ele>77.80000000000001</ele><time>2026-05-02T06:03:17Z</time></trkpt><trkpt lat="44.22520384386415" lon="11.8045809124274"><ele>77.4</ele><time>2026-05-02T06:03:18Z</time></trkpt><trkpt lat="44.22525637588619" lon="11.804693508989116"><ele>77.0</ele><time>2026-05-02T06:03:19Z</time></trkpt><trkpt lat="44.225299993956426" lon="11.804822157596902"><ele>77.0</ele><time>2026-05-02T06:03:20Z</time></trkpt><trkpt lat="44.22535104897586" lon="11.804934122728179"><ele>77.0</ele><time>2026-05-02T06:03:21Z</time></trkpt><trkpt lat="44.22539854084664" lon="11.80504607886916"><ele>77.0</ele><time>2026-05-02T06:03:22Z</time></trkpt><trkpt lat="44.22544952497816" lon="11.805161960397966"><ele>77.0</ele><time>2026-05-02T06:03:23Z</time></trkpt><trkpt lat="44.22549352440038" lon="11.80527289283986"><ele>77.0</ele><time>2026-05-02T06:03:24Z</time></trkpt><trkpt lat="44.22553819889732" lon="11.805387157214874"><ele>77.4</ele><time>2026-05-02T06:03:25Z</time></trkpt><trkpt lat="44.22559133915897" lon="11.805502398314342"><ele>77.80000000000001</ele><time>2026-05-02T06:03:26Z</time></trkpt><trkpt lat="44.225636573304804" lon="11.80561566600696"><ele>78.2</ele><time>2026-05-02T06:03:27Z</time></trkpt><trkpt lat="44.22568312945775" lon="11.805728284812535"><ele>78.60000000000001</ele><time>2026-05-02T06:03:28Z</time></trkpt><trkpt lat="44.22573061122506" lon="11.805841649143538"><ele>79.0</ele><time>2026-05-02T06:03:29Z</time></trkpt><trkpt lat="44.22577928782596" lon="11.80595478932339"><ele>77.4</ele><time>2026-05-02T06:03:30Z</time></trkpt><trkpt lat="44.225828145300035" lon="11.806064799409018"><ele>75.80000000000001</ele><time>2026-05-02T06:03:31Z</time></trkpt><trkpt lat="44.225877980584215" lon="11.806174055959772"><ele>74.19999999999999</ele><time>2026-05-02T06:03:32Z</time></trkpt><trkpt lat="44.22592319448906" lon="11.806285139832681"><ele>72.6</ele><time>2026-05-02T06:03:33Z</time></trkpt><trkpt lat="44.22596918951248" lon="11.806394907645256"><ele>71.0</ele><time>2026-05-02T06:03:34Z</time></trkpt><trkpt lat="44.22601724041927" lon="11.806501574075877"><ele>71.0</ele><time>2026-05-02T06:03:35Z</time></trkpt><trkpt lat="44.226063685840806" lon="11.806604550745044"><ele>71.0</ele><time>2026-05-02T06:03:36Z</time></trkpt><trkpt lat="44.226105139931896" lon="11.806704784815173"><ele>71.0</ele><time>2026-05-02T06:03:37Z</time></trkpt><trkpt lat="44.2261463680828" lon="11.806807764414025"><ele>71.0</ele><time>2026-05-02T06:03:38Z</time></trkpt><trkpt lat="44.22618965864456" lon="11.80690194338695"><ele>71.0</ele><time>2026-05-02T06:03:39Z</time></trkpt><trkpt lat="44.226227009842574" lon="11.80698933654719"><ele>71.0</ele><time>2026-05-02T06:03:40Z</time></trkpt><trkpt lat="44.22626324255182" lon="11.80707810025661"><ele>72.39999999999999</ele><time>2026-05-02T06:03:41Z</time></trkpt><trkpt lat="44.22629666861473" lon="11.807161939837055"><ele>73.8</ele><time>2026-05-02T06:03:42Z</time></trkpt><trkpt lat="44.2263251529265" lon="11.807244992790514"><ele>75.19999999999999</ele><time>2026-05-02T06:03:43Z</time></trkpt><trkpt lat="44.22637279360276" lon="11.807402307713694"><ele>76.6</ele><time>2026-05-02T06:03:45Z</time></trkpt><trkpt lat="44.2264135109107" lon="11.807559400915519"><ele>78.0</ele><time>2026-05-02T06:03:47Z</time></trkpt><trkpt lat="44.22644494741213" lon="11.807703620687043"><ele>76.66666666666667</ele><time>2026-05-02T06:03:49Z</time></trkpt><trkpt lat="44.22647193036723" lon="11.807840333570674"><ele>75.33333333333333</ele><time>2026-05-02T06:03:51Z</time></trkpt><trkpt lat="44.22649453046395" lon="11.807960454244347"><ele>74.0</ele><time>2026-05-02T06:03:53Z</time></trkpt><trkpt lat="44.226516299604874" lon="11.808064324617257"><ele>72.66666666666666</ele><time>2026-05-02T06:03:54.999Z</time></trkpt><trkpt lat="44.226534065691936" lon="11.808182285494699"><ele>71.33333333333333</ele><time>2026-05-02T06:03:57.999Z</time></trkpt><trkpt lat="44.22654719411767" lon="11.808276737606448"><ele>70.0</ele><time>2026-05-02T06:04:00.999Z</time></trkpt><trkpt lat="44.22656582146618" lon="11.808363807257448"><ele>70.0</ele><time>2026-05-02T06:04:03.999Z</time></trkpt><trkpt lat="44.22659081155415" lon="11.808468040406625"><ele>70.0</ele><time>2026-05-02T06:04:07.999Z</time></trkpt><trkpt lat="44.22660968521679" lon="11.808553252560818"><ele>70.0</ele><time>2026-05-02T06:04:10.999Z</time></trkpt><trkpt lat="44.22662757578026" lon="11.808660330871643"><ele>70.0</ele><time>2026-05-02T06:04:14.999Z</time></trkpt><trkpt lat="44.22664485327486" lon="11.808761481971782"><ele>70.0</ele><time>2026-05-02T06:04:18.999Z</time></trkpt><trkpt lat="44.226670877491046" lon="11.808858646020987"><ele>70.0</ele><time>2026-05-02T06:04:22.999Z</time></trkpt><trkpt lat="44.22669428306001" lon="11.808967382366484"><ele>70.85714285714286</ele><time>2026-05-02T06:04:26.999Z</time></trkpt><trkpt lat="44.226711698061116" lon="11.809067598273439"><ele>71.71428571428572</ele><time>2026-05-02T06:04:30.999Z</time></trkpt><trkpt lat="44.22672647948022" lon="11.809171912142514"><ele>72.57142857142857</ele><time>2026-05-02T06:04:34.999Z</time></trkpt><trkpt lat="44.22675182773719" lon="11.80926734631402"><ele>73.42857142857143</ele><time>2026-05-02T06:04:38.999Z</time></trkpt><trkpt lat="44.22676531478203" lon="11.809368017301743"><ele>74.28571428571429</ele><time>2026-05-02T06:04:42.999Z</time></trkpt><trkpt lat="44.226786781436545" lon="11.809463449595478"><ele>75.14285714285714</ele><time>2026-05-02T06:04:47Z</time></trkpt><trkpt lat="44.226814297727074" lon="11.80954646371544"><ele>76.0</ele><time>2026-05-02T06:04:51Z</time></trkpt><trkpt lat="44.22685954550942" lon="11.809621578987306"><ele>77.28571428571428</ele><time>2026-05-02T06:04:55Z</time></trkpt><trkpt lat="44.226905426014945" lon="11.809696542094795"><ele>78.57142857142858</ele><time>2026-05-02T06:04:59Z</time></trkpt><trkpt lat="44.226970954931865" lon="11.809750081981539"><ele>79.85714285714286</ele><time>2026-05-02T06:05:03Z</time></trkpt><trkpt lat="44.227027769282536" lon="11.809806440832137"><ele>81.14285714285714</ele><time>2026-05-02T06:05:07Z</time></trkpt><trkpt lat="44.227084752697415" lon="11.809864261727096"><ele>82.42857142857142</ele><time>2026-05-02T06:05:11Z</time></trkpt><trkpt lat="44.22713413125544" lon="11.809925449860549"><ele>83.71428571428572</ele><time>2026-05-02T06:05:15Z</time></trkpt><trkpt lat="44.22718189788615" lon="11.80999192319941"><ele>85.0</ele><time>2026-05-02T06:05:19Z</time></trkpt><trkpt lat="44.227234716110175" lon="11.810063078957583"><ele>85.0</ele><time>2026-05-02T06:05:23Z</time></trkpt><trkpt lat="44.227283423324565" lon="11.810135151688412"><ele>85.0</ele><time>2026-05-02T06:05:27Z</time></trkpt><trkpt lat="44.22732905700625" lon="11.810214103392193"><ele>85.0</ele><time>2026-05-02T06:05:31Z</time></trkpt><trkpt lat="44.22737195405815" lon="11.810294340835595"><ele>85.0</ele><time>2026-05-02T06:05:35Z</time></trkpt><trkpt lat="44.227414367652685" lon="11.81037078591826"><ele>85.0</ele><time>2026-05-02T06:05:39Z</time></trkpt><trkpt lat="44.22745442123497" lon="11.81044774668796"><ele>85.0</ele><time>2026-05-02T06:05:43Z</time></trkpt><trkpt lat="44.22749878175431" lon="11.810522292821354"><ele>85.0</ele><time>2026-05-02T06:05:47Z</time></trkpt><trkpt lat="44.22755188626811" lon="11.810587010719287"><ele>86.33333333333333</ele><time>2026-05-02T06:05:51Z</time></trkpt><trkpt lat="44.227611135559336" lon="11.810658644520052"><ele>87.66666666666666</ele><time>2026-05-02T06:05:55Z</time></trkpt><trkpt lat="44.22767307107835" lon="11.810719696584552"><ele>89.0</ele><time>2026-05-02T06:05:58.999Z</time></trkpt><trkpt lat="44.22774194786221" lon="11.810783663435782"><ele>90.33333333333333</ele><time>2026-05-02T06:06:02.999Z</time></trkpt><trkpt lat="44.22780647169201" lon="11.810849005010693"><ele>91.66666666666667</ele><time>2026-05-02T06:06:06.999Z</time></trkpt><trkpt lat="44.227862228671626" lon="11.810901747537079"><ele>93.0</ele><time>2026-05-02T06:06:09.999Z</time></trkpt><trkpt lat="44.227926625815435" lon="11.810953681422603"><ele>92.66666666666667</ele><time>2026-05-02T06:06:12.999Z</time></trkpt><trkpt lat="44.22799804706678" lon="11.811016223630213"><ele>92.33333333333333</ele><time>2026-05-02T06:06:15.999Z</time></trkpt><trkpt lat="44.228070648862044" lon="11.811089790498956"><ele>92.0</ele><time>2026-05-02T06:06:18.999Z</time></trkpt><trkpt lat="44.22812512507581" lon="11.8111343126154"><ele>91.66666666666666</ele><time>2026-05-02T06:06:20.999Z</time></trkpt><trkpt lat="44.22818350905007" lon="11.811186779823451"><ele>91.33333333333333</ele><time>2026-05-02T06:06:22.999Z</time></trkpt><trkpt lat="44.22824298734337" lon="11.811242447528114"><ele>91.0</ele><time>2026-05-02T06:06:24.999Z</time></trkpt><trkpt lat="44.22830174158173" lon="11.811303078288121"><ele>91.0</ele><time>2026-05-02T06:06:26.999Z</time></trkpt><trkpt lat="44.22837003521007" lon="11.81135840023933"><ele>91.0</ele><time>2026-05-02T06:06:28.999Z</time></trkpt><trkpt lat="44.22843803840396" lon="11.81142213803618"><ele>91.0</ele><time>2026-05-02T06:06:30.999Z</time></trkpt><trkpt lat="44.22850993818155" lon="11.811483788817801"><ele>91.0</ele><time>2026-05-02T06:06:32.999Z</time></trkpt><trkpt lat="44.22858091275021" lon="11.811540467099285"><ele>91.0</ele><time>2026-05-02T06:06:34.999Z</time></trkpt><trkpt lat="44.22865967056491" lon="11.81159943592904"><ele>91.0</ele><time>2026-05-02T06:06:36.999Z</time></trkpt><trkpt lat="44.22873353795049" lon="11.811660950720322"><ele>91.0</ele><time>2026-05-02T06:06:38.999Z</time></trkpt><trkpt lat="44.22880891638762" lon="11.81171331918935"><ele>91.0</ele><time>2026-05-02T06:06:40.999Z</time></trkpt><trkpt lat="44.22888097846525" lon="11.811764220483829"><ele>91.0</ele><time>2026-05-02T06:06:42.999Z</time></trkpt><trkpt lat="44.22895728767213" lon="11.811814346031179"><ele>91.0</ele><time>2026-05-02T06:06:44.999Z</time></trkpt><trkpt lat="44.22903637969562" lon="11.81186709499815"><ele>91.0</ele><time>2026-05-02T06:06:46.999Z</time></trkpt><trkpt lat="44.2291193342968" lon="11.81191477119524"><ele>91.0</ele><time>2026-05-02T06:06:48.999Z</time></trkpt><trkpt lat="44.22920559685385" lon="11.81197359200428"><ele>90.4</ele><time>2026-05-02T06:06:50.999Z</time></trkpt><trkpt lat="44.2292934334746" lon="11.812028902519137"><ele>89.8</ele><time>2026-05-02T06:06:53Z</time></trkpt><trkpt lat="44.22937732979137" lon="11.812091485906327"><ele>89.2</ele><time>2026-05-02T06:06:55Z</time></trkpt><trkpt lat="44.22946586180195" lon="11.812152702022415"><ele>88.60000000000001</ele><time>2026-05-02T06:06:57Z</time></trkpt><trkpt lat="44.22955239491606" lon="11.812223875497477"><ele>88.0</ele><time>2026-05-02T06:06:59Z</time></trkpt><trkpt lat="44.22964069389698" lon="11.812293618683476"><ele>88.0</ele><time>2026-05-02T06:07:01Z</time></trkpt><trkpt lat="44.22972613008298" lon="11.812375599552913"><ele>88.0</ele><time>2026-05-02T06:07:03Z</time></trkpt><trkpt lat="44.22980791052247" lon="11.812460542223059"><ele>88.0</ele><time>2026-05-02T06:07:05Z</time></trkpt><trkpt lat="44.22988736587576" lon="11.812556078150063"><ele>88.0</ele><time>2026-05-02T06:07:07Z</time></trkpt><trkpt lat="44.22996720545619" lon="11.812654223918967"><ele>88.0</ele><time>2026-05-02T06:07:09Z</time></trkpt><trkpt lat="44.230049552758636" lon="11.812748679851028"><ele>88.25</ele><time>2026-05-02T06:07:11Z</time></trkpt><trkpt lat="44.230128169776805" lon="11.812859573623154"><ele>88.5</ele><time>2026-05-02T06:07:13Z</time></trkpt><trkpt lat="44.23022281699933" lon="11.812952556578228"><ele>88.75</ele><time>2026-05-02T06:07:15Z</time></trkpt><trkpt lat="44.23030765794807" lon="11.813059899924092"><ele>89.0</ele><time>2026-05-02T06:07:17Z</time></trkpt><trkpt lat="44.23039716500538" lon="11.813166764392866"><ele>89.0</ele><time>2026-05-02T06:07:19Z</time></trkpt><trkpt lat="44.23048788172261" lon="11.813270227904946"><ele>89.0</ele><time>2026-05-02T06:07:21Z</time></trkpt><trkpt lat="44.23057512786497" lon="11.81337932955357"><ele>89.0</ele><time>2026-05-02T06:07:23Z</time></trkpt><trkpt lat="44.2306680713751" lon="11.813489958628814"><ele>89.0</ele><time>2026-05-02T06:07:25Z</time></trkpt><trkpt lat="44.23075975168213" lon="11.813604075142454"><ele>89.16666666666667</ele><time>2026-05-02T06:07:27Z</time></trkpt><trkpt lat="44.23080489959694" lon="11.813667573969186"><ele>89.33333333333334</ele><time>2026-05-02T06:07:28Z</time></trkpt><trkpt lat="44.230882108552144" lon="11.813802951341504"><ele>89.5</ele><time>2026-05-02T06:07:30Z</time></trkpt><trkpt lat="44.230914888913766" lon="11.813939534101987"><ele>89.66666666666667</ele><time>2026-05-02T06:07:32Z</time></trkpt><trkpt lat="44.23093572532125" lon="11.814037259421736"><ele>89.83333333333333</ele><time>2026-05-02T06:07:34Z</time></trkpt><trkpt lat="44.23096039095157" lon="11.814137854305748"><ele>90.0</ele><time>2026-05-02T06:07:37Z</time></trkpt><trkpt lat="44.23099083797797" lon="11.814234484164448"><ele>90.71428571428571</ele><time>2026-05-02T06:07:41Z</time></trkpt><trkpt lat="44.23101905023661" lon="11.814329617092888"><ele>91.42857142857143</ele><time>2026-05-02T06:07:45Z</time></trkpt><trkpt lat="44.23104671705161" lon="11.81440905255512"><ele>92.14285714285714</ele><time>2026-05-02T06:07:49Z</time></trkpt><trkpt lat="44.23108559770299" lon="11.814487174308294"><ele>92.85714285714286</ele><time>2026-05-02T06:07:53Z</time></trkpt><trkpt lat="44.23113682481977" lon="11.814573884196319"><ele>93.57142857142858</ele><time>2026-05-02T06:07:58Z</time></trkpt><trkpt lat="44.23118190817715" lon="11.814643320719322"><ele>94.28571428571429</ele><time>2026-05-02T06:08:01.999Z</time></trkpt><trkpt lat="44.23122917957117" lon="11.814703846991293"><ele>95.0</ele><time>2026-05-02T06:08:05.999Z</time></trkpt><trkpt lat="44.23127473568575" lon="11.814764740774137"><ele>95.0</ele><time>2026-05-02T06:08:09.999Z</time></trkpt><trkpt lat="44.23131831948678" lon="11.814833182868941"><ele>95.0</ele><time>2026-05-02T06:08:13.999Z</time></trkpt><trkpt lat="44.23135671827171" lon="11.814916899506445"><ele>95.0</ele><time>2026-05-02T06:08:17.999Z</time></trkpt><trkpt lat="44.23136368881754" lon="11.815027197715992"><ele>95.0</ele><time>2026-05-02T06:08:22.999Z</time></trkpt><trkpt lat="44.231310208365066" lon="11.815101661669386"><ele>95.0</ele><time>2026-05-02T06:08:26.999Z</time></trkpt><trkpt lat="44.23126431502923" lon="11.815181543215154"><ele>95.0</ele><time>2026-05-02T06:08:30.999Z</time></trkpt><trkpt lat="44.23121931162549" lon="11.815264063484314"><ele>95.0</ele><time>2026-05-02T06:08:34.999Z</time></trkpt><trkpt lat="44.23116210402107" lon="11.815336075807744"><ele>95.33333333333334</ele><time>2026-05-02T06:08:38.999Z</time></trkpt><trkpt lat="44.23110920157343" lon="11.815413463409515"><ele>95.66666666666667</ele><time>2026-05-02T06:08:42.999Z</time></trkpt><trkpt lat="44.231057807712425" lon="11.815499734676306"><ele>96.0</ele><time>2026-05-02T06:08:46.999Z</time></trkpt><trkpt lat="44.23100491117818" lon="11.81559211001069"><ele>96.33333333333334</ele><time>2026-05-02T06:08:50.999Z</time></trkpt><trkpt lat="44.230949551881885" lon="11.815677706564744"><ele>96.66666666666667</ele><time>2026-05-02T06:08:54.999Z</time></trkpt><trkpt lat="44.23090677380347" lon="11.81574863748377"><ele>97.0</ele><time>2026-05-02T06:08:58Z</time></trkpt><trkpt lat="44.23086322594298" lon="11.815815876373074"><ele>97.0</ele><time>2026-05-02T06:09:01Z</time></trkpt><trkpt lat="44.23082404480108" lon="11.81589139844194"><ele>97.0</ele><time>2026-05-02T06:09:04Z</time></trkpt><trkpt lat="44.23078495452028" lon="11.815968037023588"><ele>97.0</ele><time>2026-05-02T06:09:07Z</time></trkpt><trkpt lat="44.23074180491347" lon="11.816044244040876"><ele>97.0</ele><time>2026-05-02T06:09:10Z</time></trkpt><trkpt lat="44.23070109518868" lon="11.816122929498016"><ele>97.0</ele><time>2026-05-02T06:09:13Z</time></trkpt><trkpt lat="44.23065588353009" lon="11.816193325107632"><ele>97.0</ele><time>2026-05-02T06:09:16Z</time></trkpt><trkpt lat="44.230618284889395" lon="11.816267976225793"><ele>97.0</ele><time>2026-05-02T06:09:19Z</time></trkpt><trkpt lat="44.23058833833755" lon="11.816349170884033"><ele>97.71428571428571</ele><time>2026-05-02T06:09:22Z</time></trkpt><trkpt lat="44.230555457896095" lon="11.816432795917244"><ele>98.42857142857143</ele><time>2026-05-02T06:09:25Z</time></trkpt><trkpt lat="44.23051736392804" lon="11.816512596272117"><ele>99.14285714285714</ele><time>2026-05-02T06:09:28Z</time></trkpt><trkpt lat="44.23048350902126" lon="11.816590869082361"><ele>99.85714285714286</ele><time>2026-05-02T06:09:31Z</time></trkpt><trkpt lat="44.23044961193141" lon="11.816667207526137"><ele>100.57142857142858</ele><time>2026-05-02T06:09:34Z</time></trkpt><trkpt lat="44.23041768229203" lon="11.816746181540415"><ele>101.28571428571429</ele><time>2026-05-02T06:09:37Z</time></trkpt><trkpt lat="44.230379601914805" lon="11.816826910343343"><ele>102.0</ele><time>2026-05-02T06:09:40Z</time></trkpt><trkpt lat="44.23034863592391" lon="11.81690973211992"><ele>102.28571428571429</ele><time>2026-05-02T06:09:43Z</time></trkpt><trkpt lat="44.230317226179466" lon="11.817001336265136"><ele>102.57142857142858</ele><time>2026-05-02T06:09:46Z</time></trkpt><trkpt lat="44.23027735850625" lon="11.817082960972105"><ele>102.85714285714286</ele><time>2026-05-02T06:09:49Z</time></trkpt><trkpt lat="44.2302441635075" lon="11.817166907278988"><ele>103.14285714285714</ele><time>2026-05-02T06:09:52Z</time></trkpt><trkpt lat="44.23020553327819" lon="11.817248437269008"><ele>103.42857142857143</ele><time>2026-05-02T06:09:55Z</time></trkpt><trkpt lat="44.230176815563546" lon="11.817343271914341"><ele>103.71428571428571</ele><time>2026-05-02T06:09:58Z</time></trkpt><trkpt lat="44.23014968310814" lon="11.817460125407795"><ele>104.0</ele><time>2026-05-02T06:10:01Z</time></trkpt><trkpt lat="44.230121347185786" lon="11.817586958949898"><ele>104.28571428571428</ele><time>2026-05-02T06:10:04Z</time></trkpt><trkpt lat="44.230110326905525" lon="11.81767563043634"><ele>104.57142857142858</ele><time>2026-05-02T06:10:06Z</time></trkpt><trkpt lat="44.23010498301314" lon="11.817769487785087"><ele>104.85714285714286</ele><time>2026-05-02T06:10:08Z</time></trkpt><trkpt lat="44.230119394638" lon="11.817867700088186"><ele>105.14285714285714</ele><time>2026-05-02T06:10:10Z</time></trkpt><trkpt lat="44.230148495493566" lon="11.817967305504451"><ele>105.42857142857142</ele><time>2026-05-02T06:10:12Z</time></trkpt><trkpt lat="44.23019726134478" lon="11.818046990273867"><ele>105.71428571428572</ele><time>2026-05-02T06:10:14Z</time></trkpt><trkpt lat="44.23026169078213" lon="11.818115908945321"><ele>106.0</ele><time>2026-05-02T06:10:16Z</time></trkpt><trkpt lat="44.23033180759134" lon="11.818185051310063"><ele>106.00000000000001</ele><time>2026-05-02T06:10:17.999Z</time></trkpt><trkpt lat="44.23040311454202" lon="11.818256622574909"><ele>106.0</ele><time>2026-05-02T06:10:19.999Z</time></trkpt><trkpt lat="44.23047412597392" lon="11.818325566799372"><ele>106.0</ele><time>2026-05-02T06:10:21.999Z</time></trkpt><trkpt lat="44.23053363351718" lon="11.818397701627676"><ele>106.0</ele><time>2026-05-02T06:10:23.999Z</time></trkpt><trkpt lat="44.23059005307541" lon="11.818459357185606"><ele>106.00000000000001</ele><time>2026-05-02T06:10:25.999Z</time></trkpt><trkpt lat="44.23065688154606" lon="11.818544111943403"><ele>106.0</ele><time>2026-05-02T06:10:28.999Z</time></trkpt><trkpt lat="44.23071566128325" lon="11.818627802554815"><ele>106.00000000000001</ele><time>2026-05-02T06:10:31.999Z</time></trkpt><trkpt lat="44.23077093975139" lon="11.818708730104474"><ele>106.0</ele><time>2026-05-02T06:10:34.999Z</time></trkpt><trkpt lat="44.2308258072625" lon="11.81879365646512"><ele>106.0</ele><time>2026-05-02T06:10:37.999Z</time></trkpt><trkpt lat="44.23086493909569" lon="11.818895785685278"><ele>106.0</ele><time>2026-05-02T06:10:40.999Z</time></trkpt><trkpt lat="44.230885604238814" lon="11.819006229341573"><ele>106.00000000000001</ele><time>2026-05-02T06:10:43.999Z</time></trkpt><trkpt lat="44.23087130383699" lon="11.81911403135799"><ele>106.0</ele><time>2026-05-02T06:10:46.999Z</time></trkpt><trkpt lat="44.230841126983904" lon="11.819201956990412"><ele>106.0</ele><time>2026-05-02T06:10:49.999Z</time></trkpt><trkpt lat="44.23079520436005" lon="11.819291366737625"><ele>106.0</ele><time>2026-05-02T06:10:53.999Z</time></trkpt><trkpt lat="44.23074785235162" lon="11.819363052301439"><ele>106.0</ele><time>2026-05-02T06:10:57.999Z</time></trkpt><trkpt lat="44.230703025732694" lon="11.819425323630112"><ele>106.0</ele><time>2026-05-02T06:11:01.999Z</time></trkpt><trkpt lat="44.23065061898178" lon="11.819504560638139"><ele>106.0</ele><time>2026-05-02T06:11:07Z</time></trkpt><trkpt lat="44.230609474029116" lon="11.819575373416283"><ele>106.0</ele><time>2026-05-02T06:11:11Z</time></trkpt><trkpt lat="44.230556090154245" lon="11.819654528778932"><ele>106.0</ele><time>2026-05-02T06:11:16Z</time></trkpt><trkpt lat="44.230512454193914" lon="11.819728905972145"><ele>107.14285714285714</ele><time>2026-05-02T06:11:21Z</time></trkpt><trkpt lat="44.23045755134175" lon="11.819791155575343"><ele>108.28571428571428</ele><time>2026-05-02T06:11:26Z</time></trkpt><trkpt lat="44.23041581360736" lon="11.81986166823512"><ele>109.42857142857142</ele><time>2026-05-02T06:11:31Z</time></trkpt><trkpt lat="44.23036529206198" lon="11.819933989542388"><ele>110.57142857142857</ele><time>2026-05-02T06:11:36Z</time></trkpt><trkpt lat="44.230323299636105" lon="11.820004618791373"><ele>111.7142857142857</ele><time>2026-05-02T06:11:41Z</time></trkpt><trkpt lat="44.23028756577679" lon="11.820085091209666"><ele>112.85714285714285</ele><time>2026-05-02T06:11:46Z</time></trkpt><trkpt lat="44.23023907619556" lon="11.820145080174992"><ele>114.0</ele><time>2026-05-02T06:11:51Z</time></trkpt><trkpt lat="44.230192096351416" lon="11.820219162466946"><ele>115.14285714285714</ele><time>2026-05-02T06:11:56Z</time></trkpt><trkpt lat="44.23015459749084" lon="11.820305965470114"><ele>116.28571428571428</ele><time>2026-05-02T06:12:01Z</time></trkpt><trkpt lat="44.23011712343734" lon="11.820387688128099"><ele>117.42857142857142</ele><time>2026-05-02T06:12:06Z</time></trkpt><trkpt lat="44.23007321809" lon="11.820466066737131"><ele>118.57142857142856</ele><time>2026-05-02T06:12:11Z</time></trkpt><trkpt lat="44.23004099685056" lon="11.820549164006458"><ele>119.71428571428571</ele><time>2026-05-02T06:12:16Z</time></trkpt><trkpt lat="44.230029200930325" lon="11.820636320531385"><ele>120.85714285714283</ele><time>2026-05-02T06:12:21Z</time></trkpt><trkpt lat="44.23003854131257" lon="11.820725476636973"><ele>121.99999999999999</ele><time>2026-05-02T06:12:25.999Z</time></trkpt><trkpt lat="44.23007847250921" lon="11.82080608443171"><ele>121.99999999999999</ele><time>2026-05-02T06:12:30.999Z</time></trkpt><trkpt lat="44.230135925069426" lon="11.820866931650146"><ele>122.0</ele><time>2026-05-02T06:12:35.999Z</time></trkpt><trkpt lat="44.23020207049765" lon="11.82090596389509"><ele>121.99999999999999</ele><time>2026-05-02T06:12:40.999Z</time></trkpt><trkpt lat="44.230271308312005" lon="11.820946148251886"><ele>121.99999999999999</ele><time>2026-05-02T06:12:45.999Z</time></trkpt><trkpt lat="44.23034563434937" lon="11.820970799087592"><ele>122.0</ele><time>2026-05-02T06:12:50.999Z</time></trkpt><trkpt lat="44.23041172419793" lon="11.821003721652916"><ele>121.99999999999999</ele><time>2026-05-02T06:12:55.999Z</time></trkpt><trkpt lat="44.23046790114717" lon="11.821049213900297"><ele>121.99999999999999</ele><time>2026-05-02T06:13:00.999Z</time></trkpt><trkpt lat="44.23052087711901" lon="11.821099790734792"><ele>122.7142857142857</ele><time>2026-05-02T06:13:05.999Z</time></trkpt><trkpt lat="44.23057151060816" lon="11.821165133409975"><ele>123.42857142857142</ele><time>2026-05-02T06:13:11Z</time></trkpt><trkpt lat="44.23062295892647" lon="11.821225552214152"><ele>124.14285714285714</ele><time>2026-05-02T06:13:16Z</time></trkpt><trkpt lat="44.23067560196042" lon="11.821306245136606"><ele>124.85714285714285</ele><time>2026-05-02T06:13:21Z</time></trkpt><trkpt lat="44.23071795023893" lon="11.821391657960513"><ele>125.57142857142856</ele><time>2026-05-02T06:13:26Z</time></trkpt><trkpt lat="44.230754010608166" lon="11.821482247674904"><ele>126.28571428571429</ele><time>2026-05-02T06:13:31Z</time></trkpt><trkpt lat="44.23076751903791" lon="11.821579517935266"><ele>127.0</ele><time>2026-05-02T06:13:36Z</time></trkpt><trkpt lat="44.23075524127994" lon="11.821674815896206"><ele>127.0</ele><time>2026-05-02T06:13:41Z</time></trkpt><trkpt lat="44.23074362774481" lon="11.821774625216461"><ele>127.0</ele><time>2026-05-02T06:13:46Z</time></trkpt><trkpt lat="44.23071948666768" lon="11.821872316522702"><ele>127.0</ele><time>2026-05-02T06:13:51Z</time></trkpt><trkpt lat="44.23068976363783" lon="11.821968077537399"><ele>127.0</ele><time>2026-05-02T06:13:56Z</time></trkpt><trkpt lat="44.23065468260435" lon="11.822060369834688"><ele>127.0</ele><time>2026-05-02T06:14:01Z</time></trkpt><trkpt lat="44.23061016575473" lon="11.822141379286663"><ele>127.0</ele><time>2026-05-02T06:14:06Z</time></trkpt><trkpt lat="44.23056032620504" lon="11.822209828382242"><ele>127.0</ele><time>2026-05-02T06:14:11Z</time></trkpt><trkpt lat="44.230513764734035" lon="11.82229019598278"><ele>129.14285714285714</ele><time>2026-05-02T06:14:16Z</time></trkpt><trkpt lat="44.230464190353864" lon="11.82236627984333"><ele>131.28571428571428</ele><time>2026-05-02T06:14:21Z</time></trkpt><trkpt lat="44.23041229206773" lon="11.82243528697258"><ele>133.42857142857142</ele><time>2026-05-02T06:14:25.999Z</time></trkpt><trkpt lat="44.230370557924765" lon="11.82251367152773"><ele>135.57142857142856</ele><time>2026-05-02T06:14:30.999Z</time></trkpt><trkpt lat="44.2303255099471" lon="11.822580466016117"><ele>137.7142857142857</ele><time>2026-05-02T06:14:35.999Z</time></trkpt><trkpt lat="44.230281611631376" lon="11.822646262613128"><ele>139.85714285714286</ele><time>2026-05-02T06:14:40.999Z</time></trkpt><trkpt lat="44.23024927000589" lon="11.82272439980713"><ele>142.0</ele><time>2026-05-02T06:14:45.999Z</time></trkpt><trkpt lat="44.23019520047847" lon="11.822774699207494"><ele>142.85714285714286</ele><time>2026-05-02T06:14:50.999Z</time></trkpt><trkpt lat="44.230160285438025" lon="11.82284999812387"><ele>143.7142857142857</ele><time>2026-05-02T06:14:55.999Z</time></trkpt><trkpt lat="44.23014462460852" lon="11.822938369380966"><ele>144.57142857142856</ele><time>2026-05-02T06:15:00.999Z</time></trkpt><trkpt lat="44.23012580022258" lon="11.823031686112683"><ele>145.42857142857142</ele><time>2026-05-02T06:15:05.999Z</time></trkpt><trkpt lat="44.2301189551987" lon="11.823124681312073"><ele>146.28571428571428</ele><time>2026-05-02T06:15:10.999Z</time></trkpt><trkpt lat="44.23014195063708" lon="11.823216300163095"><ele>147.14285714285714</ele><time>2026-05-02T06:15:16Z</time></trkpt><trkpt lat="44.23016243457111" lon="11.823314735736018"><ele>148.0</ele><time>2026-05-02T06:15:21Z</time></trkpt><trkpt lat="44.230178294592335" lon="11.823409911020725"><ele>148.42857142857144</ele><time>2026-05-02T06:15:26Z</time></trkpt><trkpt lat="44.230191398833085" lon="11.823505650578829"><ele>148.85714285714286</ele><time>2026-05-02T06:15:31Z</time></trkpt><trkpt lat="44.230197463340396" lon="11.823602682901848"><ele>149.28571428571428</ele><time>2026-05-02T06:15:36Z</time></trkpt><trkpt lat="44.23018865083278" lon="11.823697960000635"><ele>149.71428571428572</ele><time>2026-05-02T06:15:41Z</time></trkpt><trkpt lat="44.23017417274972" lon="11.823791743421998"><ele>150.14285714285714</ele><time>2026-05-02T06:15:46Z</time></trkpt><trkpt lat="44.23015292619447" lon="11.823881521871524"><ele>150.57142857142858</ele><time>2026-05-02T06:15:51Z</time></trkpt><trkpt lat="44.230119369951815" lon="11.823960423967781"><ele>151.0</ele><time>2026-05-02T06:15:56Z</time></trkpt><trkpt lat="44.23008254640372" lon="11.824047130371984"><ele>151.00000000000003</ele><time>2026-05-02T06:16:01Z</time></trkpt><trkpt lat="44.23005131539114" lon="11.824133346663517"><ele>151.0</ele><time>2026-05-02T06:16:06Z</time></trkpt><trkpt lat="44.230016341992616" lon="11.82421218991593"><ele>151.0</ele><time>2026-05-02T06:16:11Z</time></trkpt><trkpt lat="44.229972865985886" lon="11.824288115877435"><ele>151.0</ele><time>2026-05-02T06:16:16Z</time></trkpt><trkpt lat="44.22993451198579" lon="11.824371464845093"><ele>151.0</ele><time>2026-05-02T06:16:21Z</time></trkpt><trkpt lat="44.22988310835995" lon="11.8244238667461"><ele>151.00000000000003</ele><time>2026-05-02T06:16:26Z</time></trkpt><trkpt lat="44.22983848231473" lon="11.824490226879636"><ele>151.0</ele><time>2026-05-02T06:16:30.999Z</time></trkpt><trkpt lat="44.22977658607548" lon="11.824508193220979"><ele>152.14285714285717</ele><time>2026-05-02T06:16:34.999Z</time></trkpt><trkpt lat="44.22971157034442" lon="11.824539161882244"><ele>153.28571428571428</ele><time>2026-05-02T06:16:39.999Z</time></trkpt><trkpt lat="44.22963506844845" lon="11.824541123536598"><ele>154.42857142857144</ele><time>2026-05-02T06:16:45.999Z</time></trkpt><trkpt lat="44.22957066148613" lon="11.824564860778665"><ele>155.57142857142858</ele><time>2026-05-02T06:16:50.999Z</time></trkpt><trkpt lat="44.22950496467899" lon="11.824543380532404"><ele>156.71428571428572</ele><time>2026-05-02T06:16:55.999Z</time></trkpt><trkpt lat="44.22944018714239" lon="11.824520383024044"><ele>157.85714285714286</ele><time>2026-05-02T06:17:00.999Z</time></trkpt><trkpt lat="44.22937925543301" lon="11.824477232885915"><ele>159.0</ele><time>2026-05-02T06:17:05.999Z</time></trkpt><trkpt lat="44.22931736170563" lon="11.824451641906588"><ele>159.0</ele><time>2026-05-02T06:17:10.999Z</time></trkpt><trkpt lat="44.22925958312236" lon="11.824392752913846"><ele>159.0</ele><time>2026-05-02T06:17:15.999Z</time></trkpt><trkpt lat="44.22919328653382" lon="11.824336011834557"><ele>159.0</ele><time>2026-05-02T06:17:22Z</time></trkpt><trkpt lat="44.229138458996246" lon="11.824284026256693"><ele>159.0</ele><time>2026-05-02T06:17:27Z</time></trkpt><trkpt lat="44.229085373035986" lon="11.824232734124633"><ele>159.0</ele><time>2026-05-02T06:17:32Z</time></trkpt><trkpt lat="44.229025143686314" lon="11.824203059766443"><ele>159.0</ele><time>2026-05-02T06:17:37Z</time></trkpt><trkpt lat="44.22895411035428" lon="11.824188905244998"><ele>159.0</ele><time>2026-05-02T06:17:42Z</time></trkpt><trkpt lat="44.22889412678979" lon="11.824225050417024"><ele>161.42857142857142</ele><time>2026-05-02T06:17:46Z</time></trkpt><trkpt lat="44.22886549197497" lon="11.824312812402942"><ele>163.85714285714286</ele><time>2026-05-02T06:17:50Z</time></trkpt><trkpt lat="44.22887127998878" lon="11.824425749440172"><ele>166.28571428571428</ele><time>2026-05-02T06:17:54Z</time></trkpt><trkpt lat="44.22889409191162" lon="11.82451230406391"><ele>168.71428571428572</ele><time>2026-05-02T06:17:57Z</time></trkpt><trkpt lat="44.2289154707483" lon="11.824597209633879"><ele>171.14285714285714</ele><time>2026-05-02T06:18:00Z</time></trkpt><trkpt lat="44.22893032726396" lon="11.824700311039342"><ele>173.57142857142858</ele><time>2026-05-02T06:18:04Z</time></trkpt><trkpt lat="44.2289289568324" lon="11.824800653924353"><ele>176.0</ele><time>2026-05-02T06:18:08Z</time></trkpt><trkpt lat="44.22889571484711" lon="11.824877378187123"><ele>176.57142857142858</ele><time>2026-05-02T06:18:12Z</time></trkpt><trkpt lat="44.22884383493816" lon="11.82493140997502"><ele>177.14285714285714</ele><time>2026-05-02T06:18:16Z</time></trkpt><trkpt lat="44.22877875710484" lon="11.82498633191604"><ele>177.71428571428572</ele><time>2026-05-02T06:18:21Z</time></trkpt><trkpt lat="44.22871032790704" lon="11.825022469531994"><ele>178.28571428571428</ele><time>2026-05-02T06:18:26Z</time></trkpt><trkpt lat="44.22864776201842" lon="11.825068034614535"><ele>178.85714285714286</ele><time>2026-05-02T06:18:31Z</time></trkpt><trkpt lat="44.22858696396136" lon="11.825109783263503"><ele>179.42857142857142</ele><time>2026-05-02T06:18:36Z</time></trkpt><trkpt lat="44.22852079272962" lon="11.825151209716452"><ele>180.0</ele><time>2026-05-02T06:18:41Z</time></trkpt><trkpt lat="44.22846168953359" lon="11.825191785330231"><ele>181.28571428571428</ele><time>2026-05-02T06:18:46Z</time></trkpt><trkpt lat="44.22839555349166" lon="11.82523649388217"><ele>182.57142857142858</ele><time>2026-05-02T06:18:51.999Z</time></trkpt><trkpt lat="44.22833134395962" lon="11.825269232932042"><ele>183.85714285714286</ele><time>2026-05-02T06:18:56.999Z</time></trkpt><trkpt lat="44.22827355812001" lon="11.825307624242443"><ele>185.14285714285714</ele><time>2026-05-02T06:19:01.999Z</time></trkpt><trkpt lat="44.22820960546615" lon="11.825346229664376"><ele>186.42857142857144</ele><time>2026-05-02T06:19:06.999Z</time></trkpt><trkpt lat="44.22814512281181" lon="11.825382770589606"><ele>187.71428571428572</ele><time>2026-05-02T06:19:11.999Z</time></trkpt><trkpt lat="44.22808086794879" lon="11.825412291868467"><ele>189.0</ele><time>2026-05-02T06:19:16.999Z</time></trkpt><trkpt lat="44.22801108049697" lon="11.825445598228644"><ele>189.0</ele><time>2026-05-02T06:19:21.999Z</time></trkpt><trkpt lat="44.22794617305696" lon="11.825480309090667"><ele>189.0</ele><time>2026-05-02T06:19:25.999Z</time></trkpt><trkpt lat="44.2278726082069" lon="11.825498679147747"><ele>189.0</ele><time>2026-05-02T06:19:31Z</time></trkpt><trkpt lat="44.22780564552774" lon="11.825537312359737"><ele>189.0</ele><time>2026-05-02T06:19:36Z</time></trkpt><trkpt lat="44.22774149379013" lon="11.825592920814676"><ele>189.0</ele><time>2026-05-02T06:19:41Z</time></trkpt><trkpt lat="44.22768645024123" lon="11.82563651009351"><ele>189.0</ele><time>2026-05-02T06:19:45Z</time></trkpt><trkpt lat="44.22763519463016" lon="11.825698950873786"><ele>189.0</ele><time>2026-05-02T06:19:49Z</time></trkpt><trkpt lat="44.22758582429874" lon="11.825781090703591"><ele>189.0</ele><time>2026-05-02T06:19:53Z</time></trkpt><trkpt lat="44.227552582574845" lon="11.82585968342069"><ele>189.0</ele><time>2026-05-02T06:19:56Z</time></trkpt><trkpt lat="44.227515767193346" lon="11.825938967660086"><ele>189.0</ele><time>2026-05-02T06:19:59Z</time></trkpt><trkpt lat="44.22747642049115" lon="11.826019575075058"><ele>189.0</ele><time>2026-05-02T06:20:02Z</time></trkpt><trkpt lat="44.22742949013294" lon="11.826089317254137"><ele>189.0</ele><time>2026-05-02T06:20:05Z</time></trkpt><trkpt lat="44.22739789936952" lon="11.826165458020176"><ele>189.0</ele><time>2026-05-02T06:20:08Z</time></trkpt><trkpt lat="44.22736654469455" lon="11.82624341224872"><ele>189.0</ele><time>2026-05-02T06:20:11Z</time></trkpt><trkpt lat="44.22731323293826" lon="11.826314064182188"><ele>189.85714285714286</ele><time>2026-05-02T06:20:15Z</time></trkpt><trkpt lat="44.22726784550649" lon="11.826406359620133"><ele>190.71428571428572</ele><time>2026-05-02T06:20:20Z</time></trkpt><trkpt lat="44.227230504295285" lon="11.826478794612195"><ele>191.57142857142856</ele><time>2026-05-02T06:20:24Z</time></trkpt><trkpt lat="44.22718816610691" lon="11.826555243992065"><ele>192.42857142857144</ele><time>2026-05-02T06:20:28Z</time></trkpt><trkpt lat="44.22714980284265" lon="11.826631400923056"><ele>193.28571428571428</ele><time>2026-05-02T06:20:32Z</time></trkpt><trkpt lat="44.22711626545199" lon="11.826713584991428"><ele>194.14285714285714</ele><time>2026-05-02T06:20:36Z</time></trkpt><trkpt lat="44.227085931266494" lon="11.826802844105874"><ele>195.0</ele><time>2026-05-02T06:20:39.999Z</time></trkpt><trkpt lat="44.22706720886858" lon="11.826923887794024"><ele>195.5</ele><time>2026-05-02T06:20:43.999Z</time></trkpt><trkpt lat="44.22709644307003" lon="11.827033947640343"><ele>196.0</ele><time>2026-05-02T06:20:46.999Z</time></trkpt><trkpt lat="44.22710986260247" lon="11.82712589534113"><ele>196.5</ele><time>2026-05-02T06:20:48.999Z</time></trkpt><trkpt lat="44.22713662158076" lon="11.827215800139028"><ele>197.0</ele><time>2026-05-02T06:20:50.999Z</time></trkpt><trkpt lat="44.22716123355201" lon="11.827323194635753"><ele>197.5</ele><time>2026-05-02T06:20:52.999Z</time></trkpt><trkpt lat="44.227185667951154" lon="11.827440814619353"><ele>198.0</ele><time>2026-05-02T06:20:54.999Z</time></trkpt><trkpt lat="44.22721308908909" lon="11.82755437416778"><ele>197.4</ele><time>2026-05-02T06:20:56.999Z</time></trkpt><trkpt lat="44.22723412626077" lon="11.827675486527239"><ele>196.8</ele><time>2026-05-02T06:20:58.999Z</time></trkpt><trkpt lat="44.22726685853023" lon="11.827789142442787"><ele>196.2</ele><time>2026-05-02T06:21:00.999Z</time></trkpt><trkpt lat="44.22729175426166" lon="11.827909441160747"><ele>195.6</ele><time>2026-05-02T06:21:02.999Z</time></trkpt><trkpt lat="44.22731723517237" lon="11.828031754336243"><ele>195.0</ele><time>2026-05-02T06:21:04.999Z</time></trkpt><trkpt lat="44.227341261211926" lon="11.828155989463347"><ele>192.6</ele><time>2026-05-02T06:21:06.999Z</time></trkpt><trkpt lat="44.22736761090143" lon="11.828301578628272"><ele>190.2</ele><time>2026-05-02T06:21:08.999Z</time></trkpt><trkpt lat="44.22740824774709" lon="11.82845493069932"><ele>187.8</ele><time>2026-05-02T06:21:10.999Z</time></trkpt><trkpt lat="44.22744261838379" lon="11.828604800144134"><ele>185.4</ele><time>2026-05-02T06:21:12.999Z</time></trkpt><trkpt lat="44.22746855843813" lon="11.828756844330268"><ele>183.0</ele><time>2026-05-02T06:21:14.999Z</time></trkpt><trkpt lat="44.22750002478851" lon="11.828904960631293"><ele>182.25</ele><time>2026-05-02T06:21:16.999Z</time></trkpt><trkpt lat="44.22753454805612" lon="11.829056137120576"><ele>181.5</ele><time>2026-05-02T06:21:18.999Z</time></trkpt><trkpt lat="44.22757506752102" lon="11.82920106154244"><ele>180.75</ele><time>2026-05-02T06:21:20.999Z</time></trkpt><trkpt lat="44.22760013211363" lon="11.829347686110792"><ele>180.0</ele><time>2026-05-02T06:21:22.999Z</time></trkpt><trkpt lat="44.227633200300396" lon="11.829509252445225"><ele>179.5</ele><time>2026-05-02T06:21:24.999Z</time></trkpt><trkpt lat="44.22767223954905" lon="11.829662195501777"><ele>179.0</ele><time>2026-05-02T06:21:26.999Z</time></trkpt><trkpt lat="44.2277063025364" lon="11.829824397733056"><ele>178.5</ele><time>2026-05-02T06:21:28.999Z</time></trkpt><trkpt lat="44.22773704689452" lon="11.829980371554042"><ele>178.0</ele><time>2026-05-02T06:21:30.999Z</time></trkpt><trkpt lat="44.227762896618266" lon="11.830132539295553"><ele>176.60000000000002</ele><time>2026-05-02T06:21:32.999Z</time></trkpt><trkpt lat="44.227801852535904" lon="11.830291035966056"><ele>175.20000000000002</ele><time>2026-05-02T06:21:35Z</time></trkpt><trkpt lat="44.22784159923122" lon="11.830440781784128"><ele>173.8</ele><time>2026-05-02T06:21:37Z</time></trkpt><trkpt lat="44.22787832867405" lon="11.830579601561293"><ele>172.4</ele><time>2026-05-02T06:21:39Z</time></trkpt><trkpt lat="44.22791826560021" lon="11.830705301737478"><ele>171.0</ele><time>2026-05-02T06:21:41Z</time></trkpt><trkpt lat="44.227960760160144" lon="11.83080965824189"><ele>171.0</ele><time>2026-05-02T06:21:43Z</time></trkpt><trkpt lat="44.22800565886742" lon="11.83089359510462"><ele>171.0</ele><time>2026-05-02T06:21:45Z</time></trkpt><trkpt lat="44.22806217390453" lon="11.830989213386946"><ele>171.0</ele><time>2026-05-02T06:21:48Z</time></trkpt><trkpt lat="44.22810859660777" lon="11.831059255577085"><ele>171.0</ele><time>2026-05-02T06:21:51Z</time></trkpt><trkpt lat="44.22816549893005" lon="11.8311440401591"><ele>171.0</ele><time>2026-05-02T06:21:55Z</time></trkpt><trkpt lat="44.22821940931421" lon="11.83120759984768"><ele>171.0</ele><time>2026-05-02T06:21:59Z</time></trkpt><trkpt lat="44.2282639631247" lon="11.831274313376708"><ele>173.85714285714283</ele><time>2026-05-02T06:22:04Z</time></trkpt><trkpt lat="44.22830526666992" lon="11.831348184919001"><ele>176.71428571428572</ele><time>2026-05-02T06:22:08Z</time></trkpt><trkpt lat="44.22837485678373" lon="11.83138808393732"><ele>179.57142857142856</ele><time>2026-05-02T06:22:12Z</time></trkpt><trkpt lat="44.22843347211682" lon="11.831447437741852"><ele>182.42857142857142</ele><time>2026-05-02T06:22:17Z</time></trkpt><trkpt lat="44.228497447608326" lon="11.831491716711685"><ele>185.28571428571428</ele><time>2026-05-02T06:22:22Z</time></trkpt><trkpt lat="44.228551883033276" lon="11.831544936492213"><ele>188.14285714285714</ele><time>2026-05-02T06:22:27Z</time></trkpt><trkpt lat="44.22860688143334" lon="11.831598642262744"><ele>191.0</ele><time>2026-05-02T06:22:32Z</time></trkpt><trkpt lat="44.22865473133046" lon="11.831659144681698"><ele>191.0</ele><time>2026-05-02T06:22:37Z</time></trkpt><trkpt lat="44.22870880055201" lon="11.831711855285153"><ele>191.0</ele><time>2026-05-02T06:22:42Z</time></trkpt><trkpt lat="44.22876442211461" lon="11.831782604759402"><ele>191.0</ele><time>2026-05-02T06:22:47Z</time></trkpt><trkpt lat="44.228828428870536" lon="11.831837983789374"><ele>191.0</ele><time>2026-05-02T06:22:52Z</time></trkpt><trkpt lat="44.228893794768105" lon="11.831898063652126"><ele>191.0</ele><time>2026-05-02T06:22:56.999Z</time></trkpt><trkpt lat="44.228956618803" lon="11.831951282981597"><ele>191.0</ele><time>2026-05-02T06:23:01.999Z</time></trkpt><trkpt lat="44.229020785852555" lon="11.832003187367134"><ele>191.0</ele><time>2026-05-02T06:23:06.999Z</time></trkpt><trkpt lat="44.22908417762256" lon="11.832061290245951"><ele>192.14285714285714</ele><time>2026-05-02T06:23:11.999Z</time></trkpt><trkpt lat="44.22914179115494" lon="11.832117179792892"><ele>193.28571428571428</ele><time>2026-05-02T06:23:15.999Z</time></trkpt><trkpt lat="44.2292026169907" lon="11.832174289773334"><ele>194.42857142857142</ele><time>2026-05-02T06:23:19.999Z</time></trkpt><trkpt lat="44.229262958785654" lon="11.832220606628873"><ele>195.57142857142856</ele><time>2026-05-02T06:23:22.999Z</time></trkpt><trkpt lat="44.22932497071997" lon="11.832266077583585"><ele>196.71428571428572</ele><time>2026-05-02T06:23:25.999Z</time></trkpt><trkpt lat="44.22940391749188" lon="11.832326926841509"><ele>197.85714285714283</ele><time>2026-05-02T06:23:28.999Z</time></trkpt><trkpt lat="44.22947028307184" lon="11.832373331313343"><ele>199.0</ele><time>2026-05-02T06:23:30.999Z</time></trkpt><trkpt lat="44.22954566593358" lon="11.832426240475076"><ele>199.0</ele><time>2026-05-02T06:23:32.999Z</time></trkpt><trkpt lat="44.22963102032064" lon="11.832493689913642"><ele>199.0</ele><time>2026-05-02T06:23:34.999Z</time></trkpt><trkpt lat="44.229725533918916" lon="11.832559665355907"><ele>199.0</ele><time>2026-05-02T06:23:36.999Z</time></trkpt><trkpt lat="44.22982252768485" lon="11.832648763614257"><ele>199.0</ele><time>2026-05-02T06:23:38.999Z</time></trkpt><trkpt lat="44.22992460145169" lon="11.83275386780485"><ele>199.0</ele><time>2026-05-02T06:23:41Z</time></trkpt><trkpt lat="44.22997159996922" lon="11.832812370396677"><ele>197.6</ele><time>2026-05-02T06:23:42Z</time></trkpt><trkpt lat="44.23006262726611" lon="11.832924952463586"><ele>196.2</ele><time>2026-05-02T06:23:44Z</time></trkpt><trkpt lat="44.23015216497079" lon="11.833036318679188"><ele>194.79999999999998</ele><time>2026-05-02T06:23:46Z</time></trkpt><trkpt lat="44.230198131669404" lon="11.833097439874976"><ele>193.39999999999998</ele><time>2026-05-02T06:23:47Z</time></trkpt><trkpt lat="44.23024120208093" lon="11.83316394430311"><ele>192.0</ele><time>2026-05-02T06:23:48Z</time></trkpt><trkpt lat="44.23031088755234" lon="11.833298280423262"><ele>192.0</ele><time>2026-05-02T06:23:50Z</time></trkpt><trkpt lat="44.23038490479955" lon="11.833432195784662"><ele>192.0</ele><time>2026-05-02T06:23:52Z</time></trkpt><trkpt lat="44.23041906685658" lon="11.83351851830684"><ele>192.0</ele><time>2026-05-02T06:23:53Z</time></trkpt><trkpt lat="44.2304526796926" lon="11.833597673238303"><ele>192.0</ele><time>2026-05-02T06:23:54Z</time></trkpt><trkpt lat="44.23048845504719" lon="11.833672290176048"><ele>192.0</ele><time>2026-05-02T06:23:55Z</time></trkpt><trkpt lat="44.230530436911884" lon="11.833742911708503"><ele>192.0</ele><time>2026-05-02T06:23:56Z</time></trkpt><trkpt lat="44.230572950728" lon="11.833814780775606"><ele>191.85714285714283</ele><time>2026-05-02T06:23:57Z</time></trkpt><trkpt lat="44.23061466550265" lon="11.833890174509499"><ele>191.71428571428572</ele><time>2026-05-02T06:23:58Z</time></trkpt><trkpt lat="44.23065655302864" lon="11.833964539319545"><ele>191.57142857142856</ele><time>2026-05-02T06:23:59Z</time></trkpt><trkpt lat="44.23070080403243" lon="11.834043126318573"><ele>191.42857142857142</ele><time>2026-05-02T06:24:00Z</time></trkpt><trkpt lat="44.230743990365085" lon="11.834115888226652"><ele>191.28571428571428</ele><time>2026-05-02T06:24:01Z</time></trkpt><trkpt lat="44.23078492347746" lon="11.834186923901159"><ele>191.14285714285714</ele><time>2026-05-02T06:24:02Z</time></trkpt><trkpt lat="44.23082733727472" lon="11.834256130931726"><ele>191.0</ele><time>2026-05-02T06:24:03Z</time></trkpt><trkpt lat="44.23087071372405" lon="11.834322127982684"><ele>188.0</ele><time>2026-05-02T06:24:04Z</time></trkpt><trkpt lat="44.23097710737406" lon="11.834402629719914"><ele>185.0</ele><time>2026-05-02T06:24:06Z</time></trkpt><trkpt lat="44.23109547575891" lon="11.834454289584666"><ele>182.0</ele><time>2026-05-02T06:24:08Z</time></trkpt><trkpt lat="44.231159158894236" lon="11.834481975305266"><ele>179.0</ele><time>2026-05-02T06:24:09Z</time></trkpt><trkpt lat="44.23122399696946" lon="11.834513943757988"><ele>176.0</ele><time>2026-05-02T06:24:10Z</time></trkpt><trkpt lat="44.23128533600532" lon="11.834562308097135"><ele>176.0</ele><time>2026-05-02T06:24:11Z</time></trkpt><trkpt lat="44.23133965743905" lon="11.834620873591204"><ele>176.0</ele><time>2026-05-02T06:24:12Z</time></trkpt><trkpt lat="44.231394783545184" lon="11.834676268520187"><ele>176.0</ele><time>2026-05-02T06:24:13Z</time></trkpt><trkpt lat="44.2314477723111" lon="11.834724142563873"><ele>176.0</ele><time>2026-05-02T06:24:14Z</time></trkpt><trkpt lat="44.23155028824422" lon="11.83481727007233"><ele>176.0</ele><time>2026-05-02T06:24:16Z</time></trkpt><trkpt lat="44.23165078063083" lon="11.834910100805667"><ele>176.0</ele><time>2026-05-02T06:24:18Z</time></trkpt><trkpt lat="44.23170067549301" lon="11.834964333336803"><ele>177.42857142857144</ele><time>2026-05-02T06:24:19Z</time></trkpt><trkpt lat="44.23174464612916" lon="11.835030961202348"><ele>178.85714285714286</ele><time>2026-05-02T06:24:20Z</time></trkpt><trkpt lat="44.231776701728954" lon="11.83511891600161"><ele>180.28571428571428</ele><time>2026-05-02T06:24:21Z</time></trkpt><trkpt lat="44.23179357311606" lon="11.835213932476499"><ele>181.71428571428572</ele><time>2026-05-02T06:24:22Z</time></trkpt><trkpt lat="44.23179792406463" lon="11.83530964281509"><ele>183.14285714285714</ele><time>2026-05-02T06:24:23Z</time></trkpt><trkpt lat="44.23179810111991" lon="11.835400339482721"><ele>184.57142857142858</ele><time>2026-05-02T06:24:24Z</time></trkpt><trkpt lat="44.23179505840647" lon="11.83548997572666"><ele>186.0</ele><time>2026-05-02T06:24:25Z</time></trkpt><trkpt lat="44.231788629917524" lon="11.835578199248317"><ele>186.0</ele><time>2026-05-02T06:24:26Z</time></trkpt><trkpt lat="44.2317756541625" lon="11.835742046634394"><ele>186.0</ele><time>2026-05-02T06:24:28Z</time></trkpt><trkpt lat="44.231745270625886" lon="11.835882855738006"><ele>186.0</ele><time>2026-05-02T06:24:30Z</time></trkpt><trkpt lat="44.23172943177182" lon="11.836035510966308"><ele>186.0</ele><time>2026-05-02T06:24:32Z</time></trkpt><trkpt lat="44.23171187752195" lon="11.836202785436527"><ele>185.5</ele><time>2026-05-02T06:24:34Z</time></trkpt><trkpt lat="44.23169557477678" lon="11.83635762539436"><ele>185.0</ele><time>2026-05-02T06:24:36Z</time></trkpt><trkpt lat="44.23167928165063" lon="11.836512640003686"><ele>184.5</ele><time>2026-05-02T06:24:38Z</time></trkpt><trkpt lat="44.23166782263746" lon="11.836687823275662"><ele>184.0</ele><time>2026-05-02T06:24:40Z</time></trkpt><trkpt lat="44.23167358341233" lon="11.836842697525071"><ele>185.2</ele><time>2026-05-02T06:24:42Z</time></trkpt><trkpt lat="44.23169861173615" lon="11.836989056373735"><ele>186.39999999999998</ele><time>2026-05-02T06:24:44Z</time></trkpt><trkpt lat="44.231720391135525" lon="11.837146619409758"><ele>187.6</ele><time>2026-05-02T06:24:46Z</time></trkpt><trkpt lat="44.231753513182106" lon="11.837284453166152"><ele>188.8</ele><time>2026-05-02T06:24:48Z</time></trkpt><trkpt lat="44.23179952760162" lon="11.83743306294035"><ele>190.0</ele><time>2026-05-02T06:24:50Z</time></trkpt><trkpt lat="44.23185509140492" lon="11.837590018922722"><ele>191.4</ele><time>2026-05-02T06:24:52Z</time></trkpt><trkpt lat="44.23190525020127" lon="11.837709635978797"><ele>192.8</ele><time>2026-05-02T06:24:54Z</time></trkpt><trkpt lat="44.23195285653169" lon="11.83782144178704"><ele>194.2</ele><time>2026-05-02T06:24:56Z</time></trkpt><trkpt lat="44.23202111277993" lon="11.837938884288821"><ele>195.6</ele><time>2026-05-02T06:24:58Z</time></trkpt><trkpt lat="44.232087021398286" lon="11.838048092739813"><ele>197.0</ele><time>2026-05-02T06:25:00Z</time></trkpt><trkpt lat="44.23213478207686" lon="11.838156356136908"><ele>197.00000000000003</ele><time>2026-05-02T06:25:02Z</time></trkpt><trkpt lat="44.232174011519255" lon="11.838259834907749"><ele>197.0</ele><time>2026-05-02T06:25:03.999Z</time></trkpt><trkpt lat="44.23218903572189" lon="11.838375076871303"><ele>197.0</ele><time>2026-05-02T06:25:05.999Z</time></trkpt><trkpt lat="44.23221183909026" lon="11.838477414872367"><ele>197.0</ele><time>2026-05-02T06:25:07.999Z</time></trkpt><trkpt lat="44.23222369893518" lon="11.838587928250364"><ele>197.00000000000003</ele><time>2026-05-02T06:25:09.999Z</time></trkpt><trkpt lat="44.23225715895736" lon="11.838674162339794"><ele>197.0</ele><time>2026-05-02T06:25:11.999Z</time></trkpt><trkpt lat="44.23230484545435" lon="11.838779039249163"><ele>197.28571428571428</ele><time>2026-05-02T06:25:14.999Z</time></trkpt><trkpt lat="44.23235220801284" lon="11.838856806918535"><ele>197.57142857142858</ele><time>2026-05-02T06:25:17.999Z</time></trkpt><trkpt lat="44.2324054126406" lon="11.838944044506995"><ele>197.85714285714283</ele><time>2026-05-02T06:25:21.999Z</time></trkpt><trkpt lat="44.232464551377" lon="11.839006476069333"><ele>198.14285714285714</ele><time>2026-05-02T06:25:25.999Z</time></trkpt><trkpt lat="44.23251706653164" lon="11.839067534910958"><ele>198.42857142857142</ele><time>2026-05-02T06:25:29.999Z</time></trkpt><trkpt lat="44.23256973262865" lon="11.83912364664952"><ele>198.7142857142857</ele><time>2026-05-02T06:25:33.999Z</time></trkpt><trkpt lat="44.232623274405306" lon="11.839186922821398"><ele>199.0</ele><time>2026-05-02T06:25:37.999Z</time></trkpt><trkpt lat="44.232678967619265" lon="11.839260264499456"><ele>198.85714285714283</ele><time>2026-05-02T06:25:41.999Z</time></trkpt><trkpt lat="44.232727136364765" lon="11.839323462418509"><ele>198.71428571428572</ele><time>2026-05-02T06:25:46Z</time></trkpt><trkpt lat="44.232781221198834" lon="11.839400288750614"><ele>198.57142857142856</ele><time>2026-05-02T06:25:50Z</time></trkpt><trkpt lat="44.23282367066921" lon="11.839479114965801"><ele>198.42857142857142</ele><time>2026-05-02T06:25:54Z</time></trkpt><trkpt lat="44.23286842562168" lon="11.839556465120626"><ele>198.28571428571428</ele><time>2026-05-02T06:25:58Z</time></trkpt><trkpt lat="44.232911813211" lon="11.839636281997638"><ele>198.14285714285714</ele><time>2026-05-02T06:26:02Z</time></trkpt><trkpt lat="44.232949227578885" lon="11.83971438012832"><ele>198.0</ele><time>2026-05-02T06:26:06Z</time></trkpt><trkpt lat="44.232988218451254" lon="11.839794637818068"><ele>198.0</ele><time>2026-05-02T06:26:10Z</time></trkpt><trkpt lat="44.23302839559686" lon="11.839873838525577"><ele>198.0</ele><time>2026-05-02T06:26:14Z</time></trkpt><trkpt lat="44.233078826955044" lon="11.83995866696723"><ele>198.0</ele><time>2026-05-02T06:26:18Z</time></trkpt><trkpt lat="44.23311950720098" lon="11.840048937120088"><ele>198.0</ele><time>2026-05-02T06:26:22Z</time></trkpt><trkpt lat="44.23315876862521" lon="11.840143611773211"><ele>198.0</ele><time>2026-05-02T06:26:26Z</time></trkpt><trkpt lat="44.23319451989888" lon="11.840218588884149"><ele>198.0</ele><time>2026-05-02T06:26:29Z</time></trkpt><trkpt lat="44.23322898296967" lon="11.840292119257992"><ele>198.0</ele><time>2026-05-02T06:26:32Z</time></trkpt><trkpt lat="44.23327217915355" lon="11.840391192730777"><ele>198.57142857142858</ele><time>2026-05-02T06:26:36Z</time></trkpt><trkpt lat="44.233313442353555" lon="11.840462039120542"><ele>199.14285714285714</ele><time>2026-05-02T06:26:39Z</time></trkpt><trkpt lat="44.233341321614176" lon="11.840542462712772"><ele>199.71428571428572</ele><time>2026-05-02T06:26:42Z</time></trkpt><trkpt lat="44.23337112186166" lon="11.840621755794736"><ele>200.28571428571428</ele><time>2026-05-02T06:26:45Z</time></trkpt><trkpt lat="44.23339956539184" lon="11.840703678734789"><ele>200.85714285714283</ele><time>2026-05-02T06:26:48Z</time></trkpt><trkpt lat="44.233444443762124" lon="11.840794862763993"><ele>201.42857142857142</ele><time>2026-05-02T06:26:52Z</time></trkpt><trkpt lat="44.233483701896915" lon="11.84088859502194"><ele>202.0</ele><time>2026-05-02T06:26:56Z</time></trkpt><trkpt lat="44.233505748359576" lon="11.840978692574026"><ele>202.0</ele><time>2026-05-02T06:27:00Z</time></trkpt><trkpt lat="44.23351786123695" lon="11.841066631792831"><ele>202.0</ele><time>2026-05-02T06:27:03.999Z</time></trkpt><trkpt lat="44.2335327789183" lon="11.841154818577959"><ele>202.0</ele><time>2026-05-02T06:27:07.999Z</time></trkpt><trkpt lat="44.23354589833363" lon="11.841260033342639"><ele>202.0</ele><time>2026-05-02T06:27:12.999Z</time></trkpt><trkpt lat="44.233551061279755" lon="11.841365515031178"><ele>202.0</ele><time>2026-05-02T06:27:17.999Z</time></trkpt><trkpt lat="44.23355999649135" lon="11.841467419234782"><ele>202.0</ele><time>2026-05-02T06:27:22.999Z</time></trkpt><trkpt lat="44.23355923520229" lon="11.841573881604651"><ele>202.0</ele><time>2026-05-02T06:27:27.999Z</time></trkpt><trkpt lat="44.23355435299293" lon="11.841663844460562"><ele>201.99999999999997</ele><time>2026-05-02T06:27:31.999Z</time></trkpt><trkpt lat="44.23355536124945" lon="11.841772510075453"><ele>202.0</ele><time>2026-05-02T06:27:36.999Z</time></trkpt><trkpt lat="44.23355210162874" lon="11.841862820900774"><ele>202.0</ele><time>2026-05-02T06:27:40.999Z</time></trkpt><trkpt lat="44.23354130318266" lon="11.841958885228683"><ele>202.0</ele><time>2026-05-02T06:27:44.999Z</time></trkpt><trkpt lat="44.2335354332126" lon="11.842073662908646"><ele>201.99999999999997</ele><time>2026-05-02T06:27:48.999Z</time></trkpt><trkpt lat="44.23351822299039" lon="11.842183129747339"><ele>202.0</ele><time>2026-05-02T06:27:53Z</time></trkpt><trkpt lat="44.23349798063466" lon="11.842297428374707"><ele>202.71428571428572</ele><time>2026-05-02T06:27:57Z</time></trkpt><trkpt lat="44.23348925906" lon="11.842403309016003"><ele>203.42857142857142</ele><time>2026-05-02T06:28:01Z</time></trkpt><trkpt lat="44.233534514979745" lon="11.842486336959773"><ele>204.14285714285717</ele><time>2026-05-02T06:28:05Z</time></trkpt><trkpt lat="44.23359788313002" lon="11.842473756710818"><ele>204.85714285714286</ele><time>2026-05-02T06:28:09Z</time></trkpt><trkpt lat="44.23365607117491" lon="11.84241993989207"><ele>205.57142857142858</ele><time>2026-05-02T06:28:13Z</time></trkpt><trkpt lat="44.23372605173841" lon="11.842357133945786"><ele>206.2857142857143</ele><time>2026-05-02T06:28:17Z</time></trkpt><trkpt lat="44.23377837099513" lon="11.8423054869506"><ele>207.0</ele><time>2026-05-02T06:28:20Z</time></trkpt><trkpt lat="44.23384105170641" lon="11.842259570056068"><ele>207.0</ele><time>2026-05-02T06:28:23Z</time></trkpt><trkpt lat="44.23392234924585" lon="11.84222279806586"><ele>207.0</ele><time>2026-05-02T06:28:26Z</time></trkpt><trkpt lat="44.23400339829716" lon="11.8422287556715"><ele>207.0</ele><time>2026-05-02T06:28:28Z</time></trkpt><trkpt lat="44.23406968023532" lon="11.842296890752024"><ele>207.0</ele><time>2026-05-02T06:28:30Z</time></trkpt><trkpt lat="44.23411714368848" lon="11.842390944017755"><ele>207.0</ele><time>2026-05-02T06:28:32Z</time></trkpt><trkpt lat="44.234182531336025" lon="11.84249348858131"><ele>207.0</ele><time>2026-05-02T06:28:34Z</time></trkpt><trkpt lat="44.23428744613075" lon="11.842561525313076"><ele>207.66666666666666</ele><time>2026-05-02T06:28:36Z</time></trkpt><trkpt lat="44.23435891041279" lon="11.84257197712977"><ele>208.33333333333331</ele><time>2026-05-02T06:28:37Z</time></trkpt><trkpt lat="44.234435664036454" lon="11.84257860738067"><ele>209.0</ele><time>2026-05-02T06:28:38Z</time></trkpt><trkpt lat="44.234516165305266" lon="11.842565682042423"><ele>209.66666666666666</ele><time>2026-05-02T06:28:39Z</time></trkpt><trkpt lat="44.234595575018815" lon="11.842558280001581"><ele>210.33333333333331</ele><time>2026-05-02T06:28:40Z</time></trkpt><trkpt lat="44.23467600950986" lon="11.842551014677207"><ele>211.0</ele><time>2026-05-02T06:28:41Z</time></trkpt><trkpt lat="44.234753645213836" lon="11.842551089190334"><ele>209.66666666666666</ele><time>2026-05-02T06:28:42Z</time></trkpt><trkpt lat="44.23482752261656" lon="11.842564683758884"><ele>208.33333333333331</ele><time>2026-05-02T06:28:43Z</time></trkpt><trkpt lat="44.23490092515891" lon="11.842572729888214"><ele>207.0</ele><time>2026-05-02T06:28:44Z</time></trkpt><trkpt lat="44.23497628320035" lon="11.842592100499049"><ele>205.66666666666669</ele><time>2026-05-02T06:28:45Z</time></trkpt><trkpt lat="44.235043625167705" lon="11.842611792755307"><ele>204.33333333333334</ele><time>2026-05-02T06:28:46Z</time></trkpt><trkpt lat="44.23511341897412" lon="11.84264060462226"><ele>203.0</ele><time>2026-05-02T06:28:47Z</time></trkpt><trkpt lat="44.235223247348614" lon="11.842708732993374"><ele>203.0</ele><time>2026-05-02T06:28:49Z</time></trkpt><trkpt lat="44.23531580961738" lon="11.842786806884757"><ele>203.0</ele><time>2026-05-02T06:28:51Z</time></trkpt><trkpt lat="44.23539170603927" lon="11.842879550664973"><ele>203.0</ele><time>2026-05-02T06:28:53Z</time></trkpt><trkpt lat="44.23546535859386" lon="11.84296595471696"><ele>203.0</ele><time>2026-05-02T06:28:55Z</time></trkpt><trkpt lat="44.235528482690846" lon="11.843069915085222"><ele>203.0</ele><time>2026-05-02T06:28:57Z</time></trkpt><trkpt lat="44.23558723369697" lon="11.843167860275404"><ele>203.00000000000003</ele><time>2026-05-02T06:28:59Z</time></trkpt><trkpt lat="44.2356220601762" lon="11.84328534797704"><ele>203.0</ele><time>2026-05-02T06:29:01Z</time></trkpt><trkpt lat="44.235647615375896" lon="11.843402331897172"><ele>203.0</ele><time>2026-05-02T06:29:03Z</time></trkpt><trkpt lat="44.23567179236983" lon="11.843506102357937"><ele>203.0</ele><time>2026-05-02T06:29:05Z</time></trkpt><trkpt lat="44.235689524556406" lon="11.843607717020737"><ele>203.00000000000003</ele><time>2026-05-02T06:29:07Z</time></trkpt><trkpt lat="44.235702974213886" lon="11.843705991112264"><ele>203.0</ele><time>2026-05-02T06:29:09Z</time></trkpt><trkpt lat="44.23572670041019" lon="11.843797589281914"><ele>203.83333333333334</ele><time>2026-05-02T06:29:11Z</time></trkpt><trkpt lat="44.23573866761625" lon="11.843892404627884"><ele>204.66666666666669</ele><time>2026-05-02T06:29:12.999Z</time></trkpt><trkpt lat="44.23574850239549" lon="11.8439922430183"><ele>205.5</ele><time>2026-05-02T06:29:14.999Z</time></trkpt><trkpt lat="44.23576428689321" lon="11.844089358058033"><ele>206.33333333333331</ele><time>2026-05-02T06:29:16.999Z</time></trkpt><trkpt lat="44.235771294271466" lon="11.844189072018413"><ele>207.16666666666666</ele><time>2026-05-02T06:29:18.999Z</time></trkpt><trkpt lat="44.235776679116206" lon="11.844295923458583"><ele>208.0</ele><time>2026-05-02T06:29:20.999Z</time></trkpt><trkpt lat="44.23578076000445" lon="11.844426597882768"><ele>208.0</ele><time>2026-05-02T06:29:22.999Z</time></trkpt><trkpt lat="44.23578892149599" lon="11.844549116661709"><ele>208.0</ele><time>2026-05-02T06:29:24.999Z</time></trkpt><trkpt lat="44.23581605891558" lon="11.844674055729449"><ele>208.0</ele><time>2026-05-02T06:29:26.999Z</time></trkpt><trkpt lat="44.23584170763716" lon="11.844808165828585"><ele>208.0</ele><time>2026-05-02T06:29:28.999Z</time></trkpt><trkpt lat="44.23588188282825" lon="11.844938204417142"><ele>208.0</ele><time>2026-05-02T06:29:30.999Z</time></trkpt><trkpt lat="44.235934122556436" lon="11.84508396787617"><ele>204.8</ele><time>2026-05-02T06:29:32.999Z</time></trkpt><trkpt lat="44.23601295110094" lon="11.845218850833074"><ele>201.60000000000002</ele><time>2026-05-02T06:29:34.999Z</time></trkpt><trkpt lat="44.23610005561104" lon="11.845334257154237"><ele>198.39999999999998</ele><time>2026-05-02T06:29:36.999Z</time></trkpt><trkpt lat="44.236168411516104" lon="11.845469435327077"><ele>195.2</ele><time>2026-05-02T06:29:38.999Z</time></trkpt><trkpt lat="44.23621346987648" lon="11.845536947743959"><ele>192.0</ele><time>2026-05-02T06:29:39.999Z</time></trkpt><trkpt lat="44.236244398378034" lon="11.845623434069998"><ele>192.0</ele><time>2026-05-02T06:29:40.999Z</time></trkpt><trkpt lat="44.23632949890337" lon="11.845745080453433"><ele>192.0</ele><time>2026-05-02T06:29:42.999Z</time></trkpt><trkpt lat="44.236395926428074" lon="11.845892552741095"><ele>192.0</ele><time>2026-05-02T06:29:44.999Z</time></trkpt><trkpt lat="44.23645646249561" lon="11.846048384341593"><ele>192.0</ele><time>2026-05-02T06:29:46.999Z</time></trkpt><trkpt lat="44.2364838550525" lon="11.846131416600816"><ele>192.0</ele><time>2026-05-02T06:29:47.999Z</time></trkpt><trkpt lat="44.23654061339852" lon="11.846295585140185"><ele>192.99999999999997</ele><time>2026-05-02T06:29:49.999Z</time></trkpt><trkpt lat="44.236566760928945" lon="11.846377520465454"><ele>194.0</ele><time>2026-05-02T06:29:50.999Z</time></trkpt><trkpt lat="44.23659872177104" lon="11.846461730590384"><ele>195.0</ele><time>2026-05-02T06:29:51.999Z</time></trkpt><trkpt lat="44.23662967122355" lon="11.846551193894594"><ele>196.0</ele><time>2026-05-02T06:29:52.999Z</time></trkpt><trkpt lat="44.236662516481616" lon="11.846640577643418"><ele>197.0</ele><time>2026-05-02T06:29:53.999Z</time></trkpt><trkpt lat="44.236696236424706" lon="11.846736395747968"><ele>197.99999999999997</ele><time>2026-05-02T06:29:54.999Z</time></trkpt><trkpt lat="44.236714581900266" lon="11.846842970695059"><ele>199.0</ele><time>2026-05-02T06:29:55.999Z</time></trkpt><trkpt lat="44.23677697796275" lon="11.846919692669495"><ele>196.66666666666666</ele><time>2026-05-02T06:29:56.999Z</time></trkpt><trkpt lat="44.23683552384771" lon="11.846980229436058"><ele>194.33333333333331</ele><time>2026-05-02T06:29:58Z</time></trkpt><trkpt lat="44.23690599887131" lon="11.847018939963732"><ele>192.0</ele><time>2026-05-02T06:29:59Z</time></trkpt><trkpt lat="44.2369730060371" lon="11.847070846007098"><ele>189.66666666666666</ele><time>2026-05-02T06:30:00Z</time></trkpt><trkpt lat="44.237035447189626" lon="11.847145857184739"><ele>187.33333333333331</ele><time>2026-05-02T06:30:01Z</time></trkpt><trkpt lat="44.23707796362635" lon="11.847245730934999"><ele>185.0</ele><time>2026-05-02T06:30:02Z</time></trkpt><trkpt lat="44.23709948469468" lon="11.847344431871242"><ele>185.0</ele><time>2026-05-02T06:30:03Z</time></trkpt><trkpt lat="44.23712171424443" lon="11.847439558500419"><ele>185.0</ele><time>2026-05-02T06:30:04Z</time></trkpt><trkpt lat="44.237135368105996" lon="11.847538786730267"><ele>185.0</ele><time>2026-05-02T06:30:05Z</time></trkpt><trkpt lat="44.23717567139746" lon="11.8476979898408"><ele>185.0</ele><time>2026-05-02T06:30:07Z</time></trkpt><trkpt lat="44.237219049453316" lon="11.8478309020213"><ele>185.0</ele><time>2026-05-02T06:30:09Z</time></trkpt><trkpt lat="44.237252519487114" lon="11.8479370639234"><ele>186.42857142857142</ele><time>2026-05-02T06:30:11Z</time></trkpt><trkpt lat="44.23728426398967" lon="11.848035515504982"><ele>187.85714285714286</ele><time>2026-05-02T06:30:13Z</time></trkpt><trkpt lat="44.23732058114752" lon="11.848129451686715"><ele>189.28571428571428</ele><time>2026-05-02T06:30:15Z</time></trkpt><trkpt lat="44.23734312321891" lon="11.848216244188105"><ele>190.71428571428572</ele><time>2026-05-02T06:30:17Z</time></trkpt><trkpt lat="44.237380291213995" lon="11.848303529687243"><ele>192.14285714285714</ele><time>2026-05-02T06:30:20Z</time></trkpt><trkpt lat="44.237403178013196" lon="11.848395132148443"><ele>193.57142857142856</ele><time>2026-05-02T06:30:23Z</time></trkpt><trkpt lat="44.237431246039016" lon="11.848482500443657"><ele>195.0</ele><time>2026-05-02T06:30:27Z</time></trkpt><trkpt lat="44.237452717771916" lon="11.848581978966827"><ele>195.0</ele><time>2026-05-02T06:30:31Z</time></trkpt><trkpt lat="44.23747808472473" lon="11.84867741166512"><ele>195.0</ele><time>2026-05-02T06:30:35Z</time></trkpt><trkpt lat="44.23751282927331" lon="11.848765716066202"><ele>195.0</ele><time>2026-05-02T06:30:39Z</time></trkpt><trkpt lat="44.237545206314785" lon="11.848845311497202"><ele>195.0</ele><time>2026-05-02T06:30:43Z</time></trkpt><trkpt lat="44.23758606930108" lon="11.848922593593615"><ele>195.0</ele><time>2026-05-02T06:30:47Z</time></trkpt><trkpt lat="44.23763074155461" lon="11.848984756793344"><ele>195.0</ele><time>2026-05-02T06:31:51.999Z</time></trkpt><trkpt lat="44.23767687274106" lon="11.849065819222664"><ele>195.0</ele><time>2026-05-02T06:32:32Z</time></trkpt><trkpt lat="44.23770345923766" lon="11.849168502000948"><ele>195.0</ele><time>2026-05-02T06:32:37Z</time></trkpt><trkpt lat="44.23774347232886" lon="11.849238147771503"><ele>195.0</ele><time>2026-05-02T06:32:41Z</time></trkpt><trkpt lat="44.23775597961273" lon="11.849342704729152"><ele>195.0</ele><time>2026-05-02T06:32:46Z</time></trkpt><trkpt lat="44.237798623357676" lon="11.849430306287545"><ele>195.0</ele><time>2026-05-02T06:32:50Z</time></trkpt><trkpt lat="44.237830967336386" lon="11.849528601800232"><ele>195.0</ele><time>2026-05-02T06:32:55Z</time></trkpt><trkpt lat="44.237862501227426" lon="11.849627348182322"><ele>195.0</ele><time>2026-05-02T06:32:59Z</time></trkpt><trkpt lat="44.237892521510624" lon="11.849708907602974"><ele>195.0</ele><time>2026-05-02T06:33:02Z</time></trkpt><trkpt lat="44.23792413865764" lon="11.849813123303473"><ele>193.83333333333334</ele><time>2026-05-02T06:33:06Z</time></trkpt><trkpt lat="44.2379517837498" lon="11.849911906009936"><ele>192.66666666666666</ele><time>2026-05-02T06:33:10Z</time></trkpt><trkpt lat="44.23797378496512" lon="11.8500042017807"><ele>191.5</ele><time>2026-05-02T06:33:13Z</time></trkpt><trkpt lat="44.23799492879093" lon="11.850118409661345"><ele>190.33333333333331</ele><time>2026-05-02T06:33:18Z</time></trkpt><trkpt lat="44.23802440336315" lon="11.85021685617701"><ele>189.16666666666666</ele><time>2026-05-02T06:33:23Z</time></trkpt><trkpt lat="44.238057608185706" lon="11.85032084041856"><ele>188.0</ele><time>2026-05-02T06:33:26.999Z</time></trkpt><trkpt lat="44.23808171726885" lon="11.850419324767767"><ele>187.0</ele><time>2026-05-02T06:33:30.999Z</time></trkpt><trkpt lat="44.23810248860418" lon="11.850508222970278"><ele>186.0</ele><time>2026-05-02T06:33:34.999Z</time></trkpt><trkpt lat="44.23815883959075" lon="11.8505768522783"><ele>185.0</ele><time>2026-05-02T06:33:39.999Z</time></trkpt><trkpt lat="44.23821213998189" lon="11.850644779265469"><ele>184.0</ele><time>2026-05-02T06:33:52.999Z</time></trkpt><trkpt lat="44.23826392602657" lon="11.850698689175468"><ele>183.0</ele><time>2026-05-02T06:33:54.999Z</time></trkpt><trkpt lat="44.2383147231424" lon="11.850760358144449"><ele>182.0</ele><time>2026-05-02T06:33:56.999Z</time></trkpt><trkpt lat="44.23837572798029" lon="11.85082357853129"><ele>181.0</ele><time>2026-05-02T06:33:58.999Z</time></trkpt><trkpt lat="44.23845339100422" lon="11.850894074654274"><ele>183.5</ele><time>2026-05-02T06:34:00.999Z</time></trkpt><trkpt lat="44.23854406897544" lon="11.850972573858035"><ele>186.0</ele><time>2026-05-02T06:34:02.999Z</time></trkpt><trkpt lat="44.23859330791057" lon="11.851038679663722"><ele>188.5</ele><time>2026-05-02T06:34:03.999Z</time></trkpt><trkpt lat="44.23866140701056" lon="11.851114665624191"><ele>191.0</ele><time>2026-05-02T06:34:04.999Z</time></trkpt><trkpt lat="44.23872280135252" lon="11.851201110032314"><ele>193.49999999999997</ele><time>2026-05-02T06:34:05.999Z</time></trkpt><trkpt lat="44.23878474709229" lon="11.851307248810462"><ele>196.0</ele><time>2026-05-02T06:34:06.999Z</time></trkpt><trkpt lat="44.23885251724033" lon="11.851420321222555"><ele>196.0</ele><time>2026-05-02T06:34:07.999Z</time></trkpt><trkpt lat="44.23891690477867" lon="11.851536102821191"><ele>196.0</ele><time>2026-05-02T06:34:08.999Z</time></trkpt><trkpt lat="44.2389763465794" lon="11.851654803932336"><ele>196.0</ele><time>2026-05-02T06:34:10Z</time></trkpt><trkpt lat="44.23902629083158" lon="11.851789025137027"><ele>196.0</ele><time>2026-05-02T06:34:11Z</time></trkpt><trkpt lat="44.239075404876" lon="11.851908390446486"><ele>196.0</ele><time>2026-05-02T06:34:12Z</time></trkpt><trkpt lat="44.239119618684526" lon="11.852009357229207"><ele>193.99999999999997</ele><time>2026-05-02T06:34:13Z</time></trkpt><trkpt lat="44.239157616369326" lon="11.852098708428718"><ele>192.0</ele><time>2026-05-02T06:34:14Z</time></trkpt><trkpt lat="44.23918818595667" lon="11.852181104878914"><ele>190.0</ele><time>2026-05-02T06:34:15Z</time></trkpt><trkpt lat="44.239232199380446" lon="11.852288342273942"><ele>188.0</ele><time>2026-05-02T06:34:17Z</time></trkpt><trkpt lat="44.23932096258153" lon="11.85236177892824"><ele>186.0</ele><time>2026-05-02T06:34:19Z</time></trkpt><trkpt lat="44.239415671324174" lon="11.852437567634299"><ele>184.0</ele><time>2026-05-02T06:34:21Z</time></trkpt><trkpt lat="44.23953167651665" lon="11.852520987231742"><ele>184.0</ele><time>2026-05-02T06:34:23Z</time></trkpt><trkpt lat="44.239640941051015" lon="11.852593522894251"><ele>184.0</ele><time>2026-05-02T06:34:25Z</time></trkpt><trkpt lat="44.23969679157626" lon="11.852639385162577"><ele>184.0</ele><time>2026-05-02T06:34:26Z</time></trkpt><trkpt lat="44.239760868048464" lon="11.852696561056272"><ele>184.0</ele><time>2026-05-02T06:34:27Z</time></trkpt><trkpt lat="44.23982176503807" lon="11.852745304574709"><ele>184.0</ele><time>2026-05-02T06:34:28Z</time></trkpt><trkpt lat="44.23988418709786" lon="11.852792589954252"><ele>184.0</ele><time>2026-05-02T06:34:29Z</time></trkpt><trkpt lat="44.23996406338274" lon="11.852845238957983"><ele>181.0</ele><time>2026-05-02T06:34:30Z</time></trkpt><trkpt lat="44.240049598806365" lon="11.852918244067554"><ele>178.0</ele><time>2026-05-02T06:34:31Z</time></trkpt><trkpt lat="44.240130502148105" lon="11.852987612670095"><ele>175.0</ele><time>2026-05-02T06:34:32Z</time></trkpt><trkpt lat="44.24021378457613" lon="11.853047527916592"><ele>172.0</ele><time>2026-05-02T06:34:33Z</time></trkpt><trkpt lat="44.24029262726522" lon="11.853098522033097"><ele>169.0</ele><time>2026-05-02T06:34:34Z</time></trkpt><trkpt lat="44.24036784954204" lon="11.853149296186944"><ele>169.0</ele><time>2026-05-02T06:34:35Z</time></trkpt><trkpt lat="44.24045997755752" lon="11.85319850364213"><ele>169.0</ele><time>2026-05-02T06:34:36Z</time></trkpt><trkpt lat="44.24053481799955" lon="11.853248981687658"><ele>169.0</ele><time>2026-05-02T06:34:37Z</time></trkpt><trkpt lat="44.24063110174495" lon="11.8533062500912"><ele>169.0</ele><time>2026-05-02T06:34:38Z</time></trkpt><trkpt lat="44.24071546777799" lon="11.853365652294553"><ele>169.0</ele><time>2026-05-02T06:34:39Z</time></trkpt><trkpt lat="44.24081113623686" lon="11.853431913225256"><ele>166.79999999999998</ele><time>2026-05-02T06:34:40Z</time></trkpt><trkpt lat="44.24089199310399" lon="11.853484211328222"><ele>164.6</ele><time>2026-05-02T06:34:41Z</time></trkpt><trkpt lat="44.240955900850764" lon="11.853546063642687"><ele>162.4</ele><time>2026-05-02T06:34:42Z</time></trkpt><trkpt lat="44.24104557989388" lon="11.853642909263367"><ele>160.2</ele><time>2026-05-02T06:34:44Z</time></trkpt><trkpt lat="44.241044106461615" lon="11.853735886091467"><ele>158.0</ele><time>2026-05-02T06:34:45Z</time></trkpt><trkpt lat="44.24111479860825" lon="11.853851979942807"><ele>158.0</ele><time>2026-05-02T06:34:47Z</time></trkpt><trkpt lat="44.24119974611292" lon="11.853924614829564"><ele>158.0</ele><time>2026-05-02T06:34:49Z</time></trkpt><trkpt lat="44.24128923598787" lon="11.854006189645963"><ele>158.0</ele><time>2026-05-02T06:34:51Z</time></trkpt><trkpt lat="44.24136399957116" lon="11.854096745507235"><ele>158.0</ele><time>2026-05-02T06:34:53Z</time></trkpt><trkpt lat="44.2414403323786" lon="11.854203161334324"><ele>158.0</ele><time>2026-05-02T06:34:55Z</time></trkpt><trkpt lat="44.24151868081642" lon="11.854258629349152"><ele>158.42857142857144</ele><time>2026-05-02T06:34:57Z</time></trkpt><trkpt lat="44.24157447031231" lon="11.854342348973377"><ele>158.85714285714286</ele><time>2026-05-02T06:34:59Z</time></trkpt><trkpt lat="44.241615127512" lon="11.85441880498867"><ele>159.28571428571428</ele><time>2026-05-02T06:35:01Z</time></trkpt><trkpt lat="44.2416433910966" lon="11.854519658264966"><ele>159.71428571428572</ele><time>2026-05-02T06:35:06Z</time></trkpt><trkpt lat="44.24166406317992" lon="11.854604458230336"><ele>160.14285714285714</ele><time>2026-05-02T06:35:11Z</time></trkpt><trkpt lat="44.24169239183783" lon="11.854697556613317"><ele>160.57142857142858</ele><time>2026-05-02T06:35:16.999Z</time></trkpt><trkpt lat="44.24172250500496" lon="11.85479479857784"><ele>161.0</ele><time>2026-05-02T06:35:22.999Z</time></trkpt><trkpt lat="44.24174467381912" lon="11.854886377284698"><ele>161.0</ele><time>2026-05-02T06:35:27.999Z</time></trkpt><trkpt lat="44.24178190416906" lon="11.854974099132393"><ele>161.0</ele><time>2026-05-02T06:35:32.999Z</time></trkpt><trkpt lat="44.241807955995604" lon="11.855062114078192"><ele>161.0</ele><time>2026-05-02T06:35:37.999Z</time></trkpt><trkpt lat="44.24183379838815" lon="11.855158184618912"><ele>161.0</ele><time>2026-05-02T06:35:42.999Z</time></trkpt><trkpt lat="44.241868852616896" lon="11.85525057712261"><ele>161.0</ele><time>2026-05-02T06:35:47.999Z</time></trkpt><trkpt lat="44.24189833482903" lon="11.855340520949824"><ele>161.0</ele><time>2026-05-02T06:35:52.999Z</time></trkpt><trkpt lat="44.24192225958582" lon="11.855423825801381"><ele>161.0</ele><time>2026-05-02T06:35:57.999Z</time></trkpt><trkpt lat="44.241950774209464" lon="11.855508842454045"><ele>161.14285714285714</ele><time>2026-05-02T06:36:02.999Z</time></trkpt><trkpt lat="44.24197128886117" lon="11.855605632771445"><ele>161.28571428571428</ele><time>2026-05-02T06:36:07.999Z</time></trkpt><trkpt lat="44.24200232574354" lon="11.85569837364504"><ele>161.42857142857144</ele><time>2026-05-02T06:36:12.999Z</time></trkpt><trkpt lat="44.24203250385742" lon="11.855777051964955"><ele>161.57142857142856</ele><time>2026-05-02T06:36:17Z</time></trkpt><trkpt lat="44.24205308166978" lon="11.855876963266697"><ele>161.71428571428572</ele><time>2026-05-02T06:36:22Z</time></trkpt><trkpt lat="44.242074525006444" lon="11.855975742335096"><ele>161.85714285714286</ele><time>2026-05-02T06:36:27Z</time></trkpt><trkpt lat="44.242115760801724" lon="11.856080653803486"><ele>162.0</ele><time>2026-05-02T06:36:32Z</time></trkpt><trkpt lat="44.24213472586565" lon="11.856178016045089"><ele>162.0</ele><time>2026-05-02T06:36:37Z</time></trkpt><trkpt lat="44.24215822157108" lon="11.856271480081258"><ele>162.0</ele><time>2026-05-02T06:36:41Z</time></trkpt><trkpt lat="44.24218277084193" lon="11.85635481862588"><ele>162.0</ele><time>2026-05-02T06:36:45Z</time></trkpt><trkpt lat="44.24220164639084" lon="11.856441574198437"><ele>162.0</ele><time>2026-05-02T06:36:49Z</time></trkpt><trkpt lat="44.24222734926391" lon="11.856523336497961"><ele>162.0</ele><time>2026-05-02T06:36:52Z</time></trkpt><trkpt lat="44.24225342398445" lon="11.856618154052155"><ele>162.0</ele><time>2026-05-02T06:36:56Z</time></trkpt><trkpt lat="44.24227596238829" lon="11.856712783689673"><ele>162.0</ele><time>2026-05-02T06:37:00Z</time></trkpt><trkpt lat="44.242304573430644" lon="11.856805874279674"><ele>163.85714285714286</ele><time>2026-05-02T06:37:04Z</time></trkpt><trkpt lat="44.24232311510706" lon="11.85689892934492"><ele>165.71428571428572</ele><time>2026-05-02T06:37:08Z</time></trkpt><trkpt lat="44.24234979857533" lon="11.856994125515703"><ele>167.57142857142856</ele><time>2026-05-02T06:37:12Z</time></trkpt><trkpt lat="44.24237203867888" lon="11.85710357659974"><ele>169.42857142857144</ele><time>2026-05-02T06:37:17Z</time></trkpt><trkpt lat="44.24239163481697" lon="11.857201342697122"><ele>171.28571428571428</ele><time>2026-05-02T06:37:21Z</time></trkpt><trkpt lat="44.24240768927351" lon="11.85729477771856"><ele>173.14285714285714</ele><time>2026-05-02T06:37:25Z</time></trkpt><trkpt lat="44.24241690208712" lon="11.857407332642333"><ele>175.0</ele><time>2026-05-02T06:37:28.999Z</time></trkpt><trkpt lat="44.24242330304672" lon="11.857505273913763"><ele>174.83333333333334</ele><time>2026-05-02T06:37:31.999Z</time></trkpt><trkpt lat="44.2424264503026" lon="11.857619489484122"><ele>174.66666666666669</ele><time>2026-05-02T06:37:34.999Z</time></trkpt><trkpt lat="44.242439566850166" lon="11.857707698091437"><ele>174.5</ele><time>2026-05-02T06:37:36.999Z</time></trkpt><trkpt lat="44.24245725444148" lon="11.857820403424299"><ele>174.33333333333334</ele><time>2026-05-02T06:37:39.999Z</time></trkpt><trkpt lat="44.24248436182348" lon="11.857952258832722"><ele>174.16666666666666</ele><time>2026-05-02T06:37:42.999Z</time></trkpt><trkpt lat="44.24250474586506" lon="11.85805509272187"><ele>174.0</ele><time>2026-05-02T06:37:44.999Z</time></trkpt><trkpt lat="44.242520885979715" lon="11.858169562411897"><ele>174.0</ele><time>2026-05-02T06:37:46.999Z</time></trkpt><trkpt lat="44.242552145901364" lon="11.858291548072499"><ele>174.0</ele><time>2026-05-02T06:37:48.999Z</time></trkpt><trkpt lat="44.24260859281549" lon="11.85842199902198"><ele>174.0</ele><time>2026-05-02T06:37:50.999Z</time></trkpt><trkpt lat="44.24266179690057" lon="11.858554566626799"><ele>174.0</ele><time>2026-05-02T06:37:52.999Z</time></trkpt><trkpt lat="44.242683902154425" lon="11.858640252953673"><ele>174.0</ele><time>2026-05-02T06:37:53.999Z</time></trkpt><trkpt lat="44.24272999349883" lon="11.858703405986319"><ele>174.0</ele><time>2026-05-02T06:37:54.999Z</time></trkpt><trkpt lat="44.24275809244448" lon="11.858801033265664"><ele>172.16666666666666</ele><time>2026-05-02T06:37:55.999Z</time></trkpt><trkpt lat="44.242797020495395" lon="11.858885395945189"><ele>170.33333333333334</ele><time>2026-05-02T06:37:56.999Z</time></trkpt><trkpt lat="44.242859463653055" lon="11.858951663086973"><ele>168.5</ele><time>2026-05-02T06:37:57.999Z</time></trkpt><trkpt lat="44.24290215817911" lon="11.859032026109418"><ele>166.66666666666669</ele><time>2026-05-02T06:37:58.999Z</time></trkpt><trkpt lat="44.24295332112707" lon="11.859116253547421"><ele>164.83333333333334</ele><time>2026-05-02T06:37:59.999Z</time></trkpt><trkpt lat="44.243007591232676" lon="11.859200036937152"><ele>163.0</ele><time>2026-05-02T06:38:00.999Z</time></trkpt><trkpt lat="44.24306653120098" lon="11.859280779034767"><ele>162.8</ele><time>2026-05-02T06:38:01.999Z</time></trkpt><trkpt lat="44.2431254469032" lon="11.859365822537516"><ele>162.60000000000002</ele><time>2026-05-02T06:38:02.999Z</time></trkpt><trkpt lat="44.24318784211106" lon="11.859459438672578"><ele>162.39999999999998</ele><time>2026-05-02T06:38:03.999Z</time></trkpt><trkpt lat="44.24325470483445" lon="11.859556206415045"><ele>162.2</ele><time>2026-05-02T06:38:04.999Z</time></trkpt><trkpt lat="44.24332624379849" lon="11.859659670405728"><ele>162.0</ele><time>2026-05-02T06:38:05.999Z</time></trkpt><trkpt lat="44.24339012092124" lon="11.859756240415287"><ele>162.0</ele><time>2026-05-02T06:38:06.999Z</time></trkpt><trkpt lat="44.243449802327206" lon="11.859840947455345"><ele>162.0</ele><time>2026-05-02T06:38:07.999Z</time></trkpt><trkpt lat="44.243509004197236" lon="11.859915178489008"><ele>162.0</ele><time>2026-05-02T06:38:08.999Z</time></trkpt><trkpt lat="44.24356855757984" lon="11.8599876196785"><ele>162.0</ele><time>2026-05-02T06:38:09.999Z</time></trkpt><trkpt lat="44.24363797589404" lon="11.860040053972938"><ele>162.0</ele><time>2026-05-02T06:38:10.999Z</time></trkpt><trkpt lat="44.243714773324946" lon="11.860075330390238"><ele>162.0</ele><time>2026-05-02T06:38:11.999Z</time></trkpt><trkpt lat="44.24379793274989" lon="11.860108856421425"><ele>161.4</ele><time>2026-05-02T06:38:12.999Z</time></trkpt><trkpt lat="44.24387802397413" lon="11.860169359246253"><ele>160.79999999999998</ele><time>2026-05-02T06:38:13.999Z</time></trkpt><trkpt lat="44.24396482116553" lon="11.860194486092682"><ele>160.2</ele><time>2026-05-02T06:38:14.999Z</time></trkpt><trkpt lat="44.244049771275186" lon="11.860250975909153"><ele>159.6</ele><time>2026-05-02T06:38:15.999Z</time></trkpt><trkpt lat="44.244141807708374" lon="11.860311311693405"><ele>159.0</ele><time>2026-05-02T06:38:16.999Z</time></trkpt><trkpt lat="44.24424111625147" lon="11.860382736875147"><ele>159.0</ele><time>2026-05-02T06:38:17.999Z</time></trkpt><trkpt lat="44.244346962117355" lon="11.860452667335647"><ele>159.0</ele><time>2026-05-02T06:38:18.999Z</time></trkpt><trkpt lat="44.244461729776795" lon="11.860527490519242"><ele>159.0</ele><time>2026-05-02T06:38:19.999Z</time></trkpt><trkpt lat="44.244575730313265" lon="11.860600484726612"><ele>159.0</ele><time>2026-05-02T06:38:20.999Z</time></trkpt><trkpt lat="44.24468366699032" lon="11.860666701134258"><ele>159.0</ele><time>2026-05-02T06:38:22Z</time></trkpt><trkpt lat="44.244775445111735" lon="11.86073722544092"><ele>159.0</ele><time>2026-05-02T06:38:23Z</time></trkpt><trkpt lat="44.24487376937004" lon="11.860814514882515"><ele>159.0</ele><time>2026-05-02T06:38:24Z</time></trkpt><trkpt lat="44.24494008146352" lon="11.860944189330397"><ele>159.0</ele><time>2026-05-02T06:38:25Z</time></trkpt><trkpt lat="44.245006176631094" lon="11.861069837882477"><ele>159.0</ele><time>2026-05-02T06:38:26Z</time></trkpt><trkpt lat="44.24505843815531" lon="11.86120584928096"><ele>156.0</ele><time>2026-05-02T06:38:27Z</time></trkpt><trkpt lat="44.245094674643255" lon="11.861345630279514"><ele>153.0</ele><time>2026-05-02T06:38:28Z</time></trkpt><trkpt lat="44.24512440338478" lon="11.86149221414392"><ele>150.0</ele><time>2026-05-02T06:38:29Z</time></trkpt><trkpt lat="44.245151111034495" lon="11.86163590832011"><ele>147.0</ele><time>2026-05-02T06:38:30Z</time></trkpt><trkpt lat="44.24518682407872" lon="11.861777986862764"><ele>144.0</ele><time>2026-05-02T06:38:31Z</time></trkpt><trkpt lat="44.24517352793218" lon="11.86192639899311"><ele>142.8</ele><time>2026-05-02T06:38:32Z</time></trkpt><trkpt lat="44.24517598348651" lon="11.862077006403013"><ele>141.60000000000002</ele><time>2026-05-02T06:38:33Z</time></trkpt><trkpt lat="44.24517852343016" lon="11.862232789519688"><ele>140.4</ele><time>2026-05-02T06:38:34Z</time></trkpt><trkpt lat="44.24519465776938" lon="11.862389675356981"><ele>139.20000000000002</ele><time>2026-05-02T06:38:35Z</time></trkpt><trkpt lat="44.245200356515674" lon="11.862538632877746"><ele>138.0</ele><time>2026-05-02T06:38:36Z</time></trkpt><trkpt lat="44.245194303178735" lon="11.862687672862954"><ele>137.4</ele><time>2026-05-02T06:38:37Z</time></trkpt><trkpt lat="44.245200357285135" lon="11.86283301427883"><ele>136.8</ele><time>2026-05-02T06:38:38Z</time></trkpt><trkpt lat="44.245206237707" lon="11.86297456432254"><ele>136.2</ele><time>2026-05-02T06:38:39Z</time></trkpt><trkpt lat="44.24521526238882" lon="11.863113561479729"><ele>135.6</ele><time>2026-05-02T06:38:40Z</time></trkpt><trkpt lat="44.245226011561634" lon="11.863257046964018"><ele>135.0</ele><time>2026-05-02T06:38:41Z</time></trkpt><trkpt lat="44.24523749341194" lon="11.863403754023167"><ele>134.0</ele><time>2026-05-02T06:38:42Z</time></trkpt><trkpt lat="44.24525850182411" lon="11.863547346075594"><ele>133.0</ele><time>2026-05-02T06:38:43Z</time></trkpt><trkpt lat="44.24528965494827" lon="11.863687300906253"><ele>132.0</ele><time>2026-05-02T06:38:44Z</time></trkpt><trkpt lat="44.245309096943984" lon="11.863825651907202"><ele>131.0</ele><time>2026-05-02T06:38:45Z</time></trkpt><trkpt lat="44.24533721588834" lon="11.863970827969375"><ele>130.0</ele><time>2026-05-02T06:38:46Z</time></trkpt><trkpt lat="44.245370912502345" lon="11.864104046257458"><ele>130.0</ele><time>2026-05-02T06:38:47Z</time></trkpt><trkpt lat="44.24539778366235" lon="11.86422495325076"><ele>130.0</ele><time>2026-05-02T06:38:48Z</time></trkpt><trkpt lat="44.24542307390766" lon="11.864339500397099"><ele>130.0</ele><time>2026-05-02T06:38:49Z</time></trkpt><trkpt lat="44.245442043747516" lon="11.864447551800467"><ele>130.0</ele><time>2026-05-02T06:38:50Z</time></trkpt><trkpt lat="44.245470883487485" lon="11.864548088192102"><ele>130.0</ele><time>2026-05-02T06:38:51Z</time></trkpt><trkpt lat="44.2455101473184" lon="11.864625389143706"><ele>130.0</ele><time>2026-05-02T06:38:52Z</time></trkpt><trkpt lat="44.24557878545021" lon="11.8646782042293"><ele>130.16666666666669</ele><time>2026-05-02T06:38:53Z</time></trkpt><trkpt lat="44.24565633736406" lon="11.864697094521839"><ele>130.33333333333334</ele><time>2026-05-02T06:38:54Z</time></trkpt><trkpt lat="44.24572706799168" lon="11.86465672302583"><ele>130.5</ele><time>2026-05-02T06:38:55Z</time></trkpt><trkpt lat="44.24578723276485" lon="11.864758760922212"><ele>130.66666666666666</ele><time>2026-05-02T06:38:56Z</time></trkpt><trkpt lat="44.24581870619469" lon="11.864877037236925"><ele>130.83333333333331</ele><time>2026-05-02T06:38:57Z</time></trkpt><trkpt lat="44.24583629100157" lon="11.864986509907467"><ele>131.0</ele><time>2026-05-02T06:38:58Z</time></trkpt><trkpt lat="44.24584469812015" lon="11.865089865988798"><ele>130.57142857142858</ele><time>2026-05-02T06:38:59Z</time></trkpt><trkpt lat="44.24584857121734" lon="11.865191694122236"><ele>130.14285714285717</ele><time>2026-05-02T06:39:00Z</time></trkpt><trkpt lat="44.245845915284065" lon="11.865285721694585"><ele>129.71428571428572</ele><time>2026-05-02T06:39:01Z</time></trkpt><trkpt lat="44.2458447544569" lon="11.865375803227234"><ele>129.28571428571428</ele><time>2026-05-02T06:39:02Z</time></trkpt><trkpt lat="44.2458500568113" lon="11.865465955977765"><ele>128.85714285714283</ele><time>2026-05-02T06:39:03Z</time></trkpt><trkpt lat="44.245850392118996" lon="11.865560574134763"><ele>128.42857142857142</ele><time>2026-05-02T06:39:04Z</time></trkpt><trkpt lat="44.245853250272056" lon="11.865655689614092"><ele>128.0</ele><time>2026-05-02T06:39:05Z</time></trkpt><trkpt lat="44.245855503369974" lon="11.865745552309702"><ele>128.0</ele><time>2026-05-02T06:39:06Z</time></trkpt><trkpt lat="44.24585535128307" lon="11.865842243487474"><ele>127.99999999999999</ele><time>2026-05-02T06:39:07Z</time></trkpt><trkpt lat="44.24585990357315" lon="11.865942264823289"><ele>128.0</ele><time>2026-05-02T06:39:08Z</time></trkpt><trkpt lat="44.24586604807993" lon="11.866043789216492"><ele>128.0</ele><time>2026-05-02T06:39:09Z</time></trkpt><trkpt lat="44.24587070416242" lon="11.866149808834487"><ele>127.99999999999999</ele><time>2026-05-02T06:39:10Z</time></trkpt><trkpt lat="44.24587263151719" lon="11.866258735557384"><ele>128.0</ele><time>2026-05-02T06:39:11Z</time></trkpt><trkpt lat="44.24587933935511" lon="11.866369276533613"><ele>128.0</ele><time>2026-05-02T06:39:12Z</time></trkpt><trkpt lat="44.245883170007616" lon="11.86648425206744"><ele>127.83333333333333</ele><time>2026-05-02T06:39:13Z</time></trkpt><trkpt lat="44.24588818649321" lon="11.866600404596085"><ele>127.66666666666666</ele><time>2026-05-02T06:39:14Z</time></trkpt><trkpt lat="44.245892990562986" lon="11.86672296922137"><ele>127.5</ele><time>2026-05-02T06:39:15Z</time></trkpt><trkpt lat="44.24590341574762" lon="11.866843953081878"><ele>127.33333333333334</ele><time>2026-05-02T06:39:16Z</time></trkpt><trkpt lat="44.24591058715285" lon="11.866969886905757"><ele>127.16666666666667</ele><time>2026-05-02T06:39:17Z</time></trkpt><trkpt lat="44.24592082773178" lon="11.867101009535205"><ele>127.0</ele><time>2026-05-02T06:39:18Z</time></trkpt><trkpt lat="44.245932694414925" lon="11.867231548098642"><ele>126.6</ele><time>2026-05-02T06:39:19Z</time></trkpt><trkpt lat="44.24594574652333" lon="11.867364308468336"><ele>126.19999999999999</ele><time>2026-05-02T06:39:20Z</time></trkpt><trkpt lat="44.245959352439954" lon="11.867498234564868"><ele>125.8</ele><time>2026-05-02T06:39:21Z</time></trkpt><trkpt lat="44.24597410649554" lon="11.867636081904498"><ele>125.4</ele><time>2026-05-02T06:39:22Z</time></trkpt><trkpt lat="44.24598901425572" lon="11.86777541595346"><ele>125.0</ele><time>2026-05-02T06:39:23Z</time></trkpt><trkpt lat="44.24600519760787" lon="11.867921698486018"><ele>124.2</ele><time>2026-05-02T06:39:24Z</time></trkpt><trkpt lat="44.24602143297152" lon="11.868069628422079"><ele>123.4</ele><time>2026-05-02T06:39:25Z</time></trkpt><trkpt lat="44.24603748159883" lon="11.868215819281952"><ele>122.6</ele><time>2026-05-02T06:39:26Z</time></trkpt><trkpt lat="44.24605223343244" lon="11.868364421309455"><ele>121.8</ele><time>2026-05-02T06:39:27Z</time></trkpt><trkpt lat="44.24606682190897" lon="11.868513573328224"><ele>121.0</ele><time>2026-05-02T06:39:28Z</time></trkpt><trkpt lat="44.246079942568834" lon="11.8686657189031"><ele>119.75</ele><time>2026-05-02T06:39:29Z</time></trkpt><trkpt lat="44.24609362203084" lon="11.868819471987829"><ele>118.5</ele><time>2026-05-02T06:39:30Z</time></trkpt><trkpt lat="44.24611126452808" lon="11.868975342935563"><ele>117.25</ele><time>2026-05-02T06:39:31Z</time></trkpt><trkpt lat="44.24612565793426" lon="11.869131493898374"><ele>116.0</ele><time>2026-05-02T06:39:32Z</time></trkpt><trkpt lat="44.24614143306665" lon="11.869287383791695"><ele>114.8</ele><time>2026-05-02T06:39:33Z</time></trkpt><trkpt lat="44.24615546132992" lon="11.869440027500127"><ele>113.6</ele><time>2026-05-02T06:39:34Z</time></trkpt><trkpt lat="44.246164173162754" lon="11.869595937872155"><ele>112.4</ele><time>2026-05-02T06:39:35Z</time></trkpt><trkpt lat="44.24617627778674" lon="11.869749805818534"><ele>111.2</ele><time>2026-05-02T06:39:36Z</time></trkpt><trkpt lat="44.246191328251946" lon="11.869901785993065"><ele>110.0</ele><time>2026-05-02T06:39:37Z</time></trkpt><trkpt lat="44.24620725850307" lon="11.870048091638164"><ele>108.4</ele><time>2026-05-02T06:39:38Z</time></trkpt><trkpt lat="44.24623027802442" lon="11.870194878262819"><ele>106.8</ele><time>2026-05-02T06:39:39Z</time></trkpt><trkpt lat="44.24627743710113" lon="11.870336068923478"><ele>105.19999999999999</ele><time>2026-05-02T06:39:40Z</time></trkpt><trkpt lat="44.24633361910459" lon="11.870461747701697"><ele>103.6</ele><time>2026-05-02T06:39:41Z</time></trkpt><trkpt lat="44.24638551831614" lon="11.870587834400588"><ele>102.0</ele><time>2026-05-02T06:39:42Z</time></trkpt><trkpt lat="44.24643380436199" lon="11.870714851550284"><ele>103.19999999999999</ele><time>2026-05-02T06:39:42.999Z</time></trkpt><trkpt lat="44.24648510969156" lon="11.870845080508843"><ele>104.4</ele><time>2026-05-02T06:39:43.999Z</time></trkpt><trkpt lat="44.246531805129884" lon="11.870977657934626"><ele>105.60000000000001</ele><time>2026-05-02T06:39:44.999Z</time></trkpt><trkpt lat="44.24657613717731" lon="11.871111117289045"><ele>106.80000000000001</ele><time>2026-05-02T06:39:45.999Z</time></trkpt><trkpt lat="44.246616895114556" lon="11.871240367914904"><ele>108.0</ele><time>2026-05-02T06:39:46.999Z</time></trkpt><trkpt lat="44.24666030291327" lon="11.87137032853207"><ele>108.0</ele><time>2026-05-02T06:39:47.999Z</time></trkpt><trkpt lat="44.24670009243925" lon="11.871498567636758"><ele>108.00000000000001</ele><time>2026-05-02T06:39:48.999Z</time></trkpt><trkpt lat="44.246743734569506" lon="11.871624702609072"><ele>108.00000000000001</ele><time>2026-05-02T06:39:49.999Z</time></trkpt><trkpt lat="44.24678893237511" lon="11.871750153007167"><ele>108.0</ele><time>2026-05-02T06:39:50.999Z</time></trkpt><trkpt lat="44.24682650041134" lon="11.871878071034525"><ele>108.0</ele><time>2026-05-02T06:39:51.999Z</time></trkpt><trkpt lat="44.24686984840922" lon="11.87200598767742"><ele>107.4</ele><time>2026-05-02T06:39:52.999Z</time></trkpt><trkpt lat="44.24691241542323" lon="11.872129116553708"><ele>106.80000000000001</ele><time>2026-05-02T06:39:53.999Z</time></trkpt><trkpt lat="44.24695263661669" lon="11.87225802703828"><ele>106.2</ele><time>2026-05-02T06:39:54.999Z</time></trkpt><trkpt lat="44.246994132424845" lon="11.87238555042329"><ele>105.6</ele><time>2026-05-02T06:39:55.999Z</time></trkpt><trkpt lat="44.24703290942567" lon="11.872510273102113"><ele>105.0</ele><time>2026-05-02T06:39:56.999Z</time></trkpt><trkpt lat="44.24707017172597" lon="11.87263756977052"><ele>103.4</ele><time>2026-05-02T06:39:57.999Z</time></trkpt><trkpt lat="44.2471065596809" lon="11.8727644329299"><ele>101.8</ele><time>2026-05-02T06:39:58.999Z</time></trkpt><trkpt lat="44.24714404794028" lon="11.872891720096893"><ele>100.19999999999999</ele><time>2026-05-02T06:39:59.999Z</time></trkpt><trkpt lat="44.24718630182193" lon="11.87301553042129"><ele>98.6</ele><time>2026-05-02T06:40:00.999Z</time></trkpt><trkpt lat="44.247227419684805" lon="11.873141954070064"><ele>97.0</ele><time>2026-05-02T06:40:01.999Z</time></trkpt><trkpt lat="44.24726645655037" lon="11.873268122326035"><ele>98.6</ele><time>2026-05-02T06:40:02.999Z</time></trkpt><trkpt lat="44.2473047423664" lon="11.873392731638749"><ele>100.19999999999999</ele><time>2026-05-02T06:40:03.999Z</time></trkpt><trkpt lat="44.24734221886076" lon="11.873515081416636"><ele>101.8</ele><time>2026-05-02T06:40:04.999Z</time></trkpt><trkpt lat="44.24738200548486" lon="11.873634979861524"><ele>103.4</ele><time>2026-05-02T06:40:05.999Z</time></trkpt><trkpt lat="44.247420358728625" lon="11.873756198868323"><ele>105.0</ele><time>2026-05-02T06:40:06.999Z</time></trkpt><trkpt lat="44.24745686034373" lon="11.873875989947733"><ele>105.0</ele><time>2026-05-02T06:40:07.999Z</time></trkpt><trkpt lat="44.24749543390681" lon="11.873988829657073"><ele>105.0</ele><time>2026-05-02T06:40:08.999Z</time></trkpt><trkpt lat="44.247528735983494" lon="11.874100170876643"><ele>105.0</ele><time>2026-05-02T06:40:09.999Z</time></trkpt><trkpt lat="44.247561495520266" lon="11.874208776574308"><ele>105.0</ele><time>2026-05-02T06:40:10.999Z</time></trkpt><trkpt lat="44.24759024462728" lon="11.874301384512167"><ele>105.0</ele><time>2026-05-02T06:40:11.999Z</time></trkpt><trkpt lat="44.247612949232746" lon="11.874432733410778"><ele>105.0</ele><time>2026-05-02T06:40:13.999Z</time></trkpt><trkpt lat="44.247556208255496" lon="11.874532678174383"><ele>104.4</ele><time>2026-05-02T06:40:14.999Z</time></trkpt><trkpt lat="44.24752024808298" lon="11.874693887473935"><ele>103.8</ele><time>2026-05-02T06:40:16.999Z</time></trkpt><trkpt lat="44.24749428422134" lon="11.874796926455588"><ele>103.19999999999999</ele><time>2026-05-02T06:40:17.999Z</time></trkpt><trkpt lat="44.247493832263196" lon="11.87489077201833"><ele>102.6</ele><time>2026-05-02T06:40:18.999Z</time></trkpt><trkpt lat="44.2474824532886" lon="11.874980898331774"><ele>102.0</ele><time>2026-05-02T06:40:19.999Z</time></trkpt><trkpt lat="44.247460937525496" lon="11.875153371342993"><ele>101.19999999999999</ele><time>2026-05-02T06:40:21.999Z</time></trkpt><trkpt lat="44.24743267518712" lon="11.875318672527289"><ele>100.4</ele><time>2026-05-02T06:40:23.999Z</time></trkpt><trkpt lat="44.24742135732949" lon="11.875415797558363"><ele>99.6</ele><time>2026-05-02T06:40:24.999Z</time></trkpt><trkpt lat="44.247397633030964" lon="11.87558004536941"><ele>98.80000000000001</ele><time>2026-05-02T06:40:26.999Z</time></trkpt><trkpt lat="44.247365599947216" lon="11.875734315537429"><ele>98.0</ele><time>2026-05-02T06:40:29Z</time></trkpt><trkpt lat="44.24734306321251" lon="11.875907159123045"><ele>98.2</ele><time>2026-05-02T06:40:31Z</time></trkpt><trkpt lat="44.2473242909657" lon="11.876052566546504"><ele>98.4</ele><time>2026-05-02T06:40:33Z</time></trkpt><trkpt lat="44.2473186998455" lon="11.876215693817509"><ele>98.60000000000001</ele><time>2026-05-02T06:40:35Z</time></trkpt><trkpt lat="44.24728310751978" lon="11.876363244981667"><ele>98.80000000000001</ele><time>2026-05-02T06:40:37Z</time></trkpt><trkpt lat="44.247261799887966" lon="11.876519432667141"><ele>99.0</ele><time>2026-05-02T06:40:39Z</time></trkpt><trkpt lat="44.247253858030405" lon="11.876670047039514"><ele>95.0</ele><time>2026-05-02T06:40:41Z</time></trkpt><trkpt lat="44.24721310631875" lon="11.876819499444517"><ele>91.0</ele><time>2026-05-02T06:40:43Z</time></trkpt><trkpt lat="44.2471942026131" lon="11.876981274376455"><ele>87.0</ele><time>2026-05-02T06:40:45Z</time></trkpt><trkpt lat="44.24717675508609" lon="11.877142514636768"><ele>83.0</ele><time>2026-05-02T06:40:47Z</time></trkpt><trkpt lat="44.247168672751705" lon="11.877325701219236"><ele>83.0</ele><time>2026-05-02T06:40:49Z</time></trkpt><trkpt lat="44.2471605583551" lon="11.877420179674065"><ele>83.0</ele><time>2026-05-02T06:40:50Z</time></trkpt><trkpt lat="44.24715391650563" lon="11.877508516659258"><ele>83.0</ele><time>2026-05-02T06:40:51Z</time></trkpt><trkpt lat="44.24713045960719" lon="11.877590579273994"><ele>83.0</ele><time>2026-05-02T06:40:52Z</time></trkpt><trkpt lat="44.247129699035554" lon="11.877701865733487"><ele>83.0</ele><time>2026-05-02T06:40:53Z</time></trkpt><trkpt lat="44.24711068439591" lon="11.877877705088183"><ele>83.0</ele><time>2026-05-02T06:40:55Z</time></trkpt><trkpt lat="44.24710812350018" lon="11.877969220746916"><ele>82.66666666666667</ele><time>2026-05-02T06:40:56Z</time></trkpt><trkpt lat="44.24709513372891" lon="11.878068440206127"><ele>82.33333333333334</ele><time>2026-05-02T06:40:57Z</time></trkpt><trkpt lat="44.24708845098977" lon="11.878256870907132"><ele>82.0</ele><time>2026-05-02T06:40:59Z</time></trkpt><trkpt lat="44.2470812379816" lon="11.878348114898394"><ele>81.66666666666667</ele><time>2026-05-02T06:41:00Z</time></trkpt><trkpt lat="44.247073267030856" lon="11.878439964142634"><ele>81.33333333333333</ele><time>2026-05-02T06:41:01Z</time></trkpt><trkpt lat="44.247065465892724" lon="11.8785403973792"><ele>81.0</ele><time>2026-05-02T06:41:02Z</time></trkpt><trkpt lat="44.24705689660967" lon="11.878646210038797"><ele>80.83333333333333</ele><time>2026-05-02T06:41:03Z</time></trkpt><trkpt lat="44.2470557432723" lon="11.878750810100476"><ele>80.66666666666667</ele><time>2026-05-02T06:41:04Z</time></trkpt><trkpt lat="44.24705530175257" lon="11.8788428933628"><ele>80.5</ele><time>2026-05-02T06:41:05Z</time></trkpt><trkpt lat="44.247033171659794" lon="11.878956178602044"><ele>80.33333333333334</ele><time>2026-05-02T06:41:06Z</time></trkpt><trkpt lat="44.2470199840445" lon="11.879074414938696"><ele>80.16666666666667</ele><time>2026-05-02T06:41:07Z</time></trkpt><trkpt lat="44.246994238219145" lon="11.879187389960798"><ele>80.0</ele><time>2026-05-02T06:41:08Z</time></trkpt><trkpt lat="44.246978223443946" lon="11.879298542758344"><ele>80.0</ele><time>2026-05-02T06:41:09Z</time></trkpt><trkpt lat="44.246959920877615" lon="11.879402970191297"><ele>80.0</ele><time>2026-05-02T06:41:10Z</time></trkpt><trkpt lat="44.24694237142548" lon="11.879501410373026"><ele>80.0</ele><time>2026-05-02T06:41:11Z</time></trkpt><trkpt lat="44.24691046536348" lon="11.879582890787942"><ele>80.0</ele><time>2026-05-02T06:41:12Z</time></trkpt><trkpt lat="44.246871835109324" lon="11.879688706716095"><ele>80.0</ele><time>2026-05-02T06:41:13Z</time></trkpt><trkpt lat="44.246854250417165" lon="11.879825483919333"><ele>80.0</ele><time>2026-05-02T06:41:15Z</time></trkpt><trkpt lat="44.24679957505286" lon="11.879966841011353"><ele>79.8</ele><time>2026-05-02T06:41:17Z</time></trkpt><trkpt lat="44.246749007242" lon="11.880113861099975"><ele>79.6</ele><time>2026-05-02T06:41:19Z</time></trkpt><trkpt lat="44.246721458924824" lon="11.880260390831884"><ele>79.4</ele><time>2026-05-02T06:41:21Z</time></trkpt><trkpt lat="44.24672604120111" lon="11.880402556082966"><ele>79.2</ele><time>2026-05-02T06:41:23Z</time></trkpt><trkpt lat="44.24671073740631" lon="11.880566026657256"><ele>79.0</ele><time>2026-05-02T06:41:25Z</time></trkpt><trkpt lat="44.246690353123036" lon="11.880659869228749"><ele>79.0</ele><time>2026-05-02T06:41:26Z</time></trkpt><trkpt lat="44.24666695669474" lon="11.880760699289583"><ele>79.0</ele><time>2026-05-02T06:41:27Z</time></trkpt><trkpt lat="44.24665390471471" lon="11.880867642790742"><ele>79.0</ele><time>2026-05-02T06:41:28Z</time></trkpt><trkpt lat="44.246642488807296" lon="11.880986555279259"><ele>79.0</ele><time>2026-05-02T06:41:29Z</time></trkpt><trkpt lat="44.24663343192997" lon="11.881100453016717"><ele>79.0</ele><time>2026-05-02T06:41:30Z</time></trkpt><trkpt lat="44.24662287915881" lon="11.881215624423794"><ele>79.0</ele><time>2026-05-02T06:41:31Z</time></trkpt><trkpt lat="44.24661402286935" lon="11.881323300431823"><ele>79.0</ele><time>2026-05-02T06:41:32Z</time></trkpt><trkpt lat="44.2466109874328" lon="11.881435471836093"><ele>79.0</ele><time>2026-05-02T06:41:33Z</time></trkpt><trkpt lat="44.24661603964321" lon="11.881547914805758"><ele>79.0</ele><time>2026-05-02T06:41:34Z</time></trkpt><trkpt lat="44.2466356715303" lon="11.881651589436451"><ele>79.0</ele><time>2026-05-02T06:41:35Z</time></trkpt><trkpt lat="44.246662340856766" lon="11.881753983274532"><ele>79.0</ele><time>2026-05-02T06:41:36Z</time></trkpt><trkpt lat="44.246698241898" lon="11.88185078412276"><ele>79.0</ele><time>2026-05-02T06:41:37Z</time></trkpt><trkpt lat="44.24674305892277" lon="11.881940524484126"><ele>78.66666666666666</ele><time>2026-05-02T06:41:38Z</time></trkpt><trkpt lat="44.24678671316486" lon="11.88203099125637"><ele>78.33333333333333</ele><time>2026-05-02T06:41:39Z</time></trkpt><trkpt lat="44.24682310301603" lon="11.882119701691181"><ele>78.0</ele><time>2026-05-02T06:41:40Z</time></trkpt><trkpt lat="44.24686384799225" lon="11.882216372555497"><ele>77.66666666666667</ele><time>2026-05-02T06:41:41Z</time></trkpt><trkpt lat="44.24690519276459" lon="11.882305769408227"><ele>77.33333333333334</ele><time>2026-05-02T06:41:42Z</time></trkpt><trkpt lat="44.2469460972482" lon="11.882409555204008"><ele>77.0</ele><time>2026-05-02T06:41:43Z</time></trkpt><trkpt lat="44.24698082549669" lon="11.882505185185568"><ele>76.2</ele><time>2026-05-02T06:41:44Z</time></trkpt><trkpt lat="44.247022113231594" lon="11.882602334061994"><ele>75.4</ele><time>2026-05-02T06:41:45Z</time></trkpt><trkpt lat="44.24706116259762" lon="11.882712396509072"><ele>74.6</ele><time>2026-05-02T06:41:46Z</time></trkpt><trkpt lat="44.24709484916674" lon="11.882836855243447"><ele>73.8</ele><time>2026-05-02T06:41:47Z</time></trkpt><trkpt lat="44.247117050155545" lon="11.882966474073173"><ele>73.0</ele><time>2026-05-02T06:41:48Z</time></trkpt><trkpt lat="44.24714859948733" lon="11.883088055553841"><ele>73.0</ele><time>2026-05-02T06:41:49Z</time></trkpt><trkpt lat="44.247179856577" lon="11.883208510903039"><ele>73.0</ele><time>2026-05-02T06:41:50Z</time></trkpt><trkpt lat="44.24721288734871" lon="11.883335801442504"><ele>73.0</ele><time>2026-05-02T06:41:51Z</time></trkpt><trkpt lat="44.24726321236433" lon="11.883459372645103"><ele>73.0</ele><time>2026-05-02T06:41:52Z</time></trkpt><trkpt lat="44.247281974577966" lon="11.883589791737878"><ele>73.0</ele><time>2026-05-02T06:41:53Z</time></trkpt><trkpt lat="44.24731229194289" lon="11.883699614923087"><ele>72.0</ele><time>2026-05-02T06:41:54Z</time></trkpt><trkpt lat="44.24734159731046" lon="11.883805772115055"><ele>71.0</ele><time>2026-05-02T06:41:55Z</time></trkpt><trkpt lat="44.24736790302649" lon="11.88390106323777"><ele>70.0</ele><time>2026-05-02T06:41:56Z</time></trkpt><trkpt lat="44.24739013242406" lon="11.883984849904753"><ele>69.0</ele><time>2026-05-02T06:41:57Z</time></trkpt><trkpt lat="44.24741729723874" lon="11.884099217649919"><ele>68.0</ele><time>2026-05-02T06:41:59Z</time></trkpt><trkpt lat="44.24743126405613" lon="11.884185943156663"><ele>67.0</ele><time>2026-05-02T06:42:06.999Z</time></trkpt><trkpt lat="44.24744866741238" lon="11.884312739610046"><ele>66.4</ele><time>2026-05-02T06:42:09.999Z</time></trkpt><trkpt lat="44.247461778387226" lon="11.88442303325621"><ele>65.80000000000001</ele><time>2026-05-02T06:42:11.999Z</time></trkpt><trkpt lat="44.24745062628066" lon="11.884566435112523"><ele>65.2</ele><time>2026-05-02T06:42:13.999Z</time></trkpt><trkpt lat="44.24744460690667" lon="11.884723090232603"><ele>64.60000000000001</ele><time>2026-05-02T06:42:15.999Z</time></trkpt><trkpt lat="44.24742995719441" lon="11.88487484158969"><ele>64.0</ele><time>2026-05-02T06:42:17.999Z</time></trkpt><trkpt lat="44.24741531909982" lon="11.885021191032193"><ele>64.0</ele><time>2026-05-02T06:42:19.999Z</time></trkpt><trkpt lat="44.24739544022132" lon="11.885165385907412"><ele>64.0</ele><time>2026-05-02T06:42:21.999Z</time></trkpt><trkpt lat="44.24737336572144" lon="11.885319068598816"><ele>64.0</ele><time>2026-05-02T06:42:23.999Z</time></trkpt><trkpt lat="44.247357052147215" lon="11.885485193234878"><ele>64.0</ele><time>2026-05-02T06:42:25.999Z</time></trkpt><trkpt lat="44.24733247667902" lon="11.88564528880695"><ele>64.0</ele><time>2026-05-02T06:42:27.999Z</time></trkpt><trkpt lat="44.24730629599397" lon="11.885807679161555"><ele>64.0</ele><time>2026-05-02T06:42:29.999Z</time></trkpt><trkpt lat="44.24727538620192" lon="11.885963651842788"><ele>64.0</ele><time>2026-05-02T06:42:31.999Z</time></trkpt><trkpt lat="44.24723065549858" lon="11.886114585441367"><ele>64.0</ele><time>2026-05-02T06:42:34Z</time></trkpt><trkpt lat="44.24716189173979" lon="11.886256312344047"><ele>63.666666666666664</ele><time>2026-05-02T06:42:36Z</time></trkpt><trkpt lat="44.2470708908595" lon="11.886370578548465"><ele>63.33333333333333</ele><time>2026-05-02T06:42:38Z</time></trkpt><trkpt lat="44.24702114095818" lon="11.886425202055102"><ele>63.0</ele><time>2026-05-02T06:42:39Z</time></trkpt><trkpt lat="44.246967713162235" lon="11.886477969804522"><ele>62.66666666666667</ele><time>2026-05-02T06:42:40Z</time></trkpt><trkpt lat="44.246911932319605" lon="11.886532065995977"><ele>62.333333333333336</ele><time>2026-05-02T06:42:41Z</time></trkpt><trkpt lat="44.24685387188299" lon="11.886590877511576"><ele>62.0</ele><time>2026-05-02T06:42:42Z</time></trkpt><trkpt lat="44.24679179262654" lon="11.886642898727779"><ele>62.00000000000001</ele><time>2026-05-02T06:42:43Z</time></trkpt><trkpt lat="44.24672410077181" lon="11.886691738894669"><ele>62.0</ele><time>2026-05-02T06:42:44Z</time></trkpt><trkpt lat="44.24664851669442" lon="11.88673474234836"><ele>62.0</ele><time>2026-05-02T06:42:45Z</time></trkpt><trkpt lat="44.246570788383565" lon="11.8867819410249"><ele>62.0</ele><time>2026-05-02T06:42:46Z</time></trkpt><trkpt lat="44.246490630069225" lon="11.88683509112159"><ele>62.00000000000001</ele><time>2026-05-02T06:42:47Z</time></trkpt><trkpt lat="44.246411330490346" lon="11.886901328701317"><ele>62.0</ele><time>2026-05-02T06:42:48Z</time></trkpt><trkpt lat="44.2463333108542" lon="11.886984083380774"><ele>60.2</ele><time>2026-05-02T06:42:49Z</time></trkpt><trkpt lat="44.24625741456835" lon="11.887076501881825"><ele>58.400000000000006</ele><time>2026-05-02T06:42:50Z</time></trkpt><trkpt lat="44.2461832842082" lon="11.887179750899817"><ele>56.599999999999994</ele><time>2026-05-02T06:42:51Z</time></trkpt><trkpt lat="44.246112080718866" lon="11.887292727112241"><ele>54.8</ele><time>2026-05-02T06:42:52Z</time></trkpt><trkpt lat="44.24604768831964" lon="11.887415823080955"><ele>53.0</ele><time>2026-05-02T06:42:53Z</time></trkpt><trkpt lat="44.24598908082114" lon="11.88754456057518"><ele>51.8</ele><time>2026-05-02T06:42:54Z</time></trkpt><trkpt lat="44.2459400031372" lon="11.88767768168425"><ele>50.599999999999994</ele><time>2026-05-02T06:42:55Z</time></trkpt><trkpt lat="44.24589054227138" lon="11.887808164372741"><ele>49.400000000000006</ele><time>2026-05-02T06:42:56Z</time></trkpt><trkpt lat="44.2458302385583" lon="11.887923260910464"><ele>48.2</ele><time>2026-05-02T06:42:57Z</time></trkpt><trkpt lat="44.24575047351843" lon="11.888016181413638"><ele>47.0</ele><time>2026-05-02T06:42:58Z</time></trkpt><trkpt lat="44.24566395834438" lon="11.88808717674604"><ele>47.400000000000006</ele><time>2026-05-02T06:42:59Z</time></trkpt><trkpt lat="44.245563724895696" lon="11.888074483144466"><ele>47.800000000000004</ele><time>2026-05-02T06:43:00Z</time></trkpt><trkpt lat="44.24547175732318" lon="11.888055472737058"><ele>48.2</ele><time>2026-05-02T06:43:01Z</time></trkpt><trkpt lat="44.2453898641631" lon="11.888019533475095"><ele>48.6</ele><time>2026-05-02T06:43:02Z</time></trkpt><trkpt lat="44.245302462527576" lon="11.888001516528767"><ele>49.0</ele><time>2026-05-02T06:43:03Z</time></trkpt><trkpt lat="44.245232300769636" lon="11.887942203364265"><ele>49.0</ele><time>2026-05-02T06:43:04Z</time></trkpt><trkpt lat="44.24516899353642" lon="11.887890498250837"><ele>49.0</ele><time>2026-05-02T06:43:05Z</time></trkpt><trkpt lat="44.24510748634628" lon="11.887836728187258"><ele>49.0</ele><time>2026-05-02T06:43:06Z</time></trkpt><trkpt lat="44.24505140652941" lon="11.887786204266284"><ele>49.0</ele><time>2026-05-02T06:43:07Z</time></trkpt><trkpt lat="44.24499796179388" lon="11.887736510812012"><ele>49.0</ele><time>2026-05-02T06:43:08Z</time></trkpt><trkpt lat="44.24494520821247" lon="11.887686279994561"><ele>49.0</ele><time>2026-05-02T06:43:09Z</time></trkpt><trkpt lat="44.24489346970967" lon="11.887633310833541"><ele>49.0</ele><time>2026-05-02T06:43:10Z</time></trkpt><trkpt lat="44.2447967499526" lon="11.88752950128811"><ele>49.2</ele><time>2026-05-02T06:43:12Z</time></trkpt><trkpt lat="44.24471347213472" lon="11.887423232343249"><ele>49.400000000000006</ele><time>2026-05-02T06:43:14Z</time></trkpt><trkpt lat="44.244639709112626" lon="11.88731344087185"><ele>49.6</ele><time>2026-05-02T06:43:16Z</time></trkpt><trkpt lat="44.244573996250296" lon="11.887203689078378"><ele>49.8</ele><time>2026-05-02T06:43:18Z</time></trkpt><trkpt lat="44.24451230260202" lon="11.887094904394374"><ele>50.0</ele><time>2026-05-02T06:43:20Z</time></trkpt><trkpt lat="44.24445295991853" lon="11.88699469232389"><ele>50.00000000000001</ele><time>2026-05-02T06:43:22Z</time></trkpt><trkpt lat="44.24439108922537" lon="11.886896566979235"><ele>50.0</ele><time>2026-05-02T06:43:24Z</time></trkpt><trkpt lat="44.244330577676365" lon="11.886803248546471"><ele>50.0</ele><time>2026-05-02T06:43:26Z</time></trkpt><trkpt lat="44.244270464700115" lon="11.886714779102256"><ele>50.0</ele><time>2026-05-02T06:43:28Z</time></trkpt><trkpt lat="44.24421325351517" lon="11.886634342762493"><ele>50.00000000000001</ele><time>2026-05-02T06:43:30Z</time></trkpt><trkpt lat="44.2441607174498" lon="11.88656166787787"><ele>50.0</ele><time>2026-05-02T06:43:32Z</time></trkpt><trkpt lat="44.244105403312034" lon="11.88648758160581"><ele>50.2</ele><time>2026-05-02T06:43:34Z</time></trkpt><trkpt lat="44.244049502145415" lon="11.886413719841956"><ele>50.4</ele><time>2026-05-02T06:43:36Z</time></trkpt><trkpt lat="44.24398783865072" lon="11.886332811901651"><ele>50.599999999999994</ele><time>2026-05-02T06:43:38Z</time></trkpt><trkpt lat="44.24392385123658" lon="11.886250548632619"><ele>50.8</ele><time>2026-05-02T06:43:40Z</time></trkpt><trkpt lat="44.24385176801686" lon="11.886157877250483"><ele>51.0</ele><time>2026-05-02T06:43:42Z</time></trkpt><trkpt lat="44.24377240119359" lon="11.886059082357407"><ele>50.4</ele><time>2026-05-02T06:43:44Z</time></trkpt><trkpt lat="44.2436862894547" lon="11.885955247900606"><ele>49.8</ele><time>2026-05-02T06:43:46Z</time></trkpt><trkpt lat="44.24359236380659" lon="11.885855865834184"><ele>49.199999999999996</ele><time>2026-05-02T06:43:48Z</time></trkpt><trkpt lat="44.24348855734891" lon="11.885791008822292"><ele>48.599999999999994</ele><time>2026-05-02T06:43:50Z</time></trkpt><trkpt lat="44.24339470167738" lon="11.885746061333808"><ele>48.0</ele><time>2026-05-02T06:43:52Z</time></trkpt><trkpt lat="44.24328939656731" lon="11.885759721172684"><ele>48.0</ele><time>2026-05-02T06:43:54Z</time></trkpt><trkpt lat="44.24318854695835" lon="11.885848751358838"><ele>48.0</ele><time>2026-05-02T06:43:56Z</time></trkpt><trkpt lat="44.24310724239199" lon="11.885953324257976"><ele>48.0</ele><time>2026-05-02T06:43:58Z</time></trkpt><trkpt lat="44.24301683929026" lon="11.886059403267726"><ele>48.0</ele><time>2026-05-02T06:44:00Z</time></trkpt><trkpt lat="44.242925731782584" lon="11.88616127136762"><ele>48.0</ele><time>2026-05-02T06:44:02Z</time></trkpt><trkpt lat="44.24283157431361" lon="11.886252294300961"><ele>48.0</ele><time>2026-05-02T06:44:04Z</time></trkpt><trkpt lat="44.24274821311822" lon="11.886345360520442"><ele>48.0</ele><time>2026-05-02T06:44:06Z</time></trkpt><trkpt lat="44.24265090513514" lon="11.886401379890756"><ele>48.0</ele><time>2026-05-02T06:44:07.999Z</time></trkpt><trkpt lat="44.242567680663605" lon="11.886478303370618"><ele>48.0</ele><time>2026-05-02T06:44:09.999Z</time></trkpt><trkpt lat="44.24248589442924" lon="11.886532195781644"><ele>48.0</ele><time>2026-05-02T06:44:11.999Z</time></trkpt><trkpt lat="44.2423976165842" lon="11.886590886806836"><ele>48.0</ele><time>2026-05-02T06:44:13.999Z</time></trkpt><trkpt lat="44.24231071804736" lon="11.88663685845829"><ele>48.0</ele><time>2026-05-02T06:44:15.999Z</time></trkpt><trkpt lat="44.24222259632258" lon="11.8866876157506"><ele>48.0</ele><time>2026-05-02T06:44:17.999Z</time></trkpt><trkpt lat="44.24214288717124" lon="11.886726575857404"><ele>48.0</ele><time>2026-05-02T06:44:19.999Z</time></trkpt><trkpt lat="44.242065998569196" lon="11.886741224412516"><ele>48.0</ele><time>2026-05-02T06:44:21.999Z</time></trkpt><trkpt lat="44.24198946164686" lon="11.886700702148165"><ele>48.0</ele><time>2026-05-02T06:44:23.999Z</time></trkpt><trkpt lat="44.24191987136702" lon="11.886632607263108"><ele>48.0</ele><time>2026-05-02T06:44:25.999Z</time></trkpt><trkpt lat="44.241846460912534" lon="11.886574946838737"><ele>48.0</ele><time>2026-05-02T06:44:27.999Z</time></trkpt><trkpt lat="44.24176991151109" lon="11.88651243602477"><ele>48.0</ele><time>2026-05-02T06:44:29.999Z</time></trkpt><trkpt lat="44.24169269371167" lon="11.886477847091857"><ele>48.0</ele><time>2026-05-02T06:44:31.999Z</time></trkpt><trkpt lat="44.24161182350858" lon="11.886560801300035"><ele>48.0</ele><time>2026-05-02T06:44:33.999Z</time></trkpt><trkpt lat="44.241526259771405" lon="11.886667182760531"><ele>48.75</ele><time>2026-05-02T06:44:35.999Z</time></trkpt><trkpt lat="44.24145683039107" lon="11.886797050657485"><ele>49.5</ele><time>2026-05-02T06:44:37.999Z</time></trkpt><trkpt lat="44.241413151410015" lon="11.886942897100631"><ele>50.25</ele><time>2026-05-02T06:44:40Z</time></trkpt><trkpt lat="44.241393619095675" lon="11.887099875529808"><ele>51.0</ele><time>2026-05-02T06:44:42Z</time></trkpt><trkpt lat="44.2413787450486" lon="11.887259838332328"><ele>51.0</ele><time>2026-05-02T06:44:44Z</time></trkpt><trkpt lat="44.241373166166575" lon="11.887418342492929"><ele>51.0</ele><time>2026-05-02T06:44:46Z</time></trkpt><trkpt lat="44.241367043129884" lon="11.887581216986167"><ele>51.0</ele><time>2026-05-02T06:44:48Z</time></trkpt><trkpt lat="44.24136320350916" lon="11.887733701536938"><ele>51.0</ele><time>2026-05-02T06:44:50Z</time></trkpt><trkpt lat="44.24129371218302" lon="11.887851200541201"><ele>51.0</ele><time>2026-05-02T06:44:52Z</time></trkpt><trkpt lat="44.24123079619371" lon="11.887860317429668"><ele>50.833333333333336</ele><time>2026-05-02T06:44:53Z</time></trkpt><trkpt lat="44.24117927454539" lon="11.88780868962544"><ele>50.66666666666667</ele><time>2026-05-02T06:44:54Z</time></trkpt><trkpt lat="44.24108409968703" lon="11.887821711951682"><ele>50.5</ele><time>2026-05-02T06:44:56Z</time></trkpt><trkpt lat="44.240993974313646" lon="11.887803768813127"><ele>50.333333333333336</ele><time>2026-05-02T06:44:58Z</time></trkpt><trkpt lat="44.240904791097215" lon="11.887841743346554"><ele>50.16666666666667</ele><time>2026-05-02T06:45:00Z</time></trkpt><trkpt lat="44.24082878402202" lon="11.887897043511753"><ele>50.0</ele><time>2026-05-02T06:45:02Z</time></trkpt><trkpt lat="44.24076235441882" lon="11.887964508423746"><ele>50.00000000000001</ele><time>2026-05-02T06:45:04Z</time></trkpt><trkpt lat="44.24071789329552" lon="11.888039039869321"><ele>50.0</ele><time>2026-05-02T06:45:06Z</time></trkpt><trkpt lat="44.24066278681672" lon="11.888090832022055"><ele>50.0</ele><time>2026-05-02T06:45:08Z</time></trkpt><trkpt lat="44.240620154151884" lon="11.888161200423072"><ele>50.0</ele><time>2026-05-02T06:45:11Z</time></trkpt><trkpt lat="44.240566087574784" lon="11.888224037998755"><ele>50.0</ele><time>2026-05-02T06:45:14Z</time></trkpt><trkpt lat="44.240518095760166" lon="11.888296065006967"><ele>50.00000000000001</ele><time>2026-05-02T06:45:17Z</time></trkpt><trkpt lat="44.240464571652446" lon="11.888382435371769"><ele>50.0</ele><time>2026-05-02T06:45:21Z</time></trkpt><trkpt lat="44.2403945106544" lon="11.888438251173127"><ele>50.16666666666667</ele><time>2026-05-02T06:45:25Z</time></trkpt><trkpt lat="44.24034458244013" lon="11.888506052248543"><ele>50.333333333333336</ele><time>2026-05-02T06:45:29Z</time></trkpt><trkpt lat="44.240282729426674" lon="11.888554943288831"><ele>50.5</ele><time>2026-05-02T06:45:33Z</time></trkpt><trkpt lat="44.24020275798115" lon="11.888579856471159"><ele>50.66666666666667</ele><time>2026-05-02T06:45:37Z</time></trkpt><trkpt lat="44.240133270311844" lon="11.8886339828009"><ele>50.833333333333336</ele><time>2026-05-02T06:45:41Z</time></trkpt><trkpt lat="44.240058688594566" lon="11.888669037593168"><ele>51.0</ele><time>2026-05-02T06:45:44Z</time></trkpt><trkpt lat="44.23999461240074" lon="11.888704751696645"><ele>51.0</ele><time>2026-05-02T06:45:47Z</time></trkpt><trkpt lat="44.239920987574344" lon="11.888727556512158"><ele>51.0</ele><time>2026-05-02T06:45:50Z</time></trkpt><trkpt lat="44.23985289555057" lon="11.888763650800536"><ele>51.0</ele><time>2026-05-02T06:45:53Z</time></trkpt><trkpt lat="44.23978646356327" lon="11.888783144854052"><ele>51.0</ele><time>2026-05-02T06:45:56Z</time></trkpt><trkpt lat="44.23970561968279" lon="11.888786877259662"><ele>51.0</ele><time>2026-05-02T06:45:59Z</time></trkpt><trkpt lat="44.239627036306146" lon="11.888797823146579"><ele>51.0</ele><time>2026-05-02T06:46:02Z</time></trkpt><trkpt lat="44.23954132666816" lon="11.888795412157535"><ele>52.333333333333336</ele><time>2026-05-02T06:46:05Z</time></trkpt><trkpt lat="44.239457535472205" lon="11.888764129426814"><ele>53.66666666666667</ele><time>2026-05-02T06:46:08Z</time></trkpt><trkpt lat="44.2393710815381" lon="11.888734427440557"><ele>55.0</ele><time>2026-05-02T06:46:11Z</time></trkpt><trkpt lat="44.23928538065796" lon="11.888688535830086"><ele>56.333333333333336</ele><time>2026-05-02T06:46:14Z</time></trkpt><trkpt lat="44.23919709506741" lon="11.888643859657218"><ele>57.66666666666667</ele><time>2026-05-02T06:46:17Z</time></trkpt><trkpt lat="44.23913967550358" lon="11.88858389981387"><ele>59.0</ele><time>2026-05-02T06:46:19Z</time></trkpt><trkpt lat="44.23908359446186" lon="11.888519965248687"><ele>59.0</ele><time>2026-05-02T06:46:21Z</time></trkpt><trkpt lat="44.23902609188304" lon="11.888465525141068"><ele>59.0</ele><time>2026-05-02T06:46:22.999Z</time></trkpt><trkpt lat="44.238964792107986" lon="11.88841185689783"><ele>59.0</ele><time>2026-05-02T06:46:24.999Z</time></trkpt><trkpt lat="44.23890614410245" lon="11.888354255827405"><ele>59.0</ele><time>2026-05-02T06:46:26.999Z</time></trkpt><trkpt lat="44.23885391028135" lon="11.888288079504592"><ele>59.0</ele><time>2026-05-02T06:46:28.999Z</time></trkpt><trkpt lat="44.238801793575185" lon="11.888225968434623"><ele>59.0</ele><time>2026-05-02T06:46:30.999Z</time></trkpt><trkpt lat="44.23874105080093" lon="11.888180286093219"><ele>59.0</ele><time>2026-05-02T06:46:32.999Z</time></trkpt><trkpt lat="44.23868737428775" lon="11.888126044674847"><ele>58.71428571428571</ele><time>2026-05-02T06:46:34.999Z</time></trkpt><trkpt lat="44.23862755299283" lon="11.888080870688906"><ele>58.42857142857143</ele><time>2026-05-02T06:46:36.999Z</time></trkpt><trkpt lat="44.23856439359627" lon="11.888058753911265"><ele>58.14285714285714</ele><time>2026-05-02T06:46:38.999Z</time></trkpt><trkpt lat="44.238492655697826" lon="11.888054161633201"><ele>57.857142857142854</ele><time>2026-05-02T06:46:40.999Z</time></trkpt><trkpt lat="44.238423689217825" lon="11.888060921376919"><ele>57.57142857142857</ele><time>2026-05-02T06:46:42.999Z</time></trkpt><trkpt lat="44.23835445543915" lon="11.888059924779729"><ele>57.285714285714285</ele><time>2026-05-02T06:46:44.999Z</time></trkpt><trkpt lat="44.23828635536702" lon="11.888094325441202"><ele>57.0</ele><time>2026-05-02T06:46:47Z</time></trkpt><trkpt lat="44.23821672563725" lon="11.888103825646892"><ele>57.0</ele><time>2026-05-02T06:46:49Z</time></trkpt><trkpt lat="44.23814866013642" lon="11.888116123845975"><ele>56.99999999999999</ele><time>2026-05-02T06:46:51Z</time></trkpt><trkpt lat="44.238080704952786" lon="11.888121483685486"><ele>57.0</ele><time>2026-05-02T06:46:53Z</time></trkpt><trkpt lat="44.23801609827895" lon="11.888124268062867"><ele>57.0</ele><time>2026-05-02T06:46:55Z</time></trkpt><trkpt lat="44.237949385756124" lon="11.88811061911139"><ele>56.99999999999999</ele><time>2026-05-02T06:46:57Z</time></trkpt><trkpt lat="44.23787998953694" lon="11.888091171658669"><ele>57.0</ele><time>2026-05-02T06:46:59Z</time></trkpt><trkpt lat="44.237816787931635" lon="11.888060876449817"><ele>57.0</ele><time>2026-05-02T06:47:01Z</time></trkpt><trkpt lat="44.23773938199837" lon="11.888030523079552"><ele>57.285714285714285</ele><time>2026-05-02T06:47:04Z</time></trkpt><trkpt lat="44.237656606404805" lon="11.8879793267562"><ele>57.57142857142857</ele><time>2026-05-02T06:47:07Z</time></trkpt><trkpt lat="44.237599159237895" lon="11.887939519213127"><ele>57.857142857142854</ele><time>2026-05-02T06:47:09Z</time></trkpt><trkpt lat="44.23753923947993" lon="11.887897122552527"><ele>58.14285714285714</ele><time>2026-05-02T06:47:11Z</time></trkpt><trkpt lat="44.237478019163675" lon="11.887870033305877"><ele>58.42857142857143</ele><time>2026-05-02T06:47:13Z</time></trkpt><trkpt lat="44.237418934090506" lon="11.887836450034543"><ele>58.71428571428571</ele><time>2026-05-02T06:47:15Z</time></trkpt><trkpt lat="44.23732920085281" lon="11.887794606597575"><ele>59.0</ele><time>2026-05-02T06:47:18Z</time></trkpt><trkpt lat="44.237272714382705" lon="11.88775273987964"><ele>59.0</ele><time>2026-05-02T06:47:20Z</time></trkpt><trkpt lat="44.23721181112306" lon="11.887720657576624"><ele>59.0</ele><time>2026-05-02T06:47:22Z</time></trkpt><trkpt lat="44.237156220926096" lon="11.887675430247924"><ele>59.0</ele><time>2026-05-02T06:47:24Z</time></trkpt><trkpt lat="44.23709566272087" lon="11.887642330560078"><ele>59.0</ele><time>2026-05-02T06:47:26Z</time></trkpt><trkpt lat="44.237034705650046" lon="11.887599867966411"><ele>59.0</ele><time>2026-05-02T06:47:28Z</time></trkpt><trkpt lat="44.236967258468624" lon="11.887568084790493"><ele>59.0</ele><time>2026-05-02T06:47:30Z</time></trkpt><trkpt lat="44.236901728616644" lon="11.887534129030806"><ele>59.0</ele><time>2026-05-02T06:47:32Z</time></trkpt><trkpt lat="44.23683683176902" lon="11.887498263961541"><ele>59.0</ele><time>2026-05-02T06:47:34Z</time></trkpt><trkpt lat="44.236769647802" lon="11.887465953345528"><ele>59.0</ele><time>2026-05-02T06:47:36Z</time></trkpt><trkpt lat="44.23670550748085" lon="11.887435194243503"><ele>59.0</ele><time>2026-05-02T06:47:38Z</time></trkpt><trkpt lat="44.23663917378989" lon="11.887402380639868"><ele>59.0</ele><time>2026-05-02T06:47:40Z</time></trkpt><trkpt lat="44.236574946190544" lon="11.887374607153246"><ele>59.0</ele><time>2026-05-02T06:47:42Z</time></trkpt><trkpt lat="44.236503236216045" lon="11.88735537489391"><ele>59.0</ele><time>2026-05-02T06:47:44Z</time></trkpt><trkpt lat="44.23643544953711" lon="11.887318012078037"><ele>59.0</ele><time>2026-05-02T06:47:46Z</time></trkpt><trkpt lat="44.23636516717377" lon="11.887290127580352"><ele>59.285714285714285</ele><time>2026-05-02T06:47:48Z</time></trkpt><trkpt lat="44.23629455529833" lon="11.88725740739996"><ele>59.57142857142857</ele><time>2026-05-02T06:47:50Z</time></trkpt><trkpt lat="44.23621709861235" lon="11.887237246267627"><ele>59.857142857142854</ele><time>2026-05-02T06:47:52Z</time></trkpt><trkpt lat="44.23614389087064" lon="11.88721890891571"><ele>60.14285714285714</ele><time>2026-05-02T06:47:54Z</time></trkpt><trkpt lat="44.236069843909235" lon="11.887224707746476"><ele>60.42857142857143</ele><time>2026-05-02T06:47:56Z</time></trkpt><trkpt lat="44.23599649650783" lon="11.8872379793588"><ele>60.71428571428571</ele><time>2026-05-02T06:47:58Z</time></trkpt><trkpt lat="44.235926361063356" lon="11.887250562032392"><ele>60.99999999999999</ele><time>2026-05-02T06:48:00Z</time></trkpt><trkpt lat="44.235857681984655" lon="11.887275180639136"><ele>60.99999999999999</ele><time>2026-05-02T06:48:02Z</time></trkpt><trkpt lat="44.235785984172345" lon="11.887303236815798"><ele>61.0</ele><time>2026-05-02T06:48:03.999Z</time></trkpt><trkpt lat="44.23571634409505" lon="11.88734060651442"><ele>61.0</ele><time>2026-05-02T06:48:05.999Z</time></trkpt><trkpt lat="44.23564511771594" lon="11.88737076329771"><ele>61.0</ele><time>2026-05-02T06:48:07.999Z</time></trkpt><trkpt lat="44.235575692635045" lon="11.887411679362707"><ele>60.99999999999999</ele><time>2026-05-02T06:48:09.999Z</time></trkpt><trkpt lat="44.23549319108591" lon="11.887452412535248"><ele>61.0</ele><time>2026-05-02T06:48:11.999Z</time></trkpt><trkpt lat="44.23542543571271" lon="11.887511504343971"><ele>60.99999999999999</ele><time>2026-05-02T06:48:13.999Z</time></trkpt><trkpt lat="44.23534801796306" lon="11.887575104786858"><ele>61.0</ele><time>2026-05-02T06:48:15.999Z</time></trkpt><trkpt lat="44.235273836971324" lon="11.88763407286149"><ele>61.0</ele><time>2026-05-02T06:48:17.999Z</time></trkpt><trkpt lat="44.235193921541565" lon="11.887694463676159"><ele>61.0</ele><time>2026-05-02T06:48:19.999Z</time></trkpt><trkpt lat="44.23510903195612" lon="11.887740921276757"><ele>60.99999999999999</ele><time>2026-05-02T06:48:21.999Z</time></trkpt><trkpt lat="44.23502840771855" lon="11.887789672125995"><ele>61.0</ele><time>2026-05-02T06:48:23.999Z</time></trkpt><trkpt lat="44.23494675843993" lon="11.887852961396485"><ele>61.0</ele><time>2026-05-02T06:48:25.999Z</time></trkpt><trkpt lat="44.234864765911986" lon="11.88791320612414"><ele>60.99999999999999</ele><time>2026-05-02T06:48:27.999Z</time></trkpt><trkpt lat="44.234776226899484" lon="11.887978588150368"><ele>60.99999999999999</ele><time>2026-05-02T06:48:29.999Z</time></trkpt><trkpt lat="44.23470756079104" lon="11.888070868107981"><ele>61.0</ele><time>2026-05-02T06:48:31.999Z</time></trkpt><trkpt lat="44.234631249552486" lon="11.888153098413214"><ele>61.0</ele><time>2026-05-02T06:48:33.999Z</time></trkpt><trkpt lat="44.2345498833819" lon="11.888240733166278"><ele>60.599999999999994</ele><time>2026-05-02T06:48:35.999Z</time></trkpt><trkpt lat="44.23446661950541" lon="11.888311040479115"><ele>60.199999999999996</ele><time>2026-05-02T06:48:37.999Z</time></trkpt><trkpt lat="44.23437375313952" lon="11.888362949882222"><ele>59.800000000000004</ele><time>2026-05-02T06:48:39.999Z</time></trkpt><trkpt lat="44.234272777762534" lon="11.888368112670191"><ele>59.400000000000006</ele><time>2026-05-02T06:48:41.999Z</time></trkpt><trkpt lat="44.23418132671932" lon="11.888323581142872"><ele>59.0</ele><time>2026-05-02T06:48:43.999Z</time></trkpt><trkpt lat="44.234097166231635" lon="11.888272980477405"><ele>59.0</ele><time>2026-05-02T06:48:45.999Z</time></trkpt><trkpt lat="44.23401092362113" lon="11.888231973251061"><ele>59.00000000000001</ele><time>2026-05-02T06:48:47.999Z</time></trkpt><trkpt lat="44.233919035380055" lon="11.888217607944279"><ele>59.00000000000001</ele><time>2026-05-02T06:48:49.999Z</time></trkpt><trkpt lat="44.23382879783661" lon="11.888245425849627"><ele>59.0</ele><time>2026-05-02T06:48:52Z</time></trkpt><trkpt lat="44.23375661873669" lon="11.888324536242184"><ele>59.0</ele><time>2026-05-02T06:48:54Z</time></trkpt><trkpt lat="44.233720070318014" lon="11.888442926382199"><ele>59.333333333333336</ele><time>2026-05-02T06:48:56Z</time></trkpt><trkpt lat="44.23369079104725" lon="11.888565038992919"><ele>59.66666666666667</ele><time>2026-05-02T06:48:58Z</time></trkpt><trkpt lat="44.23367295957577" lon="11.888684209146104"><ele>60.0</ele><time>2026-05-02T06:49:00Z</time></trkpt><trkpt lat="44.233652753751244" lon="11.888801584584003"><ele>60.33333333333333</ele><time>2026-05-02T06:49:02Z</time></trkpt><trkpt lat="44.23362778548" lon="11.888922795665817"><ele>60.666666666666664</ele><time>2026-05-02T06:49:04Z</time></trkpt><trkpt lat="44.23360720995666" lon="11.889046928959369"><ele>61.0</ele><time>2026-05-02T06:49:06Z</time></trkpt><trkpt lat="44.233590045006025" lon="11.889172891111826"><ele>61.199999999999996</ele><time>2026-05-02T06:49:08Z</time></trkpt><trkpt lat="44.233570555823896" lon="11.889301840886361"><ele>61.39999999999999</ele><time>2026-05-02T06:49:10Z</time></trkpt><trkpt lat="44.23354177400694" lon="11.889430384721436"><ele>61.6</ele><time>2026-05-02T06:49:12Z</time></trkpt><trkpt lat="44.23351954004411" lon="11.889556553188365"><ele>61.8</ele><time>2026-05-02T06:49:14Z</time></trkpt><trkpt lat="44.23349969278342" lon="11.889688726547087"><ele>62.0</ele><time>2026-05-02T06:49:16Z</time></trkpt><trkpt lat="44.23348126807006" lon="11.889814100124863"><ele>62.0</ele><time>2026-05-02T06:49:18Z</time></trkpt><trkpt lat="44.23346575009689" lon="11.889931851701716"><ele>62.0</ele><time>2026-05-02T06:49:20Z</time></trkpt><trkpt lat="44.2334325880052" lon="11.89005977334701"><ele>62.0</ele><time>2026-05-02T06:49:22Z</time></trkpt><trkpt lat="44.23340335247979" lon="11.890186059167702"><ele>62.0</ele><time>2026-05-02T06:49:24Z</time></trkpt><trkpt lat="44.23337572118165" lon="11.890314299803528"><ele>62.0</ele><time>2026-05-02T06:49:26Z</time></trkpt><trkpt lat="44.2333473663353" lon="11.89043841821512"><ele>62.0</ele><time>2026-05-02T06:49:28Z</time></trkpt><trkpt lat="44.233319936197795" lon="11.890572358183764"><ele>62.0</ele><time>2026-05-02T06:49:30Z</time></trkpt><trkpt lat="44.233294278414405" lon="11.890703975715548"><ele>62.0</ele><time>2026-05-02T06:49:32Z</time></trkpt><trkpt lat="44.23326852081916" lon="11.890837228649158"><ele>62.0</ele><time>2026-05-02T06:49:34Z</time></trkpt><trkpt lat="44.23324377063376" lon="11.890976019009926"><ele>62.0</ele><time>2026-05-02T06:49:36Z</time></trkpt><trkpt lat="44.23322349106255" lon="11.891118522050332"><ele>62.0</ele><time>2026-05-02T06:49:38Z</time></trkpt><trkpt lat="44.233199501225386" lon="11.891262560008201"><ele>62.0</ele><time>2026-05-02T06:49:40Z</time></trkpt><trkpt lat="44.23317100112105" lon="11.891404769947501"><ele>62.0</ele><time>2026-05-02T06:49:42Z</time></trkpt><trkpt lat="44.23314699648186" lon="11.891554012470747"><ele>62.0</ele><time>2026-05-02T06:49:44Z</time></trkpt><trkpt lat="44.23311951392174" lon="11.891701037309087"><ele>62.0</ele><time>2026-05-02T06:49:46Z</time></trkpt><trkpt lat="44.233095093546" lon="11.891849007506892"><ele>62.0</ele><time>2026-05-02T06:49:48Z</time></trkpt><trkpt lat="44.23306771994785" lon="11.891999846050835"><ele>62.0</ele><time>2026-05-02T06:49:50Z</time></trkpt><trkpt lat="44.23303783843938" lon="11.89214904772093"><ele>62.0</ele><time>2026-05-02T06:49:52Z</time></trkpt><trkpt lat="44.2330158465029" lon="11.892306239636186"><ele>62.0</ele><time>2026-05-02T06:49:54Z</time></trkpt><trkpt lat="44.23303132711181" lon="11.892467463849096"><ele>62.00000000000001</ele><time>2026-05-02T06:49:56Z</time></trkpt><trkpt lat="44.23307580771884" lon="11.89253016186993"><ele>62.0</ele><time>2026-05-02T06:49:57Z</time></trkpt><trkpt lat="44.2331336728875" lon="11.892565236099887"><ele>62.0</ele><time>2026-05-02T06:49:58Z</time></trkpt><trkpt lat="44.23320054156923" lon="11.892580485092852"><ele>62.0</ele><time>2026-05-02T06:49:59Z</time></trkpt><trkpt lat="44.23331526436776" lon="11.892602525691046"><ele>62.00000000000001</ele><time>2026-05-02T06:50:01Z</time></trkpt><trkpt lat="44.23342718723391" lon="11.892631792914258"><ele>62.0</ele><time>2026-05-02T06:50:03Z</time></trkpt><trkpt lat="44.23353294760695" lon="11.892670142953714"><ele>61.400000000000006</ele><time>2026-05-02T06:50:05Z</time></trkpt><trkpt lat="44.23365015797195" lon="11.892706838356018"><ele>60.800000000000004</ele><time>2026-05-02T06:50:07Z</time></trkpt><trkpt lat="44.23376211733009" lon="11.892742997171903"><ele>60.2</ele><time>2026-05-02T06:50:08.999Z</time></trkpt><trkpt lat="44.233876655265924" lon="11.8927765411783"><ele>59.6</ele><time>2026-05-02T06:50:10.999Z</time></trkpt><trkpt lat="44.233939397505395" lon="11.892798301870474"><ele>59.0</ele><time>2026-05-02T06:50:11.999Z</time></trkpt><trkpt lat="44.23405821952775" lon="11.892840567390806"><ele>59.0</ele><time>2026-05-02T06:50:13.999Z</time></trkpt><trkpt lat="44.23417838901955" lon="11.892871642334775"><ele>59.0</ele><time>2026-05-02T06:50:15.999Z</time></trkpt><trkpt lat="44.234300417941704" lon="11.892910118029395"><ele>59.0</ele><time>2026-05-02T06:50:17.999Z</time></trkpt><trkpt lat="44.23441935868429" lon="11.892944267570751"><ele>59.0</ele><time>2026-05-02T06:50:19.999Z</time></trkpt><trkpt lat="44.23453669797145" lon="11.892989829596019"><ele>59.0</ele><time>2026-05-02T06:50:21.999Z</time></trkpt><trkpt lat="44.234592777709175" lon="11.893036904820903"><ele>59.0</ele><time>2026-05-02T06:50:22.999Z</time></trkpt><trkpt lat="44.23463613577385" lon="11.893120127178545"><ele>59.0</ele><time>2026-05-02T06:50:23.999Z</time></trkpt><trkpt lat="44.23464594082862" lon="11.893227537789418"><ele>59.0</ele><time>2026-05-02T06:50:24.999Z</time></trkpt><trkpt lat="44.234640282586575" lon="11.893331035955118"><ele>59.0</ele><time>2026-05-02T06:50:25.999Z</time></trkpt><trkpt lat="44.234621774467854" lon="11.89342979511892"><ele>59.0</ele><time>2026-05-02T06:50:26.999Z</time></trkpt><trkpt lat="44.234601566168166" lon="11.893527965826408"><ele>59.0</ele><time>2026-05-02T06:50:27.999Z</time></trkpt><trkpt lat="44.234571956680014" lon="11.893623644341874"><ele>58.333333333333336</ele><time>2026-05-02T06:50:28.999Z</time></trkpt><trkpt lat="44.23453767562178" lon="11.89371326110474"><ele>57.66666666666667</ele><time>2026-05-02T06:50:29.999Z</time></trkpt><trkpt lat="44.2344952341235" lon="11.893807095391725"><ele>57.0</ele><time>2026-05-02T06:50:30.999Z</time></trkpt><trkpt lat="44.23444214152284" lon="11.893888800533315"><ele>56.33333333333333</ele><time>2026-05-02T06:50:31.999Z</time></trkpt><trkpt lat="44.234383390858" lon="11.89396533081542"><ele>55.666666666666664</ele><time>2026-05-02T06:50:32.999Z</time></trkpt><trkpt lat="44.23432616630897" lon="11.89404723168285"><ele>55.0</ele><time>2026-05-02T06:50:33.999Z</time></trkpt><trkpt lat="44.23426661413016" lon="11.894125813914616"><ele>54.99999999999999</ele><time>2026-05-02T06:50:34.999Z</time></trkpt><trkpt lat="44.234205660550394" lon="11.894204756636897"><ele>55.0</ele><time>2026-05-02T06:50:35.999Z</time></trkpt><trkpt lat="44.23414715945973" lon="11.894289740097756"><ele>55.0</ele><time>2026-05-02T06:50:36.999Z</time></trkpt><trkpt lat="44.23408753034577" lon="11.894377221480617"><ele>55.0</ele><time>2026-05-02T06:50:37.999Z</time></trkpt><trkpt lat="44.234026663579264" lon="11.894467492256037"><ele>54.99999999999999</ele><time>2026-05-02T06:50:38.999Z</time></trkpt><trkpt lat="44.23396264708109" lon="11.89455330900451"><ele>55.0</ele><time>2026-05-02T06:50:39.999Z</time></trkpt><trkpt lat="44.233898073515384" lon="11.894642014092197"><ele>55.166666666666664</ele><time>2026-05-02T06:50:40.999Z</time></trkpt><trkpt lat="44.23383614057959" lon="11.894731464388748"><ele>55.33333333333333</ele><time>2026-05-02T06:50:41.999Z</time></trkpt><trkpt lat="44.233780057565504" lon="11.894813342461095"><ele>55.5</ele><time>2026-05-02T06:50:42.999Z</time></trkpt><trkpt lat="44.23373922248354" lon="11.894888829083257"><ele>55.66666666666667</ele><time>2026-05-02T06:50:43.999Z</time></trkpt><trkpt lat="44.23369469216292" lon="11.894989070585014"><ele>55.833333333333336</ele><time>2026-05-02T06:50:45.999Z</time></trkpt><trkpt lat="44.23365114179447" lon="11.895064289643114"><ele>56.0</ele><time>2026-05-02T06:50:48.999Z</time></trkpt><trkpt lat="44.233735833943236" lon="11.895161734804715"><ele>55.599999999999994</ele><time>2026-05-02T06:50:49.999Z</time></trkpt><trkpt lat="44.233801812740616" lon="11.895264514480518"><ele>55.199999999999996</ele><time>2026-05-02T06:50:51.999Z</time></trkpt><trkpt lat="44.23388477362398" lon="11.895382265429497"><ele>54.800000000000004</ele><time>2026-05-02T06:50:53.999Z</time></trkpt><trkpt lat="44.233968002233745" lon="11.895501327606224"><ele>54.400000000000006</ele><time>2026-05-02T06:50:55.999Z</time></trkpt><trkpt lat="44.234034840747015" lon="11.895529531310153"><ele>54.0</ele><time>2026-05-02T06:50:56.999Z</time></trkpt><trkpt lat="44.23409341198867" lon="11.895572669086523"><ele>53.714285714285715</ele><time>2026-05-02T06:50:58Z</time></trkpt><trkpt lat="44.23415731572506" lon="11.895604035098865"><ele>53.42857142857143</ele><time>2026-05-02T06:50:59Z</time></trkpt><trkpt lat="44.234225414127614" lon="11.895626125243995"><ele>53.14285714285714</ele><time>2026-05-02T06:51:00Z</time></trkpt><trkpt lat="44.23429197836943" lon="11.895648295150329"><ele>52.85714285714286</ele><time>2026-05-02T06:51:01Z</time></trkpt><trkpt lat="44.23436010874439" lon="11.895663222776227"><ele>52.57142857142858</ele><time>2026-05-02T06:51:02Z</time></trkpt><trkpt lat="44.23443306790557" lon="11.895683434793767"><ele>52.285714285714285</ele><time>2026-05-02T06:51:03Z</time></trkpt><trkpt lat="44.23449753628456" lon="11.895712095339105"><ele>52.0</ele><time>2026-05-02T06:51:04Z</time></trkpt><trkpt lat="44.23455914322991" lon="11.895755563159893"><ele>52.0</ele><time>2026-05-02T06:51:05Z</time></trkpt><trkpt lat="44.23462451802311" lon="11.895798898454528"><ele>52.0</ele><time>2026-05-02T06:51:06Z</time></trkpt><trkpt lat="44.23473780412842" lon="11.895881373523038"><ele>52.0</ele><time>2026-05-02T06:51:08Z</time></trkpt><trkpt lat="44.23480409045833" lon="11.895925478917068"><ele>52.0</ele><time>2026-05-02T06:51:09Z</time></trkpt><trkpt lat="44.234908083546244" lon="11.896017269215651"><ele>52.0</ele><time>2026-05-02T06:51:11Z</time></trkpt><trkpt lat="44.23496474414225" lon="11.89605795423527"><ele>53.0</ele><time>2026-05-02T06:51:12Z</time></trkpt><trkpt lat="44.23507168924846" lon="11.896129986569454"><ele>54.0</ele><time>2026-05-02T06:51:14Z</time></trkpt><trkpt lat="44.23516792899103" lon="11.896210981473745"><ele>55.0</ele><time>2026-05-02T06:51:16Z</time></trkpt><trkpt lat="44.23525753382573" lon="11.896285515434318"><ele>56.0</ele><time>2026-05-02T06:51:18Z</time></trkpt><trkpt lat="44.23534436300058" lon="11.89635283023727"><ele>57.0</ele><time>2026-05-02T06:51:20Z</time></trkpt><trkpt lat="44.235418299353825" lon="11.896406795269908"><ele>57.0</ele><time>2026-05-02T06:51:22Z</time></trkpt><trkpt lat="44.23549169400224" lon="11.89645664889802"><ele>57.0</ele><time>2026-05-02T06:51:24Z</time></trkpt><trkpt lat="44.235563691656736" lon="11.89650631759686"><ele>57.0</ele><time>2026-05-02T06:51:26Z</time></trkpt><trkpt lat="44.23562908211526" lon="11.896553544945977"><ele>57.0</ele><time>2026-05-02T06:51:28Z</time></trkpt><trkpt lat="44.2356946794427" lon="11.896601120579913"><ele>57.0</ele><time>2026-05-02T06:51:30Z</time></trkpt><trkpt lat="44.235763987255226" lon="11.896641109190282"><ele>57.0</ele><time>2026-05-02T06:51:32Z</time></trkpt><trkpt lat="44.235832814803786" lon="11.896660494595631"><ele>57.400000000000006</ele><time>2026-05-02T06:51:34Z</time></trkpt><trkpt lat="44.23590376190092" lon="11.896681413176358"><ele>57.800000000000004</ele><time>2026-05-02T06:51:36Z</time></trkpt><trkpt lat="44.23597718477899" lon="11.896696545202174"><ele>58.2</ele><time>2026-05-02T06:51:38Z</time></trkpt><trkpt lat="44.23605470189311" lon="11.896723817918554"><ele>58.6</ele><time>2026-05-02T06:51:40Z</time></trkpt><trkpt lat="44.236164589836385" lon="11.896738267169816"><ele>59.0</ele><time>2026-05-02T06:51:43Z</time></trkpt><trkpt lat="44.23628514665364" lon="11.89674393128369"><ele>59.0</ele><time>2026-05-02T06:51:46Z</time></trkpt><trkpt lat="44.23650295484105" lon="11.8967521993406"><ele>59.00000000000001</ele><time>2026-05-02T06:51:52Z</time></trkpt><trkpt lat="44.236568665992245" lon="11.896756949010076"><ele>59.00000000000001</ele><time>2026-05-02T06:51:54Z</time></trkpt><trkpt lat="44.23662603068988" lon="11.896836840555675"><ele>59.0</ele><time>2026-05-02T06:51:58Z</time></trkpt><trkpt lat="44.23656319202822" lon="11.89687824097289"><ele>59.0</ele><time>2026-05-02T06:52:02Z</time></trkpt><trkpt lat="44.236500761387546" lon="11.896953694448365"><ele>60.285714285714285</ele><time>2026-05-02T06:52:07Z</time></trkpt><trkpt lat="44.23644904698798" lon="11.897010497148152"><ele>61.57142857142857</ele><time>2026-05-02T06:52:11Z</time></trkpt><trkpt lat="44.23638816156164" lon="11.897078426692744"><ele>62.857142857142854</ele><time>2026-05-02T06:52:15.999Z</time></trkpt><trkpt lat="44.23634454079049" lon="11.897150729397094"><ele>64.14285714285714</ele><time>2026-05-02T06:52:20.999Z</time></trkpt><trkpt lat="44.23628332220201" lon="11.897209099870016"><ele>65.42857142857143</ele><time>2026-05-02T06:52:25.999Z</time></trkpt><trkpt lat="44.23621294994604" lon="11.897242316066793"><ele>66.71428571428571</ele><time>2026-05-02T06:52:30.999Z</time></trkpt><trkpt lat="44.236160736996155" lon="11.89729480297915"><ele>68.0</ele><time>2026-05-02T06:52:35.999Z</time></trkpt><trkpt lat="44.236107375736616" lon="11.897345207428005"><ele>67.99999999999999</ele><time>2026-05-02T06:52:40.999Z</time></trkpt><trkpt lat="44.236052696123444" lon="11.897389763170306"><ele>68.0</ele><time>2026-05-02T06:52:45.999Z</time></trkpt><trkpt lat="44.23598781084302" lon="11.897432264114704"><ele>68.0</ele><time>2026-05-02T06:52:51.999Z</time></trkpt><trkpt lat="44.23593736534334" lon="11.897497357775938"><ele>68.0</ele><time>2026-05-02T06:52:57.999Z</time></trkpt><trkpt lat="44.23588096255728" lon="11.897559755278559"><ele>68.0</ele><time>2026-05-02T06:53:04Z</time></trkpt><trkpt lat="44.235827862518974" lon="11.89763105750203"><ele>67.99999999999999</ele><time>2026-05-02T06:53:11Z</time></trkpt><trkpt lat="44.23577223321374" lon="11.897684615011404"><ele>68.0</ele><time>2026-05-02T06:53:16Z</time></trkpt><trkpt lat="44.23571833261634" lon="11.897730944359749"><ele>70.85714285714285</ele><time>2026-05-02T06:53:22Z</time></trkpt><trkpt lat="44.23566776482186" lon="11.89778776418674"><ele>73.71428571428571</ele><time>2026-05-02T06:53:28Z</time></trkpt><trkpt lat="44.23561182027754" lon="11.897836207513707"><ele>76.57142857142857</ele><time>2026-05-02T06:53:34Z</time></trkpt><trkpt lat="44.235542791498894" lon="11.897876853654202"><ele>79.42857142857142</ele><time>2026-05-02T06:53:42Z</time></trkpt><trkpt lat="44.2354872501099" lon="11.897946731063076"><ele>82.28571428571428</ele><time>2026-05-02T06:53:49Z</time></trkpt><trkpt lat="44.235439599476265" lon="11.89801051800415"><ele>85.14285714285714</ele><time>2026-05-02T06:53:55Z</time></trkpt><trkpt lat="44.235405506511114" lon="11.898086887886054"><ele>88.0</ele><time>2026-05-02T06:54:01Z</time></trkpt><trkpt lat="44.23536130540964" lon="11.898150325051498"><ele>88.28571428571429</ele><time>2026-05-02T06:54:07Z</time></trkpt><trkpt lat="44.23530423687943" lon="11.89821617591028"><ele>88.57142857142857</ele><time>2026-05-02T06:54:14Z</time></trkpt><trkpt lat="44.23523973683618" lon="11.898251190836389"><ele>88.85714285714286</ele><time>2026-05-02T06:54:19.999Z</time></trkpt><trkpt lat="44.23517667546956" lon="11.898270804447957"><ele>89.14285714285714</ele><time>2026-05-02T06:54:24.999Z</time></trkpt><trkpt lat="44.235110261871164" lon="11.898285247773659"><ele>89.42857142857143</ele><time>2026-05-02T06:54:29.999Z</time></trkpt><trkpt lat="44.23505021780137" lon="11.898320896740616"><ele>89.71428571428571</ele><time>2026-05-02T06:54:34.999Z</time></trkpt><trkpt lat="44.234986460160556" lon="11.898344141088621"><ele>90.0</ele><time>2026-05-02T06:54:39.999Z</time></trkpt><trkpt lat="44.23492175810063" lon="11.898356762994235"><ele>90.0</ele><time>2026-05-02T06:54:44.999Z</time></trkpt><trkpt lat="44.23485342290324" lon="11.898363349845576"><ele>90.0</ele><time>2026-05-02T06:54:49.999Z</time></trkpt><trkpt lat="44.234789851489374" lon="11.89838267472947"><ele>90.0</ele><time>2026-05-02T06:54:54.999Z</time></trkpt><trkpt lat="44.234725643996136" lon="11.89843168068676"><ele>90.0</ele><time>2026-05-02T06:55:00.999Z</time></trkpt><trkpt lat="44.23468595828399" lon="11.898507186053516"><ele>90.0</ele><time>2026-05-02T06:55:05.999Z</time></trkpt><trkpt lat="44.234642023703024" lon="11.898573703974574"><ele>90.0</ele><time>2026-05-02T06:55:10Z</time></trkpt><trkpt lat="44.23460012360878" lon="11.898646731032914"><ele>90.0</ele><time>2026-05-02T06:55:14Z</time></trkpt><trkpt lat="44.234547460522315" lon="11.898708467011065"><ele>91.0</ele><time>2026-05-02T06:55:18Z</time></trkpt><trkpt lat="44.23448868217918" lon="11.898766089467948"><ele>92.0</ele><time>2026-05-02T06:55:22Z</time></trkpt><trkpt lat="44.234421076798384" lon="11.89882571806974"><ele>93.0</ele><time>2026-05-02T06:55:26Z</time></trkpt><trkpt lat="44.234367015752206" lon="11.898873793827272"><ele>94.0</ele><time>2026-05-02T06:55:29Z</time></trkpt><trkpt lat="44.23431099345222" lon="11.898931358160649"><ele>95.0</ele><time>2026-05-02T06:55:32Z</time></trkpt><trkpt lat="44.23424512013949" lon="11.898983744495547"><ele>96.0</ele><time>2026-05-02T06:55:35Z</time></trkpt><trkpt lat="44.23418938561731" lon="11.89903821385582"><ele>97.0</ele><time>2026-05-02T06:55:38Z</time></trkpt><trkpt lat="44.234130356711354" lon="11.89910167700288"><ele>97.00000000000001</ele><time>2026-05-02T06:55:41Z</time></trkpt><trkpt lat="44.23406866475146" lon="11.899169251185464"><ele>97.0</ele><time>2026-05-02T06:55:44Z</time></trkpt><trkpt lat="44.23401235866568" lon="11.899232240247635"><ele>97.0</ele><time>2026-05-02T06:55:47Z</time></trkpt><trkpt lat="44.23395341051024" lon="11.8992918735183"><ele>97.0</ele><time>2026-05-02T06:55:50Z</time></trkpt><trkpt lat="44.23387626164893" lon="11.899332255390249"><ele>97.00000000000001</ele><time>2026-05-02T06:55:53Z</time></trkpt><trkpt lat="44.233781609945446" lon="11.89935600666619"><ele>97.0</ele><time>2026-05-02T06:55:56Z</time></trkpt><trkpt lat="44.233718925390235" lon="11.899428658753479"><ele>97.83333333333334</ele><time>2026-05-02T06:55:59Z</time></trkpt><trkpt lat="44.233660735358754" lon="11.899485712873426"><ele>98.66666666666667</ele><time>2026-05-02T06:56:02Z</time></trkpt><trkpt lat="44.23359509807352" lon="11.899547415580418"><ele>99.5</ele><time>2026-05-02T06:56:05Z</time></trkpt><trkpt lat="44.233522575530365" lon="11.899598602167877"><ele>100.33333333333334</ele><time>2026-05-02T06:56:08Z</time></trkpt><trkpt lat="44.23345444768751" lon="11.899649784400257"><ele>101.16666666666667</ele><time>2026-05-02T06:56:11Z</time></trkpt><trkpt lat="44.23339219180328" lon="11.899702783156766"><ele>102.0</ele><time>2026-05-02T06:56:14Z</time></trkpt><trkpt lat="44.23332728810005" lon="11.899745839464357"><ele>102.0</ele><time>2026-05-02T06:56:17Z</time></trkpt><trkpt lat="44.23326718968836" lon="11.89979858519858"><ele>102.0</ele><time>2026-05-02T06:56:20Z</time></trkpt><trkpt lat="44.23319862333619" lon="11.899827755433071"><ele>102.0</ele><time>2026-05-02T06:56:23Z</time></trkpt><trkpt lat="44.233134845748495" lon="11.89984599765011"><ele>102.0</ele><time>2026-05-02T06:56:26Z</time></trkpt><trkpt lat="44.2330675042235" lon="11.899869945625028"><ele>102.0</ele><time>2026-05-02T06:56:28.999Z</time></trkpt><trkpt lat="44.23300464219829" lon="11.899895127015133"><ele>102.0</ele><time>2026-05-02T06:56:31.999Z</time></trkpt><trkpt lat="44.232944809854345" lon="11.899925470155118"><ele>102.0</ele><time>2026-05-02T06:56:34.999Z</time></trkpt><trkpt lat="44.2328648295064" lon="11.899966560035926"><ele>101.28571428571429</ele><time>2026-05-02T06:56:38.999Z</time></trkpt><trkpt lat="44.232801178802774" lon="11.89999550202709"><ele>100.57142857142858</ele><time>2026-05-02T06:56:41.999Z</time></trkpt><trkpt lat="44.232731784875746" lon="11.900014905611169"><ele>99.85714285714286</ele><time>2026-05-02T06:56:44.999Z</time></trkpt><trkpt lat="44.23266726468133" lon="11.900049341564497"><ele>99.14285714285714</ele><time>2026-05-02T06:56:47.999Z</time></trkpt><trkpt lat="44.2326045068064" lon="11.900075551255659"><ele>98.42857142857143</ele><time>2026-05-02T06:56:50.999Z</time></trkpt><trkpt lat="44.23252358412311" lon="11.900110635780187"><ele>97.71428571428571</ele><time>2026-05-02T06:56:54.999Z</time></trkpt><trkpt lat="44.23244964127821" lon="11.900136273656138"><ele>97.0</ele><time>2026-05-02T06:56:57.999Z</time></trkpt><trkpt lat="44.23238508832859" lon="11.900168253605269"><ele>99.14285714285714</ele><time>2026-05-02T06:57:00.999Z</time></trkpt><trkpt lat="44.23231950848181" lon="11.900199524259433"><ele>101.28571428571429</ele><time>2026-05-02T06:57:03.999Z</time></trkpt><trkpt lat="44.23225457233025" lon="11.900231833312143"><ele>103.42857142857143</ele><time>2026-05-02T06:57:06.999Z</time></trkpt><trkpt lat="44.232182639818014" lon="11.900271934638694"><ele>105.57142857142857</ele><time>2026-05-02T06:57:09.999Z</time></trkpt><trkpt lat="44.23211177459748" lon="11.900304516689129"><ele>107.71428571428572</ele><time>2026-05-02T06:57:12.999Z</time></trkpt><trkpt lat="44.2320403261263" lon="11.900325581708326"><ele>109.85714285714286</ele><time>2026-05-02T06:57:16Z</time></trkpt><trkpt lat="44.23197433580857" lon="11.900350035900088"><ele>112.0</ele><time>2026-05-02T06:57:19Z</time></trkpt><trkpt lat="44.23190726520135" lon="11.900360912104835"><ele>112.0</ele><time>2026-05-02T06:57:22Z</time></trkpt><trkpt lat="44.23184755990451" lon="11.900395296504607"><ele>112.0</ele><time>2026-05-02T06:57:25Z</time></trkpt><trkpt lat="44.231788351406614" lon="11.900450134915472"><ele>112.0</ele><time>2026-05-02T06:57:29Z</time></trkpt><trkpt lat="44.23172016553933" lon="11.90049425023399"><ele>112.0</ele><time>2026-05-02T06:57:34Z</time></trkpt><trkpt lat="44.23166344926789" lon="11.90054558706156"><ele>112.0</ele><time>2026-05-02T06:57:39Z</time></trkpt><trkpt lat="44.231598264741436" lon="11.90058598100111"><ele>112.0</ele><time>2026-05-02T06:57:44Z</time></trkpt><trkpt lat="44.23154510359611" lon="11.900633078257467"><ele>112.0</ele><time>2026-05-02T06:57:49Z</time></trkpt><trkpt lat="44.231484733487896" lon="11.900675866439622"><ele>111.85714285714286</ele><time>2026-05-02T06:57:54Z</time></trkpt><trkpt lat="44.231427490857264" lon="11.900719259839507"><ele>111.71428571428572</ele><time>2026-05-02T06:57:59Z</time></trkpt><trkpt lat="44.23136855275113" lon="11.900760462221378"><ele>111.57142857142857</ele><time>2026-05-02T06:58:04Z</time></trkpt><trkpt lat="44.23130296044158" lon="11.900792631400131"><ele>111.42857142857143</ele><time>2026-05-02T06:58:10Z</time></trkpt><trkpt lat="44.23124011632241" lon="11.900785188221139"><ele>111.28571428571429</ele><time>2026-05-02T06:58:14Z</time></trkpt><trkpt lat="44.2311764542231" lon="11.900822757943075"><ele>111.14285714285714</ele><time>2026-05-02T06:58:19Z</time></trkpt><trkpt lat="44.23111129064291" lon="11.900856851272799"><ele>111.0</ele><time>2026-05-02T06:58:24Z</time></trkpt><trkpt lat="44.23105748860609" lon="11.900916761969413"><ele>112.28571428571428</ele><time>2026-05-02T06:58:28Z</time></trkpt><trkpt lat="44.230993862114495" lon="11.900953020831917"><ele>113.57142857142858</ele><time>2026-05-02T06:58:32Z</time></trkpt><trkpt lat="44.230934483687165" lon="11.900995402036152"><ele>114.85714285714286</ele><time>2026-05-02T06:58:36.999Z</time></trkpt><trkpt lat="44.230881148115955" lon="11.901046244135504"><ele>116.14285714285714</ele><time>2026-05-02T06:58:41.999Z</time></trkpt><trkpt lat="44.230835264544666" lon="11.901111518056522"><ele>117.42857142857142</ele><time>2026-05-02T06:58:46.999Z</time></trkpt><trkpt lat="44.23078193716786" lon="11.901166759246644"><ele>118.71428571428572</ele><time>2026-05-02T06:58:51.999Z</time></trkpt><trkpt lat="44.23071098178238" lon="11.901196230183155"><ele>120.0</ele><time>2026-05-02T06:58:57.999Z</time></trkpt><trkpt lat="44.230636075855266" lon="11.901208525332358"><ele>120.0</ele><time>2026-05-02T06:59:01.999Z</time></trkpt><trkpt lat="44.23056632215351" lon="11.901230161397873"><ele>120.0</ele><time>2026-05-02T06:59:06.999Z</time></trkpt><trkpt lat="44.23048919229371" lon="11.901226015930755"><ele>120.0</ele><time>2026-05-02T06:59:10.999Z</time></trkpt><trkpt lat="44.230424611668205" lon="11.901239175952096"><ele>120.0</ele><time>2026-05-02T06:59:13.999Z</time></trkpt><trkpt lat="44.230360140896124" lon="11.901249968289623"><ele>120.0</ele><time>2026-05-02T06:59:17.999Z</time></trkpt><trkpt lat="44.23029519615603" lon="11.90127470264172"><ele>120.0</ele><time>2026-05-02T06:59:22Z</time></trkpt><trkpt lat="44.230226753938744" lon="11.901304780127361"><ele>120.0</ele><time>2026-05-02T06:59:27Z</time></trkpt><trkpt lat="44.23016085503799" lon="11.901352104417295"><ele>120.0</ele><time>2026-05-02T06:59:32Z</time></trkpt><trkpt lat="44.230094156282085" lon="11.901391016599906"><ele>120.0</ele><time>2026-05-02T06:59:38Z</time></trkpt><trkpt lat="44.2300284063442" lon="11.90143737042587"><ele>120.0</ele><time>2026-05-02T06:59:44Z</time></trkpt><trkpt lat="44.229964036673415" lon="11.90147839109882"><ele>120.0</ele><time>2026-05-02T06:59:50Z</time></trkpt><trkpt lat="44.229903376801815" lon="11.901527512764364"><ele>120.0</ele><time>2026-05-02T06:59:55Z</time></trkpt><trkpt lat="44.229817562923024" lon="11.901555958461369"><ele>120.0</ele><time>2026-05-02T06:59:59Z</time></trkpt><trkpt lat="44.22974400012068" lon="11.901597965029548"><ele>119.66666666666667</ele><time>2026-05-02T07:00:02Z</time></trkpt><trkpt lat="44.22966990103909" lon="11.901641358617686"><ele>119.33333333333334</ele><time>2026-05-02T07:00:05Z</time></trkpt><trkpt lat="44.22959629910533" lon="11.901684049447079"><ele>119.0</ele><time>2026-05-02T07:00:08Z</time></trkpt><trkpt lat="44.22952779437535" lon="11.901728156241917"><ele>118.66666666666667</ele><time>2026-05-02T07:00:11Z</time></trkpt><trkpt lat="44.229451013272026" lon="11.90179518108783"><ele>118.33333333333334</ele><time>2026-05-02T07:00:15Z</time></trkpt><trkpt lat="44.229381309567586" lon="11.901833076200084"><ele>118.0</ele><time>2026-05-02T07:00:18Z</time></trkpt><trkpt lat="44.229327588717204" lon="11.901890694034037"><ele>119.28571428571428</ele><time>2026-05-02T07:00:21Z</time></trkpt><trkpt lat="44.229258392827695" lon="11.901933797633337"><ele>120.57142857142858</ele><time>2026-05-02T07:00:24Z</time></trkpt><trkpt lat="44.22919068841284" lon="11.901975150274835"><ele>121.85714285714286</ele><time>2026-05-02T07:00:27Z</time></trkpt><trkpt lat="44.22913510647483" lon="11.90202104778209"><ele>123.14285714285714</ele><time>2026-05-02T07:00:30Z</time></trkpt><trkpt lat="44.22908171636225" lon="11.902073040256827"><ele>124.42857142857142</ele><time>2026-05-02T07:00:33Z</time></trkpt><trkpt lat="44.229016235406476" lon="11.902131767709939"><ele>125.71428571428572</ele><time>2026-05-02T07:00:37Z</time></trkpt><trkpt lat="44.22896047768456" lon="11.902199146951046"><ele>127.0</ele><time>2026-05-02T07:00:41Z</time></trkpt><trkpt lat="44.22889920278737" lon="11.902266988107426"><ele>127.57142857142858</ele><time>2026-05-02T07:00:45.999Z</time></trkpt><trkpt lat="44.22884724470058" lon="11.902322876207704"><ele>128.14285714285714</ele><time>2026-05-02T07:00:49.999Z</time></trkpt><trkpt lat="44.22879469530554" lon="11.902393788052573"><ele>128.71428571428572</ele><time>2026-05-02T07:00:54.999Z</time></trkpt><trkpt lat="44.22874128376941" lon="11.902459077648608"><ele>129.28571428571428</ele><time>2026-05-02T07:00:59.999Z</time></trkpt><trkpt lat="44.22868233372269" lon="11.902532928167332"><ele>129.85714285714286</ele><time>2026-05-02T07:01:04.999Z</time></trkpt><trkpt lat="44.228631423750926" lon="11.902615446970309"><ele>130.42857142857144</ele><time>2026-05-02T07:01:10.999Z</time></trkpt><trkpt lat="44.22859694392817" lon="11.90269096423579"><ele>131.0</ele><time>2026-05-02T07:01:15.999Z</time></trkpt><trkpt lat="44.228539246468934" lon="11.902750003905117"><ele>132.85714285714286</ele><time>2026-05-02T07:01:21.999Z</time></trkpt><trkpt lat="44.22848965722796" lon="11.902816607463928"><ele>134.71428571428572</ele><time>2026-05-02T07:01:28Z</time></trkpt><trkpt lat="44.22845304515604" lon="11.902888657271562"><ele>136.57142857142858</ele><time>2026-05-02T07:01:34Z</time></trkpt><trkpt lat="44.22842906547072" lon="11.902978256844566"><ele>138.42857142857144</ele><time>2026-05-02T07:01:40Z</time></trkpt><trkpt lat="44.2283940510795" lon="11.9030523123654"><ele>140.28571428571428</ele><time>2026-05-02T07:01:46Z</time></trkpt><trkpt lat="44.22835409580289" lon="11.903129058893747"><ele>142.14285714285717</ele><time>2026-05-02T07:01:52Z</time></trkpt><trkpt lat="44.228350184197666" lon="11.903228679597177"><ele>144.0</ele><time>2026-05-02T07:01:58Z</time></trkpt><trkpt lat="44.22831661342568" lon="11.903304108066889"><ele>144.00000000000003</ele><time>2026-05-02T07:02:03Z</time></trkpt><trkpt lat="44.228317370144445" lon="11.903393306534598"><ele>144.0</ele><time>2026-05-02T07:02:08Z</time></trkpt><trkpt lat="44.22826880432971" lon="11.903467769817826"><ele>144.0</ele><time>2026-05-02T07:02:13Z</time></trkpt><trkpt lat="44.22823346645062" lon="11.903548422350898"><ele>144.0</ele><time>2026-05-02T07:02:18Z</time></trkpt><trkpt lat="44.22819128208012" lon="11.903624955866558"><ele>144.0</ele><time>2026-05-02T07:02:23Z</time></trkpt><trkpt lat="44.22817321365824" lon="11.903713733612431"><ele>144.00000000000003</ele><time>2026-05-02T07:02:28Z</time></trkpt><trkpt lat="44.22811232603294" lon="11.903761818453127"><ele>144.0</ele><time>2026-05-02T07:02:33Z</time></trkpt><trkpt lat="44.22807217154998" lon="11.903840438811951"><ele>146.2857142857143</ele><time>2026-05-02T07:02:39Z</time></trkpt><trkpt lat="44.22804902712061" lon="11.90393584678757"><ele>148.57142857142858</ele><time>2026-05-02T07:02:44Z</time></trkpt><trkpt lat="44.22801165401551" lon="11.90402213000004"><ele>150.85714285714286</ele><time>2026-05-02T07:02:50Z</time></trkpt><trkpt lat="44.227965162050744" lon="11.904093852528906"><ele>153.14285714285717</ele><time>2026-05-02T07:02:54.999Z</time></trkpt><trkpt lat="44.22795725787864" lon="11.904181882215305"><ele>155.42857142857144</ele><time>2026-05-02T07:02:59.999Z</time></trkpt><trkpt lat="44.227920984279564" lon="11.90425506322419"><ele>157.71428571428572</ele><time>2026-05-02T07:03:04.999Z</time></trkpt><trkpt lat="44.22789020616147" lon="11.904333381928193"><ele>160.0</ele><time>2026-05-02T07:03:10.999Z</time></trkpt><trkpt lat="44.22790281439978" lon="11.904438746060666"><ele>160.0</ele><time>2026-05-02T07:03:15.999Z</time></trkpt><trkpt lat="44.22791224160468" lon="11.904533648894798"><ele>160.0</ele><time>2026-05-02T07:03:20.999Z</time></trkpt><trkpt lat="44.227914350896434" lon="11.904624419999193"><ele>160.0</ele><time>2026-05-02T07:03:24.999Z</time></trkpt><trkpt lat="44.22792635139114" lon="11.904736161271414"><ele>160.0</ele><time>2026-05-02T07:03:27.999Z</time></trkpt><trkpt lat="44.227926675381255" lon="11.904851000404106"><ele>160.0</ele><time>2026-05-02T07:03:29.999Z</time></trkpt><trkpt lat="44.227919296154646" lon="11.9049965054765"><ele>160.0</ele><time>2026-05-02T07:03:31.999Z</time></trkpt><trkpt lat="44.22786618955601" lon="11.905158453330468"><ele>158.16666666666669</ele><time>2026-05-02T07:03:34Z</time></trkpt><trkpt lat="44.22782471838593" lon="11.905242399629957"><ele>156.33333333333334</ele><time>2026-05-02T07:03:35Z</time></trkpt><trkpt lat="44.22777725738374" lon="11.905326554992746"><ele>154.5</ele><time>2026-05-02T07:03:36Z</time></trkpt><trkpt lat="44.227724464588064" lon="11.90541153630548"><ele>152.66666666666666</ele><time>2026-05-02T07:03:37Z</time></trkpt><trkpt lat="44.22767261466966" lon="11.905501535952798"><ele>150.83333333333331</ele><time>2026-05-02T07:03:38Z</time></trkpt><trkpt lat="44.227618228267524" lon="11.905596641172048"><ele>149.0</ele><time>2026-05-02T07:03:39Z</time></trkpt><trkpt lat="44.227560415598184" lon="11.905691739221737"><ele>149.0</ele><time>2026-05-02T07:03:40Z</time></trkpt><trkpt lat="44.227505763136634" lon="11.905782825912679"><ele>149.0</ele><time>2026-05-02T07:03:41Z</time></trkpt><trkpt lat="44.227448582827805" lon="11.90587911688566"><ele>149.0</ele><time>2026-05-02T07:03:42Z</time></trkpt><trkpt lat="44.22739245748413" lon="11.905977119092524"><ele>149.0</ele><time>2026-05-02T07:03:43Z</time></trkpt><trkpt lat="44.22734961518576" lon="11.906082181757094"><ele>149.0</ele><time>2026-05-02T07:03:44Z</time></trkpt><trkpt lat="44.22729089529763" lon="11.906182253886401"><ele>149.0</ele><time>2026-05-02T07:03:45Z</time></trkpt><trkpt lat="44.22723977507548" lon="11.906282118789436"><ele>149.0</ele><time>2026-05-02T07:03:46Z</time></trkpt><trkpt lat="44.22719314159881" lon="11.90637964184468"><ele>149.0</ele><time>2026-05-02T07:03:47Z</time></trkpt><trkpt lat="44.22713924482376" lon="11.90647802349548"><ele>149.0</ele><time>2026-05-02T07:03:48Z</time></trkpt><trkpt lat="44.22708970393595" lon="11.906575998881125"><ele>149.0</ele><time>2026-05-02T07:03:49Z</time></trkpt><trkpt lat="44.22705332803144" lon="11.906680172570939"><ele>149.0</ele><time>2026-05-02T07:03:50Z</time></trkpt><trkpt lat="44.22702782635271" lon="11.9067910363534"><ele>149.0</ele><time>2026-05-02T07:03:51Z</time></trkpt><trkpt lat="44.22702029506762" lon="11.906909646524756"><ele>149.0</ele><time>2026-05-02T07:03:52Z</time></trkpt><trkpt lat="44.227026603841054" lon="11.907030302369334"><ele>149.0</ele><time>2026-05-02T07:03:53Z</time></trkpt><trkpt lat="44.22704191283135" lon="11.90715208232767"><ele>149.0</ele><time>2026-05-02T07:03:54Z</time></trkpt><trkpt lat="44.227070265910946" lon="11.907267073523107"><ele>149.0</ele><time>2026-05-02T07:03:55Z</time></trkpt><trkpt lat="44.22708954099573" lon="11.907383188668176"><ele>149.0</ele><time>2026-05-02T07:03:56Z</time></trkpt><trkpt lat="44.227099309356696" lon="11.90749765113727"><ele>149.0</ele><time>2026-05-02T07:03:57Z</time></trkpt><trkpt lat="44.227105135423926" lon="11.907614424965574"><ele>147.0</ele><time>2026-05-02T07:03:58Z</time></trkpt><trkpt lat="44.227098648931175" lon="11.907735398684066"><ele>145.0</ele><time>2026-05-02T07:03:59Z</time></trkpt><trkpt lat="44.22706725981458" lon="11.907854679514806"><ele>143.0</ele><time>2026-05-02T07:04:00Z</time></trkpt><trkpt lat="44.22706584309053" lon="11.907985565863916"><ele>141.0</ele><time>2026-05-02T07:04:01Z</time></trkpt><trkpt lat="44.2270438493601" lon="11.90811799307289"><ele>139.0</ele><time>2026-05-02T07:04:02Z</time></trkpt><trkpt lat="44.22702492902021" lon="11.908251959383037"><ele>139.0</ele><time>2026-05-02T07:04:03Z</time></trkpt><trkpt lat="44.22701342253701" lon="11.908375750153809"><ele>139.0</ele><time>2026-05-02T07:04:04Z</time></trkpt><trkpt lat="44.227010347995424" lon="11.908477989146926"><ele>139.0</ele><time>2026-05-02T07:04:05Z</time></trkpt><trkpt lat="44.22705483065722" lon="11.908610023867139"><ele>139.0</ele><time>2026-05-02T07:04:07Z</time></trkpt><trkpt lat="44.22714430828169" lon="11.908700480278414"><ele>139.0</ele><time>2026-05-02T07:04:09Z</time></trkpt><trkpt lat="44.22724883549752" lon="11.908751493386006"><ele>137.2</ele><time>2026-05-02T07:04:11Z</time></trkpt><trkpt lat="44.227367530288774" lon="11.90880668984394"><ele>135.4</ele><time>2026-05-02T07:04:13Z</time></trkpt><trkpt lat="44.22742994397558" lon="11.908824565654331"><ele>133.6</ele><time>2026-05-02T07:04:14Z</time></trkpt><trkpt lat="44.22756392105269" lon="11.9088557366789"><ele>131.8</ele><time>2026-05-02T07:04:16Z</time></trkpt><trkpt lat="44.22763696904396" lon="11.908873685661886"><ele>130.0</ele><time>2026-05-02T07:04:17Z</time></trkpt><trkpt lat="44.22771208645971" lon="11.90889228004293"><ele>130.0</ele><time>2026-05-02T07:04:18Z</time></trkpt><trkpt lat="44.227786802087124" lon="11.908913300652268"><ele>130.0</ele><time>2026-05-02T07:04:19Z</time></trkpt><trkpt lat="44.227858128720904" lon="11.90893507651814"><ele>130.0</ele><time>2026-05-02T07:04:20Z</time></trkpt><trkpt lat="44.227928567419944" lon="11.908968518908967"><ele>130.0</ele><time>2026-05-02T07:04:21Z</time></trkpt><trkpt lat="44.22800905894102" lon="11.909009228864512"><ele>130.0</ele><time>2026-05-02T07:04:22Z</time></trkpt><trkpt lat="44.22809344291542" lon="11.909057914971426"><ele>130.0</ele><time>2026-05-02T07:04:23Z</time></trkpt><trkpt lat="44.22818619022689" lon="11.909123804505017"><ele>128.2</ele><time>2026-05-02T07:04:24Z</time></trkpt><trkpt lat="44.228280128675806" lon="11.909197897962322"><ele>126.4</ele><time>2026-05-02T07:04:25Z</time></trkpt><trkpt lat="44.22838076230862" lon="11.909258627333852"><ele>124.6</ele><time>2026-05-02T07:04:26Z</time></trkpt><trkpt lat="44.22847205643122" lon="11.90936684148003"><ele>122.8</ele><time>2026-05-02T07:04:27Z</time></trkpt><trkpt lat="44.22855812231536" lon="11.90944682235477"><ele>121.0</ele><time>2026-05-02T07:04:28Z</time></trkpt><trkpt lat="44.228651569169045" lon="11.909519453167734"><ele>120.25</ele><time>2026-05-02T07:04:29Z</time></trkpt><trkpt lat="44.22874617000621" lon="11.909596626275654"><ele>119.5</ele><time>2026-05-02T07:04:30Z</time></trkpt><trkpt lat="44.22884807984339" lon="11.909679358746924"><ele>118.75</ele><time>2026-05-02T07:04:31Z</time></trkpt><trkpt lat="44.22894733968125" lon="11.909762648119687"><ele>118.0</ele><time>2026-05-02T07:04:32Z</time></trkpt><trkpt lat="44.229036494667454" lon="11.909866478703734"><ele>117.60000000000001</ele><time>2026-05-02T07:04:33Z</time></trkpt><trkpt lat="44.22911012496009" lon="11.909929958599685"><ele>117.20000000000002</ele><time>2026-05-02T07:04:34Z</time></trkpt><trkpt lat="44.22919003806874" lon="11.90999880705651"><ele>116.8</ele><time>2026-05-02T07:04:35Z</time></trkpt><trkpt lat="44.229279372226436" lon="11.910051672704638"><ele>116.4</ele><time>2026-05-02T07:04:36Z</time></trkpt><trkpt lat="44.2293772063354" lon="11.910122477150876"><ele>116.0</ele><time>2026-05-02T07:04:37Z</time></trkpt><trkpt lat="44.22944803483248" lon="11.910176027634135"><ele>115.8</ele><time>2026-05-02T07:04:38Z</time></trkpt><trkpt lat="44.22953343123781" lon="11.910227130795661"><ele>115.6</ele><time>2026-05-02T07:04:39Z</time></trkpt><trkpt lat="44.229615662368566" lon="11.910282333190592"><ele>115.4</ele><time>2026-05-02T07:04:40Z</time></trkpt><trkpt lat="44.2297010837726" lon="11.91033096055039"><ele>115.2</ele><time>2026-05-02T07:04:41Z</time></trkpt><trkpt lat="44.22979139417464" lon="11.910384603450462"><ele>115.0</ele><time>2026-05-02T07:04:42Z</time></trkpt><trkpt lat="44.229873927314635" lon="11.910430486458646"><ele>116.50000000000001</ele><time>2026-05-02T07:04:43Z</time></trkpt><trkpt lat="44.22995609175446" lon="11.910464691777989"><ele>118.0</ele><time>2026-05-02T07:04:44Z</time></trkpt><trkpt lat="44.23003044684126" lon="11.910524772350962"><ele>119.5</ele><time>2026-05-02T07:04:45Z</time></trkpt><trkpt lat="44.230114233415684" lon="11.910565359992207"><ele>121.0</ele><time>2026-05-02T07:04:46Z</time></trkpt><trkpt lat="44.2301911225095" lon="11.91059992456547"><ele>122.50000000000001</ele><time>2026-05-02T07:04:47Z</time></trkpt><trkpt lat="44.230267002784366" lon="11.910633934679314"><ele>124.0</ele><time>2026-05-02T07:04:48Z</time></trkpt><trkpt lat="44.230337652692896" lon="11.91066560046526"><ele>124.00000000000001</ele><time>2026-05-02T07:04:49Z</time></trkpt><trkpt lat="44.23040439416634" lon="11.910675011462805"><ele>124.0</ele><time>2026-05-02T07:04:50Z</time></trkpt><trkpt lat="44.23046524225487" lon="11.910716416112212"><ele>124.0</ele><time>2026-05-02T07:04:51Z</time></trkpt><trkpt lat="44.23053297790696" lon="11.910746081615825"><ele>124.0</ele><time>2026-05-02T07:04:52Z</time></trkpt><trkpt lat="44.230645469612526" lon="11.910821669720992"><ele>124.00000000000001</ele><time>2026-05-02T07:04:54Z</time></trkpt><trkpt lat="44.23075684350449" lon="11.910879677464987"><ele>124.0</ele><time>2026-05-02T07:04:56Z</time></trkpt><trkpt lat="44.23086023977843" lon="11.910947331930013"><ele>123.80000000000001</ele><time>2026-05-02T07:04:57.999Z</time></trkpt><trkpt lat="44.230961105853474" lon="11.911029317333508"><ele>123.60000000000001</ele><time>2026-05-02T07:04:59.999Z</time></trkpt><trkpt lat="44.231031196628486" lon="11.91107435921434"><ele>123.4</ele><time>2026-05-02T07:05:00.999Z</time></trkpt><trkpt lat="44.23111229677811" lon="11.911174256407357"><ele>123.2</ele><time>2026-05-02T07:05:02.999Z</time></trkpt><trkpt lat="44.23118707538441" lon="11.911300764536565"><ele>123.0</ele><time>2026-05-02T07:05:04.999Z</time></trkpt><trkpt lat="44.23123669836299" lon="11.91137689013566"><ele>123.00000000000001</ele><time>2026-05-02T07:05:05.999Z</time></trkpt><trkpt lat="44.231273708914685" lon="11.91145084255077"><ele>123.0</ele><time>2026-05-02T07:05:06.999Z</time></trkpt><trkpt lat="44.23132162200278" lon="11.911530168222049"><ele>123.00000000000001</ele><time>2026-05-02T07:05:07.999Z</time></trkpt><trkpt lat="44.23136496223009" lon="11.91160909293424"><ele>123.00000000000001</ele><time>2026-05-02T07:05:08.999Z</time></trkpt><trkpt lat="44.23139925786319" lon="11.911697024676545"><ele>123.0</ele><time>2026-05-02T07:05:09.999Z</time></trkpt><trkpt lat="44.23144038605248" lon="11.911786028171347"><ele>123.00000000000001</ele><time>2026-05-02T07:05:10.999Z</time></trkpt><trkpt lat="44.23148939448792" lon="11.911874045984423"><ele>123.00000000000001</ele><time>2026-05-02T07:05:11.999Z</time></trkpt><trkpt lat="44.23152010134913" lon="11.911961555703032"><ele>121.5</ele><time>2026-05-02T07:05:12.999Z</time></trkpt><trkpt lat="44.23155908576744" lon="11.912055473354533"><ele>120.0</ele><time>2026-05-02T07:05:13.999Z</time></trkpt><trkpt lat="44.23159870587296" lon="11.912146029088886"><ele>118.5</ele><time>2026-05-02T07:05:14.999Z</time></trkpt><trkpt lat="44.23164023269503" lon="11.912234589567605"><ele>117.0</ele><time>2026-05-02T07:05:15.999Z</time></trkpt><trkpt lat="44.231691957510286" lon="11.912321562862756"><ele>115.5</ele><time>2026-05-02T07:05:16.999Z</time></trkpt><trkpt lat="44.231736261064384" lon="11.912411573000659"><ele>114.0</ele><time>2026-05-02T07:05:17.999Z</time></trkpt><trkpt lat="44.23177106410735" lon="11.91250960001039"><ele>113.16666666666667</ele><time>2026-05-02T07:05:18.999Z</time></trkpt><trkpt lat="44.23180765975666" lon="11.912604878925595"><ele>112.33333333333334</ele><time>2026-05-02T07:05:19.999Z</time></trkpt><trkpt lat="44.23183773088353" lon="11.912707753496314"><ele>111.5</ele><time>2026-05-02T07:05:20.999Z</time></trkpt><trkpt lat="44.23186696160748" lon="11.912811434763"><ele>110.66666666666667</ele><time>2026-05-02T07:05:21.999Z</time></trkpt><trkpt lat="44.231888387542526" lon="11.91291798410544"><ele>109.83333333333334</ele><time>2026-05-02T07:05:22.999Z</time></trkpt><trkpt lat="44.23190792571224" lon="11.913028691840973"><ele>109.0</ele><time>2026-05-02T07:05:23.999Z</time></trkpt><trkpt lat="44.23192604445357" lon="11.913135830402991"><ele>109.00000000000001</ele><time>2026-05-02T07:05:24.999Z</time></trkpt><trkpt lat="44.2319423403807" lon="11.913248938153416"><ele>109.0</ele><time>2026-05-02T07:05:25.999Z</time></trkpt><trkpt lat="44.231948667823396" lon="11.913364650584942"><ele>109.0</ele><time>2026-05-02T07:05:26.999Z</time></trkpt><trkpt lat="44.231956784424504" lon="11.913475284585395"><ele>109.0</ele><time>2026-05-02T07:05:27.999Z</time></trkpt><trkpt lat="44.23197690099711" lon="11.91359181075127"><ele>109.00000000000001</ele><time>2026-05-02T07:05:28.999Z</time></trkpt><trkpt lat="44.23198774548494" lon="11.913704861362964"><ele>109.0</ele><time>2026-05-02T07:05:29.999Z</time></trkpt><trkpt lat="44.23200914524929" lon="11.913818813848657"><ele>107.0</ele><time>2026-05-02T07:05:30.999Z</time></trkpt><trkpt lat="44.232034991618086" lon="11.91393973249858"><ele>105.0</ele><time>2026-05-02T07:05:31.999Z</time></trkpt><trkpt lat="44.23207115297084" lon="11.914056139192573"><ele>103.0</ele><time>2026-05-02T07:05:32.999Z</time></trkpt><trkpt lat="44.232117130363925" lon="11.914168356994107"><ele>101.0</ele><time>2026-05-02T07:05:33.999Z</time></trkpt><trkpt lat="44.23217184602757" lon="11.914269935517469"><ele>99.0</ele><time>2026-05-02T07:05:34.999Z</time></trkpt><trkpt lat="44.23223650410865" lon="11.914370852049478"><ele>99.0</ele><time>2026-05-02T07:05:35.999Z</time></trkpt><trkpt lat="44.23231143425557" lon="11.914458057470082"><ele>99.0</ele><time>2026-05-02T07:05:36.999Z</time></trkpt><trkpt lat="44.23239646896342" lon="11.914536255467015"><ele>99.0</ele><time>2026-05-02T07:05:37.999Z</time></trkpt><trkpt lat="44.23248217252523" lon="11.91461508414718"><ele>99.0</ele><time>2026-05-02T07:05:38.999Z</time></trkpt><trkpt lat="44.232561094854894" lon="11.914686257417623"><ele>99.0</ele><time>2026-05-02T07:05:40Z</time></trkpt><trkpt lat="44.232628700812995" lon="11.914761995705828"><ele>99.0</ele><time>2026-05-02T07:05:41Z</time></trkpt><trkpt lat="44.23268877139661" lon="11.914828870934812"><ele>99.0</ele><time>2026-05-02T07:05:42Z</time></trkpt><trkpt lat="44.23274100391316" lon="11.914908701492763"><ele>99.0</ele><time>2026-05-02T07:05:43Z</time></trkpt><trkpt lat="44.232809599700914" lon="11.914997424433704"><ele>99.0</ele><time>2026-05-02T07:05:44Z</time></trkpt><trkpt lat="44.23287342542011" lon="11.915087758171826"><ele>99.0</ele><time>2026-05-02T07:05:45Z</time></trkpt><trkpt lat="44.23294403092451" lon="11.915177518031454"><ele>99.0</ele><time>2026-05-02T07:05:46Z</time></trkpt><trkpt lat="44.23301288857301" lon="11.915260674150803"><ele>97.0</ele><time>2026-05-02T07:05:47Z</time></trkpt><trkpt lat="44.23309207968481" lon="11.915339217013294"><ele>95.0</ele><time>2026-05-02T07:05:48Z</time></trkpt><trkpt lat="44.23317767245078" lon="11.91540254670022"><ele>93.0</ele><time>2026-05-02T07:05:49Z</time></trkpt><trkpt lat="44.233266572101925" lon="11.915461773853844"><ele>91.0</ele><time>2026-05-02T07:05:50Z</time></trkpt><trkpt lat="44.23335092627863" lon="11.915521188995706"><ele>89.0</ele><time>2026-05-02T07:05:51Z</time></trkpt><trkpt lat="44.233436487039775" lon="11.91558439532505"><ele>88.80000000000001</ele><time>2026-05-02T07:05:52Z</time></trkpt><trkpt lat="44.23352035745667" lon="11.915652146492086"><ele>88.60000000000001</ele><time>2026-05-02T07:05:53Z</time></trkpt><trkpt lat="44.23360631529071" lon="11.91572380153193"><ele>88.4</ele><time>2026-05-02T07:05:54Z</time></trkpt><trkpt lat="44.23369318386441" lon="11.91579485621862"><ele>88.2</ele><time>2026-05-02T07:05:55Z</time></trkpt><trkpt lat="44.23377794256164" lon="11.91587220654296"><ele>88.0</ele><time>2026-05-02T07:05:56Z</time></trkpt><trkpt lat="44.23386074320497" lon="11.915949036702278"><ele>87.2</ele><time>2026-05-02T07:05:57Z</time></trkpt><trkpt lat="44.233947697534354" lon="11.916021451153094"><ele>86.4</ele><time>2026-05-02T07:05:58Z</time></trkpt><trkpt lat="44.23402773695116" lon="11.916099557294832"><ele>85.60000000000001</ele><time>2026-05-02T07:05:59Z</time></trkpt><trkpt lat="44.23410198791963" lon="11.916185202630794"><ele>84.80000000000001</ele><time>2026-05-02T07:06:00Z</time></trkpt><trkpt lat="44.23417766782056" lon="11.916271383337572"><ele>84.0</ele><time>2026-05-02T07:06:01Z</time></trkpt><trkpt lat="44.23425237648752" lon="11.916355303852477"><ele>84.0</ele><time>2026-05-02T07:06:02Z</time></trkpt><trkpt lat="44.23432473756873" lon="11.916444436597759"><ele>84.0</ele><time>2026-05-02T07:06:03Z</time></trkpt><trkpt lat="44.23439404752329" lon="11.91653770682807"><ele>84.0</ele><time>2026-05-02T07:06:04Z</time></trkpt><trkpt lat="44.23445892952631" lon="11.916633492648016"><ele>84.0</ele><time>2026-05-02T07:06:05Z</time></trkpt><trkpt lat="44.234514736117795" lon="11.916740185593323"><ele>84.0</ele><time>2026-05-02T07:06:06Z</time></trkpt><trkpt lat="44.23455703898477" lon="11.916856979192394"><ele>83.0</ele><time>2026-05-02T07:06:07Z</time></trkpt><trkpt lat="44.234593943419156" lon="11.916979015165218"><ele>82.0</ele><time>2026-05-02T07:06:08Z</time></trkpt><trkpt lat="44.23462371374004" lon="11.917107647040593"><ele>81.0</ele><time>2026-05-02T07:06:09Z</time></trkpt><trkpt lat="44.23467287251679" lon="11.917226301025963"><ele>80.0</ele><time>2026-05-02T07:06:10Z</time></trkpt><trkpt lat="44.2347406473279" lon="11.91732816669721"><ele>79.0</ele><time>2026-05-02T07:06:11Z</time></trkpt><trkpt lat="44.234809140112844" lon="11.917423104386412"><ele>79.0</ele><time>2026-05-02T07:06:12Z</time></trkpt><trkpt lat="44.23487624894109" lon="11.917513268718112"><ele>79.0</ele><time>2026-05-02T07:06:13Z</time></trkpt><trkpt lat="44.23494541915558" lon="11.917604056696394"><ele>79.0</ele><time>2026-05-02T07:06:14Z</time></trkpt><trkpt lat="44.23500981135178" lon="11.917697985357089"><ele>79.0</ele><time>2026-05-02T07:06:15Z</time></trkpt><trkpt lat="44.23507477264568" lon="11.917789967210654"><ele>79.0</ele><time>2026-05-02T07:06:16Z</time></trkpt><trkpt lat="44.23513890886339" lon="11.917879390313276"><ele>78.8</ele><time>2026-05-02T07:06:17Z</time></trkpt><trkpt lat="44.235201885160045" lon="11.917970133809069"><ele>78.60000000000001</ele><time>2026-05-02T07:06:18Z</time></trkpt><trkpt lat="44.23526631798096" lon="11.918058211632152"><ele>78.4</ele><time>2026-05-02T07:06:19Z</time></trkpt><trkpt lat="44.23533277246069" lon="11.918143895690482"><ele>78.2</ele><time>2026-05-02T07:06:20Z</time></trkpt><trkpt lat="44.2353992574905" lon="11.918230729976099"><ele>78.0</ele><time>2026-05-02T07:06:21Z</time></trkpt><trkpt lat="44.235465152999495" lon="11.918320608700784"><ele>77.0</ele><time>2026-05-02T07:06:22Z</time></trkpt><trkpt lat="44.23553276261029" lon="11.91841392451319"><ele>76.0</ele><time>2026-05-02T07:06:23Z</time></trkpt><trkpt lat="44.23560251215734" lon="11.918507887720775"><ele>75.0</ele><time>2026-05-02T07:06:24Z</time></trkpt><trkpt lat="44.23567385909558" lon="11.918602884072431"><ele>74.0</ele><time>2026-05-02T07:06:25Z</time></trkpt><trkpt lat="44.2357468471267" lon="11.918691560010354"><ele>73.0</ele><time>2026-05-02T07:06:26Z</time></trkpt><trkpt lat="44.23581190178401" lon="11.918766569380606"><ele>73.0</ele><time>2026-05-02T07:06:27Z</time></trkpt><trkpt lat="44.23586095525422" lon="11.91885575966272"><ele>73.0</ele><time>2026-05-02T07:06:28Z</time></trkpt><trkpt lat="44.23588923283477" lon="11.918965629069099"><ele>73.0</ele><time>2026-05-02T07:06:29Z</time></trkpt><trkpt lat="44.235870821035455" lon="11.9190876833668"><ele>73.0</ele><time>2026-05-02T07:06:30Z</time></trkpt><trkpt lat="44.23581988553551" lon="11.919189015001205"><ele>73.0</ele><time>2026-05-02T07:06:31Z</time></trkpt><trkpt lat="44.23576084080747" lon="11.919282748581486"><ele>73.0</ele><time>2026-05-02T07:06:32Z</time></trkpt><trkpt lat="44.23570367007527" lon="11.919385366379897"><ele>71.5</ele><time>2026-05-02T07:06:33Z</time></trkpt><trkpt lat="44.23564961317149" lon="11.91948203373636"><ele>70.0</ele><time>2026-05-02T07:06:34Z</time></trkpt><trkpt lat="44.2355978591736" lon="11.919574126446918"><ele>68.5</ele><time>2026-05-02T07:06:35Z</time></trkpt><trkpt lat="44.23554697263429" lon="11.919663637220275"><ele>67.0</ele><time>2026-05-02T07:06:36Z</time></trkpt><trkpt lat="44.23549502670896" lon="11.919747323202568"><ele>65.5</ele><time>2026-05-02T07:06:37Z</time></trkpt><trkpt lat="44.235445945539624" lon="11.9198312624358"><ele>64.0</ele><time>2026-05-02T07:06:38Z</time></trkpt><trkpt lat="44.235406434645945" lon="11.919901441025683"><ele>63.83333333333333</ele><time>2026-05-02T07:06:39Z</time></trkpt><trkpt lat="44.23535398797968" lon="11.92001205687818"><ele>63.666666666666664</ele><time>2026-05-02T07:06:41Z</time></trkpt><trkpt lat="44.23531908088687" lon="11.92010043004047"><ele>63.5</ele><time>2026-05-02T07:06:44Z</time></trkpt><trkpt lat="44.23538106366577" lon="11.920168124378803"><ele>63.33333333333333</ele><time>2026-05-02T07:06:45Z</time></trkpt><trkpt lat="44.23546179726536" lon="11.920232781543806"><ele>63.166666666666664</ele><time>2026-05-02T07:06:47Z</time></trkpt><trkpt lat="44.23556089736659" lon="11.920274194128018"><ele>63.0</ele><time>2026-05-02T07:06:49Z</time></trkpt><trkpt lat="44.23566985626095" lon="11.920319626338824"><ele>62.166666666666664</ele><time>2026-05-02T07:06:50.999Z</time></trkpt><trkpt lat="44.23578082371443" lon="11.920378295692881"><ele>61.33333333333333</ele><time>2026-05-02T07:06:52.999Z</time></trkpt><trkpt lat="44.235899114669664" lon="11.920427897458536"><ele>60.5</ele><time>2026-05-02T07:06:54.999Z</time></trkpt><trkpt lat="44.23596080280574" lon="11.920455040222311"><ele>59.666666666666664</ele><time>2026-05-02T07:06:55.999Z</time></trkpt><trkpt lat="44.23602193853425" lon="11.920485553549169"><ele>58.83333333333333</ele><time>2026-05-02T07:06:56.999Z</time></trkpt><trkpt lat="44.236081862843534" lon="11.920523985053883"><ele>58.0</ele><time>2026-05-02T07:06:57.999Z</time></trkpt><trkpt lat="44.23614296631703" lon="11.920557277557146"><ele>58.00000000000001</ele><time>2026-05-02T07:06:58.999Z</time></trkpt><trkpt lat="44.236207725179" lon="11.920589699907007"><ele>58.0</ele><time>2026-05-02T07:06:59.999Z</time></trkpt><trkpt lat="44.23627216621158" lon="11.920627144334162"><ele>58.00000000000001</ele><time>2026-05-02T07:07:00.999Z</time></trkpt><trkpt lat="44.23633818006682" lon="11.920658168819916"><ele>58.00000000000001</ele><time>2026-05-02T07:07:01.999Z</time></trkpt><trkpt lat="44.23640258092961" lon="11.92069357984377"><ele>58.0</ele><time>2026-05-02T07:07:02.999Z</time></trkpt><trkpt lat="44.23646970905462" lon="11.920723977620257"><ele>58.00000000000001</ele><time>2026-05-02T07:07:03.999Z</time></trkpt><trkpt lat="44.23653331952535" lon="11.920754239690861"><ele>58.00000000000001</ele><time>2026-05-02T07:07:04.999Z</time></trkpt><trkpt lat="44.236598592756835" lon="11.920787598081038"><ele>58.00000000000001</ele><time>2026-05-02T07:07:05.999Z</time></trkpt><trkpt lat="44.2366622802091" lon="11.920825293460181"><ele>58.0</ele><time>2026-05-02T07:07:06.999Z</time></trkpt><trkpt lat="44.236725420861255" lon="11.920859822865571"><ele>58.00000000000001</ele><time>2026-05-02T07:07:07.999Z</time></trkpt><trkpt lat="44.2367882588598" lon="11.92089682709039"><ele>58.00000000000001</ele><time>2026-05-02T07:07:08.999Z</time></trkpt><trkpt lat="44.23685132937331" lon="11.920932988197109"><ele>58.0</ele><time>2026-05-02T07:07:09.999Z</time></trkpt><trkpt lat="44.23691473764769" lon="11.920970213507218"><ele>58.00000000000001</ele><time>2026-05-02T07:07:10.999Z</time></trkpt><trkpt lat="44.23697662426796" lon="11.921003027207854"><ele>58.00000000000001</ele><time>2026-05-02T07:07:11.999Z</time></trkpt><trkpt lat="44.2370383363736" lon="11.921035454171882"><ele>57.85714285714286</ele><time>2026-05-02T07:07:12.999Z</time></trkpt><trkpt lat="44.237103166241546" lon="11.92106695490513"><ele>57.714285714285715</ele><time>2026-05-02T07:07:13.999Z</time></trkpt><trkpt lat="44.2371640192585" lon="11.921099805306037"><ele>57.57142857142857</ele><time>2026-05-02T07:07:14.999Z</time></trkpt><trkpt lat="44.237225239036" lon="11.921131460326425"><ele>57.42857142857143</ele><time>2026-05-02T07:07:15.999Z</time></trkpt><trkpt lat="44.23728760371205" lon="11.921164497701193"><ele>57.28571428571428</ele><time>2026-05-02T07:07:16.999Z</time></trkpt><trkpt lat="44.237353703784336" lon="11.921189773066121"><ele>57.14285714285714</ele><time>2026-05-02T07:07:17.999Z</time></trkpt><trkpt lat="44.237417729077094" lon="11.921228217137342"><ele>57.0</ele><time>2026-05-02T07:07:18.999Z</time></trkpt><trkpt lat="44.23747848449915" lon="11.921259503173657"><ele>56.71428571428571</ele><time>2026-05-02T07:07:19.999Z</time></trkpt><trkpt lat="44.23754355715567" lon="11.9212976789068"><ele>56.42857142857142</ele><time>2026-05-02T07:07:20.999Z</time></trkpt><trkpt lat="44.237609453817605" lon="11.92133054694002"><ele>56.14285714285714</ele><time>2026-05-02T07:07:21.999Z</time></trkpt><trkpt lat="44.23767358634706" lon="11.921362668133195"><ele>55.857142857142854</ele><time>2026-05-02T07:07:22.999Z</time></trkpt><trkpt lat="44.23773670716503" lon="11.921397695892463"><ele>55.57142857142857</ele><time>2026-05-02T07:07:23.999Z</time></trkpt><trkpt lat="44.23780290139489" lon="11.921433479200939"><ele>55.28571428571428</ele><time>2026-05-02T07:07:24.999Z</time></trkpt><trkpt lat="44.23787038561573" lon="11.921468851180526"><ele>55.0</ele><time>2026-05-02T07:07:25.999Z</time></trkpt><trkpt lat="44.237937061909555" lon="11.921497440304185"><ele>54.99999999999999</ele><time>2026-05-02T07:07:26.999Z</time></trkpt><trkpt lat="44.2380008957476" lon="11.921535386022759"><ele>55.0</ele><time>2026-05-02T07:07:27.999Z</time></trkpt><trkpt lat="44.238069676927786" lon="11.92157186691576"><ele>55.0</ele><time>2026-05-02T07:07:28.999Z</time></trkpt><trkpt lat="44.238134364370474" lon="11.921603801841691"><ele>55.0</ele><time>2026-05-02T07:07:29.999Z</time></trkpt><trkpt lat="44.23820336514857" lon="11.92163436865012"><ele>55.0</ele><time>2026-05-02T07:07:30.999Z</time></trkpt><trkpt lat="44.23826647356917" lon="11.921671301295035"><ele>54.99999999999999</ele><time>2026-05-02T07:07:31.999Z</time></trkpt><trkpt lat="44.2383321623283" lon="11.921702360698262"><ele>55.0</ele><time>2026-05-02T07:07:32.999Z</time></trkpt><trkpt lat="44.238394143003944" lon="11.921735775806656"><ele>54.71428571428571</ele><time>2026-05-02T07:07:33.999Z</time></trkpt><trkpt lat="44.23846107410853" lon="11.921759175833458"><ele>54.42857142857143</ele><time>2026-05-02T07:07:34.999Z</time></trkpt><trkpt lat="44.23852518028405" lon="11.921794531934703"><ele>54.14285714285714</ele><time>2026-05-02T07:07:35.999Z</time></trkpt><trkpt lat="44.23858609502931" lon="11.921828877942303"><ele>53.857142857142854</ele><time>2026-05-02T07:07:36.999Z</time></trkpt><trkpt lat="44.2386461454916" lon="11.921861548883687"><ele>53.57142857142857</ele><time>2026-05-02T07:07:37.999Z</time></trkpt><trkpt lat="44.23870725230519" lon="11.921893911990129"><ele>53.285714285714285</ele><time>2026-05-02T07:07:38.999Z</time></trkpt><trkpt lat="44.23876846990031" lon="11.92193170526145"><ele>53.0</ele><time>2026-05-02T07:07:39.999Z</time></trkpt><trkpt lat="44.23887379046154" lon="11.922006046803364"><ele>53.0</ele><time>2026-05-02T07:07:41.999Z</time></trkpt><trkpt lat="44.23892974328625" lon="11.922049253839807"><ele>53.0</ele><time>2026-05-02T07:07:42.999Z</time></trkpt><trkpt lat="44.239028157961044" lon="11.922138355330286"><ele>53.0</ele><time>2026-05-02T07:07:45Z</time></trkpt><trkpt lat="44.23910138834741" lon="11.922246600810423"><ele>53.0</ele><time>2026-05-02T07:07:47Z</time></trkpt><trkpt lat="44.23918604550854" lon="11.922311974968077"><ele>53.0</ele><time>2026-05-02T07:07:49Z</time></trkpt><trkpt lat="44.23924766061659" lon="11.92240599641117"><ele>53.00000000000001</ele><time>2026-05-02T07:07:51Z</time></trkpt><trkpt lat="44.23931552499498" lon="11.922480563082132"><ele>53.0</ele><time>2026-05-02T07:07:53Z</time></trkpt><trkpt lat="44.2393859845342" lon="11.922542256207024"><ele>53.0</ele><time>2026-05-02T07:07:55Z</time></trkpt><trkpt lat="44.23944316688162" lon="11.922613272373132"><ele>53.0</ele><time>2026-05-02T07:07:57Z</time></trkpt><trkpt lat="44.239497750434786" lon="11.92268415199253"><ele>53.00000000000001</ele><time>2026-05-02T07:07:59Z</time></trkpt><trkpt lat="44.239552579241085" lon="11.922743386838174"><ele>53.0</ele><time>2026-05-02T07:08:01Z</time></trkpt><trkpt lat="44.23962550858515" lon="11.922817114236652"><ele>53.0</ele><time>2026-05-02T07:08:04Z</time></trkpt><trkpt lat="44.23968771921216" lon="11.922862448177222"><ele>53.0</ele><time>2026-05-02T07:08:06Z</time></trkpt><trkpt lat="44.239748046838706" lon="11.922932046974074"><ele>53.0</ele><time>2026-05-02T07:08:09Z</time></trkpt><trkpt lat="44.23969920358342" lon="11.923009549360659"><ele>53.0</ele><time>2026-05-02T07:08:12Z</time></trkpt><trkpt lat="44.23963054295578" lon="11.923023667072371"><ele>53.0</ele><time>2026-05-02T07:08:14Z</time></trkpt><trkpt lat="44.23955713608975" lon="11.923053490128348"><ele>53.0</ele><time>2026-05-02T07:08:16Z</time></trkpt><trkpt lat="44.23948939345438" lon="11.923068088646597"><ele>53.0</ele><time>2026-05-02T07:08:18Z</time></trkpt><trkpt lat="44.2394235320449" lon="11.923090958758156"><ele>53.00000000000001</ele><time>2026-05-02T07:08:20Z</time></trkpt><trkpt lat="44.23934943206229" lon="11.92310691925047"><ele>53.0</ele><time>2026-05-02T07:08:22Z</time></trkpt><trkpt lat="44.239275116010376" lon="11.92314586723522"><ele>53.0</ele><time>2026-05-02T07:08:24Z</time></trkpt><trkpt lat="44.23920681288394" lon="11.923203542969176"><ele>53.0</ele><time>2026-05-02T07:08:26Z</time></trkpt><trkpt lat="44.23918928027732" lon="11.923320385147903"><ele>53.00000000000001</ele><time>2026-05-02T07:08:28Z</time></trkpt><trkpt lat="44.23920717874" lon="11.92343682372895"><ele>53.0</ele><time>2026-05-02T07:08:30Z</time></trkpt><trkpt lat="44.23923556949314" lon="11.923549068396392"><ele>52.833333333333336</ele><time>2026-05-02T07:08:32Z</time></trkpt><trkpt lat="44.23926664109294" lon="11.923663648904919"><ele>52.66666666666667</ele><time>2026-05-02T07:08:34Z</time></trkpt><trkpt lat="44.23930043031598" lon="11.923775549074803"><ele>52.5</ele><time>2026-05-02T07:08:36Z</time></trkpt><trkpt lat="44.23933302962649" lon="11.923884350170914"><ele>52.33333333333333</ele><time>2026-05-02T07:08:38Z</time></trkpt><trkpt lat="44.2393713171447" lon="11.923994544295555"><ele>52.166666666666664</ele><time>2026-05-02T07:08:40Z</time></trkpt><trkpt lat="44.23940821385062" lon="11.924099449290603"><ele>52.0</ele><time>2026-05-02T07:08:42Z</time></trkpt><trkpt lat="44.23945561245162" lon="11.9241972922075"><ele>52.166666666666664</ele><time>2026-05-02T07:08:44Z</time></trkpt><trkpt lat="44.23951336886255" lon="11.924291020398028"><ele>52.33333333333333</ele><time>2026-05-02T07:08:46Z</time></trkpt><trkpt lat="44.23957324016032" lon="11.924376026972853"><ele>52.5</ele><time>2026-05-02T07:08:48Z</time></trkpt><trkpt lat="44.23963876540041" lon="11.924456424531447"><ele>52.66666666666667</ele><time>2026-05-02T07:08:50Z</time></trkpt><trkpt lat="44.23970860932192" lon="11.924541326357755"><ele>52.833333333333336</ele><time>2026-05-02T07:08:52Z</time></trkpt><trkpt lat="44.239769843087316" lon="11.92463077378979"><ele>53.0</ele><time>2026-05-02T07:08:54Z</time></trkpt><trkpt lat="44.23982837802197" lon="11.924732051160738"><ele>52.599999999999994</ele><time>2026-05-02T07:08:56Z</time></trkpt><trkpt lat="44.23983429000361" lon="11.924871697181112"><ele>52.199999999999996</ele><time>2026-05-02T07:08:58Z</time></trkpt><trkpt lat="44.23980610981683" lon="11.925003468448077"><ele>51.8</ele><time>2026-05-02T07:09:00Z</time></trkpt><trkpt lat="44.239774843021394" lon="11.925117854946693"><ele>51.4</ele><time>2026-05-02T07:09:01.999Z</time></trkpt><trkpt lat="44.23974399334092" lon="11.925230799694766"><ele>51.0</ele><time>2026-05-02T07:09:03.999Z</time></trkpt><trkpt lat="44.23971778216152" lon="11.92533472203344"><ele>51.0</ele><time>2026-05-02T07:09:05.999Z</time></trkpt><trkpt lat="44.239695268485576" lon="11.925431256135958"><ele>51.0</ele><time>2026-05-02T07:09:07.999Z</time></trkpt><trkpt lat="44.23966974062565" lon="11.925534521307837"><ele>51.0</ele><time>2026-05-02T07:09:09.999Z</time></trkpt><trkpt lat="44.23963749428609" lon="11.925635988172868"><ele>51.0</ele><time>2026-05-02T07:09:11.999Z</time></trkpt><trkpt lat="44.23961079495277" lon="11.925737988110193"><ele>51.0</ele><time>2026-05-02T07:09:13.999Z</time></trkpt><trkpt lat="44.23957428826056" lon="11.925838232376849"><ele>51.0</ele><time>2026-05-02T07:09:15.999Z</time></trkpt><trkpt lat="44.23953941745245" lon="11.925934668139293"><ele>50.833333333333336</ele><time>2026-05-02T07:09:17.999Z</time></trkpt><trkpt lat="44.23950189857416" lon="11.926032058911945"><ele>50.66666666666667</ele><time>2026-05-02T07:09:19.999Z</time></trkpt><trkpt lat="44.2394650613922" lon="11.92613232675928"><ele>50.5</ele><time>2026-05-02T07:09:21.999Z</time></trkpt><trkpt lat="44.23942259328081" lon="11.926233139592513"><ele>50.333333333333336</ele><time>2026-05-02T07:09:23.999Z</time></trkpt><trkpt lat="44.23937760375646" lon="11.92633299852149"><ele>50.16666666666667</ele><time>2026-05-02T07:09:25.999Z</time></trkpt><trkpt lat="44.239338142355116" lon="11.926436815327069"><ele>50.0</ele><time>2026-05-02T07:09:27.999Z</time></trkpt><trkpt lat="44.23929888160645" lon="11.926538598158581"><ele>50.00000000000001</ele><time>2026-05-02T07:09:29.999Z</time></trkpt><trkpt lat="44.23925502029566" lon="11.926635714865782"><ele>50.0</ele><time>2026-05-02T07:09:31.999Z</time></trkpt><trkpt lat="44.2392140058061" lon="11.926738607475876"><ele>50.0</ele><time>2026-05-02T07:09:33.999Z</time></trkpt><trkpt lat="44.23917297622446" lon="11.926841607094426"><ele>50.0</ele><time>2026-05-02T07:09:35.999Z</time></trkpt><trkpt lat="44.23912547455719" lon="11.92693806733969"><ele>50.00000000000001</ele><time>2026-05-02T07:09:37.999Z</time></trkpt><trkpt lat="44.23908717910488" lon="11.927040595981598"><ele>50.0</ele><time>2026-05-02T07:09:39.999Z</time></trkpt><trkpt lat="44.23904872263429" lon="11.927143475717317"><ele>50.333333333333336</ele><time>2026-05-02T07:09:41.999Z</time></trkpt><trkpt lat="44.23900623606943" lon="11.92724660231314"><ele>50.66666666666667</ele><time>2026-05-02T07:09:43.999Z</time></trkpt><trkpt lat="44.23896444016034" lon="11.927345210158764"><ele>51.0</ele><time>2026-05-02T07:09:45.999Z</time></trkpt><trkpt lat="44.23892527634284" lon="11.927445839309076"><ele>51.33333333333333</ele><time>2026-05-02T07:09:47.999Z</time></trkpt><trkpt lat="44.238882255477094" lon="11.927549140139993"><ele>51.666666666666664</ele><time>2026-05-02T07:09:49.999Z</time></trkpt><trkpt lat="44.23883908354963" lon="11.927655634793732"><ele>52.0</ele><time>2026-05-02T07:09:52Z</time></trkpt><trkpt lat="44.2387945788731" lon="11.927756557215439"><ele>51.99999999999999</ele><time>2026-05-02T07:09:54Z</time></trkpt><trkpt lat="44.23875082543525" lon="11.927860851908546"><ele>52.0</ele><time>2026-05-02T07:09:56Z</time></trkpt><trkpt lat="44.23871305303686" lon="11.927963258814543"><ele>52.0</ele><time>2026-05-02T07:09:58Z</time></trkpt><trkpt lat="44.23867331224104" lon="11.928065940076406"><ele>52.0</ele><time>2026-05-02T07:10:00Z</time></trkpt><trkpt lat="44.23863604717251" lon="11.928166609101087"><ele>51.99999999999999</ele><time>2026-05-02T07:10:02Z</time></trkpt><trkpt lat="44.23859602419049" lon="11.928263515985433"><ele>52.0</ele><time>2026-05-02T07:10:04Z</time></trkpt><trkpt lat="44.23856116955823" lon="11.928355003392424"><ele>52.0</ele><time>2026-05-02T07:10:06Z</time></trkpt><trkpt lat="44.238528595034644" lon="11.928440959506242"><ele>52.0</ele><time>2026-05-02T07:10:08Z</time></trkpt><trkpt lat="44.23848949541402" lon="11.928527251450829"><ele>52.0</ele><time>2026-05-02T07:10:10Z</time></trkpt><trkpt lat="44.23845781716726" lon="11.928615798902367"><ele>52.0</ele><time>2026-05-02T07:10:12Z</time></trkpt><trkpt lat="44.23841661341591" lon="11.928702798345983"><ele>52.0</ele><time>2026-05-02T07:10:14Z</time></trkpt><trkpt lat="44.23837144200666" lon="11.92878731871348"><ele>52.0</ele><time>2026-05-02T07:10:16Z</time></trkpt><trkpt lat="44.23832081090021" lon="11.928862794725015"><ele>52.0</ele><time>2026-05-02T07:10:18Z</time></trkpt><trkpt lat="44.238266308037964" lon="11.928930806488816"><ele>52.0</ele><time>2026-05-02T07:10:20Z</time></trkpt><trkpt lat="44.23820102055144" lon="11.928971584859209"><ele>52.0</ele><time>2026-05-02T07:10:22Z</time></trkpt><trkpt lat="44.2381307473455" lon="11.929001584279229"><ele>52.0</ele><time>2026-05-02T07:10:24Z</time></trkpt><trkpt lat="44.23806276002336" lon="11.929016525722485"><ele>52.0</ele><time>2026-05-02T07:10:26Z</time></trkpt><trkpt lat="44.237994560361344" lon="11.929017927246612"><ele>52.0</ele><time>2026-05-02T07:10:28Z</time></trkpt><trkpt lat="44.23792694058115" lon="11.929012061676454"><ele>52.0</ele><time>2026-05-02T07:10:30Z</time></trkpt><trkpt lat="44.237860711343494" lon="11.929007271719737"><ele>52.0</ele><time>2026-05-02T07:10:32Z</time></trkpt><trkpt lat="44.23779220815931" lon="11.928998463540788"><ele>52.666666666666664</ele><time>2026-05-02T07:10:34Z</time></trkpt><trkpt lat="44.237726257452294" lon="11.928990953662622"><ele>53.33333333333333</ele><time>2026-05-02T07:10:36Z</time></trkpt><trkpt lat="44.23766169606031" lon="11.928988242572235"><ele>54.0</ele><time>2026-05-02T07:10:38Z</time></trkpt><trkpt lat="44.23759781678218" lon="11.928981331090391"><ele>54.66666666666667</ele><time>2026-05-02T07:10:40Z</time></trkpt><trkpt lat="44.23750911854302" lon="11.92897676168404"><ele>55.333333333333336</ele><time>2026-05-02T07:10:43Z</time></trkpt><trkpt lat="44.237424900974275" lon="11.92896317273981"><ele>56.0</ele><time>2026-05-02T07:10:46Z</time></trkpt><trkpt lat="44.23733798854512" lon="11.928951734496122"><ele>56.4</ele><time>2026-05-02T07:10:49Z</time></trkpt><trkpt lat="44.237250129823046" lon="11.928939046933758"><ele>56.8</ele><time>2026-05-02T07:10:52Z</time></trkpt><trkpt lat="44.23715895192636" lon="11.928933549507837"><ele>57.199999999999996</ele><time>2026-05-02T07:10:55Z</time></trkpt><trkpt lat="44.237070959334154" lon="11.928918820243423"><ele>57.599999999999994</ele><time>2026-05-02T07:10:58Z</time></trkpt><trkpt lat="44.23697840574724" lon="11.928912796241116"><ele>58.0</ele><time>2026-05-02T07:11:01Z</time></trkpt><trkpt lat="44.236889283528164" lon="11.928903490369056"><ele>57.99999999999999</ele><time>2026-05-02T07:11:03.999Z</time></trkpt><trkpt lat="44.23680176564139" lon="11.928897186692065"><ele>58.0</ele><time>2026-05-02T07:11:06.999Z</time></trkpt><trkpt lat="44.236712248002405" lon="11.928889694515194"><ele>58.0</ele><time>2026-05-02T07:11:09.999Z</time></trkpt><trkpt lat="44.236630928713524" lon="11.928886038667933"><ele>58.0</ele><time>2026-05-02T07:11:12.999Z</time></trkpt><trkpt lat="44.236547534430144" lon="11.928868521293152"><ele>57.99999999999999</ele><time>2026-05-02T07:11:15.999Z</time></trkpt><trkpt lat="44.23646206593862" lon="11.928863202092444"><ele>58.0</ele><time>2026-05-02T07:11:18.999Z</time></trkpt><trkpt lat="44.236377060735116" lon="11.928850467049804"><ele>58.33333333333333</ele><time>2026-05-02T07:11:21.999Z</time></trkpt><trkpt lat="44.236287864158214" lon="11.9288486087239"><ele>58.666666666666664</ele><time>2026-05-02T07:11:24.999Z</time></trkpt><trkpt lat="44.23619958071047" lon="11.928834881061453"><ele>59.0</ele><time>2026-05-02T07:11:27.999Z</time></trkpt><trkpt lat="44.23611647318511" lon="11.928821011497908"><ele>59.33333333333333</ele><time>2026-05-02T07:11:30.999Z</time></trkpt><trkpt lat="44.23603810472425" lon="11.928823876103145"><ele>59.666666666666664</ele><time>2026-05-02T07:11:33.999Z</time></trkpt><trkpt lat="44.235961052373824" lon="11.928821920806952"><ele>60.0</ele><time>2026-05-02T07:11:36.999Z</time></trkpt><trkpt lat="44.23587997772794" lon="11.92880541197743"><ele>60.0</ele><time>2026-05-02T07:11:39.999Z</time></trkpt><trkpt lat="44.235793471563206" lon="11.928791613584082"><ele>60.0</ele><time>2026-05-02T07:11:42.999Z</time></trkpt><trkpt lat="44.23570662166628" lon="11.92878163594539"><ele>60.0</ele><time>2026-05-02T07:11:45.999Z</time></trkpt><trkpt lat="44.23562155708738" lon="11.928780040789922"><ele>60.0</ele><time>2026-05-02T07:11:48.999Z</time></trkpt><trkpt lat="44.23553758753025" lon="11.928770965291552"><ele>60.0</ele><time>2026-05-02T07:11:51.999Z</time></trkpt><trkpt lat="44.23545121350396" lon="11.928762311224279"><ele>60.0</ele><time>2026-05-02T07:11:54.999Z</time></trkpt><trkpt lat="44.23536466594019" lon="11.92876480778403"><ele>60.333333333333336</ele><time>2026-05-02T07:11:58Z</time></trkpt><trkpt lat="44.23528084664128" lon="11.928752509211447"><ele>60.66666666666667</ele><time>2026-05-02T07:12:01Z</time></trkpt><trkpt lat="44.23519822008615" lon="11.928753029355832"><ele>61.0</ele><time>2026-05-02T07:12:04Z</time></trkpt><trkpt lat="44.23511374353164" lon="11.928737457888548"><ele>61.333333333333336</ele><time>2026-05-02T07:12:07Z</time></trkpt><trkpt lat="44.23502535632037" lon="11.928735452012305"><ele>61.66666666666667</ele><time>2026-05-02T07:12:10Z</time></trkpt><trkpt lat="44.23494150099529" lon="11.928716737779395"><ele>62.0</ele><time>2026-05-02T07:12:13Z</time></trkpt><trkpt lat="44.23485005286369" lon="11.928719267055888"><ele>62.50000000000001</ele><time>2026-05-02T07:12:16Z</time></trkpt><trkpt lat="44.2347682591263" lon="11.928712588973005"><ele>63.0</ele><time>2026-05-02T07:12:19Z</time></trkpt><trkpt lat="44.234689656905324" lon="11.928706013280427"><ele>63.5</ele><time>2026-05-02T07:12:22Z</time></trkpt><trkpt lat="44.23460781500159" lon="11.928689610020816"><ele>64.0</ele><time>2026-05-02T07:12:25Z</time></trkpt><trkpt lat="44.234526468807864" lon="11.928686598450556"><ele>64.5</ele><time>2026-05-02T07:12:28Z</time></trkpt><trkpt lat="44.234440988810945" lon="11.928684202015233"><ele>65.0</ele><time>2026-05-02T07:12:31Z</time></trkpt><trkpt lat="44.23435488911422" lon="11.928673930395934"><ele>65.0</ele><time>2026-05-02T07:12:34Z</time></trkpt><trkpt lat="44.234271979534775" lon="11.92867103757203"><ele>65.0</ele><time>2026-05-02T07:12:37Z</time></trkpt><trkpt lat="44.234188954838125" lon="11.928674688642431"><ele>65.0</ele><time>2026-05-02T07:12:40Z</time></trkpt><trkpt lat="44.234102132801304" lon="11.928680860537511"><ele>65.0</ele><time>2026-05-02T07:12:43Z</time></trkpt><trkpt lat="44.23401215345692" lon="11.928694250375925"><ele>65.0</ele><time>2026-05-02T07:12:46Z</time></trkpt><trkpt lat="44.233917620344926" lon="11.92871377126199"><ele>65.0</ele><time>2026-05-02T07:12:49Z</time></trkpt><trkpt lat="44.23385488618983" lon="11.928726174423245"><ele>65.66666666666667</ele><time>2026-05-02T07:12:51Z</time></trkpt><trkpt lat="44.23376641871305" lon="11.928747994851339"><ele>66.33333333333334</ele><time>2026-05-02T07:12:54Z</time></trkpt><trkpt lat="44.23367713533117" lon="11.928765978849972"><ele>67.0</ele><time>2026-05-02T07:12:57Z</time></trkpt><trkpt lat="44.23358345455838" lon="11.928778947641739"><ele>67.66666666666667</ele><time>2026-05-02T07:13:00Z</time></trkpt><trkpt lat="44.23352058403187" lon="11.92879692026065"><ele>68.33333333333333</ele><time>2026-05-02T07:13:02Z</time></trkpt><trkpt lat="44.23345701091595" lon="11.928806537046881"><ele>69.0</ele><time>2026-05-02T07:13:04Z</time></trkpt><trkpt lat="44.23336555497161" lon="11.928827302703912"><ele>69.0</ele><time>2026-05-02T07:13:07Z</time></trkpt><trkpt lat="44.23330129608482" lon="11.928840041747963"><ele>69.0</ele><time>2026-05-02T07:13:09Z</time></trkpt><trkpt lat="44.23320754484351" lon="11.928856022432905"><ele>69.0</ele><time>2026-05-02T07:13:12Z</time></trkpt><trkpt lat="44.233143228592006" lon="11.928869647368552"><ele>69.0</ele><time>2026-05-02T07:13:14Z</time></trkpt><trkpt lat="44.23307971225296" lon="11.928885316604488"><ele>69.0</ele><time>2026-05-02T07:13:15.999Z</time></trkpt><trkpt lat="44.233015409223604" lon="11.928899492880571"><ele>69.0</ele><time>2026-05-02T07:13:17.999Z</time></trkpt><trkpt lat="44.232955107117576" lon="11.928924866947819"><ele>69.0</ele><time>2026-05-02T07:13:19.999Z</time></trkpt><trkpt lat="44.23288985332445" lon="11.928934439683008"><ele>69.5</ele><time>2026-05-02T07:13:21.999Z</time></trkpt><trkpt lat="44.23282636329022" lon="11.928950362333394"><ele>70.0</ele><time>2026-05-02T07:13:23.999Z</time></trkpt><trkpt lat="44.23273407167938" lon="11.928963882232159"><ele>70.5</ele><time>2026-05-02T07:13:26.999Z</time></trkpt><trkpt lat="44.23267140400264" lon="11.928972709602084"><ele>71.0</ele><time>2026-05-02T07:13:28.999Z</time></trkpt><trkpt lat="44.23258163925394" lon="11.928988670057201"><ele>71.5</ele><time>2026-05-02T07:13:31.999Z</time></trkpt><trkpt lat="44.232491919259594" lon="11.929006597236404"><ele>72.0</ele><time>2026-05-02T07:13:34.999Z</time></trkpt><trkpt lat="44.23240200147722" lon="11.92902748021523"><ele>72.00000000000001</ele><time>2026-05-02T07:13:37.999Z</time></trkpt><trkpt lat="44.23233926188703" lon="11.92904768795696"><ele>72.0</ele><time>2026-05-02T07:13:39.999Z</time></trkpt><trkpt lat="44.232246268683525" lon="11.929060158935446"><ele>72.0</ele><time>2026-05-02T07:13:42.999Z</time></trkpt><trkpt lat="44.23215419851632" lon="11.929082558745757"><ele>72.0</ele><time>2026-05-02T07:13:45.999Z</time></trkpt><trkpt lat="44.232090899836386" lon="11.929090894644279"><ele>72.0</ele><time>2026-05-02T07:13:47.999Z</time></trkpt><trkpt lat="44.23202757245535" lon="11.929101367103971"><ele>72.00000000000001</ele><time>2026-05-02T07:13:49.999Z</time></trkpt><trkpt lat="44.23196476975164" lon="11.929115542887828"><ele>72.0</ele><time>2026-05-02T07:13:51.999Z</time></trkpt><trkpt lat="44.23190368872871" lon="11.92913702523476"><ele>72.0</ele><time>2026-05-02T07:13:53.999Z</time></trkpt><trkpt lat="44.23183650849759" lon="11.929143468713177"><ele>72.0</ele><time>2026-05-02T07:13:55.999Z</time></trkpt><trkpt lat="44.23177157140191" lon="11.929155327290943"><ele>72.0</ele><time>2026-05-02T07:13:57.999Z</time></trkpt><trkpt lat="44.231708962030496" lon="11.929173618342912"><ele>72.0</ele><time>2026-05-02T07:13:59.999Z</time></trkpt><trkpt lat="44.23161875041592" lon="11.929192683662576"><ele>72.0</ele><time>2026-05-02T07:14:03Z</time></trkpt><trkpt lat="44.23152689675703" lon="11.929212799341004"><ele>72.0</ele><time>2026-05-02T07:14:06Z</time></trkpt><trkpt lat="44.23143489007574" lon="11.929231051222878"><ele>72.00000000000001</ele><time>2026-05-02T07:14:09Z</time></trkpt><trkpt lat="44.231344958791496" lon="11.929252325339577"><ele>72.0</ele><time>2026-05-02T07:14:12Z</time></trkpt><trkpt lat="44.23128206538576" lon="11.929272027192601"><ele>72.0</ele><time>2026-05-02T07:14:14Z</time></trkpt><trkpt lat="44.2312191337545" lon="11.92929291535182"><ele>72.0</ele><time>2026-05-02T07:14:16Z</time></trkpt><trkpt lat="44.23113367120363" lon="11.929324665920447"><ele>72.0</ele><time>2026-05-02T07:14:19Z</time></trkpt><trkpt lat="44.231063713352434" lon="11.929336278352322"><ele>72.00000000000001</ele><time>2026-05-02T07:14:22Z</time></trkpt><trkpt lat="44.23099958326829" lon="11.929339620945841"><ele>72.0</ele><time>2026-05-02T07:14:24Z</time></trkpt><trkpt lat="44.230915033072925" lon="11.929353045407222"><ele>72.0</ele><time>2026-05-02T07:14:27Z</time></trkpt><trkpt lat="44.23082379561228" lon="11.92937806075029"><ele>72.0</ele><time>2026-05-02T07:14:30Z</time></trkpt><trkpt lat="44.23073234933217" lon="11.92939910961031"><ele>72.0</ele><time>2026-05-02T07:14:33Z</time></trkpt><trkpt lat="44.2306463262543" lon="11.929409911805386"><ele>72.0</ele><time>2026-05-02T07:14:36Z</time></trkpt><trkpt lat="44.23055078285738" lon="11.929394499796263"><ele>72.0</ele><time>2026-05-02T07:14:39Z</time></trkpt><trkpt lat="44.230463067098384" lon="11.929412647868372"><ele>72.0</ele><time>2026-05-02T07:14:42Z</time></trkpt><trkpt lat="44.230378636848485" lon="11.929442644178007"><ele>72.0</ele><time>2026-05-02T07:14:45Z</time></trkpt><trkpt lat="44.23028995959045" lon="11.929461357436338"><ele>72.0</ele><time>2026-05-02T07:14:48Z</time></trkpt><trkpt lat="44.230227310420055" lon="11.929473960652501"><ele>72.0</ele><time>2026-05-02T07:14:50Z</time></trkpt><trkpt lat="44.23016366817529" lon="11.929486456044927"><ele>72.0</ele><time>2026-05-02T07:14:52Z</time></trkpt><trkpt lat="44.23007416980045" lon="11.929508119837612"><ele>72.0</ele><time>2026-05-02T07:14:55Z</time></trkpt><trkpt lat="44.23000880614913" lon="11.929523759408445"><ele>72.0</ele><time>2026-05-02T07:14:57Z</time></trkpt><trkpt lat="44.22993671972711" lon="11.929553501700854"><ele>72.0</ele><time>2026-05-02T07:14:59Z</time></trkpt><trkpt lat="44.22985206102921" lon="11.929584199969261"><ele>72.0</ele><time>2026-05-02T07:15:01Z</time></trkpt><trkpt lat="44.229773899678236" lon="11.92962442603384"><ele>72.0</ele><time>2026-05-02T07:15:03Z</time></trkpt><trkpt lat="44.22967957571464" lon="11.929682590317363"><ele>72.0</ele><time>2026-05-02T07:15:05Z</time></trkpt><trkpt lat="44.2295783368049" lon="11.929765183209357"><ele>72.4</ele><time>2026-05-02T07:15:07Z</time></trkpt><trkpt lat="44.22948711463139" lon="11.929859455286696"><ele>72.80000000000001</ele><time>2026-05-02T07:15:09Z</time></trkpt><trkpt lat="44.229401948829064" lon="11.929969218635945"><ele>73.2</ele><time>2026-05-02T07:15:11Z</time></trkpt><trkpt lat="44.22933650112202" lon="11.930057196619074"><ele>73.60000000000001</ele><time>2026-05-02T07:15:13Z</time></trkpt><trkpt lat="44.229282825338544" lon="11.930147157547902"><ele>74.0</ele><time>2026-05-02T07:15:15Z</time></trkpt><trkpt lat="44.22924026205813" lon="11.93023204725219"><ele>74.0</ele><time>2026-05-02T07:15:17Z</time></trkpt><trkpt lat="44.22919604914528" lon="11.930308393448277"><ele>74.0</ele><time>2026-05-02T07:15:18.999Z</time></trkpt><trkpt lat="44.22915298451257" lon="11.930379742294305"><ele>74.0</ele><time>2026-05-02T07:15:20.999Z</time></trkpt><trkpt lat="44.229115207097436" lon="11.930459505890061"><ele>74.0</ele><time>2026-05-02T07:15:22.999Z</time></trkpt><trkpt lat="44.22906530504144" lon="11.930555894812171"><ele>74.0</ele><time>2026-05-02T07:15:25.999Z</time></trkpt><trkpt lat="44.2290216963139" lon="11.930654721900533"><ele>74.0</ele><time>2026-05-02T07:15:28.999Z</time></trkpt><trkpt lat="44.22897963314385" lon="11.93073356149042"><ele>74.0</ele><time>2026-05-02T07:15:31.999Z</time></trkpt><trkpt lat="44.22893994089185" lon="11.930808335829667"><ele>74.85714285714286</ele><time>2026-05-02T07:15:34.999Z</time></trkpt><trkpt lat="44.22889791798819" lon="11.930886502374006"><ele>75.71428571428571</ele><time>2026-05-02T07:15:37.999Z</time></trkpt><trkpt lat="44.22885794798499" lon="11.930963561541175"><ele>76.57142857142857</ele><time>2026-05-02T07:15:40.999Z</time></trkpt><trkpt lat="44.22881579083944" lon="11.931048555012143"><ele>77.42857142857143</ele><time>2026-05-02T07:15:43.999Z</time></trkpt><trkpt lat="44.22876509990483" lon="11.931111569497522"><ele>78.28571428571429</ele><time>2026-05-02T07:15:46.999Z</time></trkpt><trkpt lat="44.228731517460325" lon="11.931191116043694"><ele>79.14285714285714</ele><time>2026-05-02T07:15:49.999Z</time></trkpt><trkpt lat="44.22869238279069" lon="11.931272858231173"><ele>80.0</ele><time>2026-05-02T07:15:52.999Z</time></trkpt><trkpt lat="44.228648198485914" lon="11.931351006183712"><ele>80.0</ele><time>2026-05-02T07:15:55.999Z</time></trkpt><trkpt lat="44.22859368026842" lon="11.931423418039715"><ele>80.0</ele><time>2026-05-02T07:15:58.999Z</time></trkpt><trkpt lat="44.2285585755396" lon="11.931520917985871"><ele>80.0</ele><time>2026-05-02T07:16:01.999Z</time></trkpt><trkpt lat="44.22850940362579" lon="11.931612142670671"><ele>80.0</ele><time>2026-05-02T07:16:04.999Z</time></trkpt><trkpt lat="44.22844793672804" lon="11.931688671276735"><ele>80.0</ele><time>2026-05-02T07:16:07.999Z</time></trkpt><trkpt lat="44.228420495475426" lon="11.931768077218411"><ele>80.0</ele><time>2026-05-02T07:16:10Z</time></trkpt><trkpt lat="44.22835596914619" lon="11.931807957527111"><ele>80.0</ele><time>2026-05-02T07:16:13Z</time></trkpt><trkpt lat="44.22830430163477" lon="11.931748899331149"><ele>80.0</ele><time>2026-05-02T07:16:15Z</time></trkpt><trkpt lat="44.22823033475054" lon="11.931715147427624"><ele>80.0</ele><time>2026-05-02T07:16:18Z</time></trkpt><trkpt lat="44.228163477088025" lon="11.931640282829408"><ele>80.0</ele><time>2026-05-02T07:16:21Z</time></trkpt><trkpt lat="44.228099359642236" lon="11.931573902467312"><ele>80.0</ele><time>2026-05-02T07:16:24Z</time></trkpt><trkpt lat="44.22803984534156" lon="11.931516542922331"><ele>80.0</ele><time>2026-05-02T07:16:27Z</time></trkpt><trkpt lat="44.227963763197465" lon="11.931483244169144"><ele>79.71428571428571</ele><time>2026-05-02T07:16:30Z</time></trkpt><trkpt lat="44.2279028634743" lon="11.93151968570353"><ele>79.42857142857143</ele><time>2026-05-02T07:16:33Z</time></trkpt><trkpt lat="44.2278390292732" lon="11.931555222969662"><ele>79.14285714285714</ele><time>2026-05-02T07:16:36Z</time></trkpt><trkpt lat="44.227779706378264" lon="11.931603560546721"><ele>78.85714285714286</ele><time>2026-05-02T07:16:39Z</time></trkpt><trkpt lat="44.227719221226785" lon="11.9316547395176"><ele>78.57142857142857</ele><time>2026-05-02T07:16:42Z</time></trkpt><trkpt lat="44.227651707188635" lon="11.931696772430753"><ele>78.28571428571429</ele><time>2026-05-02T07:16:45Z</time></trkpt><trkpt lat="44.22758462077462" lon="11.93174567454604"><ele>78.0</ele><time>2026-05-02T07:16:48Z</time></trkpt><trkpt lat="44.22751275414679" lon="11.931796288184106"><ele>78.0</ele><time>2026-05-02T07:16:51Z</time></trkpt><trkpt lat="44.22744021112405" lon="11.93185365915076"><ele>78.0</ele><time>2026-05-02T07:16:54Z</time></trkpt><trkpt lat="44.22736657920449" lon="11.931907655862792"><ele>78.0</ele><time>2026-05-02T07:16:57Z</time></trkpt><trkpt lat="44.227303231416954" lon="11.931953821637283"><ele>78.0</ele><time>2026-05-02T07:17:00Z</time></trkpt><trkpt lat="44.22721471486189" lon="11.931996584478934"><ele>78.0</ele><time>2026-05-02T07:17:03Z</time></trkpt><trkpt lat="44.22714987282692" lon="11.932040898003757"><ele>78.0</ele><time>2026-05-02T07:17:05Z</time></trkpt><trkpt lat="44.22708779039363" lon="11.932100112894457"><ele>78.66666666666667</ele><time>2026-05-02T07:17:07Z</time></trkpt><trkpt lat="44.22701370870128" lon="11.932139473407771"><ele>79.33333333333333</ele><time>2026-05-02T07:17:09Z</time></trkpt><trkpt lat="44.22693933363714" lon="11.932188982477395"><ele>80.0</ele><time>2026-05-02T07:17:11Z</time></trkpt><trkpt lat="44.22685545059941" lon="11.932205627274417"><ele>80.66666666666666</ele><time>2026-05-02T07:17:13Z</time></trkpt><trkpt lat="44.22679010926306" lon="11.932259849933855"><ele>81.33333333333333</ele><time>2026-05-02T07:17:15Z</time></trkpt><trkpt lat="44.226711123503684" lon="11.932293890283884"><ele>82.0</ele><time>2026-05-02T07:17:17Z</time></trkpt><trkpt lat="44.22664315488346" lon="11.932334331424919"><ele>82.0</ele><time>2026-05-02T07:17:19Z</time></trkpt><trkpt lat="44.22656511130103" lon="11.93237192262967"><ele>82.0</ele><time>2026-05-02T07:17:21Z</time></trkpt><trkpt lat="44.22648586667156" lon="11.932412964127469"><ele>82.0</ele><time>2026-05-02T07:17:23Z</time></trkpt><trkpt lat="44.226393957136956" lon="11.932449522813853"><ele>82.0</ele><time>2026-05-02T07:17:25Z</time></trkpt><trkpt lat="44.22631736437028" lon="11.9324805666786"><ele>82.0</ele><time>2026-05-02T07:17:26.999Z</time></trkpt><trkpt lat="44.226240599283706" lon="11.9325376410084"><ele>82.0</ele><time>2026-05-02T07:17:28.999Z</time></trkpt><trkpt lat="44.226163002762256" lon="11.932576431697617"><ele>81.83333333333333</ele><time>2026-05-02T07:17:30.999Z</time></trkpt><trkpt lat="44.226100877114526" lon="11.932616978569472"><ele>81.66666666666666</ele><time>2026-05-02T07:17:32.999Z</time></trkpt><trkpt lat="44.226036358017595" lon="11.9326505290691"><ele>81.5</ele><time>2026-05-02T07:17:34.999Z</time></trkpt><trkpt lat="44.22599145280091" lon="11.93274767216975"><ele>81.33333333333333</ele><time>2026-05-02T07:17:36.999Z</time></trkpt><trkpt lat="44.22599965076088" lon="11.932897709427158"><ele>81.16666666666667</ele><time>2026-05-02T07:17:38.999Z</time></trkpt><trkpt lat="44.22603189098706" lon="11.933034316488845"><ele>81.0</ele><time>2026-05-02T07:17:40.999Z</time></trkpt><trkpt lat="44.22607321542661" lon="11.933177996081596"><ele>81.0</ele><time>2026-05-02T07:17:42.999Z</time></trkpt><trkpt lat="44.226117532152884" lon="11.93332942554915"><ele>81.0</ele><time>2026-05-02T07:17:44.999Z</time></trkpt><trkpt lat="44.22614147058105" lon="11.933411222945256"><ele>81.0</ele><time>2026-05-02T07:17:45.999Z</time></trkpt><trkpt lat="44.22619299017983" lon="11.933585652503833"><ele>81.0</ele><time>2026-05-02T07:17:47.999Z</time></trkpt><trkpt lat="44.22621997140227" lon="11.933675995279234"><ele>81.0</ele><time>2026-05-02T07:17:48.999Z</time></trkpt><trkpt lat="44.22624827177569" lon="11.933767127711093"><ele>80.66666666666667</ele><time>2026-05-02T07:17:49.999Z</time></trkpt><trkpt lat="44.22627934909219" lon="11.933865813351622"><ele>80.33333333333333</ele><time>2026-05-02T07:17:50.999Z</time></trkpt><trkpt lat="44.226307917231715" lon="11.933961701845412"><ele>80.0</ele><time>2026-05-02T07:17:51.999Z</time></trkpt><trkpt lat="44.22633510487211" lon="11.934052480278462"><ele>79.66666666666666</ele><time>2026-05-02T07:17:52.999Z</time></trkpt><trkpt lat="44.22635984013994" lon="11.934143544816264"><ele>79.33333333333333</ele><time>2026-05-02T07:17:53.999Z</time></trkpt><trkpt lat="44.22637999291875" lon="11.934315650816401"><ele>79.0</ele><time>2026-05-02T07:17:55.999Z</time></trkpt><trkpt lat="44.226361833834886" lon="11.934402061946756"><ele>78.60000000000001</ele><time>2026-05-02T07:17:56.999Z</time></trkpt><trkpt lat="44.226295349233936" lon="11.934555567318107"><ele>78.2</ele><time>2026-05-02T07:17:58.999Z</time></trkpt><trkpt lat="44.2262632948768" lon="11.934647749097799"><ele>77.80000000000001</ele><time>2026-05-02T07:17:59.999Z</time></trkpt><trkpt lat="44.22621806204475" lon="11.934726822394028"><ele>77.4</ele><time>2026-05-02T07:18:00.999Z</time></trkpt><trkpt lat="44.22615377434616" lon="11.934855096540376"><ele>77.0</ele><time>2026-05-02T07:18:02.999Z</time></trkpt><trkpt lat="44.22611833375797" lon="11.934986569297942"><ele>76.25</ele><time>2026-05-02T07:18:04.999Z</time></trkpt><trkpt lat="44.2260358625213" lon="11.935143216461661"><ele>75.5</ele><time>2026-05-02T07:18:05.999Z</time></trkpt><trkpt lat="44.22601912202896" lon="11.935324917474416"><ele>74.75</ele><time>2026-05-02T07:18:06.999Z</time></trkpt><trkpt lat="44.22603226272128" lon="11.935518114059974"><ele>74.0</ele><time>2026-05-02T07:18:07.999Z</time></trkpt><trkpt lat="44.22605199552716" lon="11.935630299115656"><ele>74.0</ele><time>2026-05-02T07:18:08.999Z</time></trkpt><trkpt lat="44.22607123744662" lon="11.935739694956705"><ele>74.0</ele><time>2026-05-02T07:18:09.999Z</time></trkpt><trkpt lat="44.226098796698125" lon="11.935929333402022"><ele>74.0</ele><time>2026-05-02T07:18:11.999Z</time></trkpt><trkpt lat="44.226113508534986" lon="11.936094881875523"><ele>74.0</ele><time>2026-05-02T07:18:13.999Z</time></trkpt><trkpt lat="44.226092568211676" lon="11.936223159915926"><ele>74.0</ele><time>2026-05-02T07:18:16Z</time></trkpt><trkpt lat="44.22608941289821" lon="11.936345169292961"><ele>72.66666666666667</ele><time>2026-05-02T07:18:17Z</time></trkpt><trkpt lat="44.22601080845992" lon="11.936373669362313"><ele>71.33333333333333</ele><time>2026-05-02T07:18:19Z</time></trkpt><trkpt lat="44.22590205102332" lon="11.936727616426145"><ele>70.0</ele><time>2026-05-02T07:18:20Z</time></trkpt><trkpt lat="44.226399628636536" lon="11.937098727922189"><ele>69.16666666666666</ele><time>2026-05-02T07:18:21Z</time></trkpt><trkpt lat="44.226447532827656" lon="11.937016958192313"><ele>68.33333333333333</ele><time>2026-05-02T07:18:22Z</time></trkpt><trkpt lat="44.226520478989066" lon="11.937088335195174"><ele>67.5</ele><time>2026-05-02T07:18:23Z</time></trkpt><trkpt lat="44.226525167195184" lon="11.937210837667347"><ele>66.66666666666667</ele><time>2026-05-02T07:18:24Z</time></trkpt><trkpt lat="44.22652290029784" lon="11.937329386569964"><ele>65.83333333333334</ele><time>2026-05-02T07:18:25Z</time></trkpt><trkpt lat="44.22654466016034" lon="11.937449921125616"><ele>65.0</ele><time>2026-05-02T07:18:26Z</time></trkpt><trkpt lat="44.22642536887201" lon="11.937534777940096"><ele>64.0</ele><time>2026-05-02T07:18:27Z</time></trkpt><trkpt lat="44.226374555575305" lon="11.937643476801687"><ele>63.0</ele><time>2026-05-02T07:18:28Z</time></trkpt><trkpt lat="44.22632529839205" lon="11.937751182364693"><ele>62.0</ele><time>2026-05-02T07:18:29Z</time></trkpt><trkpt lat="44.22628703961173" lon="11.937877197821313"><ele>61.0</ele><time>2026-05-02T07:18:30Z</time></trkpt><trkpt lat="44.22623372621293" lon="11.937993812113838"><ele>60.0</ele><time>2026-05-02T07:18:31Z</time></trkpt><trkpt lat="44.22618148887337" lon="11.938107291008919"><ele>60.0</ele><time>2026-05-02T07:18:32Z</time></trkpt><trkpt lat="44.22612904026896" lon="11.938221702089528"><ele>60.0</ele><time>2026-05-02T07:18:33Z</time></trkpt><trkpt lat="44.22607602970349" lon="11.938336474732083"><ele>60.0</ele><time>2026-05-02T07:18:34Z</time></trkpt><trkpt lat="44.22601024901928" lon="11.938436761299592"><ele>60.0</ele><time>2026-05-02T07:18:35Z</time></trkpt><trkpt lat="44.22595947026415" lon="11.938546039875806"><ele>60.0</ele><time>2026-05-02T07:18:36Z</time></trkpt><trkpt lat="44.22592167964288" lon="11.938671503253323"><ele>59.4</ele><time>2026-05-02T07:18:37Z</time></trkpt><trkpt lat="44.225866311475215" lon="11.938784950071428"><ele>58.8</ele><time>2026-05-02T07:18:38Z</time></trkpt><trkpt lat="44.22581240797078" lon="11.938904550544994"><ele>58.2</ele><time>2026-05-02T07:18:39Z</time></trkpt><trkpt lat="44.2257614392145" lon="11.939020368197948"><ele>57.6</ele><time>2026-05-02T07:18:40Z</time></trkpt><trkpt lat="44.22570936956322" lon="11.939136157160586"><ele>57.0</ele><time>2026-05-02T07:18:41Z</time></trkpt><trkpt lat="44.22565483615111" lon="11.939261238209268"><ele>56.6</ele><time>2026-05-02T07:18:42Z</time></trkpt><trkpt lat="44.22560439769958" lon="11.939379863362145"><ele>56.2</ele><time>2026-05-02T07:18:43Z</time></trkpt><trkpt lat="44.225550103630944" lon="11.939500069197353"><ele>55.8</ele><time>2026-05-02T07:18:44Z</time></trkpt><trkpt lat="44.225482432290825" lon="11.939609186167823"><ele>55.4</ele><time>2026-05-02T07:18:45Z</time></trkpt><trkpt lat="44.22544592030781" lon="11.939728885546424"><ele>55.0</ele><time>2026-05-02T07:18:46Z</time></trkpt><trkpt lat="44.22539432491808" lon="11.939842294133326"><ele>54.99999999999999</ele><time>2026-05-02T07:18:47Z</time></trkpt><trkpt lat="44.225350408051575" lon="11.939955941986236"><ele>55.0</ele><time>2026-05-02T07:18:48Z</time></trkpt><trkpt lat="44.225307736019346" lon="11.940064044406839"><ele>55.0</ele><time>2026-05-02T07:18:49Z</time></trkpt><trkpt lat="44.22529282298815" lon="11.940179827998346"><ele>55.0</ele><time>2026-05-02T07:18:50Z</time></trkpt><trkpt lat="44.225268831180784" lon="11.940282903691854"><ele>54.99999999999999</ele><time>2026-05-02T07:18:51Z</time></trkpt><trkpt lat="44.225233382254366" lon="11.9403767975806"><ele>55.0</ele><time>2026-05-02T07:18:52Z</time></trkpt><trkpt lat="44.225222387413154" lon="11.940482988059387"><ele>54.83333333333333</ele><time>2026-05-02T07:18:53Z</time></trkpt><trkpt lat="44.22519836944573" lon="11.940576599546926"><ele>54.666666666666664</ele><time>2026-05-02T07:18:54Z</time></trkpt><trkpt lat="44.2251484889035" lon="11.94074869417131"><ele>54.5</ele><time>2026-05-02T07:18:56Z</time></trkpt><trkpt lat="44.225141480727466" lon="11.940838134160368"><ele>54.33333333333333</ele><time>2026-05-02T07:18:57Z</time></trkpt><trkpt lat="44.22511862743398" lon="11.940920764361932"><ele>54.166666666666664</ele><time>2026-05-02T07:18:58Z</time></trkpt><trkpt lat="44.22508587373898" lon="11.941064433133421"><ele>54.0</ele><time>2026-05-02T07:19:00Z</time></trkpt><trkpt lat="44.225057460672915" lon="11.941199950579843"><ele>54.333333333333336</ele><time>2026-05-02T07:19:02Z</time></trkpt><trkpt lat="44.22502125632006" lon="11.941309393040113"><ele>54.66666666666667</ele><time>2026-05-02T07:19:04Z</time></trkpt><trkpt lat="44.22503085189441" lon="11.94141074768789"><ele>55.0</ele><time>2026-05-02T07:19:06Z</time></trkpt><trkpt lat="44.225057926273244" lon="11.941501933327132"><ele>55.333333333333336</ele><time>2026-05-02T07:19:08Z</time></trkpt><trkpt lat="44.22514072694889" lon="11.941514900728459"><ele>55.66666666666667</ele><time>2026-05-02T07:19:09Z</time></trkpt><trkpt lat="44.22521145332038" lon="11.941566272296889"><ele>56.0</ele><time>2026-05-02T07:19:11Z</time></trkpt><trkpt lat="44.22527889266024" lon="11.94162089069725"><ele>56.0</ele><time>2026-05-02T07:19:13Z</time></trkpt><trkpt lat="44.22533599849081" lon="11.941696978903602"><ele>56.0</ele><time>2026-05-02T07:19:15Z</time></trkpt><trkpt lat="44.22539703323493" lon="11.941753236065958"><ele>56.0</ele><time>2026-05-02T07:19:17Z</time></trkpt><trkpt lat="44.22545011044236" lon="11.941802158557136"><ele>56.0</ele><time>2026-05-02T07:19:19Z</time></trkpt><trkpt lat="44.22550316169216" lon="11.941851057152538"><ele>56.0</ele><time>2026-05-02T07:19:21Z</time></trkpt><trkpt lat="44.225565929021634" lon="11.94189474681391"><ele>56.0</ele><time>2026-05-02T07:19:23Z</time></trkpt><trkpt lat="44.225623840777004" lon="11.941945999522764"><ele>56.0</ele><time>2026-05-02T07:19:25Z</time></trkpt><trkpt lat="44.22567731685616" lon="11.942006404114998"><ele>56.0</ele><time>2026-05-02T07:19:27Z</time></trkpt><trkpt lat="44.22574226555584" lon="11.942059472211417"><ele>56.0</ele><time>2026-05-02T07:19:29Z</time></trkpt><trkpt lat="44.22580580741285" lon="11.94211066148895"><ele>56.0</ele><time>2026-05-02T07:19:31Z</time></trkpt><trkpt lat="44.2258619918417" lon="11.942167547527987"><ele>56.0</ele><time>2026-05-02T07:19:32.999Z</time></trkpt><trkpt lat="44.225927658772626" lon="11.942223802908725"><ele>56.0</ele><time>2026-05-02T07:19:34.999Z</time></trkpt><trkpt lat="44.225990508861045" lon="11.942279364430368"><ele>56.0</ele><time>2026-05-02T07:19:36.999Z</time></trkpt><trkpt lat="44.22605115120617" lon="11.942344345468733"><ele>56.0</ele><time>2026-05-02T07:19:38.999Z</time></trkpt><trkpt lat="44.22611729876309" lon="11.94240786185485"><ele>56.00000000000001</ele><time>2026-05-02T07:19:40.999Z</time></trkpt><trkpt lat="44.226186046616824" lon="11.942471823011553"><ele>56.0</ele><time>2026-05-02T07:19:42.999Z</time></trkpt><trkpt lat="44.22625824906763" lon="11.942532505839408"><ele>56.0</ele><time>2026-05-02T07:19:44.999Z</time></trkpt><trkpt lat="44.226328031714324" lon="11.942600101376117"><ele>56.0</ele><time>2026-05-02T07:19:46.999Z</time></trkpt><trkpt lat="44.226401549517085" lon="11.942666923116686"><ele>56.00000000000001</ele><time>2026-05-02T07:19:48.999Z</time></trkpt><trkpt lat="44.22647314029288" lon="11.942733135243705"><ele>56.0</ele><time>2026-05-02T07:19:50.999Z</time></trkpt><trkpt lat="44.22654841000943" lon="11.942799008655816"><ele>56.00000000000001</ele><time>2026-05-02T07:19:52.999Z</time></trkpt><trkpt lat="44.226613127247646" lon="11.942866871642513"><ele>56.0</ele><time>2026-05-02T07:19:54.999Z</time></trkpt><trkpt lat="44.226682057189564" lon="11.942925005029746"><ele>56.0</ele><time>2026-05-02T07:19:56.999Z</time></trkpt><trkpt lat="44.226748899184415" lon="11.94299627098358"><ele>56.0</ele><time>2026-05-02T07:19:58.999Z</time></trkpt><trkpt lat="44.22681746738041" lon="11.943059043805025"><ele>56.00000000000001</ele><time>2026-05-02T07:20:00.999Z</time></trkpt><trkpt lat="44.226890091400705" lon="11.943121201859384"><ele>56.0</ele><time>2026-05-02T07:20:02.999Z</time></trkpt><trkpt lat="44.22695669727481" lon="11.94318412571838"><ele>56.0</ele><time>2026-05-02T07:20:04.999Z</time></trkpt><trkpt lat="44.227029280361684" lon="11.943252127780779"><ele>55.99999999999999</ele><time>2026-05-02T07:20:06.999Z</time></trkpt><trkpt lat="44.22708974650631" lon="11.943341788231285"><ele>55.99999999999999</ele><time>2026-05-02T07:20:08.999Z</time></trkpt><trkpt lat="44.22707000241037" lon="11.943477992756772"><ele>56.0</ele><time>2026-05-02T07:20:10.999Z</time></trkpt><trkpt lat="44.227001620300996" lon="11.943570932005946"><ele>56.0</ele><time>2026-05-02T07:20:12.999Z</time></trkpt><trkpt lat="44.226933957926285" lon="11.943643451273584"><ele>56.00000000000001</ele><time>2026-05-02T07:20:14.999Z</time></trkpt><trkpt lat="44.226867262511874" lon="11.943713350209293"><ele>56.0</ele><time>2026-05-02T07:20:16.999Z</time></trkpt><trkpt lat="44.22680303068085" lon="11.943780920668093"><ele>56.0</ele><time>2026-05-02T07:20:18.999Z</time></trkpt><trkpt lat="44.22674174592674" lon="11.943848005501938"><ele>56.0</ele><time>2026-05-02T07:20:21Z</time></trkpt><trkpt lat="44.22668155787744" lon="11.943918475821727"><ele>56.00000000000001</ele><time>2026-05-02T07:20:23Z</time></trkpt><trkpt lat="44.22661807257927" lon="11.944004049955382"><ele>56.0</ele><time>2026-05-02T07:20:25Z</time></trkpt><trkpt lat="44.226556898123874" lon="11.944081051980831"><ele>56.00000000000001</ele><time>2026-05-02T07:20:27Z</time></trkpt><trkpt lat="44.226491436265036" lon="11.944150191015126"><ele>56.0</ele><time>2026-05-02T07:20:29Z</time></trkpt><trkpt lat="44.226429054252925" lon="11.944229972634227"><ele>56.0</ele><time>2026-05-02T07:20:31Z</time></trkpt><trkpt lat="44.226371695265236" lon="11.944300715234315"><ele>56.0</ele><time>2026-05-02T07:20:33Z</time></trkpt><trkpt lat="44.22631631255477" lon="11.944376540681139"><ele>56.00000000000001</ele><time>2026-05-02T07:20:35Z</time></trkpt><trkpt lat="44.226263131692725" lon="11.944454388568957"><ele>56.0</ele><time>2026-05-02T07:20:37Z</time></trkpt><trkpt lat="44.22620787452503" lon="11.944528211640284"><ele>56.333333333333336</ele><time>2026-05-02T07:20:39Z</time></trkpt><trkpt lat="44.226153872366204" lon="11.94460082359534"><ele>56.66666666666667</ele><time>2026-05-02T07:20:41Z</time></trkpt><trkpt lat="44.22609335954904" lon="11.944689744182625"><ele>57.0</ele><time>2026-05-02T07:20:43Z</time></trkpt><trkpt lat="44.2260408589637" lon="11.944769869446807"><ele>57.33333333333333</ele><time>2026-05-02T07:20:45Z</time></trkpt><trkpt lat="44.22598333528692" lon="11.944848784650194"><ele>57.666666666666664</ele><time>2026-05-02T07:20:47Z</time></trkpt><trkpt lat="44.225929934433765" lon="11.944929976675315"><ele>58.0</ele><time>2026-05-02T07:20:49Z</time></trkpt><trkpt lat="44.22588010515612" lon="11.945014737276612"><ele>58.166666666666664</ele><time>2026-05-02T07:20:51Z</time></trkpt><trkpt lat="44.225821484577956" lon="11.945099118311362"><ele>58.33333333333333</ele><time>2026-05-02T07:20:53Z</time></trkpt><trkpt lat="44.22576521975747" lon="11.945182946556411"><ele>58.5</ele><time>2026-05-02T07:20:55Z</time></trkpt><trkpt lat="44.22571251560765" lon="11.945268006750071"><ele>58.66666666666667</ele><time>2026-05-02T07:20:57Z</time></trkpt><trkpt lat="44.22566018037343" lon="11.945353162278828"><ele>58.833333333333336</ele><time>2026-05-02T07:20:59Z</time></trkpt><trkpt lat="44.22561485609499" lon="11.945448387841113"><ele>59.0</ele><time>2026-05-02T07:21:01Z</time></trkpt><trkpt lat="44.22556860620409" lon="11.945541374821978"><ele>59.333333333333336</ele><time>2026-05-02T07:21:03Z</time></trkpt><trkpt lat="44.225522012402365" lon="11.945637359872396"><ele>59.66666666666667</ele><time>2026-05-02T07:21:05Z</time></trkpt><trkpt lat="44.22548862193241" lon="11.945739201038737"><ele>60.0</ele><time>2026-05-02T07:21:07Z</time></trkpt><trkpt lat="44.22544354966886" lon="11.94584090149683"><ele>60.33333333333333</ele><time>2026-05-02T07:21:09Z</time></trkpt><trkpt lat="44.225399576997106" lon="11.945934973415287"><ele>60.666666666666664</ele><time>2026-05-02T07:21:11Z</time></trkpt><trkpt lat="44.22537323994891" lon="11.946023889118397"><ele>61.0</ele><time>2026-05-02T07:21:13Z</time></trkpt><trkpt lat="44.225323860284945" lon="11.94612005944828"><ele>60.85714285714285</ele><time>2026-05-02T07:21:15Z</time></trkpt><trkpt lat="44.22528573938208" lon="11.946222082427315"><ele>60.71428571428571</ele><time>2026-05-02T07:21:17Z</time></trkpt><trkpt lat="44.225246686261755" lon="11.94631507921136"><ele>60.57142857142857</ele><time>2026-05-02T07:21:19Z</time></trkpt><trkpt lat="44.22520816825514" lon="11.946410265174215"><ele>60.42857142857142</ele><time>2026-05-02T07:21:21Z</time></trkpt><trkpt lat="44.2251707327594" lon="11.946502757709538"><ele>60.28571428571428</ele><time>2026-05-02T07:21:23Z</time></trkpt><trkpt lat="44.22512777924445" lon="11.946580269031498"><ele>60.142857142857146</ele><time>2026-05-02T07:21:25Z</time></trkpt><trkpt lat="44.22509383839309" lon="11.946655474705317"><ele>60.0</ele><time>2026-05-02T07:21:28Z</time></trkpt><trkpt lat="44.22505670069981" lon="11.946734069718355"><ele>60.0</ele><time>2026-05-02T07:21:32Z</time></trkpt><trkpt lat="44.225014345102615" lon="11.946799962275215"><ele>60.0</ele><time>2026-05-02T07:21:35.999Z</time></trkpt><trkpt lat="44.22497321267681" lon="11.946880079016804"><ele>60.0</ele><time>2026-05-02T07:21:40.999Z</time></trkpt><trkpt lat="44.22492797300013" lon="11.94694655789034"><ele>60.0</ele><time>2026-05-02T07:21:44.999Z</time></trkpt><trkpt lat="44.22485859854351" lon="11.946950435362668"><ele>60.0</ele><time>2026-05-02T07:21:47.999Z</time></trkpt><trkpt lat="44.22478558944281" lon="11.946905580225222"><ele>60.0</ele><time>2026-05-02T07:21:50.999Z</time></trkpt><trkpt lat="44.22472027716966" lon="11.946832406557979"><ele>60.0</ele><time>2026-05-02T07:21:53.999Z</time></trkpt><trkpt lat="44.22464628526187" lon="11.946747558451529"><ele>60.28571428571429</ele><time>2026-05-02T07:21:56.999Z</time></trkpt><trkpt lat="44.224583987820594" lon="11.946695921517184"><ele>60.57142857142857</ele><time>2026-05-02T07:21:58.999Z</time></trkpt><trkpt lat="44.2245233096654" lon="11.946639952511532"><ele>60.85714285714286</ele><time>2026-05-02T07:22:00.999Z</time></trkpt><trkpt lat="44.22446799232314" lon="11.946582060044353"><ele>61.142857142857146</ele><time>2026-05-02T07:22:02.999Z</time></trkpt><trkpt lat="44.22440974576462" lon="11.946528295003738"><ele>61.42857142857143</ele><time>2026-05-02T07:22:04.999Z</time></trkpt><trkpt lat="44.22434940708169" lon="11.946470046110168"><ele>61.714285714285715</ele><time>2026-05-02T07:22:06.999Z</time></trkpt><trkpt lat="44.22428895914835" lon="11.946415896073434"><ele>62.0</ele><time>2026-05-02T07:22:08.999Z</time></trkpt><trkpt lat="44.22422908984442" lon="11.946370663331395"><ele>62.0</ele><time>2026-05-02T07:22:10.999Z</time></trkpt><trkpt lat="44.22417206754362" lon="11.94631727245342"><ele>62.00000000000001</ele><time>2026-05-02T07:22:12.999Z</time></trkpt><trkpt lat="44.224113093128814" lon="11.946270066520027"><ele>62.0</ele><time>2026-05-02T07:22:14.999Z</time></trkpt><trkpt lat="44.224061084414856" lon="11.946208330639404"><ele>62.0</ele><time>2026-05-02T07:22:16.999Z</time></trkpt><trkpt lat="44.2240017837249" lon="11.946154836976863"><ele>62.00000000000001</ele><time>2026-05-02T07:22:18.999Z</time></trkpt><trkpt lat="44.22394917164601" lon="11.946106290290343"><ele>62.0</ele><time>2026-05-02T07:22:20.999Z</time></trkpt><trkpt lat="44.223890937438036" lon="11.946046031425304"><ele>62.0</ele><time>2026-05-02T07:22:22.999Z</time></trkpt><trkpt lat="44.223831967399434" lon="11.945991352629466"><ele>62.142857142857146</ele><time>2026-05-02T07:22:24.999Z</time></trkpt><trkpt lat="44.22377493541563" lon="11.94592646659863"><ele>62.28571428571429</ele><time>2026-05-02T07:22:27Z</time></trkpt><trkpt lat="44.223711905823805" lon="11.945874333434046"><ele>62.42857142857143</ele><time>2026-05-02T07:22:29Z</time></trkpt><trkpt lat="44.223651271153166" lon="11.945823783897662"><ele>62.57142857142857</ele><time>2026-05-02T07:22:31Z</time></trkpt><trkpt lat="44.223598588849434" lon="11.945769977989704"><ele>62.714285714285715</ele><time>2026-05-02T07:22:33Z</time></trkpt><trkpt lat="44.22354608188345" lon="11.945719959152061"><ele>62.85714285714286</ele><time>2026-05-02T07:22:35Z</time></trkpt><trkpt lat="44.2234928257592" lon="11.945671858695004"><ele>63.0</ele><time>2026-05-02T07:22:37Z</time></trkpt><trkpt lat="44.2234196910507" lon="11.945598830449738"><ele>63.666666666666664</ele><time>2026-05-02T07:22:40Z</time></trkpt><trkpt lat="44.223346002638536" lon="11.94553104019614"><ele>64.33333333333333</ele><time>2026-05-02T07:22:43Z</time></trkpt><trkpt lat="44.22328536392482" lon="11.945494727281178"><ele>65.0</ele><time>2026-05-02T07:22:45Z</time></trkpt><trkpt lat="44.22320165279344" lon="11.945439076989663"><ele>65.66666666666666</ele><time>2026-05-02T07:22:48Z</time></trkpt><trkpt lat="44.22312910177182" lon="11.945473917718775"><ele>66.33333333333333</ele><time>2026-05-02T07:22:50Z</time></trkpt><trkpt lat="44.22307968703581" lon="11.94554163530669"><ele>67.0</ele><time>2026-05-02T07:22:52Z</time></trkpt><trkpt lat="44.223048282696254" lon="11.945620825099084"><ele>67.0</ele><time>2026-05-02T07:22:54Z</time></trkpt><trkpt lat="44.22301371907645" lon="11.945704868871953"><ele>67.0</ele><time>2026-05-02T07:22:56Z</time></trkpt><trkpt lat="44.22297158411199" lon="11.945777630917478"><ele>67.0</ele><time>2026-05-02T07:22:58Z</time></trkpt><trkpt lat="44.222923541468774" lon="11.945871126355952"><ele>67.0</ele><time>2026-05-02T07:23:00Z</time></trkpt><trkpt lat="44.222878698161566" lon="11.945958934170802"><ele>67.0</ele><time>2026-05-02T07:23:02Z</time></trkpt><trkpt lat="44.22282760190173" lon="11.946067744123637"><ele>67.0</ele><time>2026-05-02T07:23:04Z</time></trkpt><trkpt lat="44.22277734484415" lon="11.946178596516996"><ele>66.6</ele><time>2026-05-02T07:23:06Z</time></trkpt><trkpt lat="44.22272476799798" lon="11.946280032958601"><ele>66.2</ele><time>2026-05-02T07:23:08Z</time></trkpt><trkpt lat="44.22265759071428" lon="11.946399614651115"><ele>65.8</ele><time>2026-05-02T07:23:10Z</time></trkpt><trkpt lat="44.2226007734577" lon="11.946533235587307"><ele>65.4</ele><time>2026-05-02T07:23:12Z</time></trkpt><trkpt lat="44.222529796797616" lon="11.946641245110794"><ele>65.0</ele><time>2026-05-02T07:23:14Z</time></trkpt><trkpt lat="44.22249278692575" lon="11.946717043422238"><ele>64.66666666666667</ele><time>2026-05-02T07:23:15Z</time></trkpt><trkpt lat="44.22247138984886" lon="11.946800993412824"><ele>64.33333333333334</ele><time>2026-05-02T07:23:16Z</time></trkpt><trkpt lat="44.22240131722257" lon="11.94694449953935"><ele>64.0</ele><time>2026-05-02T07:23:18Z</time></trkpt><trkpt lat="44.22235909564269" lon="11.947026860839562"><ele>63.66666666666667</ele><time>2026-05-02T07:23:19Z</time></trkpt><trkpt lat="44.22231770409203" lon="11.947105794783008"><ele>63.333333333333336</ele><time>2026-05-02T07:23:20Z</time></trkpt><trkpt lat="44.22227907324107" lon="11.947183820868013"><ele>63.0</ele><time>2026-05-02T07:23:21Z</time></trkpt><trkpt lat="44.22223385990576" lon="11.94726931155065"><ele>63.0</ele><time>2026-05-02T07:23:22Z</time></trkpt><trkpt lat="44.222193892823064" lon="11.947356180726704"><ele>63.0</ele><time>2026-05-02T07:23:23Z</time></trkpt><trkpt lat="44.22214987230001" lon="11.94744835066669"><ele>63.0</ele><time>2026-05-02T07:23:24Z</time></trkpt><trkpt lat="44.22210361792787" lon="11.947541561375699"><ele>63.0</ele><time>2026-05-02T07:23:25Z</time></trkpt><trkpt lat="44.222059734613204" lon="11.947629859218734"><ele>63.0</ele><time>2026-05-02T07:23:26Z</time></trkpt><trkpt lat="44.22201394321126" lon="11.947716726964542"><ele>63.0</ele><time>2026-05-02T07:23:27Z</time></trkpt><trkpt lat="44.22197357406766" lon="11.947806209910492"><ele>63.333333333333336</ele><time>2026-05-02T07:23:28Z</time></trkpt><trkpt lat="44.22193601350422" lon="11.94789654693143"><ele>63.66666666666667</ele><time>2026-05-02T07:23:29Z</time></trkpt><trkpt lat="44.221901569853074" lon="11.947980618191165"><ele>64.0</ele><time>2026-05-02T07:23:30Z</time></trkpt><trkpt lat="44.2218596498428" lon="11.94805568531518"><ele>64.33333333333334</ele><time>2026-05-02T07:23:31Z</time></trkpt><trkpt lat="44.22178882736794" lon="11.948195506792906"><ele>64.66666666666667</ele><time>2026-05-02T07:23:33Z</time></trkpt><trkpt lat="44.22173027099726" lon="11.948312498673218"><ele>65.0</ele><time>2026-05-02T07:23:35Z</time></trkpt><trkpt lat="44.22167319882515" lon="11.948408568789887"><ele>65.42857142857143</ele><time>2026-05-02T07:23:37Z</time></trkpt><trkpt lat="44.22161250579958" lon="11.948491779087545"><ele>65.85714285714286</ele><time>2026-05-02T07:23:39Z</time></trkpt><trkpt lat="44.221550912963664" lon="11.948554898374601"><ele>66.28571428571428</ele><time>2026-05-02T07:23:40.999Z</time></trkpt><trkpt lat="44.22148562658351" lon="11.948603989701192"><ele>66.71428571428572</ele><time>2026-05-02T07:23:42.999Z</time></trkpt><trkpt lat="44.22141920116742" lon="11.948643717634358"><ele>67.14285714285714</ele><time>2026-05-02T07:23:44.999Z</time></trkpt><trkpt lat="44.2213553997336" lon="11.94867240100233"><ele>67.57142857142857</ele><time>2026-05-02T07:23:46.999Z</time></trkpt><trkpt lat="44.221293100832234" lon="11.948688020933135"><ele>68.0</ele><time>2026-05-02T07:23:48.999Z</time></trkpt><trkpt lat="44.221204591803705" lon="11.948700412291512"><ele>68.33333333333334</ele><time>2026-05-02T07:23:51.999Z</time></trkpt><trkpt lat="44.22114100544239" lon="11.948683474529794"><ele>68.66666666666667</ele><time>2026-05-02T07:23:53.999Z</time></trkpt><trkpt lat="44.22104907161323" lon="11.948662575080103"><ele>69.0</ele><time>2026-05-02T07:23:56.999Z</time></trkpt><trkpt lat="44.220984928337074" lon="11.948656118346955"><ele>69.33333333333333</ele><time>2026-05-02T07:23:58.999Z</time></trkpt><trkpt lat="44.22089668252794" lon="11.948630898120001"><ele>69.66666666666666</ele><time>2026-05-02T07:24:01.999Z</time></trkpt><trkpt lat="44.220805182602845" lon="11.948617310531722"><ele>70.0</ele><time>2026-05-02T07:24:04.999Z</time></trkpt><trkpt lat="44.22071822857713" lon="11.948593476677772"><ele>70.16666666666666</ele><time>2026-05-02T07:24:07.999Z</time></trkpt><trkpt lat="44.220632411598295" lon="11.948562327475726"><ele>70.33333333333333</ele><time>2026-05-02T07:24:10.999Z</time></trkpt><trkpt lat="44.22055148115217" lon="11.948538072671367"><ele>70.5</ele><time>2026-05-02T07:24:13.999Z</time></trkpt><trkpt lat="44.2204715593611" lon="11.948515799259155"><ele>70.66666666666667</ele><time>2026-05-02T07:24:16.999Z</time></trkpt><trkpt lat="44.22039867318997" lon="11.948498366633615"><ele>70.83333333333334</ele><time>2026-05-02T07:24:19.999Z</time></trkpt><trkpt lat="44.220319780191005" lon="11.948482598002478"><ele>71.0</ele><time>2026-05-02T07:24:22.999Z</time></trkpt><trkpt lat="44.22023983777278" lon="11.948465830027223"><ele>71.0</ele><time>2026-05-02T07:24:25.999Z</time></trkpt><trkpt lat="44.22016372978868" lon="11.94845639617767"><ele>71.0</ele><time>2026-05-02T07:24:28.999Z</time></trkpt><trkpt lat="44.22009054926315" lon="11.948464656363363"><ele>71.0</ele><time>2026-05-02T07:24:31.999Z</time></trkpt><trkpt lat="44.22002050628483" lon="11.94847893969005"><ele>71.0</ele><time>2026-05-02T07:24:35Z</time></trkpt><trkpt lat="44.21995585663831" lon="11.948519819538202"><ele>71.0</ele><time>2026-05-02T07:24:38Z</time></trkpt><trkpt lat="44.219887491130876" lon="11.948557219288597"><ele>71.0</ele><time>2026-05-02T07:24:41Z</time></trkpt><trkpt lat="44.21983038056328" lon="11.948604371783013"><ele>71.0</ele><time>2026-05-02T07:24:44Z</time></trkpt><trkpt lat="44.21977533101538" lon="11.948671145141173"><ele>71.16666666666667</ele><time>2026-05-02T07:24:47Z</time></trkpt><trkpt lat="44.21972858731275" lon="11.948748429540531"><ele>71.33333333333334</ele><time>2026-05-02T07:24:50Z</time></trkpt><trkpt lat="44.2196819668515" lon="11.948834733797032"><ele>71.5</ele><time>2026-05-02T07:24:53Z</time></trkpt><trkpt lat="44.21965398546228" lon="11.948936326477543"><ele>71.66666666666667</ele><time>2026-05-02T07:24:56Z</time></trkpt><trkpt lat="44.21962955110107" lon="11.949031515030448"><ele>71.83333333333333</ele><time>2026-05-02T07:24:59Z</time></trkpt><trkpt lat="44.219601572957224" lon="11.949146439092864"><ele>72.0</ele><time>2026-05-02T07:25:02Z</time></trkpt><trkpt lat="44.21957414635147" lon="11.949274567065792"><ele>72.0</ele><time>2026-05-02T07:25:05Z</time></trkpt><trkpt lat="44.21954570686452" lon="11.949373156833582"><ele>72.0</ele><time>2026-05-02T07:25:07Z</time></trkpt><trkpt lat="44.219524476119794" lon="11.949483833544146"><ele>72.0</ele><time>2026-05-02T07:25:09Z</time></trkpt><trkpt lat="44.219500195968934" lon="11.949600743311096"><ele>72.0</ele><time>2026-05-02T07:25:11Z</time></trkpt><trkpt lat="44.21946447624182" lon="11.949731269052949"><ele>72.0</ele><time>2026-05-02T07:25:13Z</time></trkpt><trkpt lat="44.2194310712152" lon="11.94987952011013"><ele>72.0</ele><time>2026-05-02T07:25:15Z</time></trkpt><trkpt lat="44.21940319294309" lon="11.95003787866155"><ele>72.0</ele><time>2026-05-02T07:25:17Z</time></trkpt><trkpt lat="44.21936582672769" lon="11.950196293447023"><ele>72.0</ele><time>2026-05-02T07:25:19Z</time></trkpt><trkpt lat="44.21932393071027" lon="11.95036203400274"><ele>72.0</ele><time>2026-05-02T07:25:21Z</time></trkpt><trkpt lat="44.2193026232534" lon="11.950450131100423"><ele>72.0</ele><time>2026-05-02T07:25:22Z</time></trkpt><trkpt lat="44.21928287389634" lon="11.950537310832905"><ele>71.71428571428572</ele><time>2026-05-02T07:25:23Z</time></trkpt><trkpt lat="44.21925790684505" lon="11.950629601127265"><ele>71.42857142857143</ele><time>2026-05-02T07:25:24Z</time></trkpt><trkpt lat="44.219232000565384" lon="11.950723420667117"><ele>71.14285714285714</ele><time>2026-05-02T07:25:25Z</time></trkpt><trkpt lat="44.219208211685306" lon="11.95082077061076"><ele>70.85714285714286</ele><time>2026-05-02T07:25:26Z</time></trkpt><trkpt lat="44.21918351602762" lon="11.950922898481364"><ele>70.57142857142857</ele><time>2026-05-02T07:25:27Z</time></trkpt><trkpt lat="44.219162775585886" lon="11.951023379492959"><ele>70.28571428571429</ele><time>2026-05-02T07:25:28Z</time></trkpt><trkpt lat="44.21913996247442" lon="11.95112537977558"><ele>70.0</ele><time>2026-05-02T07:25:29Z</time></trkpt><trkpt lat="44.219115319296385" lon="11.95122921844922"><ele>69.16666666666666</ele><time>2026-05-02T07:25:30Z</time></trkpt><trkpt lat="44.21908927372264" lon="11.95133414683393"><ele>68.33333333333333</ele><time>2026-05-02T07:25:31Z</time></trkpt><trkpt lat="44.219062688174716" lon="11.95144324577714"><ele>67.5</ele><time>2026-05-02T07:25:32Z</time></trkpt><trkpt lat="44.21903739501755" lon="11.951554509889284"><ele>66.66666666666667</ele><time>2026-05-02T07:25:33Z</time></trkpt><trkpt lat="44.21901281380111" lon="11.951666987607714"><ele>65.83333333333334</ele><time>2026-05-02T07:25:34Z</time></trkpt><trkpt lat="44.218986539584" lon="11.951781153881289"><ele>65.0</ele><time>2026-05-02T07:25:35Z</time></trkpt><trkpt lat="44.218959177612746" lon="11.951897940622969"><ele>65.0</ele><time>2026-05-02T07:25:36Z</time></trkpt><trkpt lat="44.21893170646628" lon="11.952016691936324"><ele>65.0</ele><time>2026-05-02T07:25:37Z</time></trkpt><trkpt lat="44.21890353081555" lon="11.952134562190224"><ele>65.0</ele><time>2026-05-02T07:25:38Z</time></trkpt><trkpt lat="44.21887445855206" lon="11.952252793290983"><ele>65.0</ele><time>2026-05-02T07:25:39Z</time></trkpt><trkpt lat="44.21884500696813" lon="11.952370086471731"><ele>65.0</ele><time>2026-05-02T07:25:40Z</time></trkpt><trkpt lat="44.218815796129775" lon="11.952490569034083"><ele>65.0</ele><time>2026-05-02T07:25:41Z</time></trkpt><trkpt lat="44.21878652141067" lon="11.952604693146762"><ele>65.0</ele><time>2026-05-02T07:25:42Z</time></trkpt><trkpt lat="44.218751935928694" lon="11.952714097997521"><ele>65.0</ele><time>2026-05-02T07:25:43Z</time></trkpt><trkpt lat="44.21871623913616" lon="11.952816947558354"><ele>65.0</ele><time>2026-05-02T07:25:43.999Z</time></trkpt><trkpt lat="44.218678592044235" lon="11.95291082113237"><ele>65.0</ele><time>2026-05-02T07:25:44.999Z</time></trkpt><trkpt lat="44.21863645838183" lon="11.952994581663706"><ele>65.0</ele><time>2026-05-02T07:25:45.999Z</time></trkpt><trkpt lat="44.21859598958079" lon="11.953065085704372"><ele>65.0</ele><time>2026-05-02T07:25:46.999Z</time></trkpt><trkpt lat="44.218512920407285" lon="11.953179022174739"><ele>65.0</ele><time>2026-05-02T07:25:48.999Z</time></trkpt><trkpt lat="44.21843521195839" lon="11.953267471200782"><ele>65.0</ele><time>2026-05-02T07:25:50.999Z</time></trkpt><trkpt lat="44.218363644298236" lon="11.953350042277679"><ele>65.0</ele><time>2026-05-02T07:25:52.999Z</time></trkpt><trkpt lat="44.2182988657749" lon="11.95343017352847"><ele>65.0</ele><time>2026-05-02T07:25:54.999Z</time></trkpt><trkpt lat="44.21823801176647" lon="11.953511686334567"><ele>65.0</ele><time>2026-05-02T07:25:56.999Z</time></trkpt><trkpt lat="44.21818048843081" lon="11.953585387923379"><ele>65.0</ele><time>2026-05-02T07:25:58.999Z</time></trkpt><trkpt lat="44.21812869071229" lon="11.95366055702066"><ele>65.42857142857143</ele><time>2026-05-02T07:26:00.999Z</time></trkpt><trkpt lat="44.2180817149665" lon="11.953738016838845"><ele>65.85714285714286</ele><time>2026-05-02T07:26:02.999Z</time></trkpt><trkpt lat="44.218032508507335" lon="11.95380882100598"><ele>66.28571428571428</ele><time>2026-05-02T07:26:04.999Z</time></trkpt><trkpt lat="44.21799256925934" lon="11.95388941702815"><ele>66.71428571428572</ele><time>2026-05-02T07:26:06.999Z</time></trkpt><trkpt lat="44.21795031841153" lon="11.953972019303366"><ele>67.14285714285714</ele><time>2026-05-02T07:26:08.999Z</time></trkpt><trkpt lat="44.21791552507928" lon="11.954062491926452"><ele>67.57142857142857</ele><time>2026-05-02T07:26:10.999Z</time></trkpt><trkpt lat="44.217885655697785" lon="11.954161633750154"><ele>68.0</ele><time>2026-05-02T07:26:12.999Z</time></trkpt><trkpt lat="44.217860938188075" lon="11.954268905893514"><ele>68.0</ele><time>2026-05-02T07:26:14.999Z</time></trkpt><trkpt lat="44.21784168442045" lon="11.954378933511688"><ele>68.0</ele><time>2026-05-02T07:26:16.999Z</time></trkpt><trkpt lat="44.21782633881362" lon="11.954496830465438"><ele>68.0</ele><time>2026-05-02T07:26:18.999Z</time></trkpt><trkpt lat="44.217806114891154" lon="11.954626518031905"><ele>68.0</ele><time>2026-05-02T07:26:20.999Z</time></trkpt><trkpt lat="44.2177854414392" lon="11.954758091043322"><ele>68.0</ele><time>2026-05-02T07:26:22.999Z</time></trkpt><trkpt lat="44.21776335846843" lon="11.954903645137442"><ele>67.5</ele><time>2026-05-02T07:26:24.999Z</time></trkpt><trkpt lat="44.217737627749706" lon="11.955070564463973"><ele>67.0</ele><time>2026-05-02T07:26:26.999Z</time></trkpt><trkpt lat="44.217723458243334" lon="11.95515869737001"><ele>66.5</ele><time>2026-05-02T07:26:27.999Z</time></trkpt><trkpt lat="44.21770500653653" lon="11.955251144157883"><ele>66.0</ele><time>2026-05-02T07:26:28.999Z</time></trkpt><trkpt lat="44.21768804469625" lon="11.95534886516364"><ele>65.5</ele><time>2026-05-02T07:26:29.999Z</time></trkpt><trkpt lat="44.21766919536032" lon="11.955452932031701"><ele>65.0</ele><time>2026-05-02T07:26:30.999Z</time></trkpt><trkpt lat="44.217648435108586" lon="11.955553781954954"><ele>65.00000000000001</ele><time>2026-05-02T07:26:31.999Z</time></trkpt><trkpt lat="44.21763281387125" lon="11.955656475954788"><ele>65.0</ele><time>2026-05-02T07:26:32.999Z</time></trkpt><trkpt lat="44.21761759975378" lon="11.955756747507836"><ele>65.0</ele><time>2026-05-02T07:26:33.999Z</time></trkpt><trkpt lat="44.21759959512983" lon="11.955857278541606"><ele>65.0</ele><time>2026-05-02T07:26:34.999Z</time></trkpt><trkpt lat="44.217584205908494" lon="11.955951208024787"><ele>65.0</ele><time>2026-05-02T07:26:35.999Z</time></trkpt><trkpt lat="44.2175672043623" lon="11.956042702381852"><ele>65.00000000000001</ele><time>2026-05-02T07:26:36.999Z</time></trkpt><trkpt lat="44.217547405302895" lon="11.956128687716726"><ele>65.0</ele><time>2026-05-02T07:26:37.999Z</time></trkpt><trkpt lat="44.217493701690344" lon="11.95627889384477"><ele>65.2</ele><time>2026-05-02T07:26:40Z</time></trkpt><trkpt lat="44.21744679042933" lon="11.95640459575215"><ele>65.4</ele><time>2026-05-02T07:26:42Z</time></trkpt><trkpt lat="44.21738413372428" lon="11.956509047826025"><ele>65.6</ele><time>2026-05-02T07:26:44Z</time></trkpt><trkpt lat="44.21732338984167" lon="11.956612496010573"><ele>65.8</ele><time>2026-05-02T07:26:46Z</time></trkpt><trkpt lat="44.21725979689292" lon="11.956692062532142"><ele>66.0</ele><time>2026-05-02T07:26:48Z</time></trkpt><trkpt lat="44.217194039228986" lon="11.956773325948557"><ele>66.66666666666667</ele><time>2026-05-02T07:26:50Z</time></trkpt><trkpt lat="44.217123409204596" lon="11.956844671180429"><ele>67.33333333333333</ele><time>2026-05-02T07:26:52Z</time></trkpt><trkpt lat="44.217052286069155" lon="11.956906080240742"><ele>68.0</ele><time>2026-05-02T07:26:54Z</time></trkpt><trkpt lat="44.216977928009456" lon="11.95695804605001"><ele>68.66666666666666</ele><time>2026-05-02T07:26:56Z</time></trkpt><trkpt lat="44.21690404580486" lon="11.95699809721565"><ele>69.33333333333333</ele><time>2026-05-02T07:26:58Z</time></trkpt><trkpt lat="44.21684020145305" lon="11.957038930965403"><ele>70.0</ele><time>2026-05-02T07:27:00Z</time></trkpt><trkpt lat="44.21677134314783" lon="11.957075821922386"><ele>70.0</ele><time>2026-05-02T07:27:02Z</time></trkpt><trkpt lat="44.216709186525065" lon="11.95710873632213"><ele>70.0</ele><time>2026-05-02T07:27:04Z</time></trkpt><trkpt lat="44.216618355553756" lon="11.9571486043309"><ele>70.0</ele><time>2026-05-02T07:27:07Z</time></trkpt><trkpt lat="44.21653633165328" lon="11.957203361287728"><ele>70.0</ele><time>2026-05-02T07:27:10Z</time></trkpt><trkpt lat="44.21645401061209" lon="11.95724848318749"><ele>70.0</ele><time>2026-05-02T07:27:13Z</time></trkpt><trkpt lat="44.21638111827429" lon="11.957284526388344"><ele>70.0</ele><time>2026-05-02T07:27:16Z</time></trkpt><trkpt lat="44.2163066398274" lon="11.957323332054573"><ele>70.16666666666666</ele><time>2026-05-02T07:27:19Z</time></trkpt><trkpt lat="44.21623552259369" lon="11.957369033470693"><ele>70.33333333333333</ele><time>2026-05-02T07:27:22Z</time></trkpt><trkpt lat="44.21615860645509" lon="11.957422117620531"><ele>70.5</ele><time>2026-05-02T07:27:25Z</time></trkpt><trkpt lat="44.21610599978172" lon="11.957471951892257"><ele>70.66666666666667</ele><time>2026-05-02T07:27:27Z</time></trkpt><trkpt lat="44.21603065498825" lon="11.957557186909233"><ele>70.83333333333334</ele><time>2026-05-02T07:27:30Z</time></trkpt><trkpt lat="44.21597473731167" lon="11.957602814659149"><ele>71.0</ele><time>2026-05-02T07:27:32Z</time></trkpt><trkpt lat="44.21592961884825" lon="11.957674597739345"><ele>71.0</ele><time>2026-05-02T07:27:34Z</time></trkpt><trkpt lat="44.215889901367554" lon="11.957763152214403"><ele>71.0</ele><time>2026-05-02T07:27:36Z</time></trkpt><trkpt lat="44.2158522560597" lon="11.957864714865693"><ele>71.0</ele><time>2026-05-02T07:27:38Z</time></trkpt><trkpt lat="44.21581814146053" lon="11.957974193023087"><ele>71.0</ele><time>2026-05-02T07:27:40Z</time></trkpt><trkpt lat="44.21578164733192" lon="11.958084908021794"><ele>71.0</ele><time>2026-05-02T07:27:42Z</time></trkpt><trkpt lat="44.215735441202455" lon="11.958183830301106"><ele>71.0</ele><time>2026-05-02T07:27:44Z</time></trkpt><trkpt lat="44.21571029488228" lon="11.958295451238724"><ele>71.0</ele><time>2026-05-02T07:27:46Z</time></trkpt><trkpt lat="44.21564904188439" lon="11.95836423621802"><ele>71.0</ele><time>2026-05-02T07:27:48Z</time></trkpt><trkpt lat="44.2155464358722" lon="11.95837675813365"><ele>71.0</ele><time>2026-05-02T07:27:50Z</time></trkpt><trkpt lat="44.21546426106384" lon="11.958352005453333"><ele>71.0</ele><time>2026-05-02T07:27:52Z</time></trkpt><trkpt lat="44.215386328087725" lon="11.958325507411708"><ele>71.0</ele><time>2026-05-02T07:27:54Z</time></trkpt><trkpt lat="44.21531299400023" lon="11.958310291182345"><ele>71.0</ele><time>2026-05-02T07:27:56Z</time></trkpt><trkpt lat="44.21523829681917" lon="11.958299639142705"><ele>71.28571428571428</ele><time>2026-05-02T07:27:58Z</time></trkpt><trkpt lat="44.21516811639778" lon="11.958296022506198"><ele>71.57142857142857</ele><time>2026-05-02T07:28:00Z</time></trkpt><trkpt lat="44.2151004178839" lon="11.958284168023864"><ele>71.85714285714286</ele><time>2026-05-02T07:28:02Z</time></trkpt><trkpt lat="44.215036695848994" lon="11.958253242786503"><ele>72.14285714285714</ele><time>2026-05-02T07:28:04Z</time></trkpt><trkpt lat="44.21497527522422" lon="11.958229292915272"><ele>72.42857142857143</ele><time>2026-05-02T07:28:06Z</time></trkpt><trkpt lat="44.21491267735612" lon="11.958210068459108"><ele>72.71428571428571</ele><time>2026-05-02T07:28:08Z</time></trkpt><trkpt lat="44.214850188275875" lon="11.958192501726238"><ele>73.0</ele><time>2026-05-02T07:28:09.999Z</time></trkpt><trkpt lat="44.21476100907651" lon="11.95814760773627"><ele>73.28571428571428</ele><time>2026-05-02T07:28:12.999Z</time></trkpt><trkpt lat="44.214694881988194" lon="11.958119016282676"><ele>73.57142857142857</ele><time>2026-05-02T07:28:14.999Z</time></trkpt><trkpt lat="44.21462846495189" lon="11.958099646766147"><ele>73.85714285714286</ele><time>2026-05-02T07:28:16.999Z</time></trkpt><trkpt lat="44.2145558250769" lon="11.95808235332989"><ele>74.14285714285714</ele><time>2026-05-02T07:28:18.999Z</time></trkpt><trkpt lat="44.214491347999655" lon="11.958060368471656"><ele>74.42857142857143</ele><time>2026-05-02T07:28:20.999Z</time></trkpt><trkpt lat="44.21442308562302" lon="11.958042328519422"><ele>74.71428571428571</ele><time>2026-05-02T07:28:22.999Z</time></trkpt><trkpt lat="44.21435804740474" lon="11.958026261595002"><ele>75.0</ele><time>2026-05-02T07:28:24.999Z</time></trkpt><trkpt lat="44.214296807028646" lon="11.957997984160516"><ele>74.99999999999999</ele><time>2026-05-02T07:28:26.999Z</time></trkpt><trkpt lat="44.214227123112366" lon="11.957981627086582"><ele>75.0</ele><time>2026-05-02T07:28:28.999Z</time></trkpt><trkpt lat="44.21416194405581" lon="11.957953224450716"><ele>75.0</ele><time>2026-05-02T07:28:30.999Z</time></trkpt><trkpt lat="44.214097383435764" lon="11.95792449511297"><ele>75.0</ele><time>2026-05-02T07:28:32.999Z</time></trkpt><trkpt lat="44.214030823988416" lon="11.95790108980733"><ele>75.0</ele><time>2026-05-02T07:28:34.999Z</time></trkpt><trkpt lat="44.21396446639467" lon="11.957873100484065"><ele>74.99999999999999</ele><time>2026-05-02T07:28:36.999Z</time></trkpt><trkpt lat="44.21390417120346" lon="11.957827376021854"><ele>75.0</ele><time>2026-05-02T07:28:38.999Z</time></trkpt><trkpt lat="44.213848407786315" lon="11.957777193029854"><ele>75.14285714285714</ele><time>2026-05-02T07:28:40.999Z</time></trkpt><trkpt lat="44.213797523888616" lon="11.957720223531627"><ele>75.28571428571428</ele><time>2026-05-02T07:28:42.999Z</time></trkpt><trkpt lat="44.21374711927128" lon="11.957657744388523"><ele>75.42857142857142</ele><time>2026-05-02T07:28:45Z</time></trkpt><trkpt lat="44.213694182036676" lon="11.957604718813398"><ele>75.57142857142857</ele><time>2026-05-02T07:28:47Z</time></trkpt><trkpt lat="44.21364029411173" lon="11.957546488952925"><ele>75.71428571428572</ele><time>2026-05-02T07:28:49Z</time></trkpt><trkpt lat="44.213588236832436" lon="11.957490299955797"><ele>75.85714285714285</ele><time>2026-05-02T07:28:51Z</time></trkpt><trkpt lat="44.21351194035085" lon="11.957418421696705"><ele>76.0</ele><time>2026-05-02T07:28:54Z</time></trkpt><trkpt lat="44.21346136414323" lon="11.957365182620306"><ele>76.0</ele><time>2026-05-02T07:28:56Z</time></trkpt><trkpt lat="44.21340582629928" lon="11.957312948548976"><ele>76.0</ele><time>2026-05-02T07:28:58Z</time></trkpt><trkpt lat="44.21335733926789" lon="11.957256134612356"><ele>76.0</ele><time>2026-05-02T07:29:00Z</time></trkpt><trkpt lat="44.21328539398719" lon="11.95718738638613"><ele>76.0</ele><time>2026-05-02T07:29:03Z</time></trkpt><trkpt lat="44.21321876549808" lon="11.957114767914726"><ele>76.0</ele><time>2026-05-02T07:29:06Z</time></trkpt><trkpt lat="44.21314571752087" lon="11.957048990847039"><ele>76.0</ele><time>2026-05-02T07:29:09Z</time></trkpt><trkpt lat="44.21307292834945" lon="11.956979511179435"><ele>77.0</ele><time>2026-05-02T07:29:12Z</time></trkpt><trkpt lat="44.21300753599934" lon="11.956908005600578"><ele>78.0</ele><time>2026-05-02T07:29:15Z</time></trkpt><trkpt lat="44.21294259564283" lon="11.956842186390523"><ele>79.0</ele><time>2026-05-02T07:29:18Z</time></trkpt><trkpt lat="44.21287243301922" lon="11.956768880256035"><ele>80.0</ele><time>2026-05-02T07:29:21Z</time></trkpt><trkpt lat="44.21280246429987" lon="11.956706506226714"><ele>81.0</ele><time>2026-05-02T07:29:24Z</time></trkpt><trkpt lat="44.21274060647158" lon="11.956632298223921"><ele>82.0</ele><time>2026-05-02T07:29:27Z</time></trkpt><trkpt lat="44.21267780255695" lon="11.95656553564848"><ele>82.16666666666666</ele><time>2026-05-02T07:29:30Z</time></trkpt><trkpt lat="44.21261375507236" lon="11.956499181457458"><ele>82.33333333333333</ele><time>2026-05-02T07:29:33Z</time></trkpt><trkpt lat="44.212548828993015" lon="11.956431188503878"><ele>82.5</ele><time>2026-05-02T07:29:36Z</time></trkpt><trkpt lat="44.212480370151994" lon="11.956373726511897"><ele>82.66666666666667</ele><time>2026-05-02T07:29:39Z</time></trkpt><trkpt lat="44.212424541195475" lon="11.956286672265444"><ele>82.83333333333334</ele><time>2026-05-02T07:29:42Z</time></trkpt><trkpt lat="44.21237322971018" lon="11.956182953980662"><ele>83.0</ele><time>2026-05-02T07:29:45Z</time></trkpt><trkpt lat="44.212329355484776" lon="11.956079633496245"><ele>83.33333333333334</ele><time>2026-05-02T07:29:48Z</time></trkpt><trkpt lat="44.212289914919424" lon="11.955975473504063"><ele>83.66666666666667</ele><time>2026-05-02T07:29:51Z</time></trkpt><trkpt lat="44.21225012472673" lon="11.955869403274304"><ele>84.0</ele><time>2026-05-02T07:29:54Z</time></trkpt><trkpt lat="44.212212333830216" lon="11.955773128898475"><ele>84.33333333333333</ele><time>2026-05-02T07:29:57Z</time></trkpt><trkpt lat="44.21217102634575" lon="11.955668980061494"><ele>84.66666666666666</ele><time>2026-05-02T07:30:00Z</time></trkpt><trkpt lat="44.21213213142779" lon="11.955569857929511"><ele>85.0</ele><time>2026-05-02T07:30:02.999Z</time></trkpt><trkpt lat="44.212091480943045" lon="11.955477658307398"><ele>85.16666666666666</ele><time>2026-05-02T07:30:05.999Z</time></trkpt><trkpt lat="44.212050383450915" lon="11.955383823306196"><ele>85.33333333333333</ele><time>2026-05-02T07:30:08.999Z</time></trkpt><trkpt lat="44.21201831214518" lon="11.955285870522314"><ele>85.5</ele><time>2026-05-02T07:30:11.999Z</time></trkpt><trkpt lat="44.21198236423057" lon="11.955191254968913"><ele>85.66666666666667</ele><time>2026-05-02T07:30:14.999Z</time></trkpt><trkpt lat="44.21194378817342" lon="11.955093851024822"><ele>85.83333333333334</ele><time>2026-05-02T07:30:17.999Z</time></trkpt><trkpt lat="44.21190926818278" lon="11.955004933307773"><ele>86.0</ele><time>2026-05-02T07:30:20.999Z</time></trkpt><trkpt lat="44.21187597079801" lon="11.954921368791895"><ele>86.42857142857143</ele><time>2026-05-02T07:30:23.999Z</time></trkpt><trkpt lat="44.211839618481434" lon="11.954835681960466"><ele>86.85714285714286</ele><time>2026-05-02T07:30:26.999Z</time></trkpt><trkpt lat="44.211808927925006" lon="11.954746034974251"><ele>87.28571428571428</ele><time>2026-05-02T07:30:29.999Z</time></trkpt><trkpt lat="44.211776400807786" lon="11.95465559899824"><ele>87.71428571428572</ele><time>2026-05-02T07:30:32.999Z</time></trkpt><trkpt lat="44.211748733366676" lon="11.954565333958532"><ele>88.14285714285714</ele><time>2026-05-02T07:30:35.999Z</time></trkpt><trkpt lat="44.21171267690437" lon="11.954467499120558"><ele>88.57142857142857</ele><time>2026-05-02T07:30:38.999Z</time></trkpt><trkpt lat="44.21167943041142" lon="11.95436778815479"><ele>89.0</ele><time>2026-05-02T07:30:41.999Z</time></trkpt><trkpt lat="44.21164904566197" lon="11.95428044566764"><ele>89.14285714285714</ele><time>2026-05-02T07:30:44.999Z</time></trkpt><trkpt lat="44.21161937245689" lon="11.954181511645556"><ele>89.28571428571428</ele><time>2026-05-02T07:30:47.999Z</time></trkpt><trkpt lat="44.21159568712735" lon="11.954084951312579"><ele>89.42857142857142</ele><time>2026-05-02T07:30:51Z</time></trkpt><trkpt lat="44.21156978054577" lon="11.953988393848817"><ele>89.57142857142857</ele><time>2026-05-02T07:30:54Z</time></trkpt><trkpt lat="44.211545151981014" lon="11.95389399023811"><ele>89.71428571428572</ele><time>2026-05-02T07:30:57Z</time></trkpt><trkpt lat="44.21151775147473" lon="11.953805414927649"><ele>89.85714285714285</ele><time>2026-05-02T07:31:00Z</time></trkpt><trkpt lat="44.21149099683024" lon="11.95371868670223"><ele>90.0</ele><time>2026-05-02T07:31:03Z</time></trkpt><trkpt lat="44.2114528955121" lon="11.95363879833597"><ele>90.71428571428571</ele><time>2026-05-02T07:31:06Z</time></trkpt><trkpt lat="44.21141358986069" lon="11.95356068813733"><ele>91.42857142857143</ele><time>2026-05-02T07:31:09Z</time></trkpt><trkpt lat="44.21137509128491" lon="11.953482670398675"><ele>92.14285714285714</ele><time>2026-05-02T07:31:12Z</time></trkpt><trkpt lat="44.21133280987144" lon="11.953407645396373"><ele>92.85714285714286</ele><time>2026-05-02T07:31:15Z</time></trkpt><trkpt lat="44.21129425325038" lon="11.953332018060038"><ele>93.57142857142858</ele><time>2026-05-02T07:31:18Z</time></trkpt><trkpt lat="44.21124892971544" lon="11.953262587830084"><ele>94.28571428571429</ele><time>2026-05-02T07:31:21Z</time></trkpt><trkpt lat="44.21120994595107" lon="11.953189636897335"><ele>95.0</ele><time>2026-05-02T07:31:24Z</time></trkpt><trkpt lat="44.21117106237408" lon="11.953115154814654"><ele>95.5</ele><time>2026-05-02T07:31:27Z</time></trkpt><trkpt lat="44.211127514593734" lon="11.953037320933753"><ele>96.0</ele><time>2026-05-02T07:31:30Z</time></trkpt><trkpt lat="44.21108547616106" lon="11.952965031749335"><ele>96.5</ele><time>2026-05-02T07:31:33Z</time></trkpt><trkpt lat="44.2110393824956" lon="11.952869845237771"><ele>97.0</ele><time>2026-05-02T07:31:37Z</time></trkpt><trkpt lat="44.210984933003715" lon="11.952780828511903"><ele>97.49999999999999</ele><time>2026-05-02T07:31:41Z</time></trkpt><trkpt lat="44.21092820984745" lon="11.952694440730646"><ele>98.0</ele><time>2026-05-02T07:31:45Z</time></trkpt><trkpt lat="44.21088129283501" lon="11.952604883794924"><ele>98.14285714285714</ele><time>2026-05-02T07:31:49Z</time></trkpt><trkpt lat="44.210825445001284" lon="11.95253291451156"><ele>98.28571428571428</ele><time>2026-05-02T07:31:53Z</time></trkpt><trkpt lat="44.210778590727294" lon="11.952445369951317"><ele>98.42857142857143</ele><time>2026-05-02T07:31:57Z</time></trkpt><trkpt lat="44.21073070755594" lon="11.952364350915127"><ele>98.57142857142857</ele><time>2026-05-02T07:32:01Z</time></trkpt><trkpt lat="44.210687343786674" lon="11.952286992214908"><ele>98.71428571428571</ele><time>2026-05-02T07:32:05Z</time></trkpt><trkpt lat="44.210637075343556" lon="11.952211583897256"><ele>98.85714285714286</ele><time>2026-05-02T07:32:09Z</time></trkpt><trkpt lat="44.2105935641836" lon="11.952129538083549"><ele>99.0</ele><time>2026-05-02T07:32:13Z</time></trkpt><trkpt lat="44.21053985470135" lon="11.95205064717924"><ele>100.28571428571429</ele><time>2026-05-02T07:32:16.999Z</time></trkpt><trkpt lat="44.21048868670478" lon="11.95197867998806"><ele>101.57142857142857</ele><time>2026-05-02T07:32:20.999Z</time></trkpt><trkpt lat="44.21044359658247" lon="11.95190328921786"><ele>102.85714285714286</ele><time>2026-05-02T07:32:24.999Z</time></trkpt><trkpt lat="44.210391996978856" lon="11.951827341607494"><ele>104.14285714285714</ele><time>2026-05-02T07:32:28.999Z</time></trkpt><trkpt lat="44.21033570234523" lon="11.95177181377703"><ele>105.42857142857142</ele><time>2026-05-02T07:32:32.999Z</time></trkpt><trkpt lat="44.21027478876057" lon="11.951710208407649"><ele>106.71428571428571</ele><time>2026-05-02T07:32:36.999Z</time></trkpt><trkpt lat="44.21020190248117" lon="11.951661966200534"><ele>108.0</ele><time>2026-05-02T07:32:40.999Z</time></trkpt><trkpt lat="44.210127249700285" lon="11.951605982946443"><ele>108.14285714285714</ele><time>2026-05-02T07:32:44.999Z</time></trkpt><trkpt lat="44.21006663594293" lon="11.951572689963578"><ele>108.28571428571428</ele><time>2026-05-02T07:32:47.999Z</time></trkpt><trkpt lat="44.21001079722184" lon="11.951529273363338"><ele>108.42857142857143</ele><time>2026-05-02T07:32:50.999Z</time></trkpt><trkpt lat="44.209946696215965" lon="11.951489483683014"><ele>108.57142857142857</ele><time>2026-05-02T07:32:53.999Z</time></trkpt><trkpt lat="44.20987453649095" lon="11.951435952535567"><ele>108.71428571428572</ele><time>2026-05-02T07:32:58Z</time></trkpt><trkpt lat="44.20982129670943" lon="11.951378125170844"><ele>108.85714285714286</ele><time>2026-05-02T07:33:01Z</time></trkpt><trkpt lat="44.20976042946989" lon="11.951320046000868"><ele>109.0</ele><time>2026-05-02T07:33:04Z</time></trkpt><trkpt lat="44.2097036858631" lon="11.951271469929154"><ele>109.57142857142857</ele><time>2026-05-02T07:33:07Z</time></trkpt><trkpt lat="44.20964989877711" lon="11.951216956585021"><ele>110.14285714285714</ele><time>2026-05-02T07:33:10Z</time></trkpt><trkpt lat="44.209594489283894" lon="11.951169532538033"><ele>110.71428571428572</ele><time>2026-05-02T07:33:13Z</time></trkpt><trkpt lat="44.209530772577835" lon="11.951105886551254"><ele>111.28571428571428</ele><time>2026-05-02T07:33:17Z</time></trkpt><trkpt lat="44.209476327580845" lon="11.951028175718259"><ele>111.85714285714285</ele><time>2026-05-02T07:33:21Z</time></trkpt><trkpt lat="44.20942549877101" lon="11.950946296482178"><ele>112.42857142857143</ele><time>2026-05-02T07:33:25Z</time></trkpt><trkpt lat="44.209375382737555" lon="11.950870118573945"><ele>113.0</ele><time>2026-05-02T07:33:29Z</time></trkpt><trkpt lat="44.20930967730702" lon="11.95082366029014"><ele>113.0</ele><time>2026-05-02T07:33:33Z</time></trkpt><trkpt lat="44.20927329696108" lon="11.950733904194884"><ele>113.0</ele><time>2026-05-02T07:33:37Z</time></trkpt><trkpt lat="44.20922086750186" lon="11.950668332952175"><ele>113.0</ele><time>2026-05-02T07:33:41Z</time></trkpt><trkpt lat="44.20916424960897" lon="11.95060841577447"><ele>113.0</ele><time>2026-05-02T07:33:45Z</time></trkpt><trkpt lat="44.20911278701329" lon="11.95054432878687"><ele>113.0</ele><time>2026-05-02T07:33:49Z</time></trkpt><trkpt lat="44.209048540848165" lon="11.950512511240472"><ele>113.0</ele><time>2026-05-02T07:33:53Z</time></trkpt><trkpt lat="44.20898461528938" lon="11.950454971688512"><ele>113.0</ele><time>2026-05-02T07:33:58Z</time></trkpt><trkpt lat="44.208926713086704" lon="11.950414050122506"><ele>114.28571428571429</ele><time>2026-05-02T07:34:02Z</time></trkpt><trkpt lat="44.20885546018111" lon="11.950370273116528"><ele>115.57142857142856</ele><time>2026-05-02T07:34:07Z</time></trkpt><trkpt lat="44.20878402122568" lon="11.950325055517403"><ele>116.85714285714285</ele><time>2026-05-02T07:34:12Z</time></trkpt><trkpt lat="44.20871457688074" lon="11.950285859866906"><ele>118.14285714285714</ele><time>2026-05-02T07:34:17Z</time></trkpt><trkpt lat="44.20865154352258" lon="11.950257601580292"><ele>119.42857142857142</ele><time>2026-05-02T07:34:21Z</time></trkpt><trkpt lat="44.208584893194704" lon="11.950217662635062"><ele>120.7142857142857</ele><time>2026-05-02T07:34:25.999Z</time></trkpt><trkpt lat="44.208518102832365" lon="11.950171923519875"><ele>121.99999999999999</ele><time>2026-05-02T07:34:30.999Z</time></trkpt><trkpt lat="44.208463918811944" lon="11.950118174232628"><ele>121.99999999999999</ele><time>2026-05-02T07:34:34.999Z</time></trkpt><trkpt lat="44.208407133499904" lon="11.950067444333504"><ele>122.0</ele><time>2026-05-02T07:34:38.999Z</time></trkpt><trkpt lat="44.208348732897946" lon="11.950013455501031"><ele>121.99999999999999</ele><time>2026-05-02T07:34:42.999Z</time></trkpt><trkpt lat="44.20829198703003" lon="11.949945463905435"><ele>121.99999999999999</ele><time>2026-05-02T07:34:46.999Z</time></trkpt><trkpt lat="44.208233220628415" lon="11.949886522520016"><ele>122.0</ele><time>2026-05-02T07:34:50.999Z</time></trkpt><trkpt lat="44.20817493597758" lon="11.94983028231922"><ele>121.99999999999999</ele><time>2026-05-02T07:34:54.999Z</time></trkpt><trkpt lat="44.208123067451815" lon="11.949778822508398"><ele>121.99999999999999</ele><time>2026-05-02T07:34:58.999Z</time></trkpt><trkpt lat="44.20805251919967" lon="11.94973231034044"><ele>123.57142857142856</ele><time>2026-05-02T07:35:03Z</time></trkpt><trkpt lat="44.20798541975327" lon="11.949690366874878"><ele>125.14285714285714</ele><time>2026-05-02T07:35:07Z</time></trkpt><trkpt lat="44.20792509159539" lon="11.949640910079394"><ele>126.71428571428571</ele><time>2026-05-02T07:35:11Z</time></trkpt><trkpt lat="44.20785369070632" lon="11.94961137317251"><ele>128.28571428571428</ele><time>2026-05-02T07:35:16Z</time></trkpt><trkpt lat="44.2077843937728" lon="11.949593773251204"><ele>129.85714285714286</ele><time>2026-05-02T07:35:21Z</time></trkpt><trkpt lat="44.20772289873648" lon="11.949573979752873"><ele>131.42857142857142</ele><time>2026-05-02T07:35:26Z</time></trkpt><trkpt lat="44.20765188012348" lon="11.94955405428747"><ele>133.0</ele><time>2026-05-02T07:35:32Z</time></trkpt><trkpt lat="44.20758605050006" lon="11.949534239178483"><ele>133.0</ele><time>2026-05-02T07:35:37Z</time></trkpt><trkpt lat="44.207523024565596" lon="11.94952457771476"><ele>133.0</ele><time>2026-05-02T07:35:42Z</time></trkpt><trkpt lat="44.20745277106292" lon="11.949494542479371"><ele>133.0</ele><time>2026-05-02T07:35:47Z</time></trkpt><trkpt lat="44.20737724393134" lon="11.949488039069797"><ele>133.0</ele><time>2026-05-02T07:35:52Z</time></trkpt><trkpt lat="44.20730263460356" lon="11.949497382206292"><ele>133.0</ele><time>2026-05-02T07:35:57Z</time></trkpt><trkpt lat="44.20723304025074" lon="11.94954760497692"><ele>133.0</ele><time>2026-05-02T07:36:02Z</time></trkpt><trkpt lat="44.207162647758445" lon="11.949563323451859"><ele>133.0</ele><time>2026-05-02T07:36:07Z</time></trkpt><trkpt lat="44.2071011910604" lon="11.949614166808434"><ele>133.71428571428572</ele><time>2026-05-02T07:36:12Z</time></trkpt><trkpt lat="44.207042915785905" lon="11.949648573102484"><ele>134.42857142857144</ele><time>2026-05-02T07:36:17Z</time></trkpt><trkpt lat="44.20697131680073" lon="11.949654143798158"><ele>135.14285714285714</ele><time>2026-05-02T07:36:22Z</time></trkpt><trkpt lat="44.20690521148092" lon="11.949637244838263"><ele>135.85714285714286</ele><time>2026-05-02T07:36:25.999Z</time></trkpt><trkpt lat="44.20685039481571" lon="11.949557870418586"><ele>136.57142857142858</ele><time>2026-05-02T07:36:29.999Z</time></trkpt><trkpt lat="44.206790551446936" lon="11.949510229207373"><ele>137.28571428571428</ele><time>2026-05-02T07:36:33.999Z</time></trkpt><trkpt lat="44.20673662258155" lon="11.949461879733871"><ele>138.0</ele><time>2026-05-02T07:36:37.999Z</time></trkpt><trkpt lat="44.206681227073105" lon="11.949406864404708"><ele>138.0</ele><time>2026-05-02T07:36:41.999Z</time></trkpt><trkpt lat="44.206624933987484" lon="11.949363879572156"><ele>138.0</ele><time>2026-05-02T07:36:45.999Z</time></trkpt><trkpt lat="44.206564830340966" lon="11.94932555831811"><ele>138.0</ele><time>2026-05-02T07:36:49.999Z</time></trkpt><trkpt lat="44.206530146153476" lon="11.949249978304367"><ele>138.0</ele><time>2026-05-02T07:36:53.999Z</time></trkpt><trkpt lat="44.20647812666086" lon="11.949199573797287"><ele>138.0</ele><time>2026-05-02T07:36:57.999Z</time></trkpt><trkpt lat="44.20641712111871" lon="11.949158401803523"><ele>138.0</ele><time>2026-05-02T07:37:01.999Z</time></trkpt><trkpt lat="44.2063602251834" lon="11.949107721054805"><ele>138.0</ele><time>2026-05-02T07:37:05.999Z</time></trkpt><trkpt lat="44.20630242473547" lon="11.949060796483456"><ele>139.42857142857144</ele><time>2026-05-02T07:37:10Z</time></trkpt><trkpt lat="44.206242181909495" lon="11.949023683829733"><ele>140.85714285714286</ele><time>2026-05-02T07:37:14Z</time></trkpt><trkpt lat="44.206180516243094" lon="11.948976526038024"><ele>142.28571428571428</ele><time>2026-05-02T07:37:18Z</time></trkpt><trkpt lat="44.2061124021245" lon="11.948947539509918"><ele>143.71428571428572</ele><time>2026-05-02T07:37:22Z</time></trkpt><trkpt lat="44.206040463666724" lon="11.948928731672384"><ele>145.14285714285714</ele><time>2026-05-02T07:37:26Z</time></trkpt><trkpt lat="44.20596770258714" lon="11.948883656792372"><ele>146.57142857142858</ele><time>2026-05-02T07:37:31Z</time></trkpt><trkpt lat="44.20589358233945" lon="11.948861922606381"><ele>148.0</ele><time>2026-05-02T07:37:36Z</time></trkpt><trkpt lat="44.20583191500904" lon="11.948841490385224"><ele>148.0</ele><time>2026-05-02T07:37:40Z</time></trkpt><trkpt lat="44.20576908852398" lon="11.948823877233968"><ele>148.0</ele><time>2026-05-02T07:37:44Z</time></trkpt><trkpt lat="44.2056948044613" lon="11.948797953762494"><ele>148.0</ele><time>2026-05-02T07:37:49Z</time></trkpt><trkpt lat="44.205622432253975" lon="11.948768064072425"><ele>148.0</ele><time>2026-05-02T07:37:54Z</time></trkpt><trkpt lat="44.205555063772636" lon="11.948749290516025"><ele>148.0</ele><time>2026-05-02T07:37:58Z</time></trkpt><trkpt lat="44.20549004007031" lon="11.948740950806465"><ele>148.0</ele><time>2026-05-02T07:38:03Z</time></trkpt><trkpt lat="44.20541709581361" lon="11.948761711632034"><ele>148.0</ele><time>2026-05-02T07:38:08Z</time></trkpt><trkpt lat="44.20534729022774" lon="11.948789225897976"><ele>149.71428571428572</ele><time>2026-05-02T07:38:14Z</time></trkpt><trkpt lat="44.205281696890204" lon="11.948790319736403"><ele>151.42857142857142</ele><time>2026-05-02T07:38:20Z</time></trkpt><trkpt lat="44.20521583389843" lon="11.948822908928962"><ele>153.14285714285714</ele><time>2026-05-02T07:38:26Z</time></trkpt><trkpt lat="44.205158718002124" lon="11.948889762012767"><ele>154.85714285714286</ele><time>2026-05-02T07:38:32Z</time></trkpt><trkpt lat="44.20508693886968" lon="11.948890774979219"><ele>156.57142857142858</ele><time>2026-05-02T07:38:37.999Z</time></trkpt><trkpt lat="44.205029991344475" lon="11.948939665320198"><ele>158.28571428571428</ele><time>2026-05-02T07:38:43.999Z</time></trkpt><trkpt lat="44.20497142329341" lon="11.948990941541135"><ele>160.0</ele><time>2026-05-02T07:38:49.999Z</time></trkpt><trkpt lat="44.20492433184371" lon="11.94905186357365"><ele>160.0</ele><time>2026-05-02T07:38:53.999Z</time></trkpt><trkpt lat="44.20488492396198" lon="11.949123438558466"><ele>160.0</ele><time>2026-05-02T07:38:58.999Z</time></trkpt><trkpt lat="44.204850234864836" lon="11.949202918350009"><ele>160.0</ele><time>2026-05-02T07:39:03.999Z</time></trkpt><trkpt lat="44.20482591812972" lon="11.9492960114641"><ele>160.0</ele><time>2026-05-02T07:39:08.999Z</time></trkpt><trkpt lat="44.20477057252847" lon="11.949373438807573"><ele>160.0</ele><time>2026-05-02T07:39:11.999Z</time></trkpt><trkpt lat="44.20471078768625" lon="11.949461491053219"><ele>160.0</ele><time>2026-05-02T07:39:15Z</time></trkpt><trkpt lat="44.20463114064656" lon="11.94949942165714"><ele>160.71428571428572</ele><time>2026-05-02T07:39:18Z</time></trkpt><trkpt lat="44.20455842427093" lon="11.949544740205505"><ele>161.42857142857144</ele><time>2026-05-02T07:39:22Z</time></trkpt><trkpt lat="44.204496051299806" lon="11.949572564855938"><ele>162.14285714285717</ele><time>2026-05-02T07:39:25Z</time></trkpt><trkpt lat="44.20442616484535" lon="11.94958774137804"><ele>162.85714285714286</ele><time>2026-05-02T07:39:29Z</time></trkpt><trkpt lat="44.20435801486813" lon="11.94964060147092"><ele>163.57142857142858</ele><time>2026-05-02T07:39:33Z</time></trkpt><trkpt lat="44.20429494803467" lon="11.949651063655688"><ele>164.2857142857143</ele><time>2026-05-02T07:39:37Z</time></trkpt><trkpt lat="44.20422305833694" lon="11.94968469709194"><ele>165.0</ele><time>2026-05-02T07:39:42Z</time></trkpt><trkpt lat="44.20415079488888" lon="11.949713828827838"><ele>165.00000000000003</ele><time>2026-05-02T07:39:47Z</time></trkpt><trkpt lat="44.204080680429634" lon="11.949758147412485"><ele>165.0</ele><time>2026-05-02T07:39:52Z</time></trkpt><trkpt lat="44.20400459656933" lon="11.949773430986854"><ele>165.0</ele><time>2026-05-02T07:39:56Z</time></trkpt><trkpt lat="44.20394006146706" lon="11.949816993906826"><ele>165.0</ele><time>2026-05-02T07:40:01Z</time></trkpt><trkpt lat="44.20387962564881" lon="11.949859006641754"><ele>165.0</ele><time>2026-05-02T07:40:06Z</time></trkpt><trkpt lat="44.203807643029016" lon="11.949919740586077"><ele>165.00000000000003</ele><time>2026-05-02T07:40:10Z</time></trkpt><trkpt lat="44.20374338704553" lon="11.949954761724209"><ele>165.0</ele><time>2026-05-02T07:40:13Z</time></trkpt><trkpt lat="44.20369173606616" lon="11.950020469811415"><ele>166.33333333333334</ele><time>2026-05-02T07:40:16Z</time></trkpt><trkpt lat="44.20361393284453" lon="11.950092077371012"><ele>167.66666666666666</ele><time>2026-05-02T07:40:19Z</time></trkpt><trkpt lat="44.203549751799336" lon="11.950160166743732"><ele>169.0</ele><time>2026-05-02T07:40:22Z</time></trkpt><trkpt lat="44.203506821893775" lon="11.950225533094164"><ele>170.33333333333331</ele><time>2026-05-02T07:40:25Z</time></trkpt><trkpt lat="44.2034368228434" lon="11.950290603583168"><ele>171.66666666666666</ele><time>2026-05-02T07:40:29Z</time></trkpt><trkpt lat="44.203390491033716" lon="11.950391207111501"><ele>173.0</ele><time>2026-05-02T07:40:32Z</time></trkpt><trkpt lat="44.20332732680822" lon="11.95046731964747"><ele>173.0</ele><time>2026-05-02T07:40:34Z</time></trkpt><trkpt lat="44.20327101585696" lon="11.950547345987859"><ele>173.0</ele><time>2026-05-02T07:40:36Z</time></trkpt><trkpt lat="44.20320436391448" lon="11.950618546781161"><ele>173.0</ele><time>2026-05-02T07:40:38Z</time></trkpt><trkpt lat="44.203155439445936" lon="11.950680327706161"><ele>173.0</ele><time>2026-05-02T07:40:40Z</time></trkpt><trkpt lat="44.20308585100834" lon="11.950743434588658"><ele>173.0</ele><time>2026-05-02T07:40:43Z</time></trkpt><trkpt lat="44.203031105505985" lon="11.950796519300338"><ele>173.0</ele><time>2026-05-02T07:40:46Z</time></trkpt><trkpt lat="44.202972663582756" lon="11.950839103256483"><ele>173.0</ele><time>2026-05-02T07:40:49Z</time></trkpt><trkpt lat="44.202898476934905" lon="11.950892322727725"><ele>172.7142857142857</ele><time>2026-05-02T07:40:52.999Z</time></trkpt><trkpt lat="44.20283930525938" lon="11.950930598672054"><ele>172.42857142857144</ele><time>2026-05-02T07:40:55.999Z</time></trkpt><trkpt lat="44.20277734869201" lon="11.950965091354345"><ele>172.14285714285714</ele><time>2026-05-02T07:40:58.999Z</time></trkpt><trkpt lat="44.202708595018805" lon="11.950993771382974"><ele>171.85714285714283</ele><time>2026-05-02T07:41:01.999Z</time></trkpt><trkpt lat="44.20264179283693" lon="11.951033035404143"><ele>171.57142857142856</ele><time>2026-05-02T07:41:04.999Z</time></trkpt><trkpt lat="44.20256672029324" lon="11.951043815276256"><ele>171.28571428571428</ele><time>2026-05-02T07:41:07.999Z</time></trkpt><trkpt lat="44.20250361981477" lon="11.951074041152603"><ele>171.0</ele><time>2026-05-02T07:41:10.999Z</time></trkpt><trkpt lat="44.202431137947904" lon="11.951104011824986"><ele>170.99999999999997</ele><time>2026-05-02T07:41:14.999Z</time></trkpt><trkpt lat="44.20237097512436" lon="11.951140357738153"><ele>171.0</ele><time>2026-05-02T07:41:18.999Z</time></trkpt><trkpt lat="44.2023016455113" lon="11.951138487518541"><ele>171.0</ele><time>2026-05-02T07:41:23Z</time></trkpt><trkpt lat="44.20222844307049" lon="11.951148963682272"><ele>171.0</ele><time>2026-05-02T07:41:27Z</time></trkpt><trkpt lat="44.20215245962389" lon="11.951135963203233"><ele>171.0</ele><time>2026-05-02T07:41:31Z</time></trkpt><trkpt lat="44.202076482008856" lon="11.951131645604844"><ele>170.99999999999997</ele><time>2026-05-02T07:41:35Z</time></trkpt><trkpt lat="44.201996169984966" lon="11.951128722186963"><ele>171.0</ele><time>2026-05-02T07:41:39Z</time></trkpt><trkpt lat="44.20191607011771" lon="11.951103610099207"><ele>171.83333333333334</ele><time>2026-05-02T07:41:43Z</time></trkpt><trkpt lat="44.20183131986783" lon="11.951103871527938"><ele>172.66666666666666</ele><time>2026-05-02T07:41:47Z</time></trkpt><trkpt lat="44.20176305774609" lon="11.951082799407972"><ele>173.5</ele><time>2026-05-02T07:41:50Z</time></trkpt><trkpt lat="44.20169565307241" lon="11.951082379496553"><ele>174.33333333333331</ele><time>2026-05-02T07:41:53Z</time></trkpt><trkpt lat="44.201623730238886" lon="11.9510554558016"><ele>175.16666666666666</ele><time>2026-05-02T07:41:56Z</time></trkpt><trkpt lat="44.2015489805642" lon="11.951027647150038"><ele>176.0</ele><time>2026-05-02T07:41:59Z</time></trkpt><trkpt lat="44.20146197206362" lon="11.950997576105907"><ele>176.14285714285714</ele><time>2026-05-02T07:42:02Z</time></trkpt><trkpt lat="44.201397772849965" lon="11.950984061485073"><ele>176.28571428571428</ele><time>2026-05-02T07:42:04Z</time></trkpt><trkpt lat="44.2013287236747" lon="11.950977624355886"><ele>176.42857142857144</ele><time>2026-05-02T07:42:06Z</time></trkpt><trkpt lat="44.20125912385179" lon="11.950945179066721"><ele>176.57142857142856</ele><time>2026-05-02T07:42:08Z</time></trkpt><trkpt lat="44.20119062713473" lon="11.95090811392102"><ele>176.7142857142857</ele><time>2026-05-02T07:42:10Z</time></trkpt><trkpt lat="44.20112216157176" lon="11.950887669289358"><ele>176.85714285714286</ele><time>2026-05-02T07:42:12Z</time></trkpt><trkpt lat="44.201046827840806" lon="11.950865703213143"><ele>177.0</ele><time>2026-05-02T07:42:14Z</time></trkpt><trkpt lat="44.20096458600797" lon="11.95085963457824"><ele>177.0</ele><time>2026-05-02T07:42:16Z</time></trkpt><trkpt lat="44.2008607514928" lon="11.95087784440666"><ele>177.0</ele><time>2026-05-02T07:42:18Z</time></trkpt><trkpt lat="44.200762605959895" lon="11.950909981524878"><ele>177.0</ele><time>2026-05-02T07:42:20Z</time></trkpt><trkpt lat="44.200676778628655" lon="11.950963566111218"><ele>177.0</ele><time>2026-05-02T07:42:22Z</time></trkpt><trkpt lat="44.20061579336602" lon="11.950901120928627"><ele>177.0</ele><time>2026-05-02T07:42:24Z</time></trkpt><trkpt lat="44.20056458996454" lon="11.95083902530596"><ele>177.0</ele><time>2026-05-02T07:42:26Z</time></trkpt><trkpt lat="44.200490450437165" lon="11.950804294696143"><ele>178.2857142857143</ele><time>2026-05-02T07:42:29Z</time></trkpt><trkpt lat="44.20041895590586" lon="11.950779052094582"><ele>179.57142857142856</ele><time>2026-05-02T07:42:32Z</time></trkpt><trkpt lat="44.200360218444274" lon="11.950741827654362"><ele>180.85714285714286</ele><time>2026-05-02T07:42:35Z</time></trkpt><trkpt lat="44.200283416162556" lon="11.950702721346644"><ele>182.14285714285717</ele><time>2026-05-02T07:42:39Z</time></trkpt><trkpt lat="44.2002163948747" lon="11.950665227149969"><ele>183.42857142857144</ele><time>2026-05-02T07:42:43Z</time></trkpt><trkpt lat="44.200152183866564" lon="11.95063233480239"><ele>184.71428571428572</ele><time>2026-05-02T07:42:47Z</time></trkpt><trkpt lat="44.20008669167112" lon="11.950599890975157"><ele>186.0</ele><time>2026-05-02T07:42:51Z</time></trkpt><trkpt lat="44.200015657687054" lon="11.9505651906846"><ele>186.00000000000003</ele><time>2026-05-02T07:42:55.999Z</time></trkpt><trkpt lat="44.199954555965604" lon="11.950531349885471"><ele>186.0</ele><time>2026-05-02T07:42:59.999Z</time></trkpt><trkpt lat="44.19988965813777" lon="11.95050743271758"><ele>186.0</ele><time>2026-05-02T07:43:03.999Z</time></trkpt><trkpt lat="44.19982486515772" lon="11.950470552739247"><ele>186.0</ele><time>2026-05-02T07:43:07.999Z</time></trkpt><trkpt lat="44.199767425961404" lon="11.95043007286482"><ele>186.0</ele><time>2026-05-02T07:43:11.999Z</time></trkpt><trkpt lat="44.199704050982064" lon="11.95039848084241"><ele>186.00000000000003</ele><time>2026-05-02T07:43:15.999Z</time></trkpt><trkpt lat="44.19963882517538" lon="11.950363333480427"><ele>186.0</ele><time>2026-05-02T07:43:19.999Z</time></trkpt><trkpt lat="44.19957117502082" lon="11.950330333633651"><ele>186.71428571428572</ele><time>2026-05-02T07:43:23.999Z</time></trkpt><trkpt lat="44.19951009152067" lon="11.950300672753658"><ele>187.42857142857144</ele><time>2026-05-02T07:43:28Z</time></trkpt><trkpt lat="44.199435451139976" lon="11.950277915668282"><ele>188.14285714285717</ele><time>2026-05-02T07:43:32Z</time></trkpt><trkpt lat="44.199364897811016" lon="11.95022758802937"><ele>188.85714285714286</ele><time>2026-05-02T07:43:36Z</time></trkpt><trkpt lat="44.19928927559581" lon="11.950191373114322"><ele>189.57142857142856</ele><time>2026-05-02T07:43:40Z</time></trkpt><trkpt lat="44.199246019193744" lon="11.95012267182252"><ele>190.2857142857143</ele><time>2026-05-02T07:43:43Z</time></trkpt><trkpt lat="44.19919682880296" lon="11.950060125362898"><ele>191.0</ele><time>2026-05-02T07:43:46Z</time></trkpt><trkpt lat="44.19915402615635" lon="11.949991970607352"><ele>191.16666666666666</ele><time>2026-05-02T07:43:49Z</time></trkpt><trkpt lat="44.19911049233735" lon="11.949920300793009"><ele>191.33333333333331</ele><time>2026-05-02T07:43:52Z</time></trkpt><trkpt lat="44.199064533099914" lon="11.949833743332187"><ele>191.5</ele><time>2026-05-02T07:43:55Z</time></trkpt><trkpt lat="44.19901393235256" lon="11.949751080700787"><ele>191.66666666666666</ele><time>2026-05-02T07:43:58Z</time></trkpt><trkpt lat="44.19896188464541" lon="11.949659215505136"><ele>191.83333333333334</ele><time>2026-05-02T07:44:01Z</time></trkpt><trkpt lat="44.198897887234594" lon="11.949574257846027"><ele>192.0</ele><time>2026-05-02T07:44:04Z</time></trkpt><trkpt lat="44.19883649357411" lon="11.949479674188138"><ele>191.99999999999997</ele><time>2026-05-02T07:44:07Z</time></trkpt><trkpt lat="44.19877647422537" lon="11.949433662439793"><ele>192.0</ele><time>2026-05-02T07:44:09Z</time></trkpt><trkpt lat="44.198709982048044" lon="11.949387269941171"><ele>192.0</ele><time>2026-05-02T07:44:11Z</time></trkpt><trkpt lat="44.19864983731836" lon="11.949343013584956"><ele>192.0</ele><time>2026-05-02T07:44:13Z</time></trkpt><trkpt lat="44.19858459752952" lon="11.949286907277573"><ele>192.0</ele><time>2026-05-02T07:44:15Z</time></trkpt><trkpt lat="44.1985096757409" lon="11.949252887137783"><ele>191.99999999999997</ele><time>2026-05-02T07:44:17Z</time></trkpt><trkpt lat="44.19844120569765" lon="11.949198183302416"><ele>192.0</ele><time>2026-05-02T07:44:19Z</time></trkpt><trkpt lat="44.19837647841592" lon="11.949147203626737"><ele>192.0</ele><time>2026-05-02T07:44:21Z</time></trkpt><trkpt lat="44.19829612330242" lon="11.949092286124742"><ele>192.0</ele><time>2026-05-02T07:44:23Z</time></trkpt><trkpt lat="44.19821880270475" lon="11.949042835108527"><ele>192.0</ele><time>2026-05-02T07:44:25Z</time></trkpt><trkpt lat="44.19814512391516" lon="11.94898950968565"><ele>192.0</ele><time>2026-05-02T07:44:27Z</time></trkpt><trkpt lat="44.19806973552606" lon="11.94893537718076"><ele>192.0</ele><time>2026-05-02T07:44:29Z</time></trkpt><trkpt lat="44.19799907131898" lon="11.948889160282972"><ele>192.0</ele><time>2026-05-02T07:44:31Z</time></trkpt><trkpt lat="44.19794045990727" lon="11.948837409738672"><ele>191.5</ele><time>2026-05-02T07:44:33Z</time></trkpt><trkpt lat="44.197861340827224" lon="11.948781704666557"><ele>191.0</ele><time>2026-05-02T07:44:35Z</time></trkpt><trkpt lat="44.19779157043543" lon="11.94874452821661"><ele>190.5</ele><time>2026-05-02T07:44:37Z</time></trkpt><trkpt lat="44.19772937549485" lon="11.948686413038931"><ele>190.0</ele><time>2026-05-02T07:44:39Z</time></trkpt><trkpt lat="44.197645989860646" lon="11.948645878904976"><ele>189.5</ele><time>2026-05-02T07:44:41Z</time></trkpt><trkpt lat="44.1975616277546" lon="11.948606004058934"><ele>189.0</ele><time>2026-05-02T07:44:43Z</time></trkpt><trkpt lat="44.19748385453938" lon="11.948568567601765"><ele>189.0</ele><time>2026-05-02T07:44:45Z</time></trkpt><trkpt lat="44.19740539044267" lon="11.948542607794904"><ele>189.0</ele><time>2026-05-02T07:44:47Z</time></trkpt><trkpt lat="44.1973305686348" lon="11.94851599249041"><ele>189.0</ele><time>2026-05-02T07:44:49Z</time></trkpt><trkpt lat="44.197246179849294" lon="11.948480205978464"><ele>189.0</ele><time>2026-05-02T07:44:51Z</time></trkpt><trkpt lat="44.19716640606801" lon="11.94844250637416"><ele>189.0</ele><time>2026-05-02T07:44:53Z</time></trkpt><trkpt lat="44.19708058320012" lon="11.948416713501564"><ele>189.0</ele><time>2026-05-02T07:44:54.999Z</time></trkpt><trkpt lat="44.19699321762707" lon="11.948385809860865"><ele>189.2</ele><time>2026-05-02T07:44:56.999Z</time></trkpt><trkpt lat="44.196910105870806" lon="11.948350326117561"><ele>189.39999999999998</ele><time>2026-05-02T07:44:58.999Z</time></trkpt><trkpt lat="44.19681919575622" lon="11.948313367312117"><ele>189.6</ele><time>2026-05-02T07:45:00.999Z</time></trkpt><trkpt lat="44.19673774014933" lon="11.948280719978007"><ele>189.8</ele><time>2026-05-02T07:45:02.999Z</time></trkpt><trkpt lat="44.19665143995154" lon="11.948236357041079"><ele>190.0</ele><time>2026-05-02T07:45:04.999Z</time></trkpt><trkpt lat="44.196565537762915" lon="11.948189800623917"><ele>189.4</ele><time>2026-05-02T07:45:06.999Z</time></trkpt><trkpt lat="44.196483023560674" lon="11.948152660839156"><ele>188.8</ele><time>2026-05-02T07:45:08.999Z</time></trkpt><trkpt lat="44.196399909688466" lon="11.948117318041819"><ele>188.2</ele><time>2026-05-02T07:45:10.999Z</time></trkpt><trkpt lat="44.1963241758119" lon="11.948080803231544"><ele>187.6</ele><time>2026-05-02T07:45:12.999Z</time></trkpt><trkpt lat="44.1962343932512" lon="11.948026823872878"><ele>187.0</ele><time>2026-05-02T07:45:14.999Z</time></trkpt><trkpt lat="44.19613527875605" lon="11.947987516702922"><ele>187.0</ele><time>2026-05-02T07:45:16.999Z</time></trkpt><trkpt lat="44.19604241827611" lon="11.947925951889777"><ele>187.0</ele><time>2026-05-02T07:45:18.999Z</time></trkpt><trkpt lat="44.19596863064123" lon="11.947818342626155"><ele>187.0</ele><time>2026-05-02T07:45:20.999Z</time></trkpt><trkpt lat="44.195877451113205" lon="11.947737897884629"><ele>187.0</ele><time>2026-05-02T07:45:22.999Z</time></trkpt><trkpt lat="44.195782575247605" lon="11.947638430190779"><ele>187.0</ele><time>2026-05-02T07:45:24.999Z</time></trkpt><trkpt lat="44.1957331080372" lon="11.947581226317185"><ele>186.39999999999998</ele><time>2026-05-02T07:45:25.999Z</time></trkpt><trkpt lat="44.19568432179598" lon="11.947524107477763"><ele>185.79999999999998</ele><time>2026-05-02T07:45:26.999Z</time></trkpt><trkpt lat="44.19558914308086" lon="11.94741267247946"><ele>185.2</ele><time>2026-05-02T07:45:28.999Z</time></trkpt><trkpt lat="44.19549692250492" lon="11.94730004199554"><ele>184.6</ele><time>2026-05-02T07:45:30.999Z</time></trkpt><trkpt lat="44.195404940161964" lon="11.947187693153786"><ele>184.0</ele><time>2026-05-02T07:45:33Z</time></trkpt><trkpt lat="44.195322162133756" lon="11.947084600407214"><ele>183.79999999999998</ele><time>2026-05-02T07:45:35Z</time></trkpt><trkpt lat="44.195247577345945" lon="11.946991491048909"><ele>183.6</ele><time>2026-05-02T07:45:37Z</time></trkpt><trkpt lat="44.19516565445798" lon="11.946889221106304"><ele>183.4</ele><time>2026-05-02T07:45:39Z</time></trkpt><trkpt lat="44.19509573791643" lon="11.946805073865033"><ele>183.2</ele><time>2026-05-02T07:45:41Z</time></trkpt><trkpt lat="44.19502749917892" lon="11.946722934643198"><ele>183.0</ele><time>2026-05-02T07:45:43Z</time></trkpt><trkpt lat="44.19495975884569" lon="11.946644671318"><ele>183.0</ele><time>2026-05-02T07:45:45Z</time></trkpt><trkpt lat="44.19487742774152" lon="11.946596899727389"><ele>183.0</ele><time>2026-05-02T07:45:47Z</time></trkpt><trkpt lat="44.19481810639469" lon="11.946529913989009"><ele>183.0</ele><time>2026-05-02T07:45:49Z</time></trkpt><trkpt lat="44.19476069219298" lon="11.946458330796997"><ele>183.0</ele><time>2026-05-02T07:45:51Z</time></trkpt><trkpt lat="44.1947024457451" lon="11.946390375901704"><ele>183.0</ele><time>2026-05-02T07:45:53Z</time></trkpt><trkpt lat="44.19464506957433" lon="11.946329660261204"><ele>183.0</ele><time>2026-05-02T07:45:55Z</time></trkpt><trkpt lat="44.19459237763723" lon="11.946270030969119"><ele>183.0</ele><time>2026-05-02T07:45:57Z</time></trkpt><trkpt lat="44.19453887240341" lon="11.946210164035001"><ele>183.0</ele><time>2026-05-02T07:45:59Z</time></trkpt><trkpt lat="44.194466034226" lon="11.946130997108662"><ele>183.0</ele><time>2026-05-02T07:46:02Z</time></trkpt><trkpt lat="44.1944029147237" lon="11.946057131196795"><ele>183.0</ele><time>2026-05-02T07:46:05Z</time></trkpt><trkpt lat="44.19434278353315" lon="11.945977101601958"><ele>183.0</ele><time>2026-05-02T07:46:08Z</time></trkpt><trkpt lat="44.19427180057281" lon="11.945914831095735"><ele>183.0</ele><time>2026-05-02T07:46:11Z</time></trkpt><trkpt lat="44.19421052327282" lon="11.945836529580518"><ele>183.71428571428572</ele><time>2026-05-02T07:46:14Z</time></trkpt><trkpt lat="44.194155269172306" lon="11.945767502531929"><ele>184.42857142857144</ele><time>2026-05-02T07:46:17Z</time></trkpt><trkpt lat="44.194094264914185" lon="11.94569899481397"><ele>185.14285714285714</ele><time>2026-05-02T07:46:20Z</time></trkpt><trkpt lat="44.194036442496945" lon="11.945626254454275"><ele>185.85714285714286</ele><time>2026-05-02T07:46:23Z</time></trkpt><trkpt lat="44.19397213326545" lon="11.945565615530052"><ele>186.57142857142856</ele><time>2026-05-02T07:46:26Z</time></trkpt><trkpt lat="44.193921076438905" lon="11.945499924510024"><ele>187.28571428571428</ele><time>2026-05-02T07:46:29Z</time></trkpt><trkpt lat="44.19387156891599" lon="11.945441150692607"><ele>188.0</ele><time>2026-05-02T07:46:32Z</time></trkpt><trkpt lat="44.19381168589197" lon="11.945373819017387"><ele>188.0</ele><time>2026-05-02T07:46:36Z</time></trkpt><trkpt lat="44.19375445823908" lon="11.945301758554722"><ele>188.0</ele><time>2026-05-02T07:46:40Z</time></trkpt><trkpt lat="44.19370972140204" lon="11.94522252857913"><ele>188.0</ele><time>2026-05-02T07:46:44Z</time></trkpt><trkpt lat="44.193655998653504" lon="11.94515666374097"><ele>188.0</ele><time>2026-05-02T07:46:48Z</time></trkpt><trkpt lat="44.19360257902631" lon="11.9450955081777"><ele>188.0</ele><time>2026-05-02T07:46:52Z</time></trkpt><trkpt lat="44.19355107608133" lon="11.94503556116619"><ele>188.0</ele><time>2026-05-02T07:46:56Z</time></trkpt><trkpt lat="44.193498530361836" lon="11.944968269992431"><ele>188.0</ele><time>2026-05-02T07:46:59.999Z</time></trkpt><trkpt lat="44.19344046526393" lon="11.944893756141354"><ele>188.71428571428572</ele><time>2026-05-02T07:47:04.999Z</time></trkpt><trkpt lat="44.19339134576036" lon="11.944828165481448"><ele>189.42857142857142</ele><time>2026-05-02T07:47:08.999Z</time></trkpt><trkpt lat="44.19334711677857" lon="11.944746849612475"><ele>190.14285714285717</ele><time>2026-05-02T07:47:12.999Z</time></trkpt><trkpt lat="44.19330670023462" lon="11.944662722957144"><ele>190.85714285714286</ele><time>2026-05-02T07:47:16.999Z</time></trkpt><trkpt lat="44.19327422051094" lon="11.944570077051674"><ele>191.57142857142858</ele><time>2026-05-02T07:47:20.999Z</time></trkpt><trkpt lat="44.193239166583865" lon="11.944479319335121"><ele>192.2857142857143</ele><time>2026-05-02T07:47:24.999Z</time></trkpt><trkpt lat="44.19320270067313" lon="11.944391796756406"><ele>193.0</ele><time>2026-05-02T07:47:28.999Z</time></trkpt><trkpt lat="44.19317865849379" lon="11.944287219338666"><ele>192.57142857142858</ele><time>2026-05-02T07:47:32.999Z</time></trkpt><trkpt lat="44.19316126469723" lon="11.944186433928465"><ele>192.14285714285714</ele><time>2026-05-02T07:47:36.999Z</time></trkpt><trkpt lat="44.19315359705801" lon="11.94407487247196"><ele>191.71428571428572</ele><time>2026-05-02T07:47:41Z</time></trkpt><trkpt lat="44.193152515388824" lon="11.943968413220384"><ele>191.28571428571428</ele><time>2026-05-02T07:47:45Z</time></trkpt><trkpt lat="44.19315055843025" lon="11.9438668508221"><ele>190.85714285714286</ele><time>2026-05-02T07:47:49Z</time></trkpt><trkpt lat="44.193140510271576" lon="11.943763495332584"><ele>190.42857142857144</ele><time>2026-05-02T07:47:53Z</time></trkpt><trkpt lat="44.193121433327235" lon="11.943668623875771"><ele>190.0</ele><time>2026-05-02T07:47:57Z</time></trkpt><trkpt lat="44.1931279974858" lon="11.943572646932438"><ele>190.0</ele><time>2026-05-02T07:48:01Z</time></trkpt><trkpt lat="44.19311458000096" lon="11.943478080190056"><ele>190.0</ele><time>2026-05-02T07:48:05Z</time></trkpt><trkpt lat="44.19312427832437" lon="11.943382307176027"><ele>190.0</ele><time>2026-05-02T07:48:09Z</time></trkpt><trkpt lat="44.19312237238429" lon="11.943286894382176"><ele>190.0</ele><time>2026-05-02T07:48:13Z</time></trkpt><trkpt lat="44.19312131875486" lon="11.94319591056422"><ele>190.0</ele><time>2026-05-02T07:48:17Z</time></trkpt><trkpt lat="44.19312569509206" lon="11.943103811789243"><ele>190.0</ele><time>2026-05-02T07:48:21Z</time></trkpt><trkpt lat="44.19312861307449" lon="11.943009373291094"><ele>190.0</ele><time>2026-05-02T07:48:25Z</time></trkpt><trkpt lat="44.19313221099657" lon="11.942912940686673"><ele>190.57142857142858</ele><time>2026-05-02T07:48:29Z</time></trkpt><trkpt lat="44.193136520136" lon="11.942823293704121"><ele>191.14285714285717</ele><time>2026-05-02T07:48:33Z</time></trkpt><trkpt lat="44.19314049291358" lon="11.942734239590195"><ele>191.71428571428572</ele><time>2026-05-02T07:48:37Z</time></trkpt><trkpt lat="44.19313732101262" lon="11.942638637462538"><ele>192.28571428571428</ele><time>2026-05-02T07:48:41Z</time></trkpt><trkpt lat="44.19314196608397" lon="11.942547788425431"><ele>192.85714285714286</ele><time>2026-05-02T07:48:45Z</time></trkpt><trkpt lat="44.1931462216974" lon="11.942457933006246"><ele>193.42857142857142</ele><time>2026-05-02T07:48:49Z</time></trkpt><trkpt lat="44.19314988900865" lon="11.942353085841699"><ele>194.0</ele><time>2026-05-02T07:48:54Z</time></trkpt><trkpt lat="44.19315838080479" lon="11.942264201878967"><ele>195.28571428571428</ele><time>2026-05-02T07:48:58Z</time></trkpt><trkpt lat="44.19316812344317" lon="11.942161797522951"><ele>196.57142857142858</ele><time>2026-05-02T07:49:03Z</time></trkpt><trkpt lat="44.1931919793205" lon="11.942075805535376"><ele>197.85714285714286</ele><time>2026-05-02T07:49:07Z</time></trkpt><trkpt lat="44.193229694564764" lon="11.941985762293458"><ele>199.14285714285714</ele><time>2026-05-02T07:49:11.999Z</time></trkpt><trkpt lat="44.193249003282816" lon="11.941898245201216"><ele>200.42857142857144</ele><time>2026-05-02T07:49:16.999Z</time></trkpt><trkpt lat="44.19327481976133" lon="11.94181751784981"><ele>201.71428571428572</ele><time>2026-05-02T07:49:21.999Z</time></trkpt><trkpt lat="44.19330241902752" lon="11.941732769463398"><ele>203.0</ele><time>2026-05-02T07:49:26.999Z</time></trkpt><trkpt lat="44.19332540098082" lon="11.941643110017083"><ele>204.71428571428572</ele><time>2026-05-02T07:49:31.999Z</time></trkpt><trkpt lat="44.1933606249324" lon="11.941564097381661"><ele>206.42857142857144</ele><time>2026-05-02T07:49:36.999Z</time></trkpt><trkpt lat="44.19339860771552" lon="11.941478867924884"><ele>208.14285714285714</ele><time>2026-05-02T07:49:41.999Z</time></trkpt><trkpt lat="44.1934363280327" lon="11.941400840698707"><ele>209.85714285714286</ele><time>2026-05-02T07:49:47Z</time></trkpt><trkpt lat="44.19347301982522" lon="11.94131421738748"><ele>211.57142857142858</ele><time>2026-05-02T07:49:52Z</time></trkpt><trkpt lat="44.193505387133605" lon="11.941236889019006"><ele>213.28571428571428</ele><time>2026-05-02T07:49:56Z</time></trkpt><trkpt lat="44.19354833500519" lon="11.941154295158082"><ele>215.0</ele><time>2026-05-02T07:50:01Z</time></trkpt><trkpt lat="44.19359425508554" lon="11.941070601930175"><ele>215.0</ele><time>2026-05-02T07:50:06Z</time></trkpt><trkpt lat="44.193624550334974" lon="11.940990335959201"><ele>215.0</ele><time>2026-05-02T07:50:10Z</time></trkpt><trkpt lat="44.193651785266105" lon="11.94090376498973"><ele>215.0</ele><time>2026-05-02T07:50:14Z</time></trkpt><trkpt lat="44.193667094765026" lon="11.940818007379217"><ele>215.0</ele><time>2026-05-02T07:50:18Z</time></trkpt><trkpt lat="44.19368095879641" lon="11.940730321142333"><ele>215.0</ele><time>2026-05-02T07:50:22Z</time></trkpt><trkpt lat="44.19369927740502" lon="11.940643230437969"><ele>215.0</ele><time>2026-05-02T07:50:26Z</time></trkpt><trkpt lat="44.193709927310266" lon="11.94055663390437"><ele>215.0</ele><time>2026-05-02T07:50:30Z</time></trkpt><trkpt lat="44.19371753430198" lon="11.940454230015856"><ele>216.0</ele><time>2026-05-02T07:50:35Z</time></trkpt><trkpt lat="44.1937172660627" lon="11.94034471347143"><ele>217.0</ele><time>2026-05-02T07:50:40Z</time></trkpt><trkpt lat="44.1937122110598" lon="11.940256269118176"><ele>218.0</ele><time>2026-05-02T07:50:44Z</time></trkpt><trkpt lat="44.19370066802815" lon="11.940167889594125"><ele>219.0</ele><time>2026-05-02T07:50:48Z</time></trkpt><trkpt lat="44.19368263882164" lon="11.940081988329739"><ele>220.0</ele><time>2026-05-02T07:50:52Z</time></trkpt><trkpt lat="44.19365707760513" lon="11.939999972753935"><ele>221.0</ele><time>2026-05-02T07:50:56Z</time></trkpt><trkpt lat="44.19363623699888" lon="11.939909589067529"><ele>222.0</ele><time>2026-05-02T07:51:00Z</time></trkpt><trkpt lat="44.193604885986844" lon="11.93981287153534"><ele>222.85714285714283</ele><time>2026-05-02T07:51:04Z</time></trkpt><trkpt lat="44.19357829743646" lon="11.93970970404631"><ele>223.71428571428572</ele><time>2026-05-02T07:51:08Z</time></trkpt><trkpt lat="44.1935513754846" lon="11.939628841310197"><ele>224.57142857142856</ele><time>2026-05-02T07:51:11Z</time></trkpt><trkpt lat="44.19352136146991" lon="11.93954801951549"><ele>225.42857142857142</ele><time>2026-05-02T07:51:14Z</time></trkpt><trkpt lat="44.19349397817985" lon="11.939446939610947"><ele>226.28571428571428</ele><time>2026-05-02T07:51:17Z</time></trkpt><trkpt lat="44.19347188464548" lon="11.93935330134575"><ele>227.14285714285714</ele><time>2026-05-02T07:51:19.999Z</time></trkpt><trkpt lat="44.193460951123264" lon="11.939242158759624"><ele>228.0</ele><time>2026-05-02T07:51:22.999Z</time></trkpt><trkpt lat="44.19344464707861" lon="11.939150119449769"><ele>228.0</ele><time>2026-05-02T07:51:24.999Z</time></trkpt><trkpt lat="44.193446938534734" lon="11.939046285715404"><ele>228.0</ele><time>2026-05-02T07:51:26.999Z</time></trkpt><trkpt lat="44.19345935453624" lon="11.938923860476296"><ele>228.0</ele><time>2026-05-02T07:51:28.999Z</time></trkpt><trkpt lat="44.19346889181227" lon="11.938786332464277"><ele>228.0</ele><time>2026-05-02T07:51:30.999Z</time></trkpt><trkpt lat="44.193475298547675" lon="11.938632424662698"><ele>228.0</ele><time>2026-05-02T07:51:32.999Z</time></trkpt><trkpt lat="44.193476937464304" lon="11.938467578045465"><ele>226.5</ele><time>2026-05-02T07:51:34.999Z</time></trkpt><trkpt lat="44.19348393228955" lon="11.938292911111743"><ele>225.0</ele><time>2026-05-02T07:51:36.999Z</time></trkpt><trkpt lat="44.19348360014795" lon="11.938127300436575"><ele>223.5</ele><time>2026-05-02T07:51:38.999Z</time></trkpt><trkpt lat="44.19349657545095" lon="11.937963999947765"><ele>222.0</ele><time>2026-05-02T07:51:40.999Z</time></trkpt><trkpt lat="44.19349619810333" lon="11.93779524561974"><ele>222.0</ele><time>2026-05-02T07:51:42.999Z</time></trkpt><trkpt lat="44.193494963601516" lon="11.937643116466319"><ele>222.0</ele><time>2026-05-02T07:51:44.999Z</time></trkpt><trkpt lat="44.19349667829129" lon="11.93750503015636"><ele>222.0</ele><time>2026-05-02T07:51:46.999Z</time></trkpt><trkpt lat="44.19349326955121" lon="11.93737309352386"><ele>222.0</ele><time>2026-05-02T07:51:48.999Z</time></trkpt><trkpt lat="44.193496045628386" lon="11.937232997139327"><ele>222.0</ele><time>2026-05-02T07:51:51Z</time></trkpt><trkpt lat="44.193504216297" lon="11.937091726536817"><ele>222.16666666666666</ele><time>2026-05-02T07:51:53Z</time></trkpt><trkpt lat="44.193511455381156" lon="11.936969661410117"><ele>222.33333333333331</ele><time>2026-05-02T07:51:55Z</time></trkpt><trkpt lat="44.193506224859476" lon="11.936843317954462"><ele>222.5</ele><time>2026-05-02T07:51:57Z</time></trkpt><trkpt lat="44.193506455357486" lon="11.936724388271616"><ele>222.66666666666666</ele><time>2026-05-02T07:51:59Z</time></trkpt><trkpt lat="44.19350535737416" lon="11.936620545873371"><ele>222.83333333333331</ele><time>2026-05-02T07:52:01Z</time></trkpt><trkpt lat="44.19351085347743" lon="11.936523707422362"><ele>223.0</ele><time>2026-05-02T07:52:03Z</time></trkpt><trkpt lat="44.19353296102028" lon="11.93641154743507"><ele>223.0</ele><time>2026-05-02T07:52:06Z</time></trkpt><trkpt lat="44.19353066985208" lon="11.936323471906167"><ele>223.0</ele><time>2026-05-02T07:52:09Z</time></trkpt><trkpt lat="44.19338564012804" lon="11.936252500479346"><ele>223.0</ele><time>2026-05-02T07:52:11Z</time></trkpt><trkpt lat="44.193306667322965" lon="11.93623919324413"><ele>223.0</ele><time>2026-05-02T07:52:13Z</time></trkpt><trkpt lat="44.19320244184389" lon="11.936225129205459"><ele>223.0</ele><time>2026-05-02T07:52:15Z</time></trkpt><trkpt lat="44.19309338025286" lon="11.936118549914525"><ele>220.66666666666666</ele><time>2026-05-02T07:52:17Z</time></trkpt><trkpt lat="44.1930353372218" lon="11.936060189411279"><ele>218.33333333333331</ele><time>2026-05-02T07:52:18Z</time></trkpt><trkpt lat="44.1929744101344" lon="11.93599345005195"><ele>216.0</ele><time>2026-05-02T07:52:19Z</time></trkpt><trkpt lat="44.192908500553656" lon="11.935923679783189"><ele>213.66666666666669</ele><time>2026-05-02T07:52:20Z</time></trkpt><trkpt lat="44.192843569341726" lon="11.93585831022285"><ele>211.33333333333334</ele><time>2026-05-02T07:52:21Z</time></trkpt><trkpt lat="44.192785149829554" lon="11.935822207129487"><ele>209.0</ele><time>2026-05-02T07:52:22Z</time></trkpt><trkpt lat="44.19268393263259" lon="11.935758532473704"><ele>209.0</ele><time>2026-05-02T07:52:24Z</time></trkpt><trkpt lat="44.192566192803035" lon="11.935725228504259"><ele>209.0</ele><time>2026-05-02T07:52:26Z</time></trkpt><trkpt lat="44.19245979073627" lon="11.935702593055215"><ele>209.0</ele><time>2026-05-02T07:52:28Z</time></trkpt><trkpt lat="44.19236186795464" lon="11.935687222621656"><ele>209.0</ele><time>2026-05-02T07:52:30Z</time></trkpt><trkpt lat="44.19227137719461" lon="11.93567068233707"><ele>209.0</ele><time>2026-05-02T07:52:32Z</time></trkpt><trkpt lat="44.19217969631276" lon="11.935659357978063"><ele>207.39999999999998</ele><time>2026-05-02T07:52:34Z</time></trkpt><trkpt lat="44.19207429232448" lon="11.935648336958513"><ele>205.8</ele><time>2026-05-02T07:52:36Z</time></trkpt><trkpt lat="44.191948049968126" lon="11.935655428947074"><ele>204.2</ele><time>2026-05-02T07:52:38Z</time></trkpt><trkpt lat="44.19188510836965" lon="11.935643969658823"><ele>202.60000000000002</ele><time>2026-05-02T07:52:39Z</time></trkpt><trkpt lat="44.19179041271154" lon="11.935592744951718"><ele>201.0</ele><time>2026-05-02T07:52:41Z</time></trkpt><trkpt lat="44.19171943658316" lon="11.935493623687094"><ele>201.0</ele><time>2026-05-02T07:52:43Z</time></trkpt><trkpt lat="44.19166084142323" lon="11.93538495867849"><ele>201.0</ele><time>2026-05-02T07:52:45Z</time></trkpt><trkpt lat="44.19162185096281" lon="11.935262223179583"><ele>201.0</ele><time>2026-05-02T07:52:47Z</time></trkpt><trkpt lat="44.191552796698694" lon="11.935205034961035"><ele>201.0</ele><time>2026-05-02T07:52:49Z</time></trkpt><trkpt lat="44.19147514927608" lon="11.93527206581782"><ele>201.0</ele><time>2026-05-02T07:52:51Z</time></trkpt><trkpt lat="44.19141786234917" lon="11.935382628890723"><ele>199.4</ele><time>2026-05-02T07:52:53Z</time></trkpt><trkpt lat="44.19133709654102" lon="11.935547282516985"><ele>197.8</ele><time>2026-05-02T07:52:55Z</time></trkpt><trkpt lat="44.191296485191984" lon="11.935651165816735"><ele>196.20000000000002</ele><time>2026-05-02T07:52:56Z</time></trkpt><trkpt lat="44.19126385753996" lon="11.935744272675475"><ele>194.60000000000002</ele><time>2026-05-02T07:52:57Z</time></trkpt><trkpt lat="44.19123496297583" lon="11.935853699040532"><ele>193.0</ele><time>2026-05-02T07:52:58Z</time></trkpt><trkpt lat="44.191215415634915" lon="11.935938980855013"><ele>191.2857142857143</ele><time>2026-05-02T07:52:59Z</time></trkpt><trkpt lat="44.19119649730368" lon="11.936023838454028"><ele>189.57142857142858</ele><time>2026-05-02T07:53:00Z</time></trkpt><trkpt lat="44.19117850085465" lon="11.936114489499586"><ele>187.85714285714286</ele><time>2026-05-02T07:53:01Z</time></trkpt><trkpt lat="44.191157716094246" lon="11.93619999497786"><ele>186.14285714285717</ele><time>2026-05-02T07:53:02Z</time></trkpt><trkpt lat="44.19106567512795" lon="11.93628032930286"><ele>184.42857142857142</ele><time>2026-05-02T07:53:04Z</time></trkpt><trkpt lat="44.19100430841593" lon="11.936300487626125"><ele>182.71428571428572</ele><time>2026-05-02T07:53:05Z</time></trkpt><trkpt lat="44.19092830334291" lon="11.936321822385201"><ele>181.0</ele><time>2026-05-02T07:53:06Z</time></trkpt><trkpt lat="44.190811431739675" lon="11.93637103240962"><ele>181.0</ele><time>2026-05-02T07:53:08Z</time></trkpt><trkpt lat="44.19074953141749" lon="11.936418564447028"><ele>181.0</ele><time>2026-05-02T07:53:09Z</time></trkpt><trkpt lat="44.19068263157634" lon="11.936468876370338"><ele>181.0</ele><time>2026-05-02T07:53:10Z</time></trkpt><trkpt lat="44.19061483265117" lon="11.936527301217899"><ele>181.0</ele><time>2026-05-02T07:53:11Z</time></trkpt><trkpt lat="44.19053814199369" lon="11.936594701436636"><ele>181.0</ele><time>2026-05-02T07:53:12Z</time></trkpt><trkpt lat="44.190481527134466" lon="11.9366643055601"><ele>181.0</ele><time>2026-05-02T07:53:13Z</time></trkpt><trkpt lat="44.190401868259805" lon="11.936735699729674"><ele>177.0</ele><time>2026-05-02T07:53:14Z</time></trkpt><trkpt lat="44.19032495231012" lon="11.936794808441482"><ele>173.0</ele><time>2026-05-02T07:53:15Z</time></trkpt><trkpt lat="44.190231806485635" lon="11.936871849560292"><ele>169.0</ele><time>2026-05-02T07:53:16Z</time></trkpt><trkpt lat="44.190149567655816" lon="11.936949659393841"><ele>165.0</ele><time>2026-05-02T07:53:17Z</time></trkpt><trkpt lat="44.190057571584966" lon="11.937027803665211"><ele>161.0</ele><time>2026-05-02T07:53:18Z</time></trkpt><trkpt lat="44.18996914896577" lon="11.937105899619787"><ele>161.0</ele><time>2026-05-02T07:53:19Z</time></trkpt><trkpt lat="44.18987285970068" lon="11.937163177665312"><ele>161.0</ele><time>2026-05-02T07:53:20Z</time></trkpt><trkpt lat="44.18978951395294" lon="11.93725952365475"><ele>161.0</ele><time>2026-05-02T07:53:20.999Z</time></trkpt><trkpt lat="44.189699896494126" lon="11.93734152650557"><ele>161.0</ele><time>2026-05-02T07:53:21.999Z</time></trkpt><trkpt lat="44.189628385932885" lon="11.937436357369444"><ele>161.0</ele><time>2026-05-02T07:53:22.999Z</time></trkpt><trkpt lat="44.18956428495953" lon="11.937559382323576"><ele>158.8</ele><time>2026-05-02T07:53:23.999Z</time></trkpt><trkpt lat="44.18949799639769" lon="11.937676570195817"><ele>156.60000000000002</ele><time>2026-05-02T07:53:24.999Z</time></trkpt><trkpt lat="44.18943155717187" lon="11.937795051565582"><ele>154.4</ele><time>2026-05-02T07:53:25.999Z</time></trkpt><trkpt lat="44.189359804451556" lon="11.937913989129758"><ele>152.2</ele><time>2026-05-02T07:53:26.999Z</time></trkpt><trkpt lat="44.18928520349089" lon="11.938028336487633"><ele>150.0</ele><time>2026-05-02T07:53:27.999Z</time></trkpt><trkpt lat="44.18921370818114" lon="11.938118572446479"><ele>150.0</ele><time>2026-05-02T07:53:28.999Z</time></trkpt><trkpt lat="44.18913654786671" lon="11.938169923149424"><ele>150.0</ele><time>2026-05-02T07:53:29.999Z</time></trkpt><trkpt lat="44.189069700606225" lon="11.938204037087148"><ele>150.0</ele><time>2026-05-02T07:53:30.999Z</time></trkpt><trkpt lat="44.188994077861885" lon="11.938209957622076"><ele>150.0</ele><time>2026-05-02T07:53:31.999Z</time></trkpt><trkpt lat="44.18891963332388" lon="11.938219454802582"><ele>150.0</ele><time>2026-05-02T07:53:32.999Z</time></trkpt><trkpt lat="44.18884012714536" lon="11.938224236845503"><ele>150.0</ele><time>2026-05-02T07:53:33.999Z</time></trkpt><trkpt lat="44.18876624826574" lon="11.938227493344701"><ele>150.14285714285714</ele><time>2026-05-02T07:53:34.999Z</time></trkpt><trkpt lat="44.18869186762832" lon="11.938228788419421"><ele>150.28571428571428</ele><time>2026-05-02T07:53:35.999Z</time></trkpt><trkpt lat="44.188623756209736" lon="11.93823089495319"><ele>150.42857142857144</ele><time>2026-05-02T07:53:36.999Z</time></trkpt><trkpt lat="44.18855723738384" lon="11.938232181717538"><ele>150.57142857142856</ele><time>2026-05-02T07:53:37.999Z</time></trkpt><trkpt lat="44.188493776124396" lon="11.93824164242379"><ele>150.71428571428572</ele><time>2026-05-02T07:53:38.999Z</time></trkpt><trkpt lat="44.18842774249695" lon="11.938249257923786"><ele>150.85714285714286</ele><time>2026-05-02T07:53:39.999Z</time></trkpt><trkpt lat="44.188364984758394" lon="11.938229667151653"><ele>151.0</ele><time>2026-05-02T07:53:40.999Z</time></trkpt><trkpt lat="44.188299176230295" lon="11.93823157960555"><ele>151.0</ele><time>2026-05-02T07:53:41.999Z</time></trkpt><trkpt lat="44.18817731832919" lon="11.938247704003004"><ele>151.0</ele><time>2026-05-02T07:53:43.999Z</time></trkpt><trkpt lat="44.18805781782932" lon="11.93827639877499"><ele>151.0</ele><time>2026-05-02T07:53:45.999Z</time></trkpt><trkpt lat="44.18799484539526" lon="11.938293994514034"><ele>151.0</ele><time>2026-05-02T07:53:46.999Z</time></trkpt><trkpt lat="44.187932579859115" lon="11.938327149776173"><ele>151.0</ele><time>2026-05-02T07:53:47.999Z</time></trkpt><trkpt lat="44.187862835647" lon="11.938361916351395"><ele>151.0</ele><time>2026-05-02T07:53:48.999Z</time></trkpt><trkpt lat="44.187797314369774" lon="11.938392913855422"><ele>149.33333333333334</ele><time>2026-05-02T07:53:49.999Z</time></trkpt><trkpt lat="44.18773099211343" lon="11.938425617748946"><ele>147.66666666666669</ele><time>2026-05-02T07:53:50.999Z</time></trkpt><trkpt lat="44.18765610905079" lon="11.938460927346613"><ele>146.0</ele><time>2026-05-02T07:53:51.999Z</time></trkpt><trkpt lat="44.187579768713135" lon="11.938498132316044"><ele>144.33333333333334</ele><time>2026-05-02T07:53:52.999Z</time></trkpt><trkpt lat="44.187502451440466" lon="11.938541122456297"><ele>142.66666666666666</ele><time>2026-05-02T07:53:53.999Z</time></trkpt><trkpt lat="44.187422975208634" lon="11.938577969098073"><ele>141.0</ele><time>2026-05-02T07:53:54.999Z</time></trkpt><trkpt lat="44.18734633728078" lon="11.938616296689526"><ele>141.5</ele><time>2026-05-02T07:53:55.999Z</time></trkpt><trkpt lat="44.187266454703156" lon="11.938655219212363"><ele>142.0</ele><time>2026-05-02T07:53:57Z</time></trkpt><trkpt lat="44.18718737496595" lon="11.938679277876256"><ele>142.5</ele><time>2026-05-02T07:53:58Z</time></trkpt><trkpt lat="44.18710639710848" lon="11.938702844137355"><ele>143.0</ele><time>2026-05-02T07:53:59Z</time></trkpt><trkpt lat="44.18702310285316" lon="11.938708691125969"><ele>143.5</ele><time>2026-05-02T07:54:00Z</time></trkpt><trkpt lat="44.1869475555771" lon="11.938697697765505"><ele>144.0</ele><time>2026-05-02T07:54:01Z</time></trkpt><trkpt lat="44.18687610184008" lon="11.938680006104716"><ele>144.0</ele><time>2026-05-02T07:54:02Z</time></trkpt><trkpt lat="44.186804918021494" lon="11.938667566459351"><ele>144.0</ele><time>2026-05-02T07:54:03Z</time></trkpt><trkpt lat="44.186726952201106" lon="11.938669179542918"><ele>144.0</ele><time>2026-05-02T07:54:04Z</time></trkpt><trkpt lat="44.18660051362138" lon="11.938691027968481"><ele>144.0</ele><time>2026-05-02T07:54:06Z</time></trkpt><trkpt lat="44.18653384628988" lon="11.938738637235623"><ele>144.0</ele><time>2026-05-02T07:54:07Z</time></trkpt><trkpt lat="44.18647213579924" lon="11.93880474959088"><ele>144.0</ele><time>2026-05-02T07:54:08Z</time></trkpt><trkpt lat="44.18641451854961" lon="11.938888776264768"><ele>141.5</ele><time>2026-05-02T07:54:09Z</time></trkpt><trkpt lat="44.186362988208835" lon="11.938993804131696"><ele>139.0</ele><time>2026-05-02T07:54:10Z</time></trkpt><trkpt lat="44.18631933440984" lon="11.939110634573858"><ele>136.5</ele><time>2026-05-02T07:54:11Z</time></trkpt><trkpt lat="44.186291478035486" lon="11.939224402617539"><ele>134.0</ele><time>2026-05-02T07:54:12Z</time></trkpt><trkpt lat="44.18626041257307" lon="11.939334233802033"><ele>131.5</ele><time>2026-05-02T07:54:13Z</time></trkpt><trkpt lat="44.186200991439726" lon="11.939402864379774"><ele>129.0</ele><time>2026-05-02T07:54:14Z</time></trkpt><trkpt lat="44.18614936237779" lon="11.939495044775464"><ele>129.0</ele><time>2026-05-02T07:54:15Z</time></trkpt><trkpt lat="44.18609793500893" lon="11.939595615366095"><ele>129.0</ele><time>2026-05-02T07:54:16Z</time></trkpt><trkpt lat="44.186066118800305" lon="11.939716584246131"><ele>129.0</ele><time>2026-05-02T07:54:17Z</time></trkpt><trkpt lat="44.18600373104635" lon="11.93982146501454"><ele>129.0</ele><time>2026-05-02T07:54:18Z</time></trkpt><trkpt lat="44.185957684878595" lon="11.939916965342906"><ele>129.0</ele><time>2026-05-02T07:54:19Z</time></trkpt><trkpt lat="44.18592145784748" lon="11.94002028072048"><ele>129.0</ele><time>2026-05-02T07:54:20Z</time></trkpt><trkpt lat="44.18585692610106" lon="11.940074433791244"><ele>127.33333333333333</ele><time>2026-05-02T07:54:21Z</time></trkpt><trkpt lat="44.18579165248524" lon="11.940119378868546"><ele>125.66666666666666</ele><time>2026-05-02T07:54:22Z</time></trkpt><trkpt lat="44.18570715022496" lon="11.940171117478693"><ele>124.0</ele><time>2026-05-02T07:54:23Z</time></trkpt><trkpt lat="44.18564158611691" lon="11.940267475479963"><ele>122.33333333333333</ele><time>2026-05-02T07:54:24Z</time></trkpt><trkpt lat="44.1855677000784" lon="11.940352161309741"><ele>120.66666666666666</ele><time>2026-05-02T07:54:25Z</time></trkpt><trkpt lat="44.185518772129406" lon="11.940454045697253"><ele>119.0</ele><time>2026-05-02T07:54:26Z</time></trkpt><trkpt lat="44.18546836698168" lon="11.940567941612604"><ele>118.99999999999999</ele><time>2026-05-02T07:54:27Z</time></trkpt><trkpt lat="44.18541681177382" lon="11.940662013672691"><ele>119.0</ele><time>2026-05-02T07:54:28Z</time></trkpt><trkpt lat="44.18535274860475" lon="11.940746988720315"><ele>119.0</ele><time>2026-05-02T07:54:29Z</time></trkpt><trkpt lat="44.1852877935121" lon="11.940813601124995"><ele>119.0</ele><time>2026-05-02T07:54:30Z</time></trkpt><trkpt lat="44.18521652622212" lon="11.94086944215203"><ele>118.99999999999999</ele><time>2026-05-02T07:54:31Z</time></trkpt><trkpt lat="44.18513225881801" lon="11.940865223442357"><ele>119.0</ele><time>2026-05-02T07:54:32Z</time></trkpt><trkpt lat="44.18505757708088" lon="11.940896763741678"><ele>118.33333333333333</ele><time>2026-05-02T07:54:33Z</time></trkpt><trkpt lat="44.18498078041395" lon="11.940926718878352"><ele>117.66666666666666</ele><time>2026-05-02T07:54:34Z</time></trkpt><trkpt lat="44.184909107230546" lon="11.940980710291571"><ele>117.0</ele><time>2026-05-02T07:54:35Z</time></trkpt><trkpt lat="44.18483893311044" lon="11.941049174496602"><ele>116.33333333333334</ele><time>2026-05-02T07:54:36Z</time></trkpt><trkpt lat="44.18477322987508" lon="11.941118818034148"><ele>115.66666666666667</ele><time>2026-05-02T07:54:37Z</time></trkpt><trkpt lat="44.184709315544055" lon="11.941205117255965"><ele>115.0</ele><time>2026-05-02T07:54:38Z</time></trkpt><trkpt lat="44.18465234289124" lon="11.941299735532281"><ele>114.83333333333334</ele><time>2026-05-02T07:54:39Z</time></trkpt><trkpt lat="44.1846033928871" lon="11.941406175517331"><ele>114.66666666666667</ele><time>2026-05-02T07:54:40Z</time></trkpt><trkpt lat="44.18456641710751" lon="11.941516767092052"><ele>114.5</ele><time>2026-05-02T07:54:41Z</time></trkpt><trkpt lat="44.184526693986214" lon="11.941627438980126"><ele>114.33333333333334</ele><time>2026-05-02T07:54:42Z</time></trkpt><trkpt lat="44.18449026394939" lon="11.941736566429936"><ele>114.16666666666667</ele><time>2026-05-02T07:54:43Z</time></trkpt><trkpt lat="44.1844496026071" lon="11.941845718210928"><ele>114.0</ele><time>2026-05-02T07:54:44Z</time></trkpt><trkpt lat="44.18440540080781" lon="11.941948967445303"><ele>114.66666666666667</ele><time>2026-05-02T07:54:45Z</time></trkpt><trkpt lat="44.18436071303219" lon="11.942048878084403"><ele>115.33333333333334</ele><time>2026-05-02T07:54:46Z</time></trkpt><trkpt lat="44.18432149573257" lon="11.942143944783552"><ele>116.0</ele><time>2026-05-02T07:54:47Z</time></trkpt><trkpt lat="44.18428437674803" lon="11.942235016845817"><ele>116.66666666666667</ele><time>2026-05-02T07:54:48Z</time></trkpt><trkpt lat="44.18424842571323" lon="11.942318884375812"><ele>117.33333333333334</ele><time>2026-05-02T07:54:49Z</time></trkpt><trkpt lat="44.18421265146779" lon="11.942397427003039"><ele>118.0</ele><time>2026-05-02T07:54:50Z</time></trkpt><trkpt lat="44.18415383513516" lon="11.942529618201833"><ele>117.50000000000001</ele><time>2026-05-02T07:54:52Z</time></trkpt><trkpt lat="44.18410131229648" lon="11.942625292269938"><ele>117.0</ele><time>2026-05-02T07:54:54Z</time></trkpt><trkpt lat="44.18402998087885" lon="11.942677302590257"><ele>116.5</ele><time>2026-05-02T07:54:56Z</time></trkpt><trkpt lat="44.183977094543174" lon="11.942737568382418"><ele>116.0</ele><time>2026-05-02T07:54:58Z</time></trkpt><trkpt lat="44.18390824617197" lon="11.942777921519449"><ele>115.50000000000001</ele><time>2026-05-02T07:55:00Z</time></trkpt><trkpt lat="44.18381573207293" lon="11.942794761738016"><ele>115.0</ele><time>2026-05-02T07:55:02Z</time></trkpt><trkpt lat="44.18373862477901" lon="11.94282606272395"><ele>116.00000000000001</ele><time>2026-05-02T07:55:04Z</time></trkpt><trkpt lat="44.1836621002052" lon="11.942857127227692"><ele>117.0</ele><time>2026-05-02T07:55:06Z</time></trkpt><trkpt lat="44.18358078517705" lon="11.942892808177557"><ele>118.0</ele><time>2026-05-02T07:55:08Z</time></trkpt><trkpt lat="44.18348409113291" lon="11.942965989310169"><ele>119.0</ele><time>2026-05-02T07:55:10Z</time></trkpt><trkpt lat="44.183411850834574" lon="11.942985392756453"><ele>120.00000000000001</ele><time>2026-05-02T07:55:11Z</time></trkpt><trkpt lat="44.183347633350316" lon="11.943031135972868"><ele>121.0</ele><time>2026-05-02T07:55:12Z</time></trkpt><trkpt lat="44.18327853344259" lon="11.943089556113165"><ele>121.0</ele><time>2026-05-02T07:55:13Z</time></trkpt><trkpt lat="44.18320039701459" lon="11.943162708054274"><ele>121.0</ele><time>2026-05-02T07:55:14Z</time></trkpt><trkpt lat="44.183126157479826" lon="11.943234937872877"><ele>121.0</ele><time>2026-05-02T07:55:15Z</time></trkpt><trkpt lat="44.183050808735175" lon="11.943308246899244"><ele>121.0</ele><time>2026-05-02T07:55:16Z</time></trkpt><trkpt lat="44.182972821410985" lon="11.943382526988856"><ele>121.0</ele><time>2026-05-02T07:55:17Z</time></trkpt><trkpt lat="44.18289527945669" lon="11.943455531641096"><ele>120.16666666666667</ele><time>2026-05-02T07:55:18Z</time></trkpt><trkpt lat="44.1828164899479" lon="11.943527152948317"><ele>119.33333333333334</ele><time>2026-05-02T07:55:19Z</time></trkpt><trkpt lat="44.182742835562145" lon="11.943589984440232"><ele>118.5</ele><time>2026-05-02T07:55:20Z</time></trkpt><trkpt lat="44.18268751834557" lon="11.943659068427513"><ele>117.66666666666666</ele><time>2026-05-02T07:55:21Z</time></trkpt><trkpt lat="44.18262499311978" lon="11.943698606199405"><ele>116.83333333333333</ele><time>2026-05-02T07:55:22Z</time></trkpt><trkpt lat="44.1825673829941" lon="11.943743092621476"><ele>116.0</ele><time>2026-05-02T07:55:23Z</time></trkpt><trkpt lat="44.182514412500126" lon="11.943809706089747"><ele>115.99999999999999</ele><time>2026-05-02T07:55:24Z</time></trkpt><trkpt lat="44.182456036609175" lon="11.943864899071642"><ele>116.0</ele><time>2026-05-02T07:55:25Z</time></trkpt><trkpt lat="44.182399249570786" lon="11.94392732854042"><ele>116.0</ele><time>2026-05-02T07:55:26Z</time></trkpt><trkpt lat="44.1823230760805" lon="11.943965308571252"><ele>116.0</ele><time>2026-05-02T07:55:27Z</time></trkpt><trkpt lat="44.1822486845225" lon="11.94404085948827"><ele>115.99999999999999</ele><time>2026-05-02T07:55:27.999Z</time></trkpt><trkpt lat="44.18216364001519" lon="11.944103575830324"><ele>116.0</ele><time>2026-05-02T07:55:28.999Z</time></trkpt><trkpt lat="44.18207314754711" lon="11.944162970843127"><ele>113.66666666666666</ele><time>2026-05-02T07:55:29.999Z</time></trkpt><trkpt lat="44.18199417213164" lon="11.944222087699213"><ele>111.33333333333333</ele><time>2026-05-02T07:55:30.999Z</time></trkpt><trkpt lat="44.18192689818181" lon="11.944267501148708"><ele>109.0</ele><time>2026-05-02T07:55:31.999Z</time></trkpt><trkpt lat="44.181865765459335" lon="11.944323282707751"><ele>106.66666666666666</ele><time>2026-05-02T07:55:32.999Z</time></trkpt><trkpt lat="44.181793602906154" lon="11.944365097211985"><ele>104.33333333333333</ele><time>2026-05-02T07:55:33.999Z</time></trkpt><trkpt lat="44.1817169598439" lon="11.944424792095985"><ele>102.0</ele><time>2026-05-02T07:55:34.999Z</time></trkpt><trkpt lat="44.18163845612359" lon="11.944493810555082"><ele>102.0</ele><time>2026-05-02T07:55:35.999Z</time></trkpt><trkpt lat="44.18156125817475" lon="11.944588119310728"><ele>102.0</ele><time>2026-05-02T07:55:36.999Z</time></trkpt><trkpt lat="44.181476199443985" lon="11.944653281705108"><ele>102.0</ele><time>2026-05-02T07:55:37.999Z</time></trkpt><trkpt lat="44.18138867867593" lon="11.944702381391954"><ele>102.0</ele><time>2026-05-02T07:55:38.999Z</time></trkpt><trkpt lat="44.1813170633536" lon="11.944783508720946"><ele>102.0</ele><time>2026-05-02T07:55:39.999Z</time></trkpt><trkpt lat="44.18123121503747" lon="11.944838000341234"><ele>98.39999999999999</ele><time>2026-05-02T07:55:40.999Z</time></trkpt><trkpt lat="44.18115850958485" lon="11.944898039099677"><ele>94.8</ele><time>2026-05-02T07:55:41.999Z</time></trkpt><trkpt lat="44.18108550183695" lon="11.944969830382306"><ele>91.2</ele><time>2026-05-02T07:55:42.999Z</time></trkpt><trkpt lat="44.181007007109606" lon="11.945040295421"><ele>87.6</ele><time>2026-05-02T07:55:43.999Z</time></trkpt><trkpt lat="44.18094512536044" lon="11.945140297744459"><ele>84.0</ele><time>2026-05-02T07:55:44.999Z</time></trkpt><trkpt lat="44.1808852369194" lon="11.945255990024346"><ele>84.0</ele><time>2026-05-02T07:55:45.999Z</time></trkpt><trkpt lat="44.18081872454099" lon="11.945372844488832"><ele>84.0</ele><time>2026-05-02T07:55:46.999Z</time></trkpt><trkpt lat="44.18076542559934" lon="11.9454787061662"><ele>84.0</ele><time>2026-05-02T07:55:47.999Z</time></trkpt><trkpt lat="44.18071667598529" lon="11.945583633977048"><ele>84.0</ele><time>2026-05-02T07:55:48.999Z</time></trkpt><trkpt lat="44.180678317020636" lon="11.945704675455865"><ele>84.0</ele><time>2026-05-02T07:55:49.999Z</time></trkpt><trkpt lat="44.1806381355758" lon="11.945838643362887"><ele>80.8</ele><time>2026-05-02T07:55:50.999Z</time></trkpt><trkpt lat="44.180603947732685" lon="11.945971081177483"><ele>77.60000000000001</ele><time>2026-05-02T07:55:51.999Z</time></trkpt><trkpt lat="44.18056119222134" lon="11.9461098794209"><ele>74.4</ele><time>2026-05-02T07:55:52.999Z</time></trkpt><trkpt lat="44.18052029871756" lon="11.946224735941621"><ele>71.2</ele><time>2026-05-02T07:55:53.999Z</time></trkpt><trkpt lat="44.18049255619384" lon="11.946332111303738"><ele>68.0</ele><time>2026-05-02T07:55:54.999Z</time></trkpt><trkpt lat="44.18046651394943" lon="11.946418586697261"><ele>68.0</ele><time>2026-05-02T07:55:55.999Z</time></trkpt><trkpt lat="44.18045781173591" lon="11.946520838283243"><ele>68.0</ele><time>2026-05-02T07:55:56.999Z</time></trkpt><trkpt lat="44.18044720492029" lon="11.946614555625748"><ele>68.0</ele><time>2026-05-02T07:55:57.999Z</time></trkpt><trkpt lat="44.180439919463" lon="11.946707439603921"><ele>68.0</ele><time>2026-05-02T07:55:58.999Z</time></trkpt><trkpt lat="44.18043239890406" lon="11.946795829453126"><ele>68.0</ele><time>2026-05-02T07:55:59.999Z</time></trkpt><trkpt lat="44.180420979723465" lon="11.946942473209877"><ele>68.0</ele><time>2026-05-02T07:56:01.999Z</time></trkpt><trkpt lat="44.18035637281379" lon="11.947064323221996"><ele>67.83333333333334</ele><time>2026-05-02T07:56:04Z</time></trkpt><trkpt lat="44.18032611243757" lon="11.947213036692172"><ele>67.66666666666667</ele><time>2026-05-02T07:56:06Z</time></trkpt><trkpt lat="44.180317609657926" lon="11.947300320863832"><ele>67.5</ele><time>2026-05-02T07:56:07Z</time></trkpt><trkpt lat="44.18031053905167" lon="11.947388050607861"><ele>67.33333333333333</ele><time>2026-05-02T07:56:08Z</time></trkpt><trkpt lat="44.18030389840709" lon="11.947481867459233"><ele>67.16666666666666</ele><time>2026-05-02T07:56:09Z</time></trkpt><trkpt lat="44.180315815261196" lon="11.947569271582255"><ele>67.0</ele><time>2026-05-02T07:56:10Z</time></trkpt><trkpt lat="44.180302484798" lon="11.94769672326448"><ele>67.0</ele><time>2026-05-02T07:56:12Z</time></trkpt><trkpt lat="44.18030236924993" lon="11.947798500355058"><ele>67.0</ele><time>2026-05-02T07:56:16Z</time></trkpt><trkpt lat="44.18029393937949" lon="11.947907029226435"><ele>67.0</ele><time>2026-05-02T07:56:19Z</time></trkpt><trkpt lat="44.180302750568956" lon="11.948000359745292"><ele>67.0</ele><time>2026-05-02T07:56:21Z</time></trkpt><trkpt lat="44.18031159094968" lon="11.948101770762385"><ele>67.0</ele><time>2026-05-02T07:56:23Z</time></trkpt><trkpt lat="44.1803101226049" lon="11.948207590191881"><ele>67.0</ele><time>2026-05-02T07:56:25Z</time></trkpt><trkpt lat="44.18031540613627" lon="11.948322191967307"><ele>67.33333333333333</ele><time>2026-05-02T07:56:27Z</time></trkpt><trkpt lat="44.18030351006184" lon="11.948429367929435"><ele>67.66666666666666</ele><time>2026-05-02T07:56:29Z</time></trkpt><trkpt lat="44.18028845319488" lon="11.948531584758577"><ele>68.0</ele><time>2026-05-02T07:56:31Z</time></trkpt><trkpt lat="44.1802582000011" lon="11.94863431594557"><ele>68.33333333333333</ele><time>2026-05-02T07:56:33Z</time></trkpt><trkpt lat="44.18024504421558" lon="11.948741359092859"><ele>68.66666666666667</ele><time>2026-05-02T07:56:35Z</time></trkpt><trkpt lat="44.18024153269723" lon="11.948844132657488"><ele>69.0</ele><time>2026-05-02T07:56:37Z</time></trkpt><trkpt lat="44.18022159285518" lon="11.948942708595347"><ele>69.0</ele><time>2026-05-02T07:56:39Z</time></trkpt><trkpt lat="44.180181034019576" lon="11.949033049168229"><ele>69.0</ele><time>2026-05-02T07:56:41Z</time></trkpt><trkpt lat="44.18014518420163" lon="11.949126996699194"><ele>69.0</ele><time>2026-05-02T07:56:43Z</time></trkpt><trkpt lat="44.180107109948494" lon="11.949217160267976"><ele>69.0</ele><time>2026-05-02T07:56:45Z</time></trkpt><trkpt lat="44.18006087543253" lon="11.949302006396424"><ele>69.0</ele><time>2026-05-02T07:56:47Z</time></trkpt><trkpt lat="44.180024198326194" lon="11.949386015257083"><ele>69.0</ele><time>2026-05-02T07:56:49Z</time></trkpt><trkpt lat="44.17997369436455" lon="11.949469897797607"><ele>68.85714285714286</ele><time>2026-05-02T07:56:51Z</time></trkpt><trkpt lat="44.1799151939859" lon="11.94955237589494"><ele>68.71428571428572</ele><time>2026-05-02T07:56:53Z</time></trkpt><trkpt lat="44.17987336671989" lon="11.949629171401039"><ele>68.57142857142857</ele><time>2026-05-02T07:56:55Z</time></trkpt><trkpt lat="44.17990563184757" lon="11.949708225524425"><ele>68.42857142857143</ele><time>2026-05-02T07:56:57Z</time></trkpt><trkpt lat="44.179936375781274" lon="11.949788207832947"><ele>68.28571428571428</ele><time>2026-05-02T07:57:00Z</time></trkpt><trkpt lat="44.17991332141271" lon="11.949894222983664"><ele>68.14285714285714</ele><time>2026-05-02T07:57:03Z</time></trkpt><trkpt lat="44.1798594284517" lon="11.949944774107218"><ele>68.0</ele><time>2026-05-02T07:57:08Z</time></trkpt><trkpt lat="44.17981765262301" lon="11.950036315131383"><ele>67.28571428571428</ele><time>2026-05-02T07:57:14Z</time></trkpt><trkpt lat="44.179768289548925" lon="11.950109601628256"><ele>66.57142857142857</ele><time>2026-05-02T07:57:20Z</time></trkpt><trkpt lat="44.17972237889928" lon="11.950170929057059"><ele>65.85714285714286</ele><time>2026-05-02T07:57:25Z</time></trkpt><trkpt lat="44.179675421896754" lon="11.950258652823587"><ele>65.14285714285714</ele><time>2026-05-02T07:57:30Z</time></trkpt><trkpt lat="44.17961204433124" lon="11.950299134407446"><ele>64.42857142857143</ele><time>2026-05-02T07:57:34.999Z</time></trkpt><trkpt lat="44.17954261258728" lon="11.950303466072508"><ele>63.714285714285715</ele><time>2026-05-02T07:57:38.999Z</time></trkpt><trkpt lat="44.17946677160922" lon="11.950241113806571"><ele>63.0</ele><time>2026-05-02T07:57:41.999Z</time></trkpt><trkpt lat="44.179391693250416" lon="11.950166220585043"><ele>63.0</ele><time>2026-05-02T07:57:44.999Z</time></trkpt><trkpt lat="44.179336252634286" lon="11.950110639882439"><ele>63.0</ele><time>2026-05-02T07:57:46.999Z</time></trkpt><trkpt lat="44.17927521581803" lon="11.950060376401515"><ele>63.0</ele><time>2026-05-02T07:57:48.999Z</time></trkpt><trkpt lat="44.1792129348843" lon="11.949992563445049"><ele>63.0</ele><time>2026-05-02T07:57:50.999Z</time></trkpt><trkpt lat="44.17914159764099" lon="11.94993270722066"><ele>63.0</ele><time>2026-05-02T07:57:52.999Z</time></trkpt><trkpt lat="44.17907994574124" lon="11.949881340151936"><ele>63.0</ele><time>2026-05-02T07:57:54.999Z</time></trkpt><trkpt lat="44.179021218038" lon="11.94983188582122"><ele>63.0</ele><time>2026-05-02T07:57:56.999Z</time></trkpt><trkpt lat="44.17894280080527" lon="11.949832057843713"><ele>63.166666666666664</ele><time>2026-05-02T07:57:59.999Z</time></trkpt><trkpt lat="44.178882614638034" lon="11.94989738515959"><ele>63.33333333333333</ele><time>2026-05-02T07:58:02.999Z</time></trkpt><trkpt lat="44.178899629219934" lon="11.949995833255825"><ele>63.5</ele><time>2026-05-02T07:58:04.999Z</time></trkpt><trkpt lat="44.1789271977159" lon="11.950099060365162"><ele>63.666666666666664</ele><time>2026-05-02T07:58:06.999Z</time></trkpt><trkpt lat="44.17893172621505" lon="11.950227708563157"><ele>63.83333333333333</ele><time>2026-05-02T07:58:09Z</time></trkpt><trkpt lat="44.17894440053656" lon="11.950340797377837"><ele>64.0</ele><time>2026-05-02T07:58:11Z</time></trkpt><trkpt lat="44.178968676294915" lon="11.950440508369768"><ele>63.99999999999999</ele><time>2026-05-02T07:58:13Z</time></trkpt><trkpt lat="44.17899774393061" lon="11.950542383698666"><ele>64.0</ele><time>2026-05-02T07:58:15Z</time></trkpt><trkpt lat="44.179029445813725" lon="11.950653332613891"><ele>64.0</ele><time>2026-05-02T07:58:17Z</time></trkpt><trkpt lat="44.17905713404493" lon="11.950753946160079"><ele>64.0</ele><time>2026-05-02T07:58:19Z</time></trkpt><trkpt lat="44.17907171652358" lon="11.950856246189806"><ele>63.99999999999999</ele><time>2026-05-02T07:58:21Z</time></trkpt><trkpt lat="44.17908235603228" lon="11.95095235298296"><ele>64.0</ele><time>2026-05-02T07:58:23Z</time></trkpt><trkpt lat="44.179068163347935" lon="11.951055936888606"><ele>64.0</ele><time>2026-05-02T07:58:26Z</time></trkpt><trkpt lat="44.17904870612588" lon="11.951141672080746"><ele>63.99999999999999</ele><time>2026-05-02T07:58:33Z</time></trkpt><trkpt lat="44.17897893759177" lon="11.95115839048159"><ele>64.0</ele><time>2026-05-02T07:58:37Z</time></trkpt><trkpt lat="44.178916591609024" lon="11.95108610881751"><ele>64.0</ele><time>2026-05-02T07:58:39Z</time></trkpt><trkpt lat="44.17885588955484" lon="11.951044402081314"><ele>63.99999999999999</ele><time>2026-05-02T07:58:41Z</time></trkpt><trkpt lat="44.17879922056427" lon="11.950993130173995"><ele>64.0</ele><time>2026-05-02T07:58:45Z</time></trkpt><trkpt lat="44.178874346478985" lon="11.951006352339641"><ele>64.0</ele><time>2026-05-02T07:58:53Z</time></trkpt><trkpt lat="44.17893327087529" lon="11.951076687179281"><ele>63.99999999999999</ele><time>2026-05-02T07:58:55Z</time></trkpt><trkpt lat="44.17899094423917" lon="11.95113631582601"><ele>64.0</ele><time>2026-05-02T07:58:57Z</time></trkpt><trkpt lat="44.17905022286985" lon="11.951201202663185"><ele>64.0</ele><time>2026-05-02T07:58:59Z</time></trkpt><trkpt lat="44.179114174892604" lon="11.951229621633441"><ele>64.0</ele><time>2026-05-02T07:59:01Z</time></trkpt><trkpt lat="44.17915770550538" lon="11.951315480047612"><ele>63.99999999999999</ele><time>2026-05-02T07:59:04Z</time></trkpt><trkpt lat="44.179208135774196" lon="11.951368818718679"><ele>64.0</ele><time>2026-05-02T07:59:09Z</time></trkpt><trkpt lat="44.179155685583105" lon="11.951484478360625"><ele>63.99999999999999</ele><time>2026-05-02T07:59:12Z</time></trkpt><trkpt lat="44.17913589148925" lon="11.951580610952059"><ele>64.0</ele><time>2026-05-02T07:59:14Z</time></trkpt><trkpt lat="44.17910719933884" lon="11.951675391630298"><ele>64.0</ele><time>2026-05-02T07:59:16Z</time></trkpt><trkpt lat="44.17907254712166" lon="11.951782816204668"><ele>64.0</ele><time>2026-05-02T07:59:18Z</time></trkpt><trkpt lat="44.179036060157415" lon="11.951895850775383"><ele>63.99999999999999</ele><time>2026-05-02T07:59:20Z</time></trkpt><trkpt lat="44.17898048975049" lon="11.95198595028372"><ele>64.0</ele><time>2026-05-02T07:59:22Z</time></trkpt><trkpt lat="44.17889782907259" lon="11.952078954804701"><ele>63.6</ele><time>2026-05-02T07:59:24Z</time></trkpt><trkpt lat="44.178804525786184" lon="11.952106090878441"><ele>63.2</ele><time>2026-05-02T07:59:26Z</time></trkpt><trkpt lat="44.17868540384283" lon="11.952095348120855"><ele>62.800000000000004</ele><time>2026-05-02T07:59:28Z</time></trkpt><trkpt lat="44.17858016180238" lon="11.952189593540375"><ele>62.400000000000006</ele><time>2026-05-02T07:59:30Z</time></trkpt><trkpt lat="44.178548286798446" lon="11.952295594297631"><ele>62.0</ele><time>2026-05-02T07:59:31Z</time></trkpt><trkpt lat="44.17846614166573" lon="11.952362832680002"><ele>62.0</ele><time>2026-05-02T07:59:32Z</time></trkpt><trkpt lat="44.178336447108244" lon="11.952319028625597"><ele>62.0</ele><time>2026-05-02T07:59:34Z</time></trkpt><trkpt lat="44.178255354832075" lon="11.95240145753022"><ele>62.0</ele><time>2026-05-02T07:59:36Z</time></trkpt><trkpt lat="44.178180483421606" lon="11.952471263517472"><ele>62.0</ele><time>2026-05-02T07:59:38Z</time></trkpt><trkpt lat="44.17813077700929" lon="11.952561778357326"><ele>62.0</ele><time>2026-05-02T07:59:42Z</time></trkpt><trkpt lat="44.17809399576978" lon="11.952655858537462"><ele>61.714285714285715</ele><time>2026-05-02T07:59:44.999Z</time></trkpt><trkpt lat="44.178049380995816" lon="11.952737019670142"><ele>61.42857142857143</ele><time>2026-05-02T07:59:48.999Z</time></trkpt><trkpt lat="44.178003437899946" lon="11.952815607572433"><ele>61.142857142857146</ele><time>2026-05-02T07:59:51.999Z</time></trkpt><trkpt lat="44.177926047908954" lon="11.952857103685435"><ele>60.85714285714286</ele><time>2026-05-02T07:59:54.999Z</time></trkpt><trkpt lat="44.177863660328924" lon="11.952817980914343"><ele>60.57142857142857</ele><time>2026-05-02T07:59:56.999Z</time></trkpt><trkpt lat="44.177815402293625" lon="11.952759061518194"><ele>60.28571428571429</ele><time>2026-05-02T07:59:58.999Z</time></trkpt><trkpt lat="44.177758948209934" lon="11.952704596843654"><ele>60.0</ele><time>2026-05-02T08:00:00.999Z</time></trkpt><trkpt lat="44.17769787472358" lon="11.95265814335051"><ele>60.0</ele><time>2026-05-02T08:00:02.999Z</time></trkpt><trkpt lat="44.17764298441548" lon="11.952586151748381"><ele>60.0</ele><time>2026-05-02T08:00:05.999Z</time></trkpt><trkpt lat="44.177583068106145" lon="11.95254946265301"><ele>60.0</ele><time>2026-05-02T08:00:07.999Z</time></trkpt><trkpt lat="44.17750995883" lon="11.95249575189936"><ele>60.0</ele><time>2026-05-02T08:00:10.999Z</time></trkpt><trkpt lat="44.177448428409875" lon="11.952444571604696"><ele>60.0</ele><time>2026-05-02T08:00:13.999Z</time></trkpt><trkpt lat="44.17738724989441" lon="11.952403668457308"><ele>60.0</ele><time>2026-05-02T08:00:19Z</time></trkpt><trkpt lat="44.17732519649033" lon="11.952419484797941"><ele>60.0</ele><time>2026-05-02T08:00:41Z</time></trkpt><trkpt lat="44.17724018984519" lon="11.952349868924799"><ele>60.166666666666664</ele><time>2026-05-02T08:00:44Z</time></trkpt><trkpt lat="44.17718128856168" lon="11.95228565924272"><ele>60.33333333333333</ele><time>2026-05-02T08:00:46Z</time></trkpt><trkpt lat="44.17711804377642" lon="11.95224003302671"><ele>60.5</ele><time>2026-05-02T08:00:48Z</time></trkpt><trkpt lat="44.177061110630916" lon="11.952189618306194"><ele>60.666666666666664</ele><time>2026-05-02T08:00:50Z</time></trkpt><trkpt lat="44.176988861327644" lon="11.952120593923443"><ele>60.83333333333333</ele><time>2026-05-02T08:00:52Z</time></trkpt><trkpt lat="44.17691513654929" lon="11.952059484921131"><ele>61.0</ele><time>2026-05-02T08:00:54Z</time></trkpt><trkpt lat="44.17684819160162" lon="11.951999078537122"><ele>60.99999999999999</ele><time>2026-05-02T08:00:56Z</time></trkpt><trkpt lat="44.176773040775394" lon="11.951939430703185"><ele>61.0</ele><time>2026-05-02T08:00:58Z</time></trkpt><trkpt lat="44.17670264817251" lon="11.95187419307417"><ele>61.0</ele><time>2026-05-02T08:01:00Z</time></trkpt><trkpt lat="44.17661976911863" lon="11.951808913969334"><ele>61.0</ele><time>2026-05-02T08:01:02Z</time></trkpt><trkpt lat="44.17654200429551" lon="11.951746370665889"><ele>60.99999999999999</ele><time>2026-05-02T08:01:04Z</time></trkpt><trkpt lat="44.176463830508716" lon="11.951677379260099"><ele>61.0</ele><time>2026-05-02T08:01:06Z</time></trkpt><trkpt lat="44.17638231187639" lon="11.951598093683355"><ele>61.8</ele><time>2026-05-02T08:01:08Z</time></trkpt><trkpt lat="44.17629375336153" lon="11.9515191912809"><ele>62.599999999999994</ele><time>2026-05-02T08:01:10Z</time></trkpt><trkpt lat="44.17621180884745" lon="11.951442716982283"><ele>63.4</ele><time>2026-05-02T08:01:12Z</time></trkpt><trkpt lat="44.1761292106155" lon="11.95136844195328"><ele>64.2</ele><time>2026-05-02T08:01:14Z</time></trkpt><trkpt lat="44.176047667131165" lon="11.951301668786465"><ele>65.0</ele><time>2026-05-02T08:01:16Z</time></trkpt><trkpt lat="44.17597630286739" lon="11.951231593717708"><ele>65.0</ele><time>2026-05-02T08:01:18Z</time></trkpt><trkpt lat="44.17589054256139" lon="11.951162739928348"><ele>65.0</ele><time>2026-05-02T08:01:20Z</time></trkpt><trkpt lat="44.17581740091456" lon="11.951097474587932"><ele>65.0</ele><time>2026-05-02T08:01:22Z</time></trkpt><trkpt lat="44.17574351935266" lon="11.951022688093385"><ele>65.0</ele><time>2026-05-02T08:01:24Z</time></trkpt><trkpt lat="44.17566676387146" lon="11.950953118015503"><ele>65.0</ele><time>2026-05-02T08:01:26Z</time></trkpt><trkpt lat="44.17558773304403" lon="11.950904822607226"><ele>65.16666666666667</ele><time>2026-05-02T08:01:28Z</time></trkpt><trkpt lat="44.175517637122454" lon="11.95083830182394"><ele>65.33333333333334</ele><time>2026-05-02T08:01:30Z</time></trkpt><trkpt lat="44.17545131273498" lon="11.950776920250718"><ele>65.5</ele><time>2026-05-02T08:01:32Z</time></trkpt><trkpt lat="44.17538522059253" lon="11.950722697574575"><ele>65.66666666666667</ele><time>2026-05-02T08:01:34Z</time></trkpt><trkpt lat="44.17532273288547" lon="11.950683914801045"><ele>65.83333333333333</ele><time>2026-05-02T08:01:36Z</time></trkpt><trkpt lat="44.17525672009603" lon="11.950630249327592"><ele>66.0</ele><time>2026-05-02T08:01:38Z</time></trkpt><trkpt lat="44.17517948106718" lon="11.950575848161241"><ele>66.0</ele><time>2026-05-02T08:01:40Z</time></trkpt><trkpt lat="44.17511557972512" lon="11.950534368468139"><ele>66.0</ele><time>2026-05-02T08:01:42Z</time></trkpt><trkpt lat="44.175045886496626" lon="11.950481244477041"><ele>66.0</ele><time>2026-05-02T08:01:44Z</time></trkpt><trkpt lat="44.17497972136486" lon="11.950407592820486"><ele>66.0</ele><time>2026-05-02T08:01:46Z</time></trkpt><trkpt lat="44.17492744278067" lon="11.950346838399005"><ele>66.0</ele><time>2026-05-02T08:01:48Z</time></trkpt><trkpt lat="44.17485683049653" lon="11.950302729135041"><ele>66.0</ele><time>2026-05-02T08:01:50Z</time></trkpt><trkpt lat="44.174800183288326" lon="11.950245034138447"><ele>65.85714285714286</ele><time>2026-05-02T08:01:52Z</time></trkpt><trkpt lat="44.174728169339566" lon="11.950181110288261"><ele>65.71428571428572</ele><time>2026-05-02T08:01:54Z</time></trkpt><trkpt lat="44.17466581207453" lon="11.950132368044406"><ele>65.57142857142858</ele><time>2026-05-02T08:01:56Z</time></trkpt><trkpt lat="44.17460510125709" lon="11.950080674983228"><ele>65.42857142857143</ele><time>2026-05-02T08:01:57.999Z</time></trkpt><trkpt lat="44.17454883226218" lon="11.950017389876725"><ele>65.28571428571429</ele><time>2026-05-02T08:01:59.999Z</time></trkpt><trkpt lat="44.174486437155934" lon="11.949961663283068"><ele>65.14285714285715</ele><time>2026-05-02T08:02:01.999Z</time></trkpt><trkpt lat="44.174430089286965" lon="11.949912410981348"><ele>65.0</ele><time>2026-05-02T08:02:03.999Z</time></trkpt><trkpt lat="44.174364290202924" lon="11.949856537724282"><ele>65.66666666666667</ele><time>2026-05-02T08:02:05.999Z</time></trkpt><trkpt lat="44.174294316105964" lon="11.949804274950253"><ele>66.33333333333334</ele><time>2026-05-02T08:02:07.999Z</time></trkpt><trkpt lat="44.17422553808364" lon="11.949757044313452"><ele>67.0</ele><time>2026-05-02T08:02:09.999Z</time></trkpt><trkpt lat="44.174165532159265" lon="11.949701878016144"><ele>67.66666666666667</ele><time>2026-05-02T08:02:11.999Z</time></trkpt><trkpt lat="44.174095908808866" lon="11.949638049528456"><ele>68.33333333333333</ele><time>2026-05-02T08:02:13.999Z</time></trkpt><trkpt lat="44.17403858785153" lon="11.949588239257654"><ele>69.0</ele><time>2026-05-02T08:02:15.999Z</time></trkpt><trkpt lat="44.17398002242648" lon="11.94953024027722"><ele>69.0</ele><time>2026-05-02T08:02:17.999Z</time></trkpt><trkpt lat="44.17391701880317" lon="11.949480578032647"><ele>69.0</ele><time>2026-05-02T08:02:19.999Z</time></trkpt><trkpt lat="44.17386376259018" lon="11.949414071244163"><ele>69.0</ele><time>2026-05-02T08:02:22Z</time></trkpt><trkpt lat="44.17379007363794" lon="11.94937376626614"><ele>69.0</ele><time>2026-05-02T08:02:24Z</time></trkpt><trkpt lat="44.17372945446475" lon="11.949319728071687"><ele>69.0</ele><time>2026-05-02T08:02:26Z</time></trkpt><trkpt lat="44.173676111735865" lon="11.949259634940619"><ele>69.0</ele><time>2026-05-02T08:02:28Z</time></trkpt><trkpt lat="44.17361337211159" lon="11.949210503626606"><ele>69.0</ele><time>2026-05-02T08:02:30Z</time></trkpt><trkpt lat="44.173552067686074" lon="11.949170783155884"><ele>69.14285714285714</ele><time>2026-05-02T08:02:32Z</time></trkpt><trkpt lat="44.17349155907543" lon="11.949131714691195"><ele>69.28571428571429</ele><time>2026-05-02T08:02:34Z</time></trkpt><trkpt lat="44.173427342564764" lon="11.949074527417087"><ele>69.42857142857143</ele><time>2026-05-02T08:02:36Z</time></trkpt><trkpt lat="44.17336395404134" lon="11.949021526892107"><ele>69.57142857142857</ele><time>2026-05-02T08:02:38Z</time></trkpt><trkpt lat="44.1733091956697" lon="11.948956799470928"><ele>69.71428571428572</ele><time>2026-05-02T08:02:40Z</time></trkpt><trkpt lat="44.17324761186799" lon="11.948897738082644"><ele>69.85714285714286</ele><time>2026-05-02T08:02:42Z</time></trkpt><trkpt lat="44.17318196049954" lon="11.948847689933384"><ele>70.0</ele><time>2026-05-02T08:02:44Z</time></trkpt><trkpt lat="44.17312004412198" lon="11.948798682724979"><ele>70.16666666666666</ele><time>2026-05-02T08:02:46Z</time></trkpt><trkpt lat="44.17305877147082" lon="11.948730519829596"><ele>70.33333333333333</ele><time>2026-05-02T08:02:48Z</time></trkpt><trkpt lat="44.172991948356255" lon="11.94867705828653"><ele>70.5</ele><time>2026-05-02T08:02:50Z</time></trkpt><trkpt lat="44.17293018852289" lon="11.94862068948555"><ele>70.66666666666667</ele><time>2026-05-02T08:02:52Z</time></trkpt><trkpt lat="44.172876457689696" lon="11.948555941921578"><ele>70.83333333333334</ele><time>2026-05-02T08:02:54Z</time></trkpt><trkpt lat="44.172819435995294" lon="11.948485301644999"><ele>71.0</ele><time>2026-05-02T08:02:56Z</time></trkpt><trkpt lat="44.17275705117839" lon="11.948423271218108"><ele>71.16666666666667</ele><time>2026-05-02T08:02:58Z</time></trkpt><trkpt lat="44.1726911270532" lon="11.948364516301849"><ele>71.33333333333334</ele><time>2026-05-02T08:03:00Z</time></trkpt><trkpt lat="44.17262325060271" lon="11.948308476823396"><ele>71.5</ele><time>2026-05-02T08:03:02Z</time></trkpt><trkpt lat="44.17255965996998" lon="11.948263293561322"><ele>71.66666666666667</ele><time>2026-05-02T08:03:04Z</time></trkpt><trkpt lat="44.172493638995725" lon="11.948212877393107"><ele>71.83333333333333</ele><time>2026-05-02T08:03:06Z</time></trkpt><trkpt lat="44.172432866359074" lon="11.94816293764527"><ele>72.0</ele><time>2026-05-02T08:03:08Z</time></trkpt><trkpt lat="44.1723652080865" lon="11.948110905873165"><ele>72.33333333333333</ele><time>2026-05-02T08:03:10Z</time></trkpt><trkpt lat="44.17230077598157" lon="11.94805945066439"><ele>72.66666666666667</ele><time>2026-05-02T08:03:12Z</time></trkpt><trkpt lat="44.172236841027804" lon="11.948010781376373"><ele>73.0</ele><time>2026-05-02T08:03:14Z</time></trkpt><trkpt lat="44.17217160670248" lon="11.94795449048023"><ele>73.33333333333334</ele><time>2026-05-02T08:03:16Z</time></trkpt><trkpt lat="44.17210743535488" lon="11.94790034606276"><ele>73.66666666666667</ele><time>2026-05-02T08:03:18Z</time></trkpt><trkpt lat="44.17203881666611" lon="11.947849620904377"><ele>74.0</ele><time>2026-05-02T08:03:20Z</time></trkpt><trkpt lat="44.17197037902627" lon="11.947797604390365"><ele>74.0</ele><time>2026-05-02T08:03:22Z</time></trkpt><trkpt lat="44.171900084571654" lon="11.947741387354426"><ele>74.0</ele><time>2026-05-02T08:03:24Z</time></trkpt><trkpt lat="44.17182957740577" lon="11.947682616826077"><ele>74.0</ele><time>2026-05-02T08:03:26Z</time></trkpt><trkpt lat="44.171769157721506" lon="11.94762841461458"><ele>74.0</ele><time>2026-05-02T08:03:28Z</time></trkpt><trkpt lat="44.171707878542946" lon="11.947566924667408"><ele>74.0</ele><time>2026-05-02T08:03:30Z</time></trkpt><trkpt lat="44.171648156039545" lon="11.947512987319564"><ele>74.0</ele><time>2026-05-02T08:03:32Z</time></trkpt><trkpt lat="44.17159517625797" lon="11.947464457870886"><ele>74.0</ele><time>2026-05-02T08:03:34Z</time></trkpt><trkpt lat="44.17152165109421" lon="11.947412269345474"><ele>74.0</ele><time>2026-05-02T08:03:37Z</time></trkpt><trkpt lat="44.17145544442322" lon="11.947318556149964"><ele>74.0</ele><time>2026-05-02T08:03:40Z</time></trkpt><trkpt lat="44.17138725552348" lon="11.947259169247864"><ele>74.0</ele><time>2026-05-02T08:03:43Z</time></trkpt><trkpt lat="44.17130600141116" lon="11.947255850163064"><ele>74.0</ele><time>2026-05-02T08:03:46Z</time></trkpt><trkpt lat="44.17124498163736" lon="11.947304035328479"><ele>74.0</ele><time>2026-05-02T08:03:47.999Z</time></trkpt><trkpt lat="44.17117762005993" lon="11.94735629740021"><ele>74.0</ele><time>2026-05-02T08:03:49.999Z</time></trkpt><trkpt lat="44.1711173071952" lon="11.94743035079433"><ele>74.0</ele><time>2026-05-02T08:03:51.999Z</time></trkpt><trkpt lat="44.171030191706635" lon="11.947437545772912"><ele>74.0</ele><time>2026-05-02T08:03:53.999Z</time></trkpt><trkpt lat="44.17095057069695" lon="11.9474278966269"><ele>74.0</ele><time>2026-05-02T08:03:55.999Z</time></trkpt><trkpt lat="44.170849071502296" lon="11.94742766412009"><ele>74.0</ele><time>2026-05-02T08:03:57.999Z</time></trkpt><trkpt lat="44.17076552381698" lon="11.947383599539993"><ele>74.0</ele><time>2026-05-02T08:03:59.999Z</time></trkpt><trkpt lat="44.170704351266735" lon="11.947267252274507"><ele>71.75</ele><time>2026-05-02T08:04:01.999Z</time></trkpt><trkpt lat="44.17065357193295" lon="11.947132193393232"><ele>69.5</ele><time>2026-05-02T08:04:03.999Z</time></trkpt><trkpt lat="44.17059576773744" lon="11.946993902541767"><ele>67.25</ele><time>2026-05-02T08:04:05.999Z</time></trkpt><trkpt lat="44.1705351993602" lon="11.946857000502703"><ele>65.0</ele><time>2026-05-02T08:04:07.999Z</time></trkpt><trkpt lat="44.17047255493198" lon="11.946707482653824"><ele>65.0</ele><time>2026-05-02T08:04:09.999Z</time></trkpt><trkpt lat="44.170409715522716" lon="11.946568177413656"><ele>65.0</ele><time>2026-05-02T08:04:11.999Z</time></trkpt><trkpt lat="44.170363261116776" lon="11.946461246330296"><ele>65.0</ele><time>2026-05-02T08:04:13.999Z</time></trkpt><trkpt lat="44.17038494304851" lon="11.946575506645395"><ele>65.0</ele><time>2026-05-02T08:04:21.999Z</time></trkpt><trkpt lat="44.17042483672631" lon="11.946668343470034"><ele>65.0</ele><time>2026-05-02T08:04:24.999Z</time></trkpt><trkpt lat="44.17046488825656" lon="11.946759565732979"><ele>65.0</ele><time>2026-05-02T08:04:28Z</time></trkpt><trkpt lat="44.17050603890559" lon="11.946855246864317"><ele>64.5</ele><time>2026-05-02T08:04:31Z</time></trkpt><trkpt lat="44.17054615168094" lon="11.946949545266666"><ele>64.0</ele><time>2026-05-02T08:04:34Z</time></trkpt><trkpt lat="44.170591357847435" lon="11.947051936978843"><ele>63.5</ele><time>2026-05-02T08:04:37Z</time></trkpt><trkpt lat="44.17064207451248" lon="11.947162687833396"><ele>63.0</ele><time>2026-05-02T08:04:40Z</time></trkpt><trkpt lat="44.17069242281303" lon="11.947268787354703"><ele>62.50000000000001</ele><time>2026-05-02T08:04:43Z</time></trkpt><trkpt lat="44.17076645090959" lon="11.94734872291351"><ele>62.0</ele><time>2026-05-02T08:04:46Z</time></trkpt><trkpt lat="44.170833259194296" lon="11.94736665417748"><ele>63.714285714285715</ele><time>2026-05-02T08:04:48Z</time></trkpt><trkpt lat="44.17089910291815" lon="11.947379488183818"><ele>65.42857142857143</ele><time>2026-05-02T08:04:50Z</time></trkpt><trkpt lat="44.17098489249164" lon="11.947374568276048"><ele>67.14285714285714</ele><time>2026-05-02T08:04:53Z</time></trkpt><trkpt lat="44.171044999312066" lon="11.947345050104403"><ele>68.85714285714286</ele><time>2026-05-02T08:04:55Z</time></trkpt><trkpt lat="44.171077679533035" lon="11.947265748809466"><ele>70.57142857142857</ele><time>2026-05-02T08:04:57Z</time></trkpt><trkpt lat="44.17108527425539" lon="11.947164684504912"><ele>72.28571428571429</ele><time>2026-05-02T08:05:00Z</time></trkpt><trkpt lat="44.17108968214703" lon="11.94707251297493"><ele>74.0</ele><time>2026-05-02T08:05:04Z</time></trkpt><trkpt lat="44.17106359228005" lon="11.946971951229438"><ele>74.0</ele><time>2026-05-02T08:05:10Z</time></trkpt><trkpt lat="44.17100978002109" lon="11.94691091819708"><ele>74.0</ele><time>2026-05-02T08:05:16Z</time></trkpt><trkpt lat="44.17095615592803" lon="11.946841428036997"><ele>74.0</ele><time>2026-05-02T08:05:28Z</time></trkpt><trkpt lat="44.17090812484715" lon="11.94674387216938"><ele>74.0</ele><time>2026-05-02T08:05:31Z</time></trkpt><trkpt lat="44.17087230916661" lon="11.946647381529367"><ele>74.0</ele><time>2026-05-02T08:05:33Z</time></trkpt><trkpt lat="44.1708579944126" lon="11.946536213799018"><ele>74.0</ele><time>2026-05-02T08:05:35Z</time></trkpt><trkpt lat="44.170825267694624" lon="11.946445267283362"><ele>74.16666666666667</ele><time>2026-05-02T08:05:37Z</time></trkpt><trkpt lat="44.17077169913559" lon="11.946338816665715"><ele>74.33333333333334</ele><time>2026-05-02T08:05:39Z</time></trkpt><trkpt lat="44.17073143429755" lon="11.946240894777466"><ele>74.5</ele><time>2026-05-02T08:05:41Z</time></trkpt><trkpt lat="44.170692329256596" lon="11.946133861141329"><ele>74.66666666666667</ele><time>2026-05-02T08:05:43Z</time></trkpt><trkpt lat="44.17064231886523" lon="11.946052292107634"><ele>74.83333333333333</ele><time>2026-05-02T08:05:45Z</time></trkpt><trkpt lat="44.170586539563296" lon="11.945975968002868"><ele>75.0</ele><time>2026-05-02T08:05:47Z</time></trkpt><trkpt lat="44.17052896100729" lon="11.94587173238032"><ele>74.33333333333333</ele><time>2026-05-02T08:05:49Z</time></trkpt><trkpt lat="44.17049121300285" lon="11.945771439449901"><ele>73.66666666666667</ele><time>2026-05-02T08:05:51Z</time></trkpt><trkpt lat="44.170460497548376" lon="11.94565677473946"><ele>73.0</ele><time>2026-05-02T08:05:53Z</time></trkpt><trkpt lat="44.170421202115165" lon="11.94555055084332"><ele>72.33333333333334</ele><time>2026-05-02T08:05:55Z</time></trkpt><trkpt lat="44.17039374678893" lon="11.945430202736487"><ele>71.66666666666667</ele><time>2026-05-02T08:05:56.999Z</time></trkpt><trkpt lat="44.17037566546379" lon="11.945296450427602"><ele>71.0</ele><time>2026-05-02T08:05:58.999Z</time></trkpt><trkpt lat="44.17031916015453" lon="11.945177836222074"><ele>71.0</ele><time>2026-05-02T08:06:00.999Z</time></trkpt><trkpt lat="44.170299091204036" lon="11.945073795730409"><ele>71.0</ele><time>2026-05-02T08:06:02.999Z</time></trkpt><trkpt lat="44.17027580177713" lon="11.944984249223285"><ele>71.0</ele><time>2026-05-02T08:06:04.999Z</time></trkpt><trkpt lat="44.170232648181646" lon="11.94491666857864"><ele>71.0</ele><time>2026-05-02T08:06:06.999Z</time></trkpt><trkpt lat="44.17017685512466" lon="11.944817545046984"><ele>71.0</ele><time>2026-05-02T08:06:09.999Z</time></trkpt><trkpt lat="44.170119499035636" lon="11.944729279940885"><ele>71.0</ele><time>2026-05-02T08:06:12.999Z</time></trkpt><trkpt lat="44.17006689680956" lon="11.944630201206435"><ele>70.83333333333334</ele><time>2026-05-02T08:06:15.999Z</time></trkpt><trkpt lat="44.170009858851586" lon="11.944535224489243"><ele>70.66666666666667</ele><time>2026-05-02T08:06:18.999Z</time></trkpt><trkpt lat="44.16997769325782" lon="11.944451927337433"><ele>70.5</ele><time>2026-05-02T08:06:20.999Z</time></trkpt><trkpt lat="44.1699091596863" lon="11.944382483499888"><ele>70.33333333333333</ele><time>2026-05-02T08:06:22.999Z</time></trkpt><trkpt lat="44.169842635288255" lon="11.944334657187397"><ele>70.16666666666666</ele><time>2026-05-02T08:06:24.999Z</time></trkpt><trkpt lat="44.16978251347651" lon="11.944224475202992"><ele>70.0</ele><time>2026-05-02T08:06:26.999Z</time></trkpt><trkpt lat="44.16971597930194" lon="11.944129350595917"><ele>70.0</ele><time>2026-05-02T08:06:28.999Z</time></trkpt><trkpt lat="44.16965871724504" lon="11.944045552595934"><ele>70.0</ele><time>2026-05-02T08:06:30.999Z</time></trkpt><trkpt lat="44.16960469336762" lon="11.943963153025281"><ele>70.0</ele><time>2026-05-02T08:06:33Z</time></trkpt><trkpt lat="44.169537147064744" lon="11.943897533786444"><ele>70.0</ele><time>2026-05-02T08:06:35Z</time></trkpt><trkpt lat="44.16948989541694" lon="11.943814358714755"><ele>70.0</ele><time>2026-05-02T08:06:37Z</time></trkpt><trkpt lat="44.169418371631075" lon="11.943763330676157"><ele>70.0</ele><time>2026-05-02T08:06:39Z</time></trkpt><trkpt lat="44.16935898971237" lon="11.94372349633912"><ele>70.0</ele><time>2026-05-02T08:06:41Z</time></trkpt><trkpt lat="44.16928479563359" lon="11.943692628009703"><ele>70.0</ele><time>2026-05-02T08:06:43Z</time></trkpt><trkpt lat="44.16920301479649" lon="11.94366062680685"><ele>70.0</ele><time>2026-05-02T08:06:45Z</time></trkpt><trkpt lat="44.16912161420381" lon="11.943628775223441"><ele>70.0</ele><time>2026-05-02T08:06:47Z</time></trkpt><trkpt lat="44.16905538473124" lon="11.943715269687392"><ele>70.0</ele><time>2026-05-02T08:06:49Z</time></trkpt><trkpt lat="44.16901024300727" lon="11.94377767521773"><ele>70.0</ele><time>2026-05-02T08:06:52Z</time></trkpt><trkpt lat="44.16909124809293" lon="11.943867566971791"><ele>70.0</ele><time>2026-05-02T08:06:53Z</time></trkpt><trkpt lat="44.169114003511936" lon="11.94395142772272"><ele>70.0</ele><time>2026-05-02T08:06:55Z</time></trkpt><trkpt lat="44.169169360775186" lon="11.944062384303397"><ele>70.0</ele><time>2026-05-02T08:06:58Z</time></trkpt><trkpt lat="44.16920903604911" lon="11.944135666329402"><ele>70.0</ele><time>2026-05-02T08:07:00Z</time></trkpt><trkpt lat="44.16925341268232" lon="11.944237542906361"><ele>70.0</ele><time>2026-05-02T08:07:02Z</time></trkpt><trkpt lat="44.169309235556035" lon="11.944346513313434"><ele>70.0</ele><time>2026-05-02T08:07:04Z</time></trkpt><trkpt lat="44.16937151195635" lon="11.944458653546338"><ele>69.25</ele><time>2026-05-02T08:07:06Z</time></trkpt><trkpt lat="44.16942796891847" lon="11.944583179395618"><ele>68.5</ele><time>2026-05-02T08:07:08Z</time></trkpt><trkpt lat="44.169492572127304" lon="11.944712583096424"><ele>67.75</ele><time>2026-05-02T08:07:10Z</time></trkpt><trkpt lat="44.16955449245399" lon="11.944848064029932"><ele>67.0</ele><time>2026-05-02T08:07:12Z</time></trkpt><trkpt lat="44.16961849018219" lon="11.944990796293588"><ele>66.8</ele><time>2026-05-02T08:07:14Z</time></trkpt><trkpt lat="44.169696752751264" lon="11.945124068602464"><ele>66.6</ele><time>2026-05-02T08:07:16Z</time></trkpt><trkpt lat="44.169757165325706" lon="11.945273907373982"><ele>66.39999999999999</ele><time>2026-05-02T08:07:18Z</time></trkpt><trkpt lat="44.169811928742476" lon="11.945404448586556"><ele>66.2</ele><time>2026-05-02T08:07:20Z</time></trkpt><trkpt lat="44.16985415357361" lon="11.945503952689004"><ele>66.0</ele><time>2026-05-02T08:07:22Z</time></trkpt><trkpt lat="44.16980014790158" lon="11.945554529059654"><ele>66.0</ele><time>2026-05-02T08:07:24Z</time></trkpt><trkpt lat="44.169719265393994" lon="11.945634221663774"><ele>66.0</ele><time>2026-05-02T08:07:27Z</time></trkpt><trkpt lat="44.169648817590605" lon="11.945691742389986"><ele>66.0</ele><time>2026-05-02T08:07:29Z</time></trkpt><trkpt lat="44.1695595070362" lon="11.945737138332081"><ele>66.0</ele><time>2026-05-02T08:07:31Z</time></trkpt><trkpt lat="44.16948003119457" lon="11.945789956999585"><ele>66.0</ele><time>2026-05-02T08:07:33Z</time></trkpt><trkpt lat="44.16939444901699" lon="11.945846832374906"><ele>65.2</ele><time>2026-05-02T08:07:35Z</time></trkpt><trkpt lat="44.16930654106879" lon="11.945905019495752"><ele>64.39999999999999</ele><time>2026-05-02T08:07:37Z</time></trkpt><trkpt lat="44.16922708422081" lon="11.945957716823806"><ele>63.6</ele><time>2026-05-02T08:07:39Z</time></trkpt><trkpt lat="44.169143490924526" lon="11.946013157462895"><ele>62.8</ele><time>2026-05-02T08:07:41Z</time></trkpt><trkpt lat="44.16906065616894" lon="11.946068094620799"><ele>62.0</ele><time>2026-05-02T08:07:43Z</time></trkpt><trkpt lat="44.16898320216101" lon="11.946119462283711"><ele>62.00000000000001</ele><time>2026-05-02T08:07:45Z</time></trkpt><trkpt lat="44.168898107244345" lon="11.946175614562131"><ele>62.0</ele><time>2026-05-02T08:07:47Z</time></trkpt><trkpt lat="44.16881353195497" lon="11.94623307319963"><ele>62.0</ele><time>2026-05-02T08:07:49Z</time></trkpt><trkpt lat="44.16873050178715" lon="11.94629093363342"><ele>62.0</ele><time>2026-05-02T08:07:51Z</time></trkpt><trkpt lat="44.16864705258608" lon="11.946349086088196"><ele>62.00000000000001</ele><time>2026-05-02T08:07:52.999Z</time></trkpt><trkpt lat="44.16858475334665" lon="11.946392499928669"><ele>62.0</ele><time>2026-05-02T08:07:54.999Z</time></trkpt><trkpt lat="44.16853242387352" lon="11.946447290185906"><ele>62.0</ele><time>2026-05-02T08:07:57.999Z</time></trkpt><trkpt lat="44.168661141849135" lon="11.946779507154142"><ele>62.0</ele><time>2026-05-02T08:08:01.999Z</time></trkpt><trkpt lat="44.16870052679715" lon="11.946887331314292"><ele>62.0</ele><time>2026-05-02T08:08:03.999Z</time></trkpt><trkpt lat="44.16872860261907" lon="11.94699504851399"><ele>62.0</ele><time>2026-05-02T08:08:05.999Z</time></trkpt><trkpt lat="44.16874232753689" lon="11.947104012305228"><ele>62.00000000000001</ele><time>2026-05-02T08:08:07.999Z</time></trkpt><trkpt lat="44.16879268568566" lon="11.947181953771205"><ele>62.0</ele><time>2026-05-02T08:08:09.999Z</time></trkpt><trkpt lat="44.16886268243181" lon="11.947252094168554"><ele>62.0</ele><time>2026-05-02T08:08:11.999Z</time></trkpt><trkpt lat="44.16893513607425" lon="11.947312306534979"><ele>62.0</ele><time>2026-05-02T08:08:13.999Z</time></trkpt><trkpt lat="44.16900567266057" lon="11.947364688350683"><ele>62.00000000000001</ele><time>2026-05-02T08:08:15.999Z</time></trkpt><trkpt lat="44.16906136779046" lon="11.947418791498112"><ele>62.0</ele><time>2026-05-02T08:08:17.999Z</time></trkpt><trkpt lat="44.16911874303463" lon="11.947472202240649"><ele>61.833333333333336</ele><time>2026-05-02T08:08:19.999Z</time></trkpt><trkpt lat="44.169175478327126" lon="11.947519764380182"><ele>61.66666666666667</ele><time>2026-05-02T08:08:21.999Z</time></trkpt><trkpt lat="44.169244128585206" lon="11.94756814788482"><ele>61.5</ele><time>2026-05-02T08:08:23.999Z</time></trkpt><trkpt lat="44.16930612632631" lon="11.947628479021699"><ele>61.33333333333333</ele><time>2026-05-02T08:08:25.999Z</time></trkpt><trkpt lat="44.169368116551794" lon="11.947688769888796"><ele>61.166666666666664</ele><time>2026-05-02T08:08:27.999Z</time></trkpt><trkpt lat="44.16943417956935" lon="11.947751830764"><ele>61.0</ele><time>2026-05-02T08:08:29.999Z</time></trkpt><trkpt lat="44.16949266845701" lon="11.947824550654076"><ele>60.99999999999999</ele><time>2026-05-02T08:08:31.999Z</time></trkpt><trkpt lat="44.16955449258121" lon="11.947895249649271"><ele>61.0</ele><time>2026-05-02T08:08:33.999Z</time></trkpt><trkpt lat="44.16962106954599" lon="11.947966291304667"><ele>61.0</ele><time>2026-05-02T08:08:35.999Z</time></trkpt><trkpt lat="44.16968625473336" lon="11.948040659716925"><ele>61.0</ele><time>2026-05-02T08:08:37.999Z</time></trkpt><trkpt lat="44.16974674326982" lon="11.948116890468933"><ele>60.99999999999999</ele><time>2026-05-02T08:08:40Z</time></trkpt><trkpt lat="44.16980827815771" lon="11.948189632266136"><ele>61.0</ele><time>2026-05-02T08:08:42Z</time></trkpt><trkpt lat="44.16987089620413" lon="11.948256306515354"><ele>61.166666666666664</ele><time>2026-05-02T08:08:44Z</time></trkpt><trkpt lat="44.16994257968348" lon="11.948310288736582"><ele>61.33333333333333</ele><time>2026-05-02T08:08:46Z</time></trkpt><trkpt lat="44.17000977659111" lon="11.948374520539877"><ele>61.5</ele><time>2026-05-02T08:08:48Z</time></trkpt><trkpt lat="44.170062547444026" lon="11.948450939080457"><ele>61.66666666666667</ele><time>2026-05-02T08:08:50Z</time></trkpt><trkpt lat="44.17007472399016" lon="11.948568704854047"><ele>61.833333333333336</ele><time>2026-05-02T08:08:52Z</time></trkpt><trkpt lat="44.1701431099835" lon="11.948612619440851"><ele>62.0</ele><time>2026-05-02T08:08:54Z</time></trkpt><trkpt lat="44.170211871752805" lon="11.948618162777175"><ele>62.0</ele><time>2026-05-02T08:08:56Z</time></trkpt><trkpt lat="44.17027869731172" lon="11.948580039602428"><ele>62.0</ele><time>2026-05-02T08:09:11Z</time></trkpt><trkpt lat="44.170345388396804" lon="11.948614595774076"><ele>62.0</ele><time>2026-05-02T08:09:17Z</time></trkpt><trkpt lat="44.17034195266723" lon="11.94876338664455"><ele>62.0</ele><time>2026-05-02T08:09:19Z</time></trkpt><trkpt lat="44.17039790259758" lon="11.948885152196809"><ele>62.0</ele><time>2026-05-02T08:09:21Z</time></trkpt><trkpt lat="44.17044487425919" lon="11.949053231176684"><ele>62.0</ele><time>2026-05-02T08:09:23Z</time></trkpt><trkpt lat="44.170336544396434" lon="11.948741198892186"><ele>62.0</ele><time>2026-05-02T08:09:24Z</time></trkpt><trkpt lat="44.17036431777826" lon="11.948827501557304"><ele>62.0</ele><time>2026-05-02T08:09:27Z</time></trkpt><trkpt lat="44.170416790675155" lon="11.94888541554868"><ele>62.0</ele><time>2026-05-02T08:09:30Z</time></trkpt><trkpt lat="44.17048565371605" lon="11.948920606894392"><ele>62.00000000000001</ele><time>2026-05-02T08:09:34Z</time></trkpt><trkpt lat="44.17054295254732" lon="11.9489630604204"><ele>62.0</ele><time>2026-05-02T08:09:37Z</time></trkpt><trkpt lat="44.17059351376526" lon="11.949025660880984"><ele>62.0</ele><time>2026-05-02T08:09:41Z</time></trkpt><trkpt lat="44.170507861659964" lon="11.949156325932066"><ele>62.0</ele><time>2026-05-02T08:09:48Z</time></trkpt><trkpt lat="44.17045163006075" lon="11.949200906728406"><ele>62.00000000000001</ele><time>2026-05-02T08:09:51Z</time></trkpt><trkpt lat="44.17039857524086" lon="11.949248432606746"><ele>62.0</ele><time>2026-05-02T08:10:05.999Z</time></trkpt><trkpt lat="44.170479919014795" lon="11.949246800182667"><ele>62.00000000000001</ele><time>2026-05-02T08:10:08.999Z</time></trkpt><trkpt lat="44.17055011723201" lon="11.949202467981236"><ele>62.0</ele><time>2026-05-02T08:10:11.999Z</time></trkpt><trkpt lat="44.17061982024321" lon="11.949205738229164"><ele>62.0</ele><time>2026-05-02T08:10:14.999Z</time></trkpt><trkpt lat="44.17063746940529" lon="11.949334394367753"><ele>62.0</ele><time>2026-05-02T08:10:16.999Z</time></trkpt><trkpt lat="44.17068359130252" lon="11.94945791296215"><ele>62.00000000000001</ele><time>2026-05-02T08:10:18.999Z</time></trkpt><trkpt lat="44.17073209856052" lon="11.94959137253235"><ele>62.0</ele><time>2026-05-02T08:10:20.999Z</time></trkpt><trkpt lat="44.170781555386576" lon="11.949735011783226"><ele>62.400000000000006</ele><time>2026-05-02T08:10:22.999Z</time></trkpt><trkpt lat="44.1708375724167" lon="11.949869673203509"><ele>62.800000000000004</ele><time>2026-05-02T08:10:24.999Z</time></trkpt><trkpt lat="44.17089801697097" lon="11.950005286035802"><ele>63.2</ele><time>2026-05-02T08:10:26.999Z</time></trkpt><trkpt lat="44.17092927410352" lon="11.950083280725869"><ele>63.6</ele><time>2026-05-02T08:10:27.999Z</time></trkpt><trkpt lat="44.17098329550269" lon="11.950213983302664"><ele>64.0</ele><time>2026-05-02T08:10:29.999Z</time></trkpt><trkpt lat="44.17101926196139" lon="11.9502879414658"><ele>64.0</ele><time>2026-05-02T08:10:30.999Z</time></trkpt><trkpt lat="44.17106076349005" lon="11.950425667595619"><ele>64.0</ele><time>2026-05-02T08:10:32.999Z</time></trkpt><trkpt lat="44.17111243341757" lon="11.950558396023826"><ele>64.0</ele><time>2026-05-02T08:10:34.999Z</time></trkpt><trkpt lat="44.17112736460502" lon="11.950711437672782"><ele>64.0</ele><time>2026-05-02T08:10:36.999Z</time></trkpt><trkpt lat="44.171128262794916" lon="11.950862956560083"><ele>64.0</ele><time>2026-05-02T08:10:38.999Z</time></trkpt><trkpt lat="44.17114066625639" lon="11.950999311180134"><ele>63.99999999999999</ele><time>2026-05-02T08:10:40.999Z</time></trkpt><trkpt lat="44.17115814300385" lon="11.951129748358534"><ele>64.0</ele><time>2026-05-02T08:10:42.999Z</time></trkpt><trkpt lat="44.171158621333625" lon="11.951256491662416"><ele>64.0</ele><time>2026-05-02T08:10:45Z</time></trkpt><trkpt lat="44.1711745964924" lon="11.951378962176323"><ele>64.0</ele><time>2026-05-02T08:10:47Z</time></trkpt><trkpt lat="44.17118444637632" lon="11.951495301160936"><ele>63.99999999999999</ele><time>2026-05-02T08:10:49Z</time></trkpt><trkpt lat="44.17119009485475" lon="11.951609291690358"><ele>64.0</ele><time>2026-05-02T08:10:51Z</time></trkpt><trkpt lat="44.171196413245326" lon="11.951717659085292"><ele>63.49999999999999</ele><time>2026-05-02T08:10:53Z</time></trkpt><trkpt lat="44.17120463579448" lon="11.951832951483116"><ele>63.0</ele><time>2026-05-02T08:10:55Z</time></trkpt><trkpt lat="44.17121393547802" lon="11.951948165502264"><ele>62.5</ele><time>2026-05-02T08:10:57Z</time></trkpt><trkpt lat="44.17122439106957" lon="11.952060191377543"><ele>62.0</ele><time>2026-05-02T08:10:59Z</time></trkpt><trkpt lat="44.171234472496984" lon="11.952171210455582"><ele>61.49999999999999</ele><time>2026-05-02T08:11:01Z</time></trkpt><trkpt lat="44.171243145803444" lon="11.952292006372812"><ele>61.0</ele><time>2026-05-02T08:11:03Z</time></trkpt><trkpt lat="44.171253610750405" lon="11.95239702202535"><ele>60.99999999999999</ele><time>2026-05-02T08:11:05Z</time></trkpt><trkpt lat="44.171263023179925" lon="11.952516554551842"><ele>61.0</ele><time>2026-05-02T08:11:07Z</time></trkpt><trkpt lat="44.1712705365778" lon="11.952633265924"><ele>61.0</ele><time>2026-05-02T08:11:09Z</time></trkpt><trkpt lat="44.17128648538897" lon="11.952747623890039"><ele>61.0</ele><time>2026-05-02T08:11:11Z</time></trkpt><trkpt lat="44.17128846298456" lon="11.952850913957903"><ele>60.99999999999999</ele><time>2026-05-02T08:11:13Z</time></trkpt><trkpt lat="44.171292842233655" lon="11.952970002481445"><ele>61.0</ele><time>2026-05-02T08:11:15Z</time></trkpt><trkpt lat="44.17129818220626" lon="11.953076445685241"><ele>60.99999999999999</ele><time>2026-05-02T08:11:17Z</time></trkpt><trkpt lat="44.17131341446598" lon="11.953197435183906"><ele>61.0</ele><time>2026-05-02T08:11:20Z</time></trkpt><trkpt lat="44.171316210898055" lon="11.953307612934374"><ele>61.0</ele><time>2026-05-02T08:11:22Z</time></trkpt><trkpt lat="44.171309624948655" lon="11.953406968848748"><ele>61.0</ele><time>2026-05-02T08:11:24Z</time></trkpt><trkpt lat="44.17129851435448" lon="11.953527470718104"><ele>60.99999999999999</ele><time>2026-05-02T08:11:26Z</time></trkpt><trkpt lat="44.17128176499188" lon="11.95364794639756"><ele>61.0</ele><time>2026-05-02T08:11:28Z</time></trkpt><trkpt lat="44.1712602482674" lon="11.953775750690456"><ele>60.99999999999999</ele><time>2026-05-02T08:11:30Z</time></trkpt><trkpt lat="44.17123052204443" lon="11.953885644691654"><ele>61.0</ele><time>2026-05-02T08:11:32Z</time></trkpt><trkpt lat="44.171207751959244" lon="11.954007306951626"><ele>61.0</ele><time>2026-05-02T08:11:34Z</time></trkpt><trkpt lat="44.17116867006728" lon="11.954111068518529"><ele>61.0</ele><time>2026-05-02T08:11:36Z</time></trkpt><trkpt lat="44.17116029935118" lon="11.954237305802149"><ele>60.99999999999999</ele><time>2026-05-02T08:11:38Z</time></trkpt><trkpt lat="44.171169725944004" lon="11.954354738385762"><ele>61.0</ele><time>2026-05-02T08:11:40Z</time></trkpt><trkpt lat="44.17118191166468" lon="11.954461822494869"><ele>60.83333333333333</ele><time>2026-05-02T08:11:42Z</time></trkpt><trkpt lat="44.17118801420739" lon="11.95459011288426"><ele>60.666666666666664</ele><time>2026-05-02T08:11:44Z</time></trkpt><trkpt lat="44.17118711559683" lon="11.954708547506296"><ele>60.5</ele><time>2026-05-02T08:11:46Z</time></trkpt><trkpt lat="44.17119713516723" lon="11.954827787747607"><ele>60.33333333333333</ele><time>2026-05-02T08:11:48Z</time></trkpt><trkpt lat="44.17122254534789" lon="11.95494802493422"><ele>60.166666666666664</ele><time>2026-05-02T08:11:50Z</time></trkpt><trkpt lat="44.17123675464942" lon="11.955057084500961"><ele>60.0</ele><time>2026-05-02T08:11:52Z</time></trkpt><trkpt lat="44.17125208810319" lon="11.95515887609855"><ele>60.833333333333336</ele><time>2026-05-02T08:11:54Z</time></trkpt><trkpt lat="44.171275304377296" lon="11.95527038039419"><ele>61.66666666666667</ele><time>2026-05-02T08:11:56Z</time></trkpt><trkpt lat="44.17128735738896" lon="11.955389986137163"><ele>62.5</ele><time>2026-05-02T08:11:58Z</time></trkpt><trkpt lat="44.17129293418834" lon="11.955501507935763"><ele>63.333333333333336</ele><time>2026-05-02T08:12:00Z</time></trkpt><trkpt lat="44.171306622694665" lon="11.955602331985329"><ele>64.16666666666667</ele><time>2026-05-02T08:12:02Z</time></trkpt><trkpt lat="44.17135655566362" lon="11.955689066725398"><ele>65.0</ele><time>2026-05-02T08:12:04Z</time></trkpt><trkpt lat="44.171416873214696" lon="11.955751966996713"><ele>65.0</ele><time>2026-05-02T08:12:06Z</time></trkpt><trkpt lat="44.17146625163704" lon="11.955817281614992"><ele>65.0</ele><time>2026-05-02T08:12:08Z</time></trkpt><trkpt lat="44.17150748593974" lon="11.955896598435197"><ele>65.0</ele><time>2026-05-02T08:12:10Z</time></trkpt><trkpt lat="44.17152923239626" lon="11.956019255429048"><ele>65.0</ele><time>2026-05-02T08:12:12.999Z</time></trkpt><trkpt lat="44.17152607148507" lon="11.956116324889102"><ele>65.0</ele><time>2026-05-02T08:12:14.999Z</time></trkpt><trkpt lat="44.171522541702394" lon="11.956255680522972"><ele>65.0</ele><time>2026-05-02T08:12:17.999Z</time></trkpt><trkpt lat="44.171515994770175" lon="11.956349955269914"><ele>64.33333333333334</ele><time>2026-05-02T08:12:19.999Z</time></trkpt><trkpt lat="44.17155109845326" lon="11.9564382681301"><ele>63.66666666666667</ele><time>2026-05-02T08:12:21.999Z</time></trkpt><trkpt lat="44.17160927457899" lon="11.95649023250179"><ele>63.0</ele><time>2026-05-02T08:12:23.999Z</time></trkpt><trkpt lat="44.17168287334828" lon="11.956526781251473"><ele>62.33333333333333</ele><time>2026-05-02T08:12:25.999Z</time></trkpt><trkpt lat="44.17175285019644" lon="11.95656318468266"><ele>61.666666666666664</ele><time>2026-05-02T08:12:27.999Z</time></trkpt><trkpt lat="44.171836637064146" lon="11.956588208668643"><ele>61.0</ele><time>2026-05-02T08:12:30.999Z</time></trkpt><trkpt lat="44.171905203985375" lon="11.956608189021548"><ele>60.99999999999999</ele><time>2026-05-02T08:12:32.999Z</time></trkpt><trkpt lat="44.171993163018264" lon="11.956611413720548"><ele>61.0</ele><time>2026-05-02T08:12:35.999Z</time></trkpt><trkpt lat="44.17208530054797" lon="11.956598026646668"><ele>61.0</ele><time>2026-05-02T08:12:38.999Z</time></trkpt><trkpt lat="44.17215873237527" lon="11.956612355354594"><ele>61.0</ele><time>2026-05-02T08:12:40.999Z</time></trkpt><trkpt lat="44.17222153450012" lon="11.956596168488048"><ele>60.99999999999999</ele><time>2026-05-02T08:12:42.999Z</time></trkpt><trkpt lat="44.17227966843683" lon="11.956548206699399"><ele>61.0</ele><time>2026-05-02T08:12:44.999Z</time></trkpt><trkpt lat="44.17232455384842" lon="11.956466711361681"><ele>60.99999999999999</ele><time>2026-05-02T08:12:46.999Z</time></trkpt><trkpt lat="44.1723760743715" lon="11.95636876699959"><ele>61.0</ele><time>2026-05-02T08:12:48.999Z</time></trkpt><trkpt lat="44.172432096901865" lon="11.956301456981574"><ele>60.99999999999999</ele><time>2026-05-02T08:12:51Z</time></trkpt><trkpt lat="44.172508506302954" lon="11.956286098522456"><ele>60.99999999999999</ele><time>2026-05-02T08:12:53Z</time></trkpt><trkpt lat="44.172563318804634" lon="11.956339118386328"><ele>61.0</ele><time>2026-05-02T08:12:55Z</time></trkpt><trkpt lat="44.1726242941523" lon="11.956383986481077"><ele>60.99999999999999</ele><time>2026-05-02T08:12:57Z</time></trkpt><trkpt lat="44.172692884616815" lon="11.956422197064455"><ele>60.99999999999999</ele><time>2026-05-02T08:12:59Z</time></trkpt><trkpt lat="44.17275163504779" lon="11.956481360375859"><ele>60.99999999999999</ele><time>2026-05-02T08:13:01Z</time></trkpt><trkpt lat="44.17282337391668" lon="11.956549495141713"><ele>61.0</ele><time>2026-05-02T08:13:03Z</time></trkpt><trkpt lat="44.17290361958401" lon="11.956604361025656"><ele>61.0</ele><time>2026-05-02T08:13:05Z</time></trkpt><trkpt lat="44.17297983477014" lon="11.956654550429693"><ele>61.0</ele><time>2026-05-02T08:13:07Z</time></trkpt><trkpt lat="44.17305557815975" lon="11.956693382118347"><ele>60.99999999999999</ele><time>2026-05-02T08:13:09Z</time></trkpt><trkpt lat="44.17313685681224" lon="11.956730130968651"><ele>61.0</ele><time>2026-05-02T08:13:11Z</time></trkpt><trkpt lat="44.17321815049207" lon="11.956752317184865"><ele>61.599999999999994</ele><time>2026-05-02T08:13:13Z</time></trkpt><trkpt lat="44.17329715075924" lon="11.956771159741939"><ele>62.199999999999996</ele><time>2026-05-02T08:13:15Z</time></trkpt><trkpt lat="44.17339050656921" lon="11.95680077249721"><ele>62.800000000000004</ele><time>2026-05-02T08:13:17Z</time></trkpt><trkpt lat="44.17348120340199" lon="11.9568223698714"><ele>63.400000000000006</ele><time>2026-05-02T08:13:19Z</time></trkpt><trkpt lat="44.17357093929774" lon="11.956847715803143"><ele>64.0</ele><time>2026-05-02T08:13:21Z</time></trkpt><trkpt lat="44.173662445250244" lon="11.956876113868791"><ele>64.0</ele><time>2026-05-02T08:13:23Z</time></trkpt><trkpt lat="44.17375216428206" lon="11.956919176355594"><ele>64.0</ele><time>2026-05-02T08:13:25Z</time></trkpt><trkpt lat="44.173840464776234" lon="11.956964565174458"><ele>64.0</ele><time>2026-05-02T08:13:27Z</time></trkpt><trkpt lat="44.173930623327244" lon="11.956999041003757"><ele>64.0</ele><time>2026-05-02T08:13:29Z</time></trkpt><trkpt lat="44.174014491057164" lon="11.957029476485566"><ele>64.0</ele><time>2026-05-02T08:13:31Z</time></trkpt><trkpt lat="44.17409747588687" lon="11.957043488201165"><ele>63.99999999999999</ele><time>2026-05-02T08:13:33Z</time></trkpt><trkpt lat="44.17417679005906" lon="11.957053833887121"><ele>64.0</ele><time>2026-05-02T08:13:35Z</time></trkpt><trkpt lat="44.17426720136836" lon="11.957054994861544"><ele>64.0</ele><time>2026-05-02T08:13:37Z</time></trkpt><trkpt lat="44.17434661599635" lon="11.95705753556764"><ele>64.0</ele><time>2026-05-02T08:13:39Z</time></trkpt><trkpt lat="44.17443239599188" lon="11.957057361821581"><ele>63.99999999999999</ele><time>2026-05-02T08:13:41Z</time></trkpt><trkpt lat="44.174520045895456" lon="11.957050472689582"><ele>64.0</ele><time>2026-05-02T08:13:43Z</time></trkpt><trkpt lat="44.17461788101579" lon="11.95705051795636"><ele>64.0</ele><time>2026-05-02T08:13:45Z</time></trkpt><trkpt lat="44.174710139373815" lon="11.957033326633951"><ele>64.0</ele><time>2026-05-02T08:13:47Z</time></trkpt><trkpt lat="44.174799936216196" lon="11.956998474520994"><ele>64.0</ele><time>2026-05-02T08:13:49Z</time></trkpt><trkpt lat="44.174887671913424" lon="11.956974922636432"><ele>64.0</ele><time>2026-05-02T08:13:51Z</time></trkpt><trkpt lat="44.174980803988596" lon="11.956957316455386"><ele>64.0</ele><time>2026-05-02T08:13:53Z</time></trkpt><trkpt lat="44.1750691925214" lon="11.956954921066401"><ele>63.800000000000004</ele><time>2026-05-02T08:13:55Z</time></trkpt><trkpt lat="44.175153586428735" lon="11.956940386813054"><ele>63.60000000000001</ele><time>2026-05-02T08:13:57Z</time></trkpt><trkpt lat="44.175248387698815" lon="11.956915897827747"><ele>63.4</ele><time>2026-05-02T08:13:59Z</time></trkpt><trkpt lat="44.17534915504367" lon="11.956906931003799"><ele>63.2</ele><time>2026-05-02T08:14:01Z</time></trkpt><trkpt lat="44.175443058660925" lon="11.956903957892203"><ele>63.0</ele><time>2026-05-02T08:14:03Z</time></trkpt><trkpt lat="44.17554194166335" lon="11.956890247100146"><ele>63.0</ele><time>2026-05-02T08:14:05Z</time></trkpt><trkpt lat="44.175642586555675" lon="11.956895275259004"><ele>63.0</ele><time>2026-05-02T08:14:07Z</time></trkpt><trkpt lat="44.175740573750716" lon="11.956898407156736"><ele>63.0</ele><time>2026-05-02T08:14:09Z</time></trkpt><trkpt lat="44.1758424862055" lon="11.956913146271011"><ele>63.0</ele><time>2026-05-02T08:14:11Z</time></trkpt><trkpt lat="44.17593919211122" lon="11.956923423844941"><ele>63.0</ele><time>2026-05-02T08:14:13Z</time></trkpt><trkpt lat="44.17603956627977" lon="11.956917763611601"><ele>62.4</ele><time>2026-05-02T08:14:15Z</time></trkpt><trkpt lat="44.17613987655873" lon="11.956909899654306"><ele>61.8</ele><time>2026-05-02T08:14:17Z</time></trkpt><trkpt lat="44.17624186604411" lon="11.956899572319315"><ele>61.2</ele><time>2026-05-02T08:14:19Z</time></trkpt><trkpt lat="44.176335681436555" lon="11.95686227662759"><ele>60.6</ele><time>2026-05-02T08:14:21Z</time></trkpt><trkpt lat="44.176418190615045" lon="11.956822368751244"><ele>60.0</ele><time>2026-05-02T08:14:22.999Z</time></trkpt><trkpt lat="44.17650085121953" lon="11.95679137090455"><ele>59.85714285714286</ele><time>2026-05-02T08:14:24.999Z</time></trkpt><trkpt lat="44.17657531450164" lon="11.956765512888476"><ele>59.71428571428571</ele><time>2026-05-02T08:14:26.999Z</time></trkpt><trkpt lat="44.17664629627831" lon="11.956715101304157"><ele>59.57142857142857</ele><time>2026-05-02T08:14:28.999Z</time></trkpt><trkpt lat="44.176712838477435" lon="11.956655776229391"><ele>59.42857142857143</ele><time>2026-05-02T08:14:30.999Z</time></trkpt><trkpt lat="44.176767611453364" lon="11.956609005613375"><ele>59.28571428571429</ele><time>2026-05-02T08:14:32.999Z</time></trkpt><trkpt lat="44.17683144648567" lon="11.956597481417266"><ele>59.14285714285714</ele><time>2026-05-02T08:14:35.999Z</time></trkpt><trkpt lat="44.17684938558583" lon="11.956705903432654"><ele>59.0</ele><time>2026-05-02T08:14:38.999Z</time></trkpt><trkpt lat="44.176876940207976" lon="11.956788985897735"><ele>58.833333333333336</ele><time>2026-05-02T08:14:41.999Z</time></trkpt><trkpt lat="44.17690289124718" lon="11.956873564539245"><ele>58.66666666666667</ele><time>2026-05-02T08:14:44.999Z</time></trkpt><trkpt lat="44.176936150426414" lon="11.956986369970252"><ele>58.5</ele><time>2026-05-02T08:14:47.999Z</time></trkpt><trkpt lat="44.1769650936269" lon="11.957072301910237"><ele>58.33333333333333</ele><time>2026-05-02T08:14:49.999Z</time></trkpt><trkpt lat="44.177004459385955" lon="11.957172253859628"><ele>58.166666666666664</ele><time>2026-05-02T08:14:51.999Z</time></trkpt><trkpt lat="44.1770838836508" lon="11.957206924646949"><ele>58.0</ele><time>2026-05-02T08:14:53.999Z</time></trkpt><trkpt lat="44.17717770782573" lon="11.957159502649993"><ele>58.0</ele><time>2026-05-02T08:14:55.999Z</time></trkpt><trkpt lat="44.177266648175895" lon="11.957105160895125"><ele>58.0</ele><time>2026-05-02T08:14:58Z</time></trkpt><trkpt lat="44.17736256724382" lon="11.957069095400902"><ele>58.0</ele><time>2026-05-02T08:15:00Z</time></trkpt><trkpt lat="44.17745965926713" lon="11.95701553262535"><ele>58.0</ele><time>2026-05-02T08:15:02Z</time></trkpt><trkpt lat="44.17756667871222" lon="11.956977271275749"><ele>58.0</ele><time>2026-05-02T08:15:04Z</time></trkpt><trkpt lat="44.17767003920977" lon="11.956938600403998"><ele>58.0</ele><time>2026-05-02T08:15:06Z</time></trkpt><trkpt lat="44.17777041691881" lon="11.956907204889474"><ele>58.0</ele><time>2026-05-02T08:15:08Z</time></trkpt><trkpt lat="44.17787156273561" lon="11.956887444391334"><ele>58.0</ele><time>2026-05-02T08:15:10Z</time></trkpt><trkpt lat="44.17797889884921" lon="11.956865268916495"><ele>58.0</ele><time>2026-05-02T08:15:12Z</time></trkpt><trkpt lat="44.17807992710716" lon="11.95684003005524"><ele>58.0</ele><time>2026-05-02T08:15:14Z</time></trkpt><trkpt lat="44.178191830973766" lon="11.956807619133743"><ele>57.8</ele><time>2026-05-02T08:15:16Z</time></trkpt><trkpt lat="44.178295456676715" lon="11.956781768802584"><ele>57.599999999999994</ele><time>2026-05-02T08:15:18Z</time></trkpt><trkpt lat="44.17840363439891" lon="11.9567605424916"><ele>57.400000000000006</ele><time>2026-05-02T08:15:20Z</time></trkpt><trkpt lat="44.1785021052263" lon="11.95673352514137"><ele>57.2</ele><time>2026-05-02T08:15:22Z</time></trkpt><trkpt lat="44.17860994092733" lon="11.956707215535218"><ele>57.0</ele><time>2026-05-02T08:15:24Z</time></trkpt><trkpt lat="44.17872390575622" lon="11.95667994598513"><ele>56.75</ele><time>2026-05-02T08:15:26Z</time></trkpt><trkpt lat="44.17883365980634" lon="11.95665957670112"><ele>56.5</ele><time>2026-05-02T08:15:28Z</time></trkpt><trkpt lat="44.17895025106297" lon="11.956676387492362"><ele>56.25</ele><time>2026-05-02T08:15:30Z</time></trkpt><trkpt lat="44.179062681064906" lon="11.95669058151398"><ele>56.0</ele><time>2026-05-02T08:15:32Z</time></trkpt><trkpt lat="44.17917156186433" lon="11.956696910856817"><ele>56.0</ele><time>2026-05-02T08:15:34Z</time></trkpt><trkpt lat="44.17928991902605" lon="11.956710845356596"><ele>55.99999999999999</ele><time>2026-05-02T08:15:36Z</time></trkpt><trkpt lat="44.17940357603949" lon="11.95670182478425"><ele>55.99999999999999</ele><time>2026-05-02T08:15:38Z</time></trkpt><trkpt lat="44.17952113231474" lon="11.956701013662366"><ele>56.0</ele><time>2026-05-02T08:15:40Z</time></trkpt><trkpt lat="44.1795841809674" lon="11.956706948799987"><ele>56.0</ele><time>2026-05-02T08:15:41Z</time></trkpt><trkpt lat="44.179698638785894" lon="11.956719685868993"><ele>56.0</ele><time>2026-05-02T08:15:43Z</time></trkpt><trkpt lat="44.179796285585425" lon="11.956739907416534"><ele>55.99999999999999</ele><time>2026-05-02T08:15:45Z</time></trkpt><trkpt lat="44.1798956271181" lon="11.9567772009623"><ele>55.99999999999999</ele><time>2026-05-02T08:15:47Z</time></trkpt><trkpt lat="44.179985710456656" lon="11.956812370495355"><ele>56.0</ele><time>2026-05-02T08:15:49Z</time></trkpt><trkpt lat="44.18005098481572" lon="11.956946285348009"><ele>56.0</ele><time>2026-05-02T08:15:51Z</time></trkpt><trkpt lat="44.1800809161178" lon="11.957036231195431"><ele>56.0</ele><time>2026-05-02T08:15:52Z</time></trkpt><trkpt lat="44.18012415589542" lon="11.957166742323029"><ele>55.99999999999999</ele><time>2026-05-02T08:15:54Z</time></trkpt><trkpt lat="44.18018039824661" lon="11.957285558834812"><ele>55.99999999999999</ele><time>2026-05-02T08:15:56Z</time></trkpt><trkpt lat="44.18021548651927" lon="11.957436652781777"><ele>56.0</ele><time>2026-05-02T08:15:58Z</time></trkpt><trkpt lat="44.18022957538165" lon="11.957525749161846"><ele>56.0</ele><time>2026-05-02T08:15:59Z</time></trkpt><trkpt lat="44.180279460031095" lon="11.957671625477388"><ele>55.5</ele><time>2026-05-02T08:16:01Z</time></trkpt><trkpt lat="44.18033260503539" lon="11.957818625097653"><ele>55.0</ele><time>2026-05-02T08:16:03Z</time></trkpt><trkpt lat="44.18039158518335" lon="11.957965022382123"><ele>54.5</ele><time>2026-05-02T08:16:05Z</time></trkpt><trkpt lat="44.18044317301607" lon="11.958107895709835"><ele>54.0</ele><time>2026-05-02T08:16:07Z</time></trkpt><trkpt lat="44.18045770728237" lon="11.95826335012524"><ele>54.400000000000006</ele><time>2026-05-02T08:16:09Z</time></trkpt><trkpt lat="44.1804542716736" lon="11.958420589459232"><ele>54.800000000000004</ele><time>2026-05-02T08:16:11Z</time></trkpt><trkpt lat="44.18042175832907" lon="11.958554050400984"><ele>55.199999999999996</ele><time>2026-05-02T08:16:13Z</time></trkpt><trkpt lat="44.180388869710555" lon="11.958662929534682"><ele>55.599999999999994</ele><time>2026-05-02T08:16:15Z</time></trkpt><trkpt lat="44.18032925039308" lon="11.958745189190385"><ele>56.0</ele><time>2026-05-02T08:16:18Z</time></trkpt><trkpt lat="44.18026730088001" lon="11.958791013070968"><ele>56.00000000000001</ele><time>2026-05-02T08:16:20Z</time></trkpt><trkpt lat="44.18020922085071" lon="11.95882637355585"><ele>56.0</ele><time>2026-05-02T08:16:22Z</time></trkpt><trkpt lat="44.180143954555895" lon="11.958863144022155"><ele>56.0</ele><time>2026-05-02T08:16:24Z</time></trkpt><trkpt lat="44.18007864129183" lon="11.958903940727302"><ele>56.0</ele><time>2026-05-02T08:16:25.999Z</time></trkpt><trkpt lat="44.180004261917134" lon="11.958952045852573"><ele>56.00000000000001</ele><time>2026-05-02T08:16:27.999Z</time></trkpt><trkpt lat="44.179922973791484" lon="11.958978663030662"><ele>56.0</ele><time>2026-05-02T08:16:29.999Z</time></trkpt><trkpt lat="44.17984043105256" lon="11.959000290512803"><ele>55.857142857142854</ele><time>2026-05-02T08:16:31.999Z</time></trkpt><trkpt lat="44.179769115114304" lon="11.959040592007073"><ele>55.714285714285715</ele><time>2026-05-02T08:16:33.999Z</time></trkpt><trkpt lat="44.17970645104106" lon="11.959056514321329"><ele>55.57142857142857</ele><time>2026-05-02T08:16:35.999Z</time></trkpt><trkpt lat="44.17963736732895" lon="11.959079273670367"><ele>55.42857142857143</ele><time>2026-05-02T08:16:37.999Z</time></trkpt><trkpt lat="44.17956493940837" lon="11.95909582886489"><ele>55.285714285714285</ele><time>2026-05-02T08:16:39.999Z</time></trkpt><trkpt lat="44.17950787158291" lon="11.959143261582282"><ele>55.14285714285714</ele><time>2026-05-02T08:16:41.999Z</time></trkpt><trkpt lat="44.17945652538857" lon="11.959222383263892"><ele>55.0</ele><time>2026-05-02T08:16:43.999Z</time></trkpt><trkpt lat="44.17940961273149" lon="11.959312001402655"><ele>54.99999999999999</ele><time>2026-05-02T08:16:45.999Z</time></trkpt><trkpt lat="44.17941574623803" lon="11.959405978047718"><ele>55.0</ele><time>2026-05-02T08:16:47.999Z</time></trkpt><trkpt lat="44.17944556365255" lon="11.959499215713555"><ele>55.0</ele><time>2026-05-02T08:16:53.999Z</time></trkpt><trkpt lat="44.17941742283094" lon="11.959591968682984"><ele>55.0</ele><time>2026-05-02T08:16:56.999Z</time></trkpt><trkpt lat="44.179347340731745" lon="11.959626014693635"><ele>55.0</ele><time>2026-05-02T08:16:58.999Z</time></trkpt><trkpt lat="44.179280685632804" lon="11.959630833686926"><ele>54.99999999999999</ele><time>2026-05-02T08:17:00.999Z</time></trkpt><trkpt lat="44.179198749752" lon="11.959639068062408"><ele>55.0</ele><time>2026-05-02T08:17:04Z</time></trkpt><trkpt lat="44.17911224423002" lon="11.959664740865596"><ele>54.83333333333333</ele><time>2026-05-02T08:17:07Z</time></trkpt><trkpt lat="44.17901420342791" lon="11.959737028634894"><ele>54.666666666666664</ele><time>2026-05-02T08:17:10Z</time></trkpt><trkpt lat="44.17896764308879" lon="11.959833550873098"><ele>54.5</ele><time>2026-05-02T08:17:12Z</time></trkpt><trkpt lat="44.17892121061201" lon="11.959929523404057"><ele>54.33333333333333</ele><time>2026-05-02T08:17:14Z</time></trkpt><trkpt lat="44.178912372860104" lon="11.96003340048667"><ele>54.166666666666664</ele><time>2026-05-02T08:17:18Z</time></trkpt><trkpt lat="44.17891835765943" lon="11.960134931289076"><ele>54.0</ele><time>2026-05-02T08:17:24Z</time></trkpt><trkpt lat="44.17898248116473" lon="11.96011329485005"><ele>54.0</ele><time>2026-05-02T08:17:33Z</time></trkpt><trkpt lat="44.1790138927535" lon="11.960022265987705"><ele>54.0</ele><time>2026-05-02T08:17:38Z</time></trkpt><trkpt lat="44.17907181248589" lon="11.96006137556687"><ele>54.0</ele><time>2026-05-02T08:17:44Z</time></trkpt><trkpt lat="44.17913389211843" lon="11.960091044572861"><ele>54.0</ele><time>2026-05-02T08:17:49Z</time></trkpt><trkpt lat="44.179198972092685" lon="11.960090233647707"><ele>54.0</ele><time>2026-05-02T08:17:52Z</time></trkpt><trkpt lat="44.17926478941141" lon="11.960101549437633"><ele>54.0</ele><time>2026-05-02T08:17:55Z</time></trkpt><trkpt lat="44.179330182768545" lon="11.960126146055952"><ele>54.0</ele><time>2026-05-02T08:17:59Z</time></trkpt><trkpt lat="44.179402463425546" lon="11.960151174139746"><ele>54.0</ele><time>2026-05-02T08:18:04Z</time></trkpt><trkpt lat="44.17946695356129" lon="11.960180042868346"><ele>54.0</ele><time>2026-05-02T08:18:07Z</time></trkpt><trkpt lat="44.179539540651085" lon="11.960179813059993"><ele>54.0</ele><time>2026-05-02T08:18:10Z</time></trkpt><trkpt lat="44.179623748649604" lon="11.960196797306955"><ele>54.0</ele><time>2026-05-02T08:18:13Z</time></trkpt><trkpt lat="44.17969764958794" lon="11.960205660755571"><ele>54.0</ele><time>2026-05-02T08:18:16Z</time></trkpt><trkpt lat="44.17977183600836" lon="11.960223354018796"><ele>54.0</ele><time>2026-05-02T08:18:19Z</time></trkpt><trkpt lat="44.17986717177449" lon="11.960212796486058"><ele>54.400000000000006</ele><time>2026-05-02T08:18:22Z</time></trkpt><trkpt lat="44.17993244988306" lon="11.960192389204467"><ele>54.800000000000004</ele><time>2026-05-02T08:18:24Z</time></trkpt><trkpt lat="44.18002488810212" lon="11.960181912886872"><ele>55.199999999999996</ele><time>2026-05-02T08:18:26.999Z</time></trkpt><trkpt lat="44.18009925244419" lon="11.960166550410484"><ele>55.599999999999994</ele><time>2026-05-02T08:18:28.999Z</time></trkpt><trkpt lat="44.18030746456089" lon="11.960169968616247"><ele>56.0</ele><time>2026-05-02T08:18:35.999Z</time></trkpt><trkpt lat="44.18037072061567" lon="11.960184514528873"><ele>56.00000000000001</ele><time>2026-05-02T08:18:37.999Z</time></trkpt><trkpt lat="44.18044697283607" lon="11.960222694566095"><ele>56.0</ele><time>2026-05-02T08:18:40.999Z</time></trkpt><trkpt lat="44.18051260629799" lon="11.960254535390277"><ele>56.0</ele><time>2026-05-02T08:18:43.999Z</time></trkpt><trkpt lat="44.180587430418704" lon="11.960261864801662"><ele>56.0</ele><time>2026-05-02T08:18:47.999Z</time></trkpt><trkpt lat="44.18065544164091" lon="11.960178388871519"><ele>56.00000000000001</ele><time>2026-05-02T08:18:50.999Z</time></trkpt><trkpt lat="44.18070723941926" lon="11.960118681044202"><ele>56.0</ele><time>2026-05-02T08:18:52.999Z</time></trkpt><trkpt lat="44.18076167557741" lon="11.960056871256251"><ele>56.333333333333336</ele><time>2026-05-02T08:18:54.999Z</time></trkpt><trkpt lat="44.18081497794833" lon="11.959996941644663"><ele>56.66666666666667</ele><time>2026-05-02T08:18:56.999Z</time></trkpt><trkpt lat="44.18088831000058" lon="11.959916267938087"><ele>57.0</ele><time>2026-05-02T08:18:59.999Z</time></trkpt><trkpt lat="44.18095671387748" lon="11.959827854945459"><ele>57.33333333333333</ele><time>2026-05-02T08:19:02.999Z</time></trkpt><trkpt lat="44.18099879665045" lon="11.959761484110901"><ele>57.666666666666664</ele><time>2026-05-02T08:19:04.999Z</time></trkpt><trkpt lat="44.18103255399718" lon="11.959676183855233"><ele>58.0</ele><time>2026-05-02T08:19:06.999Z</time></trkpt><trkpt lat="44.18108828475617" lon="11.959582620421756"><ele>57.99999999999999</ele><time>2026-05-02T08:19:10Z</time></trkpt><trkpt lat="44.181140995681226" lon="11.959484325082512"><ele>58.0</ele><time>2026-05-02T08:19:13Z</time></trkpt><trkpt lat="44.18120812444357" lon="11.959406211925192"><ele>58.0</ele><time>2026-05-02T08:19:16Z</time></trkpt><trkpt lat="44.1812821812669" lon="11.95938155869431"><ele>58.0</ele><time>2026-05-02T08:19:19Z</time></trkpt><trkpt lat="44.18136227299847" lon="11.959426221186122"><ele>57.99999999999999</ele><time>2026-05-02T08:19:22Z</time></trkpt><trkpt lat="44.18142040485176" lon="11.959476642542251"><ele>58.0</ele><time>2026-05-02T08:19:24Z</time></trkpt><trkpt lat="44.181484868373566" lon="11.959508999128047"><ele>58.49999999999999</ele><time>2026-05-02T08:19:26Z</time></trkpt><trkpt lat="44.181555556117935" lon="11.959543640974111"><ele>59.0</ele><time>2026-05-02T08:19:28Z</time></trkpt><trkpt lat="44.181624358239205" lon="11.959582746816338"><ele>59.5</ele><time>2026-05-02T08:19:30Z</time></trkpt><trkpt lat="44.18170328022418" lon="11.959615399224894"><ele>60.0</ele><time>2026-05-02T08:19:32Z</time></trkpt><trkpt lat="44.18177323414839" lon="11.959671641527523"><ele>60.49999999999999</ele><time>2026-05-02T08:19:34Z</time></trkpt><trkpt lat="44.18185032639213" lon="11.959715918634863"><ele>61.0</ele><time>2026-05-02T08:19:36Z</time></trkpt><trkpt lat="44.181939204954176" lon="11.959751497822804"><ele>61.0</ele><time>2026-05-02T08:19:38Z</time></trkpt><trkpt lat="44.182044844970285" lon="11.95980907669214"><ele>60.99999999999999</ele><time>2026-05-02T08:19:40Z</time></trkpt><trkpt lat="44.1821348477797" lon="11.959901590621717"><ele>60.99999999999999</ele><time>2026-05-02T08:19:42Z</time></trkpt><trkpt lat="44.18222799567224" lon="11.959954927525867"><ele>61.0</ele><time>2026-05-02T08:19:44Z</time></trkpt><trkpt lat="44.18234287514446" lon="11.959961967716549"><ele>61.0</ele><time>2026-05-02T08:19:46Z</time></trkpt><trkpt lat="44.18243060639855" lon="11.959981936247672"><ele>60.49999999999999</ele><time>2026-05-02T08:19:48Z</time></trkpt><trkpt lat="44.18247673258703" lon="11.95984435306466"><ele>60.0</ele><time>2026-05-02T08:19:49Z</time></trkpt><trkpt lat="44.18252807248136" lon="11.959740403397873"><ele>59.5</ele><time>2026-05-02T08:19:51Z</time></trkpt><trkpt lat="44.18258378008636" lon="11.959671022378535"><ele>59.0</ele><time>2026-05-02T08:19:53Z</time></trkpt><trkpt lat="44.18264964903225" lon="11.95960503124298"><ele>58.49999999999999</ele><time>2026-05-02T08:19:55Z</time></trkpt><trkpt lat="44.18268931461797" lon="11.959529179783594"><ele>58.0</ele><time>2026-05-02T08:19:57Z</time></trkpt><trkpt lat="44.182747338665855" lon="11.959454714628237"><ele>58.00000000000001</ele><time>2026-05-02T08:19:59Z</time></trkpt><trkpt lat="44.182806578563" lon="11.959388753017366"><ele>58.0</ele><time>2026-05-02T08:20:01Z</time></trkpt><trkpt lat="44.18285693532568" lon="11.95932901583694"><ele>58.00000000000001</ele><time>2026-05-02T08:20:03Z</time></trkpt><trkpt lat="44.18290359589646" lon="11.959268438589401"><ele>58.00000000000001</ele><time>2026-05-02T08:20:05Z</time></trkpt><trkpt lat="44.1829552913297" lon="11.959211015214166"><ele>58.0</ele><time>2026-05-02T08:20:07Z</time></trkpt><trkpt lat="44.18300139288009" lon="11.95914501460692"><ele>58.00000000000001</ele><time>2026-05-02T08:20:09Z</time></trkpt><trkpt lat="44.18304968763105" lon="11.959080233763414"><ele>58.00000000000001</ele><time>2026-05-02T08:20:11Z</time></trkpt><trkpt lat="44.183093536024124" lon="11.959014192343009"><ele>58.28571428571429</ele><time>2026-05-02T08:20:13Z</time></trkpt><trkpt lat="44.183137304453716" lon="11.958949869067487"><ele>58.57142857142857</ele><time>2026-05-02T08:20:15Z</time></trkpt><trkpt lat="44.18318730781419" lon="11.958886325199243"><ele>58.85714285714286</ele><time>2026-05-02T08:20:17Z</time></trkpt><trkpt lat="44.18322827429849" lon="11.958813494159887"><ele>59.142857142857146</ele><time>2026-05-02T08:20:19Z</time></trkpt><trkpt lat="44.18329665144535" lon="11.95871700898444"><ele>59.42857142857143</ele><time>2026-05-02T08:20:22Z</time></trkpt><trkpt lat="44.1833437758922" lon="11.958651658947293"><ele>59.714285714285715</ele><time>2026-05-02T08:20:24Z</time></trkpt><trkpt lat="44.18339342476197" lon="11.95859007976206"><ele>60.0</ele><time>2026-05-02T08:20:26Z</time></trkpt><trkpt lat="44.18345012988666" lon="11.95851052144832"><ele>60.166666666666664</ele><time>2026-05-02T08:20:28Z</time></trkpt><trkpt lat="44.18350186234203" lon="11.958447501591701"><ele>60.33333333333333</ele><time>2026-05-02T08:20:30Z</time></trkpt><trkpt lat="44.18355583763005" lon="11.958382319069191"><ele>60.5</ele><time>2026-05-02T08:20:32Z</time></trkpt><trkpt lat="44.18360441413969" lon="11.958306223757283"><ele>60.666666666666664</ele><time>2026-05-02T08:20:34Z</time></trkpt><trkpt lat="44.18366116710968" lon="11.958227076576856"><ele>60.83333333333333</ele><time>2026-05-02T08:20:35.999Z</time></trkpt><trkpt lat="44.18372385179474" lon="11.95815579058059"><ele>61.0</ele><time>2026-05-02T08:20:37.999Z</time></trkpt><trkpt lat="44.18380118931789" lon="11.958150290145777"><ele>61.33333333333333</ele><time>2026-05-02T08:20:39.999Z</time></trkpt><trkpt lat="44.183878793521394" lon="11.95821236162606"><ele>61.666666666666664</ele><time>2026-05-02T08:20:41.999Z</time></trkpt><trkpt lat="44.18394103545162" lon="11.958292075145867"><ele>62.0</ele><time>2026-05-02T08:20:43.999Z</time></trkpt><trkpt lat="44.18401363183151" lon="11.958338101350858"><ele>62.33333333333333</ele><time>2026-05-02T08:20:45.999Z</time></trkpt><trkpt lat="44.18408116576548" lon="11.958382614133427"><ele>62.666666666666664</ele><time>2026-05-02T08:20:47.999Z</time></trkpt><trkpt lat="44.18414324506976" lon="11.958427359201389"><ele>63.0</ele><time>2026-05-02T08:20:49.999Z</time></trkpt><trkpt lat="44.184227124222815" lon="11.958477151505438"><ele>63.42857142857143</ele><time>2026-05-02T08:20:53.016Z</time></trkpt><trkpt lat="44.184298802676075" lon="11.958562914125388"><ele>63.85714285714286</ele><time>2026-05-02T08:20:55.999Z</time></trkpt><trkpt lat="44.1843187325991" lon="11.958656144024351"><ele>64.28571428571428</ele><time>2026-05-02T08:20:58.999Z</time></trkpt><trkpt lat="44.18431690233981" lon="11.95874693126828"><ele>64.71428571428572</ele><time>2026-05-02T08:21:01.999Z</time></trkpt><trkpt lat="44.184319588664074" lon="11.958838533948871"><ele>65.14285714285714</ele><time>2026-05-02T08:21:04.999Z</time></trkpt><trkpt lat="44.184293979863796" lon="11.958925036552031"><ele>65.57142857142857</ele><time>2026-05-02T08:21:07.999Z</time></trkpt><trkpt lat="44.18433493140515" lon="11.959012450347913"><ele>66.0</ele><time>2026-05-02T08:21:10.999Z</time></trkpt><trkpt lat="44.18441309268889" lon="11.95906965977831"><ele>66.0</ele><time>2026-05-02T08:21:13.999Z</time></trkpt><trkpt lat="44.184485680946935" lon="11.959155879593357"><ele>66.0</ele><time>2026-05-02T08:21:17Z</time></trkpt><trkpt lat="44.18456703166136" lon="11.959216643622854"><ele>66.0</ele><time>2026-05-02T08:21:20Z</time></trkpt><trkpt lat="44.184647714852325" lon="11.959290370861867"><ele>66.0</ele><time>2026-05-02T08:21:23Z</time></trkpt><trkpt lat="44.18470630434383" lon="11.959331669697098"><ele>66.0</ele><time>2026-05-02T08:21:25Z</time></trkpt><trkpt lat="44.18479322989484" lon="11.959389545818624"><ele>66.0</ele><time>2026-05-02T08:21:28Z</time></trkpt><trkpt lat="44.184876909813156" lon="11.959443733010804"><ele>65.5</ele><time>2026-05-02T08:21:31Z</time></trkpt><trkpt lat="44.18493803762516" lon="11.959473454489675"><ele>65.0</ele><time>2026-05-02T08:21:33Z</time></trkpt><trkpt lat="44.18499105881984" lon="11.959548090393483"><ele>64.5</ele><time>2026-05-02T08:21:35Z</time></trkpt><trkpt lat="44.18503030355144" lon="11.959638913346064"><ele>64.0</ele><time>2026-05-02T08:21:38Z</time></trkpt><trkpt lat="44.18500588706069" lon="11.959728479091858"><ele>63.5</ele><time>2026-05-02T08:21:40Z</time></trkpt><trkpt lat="44.18496269101513" lon="11.959842721299108"><ele>63.0</ele><time>2026-05-02T08:21:43Z</time></trkpt><trkpt lat="44.1849262008368" lon="11.959936779746641"><ele>63.0</ele><time>2026-05-02T08:21:45Z</time></trkpt><trkpt lat="44.18489534245616" lon="11.96001798895264"><ele>63.0</ele><time>2026-05-02T08:21:47Z</time></trkpt><trkpt lat="44.184867065631444" lon="11.960103363658217"><ele>63.0</ele><time>2026-05-02T08:21:49Z</time></trkpt><trkpt lat="44.18483632396157" lon="11.960214733559107"><ele>63.0</ele><time>2026-05-02T08:21:52Z</time></trkpt><trkpt lat="44.18484083206882" lon="11.960307205356052"><ele>63.0</ele><time>2026-05-02T08:21:55Z</time></trkpt><trkpt lat="44.184893640552474" lon="11.960366083354993"><ele>63.0</ele><time>2026-05-02T08:21:57Z</time></trkpt><trkpt lat="44.18495134077232" lon="11.960426495936208"><ele>63.0</ele><time>2026-05-02T08:21:59Z</time></trkpt><trkpt lat="44.18501663186569" lon="11.960488961973045"><ele>62.333333333333336</ele><time>2026-05-02T08:22:01Z</time></trkpt><trkpt lat="44.18507534015012" lon="11.960563286018514"><ele>61.66666666666667</ele><time>2026-05-02T08:22:03Z</time></trkpt><trkpt lat="44.185144572514226" lon="11.960621694194286"><ele>61.0</ele><time>2026-05-02T08:22:05Z</time></trkpt><trkpt lat="44.18521160654062" lon="11.960687970573192"><ele>60.333333333333336</ele><time>2026-05-02T08:22:07Z</time></trkpt><trkpt lat="44.18526395563619" lon="11.960771794733876"><ele>59.66666666666667</ele><time>2026-05-02T08:22:09Z</time></trkpt><trkpt lat="44.18533394810486" lon="11.960850230971872"><ele>59.0</ele><time>2026-05-02T08:22:11Z</time></trkpt><trkpt lat="44.18540659227233" lon="11.960923800156008"><ele>58.800000000000004</ele><time>2026-05-02T08:22:13Z</time></trkpt><trkpt lat="44.18548694005722" lon="11.960993975638598"><ele>58.60000000000001</ele><time>2026-05-02T08:22:15Z</time></trkpt><trkpt lat="44.18557175822356" lon="11.961079284461182"><ele>58.4</ele><time>2026-05-02T08:22:17Z</time></trkpt><trkpt lat="44.185658119066815" lon="11.96115198498851"><ele>58.2</ele><time>2026-05-02T08:22:19Z</time></trkpt><trkpt lat="44.185744258756195" lon="11.961225382217913"><ele>58.0</ele><time>2026-05-02T08:22:21Z</time></trkpt><trkpt lat="44.18582482671457" lon="11.961294534970882"><ele>57.99999999999999</ele><time>2026-05-02T08:22:23Z</time></trkpt><trkpt lat="44.18589002735641" lon="11.961307947580023"><ele>58.0</ele><time>2026-05-02T08:22:25Z</time></trkpt><trkpt lat="44.18592424518367" lon="11.961174648972385"><ele>58.0</ele><time>2026-05-02T08:22:27Z</time></trkpt><trkpt lat="44.18596183476879" lon="11.96106808422549"><ele>58.0</ele><time>2026-05-02T08:22:29Z</time></trkpt><trkpt lat="44.18599578332888" lon="11.960961762391234"><ele>57.99999999999999</ele><time>2026-05-02T08:22:31Z</time></trkpt><trkpt lat="44.186036089655715" lon="11.96086048420298"><ele>58.0</ele><time>2026-05-02T08:22:33Z</time></trkpt><trkpt lat="44.18610363645809" lon="11.960753519015489"><ele>58.83333333333333</ele><time>2026-05-02T08:22:35Z</time></trkpt><trkpt lat="44.186135051900166" lon="11.9606685279129"><ele>59.666666666666664</ele><time>2026-05-02T08:22:37Z</time></trkpt><trkpt lat="44.18618280925261" lon="11.960580349102758"><ele>60.5</ele><time>2026-05-02T08:22:38.999Z</time></trkpt><trkpt lat="44.18624350936897" lon="11.96049843694174"><ele>61.33333333333333</ele><time>2026-05-02T08:22:41.999Z</time></trkpt><trkpt lat="44.18630151009382" lon="11.960417153990813"><ele>62.166666666666664</ele><time>2026-05-02T08:22:44.999Z</time></trkpt><trkpt lat="44.186315552051276" lon="11.960326204764971"><ele>63.0</ele><time>2026-05-02T08:22:47.999Z</time></trkpt><trkpt lat="44.18634276831202" lon="11.960238040449878"><ele>63.0</ele><time>2026-05-02T08:22:51.999Z</time></trkpt><trkpt lat="44.18632582257111" lon="11.960326148744763"><ele>63.0</ele><time>2026-05-02T08:22:56.999Z</time></trkpt><trkpt lat="44.18628917694053" lon="11.960417823234536"><ele>63.0</ele><time>2026-05-02T08:22:59.999Z</time></trkpt><trkpt lat="44.18634518301047" lon="11.960340922599018"><ele>63.0</ele><time>2026-05-02T08:23:06.999Z</time></trkpt><trkpt lat="44.18637958598187" lon="11.960244145089826"><ele>63.0</ele><time>2026-05-02T08:23:08.999Z</time></trkpt><trkpt lat="44.186627873331894" lon="11.960221176639072"><ele>62.599999999999994</ele><time>2026-05-02T08:23:16.999Z</time></trkpt><trkpt lat="44.18675342940528" lon="11.96051133054226"><ele>62.199999999999996</ele><time>2026-05-02T08:23:18.999Z</time></trkpt><trkpt lat="44.18680983198372" lon="11.96055750495501"><ele>61.8</ele><time>2026-05-02T08:23:19.999Z</time></trkpt><trkpt lat="44.18687402413798" lon="11.960603098610738"><ele>61.4</ele><time>2026-05-02T08:23:21.999Z</time></trkpt><trkpt lat="44.18693842200753" lon="11.960623506807266"><ele>61.0</ele><time>2026-05-02T08:23:24Z</time></trkpt><trkpt lat="44.18699153348898" lon="11.96067068337313"><ele>60.99999999999999</ele><time>2026-05-02T08:23:26Z</time></trkpt><trkpt lat="44.1870555232629" lon="11.960720986377565"><ele>61.0</ele><time>2026-05-02T08:23:29Z</time></trkpt><trkpt lat="44.18712885384158" lon="11.960757856750208"><ele>60.99999999999999</ele><time>2026-05-02T08:23:32Z</time></trkpt><trkpt lat="44.18719038057624" lon="11.960785351075973"><ele>60.99999999999999</ele><time>2026-05-02T08:23:35Z</time></trkpt><trkpt lat="44.18723746230516" lon="11.960846144992315"><ele>61.0</ele><time>2026-05-02T08:23:41Z</time></trkpt><trkpt lat="44.18729609720096" lon="11.960884284135226"><ele>60.99999999999999</ele><time>2026-05-02T08:23:52Z</time></trkpt><trkpt lat="44.1872212635946" lon="11.960874615496914"><ele>60.99999999999999</ele><time>2026-05-02T08:23:58Z</time></trkpt><trkpt lat="44.18715556898447" lon="11.960845176195784"><ele>60.99999999999999</ele><time>2026-05-02T08:24:01Z</time></trkpt><trkpt lat="44.18709176430205" lon="11.960818112005274"><ele>61.0</ele><time>2026-05-02T08:24:04Z</time></trkpt><trkpt lat="44.18702746583319" lon="11.960821505675748"><ele>60.99999999999999</ele><time>2026-05-02T08:24:08Z</time></trkpt><trkpt lat="44.18701414946459" lon="11.960916080289735"><ele>60.99999999999999</ele><time>2026-05-02T08:24:12Z</time></trkpt><trkpt lat="44.186990319669825" lon="11.961004257873398"><ele>61.0</ele><time>2026-05-02T08:24:15Z</time></trkpt><trkpt lat="44.18697123316189" lon="11.961097081646049"><ele>60.99999999999999</ele><time>2026-05-02T08:24:18Z</time></trkpt><trkpt lat="44.18694965097411" lon="11.961199332182524"><ele>60.99999999999999</ele><time>2026-05-02T08:24:21Z</time></trkpt><trkpt lat="44.186913454330025" lon="11.961310412127418"><ele>60.666666666666664</ele><time>2026-05-02T08:24:24Z</time></trkpt><trkpt lat="44.18689667136443" lon="11.961399434777551"><ele>60.33333333333333</ele><time>2026-05-02T08:24:26Z</time></trkpt><trkpt lat="44.18684877526701" lon="11.961513779201685"><ele>60.0</ele><time>2026-05-02T08:24:28Z</time></trkpt><trkpt lat="44.186827735013665" lon="11.96160989857217"><ele>59.66666666666667</ele><time>2026-05-02T08:24:30Z</time></trkpt><trkpt lat="44.1868030972012" lon="11.96171432322616"><ele>59.333333333333336</ele><time>2026-05-02T08:24:32Z</time></trkpt><trkpt lat="44.186781898432685" lon="11.961831171742935"><ele>59.0</ele><time>2026-05-02T08:24:34Z</time></trkpt><trkpt lat="44.18675558263099" lon="11.961932074260421"><ele>58.66666666666667</ele><time>2026-05-02T08:24:36Z</time></trkpt><trkpt lat="44.186725637873785" lon="11.962033358024863"><ele>58.333333333333336</ele><time>2026-05-02T08:24:38Z</time></trkpt><trkpt lat="44.1866992220151" lon="11.962152829205284"><ele>58.0</ele><time>2026-05-02T08:24:40Z</time></trkpt><trkpt lat="44.18666985550338" lon="11.96226032489232"><ele>57.66666666666667</ele><time>2026-05-02T08:24:42Z</time></trkpt><trkpt lat="44.18664510228701" lon="11.96237601332198"><ele>57.333333333333336</ele><time>2026-05-02T08:24:44Z</time></trkpt><trkpt lat="44.186616454502264" lon="11.96248984488927"><ele>57.0</ele><time>2026-05-02T08:24:46Z</time></trkpt><trkpt lat="44.18658660964178" lon="11.962600304392637"><ele>56.5</ele><time>2026-05-02T08:24:48Z</time></trkpt><trkpt lat="44.18656241171564" lon="11.962703041629975"><ele>56.0</ele><time>2026-05-02T08:24:49.999Z</time></trkpt><trkpt lat="44.18653982624429" lon="11.962809800071042"><ele>55.5</ele><time>2026-05-02T08:24:51.999Z</time></trkpt><trkpt lat="44.18650864661212" lon="11.962922725184063"><ele>55.0</ele><time>2026-05-02T08:24:53.999Z</time></trkpt><trkpt lat="44.1864707070281" lon="11.963039198004045"><ele>54.5</ele><time>2026-05-02T08:24:55.999Z</time></trkpt><trkpt lat="44.18643694831805" lon="11.963171670824147"><ele>54.0</ele><time>2026-05-02T08:24:57.999Z</time></trkpt><trkpt lat="44.18647772317033" lon="11.963317651046003"><ele>53.0</ele><time>2026-05-02T08:24:59.999Z</time></trkpt><trkpt lat="44.18656450593875" lon="11.963418253827193"><ele>52.00000000000001</ele><time>2026-05-02T08:25:01.999Z</time></trkpt><trkpt lat="44.18665702523795" lon="11.963498019980392"><ele>51.0</ele><time>2026-05-02T08:25:03.999Z</time></trkpt><trkpt lat="44.186755770963664" lon="11.963574093933953"><ele>50.0</ele><time>2026-05-02T08:25:05.999Z</time></trkpt><trkpt lat="44.1868269253236" lon="11.963670055658708"><ele>49.0</ele><time>2026-05-02T08:25:07.999Z</time></trkpt><trkpt lat="44.186849814029166" lon="11.963769419765326"><ele>49.0</ele><time>2026-05-02T08:25:09.999Z</time></trkpt><trkpt lat="44.18679577855729" lon="11.96389435578477"><ele>49.0</ele><time>2026-05-02T08:25:11.999Z</time></trkpt><trkpt lat="44.18672134310643" lon="11.96399758170045"><ele>49.0</ele><time>2026-05-02T08:25:13.999Z</time></trkpt><trkpt lat="44.186632503456885" lon="11.964059540171336"><ele>49.0</ele><time>2026-05-02T08:25:15.999Z</time></trkpt><trkpt lat="44.186547969842714" lon="11.96410411628633"><ele>49.0</ele><time>2026-05-02T08:25:17.999Z</time></trkpt><trkpt lat="44.18646384737285" lon="11.964160866355744"><ele>49.0</ele><time>2026-05-02T08:25:19.999Z</time></trkpt><trkpt lat="44.18637595251131" lon="11.96420111555383"><ele>49.0</ele><time>2026-05-02T08:25:21.999Z</time></trkpt><trkpt lat="44.186286215122394" lon="11.964241188566954"><ele>49.0</ele><time>2026-05-02T08:25:23.999Z</time></trkpt><trkpt lat="44.186196884047206" lon="11.964283432938805"><ele>49.0</ele><time>2026-05-02T08:25:25.999Z</time></trkpt><trkpt lat="44.186100666113" lon="11.964333681976477"><ele>49.0</ele><time>2026-05-02T08:25:27.999Z</time></trkpt><trkpt lat="44.186000900471306" lon="11.96438131920201"><ele>49.0</ele><time>2026-05-02T08:25:30Z</time></trkpt><trkpt lat="44.185903495309496" lon="11.96442995612705"><ele>49.0</ele><time>2026-05-02T08:25:32Z</time></trkpt><trkpt lat="44.185803054563024" lon="11.964474228430719"><ele>49.0</ele><time>2026-05-02T08:25:34Z</time></trkpt><trkpt lat="44.185705326276896" lon="11.964523806341507"><ele>49.0</ele><time>2026-05-02T08:25:36Z</time></trkpt><trkpt lat="44.18561161593833" lon="11.96457098616317"><ele>49.0</ele><time>2026-05-02T08:25:38Z</time></trkpt><trkpt lat="44.185511817479934" lon="11.964619886955594"><ele>49.6</ele><time>2026-05-02T08:25:40Z</time></trkpt><trkpt lat="44.1854102082793" lon="11.96466764373687"><ele>50.2</ele><time>2026-05-02T08:25:42Z</time></trkpt><trkpt lat="44.18531017051586" lon="11.964711374870104"><ele>50.800000000000004</ele><time>2026-05-02T08:25:44Z</time></trkpt><trkpt lat="44.185203414547544" lon="11.964728738098982"><ele>51.400000000000006</ele><time>2026-05-02T08:25:46Z</time></trkpt><trkpt lat="44.18510671604439" lon="11.964785202419462"><ele>52.0</ele><time>2026-05-02T08:25:48Z</time></trkpt><trkpt lat="44.18501093393014" lon="11.964827572400127"><ele>51.99999999999999</ele><time>2026-05-02T08:25:50Z</time></trkpt><trkpt lat="44.18492460535445" lon="11.96486389931127"><ele>52.0</ele><time>2026-05-02T08:25:52Z</time></trkpt><trkpt lat="44.18484770633809" lon="11.964914680531008"><ele>52.0</ele><time>2026-05-02T08:25:54Z</time></trkpt><trkpt lat="44.18477789894967" lon="11.96497626684004"><ele>52.0</ele><time>2026-05-02T08:25:56Z</time></trkpt><trkpt lat="44.18471211837823" lon="11.965034499277497"><ele>51.99999999999999</ele><time>2026-05-02T08:25:58Z</time></trkpt><trkpt lat="44.18465156041749" lon="11.965099282919178"><ele>52.0</ele><time>2026-05-02T08:26:00Z</time></trkpt><trkpt lat="44.18459289497926" lon="11.965171392624667"><ele>52.166666666666664</ele><time>2026-05-02T08:26:02Z</time></trkpt><trkpt lat="44.184530589202254" lon="11.965247227745081"><ele>52.33333333333333</ele><time>2026-05-02T08:26:04Z</time></trkpt><trkpt lat="44.18446183750475" lon="11.965311787516432"><ele>52.5</ele><time>2026-05-02T08:26:06Z</time></trkpt><trkpt lat="44.18440601031433" lon="11.965377682212305"><ele>52.66666666666667</ele><time>2026-05-02T08:26:08Z</time></trkpt><trkpt lat="44.18434761722028" lon="11.965448842262735"><ele>52.833333333333336</ele><time>2026-05-02T08:26:10Z</time></trkpt><trkpt lat="44.184296829574535" lon="11.965513292469874"><ele>53.0</ele><time>2026-05-02T08:26:12Z</time></trkpt><trkpt lat="44.18425097940597" lon="11.965588246834642"><ele>53.0</ele><time>2026-05-02T08:26:14Z</time></trkpt><trkpt lat="44.18419172956185" lon="11.965655382768679"><ele>53.0</ele><time>2026-05-02T08:26:16Z</time></trkpt><trkpt lat="44.184134083134396" lon="11.965709671119317"><ele>53.0</ele><time>2026-05-02T08:26:18Z</time></trkpt><trkpt lat="44.184081805679234" lon="11.965772964138175"><ele>53.0</ele><time>2026-05-02T08:26:20Z</time></trkpt><trkpt lat="44.18403427094583" lon="11.965834018353254"><ele>53.0</ele><time>2026-05-02T08:26:22Z</time></trkpt><trkpt lat="44.18398665354286" lon="11.96589447791734"><ele>53.0</ele><time>2026-05-02T08:26:24Z</time></trkpt><trkpt lat="44.1839247553049" lon="11.965980299965903"><ele>53.0</ele><time>2026-05-02T08:26:27Z</time></trkpt><trkpt lat="44.18387007750545" lon="11.966052495554045"><ele>54.142857142857146</ele><time>2026-05-02T08:26:30Z</time></trkpt><trkpt lat="44.183825892590555" lon="11.966115995628378"><ele>55.28571428571428</ele><time>2026-05-02T08:26:33Z</time></trkpt><trkpt lat="44.18378412830203" lon="11.966183571097186"><ele>56.42857142857142</ele><time>2026-05-02T08:26:36Z</time></trkpt><trkpt lat="44.183732185990024" lon="11.966272197183565"><ele>57.57142857142857</ele><time>2026-05-02T08:26:40Z</time></trkpt><trkpt lat="44.18367705970227" lon="11.966342800393098"><ele>58.71428571428571</ele><time>2026-05-02T08:26:44Z</time></trkpt><trkpt lat="44.18362131948038" lon="11.966417634348261"><ele>59.85714285714285</ele><time>2026-05-02T08:26:48Z</time></trkpt><trkpt lat="44.183569195607866" lon="11.966491077308758"><ele>60.99999999999999</ele><time>2026-05-02T08:26:52Z</time></trkpt><trkpt lat="44.18351616324614" lon="11.966574523066665"><ele>60.99999999999999</ele><time>2026-05-02T08:26:55.999Z</time></trkpt><trkpt lat="44.18347601695758" lon="11.9666599094283"><ele>61.0</ele><time>2026-05-02T08:26:59.999Z</time></trkpt><trkpt lat="44.18345243674873" lon="11.966762685530808"><ele>61.0</ele><time>2026-05-02T08:27:03.999Z</time></trkpt><trkpt lat="44.18341154075265" lon="11.966852279939978"><ele>61.0</ele><time>2026-05-02T08:27:07.999Z</time></trkpt><trkpt lat="44.1833626002399" lon="11.966950272707178"><ele>60.99999999999999</ele><time>2026-05-02T08:27:11.999Z</time></trkpt><trkpt lat="44.18330975948162" lon="11.96701938963077"><ele>61.0</ele><time>2026-05-02T08:27:15.999Z</time></trkpt><trkpt lat="44.18343207132178" lon="11.96706183929886"><ele>61.28571428571428</ele><time>2026-05-02T08:27:19.999Z</time></trkpt><trkpt lat="44.18350346243483" lon="11.967030142814435"><ele>61.57142857142857</ele><time>2026-05-02T08:27:21.999Z</time></trkpt><trkpt lat="44.1835803734358" lon="11.967006859024515"><ele>61.857142857142854</ele><time>2026-05-02T08:27:23.999Z</time></trkpt><trkpt lat="44.18364000466169" lon="11.966975448973027"><ele>62.14285714285714</ele><time>2026-05-02T08:27:25.999Z</time></trkpt><trkpt lat="44.18371255927132" lon="11.966958993701965"><ele>62.42857142857143</ele><time>2026-05-02T08:27:29.999Z</time></trkpt><trkpt lat="44.18377434412019" lon="11.9669240953648"><ele>62.714285714285715</ele><time>2026-05-02T08:27:32.999Z</time></trkpt><trkpt lat="44.18383426548453" lon="11.966886872921242"><ele>63.0</ele><time>2026-05-02T08:27:38Z</time></trkpt><trkpt lat="44.18390525211937" lon="11.966907370945563"><ele>63.0</ele><time>2026-05-02T08:27:42Z</time></trkpt><trkpt lat="44.183961956517514" lon="11.966867353009281"><ele>63.0</ele><time>2026-05-02T08:27:51Z</time></trkpt><trkpt lat="44.184033196703055" lon="11.966833502583095"><ele>63.0</ele><time>2026-05-02T08:27:54Z</time></trkpt><trkpt lat="44.184075150585144" lon="11.966763482745602"><ele>63.0</ele><time>2026-05-02T08:27:58Z</time></trkpt><trkpt lat="44.18401268992033" lon="11.966775330682992"><ele>63.0</ele><time>2026-05-02T08:28:00Z</time></trkpt><trkpt lat="44.18395303128218" lon="11.966806291677534"><ele>63.0</ele><time>2026-05-02T08:28:02Z</time></trkpt><trkpt lat="44.18387285999395" lon="11.966841530112875"><ele>63.0</ele><time>2026-05-02T08:28:05Z</time></trkpt><trkpt lat="44.18380102973471" lon="11.966873811297685"><ele>63.0</ele><time>2026-05-02T08:28:08Z</time></trkpt><trkpt lat="44.183728676669055" lon="11.966914151744595"><ele>63.0</ele><time>2026-05-02T08:28:11Z</time></trkpt><trkpt lat="44.18366509054746" lon="11.966946576831242"><ele>63.0</ele><time>2026-05-02T08:28:15Z</time></trkpt><trkpt lat="44.18374143189138" lon="11.966964093281838"><ele>63.0</ele><time>2026-05-02T08:28:25Z</time></trkpt><trkpt lat="44.18381059263476" lon="11.966939026636533"><ele>63.0</ele><time>2026-05-02T08:28:28Z</time></trkpt><trkpt lat="44.18389731112138" lon="11.96693139107005"><ele>63.0</ele><time>2026-05-02T08:28:31Z</time></trkpt><trkpt lat="44.183908038485875" lon="11.96704328496041"><ele>63.0</ele><time>2026-05-02T08:28:33Z</time></trkpt><trkpt lat="44.183866529184506" lon="11.967163768250698"><ele>63.0</ele><time>2026-05-02T08:28:36Z</time></trkpt><trkpt lat="44.18387706741677" lon="11.967074425198714"><ele>63.0</ele><time>2026-05-02T08:28:41Z</time></trkpt><trkpt lat="44.18389690733354" lon="11.96696779905071"><ele>63.0</ele><time>2026-05-02T08:28:44Z</time></trkpt><trkpt lat="44.183832694693365" lon="11.966943913690876"><ele>63.0</ele><time>2026-05-02T08:28:47Z</time></trkpt><trkpt lat="44.18376207192473" lon="11.966979548196322"><ele>63.0</ele><time>2026-05-02T08:28:50Z</time></trkpt><trkpt lat="44.18368300425597" lon="11.96701347001459"><ele>63.0</ele><time>2026-05-02T08:28:53Z</time></trkpt><trkpt lat="44.183595303183274" lon="11.967045346014604"><ele>63.0</ele><time>2026-05-02T08:28:56.999Z</time></trkpt><trkpt lat="44.18351313092206" lon="11.967083623621756"><ele>63.0</ele><time>2026-05-02T08:28:59.999Z</time></trkpt><trkpt lat="44.183437258198055" lon="11.96711264449783"><ele>63.0</ele><time>2026-05-02T08:29:02.999Z</time></trkpt><trkpt lat="44.18336238361155" lon="11.967142320808644"><ele>63.0</ele><time>2026-05-02T08:29:05.999Z</time></trkpt><trkpt lat="44.183287708334156" lon="11.967162900492253"><ele>63.0</ele><time>2026-05-02T08:29:08.999Z</time></trkpt><trkpt lat="44.183216761632615" lon="11.967185529101814"><ele>63.0</ele><time>2026-05-02T08:29:11.999Z</time></trkpt><trkpt lat="44.18315162713963" lon="11.967207077377234"><ele>63.0</ele><time>2026-05-02T08:29:14.999Z</time></trkpt><trkpt lat="44.1832372012699" lon="11.967208733414513"><ele>63.0</ele><time>2026-05-02T08:29:24.999Z</time></trkpt><trkpt lat="44.18330960292098" lon="11.967240448525313"><ele>63.0</ele><time>2026-05-02T08:29:27.999Z</time></trkpt><trkpt lat="44.18337631815501" lon="11.967214586091385"><ele>63.0</ele><time>2026-05-02T08:29:30.999Z</time></trkpt><trkpt lat="44.18343854456594" lon="11.967237374438609"><ele>63.0</ele><time>2026-05-02T08:29:33.999Z</time></trkpt><trkpt lat="44.18344117434446" lon="11.96732601527089"><ele>63.0</ele><time>2026-05-02T08:29:36.999Z</time></trkpt><trkpt lat="44.183421847899616" lon="11.967413727797865"><ele>63.0</ele><time>2026-05-02T08:29:39.999Z</time></trkpt><trkpt lat="44.18338486652955" lon="11.967490482337631"><ele>63.0</ele><time>2026-05-02T08:29:43Z</time></trkpt><trkpt lat="44.18333527506014" lon="11.96755502464126"><ele>63.0</ele><time>2026-05-02T08:29:46Z</time></trkpt><trkpt lat="44.183326653457996" lon="11.967709679990183"><ele>63.0</ele><time>2026-05-02T08:30:06Z</time></trkpt><trkpt lat="44.18325455764821" lon="11.967760681706169"><ele>63.0</ele><time>2026-05-02T08:30:10Z</time></trkpt><trkpt lat="44.18318886104145" lon="11.967818138105654"><ele>63.0</ele><time>2026-05-02T08:30:14Z</time></trkpt><trkpt lat="44.18312970067083" lon="11.967864497827936"><ele>63.285714285714285</ele><time>2026-05-02T08:30:18Z</time></trkpt><trkpt lat="44.18316843064373" lon="11.96795487958733"><ele>63.57142857142857</ele><time>2026-05-02T08:30:22Z</time></trkpt><trkpt lat="44.183222163140414" lon="11.96800305769388"><ele>63.85714285714286</ele><time>2026-05-02T08:30:24Z</time></trkpt><trkpt lat="44.183274103038784" lon="11.968055802550854"><ele>64.14285714285714</ele><time>2026-05-02T08:30:26Z</time></trkpt><trkpt lat="44.18331920834561" lon="11.968132064289817"><ele>64.42857142857143</ele><time>2026-05-02T08:30:28Z</time></trkpt><trkpt lat="44.18337760798022" lon="11.968209649059183"><ele>64.71428571428572</ele><time>2026-05-02T08:30:30Z</time></trkpt><trkpt lat="44.18344578439433" lon="11.96827874840354"><ele>65.0</ele><time>2026-05-02T08:30:32Z</time></trkpt><trkpt lat="44.1835172745244" lon="11.968354562156426"><ele>64.8</ele><time>2026-05-02T08:30:34Z</time></trkpt><trkpt lat="44.1835895233079" lon="11.968435977996478"><ele>64.6</ele><time>2026-05-02T08:30:36Z</time></trkpt><trkpt lat="44.18366045987558" lon="11.968520537704585"><ele>64.4</ele><time>2026-05-02T08:30:38Z</time></trkpt><trkpt lat="44.1837397861924" lon="11.96859873401265"><ele>64.2</ele><time>2026-05-02T08:30:40Z</time></trkpt><trkpt lat="44.18382274191762" lon="11.968695344350698"><ele>64.0</ele><time>2026-05-02T08:30:42Z</time></trkpt><trkpt lat="44.183873427012614" lon="11.968804250326501"><ele>64.0</ele><time>2026-05-02T08:30:44Z</time></trkpt><trkpt lat="44.183923572849885" lon="11.968861400879598"><ele>64.0</ele><time>2026-05-02T08:30:45Z</time></trkpt><trkpt lat="44.184005114577246" lon="11.96895398357037"><ele>64.0</ele><time>2026-05-02T08:30:47Z</time></trkpt><trkpt lat="44.18410547485693" lon="11.96901489196834"><ele>64.0</ele><time>2026-05-02T08:30:49Z</time></trkpt><trkpt lat="44.18419133439269" lon="11.96910287933904"><ele>64.0</ele><time>2026-05-02T08:30:51Z</time></trkpt><trkpt lat="44.184272558402746" lon="11.969195710323698"><ele>63.800000000000004</ele><time>2026-05-02T08:30:53Z</time></trkpt><trkpt lat="44.18433259053035" lon="11.969324490543412"><ele>63.60000000000001</ele><time>2026-05-02T08:30:55Z</time></trkpt><trkpt lat="44.1844112526349" lon="11.969412194716034"><ele>63.4</ele><time>2026-05-02T08:30:57Z</time></trkpt><trkpt lat="44.184494625781454" lon="11.969505151769837"><ele>63.2</ele><time>2026-05-02T08:30:59Z</time></trkpt><trkpt lat="44.18457657719624" lon="11.969596523531328"><ele>63.0</ele><time>2026-05-02T08:31:01Z</time></trkpt><trkpt lat="44.18465916468734" lon="11.969688318474185"><ele>63.0</ele><time>2026-05-02T08:31:03Z</time></trkpt><trkpt lat="44.18474182898012" lon="11.969780126137184"><ele>63.0</ele><time>2026-05-02T08:31:05Z</time></trkpt><trkpt lat="44.184829506982396" lon="11.969877501915244"><ele>63.0</ele><time>2026-05-02T08:31:07Z</time></trkpt><trkpt lat="44.184907628266224" lon="11.969964264009665"><ele>63.0</ele><time>2026-05-02T08:31:09Z</time></trkpt><trkpt lat="44.18499654957615" lon="11.970064673506847"><ele>63.0</ele><time>2026-05-02T08:31:10.999Z</time></trkpt><trkpt lat="44.1850815952419" lon="11.970161067426691"><ele>62.8</ele><time>2026-05-02T08:31:12.999Z</time></trkpt><trkpt lat="44.185165746899344" lon="11.970256447489813"><ele>62.599999999999994</ele><time>2026-05-02T08:31:14.999Z</time></trkpt><trkpt lat="44.18524266735837" lon="11.970343631762642"><ele>62.400000000000006</ele><time>2026-05-02T08:31:16.999Z</time></trkpt><trkpt lat="44.18533500111051" lon="11.970445606834847"><ele>62.2</ele><time>2026-05-02T08:31:18.999Z</time></trkpt><trkpt lat="44.18541764543049" lon="11.970536572617446"><ele>62.0</ele><time>2026-05-02T08:31:20.999Z</time></trkpt><trkpt lat="44.18550191308444" lon="11.970629325318932"><ele>62.0</ele><time>2026-05-02T08:31:22.999Z</time></trkpt><trkpt lat="44.18558565940576" lon="11.970721504543892"><ele>62.0</ele><time>2026-05-02T08:31:24.999Z</time></trkpt><trkpt lat="44.185662274406205" lon="11.970809586377218"><ele>62.0</ele><time>2026-05-02T08:31:26.999Z</time></trkpt><trkpt lat="44.18574139442796" lon="11.970900556576238"><ele>62.0</ele><time>2026-05-02T08:31:28.999Z</time></trkpt><trkpt lat="44.18581966373404" lon="11.970990549026515"><ele>62.0</ele><time>2026-05-02T08:31:30.999Z</time></trkpt><trkpt lat="44.18590676310117" lon="11.97106662384324"><ele>61.6</ele><time>2026-05-02T08:31:32.999Z</time></trkpt><trkpt lat="44.18597540018269" lon="11.971169611003702"><ele>61.2</ele><time>2026-05-02T08:31:34.999Z</time></trkpt><trkpt lat="44.18605661515084" lon="11.971262990173873"><ele>60.8</ele><time>2026-05-02T08:31:36.999Z</time></trkpt><trkpt lat="44.18614238034422" lon="11.971330462543088"><ele>60.4</ele><time>2026-05-02T08:31:38.999Z</time></trkpt><trkpt lat="44.18622099918191" lon="11.971418918853525"><ele>60.0</ele><time>2026-05-02T08:31:40.999Z</time></trkpt><trkpt lat="44.186296926081226" lon="11.971512112808425"><ele>60.0</ele><time>2026-05-02T08:31:42.999Z</time></trkpt><trkpt lat="44.18637114452706" lon="11.971616065435203"><ele>60.0</ele><time>2026-05-02T08:31:44.999Z</time></trkpt><trkpt lat="44.18646120162953" lon="11.971687744548726"><ele>60.0</ele><time>2026-05-02T08:31:47Z</time></trkpt><trkpt lat="44.1865371305045" lon="11.971779838581131"><ele>60.0</ele><time>2026-05-02T08:31:49Z</time></trkpt><trkpt lat="44.18662433211638" lon="11.971945504911707"><ele>60.0</ele><time>2026-05-02T08:31:53Z</time></trkpt><trkpt lat="44.18672727684849" lon="11.97202620927783"><ele>60.0</ele><time>2026-05-02T08:31:55Z</time></trkpt><trkpt lat="44.18681010418591" lon="11.972119151008444"><ele>60.0</ele><time>2026-05-02T08:31:57Z</time></trkpt><trkpt lat="44.18685352515407" lon="11.972183694199957"><ele>60.0</ele><time>2026-05-02T08:31:59Z</time></trkpt><trkpt lat="44.18691380862619" lon="11.972256249022823"><ele>60.0</ele><time>2026-05-02T08:32:01Z</time></trkpt><trkpt lat="44.1869944082001" lon="11.97234738087774"><ele>60.0</ele><time>2026-05-02T08:32:03Z</time></trkpt><trkpt lat="44.18704828042273" lon="11.972408292421344"><ele>60.0</ele><time>2026-05-02T08:32:04Z</time></trkpt><trkpt lat="44.18712353219831" lon="11.972510553549318"><ele>60.0</ele><time>2026-05-02T08:32:06Z</time></trkpt><trkpt lat="44.18721575653406" lon="11.972602402959616"><ele>60.0</ele><time>2026-05-02T08:32:08Z</time></trkpt><trkpt lat="44.18730937528933" lon="11.972690273591919"><ele>60.0</ele><time>2026-05-02T08:32:10Z</time></trkpt><trkpt lat="44.18740134749534" lon="11.972785389213595"><ele>60.25</ele><time>2026-05-02T08:32:12Z</time></trkpt><trkpt lat="44.18748843391705" lon="11.972905107460884"><ele>60.5</ele><time>2026-05-02T08:32:15Z</time></trkpt><trkpt lat="44.187638536192175" lon="11.973040833425705"><ele>60.75</ele><time>2026-05-02T08:32:17Z</time></trkpt><trkpt lat="44.18772619889963" lon="11.973138233427571"><ele>61.0</ele><time>2026-05-02T08:32:19Z</time></trkpt><trkpt lat="44.18781067562948" lon="11.973232093562677"><ele>61.0</ele><time>2026-05-02T08:32:21Z</time></trkpt><trkpt lat="44.187890118023894" lon="11.973320360173673"><ele>60.99999999999999</ele><time>2026-05-02T08:32:23Z</time></trkpt><trkpt lat="44.187974545092075" lon="11.973414165129322"><ele>60.99999999999999</ele><time>2026-05-02T08:32:25Z</time></trkpt><trkpt lat="44.18805385333183" lon="11.97350259530839"><ele>61.0</ele><time>2026-05-02T08:32:27Z</time></trkpt><trkpt lat="44.188125684315786" lon="11.97358337770412"><ele>61.0</ele><time>2026-05-02T08:32:29Z</time></trkpt><trkpt lat="44.18820459835497" lon="11.973652100653986"><ele>61.0</ele><time>2026-05-02T08:32:31Z</time></trkpt><trkpt lat="44.1882895313035" lon="11.973740228164203"><ele>60.99999999999999</ele><time>2026-05-02T08:32:33Z</time></trkpt><trkpt lat="44.188359347002034" lon="11.973846158910408"><ele>60.99999999999999</ele><time>2026-05-02T08:32:35Z</time></trkpt><trkpt lat="44.188443850587745" lon="11.973933615432168"><ele>61.0</ele><time>2026-05-02T08:32:37Z</time></trkpt><trkpt lat="44.18853505705948" lon="11.974015981156779"><ele>61.0</ele><time>2026-05-02T08:32:39Z</time></trkpt><trkpt lat="44.18858382201543" lon="11.974114956042108"><ele>61.666666666666664</ele><time>2026-05-02T08:32:41Z</time></trkpt><trkpt lat="44.1886550522977" lon="11.974231728774004"><ele>62.33333333333333</ele><time>2026-05-02T08:32:44Z</time></trkpt><trkpt lat="44.18886775509832" lon="11.974396914949079"><ele>63.0</ele><time>2026-05-02T08:32:47Z</time></trkpt><trkpt lat="44.188952761791924" lon="11.974498996624453"><ele>62.599999999999994</ele><time>2026-05-02T08:32:49Z</time></trkpt><trkpt lat="44.18903985957379" lon="11.97459808703727"><ele>62.199999999999996</ele><time>2026-05-02T08:32:51Z</time></trkpt><trkpt lat="44.189122139109884" lon="11.974694738262496"><ele>61.8</ele><time>2026-05-02T08:32:53Z</time></trkpt><trkpt lat="44.18920496298562" lon="11.974772656296157"><ele>61.4</ele><time>2026-05-02T08:32:55Z</time></trkpt><trkpt lat="44.18927813186475" lon="11.974826110267248"><ele>61.0</ele><time>2026-05-02T08:32:57Z</time></trkpt><trkpt lat="44.189357018095755" lon="11.97490773362514"><ele>60.83333333333333</ele><time>2026-05-02T08:32:59Z</time></trkpt><trkpt lat="44.18939634816584" lon="11.975025200058296"><ele>60.666666666666664</ele><time>2026-05-02T08:33:01Z</time></trkpt><trkpt lat="44.18937777220667" lon="11.975117533426243"><ele>60.5</ele><time>2026-05-02T08:33:03Z</time></trkpt><trkpt lat="44.18934209391161" lon="11.975220411114588"><ele>60.33333333333333</ele><time>2026-05-02T08:33:05Z</time></trkpt><trkpt lat="44.18926428597783" lon="11.975301617740275"><ele>60.166666666666664</ele><time>2026-05-02T08:33:06.999Z</time></trkpt><trkpt lat="44.18920877223917" lon="11.975408745841792"><ele>60.0</ele><time>2026-05-02T08:33:08.999Z</time></trkpt><trkpt lat="44.189141905817756" lon="11.975513128537143"><ele>60.0</ele><time>2026-05-02T08:33:10.999Z</time></trkpt><trkpt lat="44.18906471093217" lon="11.97561528370367"><ele>60.0</ele><time>2026-05-02T08:33:12.999Z</time></trkpt><trkpt lat="44.189004507393314" lon="11.975706253604313"><ele>60.0</ele><time>2026-05-02T08:33:14.999Z</time></trkpt><trkpt lat="44.188959194805804" lon="11.975810458016838"><ele>60.0</ele><time>2026-05-02T08:33:17.999Z</time></trkpt><trkpt lat="44.18890811035869" lon="11.97591574742488"><ele>60.0</ele><time>2026-05-02T08:33:19.999Z</time></trkpt><trkpt lat="44.18882830800569" lon="11.976041651642845"><ele>60.0</ele><time>2026-05-02T08:33:21.999Z</time></trkpt><trkpt lat="44.18876857449069" lon="11.976147654881993"><ele>60.0</ele><time>2026-05-02T08:33:23.999Z</time></trkpt><trkpt lat="44.188696875361444" lon="11.976270207026596"><ele>60.0</ele><time>2026-05-02T08:33:25.999Z</time></trkpt><trkpt lat="44.18862160345324" lon="11.976386319913267"><ele>60.0</ele><time>2026-05-02T08:33:27.999Z</time></trkpt><trkpt lat="44.18856045844644" lon="11.97650164868344"><ele>60.0</ele><time>2026-05-02T08:33:29.999Z</time></trkpt><trkpt lat="44.18849736672476" lon="11.976610803288034"><ele>60.0</ele><time>2026-05-02T08:33:31.999Z</time></trkpt><trkpt lat="44.18843765965689" lon="11.976723642645936"><ele>60.0</ele><time>2026-05-02T08:33:33.999Z</time></trkpt><trkpt lat="44.188375950147226" lon="11.976833670037486"><ele>60.0</ele><time>2026-05-02T08:33:35.999Z</time></trkpt><trkpt lat="44.18831305456305" lon="11.976934684336799"><ele>60.0</ele><time>2026-05-02T08:33:37.999Z</time></trkpt><trkpt lat="44.188259047470055" lon="11.977039768811036"><ele>60.0</ele><time>2026-05-02T08:33:39.999Z</time></trkpt><trkpt lat="44.1881989939988" lon="11.977142878952668"><ele>60.6</ele><time>2026-05-02T08:33:41.999Z</time></trkpt><trkpt lat="44.18813495865601" lon="11.977242364490184"><ele>61.2</ele><time>2026-05-02T08:33:43.999Z</time></trkpt><trkpt lat="44.188075899598914" lon="11.977342287155581"><ele>61.8</ele><time>2026-05-02T08:33:45.999Z</time></trkpt><trkpt lat="44.18802451050366" lon="11.977449976414468"><ele>62.4</ele><time>2026-05-02T08:33:47.999Z</time></trkpt><trkpt lat="44.18796736516019" lon="11.97754761948347"><ele>63.0</ele><time>2026-05-02T08:33:49.999Z</time></trkpt><trkpt lat="44.18791438959207" lon="11.977646659554471"><ele>63.0</ele><time>2026-05-02T08:33:51.999Z</time></trkpt><trkpt lat="44.187851640595916" lon="11.97775223214415"><ele>63.0</ele><time>2026-05-02T08:33:53.999Z</time></trkpt><trkpt lat="44.187811022619314" lon="11.977822811551547"><ele>63.0</ele><time>2026-05-02T08:33:55.999Z</time></trkpt><trkpt lat="44.18777275235883" lon="11.977904303534702"><ele>63.0</ele><time>2026-05-02T08:33:57.999Z</time></trkpt><trkpt lat="44.1877076074129" lon="11.978004467328493"><ele>63.0</ele><time>2026-05-02T08:33:59.999Z</time></trkpt><trkpt lat="44.187668849913514" lon="11.978076044955081"><ele>63.0</ele><time>2026-05-02T08:34:00.999Z</time></trkpt><trkpt lat="44.18760947434981" lon="11.978170546583492"><ele>63.0</ele><time>2026-05-02T08:34:02.999Z</time></trkpt><trkpt lat="44.18752413460295" lon="11.978287173289239"><ele>63.0</ele><time>2026-05-02T08:34:06Z</time></trkpt><trkpt lat="44.18747337434994" lon="11.978409662546042"><ele>63.0</ele><time>2026-05-02T08:34:08Z</time></trkpt><trkpt lat="44.1874161928952" lon="11.978507335446096"><ele>63.0</ele><time>2026-05-02T08:34:10Z</time></trkpt><trkpt lat="44.18735044598688" lon="11.978610501572918"><ele>63.0</ele><time>2026-05-02T08:34:12Z</time></trkpt><trkpt lat="44.18729604865403" lon="11.978707546461688"><ele>63.599999999999994</ele><time>2026-05-02T08:34:14Z</time></trkpt><trkpt lat="44.18724006034922" lon="11.978814462841571"><ele>64.19999999999999</ele><time>2026-05-02T08:34:16Z</time></trkpt><trkpt lat="44.18717427676681" lon="11.978905897402258"><ele>64.8</ele><time>2026-05-02T08:34:18Z</time></trkpt><trkpt lat="44.18711769542621" lon="11.978998796528495"><ele>65.39999999999999</ele><time>2026-05-02T08:34:20Z</time></trkpt><trkpt lat="44.18706155998415" lon="11.979094722029394"><ele>66.0</ele><time>2026-05-02T08:34:22Z</time></trkpt><trkpt lat="44.18700794139069" lon="11.979194130851422"><ele>66.5</ele><time>2026-05-02T08:34:24Z</time></trkpt><trkpt lat="44.18695310261552" lon="11.97928776633066"><ele>67.0</ele><time>2026-05-02T08:34:26Z</time></trkpt><trkpt lat="44.18689698193736" lon="11.979363223148562"><ele>67.5</ele><time>2026-05-02T08:34:28Z</time></trkpt><trkpt lat="44.18684106229959" lon="11.979455326494529"><ele>68.0</ele><time>2026-05-02T08:34:30Z</time></trkpt><trkpt lat="44.186786987817804" lon="11.979526802900834"><ele>68.5</ele><time>2026-05-02T08:34:32Z</time></trkpt><trkpt lat="44.18674193323886" lon="11.979607728470022"><ele>69.0</ele><time>2026-05-02T08:34:34Z</time></trkpt><trkpt lat="44.18670342367526" lon="11.979678564396341"><ele>69.0</ele><time>2026-05-02T08:34:36Z</time></trkpt><trkpt lat="44.18663677538903" lon="11.979709507457848"><ele>69.0</ele><time>2026-05-02T08:34:39Z</time></trkpt><trkpt lat="44.18655418127311" lon="11.97970902197857"><ele>69.0</ele><time>2026-05-02T08:34:43Z</time></trkpt><trkpt lat="44.18649247133495" lon="11.979678429166965"><ele>69.0</ele><time>2026-05-02T08:34:46Z</time></trkpt><trkpt lat="44.186424143061814" lon="11.97962884595977"><ele>69.0</ele><time>2026-05-02T08:34:49Z</time></trkpt><trkpt lat="44.18635457038613" lon="11.979571170546485"><ele>69.0</ele><time>2026-05-02T08:34:52Z</time></trkpt><trkpt lat="44.186283429705426" lon="11.979492450065377"><ele>69.0</ele><time>2026-05-02T08:34:55Z</time></trkpt><trkpt lat="44.18620527292817" lon="11.979418280200965"><ele>69.0</ele><time>2026-05-02T08:34:58Z</time></trkpt><trkpt lat="44.18613875329556" lon="11.979329231813121"><ele>69.0</ele><time>2026-05-02T08:35:01Z</time></trkpt><trkpt lat="44.18606532157132" lon="11.979246673365605"><ele>69.0</ele><time>2026-05-02T08:35:04Z</time></trkpt><trkpt lat="44.18599443898456" lon="11.97916309697787"><ele>69.0</ele><time>2026-05-02T08:35:07Z</time></trkpt><trkpt lat="44.18594560987861" lon="11.979105841136288"><ele>69.0</ele><time>2026-05-02T08:35:09Z</time></trkpt><trkpt lat="44.185876273262416" lon="11.979027326462884"><ele>69.0</ele><time>2026-05-02T08:35:12Z</time></trkpt><trkpt lat="44.18582441016202" lon="11.978970869111599"><ele>69.0</ele><time>2026-05-02T08:35:14Z</time></trkpt><trkpt lat="44.185752505411756" lon="11.978892099545348"><ele>69.0</ele><time>2026-05-02T08:35:17Z</time></trkpt><trkpt lat="44.18570082984799" lon="11.978834374074895"><ele>69.0</ele><time>2026-05-02T08:35:19Z</time></trkpt><trkpt lat="44.18564704185254" lon="11.9787840005612"><ele>69.0</ele><time>2026-05-02T08:35:21Z</time></trkpt><trkpt lat="44.18558245142775" lon="11.978697335168926"><ele>69.0</ele><time>2026-05-02T08:35:23.999Z</time></trkpt><trkpt lat="44.185489424681315" lon="11.978667593343324"><ele>70.5</ele><time>2026-05-02T08:35:26.999Z</time></trkpt><trkpt lat="44.18543064900439" lon="11.978627398811707"><ele>72.0</ele><time>2026-05-02T08:35:28.999Z</time></trkpt><trkpt lat="44.185375622505205" lon="11.978577525944473"><ele>73.5</ele><time>2026-05-02T08:35:30.999Z</time></trkpt><trkpt lat="44.18532145064047" lon="11.978517360151285"><ele>75.0</ele><time>2026-05-02T08:35:32.999Z</time></trkpt><trkpt lat="44.18525090469447" lon="11.97842724917902"><ele>76.5</ele><time>2026-05-02T08:35:35.999Z</time></trkpt><trkpt lat="44.18517692589781" lon="11.978357695584672"><ele>78.0</ele><time>2026-05-02T08:35:38.999Z</time></trkpt><trkpt lat="44.18509740735229" lon="11.97839203175927"><ele>78.0</ele><time>2026-05-02T08:35:41.999Z</time></trkpt><trkpt lat="44.18502373466576" lon="11.978426885472881"><ele>78.0</ele><time>2026-05-02T08:35:44.999Z</time></trkpt><trkpt lat="44.184949071460224" lon="11.9784677125928"><ele>78.0</ele><time>2026-05-02T08:35:47.999Z</time></trkpt><trkpt lat="44.18487744883243" lon="11.978495252570637"><ele>78.0</ele><time>2026-05-02T08:35:50.999Z</time></trkpt><trkpt lat="44.18481083264996" lon="11.97851817368825"><ele>78.0</ele><time>2026-05-02T08:35:53.999Z</time></trkpt><trkpt lat="44.18473774742517" lon="11.978541570035192"><ele>78.0</ele><time>2026-05-02T08:35:57.999Z</time></trkpt><trkpt lat="44.184670869266704" lon="11.978555772272264"><ele>78.0</ele><time>2026-05-02T08:36:02Z</time></trkpt><trkpt lat="44.18460026465774" lon="11.97857277325124"><ele>78.57142857142857</ele><time>2026-05-02T08:36:52Z</time></trkpt><trkpt lat="44.18453336221333" lon="11.978576215284173"><ele>79.14285714285714</ele><time>2026-05-02T08:36:58Z</time></trkpt><trkpt lat="44.18446507787243" lon="11.978614664443283"><ele>79.71428571428571</ele><time>2026-05-02T08:38:16Z</time></trkpt><trkpt lat="44.184388702236696" lon="11.978630714264249"><ele>80.28571428571428</ele><time>2026-05-02T08:38:23Z</time></trkpt><trkpt lat="44.184325397867504" lon="11.978652695822008"><ele>80.85714285714286</ele><time>2026-05-02T08:38:27Z</time></trkpt><trkpt lat="44.18425661898516" lon="11.978685191926028"><ele>81.42857142857142</ele><time>2026-05-02T08:38:31Z</time></trkpt><trkpt lat="44.18418723506624" lon="11.978715163392902"><ele>82.0</ele><time>2026-05-02T08:38:35Z</time></trkpt><trkpt lat="44.184117969208216" lon="11.978746557367327"><ele>81.99999999999999</ele><time>2026-05-02T08:38:39Z</time></trkpt><trkpt lat="44.18405553190124" lon="11.978782558564934"><ele>82.0</ele><time>2026-05-02T08:38:43Z</time></trkpt><trkpt lat="44.18398793671354" lon="11.97881090544752"><ele>82.0</ele><time>2026-05-02T08:38:47Z</time></trkpt><trkpt lat="44.18392272574948" lon="11.978819402177203"><ele>82.0</ele><time>2026-05-02T08:38:51Z</time></trkpt><trkpt lat="44.18385843405993" lon="11.978835023892316"><ele>82.0</ele><time>2026-05-02T08:38:55Z</time></trkpt><trkpt lat="44.18378439438035" lon="11.97883490977235"><ele>81.99999999999999</ele><time>2026-05-02T08:39:00Z</time></trkpt><trkpt lat="44.1837255280824" lon="11.978798250415759"><ele>82.0</ele><time>2026-05-02T08:39:04Z</time></trkpt><trkpt lat="44.18366433158455" lon="11.978770674985812"><ele>82.71428571428571</ele><time>2026-05-02T08:39:09Z</time></trkpt><trkpt lat="44.18360106371954" lon="11.978737402481425"><ele>83.42857142857143</ele><time>2026-05-02T08:39:15Z</time></trkpt><trkpt lat="44.18353617655968" lon="11.978707711240803"><ele>84.14285714285714</ele><time>2026-05-02T08:39:21Z</time></trkpt><trkpt lat="44.18347951023816" lon="11.978659755751815"><ele>84.85714285714286</ele><time>2026-05-02T08:39:27Z</time></trkpt><trkpt lat="44.18341368429492" lon="11.978638816801329"><ele>85.57142857142857</ele><time>2026-05-02T08:39:34Z</time></trkpt><trkpt lat="44.18335546393146" lon="11.97860279616964"><ele>86.28571428571428</ele><time>2026-05-02T08:39:40Z</time></trkpt><trkpt lat="44.18328148041301" lon="11.978584426793073"><ele>87.0</ele><time>2026-05-02T08:39:46Z</time></trkpt><trkpt lat="44.18321342352187" lon="11.978572326423505"><ele>88.0</ele><time>2026-05-02T08:39:52Z</time></trkpt><trkpt lat="44.18314902513747" lon="11.978537710108098"><ele>89.0</ele><time>2026-05-02T08:39:59Z</time></trkpt><trkpt lat="44.1830881109307" lon="11.978512084944828"><ele>90.0</ele><time>2026-05-02T08:40:04Z</time></trkpt><trkpt lat="44.1830119326545" lon="11.978478635211303"><ele>91.0</ele><time>2026-05-02T08:40:11Z</time></trkpt><trkpt lat="44.18295636181686" lon="11.97841332815648"><ele>92.0</ele><time>2026-05-02T08:40:17Z</time></trkpt><trkpt lat="44.18289302074216" lon="11.97839429731929"><ele>93.0</ele><time>2026-05-02T08:40:23Z</time></trkpt><trkpt lat="44.18283452027372" lon="11.978360141910642"><ele>94.0</ele><time>2026-05-02T08:40:28Z</time></trkpt><trkpt lat="44.18277035704439" lon="11.978328167172275"><ele>94.57142857142857</ele><time>2026-05-02T08:40:34Z</time></trkpt><trkpt lat="44.18270501523356" lon="11.978300038056117"><ele>95.14285714285714</ele><time>2026-05-02T08:40:40Z</time></trkpt><trkpt lat="44.18263594355198" lon="11.978267026398248"><ele>95.71428571428572</ele><time>2026-05-02T08:40:47Z</time></trkpt><trkpt lat="44.18258053637172" lon="11.978211981319122"><ele>96.28571428571428</ele><time>2026-05-02T08:40:52Z</time></trkpt><trkpt lat="44.18252244314945" lon="11.978169128645428"><ele>96.85714285714286</ele><time>2026-05-02T08:40:58Z</time></trkpt><trkpt lat="44.1824618735834" lon="11.97813500182002"><ele>97.42857142857143</ele><time>2026-05-02T08:41:02Z</time></trkpt><trkpt lat="44.18240064992414" lon="11.97809292059363"><ele>98.0</ele><time>2026-05-02T08:41:06Z</time></trkpt><trkpt lat="44.18233514829104" lon="11.978058136154536"><ele>98.28571428571429</ele><time>2026-05-02T08:41:10Z</time></trkpt><trkpt lat="44.18226165362776" lon="11.978015216618337"><ele>98.57142857142857</ele><time>2026-05-02T08:41:15Z</time></trkpt><trkpt lat="44.182193836621835" lon="11.97796266644441"><ele>98.85714285714286</ele><time>2026-05-02T08:41:20Z</time></trkpt><trkpt lat="44.18212053151625" lon="11.977931160277036"><ele>99.14285714285714</ele><time>2026-05-02T08:41:25Z</time></trkpt><trkpt lat="44.18205390781183" lon="11.977883037365263"><ele>99.42857142857143</ele><time>2026-05-02T08:41:31Z</time></trkpt><trkpt lat="44.18199814418222" lon="11.97784051783595"><ele>99.71428571428572</ele><time>2026-05-02T08:41:36Z</time></trkpt><trkpt lat="44.18194429534809" lon="11.97778427706332"><ele>100.0</ele><time>2026-05-02T08:41:42Z</time></trkpt><trkpt lat="44.18188357430063" lon="11.977744940045337"><ele>100.00000000000001</ele><time>2026-05-02T08:41:48Z</time></trkpt><trkpt lat="44.181824615507786" lon="11.977697434780604"><ele>100.0</ele><time>2026-05-02T08:41:54Z</time></trkpt><trkpt lat="44.18176985201992" lon="11.977647112085528"><ele>100.0</ele><time>2026-05-02T08:45:25Z</time></trkpt><trkpt lat="44.181703172762425" lon="11.977627021973378"><ele>100.0</ele><time>2026-05-02T08:46:41Z</time></trkpt><trkpt lat="44.18164096361776" lon="11.977577053464566"><ele>100.0</ele><time>2026-05-02T08:46:48Z</time></trkpt><trkpt lat="44.18157676431308" lon="11.977545733352054"><ele>100.00000000000001</ele><time>2026-05-02T08:46:54Z</time></trkpt><trkpt lat="44.1815124272281" lon="11.97749268075874"><ele>100.0</ele><time>2026-05-02T08:47:01Z</time></trkpt><trkpt lat="44.181448382183184" lon="11.977465004502168"><ele>101.57142857142858</ele><time>2026-05-02T08:47:06Z</time></trkpt><trkpt lat="44.181397782006194" lon="11.977403596856345"><ele>103.14285714285714</ele><time>2026-05-02T08:47:11Z</time></trkpt><trkpt lat="44.18133089325488" lon="11.977362333032099"><ele>104.71428571428572</ele><time>2026-05-02T08:47:16Z</time></trkpt><trkpt lat="44.18126659384433" lon="11.977328206925144"><ele>106.28571428571429</ele><time>2026-05-02T08:47:21Z</time></trkpt><trkpt lat="44.18121019189309" lon="11.977286109891187"><ele>107.85714285714286</ele><time>2026-05-02T08:47:25Z</time></trkpt><trkpt lat="44.181146229620886" lon="11.977239875538249"><ele>109.42857142857143</ele><time>2026-05-02T08:47:30Z</time></trkpt><trkpt lat="44.18108044142546" lon="11.977212697790655"><ele>111.0</ele><time>2026-05-02T08:47:34Z</time></trkpt><trkpt lat="44.181020531968926" lon="11.977168345581903"><ele>111.0</ele><time>2026-05-02T08:47:38Z</time></trkpt><trkpt lat="44.18096139004429" lon="11.977133760267852"><ele>111.0</ele><time>2026-05-02T08:47:42Z</time></trkpt><trkpt lat="44.18090297315897" lon="11.977093764306659"><ele>111.0</ele><time>2026-05-02T08:47:46Z</time></trkpt><trkpt lat="44.18084303407249" lon="11.977051298526156"><ele>111.0</ele><time>2026-05-02T08:47:50Z</time></trkpt><trkpt lat="44.180783843246395" lon="11.977018000517418"><ele>111.0</ele><time>2026-05-02T08:47:53.999Z</time></trkpt><trkpt lat="44.18072438200709" lon="11.976988079192012"><ele>111.0</ele><time>2026-05-02T08:47:57.999Z</time></trkpt><trkpt lat="44.18066082105754" lon="11.976930020103104"><ele>111.0</ele><time>2026-05-02T08:48:02.999Z</time></trkpt><trkpt lat="44.18059786357636" lon="11.976886891485368"><ele>111.57142857142857</ele><time>2026-05-02T08:48:07.999Z</time></trkpt><trkpt lat="44.180532938007296" lon="11.97685454381049"><ele>112.14285714285714</ele><time>2026-05-02T08:48:11.999Z</time></trkpt><trkpt lat="44.1804556947745" lon="11.976823341500689"><ele>112.71428571428571</ele><time>2026-05-02T08:48:15.999Z</time></trkpt><trkpt lat="44.180388045496215" lon="11.976772601557656"><ele>113.28571428571428</ele><time>2026-05-02T08:48:19.999Z</time></trkpt><trkpt lat="44.18032157108108" lon="11.976720169246832"><ele>113.85714285714286</ele><time>2026-05-02T08:48:23.999Z</time></trkpt><trkpt lat="44.18025463296523" lon="11.97668474519316"><ele>114.42857142857142</ele><time>2026-05-02T08:48:27.999Z</time></trkpt><trkpt lat="44.18018922178218" lon="11.97664481523055"><ele>114.99999999999999</ele><time>2026-05-02T08:48:31.999Z</time></trkpt><trkpt lat="44.180123524260914" lon="11.976610881964401"><ele>115.99999999999999</ele><time>2026-05-02T08:48:36Z</time></trkpt><trkpt lat="44.18006179043422" lon="11.97657681088271"><ele>117.0</ele><time>2026-05-02T08:48:40Z</time></trkpt><trkpt lat="44.18000226768984" lon="11.976542633251794"><ele>117.99999999999999</ele><time>2026-05-02T08:48:44Z</time></trkpt><trkpt lat="44.1799402070808" lon="11.976504527986327"><ele>118.99999999999999</ele><time>2026-05-02T08:48:48Z</time></trkpt><trkpt lat="44.17986853627547" lon="11.976459070501322"><ele>120.0</ele><time>2026-05-02T08:48:53Z</time></trkpt><trkpt lat="44.1797942647078" lon="11.976424519311845"><ele>120.99999999999999</ele><time>2026-05-02T08:48:58Z</time></trkpt><trkpt lat="44.17973256789656" lon="11.976381049085433"><ele>121.99999999999999</ele><time>2026-05-02T08:49:03Z</time></trkpt><trkpt lat="44.17966619679473" lon="11.976345647416702"><ele>123.14285714285712</ele><time>2026-05-02T08:49:08Z</time></trkpt><trkpt lat="44.17959969309517" lon="11.976311115305833"><ele>124.28571428571428</ele><time>2026-05-02T08:49:13Z</time></trkpt><trkpt lat="44.17953001730037" lon="11.9762877337379"><ele>125.42857142857143</ele><time>2026-05-02T08:49:19Z</time></trkpt><trkpt lat="44.17946921089471" lon="11.976235440190258"><ele>126.57142857142857</ele><time>2026-05-02T08:49:25Z</time></trkpt><trkpt lat="44.17940307478674" lon="11.97621661794211"><ele>127.71428571428572</ele><time>2026-05-02T08:49:31Z</time></trkpt><trkpt lat="44.17932813370427" lon="11.97618154984531"><ele>128.85714285714286</ele><time>2026-05-02T08:49:37Z</time></trkpt><trkpt lat="44.17925417318555" lon="11.976151612822642"><ele>130.0</ele><time>2026-05-02T08:49:43Z</time></trkpt><trkpt lat="44.179182622992656" lon="11.976131380511156"><ele>130.00000000000003</ele><time>2026-05-02T08:49:48Z</time></trkpt><trkpt lat="44.179110976803635" lon="11.976118519575827"><ele>130.0</ele><time>2026-05-02T08:49:53Z</time></trkpt><trkpt lat="44.17904444097305" lon="11.97610755016072"><ele>130.0</ele><time>2026-05-02T08:49:58Z</time></trkpt><trkpt lat="44.17897315695336" lon="11.976077498177084"><ele>130.0</ele><time>2026-05-02T08:50:02.999Z</time></trkpt><trkpt lat="44.17890359730293" lon="11.976066299423648"><ele>130.0</ele><time>2026-05-02T08:50:07.999Z</time></trkpt><trkpt lat="44.17884042981807" lon="11.976063489388672"><ele>130.00000000000003</ele><time>2026-05-02T08:50:11.999Z</time></trkpt><trkpt lat="44.1787801484587" lon="11.976035026157724"><ele>130.0</ele><time>2026-05-02T08:50:15.999Z</time></trkpt><trkpt lat="44.178706930268916" lon="11.976015736352158"><ele>130.71428571428572</ele><time>2026-05-02T08:50:20.999Z</time></trkpt><trkpt lat="44.178638086004305" lon="11.975999110887086"><ele>131.42857142857144</ele><time>2026-05-02T08:50:24.999Z</time></trkpt><trkpt lat="44.178565479122454" lon="11.97598671286778"><ele>132.14285714285714</ele><time>2026-05-02T08:50:29.999Z</time></trkpt><trkpt lat="44.178501378772424" lon="11.975970301671893"><ele>132.85714285714286</ele><time>2026-05-02T08:50:33.999Z</time></trkpt><trkpt lat="44.17843066861979" lon="11.975944254108224"><ele>133.57142857142856</ele><time>2026-05-02T08:50:38.999Z</time></trkpt><trkpt lat="44.17835922160717" lon="11.975921881878845"><ele>134.28571428571428</ele><time>2026-05-02T08:50:44Z</time></trkpt><trkpt lat="44.178285564563254" lon="11.975919808701095"><ele>135.0</ele><time>2026-05-02T08:50:49Z</time></trkpt><trkpt lat="44.1782184447648" lon="11.975901706633897"><ele>136.0</ele><time>2026-05-02T08:50:54Z</time></trkpt><trkpt lat="44.17815257945001" lon="11.9758895627079"><ele>137.0</ele><time>2026-05-02T08:50:59Z</time></trkpt><trkpt lat="44.178082230528936" lon="11.97587163843165"><ele>138.0</ele><time>2026-05-02T08:51:05Z</time></trkpt><trkpt lat="44.17802009799171" lon="11.975854884712914"><ele>139.0</ele><time>2026-05-02T08:51:10Z</time></trkpt><trkpt lat="44.17794895160153" lon="11.975846390559045"><ele>140.0</ele><time>2026-05-02T08:51:16Z</time></trkpt><trkpt lat="44.17788454844392" lon="11.97585311635068"><ele>141.0</ele><time>2026-05-02T08:51:21Z</time></trkpt><trkpt lat="44.17781170509107" lon="11.975843647464878"><ele>142.0</ele><time>2026-05-02T08:51:27Z</time></trkpt><trkpt lat="44.177741742640315" lon="11.97581876656121"><ele>143.28571428571428</ele><time>2026-05-02T08:51:32Z</time></trkpt><trkpt lat="44.17766176161207" lon="11.97581513981287"><ele>144.57142857142856</ele><time>2026-05-02T08:51:37Z</time></trkpt><trkpt lat="44.17759744260519" lon="11.97579919650224"><ele>145.85714285714286</ele><time>2026-05-02T08:51:41Z</time></trkpt><trkpt lat="44.177530107566" lon="11.975759633345891"><ele>147.14285714285714</ele><time>2026-05-02T08:51:46Z</time></trkpt><trkpt lat="44.17746366644779" lon="11.97573572135184"><ele>148.42857142857144</ele><time>2026-05-02T08:51:51.999Z</time></trkpt><trkpt lat="44.17739295157192" lon="11.975704224833896"><ele>149.71428571428572</ele><time>2026-05-02T08:51:57.999Z</time></trkpt><trkpt lat="44.17732141025684" lon="11.975673743743473"><ele>151.0</ele><time>2026-05-02T08:52:03.999Z</time></trkpt><trkpt lat="44.17724926324921" lon="11.975639791827325"><ele>152.2857142857143</ele><time>2026-05-02T08:52:09.999Z</time></trkpt><trkpt lat="44.17717601986925" lon="11.975611873387173"><ele>153.57142857142858</ele><time>2026-05-02T08:52:15.999Z</time></trkpt><trkpt lat="44.17710989566724" lon="11.975584915981589"><ele>154.85714285714286</ele><time>2026-05-02T08:52:20.999Z</time></trkpt><trkpt lat="44.17704957820551" lon="11.975552618340314"><ele>156.14285714285717</ele><time>2026-05-02T08:52:25.999Z</time></trkpt><trkpt lat="44.17698747138588" lon="11.975534152001075"><ele>157.42857142857144</ele><time>2026-05-02T08:52:30.999Z</time></trkpt><trkpt lat="44.17692501867134" lon="11.975497504775317"><ele>158.71428571428572</ele><time>2026-05-02T08:52:36.999Z</time></trkpt><trkpt lat="44.176871759041994" lon="11.975435551600656"><ele>160.0</ele><time>2026-05-02T08:52:42.999Z</time></trkpt><trkpt lat="44.176820836651366" lon="11.975373581833574"><ele>160.0</ele><time>2026-05-02T08:52:50Z</time></trkpt><trkpt lat="44.176773890325045" lon="11.97529802871066"><ele>160.0</ele><time>2026-05-02T08:52:57Z</time></trkpt><trkpt lat="44.176733350518745" lon="11.975216046052463"><ele>160.0</ele><time>2026-05-02T08:53:03Z</time></trkpt><trkpt lat="44.176685612504585" lon="11.975156936415994"><ele>160.0</ele><time>2026-05-02T08:53:08Z</time></trkpt><trkpt lat="44.176632329878444" lon="11.975098044379891"><ele>160.0</ele><time>2026-05-02T08:53:14Z</time></trkpt><trkpt lat="44.176576104999334" lon="11.975055569436089"><ele>160.0</ele><time>2026-05-02T08:53:19Z</time></trkpt><trkpt lat="44.17651697786704" lon="11.975005633286623"><ele>160.0</ele><time>2026-05-02T08:53:24Z</time></trkpt><trkpt lat="44.1764544746204" lon="11.97496523801645"><ele>161.57142857142856</ele><time>2026-05-02T08:53:29Z</time></trkpt><trkpt lat="44.17639447973564" lon="11.974933313181483"><ele>163.14285714285714</ele><time>2026-05-02T08:53:33Z</time></trkpt><trkpt lat="44.176334400684496" lon="11.97489919244825"><ele>164.71428571428572</ele><time>2026-05-02T08:53:37Z</time></trkpt><trkpt lat="44.176260047094864" lon="11.974868383955435"><ele>166.28571428571428</ele><time>2026-05-02T08:53:42Z</time></trkpt><trkpt lat="44.17619932107" lon="11.974837818821733"><ele>167.85714285714286</ele><time>2026-05-02T08:53:46Z</time></trkpt><trkpt lat="44.176136547600876" lon="11.974804109308753"><ele>169.42857142857142</ele><time>2026-05-02T08:53:50Z</time></trkpt><trkpt lat="44.176068150029124" lon="11.974769524042474"><ele>171.0</ele><time>2026-05-02T08:53:55Z</time></trkpt><trkpt lat="44.17600420144155" lon="11.974739412393909"><ele>170.99999999999997</ele><time>2026-05-02T08:53:59Z</time></trkpt><trkpt lat="44.175932553567236" lon="11.974707512579593"><ele>171.0</ele><time>2026-05-02T08:54:02.999Z</time></trkpt><trkpt lat="44.17586831242285" lon="11.974677774169685"><ele>171.0</ele><time>2026-05-02T08:54:06.999Z</time></trkpt><trkpt lat="44.17580083989842" lon="11.974647730685453"><ele>171.0</ele><time>2026-05-02T08:54:10.999Z</time></trkpt><trkpt lat="44.175734811021265" lon="11.974613960969045"><ele>171.0</ele><time>2026-05-02T08:54:14.999Z</time></trkpt><trkpt lat="44.17566537697965" lon="11.974584997771618"><ele>170.99999999999997</ele><time>2026-05-02T08:54:18.999Z</time></trkpt><trkpt lat="44.175602163427534" lon="11.974576652550486"><ele>171.0</ele><time>2026-05-02T08:54:22.999Z</time></trkpt><trkpt lat="44.17553770712968" lon="11.9745708741847"><ele>171.57142857142856</ele><time>2026-05-02T08:54:26.999Z</time></trkpt><trkpt lat="44.17546747303591" lon="11.974560478819939"><ele>172.14285714285714</ele><time>2026-05-02T08:54:30.999Z</time></trkpt><trkpt lat="44.1754038083502" lon="11.974586543555557"><ele>172.71428571428572</ele><time>2026-05-02T08:54:34.999Z</time></trkpt><trkpt lat="44.17532951062914" lon="11.974616693496476"><ele>173.28571428571428</ele><time>2026-05-02T08:54:39.999Z</time></trkpt><trkpt lat="44.17526532455939" lon="11.974628393253886"><ele>173.85714285714286</ele><time>2026-05-02T08:54:43.999Z</time></trkpt><trkpt lat="44.17519190881565" lon="11.974643185821039"><ele>174.42857142857142</ele><time>2026-05-02T08:54:48.999Z</time></trkpt><trkpt lat="44.17512174091394" lon="11.974652087099539"><ele>175.0</ele><time>2026-05-02T08:54:54Z</time></trkpt><trkpt lat="44.17505739297237" lon="11.974659634523709"><ele>175.0</ele><time>2026-05-02T08:54:58Z</time></trkpt><trkpt lat="44.17498971337497" lon="11.97465313581481"><ele>175.0</ele><time>2026-05-02T08:55:02Z</time></trkpt><trkpt lat="44.17491554726007" lon="11.974641298670496"><ele>175.0</ele><time>2026-05-02T08:55:06Z</time></trkpt><trkpt lat="44.17483318910196" lon="11.974625041473233"><ele>175.0</ele><time>2026-05-02T08:55:10Z</time></trkpt><trkpt lat="44.174753739325496" lon="11.974589500637796"><ele>175.0</ele><time>2026-05-02T08:55:13Z</time></trkpt><trkpt lat="44.17469593517664" lon="11.974545644431497"><ele>175.0</ele><time>2026-05-02T08:55:15Z</time></trkpt><trkpt lat="44.17463764323607" lon="11.97450181876549"><ele>175.0</ele><time>2026-05-02T08:55:17Z</time></trkpt><trkpt lat="44.17457042160909" lon="11.974445454567258"><ele>175.66666666666669</ele><time>2026-05-02T08:55:19Z</time></trkpt><trkpt lat="44.17449761402338" lon="11.974368537917394"><ele>176.33333333333334</ele><time>2026-05-02T08:55:21Z</time></trkpt><trkpt lat="44.17442059835441" lon="11.974278423229787"><ele>177.0</ele><time>2026-05-02T08:55:23Z</time></trkpt><trkpt lat="44.17437165782195" lon="11.974221408378174"><ele>177.66666666666666</ele><time>2026-05-02T08:55:24Z</time></trkpt><trkpt lat="44.17427759444285" lon="11.974113277257128"><ele>178.33333333333331</ele><time>2026-05-02T08:55:26Z</time></trkpt><trkpt lat="44.174236453140146" lon="11.974037384846202"><ele>179.0</ele><time>2026-05-02T08:55:27Z</time></trkpt><trkpt lat="44.17413430904263" lon="11.973980377596277"><ele>179.33333333333331</ele><time>2026-05-02T08:55:29Z</time></trkpt><trkpt lat="44.17403855885253" lon="11.973951669737037"><ele>179.66666666666666</ele><time>2026-05-02T08:55:31Z</time></trkpt><trkpt lat="44.17396774838546" lon="11.97394168030279"><ele>180.0</ele><time>2026-05-02T08:55:33Z</time></trkpt><trkpt lat="44.173886160076435" lon="11.973947039665697"><ele>180.33333333333334</ele><time>2026-05-02T08:55:37Z</time></trkpt><trkpt lat="44.17382103962754" lon="11.973969567763998"><ele>180.66666666666669</ele><time>2026-05-02T08:55:40Z</time></trkpt><trkpt lat="44.17378714353645" lon="11.974089086094658"><ele>181.0</ele><time>2026-05-02T08:55:45Z</time></trkpt><trkpt lat="44.173737502282" lon="11.974149615471081"><ele>182.42857142857142</ele><time>2026-05-02T08:55:49Z</time></trkpt><trkpt lat="44.17368413790621" lon="11.974220969288211"><ele>183.85714285714283</ele><time>2026-05-02T08:55:53Z</time></trkpt><trkpt lat="44.1736489883335" lon="11.974295699479464"><ele>185.28571428571428</ele><time>2026-05-02T08:55:57Z</time></trkpt><trkpt lat="44.1736045505904" lon="11.974375820251394"><ele>186.71428571428572</ele><time>2026-05-02T08:56:02Z</time></trkpt><trkpt lat="44.173549444750726" lon="11.97445440567463"><ele>188.14285714285714</ele><time>2026-05-02T08:56:07Z</time></trkpt><trkpt lat="44.173501518135275" lon="11.974527632563497"><ele>189.57142857142858</ele><time>2026-05-02T08:56:11Z</time></trkpt><trkpt lat="44.173449653111284" lon="11.974604906431972"><ele>191.0</ele><time>2026-05-02T08:56:15Z</time></trkpt><trkpt lat="44.173395536882865" lon="11.97468379441199"><ele>191.0</ele><time>2026-05-02T08:56:20Z</time></trkpt><trkpt lat="44.17334988999068" lon="11.974754375517168"><ele>191.0</ele><time>2026-05-02T08:56:23.999Z</time></trkpt><trkpt lat="44.173305060117" lon="11.974817181760013"><ele>191.0</ele><time>2026-05-02T08:56:27.999Z</time></trkpt><trkpt lat="44.173253183956284" lon="11.974873634072004"><ele>191.0</ele><time>2026-05-02T08:56:31.999Z</time></trkpt><trkpt lat="44.173203147210344" lon="11.974927796539566"><ele>191.0</ele><time>2026-05-02T08:56:36.999Z</time></trkpt><trkpt lat="44.17314300004259" lon="11.974983598710411"><ele>191.0</ele><time>2026-05-02T08:56:41.999Z</time></trkpt><trkpt lat="44.17309159911131" lon="11.975056914016804"><ele>191.0</ele><time>2026-05-02T08:56:46.999Z</time></trkpt><trkpt lat="44.173029588265756" lon="11.975111723031032"><ele>192.2857142857143</ele><time>2026-05-02T08:56:51.999Z</time></trkpt><trkpt lat="44.17298339401946" lon="11.97517353459466"><ele>193.57142857142856</ele><time>2026-05-02T08:56:56.999Z</time></trkpt><trkpt lat="44.172940232747365" lon="11.97524580730887"><ele>194.85714285714286</ele><time>2026-05-02T08:57:03Z</time></trkpt><trkpt lat="44.17289893130652" lon="11.975318085094194"><ele>196.14285714285717</ele><time>2026-05-02T08:57:08Z</time></trkpt><trkpt lat="44.172854799578964" lon="11.975402626149151"><ele>197.42857142857144</ele><time>2026-05-02T08:57:14Z</time></trkpt><trkpt lat="44.17281765987573" lon="11.975479620055296"><ele>198.71428571428572</ele><time>2026-05-02T08:57:19Z</time></trkpt><trkpt lat="44.172776866785355" lon="11.975560087605448"><ele>200.0</ele><time>2026-05-02T08:57:23Z</time></trkpt><trkpt lat="44.17272976581833" lon="11.975648058282726"><ele>200.00000000000003</ele><time>2026-05-02T08:57:28Z</time></trkpt><trkpt lat="44.17268774089888" lon="11.97571814342432"><ele>200.0</ele><time>2026-05-02T08:57:32Z</time></trkpt><trkpt lat="44.17265086450451" lon="11.975789804550278"><ele>200.0</ele><time>2026-05-02T08:57:36Z</time></trkpt><trkpt lat="44.17261625701069" lon="11.975873235322263"><ele>200.0</ele><time>2026-05-02T08:58:25Z</time></trkpt><trkpt lat="44.17254115738146" lon="11.97584464021405"><ele>200.0</ele><time>2026-05-02T08:58:30Z</time></trkpt><trkpt lat="44.172477608579484" lon="11.9758101030836"><ele>200.00000000000003</ele><time>2026-05-02T08:58:34Z</time></trkpt><trkpt lat="44.17240704059109" lon="11.975778769135383"><ele>200.0</ele><time>2026-05-02T08:58:37.999Z</time></trkpt><trkpt lat="44.1723309695608" lon="11.975778399590313"><ele>199.00000000000003</ele><time>2026-05-02T08:58:41.999Z</time></trkpt><trkpt lat="44.17226579706177" lon="11.975843211299003"><ele>198.0</ele><time>2026-05-02T08:58:45.999Z</time></trkpt><trkpt lat="44.172217827329774" lon="11.975925784513313"><ele>197.0</ele><time>2026-05-02T08:58:50.999Z</time></trkpt><trkpt lat="44.17218653787911" lon="11.976014136777106"><ele>196.0</ele><time>2026-05-02T08:58:54.999Z</time></trkpt><trkpt lat="44.172149686453146" lon="11.976120948166662"><ele>195.00000000000003</ele><time>2026-05-02T08:58:57.999Z</time></trkpt><trkpt lat="44.172114646764186" lon="11.976223289788614"><ele>194.0</ele><time>2026-05-02T08:58:59.999Z</time></trkpt><trkpt lat="44.172075393247276" lon="11.976347590339415"><ele>193.66666666666669</ele><time>2026-05-02T08:59:01.999Z</time></trkpt><trkpt lat="44.172020260468706" lon="11.976486367460279"><ele>193.33333333333334</ele><time>2026-05-02T08:59:03.999Z</time></trkpt><trkpt lat="44.171955683691976" lon="11.976535019919682"><ele>193.0</ele><time>2026-05-02T08:59:05Z</time></trkpt><trkpt lat="44.171901045389866" lon="11.97669225397"><ele>192.66666666666669</ele><time>2026-05-02T08:59:07Z</time></trkpt><trkpt lat="44.1718730002508" lon="11.97677296018635"><ele>192.33333333333334</ele><time>2026-05-02T08:59:08Z</time></trkpt><trkpt lat="44.17184249724169" lon="11.976860739480403"><ele>192.0</ele><time>2026-05-02T08:59:09Z</time></trkpt><trkpt lat="44.17181323892597" lon="11.976944936889556"><ele>191.99999999999997</ele><time>2026-05-02T08:59:10Z</time></trkpt><trkpt lat="44.171782798326234" lon="11.9770325365869"><ele>192.0</ele><time>2026-05-02T08:59:11Z</time></trkpt><trkpt lat="44.1717527820973" lon="11.97711891506141"><ele>192.0</ele><time>2026-05-02T08:59:12Z</time></trkpt><trkpt lat="44.171721917383394" lon="11.977207735238904"><ele>192.0</ele><time>2026-05-02T08:59:13Z</time></trkpt><trkpt lat="44.17169047824276" lon="11.977298187386465"><ele>192.0</ele><time>2026-05-02T08:59:14Z</time></trkpt><trkpt lat="44.171659475650166" lon="11.977387317550626"><ele>191.99999999999997</ele><time>2026-05-02T08:59:15Z</time></trkpt><trkpt lat="44.17162592910589" lon="11.977483761400322"><ele>192.0</ele><time>2026-05-02T08:59:16Z</time></trkpt><trkpt lat="44.17159351794341" lon="11.977576941112103"><ele>191.7142857142857</ele><time>2026-05-02T08:59:17Z</time></trkpt><trkpt lat="44.171561124813564" lon="11.97767006898043"><ele>191.42857142857142</ele><time>2026-05-02T08:59:18Z</time></trkpt><trkpt lat="44.17152899882252" lon="11.977762428845974"><ele>191.14285714285714</ele><time>2026-05-02T08:59:19Z</time></trkpt><trkpt lat="44.1715112756566" lon="11.977863894944031"><ele>190.85714285714283</ele><time>2026-05-02T08:59:20Z</time></trkpt><trkpt lat="44.171464272391795" lon="11.977950731642236"><ele>190.57142857142858</ele><time>2026-05-02T08:59:21Z</time></trkpt><trkpt lat="44.17143244948889" lon="11.978043333623335"><ele>190.28571428571428</ele><time>2026-05-02T08:59:22Z</time></trkpt><trkpt lat="44.17140076561024" lon="11.97813553106185"><ele>190.0</ele><time>2026-05-02T08:59:23Z</time></trkpt><trkpt lat="44.1713677626565" lon="11.978231566896815"><ele>188.5</ele><time>2026-05-02T08:59:24Z</time></trkpt><trkpt lat="44.171335211485676" lon="11.978326288072045"><ele>187.0</ele><time>2026-05-02T08:59:25Z</time></trkpt><trkpt lat="44.17130525659592" lon="11.978413454294182"><ele>185.5</ele><time>2026-05-02T08:59:26Z</time></trkpt><trkpt lat="44.17126900221846" lon="11.978518951494559"><ele>184.0</ele><time>2026-05-02T08:59:27Z</time></trkpt><trkpt lat="44.17123217601973" lon="11.97862611264888"><ele>182.5</ele><time>2026-05-02T08:59:28Z</time></trkpt><trkpt lat="44.17119475790744" lon="11.978734996220272"><ele>181.0</ele><time>2026-05-02T08:59:29Z</time></trkpt><trkpt lat="44.17115678088768" lon="11.97884550616389"><ele>181.0</ele><time>2026-05-02T08:59:30Z</time></trkpt><trkpt lat="44.17111707646402" lon="11.978961042710257"><ele>181.0</ele><time>2026-05-02T08:59:31Z</time></trkpt><trkpt lat="44.17107584052137" lon="11.979080280408672"><ele>181.0</ele><time>2026-05-02T08:59:32Z</time></trkpt><trkpt lat="44.17103409260887" lon="11.979199593718734"><ele>181.0</ele><time>2026-05-02T08:59:33Z</time></trkpt><trkpt lat="44.17098897747081" lon="11.97932184688711"><ele>181.0</ele><time>2026-05-02T08:59:34Z</time></trkpt><trkpt lat="44.17094215272157" lon="11.979441255663168"><ele>180.0</ele><time>2026-05-02T08:59:35Z</time></trkpt><trkpt lat="44.17088955998157" lon="11.979559842620487"><ele>179.0</ele><time>2026-05-02T08:59:36Z</time></trkpt><trkpt lat="44.17083086236451" lon="11.979673617430159"><ele>178.0</ele><time>2026-05-02T08:59:37Z</time></trkpt><trkpt lat="44.17076566652196" lon="11.979789368125342"><ele>177.0</ele><time>2026-05-02T08:59:38Z</time></trkpt><trkpt lat="44.17069539959961" lon="11.97990347427127"><ele>176.0</ele><time>2026-05-02T08:59:39Z</time></trkpt><trkpt lat="44.17061909659757" lon="11.980012891598102"><ele>173.5</ele><time>2026-05-02T08:59:40Z</time></trkpt><trkpt lat="44.17053893092977" lon="11.980121743583727"><ele>171.0</ele><time>2026-05-02T08:59:41Z</time></trkpt><trkpt lat="44.170452793941735" lon="11.980227148370577"><ele>168.5</ele><time>2026-05-02T08:59:42Z</time></trkpt><trkpt lat="44.170366136774945" lon="11.980329897358304"><ele>166.0</ele><time>2026-05-02T08:59:43Z</time></trkpt><trkpt lat="44.17027904156684" lon="11.980433165727852"><ele>166.0</ele><time>2026-05-02T08:59:44Z</time></trkpt><trkpt lat="44.170193836120866" lon="11.980535144881694"><ele>166.0</ele><time>2026-05-02T08:59:45Z</time></trkpt><trkpt lat="44.170109384464574" lon="11.98063636578786"><ele>166.0</ele><time>2026-05-02T08:59:46Z</time></trkpt><trkpt lat="44.17002902008672" lon="11.980732687821838"><ele>166.0</ele><time>2026-05-02T08:59:47Z</time></trkpt><trkpt lat="44.16994990654345" lon="11.980827510646975"><ele>166.0</ele><time>2026-05-02T08:59:48Z</time></trkpt><trkpt lat="44.169872871700136" lon="11.980919842012343"><ele>165.8</ele><time>2026-05-02T08:59:49Z</time></trkpt><trkpt lat="44.169807067576706" lon="11.981027621548053"><ele>165.60000000000002</ele><time>2026-05-02T08:59:50Z</time></trkpt><trkpt lat="44.16973853787684" lon="11.981109306263093"><ele>165.4</ele><time>2026-05-02T08:59:51Z</time></trkpt><trkpt lat="44.16965514915718" lon="11.981177772968127"><ele>165.2</ele><time>2026-05-02T08:59:52Z</time></trkpt><trkpt lat="44.16958539105797" lon="11.981259298532219"><ele>165.0</ele><time>2026-05-02T08:59:53Z</time></trkpt><trkpt lat="44.16951570653326" lon="11.981340738121395"><ele>165.0</ele><time>2026-05-02T08:59:54Z</time></trkpt><trkpt lat="44.169447801696926" lon="11.981420097802708"><ele>165.0</ele><time>2026-05-02T08:59:55Z</time></trkpt><trkpt lat="44.169381218066626" lon="11.981498961820733"><ele>165.0</ele><time>2026-05-02T08:59:56Z</time></trkpt><trkpt lat="44.169328512055635" lon="11.981590583400527"><ele>165.0</ele><time>2026-05-02T08:59:57Z</time></trkpt><trkpt lat="44.16927016579326" lon="11.981664319882228"><ele>165.0</ele><time>2026-05-02T08:59:58Z</time></trkpt><trkpt lat="44.16921255733427" lon="11.981743974401452"><ele>165.0</ele><time>2026-05-02T08:59:59Z</time></trkpt><trkpt lat="44.16914937332543" lon="11.98181543928247"><ele>165.0</ele><time>2026-05-02T09:00:00Z</time></trkpt><trkpt lat="44.16910361588565" lon="11.98190370604308"><ele>165.0</ele><time>2026-05-02T09:00:01Z</time></trkpt><trkpt lat="44.16906301520251" lon="11.982000415811614"><ele>165.0</ele><time>2026-05-02T09:00:02Z</time></trkpt><trkpt lat="44.169027596392716" lon="11.982098865801861"><ele>165.0</ele><time>2026-05-02T09:00:03Z</time></trkpt><trkpt lat="44.16900070160685" lon="11.982196942754559"><ele>165.0</ele><time>2026-05-02T09:00:04Z</time></trkpt><trkpt lat="44.16897553545927" lon="11.982293463886581"><ele>165.0</ele><time>2026-05-02T09:00:05Z</time></trkpt><trkpt lat="44.1689493830212" lon="11.982393767798742"><ele>165.14285714285717</ele><time>2026-05-02T09:00:06Z</time></trkpt><trkpt lat="44.16892615997181" lon="11.982491544384473"><ele>165.28571428571428</ele><time>2026-05-02T09:00:07Z</time></trkpt><trkpt lat="44.168903440200424" lon="11.98258678826591"><ele>165.42857142857144</ele><time>2026-05-02T09:00:08Z</time></trkpt><trkpt lat="44.16888054476576" lon="11.982682768549004"><ele>165.57142857142858</ele><time>2026-05-02T09:00:09Z</time></trkpt><trkpt lat="44.16885788968893" lon="11.982777741235257"><ele>165.71428571428572</ele><time>2026-05-02T09:00:10Z</time></trkpt><trkpt lat="44.16883530717748" lon="11.982872409696219"><ele>165.85714285714286</ele><time>2026-05-02T09:00:11Z</time></trkpt><trkpt lat="44.16881311528851" lon="11.98296544063035"><ele>166.0</ele><time>2026-05-02T09:00:12Z</time></trkpt><trkpt lat="44.16878969999731" lon="11.983062378308627"><ele>165.7142857142857</ele><time>2026-05-02T09:00:13Z</time></trkpt><trkpt lat="44.1687670047031" lon="11.983156218057246"><ele>165.42857142857144</ele><time>2026-05-02T09:00:14Z</time></trkpt><trkpt lat="44.168744454211435" lon="11.98324945908847"><ele>165.14285714285714</ele><time>2026-05-02T09:00:15Z</time></trkpt><trkpt lat="44.16872203355861" lon="11.983342163258692"><ele>164.85714285714283</ele><time>2026-05-02T09:00:16Z</time></trkpt><trkpt lat="44.16869979976513" lon="11.983434094834635"><ele>164.57142857142856</ele><time>2026-05-02T09:00:17Z</time></trkpt><trkpt lat="44.168677271381604" lon="11.983527244424678"><ele>164.28571428571428</ele><time>2026-05-02T09:00:18Z</time></trkpt><trkpt lat="44.168654831582366" lon="11.98361941885329"><ele>164.0</ele><time>2026-05-02T09:00:19Z</time></trkpt><trkpt lat="44.168632736185" lon="11.983709972188862"><ele>163.28571428571428</ele><time>2026-05-02T09:00:20Z</time></trkpt><trkpt lat="44.16861119985017" lon="11.98379823432718"><ele>162.57142857142856</ele><time>2026-05-02T09:00:21Z</time></trkpt><trkpt lat="44.16858998211382" lon="11.983885190807225"><ele>161.85714285714283</ele><time>2026-05-02T09:00:22Z</time></trkpt><trkpt lat="44.16856804155986" lon="11.983975109567135"><ele>161.14285714285714</ele><time>2026-05-02T09:00:23Z</time></trkpt><trkpt lat="44.168546414579595" lon="11.984063743203786"><ele>160.42857142857144</ele><time>2026-05-02T09:00:24Z</time></trkpt><trkpt lat="44.168535213758474" lon="11.984151966062473"><ele>159.7142857142857</ele><time>2026-05-02T09:00:25Z</time></trkpt><trkpt lat="44.16851202503929" lon="11.984236328882513"><ele>159.0</ele><time>2026-05-02T09:00:26Z</time></trkpt><trkpt lat="44.16849331400865" lon="11.984323452425661"><ele>158.5</ele><time>2026-05-02T09:00:27Z</time></trkpt><trkpt lat="44.168475515254585" lon="11.984409586751777"><ele>158.0</ele><time>2026-05-02T09:00:28Z</time></trkpt><trkpt lat="44.16845202035184" lon="11.984491831716726"><ele>157.5</ele><time>2026-05-02T09:00:29Z</time></trkpt><trkpt lat="44.16840693358861" lon="11.984660274753931"><ele>157.0</ele><time>2026-05-02T09:00:31Z</time></trkpt><trkpt lat="44.16838680193301" lon="11.98475121679635"><ele>156.5</ele><time>2026-05-02T09:00:32Z</time></trkpt><trkpt lat="44.16836816538314" lon="11.984838156744983"><ele>156.0</ele><time>2026-05-02T09:00:33Z</time></trkpt><trkpt lat="44.168346312923106" lon="11.984927743481737"><ele>155.71428571428572</ele><time>2026-05-02T09:00:34Z</time></trkpt><trkpt lat="44.16832710869884" lon="11.985015910458857"><ele>155.42857142857142</ele><time>2026-05-02T09:00:35Z</time></trkpt><trkpt lat="44.16828952642786" lon="11.985097963773212"><ele>155.14285714285714</ele><time>2026-05-02T09:00:36Z</time></trkpt><trkpt lat="44.16826812433154" lon="11.985184030260388"><ele>154.85714285714286</ele><time>2026-05-02T09:00:37Z</time></trkpt><trkpt lat="44.168246726450455" lon="11.985275116479471"><ele>154.57142857142856</ele><time>2026-05-02T09:00:38Z</time></trkpt><trkpt lat="44.16822291611961" lon="11.985374013492315"><ele>154.28571428571428</ele><time>2026-05-02T09:00:39Z</time></trkpt><trkpt lat="44.16819892487629" lon="11.985477456256648"><ele>154.0</ele><time>2026-05-02T09:00:40Z</time></trkpt><trkpt lat="44.168178124851295" lon="11.985589061704552"><ele>153.2</ele><time>2026-05-02T09:00:41Z</time></trkpt><trkpt lat="44.16817227870859" lon="11.985706687726971"><ele>152.4</ele><time>2026-05-02T09:00:42Z</time></trkpt><trkpt lat="44.1681717675927" lon="11.98582999341425"><ele>151.6</ele><time>2026-05-02T09:00:43Z</time></trkpt><trkpt lat="44.16820031378018" lon="11.985956399704541"><ele>150.8</ele><time>2026-05-02T09:00:44Z</time></trkpt><trkpt lat="44.168248753319475" lon="11.986068012432192"><ele>150.0</ele><time>2026-05-02T09:00:45Z</time></trkpt><trkpt lat="44.16830841721643" lon="11.986164490024098"><ele>149.0</ele><time>2026-05-02T09:00:46Z</time></trkpt><trkpt lat="44.16838307797438" lon="11.986263575162932"><ele>148.0</ele><time>2026-05-02T09:00:47Z</time></trkpt><trkpt lat="44.168449386017684" lon="11.986365420746642"><ele>147.0</ele><time>2026-05-02T09:00:48Z</time></trkpt><trkpt lat="44.168513201444036" lon="11.98647189261563"><ele>146.0</ele><time>2026-05-02T09:00:48.999Z</time></trkpt><trkpt lat="44.168576072596956" lon="11.986572182351374"><ele>145.0</ele><time>2026-05-02T09:00:49.999Z</time></trkpt><trkpt lat="44.16864201176969" lon="11.986691247223526"><ele>142.8</ele><time>2026-05-02T09:00:50.999Z</time></trkpt><trkpt lat="44.16872322278938" lon="11.986786032019229"><ele>140.6</ele><time>2026-05-02T09:00:51.999Z</time></trkpt><trkpt lat="44.16878675444494" lon="11.986897117247114"><ele>138.4</ele><time>2026-05-02T09:00:52.999Z</time></trkpt><trkpt lat="44.168851987223135" lon="11.987024061567482"><ele>136.2</ele><time>2026-05-02T09:00:53.999Z</time></trkpt><trkpt lat="44.16892554944333" lon="11.987138433088537"><ele>134.0</ele><time>2026-05-02T09:00:54.999Z</time></trkpt><trkpt lat="44.16899427181953" lon="11.987257917904238"><ele>133.75</ele><time>2026-05-02T09:00:55.999Z</time></trkpt><trkpt lat="44.16905301004603" lon="11.987391086017857"><ele>133.5</ele><time>2026-05-02T09:00:56.999Z</time></trkpt><trkpt lat="44.16909449539185" lon="11.987531953557076"><ele>133.25</ele><time>2026-05-02T09:00:57.999Z</time></trkpt><trkpt lat="44.169126708607635" lon="11.98768813138518"><ele>133.0</ele><time>2026-05-02T09:00:58.999Z</time></trkpt><trkpt lat="44.16913193058181" lon="11.987845719657557"><ele>133.0</ele><time>2026-05-02T09:00:59.999Z</time></trkpt><trkpt lat="44.16913665423901" lon="11.988009446707785"><ele>133.0</ele><time>2026-05-02T09:01:00.999Z</time></trkpt><trkpt lat="44.16913891893024" lon="11.98817435827266"><ele>133.0</ele><time>2026-05-02T09:01:01.999Z</time></trkpt><trkpt lat="44.1691400091711" lon="11.988337349851603"><ele>133.0</ele><time>2026-05-02T09:01:02.999Z</time></trkpt><trkpt lat="44.16915762413571" lon="11.988502196992266"><ele>132.0</ele><time>2026-05-02T09:01:03.999Z</time></trkpt><trkpt lat="44.16914221192433" lon="11.988666662047326"><ele>131.0</ele><time>2026-05-02T09:01:04.999Z</time></trkpt><trkpt lat="44.16914329953235" lon="11.988824760177435"><ele>130.0</ele><time>2026-05-02T09:01:05.999Z</time></trkpt><trkpt lat="44.16914447719726" lon="11.988979427091216"><ele>129.0</ele><time>2026-05-02T09:01:06.999Z</time></trkpt><trkpt lat="44.169145677828936" lon="11.989137110379207"><ele>128.2</ele><time>2026-05-02T09:01:07.999Z</time></trkpt><trkpt lat="44.16914686062321" lon="11.989292450822042"><ele>127.4</ele><time>2026-05-02T09:01:08.999Z</time></trkpt><trkpt lat="44.16914805961715" lon="11.989443592231053"><ele>126.6</ele><time>2026-05-02T09:01:09.999Z</time></trkpt><trkpt lat="44.169149551018" lon="11.989593966741896"><ele>125.8</ele><time>2026-05-02T09:01:11Z</time></trkpt><trkpt lat="44.16916730376748" lon="11.98973697703998"><ele>125.0</ele><time>2026-05-02T09:01:12Z</time></trkpt><trkpt lat="44.16916557521213" lon="11.989878647626222"><ele>124.6</ele><time>2026-05-02T09:01:13Z</time></trkpt><trkpt lat="44.16916401713105" lon="11.990012083062005"><ele>124.2</ele><time>2026-05-02T09:01:14Z</time></trkpt><trkpt lat="44.169169054521966" lon="11.990144965335963"><ele>123.80000000000001</ele><time>2026-05-02T09:01:15Z</time></trkpt><trkpt lat="44.169179020399795" lon="11.990272155868626"><ele>123.4</ele><time>2026-05-02T09:01:16Z</time></trkpt><trkpt lat="44.16919624765962" lon="11.990395460770472"><ele>123.0</ele><time>2026-05-02T09:01:17Z</time></trkpt><trkpt lat="44.16920109954616" lon="11.990519159972678"><ele>123.0</ele><time>2026-05-02T09:01:18Z</time></trkpt><trkpt lat="44.16922885798228" lon="11.990636591968952"><ele>123.0</ele><time>2026-05-02T09:01:19Z</time></trkpt><trkpt lat="44.16926134691234" lon="11.990749581848906"><ele>123.0</ele><time>2026-05-02T09:01:20Z</time></trkpt><trkpt lat="44.16931527006005" lon="11.99085349085223"><ele>123.0</ele><time>2026-05-02T09:01:21Z</time></trkpt><trkpt lat="44.169339505760874" lon="11.990965410656715"><ele>123.0</ele><time>2026-05-02T09:01:22Z</time></trkpt><trkpt lat="44.16939249157262" lon="11.991061283011206"><ele>123.0</ele><time>2026-05-02T09:01:23Z</time></trkpt><trkpt lat="44.169448301590286" lon="11.991153159317133"><ele>122.0</ele><time>2026-05-02T09:01:24Z</time></trkpt><trkpt lat="44.16950829916661" lon="11.991232791305686"><ele>121.0</ele><time>2026-05-02T09:01:25Z</time></trkpt><trkpt lat="44.169578761333256" lon="11.991307405730694"><ele>120.0</ele><time>2026-05-02T09:01:26Z</time></trkpt><trkpt lat="44.1696439015044" lon="11.991372985323865"><ele>119.0</ele><time>2026-05-02T09:01:27Z</time></trkpt><trkpt lat="44.16970922262767" lon="11.991429214444002"><ele>118.0</ele><time>2026-05-02T09:01:28Z</time></trkpt><trkpt lat="44.16977624055352" lon="11.991493589804351"><ele>117.0</ele><time>2026-05-02T09:01:29Z</time></trkpt><trkpt lat="44.169847573732696" lon="11.991542526605334"><ele>117.66666666666667</ele><time>2026-05-02T09:01:30Z</time></trkpt><trkpt lat="44.169913981605816" lon="11.991604349321552"><ele>118.33333333333334</ele><time>2026-05-02T09:01:31Z</time></trkpt><trkpt lat="44.16998445158501" lon="11.991660342405925"><ele>119.0</ele><time>2026-05-02T09:01:32Z</time></trkpt><trkpt lat="44.170049997319595" lon="11.991717382749183"><ele>119.66666666666667</ele><time>2026-05-02T09:01:33Z</time></trkpt><trkpt lat="44.17010928519008" lon="11.99176306777368"><ele>120.33333333333334</ele><time>2026-05-02T09:01:34Z</time></trkpt><trkpt lat="44.170177898366575" lon="11.991824440667468"><ele>121.0</ele><time>2026-05-02T09:01:35Z</time></trkpt><trkpt lat="44.170244175651035" lon="11.99188379698359"><ele>121.00000000000001</ele><time>2026-05-02T09:01:36Z</time></trkpt><trkpt lat="44.17031010766589" lon="11.991948413054931"><ele>121.0</ele><time>2026-05-02T09:01:37Z</time></trkpt><trkpt lat="44.17037904635237" lon="11.992010816929124"><ele>121.0</ele><time>2026-05-02T09:01:38Z</time></trkpt><trkpt lat="44.17043662180664" lon="11.992075701295889"><ele>121.0</ele><time>2026-05-02T09:01:39Z</time></trkpt><trkpt lat="44.17050905083381" lon="11.992142334632456"><ele>121.00000000000001</ele><time>2026-05-02T09:01:40Z</time></trkpt><trkpt lat="44.17057506573942" lon="11.992204720967585"><ele>121.0</ele><time>2026-05-02T09:01:41Z</time></trkpt><trkpt lat="44.170643497461384" lon="11.992262516796034"><ele>121.0</ele><time>2026-05-02T09:01:42Z</time></trkpt><trkpt lat="44.17070699586483" lon="11.992313368960238"><ele>120.99999999999999</ele><time>2026-05-02T09:01:43Z</time></trkpt><trkpt lat="44.17077008208892" lon="11.992367040133438"><ele>121.0</ele><time>2026-05-02T09:01:44Z</time></trkpt><trkpt lat="44.17082446626145" lon="11.99242496525709"><ele>121.0</ele><time>2026-05-02T09:01:45Z</time></trkpt><trkpt lat="44.17088508917172" lon="11.992478620234891"><ele>120.99999999999999</ele><time>2026-05-02T09:01:46Z</time></trkpt><trkpt lat="44.170946777586394" lon="11.99253364511978"><ele>121.0</ele><time>2026-05-02T09:01:47Z</time></trkpt><trkpt lat="44.17101071748858" lon="11.992591575350925"><ele>121.0</ele><time>2026-05-02T09:01:48Z</time></trkpt><trkpt lat="44.17107316696569" lon="11.992649212255934"><ele>120.85714285714285</ele><time>2026-05-02T09:01:49Z</time></trkpt><trkpt lat="44.17113179506651" lon="11.992707756222842"><ele>120.7142857142857</ele><time>2026-05-02T09:01:50Z</time></trkpt><trkpt lat="44.1711896172806" lon="11.99276621363207"><ele>120.57142857142857</ele><time>2026-05-02T09:01:51Z</time></trkpt><trkpt lat="44.17125373710904" lon="11.992818620577413"><ele>120.42857142857142</ele><time>2026-05-02T09:01:52Z</time></trkpt><trkpt lat="44.17131540778064" lon="11.992882503078384"><ele>120.28571428571428</ele><time>2026-05-02T09:01:53Z</time></trkpt><trkpt lat="44.17137230740307" lon="11.992940967792435"><ele>120.14285714285714</ele><time>2026-05-02T09:01:54Z</time></trkpt><trkpt lat="44.17143520010097" lon="11.992998856074209"><ele>120.0</ele><time>2026-05-02T09:01:55Z</time></trkpt><trkpt lat="44.1715016744225" lon="11.993053101118083"><ele>119.57142857142858</ele><time>2026-05-02T09:01:56Z</time></trkpt><trkpt lat="44.17156102155787" lon="11.993114349254185"><ele>119.14285714285714</ele><time>2026-05-02T09:01:57Z</time></trkpt><trkpt lat="44.17162367060045" lon="11.99316400803909"><ele>118.71428571428572</ele><time>2026-05-02T09:01:58Z</time></trkpt><trkpt lat="44.17168205092419" lon="11.993220062619166"><ele>118.28571428571429</ele><time>2026-05-02T09:01:59Z</time></trkpt><trkpt lat="44.17174380522541" lon="11.993271921155639"><ele>117.85714285714286</ele><time>2026-05-02T09:02:00Z</time></trkpt><trkpt lat="44.17180769673119" lon="11.993325973616914"><ele>117.42857142857143</ele><time>2026-05-02T09:02:01Z</time></trkpt><trkpt lat="44.17186610469785" lon="11.993381281580787"><ele>117.0</ele><time>2026-05-02T09:02:02Z</time></trkpt><trkpt lat="44.17191790880236" lon="11.993451527596172"><ele>116.71428571428572</ele><time>2026-05-02T09:02:03Z</time></trkpt><trkpt lat="44.17198736783622" lon="11.993490100536913"><ele>116.42857142857144</ele><time>2026-05-02T09:02:04Z</time></trkpt><trkpt lat="44.17203624003974" lon="11.99355938726958"><ele>116.14285714285714</ele><time>2026-05-02T09:02:05Z</time></trkpt><trkpt lat="44.1720956537655" lon="11.993613543256352"><ele>115.85714285714286</ele><time>2026-05-02T09:02:06Z</time></trkpt><trkpt lat="44.172152865322424" lon="11.993665691947939"><ele>115.57142857142857</ele><time>2026-05-02T09:02:07Z</time></trkpt><trkpt lat="44.17220772130847" lon="11.993715693527097"><ele>115.28571428571428</ele><time>2026-05-02T09:02:08Z</time></trkpt><trkpt lat="44.17226666427963" lon="11.993769420423462"><ele>114.99999999999999</ele><time>2026-05-02T09:02:09Z</time></trkpt><trkpt lat="44.17232403264992" lon="11.993821712050106"><ele>114.42857142857142</ele><time>2026-05-02T09:02:10Z</time></trkpt><trkpt lat="44.172381776235305" lon="11.993874345693742"><ele>113.85714285714286</ele><time>2026-05-02T09:02:11Z</time></trkpt><trkpt lat="44.17244766115956" lon="11.993910846969678"><ele>113.28571428571428</ele><time>2026-05-02T09:02:12Z</time></trkpt><trkpt lat="44.17251138116967" lon="11.993967361527506"><ele>112.71428571428571</ele><time>2026-05-02T09:02:13Z</time></trkpt><trkpt lat="44.17255815540901" lon="11.994036106953946"><ele>112.14285714285714</ele><time>2026-05-02T09:02:14Z</time></trkpt><trkpt lat="44.172612646117166" lon="11.994086832765346"><ele>111.57142857142857</ele><time>2026-05-02T09:02:15Z</time></trkpt><trkpt lat="44.17267670877768" lon="11.994146469182672"><ele>111.0</ele><time>2026-05-02T09:02:16Z</time></trkpt><trkpt lat="44.17273671974086" lon="11.99420233382662"><ele>111.0</ele><time>2026-05-02T09:02:17Z</time></trkpt><trkpt lat="44.172794334019265" lon="11.994255967389572"><ele>111.0</ele><time>2026-05-02T09:02:18Z</time></trkpt><trkpt lat="44.17285047250993" lon="11.994308227123488"><ele>111.0</ele><time>2026-05-02T09:02:19Z</time></trkpt><trkpt lat="44.17290803516193" lon="11.994361812627531"><ele>111.0</ele><time>2026-05-02T09:02:20Z</time></trkpt><trkpt lat="44.17296446667522" lon="11.994414345141866"><ele>111.0</ele><time>2026-05-02T09:02:21Z</time></trkpt><trkpt lat="44.17302190752848" lon="11.99446781726007"><ele>111.0</ele><time>2026-05-02T09:02:22Z</time></trkpt><trkpt lat="44.173080977172695" lon="11.994522805630845"><ele>111.0</ele><time>2026-05-02T09:02:23Z</time></trkpt><trkpt lat="44.173135857973826" lon="11.994573894574776"><ele>110.85714285714285</ele><time>2026-05-02T09:02:24Z</time></trkpt><trkpt lat="44.1731951878567" lon="11.994627884068247"><ele>110.71428571428572</ele><time>2026-05-02T09:02:25Z</time></trkpt><trkpt lat="44.1732537366643" lon="11.99468040960092"><ele>110.57142857142857</ele><time>2026-05-02T09:02:26Z</time></trkpt><trkpt lat="44.17331777180662" lon="11.99471590312286"><ele>110.42857142857142</ele><time>2026-05-02T09:02:27Z</time></trkpt><trkpt lat="44.17337420314841" lon="11.99476894364014"><ele>110.28571428571428</ele><time>2026-05-02T09:02:28Z</time></trkpt><trkpt lat="44.17343004489387" lon="11.994817859805766"><ele>110.14285714285714</ele><time>2026-05-02T09:02:29Z</time></trkpt><trkpt lat="44.173484524843985" lon="11.994868638916616"><ele>110.0</ele><time>2026-05-02T09:02:30Z</time></trkpt><trkpt lat="44.17353983754023" lon="11.994911831301517"><ele>110.0</ele><time>2026-05-02T09:02:31Z</time></trkpt><trkpt lat="44.17359394033384" lon="11.994958463689777"><ele>110.0</ele><time>2026-05-02T09:02:32Z</time></trkpt><trkpt lat="44.17363417446783" lon="11.995027201148124"><ele>110.0</ele><time>2026-05-02T09:02:33Z</time></trkpt><trkpt lat="44.17363018006512" lon="11.995212144527203"><ele>110.0</ele><time>2026-05-02T09:02:35Z</time></trkpt><trkpt lat="44.17358329400707" lon="11.995285507086743"><ele>110.0</ele><time>2026-05-02T09:02:36Z</time></trkpt><trkpt lat="44.173494842722086" lon="11.995400965059178"><ele>109.25</ele><time>2026-05-02T09:02:38Z</time></trkpt><trkpt lat="44.173424199152876" lon="11.995536868838926"><ele>108.5</ele><time>2026-05-02T09:02:40Z</time></trkpt><trkpt lat="44.17335415690218" lon="11.995666319948223"><ele>107.75</ele><time>2026-05-02T09:02:42Z</time></trkpt><trkpt lat="44.17328151561989" lon="11.995793414250715"><ele>107.0</ele><time>2026-05-02T09:02:44Z</time></trkpt><trkpt lat="44.173202108732355" lon="11.995908166538703"><ele>107.0</ele><time>2026-05-02T09:02:46Z</time></trkpt><trkpt lat="44.17313225618641" lon="11.996034018969848"><ele>107.0</ele><time>2026-05-02T09:02:48Z</time></trkpt><trkpt lat="44.17306340997429" lon="11.996158058316219"><ele>107.0</ele><time>2026-05-02T09:02:50Z</time></trkpt><trkpt lat="44.172993184905096" lon="11.99628458132643"><ele>107.0</ele><time>2026-05-02T09:02:52Z</time></trkpt><trkpt lat="44.17292305881056" lon="11.996410926980197"><ele>107.0</ele><time>2026-05-02T09:02:54Z</time></trkpt><trkpt lat="44.17285002650984" lon="11.996542508308476"><ele>107.0</ele><time>2026-05-02T09:02:56Z</time></trkpt><trkpt lat="44.172778137074836" lon="11.996672030426385"><ele>107.0</ele><time>2026-05-02T09:02:58Z</time></trkpt><trkpt lat="44.172707423657556" lon="11.996799625228288"><ele>107.0</ele><time>2026-05-02T09:03:00Z</time></trkpt><trkpt lat="44.172646298909086" lon="11.996942207174927"><ele>106.75</ele><time>2026-05-02T09:03:02Z</time></trkpt><trkpt lat="44.17257381814753" lon="11.99706607143537"><ele>106.5</ele><time>2026-05-02T09:03:03.999Z</time></trkpt><trkpt lat="44.172503780902325" lon="11.997189313625446"><ele>106.25</ele><time>2026-05-02T09:03:05.999Z</time></trkpt><trkpt lat="44.17242709360602" lon="11.997309221052129"><ele>106.0</ele><time>2026-05-02T09:03:07.999Z</time></trkpt><trkpt lat="44.172340244041315" lon="11.9974107891735"><ele>105.75</ele><time>2026-05-02T09:03:09.999Z</time></trkpt><trkpt lat="44.17223417157032" lon="11.997482399515487"><ele>105.5</ele><time>2026-05-02T09:03:11.999Z</time></trkpt><trkpt lat="44.17210701309543" lon="11.997513194165546"><ele>105.25</ele><time>2026-05-02T09:03:13.999Z</time></trkpt><trkpt lat="44.17198734172205" lon="11.997509775482936"><ele>105.0</ele><time>2026-05-02T09:03:15.999Z</time></trkpt><trkpt lat="44.17188061027873" lon="11.997445710437601"><ele>105.0</ele><time>2026-05-02T09:03:18Z</time></trkpt><trkpt lat="44.17176195801276" lon="11.997422396029837"><ele>105.0</ele><time>2026-05-02T09:03:20Z</time></trkpt><trkpt lat="44.17164454981035" lon="11.997378273764204"><ele>105.0</ele><time>2026-05-02T09:03:22Z</time></trkpt><trkpt lat="44.17153038369498" lon="11.997317261448625"><ele>105.0</ele><time>2026-05-02T09:03:24Z</time></trkpt><trkpt lat="44.171408552584595" lon="11.997302068867803"><ele>104.66666666666667</ele><time>2026-05-02T09:03:26Z</time></trkpt><trkpt lat="44.17129070102543" lon="11.997364832846314"><ele>104.33333333333334</ele><time>2026-05-02T09:03:28Z</time></trkpt><trkpt lat="44.17124154849267" lon="11.997436632241307"><ele>104.0</ele><time>2026-05-02T09:03:29Z</time></trkpt><trkpt lat="44.17119799428748" lon="11.997521145922034"><ele>103.66666666666667</ele><time>2026-05-02T09:03:30Z</time></trkpt><trkpt lat="44.17115639665997" lon="11.997603364881414"><ele>103.33333333333334</ele><time>2026-05-02T09:03:31Z</time></trkpt><trkpt lat="44.1711163832782" lon="11.997682203609202"><ele>103.0</ele><time>2026-05-02T09:03:32Z</time></trkpt><trkpt lat="44.17107502761923" lon="11.99776644778261"><ele>102.57142857142857</ele><time>2026-05-02T09:03:33Z</time></trkpt><trkpt lat="44.171036696429844" lon="11.997848884504574"><ele>102.14285714285714</ele><time>2026-05-02T09:03:34Z</time></trkpt><trkpt lat="44.170995732896024" lon="11.997936982763942"><ele>101.71428571428572</ele><time>2026-05-02T09:03:35Z</time></trkpt><trkpt lat="44.1709556134688" lon="11.998023265289465"><ele>101.28571428571428</ele><time>2026-05-02T09:03:36Z</time></trkpt><trkpt lat="44.170915374057806" lon="11.998109805998336"><ele>100.85714285714286</ele><time>2026-05-02T09:03:37Z</time></trkpt><trkpt lat="44.17087550064801" lon="11.998195559792963"><ele>100.42857142857143</ele><time>2026-05-02T09:03:38Z</time></trkpt><trkpt lat="44.17083722284664" lon="11.998277877801105"><ele>100.0</ele><time>2026-05-02T09:03:39Z</time></trkpt><trkpt lat="44.170797689674366" lon="11.998361742643565"><ele>100.00000000000001</ele><time>2026-05-02T09:03:40Z</time></trkpt><trkpt lat="44.17075955691585" lon="11.99844304354014"><ele>100.0</ele><time>2026-05-02T09:03:41Z</time></trkpt><trkpt lat="44.17071904477371" lon="11.99852941765865"><ele>100.0</ele><time>2026-05-02T09:03:42Z</time></trkpt><trkpt lat="44.17067937486631" lon="11.99861399601047"><ele>100.0</ele><time>2026-05-02T09:03:43Z</time></trkpt><trkpt lat="44.17064142948704" lon="11.998694897649287"><ele>100.0</ele><time>2026-05-02T09:03:44Z</time></trkpt><trkpt lat="44.17060360792922" lon="11.998775535159002"><ele>100.00000000000001</ele><time>2026-05-02T09:03:45Z</time></trkpt><trkpt lat="44.170567060670464" lon="11.998853455885016"><ele>100.0</ele><time>2026-05-02T09:03:46Z</time></trkpt><trkpt lat="44.17052865197391" lon="11.998935345113408"><ele>100.00000000000001</ele><time>2026-05-02T09:03:47Z</time></trkpt><trkpt lat="44.170491073746874" lon="11.99901546384129"><ele>100.0</ele><time>2026-05-02T09:03:48Z</time></trkpt><trkpt lat="44.17045108810555" lon="11.99910071537025"><ele>100.0</ele><time>2026-05-02T09:03:49Z</time></trkpt><trkpt lat="44.17041444996904" lon="11.999178829921888"><ele>100.0</ele><time>2026-05-02T09:03:50Z</time></trkpt><trkpt lat="44.17039128589993" lon="11.999270435938383"><ele>100.0</ele><time>2026-05-02T09:03:51Z</time></trkpt><trkpt lat="44.17034150312744" lon="11.999335277959082"><ele>100.00000000000001</ele><time>2026-05-02T09:03:52Z</time></trkpt><trkpt lat="44.17030645991483" lon="11.999411331190005"><ele>100.0</ele><time>2026-05-02T09:03:53Z</time></trkpt><trkpt lat="44.170269007795085" lon="11.999492612472503"><ele>99.6</ele><time>2026-05-02T09:03:54Z</time></trkpt><trkpt lat="44.170248339385964" lon="11.999580335939449"><ele>99.2</ele><time>2026-05-02T09:03:55Z</time></trkpt><trkpt lat="44.17020245200714" lon="11.999648572121638"><ele>98.80000000000001</ele><time>2026-05-02T09:03:56Z</time></trkpt><trkpt lat="44.17014346129015" lon="11.999806930974595"><ele>98.4</ele><time>2026-05-02T09:03:58Z</time></trkpt><trkpt lat="44.1700950430088" lon="11.999882892755853"><ele>98.0</ele><time>2026-05-02T09:03:59Z</time></trkpt><trkpt lat="44.170080054740815" lon="12.000058898382193"><ele>98.0</ele><time>2026-05-02T09:04:01Z</time></trkpt><trkpt lat="44.1700972854673" lon="12.000150912064374"><ele>98.0</ele><time>2026-05-02T09:04:02Z</time></trkpt><trkpt lat="44.17013017069" lon="12.000226063896974"><ele>98.0</ele><time>2026-05-02T09:04:03Z</time></trkpt><trkpt lat="44.170168382004476" lon="12.000316065701432"><ele>98.0</ele><time>2026-05-02T09:04:04Z</time></trkpt><trkpt lat="44.17020291812116" lon="12.000391450891806"><ele>98.0</ele><time>2026-05-02T09:04:05Z</time></trkpt><trkpt lat="44.17023320480918" lon="12.000474888013215"><ele>98.0</ele><time>2026-05-02T09:04:06Z</time></trkpt><trkpt lat="44.17027141685682" lon="12.000549276901241"><ele>98.0</ele><time>2026-05-02T09:04:07Z</time></trkpt><trkpt lat="44.17030998658499" lon="12.000623447285738"><ele>98.0</ele><time>2026-05-02T09:04:08Z</time></trkpt><trkpt lat="44.170350912231164" lon="12.000700035501144"><ele>98.0</ele><time>2026-05-02T09:04:09Z</time></trkpt><trkpt lat="44.17038985599431" lon="12.000772915435507"><ele>98.0</ele><time>2026-05-02T09:04:10Z</time></trkpt><trkpt lat="44.17043323236331" lon="12.000854090150547"><ele>98.0</ele><time>2026-05-02T09:04:11Z</time></trkpt><trkpt lat="44.17048774530519" lon="12.00091613183752"><ele>98.0</ele><time>2026-05-02T09:04:12Z</time></trkpt><trkpt lat="44.17052042332038" lon="12.000996720855637"><ele>98.0</ele><time>2026-05-02T09:04:13Z</time></trkpt><trkpt lat="44.170568378539336" lon="12.00107423111518"><ele>98.0</ele><time>2026-05-02T09:04:14Z</time></trkpt><trkpt lat="44.17060884351762" lon="12.001152460509275"><ele>97.42857142857143</ele><time>2026-05-02T09:04:15Z</time></trkpt><trkpt lat="44.17064988017835" lon="12.001227078030762"><ele>96.85714285714286</ele><time>2026-05-02T09:04:16Z</time></trkpt><trkpt lat="44.1706900900421" lon="12.00130052330267"><ele>96.28571428571428</ele><time>2026-05-02T09:04:17Z</time></trkpt><trkpt lat="44.17073040903841" lon="12.001375507252602"><ele>95.71428571428572</ele><time>2026-05-02T09:04:18Z</time></trkpt><trkpt lat="44.170773488492344" lon="12.001449015042885"><ele>95.14285714285714</ele><time>2026-05-02T09:04:19Z</time></trkpt><trkpt lat="44.170810780181576" lon="12.00152699971987"><ele>94.57142857142857</ele><time>2026-05-02T09:04:20Z</time></trkpt><trkpt lat="44.17085152559122" lon="12.001601324858644"><ele>94.0</ele><time>2026-05-02T09:04:21Z</time></trkpt><trkpt lat="44.17087034813579" lon="12.001688653758642"><ele>93.75</ele><time>2026-05-02T09:04:22Z</time></trkpt><trkpt lat="44.17092095553324" lon="12.001842710611239"><ele>93.5</ele><time>2026-05-02T09:04:24Z</time></trkpt><trkpt lat="44.17107530168004" lon="12.001968435083956"><ele>93.25</ele><time>2026-05-02T09:04:26Z</time></trkpt><trkpt lat="44.1711792850039" lon="12.002041764127931"><ele>93.0</ele><time>2026-05-02T09:04:28Z</time></trkpt><trkpt lat="44.171287528954025" lon="12.002110039658515"><ele>93.0</ele><time>2026-05-02T09:04:30Z</time></trkpt><trkpt lat="44.17139259523984" lon="12.002217627435957"><ele>93.0</ele><time>2026-05-02T09:04:32Z</time></trkpt><trkpt lat="44.17144991227252" lon="12.002263702644841"><ele>93.0</ele><time>2026-05-02T09:04:33Z</time></trkpt><trkpt lat="44.17150716288918" lon="12.002312156710664"><ele>93.0</ele><time>2026-05-02T09:04:34Z</time></trkpt><trkpt lat="44.17156469171738" lon="12.00236277993297"><ele>93.0</ele><time>2026-05-02T09:04:35Z</time></trkpt><trkpt lat="44.17162030000081" lon="12.002415934718387"><ele>93.0</ele><time>2026-05-02T09:04:36Z</time></trkpt><trkpt lat="44.17167303873544" lon="12.00247183841726"><ele>92.42857142857143</ele><time>2026-05-02T09:04:37Z</time></trkpt><trkpt lat="44.171725033646" lon="12.00252627282875"><ele>91.85714285714286</ele><time>2026-05-02T09:04:38Z</time></trkpt><trkpt lat="44.17177664981399" lon="12.002578685692484"><ele>91.28571428571428</ele><time>2026-05-02T09:04:39Z</time></trkpt><trkpt lat="44.17183050732959" lon="12.002632378049402"><ele>90.71428571428572</ele><time>2026-05-02T09:04:40Z</time></trkpt><trkpt lat="44.17188431596136" lon="12.002682150833307"><ele>90.14285714285714</ele><time>2026-05-02T09:04:41Z</time></trkpt><trkpt lat="44.1719415475395" lon="12.00273487690461"><ele>89.57142857142857</ele><time>2026-05-02T09:04:42Z</time></trkpt><trkpt lat="44.17199478534823" lon="12.002789091266493"><ele>89.0</ele><time>2026-05-02T09:04:43Z</time></trkpt><trkpt lat="44.17210221448842" lon="12.00288861969334"><ele>89.0</ele><time>2026-05-02T09:04:45Z</time></trkpt><trkpt lat="44.17215336297086" lon="12.002940951041678"><ele>89.0</ele><time>2026-05-02T09:04:46Z</time></trkpt><trkpt lat="44.17220789961782" lon="12.002991139889895"><ele>89.0</ele><time>2026-05-02T09:04:47Z</time></trkpt><trkpt lat="44.172308737007725" lon="12.003093001814918"><ele>89.0</ele><time>2026-05-02T09:04:49Z</time></trkpt><trkpt lat="44.172366579078464" lon="12.0031425495333"><ele>89.0</ele><time>2026-05-02T09:04:50Z</time></trkpt><trkpt lat="44.17246205849634" lon="12.00323849976943"><ele>89.0</ele><time>2026-05-02T09:04:52Z</time></trkpt><trkpt lat="44.17257038549489" lon="12.003331701171025"><ele>88.6</ele><time>2026-05-02T09:04:54Z</time></trkpt><trkpt lat="44.17267195630947" lon="12.003426270075938"><ele>88.2</ele><time>2026-05-02T09:04:56Z</time></trkpt><trkpt lat="44.172722895118504" lon="12.003478913425633"><ele>87.8</ele><time>2026-05-02T09:04:56.999Z</time></trkpt><trkpt lat="44.17281626770398" lon="12.003577053314531"><ele>87.39999999999999</ele><time>2026-05-02T09:04:58.999Z</time></trkpt><trkpt lat="44.17286915668024" lon="12.003626509252216"><ele>87.0</ele><time>2026-05-02T09:04:59.999Z</time></trkpt><trkpt lat="44.172967487572954" lon="12.003727946875932"><ele>87.0</ele><time>2026-05-02T09:05:01.999Z</time></trkpt><trkpt lat="44.17306560611587" lon="12.003819281794158"><ele>87.0</ele><time>2026-05-02T09:05:03.999Z</time></trkpt><trkpt lat="44.173160458195376" lon="12.003918390816157"><ele>87.0</ele><time>2026-05-02T09:05:05.999Z</time></trkpt><trkpt lat="44.173264449105396" lon="12.004011160076391"><ele>87.0</ele><time>2026-05-02T09:05:07.999Z</time></trkpt><trkpt lat="44.17330265011977" lon="12.004084580034895"><ele>87.0</ele><time>2026-05-02T09:05:08.999Z</time></trkpt><trkpt lat="44.173359139857105" lon="12.004124668802863"><ele>86.71428571428571</ele><time>2026-05-02T09:05:09.999Z</time></trkpt><trkpt lat="44.17339606663361" lon="12.004199928897386"><ele>86.42857142857143</ele><time>2026-05-02T09:05:10.999Z</time></trkpt><trkpt lat="44.17344285588201" lon="12.004259376869966"><ele>86.14285714285714</ele><time>2026-05-02T09:05:11.999Z</time></trkpt><trkpt lat="44.1734890700935" lon="12.004319566780433"><ele>85.85714285714286</ele><time>2026-05-02T09:05:12.999Z</time></trkpt><trkpt lat="44.17353592154706" lon="12.004380725197661"><ele>85.57142857142857</ele><time>2026-05-02T09:05:13.999Z</time></trkpt><trkpt lat="44.17358553214687" lon="12.004440915656739"><ele>85.28571428571429</ele><time>2026-05-02T09:05:14.999Z</time></trkpt><trkpt lat="44.17363421446721" lon="12.004504542174692"><ele>85.0</ele><time>2026-05-02T09:05:15.999Z</time></trkpt><trkpt lat="44.17368054959701" lon="12.004571552535658"><ele>85.0</ele><time>2026-05-02T09:05:16.999Z</time></trkpt><trkpt lat="44.17373114804357" lon="12.004635466823583"><ele>85.0</ele><time>2026-05-02T09:05:17.999Z</time></trkpt><trkpt lat="44.17378167806996" lon="12.004699162717296"><ele>85.0</ele><time>2026-05-02T09:05:18.999Z</time></trkpt><trkpt lat="44.17382707320817" lon="12.00476456345866"><ele>85.0</ele><time>2026-05-02T09:05:19.999Z</time></trkpt><trkpt lat="44.17387499754918" lon="12.004832459325133"><ele>85.0</ele><time>2026-05-02T09:05:20.999Z</time></trkpt><trkpt lat="44.17392248453637" lon="12.004900040417253"><ele>85.0</ele><time>2026-05-02T09:05:21.999Z</time></trkpt><trkpt lat="44.173972569173074" lon="12.004965916648388"><ele>85.0</ele><time>2026-05-02T09:05:23Z</time></trkpt><trkpt lat="44.17401846683258" lon="12.005030096463335"><ele>84.85714285714286</ele><time>2026-05-02T09:05:24Z</time></trkpt><trkpt lat="44.17406973490325" lon="12.005096115982678"><ele>84.71428571428571</ele><time>2026-05-02T09:05:25Z</time></trkpt><trkpt lat="44.17412023144312" lon="12.00516303340316"><ele>84.57142857142857</ele><time>2026-05-02T09:05:26Z</time></trkpt><trkpt lat="44.17417095380279" lon="12.005227639810135"><ele>84.42857142857143</ele><time>2026-05-02T09:05:27Z</time></trkpt><trkpt lat="44.17420847574653" lon="12.005304321333302"><ele>84.28571428571428</ele><time>2026-05-02T09:05:28Z</time></trkpt><trkpt lat="44.17426264720175" lon="12.00538511211455"><ele>84.14285714285714</ele><time>2026-05-02T09:05:30Z</time></trkpt><trkpt lat="44.174196461240115" lon="12.005476942101735"><ele>84.0</ele><time>2026-05-02T09:05:32Z</time></trkpt><trkpt lat="44.17414657488697" lon="12.005562996534602"><ele>84.0</ele><time>2026-05-02T09:05:34Z</time></trkpt><trkpt lat="44.17411206936421" lon="12.005658759127808"><ele>84.0</ele><time>2026-05-02T09:05:36Z</time></trkpt><trkpt lat="44.174049283565274" lon="12.005732897063824"><ele>84.0</ele><time>2026-05-02T09:05:38Z</time></trkpt><trkpt lat="44.1740021492992" lon="12.005821807130008"><ele>84.0</ele><time>2026-05-02T09:05:40Z</time></trkpt><trkpt lat="44.1739475906134" lon="12.005924721982607"><ele>84.0</ele><time>2026-05-02T09:05:42Z</time></trkpt><trkpt lat="44.173897906047614" lon="12.006018442698796"><ele>84.0</ele><time>2026-05-02T09:05:44Z</time></trkpt><trkpt lat="44.17384586052821" lon="12.00613744940636"><ele>83.80000000000001</ele><time>2026-05-02T09:05:46Z</time></trkpt><trkpt lat="44.17379558636816" lon="12.006231080574631"><ele>83.60000000000001</ele><time>2026-05-02T09:05:48Z</time></trkpt><trkpt lat="44.17372994923131" lon="12.006323134560699"><ele>83.4</ele><time>2026-05-02T09:05:50Z</time></trkpt><trkpt lat="44.1736625288847" lon="12.006441610555907"><ele>83.2</ele><time>2026-05-02T09:05:52Z</time></trkpt><trkpt lat="44.17359729923113" lon="12.006556012073546"><ele>83.0</ele><time>2026-05-02T09:05:54Z</time></trkpt><trkpt lat="44.17352710047331" lon="12.006682669954511"><ele>82.4</ele><time>2026-05-02T09:05:56Z</time></trkpt><trkpt lat="44.1734873658826" lon="12.006755795628868"><ele>81.80000000000001</ele><time>2026-05-02T09:05:57Z</time></trkpt><trkpt lat="44.17341773970469" lon="12.006883932457871"><ele>81.2</ele><time>2026-05-02T09:05:59Z</time></trkpt><trkpt lat="44.173375300266876" lon="12.006954794969015"><ele>80.6</ele><time>2026-05-02T09:06:00Z</time></trkpt><trkpt lat="44.17330191775624" lon="12.007086300285714"><ele>80.0</ele><time>2026-05-02T09:06:02Z</time></trkpt><trkpt lat="44.17324105803248" lon="12.007243574618627"><ele>80.0</ele><time>2026-05-02T09:06:04Z</time></trkpt><trkpt lat="44.17323617566319" lon="12.007366102739683"><ele>80.0</ele><time>2026-05-02T09:06:05Z</time></trkpt><trkpt lat="44.173251466530076" lon="12.007487148593366"><ele>80.0</ele><time>2026-05-02T09:06:06Z</time></trkpt><trkpt lat="44.17327093934561" lon="12.00760102884432"><ele>80.0</ele><time>2026-05-02T09:06:07Z</time></trkpt><trkpt lat="44.173272589657685" lon="12.007762148792388"><ele>80.0</ele><time>2026-05-02T09:06:09Z</time></trkpt><trkpt lat="44.17323450891083" lon="12.007839355409349"><ele>80.0</ele><time>2026-05-02T09:06:10Z</time></trkpt><trkpt lat="44.173175953809086" lon="12.007909977698503"><ele>78.4</ele><time>2026-05-02T09:06:11Z</time></trkpt><trkpt lat="44.1731090365913" lon="12.008015025483923"><ele>76.8</ele><time>2026-05-02T09:06:12Z</time></trkpt><trkpt lat="44.1730485990147" lon="12.008111104213395"><ele>75.2</ele><time>2026-05-02T09:06:13Z</time></trkpt><trkpt lat="44.17297748650192" lon="12.008222538964834"><ele>73.6</ele><time>2026-05-02T09:06:14Z</time></trkpt><trkpt lat="44.17290357501073" lon="12.008337439818192"><ele>72.0</ele><time>2026-05-02T09:06:15Z</time></trkpt><trkpt lat="44.17284159420321" lon="12.008453357343626"><ele>70.8</ele><time>2026-05-02T09:06:16Z</time></trkpt><trkpt lat="44.17277469459037" lon="12.00856357033851"><ele>69.6</ele><time>2026-05-02T09:06:17Z</time></trkpt><trkpt lat="44.172712547819096" lon="12.008679457586164"><ele>68.39999999999999</ele><time>2026-05-02T09:06:18Z</time></trkpt><trkpt lat="44.172638069470416" lon="12.008783693935362"><ele>67.2</ele><time>2026-05-02T09:06:19Z</time></trkpt><trkpt lat="44.17256937407891" lon="12.008899941308357"><ele>66.0</ele><time>2026-05-02T09:06:20Z</time></trkpt><trkpt lat="44.17250195145195" lon="12.00902150168068"><ele>66.0</ele><time>2026-05-02T09:06:21Z</time></trkpt><trkpt lat="44.17243861085407" lon="12.009129774952429"><ele>66.0</ele><time>2026-05-02T09:06:22Z</time></trkpt><trkpt lat="44.172382532390735" lon="12.009230102069697"><ele>66.0</ele><time>2026-05-02T09:06:23Z</time></trkpt><trkpt lat="44.17232221088618" lon="12.009332029920872"><ele>66.0</ele><time>2026-05-02T09:06:24Z</time></trkpt><trkpt lat="44.17225347109254" lon="12.009397783864118"><ele>66.0</ele><time>2026-05-02T09:06:25Z</time></trkpt><trkpt lat="44.172187067916106" lon="12.00945083397064"><ele>66.0</ele><time>2026-05-02T09:06:26Z</time></trkpt><trkpt lat="44.17212348999702" lon="12.009483956544056"><ele>65.2</ele><time>2026-05-02T09:06:27Z</time></trkpt><trkpt lat="44.17206084068274" lon="12.00950362899713"><ele>64.39999999999999</ele><time>2026-05-02T09:06:28Z</time></trkpt><trkpt lat="44.17196349994413" lon="12.009555437470587"><ele>63.6</ele><time>2026-05-02T09:06:30Z</time></trkpt><trkpt lat="44.17190360191188" lon="12.009620799745795"><ele>62.8</ele><time>2026-05-02T09:06:32Z</time></trkpt><trkpt lat="44.17183404120241" lon="12.009699855242776"><ele>62.0</ele><time>2026-05-02T09:06:34Z</time></trkpt><trkpt lat="44.171726630338654" lon="12.009827566819544"><ele>62.0</ele><time>2026-05-02T09:06:36Z</time></trkpt><trkpt lat="44.17167147730326" lon="12.009895308436567"><ele>62.0</ele><time>2026-05-02T09:06:37Z</time></trkpt><trkpt lat="44.17159438396697" lon="12.009997228506618"><ele>62.0</ele><time>2026-05-02T09:06:38Z</time></trkpt><trkpt lat="44.17153641800521" lon="12.010116605873932"><ele>62.0</ele><time>2026-05-02T09:06:39Z</time></trkpt><trkpt lat="44.17145718208414" lon="12.010209732820924"><ele>62.0</ele><time>2026-05-02T09:06:40Z</time></trkpt><trkpt lat="44.17139085561233" lon="12.010328151591485"><ele>60.0</ele><time>2026-05-02T09:06:41Z</time></trkpt><trkpt lat="44.17134106654247" lon="12.010423983808616"><ele>58.0</ele><time>2026-05-02T09:06:42Z</time></trkpt><trkpt lat="44.17128463839371" lon="12.010531219543893"><ele>56.0</ele><time>2026-05-02T09:06:43Z</time></trkpt><trkpt lat="44.1712177375094" lon="12.010624012022408"><ele>54.0</ele><time>2026-05-02T09:06:44Z</time></trkpt><trkpt lat="44.17113986052062" lon="12.010707402526425"><ele>52.0</ele><time>2026-05-02T09:06:45Z</time></trkpt><trkpt lat="44.17107333277192" lon="12.010807700032226"><ele>51.400000000000006</ele><time>2026-05-02T09:06:46Z</time></trkpt><trkpt lat="44.17101373982987" lon="12.010901140690997"><ele>50.800000000000004</ele><time>2026-05-02T09:06:47Z</time></trkpt><trkpt lat="44.170942174099345" lon="12.011013975656407"><ele>50.2</ele><time>2026-05-02T09:06:48Z</time></trkpt><trkpt lat="44.17089553987032" lon="12.011123664070919"><ele>49.6</ele><time>2026-05-02T09:06:49Z</time></trkpt><trkpt lat="44.170834483717655" lon="12.011218370414113"><ele>49.0</ele><time>2026-05-02T09:06:50Z</time></trkpt><trkpt lat="44.17077108458777" lon="12.011315388390337"><ele>48.99999999999999</ele><time>2026-05-02T09:06:51Z</time></trkpt><trkpt lat="44.17071846105542" lon="12.011392923109907"><ele>49.0</ele><time>2026-05-02T09:06:52Z</time></trkpt><trkpt lat="44.17066331168306" lon="12.011485682108669"><ele>49.0</ele><time>2026-05-02T09:06:53Z</time></trkpt><trkpt lat="44.17061097340115" lon="12.011547258139569"><ele>49.0</ele><time>2026-05-02T09:06:54Z</time></trkpt><trkpt lat="44.17054318124434" lon="12.01159482987561"><ele>48.99999999999999</ele><time>2026-05-02T09:06:55Z</time></trkpt><trkpt lat="44.17048769186606" lon="12.011643584666642"><ele>49.0</ele><time>2026-05-02T09:06:56Z</time></trkpt><trkpt lat="44.17037787634438" lon="12.01174341767622"><ele>48.6</ele><time>2026-05-02T09:06:58Z</time></trkpt><trkpt lat="44.170317587453695" lon="12.01179456583577"><ele>48.2</ele><time>2026-05-02T09:06:59Z</time></trkpt><trkpt lat="44.17025851252557" lon="12.011844929583363"><ele>47.800000000000004</ele><time>2026-05-02T09:07:00Z</time></trkpt><trkpt lat="44.17015199709544" lon="12.011947376085915"><ele>47.400000000000006</ele><time>2026-05-02T09:07:02Z</time></trkpt><trkpt lat="44.17009922072568" lon="12.011996384754502"><ele>47.0</ele><time>2026-05-02T09:07:03Z</time></trkpt><trkpt lat="44.170001295956475" lon="12.012085422758718"><ele>47.0</ele><time>2026-05-02T09:07:05Z</time></trkpt><trkpt lat="44.1698975560201" lon="12.012175294718618"><ele>47.0</ele><time>2026-05-02T09:07:07Z</time></trkpt><trkpt lat="44.169800254941" lon="12.012262328630943"><ele>47.0</ele><time>2026-05-02T09:07:09Z</time></trkpt><trkpt lat="44.169705606784866" lon="12.012352779515037"><ele>47.0</ele><time>2026-05-02T09:07:11Z</time></trkpt><trkpt lat="44.1695954720782" lon="12.012403896935403"><ele>46.8</ele><time>2026-05-02T09:07:13Z</time></trkpt><trkpt lat="44.169500471625305" lon="12.012485603654508"><ele>46.6</ele><time>2026-05-02T09:07:15Z</time></trkpt><trkpt lat="44.169405368640575" lon="12.012567398603798"><ele>46.4</ele><time>2026-05-02T09:07:17Z</time></trkpt><trkpt lat="44.16931387506656" lon="12.012646089260825"><ele>46.199999999999996</ele><time>2026-05-02T09:07:19Z</time></trkpt><trkpt lat="44.16921942977597" lon="12.012727318983599"><ele>46.0</ele><time>2026-05-02T09:07:21Z</time></trkpt><trkpt lat="44.1691344069181" lon="12.01282573597572"><ele>46.0</ele><time>2026-05-02T09:07:23Z</time></trkpt><trkpt lat="44.169046663574015" lon="12.012899129771881"><ele>46.0</ele><time>2026-05-02T09:07:25Z</time></trkpt><trkpt lat="44.16896933889553" lon="12.012979496120371"><ele>46.0</ele><time>2026-05-02T09:07:27Z</time></trkpt><trkpt lat="44.168891567745746" lon="12.013070237209787"><ele>46.0</ele><time>2026-05-02T09:07:29Z</time></trkpt><trkpt lat="44.16882155960026" lon="12.013140842034849"><ele>46.0</ele><time>2026-05-02T09:07:31Z</time></trkpt><trkpt lat="44.16877542484975" lon="12.013210180166425"><ele>46.285714285714285</ele><time>2026-05-02T09:07:33Z</time></trkpt><trkpt lat="44.168743356452296" lon="12.013288359727142"><ele>46.57142857142857</ele><time>2026-05-02T09:07:35Z</time></trkpt><trkpt lat="44.16869551373907" lon="12.01339186385966"><ele>46.857142857142854</ele><time>2026-05-02T09:07:38Z</time></trkpt><trkpt lat="44.168644419226055" lon="12.013461926463792"><ele>47.14285714285714</ele><time>2026-05-02T09:07:41Z</time></trkpt><trkpt lat="44.16859540705175" lon="12.01352891154421"><ele>47.42857142857143</ele><time>2026-05-02T09:07:44Z</time></trkpt><trkpt lat="44.16854859369414" lon="12.013592607429866"><ele>47.71428571428571</ele><time>2026-05-02T09:07:47Z</time></trkpt><trkpt lat="44.168502891885915" lon="12.013673793410467"><ele>48.0</ele><time>2026-05-02T09:07:51Z</time></trkpt><trkpt lat="44.168451889184155" lon="12.01376084213058"><ele>48.857142857142854</ele><time>2026-05-02T09:07:55Z</time></trkpt><trkpt lat="44.16841391153789" lon="12.013831760474611"><ele>49.714285714285715</ele><time>2026-05-02T09:07:58Z</time></trkpt><trkpt lat="44.16842630775302" lon="12.013937403062013"><ele>50.57142857142857</ele><time>2026-05-02T09:08:01Z</time></trkpt><trkpt lat="44.168467241941414" lon="12.014016799671618"><ele>51.42857142857143</ele><time>2026-05-02T09:08:03Z</time></trkpt><trkpt lat="44.168516824112345" lon="12.01409306386479"><ele>52.285714285714285</ele><time>2026-05-02T09:08:05Z</time></trkpt><trkpt lat="44.16857102711747" lon="12.014175334940331"><ele>53.14285714285714</ele><time>2026-05-02T09:08:07Z</time></trkpt><trkpt lat="44.168629586318" lon="12.014259738030686"><ele>54.0</ele><time>2026-05-02T09:08:09Z</time></trkpt><trkpt lat="44.16868703968236" lon="12.01434850976764"><ele>54.400000000000006</ele><time>2026-05-02T09:08:11Z</time></trkpt><trkpt lat="44.16874375208865" lon="12.01444172272483"><ele>54.800000000000004</ele><time>2026-05-02T09:08:13Z</time></trkpt><trkpt lat="44.16880714553556" lon="12.014534136405137"><ele>55.199999999999996</ele><time>2026-05-02T09:08:15Z</time></trkpt><trkpt lat="44.16887057887497" lon="12.014629890891102"><ele>55.599999999999994</ele><time>2026-05-02T09:08:17Z</time></trkpt><trkpt lat="44.168935991742316" lon="12.014722703562008"><ele>56.0</ele><time>2026-05-02T09:08:19Z</time></trkpt><trkpt lat="44.16900023009569" lon="12.014816711989102"><ele>55.4</ele><time>2026-05-02T09:08:21Z</time></trkpt><trkpt lat="44.16906897179214" lon="12.01490828062127"><ele>54.8</ele><time>2026-05-02T09:08:23Z</time></trkpt><trkpt lat="44.16913667530018" lon="12.015005409819777"><ele>54.199999999999996</ele><time>2026-05-02T09:08:25Z</time></trkpt><trkpt lat="44.169210412511156" lon="12.015101245445683"><ele>53.599999999999994</ele><time>2026-05-02T09:08:27Z</time></trkpt><trkpt lat="44.16928009668672" lon="12.015204546691693"><ele>53.0</ele><time>2026-05-02T09:08:29Z</time></trkpt><trkpt lat="44.16934935596817" lon="12.01530137887907"><ele>53.0</ele><time>2026-05-02T09:08:31Z</time></trkpt><trkpt lat="44.16942573450308" lon="12.015405834393304"><ele>53.0</ele><time>2026-05-02T09:08:33Z</time></trkpt><trkpt lat="44.16951074127293" lon="12.01551245956629"><ele>53.0</ele><time>2026-05-02T09:08:35Z</time></trkpt><trkpt lat="44.16958890016493" lon="12.015624275664768"><ele>53.0</ele><time>2026-05-02T09:08:37Z</time></trkpt><trkpt lat="44.16966884010264" lon="12.01573879253024"><ele>53.0</ele><time>2026-05-02T09:08:39Z</time></trkpt><trkpt lat="44.169751800793456" lon="12.015852170237029"><ele>52.75</ele><time>2026-05-02T09:08:41Z</time></trkpt><trkpt lat="44.16983291835959" lon="12.015965962855912"><ele>52.5</ele><time>2026-05-02T09:08:43Z</time></trkpt><trkpt lat="44.169916153977006" lon="12.01608086111882"><ele>52.25</ele><time>2026-05-02T09:08:45Z</time></trkpt><trkpt lat="44.169995824719216" lon="12.01619579067303"><ele>52.0</ele><time>2026-05-02T09:08:47Z</time></trkpt><trkpt lat="44.17008222909164" lon="12.016309230351853"><ele>52.0</ele><time>2026-05-02T09:08:49Z</time></trkpt><trkpt lat="44.17017127891117" lon="12.016418988952452"><ele>52.0</ele><time>2026-05-02T09:08:51Z</time></trkpt><trkpt lat="44.170258040870586" lon="12.01653492921752"><ele>52.0</ele><time>2026-05-02T09:08:53Z</time></trkpt><trkpt lat="44.17034204334884" lon="12.016644818843094"><ele>52.0</ele><time>2026-05-02T09:08:55Z</time></trkpt><trkpt lat="44.17042679544561" lon="12.01676002539904"><ele>52.0</ele><time>2026-05-02T09:08:57Z</time></trkpt><trkpt lat="44.17050887903693" lon="12.016872064418399"><ele>52.0</ele><time>2026-05-02T09:08:59Z</time></trkpt><trkpt lat="44.170591059953054" lon="12.016985682090771"><ele>52.0</ele><time>2026-05-02T09:09:01Z</time></trkpt><trkpt lat="44.17067523387614" lon="12.017098358418705"><ele>52.0</ele><time>2026-05-02T09:09:03Z</time></trkpt><trkpt lat="44.17076136989243" lon="12.017214992879621"><ele>51.75</ele><time>2026-05-02T09:09:05Z</time></trkpt><trkpt lat="44.17084304156201" lon="12.01733079161748"><ele>51.5</ele><time>2026-05-02T09:09:07Z</time></trkpt><trkpt lat="44.17092834617124" lon="12.017446912565974"><ele>51.25</ele><time>2026-05-02T09:09:09Z</time></trkpt><trkpt lat="44.171012793240685" lon="12.017565338502033"><ele>51.0</ele><time>2026-05-02T09:09:11Z</time></trkpt><trkpt lat="44.17109753591029" lon="12.017680529895928"><ele>51.5</ele><time>2026-05-02T09:09:13Z</time></trkpt><trkpt lat="44.171182856251654" lon="12.017796154941053"><ele>52.0</ele><time>2026-05-02T09:09:15Z</time></trkpt><trkpt lat="44.171265161020656" lon="12.017905296595698"><ele>52.5</ele><time>2026-05-02T09:09:17Z</time></trkpt><trkpt lat="44.17134273329287" lon="12.018015844566197"><ele>53.0</ele><time>2026-05-02T09:09:19Z</time></trkpt><trkpt lat="44.17142251013376" lon="12.018129224090051"><ele>53.0</ele><time>2026-05-02T09:09:21Z</time></trkpt><trkpt lat="44.171504840210275" lon="12.018239911161054"><ele>53.0</ele><time>2026-05-02T09:09:23Z</time></trkpt><trkpt lat="44.17159140460241" lon="12.018350471948628"><ele>53.0</ele><time>2026-05-02T09:09:25Z</time></trkpt><trkpt lat="44.171673737159104" lon="12.018462855150743"><ele>53.0</ele><time>2026-05-02T09:09:27Z</time></trkpt><trkpt lat="44.17175469833055" lon="12.0185738772606"><ele>52.75</ele><time>2026-05-02T09:09:28.999Z</time></trkpt><trkpt lat="44.171836803366084" lon="12.018688200446018"><ele>52.5</ele><time>2026-05-02T09:09:30.999Z</time></trkpt><trkpt lat="44.17191696820159" lon="12.01880105731873"><ele>52.25</ele><time>2026-05-02T09:09:32.999Z</time></trkpt><trkpt lat="44.171998394533226" lon="12.018913871294094"><ele>52.0</ele><time>2026-05-02T09:09:35Z</time></trkpt><trkpt lat="44.172076949608176" lon="12.019021801980076"><ele>52.0</ele><time>2026-05-02T09:09:37Z</time></trkpt><trkpt lat="44.17215633577094" lon="12.019135274316557"><ele>52.0</ele><time>2026-05-02T09:09:39Z</time></trkpt><trkpt lat="44.172239645909606" lon="12.01924884122643"><ele>52.0</ele><time>2026-05-02T09:09:41Z</time></trkpt><trkpt lat="44.172315832040816" lon="12.019362935845542"><ele>52.0</ele><time>2026-05-02T09:09:43Z</time></trkpt><trkpt lat="44.17239826104277" lon="12.019474555456108"><ele>52.0</ele><time>2026-05-02T09:09:45Z</time></trkpt><trkpt lat="44.172476990761446" lon="12.019586141286219"><ele>52.0</ele><time>2026-05-02T09:09:47Z</time></trkpt><trkpt lat="44.17253892335334" lon="12.019711841947647"><ele>52.0</ele><time>2026-05-02T09:09:49Z</time></trkpt><trkpt lat="44.172591046658866" lon="12.01984960289821"><ele>52.0</ele><time>2026-05-02T09:09:51Z</time></trkpt><trkpt lat="44.17263800946336" lon="12.019985617024501"><ele>52.0</ele><time>2026-05-02T09:09:53Z</time></trkpt><trkpt lat="44.17267377794299" lon="12.020134859816613"><ele>52.0</ele><time>2026-05-02T09:09:55Z</time></trkpt><trkpt lat="44.172680647472454" lon="12.020287102111713"><ele>52.0</ele><time>2026-05-02T09:09:57Z</time></trkpt><trkpt lat="44.17264956697848" lon="12.020428563661667"><ele>52.0</ele><time>2026-05-02T09:09:59Z</time></trkpt><trkpt lat="44.172583251889506" lon="12.020549260632013"><ele>52.0</ele><time>2026-05-02T09:10:01Z</time></trkpt><trkpt lat="44.17252485909286" lon="12.020665684423214"><ele>52.0</ele><time>2026-05-02T09:10:03Z</time></trkpt><trkpt lat="44.172517499320335" lon="12.020805710455802"><ele>52.0</ele><time>2026-05-02T09:10:05Z</time></trkpt><trkpt lat="44.172547767518665" lon="12.020942455584443"><ele>52.0</ele><time>2026-05-02T09:10:07Z</time></trkpt><trkpt lat="44.172588779996595" lon="12.021063653000205"><ele>52.0</ele><time>2026-05-02T09:10:09Z</time></trkpt><trkpt lat="44.172567676279726" lon="12.021151544760539"><ele>52.0</ele><time>2026-05-02T09:10:10Z</time></trkpt><trkpt lat="44.17254361602711" lon="12.021284774051379"><ele>52.0</ele><time>2026-05-02T09:10:12Z</time></trkpt><trkpt lat="44.17251727988449" lon="12.021410343577257"><ele>52.0</ele><time>2026-05-02T09:10:14Z</time></trkpt><trkpt lat="44.172490444101214" lon="12.02153906083008"><ele>52.0</ele><time>2026-05-02T09:10:16Z</time></trkpt><trkpt lat="44.172464680260205" lon="12.02167280800876"><ele>52.0</ele><time>2026-05-02T09:10:18Z</time></trkpt><trkpt lat="44.1724159434309" lon="12.021793224841806"><ele>52.0</ele><time>2026-05-02T09:10:20Z</time></trkpt><trkpt lat="44.172368415668636" lon="12.021910873177271"><ele>52.0</ele><time>2026-05-02T09:10:22Z</time></trkpt><trkpt lat="44.17232244466213" lon="12.02201834256567"><ele>52.2</ele><time>2026-05-02T09:10:24Z</time></trkpt><trkpt lat="44.17225697693672" lon="12.022117424236066"><ele>52.400000000000006</ele><time>2026-05-02T09:10:26Z</time></trkpt><trkpt lat="44.172191226690714" lon="12.022207832544497"><ele>52.599999999999994</ele><time>2026-05-02T09:10:28Z</time></trkpt><trkpt lat="44.17210958404715" lon="12.022270734442879"><ele>52.8</ele><time>2026-05-02T09:10:30Z</time></trkpt><trkpt lat="44.172027559890786" lon="12.022330322460297"><ele>53.0</ele><time>2026-05-02T09:10:32Z</time></trkpt><trkpt lat="44.171952079208396" lon="12.022391944831071"><ele>53.00000000000001</ele><time>2026-05-02T09:10:34Z</time></trkpt><trkpt lat="44.17188796554565" lon="12.022446541191442"><ele>53.0</ele><time>2026-05-02T09:10:36Z</time></trkpt><trkpt lat="44.17181288255594" lon="12.022503560747138"><ele>53.0</ele><time>2026-05-02T09:10:38Z</time></trkpt><trkpt lat="44.171740944686405" lon="12.022558313729244"><ele>53.0</ele><time>2026-05-02T09:10:40Z</time></trkpt><trkpt lat="44.171671125808636" lon="12.022614501288782"><ele>53.00000000000001</ele><time>2026-05-02T09:10:42Z</time></trkpt><trkpt lat="44.171599677757875" lon="12.022669629907421"><ele>53.0</ele><time>2026-05-02T09:10:44Z</time></trkpt><trkpt lat="44.171530443498106" lon="12.02273323574042"><ele>53.00000000000001</ele><time>2026-05-02T09:10:46Z</time></trkpt><trkpt lat="44.171457481089284" lon="12.022793247526597"><ele>53.0</ele><time>2026-05-02T09:10:48Z</time></trkpt><trkpt lat="44.17137977766093" lon="12.02285105526985"><ele>53.0</ele><time>2026-05-02T09:10:50Z</time></trkpt><trkpt lat="44.17130104027671" lon="12.022903402511046"><ele>53.0</ele><time>2026-05-02T09:10:52Z</time></trkpt><trkpt lat="44.171225227038356" lon="12.022964029904697"><ele>53.00000000000001</ele><time>2026-05-02T09:10:54Z</time></trkpt><trkpt lat="44.17114929197732" lon="12.023011709253023"><ele>53.0</ele><time>2026-05-02T09:10:56Z</time></trkpt><trkpt lat="44.17106984072433" lon="12.023075435386014"><ele>53.0</ele><time>2026-05-02T09:10:58Z</time></trkpt><trkpt lat="44.17099292679911" lon="12.023137048907982"><ele>53.0</ele><time>2026-05-02T09:11:00Z</time></trkpt><trkpt lat="44.170912174420245" lon="12.02319315049539"><ele>53.0</ele><time>2026-05-02T09:11:02Z</time></trkpt><trkpt lat="44.17082994488788" lon="12.023258420739083"><ele>53.0</ele><time>2026-05-02T09:11:04Z</time></trkpt><trkpt lat="44.1707523415364" lon="12.023315979004073"><ele>53.0</ele><time>2026-05-02T09:11:06Z</time></trkpt><trkpt lat="44.17067298430687" lon="12.023380267435767"><ele>53.4</ele><time>2026-05-02T09:11:08Z</time></trkpt><trkpt lat="44.170593117207076" lon="12.023438608593173"><ele>53.8</ele><time>2026-05-02T09:11:10Z</time></trkpt><trkpt lat="44.170508841972435" lon="12.023500390080873"><ele>54.2</ele><time>2026-05-02T09:11:12Z</time></trkpt><trkpt lat="44.17042478390582" lon="12.023564911154931"><ele>54.6</ele><time>2026-05-02T09:11:14Z</time></trkpt><trkpt lat="44.17034143223898" lon="12.023627781551426"><ele>55.0</ele><time>2026-05-02T09:11:16Z</time></trkpt><trkpt lat="44.17025568119115" lon="12.023681618650627"><ele>55.0</ele><time>2026-05-02T09:11:18Z</time></trkpt><trkpt lat="44.17016774125448" lon="12.023735051570247"><ele>55.0</ele><time>2026-05-02T09:11:20Z</time></trkpt><trkpt lat="44.17007705347386" lon="12.023784098470436"><ele>55.0</ele><time>2026-05-02T09:11:21.999Z</time></trkpt><trkpt lat="44.16998592763933" lon="12.023827422875312"><ele>55.0</ele><time>2026-05-02T09:11:23.999Z</time></trkpt><trkpt lat="44.1699070069755" lon="12.023868556942586"><ele>55.0</ele><time>2026-05-02T09:11:25.999Z</time></trkpt><trkpt lat="44.16982717555725" lon="12.023930692758784"><ele>55.166666666666664</ele><time>2026-05-02T09:11:27.999Z</time></trkpt><trkpt lat="44.169752529464894" lon="12.023991511043508"><ele>55.33333333333333</ele><time>2026-05-02T09:11:29.999Z</time></trkpt><trkpt lat="44.16966990539108" lon="12.024043797885895"><ele>55.5</ele><time>2026-05-02T09:11:31.999Z</time></trkpt><trkpt lat="44.169590828198835" lon="12.024082909007653"><ele>55.66666666666667</ele><time>2026-05-02T09:11:33.999Z</time></trkpt><trkpt lat="44.16950888419966" lon="12.024058929122663"><ele>55.833333333333336</ele><time>2026-05-02T09:11:35.999Z</time></trkpt><trkpt lat="44.16943379499529" lon="12.024044890604799"><ele>56.0</ele><time>2026-05-02T09:11:37.999Z</time></trkpt><trkpt lat="44.169358608530715" lon="12.024073820253166"><ele>56.00000000000001</ele><time>2026-05-02T09:11:39.999Z</time></trkpt><trkpt lat="44.16929512605426" lon="12.024136360692784"><ele>56.0</ele><time>2026-05-02T09:11:42Z</time></trkpt><trkpt lat="44.16925257834926" lon="12.024218444003978"><ele>56.0</ele><time>2026-05-02T09:11:44Z</time></trkpt><trkpt lat="44.16923682285416" lon="12.024327192612281"><ele>56.0</ele><time>2026-05-02T09:11:46Z</time></trkpt><trkpt lat="44.16924165338296" lon="12.024430393016814"><ele>56.00000000000001</ele><time>2026-05-02T09:11:48Z</time></trkpt><trkpt lat="44.16928222200989" lon="12.024523504501055"><ele>56.0</ele><time>2026-05-02T09:11:50Z</time></trkpt><trkpt lat="44.16934340304076" lon="12.024602763969398"><ele>56.199999999999996</ele><time>2026-05-02T09:11:52Z</time></trkpt><trkpt lat="44.169422273611914" lon="12.024649299508308"><ele>56.39999999999999</ele><time>2026-05-02T09:11:54Z</time></trkpt><trkpt lat="44.16951934019025" lon="12.024659498181823"><ele>56.6</ele><time>2026-05-02T09:11:56Z</time></trkpt><trkpt lat="44.169627569578324" lon="12.024675471724505"><ele>56.8</ele><time>2026-05-02T09:11:58Z</time></trkpt><trkpt lat="44.16973285544702" lon="12.02476399685944"><ele>57.0</ele><time>2026-05-02T09:12:00Z</time></trkpt><trkpt lat="44.16978170895675" lon="12.024822518019258"><ele>57.0</ele><time>2026-05-02T09:12:01Z</time></trkpt><trkpt lat="44.16982666933049" lon="12.024884690756254"><ele>56.99999999999999</ele><time>2026-05-02T09:12:02Z</time></trkpt><trkpt lat="44.16987684968028" lon="12.024951331385756"><ele>57.0</ele><time>2026-05-02T09:12:03Z</time></trkpt><trkpt lat="44.169925695835495" lon="12.025012621218542"><ele>57.0</ele><time>2026-05-02T09:12:04Z</time></trkpt><trkpt lat="44.169977936170724" lon="12.025073055055643"><ele>56.99999999999999</ele><time>2026-05-02T09:12:05Z</time></trkpt><trkpt lat="44.17002762249261" lon="12.025140949919928"><ele>57.0</ele><time>2026-05-02T09:12:06Z</time></trkpt><trkpt lat="44.170074415004805" lon="12.025211289474349"><ele>57.0</ele><time>2026-05-02T09:12:07Z</time></trkpt><trkpt lat="44.17011975869353" lon="12.025283548580902"><ele>56.857142857142854</ele><time>2026-05-02T09:12:08Z</time></trkpt><trkpt lat="44.170165828473195" lon="12.025354547684403"><ele>56.71428571428571</ele><time>2026-05-02T09:12:09Z</time></trkpt><trkpt lat="44.17021236003296" lon="12.025427141993722"><ele>56.57142857142857</ele><time>2026-05-02T09:12:10Z</time></trkpt><trkpt lat="44.17025595694917" lon="12.025507290252902"><ele>56.42857142857143</ele><time>2026-05-02T09:12:11Z</time></trkpt><trkpt lat="44.17030183778422" lon="12.025580927256394"><ele>56.285714285714285</ele><time>2026-05-02T09:12:12Z</time></trkpt><trkpt lat="44.170343654946706" lon="12.02565782512492"><ele>56.14285714285714</ele><time>2026-05-02T09:12:13Z</time></trkpt><trkpt lat="44.170384306246426" lon="12.025734907124646"><ele>56.0</ele><time>2026-05-02T09:12:14Z</time></trkpt><trkpt lat="44.170422301355046" lon="12.025811568325592"><ele>56.14285714285714</ele><time>2026-05-02T09:12:15Z</time></trkpt><trkpt lat="44.17045803343904" lon="12.025889409906911"><ele>56.285714285714285</ele><time>2026-05-02T09:12:16Z</time></trkpt><trkpt lat="44.170492278210745" lon="12.025964993505232"><ele>56.42857142857143</ele><time>2026-05-02T09:12:17Z</time></trkpt><trkpt lat="44.17052738182819" lon="12.026040408598753"><ele>56.57142857142857</ele><time>2026-05-02T09:12:18Z</time></trkpt><trkpt lat="44.17056318293559" lon="12.026120293318678"><ele>56.71428571428571</ele><time>2026-05-02T09:12:19Z</time></trkpt><trkpt lat="44.17059911280818" lon="12.026198888035227"><ele>56.857142857142854</ele><time>2026-05-02T09:12:20Z</time></trkpt><trkpt lat="44.17062885924666" lon="12.026283006243002"><ele>57.0</ele><time>2026-05-02T09:12:21Z</time></trkpt><trkpt lat="44.170657543147264" lon="12.026364858186714"><ele>56.833333333333336</ele><time>2026-05-02T09:12:22Z</time></trkpt><trkpt lat="44.17071014922612" lon="12.02650968587546"><ele>56.66666666666667</ele><time>2026-05-02T09:12:24Z</time></trkpt><trkpt lat="44.170739252963244" lon="12.026602488852875"><ele>56.5</ele><time>2026-05-02T09:12:26Z</time></trkpt><trkpt lat="44.170766703813435" lon="12.026686463891776"><ele>56.333333333333336</ele><time>2026-05-02T09:12:29Z</time></trkpt><trkpt lat="44.17079463970894" lon="12.026780722480021"><ele>56.16666666666667</ele><time>2026-05-02T09:12:32Z</time></trkpt><trkpt lat="44.17074776346427" lon="12.026848869880988"><ele>56.0</ele><time>2026-05-02T09:12:35Z</time></trkpt><trkpt lat="44.170810837765416" lon="12.026872927328268"><ele>56.0</ele><time>2026-05-02T09:12:41Z</time></trkpt><trkpt lat="44.17086567809178" lon="12.026821471724386"><ele>56.0</ele><time>2026-05-02T09:12:44Z</time></trkpt><trkpt lat="44.170853388485284" lon="12.026726898019811"><ele>56.0</ele><time>2026-05-02T09:12:47Z</time></trkpt><trkpt lat="44.1708238988971" lon="12.026636889512922"><ele>56.0</ele><time>2026-05-02T09:12:51Z</time></trkpt><trkpt lat="44.1708987215118" lon="12.026656394042313"><ele>56.0</ele><time>2026-05-02T09:13:29Z</time></trkpt><trkpt lat="44.17092675416946" lon="12.026752907322921"><ele>56.0</ele><time>2026-05-02T09:13:31Z</time></trkpt><trkpt lat="44.17096224207917" lon="12.026842334572416"><ele>56.0</ele><time>2026-05-02T09:13:33Z</time></trkpt><trkpt lat="44.17098738248816" lon="12.026947959592757"><ele>56.0</ele><time>2026-05-02T09:13:34.999Z</time></trkpt><trkpt lat="44.17102049895409" lon="12.027061916727673"><ele>55.99999999999999</ele><time>2026-05-02T09:13:36.999Z</time></trkpt><trkpt lat="44.171049471357115" lon="12.027179915312766"><ele>55.99999999999999</ele><time>2026-05-02T09:13:38.999Z</time></trkpt><trkpt lat="44.1710773532806" lon="12.02730466566493"><ele>56.0</ele><time>2026-05-02T09:13:40.999Z</time></trkpt><trkpt lat="44.171108907912995" lon="12.027425440928905"><ele>56.0</ele><time>2026-05-02T09:13:42.999Z</time></trkpt><trkpt lat="44.17114964870875" lon="12.027541307391644"><ele>56.0</ele><time>2026-05-02T09:13:44.999Z</time></trkpt><trkpt lat="44.171203430019744" lon="12.027655987190881"><ele>55.99999999999999</ele><time>2026-05-02T09:13:47Z</time></trkpt><trkpt lat="44.17127707234324" lon="12.027752073560777"><ele>55.99999999999999</ele><time>2026-05-02T09:13:49Z</time></trkpt><trkpt lat="44.17136105886728" lon="12.02782787312017"><ele>56.0</ele><time>2026-05-02T09:13:51Z</time></trkpt><trkpt lat="44.171439581202385" lon="12.027921899297583"><ele>56.0</ele><time>2026-05-02T09:13:53Z</time></trkpt><trkpt lat="44.171532730392705" lon="12.027992171020719"><ele>55.199999999999996</ele><time>2026-05-02T09:13:55Z</time></trkpt><trkpt lat="44.17163420260285" lon="12.028045343555995"><ele>54.39999999999999</ele><time>2026-05-02T09:13:57Z</time></trkpt><trkpt lat="44.17172600842278" lon="12.028118829863864"><ele>53.6</ele><time>2026-05-02T09:13:59Z</time></trkpt><trkpt lat="44.17182177384251" lon="12.0281958410745"><ele>52.8</ele><time>2026-05-02T09:14:01Z</time></trkpt><trkpt lat="44.17191671421008" lon="12.028266625368525"><ele>52.0</ele><time>2026-05-02T09:14:03Z</time></trkpt><trkpt lat="44.17201859518786" lon="12.028358441302808"><ele>52.0</ele><time>2026-05-02T09:14:05Z</time></trkpt><trkpt lat="44.172120586298774" lon="12.028421050090731"><ele>52.0</ele><time>2026-05-02T09:14:07Z</time></trkpt><trkpt lat="44.1722290754406" lon="12.028479306196983"><ele>52.0</ele><time>2026-05-02T09:14:09Z</time></trkpt><trkpt lat="44.17233864808818" lon="12.028536332926773"><ele>52.0</ele><time>2026-05-02T09:14:11Z</time></trkpt><trkpt lat="44.17244943581492" lon="12.028593992038138"><ele>51.8</ele><time>2026-05-02T09:14:13Z</time></trkpt><trkpt lat="44.1725562232342" lon="12.028649569210645"><ele>51.6</ele><time>2026-05-02T09:14:15Z</time></trkpt><trkpt lat="44.17265681588157" lon="12.028701922339256"><ele>51.4</ele><time>2026-05-02T09:14:17Z</time></trkpt><trkpt lat="44.17275448296717" lon="12.02875655879413"><ele>51.199999999999996</ele><time>2026-05-02T09:14:19Z</time></trkpt><trkpt lat="44.17284871774265" lon="12.028815551497761"><ele>51.0</ele><time>2026-05-02T09:14:21Z</time></trkpt><trkpt lat="44.172923752635604" lon="12.028915515453862"><ele>51.0</ele><time>2026-05-02T09:14:23Z</time></trkpt><trkpt lat="44.173000000838684" lon="12.029025989020136"><ele>51.0</ele><time>2026-05-02T09:14:25Z</time></trkpt><trkpt lat="44.173070585163465" lon="12.029152009144237"><ele>51.0</ele><time>2026-05-02T09:14:27Z</time></trkpt><trkpt lat="44.17313945037468" lon="12.029271156419687"><ele>51.0</ele><time>2026-05-02T09:14:29Z</time></trkpt><trkpt lat="44.173206611657" lon="12.029391260092272"><ele>51.0</ele><time>2026-05-02T09:14:31Z</time></trkpt><trkpt lat="44.17328154123502" lon="12.029501767805716"><ele>51.0</ele><time>2026-05-02T09:14:33Z</time></trkpt><trkpt lat="44.17335045238623" lon="12.029624848215134"><ele>51.0</ele><time>2026-05-02T09:14:35Z</time></trkpt><trkpt lat="44.173417905378685" lon="12.029736615360934"><ele>51.0</ele><time>2026-05-02T09:14:37Z</time></trkpt><trkpt lat="44.17348011613614" lon="12.029845135408292"><ele>51.0</ele><time>2026-05-02T09:14:39Z</time></trkpt><trkpt lat="44.17353995838324" lon="12.02994658454455"><ele>51.0</ele><time>2026-05-02T09:14:41Z</time></trkpt><trkpt lat="44.173574272740225" lon="12.030067107197697"><ele>51.0</ele><time>2026-05-02T09:14:43Z</time></trkpt><trkpt lat="44.17350314411805" lon="12.030228084770586"><ele>51.0</ele><time>2026-05-02T09:14:46Z</time></trkpt><trkpt lat="44.173418480135965" lon="12.030291628940024"><ele>51.0</ele><time>2026-05-02T09:14:48Z</time></trkpt><trkpt lat="44.17334539167934" lon="12.030373618830296"><ele>51.0</ele><time>2026-05-02T09:14:50Z</time></trkpt><trkpt lat="44.17327554832954" lon="12.030465082999612"><ele>51.0</ele><time>2026-05-02T09:14:52Z</time></trkpt><trkpt lat="44.173203648452294" lon="12.030539284840852"><ele>51.0</ele><time>2026-05-02T09:14:54Z</time></trkpt><trkpt lat="44.173126791034676" lon="12.03061242077936"><ele>51.0</ele><time>2026-05-02T09:14:56Z</time></trkpt><trkpt lat="44.173048986373466" lon="12.030680737810657"><ele>51.0</ele><time>2026-05-02T09:14:58Z</time></trkpt><trkpt lat="44.17297339549409" lon="12.03074678312913"><ele>51.0</ele><time>2026-05-02T09:15:00Z</time></trkpt><trkpt lat="44.17289597920679" lon="12.03081452375957"><ele>51.0</ele><time>2026-05-02T09:15:02Z</time></trkpt><trkpt lat="44.17281990473335" lon="12.030876850635396"><ele>51.0</ele><time>2026-05-02T09:15:04Z</time></trkpt><trkpt lat="44.17274046016189" lon="12.030933383187461"><ele>51.0</ele><time>2026-05-02T09:15:06Z</time></trkpt><trkpt lat="44.17266529358314" lon="12.030992540272536"><ele>51.0</ele><time>2026-05-02T09:15:08Z</time></trkpt><trkpt lat="44.172586920927586" lon="12.031051309098727"><ele>51.0</ele><time>2026-05-02T09:15:10Z</time></trkpt><trkpt lat="44.1725089500282" lon="12.031107673232846"><ele>51.0</ele><time>2026-05-02T09:15:12Z</time></trkpt><trkpt lat="44.172427978269724" lon="12.031154273158425"><ele>51.0</ele><time>2026-05-02T09:15:14Z</time></trkpt><trkpt lat="44.172347087709205" lon="12.031200316453921"><ele>51.0</ele><time>2026-05-02T09:15:16Z</time></trkpt><trkpt lat="44.17226590558692" lon="12.031241110898"><ele>51.0</ele><time>2026-05-02T09:15:18Z</time></trkpt><trkpt lat="44.17218280660226" lon="12.031282506756977"><ele>51.0</ele><time>2026-05-02T09:15:20Z</time></trkpt><trkpt lat="44.17210373072989" lon="12.031321975836457"><ele>51.0</ele><time>2026-05-02T09:15:22Z</time></trkpt><trkpt lat="44.17202560277017" lon="12.031350445307034"><ele>51.0</ele><time>2026-05-02T09:15:24Z</time></trkpt><trkpt lat="44.171955219720054" lon="12.031386227125152"><ele>51.0</ele><time>2026-05-02T09:15:26Z</time></trkpt><trkpt lat="44.17188089210164" lon="12.031395598618316"><ele>51.0</ele><time>2026-05-02T09:15:27.999Z</time></trkpt><trkpt lat="44.17179628979365" lon="12.031356528459082"><ele>51.0</ele><time>2026-05-02T09:15:29.999Z</time></trkpt><trkpt lat="44.17171137480679" lon="12.031350456400189"><ele>51.0</ele><time>2026-05-02T09:15:31.999Z</time></trkpt><trkpt lat="44.17162450056702" lon="12.031353710868295"><ele>51.0</ele><time>2026-05-02T09:15:33.999Z</time></trkpt><trkpt lat="44.17154141569025" lon="12.031386632421649"><ele>51.0</ele><time>2026-05-02T09:15:35.999Z</time></trkpt><trkpt lat="44.17146705499901" lon="12.03145351997269"><ele>51.0</ele><time>2026-05-02T09:15:37.999Z</time></trkpt><trkpt lat="44.171405545938235" lon="12.031547319321753"><ele>51.166666666666664</ele><time>2026-05-02T09:15:39.999Z</time></trkpt><trkpt lat="44.17132863800896" lon="12.031616688864533"><ele>51.33333333333333</ele><time>2026-05-02T09:15:41.999Z</time></trkpt><trkpt lat="44.17126067657743" lon="12.03168351192466"><ele>51.5</ele><time>2026-05-02T09:15:43.999Z</time></trkpt><trkpt lat="44.17119579725845" lon="12.031654908781526"><ele>51.666666666666664</ele><time>2026-05-02T09:15:44.999Z</time></trkpt><trkpt lat="44.17111374579042" lon="12.03167256734171"><ele>51.83333333333333</ele><time>2026-05-02T09:15:46.999Z</time></trkpt><trkpt lat="44.171036934234785" lon="12.031686820196446"><ele>52.0</ele><time>2026-05-02T09:15:48.999Z</time></trkpt><trkpt lat="44.17095853528842" lon="12.031700031985011"><ele>52.0</ele><time>2026-05-02T09:15:50.999Z</time></trkpt><trkpt lat="44.170886550582445" lon="12.031715357750196"><ele>52.0</ele><time>2026-05-02T09:15:53Z</time></trkpt><trkpt lat="44.17081242643649" lon="12.031726457808652"><ele>52.0</ele><time>2026-05-02T09:15:55Z</time></trkpt><trkpt lat="44.1707425034229" lon="12.031740357716556"><ele>52.0</ele><time>2026-05-02T09:15:57Z</time></trkpt><trkpt lat="44.17067451973363" lon="12.031757087496153"><ele>52.0</ele><time>2026-05-02T09:15:59Z</time></trkpt><trkpt lat="44.17060586831125" lon="12.0317699057808"><ele>52.0</ele><time>2026-05-02T09:16:01Z</time></trkpt><trkpt lat="44.17053509701306" lon="12.03175771873579"><ele>52.0</ele><time>2026-05-02T09:16:03Z</time></trkpt><trkpt lat="44.170466978061995" lon="12.031778992422431"><ele>52.14285714285714</ele><time>2026-05-02T09:16:05Z</time></trkpt><trkpt lat="44.17039733600839" lon="12.031795804428107"><ele>52.28571428571429</ele><time>2026-05-02T09:16:07Z</time></trkpt><trkpt lat="44.17032565101858" lon="12.031806990661945"><ele>52.42857142857143</ele><time>2026-05-02T09:16:09Z</time></trkpt><trkpt lat="44.17025879099736" lon="12.031816486506607"><ele>52.57142857142857</ele><time>2026-05-02T09:16:11Z</time></trkpt><trkpt lat="44.17019243030627" lon="12.03182657549582"><ele>52.71428571428571</ele><time>2026-05-02T09:16:13Z</time></trkpt><trkpt lat="44.17012799323123" lon="12.03184101124293"><ele>52.85714285714286</ele><time>2026-05-02T09:16:15Z</time></trkpt><trkpt lat="44.17006497828482" lon="12.031828357613433"><ele>53.0</ele><time>2026-05-02T09:16:17Z</time></trkpt><trkpt lat="44.169984548559036" lon="12.031859285699616"><ele>53.0</ele><time>2026-05-02T09:16:20Z</time></trkpt><trkpt lat="44.16990524195189" lon="12.031868898595969"><ele>53.0</ele><time>2026-05-02T09:16:23Z</time></trkpt><trkpt lat="44.16983120318289" lon="12.03187822901869"><ele>53.0</ele><time>2026-05-02T09:16:26Z</time></trkpt><trkpt lat="44.16976477179324" lon="12.031887523235314"><ele>53.0</ele><time>2026-05-02T09:16:29Z</time></trkpt><trkpt lat="44.1696983609137" lon="12.031890472598363"><ele>53.0</ele><time>2026-05-02T09:16:32Z</time></trkpt><trkpt lat="44.16962344827153" lon="12.03191382323549"><ele>53.0</ele><time>2026-05-02T09:16:36Z</time></trkpt><trkpt lat="44.16955446805127" lon="12.031925267451047"><ele>53.0</ele><time>2026-05-02T09:16:40Z</time></trkpt><trkpt lat="44.16948245964537" lon="12.03196912657375"><ele>54.28571428571429</ele><time>2026-05-02T09:16:44Z</time></trkpt><trkpt lat="44.169429073615376" lon="12.032023148849719"><ele>55.57142857142857</ele><time>2026-05-02T09:16:48Z</time></trkpt><trkpt lat="44.16938097410347" lon="12.032092688032991"><ele>56.85714285714286</ele><time>2026-05-02T09:16:52Z</time></trkpt><trkpt lat="44.16938883015691" lon="12.032194045363086"><ele>58.142857142857146</ele><time>2026-05-02T09:16:55Z</time></trkpt><trkpt lat="44.169346322213194" lon="12.03228523175929"><ele>59.42857142857143</ele><time>2026-05-02T09:16:59Z</time></trkpt><trkpt lat="44.16932014760015" lon="12.032365288786794"><ele>60.714285714285715</ele><time>2026-05-02T09:17:02Z</time></trkpt><trkpt lat="44.16928326399183" lon="12.032463219843075"><ele>62.0</ele><time>2026-05-02T09:17:06Z</time></trkpt><trkpt lat="44.16924811361541" lon="12.032557044591577"><ele>62.0</ele><time>2026-05-02T09:17:10Z</time></trkpt><trkpt lat="44.16921489013782" lon="12.032643757973851"><ele>62.00000000000001</ele><time>2026-05-02T09:17:14Z</time></trkpt><trkpt lat="44.16917856792301" lon="12.032726415888936"><ele>62.0</ele><time>2026-05-02T09:17:18Z</time></trkpt><trkpt lat="44.169147037366635" lon="12.032818917098625"><ele>62.0</ele><time>2026-05-02T09:17:22Z</time></trkpt><trkpt lat="44.16911861407239" lon="12.03291422414699"><ele>62.00000000000001</ele><time>2026-05-02T09:17:26Z</time></trkpt><trkpt lat="44.16908473627616" lon="12.03301382119941"><ele>62.0</ele><time>2026-05-02T09:17:30Z</time></trkpt><trkpt lat="44.16905595191269" lon="12.033108159375152"><ele>62.0</ele><time>2026-05-02T09:17:33.999Z</time></trkpt><trkpt lat="44.169023191438356" lon="12.03319722505213"><ele>65.0</ele><time>2026-05-02T09:17:37.999Z</time></trkpt><trkpt lat="44.16900203604353" lon="12.03328605128977"><ele>68.0</ele><time>2026-05-02T09:17:41.999Z</time></trkpt><trkpt lat="44.16896946319581" lon="12.033375951992234"><ele>71.0</ele><time>2026-05-02T09:17:45.999Z</time></trkpt><trkpt lat="44.168944599895994" lon="12.033459522556358"><ele>74.0</ele><time>2026-05-02T09:17:48.999Z</time></trkpt><trkpt lat="44.168908200910856" lon="12.033568507619794"><ele>77.0</ele><time>2026-05-02T09:17:52.999Z</time></trkpt><trkpt lat="44.1688790001966" lon="12.0336786320438"><ele>80.0</ele><time>2026-05-02T09:17:56.999Z</time></trkpt><trkpt lat="44.168837011067254" lon="12.033782124992781"><ele>80.0</ele><time>2026-05-02T09:18:01Z</time></trkpt><trkpt lat="44.16879849330095" lon="12.033892612136528"><ele>80.0</ele><time>2026-05-02T09:18:05Z</time></trkpt><trkpt lat="44.16874208888998" lon="12.033974688794272"><ele>80.0</ele><time>2026-05-02T09:18:09Z</time></trkpt><trkpt lat="44.1686933425621" lon="12.034032207213835"><ele>80.0</ele><time>2026-05-02T09:18:12Z</time></trkpt><trkpt lat="44.1686228077079" lon="12.034094419561201"><ele>80.0</ele><time>2026-05-02T09:18:16Z</time></trkpt><trkpt lat="44.168555055005946" lon="12.034143602942944"><ele>80.0</ele><time>2026-05-02T09:18:19Z</time></trkpt><trkpt lat="44.16849614435236" lon="12.03417797149335"><ele>80.14285714285714</ele><time>2026-05-02T09:18:22Z</time></trkpt><trkpt lat="44.168428564612164" lon="12.034198029865786"><ele>80.28571428571429</ele><time>2026-05-02T09:18:25Z</time></trkpt><trkpt lat="44.168352495327966" lon="12.03420412043873"><ele>80.42857142857143</ele><time>2026-05-02T09:18:29Z</time></trkpt><trkpt lat="44.16827742746146" lon="12.034212936168046"><ele>80.57142857142857</ele><time>2026-05-02T09:18:33Z</time></trkpt><trkpt lat="44.16820173434137" lon="12.034191793405467"><ele>80.71428571428571</ele><time>2026-05-02T09:18:37Z</time></trkpt><trkpt lat="44.1681349167298" lon="12.03417024981474"><ele>80.85714285714286</ele><time>2026-05-02T09:18:41Z</time></trkpt><trkpt lat="44.16806802938985" lon="12.03412173879708"><ele>81.0</ele><time>2026-05-02T09:18:46Z</time></trkpt><trkpt lat="44.16800101800195" lon="12.034090115529095"><ele>81.57142857142857</ele><time>2026-05-02T09:18:50Z</time></trkpt><trkpt lat="44.167939736358534" lon="12.034069217400162"><ele>82.14285714285714</ele><time>2026-05-02T09:18:54Z</time></trkpt><trkpt lat="44.167877152618885" lon="12.03402428173341"><ele>82.71428571428572</ele><time>2026-05-02T09:18:58Z</time></trkpt><trkpt lat="44.16780420348943" lon="12.033976873402993"><ele>83.28571428571428</ele><time>2026-05-02T09:19:03Z</time></trkpt><trkpt lat="44.167739293543455" lon="12.033927099834765"><ele>83.85714285714285</ele><time>2026-05-02T09:19:07Z</time></trkpt><trkpt lat="44.16767663317874" lon="12.033891489798465"><ele>84.42857142857143</ele><time>2026-05-02T09:19:11Z</time></trkpt><trkpt lat="44.16761292909488" lon="12.033856602892325"><ele>85.0</ele><time>2026-05-02T09:19:15Z</time></trkpt><trkpt lat="44.16754956087684" lon="12.033811146588985"><ele>85.0</ele><time>2026-05-02T09:19:19Z</time></trkpt><trkpt lat="44.16748505419753" lon="12.033772359943029"><ele>85.0</ele><time>2026-05-02T09:19:23Z</time></trkpt><trkpt lat="44.16742092656744" lon="12.033732523576615"><ele>85.0</ele><time>2026-05-02T09:19:27Z</time></trkpt><trkpt lat="44.16735652757634" lon="12.033693061084527"><ele>85.0</ele><time>2026-05-02T09:19:31Z</time></trkpt><trkpt lat="44.1672887908505" lon="12.03365231392512"><ele>85.0</ele><time>2026-05-02T09:19:35Z</time></trkpt><trkpt lat="44.16722026868791" lon="12.033624756314493"><ele>85.0</ele><time>2026-05-02T09:19:39Z</time></trkpt><trkpt lat="44.16715102242363" lon="12.03360976472814"><ele>85.0</ele><time>2026-05-02T09:19:42.999Z</time></trkpt><trkpt lat="44.16707837766336" lon="12.033598582121178"><ele>85.71428571428572</ele><time>2026-05-02T09:19:46.999Z</time></trkpt><trkpt lat="44.167008879080164" lon="12.033556438932461"><ele>86.42857142857142</ele><time>2026-05-02T09:19:50.999Z</time></trkpt><trkpt lat="44.16694699805502" lon="12.033512983236307"><ele>87.14285714285714</ele><time>2026-05-02T09:19:54.999Z</time></trkpt><trkpt lat="44.16688254753421" lon="12.033493561306955"><ele>87.85714285714286</ele><time>2026-05-02T09:19:58.999Z</time></trkpt><trkpt lat="44.16680898937143" lon="12.033503325296971"><ele>88.57142857142858</ele><time>2026-05-02T09:20:02.999Z</time></trkpt><trkpt lat="44.166746923784416" lon="12.033572981880067"><ele>89.28571428571428</ele><time>2026-05-02T09:20:07Z</time></trkpt><trkpt lat="44.16671334854981" lon="12.033657688010765"><ele>90.0</ele><time>2026-05-02T09:20:10Z</time></trkpt><trkpt lat="44.16668772794409" lon="12.033756873723748"><ele>90.0</ele><time>2026-05-02T09:20:13Z</time></trkpt><trkpt lat="44.16664952173699" lon="12.033847004348338"><ele>90.0</ele><time>2026-05-02T09:20:16Z</time></trkpt><trkpt lat="44.166615794027614" lon="12.033938449445204"><ele>90.0</ele><time>2026-05-02T09:20:18Z</time></trkpt><trkpt lat="44.16656248278984" lon="12.034041390688676"><ele>90.0</ele><time>2026-05-02T09:20:21Z</time></trkpt><trkpt lat="44.16653110833993" lon="12.034163462554067"><ele>90.0</ele><time>2026-05-02T09:20:24Z</time></trkpt><trkpt lat="44.166502674416904" lon="12.03424840129204"><ele>90.0</ele><time>2026-05-02T09:20:26Z</time></trkpt><trkpt lat="44.16647999287421" lon="12.034369514596985"><ele>89.5</ele><time>2026-05-02T09:20:29Z</time></trkpt><trkpt lat="44.166439164493916" lon="12.03445516809668"><ele>89.0</ele><time>2026-05-02T09:20:31Z</time></trkpt><trkpt lat="44.166406376824696" lon="12.03457035191324"><ele>88.5</ele><time>2026-05-02T09:20:33Z</time></trkpt><trkpt lat="44.16636943824946" lon="12.034688461099645"><ele>88.0</ele><time>2026-05-02T09:20:35Z</time></trkpt><trkpt lat="44.16633028860152" lon="12.034803597712331"><ele>87.5</ele><time>2026-05-02T09:20:37Z</time></trkpt><trkpt lat="44.16629763909077" lon="12.03491968600778"><ele>87.0</ele><time>2026-05-02T09:20:39Z</time></trkpt><trkpt lat="44.166260032166825" lon="12.035038141320136"><ele>86.19999999999999</ele><time>2026-05-02T09:20:41Z</time></trkpt><trkpt lat="44.16622419267327" lon="12.03515641134583"><ele>85.4</ele><time>2026-05-02T09:20:43Z</time></trkpt><trkpt lat="44.166189699380524" lon="12.035273692882063"><ele>84.6</ele><time>2026-05-02T09:20:45Z</time></trkpt><trkpt lat="44.166152708494955" lon="12.035397506984404"><ele>83.80000000000001</ele><time>2026-05-02T09:20:47Z</time></trkpt><trkpt lat="44.166110130955765" lon="12.035514600464644"><ele>83.0</ele><time>2026-05-02T09:20:49Z</time></trkpt><trkpt lat="44.16606592025083" lon="12.035640990386076"><ele>83.0</ele><time>2026-05-02T09:20:51Z</time></trkpt><trkpt lat="44.166026538765216" lon="12.035778062863209"><ele>83.0</ele><time>2026-05-02T09:20:53Z</time></trkpt><trkpt lat="44.165989997898926" lon="12.035910922830327"><ele>83.0</ele><time>2026-05-02T09:20:55Z</time></trkpt><trkpt lat="44.165940778964654" lon="12.036053343316672"><ele>83.0</ele><time>2026-05-02T09:20:57Z</time></trkpt><trkpt lat="44.1658940638481" lon="12.036208122889555"><ele>83.0</ele><time>2026-05-02T09:20:59Z</time></trkpt><trkpt lat="44.16585157102876" lon="12.036363966521419"><ele>83.0</ele><time>2026-05-02T09:21:01Z</time></trkpt><trkpt lat="44.165804478475785" lon="12.036513903780644"><ele>83.0</ele><time>2026-05-02T09:21:03Z</time></trkpt><trkpt lat="44.16575990404735" lon="12.036660846000776"><ele>83.0</ele><time>2026-05-02T09:21:05Z</time></trkpt><trkpt lat="44.1657139581795" lon="12.036807591835"><ele>83.0</ele><time>2026-05-02T09:21:07Z</time></trkpt><trkpt lat="44.165675428289745" lon="12.036951774935138"><ele>82.5</ele><time>2026-05-02T09:21:09Z</time></trkpt><trkpt lat="44.16564147017468" lon="12.0371047058522"><ele>82.0</ele><time>2026-05-02T09:21:11Z</time></trkpt><trkpt lat="44.16562594443988" lon="12.037258269757592"><ele>81.5</ele><time>2026-05-02T09:21:13Z</time></trkpt><trkpt lat="44.16565903388195" lon="12.037411748524539"><ele>81.0</ele><time>2026-05-02T09:21:15Z</time></trkpt><trkpt lat="44.16571315517278" lon="12.03755307105281"><ele>81.0</ele><time>2026-05-02T09:21:17Z</time></trkpt><trkpt lat="44.16570067417821" lon="12.03766963154957"><ele>81.0</ele><time>2026-05-02T09:21:19Z</time></trkpt><trkpt lat="44.165587369562566" lon="12.037636356811928"><ele>81.0</ele><time>2026-05-02T09:21:21Z</time></trkpt><trkpt lat="44.165556737836226" lon="12.037556404385311"><ele>81.0</ele><time>2026-05-02T09:21:22Z</time></trkpt><trkpt lat="44.165543440379906" lon="12.037387375914353"><ele>81.0</ele><time>2026-05-02T09:21:24Z</time></trkpt><trkpt lat="44.16551384884376" lon="12.037222725757386"><ele>79.6</ele><time>2026-05-02T09:21:26Z</time></trkpt><trkpt lat="44.16550348493823" lon="12.037053052544321"><ele>78.19999999999999</ele><time>2026-05-02T09:21:28Z</time></trkpt><trkpt lat="44.16549971509704" lon="12.03696061115267"><ele>76.80000000000001</ele><time>2026-05-02T09:21:29Z</time></trkpt><trkpt lat="44.16548339340887" lon="12.036788506013515"><ele>75.4</ele><time>2026-05-02T09:21:31Z</time></trkpt><trkpt lat="44.165482006713674" lon="12.036609467623064"><ele>74.0</ele><time>2026-05-02T09:21:33Z</time></trkpt><trkpt lat="44.16548303561276" lon="12.036514634442893"><ele>74.0</ele><time>2026-05-02T09:21:34Z</time></trkpt><trkpt lat="44.16548368467774" lon="12.036421781361982"><ele>74.0</ele><time>2026-05-02T09:21:35Z</time></trkpt><trkpt lat="44.165478987574346" lon="12.036321560129348"><ele>74.0</ele><time>2026-05-02T09:21:36Z</time></trkpt><trkpt lat="44.16547488951281" lon="12.03622062310547"><ele>74.0</ele><time>2026-05-02T09:21:37Z</time></trkpt><trkpt lat="44.165461076363655" lon="12.036132491252859"><ele>74.0</ele><time>2026-05-02T09:21:38Z</time></trkpt><trkpt lat="44.16543078326054" lon="12.036024405753272"><ele>74.0</ele><time>2026-05-02T09:21:39Z</time></trkpt><trkpt lat="44.16538990577694" lon="12.035943423462788"><ele>74.0</ele><time>2026-05-02T09:21:40Z</time></trkpt><trkpt lat="44.16533786307257" lon="12.035868996568897"><ele>74.0</ele><time>2026-05-02T09:21:41Z</time></trkpt><trkpt lat="44.16527456884282" lon="12.035806803319968"><ele>74.0</ele><time>2026-05-02T09:21:41.999Z</time></trkpt><trkpt lat="44.16520953675412" lon="12.035754685091518"><ele>74.0</ele><time>2026-05-02T09:21:42.999Z</time></trkpt><trkpt lat="44.1651412771559" lon="12.035703596487684"><ele>74.0</ele><time>2026-05-02T09:21:43.999Z</time></trkpt><trkpt lat="44.165075473690194" lon="12.035656094875034"><ele>74.0</ele><time>2026-05-02T09:21:44.999Z</time></trkpt><trkpt lat="44.16500500145749" lon="12.035613640523225"><ele>74.0</ele><time>2026-05-02T09:21:45.999Z</time></trkpt><trkpt lat="44.164936689078864" lon="12.035593441601351"><ele>74.0</ele><time>2026-05-02T09:21:46.999Z</time></trkpt><trkpt lat="44.164869144741786" lon="12.035594989550692"><ele>74.0</ele><time>2026-05-02T09:21:47.999Z</time></trkpt><trkpt lat="44.16480557435681" lon="12.03561093346067"><ele>74.0</ele><time>2026-05-02T09:21:48.999Z</time></trkpt><trkpt lat="44.16473008685505" lon="12.035730653719233"><ele>74.0</ele><time>2026-05-02T09:21:50.999Z</time></trkpt><trkpt lat="44.164686271246794" lon="12.035851383253373"><ele>74.0</ele><time>2026-05-02T09:21:52.999Z</time></trkpt><trkpt lat="44.16465238585175" lon="12.03597028123415"><ele>74.0</ele><time>2026-05-02T09:21:54.999Z</time></trkpt><trkpt lat="44.16462705121434" lon="12.036058909528013"><ele>75.0</ele><time>2026-05-02T09:21:56.999Z</time></trkpt><trkpt lat="44.16459758871338" lon="12.036158967030882"><ele>76.0</ele><time>2026-05-02T09:21:59.999Z</time></trkpt><trkpt lat="44.16456946030014" lon="12.036243789581453"><ele>77.0</ele><time>2026-05-02T09:22:02.999Z</time></trkpt><trkpt lat="44.16453368042596" lon="12.036317080303734"><ele>78.0</ele><time>2026-05-02T09:22:06.999Z</time></trkpt><trkpt lat="44.16446926128732" lon="12.036382938735478"><ele>79.0</ele><time>2026-05-02T09:22:12Z</time></trkpt><trkpt lat="44.16439874424935" lon="12.036397103670236"><ele>80.0</ele><time>2026-05-02T09:22:17Z</time></trkpt><trkpt lat="44.16433367995268" lon="12.036387683977308"><ele>81.0</ele><time>2026-05-02T09:22:21Z</time></trkpt><trkpt lat="44.16427400263066" lon="12.036338636167692"><ele>81.0</ele><time>2026-05-02T09:22:26Z</time></trkpt><trkpt lat="44.16420767679914" lon="12.036282526034336"><ele>81.0</ele><time>2026-05-02T09:22:31Z</time></trkpt><trkpt lat="44.16416232058067" lon="12.03619720024582"><ele>81.0</ele><time>2026-05-02T09:22:36Z</time></trkpt><trkpt lat="44.16413634121225" lon="12.036102725762106"><ele>81.0</ele><time>2026-05-02T09:22:41Z</time></trkpt><trkpt lat="44.16409561208684" lon="12.036022261862522"><ele>81.0</ele><time>2026-05-02T09:22:45Z</time></trkpt><trkpt lat="44.16406764886105" lon="12.035928506326734"><ele>81.0</ele><time>2026-05-02T09:22:49Z</time></trkpt><trkpt lat="44.16404684520139" lon="12.035836261260611"><ele>81.0</ele><time>2026-05-02T09:22:53Z</time></trkpt><trkpt lat="44.164026830194686" lon="12.035735014526377"><ele>82.57142857142857</ele><time>2026-05-02T09:22:58Z</time></trkpt><trkpt lat="44.16401916728821" lon="12.035635688327872"><ele>84.14285714285714</ele><time>2026-05-02T09:23:02Z</time></trkpt><trkpt lat="44.1640168564105" lon="12.035527798264747"><ele>85.71428571428572</ele><time>2026-05-02T09:23:07Z</time></trkpt><trkpt lat="44.16401271311619" lon="12.035435348603885"><ele>87.28571428571428</ele><time>2026-05-02T09:23:10Z</time></trkpt><trkpt lat="44.16400940263434" lon="12.035317080889858"><ele>88.85714285714285</ele><time>2026-05-02T09:23:15Z</time></trkpt><trkpt lat="44.16399425688007" lon="12.035226208207241"><ele>90.42857142857143</ele><time>2026-05-02T09:23:18Z</time></trkpt><trkpt lat="44.16398107297009" lon="12.035121811656884"><ele>92.0</ele><time>2026-05-02T09:23:22Z</time></trkpt><trkpt lat="44.163979361029725" lon="12.035011269555271"><ele>92.71428571428572</ele><time>2026-05-02T09:23:26Z</time></trkpt><trkpt lat="44.16395878653049" lon="12.034913307675188"><ele>93.42857142857142</ele><time>2026-05-02T09:23:30Z</time></trkpt><trkpt lat="44.16392995416417" lon="12.034815913385078"><ele>94.14285714285714</ele><time>2026-05-02T09:23:34Z</time></trkpt><trkpt lat="44.163897636029546" lon="12.034718664057793"><ele>94.85714285714286</ele><time>2026-05-02T09:23:38Z</time></trkpt><trkpt lat="44.163868219246304" lon="12.034623211532653"><ele>95.57142857142858</ele><time>2026-05-02T09:23:42Z</time></trkpt><trkpt lat="44.163830118854236" lon="12.034538889145514"><ele>96.28571428571428</ele><time>2026-05-02T09:23:46Z</time></trkpt><trkpt lat="44.163781110939276" lon="12.034471737124665"><ele>97.0</ele><time>2026-05-02T09:23:50Z</time></trkpt><trkpt lat="44.16372594380779" lon="12.034421372512199"><ele>97.0</ele><time>2026-05-02T09:23:54Z</time></trkpt><trkpt lat="44.16367372345336" lon="12.03436387620665"><ele>97.0</ele><time>2026-05-02T09:23:58Z</time></trkpt><trkpt lat="44.163619730639155" lon="12.034303913526154"><ele>97.0</ele><time>2026-05-02T09:24:02Z</time></trkpt><trkpt lat="44.1635554570702" lon="12.034256186132067"><ele>97.0</ele><time>2026-05-02T09:24:05.999Z</time></trkpt><trkpt lat="44.16349732805812" lon="12.034210044685437"><ele>97.0</ele><time>2026-05-02T09:24:09.999Z</time></trkpt><trkpt lat="44.16343760410873" lon="12.034175139758341"><ele>97.0</ele><time>2026-05-02T09:24:13.999Z</time></trkpt><trkpt lat="44.16337537619815" lon="12.034122818768463"><ele>97.0</ele><time>2026-05-02T09:24:19Z</time></trkpt><trkpt lat="44.16330194320004" lon="12.034099543710118"><ele>97.42857142857143</ele><time>2026-05-02T09:24:24Z</time></trkpt><trkpt lat="44.16323100930116" lon="12.03405036151074"><ele>97.85714285714286</ele><time>2026-05-02T09:24:29Z</time></trkpt><trkpt lat="44.16317025951461" lon="12.034003984222942"><ele>98.28571428571429</ele><time>2026-05-02T09:24:34Z</time></trkpt><trkpt lat="44.16311245094409" lon="12.033968708433905"><ele>98.71428571428572</ele><time>2026-05-02T09:24:39Z</time></trkpt><trkpt lat="44.16304329664075" lon="12.033942617000205"><ele>99.14285714285714</ele><time>2026-05-02T09:24:44Z</time></trkpt><trkpt lat="44.16298724508244" lon="12.033887588949163"><ele>99.57142857142858</ele><time>2026-05-02T09:24:49Z</time></trkpt><trkpt lat="44.162924954765" lon="12.033851585787373"><ele>100.0</ele><time>2026-05-02T09:24:54Z</time></trkpt><trkpt lat="44.16286336136002" lon="12.0338147840533"><ele>101.42857142857143</ele><time>2026-05-02T09:24:59Z</time></trkpt><trkpt lat="44.16279676362532" lon="12.03377554251093"><ele>102.85714285714286</ele><time>2026-05-02T09:25:04Z</time></trkpt><trkpt lat="44.16273415477052" lon="12.0337515406018"><ele>104.28571428571428</ele><time>2026-05-02T09:25:09Z</time></trkpt><trkpt lat="44.16267265771246" lon="12.033715890270745"><ele>105.71428571428572</ele><time>2026-05-02T09:25:15Z</time></trkpt><trkpt lat="44.162604095114176" lon="12.033680703747937"><ele>107.14285714285714</ele><time>2026-05-02T09:25:21Z</time></trkpt><trkpt lat="44.16253459067918" lon="12.033639625393027"><ele>108.57142857142857</ele><time>2026-05-02T09:25:27Z</time></trkpt><trkpt lat="44.16246925778318" lon="12.033614889618164"><ele>110.0</ele><time>2026-05-02T09:25:32Z</time></trkpt><trkpt lat="44.16240302413671" lon="12.03359741694474"><ele>110.57142857142856</ele><time>2026-05-02T09:25:37Z</time></trkpt><trkpt lat="44.16233321349138" lon="12.033551508760176"><ele>111.14285714285714</ele><time>2026-05-02T09:25:42Z</time></trkpt><trkpt lat="44.16226667090514" lon="12.033533926006657"><ele>111.71428571428571</ele><time>2026-05-02T09:25:46Z</time></trkpt><trkpt lat="44.16220053384003" lon="12.03352797649458"><ele>112.28571428571428</ele><time>2026-05-02T09:25:50Z</time></trkpt><trkpt lat="44.16212692287335" lon="12.03354212762641"><ele>112.85714285714285</ele><time>2026-05-02T09:25:55Z</time></trkpt><trkpt lat="44.162056151942735" lon="12.033557406505022"><ele>113.42857142857142</ele><time>2026-05-02T09:25:59Z</time></trkpt><trkpt lat="44.161992572651194" lon="12.033586054790822"><ele>114.0</ele><time>2026-05-02T09:26:03Z</time></trkpt><trkpt lat="44.161924857700846" lon="12.033606117039184"><ele>114.0</ele><time>2026-05-02T09:26:06.999Z</time></trkpt><trkpt lat="44.16186199280353" lon="12.03363557491206"><ele>113.99999999999999</ele><time>2026-05-02T09:26:10.999Z</time></trkpt><trkpt lat="44.161798049030516" lon="12.03365727385936"><ele>114.0</ele><time>2026-05-02T09:26:14.999Z</time></trkpt><trkpt lat="44.16173182578918" lon="12.033668252601359"><ele>114.0</ele><time>2026-05-02T09:26:18.999Z</time></trkpt><trkpt lat="44.16166017414214" lon="12.033667736646898"><ele>113.99999999999999</ele><time>2026-05-02T09:26:24Z</time></trkpt><trkpt lat="44.16158448953199" lon="12.033647533924123"><ele>114.0</ele><time>2026-05-02T09:26:29Z</time></trkpt><trkpt lat="44.16151267576132" lon="12.03361037290811"><ele>114.0</ele><time>2026-05-02T09:26:34Z</time></trkpt><trkpt lat="44.16144544562314" lon="12.03357320708608"><ele>114.85714285714285</ele><time>2026-05-02T09:26:39Z</time></trkpt><trkpt lat="44.16138155172008" lon="12.033543957241669"><ele>115.7142857142857</ele><time>2026-05-02T09:26:44Z</time></trkpt><trkpt lat="44.161319814310886" lon="12.03349374466514"><ele>116.57142857142857</ele><time>2026-05-02T09:26:49Z</time></trkpt><trkpt lat="44.16126612565563" lon="12.033443736678482"><ele>117.42857142857142</ele><time>2026-05-02T09:26:54Z</time></trkpt><trkpt lat="44.16120693893476" lon="12.03339083437116"><ele>118.28571428571428</ele><time>2026-05-02T09:26:59Z</time></trkpt><trkpt lat="44.16114624101021" lon="12.033338852475767"><ele>119.14285714285714</ele><time>2026-05-02T09:27:04Z</time></trkpt><trkpt lat="44.16108928180621" lon="12.033292719929074"><ele>120.0</ele><time>2026-05-02T09:27:09Z</time></trkpt><trkpt lat="44.16103548515563" lon="12.033235012097958"><ele>121.14285714285714</ele><time>2026-05-02T09:27:14Z</time></trkpt><trkpt lat="44.160968103241814" lon="12.033188844559032"><ele>122.28571428571428</ele><time>2026-05-02T09:27:20Z</time></trkpt><trkpt lat="44.160916725456175" lon="12.033123835380897"><ele>123.42857142857142</ele><time>2026-05-02T09:27:25Z</time></trkpt><trkpt lat="44.160861403415836" lon="12.033074949889281"><ele>124.57142857142857</ele><time>2026-05-02T09:27:30Z</time></trkpt><trkpt lat="44.16080558120143" lon="12.033023176426473"><ele>125.7142857142857</ele><time>2026-05-02T09:27:35Z</time></trkpt><trkpt lat="44.160749383019535" lon="12.032972531057016"><ele>126.85714285714285</ele><time>2026-05-02T09:27:41Z</time></trkpt><trkpt lat="44.16069186400446" lon="12.032914217726566"><ele>128.0</ele><time>2026-05-02T09:27:47Z</time></trkpt><trkpt lat="44.160649158531044" lon="12.032843517593186"><ele>128.0</ele><time>2026-05-02T09:27:53Z</time></trkpt><trkpt lat="44.16061138624823" lon="12.032764907147584"><ele>127.99999999999999</ele><time>2026-05-02T09:27:59Z</time></trkpt><trkpt lat="44.16064992704829" lon="12.03269369182392"><ele>128.0</ele><time>2026-05-02T09:28:02.999Z</time></trkpt><trkpt lat="44.16069895007257" lon="12.032618487139127"><ele>128.0</ele><time>2026-05-02T09:28:07.999Z</time></trkpt><trkpt lat="44.16074494673765" lon="12.032551443566334"><ele>127.99999999999999</ele><time>2026-05-02T09:28:12.999Z</time></trkpt><trkpt lat="44.16078843179739" lon="12.032477513469331"><ele>128.0</ele><time>2026-05-02T09:28:17.999Z</time></trkpt><trkpt lat="44.16082489686363" lon="12.032398443028399"><ele>128.0</ele><time>2026-05-02T09:28:22.999Z</time></trkpt><trkpt lat="44.16085556864395" lon="12.032321679288046"><ele>128.71428571428572</ele><time>2026-05-02T09:28:27.999Z</time></trkpt><trkpt lat="44.16084934140081" lon="12.032233375558333"><ele>129.42857142857142</ele><time>2026-05-02T09:28:32Z</time></trkpt><trkpt lat="44.16084211676935" lon="12.032133813568587"><ele>130.14285714285714</ele><time>2026-05-02T09:28:37Z</time></trkpt><trkpt lat="44.16081973356757" lon="12.032035608134489"><ele>130.85714285714286</ele><time>2026-05-02T09:28:43Z</time></trkpt><trkpt lat="44.160783879274106" lon="12.031933271776529"><ele>131.57142857142856</ele><time>2026-05-02T09:28:49Z</time></trkpt><trkpt lat="44.160754004980284" lon="12.031849284115141"><ele>132.28571428571428</ele><time>2026-05-02T09:28:54Z</time></trkpt><trkpt lat="44.16071962237401" lon="12.031773279947002"><ele>133.0</ele><time>2026-05-02T09:28:59Z</time></trkpt><trkpt lat="44.16067296084785" lon="12.031710857266363"><ele>134.28571428571428</ele><time>2026-05-02T09:29:05Z</time></trkpt><trkpt lat="44.16063176697403" lon="12.031628514548409"><ele>135.57142857142856</ele><time>2026-05-02T09:29:10Z</time></trkpt><trkpt lat="44.16059688583869" lon="12.031545057570808"><ele>136.85714285714286</ele><time>2026-05-02T09:29:15Z</time></trkpt><trkpt lat="44.16053797340348" lon="12.031504641998707"><ele>138.14285714285714</ele><time>2026-05-02T09:29:20Z</time></trkpt><trkpt lat="44.16050195307318" lon="12.031416205488343"><ele>139.42857142857142</ele><time>2026-05-02T09:29:25Z</time></trkpt><trkpt lat="44.16046515322497" lon="12.031337280683433"><ele>140.71428571428572</ele><time>2026-05-02T09:29:30Z</time></trkpt><trkpt lat="44.16042464741086" lon="12.031269340334475"><ele>142.0</ele><time>2026-05-02T09:29:34Z</time></trkpt><trkpt lat="44.16037047603802" lon="12.031200841036098"><ele>142.0</ele><time>2026-05-02T09:29:39Z</time></trkpt><trkpt lat="44.160300751096685" lon="12.031150352100273"><ele>142.0</ele><time>2026-05-02T09:29:44Z</time></trkpt><trkpt lat="44.16023543497556" lon="12.031114774872648"><ele>142.0</ele><time>2026-05-02T09:29:48Z</time></trkpt><trkpt lat="44.16017057177319" lon="12.031055841722742"><ele>142.0</ele><time>2026-05-02T09:29:53Z</time></trkpt><trkpt lat="44.16010526256878" lon="12.031035346270505"><ele>142.0</ele><time>2026-05-02T09:29:57Z</time></trkpt><trkpt lat="44.160040204243195" lon="12.031004457322092"><ele>142.0</ele><time>2026-05-02T09:30:01Z</time></trkpt><trkpt lat="44.15997234203608" lon="12.03097929630409"><ele>142.0</ele><time>2026-05-02T09:30:05Z</time></trkpt><trkpt lat="44.15990284971681" lon="12.030963230894628"><ele>142.57142857142856</ele><time>2026-05-02T09:30:09Z</time></trkpt><trkpt lat="44.159837993033015" lon="12.030949687593647"><ele>143.14285714285714</ele><time>2026-05-02T09:30:13Z</time></trkpt><trkpt lat="44.15977663397409" lon="12.03092824038502"><ele>143.71428571428572</ele><time>2026-05-02T09:30:17Z</time></trkpt><trkpt lat="44.15970712082253" lon="12.030898909199836"><ele>144.28571428571428</ele><time>2026-05-02T09:30:21Z</time></trkpt><trkpt lat="44.159642352271476" lon="12.030871386982957"><ele>144.85714285714286</ele><time>2026-05-02T09:30:25Z</time></trkpt><trkpt lat="44.15957735761436" lon="12.030851277752273"><ele>145.42857142857142</ele><time>2026-05-02T09:30:27.999Z</time></trkpt><trkpt lat="44.159510871701634" lon="12.030843467480759"><ele>146.0</ele><time>2026-05-02T09:30:31.999Z</time></trkpt><trkpt lat="44.15943889439877" lon="12.030818274313393"><ele>146.0</ele><time>2026-05-02T09:30:36Z</time></trkpt><trkpt lat="44.15936627833156" lon="12.0308089421492"><ele>146.0</ele><time>2026-05-02T09:30:40Z</time></trkpt><trkpt lat="44.15930490625415" lon="12.030787688754172"><ele>146.0</ele><time>2026-05-02T09:30:43Z</time></trkpt><trkpt lat="44.15923756326993" lon="12.030760854760635"><ele>146.0</ele><time>2026-05-02T09:30:46Z</time></trkpt><trkpt lat="44.15915944995668" lon="12.030730412627198"><ele>146.0</ele><time>2026-05-02T09:30:50Z</time></trkpt><trkpt lat="44.159096754461004" lon="12.030710830454193"><ele>146.0</ele><time>2026-05-02T09:30:53Z</time></trkpt><trkpt lat="44.15903436345715" lon="12.030678012488357"><ele>146.0</ele><time>2026-05-02T09:30:56Z</time></trkpt><trkpt lat="44.15897246541413" lon="12.03065460615801"><ele>145.57142857142856</ele><time>2026-05-02T09:30:59Z</time></trkpt><trkpt lat="44.158905448831725" lon="12.030628669087228"><ele>145.14285714285714</ele><time>2026-05-02T09:31:02Z</time></trkpt><trkpt lat="44.15883779608807" lon="12.030599288304229"><ele>144.71428571428572</ele><time>2026-05-02T09:31:05Z</time></trkpt><trkpt lat="44.15876177217559" lon="12.030582930156827"><ele>144.28571428571428</ele><time>2026-05-02T09:31:09Z</time></trkpt><trkpt lat="44.158694365477146" lon="12.030560472127757"><ele>143.85714285714286</ele><time>2026-05-02T09:31:12Z</time></trkpt><trkpt lat="44.158621859674795" lon="12.03051954046573"><ele>143.42857142857142</ele><time>2026-05-02T09:31:15Z</time></trkpt><trkpt lat="44.15854969116937" lon="12.030502430861558"><ele>143.0</ele><time>2026-05-02T09:31:18Z</time></trkpt><trkpt lat="44.15847898730789" lon="12.030473772291563"><ele>142.99999999999997</ele><time>2026-05-02T09:31:21Z</time></trkpt><trkpt lat="44.158414929361015" lon="12.030462011546966"><ele>143.0</ele><time>2026-05-02T09:31:24Z</time></trkpt><trkpt lat="44.158336260056565" lon="12.030440087670094"><ele>143.0</ele><time>2026-05-02T09:31:27Z</time></trkpt><trkpt lat="44.15827089134166" lon="12.030412657550336"><ele>143.0</ele><time>2026-05-02T09:31:30Z</time></trkpt><trkpt lat="44.15819586364481" lon="12.030388782504717"><ele>143.0</ele><time>2026-05-02T09:31:33Z</time></trkpt><trkpt lat="44.1581125691412" lon="12.030366748650506"><ele>142.99999999999997</ele><time>2026-05-02T09:31:36Z</time></trkpt><trkpt lat="44.15804734500933" lon="12.030345996399298"><ele>143.0</ele><time>2026-05-02T09:31:39Z</time></trkpt><trkpt lat="44.15797304121146" lon="12.030320796507116"><ele>144.14285714285714</ele><time>2026-05-02T09:31:43Z</time></trkpt><trkpt lat="44.157910557038306" lon="12.030298904564878"><ele>145.28571428571428</ele><time>2026-05-02T09:31:46Z</time></trkpt><trkpt lat="44.15783746983273" lon="12.030274968563678"><ele>146.42857142857144</ele><time>2026-05-02T09:31:49Z</time></trkpt><trkpt lat="44.157770047776985" lon="12.030251051562521"><ele>147.57142857142856</ele><time>2026-05-02T09:31:52Z</time></trkpt><trkpt lat="44.15769680468394" lon="12.030222656994136"><ele>148.71428571428572</ele><time>2026-05-02T09:31:55Z</time></trkpt><trkpt lat="44.1576233524443" lon="12.030196345392378"><ele>149.85714285714286</ele><time>2026-05-02T09:31:58Z</time></trkpt><trkpt lat="44.15755241762137" lon="12.03017252404585"><ele>151.0</ele><time>2026-05-02T09:32:01Z</time></trkpt><trkpt lat="44.15747386358722" lon="12.030142290390726"><ele>151.0</ele><time>2026-05-02T09:32:04Z</time></trkpt><trkpt lat="44.1573934016329" lon="12.030116855624033"><ele>151.0</ele><time>2026-05-02T09:32:08Z</time></trkpt><trkpt lat="44.15731454525689" lon="12.030089640450816"><ele>151.0</ele><time>2026-05-02T09:32:12Z</time></trkpt><trkpt lat="44.15725215252061" lon="12.030056435799436"><ele>151.0</ele><time>2026-05-02T09:32:15Z</time></trkpt><trkpt lat="44.1571803985893" lon="12.030004992511106"><ele>151.0</ele><time>2026-05-02T09:32:19Z</time></trkpt><trkpt lat="44.15710054471932" lon="12.029978275111889"><ele>151.0</ele><time>2026-05-02T09:32:22.999Z</time></trkpt><trkpt lat="44.15702183268384" lon="12.029919063079774"><ele>152.14285714285717</ele><time>2026-05-02T09:32:27.999Z</time></trkpt><trkpt lat="44.156955150397316" lon="12.029870701643214"><ele>153.28571428571428</ele><time>2026-05-02T09:32:31.999Z</time></trkpt><trkpt lat="44.156891733602336" lon="12.029832218879164"><ele>154.42857142857144</ele><time>2026-05-02T09:32:35.999Z</time></trkpt><trkpt lat="44.15682076959176" lon="12.029781049626283"><ele>155.57142857142858</ele><time>2026-05-02T09:32:39.999Z</time></trkpt><trkpt lat="44.1567525107761" lon="12.029739601611166"><ele>156.71428571428572</ele><time>2026-05-02T09:32:44Z</time></trkpt><trkpt lat="44.15668897053681" lon="12.029696537995159"><ele>157.85714285714286</ele><time>2026-05-02T09:32:48Z</time></trkpt><trkpt lat="44.15662812486025" lon="12.029647008181847"><ele>159.0</ele><time>2026-05-02T09:32:52Z</time></trkpt><trkpt lat="44.15656035230429" lon="12.029591557334012"><ele>159.85714285714286</ele><time>2026-05-02T09:32:56Z</time></trkpt><trkpt lat="44.15649559191167" lon="12.029548769821702"><ele>160.71428571428572</ele><time>2026-05-02T09:33:00Z</time></trkpt><trkpt lat="44.15643310370064" lon="12.02950429757798"><ele>161.57142857142858</ele><time>2026-05-02T09:33:04Z</time></trkpt><trkpt lat="44.15638450418619" lon="12.029433694149157"><ele>162.42857142857144</ele><time>2026-05-02T09:33:08Z</time></trkpt><trkpt lat="44.156319359736436" lon="12.029386517523442"><ele>163.28571428571428</ele><time>2026-05-02T09:33:12Z</time></trkpt><trkpt lat="44.156262569409485" lon="12.029343383247546"><ele>164.14285714285717</ele><time>2026-05-02T09:33:16Z</time></trkpt><trkpt lat="44.15620214428318" lon="12.029297343127038"><ele>165.0</ele><time>2026-05-02T09:33:22Z</time></trkpt><trkpt lat="44.15614000435666" lon="12.029250283641964"><ele>165.00000000000003</ele><time>2026-05-02T09:33:27Z</time></trkpt><trkpt lat="44.15607523322791" lon="12.029204992130213"><ele>165.0</ele><time>2026-05-02T09:33:31Z</time></trkpt><trkpt lat="44.15601370874252" lon="12.029166924343965"><ele>165.0</ele><time>2026-05-02T09:33:35Z</time></trkpt><trkpt lat="44.15594168803018" lon="12.029131338712055"><ele>165.0</ele><time>2026-05-02T09:33:39Z</time></trkpt><trkpt lat="44.155877080747445" lon="12.029115221965796"><ele>165.0</ele><time>2026-05-02T09:33:42Z</time></trkpt><trkpt lat="44.155802095796176" lon="12.029119668580135"><ele>165.00000000000003</ele><time>2026-05-02T09:33:46Z</time></trkpt><trkpt lat="44.155739394004556" lon="12.029142120142414"><ele>165.0</ele><time>2026-05-02T09:33:49Z</time></trkpt><trkpt lat="44.155659369269856" lon="12.029179786636861"><ele>165.83333333333334</ele><time>2026-05-02T09:33:53Z</time></trkpt><trkpt lat="44.155582880294425" lon="12.029240114437666"><ele>166.66666666666666</ele><time>2026-05-02T09:33:57Z</time></trkpt><trkpt lat="44.15552992167353" lon="12.029290235861541"><ele>167.5</ele><time>2026-05-02T09:34:00Z</time></trkpt><trkpt lat="44.155473635114156" lon="12.029356196821434"><ele>168.33333333333331</ele><time>2026-05-02T09:34:04Z</time></trkpt><trkpt lat="44.15541146584062" lon="12.029442585515882"><ele>169.16666666666666</ele><time>2026-05-02T09:34:07Z</time></trkpt><trkpt lat="44.15536017237954" lon="12.029518526445562"><ele>170.0</ele><time>2026-05-02T09:34:10Z</time></trkpt><trkpt lat="44.15531145881065" lon="12.02960018110605"><ele>170.0</ele><time>2026-05-02T09:34:13Z</time></trkpt><trkpt lat="44.15526917369747" lon="12.02970004097697"><ele>170.0</ele><time>2026-05-02T09:34:15.999Z</time></trkpt><trkpt lat="44.15523402821829" lon="12.029794609158374"><ele>170.0</ele><time>2026-05-02T09:34:19.999Z</time></trkpt><trkpt lat="44.155205947773446" lon="12.029906802762351"><ele>170.0</ele><time>2026-05-02T09:34:22.999Z</time></trkpt><trkpt lat="44.15519394866952" lon="12.029996794920752"><ele>170.0</ele><time>2026-05-02T09:34:25.999Z</time></trkpt><trkpt lat="44.15520231106638" lon="12.030103110785896"><ele>170.0</ele><time>2026-05-02T09:34:28.999Z</time></trkpt><trkpt lat="44.155192554236926" lon="12.030202225565109"><ele>169.66666666666666</ele><time>2026-05-02T09:34:31.999Z</time></trkpt><trkpt lat="44.15519468059884" lon="12.030291058327288"><ele>169.33333333333331</ele><time>2026-05-02T09:34:33.999Z</time></trkpt><trkpt lat="44.15521276318509" lon="12.030394779977"><ele>169.0</ele><time>2026-05-02T09:34:35.999Z</time></trkpt><trkpt lat="44.155218765368744" lon="12.030499568123757"><ele>168.66666666666666</ele><time>2026-05-02T09:34:37.999Z</time></trkpt><trkpt lat="44.155225606696234" lon="12.030626385010153"><ele>168.33333333333334</ele><time>2026-05-02T09:34:39.999Z</time></trkpt><trkpt lat="44.155230101942934" lon="12.030757343542012"><ele>168.0</ele><time>2026-05-02T09:34:41.999Z</time></trkpt><trkpt lat="44.15523319679723" lon="12.030895074598975"><ele>167.60000000000002</ele><time>2026-05-02T09:34:43.999Z</time></trkpt><trkpt lat="44.15523160465654" lon="12.031046304363276"><ele>167.20000000000002</ele><time>2026-05-02T09:34:45.999Z</time></trkpt><trkpt lat="44.155220457048486" lon="12.031203241666532"><ele>166.8</ele><time>2026-05-02T09:34:48Z</time></trkpt><trkpt lat="44.155188883654304" lon="12.031372965541172"><ele>166.4</ele><time>2026-05-02T09:34:50Z</time></trkpt><trkpt lat="44.15517070394573" lon="12.031473187473829"><ele>166.0</ele><time>2026-05-02T09:34:51Z</time></trkpt><trkpt lat="44.15513578728515" lon="12.031569478522359"><ele>165.20000000000002</ele><time>2026-05-02T09:34:52Z</time></trkpt><trkpt lat="44.155088218565055" lon="12.031665166634955"><ele>164.4</ele><time>2026-05-02T09:34:53Z</time></trkpt><trkpt lat="44.15503565875636" lon="12.031760600412383"><ele>163.6</ele><time>2026-05-02T09:34:54Z</time></trkpt><trkpt lat="44.15497772798358" lon="12.03184947672403"><ele>162.8</ele><time>2026-05-02T09:34:55Z</time></trkpt><trkpt lat="44.15491344271013" lon="12.031951985814128"><ele>162.0</ele><time>2026-05-02T09:34:56Z</time></trkpt><trkpt lat="44.15484613171273" lon="12.032064177738004"><ele>161.2</ele><time>2026-05-02T09:34:57Z</time></trkpt><trkpt lat="44.154781437068856" lon="12.03217065165104"><ele>160.39999999999998</ele><time>2026-05-02T09:34:58Z</time></trkpt><trkpt lat="44.154715690422584" lon="12.032279792803468"><ele>159.60000000000002</ele><time>2026-05-02T09:34:59Z</time></trkpt><trkpt lat="44.154641277817284" lon="12.032392487845957"><ele>158.8</ele><time>2026-05-02T09:35:00Z</time></trkpt><trkpt lat="44.15456364698449" lon="12.032500036809434"><ele>158.0</ele><time>2026-05-02T09:35:01Z</time></trkpt><trkpt lat="44.15449079786859" lon="12.032615779208365"><ele>156.25</ele><time>2026-05-02T09:35:02Z</time></trkpt><trkpt lat="44.15440498352629" lon="12.032735581374707"><ele>154.5</ele><time>2026-05-02T09:35:03Z</time></trkpt><trkpt lat="44.15433215562113" lon="12.032856632779458"><ele>152.75</ele><time>2026-05-02T09:35:04Z</time></trkpt><trkpt lat="44.15424967078112" lon="12.032973756063306"><ele>151.0</ele><time>2026-05-02T09:35:05Z</time></trkpt><trkpt lat="44.15417046405359" lon="12.033092693665282"><ele>151.0</ele><time>2026-05-02T09:35:06Z</time></trkpt><trkpt lat="44.154105670450875" lon="12.033233486460938"><ele>151.0</ele><time>2026-05-02T09:35:07Z</time></trkpt><trkpt lat="44.154044690997424" lon="12.033357232401537"><ele>151.0</ele><time>2026-05-02T09:35:08Z</time></trkpt><trkpt lat="44.1539781142214" lon="12.033478685065727"><ele>151.0</ele><time>2026-05-02T09:35:09Z</time></trkpt><trkpt lat="44.153927127454104" lon="12.033604356354122"><ele>151.0</ele><time>2026-05-02T09:35:10Z</time></trkpt><trkpt lat="44.153873897770374" lon="12.033723530800724"><ele>148.4</ele><time>2026-05-02T09:35:11Z</time></trkpt><trkpt lat="44.15382344303684" lon="12.033842843025973"><ele>145.8</ele><time>2026-05-02T09:35:12Z</time></trkpt><trkpt lat="44.15377674335804" lon="12.033960180341722"><ele>143.20000000000002</ele><time>2026-05-02T09:35:13Z</time></trkpt><trkpt lat="44.15373030932921" lon="12.03407772298546"><ele>140.6</ele><time>2026-05-02T09:35:14Z</time></trkpt><trkpt lat="44.15368703960158" lon="12.03419600621217"><ele>138.0</ele><time>2026-05-02T09:35:15Z</time></trkpt><trkpt lat="44.15364836812541" lon="12.03430881891381"><ele>138.0</ele><time>2026-05-02T09:35:16Z</time></trkpt><trkpt lat="44.15359537998122" lon="12.034414620655902"><ele>138.0</ele><time>2026-05-02T09:35:17Z</time></trkpt><trkpt lat="44.153558853374534" lon="12.034523236996202"><ele>138.0</ele><time>2026-05-02T09:35:18Z</time></trkpt><trkpt lat="44.15351199233416" lon="12.034627552971886"><ele>138.0</ele><time>2026-05-02T09:35:19Z</time></trkpt><trkpt lat="44.15348335305968" lon="12.034732415747534"><ele>138.0</ele><time>2026-05-02T09:35:20Z</time></trkpt><trkpt lat="44.153437739131995" lon="12.034827041486256"><ele>138.0</ele><time>2026-05-02T09:35:21Z</time></trkpt><trkpt lat="44.15341171971222" lon="12.034927092064626"><ele>138.5</ele><time>2026-05-02T09:35:22Z</time></trkpt><trkpt lat="44.15337578115796" lon="12.035026699181774"><ele>139.0</ele><time>2026-05-02T09:35:23Z</time></trkpt><trkpt lat="44.15334793536601" lon="12.035134194658259"><ele>139.5</ele><time>2026-05-02T09:35:24Z</time></trkpt><trkpt lat="44.15331990274504" lon="12.035228592404737"><ele>140.0</ele><time>2026-05-02T09:35:25Z</time></trkpt><trkpt lat="44.15329292049469" lon="12.035325199496747"><ele>140.5</ele><time>2026-05-02T09:35:26Z</time></trkpt><trkpt lat="44.15326937419391" lon="12.035421135234948"><ele>141.0</ele><time>2026-05-02T09:35:27Z</time></trkpt><trkpt lat="44.15324857701682" lon="12.035513161710668"><ele>141.0</ele><time>2026-05-02T09:35:28Z</time></trkpt><trkpt lat="44.15322676729563" lon="12.035608681072777"><ele>141.0</ele><time>2026-05-02T09:35:29Z</time></trkpt><trkpt lat="44.1532070372269" lon="12.035709903581793"><ele>141.0</ele><time>2026-05-02T09:35:30Z</time></trkpt><trkpt lat="44.15318609884218" lon="12.035808451937221"><ele>141.0</ele><time>2026-05-02T09:35:31Z</time></trkpt><trkpt lat="44.153169785926664" lon="12.03590745539117"><ele>141.0</ele><time>2026-05-02T09:35:32Z</time></trkpt><trkpt lat="44.15314230695409" lon="12.03599915291408"><ele>141.0</ele><time>2026-05-02T09:35:33Z</time></trkpt><trkpt lat="44.15312293100502" lon="12.03609089899695"><ele>141.0</ele><time>2026-05-02T09:35:34Z</time></trkpt><trkpt lat="44.153102039038" lon="12.036180398856095"><ele>139.66666666666666</ele><time>2026-05-02T09:35:35Z</time></trkpt><trkpt lat="44.15308167430167" lon="12.036272236343242"><ele>138.33333333333334</ele><time>2026-05-02T09:35:36Z</time></trkpt><trkpt lat="44.15306141218417" lon="12.036356201720425"><ele>137.0</ele><time>2026-05-02T09:35:37Z</time></trkpt><trkpt lat="44.153026791365825" lon="12.036435307224602"><ele>135.66666666666669</ele><time>2026-05-02T09:35:38Z</time></trkpt><trkpt lat="44.15301990990853" lon="12.03652900966284"><ele>134.33333333333334</ele><time>2026-05-02T09:35:39Z</time></trkpt><trkpt lat="44.152976166987" lon="12.036686523706342"><ele>133.0</ele><time>2026-05-02T09:35:41Z</time></trkpt><trkpt lat="44.15294604000812" lon="12.036836011369573"><ele>133.0</ele><time>2026-05-02T09:35:43Z</time></trkpt><trkpt lat="44.152915658417385" lon="12.036987154059505"><ele>133.0</ele><time>2026-05-02T09:35:45Z</time></trkpt><trkpt lat="44.15289504060447" lon="12.037144354924923"><ele>133.0</ele><time>2026-05-02T09:35:47Z</time></trkpt><trkpt lat="44.15287550359275" lon="12.037302026731167"><ele>133.0</ele><time>2026-05-02T09:35:49Z</time></trkpt><trkpt lat="44.152873471216665" lon="12.037468129807454"><ele>133.33333333333334</ele><time>2026-05-02T09:35:51Z</time></trkpt><trkpt lat="44.15287411718522" lon="12.037638156287775"><ele>133.66666666666669</ele><time>2026-05-02T09:35:53Z</time></trkpt><trkpt lat="44.15286695506714" lon="12.037800588551573"><ele>134.0</ele><time>2026-05-02T09:35:55Z</time></trkpt><trkpt lat="44.15286443638946" lon="12.03788881833407"><ele>134.33333333333334</ele><time>2026-05-02T09:35:56Z</time></trkpt><trkpt lat="44.15286556215432" lon="12.037979715414533"><ele>134.66666666666666</ele><time>2026-05-02T09:35:57Z</time></trkpt><trkpt lat="44.152868114009564" lon="12.038073186343086"><ele>135.0</ele><time>2026-05-02T09:35:58Z</time></trkpt><trkpt lat="44.15286350137396" lon="12.038169538840332"><ele>135.0</ele><time>2026-05-02T09:35:59Z</time></trkpt><trkpt lat="44.15286369152093" lon="12.038262704415983"><ele>135.0</ele><time>2026-05-02T09:36:00Z</time></trkpt><trkpt lat="44.15285914114719" lon="12.03835779863384"><ele>135.0</ele><time>2026-05-02T09:36:01Z</time></trkpt><trkpt lat="44.15285701332188" lon="12.038458893744638"><ele>135.0</ele><time>2026-05-02T09:36:02Z</time></trkpt><trkpt lat="44.15285539720695" lon="12.038559649996463"><ele>135.0</ele><time>2026-05-02T09:36:03Z</time></trkpt><trkpt lat="44.15285566864733" lon="12.038663957051158"><ele>135.0</ele><time>2026-05-02T09:36:04Z</time></trkpt><trkpt lat="44.15285601143237" lon="12.03876340173478"><ele>135.0</ele><time>2026-05-02T09:36:05Z</time></trkpt><trkpt lat="44.15285515453731" lon="12.038869818782198"><ele>134.66666666666666</ele><time>2026-05-02T09:36:06Z</time></trkpt><trkpt lat="44.15285410253158" lon="12.03897119528155"><ele>134.33333333333334</ele><time>2026-05-02T09:36:07Z</time></trkpt><trkpt lat="44.15285175447473" lon="12.039076485058551"><ele>134.0</ele><time>2026-05-02T09:36:08Z</time></trkpt><trkpt lat="44.152854609034044" lon="12.039182925536064"><ele>133.66666666666669</ele><time>2026-05-02T09:36:09Z</time></trkpt><trkpt lat="44.15285157808323" lon="12.03929137847483"><ele>133.33333333333334</ele><time>2026-05-02T09:36:10Z</time></trkpt><trkpt lat="44.15284881763016" lon="12.039399581435406"><ele>133.0</ele><time>2026-05-02T09:36:11Z</time></trkpt><trkpt lat="44.15284778943828" lon="12.039508135236161"><ele>132.5</ele><time>2026-05-02T09:36:12Z</time></trkpt><trkpt lat="44.152844715943715" lon="12.039614575636843"><ele>132.0</ele><time>2026-05-02T09:36:13Z</time></trkpt><trkpt lat="44.152841215616554" lon="12.0397212382358"><ele>131.5</ele><time>2026-05-02T09:36:14Z</time></trkpt><trkpt lat="44.15283895796338" lon="12.039829909389626"><ele>131.0</ele><time>2026-05-02T09:36:15Z</time></trkpt><trkpt lat="44.15283989918817" lon="12.03994653168887"><ele>130.5</ele><time>2026-05-02T09:36:16Z</time></trkpt><trkpt lat="44.152840123472586" lon="12.040062418614477"><ele>130.0</ele><time>2026-05-02T09:36:17Z</time></trkpt><trkpt lat="44.15283657723003" lon="12.040179567772483"><ele>129.66666666666669</ele><time>2026-05-02T09:36:18Z</time></trkpt><trkpt lat="44.152836949489505" lon="12.040297968146872"><ele>129.33333333333334</ele><time>2026-05-02T09:36:19Z</time></trkpt><trkpt lat="44.15283491283046" lon="12.040417432089642"><ele>129.0</ele><time>2026-05-02T09:36:20Z</time></trkpt><trkpt lat="44.15283327593719" lon="12.040539044161662"><ele>128.66666666666666</ele><time>2026-05-02T09:36:21Z</time></trkpt><trkpt lat="44.1528326093529" lon="12.040663632875845"><ele>128.33333333333331</ele><time>2026-05-02T09:36:22Z</time></trkpt><trkpt lat="44.15283460537931" lon="12.04078617451683"><ele>128.0</ele><time>2026-05-02T09:36:23Z</time></trkpt><trkpt lat="44.152839787245405" lon="12.040913557339424"><ele>126.80000000000001</ele><time>2026-05-02T09:36:24Z</time></trkpt><trkpt lat="44.15284545104979" lon="12.041037745175117"><ele>125.60000000000001</ele><time>2026-05-02T09:36:25Z</time></trkpt><trkpt lat="44.15286061987153" lon="12.041167333356926"><ele>124.39999999999999</ele><time>2026-05-02T09:36:26Z</time></trkpt><trkpt lat="44.15287382201177" lon="12.041300980264019"><ele>123.19999999999999</ele><time>2026-05-02T09:36:27Z</time></trkpt><trkpt lat="44.15288373429268" lon="12.041436079205639"><ele>122.0</ele><time>2026-05-02T09:36:28Z</time></trkpt><trkpt lat="44.15289711077281" lon="12.041580617088572"><ele>120.5</ele><time>2026-05-02T09:36:29Z</time></trkpt><trkpt lat="44.15290739141657" lon="12.041730589659412"><ele>119.0</ele><time>2026-05-02T09:36:30Z</time></trkpt><trkpt lat="44.152918603801815" lon="12.041884746869965"><ele>117.5</ele><time>2026-05-02T09:36:31Z</time></trkpt><trkpt lat="44.1529318903149" lon="12.042046595153957"><ele>116.0</ele><time>2026-05-02T09:36:32Z</time></trkpt><trkpt lat="44.15294778052528" lon="12.042209281499968"><ele>116.0</ele><time>2026-05-02T09:36:33Z</time></trkpt><trkpt lat="44.15296476008212" lon="12.04237684775113"><ele>116.0</ele><time>2026-05-02T09:36:34Z</time></trkpt><trkpt lat="44.15297824827307" lon="12.042548147825745"><ele>116.0</ele><time>2026-05-02T09:36:35Z</time></trkpt><trkpt lat="44.15298943444935" lon="12.042718641656688"><ele>116.0</ele><time>2026-05-02T09:36:36Z</time></trkpt><trkpt lat="44.15300891114248" lon="12.042887868131684"><ele>114.5</ele><time>2026-05-02T09:36:37Z</time></trkpt><trkpt lat="44.153018874236366" lon="12.043057480566707"><ele>113.0</ele><time>2026-05-02T09:36:38Z</time></trkpt><trkpt lat="44.153030165340795" lon="12.043222672716938"><ele>111.5</ele><time>2026-05-02T09:36:39Z</time></trkpt><trkpt lat="44.15304040293057" lon="12.043388888089435"><ele>110.0</ele><time>2026-05-02T09:36:40Z</time></trkpt><trkpt lat="44.15305511426862" lon="12.0435465234573"><ele>109.0</ele><time>2026-05-02T09:36:41Z</time></trkpt><trkpt lat="44.153067606697554" lon="12.043701401730141"><ele>108.0</ele><time>2026-05-02T09:36:42Z</time></trkpt><trkpt lat="44.15308172319774" lon="12.043855571722299"><ele>107.0</ele><time>2026-05-02T09:36:43Z</time></trkpt><trkpt lat="44.15309702672689" lon="12.043998454025349"><ele>106.0</ele><time>2026-05-02T09:36:44Z</time></trkpt><trkpt lat="44.15311803889436" lon="12.044138029481163"><ele>105.0</ele><time>2026-05-02T09:36:45Z</time></trkpt><trkpt lat="44.15315730073808" lon="12.044266742284705"><ele>104.6</ele><time>2026-05-02T09:36:46Z</time></trkpt><trkpt lat="44.1531927439206" lon="12.04439434796683"><ele>104.2</ele><time>2026-05-02T09:36:47Z</time></trkpt><trkpt lat="44.15322896078676" lon="12.044514545040931"><ele>103.80000000000001</ele><time>2026-05-02T09:36:48Z</time></trkpt><trkpt lat="44.15328185443344" lon="12.044622392339981"><ele>103.4</ele><time>2026-05-02T09:36:49Z</time></trkpt><trkpt lat="44.153342242927216" lon="12.044721020925643"><ele>103.0</ele><time>2026-05-02T09:36:49.999Z</time></trkpt><trkpt lat="44.153392377869274" lon="12.044816592974218"><ele>102.83333333333334</ele><time>2026-05-02T09:36:50.999Z</time></trkpt><trkpt lat="44.15345112924445" lon="12.044913098338645"><ele>102.66666666666667</ele><time>2026-05-02T09:36:51.999Z</time></trkpt><trkpt lat="44.153503767247074" lon="12.045010532153874"><ele>102.5</ele><time>2026-05-02T09:36:53Z</time></trkpt><trkpt lat="44.1535561905841" lon="12.045109738930705"><ele>102.33333333333334</ele><time>2026-05-02T09:36:54Z</time></trkpt><trkpt lat="44.1536152702257" lon="12.045202453729486"><ele>102.16666666666667</ele><time>2026-05-02T09:36:55Z</time></trkpt><trkpt lat="44.15367296631453" lon="12.045288205798931"><ele>102.0</ele><time>2026-05-02T09:36:56Z</time></trkpt><trkpt lat="44.153728816627606" lon="12.045370571443636"><ele>101.83333333333333</ele><time>2026-05-02T09:36:57Z</time></trkpt><trkpt lat="44.153781512363466" lon="12.045455204197129"><ele>101.66666666666666</ele><time>2026-05-02T09:36:58Z</time></trkpt><trkpt lat="44.15383948365928" lon="12.045541653872709"><ele>101.5</ele><time>2026-05-02T09:36:59Z</time></trkpt><trkpt lat="44.153901311509806" lon="12.045621672446023"><ele>101.33333333333333</ele><time>2026-05-02T09:37:00Z</time></trkpt><trkpt lat="44.15395867832374" lon="12.045696424846682"><ele>101.16666666666666</ele><time>2026-05-02T09:37:01Z</time></trkpt><trkpt lat="44.15401095367942" lon="12.045795828825208"><ele>101.0</ele><time>2026-05-02T09:37:02Z</time></trkpt><trkpt lat="44.15407230516793" lon="12.045847543381743"><ele>100.42857142857143</ele><time>2026-05-02T09:37:03Z</time></trkpt><trkpt lat="44.15411505894668" lon="12.04593635275729"><ele>99.85714285714286</ele><time>2026-05-02T09:37:04Z</time></trkpt><trkpt lat="44.15416301193092" lon="12.04600041462314"><ele>99.28571428571428</ele><time>2026-05-02T09:37:05Z</time></trkpt><trkpt lat="44.154230922978286" lon="12.04605825112841"><ele>98.71428571428572</ele><time>2026-05-02T09:37:06Z</time></trkpt><trkpt lat="44.15428117727426" lon="12.046119548975849"><ele>98.14285714285715</ele><time>2026-05-02T09:37:07Z</time></trkpt><trkpt lat="44.15433430662393" lon="12.046183344509542"><ele>97.57142857142857</ele><time>2026-05-02T09:37:08Z</time></trkpt><trkpt lat="44.15439198349659" lon="12.046257731040917"><ele>97.0</ele><time>2026-05-02T09:37:09Z</time></trkpt><trkpt lat="44.1544475589592" lon="12.046325415456273"><ele>97.00000000000001</ele><time>2026-05-02T09:37:10Z</time></trkpt><trkpt lat="44.154504843218824" lon="12.0463913077814"><ele>97.0</ele><time>2026-05-02T09:37:11Z</time></trkpt><trkpt lat="44.15456106661381" lon="12.046451000420612"><ele>97.0</ele><time>2026-05-02T09:37:12Z</time></trkpt><trkpt lat="44.15461447040265" lon="12.046511527574923"><ele>97.0</ele><time>2026-05-02T09:37:13Z</time></trkpt><trkpt lat="44.15470355313431" lon="12.046641462476883"><ele>97.00000000000001</ele><time>2026-05-02T09:37:15Z</time></trkpt><trkpt lat="44.15474644609906" lon="12.046709436543088"><ele>97.0</ele><time>2026-05-02T09:37:16Z</time></trkpt><trkpt lat="44.15476371956136" lon="12.04680207116509"><ele>96.83333333333334</ele><time>2026-05-02T09:37:17Z</time></trkpt><trkpt lat="44.15478997695374" lon="12.046892876690128"><ele>96.66666666666667</ele><time>2026-05-02T09:37:18Z</time></trkpt><trkpt lat="44.1548092452759" lon="12.046989088818654"><ele>96.5</ele><time>2026-05-02T09:37:19Z</time></trkpt><trkpt lat="44.15483772264274" lon="12.04715848352353"><ele>96.33333333333334</ele><time>2026-05-02T09:37:21Z</time></trkpt><trkpt lat="44.15485218833192" lon="12.047248570365399"><ele>96.16666666666667</ele><time>2026-05-02T09:37:22Z</time></trkpt><trkpt lat="44.154866078694695" lon="12.047335074150489"><ele>96.0</ele><time>2026-05-02T09:37:23Z</time></trkpt><trkpt lat="44.15490749390221" lon="12.047496823942058"><ele>95.25</ele><time>2026-05-02T09:37:25Z</time></trkpt><trkpt lat="44.15493058728396" lon="12.047665322781167"><ele>94.5</ele><time>2026-05-02T09:37:27Z</time></trkpt><trkpt lat="44.15495556616729" lon="12.047817130383178"><ele>93.75</ele><time>2026-05-02T09:37:29Z</time></trkpt><trkpt lat="44.15498169360192" lon="12.047976282951007"><ele>93.0</ele><time>2026-05-02T09:37:31Z</time></trkpt><trkpt lat="44.15500770097998" lon="12.048137953523838"><ele>92.80000000000001</ele><time>2026-05-02T09:37:33Z</time></trkpt><trkpt lat="44.1550313845501" lon="12.04829406187681"><ele>92.6</ele><time>2026-05-02T09:37:35Z</time></trkpt><trkpt lat="44.155049804331064" lon="12.048435514598046"><ele>92.4</ele><time>2026-05-02T09:37:37Z</time></trkpt><trkpt lat="44.155080544717144" lon="12.048577897644558"><ele>92.19999999999999</ele><time>2026-05-02T09:37:39Z</time></trkpt><trkpt lat="44.1551013584945" lon="12.048730658181386"><ele>92.0</ele><time>2026-05-02T09:37:41Z</time></trkpt><trkpt lat="44.155125968743974" lon="12.048904068453384"><ele>92.0</ele><time>2026-05-02T09:37:43Z</time></trkpt><trkpt lat="44.155139159649785" lon="12.048992386839554"><ele>92.0</ele><time>2026-05-02T09:37:44Z</time></trkpt><trkpt lat="44.15515111901616" lon="12.049084698908832"><ele>92.0</ele><time>2026-05-02T09:37:45Z</time></trkpt><trkpt lat="44.155165479396096" lon="12.049174754766721"><ele>92.0</ele><time>2026-05-02T09:37:46Z</time></trkpt><trkpt lat="44.1552029998624" lon="12.04934945540214"><ele>92.0</ele><time>2026-05-02T09:37:48Z</time></trkpt><trkpt lat="44.15521863452106" lon="12.04943781287942"><ele>92.0</ele><time>2026-05-02T09:37:49Z</time></trkpt><trkpt lat="44.155249467039354" lon="12.049600396990279"><ele>92.19999999999999</ele><time>2026-05-02T09:37:51Z</time></trkpt><trkpt lat="44.15526612004028" lon="12.049742816890781"><ele>92.4</ele><time>2026-05-02T09:37:53Z</time></trkpt><trkpt lat="44.15524326204562" lon="12.049855044117205"><ele>92.6</ele><time>2026-05-02T09:37:56Z</time></trkpt><trkpt lat="44.15514397600175" lon="12.049832428064446"><ele>92.80000000000001</ele><time>2026-05-02T09:37:58Z</time></trkpt><trkpt lat="44.155059709899575" lon="12.049814862302398"><ele>93.0</ele><time>2026-05-02T09:38:00Z</time></trkpt><trkpt lat="44.15497181924947" lon="12.049793909305446"><ele>93.0</ele><time>2026-05-02T09:38:02Z</time></trkpt><trkpt lat="44.15488664905825" lon="12.049778494096568"><ele>93.0</ele><time>2026-05-02T09:38:04Z</time></trkpt><trkpt lat="44.15479971094751" lon="12.0497559974239"><ele>93.0</ele><time>2026-05-02T09:38:06Z</time></trkpt><trkpt lat="44.15470908138867" lon="12.049734469721674"><ele>93.0</ele><time>2026-05-02T09:38:08Z</time></trkpt><trkpt lat="44.15461940461524" lon="12.04969981120756"><ele>93.0</ele><time>2026-05-02T09:38:10Z</time></trkpt><trkpt lat="44.154535827833385" lon="12.049682192095437"><ele>93.0</ele><time>2026-05-02T09:38:12Z</time></trkpt><trkpt lat="44.15445785901282" lon="12.049662339606117"><ele>92.66666666666667</ele><time>2026-05-02T09:38:14Z</time></trkpt><trkpt lat="44.15438972447027" lon="12.049645973331984"><ele>92.33333333333333</ele><time>2026-05-02T09:38:16Z</time></trkpt><trkpt lat="44.15431753718104" lon="12.049633819227616"><ele>92.0</ele><time>2026-05-02T09:38:18Z</time></trkpt><trkpt lat="44.154239053164666" lon="12.049615717317117"><ele>91.66666666666666</ele><time>2026-05-02T09:38:20Z</time></trkpt><trkpt lat="44.1541610430821" lon="12.04959713309868"><ele>91.33333333333333</ele><time>2026-05-02T09:38:22Z</time></trkpt><trkpt lat="44.15408607638301" lon="12.049583414025317"><ele>91.0</ele><time>2026-05-02T09:38:24Z</time></trkpt><trkpt lat="44.15400623012039" lon="12.049556212573307"><ele>90.66666666666666</ele><time>2026-05-02T09:38:26Z</time></trkpt><trkpt lat="44.153926123416554" lon="12.049539607985428"><ele>90.33333333333333</ele><time>2026-05-02T09:38:28Z</time></trkpt><trkpt lat="44.153846152316255" lon="12.04951495169334"><ele>90.0</ele><time>2026-05-02T09:38:30Z</time></trkpt><trkpt lat="44.15376517912066" lon="12.04947969119433"><ele>89.66666666666667</ele><time>2026-05-02T09:38:32Z</time></trkpt><trkpt lat="44.15368058380265" lon="12.049457756166746"><ele>89.33333333333334</ele><time>2026-05-02T09:38:34Z</time></trkpt><trkpt lat="44.15359554703217" lon="12.049435706662512"><ele>89.0</ele><time>2026-05-02T09:38:36Z</time></trkpt><trkpt lat="44.153512708759266" lon="12.049414227216337"><ele>89.0</ele><time>2026-05-02T09:38:38Z</time></trkpt><trkpt lat="44.153436055015334" lon="12.04939435139238"><ele>89.0</ele><time>2026-05-02T09:38:40Z</time></trkpt><trkpt lat="44.15335951491987" lon="12.049374505031535"><ele>89.0</ele><time>2026-05-02T09:38:42Z</time></trkpt><trkpt lat="44.153284021927846" lon="12.049356518027471"><ele>89.0</ele><time>2026-05-02T09:38:44Z</time></trkpt><trkpt lat="44.15321009703154" lon="12.04933916139847"><ele>89.0</ele><time>2026-05-02T09:38:45.999Z</time></trkpt><trkpt lat="44.15313697100861" lon="12.04932199233995"><ele>89.0</ele><time>2026-05-02T09:38:47.999Z</time></trkpt><trkpt lat="44.153062766825165" lon="12.049304570133156"><ele>88.4</ele><time>2026-05-02T09:38:49.999Z</time></trkpt><trkpt lat="44.152931936421744" lon="12.049427481147697"><ele>87.80000000000001</ele><time>2026-05-02T09:38:52.999Z</time></trkpt><trkpt lat="44.152912599963685" lon="12.049519618916344"><ele>87.19999999999999</ele><time>2026-05-02T09:38:54.999Z</time></trkpt><trkpt lat="44.15289320083677" lon="12.049612054397763"><ele>86.6</ele><time>2026-05-02T09:38:56.999Z</time></trkpt><trkpt lat="44.15290543270289" lon="12.04972853612114"><ele>86.0</ele><time>2026-05-02T09:38:59Z</time></trkpt><trkpt lat="44.15288196576841" lon="12.049840712643427"><ele>86.0</ele><time>2026-05-02T09:39:01Z</time></trkpt><trkpt lat="44.152792559674765" lon="12.049935575726531"><ele>86.0</ele><time>2026-05-02T09:39:03Z</time></trkpt><trkpt lat="44.152724105063974" lon="12.050044687231683"><ele>86.0</ele><time>2026-05-02T09:39:05Z</time></trkpt><trkpt lat="44.15266182048668" lon="12.0501061189377"><ele>86.0</ele><time>2026-05-02T09:39:06Z</time></trkpt><trkpt lat="44.15259009627898" lon="12.050146742881633"><ele>86.0</ele><time>2026-05-02T09:39:07Z</time></trkpt><trkpt lat="44.15250844111621" lon="12.050176757264008"><ele>85.0</ele><time>2026-05-02T09:39:08Z</time></trkpt><trkpt lat="44.15240971834886" lon="12.050182252441127"><ele>84.0</ele><time>2026-05-02T09:39:09Z</time></trkpt><trkpt lat="44.1522944357547" lon="12.050186871478276"><ele>83.0</ele><time>2026-05-02T09:39:10Z</time></trkpt><trkpt lat="44.15216997266538" lon="12.05021157941226"><ele>82.0</ele><time>2026-05-02T09:39:11Z</time></trkpt><trkpt lat="44.152037558691646" lon="12.050203256466585"><ele>78.75</ele><time>2026-05-02T09:39:12Z</time></trkpt><trkpt lat="44.151897815386576" lon="12.050208748653883"><ele>75.5</ele><time>2026-05-02T09:39:13Z</time></trkpt><trkpt lat="44.151759471933275" lon="12.050202754141022"><ele>72.25</ele><time>2026-05-02T09:39:14Z</time></trkpt><trkpt lat="44.151623755875235" lon="12.050195022648245"><ele>69.0</ele><time>2026-05-02T09:39:15Z</time></trkpt><trkpt lat="44.151492878237704" lon="12.050192909818643"><ele>68.5</ele><time>2026-05-02T09:39:16Z</time></trkpt><trkpt lat="44.15136590010048" lon="12.050182588430397"><ele>68.0</ele><time>2026-05-02T09:39:17Z</time></trkpt><trkpt lat="44.15124552571636" lon="12.050175748092157"><ele>67.5</ele><time>2026-05-02T09:39:18Z</time></trkpt><trkpt lat="44.15112786566154" lon="12.05017086552337"><ele>67.0</ele><time>2026-05-02T09:39:19Z</time></trkpt><trkpt lat="44.15101686952683" lon="12.050168680487877"><ele>67.0</ele><time>2026-05-02T09:39:20Z</time></trkpt><trkpt lat="44.150918853680444" lon="12.050164841307591"><ele>67.0</ele><time>2026-05-02T09:39:21Z</time></trkpt><trkpt lat="44.150816891829336" lon="12.050170249552464"><ele>67.0</ele><time>2026-05-02T09:39:22Z</time></trkpt><trkpt lat="44.15071985116932" lon="12.05017707412338"><ele>67.0</ele><time>2026-05-02T09:39:23Z</time></trkpt><trkpt lat="44.150627858156334" lon="12.050185100987846"><ele>67.0</ele><time>2026-05-02T09:39:24Z</time></trkpt><trkpt lat="44.150538298414865" lon="12.050208213095667"><ele>68.5</ele><time>2026-05-02T09:39:25Z</time></trkpt><trkpt lat="44.15045368683021" lon="12.050228013985059"><ele>70.0</ele><time>2026-05-02T09:39:26Z</time></trkpt><trkpt lat="44.15037051239418" lon="12.050239468544042"><ele>71.5</ele><time>2026-05-02T09:39:27Z</time></trkpt><trkpt lat="44.1503019733582" lon="12.050267696967454"><ele>73.0</ele><time>2026-05-02T09:39:28Z</time></trkpt><trkpt lat="44.150215714430914" lon="12.050235616910852"><ele>74.5</ele><time>2026-05-02T09:39:30Z</time></trkpt><trkpt lat="44.15014891710715" lon="12.050194032484692"><ele>76.0</ele><time>2026-05-02T09:39:34Z</time></trkpt><trkpt lat="44.15008542632216" lon="12.05014326447006"><ele>76.0</ele><time>2026-05-02T09:39:39Z</time></trkpt><trkpt lat="44.15002864416839" lon="12.050098043421386"><ele>76.0</ele><time>2026-05-02T09:39:44Z</time></trkpt><trkpt lat="44.14996692984347" lon="12.050047839964952"><ele>76.0</ele><time>2026-05-02T09:39:49Z</time></trkpt><trkpt lat="44.1499055002544" lon="12.049986812528882"><ele>76.0</ele><time>2026-05-02T09:39:54Z</time></trkpt><trkpt lat="44.14985441470953" lon="12.04991218733335"><ele>76.0</ele><time>2026-05-02T09:39:59Z</time></trkpt><trkpt lat="44.14979963630241" lon="12.049854241271511"><ele>76.0</ele><time>2026-05-02T09:40:04Z</time></trkpt><trkpt lat="44.14973021109082" lon="12.049826581559655"><ele>76.0</ele><time>2026-05-02T09:40:09Z</time></trkpt><trkpt lat="44.14966852299841" lon="12.049764701547161"><ele>77.14285714285714</ele><time>2026-05-02T09:40:15Z</time></trkpt><trkpt lat="44.149620829341984" lon="12.049688898216534"><ele>78.28571428571429</ele><time>2026-05-02T09:40:20Z</time></trkpt><trkpt lat="44.149588517487494" lon="12.049602207656017"><ele>79.42857142857143</ele><time>2026-05-02T09:40:25Z</time></trkpt><trkpt lat="44.14953977658635" lon="12.049538888335332"><ele>80.57142857142857</ele><time>2026-05-02T09:40:30Z</time></trkpt><trkpt lat="44.14950085718941" lon="12.049458170277424"><ele>81.71428571428572</ele><time>2026-05-02T09:40:34Z</time></trkpt><trkpt lat="44.1494608838351" lon="12.049374003576473"><ele>82.85714285714286</ele><time>2026-05-02T09:40:38Z</time></trkpt><trkpt lat="44.14941429317656" lon="12.049286488799996"><ele>84.0</ele><time>2026-05-02T09:40:42Z</time></trkpt><trkpt lat="44.14936863728582" lon="12.049192739182208"><ele>84.28571428571429</ele><time>2026-05-02T09:40:46Z</time></trkpt><trkpt lat="44.149330665413885" lon="12.049118598100033"><ele>84.57142857142857</ele><time>2026-05-02T09:40:49Z</time></trkpt><trkpt lat="44.14928218209093" lon="12.049052106860124"><ele>84.85714285714286</ele><time>2026-05-02T09:40:52Z</time></trkpt><trkpt lat="44.149241972642386" lon="12.048972998864192"><ele>85.14285714285714</ele><time>2026-05-02T09:40:55Z</time></trkpt><trkpt lat="44.14917736751864" lon="12.048953278216972"><ele>85.42857142857143</ele><time>2026-05-02T09:40:58Z</time></trkpt><trkpt lat="44.14913070143457" lon="12.049012578229258"><ele>85.71428571428572</ele><time>2026-05-02T09:41:01Z</time></trkpt><trkpt lat="44.14908428837981" lon="12.04909826521958"><ele>86.0</ele><time>2026-05-02T09:41:04Z</time></trkpt><trkpt lat="44.14900984403399" lon="12.049170702146133"><ele>86.83333333333334</ele><time>2026-05-02T09:41:07Z</time></trkpt><trkpt lat="44.148945356308154" lon="12.04925856436591"><ele>87.66666666666667</ele><time>2026-05-02T09:41:10Z</time></trkpt><trkpt lat="44.14888051254262" lon="12.049349603192104"><ele>88.5</ele><time>2026-05-02T09:41:13Z</time></trkpt><trkpt lat="44.14883138074415" lon="12.049418278620866"><ele>89.33333333333333</ele><time>2026-05-02T09:41:15Z</time></trkpt><trkpt lat="44.14878171568029" lon="12.049495961270006"><ele>90.16666666666666</ele><time>2026-05-02T09:41:17Z</time></trkpt><trkpt lat="44.14873759383371" lon="12.049567885935456"><ele>91.0</ele><time>2026-05-02T09:41:19Z</time></trkpt><trkpt lat="44.148675370422445" lon="12.049629555954924"><ele>91.0</ele><time>2026-05-02T09:41:22Z</time></trkpt><trkpt lat="44.14862225473294" lon="12.04971547362241"><ele>91.0</ele><time>2026-05-02T09:41:25Z</time></trkpt><trkpt lat="44.14856809963192" lon="12.049786424586442"><ele>91.0</ele><time>2026-05-02T09:41:28Z</time></trkpt><trkpt lat="44.14851099985845" lon="12.049860076724496"><ele>91.0</ele><time>2026-05-02T09:41:31Z</time></trkpt><trkpt lat="44.14845347639886" lon="12.04994038439666"><ele>91.0</ele><time>2026-05-02T09:41:34Z</time></trkpt><trkpt lat="44.14840288200287" lon="12.050003031366682"><ele>91.0</ele><time>2026-05-02T09:41:36Z</time></trkpt><trkpt lat="44.14835173779653" lon="12.050068866981308"><ele>90.5</ele><time>2026-05-02T09:41:38Z</time></trkpt><trkpt lat="44.14830433654535" lon="12.050127178207921"><ele>90.0</ele><time>2026-05-02T09:41:40Z</time></trkpt><trkpt lat="44.14824204368071" lon="12.050217751274573"><ele>89.5</ele><time>2026-05-02T09:41:43Z</time></trkpt><trkpt lat="44.148172644960255" lon="12.050308225425042"><ele>89.0</ele><time>2026-05-02T09:41:46Z</time></trkpt><trkpt lat="44.14811445362513" lon="12.05039714636181"><ele>88.5</ele><time>2026-05-02T09:41:49Z</time></trkpt><trkpt lat="44.148047773721835" lon="12.050484249629566"><ele>88.0</ele><time>2026-05-02T09:41:52Z</time></trkpt><trkpt lat="44.14799157101573" lon="12.050564133449289"><ele>88.0</ele><time>2026-05-02T09:41:54Z</time></trkpt><trkpt lat="44.14793091504435" lon="12.050650485965045"><ele>88.0</ele><time>2026-05-02T09:41:56Z</time></trkpt><trkpt lat="44.147866840692636" lon="12.050731990428318"><ele>88.0</ele><time>2026-05-02T09:41:58Z</time></trkpt><trkpt lat="44.14779603239146" lon="12.050826236941528"><ele>88.0</ele><time>2026-05-02T09:42:00Z</time></trkpt><trkpt lat="44.14772811314916" lon="12.050918569455202"><ele>88.0</ele><time>2026-05-02T09:42:02Z</time></trkpt><trkpt lat="44.1476627531674" lon="12.051014214176812"><ele>87.66666666666666</ele><time>2026-05-02T09:42:04Z</time></trkpt><trkpt lat="44.1475933714111" lon="12.051096268255595"><ele>87.33333333333333</ele><time>2026-05-02T09:42:06Z</time></trkpt><trkpt lat="44.14753714303554" lon="12.051178907154116"><ele>87.0</ele><time>2026-05-02T09:42:08Z</time></trkpt><trkpt lat="44.147479003896954" lon="12.051267269994142"><ele>86.66666666666667</ele><time>2026-05-02T09:42:10Z</time></trkpt><trkpt lat="44.147424247132214" lon="12.051344199475786"><ele>86.33333333333334</ele><time>2026-05-02T09:42:12Z</time></trkpt><trkpt lat="44.14736799388298" lon="12.05140903981486"><ele>86.0</ele><time>2026-05-02T09:42:14Z</time></trkpt><trkpt lat="44.147317415097966" lon="12.051477541435904"><ele>86.0</ele><time>2026-05-02T09:42:16Z</time></trkpt><trkpt lat="44.147236109994346" lon="12.051518576509896"><ele>86.0</ele><time>2026-05-02T09:42:18Z</time></trkpt><trkpt lat="44.14718016656002" lon="12.051596273909789"><ele>86.0</ele><time>2026-05-02T09:42:20Z</time></trkpt><trkpt lat="44.147132266636184" lon="12.051690375605366"><ele>86.0</ele><time>2026-05-02T09:42:22Z</time></trkpt><trkpt lat="44.14706496086909" lon="12.051758956864182"><ele>86.0</ele><time>2026-05-02T09:42:24Z</time></trkpt><trkpt lat="44.14700376222197" lon="12.051845376016734"><ele>86.0</ele><time>2026-05-02T09:42:26Z</time></trkpt><trkpt lat="44.146960681953814" lon="12.05193437994425"><ele>85.5</ele><time>2026-05-02T09:42:28Z</time></trkpt><trkpt lat="44.146901194446464" lon="12.051990212832305"><ele>85.0</ele><time>2026-05-02T09:42:30Z</time></trkpt><trkpt lat="44.146852280319195" lon="12.052057430304126"><ele>84.5</ele><time>2026-05-02T09:42:32Z</time></trkpt><trkpt lat="44.14678870009667" lon="12.052141029255454"><ele>84.0</ele><time>2026-05-02T09:42:35Z</time></trkpt><trkpt lat="44.14674759474997" lon="12.052210487139769"><ele>83.5</ele><time>2026-05-02T09:42:37Z</time></trkpt><trkpt lat="44.14668255896273" lon="12.052252171087863"><ele>83.0</ele><time>2026-05-02T09:42:40Z</time></trkpt><trkpt lat="44.14660513251477" lon="12.052324696415587"><ele>83.16666666666667</ele><time>2026-05-02T09:42:43Z</time></trkpt><trkpt lat="44.14654054103601" lon="12.052398162818497"><ele>83.33333333333334</ele><time>2026-05-02T09:42:46Z</time></trkpt><trkpt lat="44.146489802299484" lon="12.052493102355287"><ele>83.5</ele><time>2026-05-02T09:42:49Z</time></trkpt><trkpt lat="44.14648285083045" lon="12.052587690065359"><ele>83.66666666666667</ele><time>2026-05-02T09:42:51Z</time></trkpt><trkpt lat="44.14649273070515" lon="12.052686802805123"><ele>83.83333333333333</ele><time>2026-05-02T09:42:53Z</time></trkpt><trkpt lat="44.14652104280746" lon="12.052784292538188"><ele>84.0</ele><time>2026-05-02T09:42:55Z</time></trkpt><trkpt lat="44.146410798125935" lon="12.052838888654712"><ele>83.33333333333333</ele><time>2026-05-02T09:43:00Z</time></trkpt><trkpt lat="44.14633946001707" lon="12.052858619507953"><ele>82.66666666666667</ele><time>2026-05-02T09:43:02Z</time></trkpt><trkpt lat="44.146267593937566" lon="12.052861161199534"><ele>82.0</ele><time>2026-05-02T09:43:04Z</time></trkpt><trkpt lat="44.146186051060965" lon="12.05288379415829"><ele>81.33333333333334</ele><time>2026-05-02T09:43:06Z</time></trkpt><trkpt lat="44.14611639363376" lon="12.052917298867948"><ele>80.66666666666667</ele><time>2026-05-02T09:43:08Z</time></trkpt><trkpt lat="44.146001559644205" lon="12.05297877437556"><ele>80.0</ele><time>2026-05-02T09:43:09Z</time></trkpt><trkpt lat="44.14593843319323" lon="12.053060892347878"><ele>80.0</ele><time>2026-05-02T09:43:10Z</time></trkpt><trkpt lat="44.14588870182853" lon="12.053143381339753"><ele>80.0</ele><time>2026-05-02T09:43:11Z</time></trkpt><trkpt lat="44.1458440212481" lon="12.053224067320697"><ele>80.0</ele><time>2026-05-02T09:43:12Z</time></trkpt><trkpt lat="44.14581202265212" lon="12.053305569518148"><ele>80.0</ele><time>2026-05-02T09:43:13Z</time></trkpt><trkpt lat="44.145773484049755" lon="12.053383278379682"><ele>80.0</ele><time>2026-05-02T09:43:14Z</time></trkpt><trkpt lat="44.14569251820323" lon="12.05349672234175"><ele>80.0</ele><time>2026-05-02T09:43:16Z</time></trkpt><trkpt lat="44.145643042986876" lon="12.053580316425794"><ele>81.28571428571428</ele><time>2026-05-02T09:43:18Z</time></trkpt><trkpt lat="44.145594656278554" lon="12.05365154677567"><ele>82.57142857142857</ele><time>2026-05-02T09:43:20Z</time></trkpt><trkpt lat="44.145548098638216" lon="12.053718884005598"><ele>83.85714285714286</ele><time>2026-05-02T09:43:23Z</time></trkpt><trkpt lat="44.145501655756966" lon="12.053782500906715"><ele>85.14285714285714</ele><time>2026-05-02T09:43:26Z</time></trkpt><trkpt lat="44.14545198291409" lon="12.053837633470167"><ele>86.42857142857143</ele><time>2026-05-02T09:43:30Z</time></trkpt><trkpt lat="44.14539014655416" lon="12.0538765114355"><ele>87.71428571428571</ele><time>2026-05-02T09:43:35Z</time></trkpt><trkpt lat="44.1453394227216" lon="12.053928605757116"><ele>89.0</ele><time>2026-05-02T09:43:40Z</time></trkpt><trkpt lat="44.14527228720749" lon="12.053934281219085"><ele>88.99999999999999</ele><time>2026-05-02T09:43:46Z</time></trkpt><trkpt lat="44.14520729538236" lon="12.053953660330281"><ele>89.0</ele><time>2026-05-02T09:43:52Z</time></trkpt><trkpt lat="44.14514404351492" lon="12.053956756322293"><ele>89.0</ele><time>2026-05-02T09:43:58Z</time></trkpt><trkpt lat="44.14507384172244" lon="12.053950617997403"><ele>89.0</ele><time>2026-05-02T09:44:04Z</time></trkpt><trkpt lat="44.1450042163328" lon="12.053966987389408"><ele>89.0</ele><time>2026-05-02T09:44:11Z</time></trkpt><trkpt lat="44.14492647549368" lon="12.053970787789126"><ele>88.99999999999999</ele><time>2026-05-02T09:44:19Z</time></trkpt><trkpt lat="44.14486265429867" lon="12.05400529944056"><ele>89.0</ele><time>2026-05-02T09:44:25Z</time></trkpt><trkpt lat="44.144800436058176" lon="12.054038882074572"><ele>88.99999999999999</ele><time>2026-05-02T09:44:31Z</time></trkpt><trkpt lat="44.144736527431796" lon="12.054050074771869"><ele>89.0</ele><time>2026-05-02T09:44:35Z</time></trkpt><trkpt lat="44.144640639473806" lon="12.05403423138403"><ele>89.0</ele><time>2026-05-02T09:44:41Z</time></trkpt><trkpt lat="44.14465729614737" lon="12.054121514029694"><ele>89.0</ele><time>2026-05-02T09:44:45Z</time></trkpt><trkpt lat="44.144671096826364" lon="12.05420938488707"><ele>89.0</ele><time>2026-05-02T09:44:48Z</time></trkpt><trkpt lat="44.14468353031393" lon="12.05431244704243"><ele>88.99999999999999</ele><time>2026-05-02T09:44:52Z</time></trkpt><trkpt lat="44.14472309635115" lon="12.054398557051666"><ele>89.0</ele><time>2026-05-02T09:44:57Z</time></trkpt><trkpt lat="44.14472915081824" lon="12.054499443205321"><ele>88.5</ele><time>2026-05-02T09:45:02Z</time></trkpt><trkpt lat="44.14465140513185" lon="12.054496042539649"><ele>88.0</ele><time>2026-05-02T09:45:06Z</time></trkpt><trkpt lat="44.14457449809193" lon="12.05453282471437"><ele>87.5</ele><time>2026-05-02T09:45:11Z</time></trkpt><trkpt lat="44.14450215138668" lon="12.054551227039708"><ele>87.0</ele><time>2026-05-02T09:45:14Z</time></trkpt><trkpt lat="44.144431571590786" lon="12.05456358155591"><ele>86.5</ele><time>2026-05-02T09:45:16Z</time></trkpt><trkpt lat="44.14437483025925" lon="12.054607547702025"><ele>86.0</ele><time>2026-05-02T09:45:18Z</time></trkpt><trkpt lat="44.14433003079753" lon="12.054701386793607"><ele>86.0</ele><time>2026-05-02T09:45:20Z</time></trkpt><trkpt lat="44.144361321244254" lon="12.054801229939422"><ele>86.0</ele><time>2026-05-02T09:45:21Z</time></trkpt><trkpt lat="44.144444024594016" lon="12.054828923997992"><ele>86.0</ele><time>2026-05-02T09:45:22Z</time></trkpt><trkpt lat="44.144536731658896" lon="12.054917401717413"><ele>86.0</ele><time>2026-05-02T09:45:24Z</time></trkpt><trkpt lat="44.14460568386838" lon="12.054950461268824"><ele>86.0</ele><time>2026-05-02T09:45:26Z</time></trkpt><trkpt lat="44.14466180779892" lon="12.055014456345997"><ele>86.0</ele><time>2026-05-02T09:45:29Z</time></trkpt><trkpt lat="44.144577448116955" lon="12.055194528667656"><ele>84.66666666666667</ele><time>2026-05-02T09:45:30Z</time></trkpt><trkpt lat="44.14456864155061" lon="12.055282936308197"><ele>83.33333333333334</ele><time>2026-05-02T09:45:31Z</time></trkpt><trkpt lat="44.14455683758702" lon="12.055375568603614"><ele>82.0</ele><time>2026-05-02T09:45:32Z</time></trkpt><trkpt lat="44.144542372191424" lon="12.055465076378223"><ele>80.66666666666667</ele><time>2026-05-02T09:45:33Z</time></trkpt><trkpt lat="44.14450707408174" lon="12.055616246212407"><ele>79.33333333333333</ele><time>2026-05-02T09:45:35Z</time></trkpt><trkpt lat="44.14448932488241" lon="12.05575424487291"><ele>78.0</ele><time>2026-05-02T09:45:37Z</time></trkpt><trkpt lat="44.144460121171" lon="12.055853954273807"><ele>78.0</ele><time>2026-05-02T09:45:39Z</time></trkpt><trkpt lat="44.14442022728401" lon="12.055928597091299"><ele>78.0</ele><time>2026-05-02T09:45:43Z</time></trkpt><trkpt lat="44.14438908111413" lon="12.056019143647058"><ele>78.0</ele><time>2026-05-02T09:45:48Z</time></trkpt><trkpt lat="44.1443670100925" lon="12.056105164629429"><ele>78.0</ele><time>2026-05-02T09:45:53Z</time></trkpt><trkpt lat="44.144325281742134" lon="12.056177523545186"><ele>78.0</ele><time>2026-05-02T09:45:59Z</time></trkpt><trkpt lat="44.144279490851716" lon="12.05624402178631"><ele>78.0</ele><time>2026-05-02T09:46:05Z</time></trkpt><trkpt lat="44.14425253961754" lon="12.056336092349836"><ele>78.0</ele><time>2026-05-02T09:46:11Z</time></trkpt><trkpt lat="44.14424995081964" lon="12.056424159155934"><ele>78.0</ele><time>2026-05-02T09:46:16Z</time></trkpt><trkpt lat="44.14426222854402" lon="12.056510436076312"><ele>78.0</ele><time>2026-05-02T09:46:21Z</time></trkpt><trkpt lat="44.14428006130383" lon="12.056599434567515"><ele>78.0</ele><time>2026-05-02T09:46:26Z</time></trkpt><trkpt lat="44.1443273015512" lon="12.056662770247428"><ele>78.0</ele><time>2026-05-02T09:46:29Z</time></trkpt><trkpt lat="44.14439214285611" lon="12.056709522767783"><ele>78.0</ele><time>2026-05-02T09:46:32Z</time></trkpt><trkpt lat="44.14444837138382" lon="12.05675690620462"><ele>78.0</ele><time>2026-05-02T09:46:35Z</time></trkpt><trkpt lat="44.144508068342645" lon="12.05681210767176"><ele>78.0</ele><time>2026-05-02T09:46:38Z</time></trkpt><trkpt lat="44.144556897582746" lon="12.056908707918796"><ele>78.66666666666667</ele><time>2026-05-02T09:46:41Z</time></trkpt><trkpt lat="44.144565929576665" lon="12.057012666813883"><ele>79.33333333333333</ele><time>2026-05-02T09:46:43Z</time></trkpt><trkpt lat="44.14456131655443" lon="12.05710225481159"><ele>80.0</ele><time>2026-05-02T09:46:45Z</time></trkpt><trkpt lat="44.144557559612544" lon="12.057223755690483"><ele>80.66666666666666</ele><time>2026-05-02T09:46:48Z</time></trkpt><trkpt lat="44.144556621061355" lon="12.057350404122323"><ele>81.33333333333333</ele><time>2026-05-02T09:46:51Z</time></trkpt><trkpt lat="44.144543196587975" lon="12.057446384951955"><ele>82.0</ele><time>2026-05-02T09:46:53Z</time></trkpt><trkpt lat="44.144519897400265" lon="12.057534440391759"><ele>82.0</ele><time>2026-05-02T09:46:55Z</time></trkpt><trkpt lat="44.14443415451725" lon="12.057603163635621"><ele>82.0</ele><time>2026-05-02T09:46:58Z</time></trkpt><trkpt lat="44.144336304643794" lon="12.057563859768946"><ele>82.0</ele><time>2026-05-02T09:47:00Z</time></trkpt><trkpt lat="44.14424231080574" lon="12.057528753066277"><ele>82.0</ele><time>2026-05-02T09:47:02Z</time></trkpt><trkpt lat="44.144154909970844" lon="12.05748654665797"><ele>82.0</ele><time>2026-05-02T09:47:04Z</time></trkpt><trkpt lat="44.14407954823075" lon="12.05744930936433"><ele>82.5</ele><time>2026-05-02T09:47:06Z</time></trkpt><trkpt lat="44.144003245337856" lon="12.05741483271541"><ele>83.0</ele><time>2026-05-02T09:47:08Z</time></trkpt><trkpt lat="44.14391393145669" lon="12.057376314312139"><ele>83.5</ele><time>2026-05-02T09:47:10Z</time></trkpt><trkpt lat="44.14383333685726" lon="12.057328676322571"><ele>84.0</ele><time>2026-05-02T09:47:12Z</time></trkpt><trkpt lat="44.14375711817539" lon="12.057297075808732"><ele>84.5</ele><time>2026-05-02T09:47:14Z</time></trkpt><trkpt lat="44.14369376588955" lon="12.057261970833906"><ele>85.0</ele><time>2026-05-02T09:47:16Z</time></trkpt><trkpt lat="44.14360629980208" lon="12.057220172611013"><ele>85.0</ele><time>2026-05-02T09:47:19Z</time></trkpt><trkpt lat="44.14354559632577" lon="12.057187670963966"><ele>85.0</ele><time>2026-05-02T09:47:21Z</time></trkpt><trkpt lat="44.14347782326538" lon="12.057157825063548"><ele>85.0</ele><time>2026-05-02T09:47:23Z</time></trkpt><trkpt lat="44.14340525762488" lon="12.057122836829938"><ele>85.0</ele><time>2026-05-02T09:47:26Z</time></trkpt><trkpt lat="44.143324621186586" lon="12.057096146701651"><ele>85.0</ele><time>2026-05-02T09:47:29Z</time></trkpt><trkpt lat="44.143237462980316" lon="12.057055693430788"><ele>85.0</ele><time>2026-05-02T09:47:32Z</time></trkpt><trkpt lat="44.14317597017999" lon="12.05703116934665"><ele>85.28571428571429</ele><time>2026-05-02T09:47:34Z</time></trkpt><trkpt lat="44.14311415003008" lon="12.057001366810724"><ele>85.57142857142857</ele><time>2026-05-02T09:47:36Z</time></trkpt><trkpt lat="44.143054534403426" lon="12.05697230436622"><ele>85.85714285714286</ele><time>2026-05-02T09:47:38Z</time></trkpt><trkpt lat="44.142992285373566" lon="12.05694742082632"><ele>86.14285714285714</ele><time>2026-05-02T09:47:40Z</time></trkpt><trkpt lat="44.14292779436263" lon="12.056906222156396"><ele>86.42857142857143</ele><time>2026-05-02T09:47:42Z</time></trkpt><trkpt lat="44.1428436074423" lon="12.056882125540072"><ele>86.71428571428571</ele><time>2026-05-02T09:47:45Z</time></trkpt><trkpt lat="44.14278530265977" lon="12.056846987475462"><ele>87.0</ele><time>2026-05-02T09:47:48Z</time></trkpt><trkpt lat="44.14270520250271" lon="12.056812230644503"><ele>87.0</ele><time>2026-05-02T09:47:51Z</time></trkpt><trkpt lat="44.142634193265145" lon="12.05678593758953"><ele>87.0</ele><time>2026-05-02T09:47:54Z</time></trkpt><trkpt lat="44.14254903093838" lon="12.056740431135403"><ele>87.0</ele><time>2026-05-02T09:47:57Z</time></trkpt><trkpt lat="44.14246110356601" lon="12.056697842009442"><ele>87.0</ele><time>2026-05-02T09:48:00Z</time></trkpt><trkpt lat="44.14240162523373" lon="12.056667596250378"><ele>87.0</ele><time>2026-05-02T09:48:02Z</time></trkpt><trkpt lat="44.142340239460665" lon="12.056643704474995"><ele>87.0</ele><time>2026-05-02T09:48:04Z</time></trkpt><trkpt lat="44.14228024031567" lon="12.056616688561235"><ele>87.0</ele><time>2026-05-02T09:48:06Z</time></trkpt><trkpt lat="44.14219446869969" lon="12.056579347674523"><ele>87.5</ele><time>2026-05-02T09:48:09Z</time></trkpt><trkpt lat="44.14211694074588" lon="12.056537441967055"><ele>88.0</ele><time>2026-05-02T09:48:12Z</time></trkpt><trkpt lat="44.142035774088406" lon="12.056503071301597"><ele>88.5</ele><time>2026-05-02T09:48:15Z</time></trkpt><trkpt lat="44.141952125172125" lon="12.056462941183963"><ele>89.0</ele><time>2026-05-02T09:48:18Z</time></trkpt><trkpt lat="44.14186612396221" lon="12.056431008210314"><ele>89.5</ele><time>2026-05-02T09:48:21Z</time></trkpt><trkpt lat="44.14177782886886" lon="12.056408784367179"><ele>90.0</ele><time>2026-05-02T09:48:24Z</time></trkpt><trkpt lat="44.14169248444611" lon="12.056367520971552"><ele>90.0</ele><time>2026-05-02T09:48:27Z</time></trkpt><trkpt lat="44.14160722932734" lon="12.056327810231178"><ele>90.0</ele><time>2026-05-02T09:48:30Z</time></trkpt><trkpt lat="44.14152717007815" lon="12.05629121495686"><ele>90.0</ele><time>2026-05-02T09:48:33Z</time></trkpt><trkpt lat="44.141444718596155" lon="12.05625530088166"><ele>90.0</ele><time>2026-05-02T09:48:36Z</time></trkpt><trkpt lat="44.14136297441478" lon="12.056209407935233"><ele>90.0</ele><time>2026-05-02T09:48:39Z</time></trkpt><trkpt lat="44.14128936925503" lon="12.056185909588955"><ele>90.0</ele><time>2026-05-02T09:48:42Z</time></trkpt><trkpt lat="44.141214384731356" lon="12.05614539835405"><ele>90.16666666666667</ele><time>2026-05-02T09:48:45Z</time></trkpt><trkpt lat="44.141146704470685" lon="12.056106608469438"><ele>90.33333333333333</ele><time>2026-05-02T09:48:48Z</time></trkpt><trkpt lat="44.14106525540996" lon="12.05608013683105"><ele>90.5</ele><time>2026-05-02T09:48:51Z</time></trkpt><trkpt lat="44.14097841454979" lon="12.05604734501573"><ele>90.66666666666666</ele><time>2026-05-02T09:48:54Z</time></trkpt><trkpt lat="44.1408916372267" lon="12.056009455210523"><ele>90.83333333333333</ele><time>2026-05-02T09:48:57Z</time></trkpt><trkpt lat="44.14080634965889" lon="12.055976182615325"><ele>91.0</ele><time>2026-05-02T09:49:00Z</time></trkpt><trkpt lat="44.140726462168715" lon="12.055945604133683"><ele>91.33333333333333</ele><time>2026-05-02T09:49:03Z</time></trkpt><trkpt lat="44.14064584162336" lon="12.05593558804778"><ele>91.66666666666666</ele><time>2026-05-02T09:49:06Z</time></trkpt><trkpt lat="44.140567617311845" lon="12.055898406057457"><ele>92.0</ele><time>2026-05-02T09:49:09Z</time></trkpt><trkpt lat="44.1404888760404" lon="12.055878013285795"><ele>92.33333333333333</ele><time>2026-05-02T09:49:12Z</time></trkpt><trkpt lat="44.140417065786224" lon="12.055850352602578"><ele>92.66666666666667</ele><time>2026-05-02T09:49:15Z</time></trkpt><trkpt lat="44.14034817773866" lon="12.055832444579586"><ele>93.0</ele><time>2026-05-02T09:49:18Z</time></trkpt><trkpt lat="44.140269156775496" lon="12.055807844585429"><ele>93.16666666666667</ele><time>2026-05-02T09:49:21Z</time></trkpt><trkpt lat="44.14019270997489" lon="12.05577477593013"><ele>93.33333333333333</ele><time>2026-05-02T09:49:24Z</time></trkpt><trkpt lat="44.14011369358612" lon="12.05574617235246"><ele>93.5</ele><time>2026-05-02T09:49:27Z</time></trkpt><trkpt lat="44.14003245173755" lon="12.055712279009033"><ele>93.66666666666666</ele><time>2026-05-02T09:49:30Z</time></trkpt><trkpt lat="44.13995115155498" lon="12.055661861822772"><ele>93.83333333333333</ele><time>2026-05-02T09:49:33Z</time></trkpt><trkpt lat="44.1398764330684" lon="12.055621012923813"><ele>94.0</ele><time>2026-05-02T09:49:36Z</time></trkpt><trkpt lat="44.13979695728441" lon="12.055598149600218"><ele>94.5</ele><time>2026-05-02T09:49:39Z</time></trkpt><trkpt lat="44.13972937197038" lon="12.055572299979262"><ele>95.0</ele><time>2026-05-02T09:49:42Z</time></trkpt><trkpt lat="44.13964794081831" lon="12.055536823381033"><ele>95.5</ele><time>2026-05-02T09:49:45Z</time></trkpt><trkpt lat="44.139586499747885" lon="12.055514310013972"><ele>96.0</ele><time>2026-05-02T09:49:47Z</time></trkpt><trkpt lat="44.139507232721826" lon="12.055487047948843"><ele>96.50000000000001</ele><time>2026-05-02T09:49:50Z</time></trkpt><trkpt lat="44.13942151203523" lon="12.055454895638093"><ele>97.0</ele><time>2026-05-02T09:49:53Z</time></trkpt><trkpt lat="44.13933526457217" lon="12.055427545059937"><ele>97.00000000000001</ele><time>2026-05-02T09:49:56Z</time></trkpt><trkpt lat="44.13925039677403" lon="12.055397326697475"><ele>97.0</ele><time>2026-05-02T09:49:59Z</time></trkpt><trkpt lat="44.13916794697021" lon="12.055362923199723"><ele>97.0</ele><time>2026-05-02T09:50:02Z</time></trkpt><trkpt lat="44.139081124481166" lon="12.055334189502947"><ele>97.0</ele><time>2026-05-02T09:50:05Z</time></trkpt><trkpt lat="44.139004404521174" lon="12.055315618083265"><ele>97.00000000000001</ele><time>2026-05-02T09:50:08Z</time></trkpt><trkpt lat="44.138920333095314" lon="12.055280366550182"><ele>97.0</ele><time>2026-05-02T09:50:11Z</time></trkpt><trkpt lat="44.138832960179776" lon="12.05524397938462"><ele>97.33333333333334</ele><time>2026-05-02T09:50:14Z</time></trkpt><trkpt lat="44.138753399724706" lon="12.055213461339244"><ele>97.66666666666667</ele><time>2026-05-02T09:50:17Z</time></trkpt><trkpt lat="44.138669096473215" lon="12.05518648588664"><ele>98.0</ele><time>2026-05-02T09:50:20Z</time></trkpt><trkpt lat="44.138576420395175" lon="12.055155669275115"><ele>98.33333333333334</ele><time>2026-05-02T09:50:23Z</time></trkpt><trkpt lat="44.138504725114316" lon="12.055127267586938"><ele>98.66666666666667</ele><time>2026-05-02T09:50:25Z</time></trkpt><trkpt lat="44.138437732048786" lon="12.055109927661809"><ele>99.0</ele><time>2026-05-02T09:50:27Z</time></trkpt><trkpt lat="44.13836974788747" lon="12.055090478042944"><ele>99.0</ele><time>2026-05-02T09:50:29Z</time></trkpt><trkpt lat="44.13829875350409" lon="12.055065537999566"><ele>99.0</ele><time>2026-05-02T09:50:31Z</time></trkpt><trkpt lat="44.13821255047303" lon="12.055031836755468"><ele>99.0</ele><time>2026-05-02T09:50:34Z</time></trkpt><trkpt lat="44.1381254706001" lon="12.05499896959293"><ele>99.0</ele><time>2026-05-02T09:50:37Z</time></trkpt><trkpt lat="44.13804168280218" lon="12.054970971949524"><ele>99.0</ele><time>2026-05-02T09:50:40Z</time></trkpt><trkpt lat="44.13794892481745" lon="12.05495129830728"><ele>99.0</ele><time>2026-05-02T09:50:43Z</time></trkpt><trkpt lat="44.13787559027353" lon="12.054952421986386"><ele>99.16666666666667</ele><time>2026-05-02T09:50:46Z</time></trkpt><trkpt lat="44.137795447288816" lon="12.054957408885299"><ele>99.33333333333334</ele><time>2026-05-02T09:50:49Z</time></trkpt><trkpt lat="44.13771944132804" lon="12.054987433645127"><ele>99.5</ele><time>2026-05-02T09:50:52Z</time></trkpt><trkpt lat="44.13763350804302" lon="12.055023274358105"><ele>99.66666666666667</ele><time>2026-05-02T09:50:55Z</time></trkpt><trkpt lat="44.13756113595991" lon="12.05505954674499"><ele>99.83333333333334</ele><time>2026-05-02T09:50:57Z</time></trkpt><trkpt lat="44.13748739430936" lon="12.055096766802382"><ele>100.0</ele><time>2026-05-02T09:50:59Z</time></trkpt><trkpt lat="44.1374083745466" lon="12.055140023585368"><ele>100.2</ele><time>2026-05-02T09:51:01Z</time></trkpt><trkpt lat="44.13732843787575" lon="12.055210633351527"><ele>100.4</ele><time>2026-05-02T09:51:03Z</time></trkpt><trkpt lat="44.137247701234934" lon="12.055278937818517"><ele>100.6</ele><time>2026-05-02T09:51:05Z</time></trkpt><trkpt lat="44.13716194343428" lon="12.055347584243636"><ele>100.8</ele><time>2026-05-02T09:51:07Z</time></trkpt><trkpt lat="44.137080717879805" lon="12.05542005655408"><ele>101.0</ele><time>2026-05-02T09:51:09Z</time></trkpt><trkpt lat="44.13701221542312" lon="12.055493266673656"><ele>101.0</ele><time>2026-05-02T09:51:11Z</time></trkpt><trkpt lat="44.13694546319892" lon="12.055588573550336"><ele>101.0</ele><time>2026-05-02T09:51:13Z</time></trkpt><trkpt lat="44.136896988793914" lon="12.055691329518886"><ele>101.0</ele><time>2026-05-02T09:51:15Z</time></trkpt><trkpt lat="44.13681758864336" lon="12.05575969091458"><ele>101.0</ele><time>2026-05-02T09:51:17Z</time></trkpt><trkpt lat="44.13677278495067" lon="12.05587306507165"><ele>101.0</ele><time>2026-05-02T09:51:19Z</time></trkpt><trkpt lat="44.13673159244466" lon="12.055985579037241"><ele>100.4</ele><time>2026-05-02T09:51:21Z</time></trkpt><trkpt lat="44.13666657949047" lon="12.056103269547659"><ele>99.8</ele><time>2026-05-02T09:51:23Z</time></trkpt><trkpt lat="44.13657262870183" lon="12.056220935480757"><ele>99.2</ele><time>2026-05-02T09:51:25Z</time></trkpt><trkpt lat="44.136515512299106" lon="12.056282611308452"><ele>98.60000000000001</ele><time>2026-05-02T09:51:26Z</time></trkpt><trkpt lat="44.136449898256124" lon="12.056355380855612"><ele>98.0</ele><time>2026-05-02T09:51:27Z</time></trkpt><trkpt lat="44.13638375615229" lon="12.056429766437121"><ele>98.0</ele><time>2026-05-02T09:51:28Z</time></trkpt><trkpt lat="44.136315617763344" lon="12.056509497791138"><ele>98.0</ele><time>2026-05-02T09:51:29Z</time></trkpt><trkpt lat="44.136247122053824" lon="12.056596664675503"><ele>98.0</ele><time>2026-05-02T09:51:30Z</time></trkpt><trkpt lat="44.136181291063444" lon="12.056690323708779"><ele>98.0</ele><time>2026-05-02T09:51:31Z</time></trkpt><trkpt lat="44.13611478849212" lon="12.056790502741547"><ele>98.0</ele><time>2026-05-02T09:51:32Z</time></trkpt><trkpt lat="44.13603825643789" lon="12.056880874844335"><ele>96.4</ele><time>2026-05-02T09:51:33Z</time></trkpt><trkpt lat="44.13595380840576" lon="12.05696129255166"><ele>94.80000000000001</ele><time>2026-05-02T09:51:34Z</time></trkpt><trkpt lat="44.13586143607358" lon="12.057036781723182"><ele>93.2</ele><time>2026-05-02T09:51:35Z</time></trkpt><trkpt lat="44.135763982467324" lon="12.057105367651243"><ele>91.6</ele><time>2026-05-02T09:51:36Z</time></trkpt><trkpt lat="44.13566362282642" lon="12.057169348749879"><ele>90.0</ele><time>2026-05-02T09:51:37Z</time></trkpt><trkpt lat="44.13556115323049" lon="12.057229729910981"><ele>89.25</ele><time>2026-05-02T09:51:38Z</time></trkpt><trkpt lat="44.135451960715976" lon="12.057290090653833"><ele>88.5</ele><time>2026-05-02T09:51:39Z</time></trkpt><trkpt lat="44.13533815675885" lon="12.0573523861599"><ele>87.75</ele><time>2026-05-02T09:51:40Z</time></trkpt><trkpt lat="44.13523652630481" lon="12.057439700469557"><ele>87.0</ele><time>2026-05-02T09:51:41Z</time></trkpt><trkpt lat="44.13512793793073" lon="12.05749011326031"><ele>85.0</ele><time>2026-05-02T09:51:42Z</time></trkpt><trkpt lat="44.13502320092477" lon="12.057566597570894"><ele>83.0</ele><time>2026-05-02T09:51:43Z</time></trkpt><trkpt lat="44.13492511467453" lon="12.057641559014208"><ele>81.0</ele><time>2026-05-02T09:51:44Z</time></trkpt><trkpt lat="44.13482594979461" lon="12.057713947115724"><ele>79.0</ele><time>2026-05-02T09:51:45Z</time></trkpt><trkpt lat="44.13472666787852" lon="12.057781664205754"><ele>79.0</ele><time>2026-05-02T09:51:46Z</time></trkpt><trkpt lat="44.13464086639318" lon="12.057858410312798"><ele>79.0</ele><time>2026-05-02T09:51:47Z</time></trkpt><trkpt lat="44.13455365401491" lon="12.057907587034483"><ele>79.0</ele><time>2026-05-02T09:51:48Z</time></trkpt><trkpt lat="44.13448143611637" lon="12.057955926976437"><ele>79.0</ele><time>2026-05-02T09:51:49Z</time></trkpt><trkpt lat="44.13441831305343" lon="12.058002666155874"><ele>79.0</ele><time>2026-05-02T09:51:50Z</time></trkpt><trkpt lat="44.13435160856098" lon="12.058041631435888"><ele>79.0</ele><time>2026-05-02T09:51:51Z</time></trkpt><trkpt lat="44.134271243953854" lon="12.058089821017766"><ele>79.0</ele><time>2026-05-02T09:51:52Z</time></trkpt><trkpt lat="44.13418179780544" lon="12.058138687602378"><ele>79.0</ele><time>2026-05-02T09:51:53Z</time></trkpt><trkpt lat="44.13411755015838" lon="12.058215034153683"><ele>79.0</ele><time>2026-05-02T09:51:54Z</time></trkpt><trkpt lat="44.13406013546029" lon="12.058388445211495"><ele>79.0</ele><time>2026-05-02T09:51:56Z</time></trkpt><trkpt lat="44.13401312125898" lon="12.058476939565733"><ele>79.0</ele><time>2026-05-02T09:51:57Z</time></trkpt><trkpt lat="44.13396875453243" lon="12.058560450464553"><ele>76.0</ele><time>2026-05-02T09:51:58Z</time></trkpt><trkpt lat="44.13392031267559" lon="12.058635716686437"><ele>73.0</ele><time>2026-05-02T09:51:59Z</time></trkpt><trkpt lat="44.133634691130524" lon="12.05847136766583"><ele>70.0</ele><time>2026-05-02T09:52:00Z</time></trkpt><trkpt lat="44.13356122464668" lon="12.058517105184608"><ele>70.0</ele><time>2026-05-02T09:52:01Z</time></trkpt><trkpt lat="44.133487073364414" lon="12.058566920716599"><ele>70.0</ele><time>2026-05-02T09:52:02Z</time></trkpt><trkpt lat="44.13336258032625" lon="12.058489409078588"><ele>70.0</ele><time>2026-05-02T09:52:03Z</time></trkpt><trkpt lat="44.133287451102724" lon="12.058545708596604"><ele>70.0</ele><time>2026-05-02T09:52:04Z</time></trkpt><trkpt lat="44.13320812984879" lon="12.058603747134438"><ele>70.0</ele><time>2026-05-02T09:52:05Z</time></trkpt><trkpt lat="44.13313103695486" lon="12.058657651525577"><ele>70.33333333333333</ele><time>2026-05-02T09:52:06Z</time></trkpt><trkpt lat="44.13304864625009" lon="12.058716469537929"><ele>70.66666666666666</ele><time>2026-05-02T09:52:07Z</time></trkpt><trkpt lat="44.13297092414382" lon="12.058780649596997"><ele>71.0</ele><time>2026-05-02T09:52:08Z</time></trkpt><trkpt lat="44.13290087325198" lon="12.058841270976824"><ele>71.33333333333333</ele><time>2026-05-02T09:52:09Z</time></trkpt><trkpt lat="44.13283516982477" lon="12.058900157662862"><ele>71.66666666666667</ele><time>2026-05-02T09:52:10Z</time></trkpt><trkpt lat="44.1327724876673" lon="12.058959481481942"><ele>72.0</ele><time>2026-05-02T09:52:11Z</time></trkpt><trkpt lat="44.132714432066294" lon="12.05902021063159"><ele>72.00000000000001</ele><time>2026-05-02T09:52:12Z</time></trkpt><trkpt lat="44.13264621044686" lon="12.059074742483833"><ele>72.0</ele><time>2026-05-02T09:52:13Z</time></trkpt><trkpt lat="44.13257990924837" lon="12.059127739967519"><ele>72.0</ele><time>2026-05-02T09:52:14Z</time></trkpt><trkpt lat="44.13251512548678" lon="12.059179524456082"><ele>72.0</ele><time>2026-05-02T09:52:15Z</time></trkpt><trkpt lat="44.132462702860096" lon="12.059249657164965"><ele>72.0</ele><time>2026-05-02T09:52:16Z</time></trkpt><trkpt lat="44.13240451791086" lon="12.059300310834812"><ele>72.00000000000001</ele><time>2026-05-02T09:52:17Z</time></trkpt><trkpt lat="44.13234163545372" lon="12.05935641835917"><ele>72.0</ele><time>2026-05-02T09:52:18Z</time></trkpt><trkpt lat="44.13227120875178" lon="12.059391125242701"><ele>71.28571428571429</ele><time>2026-05-02T09:52:19Z</time></trkpt><trkpt lat="44.132208802990846" lon="12.059443957582566"><ele>70.57142857142857</ele><time>2026-05-02T09:52:20Z</time></trkpt><trkpt lat="44.13214287425105" lon="12.059493348070486"><ele>69.85714285714286</ele><time>2026-05-02T09:52:21Z</time></trkpt><trkpt lat="44.13208360126269" lon="12.059550894043307"><ele>69.14285714285714</ele><time>2026-05-02T09:52:22Z</time></trkpt><trkpt lat="44.13200980941788" lon="12.059566566823422"><ele>68.42857142857143</ele><time>2026-05-02T09:52:23Z</time></trkpt><trkpt lat="44.131947651510195" lon="12.059589874946575"><ele>67.71428571428572</ele><time>2026-05-02T09:52:24Z</time></trkpt><trkpt lat="44.13188107890079" lon="12.059610799837671"><ele>67.0</ele><time>2026-05-02T09:52:25Z</time></trkpt><trkpt lat="44.13181530671449" lon="12.059629987659276"><ele>67.0</ele><time>2026-05-02T09:52:26Z</time></trkpt><trkpt lat="44.13175074521094" lon="12.059646434027927"><ele>67.0</ele><time>2026-05-02T09:52:27Z</time></trkpt><trkpt lat="44.13162672099603" lon="12.0596719863145"><ele>67.0</ele><time>2026-05-02T09:52:29Z</time></trkpt><trkpt lat="44.13152473789415" lon="12.059669323938621"><ele>67.0</ele><time>2026-05-02T09:52:31Z</time></trkpt><trkpt lat="44.131464260006396" lon="12.059825031157013"><ele>67.0</ele><time>2026-05-02T09:52:34Z</time></trkpt><trkpt lat="44.131321961006925" lon="12.059877146328365"><ele>67.0</ele><time>2026-05-02T09:52:56Z</time></trkpt><trkpt lat="44.131386911010416" lon="12.059886943386205"><ele>67.0</ele><time>2026-05-02T09:53:01Z</time></trkpt><trkpt lat="44.13146120323813" lon="12.059836446410003"><ele>67.0</ele><time>2026-05-02T09:53:05Z</time></trkpt><trkpt lat="44.13146253407363" lon="12.059736820986021"><ele>67.0</ele><time>2026-05-02T09:53:07Z</time></trkpt><trkpt lat="44.13136996032494" lon="12.05966863016504"><ele>67.0</ele><time>2026-05-02T09:53:09Z</time></trkpt><trkpt lat="44.13127453086119" lon="12.059657849764248"><ele>67.0</ele><time>2026-05-02T09:53:11Z</time></trkpt><trkpt lat="44.131195013447105" lon="12.05968211053661"><ele>67.0</ele><time>2026-05-02T09:53:13Z</time></trkpt><trkpt lat="44.131131912103385" lon="12.05976199888239"><ele>67.0</ele><time>2026-05-02T09:53:15Z</time></trkpt><trkpt lat="44.13109860320881" lon="12.059854690999202"><ele>67.0</ele><time>2026-05-02T09:53:17Z</time></trkpt><trkpt lat="44.13103562941293" lon="12.060002303714796"><ele>67.0</ele><time>2026-05-02T09:53:19Z</time></trkpt><trkpt lat="44.13095615302142" lon="12.060059216078198"><ele>67.0</ele><time>2026-05-02T09:53:21Z</time></trkpt><trkpt lat="44.13086354706861" lon="12.060146192625744"><ele>66.4</ele><time>2026-05-02T09:53:23Z</time></trkpt><trkpt lat="44.130760648410565" lon="12.06022910829191"><ele>65.80000000000001</ele><time>2026-05-02T09:53:25Z</time></trkpt><trkpt lat="44.130661485503694" lon="12.060302650618805"><ele>65.2</ele><time>2026-05-02T09:53:27Z</time></trkpt><trkpt lat="44.13056117276015" lon="12.060374038422875"><ele>64.60000000000001</ele><time>2026-05-02T09:53:29Z</time></trkpt><trkpt lat="44.130495122606575" lon="12.060409561321585"><ele>64.0</ele><time>2026-05-02T09:53:30Z</time></trkpt><trkpt lat="44.13043030468959" lon="12.060437831113969"><ele>64.0</ele><time>2026-05-02T09:53:31Z</time></trkpt><trkpt lat="44.130362561170365" lon="12.060462759665063"><ele>64.0</ele><time>2026-05-02T09:53:32Z</time></trkpt><trkpt lat="44.13025015529874" lon="12.060511043491502"><ele>64.0</ele><time>2026-05-02T09:53:34Z</time></trkpt><trkpt lat="44.1301513913406" lon="12.06054922265734"><ele>64.0</ele><time>2026-05-02T09:53:36Z</time></trkpt><trkpt lat="44.130085180707106" lon="12.060617322187221"><ele>64.0</ele><time>2026-05-02T09:53:38Z</time></trkpt><trkpt lat="44.130012261803806" lon="12.06071980905799"><ele>63.83333333333333</ele><time>2026-05-02T09:53:40Z</time></trkpt><trkpt lat="44.12995626564837" lon="12.060804736298598"><ele>63.666666666666664</ele><time>2026-05-02T09:53:42Z</time></trkpt><trkpt lat="44.1299068296643" lon="12.060880004853312"><ele>63.5</ele><time>2026-05-02T09:53:45Z</time></trkpt><trkpt lat="44.129934926556714" lon="12.061040406285391"><ele>63.33333333333333</ele><time>2026-05-02T09:53:49Z</time></trkpt><trkpt lat="44.129875248595994" lon="12.061089937637432"><ele>63.166666666666664</ele><time>2026-05-02T09:53:52Z</time></trkpt><trkpt lat="44.12980392482938" lon="12.0611354004044"><ele>63.0</ele><time>2026-05-02T09:53:55Z</time></trkpt><trkpt lat="44.12973348765462" lon="12.061175790560037"><ele>63.0</ele><time>2026-05-02T09:53:58Z</time></trkpt><trkpt lat="44.12963909709929" lon="12.061213898158396"><ele>63.0</ele><time>2026-05-02T09:54:01Z</time></trkpt><trkpt lat="44.12957928765562" lon="12.061252190229846"><ele>63.0</ele><time>2026-05-02T09:54:03Z</time></trkpt><trkpt lat="44.129511138414635" lon="12.061261011287092"><ele>63.0</ele><time>2026-05-02T09:54:05Z</time></trkpt><trkpt lat="44.12943841903341" lon="12.06130409865605"><ele>63.0</ele><time>2026-05-02T09:54:07Z</time></trkpt><trkpt lat="44.129339874656786" lon="12.061337959051619"><ele>63.0</ele><time>2026-05-02T09:54:10Z</time></trkpt><trkpt lat="44.129260747244835" lon="12.061347611139501"><ele>63.0</ele><time>2026-05-02T09:54:12Z</time></trkpt><trkpt lat="44.12919414976557" lon="12.061369030610745"><ele>63.0</ele><time>2026-05-02T09:54:14Z</time></trkpt><trkpt lat="44.12912255135161" lon="12.061423095552207"><ele>63.0</ele><time>2026-05-02T09:54:17Z</time></trkpt><trkpt lat="44.12904195376386" lon="12.061404997855178"><ele>63.0</ele><time>2026-05-02T09:54:20Z</time></trkpt><trkpt lat="44.12895749665116" lon="12.061401203332833"><ele>63.0</ele><time>2026-05-02T09:54:23Z</time></trkpt><trkpt lat="44.12890117512966" lon="12.061350812690508"><ele>63.0</ele><time>2026-05-02T09:54:26Z</time></trkpt><trkpt lat="44.128818175206035" lon="12.061323486819035"><ele>63.285714285714285</ele><time>2026-05-02T09:54:29Z</time></trkpt><trkpt lat="44.12874088958482" lon="12.061299241264047"><ele>63.57142857142857</ele><time>2026-05-02T09:54:32Z</time></trkpt><trkpt lat="44.12865419603203" lon="12.06128201358878"><ele>63.85714285714286</ele><time>2026-05-02T09:54:35Z</time></trkpt><trkpt lat="44.12858290488789" lon="12.061249069257606"><ele>64.14285714285714</ele><time>2026-05-02T09:54:37Z</time></trkpt><trkpt lat="44.12851731053895" lon="12.061215178287524"><ele>64.42857142857143</ele><time>2026-05-02T09:54:39Z</time></trkpt><trkpt lat="44.12845464403561" lon="12.061194766216314"><ele>64.71428571428572</ele><time>2026-05-02T09:54:41Z</time></trkpt><trkpt lat="44.128384370427" lon="12.061178025397766"><ele>65.0</ele><time>2026-05-02T09:54:43Z</time></trkpt><trkpt lat="44.12831478603269" lon="12.06112556306803"><ele>65.00000000000001</ele><time>2026-05-02T09:54:45Z</time></trkpt><trkpt lat="44.12825497712768" lon="12.061096352196355"><ele>65.0</ele><time>2026-05-02T09:54:47Z</time></trkpt><trkpt lat="44.12816666064787" lon="12.061060412432305"><ele>65.0</ele><time>2026-05-02T09:54:50Z</time></trkpt><trkpt lat="44.12808822744033" lon="12.061050827343477"><ele>65.0</ele><time>2026-05-02T09:54:53Z</time></trkpt><trkpt lat="44.12802137040162" lon="12.06102198739122"><ele>65.0</ele><time>2026-05-02T09:54:55Z</time></trkpt><trkpt lat="44.1279602734879" lon="12.060985474619415"><ele>65.00000000000001</ele><time>2026-05-02T09:54:57Z</time></trkpt><trkpt lat="44.12789605826468" lon="12.060971075900977"><ele>65.0</ele><time>2026-05-02T09:54:59Z</time></trkpt><trkpt lat="44.127814885477676" lon="12.060946818760446"><ele>65.16666666666667</ele><time>2026-05-02T09:55:02Z</time></trkpt><trkpt lat="44.1277490083785" lon="12.060934812168343"><ele>65.33333333333334</ele><time>2026-05-02T09:55:04Z</time></trkpt><trkpt lat="44.12768688696137" lon="12.060908695034488"><ele>65.5</ele><time>2026-05-02T09:55:06Z</time></trkpt><trkpt lat="44.127624760445066" lon="12.06089090321078"><ele>65.66666666666667</ele><time>2026-05-02T09:55:08Z</time></trkpt><trkpt lat="44.12756049796847" lon="12.060868117823379"><ele>65.83333333333333</ele><time>2026-05-02T09:55:10Z</time></trkpt><trkpt lat="44.12749648135233" lon="12.060843674901134"><ele>66.0</ele><time>2026-05-02T09:55:12Z</time></trkpt><trkpt lat="44.1273946052142" lon="12.060540036769773"><ele>66.0</ele><time>2026-05-02T09:57:46.999Z</time></trkpt><trkpt lat="44.12751162977813" lon="12.060758387295078"><ele>66.0</ele><time>2026-05-02T09:59:20Z</time></trkpt><trkpt lat="44.12751539526221" lon="12.060889605146828"><ele>66.0</ele><time>2026-05-02T10:09:06Z</time></trkpt><trkpt lat="44.12748999203621" lon="12.060773118961055"><ele>66.0</ele><time>2026-05-02T10:09:18Z</time></trkpt><trkpt lat="44.127419590509916" lon="12.06081196577988"><ele>65.83333333333333</ele><time>2026-05-02T10:09:50Z</time></trkpt><trkpt lat="44.12733949413718" lon="12.060783319736347"><ele>65.66666666666667</ele><time>2026-05-02T10:09:53Z</time></trkpt><trkpt lat="44.12725692925165" lon="12.060763574816411"><ele>65.5</ele><time>2026-05-02T10:09:56Z</time></trkpt><trkpt lat="44.12718236101577" lon="12.060738676990916"><ele>65.33333333333334</ele><time>2026-05-02T10:09:58Z</time></trkpt><trkpt lat="44.12709923807307" lon="12.060739041643512"><ele>65.16666666666667</ele><time>2026-05-02T10:10:01Z</time></trkpt><trkpt lat="44.127030531520894" lon="12.060724697584263"><ele>65.0</ele><time>2026-05-02T10:10:03Z</time></trkpt><trkpt lat="44.12695532211026" lon="12.060719733045458"><ele>65.0</ele><time>2026-05-02T10:10:06Z</time></trkpt><trkpt lat="44.126882202298134" lon="12.060699250563285"><ele>65.0</ele><time>2026-05-02T10:10:10Z</time></trkpt><trkpt lat="44.126794916161685" lon="12.060687511964916"><ele>65.0</ele><time>2026-05-02T10:10:13Z</time></trkpt><trkpt lat="44.12671371288931" lon="12.060683497488181"><ele>65.0</ele><time>2026-05-02T10:10:15Z</time></trkpt><trkpt lat="44.126639924283495" lon="12.060667858968024"><ele>65.0</ele><time>2026-05-02T10:10:17Z</time></trkpt><trkpt lat="44.12656072604001" lon="12.060659566154474"><ele>65.0</ele><time>2026-05-02T10:10:19Z</time></trkpt><trkpt lat="44.12649762463849" lon="12.060654411029525"><ele>64.83333333333334</ele><time>2026-05-02T10:10:20.999Z</time></trkpt><trkpt lat="44.12641101259098" lon="12.060696284219748"><ele>64.66666666666667</ele><time>2026-05-02T10:10:22.999Z</time></trkpt><trkpt lat="44.12634024555183" lon="12.060700003609965"><ele>64.5</ele><time>2026-05-02T10:10:24.999Z</time></trkpt><trkpt lat="44.12625815911264" lon="12.060701044566938"><ele>64.33333333333333</ele><time>2026-05-02T10:10:26.999Z</time></trkpt><trkpt lat="44.126185117612785" lon="12.060700980485533"><ele>64.16666666666666</ele><time>2026-05-02T10:10:29Z</time></trkpt><trkpt lat="44.126098105085894" lon="12.0606809623367"><ele>64.0</ele><time>2026-05-02T10:10:31Z</time></trkpt><trkpt lat="44.12601822158027" lon="12.060678689523169"><ele>63.99999999999999</ele><time>2026-05-02T10:10:33Z</time></trkpt><trkpt lat="44.12593648644798" lon="12.060655639690957"><ele>64.0</ele><time>2026-05-02T10:10:36Z</time></trkpt><trkpt lat="44.125853335699254" lon="12.060639538431134"><ele>64.0</ele><time>2026-05-02T10:10:38Z</time></trkpt><trkpt lat="44.12576945181612" lon="12.060616905924666"><ele>64.0</ele><time>2026-05-02T10:10:40Z</time></trkpt><trkpt lat="44.12566775987893" lon="12.060611082840252"><ele>63.99999999999999</ele><time>2026-05-02T10:10:42Z</time></trkpt><trkpt lat="44.125599316075466" lon="12.060619738052367"><ele>64.0</ele><time>2026-05-02T10:10:44Z</time></trkpt><trkpt lat="44.12552178106338" lon="12.060601335680088"><ele>63.83333333333333</ele><time>2026-05-02T10:10:46Z</time></trkpt><trkpt lat="44.125471610800666" lon="12.060525047395537"><ele>63.666666666666664</ele><time>2026-05-02T10:10:48Z</time></trkpt><trkpt lat="44.1253810252239" lon="12.060553702010568"><ele>63.5</ele><time>2026-05-02T10:10:50Z</time></trkpt><trkpt lat="44.12529833765807" lon="12.060541998344247"><ele>63.33333333333333</ele><time>2026-05-02T10:10:52Z</time></trkpt><trkpt lat="44.12523038479248" lon="12.060508749060888"><ele>63.166666666666664</ele><time>2026-05-02T10:10:54Z</time></trkpt><trkpt lat="44.12516132636574" lon="12.060501365453764"><ele>63.0</ele><time>2026-05-02T10:10:56Z</time></trkpt><trkpt lat="44.12509114665036" lon="12.06049138763968"><ele>63.0</ele><time>2026-05-02T10:10:58Z</time></trkpt><trkpt lat="44.12500894707171" lon="12.060488702060702"><ele>63.0</ele><time>2026-05-02T10:11:00Z</time></trkpt><trkpt lat="44.12492587284337" lon="12.060482734295341"><ele>63.0</ele><time>2026-05-02T10:11:02Z</time></trkpt><trkpt lat="44.12485768221797" lon="12.060476762911607"><ele>63.0</ele><time>2026-05-02T10:11:04Z</time></trkpt><trkpt lat="44.12478743767959" lon="12.060454653828797"><ele>63.0</ele><time>2026-05-02T10:11:06Z</time></trkpt><trkpt lat="44.12470651282643" lon="12.060440725157646"><ele>63.0</ele><time>2026-05-02T10:11:08Z</time></trkpt><trkpt lat="44.12462631463326" lon="12.060438211515349"><ele>63.166666666666664</ele><time>2026-05-02T10:11:10Z</time></trkpt><trkpt lat="44.124524676343796" lon="12.060429995687306"><ele>63.33333333333333</ele><time>2026-05-02T10:11:13Z</time></trkpt><trkpt lat="44.12445884484895" lon="12.060411974041573"><ele>63.5</ele><time>2026-05-02T10:11:15Z</time></trkpt><trkpt lat="44.12439643699686" lon="12.060425463237086"><ele>63.666666666666664</ele><time>2026-05-02T10:11:17Z</time></trkpt><trkpt lat="44.12432496906034" lon="12.060375730358059"><ele>63.83333333333333</ele><time>2026-05-02T10:11:20Z</time></trkpt><trkpt lat="44.12425862286336" lon="12.060383147339245"><ele>64.0</ele><time>2026-05-02T10:11:22Z</time></trkpt><trkpt lat="44.12418092656829" lon="12.060362358520917"><ele>63.99999999999999</ele><time>2026-05-02T10:11:25Z</time></trkpt><trkpt lat="44.1240972046808" lon="12.06037774497974"><ele>64.0</ele><time>2026-05-02T10:11:28Z</time></trkpt><trkpt lat="44.124031701105054" lon="12.060350097431979"><ele>64.0</ele><time>2026-05-02T10:11:30Z</time></trkpt><trkpt lat="44.12393395883521" lon="12.060361646001429"><ele>64.0</ele><time>2026-05-02T10:11:33Z</time></trkpt><trkpt lat="44.12387044551782" lon="12.06035136756235"><ele>63.99999999999999</ele><time>2026-05-02T10:11:35Z</time></trkpt><trkpt lat="44.123782477311124" lon="12.060343243014142"><ele>64.0</ele><time>2026-05-02T10:11:38Z</time></trkpt><trkpt lat="44.12369766670404" lon="12.060326744424808"><ele>63.83333333333333</ele><time>2026-05-02T10:11:41Z</time></trkpt><trkpt lat="44.12362003825727" lon="12.060338043195562"><ele>63.666666666666664</ele><time>2026-05-02T10:11:44Z</time></trkpt><trkpt lat="44.123532493514105" lon="12.060317283393363"><ele>63.5</ele><time>2026-05-02T10:11:47Z</time></trkpt><trkpt lat="44.12345954904421" lon="12.060317877018553"><ele>63.33333333333333</ele><time>2026-05-02T10:11:49Z</time></trkpt><trkpt lat="44.12338816572251" lon="12.060336679155839"><ele>63.166666666666664</ele><time>2026-05-02T10:11:51Z</time></trkpt><trkpt lat="44.12330769323404" lon="12.060340197378249"><ele>63.0</ele><time>2026-05-02T10:11:53Z</time></trkpt><trkpt lat="44.12324466861584" lon="12.060337149802056"><ele>63.333333333333336</ele><time>2026-05-02T10:11:55Z</time></trkpt><trkpt lat="44.12317129971376" lon="12.06032689988474"><ele>63.66666666666667</ele><time>2026-05-02T10:11:57Z</time></trkpt><trkpt lat="44.123086999016095" lon="12.060315383762283"><ele>64.0</ele><time>2026-05-02T10:12:00Z</time></trkpt><trkpt lat="44.1229929516717" lon="12.060314412806076"><ele>64.33333333333334</ele><time>2026-05-02T10:12:03Z</time></trkpt><trkpt lat="44.12292076931842" lon="12.060301523091965"><ele>64.66666666666667</ele><time>2026-05-02T10:12:05Z</time></trkpt><trkpt lat="44.122849763028235" lon="12.060281689472921"><ele>65.0</ele><time>2026-05-02T10:12:07Z</time></trkpt><trkpt lat="44.12278458567335" lon="12.06028732326409"><ele>65.0</ele><time>2026-05-02T10:12:09Z</time></trkpt><trkpt lat="44.12270596920778" lon="12.06028565158403"><ele>65.0</ele><time>2026-05-02T10:12:11Z</time></trkpt><trkpt lat="44.12262608050679" lon="12.060259306517139"><ele>65.0</ele><time>2026-05-02T10:12:13Z</time></trkpt><trkpt lat="44.12256078850184" lon="12.06025944195183"><ele>65.0</ele><time>2026-05-02T10:12:15Z</time></trkpt><trkpt lat="44.1225043268952" lon="12.06021569823916"><ele>65.0</ele><time>2026-05-02T10:12:17Z</time></trkpt><trkpt lat="44.12241335788558" lon="12.060214228346904"><ele>65.0</ele><time>2026-05-02T10:12:20Z</time></trkpt><trkpt lat="44.122342588784505" lon="12.060234462331204"><ele>64.16666666666667</ele><time>2026-05-02T10:12:22Z</time></trkpt><trkpt lat="44.1222660792396" lon="12.060247474081196"><ele>63.333333333333336</ele><time>2026-05-02T10:12:24Z</time></trkpt><trkpt lat="44.12218743403169" lon="12.060242662836327"><ele>62.5</ele><time>2026-05-02T10:12:25.999Z</time></trkpt><trkpt lat="44.1221182630234" lon="12.060246756253306"><ele>61.66666666666667</ele><time>2026-05-02T10:12:27.999Z</time></trkpt><trkpt lat="44.12204808309174" lon="12.060219839862484"><ele>60.833333333333336</ele><time>2026-05-02T10:12:29.999Z</time></trkpt><trkpt lat="44.121957352982356" lon="12.060215577544867"><ele>60.0</ele><time>2026-05-02T10:12:32.999Z</time></trkpt><trkpt lat="44.12188345449182" lon="12.06028463573169"><ele>60.0</ele><time>2026-05-02T10:12:36Z</time></trkpt><trkpt lat="44.12187871676843" lon="12.060389785102334"><ele>60.0</ele><time>2026-05-02T10:12:38Z</time></trkpt><trkpt lat="44.1218734770285" lon="12.060518743961879"><ele>60.0</ele><time>2026-05-02T10:12:40Z</time></trkpt><trkpt lat="44.12186002702847" lon="12.060658841885804"><ele>60.0</ele><time>2026-05-02T10:12:42Z</time></trkpt><trkpt lat="44.12184568176" lon="12.060828711692976"><ele>60.0</ele><time>2026-05-02T10:12:44Z</time></trkpt><trkpt lat="44.12183577866803" lon="12.060920038213016"><ele>59.166666666666664</ele><time>2026-05-02T10:12:45Z</time></trkpt><trkpt lat="44.12183205795599" lon="12.061010514487599"><ele>58.33333333333333</ele><time>2026-05-02T10:12:46Z</time></trkpt><trkpt lat="44.12183175886004" lon="12.061100065671395"><ele>57.5</ele><time>2026-05-02T10:12:47Z</time></trkpt><trkpt lat="44.121831367875885" lon="12.061198059418542"><ele>56.666666666666664</ele><time>2026-05-02T10:12:48Z</time></trkpt><trkpt lat="44.12182631891278" lon="12.06129693596803"><ele>55.83333333333333</ele><time>2026-05-02T10:12:49Z</time></trkpt><trkpt lat="44.12182306836664" lon="12.061438045813649"><ele>55.0</ele><time>2026-05-02T10:12:51Z</time></trkpt><trkpt lat="44.121700026295755" lon="12.06141889778366"><ele>55.0</ele><time>2026-05-02T10:12:52Z</time></trkpt><trkpt lat="44.12161655889786" lon="12.061478436598971"><ele>55.0</ele><time>2026-05-02T10:12:54Z</time></trkpt><trkpt lat="44.121547053053355" lon="12.06155136122567"><ele>55.0</ele><time>2026-05-02T10:12:56Z</time></trkpt><trkpt lat="44.12146545977132" lon="12.061608528783845"><ele>55.0</ele><time>2026-05-02T10:12:58Z</time></trkpt><trkpt lat="44.12137772659628" lon="12.061669334901609"><ele>55.0</ele><time>2026-05-02T10:13:00Z</time></trkpt><trkpt lat="44.12128981197487" lon="12.06172363546406"><ele>55.0</ele><time>2026-05-02T10:13:02Z</time></trkpt><trkpt lat="44.121205372417606" lon="12.061795006812591"><ele>55.0</ele><time>2026-05-02T10:13:04Z</time></trkpt><trkpt lat="44.12111689947656" lon="12.061853217298077"><ele>55.0</ele><time>2026-05-02T10:13:06Z</time></trkpt><trkpt lat="44.121034796737675" lon="12.061913100450008"><ele>55.0</ele><time>2026-05-02T10:13:08Z</time></trkpt><trkpt lat="44.1209702352846" lon="12.06200070699408"><ele>55.0</ele><time>2026-05-02T10:13:10Z</time></trkpt><trkpt lat="44.120918762933194" lon="12.062091987183319"><ele>55.0</ele><time>2026-05-02T10:13:12Z</time></trkpt><trkpt lat="44.12091190562373" lon="12.062229641173586"><ele>55.0</ele><time>2026-05-02T10:13:14Z</time></trkpt><trkpt lat="44.12095724022863" lon="12.062361140276886"><ele>55.0</ele><time>2026-05-02T10:13:16Z</time></trkpt><trkpt lat="44.12099387161187" lon="12.062482079095258"><ele>55.0</ele><time>2026-05-02T10:13:18Z</time></trkpt><trkpt lat="44.12103028966174" lon="12.062604323058407"><ele>55.0</ele><time>2026-05-02T10:13:20Z</time></trkpt><trkpt lat="44.12105996017751" lon="12.062732226818495"><ele>55.8</ele><time>2026-05-02T10:13:22Z</time></trkpt><trkpt lat="44.121096398616466" lon="12.062859281778744"><ele>56.6</ele><time>2026-05-02T10:13:24Z</time></trkpt><trkpt lat="44.12112344763836" lon="12.062997871567799"><ele>57.400000000000006</ele><time>2026-05-02T10:13:26Z</time></trkpt><trkpt lat="44.12116234038817" lon="12.063127220711475"><ele>58.2</ele><time>2026-05-02T10:13:28Z</time></trkpt><trkpt lat="44.12120323306634" lon="12.063259054858888"><ele>59.0</ele><time>2026-05-02T10:13:30Z</time></trkpt><trkpt lat="44.1212384634604" lon="12.063395830217782"><ele>59.800000000000004</ele><time>2026-05-02T10:13:32Z</time></trkpt><trkpt lat="44.1212764330397" lon="12.063525447554918"><ele>60.60000000000001</ele><time>2026-05-02T10:13:34Z</time></trkpt><trkpt lat="44.1213130947108" lon="12.063650362531224"><ele>61.4</ele><time>2026-05-02T10:13:36Z</time></trkpt><trkpt lat="44.12134569055152" lon="12.06378010004069"><ele>62.2</ele><time>2026-05-02T10:13:38Z</time></trkpt><trkpt lat="44.12138278303053" lon="12.063923454910626"><ele>63.0</ele><time>2026-05-02T10:13:40Z</time></trkpt><trkpt lat="44.121405066386565" lon="12.064077332012626"><ele>63.4</ele><time>2026-05-02T10:13:42Z</time></trkpt><trkpt lat="44.12144493045181" lon="12.06423440836498"><ele>63.8</ele><time>2026-05-02T10:13:44Z</time></trkpt><trkpt lat="44.121487081939065" lon="12.06439710064256"><ele>64.2</ele><time>2026-05-02T10:13:46Z</time></trkpt><trkpt lat="44.121524384423864" lon="12.06447097136649"><ele>64.6</ele><time>2026-05-02T10:13:47Z</time></trkpt><trkpt lat="44.12155746235812" lon="12.064630769840372"><ele>65.0</ele><time>2026-05-02T10:13:49Z</time></trkpt><trkpt lat="44.121592344501295" lon="12.064787387557375"><ele>63.0</ele><time>2026-05-02T10:13:51Z</time></trkpt><trkpt lat="44.121634508311296" lon="12.064940255105805"><ele>61.0</ele><time>2026-05-02T10:13:53Z</time></trkpt><trkpt lat="44.12167582635334" lon="12.065091951152057"><ele>59.0</ele><time>2026-05-02T10:13:55Z</time></trkpt><trkpt lat="44.12171338827568" lon="12.065250500608725"><ele>57.0</ele><time>2026-05-02T10:13:57Z</time></trkpt><trkpt lat="44.12175028326945" lon="12.06540690917424"><ele>57.0</ele><time>2026-05-02T10:13:59Z</time></trkpt><trkpt lat="44.12178549432847" lon="12.065557127851694"><ele>57.0</ele><time>2026-05-02T10:14:01Z</time></trkpt><trkpt lat="44.121820094428344" lon="12.065702439391771"><ele>57.0</ele><time>2026-05-02T10:14:03Z</time></trkpt><trkpt lat="44.121856545751776" lon="12.0658429303099"><ele>57.0</ele><time>2026-05-02T10:14:05Z</time></trkpt><trkpt lat="44.12189270808101" lon="12.065982186369064"><ele>57.0</ele><time>2026-05-02T10:14:07Z</time></trkpt><trkpt lat="44.12193047503535" lon="12.066110998452393"><ele>57.666666666666664</ele><time>2026-05-02T10:14:09Z</time></trkpt><trkpt lat="44.121959445490646" lon="12.066236702485519"><ele>58.33333333333333</ele><time>2026-05-02T10:14:11Z</time></trkpt><trkpt lat="44.12199007990928" lon="12.066353171862316"><ele>59.0</ele><time>2026-05-02T10:14:13Z</time></trkpt><trkpt lat="44.12202302906465" lon="12.06647005330438"><ele>59.666666666666664</ele><time>2026-05-02T10:14:15Z</time></trkpt><trkpt lat="44.1220502176574" lon="12.066590550894752"><ele>60.33333333333333</ele><time>2026-05-02T10:14:17Z</time></trkpt><trkpt lat="44.1220801115736" lon="12.066699024328543"><ele>61.0</ele><time>2026-05-02T10:14:19Z</time></trkpt><trkpt lat="44.12210970577623" lon="12.066800064889808"><ele>61.14285714285714</ele><time>2026-05-02T10:14:20.999Z</time></trkpt><trkpt lat="44.122139185628605" lon="12.066896117391261"><ele>61.285714285714285</ele><time>2026-05-02T10:14:22.999Z</time></trkpt><trkpt lat="44.12216563082795" lon="12.066985705096899"><ele>61.42857142857143</ele><time>2026-05-02T10:14:24.999Z</time></trkpt><trkpt lat="44.12217695769361" lon="12.06708105009373"><ele>61.57142857142857</ele><time>2026-05-02T10:14:26.999Z</time></trkpt><trkpt lat="44.12219903850671" lon="12.067164072772146"><ele>61.71428571428572</ele><time>2026-05-02T10:14:28.999Z</time></trkpt><trkpt lat="44.122218396670306" lon="12.067247818161345"><ele>61.85714285714286</ele><time>2026-05-02T10:14:30.999Z</time></trkpt><trkpt lat="44.12224947861221" lon="12.067366374385989"><ele>62.0</ele><time>2026-05-02T10:14:33.999Z</time></trkpt><trkpt lat="44.12228226980738" lon="12.067482352848266"><ele>62.2</ele><time>2026-05-02T10:14:36.999Z</time></trkpt><trkpt lat="44.12230944541134" lon="12.067598927372094"><ele>62.400000000000006</ele><time>2026-05-02T10:14:40Z</time></trkpt><trkpt lat="44.12234242992346" lon="12.067719007067423"><ele>62.599999999999994</ele><time>2026-05-02T10:14:43Z</time></trkpt><trkpt lat="44.12237614413234" lon="12.067832404817617"><ele>62.8</ele><time>2026-05-02T10:14:46Z</time></trkpt><trkpt lat="44.12240360717606" lon="12.067953384578237"><ele>63.0</ele><time>2026-05-02T10:14:49Z</time></trkpt><trkpt lat="44.12243646724988" lon="12.06807264530274"><ele>63.0</ele><time>2026-05-02T10:14:52Z</time></trkpt><trkpt lat="44.12246432588863" lon="12.06819089527101"><ele>63.0</ele><time>2026-05-02T10:14:55Z</time></trkpt><trkpt lat="44.12249370189713" lon="12.068312219740799"><ele>63.0</ele><time>2026-05-02T10:14:58Z</time></trkpt><trkpt lat="44.12252590460302" lon="12.068431561664184"><ele>63.0</ele><time>2026-05-02T10:15:01Z</time></trkpt><trkpt lat="44.122552763868455" lon="12.068511338667467"><ele>63.0</ele><time>2026-05-02T10:15:03Z</time></trkpt><trkpt lat="44.1225859069793" lon="12.068637829912278"><ele>63.0</ele><time>2026-05-02T10:15:06Z</time></trkpt><trkpt lat="44.122606795495884" lon="12.068722490444884"><ele>63.0</ele><time>2026-05-02T10:15:08Z</time></trkpt><trkpt lat="44.122635549814106" lon="12.06884792336892"><ele>63.0</ele><time>2026-05-02T10:15:11Z</time></trkpt><trkpt lat="44.122667301676195" lon="12.068968784452641"><ele>63.0</ele><time>2026-05-02T10:15:14Z</time></trkpt><trkpt lat="44.12269988053878" lon="12.069085883313713"><ele>63.0</ele><time>2026-05-02T10:15:17Z</time></trkpt><trkpt lat="44.12273203728405" lon="12.069206078721145"><ele>63.0</ele><time>2026-05-02T10:15:20Z</time></trkpt><trkpt lat="44.12276125287416" lon="12.06932218637582"><ele>63.14285714285714</ele><time>2026-05-02T10:15:23Z</time></trkpt><trkpt lat="44.12278580466324" lon="12.069404051323124"><ele>63.285714285714285</ele><time>2026-05-02T10:15:25Z</time></trkpt><trkpt lat="44.12281176975815" lon="12.069525986895817"><ele>63.42857142857143</ele><time>2026-05-02T10:15:28Z</time></trkpt><trkpt lat="44.122833343914046" lon="12.069608716879426"><ele>63.57142857142857</ele><time>2026-05-02T10:15:30Z</time></trkpt><trkpt lat="44.122867425214714" lon="12.069732268590952"><ele>63.71428571428571</ele><time>2026-05-02T10:15:33Z</time></trkpt><trkpt lat="44.122894055761414" lon="12.069816447758248"><ele>63.857142857142854</ele><time>2026-05-02T10:15:35Z</time></trkpt><trkpt lat="44.12291427566211" lon="12.069904366575999"><ele>64.0</ele><time>2026-05-02T10:15:37Z</time></trkpt><trkpt lat="44.12293638387503" lon="12.06999024013119"><ele>64.16666666666666</ele><time>2026-05-02T10:15:39Z</time></trkpt><trkpt lat="44.12296108078292" lon="12.070072875762891"><ele>64.33333333333333</ele><time>2026-05-02T10:15:41Z</time></trkpt><trkpt lat="44.12299454068911" lon="12.07019355387428"><ele>64.5</ele><time>2026-05-02T10:15:44Z</time></trkpt><trkpt lat="44.123024498980584" lon="12.07031847779618"><ele>64.66666666666667</ele><time>2026-05-02T10:15:47Z</time></trkpt><trkpt lat="44.12305353587651" lon="12.07043742379277"><ele>64.83333333333334</ele><time>2026-05-02T10:15:50Z</time></trkpt><trkpt lat="44.12308548449555" lon="12.070551006770385"><ele>65.0</ele><time>2026-05-02T10:15:53Z</time></trkpt><trkpt lat="44.12311671140325" lon="12.070668254972128"><ele>65.16666666666667</ele><time>2026-05-02T10:15:56Z</time></trkpt><trkpt lat="44.123143287802534" lon="12.070783642398066"><ele>65.33333333333334</ele><time>2026-05-02T10:15:59Z</time></trkpt><trkpt lat="44.12317347075238" lon="12.070897285162122"><ele>65.5</ele><time>2026-05-02T10:16:02Z</time></trkpt><trkpt lat="44.12320666464489" lon="12.070999438646892"><ele>65.66666666666667</ele><time>2026-05-02T10:16:05Z</time></trkpt><trkpt lat="44.12322783650518" lon="12.071110154447872"><ele>65.83333333333333</ele><time>2026-05-02T10:16:08Z</time></trkpt><trkpt lat="44.12325258392981" lon="12.071208091612258"><ele>66.0</ele><time>2026-05-02T10:16:11Z</time></trkpt><trkpt lat="44.12327968686475" lon="12.071303851185887"><ele>66.0</ele><time>2026-05-02T10:16:14Z</time></trkpt><trkpt lat="44.12330123262092" lon="12.071401757107695"><ele>66.0</ele><time>2026-05-02T10:16:16.999Z</time></trkpt><trkpt lat="44.123324066826584" lon="12.071501198319535"><ele>66.0</ele><time>2026-05-02T10:16:19.999Z</time></trkpt><trkpt lat="44.12334829521536" lon="12.071599729577716"><ele>66.0</ele><time>2026-05-02T10:16:22.999Z</time></trkpt><trkpt lat="44.1233754059863" lon="12.071698033862539"><ele>66.0</ele><time>2026-05-02T10:16:25.999Z</time></trkpt><trkpt lat="44.123404739195315" lon="12.071793186852789"><ele>66.0</ele><time>2026-05-02T10:16:28.999Z</time></trkpt><trkpt lat="44.12342717259287" lon="12.071900961866946"><ele>66.66666666666667</ele><time>2026-05-02T10:16:31.999Z</time></trkpt><trkpt lat="44.1234617704842" lon="12.07201212439313"><ele>67.33333333333333</ele><time>2026-05-02T10:16:34.999Z</time></trkpt><trkpt lat="44.123485630423495" lon="12.072117207680494"><ele>68.0</ele><time>2026-05-02T10:16:37.999Z</time></trkpt><trkpt lat="44.123515730974745" lon="12.072218515938916"><ele>68.66666666666666</ele><time>2026-05-02T10:16:40.999Z</time></trkpt><trkpt lat="44.123537750403784" lon="12.072316107097576"><ele>69.33333333333333</ele><time>2026-05-02T10:16:43.999Z</time></trkpt><trkpt lat="44.123563779381115" lon="12.07240691467254"><ele>70.0</ele><time>2026-05-02T10:16:47Z</time></trkpt><trkpt lat="44.123584777587084" lon="12.072498250538228"><ele>70.42857142857143</ele><time>2026-05-02T10:16:50Z</time></trkpt><trkpt lat="44.1236201203388" lon="12.072588560403645"><ele>70.85714285714286</ele><time>2026-05-02T10:16:53Z</time></trkpt><trkpt lat="44.1236365579185" lon="12.072674658006099"><ele>71.28571428571428</ele><time>2026-05-02T10:16:56Z</time></trkpt><trkpt lat="44.123661504429236" lon="12.072758414839324"><ele>71.71428571428572</ele><time>2026-05-02T10:16:59Z</time></trkpt><trkpt lat="44.12369052148166" lon="12.07284156673264"><ele>72.14285714285714</ele><time>2026-05-02T10:17:02Z</time></trkpt><trkpt lat="44.12371667415683" lon="12.07293015427465"><ele>72.57142857142857</ele><time>2026-05-02T10:17:05Z</time></trkpt><trkpt lat="44.123746924501496" lon="12.073039898461165"><ele>73.0</ele><time>2026-05-02T10:17:09Z</time></trkpt><trkpt lat="44.12376949957741" lon="12.073129250431206"><ele>73.0</ele><time>2026-05-02T10:17:12Z</time></trkpt><trkpt lat="44.12379916121198" lon="12.073238209844956"><ele>73.0</ele><time>2026-05-02T10:17:16Z</time></trkpt><trkpt lat="44.12381949313008" lon="12.073336689965723"><ele>73.0</ele><time>2026-05-02T10:17:19Z</time></trkpt><trkpt lat="44.12385286042041" lon="12.0734269540518"><ele>73.0</ele><time>2026-05-02T10:17:22Z</time></trkpt><trkpt lat="44.123871156114625" lon="12.07353101230964"><ele>73.0</ele><time>2026-05-02T10:17:25Z</time></trkpt><trkpt lat="44.123896199825204" lon="12.07362853634405"><ele>73.0</ele><time>2026-05-02T10:17:28Z</time></trkpt><trkpt lat="44.12392152112759" lon="12.073741561390712"><ele>73.33333333333333</ele><time>2026-05-02T10:17:31Z</time></trkpt><trkpt lat="44.123945720766805" lon="12.073844794313025"><ele>73.66666666666666</ele><time>2026-05-02T10:17:34Z</time></trkpt><trkpt lat="44.12397237463053" lon="12.073951853829147"><ele>74.0</ele><time>2026-05-02T10:17:37Z</time></trkpt><trkpt lat="44.12399821853831" lon="12.074059009626577"><ele>74.33333333333333</ele><time>2026-05-02T10:17:40Z</time></trkpt><trkpt lat="44.12403248580105" lon="12.07416791562122"><ele>74.66666666666667</ele><time>2026-05-02T10:17:43Z</time></trkpt><trkpt lat="44.12405448076402" lon="12.074285664079975"><ele>75.0</ele><time>2026-05-02T10:17:46Z</time></trkpt><trkpt lat="44.12408469607132" lon="12.074404971938309"><ele>75.0</ele><time>2026-05-02T10:17:49Z</time></trkpt><trkpt lat="44.124116321261035" lon="12.074517196379249"><ele>75.0</ele><time>2026-05-02T10:17:52Z</time></trkpt><trkpt lat="44.1241415023605" lon="12.074623136613779"><ele>75.0</ele><time>2026-05-02T10:17:55Z</time></trkpt><trkpt lat="44.124166406080256" lon="12.074731002351806"><ele>75.0</ele><time>2026-05-02T10:17:58Z</time></trkpt><trkpt lat="44.12419071461717" lon="12.074838680840477"><ele>75.0</ele><time>2026-05-02T10:18:01Z</time></trkpt><trkpt lat="44.12421805134571" lon="12.074941995057381"><ele>75.0</ele><time>2026-05-02T10:18:04Z</time></trkpt><trkpt lat="44.124248604068555" lon="12.075041121521588"><ele>75.83333333333333</ele><time>2026-05-02T10:18:07Z</time></trkpt><trkpt lat="44.124277807298114" lon="12.075148130310058"><ele>76.66666666666667</ele><time>2026-05-02T10:18:10Z</time></trkpt><trkpt lat="44.124303659313256" lon="12.075261799617305"><ele>77.5</ele><time>2026-05-02T10:18:13Z</time></trkpt><trkpt lat="44.124337123873374" lon="12.075369867516885"><ele>78.33333333333334</ele><time>2026-05-02T10:18:16Z</time></trkpt><trkpt lat="44.1243702176333" lon="12.075472986632414"><ele>79.16666666666667</ele><time>2026-05-02T10:18:18.999Z</time></trkpt><trkpt lat="44.12438984550981" lon="12.075586859230508"><ele>80.0</ele><time>2026-05-02T10:18:21.999Z</time></trkpt><trkpt lat="44.12442062709203" lon="12.07569504508161"><ele>81.0</ele><time>2026-05-02T10:18:24.999Z</time></trkpt><trkpt lat="44.124445879500435" lon="12.075808336507395"><ele>82.0</ele><time>2026-05-02T10:18:27.999Z</time></trkpt><trkpt lat="44.12447102603613" lon="12.075918689331417"><ele>83.0</ele><time>2026-05-02T10:18:30.999Z</time></trkpt><trkpt lat="44.124499354457214" lon="12.076027211289876"><ele>84.0</ele><time>2026-05-02T10:18:33.999Z</time></trkpt><trkpt lat="44.12452205217189" lon="12.076131634540133"><ele>85.0</ele><time>2026-05-02T10:18:36.999Z</time></trkpt><trkpt lat="44.1245528955072" lon="12.076237130850828"><ele>86.0</ele><time>2026-05-02T10:18:39.999Z</time></trkpt><trkpt lat="44.12458111863332" lon="12.076344608532692"><ele>86.0</ele><time>2026-05-02T10:18:42.999Z</time></trkpt><trkpt lat="44.12461039412377" lon="12.076453660184166"><ele>86.0</ele><time>2026-05-02T10:18:45.999Z</time></trkpt><trkpt lat="44.12463668601937" lon="12.076564754588397"><ele>86.0</ele><time>2026-05-02T10:18:48.999Z</time></trkpt><trkpt lat="44.124663556542735" lon="12.076664869900492"><ele>86.0</ele><time>2026-05-02T10:18:52Z</time></trkpt><trkpt lat="44.12469024253935" lon="12.076765569847463"><ele>86.0</ele><time>2026-05-02T10:18:55Z</time></trkpt><trkpt lat="44.124724013361444" lon="12.076857485608405"><ele>86.0</ele><time>2026-05-02T10:18:58Z</time></trkpt><trkpt lat="44.124759101935794" lon="12.07693970141792"><ele>86.66666666666667</ele><time>2026-05-02T10:19:01Z</time></trkpt><trkpt lat="44.124804138018796" lon="12.077016914848153"><ele>87.33333333333334</ele><time>2026-05-02T10:19:04Z</time></trkpt><trkpt lat="44.12485473685845" lon="12.077090284331716"><ele>88.0</ele><time>2026-05-02T10:19:07Z</time></trkpt><trkpt lat="44.124908343060476" lon="12.077149774225678"><ele>88.66666666666667</ele><time>2026-05-02T10:19:10Z</time></trkpt><trkpt lat="44.12497981244404" lon="12.077199931705964"><ele>89.33333333333333</ele><time>2026-05-02T10:19:13Z</time></trkpt><trkpt lat="44.125051888612575" lon="12.077253792908401"><ele>90.0</ele><time>2026-05-02T10:19:16Z</time></trkpt><trkpt lat="44.12513400337732" lon="12.077276295554201"><ele>89.83333333333333</ele><time>2026-05-02T10:19:19Z</time></trkpt><trkpt lat="44.125219948123465" lon="12.077316503446347"><ele>89.66666666666667</ele><time>2026-05-02T10:19:22Z</time></trkpt><trkpt lat="44.12530267266534" lon="12.077347687534472"><ele>89.5</ele><time>2026-05-02T10:19:25Z</time></trkpt><trkpt lat="44.12538547329164" lon="12.077390046158529"><ele>89.33333333333334</ele><time>2026-05-02T10:19:28Z</time></trkpt><trkpt lat="44.125464243896104" lon="12.077426986284543"><ele>89.16666666666667</ele><time>2026-05-02T10:19:31Z</time></trkpt><trkpt lat="44.12554892601076" lon="12.077474101559583"><ele>89.0</ele><time>2026-05-02T10:19:34Z</time></trkpt><trkpt lat="44.12561834479121" lon="12.077499864734772"><ele>89.0</ele><time>2026-05-02T10:19:36Z</time></trkpt><trkpt lat="44.12569327761371" lon="12.077532770327469"><ele>89.0</ele><time>2026-05-02T10:19:38Z</time></trkpt><trkpt lat="44.12576673199349" lon="12.07755828075693"><ele>89.0</ele><time>2026-05-02T10:19:40Z</time></trkpt><trkpt lat="44.12585281574917" lon="12.07759859823506"><ele>89.0</ele><time>2026-05-02T10:19:42Z</time></trkpt><trkpt lat="44.125944661187404" lon="12.077635292768147"><ele>89.0</ele><time>2026-05-02T10:19:44Z</time></trkpt><trkpt lat="44.12604122553166" lon="12.077679235648334"><ele>89.0</ele><time>2026-05-02T10:19:46Z</time></trkpt><trkpt lat="44.1261488167786" lon="12.077719038353028"><ele>88.5</ele><time>2026-05-02T10:19:48Z</time></trkpt><trkpt lat="44.12626313913499" lon="12.07776325432457"><ele>88.0</ele><time>2026-05-02T10:19:50Z</time></trkpt><trkpt lat="44.12638129959129" lon="12.0778120289022"><ele>87.5</ele><time>2026-05-02T10:19:52Z</time></trkpt><trkpt lat="44.126442327368714" lon="12.077836525781697"><ele>87.0</ele><time>2026-05-02T10:19:53Z</time></trkpt><trkpt lat="44.12650518843342" lon="12.077857203999264"><ele>86.5</ele><time>2026-05-02T10:19:54Z</time></trkpt><trkpt lat="44.126568531705864" lon="12.077877798646401"><ele>86.0</ele><time>2026-05-02T10:19:55Z</time></trkpt><trkpt lat="44.1266326905466" lon="12.07790446015819"><ele>85.28571428571429</ele><time>2026-05-02T10:19:56Z</time></trkpt><trkpt lat="44.12669793216525" lon="12.077925397232297"><ele>84.57142857142857</ele><time>2026-05-02T10:19:57Z</time></trkpt><trkpt lat="44.126765410220806" lon="12.077947832838568"><ele>83.85714285714286</ele><time>2026-05-02T10:19:58Z</time></trkpt><trkpt lat="44.126833672657725" lon="12.077981134577339"><ele>83.14285714285714</ele><time>2026-05-02T10:19:59Z</time></trkpt><trkpt lat="44.126902019578964" lon="12.078013999420318"><ele>82.42857142857143</ele><time>2026-05-02T10:20:00Z</time></trkpt><trkpt lat="44.12697369025167" lon="12.078041529351596"><ele>81.71428571428572</ele><time>2026-05-02T10:20:01Z</time></trkpt><trkpt lat="44.127047363853094" lon="12.07807184814616"><ele>81.0</ele><time>2026-05-02T10:20:02Z</time></trkpt><trkpt lat="44.12711827187589" lon="12.078107612615518"><ele>81.0</ele><time>2026-05-02T10:20:03Z</time></trkpt><trkpt lat="44.12719204148128" lon="12.078142501641338"><ele>81.0</ele><time>2026-05-02T10:20:04Z</time></trkpt><trkpt lat="44.12726698157116" lon="12.078174039069598"><ele>81.0</ele><time>2026-05-02T10:20:05Z</time></trkpt><trkpt lat="44.127338759160246" lon="12.078215225297924"><ele>81.0</ele><time>2026-05-02T10:20:06Z</time></trkpt><trkpt lat="44.12740188572594" lon="12.078278344946938"><ele>81.0</ele><time>2026-05-02T10:20:07Z</time></trkpt><trkpt lat="44.12746256340475" lon="12.078350308140873"><ele>81.0</ele><time>2026-05-02T10:20:08Z</time></trkpt><trkpt lat="44.127517054638155" lon="12.078430224266798"><ele>80.33333333333333</ele><time>2026-05-02T10:20:08.999Z</time></trkpt><trkpt lat="44.1275698415303" lon="12.078515604868977"><ele>79.66666666666667</ele><time>2026-05-02T10:20:09.999Z</time></trkpt><trkpt lat="44.127621295845465" lon="12.078599577124002"><ele>79.0</ele><time>2026-05-02T10:20:10.999Z</time></trkpt><trkpt lat="44.12767551103666" lon="12.078678433979219"><ele>78.33333333333334</ele><time>2026-05-02T10:20:11.999Z</time></trkpt><trkpt lat="44.12773145404806" lon="12.078755645886243"><ele>77.66666666666667</ele><time>2026-05-02T10:20:12.999Z</time></trkpt><trkpt lat="44.127785792100255" lon="12.07883771010614"><ele>77.0</ele><time>2026-05-02T10:20:13.999Z</time></trkpt><trkpt lat="44.12783585418973" lon="12.078921540489846"><ele>77.0</ele><time>2026-05-02T10:20:14.999Z</time></trkpt><trkpt lat="44.127889541435216" lon="12.078997488336318"><ele>77.0</ele><time>2026-05-02T10:20:15.999Z</time></trkpt><trkpt lat="44.127943976114864" lon="12.079076735063088"><ele>77.0</ele><time>2026-05-02T10:20:16.999Z</time></trkpt><trkpt lat="44.127998983076466" lon="12.079153903504855"><ele>77.0</ele><time>2026-05-02T10:20:17.999Z</time></trkpt><trkpt lat="44.12805511499308" lon="12.079234195784249"><ele>77.0</ele><time>2026-05-02T10:20:18.999Z</time></trkpt><trkpt lat="44.128112025027654" lon="12.079312351611692"><ele>77.0</ele><time>2026-05-02T10:20:19.999Z</time></trkpt><trkpt lat="44.12816670528179" lon="12.079390330170883"><ele>76.16666666666667</ele><time>2026-05-02T10:20:20.999Z</time></trkpt><trkpt lat="44.12822234399022" lon="12.079471083822787"><ele>75.33333333333334</ele><time>2026-05-02T10:20:21.999Z</time></trkpt><trkpt lat="44.12827496161662" lon="12.079555006201021"><ele>74.5</ele><time>2026-05-02T10:20:22.999Z</time></trkpt><trkpt lat="44.12833260728447" lon="12.079636303278976"><ele>73.66666666666667</ele><time>2026-05-02T10:20:23.999Z</time></trkpt><trkpt lat="44.12839506537087" lon="12.079715469075722"><ele>72.83333333333333</ele><time>2026-05-02T10:20:24.999Z</time></trkpt><trkpt lat="44.12845604294784" lon="12.07980135051132"><ele>72.0</ele><time>2026-05-02T10:20:25.999Z</time></trkpt><trkpt lat="44.128509389041625" lon="12.079904611842487"><ele>72.5</ele><time>2026-05-02T10:20:26.999Z</time></trkpt><trkpt lat="44.128579936887284" lon="12.079976008040898"><ele>73.0</ele><time>2026-05-02T10:20:27.999Z</time></trkpt><trkpt lat="44.128639712499606" lon="12.080062681134772"><ele>73.5</ele><time>2026-05-02T10:20:28.999Z</time></trkpt><trkpt lat="44.12870222079121" lon="12.080150651620928"><ele>74.0</ele><time>2026-05-02T10:20:29.999Z</time></trkpt><trkpt lat="44.12875964139542" lon="12.08024241253008"><ele>74.5</ele><time>2026-05-02T10:20:30.999Z</time></trkpt><trkpt lat="44.12882604934615" lon="12.080322750383228"><ele>75.0</ele><time>2026-05-02T10:20:31.999Z</time></trkpt><trkpt lat="44.12890780258122" lon="12.080378152440211"><ele>75.0</ele><time>2026-05-02T10:20:32.999Z</time></trkpt><trkpt lat="44.129000329934314" lon="12.080406486487062"><ele>75.0</ele><time>2026-05-02T10:20:33.999Z</time></trkpt><trkpt lat="44.12908747094051" lon="12.080424627508473"><ele>75.0</ele><time>2026-05-02T10:20:34.999Z</time></trkpt><trkpt lat="44.12916628666181" lon="12.080449914786668"><ele>75.0</ele><time>2026-05-02T10:20:35.999Z</time></trkpt><trkpt lat="44.129229432923125" lon="12.080521450782667"><ele>75.0</ele><time>2026-05-02T10:20:36.999Z</time></trkpt><trkpt lat="44.12929095682299" lon="12.080563613256055"><ele>75.0</ele><time>2026-05-02T10:20:37.999Z</time></trkpt><trkpt lat="44.12935952297011" lon="12.080629938652322"><ele>74.57142857142857</ele><time>2026-05-02T10:20:39.999Z</time></trkpt><trkpt lat="44.1293870602208" lon="12.08070899090356"><ele>74.14285714285714</ele><time>2026-05-02T10:20:45.999Z</time></trkpt><trkpt lat="44.129346299584654" lon="12.080788777798523"><ele>73.71428571428572</ele><time>2026-05-02T10:20:50.999Z</time></trkpt><trkpt lat="44.12935221890689" lon="12.080887098920346"><ele>73.28571428571428</ele><time>2026-05-02T10:20:55.999Z</time></trkpt><trkpt lat="44.129332309420455" lon="12.080977254225749"><ele>72.85714285714286</ele><time>2026-05-02T10:21:01Z</time></trkpt><trkpt lat="44.1293220523072" lon="12.081078469786034"><ele>72.42857142857143</ele><time>2026-05-02T10:21:07Z</time></trkpt><trkpt lat="44.129316075772145" lon="12.081175939010045"><ele>72.0</ele><time>2026-05-02T10:21:13Z</time></trkpt><trkpt lat="44.12930174322312" lon="12.081271912049557"><ele>72.00000000000001</ele><time>2026-05-02T10:21:19Z</time></trkpt><trkpt lat="44.129291699788226" lon="12.081363876998717"><ele>72.0</ele><time>2026-05-02T10:21:25Z</time></trkpt><trkpt lat="44.129283229685804" lon="12.081456771758395"><ele>72.0</ele><time>2026-05-02T10:21:31Z</time></trkpt><trkpt lat="44.12927722692481" lon="12.081549124344798"><ele>72.0</ele><time>2026-05-02T10:21:37Z</time></trkpt><trkpt lat="44.12926737932992" lon="12.081639692460676"><ele>72.0</ele><time>2026-05-02T10:21:43Z</time></trkpt><trkpt lat="44.12926018478272" lon="12.081730801196516"><ele>72.00000000000001</ele><time>2026-05-02T10:21:49Z</time></trkpt><trkpt lat="44.12924319146219" lon="12.081824272861192"><ele>72.0</ele><time>2026-05-02T10:21:56Z</time></trkpt><trkpt lat="44.12924332010706" lon="12.081914183960821"><ele>72.57142857142858</ele><time>2026-05-02T10:22:03Z</time></trkpt><trkpt lat="44.12921774720191" lon="12.082005411661568"><ele>73.14285714285714</ele><time>2026-05-02T10:22:10Z</time></trkpt><trkpt lat="44.12918683055712" lon="12.08209147614086"><ele>73.71428571428572</ele><time>2026-05-02T10:22:16Z</time></trkpt><trkpt lat="44.12915198200489" lon="12.08218162038928"><ele>74.28571428571429</ele><time>2026-05-02T10:22:22.999Z</time></trkpt><trkpt lat="44.12912239236567" lon="12.082264334238037"><ele>74.85714285714286</ele><time>2026-05-02T10:22:28.999Z</time></trkpt><trkpt lat="44.12908745341976" lon="12.082339928253486"><ele>75.42857142857143</ele><time>2026-05-02T10:22:34.999Z</time></trkpt><trkpt lat="44.129057820660556" lon="12.082429908168091"><ele>76.0</ele><time>2026-05-02T10:22:40.999Z</time></trkpt><trkpt lat="44.12900614025782" lon="12.082501428371968"><ele>76.42857142857143</ele><time>2026-05-02T10:22:46.999Z</time></trkpt><trkpt lat="44.12895961729662" lon="12.082579707096713"><ele>76.85714285714286</ele><time>2026-05-02T10:22:51.999Z</time></trkpt><trkpt lat="44.12890407113714" lon="12.082636712044742"><ele>77.28571428571429</ele><time>2026-05-02T10:22:55.999Z</time></trkpt><trkpt lat="44.1288499774265" lon="12.08270234447087"><ele>77.71428571428572</ele><time>2026-05-02T10:22:59.999Z</time></trkpt><trkpt lat="44.128812882608166" lon="12.082783889452621"><ele>78.14285714285714</ele><time>2026-05-02T10:23:05Z</time></trkpt><trkpt lat="44.128785561525866" lon="12.082873763794568"><ele>78.57142857142858</ele><time>2026-05-02T10:23:10Z</time></trkpt><trkpt lat="44.128774236897044" lon="12.082972230347057"><ele>79.0</ele><time>2026-05-02T10:23:16Z</time></trkpt><trkpt lat="44.12877473428002" lon="12.083065499240746"><ele>79.00000000000001</ele><time>2026-05-02T10:23:21Z</time></trkpt><trkpt lat="44.12878506856772" lon="12.083152280035184"><ele>79.0</ele><time>2026-05-02T10:23:26Z</time></trkpt><trkpt lat="44.128786922688974" lon="12.083249625852948"><ele>79.0</ele><time>2026-05-02T10:23:31Z</time></trkpt><trkpt lat="44.12878657316579" lon="12.083343364427725"><ele>79.0</ele><time>2026-05-02T10:23:36Z</time></trkpt><trkpt lat="44.12878824333777" lon="12.083437949712417"><ele>79.0</ele><time>2026-05-02T10:23:40Z</time></trkpt><trkpt lat="44.128776603122304" lon="12.083527235287521"><ele>79.00000000000001</ele><time>2026-05-02T10:23:44Z</time></trkpt><trkpt lat="44.12876895925039" lon="12.083621998561869"><ele>79.0</ele><time>2026-05-02T10:23:48Z</time></trkpt><trkpt lat="44.12875078597151" lon="12.083720286079378"><ele>79.85714285714286</ele><time>2026-05-02T10:23:52Z</time></trkpt><trkpt lat="44.128734547698215" lon="12.083819229149588"><ele>80.71428571428572</ele><time>2026-05-02T10:23:56Z</time></trkpt><trkpt lat="44.12870132548545" lon="12.08391509457332"><ele>81.57142857142858</ele><time>2026-05-02T10:24:00Z</time></trkpt><trkpt lat="44.12867291686331" lon="12.084021042113557"><ele>82.42857142857143</ele><time>2026-05-02T10:24:04Z</time></trkpt><trkpt lat="44.12864768135466" lon="12.08410833868924"><ele>83.28571428571428</ele><time>2026-05-02T10:24:09Z</time></trkpt><trkpt lat="44.128630832850604" lon="12.084203598231824"><ele>84.14285714285715</ele><time>2026-05-02T10:24:15Z</time></trkpt><trkpt lat="44.128609834656224" lon="12.08429397220056"><ele>85.0</ele><time>2026-05-02T10:24:21Z</time></trkpt><trkpt lat="44.12860644717015" lon="12.08438693237308"><ele>86.42857142857143</ele><time>2026-05-02T10:24:27Z</time></trkpt><trkpt lat="44.12859913625958" lon="12.0844895751092"><ele>87.85714285714285</ele><time>2026-05-02T10:24:32.999Z</time></trkpt><trkpt lat="44.12859438604829" lon="12.084583120923185"><ele>89.28571428571428</ele><time>2026-05-02T10:24:37.999Z</time></trkpt><trkpt lat="44.12858763431472" lon="12.084678037073111"><ele>90.71428571428572</ele><time>2026-05-02T10:24:42.999Z</time></trkpt><trkpt lat="44.12858030513431" lon="12.084765968801232"><ele>92.14285714285714</ele><time>2026-05-02T10:24:47.999Z</time></trkpt><trkpt lat="44.12856276773488" lon="12.084856709728845"><ele>93.57142857142857</ele><time>2026-05-02T10:24:52.999Z</time></trkpt><trkpt lat="44.12853808176109" lon="12.084941568967386"><ele>95.0</ele><time>2026-05-02T10:24:57.999Z</time></trkpt><trkpt lat="44.12851371279588" lon="12.085034990156705"><ele>96.42857142857143</ele><time>2026-05-02T10:25:02.999Z</time></trkpt><trkpt lat="44.12849636898457" lon="12.085122577919943"><ele>97.85714285714286</ele><time>2026-05-02T10:25:08.999Z</time></trkpt><trkpt lat="44.128477602314426" lon="12.08521710288301"><ele>99.28571428571428</ele><time>2026-05-02T10:25:15Z</time></trkpt><trkpt lat="44.12846515653217" lon="12.085311135002286"><ele>100.71428571428572</ele><time>2026-05-02T10:25:21Z</time></trkpt><trkpt lat="44.12845528821771" lon="12.085398391127798"><ele>102.14285714285714</ele><time>2026-05-02T10:25:27Z</time></trkpt><trkpt lat="44.12844975656359" lon="12.085494630637813"><ele>103.57142857142857</ele><time>2026-05-02T10:25:33Z</time></trkpt><trkpt lat="44.1284486538058" lon="12.085582347622529"><ele>105.0</ele><time>2026-05-02T10:25:39Z</time></trkpt><trkpt lat="44.12844100173155" lon="12.085677827992614"><ele>106.14285714285714</ele><time>2026-05-02T10:25:45Z</time></trkpt><trkpt lat="44.12843466202604" lon="12.085768354977377"><ele>107.28571428571428</ele><time>2026-05-02T10:25:51Z</time></trkpt><trkpt lat="44.12842977428015" lon="12.08585910379109"><ele>108.42857142857143</ele><time>2026-05-02T10:25:57Z</time></trkpt><trkpt lat="44.12842233144843" lon="12.085948169561517"><ele>109.57142857142857</ele><time>2026-05-02T10:26:03Z</time></trkpt><trkpt lat="44.12841791353364" lon="12.086038867633174"><ele>110.71428571428571</ele><time>2026-05-02T10:26:09Z</time></trkpt><trkpt lat="44.12841759549185" lon="12.08612919975234"><ele>111.85714285714286</ele><time>2026-05-02T10:26:15Z</time></trkpt><trkpt lat="44.12841727074981" lon="12.086228428537124"><ele>113.0</ele><time>2026-05-02T10:26:22Z</time></trkpt><trkpt lat="44.128410530892346" lon="12.086328318503433"><ele>113.0</ele><time>2026-05-02T10:26:29Z</time></trkpt><trkpt lat="44.12840317348881" lon="12.086418034615084"><ele>113.0</ele><time>2026-05-02T10:26:34.999Z</time></trkpt><trkpt lat="44.12839994652663" lon="12.08651029016281"><ele>113.0</ele><time>2026-05-02T10:26:40.999Z</time></trkpt><trkpt lat="44.12839572547276" lon="12.086609081212176"><ele>113.0</ele><time>2026-05-02T10:26:47.999Z</time></trkpt><trkpt lat="44.12840175622234" lon="12.08670920918076"><ele>113.0</ele><time>2026-05-02T10:26:54.999Z</time></trkpt><trkpt lat="44.128399205113006" lon="12.086805508537706"><ele>113.0</ele><time>2026-05-02T10:27:00.999Z</time></trkpt><trkpt lat="44.128394588109174" lon="12.08690389784619"><ele>113.0</ele><time>2026-05-02T10:27:06.999Z</time></trkpt><trkpt lat="44.12839436269132" lon="12.087002229517983"><ele>114.42857142857143</ele><time>2026-05-02T10:27:12.999Z</time></trkpt><trkpt lat="44.12839754581432" lon="12.087103322455105"><ele>115.85714285714286</ele><time>2026-05-02T10:27:19Z</time></trkpt><trkpt lat="44.12842125838535" lon="12.08720176335681"><ele>117.28571428571429</ele><time>2026-05-02T10:27:25Z</time></trkpt><trkpt lat="44.128391733893295" lon="12.087292069922498"><ele>118.71428571428572</ele><time>2026-05-02T10:27:30Z</time></trkpt><trkpt lat="44.128379554922354" lon="12.087391464522266"><ele>120.14285714285714</ele><time>2026-05-02T10:27:34Z</time></trkpt><trkpt lat="44.12836325791709" lon="12.087495894966333"><ele>121.57142857142858</ele><time>2026-05-02T10:27:39Z</time></trkpt><trkpt lat="44.12835139607712" lon="12.087589377149682"><ele>123.00000000000001</ele><time>2026-05-02T10:27:44Z</time></trkpt><trkpt lat="44.12833827271016" lon="12.087677820820174"><ele>123.85714285714288</ele><time>2026-05-02T10:27:49Z</time></trkpt><trkpt lat="44.12832433725093" lon="12.087781344004961"><ele>124.71428571428572</ele><time>2026-05-02T10:27:55Z</time></trkpt><trkpt lat="44.12833249246794" lon="12.087876064171914"><ele>125.57142857142857</ele><time>2026-05-02T10:28:00Z</time></trkpt><trkpt lat="44.12833825977309" lon="12.087966471632814"><ele>126.42857142857143</ele><time>2026-05-02T10:28:05Z</time></trkpt><trkpt lat="44.128335131607614" lon="12.088057712297276"><ele>127.28571428571428</ele><time>2026-05-02T10:28:10Z</time></trkpt><trkpt lat="44.12834245448938" lon="12.088148239671112"><ele>128.14285714285714</ele><time>2026-05-02T10:28:14Z</time></trkpt><trkpt lat="44.128347910695254" lon="12.088241853817294"><ele>129.0</ele><time>2026-05-02T10:28:18Z</time></trkpt><trkpt lat="44.12836697909664" lon="12.088350814466281"><ele>130.0</ele><time>2026-05-02T10:28:22Z</time></trkpt><trkpt lat="44.12838883074231" lon="12.088438448652624"><ele>131.0</ele><time>2026-05-02T10:28:25Z</time></trkpt><trkpt lat="44.12841979430388" lon="12.088538635342278"><ele>132.0</ele><time>2026-05-02T10:28:28Z</time></trkpt><trkpt lat="44.128457101671245" lon="12.088626767785357"><ele>133.0</ele><time>2026-05-02T10:28:31Z</time></trkpt><trkpt lat="44.12849974161812" lon="12.088731579900985"><ele>134.0</ele><time>2026-05-02T10:28:34Z</time></trkpt><trkpt lat="44.1285463404981" lon="12.08882834244708"><ele>135.0</ele><time>2026-05-02T10:28:37Z</time></trkpt><trkpt lat="44.12857847034372" lon="12.088914538443145"><ele>135.0</ele><time>2026-05-02T10:28:39.999Z</time></trkpt><trkpt lat="44.12861574048632" lon="12.089008793181941"><ele>135.0</ele><time>2026-05-02T10:28:42.999Z</time></trkpt><trkpt lat="44.12865031424929" lon="12.089089363158669"><ele>135.0</ele><time>2026-05-02T10:28:45.999Z</time></trkpt><trkpt lat="44.12867626793336" lon="12.089201914263647"><ele>135.0</ele><time>2026-05-02T10:28:49.999Z</time></trkpt><trkpt lat="44.12870886628288" lon="12.089310997164558"><ele>135.0</ele><time>2026-05-02T10:28:53.999Z</time></trkpt><trkpt lat="44.12875961437798" lon="12.089381838767112"><ele>135.0</ele><time>2026-05-02T10:28:56.999Z</time></trkpt><trkpt lat="44.12877519439541" lon="12.089476742606974"><ele>135.57142857142856</ele><time>2026-05-02T10:29:00.999Z</time></trkpt><trkpt lat="44.12880827057218" lon="12.08957609687428"><ele>136.14285714285714</ele><time>2026-05-02T10:29:05.999Z</time></trkpt><trkpt lat="44.12884467680218" lon="12.08965398479178"><ele>136.71428571428572</ele><time>2026-05-02T10:29:08.999Z</time></trkpt><trkpt lat="44.128885026539166" lon="12.089725828805786"><ele>137.28571428571428</ele><time>2026-05-02T10:29:12.999Z</time></trkpt><trkpt lat="44.12893610169243" lon="12.08978885658815"><ele>137.85714285714286</ele><time>2026-05-02T10:29:17.999Z</time></trkpt><trkpt lat="44.128996269949475" lon="12.089850846346849"><ele>138.42857142857142</ele><time>2026-05-02T10:29:24Z</time></trkpt><trkpt lat="44.129030898743274" lon="12.089929243863704"><ele>139.0</ele><time>2026-05-02T10:29:30Z</time></trkpt><trkpt lat="44.129079992203806" lon="12.089992473038887"><ele>139.0</ele><time>2026-05-02T10:29:35Z</time></trkpt><trkpt lat="44.12912497954795" lon="12.090054931251743"><ele>139.0</ele><time>2026-05-02T10:29:40Z</time></trkpt><trkpt lat="44.12916549201948" lon="12.090131788987494"><ele>139.0</ele><time>2026-05-02T10:29:46Z</time></trkpt><trkpt lat="44.12921239334841" lon="12.090205716502572"><ele>139.0</ele><time>2026-05-02T10:29:52Z</time></trkpt><trkpt lat="44.12926286000295" lon="12.090282268988428"><ele>139.0</ele><time>2026-05-02T10:29:58Z</time></trkpt><trkpt lat="44.12931468468983" lon="12.09034384757988"><ele>139.0</ele><time>2026-05-02T10:30:03Z</time></trkpt><trkpt lat="44.129366522764144" lon="12.090422224901037"><ele>139.0</ele><time>2026-05-02T10:30:09Z</time></trkpt><trkpt lat="44.12939894118259" lon="12.090508313220623"><ele>139.0</ele><time>2026-05-02T10:30:15Z</time></trkpt><trkpt lat="44.12943271955314" lon="12.090591830819072"><ele>139.0</ele><time>2026-05-02T10:30:21Z</time></trkpt><trkpt lat="44.12945573297499" lon="12.090690296640929"><ele>139.0</ele><time>2026-05-02T10:30:27Z</time></trkpt><trkpt lat="44.1294524273122" lon="12.09077931573438"><ele>139.0</ele><time>2026-05-02T10:30:33Z</time></trkpt><trkpt lat="44.1294057621111" lon="12.09085129986642"><ele>139.0</ele><time>2026-05-02T10:30:38Z</time></trkpt><trkpt lat="44.12936425611188" lon="12.090926742602472"><ele>139.0</ele><time>2026-05-02T10:30:42.999Z</time></trkpt><trkpt lat="44.1293398099618" lon="12.091016406410308"><ele>139.0</ele><time>2026-05-02T10:30:47.999Z</time></trkpt><trkpt lat="44.12930026222299" lon="12.091096009684994"><ele>140.28571428571428</ele><time>2026-05-02T10:30:53.999Z</time></trkpt><trkpt lat="44.12926083695362" lon="12.091178905310016"><ele>141.57142857142858</ele><time>2026-05-02T10:30:59.999Z</time></trkpt><trkpt lat="44.12921881723486" lon="12.091248410508468"><ele>142.85714285714286</ele><time>2026-05-02T10:31:05.999Z</time></trkpt><trkpt lat="44.129183536196706" lon="12.091332594653103"><ele>144.14285714285714</ele><time>2026-05-02T10:31:11.999Z</time></trkpt><trkpt lat="44.12915385374364" lon="12.09142271674589"><ele>145.42857142857142</ele><time>2026-05-02T10:31:17.999Z</time></trkpt><trkpt lat="44.12913751062502" lon="12.091514812064949"><ele>146.71428571428572</ele><time>2026-05-02T10:31:23.999Z</time></trkpt><trkpt lat="44.129151780297484" lon="12.091607118439235"><ele>148.0</ele><time>2026-05-02T10:31:29Z</time></trkpt><trkpt lat="44.12918560266726" lon="12.091705148074361"><ele>149.14285714285714</ele><time>2026-05-02T10:31:33Z</time></trkpt><trkpt lat="44.12921308208963" lon="12.091788839615573"><ele>150.28571428571428</ele><time>2026-05-02T10:31:36Z</time></trkpt><trkpt lat="44.12924735577769" lon="12.09189109237936"><ele>151.42857142857144</ele><time>2026-05-02T10:31:39Z</time></trkpt><trkpt lat="44.12928520769677" lon="12.09199474552636"><ele>152.57142857142856</ele><time>2026-05-02T10:31:42Z</time></trkpt><trkpt lat="44.12931205593338" lon="12.092101733544371"><ele>153.7142857142857</ele><time>2026-05-02T10:31:46Z</time></trkpt><trkpt lat="44.1293408495333" lon="12.092181575346627"><ele>154.85714285714286</ele><time>2026-05-02T10:33:47Z</time></trkpt><trkpt lat="44.129348646875464" lon="12.092280128962368"><ele>156.0</ele><time>2026-05-02T10:33:52Z</time></trkpt><trkpt lat="44.12936706248751" lon="12.09238591272001"><ele>156.0</ele><time>2026-05-02T10:33:56Z</time></trkpt><trkpt lat="44.129381669075975" lon="12.09248235820118"><ele>156.0</ele><time>2026-05-02T10:33:59Z</time></trkpt><trkpt lat="44.12939593234109" lon="12.092575081582758"><ele>156.0</ele><time>2026-05-02T10:34:02Z</time></trkpt><trkpt lat="44.12942371949146" lon="12.092682972012703"><ele>156.0</ele><time>2026-05-02T10:34:06Z</time></trkpt><trkpt lat="44.129457191176826" lon="12.092758471449018"><ele>156.0</ele><time>2026-05-02T10:34:09Z</time></trkpt><trkpt lat="44.12954000373914" lon="12.092816298750252"><ele>156.0</ele><time>2026-05-02T10:34:12Z</time></trkpt><trkpt lat="44.12961839060716" lon="12.092852415235116"><ele>156.0</ele><time>2026-05-02T10:34:14Z</time></trkpt><trkpt lat="44.12970547290278" lon="12.0929176867804"><ele>156.0</ele><time>2026-05-02T10:34:16Z</time></trkpt><trkpt lat="44.12979971666202" lon="12.092970255298397"><ele>156.0</ele><time>2026-05-02T10:34:18Z</time></trkpt><trkpt lat="44.129888593449365" lon="12.093037542312496"><ele>156.0</ele><time>2026-05-02T10:34:20Z</time></trkpt><trkpt lat="44.129967881822594" lon="12.093133196148056"><ele>156.0</ele><time>2026-05-02T10:34:22Z</time></trkpt><trkpt lat="44.13004934271347" lon="12.093207041760763"><ele>155.33333333333334</ele><time>2026-05-02T10:34:24Z</time></trkpt><trkpt lat="44.13013132733658" lon="12.09328410493699"><ele>154.66666666666666</ele><time>2026-05-02T10:34:26Z</time></trkpt><trkpt lat="44.13021243368729" lon="12.093360342564408"><ele>154.0</ele><time>2026-05-02T10:34:28Z</time></trkpt><trkpt lat="44.13028802301102" lon="12.093431394366872"><ele>153.33333333333331</ele><time>2026-05-02T10:34:30Z</time></trkpt><trkpt lat="44.1303523337557" lon="12.093492855000251"><ele>152.66666666666666</ele><time>2026-05-02T10:34:32Z</time></trkpt><trkpt lat="44.130405081097464" lon="12.093543982292726"><ele>152.0</ele><time>2026-05-02T10:34:34Z</time></trkpt><trkpt lat="44.130472281305984" lon="12.093609118536511"><ele>152.0</ele><time>2026-05-02T10:34:37Z</time></trkpt><trkpt lat="44.130524523046766" lon="12.093659755741832"><ele>152.0</ele><time>2026-05-02T10:34:39Z</time></trkpt><trkpt lat="44.13058847190817" lon="12.093694890031719"><ele>152.0</ele><time>2026-05-02T10:34:41Z</time></trkpt><trkpt lat="44.13064588600664" lon="12.093760318532146"><ele>152.0</ele><time>2026-05-02T10:34:43Z</time></trkpt><trkpt lat="44.130723412875795" lon="12.093831284408909"><ele>152.0</ele><time>2026-05-02T10:34:46Z</time></trkpt><trkpt lat="44.13076999271004" lon="12.093902568691485"><ele>152.0</ele><time>2026-05-02T10:34:48Z</time></trkpt><trkpt lat="44.13085573109594" lon="12.093940156866338"><ele>151.83333333333331</ele><time>2026-05-02T10:34:50Z</time></trkpt><trkpt lat="44.130939936775874" lon="12.094029050949018"><ele>151.66666666666666</ele><time>2026-05-02T10:34:52Z</time></trkpt><trkpt lat="44.131039482755234" lon="12.094125778902516"><ele>151.5</ele><time>2026-05-02T10:34:54Z</time></trkpt><trkpt lat="44.13108879641825" lon="12.094187569510641"><ele>151.33333333333334</ele><time>2026-05-02T10:34:55Z</time></trkpt><trkpt lat="44.13114282807371" lon="12.094238707768216"><ele>151.16666666666669</ele><time>2026-05-02T10:34:56Z</time></trkpt><trkpt lat="44.13119741352499" lon="12.09429261136024"><ele>151.0</ele><time>2026-05-02T10:34:56.999Z</time></trkpt><trkpt lat="44.131252500691936" lon="12.094349723346701"><ele>151.0</ele><time>2026-05-02T10:34:57.999Z</time></trkpt><trkpt lat="44.13130815405796" lon="12.094401184787035"><ele>151.0</ele><time>2026-05-02T10:34:58.999Z</time></trkpt><trkpt lat="44.131351739993605" lon="12.094466192396736"><ele>151.0</ele><time>2026-05-02T10:34:59.999Z</time></trkpt><trkpt lat="44.13145234614212" lon="12.094564123369627"><ele>151.0</ele><time>2026-05-02T10:35:01.999Z</time></trkpt><trkpt lat="44.131544079789634" lon="12.094653417803087"><ele>151.0</ele><time>2026-05-02T10:35:03.999Z</time></trkpt><trkpt lat="44.13163911794317" lon="12.094723129666233"><ele>149.6</ele><time>2026-05-02T10:35:05.999Z</time></trkpt><trkpt lat="44.13171651312679" lon="12.094798482602954"><ele>148.2</ele><time>2026-05-02T10:35:07.999Z</time></trkpt><trkpt lat="44.1317961280911" lon="12.094878666225323"><ele>146.8</ele><time>2026-05-02T10:35:09.999Z</time></trkpt><trkpt lat="44.13187302556277" lon="12.094980755667304"><ele>145.4</ele><time>2026-05-02T10:35:11.999Z</time></trkpt><trkpt lat="44.131969095861585" lon="12.095076309868736"><ele>144.0</ele><time>2026-05-02T10:35:13.999Z</time></trkpt><trkpt lat="44.132023891525144" lon="12.095130655321706"><ele>144.0</ele><time>2026-05-02T10:35:14.999Z</time></trkpt><trkpt lat="44.13207555927436" lon="12.09518182024304"><ele>144.0</ele><time>2026-05-02T10:35:15.999Z</time></trkpt><trkpt lat="44.132129612096314" lon="12.095234698009202"><ele>144.0</ele><time>2026-05-02T10:35:16.999Z</time></trkpt><trkpt lat="44.13218211154536" lon="12.095286056161196"><ele>144.0</ele><time>2026-05-02T10:35:17.999Z</time></trkpt><trkpt lat="44.132282574202016" lon="12.095384334790198"><ele>144.0</ele><time>2026-05-02T10:35:19.999Z</time></trkpt><trkpt lat="44.13237705666268" lon="12.095473737335281"><ele>144.0</ele><time>2026-05-02T10:35:21.999Z</time></trkpt><trkpt lat="44.132480464787214" lon="12.095550205198503"><ele>144.4</ele><time>2026-05-02T10:35:23.999Z</time></trkpt><trkpt lat="44.132524720412725" lon="12.095612770680573"><ele>144.8</ele><time>2026-05-02T10:35:24.999Z</time></trkpt><trkpt lat="44.13262369290134" lon="12.095695895601438"><ele>145.2</ele><time>2026-05-02T10:35:26.999Z</time></trkpt><trkpt lat="44.13271241834368" lon="12.095768168681344"><ele>145.6</ele><time>2026-05-02T10:35:28.999Z</time></trkpt><trkpt lat="44.132789050017564" lon="12.095860707321352"><ele>146.0</ele><time>2026-05-02T10:35:30.999Z</time></trkpt><trkpt lat="44.1328706167868" lon="12.095939243586324"><ele>145.2</ele><time>2026-05-02T10:35:32.999Z</time></trkpt><trkpt lat="44.13294947854364" lon="12.095992076943805"><ele>144.39999999999998</ele><time>2026-05-02T10:35:34.999Z</time></trkpt><trkpt lat="44.133017427754" lon="12.096058538530198"><ele>143.6</ele><time>2026-05-02T10:35:36.999Z</time></trkpt><trkpt lat="44.13308198340812" lon="12.096146158552067"><ele>142.79999999999998</ele><time>2026-05-02T10:35:38.999Z</time></trkpt><trkpt lat="44.133154395226434" lon="12.096214636947156"><ele>142.0</ele><time>2026-05-02T10:35:41Z</time></trkpt><trkpt lat="44.133246520645905" lon="12.096277525616378"><ele>141.6</ele><time>2026-05-02T10:35:43Z</time></trkpt><trkpt lat="44.13332274527709" lon="12.096347591256286"><ele>141.2</ele><time>2026-05-02T10:35:45Z</time></trkpt><trkpt lat="44.13339602117429" lon="12.096419283513868"><ele>140.8</ele><time>2026-05-02T10:35:47Z</time></trkpt><trkpt lat="44.13346426099248" lon="12.096488544696355"><ele>140.4</ele><time>2026-05-02T10:35:49Z</time></trkpt><trkpt lat="44.133549949936565" lon="12.09656716661895"><ele>140.0</ele><time>2026-05-02T10:35:51Z</time></trkpt><trkpt lat="44.13362444387645" lon="12.096640237313622"><ele>140.0</ele><time>2026-05-02T10:35:53Z</time></trkpt><trkpt lat="44.133694146189846" lon="12.096705612069343"><ele>140.0</ele><time>2026-05-02T10:35:55Z</time></trkpt><trkpt lat="44.13376721889385" lon="12.096758353383834"><ele>140.0</ele><time>2026-05-02T10:35:57Z</time></trkpt><trkpt lat="44.13384637244113" lon="12.096820208721846"><ele>140.0</ele><time>2026-05-02T10:35:59Z</time></trkpt><trkpt lat="44.13394272417955" lon="12.09687797071012"><ele>140.0</ele><time>2026-05-02T10:36:01Z</time></trkpt><trkpt lat="44.13405961952067" lon="12.096942346303297"><ele>139.85714285714286</ele><time>2026-05-02T10:36:03Z</time></trkpt><trkpt lat="44.13412128943465" lon="12.096974069145954"><ele>139.71428571428572</ele><time>2026-05-02T10:36:04Z</time></trkpt><trkpt lat="44.13418785793207" lon="12.097002076716274"><ele>139.57142857142856</ele><time>2026-05-02T10:36:05Z</time></trkpt><trkpt lat="44.13425925401208" lon="12.097032390752466"><ele>139.42857142857144</ele><time>2026-05-02T10:36:06Z</time></trkpt><trkpt lat="44.13433516790571" lon="12.097055108895708"><ele>139.28571428571428</ele><time>2026-05-02T10:36:07Z</time></trkpt><trkpt lat="44.134412627446984" lon="12.097077972910158"><ele>139.14285714285714</ele><time>2026-05-02T10:36:08Z</time></trkpt><trkpt lat="44.134492978331764" lon="12.097096782931064"><ele>139.0</ele><time>2026-05-02T10:36:09Z</time></trkpt><trkpt lat="44.134570690704216" lon="12.097108253541077"><ele>139.0</ele><time>2026-05-02T10:36:10Z</time></trkpt><trkpt lat="44.13465176565919" lon="12.097109187509089"><ele>139.0</ele><time>2026-05-02T10:36:11Z</time></trkpt><trkpt lat="44.13473534666164" lon="12.09709779368473"><ele>139.0</ele><time>2026-05-02T10:36:12Z</time></trkpt><trkpt lat="44.13482178224688" lon="12.097068896621177"><ele>139.0</ele><time>2026-05-02T10:36:13Z</time></trkpt><trkpt lat="44.134912008587506" lon="12.097028995746012"><ele>139.0</ele><time>2026-05-02T10:36:14Z</time></trkpt><trkpt lat="44.135009192543905" lon="12.096983497316664"><ele>137.25</ele><time>2026-05-02T10:36:15Z</time></trkpt><trkpt lat="44.13511299159986" lon="12.09694112964923"><ele>135.5</ele><time>2026-05-02T10:36:16Z</time></trkpt><trkpt lat="44.135222611241645" lon="12.096895243492147"><ele>133.75</ele><time>2026-05-02T10:36:17Z</time></trkpt><trkpt lat="44.1353371684448" lon="12.096848335849584"><ele>132.0</ele><time>2026-05-02T10:36:18Z</time></trkpt><trkpt lat="44.13545900860451" lon="12.096795298629532"><ele>132.0</ele><time>2026-05-02T10:36:19Z</time></trkpt><trkpt lat="44.13558166301644" lon="12.096741314129996"><ele>132.0</ele><time>2026-05-02T10:36:20Z</time></trkpt><trkpt lat="44.13570091607024" lon="12.09668778246395"><ele>132.0</ele><time>2026-05-02T10:36:21Z</time></trkpt><trkpt lat="44.13582073811684" lon="12.096634439211492"><ele>132.0</ele><time>2026-05-02T10:36:22Z</time></trkpt><trkpt lat="44.13594135201829" lon="12.096587677072199"><ele>128.5</ele><time>2026-05-02T10:36:23Z</time></trkpt><trkpt lat="44.136057487598876" lon="12.096537419668863"><ele>125.0</ele><time>2026-05-02T10:36:24Z</time></trkpt><trkpt lat="44.13616504956937" lon="12.09648856440422"><ele>121.5</ele><time>2026-05-02T10:36:25Z</time></trkpt><trkpt lat="44.136280609204476" lon="12.096479075288888"><ele>118.0</ele><time>2026-05-02T10:36:26Z</time></trkpt><trkpt lat="44.136399331518284" lon="12.09643836783715"><ele>118.0</ele><time>2026-05-02T10:36:27Z</time></trkpt><trkpt lat="44.13653096928833" lon="12.096429624998423"><ele>118.0</ele><time>2026-05-02T10:36:28Z</time></trkpt><trkpt lat="44.13666791878932" lon="12.096422686643614"><ele>118.0</ele><time>2026-05-02T10:36:29Z</time></trkpt><trkpt lat="44.13680137526131" lon="12.096417687885582"><ele>118.0</ele><time>2026-05-02T10:36:30Z</time></trkpt><trkpt lat="44.13693243937569" lon="12.096398590001733"><ele>115.5</ele><time>2026-05-02T10:36:31Z</time></trkpt><trkpt lat="44.13705169258752" lon="12.096394198650373"><ele>113.0</ele><time>2026-05-02T10:36:32Z</time></trkpt><trkpt lat="44.137170701226125" lon="12.096379115973285"><ele>110.5</ele><time>2026-05-02T10:36:33Z</time></trkpt><trkpt lat="44.13728676459297" lon="12.0963593519922"><ele>108.0</ele><time>2026-05-02T10:36:34Z</time></trkpt><trkpt lat="44.137403177624755" lon="12.096336100946116"><ele>106.2</ele><time>2026-05-02T10:36:35Z</time></trkpt><trkpt lat="44.13751666468651" lon="12.096299229773662"><ele>104.4</ele><time>2026-05-02T10:36:36Z</time></trkpt><trkpt lat="44.13761865056875" lon="12.096262604357195"><ele>102.60000000000001</ele><time>2026-05-02T10:36:37Z</time></trkpt><trkpt lat="44.137716559179665" lon="12.096219446897422"><ele>100.80000000000001</ele><time>2026-05-02T10:36:38Z</time></trkpt><trkpt lat="44.13781954030158" lon="12.096152904963418"><ele>99.0</ele><time>2026-05-02T10:36:39Z</time></trkpt><trkpt lat="44.137915226960736" lon="12.096062411222789"><ele>99.0</ele><time>2026-05-02T10:36:40Z</time></trkpt><trkpt lat="44.1380108528412" lon="12.09599405449755"><ele>99.0</ele><time>2026-05-02T10:36:41Z</time></trkpt><trkpt lat="44.1380887747447" lon="12.095884295826515"><ele>99.0</ele><time>2026-05-02T10:36:42Z</time></trkpt><trkpt lat="44.138190752017046" lon="12.095796613889272"><ele>99.0</ele><time>2026-05-02T10:36:43Z</time></trkpt><trkpt lat="44.1382989550171" lon="12.095735634052037"><ele>95.5</ele><time>2026-05-02T10:36:44Z</time></trkpt><trkpt lat="44.13841757871547" lon="12.09569704869327"><ele>92.0</ele><time>2026-05-02T10:36:45Z</time></trkpt><trkpt lat="44.138541763834425" lon="12.095669107489764"><ele>88.5</ele><time>2026-05-02T10:36:46Z</time></trkpt><trkpt lat="44.13867223424657" lon="12.095664656162734"><ele>85.0</ele><time>2026-05-02T10:36:47Z</time></trkpt><trkpt lat="44.138800044710145" lon="12.095668700383852"><ele>85.0</ele><time>2026-05-02T10:36:48Z</time></trkpt><trkpt lat="44.13892965501173" lon="12.095673802019338"><ele>85.0</ele><time>2026-05-02T10:36:49Z</time></trkpt><trkpt lat="44.13906197671468" lon="12.095689839103397"><ele>85.0</ele><time>2026-05-02T10:36:50Z</time></trkpt><trkpt lat="44.139189697283385" lon="12.095709048609107"><ele>85.0</ele><time>2026-05-02T10:36:51Z</time></trkpt><trkpt lat="44.13931906629319" lon="12.095719392400795"><ele>83.5</ele><time>2026-05-02T10:36:52Z</time></trkpt><trkpt lat="44.13944219808635" lon="12.095733424366731"><ele>82.0</ele><time>2026-05-02T10:36:53Z</time></trkpt><trkpt lat="44.139559420023744" lon="12.095750918432167"><ele>80.5</ele><time>2026-05-02T10:36:54Z</time></trkpt><trkpt lat="44.13967470452361" lon="12.095775143723603"><ele>79.0</ele><time>2026-05-02T10:36:55Z</time></trkpt><trkpt lat="44.1397856612411" lon="12.095788968254146"><ele>78.0</ele><time>2026-05-02T10:36:56Z</time></trkpt><trkpt lat="44.13989230332776" lon="12.09580889906077"><ele>77.0</ele><time>2026-05-02T10:36:57Z</time></trkpt><trkpt lat="44.13999546400608" lon="12.095833418293326"><ele>76.0</ele><time>2026-05-02T10:36:58Z</time></trkpt><trkpt lat="44.140097130921205" lon="12.095854135921206"><ele>75.0</ele><time>2026-05-02T10:36:59Z</time></trkpt><trkpt lat="44.14019684981348" lon="12.095874991281864"><ele>74.0</ele><time>2026-05-02T10:37:00Z</time></trkpt><trkpt lat="44.14028946431818" lon="12.095893777808882"><ele>74.0</ele><time>2026-05-02T10:37:01Z</time></trkpt><trkpt lat="44.14038332427087" lon="12.095907187774076"><ele>74.0</ele><time>2026-05-02T10:37:02Z</time></trkpt><trkpt lat="44.14046972501501" lon="12.095921274547853"><ele>74.0</ele><time>2026-05-02T10:37:03Z</time></trkpt><trkpt lat="44.14055628071465" lon="12.095923120844331"><ele>74.0</ele><time>2026-05-02T10:37:04Z</time></trkpt><trkpt lat="44.140635813444824" lon="12.095923146806895"><ele>74.0</ele><time>2026-05-02T10:37:05Z</time></trkpt><trkpt lat="44.140703722011835" lon="12.095917821603653"><ele>74.0</ele><time>2026-05-02T10:37:06Z</time></trkpt><trkpt lat="44.14088066289749" lon="12.095921440559161"><ele>73.0</ele><time>2026-05-02T10:37:07Z</time></trkpt><trkpt lat="44.140981401899886" lon="12.095926525809261"><ele>72.0</ele><time>2026-05-02T10:37:08Z</time></trkpt><trkpt lat="44.14108965334475" lon="12.095945213452795"><ele>71.0</ele><time>2026-05-02T10:37:09Z</time></trkpt><trkpt lat="44.14118418509" lon="12.095960115509135"><ele>70.0</ele><time>2026-05-02T10:37:10Z</time></trkpt><trkpt lat="44.14128170843932" lon="12.095975695230889"><ele>69.0</ele><time>2026-05-02T10:37:11Z</time></trkpt><trkpt lat="44.14137726828505" lon="12.096006105340738"><ele>69.0</ele><time>2026-05-02T10:37:11.999Z</time></trkpt><trkpt lat="44.14147052743123" lon="12.096019203613935"><ele>69.0</ele><time>2026-05-02T10:37:12.999Z</time></trkpt><trkpt lat="44.14154901220396" lon="12.096000427615088"><ele>69.0</ele><time>2026-05-02T10:37:13.999Z</time></trkpt><trkpt lat="44.1416299512116" lon="12.095946955563951"><ele>69.0</ele><time>2026-05-02T10:37:14.999Z</time></trkpt><trkpt lat="44.141710955759315" lon="12.095879388623855"><ele>69.0</ele><time>2026-05-02T10:37:15.999Z</time></trkpt><trkpt lat="44.14180096156545" lon="12.095844327186267"><ele>67.5</ele><time>2026-05-02T10:37:16.999Z</time></trkpt><trkpt lat="44.141872080435945" lon="12.095804072692243"><ele>66.0</ele><time>2026-05-02T10:37:17.999Z</time></trkpt><trkpt lat="44.141974631050076" lon="12.095723488175123"><ele>64.5</ele><time>2026-05-02T10:37:19.999Z</time></trkpt><trkpt lat="44.14205592895469" lon="12.095724978198534"><ele>63.0</ele><time>2026-05-02T10:37:22.999Z</time></trkpt><trkpt lat="44.14208836152658" lon="12.095806947748919"><ele>61.5</ele><time>2026-05-02T10:37:23.999Z</time></trkpt><trkpt lat="44.142138590702665" lon="12.09592417696677"><ele>60.0</ele><time>2026-05-02T10:37:25.999Z</time></trkpt><trkpt lat="44.142199762901555" lon="12.09604254182548"><ele>60.0</ele><time>2026-05-02T10:37:27.999Z</time></trkpt><trkpt lat="44.14225458614987" lon="12.096161057169617"><ele>60.0</ele><time>2026-05-02T10:37:29.999Z</time></trkpt><trkpt lat="44.1423239809148" lon="12.096290711350209"><ele>60.0</ele><time>2026-05-02T10:37:31.999Z</time></trkpt><trkpt lat="44.14239655760649" lon="12.096423435197627"><ele>60.0</ele><time>2026-05-02T10:37:33.999Z</time></trkpt><trkpt lat="44.14245494879742" lon="12.096560900656147"><ele>59.166666666666664</ele><time>2026-05-02T10:37:35.999Z</time></trkpt><trkpt lat="44.14250860243468" lon="12.096713428865055"><ele>58.33333333333333</ele><time>2026-05-02T10:37:37.999Z</time></trkpt><trkpt lat="44.14256146785938" lon="12.096867844369521"><ele>57.5</ele><time>2026-05-02T10:37:39.999Z</time></trkpt><trkpt lat="44.14258920906671" lon="12.096951560987753"><ele>56.666666666666664</ele><time>2026-05-02T10:37:40.999Z</time></trkpt><trkpt lat="44.14261681350163" lon="12.097034572277131"><ele>55.83333333333333</ele><time>2026-05-02T10:37:41.999Z</time></trkpt><trkpt lat="44.142644431701434" lon="12.097115722001265"><ele>55.0</ele><time>2026-05-02T10:37:42.999Z</time></trkpt><trkpt lat="44.14267421150056" lon="12.097194003576258"><ele>54.99999999999999</ele><time>2026-05-02T10:37:43.999Z</time></trkpt><trkpt lat="44.14270547750408" lon="12.097273177510502"><ele>55.0</ele><time>2026-05-02T10:37:44.999Z</time></trkpt><trkpt lat="44.142743410960584" lon="12.097345224964666"><ele>55.0</ele><time>2026-05-02T10:37:46Z</time></trkpt><trkpt lat="44.142773130075135" lon="12.097423011611063"><ele>55.0</ele><time>2026-05-02T10:37:47Z</time></trkpt><trkpt lat="44.14283111503484" lon="12.09756975194744"><ele>54.99999999999999</ele><time>2026-05-02T10:37:49Z</time></trkpt><trkpt lat="44.142902469131684" lon="12.09770639685951"><ele>55.0</ele><time>2026-05-02T10:37:51Z</time></trkpt><trkpt lat="44.142974624946305" lon="12.097847335606488"><ele>55.49999999999999</ele><time>2026-05-02T10:37:53Z</time></trkpt><trkpt lat="44.14304405229837" lon="12.097989225939479"><ele>56.0</ele><time>2026-05-02T10:37:55Z</time></trkpt><trkpt lat="44.143080156538296" lon="12.09806536513954"><ele>56.5</ele><time>2026-05-02T10:37:56Z</time></trkpt><trkpt lat="44.14312202756543" lon="12.098139122901186"><ele>57.0</ele><time>2026-05-02T10:37:57Z</time></trkpt><trkpt lat="44.1431599651093" lon="12.09821766318416"><ele>57.49999999999999</ele><time>2026-05-02T10:37:58Z</time></trkpt><trkpt lat="44.143202730586" lon="12.098292830187713"><ele>58.0</ele><time>2026-05-02T10:37:59Z</time></trkpt><trkpt lat="44.14322953592871" lon="12.098385664862217"><ele>57.14285714285715</ele><time>2026-05-02T10:38:00Z</time></trkpt><trkpt lat="44.1432815420052" lon="12.09845209789902"><ele>56.28571428571429</ele><time>2026-05-02T10:38:01Z</time></trkpt><trkpt lat="44.143324289543" lon="12.098533942109393"><ele>55.42857142857143</ele><time>2026-05-02T10:38:02Z</time></trkpt><trkpt lat="44.14336693152684" lon="12.098617305308995"><ele>54.57142857142858</ele><time>2026-05-02T10:38:03Z</time></trkpt><trkpt lat="44.1434120253456" lon="12.098698904881134"><ele>53.71428571428572</ele><time>2026-05-02T10:38:04Z</time></trkpt><trkpt lat="44.143458318094126" lon="12.0987813646738"><ele>52.857142857142854</ele><time>2026-05-02T10:38:05Z</time></trkpt><trkpt lat="44.14350444336384" lon="12.098867957064789"><ele>52.0</ele><time>2026-05-02T10:38:06Z</time></trkpt><trkpt lat="44.14355656977667" lon="12.098954777873766"><ele>52.0</ele><time>2026-05-02T10:38:07Z</time></trkpt><trkpt lat="44.143604731779455" lon="12.099052288689927"><ele>52.0</ele><time>2026-05-02T10:38:08Z</time></trkpt><trkpt lat="44.1436603312611" lon="12.099151145723505"><ele>52.0</ele><time>2026-05-02T10:38:09Z</time></trkpt><trkpt lat="44.143721204756616" lon="12.099253436409171"><ele>52.0</ele><time>2026-05-02T10:38:10Z</time></trkpt><trkpt lat="44.14376984759537" lon="12.099370919909562"><ele>52.0</ele><time>2026-05-02T10:38:11Z</time></trkpt><trkpt lat="44.14382548330894" lon="12.099481573464134"><ele>51.666666666666664</ele><time>2026-05-02T10:38:12Z</time></trkpt><trkpt lat="44.14387203057614" lon="12.099593822888316"><ele>51.33333333333333</ele><time>2026-05-02T10:38:13Z</time></trkpt><trkpt lat="44.14391387852709" lon="12.099707516667362"><ele>51.0</ele><time>2026-05-02T10:38:14Z</time></trkpt><trkpt lat="44.14394745129276" lon="12.09982107653595"><ele>50.66666666666667</ele><time>2026-05-02T10:38:15Z</time></trkpt><trkpt lat="44.14396494417844" lon="12.099932865928029"><ele>50.333333333333336</ele><time>2026-05-02T10:38:16Z</time></trkpt><trkpt lat="44.14397312397908" lon="12.100047479478654"><ele>50.0</ele><time>2026-05-02T10:38:17Z</time></trkpt><trkpt lat="44.14397465071207" lon="12.100162068916669"><ele>49.714285714285715</ele><time>2026-05-02T10:38:18Z</time></trkpt><trkpt lat="44.14397279341223" lon="12.100267586160323"><ele>49.42857142857143</ele><time>2026-05-02T10:38:19Z</time></trkpt><trkpt lat="44.14396719229946" lon="12.10037244253869"><ele>49.14285714285714</ele><time>2026-05-02T10:38:20Z</time></trkpt><trkpt lat="44.14395916608357" lon="12.100476098396957"><ele>48.85714285714286</ele><time>2026-05-02T10:38:21Z</time></trkpt><trkpt lat="44.143950021145685" lon="12.100578383163235"><ele>48.57142857142857</ele><time>2026-05-02T10:38:22Z</time></trkpt><trkpt lat="44.14394057806928" lon="12.100673971975693"><ele>48.285714285714285</ele><time>2026-05-02T10:38:23Z</time></trkpt><trkpt lat="44.143946520529546" lon="12.100767857084044"><ele>48.0</ele><time>2026-05-02T10:38:24Z</time></trkpt><trkpt lat="44.14392306233965" lon="12.100932789407462"><ele>48.0</ele><time>2026-05-02T10:38:26Z</time></trkpt><trkpt lat="44.1439056006492" lon="12.101090887609598"><ele>48.0</ele><time>2026-05-02T10:38:28Z</time></trkpt><trkpt lat="44.14387148290256" lon="12.101229018037808"><ele>48.0</ele><time>2026-05-02T10:38:30Z</time></trkpt><trkpt lat="44.14385400236122" lon="12.10136137518445"><ele>48.0</ele><time>2026-05-02T10:38:32Z</time></trkpt><trkpt lat="44.14385159666393" lon="12.101478881023443"><ele>48.0</ele><time>2026-05-02T10:38:34Z</time></trkpt><trkpt lat="44.14384111540969" lon="12.101587978670947"><ele>48.666666666666664</ele><time>2026-05-02T10:38:36Z</time></trkpt><trkpt lat="44.143792418466234" lon="12.10165134562359"><ele>49.33333333333333</ele><time>2026-05-02T10:38:38Z</time></trkpt><trkpt lat="44.143712231672815" lon="12.101664479591818"><ele>50.0</ele><time>2026-05-02T10:38:42Z</time></trkpt><trkpt lat="44.14363171685884" lon="12.101648225226931"><ele>50.666666666666664</ele><time>2026-05-02T10:38:46Z</time></trkpt><trkpt lat="44.143559609147225" lon="12.101652124917294"><ele>51.33333333333333</ele><time>2026-05-02T10:38:49Z</time></trkpt><trkpt lat="44.143508314089395" lon="12.101773101396901"><ele>52.0</ele><time>2026-05-02T10:38:53Z</time></trkpt><trkpt lat="44.14354444585655" lon="12.101874349595649"><ele>51.99999999999999</ele><time>2026-05-02T10:38:57Z</time></trkpt><trkpt lat="44.14355773087409" lon="12.101984793040131"><ele>52.0</ele><time>2026-05-02T10:39:01Z</time></trkpt><trkpt lat="44.14360151910345" lon="12.10205517695383"><ele>52.0</ele><time>2026-05-02T10:39:04Z</time></trkpt><trkpt lat="44.14360887288502" lon="12.10216158919906"><ele>52.0</ele><time>2026-05-02T10:39:08Z</time></trkpt><trkpt lat="44.14365175520696" lon="12.102255779379112"><ele>51.99999999999999</ele><time>2026-05-02T10:39:12Z</time></trkpt><trkpt lat="44.143658789217454" lon="12.10237249881578"><ele>52.0</ele><time>2026-05-02T10:39:15.999Z</time></trkpt><trkpt lat="44.143673518055394" lon="12.102460964538007"><ele>52.666666666666664</ele><time>2026-05-02T10:39:18.999Z</time></trkpt><trkpt lat="44.14371725955919" lon="12.102561112645171"><ele>53.33333333333333</ele><time>2026-05-02T10:39:22.999Z</time></trkpt><trkpt lat="44.14372948173048" lon="12.102670480326086"><ele>54.0</ele><time>2026-05-02T10:39:26.999Z</time></trkpt><trkpt lat="44.143734554369345" lon="12.102783194992785"><ele>54.66666666666667</ele><time>2026-05-02T10:39:31.999Z</time></trkpt><trkpt lat="44.14375418882438" lon="12.10287575271302"><ele>55.333333333333336</ele><time>2026-05-02T10:39:34.999Z</time></trkpt><trkpt lat="44.14378844824707" lon="12.102965988195674"><ele>56.0</ele><time>2026-05-02T10:39:38.999Z</time></trkpt><trkpt lat="44.14380872429129" lon="12.103053782766215"><ele>56.0</ele><time>2026-05-02T10:39:42.999Z</time></trkpt><trkpt lat="44.14383197556181" lon="12.103145986336994"><ele>56.0</ele><time>2026-05-02T10:39:47.999Z</time></trkpt><trkpt lat="44.143855452665385" lon="12.103233042951082"><ele>56.0</ele><time>2026-05-02T10:39:52Z</time></trkpt><trkpt lat="44.143886870078916" lon="12.103317156074226"><ele>56.0</ele><time>2026-05-02T10:39:55Z</time></trkpt><trkpt lat="44.14390800922792" lon="12.103408655848881"><ele>56.0</ele><time>2026-05-02T10:39:58Z</time></trkpt><trkpt lat="44.14392973096591" lon="12.103492861548194"><ele>56.0</ele><time>2026-05-02T10:40:01Z</time></trkpt><trkpt lat="44.14395254245364" lon="12.10358508502326"><ele>56.0</ele><time>2026-05-02T10:40:05Z</time></trkpt><trkpt lat="44.14398293298207" lon="12.103668488662331"><ele>56.57142857142857</ele><time>2026-05-02T10:40:09Z</time></trkpt><trkpt lat="44.14399497306251" lon="12.103760940236201"><ele>57.14285714285714</ele><time>2026-05-02T10:40:14Z</time></trkpt><trkpt lat="44.14403127846143" lon="12.103834165181654"><ele>57.714285714285715</ele><time>2026-05-02T10:40:19Z</time></trkpt><trkpt lat="44.144082628000746" lon="12.103900404990311"><ele>58.285714285714285</ele><time>2026-05-02T10:40:24Z</time></trkpt><trkpt lat="44.144102143484204" lon="12.103995346398909"><ele>58.857142857142854</ele><time>2026-05-02T10:40:29Z</time></trkpt><trkpt lat="44.144143880301314" lon="12.104071555480198"><ele>59.42857142857143</ele><time>2026-05-02T10:40:34Z</time></trkpt><trkpt lat="44.14415709263542" lon="12.104170595318315"><ele>60.0</ele><time>2026-05-02T10:40:40Z</time></trkpt><trkpt lat="44.144186102696295" lon="12.104248968049465"><ele>61.0</ele><time>2026-05-02T10:40:46Z</time></trkpt><trkpt lat="44.14421893192905" lon="12.104331582713412"><ele>62.0</ele><time>2026-05-02T10:40:52Z</time></trkpt><trkpt lat="44.14423703075348" lon="12.104431979371038"><ele>63.0</ele><time>2026-05-02T10:40:58Z</time></trkpt><trkpt lat="44.144283495452356" lon="12.104509610044552"><ele>64.0</ele><time>2026-05-02T10:41:04Z</time></trkpt><trkpt lat="44.144259819259176" lon="12.104604995300214"><ele>65.0</ele><time>2026-05-02T10:41:09Z</time></trkpt><trkpt lat="44.14430735017993" lon="12.104673604153165"><ele>66.0</ele><time>2026-05-02T10:41:13Z</time></trkpt><trkpt lat="44.14433266064698" lon="12.10475744694211"><ele>67.0</ele><time>2026-05-02T10:41:17Z</time></trkpt><trkpt lat="44.14438343144446" lon="12.104840399623573"><ele>68.57142857142857</ele><time>2026-05-02T10:41:22Z</time></trkpt><trkpt lat="44.14440684324232" lon="12.104933458945096"><ele>70.14285714285714</ele><time>2026-05-02T10:41:25.999Z</time></trkpt><trkpt lat="44.14443839801003" lon="12.105020196738781"><ele>71.71428571428572</ele><time>2026-05-02T10:41:29.999Z</time></trkpt><trkpt lat="44.14446249999367" lon="12.105107902759055"><ele>73.28571428571428</ele><time>2026-05-02T10:41:33.999Z</time></trkpt><trkpt lat="44.144497326629995" lon="12.10519560791552"><ele>74.85714285714285</ele><time>2026-05-02T10:41:38.999Z</time></trkpt><trkpt lat="44.14452849141274" lon="12.105287495380365"><ele>76.42857142857143</ele><time>2026-05-02T10:41:43.999Z</time></trkpt><trkpt lat="44.144582260538144" lon="12.105346601350176"><ele>78.0</ele><time>2026-05-02T10:41:48.999Z</time></trkpt><trkpt lat="44.14464529239259" lon="12.105409381728826"><ele>78.0</ele><time>2026-05-02T10:41:53.999Z</time></trkpt><trkpt lat="44.14470735237177" lon="12.105445638929492"><ele>78.0</ele><time>2026-05-02T10:41:58Z</time></trkpt><trkpt lat="44.14476036984259" lon="12.105515236743225"><ele>78.0</ele><time>2026-05-02T10:42:02Z</time></trkpt><trkpt lat="44.144792378780586" lon="12.105592051506958"><ele>78.0</ele><time>2026-05-02T10:42:06Z</time></trkpt><trkpt lat="44.144851262103764" lon="12.10565345050582"><ele>78.0</ele><time>2026-05-02T10:42:10Z</time></trkpt><trkpt lat="44.14491298784287" lon="12.105701938950068"><ele>78.0</ele><time>2026-05-02T10:42:13Z</time></trkpt><trkpt lat="44.14497691967096" lon="12.105777082711487"><ele>78.0</ele><time>2026-05-02T10:42:17Z</time></trkpt><trkpt lat="44.14502333279482" lon="12.105837204220121"><ele>78.16666666666667</ele><time>2026-05-02T10:42:20Z</time></trkpt><trkpt lat="44.145095468743214" lon="12.105883719733043"><ele>78.33333333333333</ele><time>2026-05-02T10:42:23Z</time></trkpt><trkpt lat="44.14516339020648" lon="12.10596588938678"><ele>78.5</ele><time>2026-05-02T10:42:26Z</time></trkpt><trkpt lat="44.14524078844977" lon="12.106042581646978"><ele>78.66666666666666</ele><time>2026-05-02T10:42:29Z</time></trkpt><trkpt lat="44.145291719563986" lon="12.106108343398743"><ele>78.83333333333333</ele><time>2026-05-02T10:42:31Z</time></trkpt><trkpt lat="44.14535574575566" lon="12.10617815911099"><ele>79.0</ele><time>2026-05-02T10:42:33Z</time></trkpt><trkpt lat="44.145415983960945" lon="12.106274056735614"><ele>79.0</ele><time>2026-05-02T10:42:35Z</time></trkpt><trkpt lat="44.145490759441614" lon="12.106345182552879"><ele>79.0</ele><time>2026-05-02T10:42:37Z</time></trkpt><trkpt lat="44.14555243498699" lon="12.106422392596988"><ele>79.0</ele><time>2026-05-02T10:42:39Z</time></trkpt><trkpt lat="44.14561137500035" lon="12.106491298161059"><ele>79.0</ele><time>2026-05-02T10:42:41Z</time></trkpt><trkpt lat="44.14568760228726" lon="12.106523006443506"><ele>79.0</ele><time>2026-05-02T10:42:43Z</time></trkpt><trkpt lat="44.145772342983825" lon="12.106547222093303"><ele>79.0</ele><time>2026-05-02T10:42:45Z</time></trkpt><trkpt lat="44.145875604077666" lon="12.106561583956035"><ele>79.16666666666666</ele><time>2026-05-02T10:42:47Z</time></trkpt><trkpt lat="44.1459590705481" lon="12.106590575060418"><ele>79.33333333333333</ele><time>2026-05-02T10:42:49Z</time></trkpt><trkpt lat="44.14603976229712" lon="12.106617506987549"><ele>79.5</ele><time>2026-05-02T10:42:51Z</time></trkpt><trkpt lat="44.14611062128458" lon="12.106636140791943"><ele>79.66666666666667</ele><time>2026-05-02T10:42:53Z</time></trkpt><trkpt lat="44.14617892348204" lon="12.106670526111397"><ele>79.83333333333334</ele><time>2026-05-02T10:42:55Z</time></trkpt><trkpt lat="44.1462610010592" lon="12.106708199217362"><ele>80.0</ele><time>2026-05-02T10:42:58Z</time></trkpt><trkpt lat="44.14633839192603" lon="12.10675221013127"><ele>80.0</ele><time>2026-05-02T10:43:01Z</time></trkpt><trkpt lat="44.14640021725192" lon="12.1068066732297"><ele>80.0</ele><time>2026-05-02T10:43:04Z</time></trkpt><trkpt lat="44.14646993549754" lon="12.10686287518334"><ele>80.0</ele><time>2026-05-02T10:43:08Z</time></trkpt><trkpt lat="44.146526716050296" lon="12.106923417192776"><ele>80.0</ele><time>2026-05-02T10:43:12Z</time></trkpt><trkpt lat="44.146587752168564" lon="12.106974494097964"><ele>80.0</ele><time>2026-05-02T10:43:16Z</time></trkpt><trkpt lat="44.14664766452011" lon="12.107033927870383"><ele>80.0</ele><time>2026-05-02T10:43:20Z</time></trkpt><trkpt lat="44.146695476829386" lon="12.107097469208707"><ele>80.0</ele><time>2026-05-02T10:43:24Z</time></trkpt><trkpt lat="44.14675268732145" lon="12.107145718939924"><ele>80.0</ele><time>2026-05-02T10:43:28Z</time></trkpt><trkpt lat="44.14680444538317" lon="12.107203839921967"><ele>80.0</ele><time>2026-05-02T10:43:32Z</time></trkpt><trkpt lat="44.14685701220288" lon="12.107273430707835"><ele>80.0</ele><time>2026-05-02T10:43:36.999Z</time></trkpt><trkpt lat="44.1469076945726" lon="12.107338915473289"><ele>80.0</ele><time>2026-05-02T10:43:41.999Z</time></trkpt><trkpt lat="44.14696237396095" lon="12.107405043503027"><ele>80.0</ele><time>2026-05-02T10:43:46.999Z</time></trkpt><trkpt lat="44.14701903607291" lon="12.107474282290946"><ele>80.0</ele><time>2026-05-02T10:43:51.999Z</time></trkpt><trkpt lat="44.14707345634267" lon="12.107547860743225"><ele>80.0</ele><time>2026-05-02T10:43:57.999Z</time></trkpt><trkpt lat="44.14710448389112" lon="12.107636516518275"><ele>80.28571428571428</ele><time>2026-05-02T10:44:04Z</time></trkpt><trkpt lat="44.1471535755824" lon="12.10769992337202"><ele>80.57142857142857</ele><time>2026-05-02T10:44:09Z</time></trkpt><trkpt lat="44.147194979362595" lon="12.107775347819391"><ele>80.85714285714286</ele><time>2026-05-02T10:44:15Z</time></trkpt><trkpt lat="44.14724325620185" lon="12.107850991721772"><ele>81.14285714285714</ele><time>2026-05-02T10:44:21Z</time></trkpt><trkpt lat="44.147284856462306" lon="12.107928751508679"><ele>81.42857142857143</ele><time>2026-05-02T10:44:26Z</time></trkpt><trkpt lat="44.14732023962986" lon="12.108007502541849"><ele>81.71428571428571</ele><time>2026-05-02T10:44:30Z</time></trkpt><trkpt lat="44.14736432290847" lon="12.108086501090261"><ele>82.0</ele><time>2026-05-02T10:44:34Z</time></trkpt><trkpt lat="44.14740899109957" lon="12.108184203663319"><ele>82.85714285714285</ele><time>2026-05-02T10:44:38Z</time></trkpt><trkpt lat="44.147449277543366" lon="12.108265292671454"><ele>83.71428571428571</ele><time>2026-05-02T10:44:41Z</time></trkpt><trkpt lat="44.14748810106077" lon="12.108343666462734"><ele>84.57142857142857</ele><time>2026-05-02T10:44:44Z</time></trkpt><trkpt lat="44.14752765550505" lon="12.108438957058246"><ele>85.42857142857142</ele><time>2026-05-02T10:44:47Z</time></trkpt><trkpt lat="44.1475666943879" lon="12.108539314927896"><ele>86.28571428571428</ele><time>2026-05-02T10:44:50Z</time></trkpt><trkpt lat="44.14759813651599" lon="12.108640807507511"><ele>87.14285714285714</ele><time>2026-05-02T10:44:53Z</time></trkpt><trkpt lat="44.14760762724908" lon="12.108732071970902"><ele>88.0</ele><time>2026-05-02T10:44:56Z</time></trkpt><trkpt lat="44.14758111675484" lon="12.108828293220318"><ele>88.0</ele><time>2026-05-02T10:45:00Z</time></trkpt><trkpt lat="44.147671330565956" lon="12.108853756923908"><ele>88.0</ele><time>2026-05-02T10:45:14Z</time></trkpt><trkpt lat="44.14769116252519" lon="12.108978361834271"><ele>88.0</ele><time>2026-05-02T10:45:16Z</time></trkpt><trkpt lat="44.147700632113576" lon="12.109084047942433"><ele>88.0</ele><time>2026-05-02T10:45:18Z</time></trkpt><trkpt lat="44.14771964024511" lon="12.109185059068807"><ele>88.0</ele><time>2026-05-02T10:45:20Z</time></trkpt><trkpt lat="44.14774760775505" lon="12.109278244044159"><ele>88.0</ele><time>2026-05-02T10:45:22Z</time></trkpt><trkpt lat="44.147777198921446" lon="12.10937118614189"><ele>88.85714285714286</ele><time>2026-05-02T10:45:24Z</time></trkpt><trkpt lat="44.147817159723346" lon="12.109452356461135"><ele>89.71428571428571</ele><time>2026-05-02T10:45:26Z</time></trkpt><trkpt lat="44.14786577366917" lon="12.10951347503877"><ele>90.57142857142857</ele><time>2026-05-02T10:45:28Z</time></trkpt><trkpt lat="44.1479203933809" lon="12.109565336517509"><ele>91.42857142857143</ele><time>2026-05-02T10:45:31Z</time></trkpt><trkpt lat="44.147985857140576" lon="12.109630052709718"><ele>92.28571428571428</ele><time>2026-05-02T10:45:35Z</time></trkpt><trkpt lat="44.14803600197803" lon="12.109692081942978"><ele>93.14285714285714</ele><time>2026-05-02T10:45:39Z</time></trkpt><trkpt lat="44.14808659092262" lon="12.109759213661283"><ele>94.0</ele><time>2026-05-02T10:45:43.999Z</time></trkpt><trkpt lat="44.148143086388274" lon="12.109810840058879"><ele>94.0</ele><time>2026-05-02T10:45:48.999Z</time></trkpt><trkpt lat="44.14820094205909" lon="12.109871948051646"><ele>94.0</ele><time>2026-05-02T10:45:54.999Z</time></trkpt><trkpt lat="44.14825819296262" lon="12.109933903486764"><ele>94.0</ele><time>2026-05-02T10:46:00.999Z</time></trkpt><trkpt lat="44.14831519317764" lon="12.109993550934353"><ele>94.0</ele><time>2026-05-02T10:46:06.999Z</time></trkpt><trkpt lat="44.14835886583113" lon="12.110071334919294"><ele>94.0</ele><time>2026-05-02T10:46:13Z</time></trkpt><trkpt lat="44.14841111745075" lon="12.110125007005937"><ele>94.0</ele><time>2026-05-02T10:46:19Z</time></trkpt><trkpt lat="44.148472092402066" lon="12.110183365179227"><ele>94.0</ele><time>2026-05-02T10:46:26Z</time></trkpt><trkpt lat="44.14852565338415" lon="12.110235114962194"><ele>94.71428571428571</ele><time>2026-05-02T10:46:33Z</time></trkpt><trkpt lat="44.14857134451952" lon="12.110308742385607"><ele>95.42857142857142</ele><time>2026-05-02T10:46:40Z</time></trkpt><trkpt lat="44.14861845476982" lon="12.110369309316692"><ele>96.14285714285714</ele><time>2026-05-02T10:46:46Z</time></trkpt><trkpt lat="44.14867383827612" lon="12.110417526919026"><ele>96.85714285714286</ele><time>2026-05-02T10:46:52Z</time></trkpt><trkpt lat="44.14872916179744" lon="12.110475364225376"><ele>97.57142857142857</ele><time>2026-05-02T10:46:59Z</time></trkpt><trkpt lat="44.14877160762936" lon="12.110543114647355"><ele>98.28571428571429</ele><time>2026-05-02T10:47:06Z</time></trkpt><trkpt lat="44.14882290628492" lon="12.110594974043249"><ele>99.0</ele><time>2026-05-02T10:47:12Z</time></trkpt><trkpt lat="44.148871928660185" lon="12.110658694445307"><ele>99.0</ele><time>2026-05-02T10:47:20Z</time></trkpt><trkpt lat="44.14891504865302" lon="12.11072400940966"><ele>99.0</ele><time>2026-05-02T10:47:27Z</time></trkpt><trkpt lat="44.1489593957203" lon="12.110791792801537"><ele>99.0</ele><time>2026-05-02T10:47:35Z</time></trkpt><trkpt lat="44.149014692643135" lon="12.110845483010676"><ele>99.0</ele><time>2026-05-02T10:47:42.999Z</time></trkpt><trkpt lat="44.149062039107164" lon="12.1109175165425"><ele>99.0</ele><time>2026-05-02T10:47:50.999Z</time></trkpt><trkpt lat="44.14908803959551" lon="12.111010056772841"><ele>99.0</ele><time>2026-05-02T10:47:59.999Z</time></trkpt><trkpt lat="44.149131479336006" lon="12.111089343703586"><ele>99.0</ele><time>2026-05-02T10:48:07.999Z</time></trkpt><trkpt lat="44.14916941015089" lon="12.111166947024843"><ele>101.85714285714286</ele><time>2026-05-02T10:48:16Z</time></trkpt><trkpt lat="44.14920954153469" lon="12.111241436326715"><ele>104.71428571428571</ele><time>2026-05-02T10:48:24Z</time></trkpt><trkpt lat="44.149246694615925" lon="12.111313987514073"><ele>107.57142857142857</ele><time>2026-05-02T10:48:31Z</time></trkpt><trkpt lat="44.14928120896073" lon="12.111390145146029"><ele>110.42857142857143</ele><time>2026-05-02T10:48:38Z</time></trkpt><trkpt lat="44.14931775018716" lon="12.111471148704378"><ele>113.28571428571428</ele><time>2026-05-02T10:48:45Z</time></trkpt><trkpt lat="44.149353590214396" lon="12.11155209823302"><ele>116.14285714285714</ele><time>2026-05-02T10:48:53Z</time></trkpt><trkpt lat="44.14939024524793" lon="12.111633485352273"><ele>119.0</ele><time>2026-05-02T10:49:01Z</time></trkpt><trkpt lat="44.149424995619476" lon="12.111716460085539"><ele>120.14285714285714</ele><time>2026-05-02T10:49:09Z</time></trkpt><trkpt lat="44.14946275531358" lon="12.11179297536806"><ele>121.28571428571428</ele><time>2026-05-02T10:49:17Z</time></trkpt><trkpt lat="44.1494869042942" lon="12.111879283576956"><ele>122.42857142857143</ele><time>2026-05-02T10:49:24Z</time></trkpt><trkpt lat="44.149507233227524" lon="12.111968630370407"><ele>123.57142857142857</ele><time>2026-05-02T10:49:31Z</time></trkpt><trkpt lat="44.14953290182671" lon="12.112049499734216"><ele>124.71428571428571</ele><time>2026-05-02T10:49:38Z</time></trkpt><trkpt lat="44.14955735889609" lon="12.11213331890811"><ele>125.85714285714286</ele><time>2026-05-02T10:49:45Z</time></trkpt><trkpt lat="44.14958750123864" lon="12.112215442982308"><ele>127.0</ele><time>2026-05-02T10:49:52.999Z</time></trkpt><trkpt lat="44.149615627601385" lon="12.112301613072656"><ele>127.0</ele><time>2026-05-02T10:50:00.999Z</time></trkpt><trkpt lat="44.149640598923526" lon="12.112384349366243"><ele>127.0</ele><time>2026-05-02T10:50:07.999Z</time></trkpt><trkpt lat="44.14967240554161" lon="12.112469182224947"><ele>127.0</ele><time>2026-05-02T10:50:15.999Z</time></trkpt><trkpt lat="44.14973680809342" lon="12.112500251905697"><ele>127.0</ele><time>2026-05-02T10:50:24Z</time></trkpt><trkpt lat="44.14973778523526" lon="12.112594874015603"><ele>127.0</ele><time>2026-05-02T10:50:32Z</time></trkpt><trkpt lat="44.149742379012636" lon="12.112685028125464"><ele>127.0</ele><time>2026-05-02T10:50:41Z</time></trkpt><trkpt lat="44.14981039548335" lon="12.112718447135506"><ele>127.0</ele><time>2026-05-02T10:50:46Z</time></trkpt><trkpt lat="44.14986294239446" lon="12.112776182350395"><ele>130.33333333333334</ele><time>2026-05-02T10:50:52Z</time></trkpt><trkpt lat="44.149911341035406" lon="12.112847335989281"><ele>133.66666666666669</ele><time>2026-05-02T10:50:59Z</time></trkpt><trkpt lat="44.14992927239101" lon="12.112953737472084"><ele>137.0</ele><time>2026-05-02T10:51:05Z</time></trkpt><trkpt lat="44.14998959748554" lon="12.113052537007711"><ele>140.33333333333334</ele><time>2026-05-02T10:51:08Z</time></trkpt><trkpt lat="44.15003910303017" lon="12.113109417846442"><ele>143.66666666666666</ele><time>2026-05-02T10:51:09Z</time></trkpt><trkpt lat="44.150096526896284" lon="12.113165592256527"><ele>147.0</ele><time>2026-05-02T10:51:10Z</time></trkpt><trkpt lat="44.15016048883381" lon="12.113217603583996"><ele>145.79999999999998</ele><time>2026-05-02T10:51:11Z</time></trkpt><trkpt lat="44.150260870887145" lon="12.113286792756721"><ele>144.6</ele><time>2026-05-02T10:51:13Z</time></trkpt><trkpt lat="44.15036908764039" lon="12.113387122967389"><ele>143.39999999999998</ele><time>2026-05-02T10:51:15Z</time></trkpt><trkpt lat="44.150427338167226" lon="12.113444276119969"><ele>142.2</ele><time>2026-05-02T10:51:16Z</time></trkpt><trkpt lat="44.150480644621645" lon="12.113494462002372"><ele>141.0</ele><time>2026-05-02T10:51:17Z</time></trkpt><trkpt lat="44.15055311657323" lon="12.11359352351952"><ele>141.0</ele><time>2026-05-02T10:51:19Z</time></trkpt><trkpt lat="44.150570758577544" lon="12.113711128291587"><ele>141.0</ele><time>2026-05-02T10:51:21Z</time></trkpt><trkpt lat="44.15062632121669" lon="12.113811756348694"><ele>141.0</ele><time>2026-05-02T10:51:23Z</time></trkpt><trkpt lat="44.15069573710968" lon="12.113937669592246"><ele>141.0</ele><time>2026-05-02T10:51:25Z</time></trkpt><trkpt lat="44.15077720842231" lon="12.114088896293444"><ele>141.0</ele><time>2026-05-02T10:51:27Z</time></trkpt><trkpt lat="44.150822524682425" lon="12.11417173155963"><ele>138.0</ele><time>2026-05-02T10:51:28Z</time></trkpt><trkpt lat="44.15088069851784" lon="12.114252264434581"><ele>135.0</ele><time>2026-05-02T10:51:29Z</time></trkpt><trkpt lat="44.1509420764372" lon="12.114349198572544"><ele>132.0</ele><time>2026-05-02T10:51:30Z</time></trkpt><trkpt lat="44.15100611172697" lon="12.114461146981027"><ele>129.0</ele><time>2026-05-02T10:51:31Z</time></trkpt><trkpt lat="44.15106467087406" lon="12.114573142116464"><ele>126.0</ele><time>2026-05-02T10:51:32Z</time></trkpt><trkpt lat="44.15112118038407" lon="12.114681642440775"><ele>126.0</ele><time>2026-05-02T10:51:33Z</time></trkpt><trkpt lat="44.151191131521294" lon="12.114789251885393"><ele>126.0</ele><time>2026-05-02T10:51:34Z</time></trkpt><trkpt lat="44.1512510784068" lon="12.114897759627512"><ele>126.0</ele><time>2026-05-02T10:51:35Z</time></trkpt><trkpt lat="44.15130605187581" lon="12.11500592966354"><ele>126.0</ele><time>2026-05-02T10:51:36Z</time></trkpt><trkpt lat="44.15136633792347" lon="12.115101792094222"><ele>126.0</ele><time>2026-05-02T10:51:37Z</time></trkpt><trkpt lat="44.15141684369442" lon="12.115202863886001"><ele>123.8</ele><time>2026-05-02T10:51:38Z</time></trkpt><trkpt lat="44.151459979319554" lon="12.115313819144905"><ele>121.6</ele><time>2026-05-02T10:51:39Z</time></trkpt><trkpt lat="44.15150201249425" lon="12.115437800777931"><ele>119.4</ele><time>2026-05-02T10:51:40Z</time></trkpt><trkpt lat="44.15154967698039" lon="12.115545520832194"><ele>117.2</ele><time>2026-05-02T10:51:41Z</time></trkpt><trkpt lat="44.15158517381903" lon="12.115692058645585"><ele>115.0</ele><time>2026-05-02T10:51:43Z</time></trkpt><trkpt lat="44.151600317882476" lon="12.11577881320393"><ele>113.50000000000001</ele><time>2026-05-02T10:51:44Z</time></trkpt><trkpt lat="44.151616273390076" lon="12.11588593235706"><ele>112.0</ele><time>2026-05-02T10:51:45Z</time></trkpt><trkpt lat="44.15163001101623" lon="12.115993624092585"><ele>110.5</ele><time>2026-05-02T10:51:46Z</time></trkpt><trkpt lat="44.15163998003723" lon="12.116084719010255"><ele>109.0</ele><time>2026-05-02T10:51:47Z</time></trkpt><trkpt lat="44.1516476247224" lon="12.116232594209926"><ele>107.50000000000001</ele><time>2026-05-02T10:51:49Z</time></trkpt><trkpt lat="44.15164328775852" lon="12.116362036877199"><ele>106.0</ele><time>2026-05-02T10:51:50.999Z</time></trkpt><trkpt lat="44.151622305985505" lon="12.116512429067559"><ele>104.6</ele><time>2026-05-02T10:51:52.999Z</time></trkpt><trkpt lat="44.151593983060216" lon="12.116677126727678"><ele>103.19999999999999</ele><time>2026-05-02T10:51:54.999Z</time></trkpt><trkpt lat="44.151576951527716" lon="12.116761594806492"><ele>101.80000000000001</ele><time>2026-05-02T10:51:55.999Z</time></trkpt><trkpt lat="44.151548659505686" lon="12.116901738347153"><ele>100.4</ele><time>2026-05-02T10:51:57.999Z</time></trkpt><trkpt lat="44.15152488885799" lon="12.117041636011619"><ele>99.0</ele><time>2026-05-02T10:51:59.999Z</time></trkpt><trkpt lat="44.15150164253881" lon="12.117178447959466"><ele>98.0</ele><time>2026-05-02T10:52:01.999Z</time></trkpt><trkpt lat="44.15148033842623" lon="12.117302985997872"><ele>97.0</ele><time>2026-05-02T10:52:03.999Z</time></trkpt><trkpt lat="44.15146419464375" lon="12.11745685569338"><ele>96.0</ele><time>2026-05-02T10:52:05.999Z</time></trkpt><trkpt lat="44.15144780019568" lon="12.11754508819771"><ele>95.0</ele><time>2026-05-02T10:52:06.999Z</time></trkpt><trkpt lat="44.15142805117822" lon="12.117641630092418"><ele>94.0</ele><time>2026-05-02T10:52:07.999Z</time></trkpt><trkpt lat="44.15139255579006" lon="12.117798624759752"><ele>92.0</ele><time>2026-05-02T10:52:09.999Z</time></trkpt><trkpt lat="44.15136290667757" lon="12.117940760229086"><ele>90.0</ele><time>2026-05-02T10:52:11.999Z</time></trkpt><trkpt lat="44.15133360855639" lon="12.118088231932667"><ele>88.0</ele><time>2026-05-02T10:52:13.999Z</time></trkpt><trkpt lat="44.15129786549319" lon="12.118228069790288"><ele>86.0</ele><time>2026-05-02T10:52:15.999Z</time></trkpt><trkpt lat="44.15135167966957" lon="12.11844307145738"><ele>85.33333333333334</ele><time>2026-05-02T10:52:17.999Z</time></trkpt><trkpt lat="44.15140531475391" lon="12.118595497432484"><ele>84.66666666666667</ele><time>2026-05-02T10:52:19.999Z</time></trkpt><trkpt lat="44.15143839830804" lon="12.118681018749463"><ele>84.0</ele><time>2026-05-02T10:52:21.999Z</time></trkpt><trkpt lat="44.15149118287421" lon="12.118798405984927"><ele>83.33333333333333</ele><time>2026-05-02T10:52:23.999Z</time></trkpt><trkpt lat="44.15152160813945" lon="12.118884051968877"><ele>82.66666666666666</ele><time>2026-05-02T10:52:24.999Z</time></trkpt><trkpt lat="44.15156500935646" lon="12.118968231155524"><ele>82.0</ele><time>2026-05-02T10:52:25.999Z</time></trkpt><trkpt lat="44.15160751323423" lon="12.11911926382145"><ele>80.0</ele><time>2026-05-02T10:52:28Z</time></trkpt><trkpt lat="44.15167458158286" lon="12.119247539624421"><ele>78.0</ele><time>2026-05-02T10:52:30Z</time></trkpt><trkpt lat="44.1516842273588" lon="12.119341949076642"><ele>76.0</ele><time>2026-05-02T10:52:31Z</time></trkpt><trkpt lat="44.151705745867766" lon="12.11945212092161"><ele>74.0</ele><time>2026-05-02T10:52:32Z</time></trkpt><trkpt lat="44.15172965885658" lon="12.119581846503623"><ele>72.0</ele><time>2026-05-02T10:52:33Z</time></trkpt><trkpt lat="44.151748705879115" lon="12.119697931810926"><ele>70.0</ele><time>2026-05-02T10:52:34Z</time></trkpt><trkpt lat="44.15176235772619" lon="12.119789810100304"><ele>70.0</ele><time>2026-05-02T10:52:35Z</time></trkpt><trkpt lat="44.1517771931582" lon="12.119894911466202"><ele>70.0</ele><time>2026-05-02T10:52:36Z</time></trkpt><trkpt lat="44.151789104049556" lon="12.120007475357944"><ele>70.0</ele><time>2026-05-02T10:52:37Z</time></trkpt><trkpt lat="44.15180139438093" lon="12.120127973275421"><ele>70.0</ele><time>2026-05-02T10:52:38Z</time></trkpt><trkpt lat="44.1518132568811" lon="12.120244277075681"><ele>70.0</ele><time>2026-05-02T10:52:39Z</time></trkpt><trkpt lat="44.15183839223172" lon="12.120353920337987"><ele>70.0</ele><time>2026-05-02T10:52:40Z</time></trkpt><trkpt lat="44.151849436566316" lon="12.1204522034877"><ele>67.8</ele><time>2026-05-02T10:52:41Z</time></trkpt><trkpt lat="44.151895789298415" lon="12.120539258287987"><ele>65.6</ele><time>2026-05-02T10:52:43Z</time></trkpt><trkpt lat="44.152009472578364" lon="12.120506330768212"><ele>63.400000000000006</ele><time>2026-05-02T10:52:47Z</time></trkpt><trkpt lat="44.15210585993906" lon="12.120477360932325"><ele>61.2</ele><time>2026-05-02T10:52:50Z</time></trkpt><trkpt lat="44.15218618209945" lon="12.120483203216573"><ele>59.0</ele><time>2026-05-02T10:52:52Z</time></trkpt><trkpt lat="44.152266108332604" lon="12.12051418094124"><ele>59.0</ele><time>2026-05-02T10:52:54Z</time></trkpt><trkpt lat="44.152347704717414" lon="12.120547457340026"><ele>59.00000000000001</ele><time>2026-05-02T10:52:56Z</time></trkpt><trkpt lat="44.152436033327646" lon="12.120594746444775"><ele>59.00000000000001</ele><time>2026-05-02T10:52:58Z</time></trkpt><trkpt lat="44.15252597075429" lon="12.120645337043205"><ele>59.0</ele><time>2026-05-02T10:53:00Z</time></trkpt><trkpt lat="44.152618659481554" lon="12.120680113480653"><ele>59.0</ele><time>2026-05-02T10:53:02Z</time></trkpt><trkpt lat="44.152719636805976" lon="12.120678913995675"><ele>59.2</ele><time>2026-05-02T10:53:04Z</time></trkpt><trkpt lat="44.152825145407746" lon="12.12067334269029"><ele>59.400000000000006</ele><time>2026-05-02T10:53:06Z</time></trkpt><trkpt lat="44.15293003653613" lon="12.120655820825569"><ele>59.6</ele><time>2026-05-02T10:53:08Z</time></trkpt><trkpt lat="44.153030184165125" lon="12.120644306777113"><ele>59.8</ele><time>2026-05-02T10:53:10Z</time></trkpt><trkpt lat="44.15312723870137" lon="12.120637451441853"><ele>60.0</ele><time>2026-05-02T10:53:12Z</time></trkpt><trkpt lat="44.15322282717373" lon="12.120631309956009"><ele>58.6</ele><time>2026-05-02T10:53:14Z</time></trkpt><trkpt lat="44.15332175574168" lon="12.120620704008529"><ele>57.2</ele><time>2026-05-02T10:53:16Z</time></trkpt><trkpt lat="44.15341969167668" lon="12.120593991186686"><ele>55.8</ele><time>2026-05-02T10:53:18Z</time></trkpt><trkpt lat="44.15352308633689" lon="12.120572791368565"><ele>54.4</ele><time>2026-05-02T10:53:20Z</time></trkpt><trkpt lat="44.15362869716563" lon="12.120544801599044"><ele>53.0</ele><time>2026-05-02T10:53:22Z</time></trkpt><trkpt lat="44.15374893785257" lon="12.120516455878507"><ele>53.0</ele><time>2026-05-02T10:53:24Z</time></trkpt><trkpt lat="44.153866194921555" lon="12.120458929661817"><ele>53.0</ele><time>2026-05-02T10:53:26Z</time></trkpt><trkpt lat="44.15398478884919" lon="12.120388921684581"><ele>53.0</ele><time>2026-05-02T10:53:28Z</time></trkpt><trkpt lat="44.15404663321171" lon="12.120368341237953"><ele>53.0</ele><time>2026-05-02T10:53:29Z</time></trkpt><trkpt lat="44.154114274885295" lon="12.120352199613526"><ele>53.0</ele><time>2026-05-02T10:53:30Z</time></trkpt><trkpt lat="44.154233455933536" lon="12.120323375190258"><ele>52.142857142857146</ele><time>2026-05-02T10:53:32Z</time></trkpt><trkpt lat="44.15429666673995" lon="12.120311235891753"><ele>51.285714285714285</ele><time>2026-05-02T10:53:33Z</time></trkpt><trkpt lat="44.15436027856497" lon="12.120298967632747"><ele>50.42857142857143</ele><time>2026-05-02T10:53:34Z</time></trkpt><trkpt lat="44.15442387897649" lon="12.120285115083789"><ele>49.57142857142857</ele><time>2026-05-02T10:53:35Z</time></trkpt><trkpt lat="44.154486869209876" lon="12.120264652768016"><ele>48.71428571428571</ele><time>2026-05-02T10:53:36Z</time></trkpt><trkpt lat="44.15455105083597" lon="12.120246691921917"><ele>47.857142857142854</ele><time>2026-05-02T10:53:37Z</time></trkpt><trkpt lat="44.15467393265479" lon="12.12022969832522"><ele>47.0</ele><time>2026-05-02T10:53:39Z</time></trkpt><trkpt lat="44.15479238843946" lon="12.120192719996394"><ele>47.0</ele><time>2026-05-02T10:53:41Z</time></trkpt><trkpt lat="44.15491225675729" lon="12.120152605620786"><ele>47.0</ele><time>2026-05-02T10:53:43Z</time></trkpt><trkpt lat="44.15503477032477" lon="12.120127848804032"><ele>47.0</ele><time>2026-05-02T10:53:45Z</time></trkpt><trkpt lat="44.155156190790514" lon="12.120098006172139"><ele>47.0</ele><time>2026-05-02T10:53:47Z</time></trkpt><trkpt lat="44.155269454991426" lon="12.120068165382502"><ele>47.0</ele><time>2026-05-02T10:53:49Z</time></trkpt><trkpt lat="44.15537926307025" lon="12.120040885195527"><ele>47.0</ele><time>2026-05-02T10:53:50.999Z</time></trkpt><trkpt lat="44.155492426245296" lon="12.120016106988993"><ele>47.0</ele><time>2026-05-02T10:53:52.999Z</time></trkpt><trkpt lat="44.155609615478895" lon="12.120010236726387"><ele>47.0</ele><time>2026-05-02T10:53:54.999Z</time></trkpt><trkpt lat="44.155725332058715" lon="12.119986223550551"><ele>47.0</ele><time>2026-05-02T10:53:56.999Z</time></trkpt><trkpt lat="44.15583764457363" lon="12.119962916753224"><ele>47.0</ele><time>2026-05-02T10:53:58.999Z</time></trkpt><trkpt lat="44.15594930025505" lon="12.119906476969588"><ele>47.0</ele><time>2026-05-02T10:54:00.999Z</time></trkpt><trkpt lat="44.15606730064958" lon="12.119884705609351"><ele>47.0</ele><time>2026-05-02T10:54:02.999Z</time></trkpt><trkpt lat="44.156181188973015" lon="12.11988672483726"><ele>47.0</ele><time>2026-05-02T10:54:04.999Z</time></trkpt><trkpt lat="44.15629621072464" lon="12.119892572275505"><ele>47.0</ele><time>2026-05-02T10:54:06.999Z</time></trkpt><trkpt lat="44.15640462935832" lon="12.119889395756674"><ele>47.0</ele><time>2026-05-02T10:54:08.999Z</time></trkpt><trkpt lat="44.15651691959814" lon="12.119875312833672"><ele>47.0</ele><time>2026-05-02T10:54:10.999Z</time></trkpt><trkpt lat="44.1566219812245" lon="12.119845272208364"><ele>47.0</ele><time>2026-05-02T10:54:12.999Z</time></trkpt><trkpt lat="44.15672561480341" lon="12.119826919557593"><ele>47.0</ele><time>2026-05-02T10:54:14.999Z</time></trkpt><trkpt lat="44.15682497792327" lon="12.119800489754125"><ele>47.0</ele><time>2026-05-02T10:54:16.999Z</time></trkpt><trkpt lat="44.15692477062383" lon="12.11976419774912"><ele>47.0</ele><time>2026-05-02T10:54:18.999Z</time></trkpt><trkpt lat="44.15702306484505" lon="12.119735812778924"><ele>47.0</ele><time>2026-05-02T10:54:20.999Z</time></trkpt><trkpt lat="44.15712327719385" lon="12.119701188167063"><ele>47.0</ele><time>2026-05-02T10:54:22.999Z</time></trkpt><trkpt lat="44.157219722661495" lon="12.119665833471677"><ele>47.0</ele><time>2026-05-02T10:54:24.999Z</time></trkpt><trkpt lat="44.15731068945425" lon="12.119626827054915"><ele>47.0</ele><time>2026-05-02T10:54:26.999Z</time></trkpt><trkpt lat="44.1573934235581" lon="12.119578795612728"><ele>47.0</ele><time>2026-05-02T10:54:28.999Z</time></trkpt><trkpt lat="44.15747128486763" lon="12.119523968126398"><ele>47.0</ele><time>2026-05-02T10:54:30.999Z</time></trkpt><trkpt lat="44.157552808248234" lon="12.1194816980997"><ele>47.0</ele><time>2026-05-02T10:54:32.999Z</time></trkpt><trkpt lat="44.15763960488972" lon="12.119378097236332"><ele>47.33333333333333</ele><time>2026-05-02T10:54:36Z</time></trkpt><trkpt lat="44.157689184661464" lon="12.119319320519732"><ele>47.666666666666664</ele><time>2026-05-02T10:54:38Z</time></trkpt><trkpt lat="44.157736350663264" lon="12.119259944809189"><ele>48.0</ele><time>2026-05-02T10:54:39Z</time></trkpt><trkpt lat="44.15782007090307" lon="12.119150987059834"><ele>48.33333333333333</ele><time>2026-05-02T10:54:42Z</time></trkpt><trkpt lat="44.15787630586298" lon="12.11907489543926"><ele>48.666666666666664</ele><time>2026-05-02T10:54:44Z</time></trkpt><trkpt lat="44.157947067793415" lon="12.119028479528806"><ele>49.0</ele><time>2026-05-02T10:54:46Z</time></trkpt><trkpt lat="44.15801003091103" lon="12.118966779025476"><ele>49.42857142857143</ele><time>2026-05-02T10:54:48Z</time></trkpt><trkpt lat="44.158053357348955" lon="12.11887890307226"><ele>49.85714285714286</ele><time>2026-05-02T10:54:50Z</time></trkpt><trkpt lat="44.158117870319906" lon="12.11883395963056"><ele>50.285714285714285</ele><time>2026-05-02T10:54:52Z</time></trkpt><trkpt lat="44.15817836594636" lon="12.118781318261222"><ele>50.714285714285715</ele><time>2026-05-02T10:54:54Z</time></trkpt><trkpt lat="44.15824921309118" lon="12.118740253757647"><ele>51.142857142857146</ele><time>2026-05-02T10:54:56Z</time></trkpt><trkpt lat="44.15831969603037" lon="12.118701560616696"><ele>51.57142857142857</ele><time>2026-05-02T10:54:58Z</time></trkpt><trkpt lat="44.15838979680787" lon="12.118664200676323"><ele>52.0</ele><time>2026-05-02T10:55:00Z</time></trkpt><trkpt lat="44.15846739764962" lon="12.118642806809715"><ele>52.0</ele><time>2026-05-02T10:55:02Z</time></trkpt><trkpt lat="44.15855129664536" lon="12.118617876182709"><ele>52.0</ele><time>2026-05-02T10:55:04Z</time></trkpt><trkpt lat="44.15863856363278" lon="12.118600770086083"><ele>52.0</ele><time>2026-05-02T10:55:06Z</time></trkpt><trkpt lat="44.15873013361829" lon="12.118576627409462"><ele>52.0</ele><time>2026-05-02T10:55:08Z</time></trkpt><trkpt lat="44.158823334729824" lon="12.118553759331949"><ele>52.0</ele><time>2026-05-02T10:55:10Z</time></trkpt><trkpt lat="44.15891441737447" lon="12.118530772499499"><ele>52.0</ele><time>2026-05-02T10:55:12Z</time></trkpt><trkpt lat="44.159004964299235" lon="12.118504222585832"><ele>52.0</ele><time>2026-05-02T10:55:14Z</time></trkpt><trkpt lat="44.15910243698929" lon="12.11847563632382"><ele>52.0</ele><time>2026-05-02T10:55:16Z</time></trkpt><trkpt lat="44.15920035039265" lon="12.118464826980649"><ele>52.0</ele><time>2026-05-02T10:55:18Z</time></trkpt><trkpt lat="44.15930288707719" lon="12.118435181345987"><ele>52.0</ele><time>2026-05-02T10:55:20Z</time></trkpt><trkpt lat="44.159411211571246" lon="12.118402206917715"><ele>51.8</ele><time>2026-05-02T10:55:22Z</time></trkpt><trkpt lat="44.15951292775083" lon="12.11838889848669"><ele>51.6</ele><time>2026-05-02T10:55:24Z</time></trkpt><trkpt lat="44.15962391284295" lon="12.118356862581052"><ele>51.4</ele><time>2026-05-02T10:55:26Z</time></trkpt><trkpt lat="44.15973779611742" lon="12.118326031681054"><ele>51.199999999999996</ele><time>2026-05-02T10:55:28Z</time></trkpt><trkpt lat="44.15985349161911" lon="12.118321104287299"><ele>51.0</ele><time>2026-05-02T10:55:30Z</time></trkpt><trkpt lat="44.159911590677574" lon="12.118283992358593"><ele>50.4</ele><time>2026-05-02T10:55:31Z</time></trkpt><trkpt lat="44.16003318441362" lon="12.118251108908959"><ele>49.8</ele><time>2026-05-02T10:55:33Z</time></trkpt><trkpt lat="44.16015442475613" lon="12.118242739228052"><ele>49.199999999999996</ele><time>2026-05-02T10:55:35Z</time></trkpt><trkpt lat="44.160269522761176" lon="12.11820983577082"><ele>48.599999999999994</ele><time>2026-05-02T10:55:37Z</time></trkpt><trkpt lat="44.16032642124283" lon="12.118170070753035"><ele>48.0</ele><time>2026-05-02T10:55:38Z</time></trkpt><trkpt lat="44.16044296898783" lon="12.11813168835623"><ele>48.599999999999994</ele><time>2026-05-02T10:55:40Z</time></trkpt><trkpt lat="44.16055768320012" lon="12.118074826625296"><ele>49.199999999999996</ele><time>2026-05-02T10:55:42Z</time></trkpt><trkpt lat="44.16067283898789" lon="12.11802135436064"><ele>49.8</ele><time>2026-05-02T10:55:44Z</time></trkpt><trkpt lat="44.16079104548107" lon="12.117967372405163"><ele>50.4</ele><time>2026-05-02T10:55:46Z</time></trkpt><trkpt lat="44.16085313618558" lon="12.117940850602736"><ele>51.0</ele><time>2026-05-02T10:55:47Z</time></trkpt><trkpt lat="44.16091354055793" lon="12.117908303052896"><ele>51.0</ele><time>2026-05-02T10:55:48Z</time></trkpt><trkpt lat="44.16097460414846" lon="12.1178729384051"><ele>51.0</ele><time>2026-05-02T10:55:49Z</time></trkpt><trkpt lat="44.16103490883999" lon="12.117839361745455"><ele>51.0</ele><time>2026-05-02T10:55:50Z</time></trkpt><trkpt lat="44.16110310204682" lon="12.117832274332486"><ele>51.0</ele><time>2026-05-02T10:55:51Z</time></trkpt><trkpt lat="44.16119909415511" lon="12.117824039535188"><ele>51.0</ele><time>2026-05-02T10:55:53Z</time></trkpt><trkpt lat="44.16119550097859" lon="12.117997638128818"><ele>51.0</ele><time>2026-05-02T10:55:54Z</time></trkpt><trkpt lat="44.16122493705174" lon="12.118085148859567"><ele>51.0</ele><time>2026-05-02T10:55:55Z</time></trkpt><trkpt lat="44.16123726731561" lon="12.118172547165287"><ele>51.0</ele><time>2026-05-02T10:55:56Z</time></trkpt><trkpt lat="44.16124622480676" lon="12.118262764117908"><ele>51.0</ele><time>2026-05-02T10:55:57Z</time></trkpt><trkpt lat="44.161258077642835" lon="12.11835395513067"><ele>51.0</ele><time>2026-05-02T10:55:58Z</time></trkpt><trkpt lat="44.16127144955217" lon="12.118452029560517"><ele>51.0</ele><time>2026-05-02T10:55:59Z</time></trkpt><trkpt lat="44.161294100951174" lon="12.118548597514435"><ele>51.0</ele><time>2026-05-02T10:56:00Z</time></trkpt><trkpt lat="44.16131104688853" lon="12.11864475075845"><ele>51.0</ele><time>2026-05-02T10:56:01Z</time></trkpt><trkpt lat="44.16132723415196" lon="12.118747155235537"><ele>50.142857142857146</ele><time>2026-05-02T10:56:02Z</time></trkpt><trkpt lat="44.161326297433824" lon="12.118848174506297"><ele>49.28571428571429</ele><time>2026-05-02T10:56:03Z</time></trkpt><trkpt lat="44.161341130170776" lon="12.118942329213683"><ele>48.42857142857143</ele><time>2026-05-02T10:56:03.999Z</time></trkpt><trkpt lat="44.16135620978202" lon="12.11903805100432"><ele>47.57142857142857</ele><time>2026-05-02T10:56:04.999Z</time></trkpt><trkpt lat="44.16138746345204" lon="12.119129130484355"><ele>46.714285714285715</ele><time>2026-05-02T10:56:05.999Z</time></trkpt><trkpt lat="44.16139977067507" lon="12.11922763851152"><ele>45.857142857142854</ele><time>2026-05-02T10:56:06.999Z</time></trkpt><trkpt lat="44.1614130077474" lon="12.11932319209546"><ele>45.0</ele><time>2026-05-02T10:56:07.999Z</time></trkpt><trkpt lat="44.16142546598951" lon="12.11942254634812"><ele>44.857142857142854</ele><time>2026-05-02T10:56:08.999Z</time></trkpt><trkpt lat="44.16143395784051" lon="12.11952068569026"><ele>44.714285714285715</ele><time>2026-05-02T10:56:09.999Z</time></trkpt><trkpt lat="44.161447732187725" lon="12.11961392811401"><ele>44.57142857142857</ele><time>2026-05-02T10:56:10.999Z</time></trkpt><trkpt lat="44.16145797101813" lon="12.119705123168076"><ele>44.42857142857143</ele><time>2026-05-02T10:56:11.999Z</time></trkpt><trkpt lat="44.161466242164124" lon="12.119795605751644"><ele>44.285714285714285</ele><time>2026-05-02T10:56:12.999Z</time></trkpt><trkpt lat="44.16147299773272" lon="12.11988372813555"><ele>44.142857142857146</ele><time>2026-05-02T10:56:13.999Z</time></trkpt><trkpt lat="44.161478947760365" lon="12.120015416827227"><ele>44.0</ele><time>2026-05-02T10:56:15.999Z</time></trkpt><trkpt lat="44.161599122355476" lon="12.1200251696024"><ele>43.6</ele><time>2026-05-02T10:56:16.999Z</time></trkpt><trkpt lat="44.16172238084738" lon="12.120018428919831"><ele>43.2</ele><time>2026-05-02T10:56:18.999Z</time></trkpt><trkpt lat="44.161846365646255" lon="12.120017237675718"><ele>42.800000000000004</ele><time>2026-05-02T10:56:20.999Z</time></trkpt><trkpt lat="44.16190966983304" lon="12.120013928054684"><ele>42.400000000000006</ele><time>2026-05-02T10:56:21.999Z</time></trkpt><trkpt lat="44.162027265137425" lon="12.119998400176408"><ele>42.0</ele><time>2026-05-02T10:56:23.999Z</time></trkpt><trkpt lat="44.16214474167697" lon="12.120002256860932"><ele>42.0</ele><time>2026-05-02T10:56:25.999Z</time></trkpt><trkpt lat="44.16225801420475" lon="12.119999746749293"><ele>42.0</ele><time>2026-05-02T10:56:27.999Z</time></trkpt><trkpt lat="44.16236725902639" lon="12.119996976014237"><ele>42.0</ele><time>2026-05-02T10:56:29.999Z</time></trkpt><trkpt lat="44.16247549881579" lon="12.119998105824928"><ele>42.0</ele><time>2026-05-02T10:56:31.999Z</time></trkpt><trkpt lat="44.16258509140361" lon="12.119997106830287"><ele>42.0</ele><time>2026-05-02T10:56:33.999Z</time></trkpt><trkpt lat="44.16269040651014" lon="12.119997418408854"><ele>41.6</ele><time>2026-05-02T10:56:35.999Z</time></trkpt><trkpt lat="44.16279623452146" lon="12.119993715287164"><ele>41.2</ele><time>2026-05-02T10:56:37.999Z</time></trkpt><trkpt lat="44.16289775873339" lon="12.119991354928024"><ele>40.8</ele><time>2026-05-02T10:56:40Z</time></trkpt><trkpt lat="44.1630053214726" lon="12.119992870311549"><ele>40.4</ele><time>2026-05-02T10:56:42Z</time></trkpt><trkpt lat="44.16310879150352" lon="12.119986850117627"><ele>40.0</ele><time>2026-05-02T10:56:44Z</time></trkpt><trkpt lat="44.16321170630797" lon="12.119994208046936"><ele>40.0</ele><time>2026-05-02T10:56:46Z</time></trkpt><trkpt lat="44.163317406104646" lon="12.119987024996457"><ele>40.0</ele><time>2026-05-02T10:56:48Z</time></trkpt><trkpt lat="44.16342362246699" lon="12.119969501316302"><ele>40.0</ele><time>2026-05-02T10:56:50Z</time></trkpt><trkpt lat="44.16352559629215" lon="12.119942524971275"><ele>40.0</ele><time>2026-05-02T10:56:52Z</time></trkpt><trkpt lat="44.16362604552977" lon="12.119891820850313"><ele>40.0</ele><time>2026-05-02T10:56:54Z</time></trkpt><trkpt lat="44.16372058119195" lon="12.119820438380698"><ele>40.0</ele><time>2026-05-02T10:56:56Z</time></trkpt><trkpt lat="44.16381378187203" lon="12.11974398134815"><ele>40.0</ele><time>2026-05-02T10:56:58Z</time></trkpt><trkpt lat="44.16391378373136" lon="12.119683126523523"><ele>40.0</ele><time>2026-05-02T10:57:00Z</time></trkpt><trkpt lat="44.16400928099369" lon="12.119604375377055"><ele>40.0</ele><time>2026-05-02T10:57:02Z</time></trkpt><trkpt lat="44.16410311412195" lon="12.119525628371578"><ele>40.0</ele><time>2026-05-02T10:57:04Z</time></trkpt><trkpt lat="44.16419702482271" lon="12.119446816259776"><ele>40.0</ele><time>2026-05-02T10:57:06Z</time></trkpt><trkpt lat="44.16429061491356" lon="12.119368273212748"><ele>40.0</ele><time>2026-05-02T10:57:08Z</time></trkpt><trkpt lat="44.164386825210876" lon="12.119287531228533"><ele>40.0</ele><time>2026-05-02T10:57:10Z</time></trkpt><trkpt lat="44.16447976970127" lon="12.119209529985177"><ele>40.0</ele><time>2026-05-02T10:57:12Z</time></trkpt><trkpt lat="44.16456427821307" lon="12.119116290062369"><ele>40.0</ele><time>2026-05-02T10:57:14Z</time></trkpt><trkpt lat="44.16465253910421" lon="12.119040955533537"><ele>40.0</ele><time>2026-05-02T10:57:16Z</time></trkpt><trkpt lat="44.164740438376406" lon="12.118969283588415"><ele>40.0</ele><time>2026-05-02T10:57:18Z</time></trkpt><trkpt lat="44.16483023749916" lon="12.118899935679718"><ele>40.0</ele><time>2026-05-02T10:57:20Z</time></trkpt><trkpt lat="44.16492290127359" lon="12.11883790055918"><ele>40.0</ele><time>2026-05-02T10:57:22Z</time></trkpt><trkpt lat="44.16502368676945" lon="12.118776369054553"><ele>40.0</ele><time>2026-05-02T10:57:24Z</time></trkpt><trkpt lat="44.165132457176405" lon="12.118735275499292"><ele>40.0</ele><time>2026-05-02T10:57:26Z</time></trkpt><trkpt lat="44.165239003119346" lon="12.11869964615907"><ele>40.0</ele><time>2026-05-02T10:57:28Z</time></trkpt><trkpt lat="44.165349174784545" lon="12.118691010073631"><ele>40.0</ele><time>2026-05-02T10:57:30Z</time></trkpt><trkpt lat="44.16546221395465" lon="12.118687854464746"><ele>40.0</ele><time>2026-05-02T10:57:32Z</time></trkpt><trkpt lat="44.16557145870158" lon="12.118687916890776"><ele>40.0</ele><time>2026-05-02T10:57:34Z</time></trkpt><trkpt lat="44.16568212916011" lon="12.118687871089502"><ele>39.6</ele><time>2026-05-02T10:57:36Z</time></trkpt><trkpt lat="44.16579508066377" lon="12.118693789719421"><ele>39.2</ele><time>2026-05-02T10:57:38Z</time></trkpt><trkpt lat="44.16590596223438" lon="12.118689862676737"><ele>38.8</ele><time>2026-05-02T10:57:40Z</time></trkpt><trkpt lat="44.16601770464244" lon="12.118689430875149"><ele>38.4</ele><time>2026-05-02T10:57:42Z</time></trkpt><trkpt lat="44.16612575930085" lon="12.118697004583385"><ele>38.0</ele><time>2026-05-02T10:57:44Z</time></trkpt><trkpt lat="44.166234152254304" lon="12.118694514801561"><ele>38.0</ele><time>2026-05-02T10:57:46Z</time></trkpt><trkpt lat="44.16634290960665" lon="12.118698296964816"><ele>38.0</ele><time>2026-05-02T10:57:48Z</time></trkpt><trkpt lat="44.166451443783544" lon="12.118694949819503"><ele>38.0</ele><time>2026-05-02T10:57:50Z</time></trkpt><trkpt lat="44.16655839617874" lon="12.118688079640101"><ele>38.0</ele><time>2026-05-02T10:57:52Z</time></trkpt><trkpt lat="44.166666842000346" lon="12.118697460600906"><ele>38.0</ele><time>2026-05-02T10:57:54Z</time></trkpt><trkpt lat="44.16677932067347" lon="12.118694937886485"><ele>38.199999999999996</ele><time>2026-05-02T10:57:56Z</time></trkpt><trkpt lat="44.16689101502471" lon="12.118707095920739"><ele>38.4</ele><time>2026-05-02T10:57:58Z</time></trkpt><trkpt lat="44.16700161324718" lon="12.118697124917878"><ele>38.599999999999994</ele><time>2026-05-02T10:58:00Z</time></trkpt><trkpt lat="44.1671141382866" lon="12.118703609824236"><ele>38.8</ele><time>2026-05-02T10:58:02Z</time></trkpt><trkpt lat="44.167226414702164" lon="12.118700032914047"><ele>39.0</ele><time>2026-05-02T10:58:04Z</time></trkpt><trkpt lat="44.16734103813253" lon="12.118697151000005"><ele>38.75</ele><time>2026-05-02T10:58:06Z</time></trkpt><trkpt lat="44.16745581746999" lon="12.118703234454397"><ele>38.5</ele><time>2026-05-02T10:58:08Z</time></trkpt><trkpt lat="44.16757281768345" lon="12.11870177492226"><ele>38.25</ele><time>2026-05-02T10:58:09.999Z</time></trkpt><trkpt lat="44.16769047072456" lon="12.118699057092297"><ele>38.0</ele><time>2026-05-02T10:58:11.999Z</time></trkpt><trkpt lat="44.16780462189933" lon="12.118701702630537"><ele>38.0</ele><time>2026-05-02T10:58:13.999Z</time></trkpt><trkpt lat="44.16792259797782" lon="12.118695294543013"><ele>38.0</ele><time>2026-05-02T10:58:15.999Z</time></trkpt><trkpt lat="44.168038354114856" lon="12.11869307551749"><ele>38.0</ele><time>2026-05-02T10:58:17.999Z</time></trkpt><trkpt lat="44.168153995787115" lon="12.11869884106071"><ele>38.0</ele><time>2026-05-02T10:58:19.999Z</time></trkpt><trkpt lat="44.16826955616547" lon="12.118700459421817"><ele>38.0</ele><time>2026-05-02T10:58:21.999Z</time></trkpt><trkpt lat="44.16838455425581" lon="12.118693571200982"><ele>38.0</ele><time>2026-05-02T10:58:23.999Z</time></trkpt><trkpt lat="44.16849914482588" lon="12.118694515505966"><ele>38.0</ele><time>2026-05-02T10:58:25.999Z</time></trkpt><trkpt lat="44.16861728969337" lon="12.118679504588842"><ele>38.0</ele><time>2026-05-02T10:58:27.999Z</time></trkpt><trkpt lat="44.16872444975349" lon="12.1186988121534"><ele>38.0</ele><time>2026-05-02T10:58:29.999Z</time></trkpt><trkpt lat="44.16882702923601" lon="12.118681579011513"><ele>38.0</ele><time>2026-05-02T10:58:31.999Z</time></trkpt><trkpt lat="44.16892848467279" lon="12.118686393263522"><ele>38.0</ele><time>2026-05-02T10:58:33.999Z</time></trkpt><trkpt lat="44.169020160356546" lon="12.11868267603581"><ele>38.0</ele><time>2026-05-02T10:58:35.999Z</time></trkpt><trkpt lat="44.16910719300188" lon="12.118695880335137"><ele>38.0</ele><time>2026-05-02T10:58:37.999Z</time></trkpt><trkpt lat="44.16908671189678" lon="12.118836037105075"><ele>38.0</ele><time>2026-05-02T10:58:39.999Z</time></trkpt><trkpt lat="44.169104386855714" lon="12.118988644555024"><ele>38.0</ele><time>2026-05-02T10:58:41.999Z</time></trkpt><trkpt lat="44.16913137817426" lon="12.119155761190399"><ele>38.0</ele><time>2026-05-02T10:58:43.999Z</time></trkpt><trkpt lat="44.1691617868109" lon="12.119322861876801"><ele>38.0</ele><time>2026-05-02T10:58:46Z</time></trkpt><trkpt lat="44.16918462819475" lon="12.119407377663343"><ele>38.0</ele><time>2026-05-02T10:58:47Z</time></trkpt><trkpt lat="44.1692274314841" lon="12.119562547511913"><ele>37.8</ele><time>2026-05-02T10:58:49Z</time></trkpt><trkpt lat="44.16926953387731" lon="12.119713405236483"><ele>37.599999999999994</ele><time>2026-05-02T10:58:51Z</time></trkpt><trkpt lat="44.16930258156352" lon="12.119852497491596"><ele>37.400000000000006</ele><time>2026-05-02T10:58:53Z</time></trkpt><trkpt lat="44.169310399954504" lon="12.119993852776222"><ele>37.2</ele><time>2026-05-02T10:58:55Z</time></trkpt><trkpt lat="44.16931599996693" lon="12.120153575120803"><ele>37.0</ele><time>2026-05-02T10:58:57Z</time></trkpt><trkpt lat="44.169312067342034" lon="12.120304946380935"><ele>37.0</ele><time>2026-05-02T10:58:59Z</time></trkpt><trkpt lat="44.1692943698403" lon="12.120460191476337"><ele>37.0</ele><time>2026-05-02T10:59:01Z</time></trkpt><trkpt lat="44.16927228278733" lon="12.120610257635075"><ele>37.0</ele><time>2026-05-02T10:59:03Z</time></trkpt><trkpt lat="44.169251558163076" lon="12.120759728863584"><ele>37.0</ele><time>2026-05-02T10:59:05Z</time></trkpt><trkpt lat="44.16922402606336" lon="12.120896562106235"><ele>37.0</ele><time>2026-05-02T10:59:07Z</time></trkpt><trkpt lat="44.16922637245153" lon="12.12104295084285"><ele>36.800000000000004</ele><time>2026-05-02T10:59:09Z</time></trkpt><trkpt lat="44.169222763617725" lon="12.121186436723557"><ele>36.6</ele><time>2026-05-02T10:59:11Z</time></trkpt><trkpt lat="44.1692148244664" lon="12.121327526195362"><ele>36.400000000000006</ele><time>2026-05-02T10:59:13Z</time></trkpt><trkpt lat="44.16921726654204" lon="12.12147254690857"><ele>36.2</ele><time>2026-05-02T10:59:15Z</time></trkpt><trkpt lat="44.16921386212946" lon="12.121612545289752"><ele>36.0</ele><time>2026-05-02T10:59:17Z</time></trkpt><trkpt lat="44.16919307714997" lon="12.121746975219445"><ele>36.0</ele><time>2026-05-02T10:59:19Z</time></trkpt><trkpt lat="44.16917935187809" lon="12.121872664259756"><ele>36.0</ele><time>2026-05-02T10:59:21Z</time></trkpt><trkpt lat="44.16917369230306" lon="12.122007953639617"><ele>36.0</ele><time>2026-05-02T10:59:23Z</time></trkpt><trkpt lat="44.169151811245555" lon="12.122137396592612"><ele>36.0</ele><time>2026-05-02T10:59:25Z</time></trkpt><trkpt lat="44.169119534202096" lon="12.122261230262183"><ele>36.0</ele><time>2026-05-02T10:59:27Z</time></trkpt><trkpt lat="44.16910248599056" lon="12.122395308509345"><ele>35.833333333333336</ele><time>2026-05-02T10:59:29Z</time></trkpt><trkpt lat="44.16907648250155" lon="12.122526016180293"><ele>35.666666666666664</ele><time>2026-05-02T10:59:31Z</time></trkpt><trkpt lat="44.169048800829515" lon="12.122650314366712"><ele>35.5</ele><time>2026-05-02T10:59:33Z</time></trkpt><trkpt lat="44.16902938486981" lon="12.122764888407534"><ele>35.33333333333333</ele><time>2026-05-02T10:59:35Z</time></trkpt><trkpt lat="44.16900131977022" lon="12.122875888409009"><ele>35.166666666666664</ele><time>2026-05-02T10:59:37Z</time></trkpt><trkpt lat="44.168967208596975" lon="12.122987384723702"><ele>35.0</ele><time>2026-05-02T10:59:39Z</time></trkpt><trkpt lat="44.16892441751805" lon="12.123088545687816"><ele>35.0</ele><time>2026-05-02T10:59:41Z</time></trkpt><trkpt lat="44.16889063963425" lon="12.123193000885651"><ele>35.0</ele><time>2026-05-02T10:59:43Z</time></trkpt><trkpt lat="44.16885034466089" lon="12.123302638116588"><ele>35.0</ele><time>2026-05-02T10:59:45Z</time></trkpt><trkpt lat="44.16881874137354" lon="12.1234080507711"><ele>35.0</ele><time>2026-05-02T10:59:47Z</time></trkpt><trkpt lat="44.16879402462084" lon="12.123510225976423"><ele>35.0</ele><time>2026-05-02T10:59:49Z</time></trkpt><trkpt lat="44.16876467878534" lon="12.123609759996535"><ele>35.0</ele><time>2026-05-02T10:59:51Z</time></trkpt><trkpt lat="44.1687393325799" lon="12.123713230687757"><ele>34.83333333333333</ele><time>2026-05-02T10:59:53Z</time></trkpt><trkpt lat="44.16870784660577" lon="12.123823487874605"><ele>34.666666666666664</ele><time>2026-05-02T10:59:55Z</time></trkpt><trkpt lat="44.16868413863354" lon="12.123929161424126"><ele>34.5</ele><time>2026-05-02T10:59:57Z</time></trkpt><trkpt lat="44.168658554671964" lon="12.124030077932183"><ele>34.333333333333336</ele><time>2026-05-02T10:59:59Z</time></trkpt><trkpt lat="44.16863233033907" lon="12.124141435475806"><ele>34.16666666666667</ele><time>2026-05-02T11:00:01Z</time></trkpt><trkpt lat="44.168583203574016" lon="12.124225813444202"><ele>34.0</ele><time>2026-05-02T11:00:03Z</time></trkpt><trkpt lat="44.16853626809525" lon="12.12431027645306"><ele>34.0</ele><time>2026-05-02T11:00:05Z</time></trkpt><trkpt lat="44.168505132590916" lon="12.124422412711386"><ele>34.0</ele><time>2026-05-02T11:00:07Z</time></trkpt><trkpt lat="44.168483012499465" lon="12.124535267610655"><ele>34.0</ele><time>2026-05-02T11:00:09Z</time></trkpt><trkpt lat="44.168468329313264" lon="12.124637679666991"><ele>34.0</ele><time>2026-05-02T11:00:11Z</time></trkpt><trkpt lat="44.16845650186805" lon="12.124733678790294"><ele>34.0</ele><time>2026-05-02T11:00:13Z</time></trkpt><trkpt lat="44.168451377188184" lon="12.124853786628007"><ele>34.0</ele><time>2026-05-02T11:00:15.999Z</time></trkpt><trkpt lat="44.16850319960012" lon="12.124946622026574"><ele>34.14285714285714</ele><time>2026-05-02T11:00:18.999Z</time></trkpt><trkpt lat="44.168565944115194" lon="12.124993874004627"><ele>34.285714285714285</ele><time>2026-05-02T11:00:21.999Z</time></trkpt><trkpt lat="44.168624866259115" lon="12.125054208284118"><ele>34.42857142857143</ele><time>2026-05-02T11:00:24.999Z</time></trkpt><trkpt lat="44.168664433091024" lon="12.125133394140882"><ele>34.57142857142857</ele><time>2026-05-02T11:00:27.999Z</time></trkpt><trkpt lat="44.16866094854161" lon="12.125228344660941"><ele>34.714285714285715</ele><time>2026-05-02T11:00:30.999Z</time></trkpt><trkpt lat="44.16864151562025" lon="12.125330456885528"><ele>34.857142857142854</ele><time>2026-05-02T11:00:34.999Z</time></trkpt><trkpt lat="44.16860708236111" lon="12.125431645371485"><ele>35.0</ele><time>2026-05-02T11:00:38.999Z</time></trkpt><trkpt lat="44.16856652045265" lon="12.125519422679995"><ele>35.0</ele><time>2026-05-02T11:00:42.999Z</time></trkpt><trkpt lat="44.168522319150746" lon="12.125596774637911"><ele>35.0</ele><time>2026-05-02T11:00:46.999Z</time></trkpt><trkpt lat="44.16848015616279" lon="12.125666361230364"><ele>35.0</ele><time>2026-05-02T11:00:50.999Z</time></trkpt><trkpt lat="44.16843004896092" lon="12.125734179614756"><ele>35.0</ele><time>2026-05-02T11:00:56Z</time></trkpt><trkpt lat="44.16837624836401" lon="12.12579426635754"><ele>35.0</ele><time>2026-05-02T11:01:01Z</time></trkpt><trkpt lat="44.168322746588444" lon="12.125857322031514"><ele>35.0</ele><time>2026-05-02T11:01:06Z</time></trkpt><trkpt lat="44.1682710597829" lon="12.12592468223724"><ele>35.0</ele><time>2026-05-02T11:01:11Z</time></trkpt><trkpt lat="44.16822290499949" lon="12.125981277093043"><ele>37.0</ele><time>2026-05-02T11:01:16Z</time></trkpt><trkpt lat="44.16816566502076" lon="12.126045771327233"><ele>39.0</ele><time>2026-05-02T11:01:22Z</time></trkpt><trkpt lat="44.168120066379025" lon="12.126107984603903"><ele>41.0</ele><time>2026-05-02T11:01:28Z</time></trkpt><trkpt lat="44.16806793105761" lon="12.126171209908373"><ele>43.0</ele><time>2026-05-02T11:01:34Z</time></trkpt><trkpt lat="44.16801573677809" lon="12.126239345322617"><ele>45.0</ele><time>2026-05-02T11:01:40Z</time></trkpt><trkpt lat="44.16796928729916" lon="12.126311022267695"><ele>47.0</ele><time>2026-05-02T11:01:47Z</time></trkpt><trkpt lat="44.16792797507763" lon="12.126388967455954"><ele>49.0</ele><time>2026-05-02T11:01:53Z</time></trkpt><trkpt lat="44.16789470510953" lon="12.126467825184788"><ele>49.0</ele><time>2026-05-02T11:02:00Z</time></trkpt><trkpt lat="44.167867529781894" lon="12.126550708044489"><ele>49.0</ele><time>2026-05-02T11:02:07Z</time></trkpt><trkpt lat="44.16783910300039" lon="12.12664283603246"><ele>49.0</ele><time>2026-05-02T11:02:15Z</time></trkpt><trkpt lat="44.16779792406428" lon="12.126719685184337"><ele>49.0</ele><time>2026-05-02T11:02:24Z</time></trkpt><trkpt lat="44.16776469406438" lon="12.126802573593135"><ele>49.0</ele><time>2026-05-02T11:02:30.999Z</time></trkpt><trkpt lat="44.16771889322489" lon="12.126881454568979"><ele>49.0</ele><time>2026-05-02T11:02:37.999Z</time></trkpt><trkpt lat="44.167677867160656" lon="12.126958409159718"><ele>49.0</ele><time>2026-05-02T11:02:44.999Z</time></trkpt><trkpt lat="44.16763838893895" lon="12.127035847331529"><ele>50.285714285714285</ele><time>2026-05-02T11:02:51.999Z</time></trkpt><trkpt lat="44.16756441796941" lon="12.127047359992497"><ele>51.57142857142857</ele><time>2026-05-02T11:02:58Z</time></trkpt><trkpt lat="44.167495173270375" lon="12.127033576644422"><ele>52.85714285714286</ele><time>2026-05-02T11:03:02Z</time></trkpt><trkpt lat="44.16742929247544" lon="12.127020627076982"><ele>54.142857142857146</ele><time>2026-05-02T11:03:06Z</time></trkpt><trkpt lat="44.16736517868355" lon="12.126995089967652"><ele>55.42857142857143</ele><time>2026-05-02T11:03:10Z</time></trkpt><trkpt lat="44.16730077945385" lon="12.126963029014213"><ele>56.71428571428572</ele><time>2026-05-02T11:03:14Z</time></trkpt><trkpt lat="44.16723944991258" lon="12.126929904978347"><ele>58.00000000000001</ele><time>2026-05-02T11:03:18Z</time></trkpt><trkpt lat="44.16716367290751" lon="12.12691042236472"><ele>58.71428571428572</ele><time>2026-05-02T11:03:22Z</time></trkpt><trkpt lat="44.16709548251423" lon="12.126886438394838"><ele>59.42857142857143</ele><time>2026-05-02T11:03:25Z</time></trkpt><trkpt lat="44.16703334654532" lon="12.126857096093099"><ele>60.142857142857146</ele><time>2026-05-02T11:03:28Z</time></trkpt><trkpt lat="44.16697370267394" lon="12.126823532504684"><ele>60.85714285714286</ele><time>2026-05-02T11:03:31Z</time></trkpt><trkpt lat="44.16689590948858" lon="12.126790489040152"><ele>61.57142857142857</ele><time>2026-05-02T11:03:35Z</time></trkpt><trkpt lat="44.1668172554783" lon="12.126748992734326"><ele>62.285714285714285</ele><time>2026-05-02T11:03:39Z</time></trkpt><trkpt lat="44.16675438673943" lon="12.126737916639124"><ele>63.0</ele><time>2026-05-02T11:03:42Z</time></trkpt><trkpt lat="44.166675919474166" lon="12.126714765510691"><ele>63.0</ele><time>2026-05-02T11:03:46Z</time></trkpt><trkpt lat="44.16659996437484" lon="12.126689460438719"><ele>63.0</ele><time>2026-05-02T11:03:50Z</time></trkpt><trkpt lat="44.16653698362463" lon="12.126672160980934"><ele>63.0</ele><time>2026-05-02T11:03:53Z</time></trkpt><trkpt lat="44.166471187420015" lon="12.126640487877554"><ele>63.0</ele><time>2026-05-02T11:03:57Z</time></trkpt><trkpt lat="44.166393297286184" lon="12.126608792083827"><ele>63.0</ele><time>2026-05-02T11:04:01Z</time></trkpt><trkpt lat="44.16631458397413" lon="12.12657148831274"><ele>63.0</ele><time>2026-05-02T11:04:05Z</time></trkpt><trkpt lat="44.1662371048605" lon="12.12653167479786"><ele>63.166666666666664</ele><time>2026-05-02T11:04:09Z</time></trkpt><trkpt lat="44.16616009966058" lon="12.126490014925727"><ele>63.33333333333333</ele><time>2026-05-02T11:04:13Z</time></trkpt><trkpt lat="44.16609336308231" lon="12.12645714928008"><ele>63.5</ele><time>2026-05-02T11:04:16Z</time></trkpt><trkpt lat="44.16602510664067" lon="12.12642301351389"><ele>63.666666666666664</ele><time>2026-05-02T11:04:19Z</time></trkpt><trkpt lat="44.16595555853408" lon="12.126391217929598"><ele>63.83333333333333</ele><time>2026-05-02T11:04:22Z</time></trkpt><trkpt lat="44.165877507251544" lon="12.126367602288965"><ele>64.0</ele><time>2026-05-02T11:04:25Z</time></trkpt><trkpt lat="44.16580175492476" lon="12.126320258583533"><ele>63.99999999999999</ele><time>2026-05-02T11:04:28Z</time></trkpt><trkpt lat="44.16571273903413" lon="12.126288464707605"><ele>64.0</ele><time>2026-05-02T11:04:31Z</time></trkpt><trkpt lat="44.165629363117155" lon="12.126255170793938"><ele>64.0</ele><time>2026-05-02T11:04:34Z</time></trkpt><trkpt lat="44.16555264452272" lon="12.12620579720056"><ele>64.0</ele><time>2026-05-02T11:04:37Z</time></trkpt><trkpt lat="44.16547651263723" lon="12.126165282821411"><ele>63.99999999999999</ele><time>2026-05-02T11:04:40Z</time></trkpt><trkpt lat="44.165392524284954" lon="12.1261626853395"><ele>64.0</ele><time>2026-05-02T11:04:43Z</time></trkpt><trkpt lat="44.16530516765184" lon="12.12614899116442"><ele>64.42857142857143</ele><time>2026-05-02T11:04:45.999Z</time></trkpt><trkpt lat="44.165233396214575" lon="12.126110250074202"><ele>64.85714285714285</ele><time>2026-05-02T11:04:48.999Z</time></trkpt><trkpt lat="44.165164605536674" lon="12.126070002295382"><ele>65.28571428571428</ele><time>2026-05-02T11:04:52.999Z</time></trkpt><trkpt lat="44.165088845209006" lon="12.126024711024604"><ele>65.71428571428571</ele><time>2026-05-02T11:04:56.999Z</time></trkpt><trkpt lat="44.16501993965225" lon="12.12600724072071"><ele>66.14285714285714</ele><time>2026-05-02T11:04:59.999Z</time></trkpt><trkpt lat="44.16495147024024" lon="12.126033922286537"><ele>66.57142857142857</ele><time>2026-05-02T11:05:05Z</time></trkpt><trkpt lat="44.16496121683769" lon="12.126127690950302"><ele>67.0</ele><time>2026-05-02T11:05:10Z</time></trkpt><trkpt lat="44.16494681320313" lon="12.126214971350706"><ele>67.0</ele><time>2026-05-02T11:05:14Z</time></trkpt><trkpt lat="44.164943373651035" lon="12.126320810365295"><ele>67.0</ele><time>2026-05-02T11:05:18Z</time></trkpt><trkpt lat="44.16492317330381" lon="12.126405397573928"><ele>67.0</ele><time>2026-05-02T11:05:21Z</time></trkpt><trkpt lat="44.16485745141433" lon="12.126429203021978"><ele>67.0</ele><time>2026-05-02T11:05:24Z</time></trkpt><trkpt lat="44.16478256616982" lon="12.126489881799227"><ele>67.0</ele><time>2026-05-02T11:05:27Z</time></trkpt><trkpt lat="44.16470765798386" lon="12.126539755683888"><ele>67.0</ele><time>2026-05-02T11:05:31Z</time></trkpt><trkpt lat="44.16464900746595" lon="12.126605097310945"><ele>68.8</ele><time>2026-05-02T11:05:34Z</time></trkpt><trkpt lat="44.16458119611025" lon="12.126653584814171"><ele>70.6</ele><time>2026-05-02T11:05:37Z</time></trkpt><trkpt lat="44.16458973650458" lon="12.12677496440671"><ele>72.39999999999999</ele><time>2026-05-02T11:05:40Z</time></trkpt><trkpt lat="44.16465854106768" lon="12.126885217504157"><ele>74.2</ele><time>2026-05-02T11:05:42Z</time></trkpt><trkpt lat="44.16469398920091" lon="12.127063627141291"><ele>76.0</ele><time>2026-05-02T11:05:44Z</time></trkpt><trkpt lat="44.16470993783024" lon="12.12717920656184"><ele>76.0</ele><time>2026-05-02T11:05:45Z</time></trkpt><trkpt lat="44.16474170224059" lon="12.12727896383864"><ele>76.0</ele><time>2026-05-02T11:05:46Z</time></trkpt><trkpt lat="44.164744337524006" lon="12.127386898496134"><ele>76.0</ele><time>2026-05-02T11:05:47Z</time></trkpt><trkpt lat="44.1647578878705" lon="12.127496530235542"><ele>76.0</ele><time>2026-05-02T11:05:48Z</time></trkpt><trkpt lat="44.16476452255128" lon="12.127599347502038"><ele>76.0</ele><time>2026-05-02T11:05:49Z</time></trkpt><trkpt lat="44.16479619536608" lon="12.12769550759284"><ele>76.0</ele><time>2026-05-02T11:05:50Z</time></trkpt><trkpt lat="44.16482553797206" lon="12.127845183126833"><ele>74.5</ele><time>2026-05-02T11:05:52Z</time></trkpt><trkpt lat="44.16484644445749" lon="12.127935303801143"><ele>73.0</ele><time>2026-05-02T11:05:53Z</time></trkpt><trkpt lat="44.16486583352948" lon="12.128034739378405"><ele>71.5</ele><time>2026-05-02T11:05:54Z</time></trkpt><trkpt lat="44.16489243877922" lon="12.12814752531415"><ele>70.0</ele><time>2026-05-02T11:05:55Z</time></trkpt><trkpt lat="44.164918069176004" lon="12.128274690340412"><ele>68.5</ele><time>2026-05-02T11:05:56Z</time></trkpt><trkpt lat="44.164948173040976" lon="12.128398455528686"><ele>67.0</ele><time>2026-05-02T11:05:57Z</time></trkpt><trkpt lat="44.164974431231585" lon="12.128541196696977"><ele>63.8</ele><time>2026-05-02T11:05:58Z</time></trkpt><trkpt lat="44.16500082374771" lon="12.128668940637061"><ele>60.6</ele><time>2026-05-02T11:05:59Z</time></trkpt><trkpt lat="44.16503348610906" lon="12.12880472809841"><ele>57.4</ele><time>2026-05-02T11:06:00Z</time></trkpt><trkpt lat="44.16505662905709" lon="12.128946379670744"><ele>54.199999999999996</ele><time>2026-05-02T11:06:01Z</time></trkpt><trkpt lat="44.165072755602196" lon="12.129083298329034"><ele>51.0</ele><time>2026-05-02T11:06:02Z</time></trkpt><trkpt lat="44.16510680091488" lon="12.12921342333"><ele>49.5</ele><time>2026-05-02T11:06:03Z</time></trkpt><trkpt lat="44.165142414312655" lon="12.129337961230368"><ele>48.0</ele><time>2026-05-02T11:06:04Z</time></trkpt><trkpt lat="44.16516532846818" lon="12.129462307872512"><ele>46.5</ele><time>2026-05-02T11:06:05Z</time></trkpt><trkpt lat="44.16518176381059" lon="12.129573334494408"><ele>45.0</ele><time>2026-05-02T11:06:06Z</time></trkpt><trkpt lat="44.16520604550609" lon="12.129668812205917"><ele>43.5</ele><time>2026-05-02T11:06:07Z</time></trkpt><trkpt lat="44.16523205592978" lon="12.129797631811337"><ele>42.0</ele><time>2026-05-02T11:06:09Z</time></trkpt><trkpt lat="44.16530452273273" lon="12.129880441926609"><ele>41.4</ele><time>2026-05-02T11:06:11Z</time></trkpt><trkpt lat="44.16528430831806" lon="12.130004125124465"><ele>40.800000000000004</ele><time>2026-05-02T11:06:13Z</time></trkpt><trkpt lat="44.16534632245335" lon="12.130109986974789"><ele>40.2</ele><time>2026-05-02T11:06:15Z</time></trkpt><trkpt lat="44.16537736241609" lon="12.130231347094934"><ele>39.6</ele><time>2026-05-02T11:06:17Z</time></trkpt><trkpt lat="44.1654242033053" lon="12.130350545166554"><ele>39.0</ele><time>2026-05-02T11:06:19Z</time></trkpt><trkpt lat="44.16552315512026" lon="12.130395839826278"><ele>39.0</ele><time>2026-05-02T11:06:21Z</time></trkpt><trkpt lat="44.16562203786848" lon="12.13037763881108"><ele>39.0</ele><time>2026-05-02T11:06:23Z</time></trkpt><trkpt lat="44.16572002301104" lon="12.130391787254753"><ele>39.0</ele><time>2026-05-02T11:06:25Z</time></trkpt><trkpt lat="44.1658230775581" lon="12.130390044874943"><ele>39.0</ele><time>2026-05-02T11:06:27Z</time></trkpt><trkpt lat="44.16593525966668" lon="12.130369696156905"><ele>39.0</ele><time>2026-05-02T11:06:29Z</time></trkpt><trkpt lat="44.16603865670116" lon="12.13039071135063"><ele>38.5</ele><time>2026-05-02T11:06:31Z</time></trkpt><trkpt lat="44.1661369205177" lon="12.130368818228114"><ele>38.0</ele><time>2026-05-02T11:06:32.999Z</time></trkpt><trkpt lat="44.166227672868835" lon="12.130391295705387"><ele>37.5</ele><time>2026-05-02T11:06:34.999Z</time></trkpt><trkpt lat="44.166317566889134" lon="12.130389247973065"><ele>37.0</ele><time>2026-05-02T11:06:36.999Z</time></trkpt><trkpt lat="44.166394918050905" lon="12.13038719919145"><ele>36.5</ele><time>2026-05-02T11:06:38.999Z</time></trkpt><trkpt lat="44.16645926575491" lon="12.130386030046706"><ele>36.0</ele><time>2026-05-02T11:06:40.999Z</time></trkpt><trkpt lat="44.16652689918887" lon="12.130361743733014"><ele>35.714285714285715</ele><time>2026-05-02T11:06:42.999Z</time></trkpt><trkpt lat="44.166599277203815" lon="12.130376765987902"><ele>35.42857142857143</ele><time>2026-05-02T11:06:44.999Z</time></trkpt><trkpt lat="44.166670876431404" lon="12.130367961172267"><ele>35.14285714285714</ele><time>2026-05-02T11:06:46.999Z</time></trkpt><trkpt lat="44.16673408019262" lon="12.13033060724039"><ele>34.85714285714286</ele><time>2026-05-02T11:06:48.999Z</time></trkpt><trkpt lat="44.166799124712185" lon="12.130325034245166"><ele>34.57142857142857</ele><time>2026-05-02T11:06:50.999Z</time></trkpt><trkpt lat="44.1668920424306" lon="12.130311499331118"><ele>34.285714285714285</ele><time>2026-05-02T11:06:53.999Z</time></trkpt><trkpt lat="44.166940664753426" lon="12.130369214831909"><ele>34.0</ele><time>2026-05-02T11:06:55.999Z</time></trkpt><trkpt lat="44.166954211713865" lon="12.130472003450413"><ele>34.0</ele><time>2026-05-02T11:06:57.999Z</time></trkpt><trkpt lat="44.16696705969575" lon="12.130597882541386"><ele>34.0</ele><time>2026-05-02T11:06:59.999Z</time></trkpt><trkpt lat="44.166984242917565" lon="12.130724136254592"><ele>34.0</ele><time>2026-05-02T11:07:01.999Z</time></trkpt><trkpt lat="44.16699358003062" lon="12.130845176286101"><ele>34.0</ele><time>2026-05-02T11:07:03.999Z</time></trkpt><trkpt lat="44.167004852123355" lon="12.130967877386285"><ele>34.0</ele><time>2026-05-02T11:07:05.999Z</time></trkpt><trkpt lat="44.16702379572337" lon="12.131092732931066"><ele>33.4</ele><time>2026-05-02T11:07:07.999Z</time></trkpt><trkpt lat="44.16704880945941" lon="12.131203857417473"><ele>32.8</ele><time>2026-05-02T11:07:10Z</time></trkpt><trkpt lat="44.16705360509627" lon="12.131331414840886"><ele>32.2</ele><time>2026-05-02T11:07:12Z</time></trkpt><trkpt lat="44.167071675041896" lon="12.131470153627578"><ele>31.6</ele><time>2026-05-02T11:07:14Z</time></trkpt><trkpt lat="44.16708480421479" lon="12.131605321560897"><ele>31.0</ele><time>2026-05-02T11:07:16Z</time></trkpt><trkpt lat="44.16710169837665" lon="12.13172582674215"><ele>31.000000000000004</ele><time>2026-05-02T11:07:18Z</time></trkpt><trkpt lat="44.16713121710389" lon="12.13183358360252"><ele>31.0</ele><time>2026-05-02T11:07:20Z</time></trkpt><trkpt lat="44.1671494667643" lon="12.13195505709012"><ele>31.0</ele><time>2026-05-02T11:07:22Z</time></trkpt><trkpt lat="44.16717631622307" lon="12.132068978311377"><ele>31.0</ele><time>2026-05-02T11:07:24Z</time></trkpt><trkpt lat="44.16723869706091" lon="12.13213091998825"><ele>31.000000000000004</ele><time>2026-05-02T11:07:26Z</time></trkpt><trkpt lat="44.16731859553062" lon="12.132119764276956"><ele>31.0</ele><time>2026-05-02T11:07:28Z</time></trkpt><trkpt lat="44.167408724403074" lon="12.132110200618364"><ele>31.142857142857146</ele><time>2026-05-02T11:07:30Z</time></trkpt><trkpt lat="44.16747479348648" lon="12.132135405669365"><ele>31.28571428571429</ele><time>2026-05-02T11:07:32Z</time></trkpt><trkpt lat="44.16747710068874" lon="12.132233331957735"><ele>31.42857142857143</ele><time>2026-05-02T11:07:33Z</time></trkpt><trkpt lat="44.167500825953084" lon="12.132337059860319"><ele>31.57142857142857</ele><time>2026-05-02T11:07:35Z</time></trkpt><trkpt lat="44.167520299095166" lon="12.132428542712812"><ele>31.71428571428571</ele><time>2026-05-02T11:07:37Z</time></trkpt><trkpt lat="44.16753292866838" lon="12.132520247430715"><ele>31.857142857142854</ele><time>2026-05-02T11:07:39Z</time></trkpt><trkpt lat="44.16754569263574" lon="12.132611795798255"><ele>32.0</ele><time>2026-05-02T11:07:41Z</time></trkpt><trkpt lat="44.16756171023423" lon="12.132722443178723"><ele>31.999999999999996</ele><time>2026-05-02T11:07:43Z</time></trkpt><trkpt lat="44.16757655020368" lon="12.13283799981085"><ele>32.0</ele><time>2026-05-02T11:07:45Z</time></trkpt><trkpt lat="44.1675933637758" lon="12.132940086027487"><ele>32.0</ele><time>2026-05-02T11:07:47Z</time></trkpt><trkpt lat="44.16760141612764" lon="12.133032866868222"><ele>32.0</ele><time>2026-05-02T11:07:49Z</time></trkpt><trkpt lat="44.16762932584181" lon="12.1331578092094"><ele>31.999999999999996</ele><time>2026-05-02T11:07:52Z</time></trkpt><trkpt lat="44.16764829779239" lon="12.13326387324932"><ele>32.0</ele><time>2026-05-02T11:07:54Z</time></trkpt><trkpt lat="44.16766408626949" lon="12.13338311258635"><ele>31.999999999999996</ele><time>2026-05-02T11:07:56Z</time></trkpt><trkpt lat="44.16768147682734" lon="12.133497767890429"><ele>32.0</ele><time>2026-05-02T11:07:58Z</time></trkpt><trkpt lat="44.16769556035058" lon="12.133596444250546"><ele>32.0</ele><time>2026-05-02T11:08:00Z</time></trkpt><trkpt lat="44.1677131339459" lon="12.13372483619442"><ele>32.0</ele><time>2026-05-02T11:08:03Z</time></trkpt><trkpt lat="44.16772390092291" lon="12.133830260580826"><ele>31.999999999999996</ele><time>2026-05-02T11:08:05Z</time></trkpt><trkpt lat="44.16773847398252" lon="12.133934968535183"><ele>32.0</ele><time>2026-05-02T11:08:07Z</time></trkpt><trkpt lat="44.16775761469724" lon="12.13405411245384"><ele>31.999999999999996</ele><time>2026-05-02T11:08:09Z</time></trkpt><trkpt lat="44.16777049523507" lon="12.134170852444225"><ele>32.0</ele><time>2026-05-02T11:08:11Z</time></trkpt><trkpt lat="44.16778532207545" lon="12.134283533251326"><ele>32.0</ele><time>2026-05-02T11:08:13Z</time></trkpt><trkpt lat="44.167804215928605" lon="12.134413906083871"><ele>32.0</ele><time>2026-05-02T11:08:15Z</time></trkpt><trkpt lat="44.16782317604811" lon="12.134529199701499"><ele>31.999999999999996</ele><time>2026-05-02T11:08:17Z</time></trkpt><trkpt lat="44.16784017103839" lon="12.134663670665933"><ele>32.0</ele><time>2026-05-02T11:08:19Z</time></trkpt><trkpt lat="44.167859921093644" lon="12.134791870919956"><ele>31.8</ele><time>2026-05-02T11:08:21Z</time></trkpt><trkpt lat="44.16787793715115" lon="12.134905489595235"><ele>31.6</ele><time>2026-05-02T11:08:23Z</time></trkpt><trkpt lat="44.16789291344159" lon="12.13502266820496"><ele>31.400000000000002</ele><time>2026-05-02T11:08:25Z</time></trkpt><trkpt lat="44.16791581884845" lon="12.135152652163079"><ele>31.200000000000003</ele><time>2026-05-02T11:08:27Z</time></trkpt><trkpt lat="44.167934559735556" lon="12.135285452766523"><ele>31.0</ele><time>2026-05-02T11:08:29Z</time></trkpt><trkpt lat="44.167953975403634" lon="12.135413635262136"><ele>31.000000000000004</ele><time>2026-05-02T11:08:31Z</time></trkpt><trkpt lat="44.167969072042794" lon="12.135541031458747"><ele>31.0</ele><time>2026-05-02T11:08:33Z</time></trkpt><trkpt lat="44.167983506987404" lon="12.135657376288057"><ele>31.0</ele><time>2026-05-02T11:08:35Z</time></trkpt><trkpt lat="44.167997861012196" lon="12.135769841763652"><ele>31.0</ele><time>2026-05-02T11:08:37Z</time></trkpt><trkpt lat="44.1680176783565" lon="12.135898206004912"><ele>31.000000000000004</ele><time>2026-05-02T11:08:39Z</time></trkpt><trkpt lat="44.16803446912449" lon="12.136030040573761"><ele>31.0</ele><time>2026-05-02T11:08:41Z</time></trkpt><trkpt lat="44.16805498438338" lon="12.136143727905806"><ele>31.142857142857146</ele><time>2026-05-02T11:08:43Z</time></trkpt><trkpt lat="44.16807197194547" lon="12.136251395115137"><ele>31.28571428571429</ele><time>2026-05-02T11:08:45Z</time></trkpt><trkpt lat="44.16808340430319" lon="12.136355845074027"><ele>31.42857142857143</ele><time>2026-05-02T11:08:46.999Z</time></trkpt><trkpt lat="44.16810352200174" lon="12.136446759812547"><ele>31.57142857142857</ele><time>2026-05-02T11:08:48.999Z</time></trkpt><trkpt lat="44.1681238571703" lon="12.1365353323109"><ele>31.71428571428571</ele><time>2026-05-02T11:08:50.999Z</time></trkpt><trkpt lat="44.16813434761508" lon="12.136630497011826"><ele>31.857142857142854</ele><time>2026-05-02T11:08:52.999Z</time></trkpt><trkpt lat="44.168075376030586" lon="12.136712084455457"><ele>32.0</ele><time>2026-05-02T11:08:55.999Z</time></trkpt><trkpt lat="44.168011676130156" lon="12.136697238650333"><ele>32.14285714285714</ele><time>2026-05-02T11:08:57.999Z</time></trkpt><trkpt lat="44.16795039794121" lon="12.136672324254045"><ele>32.285714285714285</ele><time>2026-05-02T11:08:59.999Z</time></trkpt><trkpt lat="44.16786225134854" lon="12.13667457695117"><ele>32.42857142857143</ele><time>2026-05-02T11:09:02.999Z</time></trkpt><trkpt lat="44.167786818797985" lon="12.136672572835632"><ele>32.57142857142857</ele><time>2026-05-02T11:09:05.999Z</time></trkpt><trkpt lat="44.16771717552366" lon="12.13667503500042"><ele>32.714285714285715</ele><time>2026-05-02T11:09:08.999Z</time></trkpt><trkpt lat="44.16764927907916" lon="12.136689665453124"><ele>32.857142857142854</ele><time>2026-05-02T11:09:11.999Z</time></trkpt><trkpt lat="44.16757797394464" lon="12.136684407376567"><ele>33.0</ele><time>2026-05-02T11:09:14.999Z</time></trkpt><trkpt lat="44.16751104728389" lon="12.13668887730919"><ele>33.0</ele><time>2026-05-02T11:09:18Z</time></trkpt><trkpt lat="44.16744433963101" lon="12.136691110470785"><ele>33.0</ele><time>2026-05-02T11:09:21Z</time></trkpt><trkpt lat="44.16736369885782" lon="12.136696852912957"><ele>33.0</ele><time>2026-05-02T11:09:25Z</time></trkpt><trkpt lat="44.1672918112707" lon="12.136694604303285"><ele>33.0</ele><time>2026-05-02T11:09:29Z</time></trkpt><trkpt lat="44.16722104464966" lon="12.136702796783894"><ele>33.0</ele><time>2026-05-02T11:09:33Z</time></trkpt><trkpt lat="44.16714381160412" lon="12.136722827611873"><ele>33.0</ele><time>2026-05-02T11:09:38Z</time></trkpt><trkpt lat="44.167074225949904" lon="12.136737357432706"><ele>33.0</ele><time>2026-05-02T11:09:42Z</time></trkpt><trkpt lat="44.16700206089451" lon="12.136765313435596"><ele>33.714285714285715</ele><time>2026-05-02T11:09:47Z</time></trkpt><trkpt lat="44.16693268016314" lon="12.136795374182684"><ele>34.42857142857143</ele><time>2026-05-02T11:09:52Z</time></trkpt><trkpt lat="44.166866857901844" lon="12.13682898762609"><ele>35.14285714285714</ele><time>2026-05-02T11:09:57Z</time></trkpt><trkpt lat="44.166799818728826" lon="12.136864635936847"><ele>35.85714285714286</ele><time>2026-05-02T11:10:02Z</time></trkpt><trkpt lat="44.16672880172398" lon="12.136894167178884"><ele>36.57142857142858</ele><time>2026-05-02T11:10:07Z</time></trkpt><trkpt lat="44.1666609264388" lon="12.136936813729728"><ele>37.285714285714285</ele><time>2026-05-02T11:10:12Z</time></trkpt><trkpt lat="44.166591091179505" lon="12.136972320611594"><ele>38.0</ele><time>2026-05-02T11:10:17Z</time></trkpt><trkpt lat="44.166517186303714" lon="12.13700449073339"><ele>38.714285714285715</ele><time>2026-05-02T11:10:22Z</time></trkpt><trkpt lat="44.16645604063354" lon="12.137031448709948"><ele>39.42857142857143</ele><time>2026-05-02T11:10:26Z</time></trkpt><trkpt lat="44.166390205899546" lon="12.137061763573184"><ele>40.142857142857146</ele><time>2026-05-02T11:10:31Z</time></trkpt><trkpt lat="44.16633035885114" lon="12.137095984418417"><ele>40.85714285714286</ele><time>2026-05-02T11:10:36Z</time></trkpt><trkpt lat="44.166268406633876" lon="12.137122361854615"><ele>41.57142857142857</ele><time>2026-05-02T11:10:42Z</time></trkpt><trkpt lat="44.16619838764532" lon="12.13713234541354"><ele>42.28571428571429</ele><time>2026-05-02T11:10:46.999Z</time></trkpt><trkpt lat="44.16612626963125" lon="12.13716643477504"><ele>43.0</ele><time>2026-05-02T11:10:51.999Z</time></trkpt><trkpt lat="44.166060720526474" lon="12.13717553061153"><ele>43.00000000000001</ele><time>2026-05-02T11:10:55.999Z</time></trkpt><trkpt lat="44.16600445823718" lon="12.137215845347045"><ele>43.0</ele><time>2026-05-02T11:10:59.999Z</time></trkpt><trkpt lat="44.16593586127027" lon="12.137221843037167"><ele>43.0</ele><time>2026-05-02T11:11:03.999Z</time></trkpt><trkpt lat="44.16586098661495" lon="12.137223751802816"><ele>43.0</ele><time>2026-05-02T11:11:07.999Z</time></trkpt><trkpt lat="44.16578386424588" lon="12.137239403179535"><ele>43.0</ele><time>2026-05-02T11:11:11.999Z</time></trkpt><trkpt lat="44.16571111988705" lon="12.137252130949372"><ele>43.00000000000001</ele><time>2026-05-02T11:11:15.999Z</time></trkpt><trkpt lat="44.16563760467111" lon="12.137250427069914"><ele>43.0</ele><time>2026-05-02T11:11:19.999Z</time></trkpt><trkpt lat="44.16555998187784" lon="12.137264536835264"><ele>43.00000000000001</ele><time>2026-05-02T11:11:24Z</time></trkpt><trkpt lat="44.165474937631814" lon="12.13728669168817"><ele>43.0</ele><time>2026-05-02T11:11:28Z</time></trkpt><trkpt lat="44.16540797367962" lon="12.137292914694285"><ele>43.0</ele><time>2026-05-02T11:11:31Z</time></trkpt><trkpt lat="44.16534164198708" lon="12.137309309654823"><ele>43.0</ele><time>2026-05-02T11:11:34Z</time></trkpt><trkpt lat="44.16526134558833" lon="12.13731825441162"><ele>43.0</ele><time>2026-05-02T11:11:38Z</time></trkpt><trkpt lat="44.16519792022304" lon="12.137317882483863"><ele>43.00000000000001</ele><time>2026-05-02T11:11:41Z</time></trkpt><trkpt lat="44.16512761622005" lon="12.137284796924847"><ele>43.0</ele><time>2026-05-02T11:11:44Z</time></trkpt><trkpt lat="44.165065238600185" lon="12.137239344184472"><ele>43.0</ele><time>2026-05-02T11:11:47Z</time></trkpt><trkpt lat="44.164985371352756" lon="12.137199352454552"><ele>43.0</ele><time>2026-05-02T11:11:50Z</time></trkpt><trkpt lat="44.1649242801682" lon="12.137161383064118"><ele>43.0</ele><time>2026-05-02T11:11:52Z</time></trkpt><trkpt lat="44.164856611944906" lon="12.137125245892248"><ele>43.0</ele><time>2026-05-02T11:11:54Z</time></trkpt><trkpt lat="44.16478314944534" lon="12.137085558202639"><ele>43.0</ele><time>2026-05-02T11:11:56Z</time></trkpt><trkpt lat="44.16468935177099" lon="12.137045385138356"><ele>43.0</ele><time>2026-05-02T11:11:58Z</time></trkpt><trkpt lat="44.16459911296133" lon="12.1370014425408"><ele>42.8</ele><time>2026-05-02T11:12:00Z</time></trkpt><trkpt lat="44.164498789759804" lon="12.136959490204646"><ele>42.599999999999994</ele><time>2026-05-02T11:12:02Z</time></trkpt><trkpt lat="44.16439056902061" lon="12.136906127577703"><ele>42.400000000000006</ele><time>2026-05-02T11:12:04Z</time></trkpt><trkpt lat="44.164282209531365" lon="12.136830078569526"><ele>42.2</ele><time>2026-05-02T11:12:06Z</time></trkpt><trkpt lat="44.16421853983608" lon="12.136800597044338"><ele>42.0</ele><time>2026-05-02T11:12:07Z</time></trkpt><trkpt lat="44.16415737140969" lon="12.136772362944551"><ele>42.0</ele><time>2026-05-02T11:12:08Z</time></trkpt><trkpt lat="44.16409285064978" lon="12.136742581476872"><ele>42.0</ele><time>2026-05-02T11:12:09Z</time></trkpt><trkpt lat="44.16403219257179" lon="12.13671458294592"><ele>42.0</ele><time>2026-05-02T11:12:10Z</time></trkpt><trkpt lat="44.16396555405331" lon="12.136683823961032"><ele>42.0</ele><time>2026-05-02T11:12:11Z</time></trkpt><trkpt lat="44.16389952353342" lon="12.136653345619026"><ele>42.0</ele><time>2026-05-02T11:12:12Z</time></trkpt><trkpt lat="44.163827079319255" lon="12.13661990684881"><ele>42.0</ele><time>2026-05-02T11:12:13Z</time></trkpt><trkpt lat="44.16375626329801" lon="12.136587219614219"><ele>42.0</ele><time>2026-05-02T11:12:14Z</time></trkpt><trkpt lat="44.16368822939875" lon="12.136555641247028"><ele>41.857142857142854</ele><time>2026-05-02T11:12:15Z</time></trkpt><trkpt lat="44.16362047426062" lon="12.136523815979924"><ele>41.714285714285715</ele><time>2026-05-02T11:12:16Z</time></trkpt><trkpt lat="44.16354961328006" lon="12.136490531865803"><ele>41.57142857142857</ele><time>2026-05-02T11:12:17Z</time></trkpt><trkpt lat="44.16347777981657" lon="12.136456790968914"><ele>41.42857142857143</ele><time>2026-05-02T11:12:18Z</time></trkpt><trkpt lat="44.16340534082477" lon="12.136422765646289"><ele>41.285714285714285</ele><time>2026-05-02T11:12:19Z</time></trkpt><trkpt lat="44.16333430073216" lon="12.136389731569823"><ele>41.14285714285714</ele><time>2026-05-02T11:12:20Z</time></trkpt><trkpt lat="44.16326891535179" lon="12.136359823604968"><ele>41.0</ele><time>2026-05-02T11:12:21Z</time></trkpt><trkpt lat="44.16320083218458" lon="12.136329805055821"><ele>41.0</ele><time>2026-05-02T11:12:22Z</time></trkpt><trkpt lat="44.1631303790882" lon="12.13629941801091"><ele>41.0</ele><time>2026-05-02T11:12:23Z</time></trkpt><trkpt lat="44.16306899625108" lon="12.136272943046935"><ele>41.0</ele><time>2026-05-02T11:12:24Z</time></trkpt><trkpt lat="44.16300637391152" lon="12.136245933477737"><ele>41.0</ele><time>2026-05-02T11:12:25Z</time></trkpt><trkpt lat="44.16289319108316" lon="12.136194575158433"><ele>41.0</ele><time>2026-05-02T11:12:27Z</time></trkpt><trkpt lat="44.16278834402471" lon="12.136159673501883"><ele>41.0</ele><time>2026-05-02T11:12:29Z</time></trkpt><trkpt lat="44.16269755655599" lon="12.136115896401892"><ele>41.0</ele><time>2026-05-02T11:12:31Z</time></trkpt><trkpt lat="44.16261625948419" lon="12.136070280943843"><ele>41.0</ele><time>2026-05-02T11:12:33Z</time></trkpt><trkpt lat="44.16254376453527" lon="12.136042048755831"><ele>41.0</ele><time>2026-05-02T11:12:35Z</time></trkpt><trkpt lat="44.16248112528999" lon="12.136017960376712"><ele>41.0</ele><time>2026-05-02T11:12:37Z</time></trkpt><trkpt lat="44.16239770746574" lon="12.135975391613075"><ele>41.0</ele><time>2026-05-02T11:12:40Z</time></trkpt><trkpt lat="44.16233704028438" lon="12.135946933977202"><ele>41.0</ele><time>2026-05-02T11:12:42Z</time></trkpt><trkpt lat="44.16224671735064" lon="12.13591948754171"><ele>41.33333333333333</ele><time>2026-05-02T11:12:45Z</time></trkpt><trkpt lat="44.16216159063454" lon="12.135882067856558"><ele>41.666666666666664</ele><time>2026-05-02T11:12:48Z</time></trkpt><trkpt lat="44.16208158590351" lon="12.135852238716616"><ele>42.0</ele><time>2026-05-02T11:12:50.999Z</time></trkpt><trkpt lat="44.162003620509545" lon="12.13582418057773"><ele>42.333333333333336</ele><time>2026-05-02T11:12:53.999Z</time></trkpt><trkpt lat="44.16192251021563" lon="12.135803137282165"><ele>42.66666666666667</ele><time>2026-05-02T11:12:56.999Z</time></trkpt><trkpt lat="44.16184547119218" lon="12.13577318624867"><ele>43.0</ele><time>2026-05-02T11:12:59.999Z</time></trkpt><trkpt lat="44.161767416435964" lon="12.135754633997092"><ele>43.00000000000001</ele><time>2026-05-02T11:13:02.999Z</time></trkpt><trkpt lat="44.1616903381142" lon="12.135731803291922"><ele>43.0</ele><time>2026-05-02T11:13:05.999Z</time></trkpt><trkpt lat="44.16162369245594" lon="12.135712504207223"><ele>43.0</ele><time>2026-05-02T11:13:08.999Z</time></trkpt><trkpt lat="44.16155726387493" lon="12.135691699135867"><ele>43.0</ele><time>2026-05-02T11:13:11.999Z</time></trkpt><trkpt lat="44.161484811593226" lon="12.135673103218837"><ele>43.0</ele><time>2026-05-02T11:13:14.999Z</time></trkpt><trkpt lat="44.161417837944846" lon="12.135655843167276"><ele>43.00000000000001</ele><time>2026-05-02T11:13:17.999Z</time></trkpt><trkpt lat="44.16134757089094" lon="12.135649247839078"><ele>43.0</ele><time>2026-05-02T11:13:20.999Z</time></trkpt><trkpt lat="44.16128097942347" lon="12.135629810305021"><ele>43.28571428571429</ele><time>2026-05-02T11:13:23.999Z</time></trkpt><trkpt lat="44.16120918754097" lon="12.135618671315953"><ele>43.57142857142857</ele><time>2026-05-02T11:13:26.999Z</time></trkpt><trkpt lat="44.16114260707436" lon="12.135609792422034"><ele>43.85714285714286</ele><time>2026-05-02T11:13:30Z</time></trkpt><trkpt lat="44.16107428000294" lon="12.135605887074336"><ele>44.142857142857146</ele><time>2026-05-02T11:13:33Z</time></trkpt><trkpt lat="44.16100465476058" lon="12.135590010200763"><ele>44.42857142857143</ele><time>2026-05-02T11:13:36Z</time></trkpt><trkpt lat="44.1609318700688" lon="12.135584170502637"><ele>44.714285714285715</ele><time>2026-05-02T11:13:39Z</time></trkpt><trkpt lat="44.16085798753984" lon="12.135570894318356"><ele>45.0</ele><time>2026-05-02T11:13:42Z</time></trkpt><trkpt lat="44.160788341231196" lon="12.135564169707063"><ele>45.0</ele><time>2026-05-02T11:13:46Z</time></trkpt><trkpt lat="44.16072543514492" lon="12.135601917007563"><ele>45.0</ele><time>2026-05-02T11:13:49Z</time></trkpt><trkpt lat="44.16066186001913" lon="12.135607227095653"><ele>45.0</ele><time>2026-05-02T11:13:52Z</time></trkpt><trkpt lat="44.160603910092874" lon="12.135662820521224"><ele>45.0</ele><time>2026-05-02T11:13:55Z</time></trkpt><trkpt lat="44.16053688179963" lon="12.135713778262476"><ele>45.0</ele><time>2026-05-02T11:13:59Z</time></trkpt><trkpt lat="44.160474887595356" lon="12.135730182672582"><ele>45.0</ele><time>2026-05-02T11:14:02Z</time></trkpt><trkpt lat="44.16041178268983" lon="12.13575147377575"><ele>45.0</ele><time>2026-05-02T11:14:05Z</time></trkpt><trkpt lat="44.16034571419305" lon="12.13577153214671"><ele>46.0</ele><time>2026-05-02T11:14:08Z</time></trkpt><trkpt lat="44.160279459170134" lon="12.135776757964418"><ele>47.0</ele><time>2026-05-02T11:14:11Z</time></trkpt><trkpt lat="44.16020995795647" lon="12.135801587149194"><ele>48.0</ele><time>2026-05-02T11:14:14Z</time></trkpt><trkpt lat="44.16013325439903" lon="12.13581080612906"><ele>49.0</ele><time>2026-05-02T11:14:18Z</time></trkpt><trkpt lat="44.16007198336557" lon="12.135831128775228"><ele>50.0</ele><time>2026-05-02T11:14:21Z</time></trkpt><trkpt lat="44.1600046953213" lon="12.135842793283379"><ele>51.0</ele><time>2026-05-02T11:14:25Z</time></trkpt><trkpt lat="44.159933203915614" lon="12.135851590414354"><ele>52.0</ele><time>2026-05-02T11:14:29Z</time></trkpt><trkpt lat="44.15986106763919" lon="12.135869270970883"><ele>52.57142857142857</ele><time>2026-05-02T11:14:32Z</time></trkpt><trkpt lat="44.15979303845314" lon="12.135889095234697"><ele>53.142857142857146</ele><time>2026-05-02T11:14:36Z</time></trkpt><trkpt lat="44.159728112164295" lon="12.135905900969806"><ele>53.714285714285715</ele><time>2026-05-02T11:14:40Z</time></trkpt><trkpt lat="44.159661107247395" lon="12.135917157659511"><ele>54.285714285714285</ele><time>2026-05-02T11:14:44Z</time></trkpt><trkpt lat="44.159598205482894" lon="12.135969627937783"><ele>54.85714285714286</ele><time>2026-05-02T11:14:48Z</time></trkpt><trkpt lat="44.15952925808841" lon="12.135999817126594"><ele>55.42857142857143</ele><time>2026-05-02T11:14:52Z</time></trkpt><trkpt lat="44.159464137069925" lon="12.136025480350568"><ele>56.0</ele><time>2026-05-02T11:14:56Z</time></trkpt><trkpt lat="44.15939615790423" lon="12.136056782256595"><ele>56.0</ele><time>2026-05-02T11:15:00Z</time></trkpt><trkpt lat="44.15933270336574" lon="12.136078212086067"><ele>56.0</ele><time>2026-05-02T11:15:04Z</time></trkpt><trkpt lat="44.15925739650154" lon="12.136101713090653"><ele>56.0</ele><time>2026-05-02T11:15:08.999Z</time></trkpt><trkpt lat="44.15918864865466" lon="12.136135312673723"><ele>56.0</ele><time>2026-05-02T11:15:13.999Z</time></trkpt><trkpt lat="44.159122370801" lon="12.136157329479403"><ele>56.0</ele><time>2026-05-02T11:15:18.999Z</time></trkpt><trkpt lat="44.15906083219367" lon="12.136185936331275"><ele>56.0</ele><time>2026-05-02T11:15:23.999Z</time></trkpt><trkpt lat="44.158993616151754" lon="12.13620042091985"><ele>56.0</ele><time>2026-05-02T11:15:28.999Z</time></trkpt><trkpt lat="44.1589200444071" lon="12.136211119948598"><ele>58.285714285714285</ele><time>2026-05-02T11:15:35Z</time></trkpt><trkpt lat="44.15885052699617" lon="12.136231688173998"><ele>60.57142857142857</ele><time>2026-05-02T11:15:42Z</time></trkpt><trkpt lat="44.158787471232216" lon="12.136251955783607"><ele>62.85714285714286</ele><time>2026-05-02T11:15:48Z</time></trkpt><trkpt lat="44.158715749181674" lon="12.136250804966217"><ele>65.14285714285714</ele><time>2026-05-02T11:15:54Z</time></trkpt><trkpt lat="44.15864706955211" lon="12.136265923520698"><ele>67.42857142857143</ele><time>2026-05-02T11:16:02Z</time></trkpt><trkpt lat="44.15858079912659" lon="12.136244274198095"><ele>69.71428571428572</ele><time>2026-05-02T11:16:09Z</time></trkpt><trkpt lat="44.15851307252145" lon="12.136232823739334"><ele>72.0</ele><time>2026-05-02T11:16:16Z</time></trkpt><trkpt lat="44.158447244135914" lon="12.13622327074483"><ele>72.00000000000001</ele><time>2026-05-02T11:16:23Z</time></trkpt><trkpt lat="44.158384119409725" lon="12.13620446981133"><ele>72.0</ele><time>2026-05-02T11:16:30Z</time></trkpt><trkpt lat="44.15832067992836" lon="12.136175266721262"><ele>72.0</ele><time>2026-05-02T11:16:37Z</time></trkpt><trkpt lat="44.15826114833427" lon="12.136139367798156"><ele>72.0</ele><time>2026-05-02T11:16:44Z</time></trkpt><trkpt lat="44.15819670065279" lon="12.136116278616358"><ele>72.0</ele><time>2026-05-02T11:16:52Z</time></trkpt><trkpt lat="44.15813405281631" lon="12.136105795082289"><ele>72.00000000000001</ele><time>2026-05-02T11:16:59Z</time></trkpt><trkpt lat="44.158061816011106" lon="12.136107233736602"><ele>72.0</ele><time>2026-05-02T11:17:08Z</time></trkpt><trkpt lat="44.15803045056272" lon="12.13619596800913"><ele>74.14285714285715</ele><time>2026-05-02T11:17:14.999Z</time></trkpt><trkpt lat="44.1580013941843" lon="12.136283538544838"><ele>76.28571428571429</ele><time>2026-05-02T11:17:22.999Z</time></trkpt><trkpt lat="44.15798788024425" lon="12.136373261043305"><ele>78.42857142857143</ele><time>2026-05-02T11:17:29.999Z</time></trkpt><trkpt lat="44.15796859998168" lon="12.136465639872576"><ele>80.57142857142858</ele><time>2026-05-02T11:17:36.999Z</time></trkpt><trkpt lat="44.15795186023458" lon="12.136551891815913"><ele>82.71428571428572</ele><time>2026-05-02T11:17:43Z</time></trkpt><trkpt lat="44.15792359533641" lon="12.13664616845643"><ele>84.85714285714286</ele><time>2026-05-02T11:17:50Z</time></trkpt><trkpt lat="44.15791516534554" lon="12.136733392074682"><ele>87.0</ele><time>2026-05-02T11:17:56Z</time></trkpt><trkpt lat="44.15788786362318" lon="12.136818117480729"><ele>87.85714285714286</ele><time>2026-05-02T11:18:02Z</time></trkpt><trkpt lat="44.15784237283418" lon="12.136894108550957"><ele>88.71428571428572</ele><time>2026-05-02T11:18:08Z</time></trkpt><trkpt lat="44.15781198228792" lon="12.136982450767643"><ele>89.57142857142858</ele><time>2026-05-02T11:18:15Z</time></trkpt><trkpt lat="44.15779104042945" lon="12.13706897580207"><ele>90.42857142857143</ele><time>2026-05-02T11:18:21Z</time></trkpt><trkpt lat="44.15774169922806" lon="12.137132159121908"><ele>91.28571428571429</ele><time>2026-05-02T11:18:27Z</time></trkpt><trkpt lat="44.157707489279446" lon="12.137213325917285"><ele>92.14285714285715</ele><time>2026-05-02T11:18:33Z</time></trkpt><trkpt lat="44.15765356134375" lon="12.137286222753252"><ele>93.0</ele><time>2026-05-02T11:18:38Z</time></trkpt><trkpt lat="44.15761634333464" lon="12.137359090385083"><ele>93.00000000000001</ele><time>2026-05-02T11:18:43Z</time></trkpt><trkpt lat="44.15755731829504" lon="12.137405407844284"><ele>93.0</ele><time>2026-05-02T11:18:48Z</time></trkpt><trkpt lat="44.15750105771175" lon="12.137448397516545"><ele>93.0</ele><time>2026-05-02T11:18:53Z</time></trkpt><trkpt lat="44.157440500329145" lon="12.13748036418825"><ele>93.0</ele><time>2026-05-02T11:18:58Z</time></trkpt><trkpt lat="44.157373434861576" lon="12.137498795505934"><ele>93.0</ele><time>2026-05-02T11:19:05Z</time></trkpt><trkpt lat="44.15730572293684" lon="12.137519682823722"><ele>93.00000000000001</ele><time>2026-05-02T11:19:11Z</time></trkpt><trkpt lat="44.157228540553746" lon="12.137515811920638"><ele>93.0</ele><time>2026-05-02T11:19:16.999Z</time></trkpt><trkpt lat="44.15717186179422" lon="12.13746632483239"><ele>94.85714285714286</ele><time>2026-05-02T11:19:23.999Z</time></trkpt><trkpt lat="44.157129871240116" lon="12.137390374171073"><ele>96.71428571428572</ele><time>2026-05-02T11:19:30.999Z</time></trkpt><trkpt lat="44.15708400698871" lon="12.137321605975627"><ele>98.57142857142858</ele><time>2026-05-02T11:19:36.999Z</time></trkpt><trkpt lat="44.157029676278135" lon="12.137256345959605"><ele>100.42857142857143</ele><time>2026-05-02T11:19:42.999Z</time></trkpt><trkpt lat="44.15696832707021" lon="12.137198522548701"><ele>102.28571428571428</ele><time>2026-05-02T11:19:50Z</time></trkpt><trkpt lat="44.156915005084855" lon="12.137135014478046"><ele>104.14285714285715</ele><time>2026-05-02T11:19:56Z</time></trkpt><trkpt lat="44.15686019479617" lon="12.137087709898207"><ele>106.0</ele><time>2026-05-02T11:20:01Z</time></trkpt><trkpt lat="44.15681115222855" lon="12.137021402071733"><ele>106.0</ele><time>2026-05-02T11:20:08Z</time></trkpt><trkpt lat="44.15675561332165" lon="12.136962506874626"><ele>106.0</ele><time>2026-05-02T11:20:15Z</time></trkpt><trkpt lat="44.156694556821165" lon="12.136912188626626"><ele>106.0</ele><time>2026-05-02T11:20:21Z</time></trkpt><trkpt lat="44.15663526206835" lon="12.136865069899232"><ele>106.0</ele><time>2026-05-02T11:20:28Z</time></trkpt><trkpt lat="44.15656678639043" lon="12.136823384900518"><ele>106.0</ele><time>2026-05-02T11:20:37Z</time></trkpt><trkpt lat="44.15650618997515" lon="12.13675968664894"><ele>106.0</ele><time>2026-05-02T11:20:45Z</time></trkpt><trkpt lat="44.15646839880172" lon="12.13667863958081"><ele>106.0</ele><time>2026-05-02T11:20:51Z</time></trkpt><trkpt lat="44.156408216335386" lon="12.136633754651875"><ele>107.42857142857143</ele><time>2026-05-02T11:20:57Z</time></trkpt><trkpt lat="44.15636425138345" lon="12.136552863744397"><ele>108.85714285714286</ele><time>2026-05-02T11:21:04Z</time></trkpt><trkpt lat="44.15631461718537" lon="12.136475837660791"><ele>110.28571428571429</ele><time>2026-05-02T11:21:09Z</time></trkpt><trkpt lat="44.15625601372278" lon="12.136437605381435"><ele>111.71428571428572</ele><time>2026-05-02T11:21:14Z</time></trkpt><trkpt lat="44.156214657414516" lon="12.136369751008854"><ele>113.14285714285714</ele><time>2026-05-02T11:21:19Z</time></trkpt><trkpt lat="44.156168069397786" lon="12.136293527841016"><ele>114.57142857142858</ele><time>2026-05-02T11:21:24Z</time></trkpt><trkpt lat="44.15610771197717" lon="12.13623740733323"><ele>116.00000000000001</ele><time>2026-05-02T11:21:28.999Z</time></trkpt><trkpt lat="44.15605416202116" lon="12.13617842193215"><ele>116.00000000000001</ele><time>2026-05-02T11:21:33.999Z</time></trkpt><trkpt lat="44.155999794074134" lon="12.13611308151454"><ele>116.0</ele><time>2026-05-02T11:21:39.999Z</time></trkpt><trkpt lat="44.155945585952885" lon="12.136064835566327"><ele>116.00000000000001</ele><time>2026-05-02T11:21:44.999Z</time></trkpt><trkpt lat="44.155892084508736" lon="12.135997789859001"><ele>116.00000000000001</ele><time>2026-05-02T11:21:50.999Z</time></trkpt><trkpt lat="44.15584288133407" lon="12.135925002865772"><ele>116.0</ele><time>2026-05-02T11:21:57Z</time></trkpt><trkpt lat="44.15577419070266" lon="12.135891387867618"><ele>116.00000000000001</ele><time>2026-05-02T11:22:04Z</time></trkpt><trkpt lat="44.15571061967123" lon="12.135850867619185"><ele>116.00000000000001</ele><time>2026-05-02T11:22:11Z</time></trkpt><trkpt lat="44.155643945909354" lon="12.135816619452617"><ele>117.42857142857144</ele><time>2026-05-02T11:22:18Z</time></trkpt><trkpt lat="44.15557676402466" lon="12.135809950137183"><ele>118.85714285714286</ele><time>2026-05-02T11:22:25Z</time></trkpt><trkpt lat="44.155511277870275" lon="12.135823205081255"><ele>120.28571428571429</ele><time>2026-05-02T11:22:31Z</time></trkpt><trkpt lat="44.15544349644176" lon="12.13580063944236"><ele>121.71428571428572</ele><time>2026-05-02T11:22:38Z</time></trkpt><trkpt lat="44.15537373807112" lon="12.135810753461366"><ele>123.14285714285714</ele><time>2026-05-02T11:22:45Z</time></trkpt><trkpt lat="44.155311692060366" lon="12.135857328408674"><ele>124.57142857142857</ele><time>2026-05-02T11:22:53Z</time></trkpt><trkpt lat="44.1552421069222" lon="12.135854429551715"><ele>126.0</ele><time>2026-05-02T11:22:59Z</time></trkpt><trkpt lat="44.1551856802313" lon="12.135905293852582"><ele>126.0</ele><time>2026-05-02T11:23:06Z</time></trkpt><trkpt lat="44.155120692555094" lon="12.13590138689507"><ele>126.0</ele><time>2026-05-02T11:23:11Z</time></trkpt><trkpt lat="44.15505608087596" lon="12.135921019923792"><ele>126.0</ele><time>2026-05-02T11:23:18Z</time></trkpt><trkpt lat="44.15499129635537" lon="12.13594771505553"><ele>126.0</ele><time>2026-05-02T11:23:23Z</time></trkpt><trkpt lat="44.154924266472754" lon="12.135968333251274"><ele>126.0</ele><time>2026-05-02T11:23:29Z</time></trkpt><trkpt lat="44.154868440722616" lon="12.136018181886357"><ele>126.0</ele><time>2026-05-02T11:23:32.999Z</time></trkpt><trkpt lat="44.15479894293615" lon="12.136065478690167"><ele>126.0</ele><time>2026-05-02T11:23:40.999Z</time></trkpt><trkpt lat="44.15472827259787" lon="12.136102798721613"><ele>126.28571428571428</ele><time>2026-05-02T11:23:46.999Z</time></trkpt><trkpt lat="44.15467980306729" lon="12.136166745240743"><ele>126.57142857142857</ele><time>2026-05-02T11:23:52.999Z</time></trkpt><trkpt lat="44.154620206926324" lon="12.136222465436708"><ele>126.85714285714286</ele><time>2026-05-02T11:23:58Z</time></trkpt><trkpt lat="44.15456434492626" lon="12.136288583279645"><ele>127.14285714285714</ele><time>2026-05-02T11:24:02Z</time></trkpt><trkpt lat="44.15450049644337" lon="12.136320163930115"><ele>127.42857142857142</ele><time>2026-05-02T11:24:06Z</time></trkpt><trkpt lat="44.154426265539065" lon="12.136369146168962"><ele>127.71428571428571</ele><time>2026-05-02T11:24:10Z</time></trkpt><trkpt lat="44.15436081507575" lon="12.136387681281214"><ele>128.0</ele><time>2026-05-02T11:24:13Z</time></trkpt><trkpt lat="44.154285051899016" lon="12.136418410811336"><ele>128.0</ele><time>2026-05-02T11:24:17Z</time></trkpt><trkpt lat="44.15421171828501" lon="12.13644238946591"><ele>127.99999999999999</ele><time>2026-05-02T11:24:21Z</time></trkpt><trkpt lat="44.154136058506154" lon="12.136457628021933"><ele>128.0</ele><time>2026-05-02T11:24:26Z</time></trkpt><trkpt lat="44.15406239198002" lon="12.136475095730285"><ele>128.0</ele><time>2026-05-02T11:24:31Z</time></trkpt><trkpt lat="44.15399890654234" lon="12.136465887516394"><ele>127.99999999999999</ele><time>2026-05-02T11:24:35Z</time></trkpt><trkpt lat="44.15392943379797" lon="12.136471743870533"><ele>128.0</ele><time>2026-05-02T11:24:41Z</time></trkpt><trkpt lat="44.15385450670582" lon="12.136479305230253"><ele>128.0</ele><time>2026-05-02T11:24:47Z</time></trkpt><trkpt lat="44.15378809540741" lon="12.136483115751348"><ele>129.0</ele><time>2026-05-02T11:24:52Z</time></trkpt><trkpt lat="44.1537234444222" lon="12.136498291288962"><ele>130.0</ele><time>2026-05-02T11:24:57Z</time></trkpt><trkpt lat="44.153653545630824" lon="12.136520065022196"><ele>131.0</ele><time>2026-05-02T11:25:03Z</time></trkpt><trkpt lat="44.15357692978336" lon="12.136527696086361"><ele>132.0</ele><time>2026-05-02T11:25:09Z</time></trkpt><trkpt lat="44.15351158950909" lon="12.136544118708294"><ele>133.0</ele><time>2026-05-02T11:25:14Z</time></trkpt><trkpt lat="44.153438969979604" lon="12.136556182379445"><ele>134.0</ele><time>2026-05-02T11:25:19Z</time></trkpt><trkpt lat="44.15336847476871" lon="12.136565635052483"><ele>135.0</ele><time>2026-05-02T11:25:25Z</time></trkpt><trkpt lat="44.153290202548746" lon="12.136552239555375"><ele>136.28571428571428</ele><time>2026-05-02T11:25:31Z</time></trkpt><trkpt lat="44.153216060122915" lon="12.13656687164411"><ele>137.57142857142856</ele><time>2026-05-02T11:25:37Z</time></trkpt><trkpt lat="44.153150221910025" lon="12.136592269622927"><ele>138.85714285714286</ele><time>2026-05-02T11:25:44.999Z</time></trkpt><trkpt lat="44.15308134545095" lon="12.136582175245453"><ele>140.14285714285714</ele><time>2026-05-02T11:25:49.999Z</time></trkpt><trkpt lat="44.15300933679488" lon="12.13661148494517"><ele>141.42857142857144</ele><time>2026-05-02T11:25:54.999Z</time></trkpt><trkpt lat="44.15294787776611" lon="12.136636994643018"><ele>142.71428571428572</ele><time>2026-05-02T11:26:00.999Z</time></trkpt><trkpt lat="44.15288433178439" lon="12.136672427990884"><ele>144.0</ele><time>2026-05-02T11:26:06.999Z</time></trkpt><trkpt lat="44.152820475909884" lon="12.136724098657634"><ele>145.42857142857144</ele><time>2026-05-02T11:26:12.999Z</time></trkpt><trkpt lat="44.15277703725312" lon="12.136795386859733"><ele>146.85714285714286</ele><time>2026-05-02T11:26:20Z</time></trkpt><trkpt lat="44.15273109429328" lon="12.136862338819736"><ele>148.28571428571428</ele><time>2026-05-02T11:26:27Z</time></trkpt><trkpt lat="44.152682133669494" lon="12.13691976079753"><ele>149.71428571428572</ele><time>2026-05-02T11:26:34Z</time></trkpt><trkpt lat="44.15264351674843" lon="12.136996567342152"><ele>151.14285714285714</ele><time>2026-05-02T11:26:40Z</time></trkpt><trkpt lat="44.152588833443886" lon="12.137040904214608"><ele>152.57142857142858</ele><time>2026-05-02T11:26:45Z</time></trkpt><trkpt lat="44.1525285198174" lon="12.137099444038466"><ele>154.0</ele><time>2026-05-02T11:26:51Z</time></trkpt><trkpt lat="44.152463607929924" lon="12.137124001043219"><ele>154.0</ele><time>2026-05-02T11:26:57Z</time></trkpt><trkpt lat="44.15242404768288" lon="12.137193077759543"><ele>154.0</ele><time>2026-05-02T11:27:04Z</time></trkpt><trkpt lat="44.152459525292926" lon="12.137278960501565"><ele>154.0</ele><time>2026-05-02T11:27:08.999Z</time></trkpt><trkpt lat="44.152494477044655" lon="12.137355622787364"><ele>154.0</ele><time>2026-05-02T11:27:13.999Z</time></trkpt><trkpt lat="44.15253573695086" lon="12.13744808978361"><ele>154.0</ele><time>2026-05-02T11:27:18.999Z</time></trkpt><trkpt lat="44.15256470166024" lon="12.13753200416865"><ele>154.0</ele><time>2026-05-02T11:27:22.999Z</time></trkpt><trkpt lat="44.152594429157396" lon="12.137619600753247"><ele>154.0</ele><time>2026-05-02T11:27:26.999Z</time></trkpt><trkpt lat="44.15262442040434" lon="12.137718261997426"><ele>154.71428571428572</ele><time>2026-05-02T11:27:30.999Z</time></trkpt><trkpt lat="44.15263966758227" lon="12.137819245006044"><ele>155.42857142857144</ele><time>2026-05-02T11:27:34.999Z</time></trkpt><trkpt lat="44.15265749366642" lon="12.137909531818497"><ele>156.14285714285714</ele><time>2026-05-02T11:27:38.999Z</time></trkpt><trkpt lat="44.15266503085741" lon="12.138007639716934"><ele>156.85714285714286</ele><time>2026-05-02T11:27:43.999Z</time></trkpt><trkpt lat="44.15266192835533" lon="12.138102738208413"><ele>157.57142857142858</ele><time>2026-05-02T11:27:47.999Z</time></trkpt><trkpt lat="44.152650152001826" lon="12.138205565381591"><ele>158.28571428571428</ele><time>2026-05-02T11:27:52.999Z</time></trkpt><trkpt lat="44.152627383707795" lon="12.138299695945147"><ele>159.0</ele><time>2026-05-02T11:27:56.999Z</time></trkpt><trkpt lat="44.152594774347634" lon="12.138384140252562"><ele>159.7142857142857</ele><time>2026-05-02T11:28:00.999Z</time></trkpt><trkpt lat="44.15255059387506" lon="12.138451759924026"><ele>160.42857142857144</ele><time>2026-05-02T11:28:04.999Z</time></trkpt><trkpt lat="44.152491503862926" lon="12.138505600534776"><ele>161.14285714285714</ele><time>2026-05-02T11:28:10Z</time></trkpt><trkpt lat="44.152427292378526" lon="12.138537227781207"><ele>161.85714285714283</ele><time>2026-05-02T11:28:14Z</time></trkpt><trkpt lat="44.15235539274177" lon="12.138554681000949"><ele>162.57142857142856</ele><time>2026-05-02T11:28:18Z</time></trkpt><trkpt lat="44.1522885437972" lon="12.138549816986462"><ele>163.28571428571428</ele><time>2026-05-02T11:28:22Z</time></trkpt><trkpt lat="44.15221973382387" lon="12.138539202338066"><ele>164.0</ele><time>2026-05-02T11:28:26Z</time></trkpt><trkpt lat="44.15215805681482" lon="12.138488623738834"><ele>164.7142857142857</ele><time>2026-05-02T11:28:31Z</time></trkpt><trkpt lat="44.15210032776295" lon="12.138435675529768"><ele>165.42857142857142</ele><time>2026-05-02T11:28:36Z</time></trkpt><trkpt lat="44.15205724931458" lon="12.13836158166186"><ele>166.14285714285714</ele><time>2026-05-02T11:28:40Z</time></trkpt><trkpt lat="44.15201028688903" lon="12.13829529538652"><ele>166.85714285714283</ele><time>2026-05-02T11:28:44Z</time></trkpt><trkpt lat="44.1519590359954" lon="12.138228152215383"><ele>167.57142857142856</ele><time>2026-05-02T11:28:48Z</time></trkpt><trkpt lat="44.15190648065913" lon="12.138157070224175"><ele>168.28571428571428</ele><time>2026-05-02T11:28:53Z</time></trkpt><trkpt lat="44.15184927780609" lon="12.138111308342722"><ele>169.0</ele><time>2026-05-02T11:28:57Z</time></trkpt><trkpt lat="44.15178418916639" lon="12.138049845535814"><ele>169.0</ele><time>2026-05-02T11:29:02Z</time></trkpt><trkpt lat="44.15172309402499" lon="12.137995910086083"><ele>169.0</ele><time>2026-05-02T11:29:07Z</time></trkpt><trkpt lat="44.15166301612567" lon="12.137940980921877"><ele>169.0</ele><time>2026-05-02T11:29:11Z</time></trkpt><trkpt lat="44.15161556458428" lon="12.137868698816726"><ele>169.0</ele><time>2026-05-02T11:29:15Z</time></trkpt><trkpt lat="44.15156218380682" lon="12.13781617318296"><ele>169.0</ele><time>2026-05-02T11:29:19Z</time></trkpt><trkpt lat="44.15150788009788" lon="12.137764577721583"><ele>169.0</ele><time>2026-05-02T11:29:23Z</time></trkpt><trkpt lat="44.151461737394385" lon="12.13770427732391"><ele>169.0</ele><time>2026-05-02T11:29:27Z</time></trkpt><trkpt lat="44.151393776669074" lon="12.137632184765339"><ele>170.0</ele><time>2026-05-02T11:29:32Z</time></trkpt><trkpt lat="44.151336941737746" lon="12.137577969840578"><ele>171.0</ele><time>2026-05-02T11:29:36Z</time></trkpt><trkpt lat="44.15128782110055" lon="12.137519983337151"><ele>172.0</ele><time>2026-05-02T11:29:40Z</time></trkpt><trkpt lat="44.15123034515942" lon="12.137480820324758"><ele>173.0</ele><time>2026-05-02T11:29:44Z</time></trkpt><trkpt lat="44.15117568770573" lon="12.13742937292154"><ele>174.0</ele><time>2026-05-02T11:29:49Z</time></trkpt><trkpt lat="44.151115468800334" lon="12.13736522910674"><ele>175.0</ele><time>2026-05-02T11:29:54Z</time></trkpt><trkpt lat="44.151064161159546" lon="12.137304500843673"><ele>176.0</ele><time>2026-05-02T11:29:58Z</time></trkpt><trkpt lat="44.15100289205157" lon="12.137239798931128"><ele>176.14285714285714</ele><time>2026-05-02T11:30:03Z</time></trkpt><trkpt lat="44.15093795076977" lon="12.137194167417046"><ele>176.28571428571428</ele><time>2026-05-02T11:30:08Z</time></trkpt><trkpt lat="44.15088374065648" lon="12.13712897586828"><ele>176.42857142857144</ele><time>2026-05-02T11:30:13Z</time></trkpt><trkpt lat="44.15083824497388" lon="12.137063241850457"><ele>176.57142857142856</ele><time>2026-05-02T11:30:18Z</time></trkpt><trkpt lat="44.15078117306484" lon="12.137004245774431"><ele>176.7142857142857</ele><time>2026-05-02T11:30:24Z</time></trkpt><trkpt lat="44.150713607210754" lon="12.13696316898996"><ele>176.85714285714286</ele><time>2026-05-02T11:30:29Z</time></trkpt><trkpt lat="44.15065026986551" lon="12.136921108591572"><ele>177.0</ele><time>2026-05-02T11:30:34Z</time></trkpt><trkpt lat="44.15058381364811" lon="12.136872102942357"><ele>177.57142857142858</ele><time>2026-05-02T11:30:39Z</time></trkpt><trkpt lat="44.15052373770469" lon="12.13681127499283"><ele>178.14285714285714</ele><time>2026-05-02T11:30:44Z</time></trkpt><trkpt lat="44.15046816332484" lon="12.13675195993349"><ele>178.71428571428572</ele><time>2026-05-02T11:30:49Z</time></trkpt><trkpt lat="44.15041083780426" lon="12.13668883900785"><ele>179.28571428571428</ele><time>2026-05-02T11:30:54Z</time></trkpt><trkpt lat="44.15035318694129" lon="12.136638183897249"><ele>179.85714285714283</ele><time>2026-05-02T11:30:59Z</time></trkpt><trkpt lat="44.15028502511338" lon="12.136595633081168"><ele>180.42857142857142</ele><time>2026-05-02T11:31:03Z</time></trkpt><trkpt lat="44.15023138988906" lon="12.136549081952044"><ele>181.0</ele><time>2026-05-02T11:31:08Z</time></trkpt><trkpt lat="44.15016718504102" lon="12.136479403934358"><ele>181.42857142857142</ele><time>2026-05-02T11:31:13Z</time></trkpt><trkpt lat="44.150123544467725" lon="12.136396277453887"><ele>181.85714285714283</ele><time>2026-05-02T11:31:17Z</time></trkpt><trkpt lat="44.150090140267366" lon="12.13631904456617"><ele>182.28571428571428</ele><time>2026-05-02T11:31:21Z</time></trkpt><trkpt lat="44.150054845432535" lon="12.136244402730137"><ele>182.71428571428572</ele><time>2026-05-02T11:31:25Z</time></trkpt><trkpt lat="44.15000362753687" lon="12.136175152677916"><ele>183.14285714285714</ele><time>2026-05-02T11:31:30Z</time></trkpt><trkpt lat="44.149952637364066" lon="12.136102556799289"><ele>183.57142857142858</ele><time>2026-05-02T11:31:34Z</time></trkpt><trkpt lat="44.149901905255575" lon="12.136026370667057"><ele>184.0</ele><time>2026-05-02T11:31:38Z</time></trkpt><trkpt lat="44.14984606818033" lon="12.135957228374785"><ele>184.71428571428572</ele><time>2026-05-02T11:31:42Z</time></trkpt><trkpt lat="44.149799301164535" lon="12.135894179378678"><ele>185.42857142857142</ele><time>2026-05-02T11:31:46Z</time></trkpt><trkpt lat="44.14975140896619" lon="12.135826764104763"><ele>186.14285714285714</ele><time>2026-05-02T11:31:50Z</time></trkpt><trkpt lat="44.14970226200523" lon="12.13575723392087"><ele>186.85714285714286</ele><time>2026-05-02T11:31:55Z</time></trkpt><trkpt lat="44.14963952788434" lon="12.135716840328556"><ele>187.57142857142856</ele><time>2026-05-02T11:31:59Z</time></trkpt><trkpt lat="44.14957427977949" lon="12.135683641960565"><ele>188.28571428571428</ele><time>2026-05-02T11:32:04Z</time></trkpt><trkpt lat="44.149502803317205" lon="12.13564430323433"><ele>189.0</ele><time>2026-05-02T11:32:09Z</time></trkpt><trkpt lat="44.14943553383402" lon="12.135592139506295"><ele>191.14285714285714</ele><time>2026-05-02T11:32:15Z</time></trkpt><trkpt lat="44.149368362205465" lon="12.135563594580937"><ele>193.28571428571428</ele><time>2026-05-02T11:32:21Z</time></trkpt><trkpt lat="44.14929301478864" lon="12.135538097355857"><ele>195.42857142857144</ele><time>2026-05-02T11:32:27Z</time></trkpt><trkpt lat="44.14923536160227" lon="12.135489205365644"><ele>197.57142857142856</ele><time>2026-05-02T11:32:33Z</time></trkpt><trkpt lat="44.14916249986638" lon="12.135451611266635"><ele>199.71428571428572</ele><time>2026-05-02T11:32:40Z</time></trkpt><trkpt lat="44.14911122937634" lon="12.13538458181536"><ele>201.85714285714286</ele><time>2026-05-02T11:32:48Z</time></trkpt><trkpt lat="44.14906169924529" lon="12.135326205695298"><ele>204.0</ele><time>2026-05-02T11:32:53Z</time></trkpt><trkpt lat="44.148990740872826" lon="12.135295871021174"><ele>205.85714285714286</ele><time>2026-05-02T11:32:57Z</time></trkpt><trkpt lat="44.14892422143047" lon="12.135280665009404"><ele>207.71428571428572</ele><time>2026-05-02T11:33:01Z</time></trkpt><trkpt lat="44.14884747112824" lon="12.135267028014743"><ele>209.57142857142856</ele><time>2026-05-02T11:33:06Z</time></trkpt><trkpt lat="44.148780485853244" lon="12.135271763408992"><ele>211.42857142857144</ele><time>2026-05-02T11:33:12Z</time></trkpt><trkpt lat="44.14870198066371" lon="12.135258654069355"><ele>213.28571428571428</ele><time>2026-05-02T11:33:19Z</time></trkpt><trkpt lat="44.148636900621355" lon="12.135254010963129"><ele>215.14285714285714</ele><time>2026-05-02T11:33:23Z</time></trkpt><trkpt lat="44.14857136053253" lon="12.135253097419184"><ele>217.0</ele><time>2026-05-02T11:33:29Z</time></trkpt><trkpt lat="44.14849531243229" lon="12.13526377873906"><ele>217.0</ele><time>2026-05-02T11:33:35Z</time></trkpt><trkpt lat="44.14842058873347" lon="12.135256314545625"><ele>217.0</ele><time>2026-05-02T11:33:42Z</time></trkpt><trkpt lat="44.14835339551529" lon="12.135274555877421"><ele>217.0</ele><time>2026-05-02T11:33:47Z</time></trkpt><trkpt lat="44.1482818030453" lon="12.13529147573516"><ele>217.0</ele><time>2026-05-02T11:33:52Z</time></trkpt><trkpt lat="44.14820943340942" lon="12.135313904755703"><ele>217.0</ele><time>2026-05-02T11:33:57Z</time></trkpt><trkpt lat="44.148134328535924" lon="12.135306901695811"><ele>217.0</ele><time>2026-05-02T11:34:02Z</time></trkpt><trkpt lat="44.14805950116871" lon="12.135304968782187"><ele>217.0</ele><time>2026-05-02T11:34:08Z</time></trkpt><trkpt lat="44.14798871014641" lon="12.135310807396923"><ele>217.28571428571428</ele><time>2026-05-02T11:34:14Z</time></trkpt><trkpt lat="44.14792061179251" lon="12.135309970324453"><ele>217.57142857142856</ele><time>2026-05-02T11:34:19Z</time></trkpt><trkpt lat="44.147838639771045" lon="12.135307966029568"><ele>217.85714285714286</ele><time>2026-05-02T11:34:25Z</time></trkpt><trkpt lat="44.147773769003976" lon="12.13529808161905"><ele>218.14285714285714</ele><time>2026-05-02T11:34:30Z</time></trkpt><trkpt lat="44.14770754206609" lon="12.135323459320228"><ele>218.42857142857142</ele><time>2026-05-02T11:34:35Z</time></trkpt><trkpt lat="44.14763883437931" lon="12.135333147633506"><ele>218.71428571428572</ele><time>2026-05-02T11:34:40Z</time></trkpt><trkpt lat="44.147577102250565" lon="12.13531149470853"><ele>219.0</ele><time>2026-05-02T11:34:46Z</time></trkpt><trkpt lat="44.14751154365531" lon="12.135291608405216"><ele>219.0</ele><time>2026-05-02T11:34:52Z</time></trkpt><trkpt lat="44.147439533274365" lon="12.135267574985187"><ele>219.0</ele><time>2026-05-02T11:34:58Z</time></trkpt><trkpt lat="44.147370789663356" lon="12.135266997597055"><ele>219.0</ele><time>2026-05-02T11:35:03Z</time></trkpt><trkpt lat="44.147300227513234" lon="12.135266690522666"><ele>219.0</ele><time>2026-05-02T11:35:09Z</time></trkpt><trkpt lat="44.147234552465626" lon="12.135264422363655"><ele>219.0</ele><time>2026-05-02T11:35:15Z</time></trkpt><trkpt lat="44.14717697063014" lon="12.135210020014307"><ele>219.0</ele><time>2026-05-02T11:35:22Z</time></trkpt><trkpt lat="44.14711241499351" lon="12.135211282231245"><ele>219.0</ele><time>2026-05-02T11:35:28Z</time></trkpt><trkpt lat="44.14704033665233" lon="12.135210631631763"><ele>219.42857142857144</ele><time>2026-05-02T11:35:34Z</time></trkpt><trkpt lat="44.146977157302764" lon="12.135182345248614"><ele>219.85714285714283</ele><time>2026-05-02T11:35:39Z</time></trkpt><trkpt lat="44.14701118446169" lon="12.135099196558933"><ele>220.28571428571428</ele><time>2026-05-02T11:35:51Z</time></trkpt><trkpt lat="44.1470846232194" lon="12.13507665768874"><ele>220.71428571428572</ele><time>2026-05-02T11:35:58Z</time></trkpt><trkpt lat="44.14714591574493" lon="12.135043835957475"><ele>221.14285714285717</ele><time>2026-05-02T11:36:04Z</time></trkpt><trkpt lat="44.14719619182821" lon="12.135109545220098"><ele>221.57142857142856</ele><time>2026-05-02T11:39:28Z</time></trkpt><trkpt lat="44.14726768167123" lon="12.135122342281994"><ele>222.0</ele><time>2026-05-02T11:40:19Z</time></trkpt><trkpt lat="44.147192976244945" lon="12.135107416478798"><ele>222.0</ele><time>2026-05-02T11:58:08Z</time></trkpt><trkpt lat="44.147171347343665" lon="12.135024584939545"><ele>222.0</ele><time>2026-05-02T11:58:32Z</time></trkpt><trkpt lat="44.147107623332424" lon="12.135046612896703"><ele>222.0</ele><time>2026-05-02T11:58:36Z</time></trkpt><trkpt lat="44.14704551399159" lon="12.135071762968018"><ele>222.0</ele><time>2026-05-02T11:58:40Z</time></trkpt><trkpt lat="44.14697015350843" lon="12.135101530587134"><ele>222.0</ele><time>2026-05-02T11:58:46Z</time></trkpt><trkpt lat="44.1469039010513" lon="12.135134962500942"><ele>222.0</ele><time>2026-05-02T11:58:50Z</time></trkpt><trkpt lat="44.14683219342685" lon="12.135166304147502"><ele>222.0</ele><time>2026-05-02T11:58:54Z</time></trkpt><trkpt lat="44.14676599986219" lon="12.135161792358664"><ele>222.0</ele><time>2026-05-02T11:58:58Z</time></trkpt><trkpt lat="44.14668829330676" lon="12.1351659383202"><ele>222.0</ele><time>2026-05-02T11:59:02Z</time></trkpt><trkpt lat="44.14661008696326" lon="12.135176286889626"><ele>222.0</ele><time>2026-05-02T11:59:07Z</time></trkpt><trkpt lat="44.146545394417636" lon="12.135189352047721"><ele>222.0</ele><time>2026-05-02T11:59:10Z</time></trkpt><trkpt lat="44.14648333679024" lon="12.13521730426282"><ele>222.0</ele><time>2026-05-02T11:59:13Z</time></trkpt><trkpt lat="44.14642475827149" lon="12.135250025966686"><ele>222.0</ele><time>2026-05-02T11:59:16Z</time></trkpt><trkpt lat="44.146355501793884" lon="12.135282272013718"><ele>222.0</ele><time>2026-05-02T11:59:19Z</time></trkpt><trkpt lat="44.14626665426265" lon="12.13530174314142"><ele>221.5</ele><time>2026-05-02T11:59:22Z</time></trkpt><trkpt lat="44.14619296120432" lon="12.135305965917524"><ele>221.0</ele><time>2026-05-02T11:59:24Z</time></trkpt><trkpt lat="44.146096190987706" lon="12.135335304470242"><ele>220.5</ele><time>2026-05-02T11:59:27Z</time></trkpt><trkpt lat="44.146002381877395" lon="12.135358924435995"><ele>220.0</ele><time>2026-05-02T11:59:30Z</time></trkpt><trkpt lat="44.14592356049538" lon="12.135402167182942"><ele>219.5</ele><time>2026-05-02T11:59:33Z</time></trkpt><trkpt lat="44.14590865783934" lon="12.135497009972116"><ele>219.0</ele><time>2026-05-02T11:59:38Z</time></trkpt><trkpt lat="44.14586891717968" lon="12.135597537062171"><ele>219.0</ele><time>2026-05-02T11:59:42Z</time></trkpt><trkpt lat="44.14583231976929" lon="12.135687035394152"><ele>219.0</ele><time>2026-05-02T11:59:45Z</time></trkpt><trkpt lat="44.14580344167683" lon="12.135785521941788"><ele>219.0</ele><time>2026-05-02T11:59:48Z</time></trkpt><trkpt lat="44.14577363802527" lon="12.135880872003298"><ele>219.0</ele><time>2026-05-02T11:59:51Z</time></trkpt><trkpt lat="44.14575058232856" lon="12.135962533767133"><ele>219.0</ele><time>2026-05-02T11:59:53Z</time></trkpt><trkpt lat="44.14570877117708" lon="12.136061264233712"><ele>219.0</ele><time>2026-05-02T11:59:55Z</time></trkpt><trkpt lat="44.145676120265215" lon="12.136157060571012"><ele>219.0</ele><time>2026-05-02T11:59:57Z</time></trkpt><trkpt lat="44.14565775471804" lon="12.136255955580983"><ele>222.33333333333334</ele><time>2026-05-02T11:59:59Z</time></trkpt><trkpt lat="44.14561592269184" lon="12.136353746011165"><ele>225.66666666666669</ele><time>2026-05-02T12:00:01Z</time></trkpt><trkpt lat="44.145573782965585" lon="12.136463367990707"><ele>229.0</ele><time>2026-05-02T12:00:03Z</time></trkpt><trkpt lat="44.14553389641043" lon="12.136572882594617"><ele>232.33333333333334</ele><time>2026-05-02T12:00:05Z</time></trkpt><trkpt lat="44.14549730693918" lon="12.136675424930324"><ele>235.66666666666669</ele><time>2026-05-02T12:00:07Z</time></trkpt><trkpt lat="44.14546174188994" lon="12.136785107949928"><ele>239.0</ele><time>2026-05-02T12:00:09Z</time></trkpt><trkpt lat="44.145421766384914" lon="12.136920379675383"><ele>239.0</ele><time>2026-05-02T12:00:11Z</time></trkpt><trkpt lat="44.145385397580554" lon="12.137040093510992"><ele>238.99999999999997</ele><time>2026-05-02T12:00:13Z</time></trkpt><trkpt lat="44.145351289493235" lon="12.137150199015679"><ele>238.99999999999997</ele><time>2026-05-02T12:00:15Z</time></trkpt><trkpt lat="44.14531595845253" lon="12.137276552896923"><ele>239.0</ele><time>2026-05-02T12:00:17Z</time></trkpt><trkpt lat="44.145279878194" lon="12.13739559825248"><ele>239.0</ele><time>2026-05-02T12:00:19Z</time></trkpt><trkpt lat="44.14523940151979" lon="12.137506944483803"><ele>237.0</ele><time>2026-05-02T12:00:21Z</time></trkpt><trkpt lat="44.145209573945074" lon="12.137633927932418"><ele>234.99999999999997</ele><time>2026-05-02T12:00:23Z</time></trkpt><trkpt lat="44.14518071500632" lon="12.13774143987304"><ele>232.99999999999997</ele><time>2026-05-02T12:00:25Z</time></trkpt><trkpt lat="44.14515119605676" lon="12.137836618622798"><ele>231.0</ele><time>2026-05-02T12:00:27Z</time></trkpt><trkpt lat="44.14509461714559" lon="12.13794104966018"><ele>229.0</ele><time>2026-05-02T12:00:29Z</time></trkpt><trkpt lat="44.145035791194914" lon="12.138070103442065"><ele>229.0</ele><time>2026-05-02T12:00:31Z</time></trkpt><trkpt lat="44.1449981732472" lon="12.138207728410821"><ele>228.99999999999997</ele><time>2026-05-02T12:00:33Z</time></trkpt><trkpt lat="44.1449576817196" lon="12.138340007433197"><ele>228.99999999999997</ele><time>2026-05-02T12:00:35Z</time></trkpt><trkpt lat="44.14491378034385" lon="12.138474552933152"><ele>229.0</ele><time>2026-05-02T12:00:37Z</time></trkpt><trkpt lat="44.144867005311035" lon="12.138587539430862"><ele>229.0</ele><time>2026-05-02T12:00:39Z</time></trkpt><trkpt lat="44.144822575385966" lon="12.138702339273765"><ele>228.2</ele><time>2026-05-02T12:00:41Z</time></trkpt><trkpt lat="44.14475031723032" lon="12.138824993456225"><ele>227.39999999999998</ele><time>2026-05-02T12:00:43Z</time></trkpt><trkpt lat="44.144683467626436" lon="12.138956239002463"><ele>226.6</ele><time>2026-05-02T12:00:45Z</time></trkpt><trkpt lat="44.144623676100174" lon="12.139084599956453"><ele>225.8</ele><time>2026-05-02T12:00:47Z</time></trkpt><trkpt lat="44.144568217339405" lon="12.139205819757603"><ele>225.0</ele><time>2026-05-02T12:00:49Z</time></trkpt><trkpt lat="44.144498956223316" lon="12.139313792228513"><ele>225.0</ele><time>2026-05-02T12:00:51Z</time></trkpt><trkpt lat="44.14443405563395" lon="12.139432984840479"><ele>225.0</ele><time>2026-05-02T12:00:53Z</time></trkpt><trkpt lat="44.14436623974575" lon="12.139555639194999"><ele>225.0</ele><time>2026-05-02T12:00:55Z</time></trkpt><trkpt lat="44.144294828336506" lon="12.139677148394124"><ele>225.0</ele><time>2026-05-02T12:00:57Z</time></trkpt><trkpt lat="44.144224858431194" lon="12.139798554177998"><ele>225.0</ele><time>2026-05-02T12:00:59Z</time></trkpt><trkpt lat="44.1441511779262" lon="12.139916879970116"><ele>223.2</ele><time>2026-05-02T12:01:01Z</time></trkpt><trkpt lat="44.14406604297227" lon="12.140023692526876"><ele>221.4</ele><time>2026-05-02T12:01:03Z</time></trkpt><trkpt lat="44.14401857520228" lon="12.140149896903077"><ele>219.60000000000002</ele><time>2026-05-02T12:01:05Z</time></trkpt><trkpt lat="44.143953184912355" lon="12.140264222527"><ele>217.8</ele><time>2026-05-02T12:01:07Z</time></trkpt><trkpt lat="44.14388394799111" lon="12.140389369606517"><ele>216.0</ele><time>2026-05-02T12:01:09Z</time></trkpt><trkpt lat="44.14381819016029" lon="12.140513628368065"><ele>218.5</ele><time>2026-05-02T12:01:11Z</time></trkpt><trkpt lat="44.143753507550606" lon="12.140647979491762"><ele>221.0</ele><time>2026-05-02T12:01:13Z</time></trkpt><trkpt lat="44.14367678624533" lon="12.14078242744926"><ele>223.5</ele><time>2026-05-02T12:01:15Z</time></trkpt><trkpt lat="44.14360746828754" lon="12.140918156021614"><ele>226.0</ele><time>2026-05-02T12:01:17Z</time></trkpt><trkpt lat="44.14354178575601" lon="12.14104504506608"><ele>226.0</ele><time>2026-05-02T12:01:19Z</time></trkpt><trkpt lat="44.1434735078812" lon="12.141160208793897"><ele>226.00000000000003</ele><time>2026-05-02T12:01:21Z</time></trkpt><trkpt lat="44.143410919066895" lon="12.141300296872961"><ele>226.00000000000003</ele><time>2026-05-02T12:01:23Z</time></trkpt><trkpt lat="44.143354618675914" lon="12.14142372351813"><ele>226.0</ele><time>2026-05-02T12:01:25Z</time></trkpt><trkpt lat="44.14328082265663" lon="12.141547707017137"><ele>226.0</ele><time>2026-05-02T12:01:27Z</time></trkpt><trkpt lat="44.14324248816186" lon="12.141620087517678"><ele>227.75</ele><time>2026-05-02T12:01:28Z</time></trkpt><trkpt lat="44.1431690997303" lon="12.141756624849966"><ele>229.5</ele><time>2026-05-02T12:01:30Z</time></trkpt><trkpt lat="44.14309880198674" lon="12.14188981822425"><ele>231.25</ele><time>2026-05-02T12:01:32Z</time></trkpt><trkpt lat="44.143038390726495" lon="12.142029936526884"><ele>233.0</ele><time>2026-05-02T12:01:34Z</time></trkpt><trkpt lat="44.14297238489652" lon="12.142156062988988"><ele>233.0</ele><time>2026-05-02T12:01:36Z</time></trkpt><trkpt lat="44.14291237129528" lon="12.142276119427137"><ele>233.0</ele><time>2026-05-02T12:01:38Z</time></trkpt><trkpt lat="44.142846195378354" lon="12.142403851521811"><ele>233.0</ele><time>2026-05-02T12:01:40Z</time></trkpt><trkpt lat="44.1427787758998" lon="12.142536621289118"><ele>233.0</ele><time>2026-05-02T12:01:42Z</time></trkpt><trkpt lat="44.1427189600058" lon="12.142667319285259"><ele>233.0</ele><time>2026-05-02T12:01:44Z</time></trkpt><trkpt lat="44.142654915174866" lon="12.142788395976755"><ele>232.4</ele><time>2026-05-02T12:01:46Z</time></trkpt><trkpt lat="44.142593390265894" lon="12.1429131876439"><ele>231.8</ele><time>2026-05-02T12:01:48Z</time></trkpt><trkpt lat="44.14254612027019" lon="12.143045795346419"><ele>231.2</ele><time>2026-05-02T12:01:50Z</time></trkpt><trkpt lat="44.14247682776325" lon="12.143163125508593"><ele>230.6</ele><time>2026-05-02T12:01:52Z</time></trkpt><trkpt lat="44.14242327897472" lon="12.143297543203438"><ele>230.0</ele><time>2026-05-02T12:01:54Z</time></trkpt><trkpt lat="44.142367464337724" lon="12.143428837306399"><ele>230.0</ele><time>2026-05-02T12:01:56Z</time></trkpt><trkpt lat="44.14229364817806" lon="12.143556348817492"><ele>230.0</ele><time>2026-05-02T12:01:58Z</time></trkpt><trkpt lat="44.14223453054002" lon="12.143676221680247"><ele>230.0</ele><time>2026-05-02T12:02:00Z</time></trkpt><trkpt lat="44.14216261605494" lon="12.143788591502638"><ele>230.0</ele><time>2026-05-02T12:02:02Z</time></trkpt><trkpt lat="44.142067420524334" lon="12.143858040943993"><ele>230.0</ele><time>2026-05-02T12:02:04Z</time></trkpt><trkpt lat="44.14197398838563" lon="12.143924317784816"><ele>230.0</ele><time>2026-05-02T12:02:06Z</time></trkpt><trkpt lat="44.141866139061875" lon="12.143993868150927"><ele>230.0</ele><time>2026-05-02T12:02:08Z</time></trkpt><trkpt lat="44.14180711252539" lon="12.144024408386906"><ele>230.0</ele><time>2026-05-02T12:02:09Z</time></trkpt><trkpt lat="44.14168888873637" lon="12.14407233123239"><ele>230.0</ele><time>2026-05-02T12:02:11Z</time></trkpt><trkpt lat="44.14157725888236" lon="12.144142521684778"><ele>230.0</ele><time>2026-05-02T12:02:13Z</time></trkpt><trkpt lat="44.14151697116678" lon="12.144173910756907"><ele>227.85714285714283</ele><time>2026-05-02T12:02:14Z</time></trkpt><trkpt lat="44.14145447849735" lon="12.144213035239165"><ele>225.71428571428572</ele><time>2026-05-02T12:02:15Z</time></trkpt><trkpt lat="44.14138684379055" lon="12.144247069588046"><ele>223.57142857142856</ele><time>2026-05-02T12:02:16Z</time></trkpt><trkpt lat="44.14131438889002" lon="12.144283299829418"><ele>221.42857142857142</ele><time>2026-05-02T12:02:17Z</time></trkpt><trkpt lat="44.141251547519005" lon="12.144313439063882"><ele>219.28571428571428</ele><time>2026-05-02T12:02:18Z</time></trkpt><trkpt lat="44.14118123893519" lon="12.144340412334376"><ele>217.14285714285714</ele><time>2026-05-02T12:02:19Z</time></trkpt><trkpt lat="44.14111172508726" lon="12.144371159939679"><ele>215.0</ele><time>2026-05-02T12:02:20Z</time></trkpt><trkpt lat="44.14104642553595" lon="12.14440188403142"><ele>215.0</ele><time>2026-05-02T12:02:21Z</time></trkpt><trkpt lat="44.14098164050961" lon="12.144443480288675"><ele>215.0</ele><time>2026-05-02T12:02:22Z</time></trkpt><trkpt lat="44.14091401965814" lon="12.14448175615193"><ele>215.0</ele><time>2026-05-02T12:02:23Z</time></trkpt><trkpt lat="44.14084582709678" lon="12.144514123675135"><ele>215.0</ele><time>2026-05-02T12:02:24Z</time></trkpt><trkpt lat="44.14078139510345" lon="12.144544368354293"><ele>215.0</ele><time>2026-05-02T12:02:25Z</time></trkpt><trkpt lat="44.140714612199034" lon="12.144574212675122"><ele>215.0</ele><time>2026-05-02T12:02:26Z</time></trkpt><trkpt lat="44.14064814592366" lon="12.144607255407713"><ele>215.0</ele><time>2026-05-02T12:02:27Z</time></trkpt><trkpt lat="44.14058103528935" lon="12.144634664036808"><ele>215.00000000000003</ele><time>2026-05-02T12:02:28Z</time></trkpt><trkpt lat="44.140521013084495" lon="12.14467156885938"><ele>215.0</ele><time>2026-05-02T12:02:29Z</time></trkpt><trkpt lat="44.14045778815999" lon="12.144694785794853"><ele>215.0</ele><time>2026-05-02T12:02:30Z</time></trkpt><trkpt lat="44.140396559245744" lon="12.144732035789113"><ele>215.0</ele><time>2026-05-02T12:02:31Z</time></trkpt><trkpt lat="44.140337625258475" lon="12.144764879034918"><ele>215.00000000000003</ele><time>2026-05-02T12:02:32Z</time></trkpt><trkpt lat="44.140269260065516" lon="12.144796799879726"><ele>215.0</ele><time>2026-05-02T12:02:33Z</time></trkpt><trkpt lat="44.14014320699021" lon="12.14485894373162"><ele>213.50000000000003</ele><time>2026-05-02T12:02:35Z</time></trkpt><trkpt lat="44.140077416133494" lon="12.144888226955768"><ele>212.0</ele><time>2026-05-02T12:02:36Z</time></trkpt><trkpt lat="44.140012481250906" lon="12.144915987611425"><ele>210.5</ele><time>2026-05-02T12:02:37Z</time></trkpt><trkpt lat="44.13994714297715" lon="12.144944428430817"><ele>209.0</ele><time>2026-05-02T12:02:38Z</time></trkpt><trkpt lat="44.13988187156968" lon="12.14497109387409"><ele>207.50000000000003</ele><time>2026-05-02T12:02:39Z</time></trkpt><trkpt lat="44.13975717021711" lon="12.145010087167119"><ele>206.0</ele><time>2026-05-02T12:02:41Z</time></trkpt><trkpt lat="44.1396933436739" lon="12.14503029970964"><ele>206.0</ele><time>2026-05-02T12:02:42Z</time></trkpt><trkpt lat="44.139575006557926" lon="12.145071981605106"><ele>206.0</ele><time>2026-05-02T12:02:44Z</time></trkpt><trkpt lat="44.13945425844294" lon="12.14509542535942"><ele>206.0</ele><time>2026-05-02T12:02:46Z</time></trkpt><trkpt lat="44.139332093130314" lon="12.145094013729587"><ele>206.0</ele><time>2026-05-02T12:02:48Z</time></trkpt><trkpt lat="44.13926293931" lon="12.145103615920386"><ele>206.0</ele><time>2026-05-02T12:02:49Z</time></trkpt><trkpt lat="44.13913771127666" lon="12.145100179600053"><ele>206.00000000000003</ele><time>2026-05-02T12:02:51Z</time></trkpt><trkpt lat="44.139070058577616" lon="12.145099252697667"><ele>206.0</ele><time>2026-05-02T12:02:52Z</time></trkpt><trkpt lat="44.139005382105" lon="12.145098926611444"><ele>206.0</ele><time>2026-05-02T12:02:53Z</time></trkpt><trkpt lat="44.138875633573086" lon="12.145101893514452"><ele>206.0</ele><time>2026-05-02T12:02:55Z</time></trkpt><trkpt lat="44.138808169932624" lon="12.145096329709236"><ele>206.00000000000003</ele><time>2026-05-02T12:02:56Z</time></trkpt><trkpt lat="44.138742053349446" lon="12.145097397506177"><ele>206.0</ele><time>2026-05-02T12:02:57Z</time></trkpt><trkpt lat="44.138673063257" lon="12.145098860789401"><ele>206.28571428571428</ele><time>2026-05-02T12:02:58Z</time></trkpt><trkpt lat="44.13860664461518" lon="12.145099207343263"><ele>206.57142857142856</ele><time>2026-05-02T12:02:59Z</time></trkpt><trkpt lat="44.138537823407084" lon="12.145103678691953"><ele>206.85714285714283</ele><time>2026-05-02T12:03:00Z</time></trkpt><trkpt lat="44.138472126813035" lon="12.145102094371325"><ele>207.14285714285714</ele><time>2026-05-02T12:03:01Z</time></trkpt><trkpt lat="44.13840603178975" lon="12.145104113190113"><ele>207.42857142857144</ele><time>2026-05-02T12:03:02Z</time></trkpt><trkpt lat="44.13833619734042" lon="12.145101503637486"><ele>207.7142857142857</ele><time>2026-05-02T12:03:03Z</time></trkpt><trkpt lat="44.13827266505771" lon="12.145105581590798"><ele>208.0</ele><time>2026-05-02T12:03:04Z</time></trkpt><trkpt lat="44.13820956757457" lon="12.145112654374913"><ele>208.16666666666666</ele><time>2026-05-02T12:03:05Z</time></trkpt><trkpt lat="44.13814664602765" lon="12.145117756623167"><ele>208.33333333333331</ele><time>2026-05-02T12:03:06Z</time></trkpt><trkpt lat="44.13808160961286" lon="12.145138332544999"><ele>208.5</ele><time>2026-05-02T12:03:07Z</time></trkpt><trkpt lat="44.13801972801547" lon="12.145166510013658"><ele>208.66666666666669</ele><time>2026-05-02T12:03:08Z</time></trkpt><trkpt lat="44.13789540018867" lon="12.145196046196459"><ele>208.83333333333334</ele><time>2026-05-02T12:03:10Z</time></trkpt><trkpt lat="44.13782548018545" lon="12.145220839694117"><ele>209.0</ele><time>2026-05-02T12:03:11Z</time></trkpt><trkpt lat="44.13776378996581" lon="12.145259378412954"><ele>209.00000000000003</ele><time>2026-05-02T12:03:12Z</time></trkpt><trkpt lat="44.137691927016604" lon="12.145289553217264"><ele>209.0</ele><time>2026-05-02T12:03:13Z</time></trkpt><trkpt lat="44.13761998307526" lon="12.145324763280186"><ele>209.0</ele><time>2026-05-02T12:03:14Z</time></trkpt><trkpt lat="44.13754392039195" lon="12.145362275726749"><ele>209.0</ele><time>2026-05-02T12:03:15Z</time></trkpt><trkpt lat="44.137465239128666" lon="12.145389946344064"><ele>209.00000000000003</ele><time>2026-05-02T12:03:16Z</time></trkpt><trkpt lat="44.13738443635209" lon="12.145416878337189"><ele>209.0</ele><time>2026-05-02T12:03:17Z</time></trkpt><trkpt lat="44.13729896830241" lon="12.145449299061129"><ele>207.0</ele><time>2026-05-02T12:03:18Z</time></trkpt><trkpt lat="44.13721339066311" lon="12.145484935930792"><ele>205.0</ele><time>2026-05-02T12:03:19Z</time></trkpt><trkpt lat="44.13712808684556" lon="12.14551885535246"><ele>203.0</ele><time>2026-05-02T12:03:20Z</time></trkpt><trkpt lat="44.13703827021445" lon="12.145556248031784"><ele>201.0</ele><time>2026-05-02T12:03:21Z</time></trkpt><trkpt lat="44.136951960911134" lon="12.145602850401646"><ele>199.0</ele><time>2026-05-02T12:03:22Z</time></trkpt><trkpt lat="44.13686355226823" lon="12.14566714727026"><ele>198.49999999999997</ele><time>2026-05-02T12:03:23Z</time></trkpt><trkpt lat="44.13678585710019" lon="12.145718645526397"><ele>198.0</ele><time>2026-05-02T12:03:24Z</time></trkpt><trkpt lat="44.136708390451126" lon="12.145779329496158"><ele>197.5</ele><time>2026-05-02T12:03:25Z</time></trkpt><trkpt lat="44.13663209661161" lon="12.145846311020465"><ele>197.0</ele><time>2026-05-02T12:03:26Z</time></trkpt><trkpt lat="44.136548463389936" lon="12.145906138903278"><ele>196.49999999999997</ele><time>2026-05-02T12:03:27Z</time></trkpt><trkpt lat="44.136474336612636" lon="12.145974936752056"><ele>196.0</ele><time>2026-05-02T12:03:28Z</time></trkpt><trkpt lat="44.136396581138456" lon="12.1460416294654"><ele>195.83333333333331</ele><time>2026-05-02T12:03:29Z</time></trkpt><trkpt lat="44.136327288074924" lon="12.1461144995184"><ele>195.66666666666666</ele><time>2026-05-02T12:03:30Z</time></trkpt><trkpt lat="44.136278643215626" lon="12.146196975948733"><ele>195.5</ele><time>2026-05-02T12:03:31Z</time></trkpt><trkpt lat="44.13621684103281" lon="12.146275183718119"><ele>195.33333333333331</ele><time>2026-05-02T12:03:32Z</time></trkpt><trkpt lat="44.13616439665903" lon="12.146348079376075"><ele>195.16666666666666</ele><time>2026-05-02T12:03:33Z</time></trkpt><trkpt lat="44.136113966170534" lon="12.146424589446767"><ele>195.0</ele><time>2026-05-02T12:03:34Z</time></trkpt><trkpt lat="44.13607176061308" lon="12.146496426712813"><ele>195.5</ele><time>2026-05-02T12:03:35Z</time></trkpt><trkpt lat="44.13603285295705" lon="12.146573467705698"><ele>196.0</ele><time>2026-05-02T12:03:36Z</time></trkpt><trkpt lat="44.13599266458087" lon="12.14664692328916"><ele>196.5</ele><time>2026-05-02T12:03:37Z</time></trkpt><trkpt lat="44.13595507343911" lon="12.146721807051396"><ele>197.0</ele><time>2026-05-02T12:03:38Z</time></trkpt><trkpt lat="44.13587139398623" lon="12.146828731161005"><ele>197.5</ele><time>2026-05-02T12:03:40Z</time></trkpt><trkpt lat="44.135779108602364" lon="12.146943386088955"><ele>198.0</ele><time>2026-05-02T12:03:42Z</time></trkpt><trkpt lat="44.135727025925114" lon="12.147007214648372"><ele>197.4</ele><time>2026-05-02T12:03:43Z</time></trkpt><trkpt lat="44.135676483533835" lon="12.147060905162164"><ele>196.8</ele><time>2026-05-02T12:03:44Z</time></trkpt><trkpt lat="44.135584434753255" lon="12.14714808228518"><ele>196.2</ele><time>2026-05-02T12:03:46Z</time></trkpt><trkpt lat="44.13548833045999" lon="12.147247657898896"><ele>195.6</ele><time>2026-05-02T12:03:48Z</time></trkpt><trkpt lat="44.135390888325745" lon="12.147341296123766"><ele>195.0</ele><time>2026-05-02T12:03:50Z</time></trkpt><trkpt lat="44.1352893440429" lon="12.147412173346062"><ele>195.0</ele><time>2026-05-02T12:03:52Z</time></trkpt><trkpt lat="44.13518979288282" lon="12.147491225619726"><ele>195.0</ele><time>2026-05-02T12:03:54Z</time></trkpt><trkpt lat="44.13508980333572" lon="12.1475617475698"><ele>195.0</ele><time>2026-05-02T12:03:56Z</time></trkpt><trkpt lat="44.13498838958235" lon="12.147627503845266"><ele>195.0</ele><time>2026-05-02T12:03:58Z</time></trkpt><trkpt lat="44.1348957345311" lon="12.14768257509751"><ele>195.0</ele><time>2026-05-02T12:04:00Z</time></trkpt><trkpt lat="44.13480563422081" lon="12.147738056618863"><ele>194.5</ele><time>2026-05-02T12:04:02Z</time></trkpt><trkpt lat="44.13472001624514" lon="12.147799179452312"><ele>194.0</ele><time>2026-05-02T12:04:04Z</time></trkpt><trkpt lat="44.13463197612619" lon="12.147846711465522"><ele>193.5</ele><time>2026-05-02T12:04:06Z</time></trkpt><trkpt lat="44.134548072862636" lon="12.147889040526982"><ele>193.0</ele><time>2026-05-02T12:04:08Z</time></trkpt><trkpt lat="44.134476236855896" lon="12.147935979835024"><ele>192.5</ele><time>2026-05-02T12:04:10Z</time></trkpt><trkpt lat="44.13439967917515" lon="12.147985673893341"><ele>192.0</ele><time>2026-05-02T12:04:12Z</time></trkpt><trkpt lat="44.13431652803088" lon="12.148049730416611"><ele>192.0</ele><time>2026-05-02T12:04:14Z</time></trkpt><trkpt lat="44.13423433390432" lon="12.148134060312303"><ele>192.0</ele><time>2026-05-02T12:04:16Z</time></trkpt><trkpt lat="44.13414658148606" lon="12.148243539252498"><ele>192.0</ele><time>2026-05-02T12:04:18Z</time></trkpt><trkpt lat="44.13408614589192" lon="12.148377039002032"><ele>192.0</ele><time>2026-05-02T12:04:20Z</time></trkpt><trkpt lat="44.13402344590424" lon="12.148454751757331"><ele>192.0</ele><time>2026-05-02T12:04:21Z</time></trkpt><trkpt lat="44.133966134868565" lon="12.148534013301212"><ele>191.28571428571428</ele><time>2026-05-02T12:04:22Z</time></trkpt><trkpt lat="44.13391198274718" lon="12.148600484825613"><ele>190.57142857142856</ele><time>2026-05-02T12:04:23Z</time></trkpt><trkpt lat="44.1338619229951" lon="12.148675999266247"><ele>189.85714285714283</ele><time>2026-05-02T12:04:24Z</time></trkpt><trkpt lat="44.13380927564866" lon="12.148743985287284"><ele>189.14285714285714</ele><time>2026-05-02T12:04:25Z</time></trkpt><trkpt lat="44.133760169895496" lon="12.148812811834139"><ele>188.42857142857144</ele><time>2026-05-02T12:04:26Z</time></trkpt><trkpt lat="44.13371019929208" lon="12.148879926987041"><ele>187.7142857142857</ele><time>2026-05-02T12:04:27Z</time></trkpt><trkpt lat="44.133662474193194" lon="12.148948785485967"><ele>187.0</ele><time>2026-05-02T12:04:28Z</time></trkpt><trkpt lat="44.133612068978145" lon="12.149008764237836"><ele>187.66666666666669</ele><time>2026-05-02T12:04:29Z</time></trkpt><trkpt lat="44.1335640641337" lon="12.149074668953126"><ele>188.33333333333334</ele><time>2026-05-02T12:04:30Z</time></trkpt><trkpt lat="44.133517367829256" lon="12.149134829820921"><ele>189.0</ele><time>2026-05-02T12:04:31Z</time></trkpt><trkpt lat="44.13347257556409" lon="12.149196636095585"><ele>189.66666666666666</ele><time>2026-05-02T12:04:32Z</time></trkpt><trkpt lat="44.13339246661331" lon="12.14930939307628"><ele>190.33333333333331</ele><time>2026-05-02T12:04:34Z</time></trkpt><trkpt lat="44.133325498979275" lon="12.14942010333502"><ele>191.0</ele><time>2026-05-02T12:04:36Z</time></trkpt><trkpt lat="44.133250780880495" lon="12.149520384552332"><ele>191.4</ele><time>2026-05-02T12:04:38Z</time></trkpt><trkpt lat="44.1331841688535" lon="12.149627211718592"><ele>191.8</ele><time>2026-05-02T12:04:40Z</time></trkpt><trkpt lat="44.13312157172463" lon="12.149731744862118"><ele>192.20000000000002</ele><time>2026-05-02T12:04:42Z</time></trkpt><trkpt lat="44.13307540567489" lon="12.149847182115646"><ele>192.60000000000002</ele><time>2026-05-02T12:04:44Z</time></trkpt><trkpt lat="44.13302839721996" lon="12.14995281180949"><ele>193.0</ele><time>2026-05-02T12:04:46Z</time></trkpt><trkpt lat="44.13298634992064" lon="12.150062224354887"><ele>193.99999999999997</ele><time>2026-05-02T12:04:48Z</time></trkpt><trkpt lat="44.13294709019634" lon="12.15017198308114"><ele>195.0</ele><time>2026-05-02T12:04:50Z</time></trkpt><trkpt lat="44.13290704067571" lon="12.150274634645902"><ele>196.0</ele><time>2026-05-02T12:04:52Z</time></trkpt><trkpt lat="44.132868811320584" lon="12.150379464770772"><ele>197.0</ele><time>2026-05-02T12:04:54Z</time></trkpt><trkpt lat="44.13280326387988" lon="12.150450583048338"><ele>197.99999999999997</ele><time>2026-05-02T12:04:56Z</time></trkpt><trkpt lat="44.132731046279346" lon="12.150482146711388"><ele>199.0</ele><time>2026-05-02T12:04:58Z</time></trkpt><trkpt lat="44.13266680666275" lon="12.15048213114601"><ele>198.99999999999997</ele><time>2026-05-02T12:05:00Z</time></trkpt><trkpt lat="44.13258720338046" lon="12.150449919986317"><ele>199.0</ele><time>2026-05-02T12:05:03Z</time></trkpt><trkpt lat="44.13251157793687" lon="12.150421435215925"><ele>199.0</ele><time>2026-05-02T12:05:07Z</time></trkpt><trkpt lat="44.13244138599685" lon="12.150394148706338"><ele>199.0</ele><time>2026-05-02T12:05:11Z</time></trkpt><trkpt lat="44.132379862912835" lon="12.15035959592035"><ele>198.99999999999997</ele><time>2026-05-02T12:05:15Z</time></trkpt><trkpt lat="44.13230668364434" lon="12.150319868410078"><ele>199.0</ele><time>2026-05-02T12:05:20Z</time></trkpt><trkpt lat="44.13223695263288" lon="12.150274670404094"><ele>200.14285714285714</ele><time>2026-05-02T12:05:25Z</time></trkpt><trkpt lat="44.13219147971347" lon="12.150209468895316"><ele>201.28571428571428</ele><time>2026-05-02T12:05:30Z</time></trkpt><trkpt lat="44.132123794401906" lon="12.150150111031676"><ele>202.42857142857144</ele><time>2026-05-02T12:05:35Z</time></trkpt><trkpt lat="44.13206554532298" lon="12.15008760365447"><ele>203.57142857142856</ele><time>2026-05-02T12:05:40Z</time></trkpt><trkpt lat="44.132008973604435" lon="12.150033456013174"><ele>204.71428571428572</ele><time>2026-05-02T12:05:45Z</time></trkpt><trkpt lat="44.13196880203942" lon="12.149962669122905"><ele>205.85714285714286</ele><time>2026-05-02T12:05:49Z</time></trkpt><trkpt lat="44.1319137316364" lon="12.149897729297921"><ele>207.0</ele><time>2026-05-02T12:05:54Z</time></trkpt><trkpt lat="44.13185463039707" lon="12.149845186446726"><ele>207.00000000000003</ele><time>2026-05-02T12:05:59Z</time></trkpt><trkpt lat="44.13181036503949" lon="12.149780786991501"><ele>207.0</ele><time>2026-05-02T12:06:03Z</time></trkpt><trkpt lat="44.13175861282355" lon="12.149707600383431"><ele>207.0</ele><time>2026-05-02T12:06:08Z</time></trkpt><trkpt lat="44.131700913973866" lon="12.149649709397128"><ele>207.0</ele><time>2026-05-02T12:06:13Z</time></trkpt><trkpt lat="44.131645040606365" lon="12.149597449093209"><ele>207.0</ele><time>2026-05-02T12:06:18Z</time></trkpt><trkpt lat="44.13158400124435" lon="12.149545591750748"><ele>207.00000000000003</ele><time>2026-05-02T12:06:23Z</time></trkpt><trkpt lat="44.131521880743186" lon="12.149483275355863"><ele>207.0</ele><time>2026-05-02T12:06:28Z</time></trkpt><trkpt lat="44.1314568618613" lon="12.14943832197725"><ele>207.0</ele><time>2026-05-02T12:06:33Z</time></trkpt><trkpt lat="44.13140288428302" lon="12.149372895597025"><ele>207.0</ele><time>2026-05-02T12:06:37Z</time></trkpt><trkpt lat="44.13133022334114" lon="12.149334046652964"><ele>207.0</ele><time>2026-05-02T12:06:41Z</time></trkpt><trkpt lat="44.13125600972077" lon="12.149282644721353"><ele>207.0</ele><time>2026-05-02T12:06:45Z</time></trkpt><trkpt lat="44.13117433375905" lon="12.14923403631309"><ele>207.0</ele><time>2026-05-02T12:06:48Z</time></trkpt><trkpt lat="44.131122973502904" lon="12.149172839819494"><ele>207.0</ele><time>2026-05-02T12:06:50Z</time></trkpt><trkpt lat="44.13105699063905" lon="12.149103393562447"><ele>207.16666666666666</ele><time>2026-05-02T12:06:52Z</time></trkpt><trkpt lat="44.13098443132286" lon="12.149036384632755"><ele>207.33333333333331</ele><time>2026-05-02T12:06:54Z</time></trkpt><trkpt lat="44.13090702233648" lon="12.148974584736703"><ele>207.5</ele><time>2026-05-02T12:06:56Z</time></trkpt><trkpt lat="44.13082743176781" lon="12.148921295744112"><ele>207.66666666666666</ele><time>2026-05-02T12:06:58Z</time></trkpt><trkpt lat="44.130752345880666" lon="12.148869313706596"><ele>207.83333333333331</ele><time>2026-05-02T12:07:00Z</time></trkpt><trkpt lat="44.13068250005234" lon="12.148812075941771"><ele>208.0</ele><time>2026-05-02T12:07:02Z</time></trkpt><trkpt lat="44.13061056387106" lon="12.148760231858395"><ele>207.99999999999997</ele><time>2026-05-02T12:07:04Z</time></trkpt><trkpt lat="44.13053356991627" lon="12.148701866857875"><ele>208.0</ele><time>2026-05-02T12:07:06Z</time></trkpt><trkpt lat="44.130459394359285" lon="12.14863637195122"><ele>208.0</ele><time>2026-05-02T12:07:08Z</time></trkpt><trkpt lat="44.13037637720226" lon="12.148584960363346"><ele>208.0</ele><time>2026-05-02T12:07:10Z</time></trkpt><trkpt lat="44.13030245976434" lon="12.148523592627535"><ele>207.99999999999997</ele><time>2026-05-02T12:07:12Z</time></trkpt><trkpt lat="44.13021719783051" lon="12.148468050634454"><ele>208.0</ele><time>2026-05-02T12:07:14Z</time></trkpt><trkpt lat="44.13014033441088" lon="12.148418022819516"><ele>208.0</ele><time>2026-05-02T12:07:16Z</time></trkpt><trkpt lat="44.13006792900003" lon="12.14837147559203"><ele>208.0</ele><time>2026-05-02T12:07:18Z</time></trkpt><trkpt lat="44.12999656955543" lon="12.148320897850388"><ele>208.0</ele><time>2026-05-02T12:07:20Z</time></trkpt><trkpt lat="44.129936603768456" lon="12.148250963582598"><ele>208.0</ele><time>2026-05-02T12:07:22Z</time></trkpt><trkpt lat="44.12987120027211" lon="12.148199409084668"><ele>208.0</ele><time>2026-05-02T12:07:24Z</time></trkpt><trkpt lat="44.12981135209501" lon="12.148154154148745"><ele>208.0</ele><time>2026-05-02T12:07:26Z</time></trkpt><trkpt lat="44.129750063738875" lon="12.148121595286096"><ele>208.0</ele><time>2026-05-02T12:07:28Z</time></trkpt><trkpt lat="44.12969405622427" lon="12.148079997371246"><ele>207.83333333333331</ele><time>2026-05-02T12:07:30Z</time></trkpt><trkpt lat="44.12961367546588" lon="12.148030003265092"><ele>207.66666666666666</ele><time>2026-05-02T12:07:33Z</time></trkpt><trkpt lat="44.12955244850892" lon="12.147971480809861"><ele>207.5</ele><time>2026-05-02T12:07:35Z</time></trkpt><trkpt lat="44.1294842622495" lon="12.14791983426674"><ele>207.33333333333331</ele><time>2026-05-02T12:07:37Z</time></trkpt><trkpt lat="44.12940905203048" lon="12.147863732431313"><ele>207.16666666666666</ele><time>2026-05-02T12:07:39Z</time></trkpt><trkpt lat="44.12933341264339" lon="12.147809245547911"><ele>207.0</ele><time>2026-05-02T12:07:41Z</time></trkpt><trkpt lat="44.129262035731486" lon="12.147754678186812"><ele>207.0</ele><time>2026-05-02T12:07:43Z</time></trkpt><trkpt lat="44.12918843908848" lon="12.14768778771753"><ele>207.0</ele><time>2026-05-02T12:07:45Z</time></trkpt><trkpt lat="44.129115424591625" lon="12.147614448786518"><ele>207.0</ele><time>2026-05-02T12:07:46.999Z</time></trkpt><trkpt lat="44.12903866506644" lon="12.147542142102784"><ele>207.0</ele><time>2026-05-02T12:07:48.999Z</time></trkpt><trkpt lat="44.12897082337881" lon="12.147470149494673"><ele>207.0</ele><time>2026-05-02T12:07:50.999Z</time></trkpt><trkpt lat="44.12890234094728" lon="12.147405552965537"><ele>207.0</ele><time>2026-05-02T12:07:52.999Z</time></trkpt><trkpt lat="44.128828068101704" lon="12.147343377661105"><ele>208.0</ele><time>2026-05-02T12:07:54.999Z</time></trkpt><trkpt lat="44.12875092145104" lon="12.147270282188174"><ele>209.0</ele><time>2026-05-02T12:07:56.999Z</time></trkpt><trkpt lat="44.12867863626513" lon="12.147200699605632"><ele>210.0</ele><time>2026-05-02T12:07:58.999Z</time></trkpt><trkpt lat="44.12862109156624" lon="12.147145546026694"><ele>211.0</ele><time>2026-05-02T12:08:00.999Z</time></trkpt><trkpt lat="44.12856633137892" lon="12.14709783662055"><ele>212.0</ele><time>2026-05-02T12:08:02.999Z</time></trkpt><trkpt lat="44.1284964704845" lon="12.14703547120752"><ele>213.0</ele><time>2026-05-02T12:08:06Z</time></trkpt><trkpt lat="44.128438905631974" lon="12.146990687442361"><ele>213.0</ele><time>2026-05-02T12:08:09Z</time></trkpt><trkpt lat="44.1283724970963" lon="12.146973018860292"><ele>213.0</ele><time>2026-05-02T12:08:12Z</time></trkpt><trkpt lat="44.128289356444874" lon="12.147028282082337"><ele>213.0</ele><time>2026-05-02T12:08:15Z</time></trkpt><trkpt lat="44.128187559684115" lon="12.14704830709077"><ele>213.0</ele><time>2026-05-02T12:08:17Z</time></trkpt><trkpt lat="44.128068749244925" lon="12.147093390329088"><ele>213.0</ele><time>2026-05-02T12:08:19Z</time></trkpt><trkpt lat="44.12800898409221" lon="12.14712677056736"><ele>212.14285714285714</ele><time>2026-05-02T12:08:20Z</time></trkpt><trkpt lat="44.127951187297285" lon="12.147161879260535"><ele>211.28571428571428</ele><time>2026-05-02T12:08:21Z</time></trkpt><trkpt lat="44.12788746483015" lon="12.147195327909152"><ele>210.42857142857144</ele><time>2026-05-02T12:08:22Z</time></trkpt><trkpt lat="44.12782335988565" lon="12.147234782459332"><ele>209.57142857142856</ele><time>2026-05-02T12:08:23Z</time></trkpt><trkpt lat="44.12776175618195" lon="12.147281562357058"><ele>208.71428571428572</ele><time>2026-05-02T12:08:24Z</time></trkpt><trkpt lat="44.12769920433823" lon="12.147328290690695"><ele>207.85714285714286</ele><time>2026-05-02T12:08:25Z</time></trkpt><trkpt lat="44.1276326483922" lon="12.147376296727337"><ele>207.0</ele><time>2026-05-02T12:08:26Z</time></trkpt><trkpt lat="44.12756869485303" lon="12.147423991038611"><ele>207.0</ele><time>2026-05-02T12:08:27Z</time></trkpt><trkpt lat="44.12750004220161" lon="12.147475002005681"><ele>207.0</ele><time>2026-05-02T12:08:28Z</time></trkpt><trkpt lat="44.127433071646706" lon="12.147528274846168"><ele>207.0</ele><time>2026-05-02T12:08:29Z</time></trkpt><trkpt lat="44.12736420782872" lon="12.147585139264946"><ele>207.0</ele><time>2026-05-02T12:08:30Z</time></trkpt><trkpt lat="44.127292069086046" lon="12.147646121849201"><ele>207.0</ele><time>2026-05-02T12:08:31Z</time></trkpt><trkpt lat="44.127223777132144" lon="12.147725423711758"><ele>207.0</ele><time>2026-05-02T12:08:32Z</time></trkpt><trkpt lat="44.12716342547133" lon="12.147815512881893"><ele>206.39999999999998</ele><time>2026-05-02T12:08:33Z</time></trkpt><trkpt lat="44.12709331680643" lon="12.147892616841514"><ele>205.79999999999998</ele><time>2026-05-02T12:08:34Z</time></trkpt><trkpt lat="44.12703817672656" lon="12.148002995924148"><ele>205.2</ele><time>2026-05-02T12:08:35Z</time></trkpt><trkpt lat="44.12698396438112" lon="12.14811096123699"><ele>204.6</ele><time>2026-05-02T12:08:36Z</time></trkpt><trkpt lat="44.126925008286825" lon="12.14822559804954"><ele>204.0</ele><time>2026-05-02T12:08:37Z</time></trkpt><trkpt lat="44.12686057892998" lon="12.148333212463879"><ele>204.0</ele><time>2026-05-02T12:08:38Z</time></trkpt><trkpt lat="44.12679110323291" lon="12.148447232393332"><ele>204.0</ele><time>2026-05-02T12:08:39Z</time></trkpt><trkpt lat="44.12671703126018" lon="12.148577332765804"><ele>204.0</ele><time>2026-05-02T12:08:40Z</time></trkpt><trkpt lat="44.12664827481947" lon="12.148713115545114"><ele>204.0</ele><time>2026-05-02T12:08:41Z</time></trkpt><trkpt lat="44.12657771729532" lon="12.148856097388183"><ele>203.5</ele><time>2026-05-02T12:08:42Z</time></trkpt><trkpt lat="44.126502767138376" lon="12.149008664787896"><ele>203.0</ele><time>2026-05-02T12:08:43Z</time></trkpt><trkpt lat="44.12642640908201" lon="12.149160060532163"><ele>202.5</ele><time>2026-05-02T12:08:44Z</time></trkpt><trkpt lat="44.126350866449165" lon="12.14930921980108"><ele>202.0</ele><time>2026-05-02T12:08:45Z</time></trkpt><trkpt lat="44.126271683554954" lon="12.149460717145034"><ele>202.0</ele><time>2026-05-02T12:08:46Z</time></trkpt><trkpt lat="44.1261902339384" lon="12.149603398991996"><ele>202.0</ele><time>2026-05-02T12:08:47Z</time></trkpt><trkpt lat="44.1261032337048" lon="12.149743154721442"><ele>202.0</ele><time>2026-05-02T12:08:48Z</time></trkpt><trkpt lat="44.12601177648626" lon="12.149894395276645"><ele>202.0</ele><time>2026-05-02T12:08:49Z</time></trkpt><trkpt lat="44.12592104561908" lon="12.150056050014392"><ele>202.5</ele><time>2026-05-02T12:08:50Z</time></trkpt><trkpt lat="44.12583981180876" lon="12.150221721347274"><ele>203.0</ele><time>2026-05-02T12:08:51Z</time></trkpt><trkpt lat="44.12577893433749" lon="12.150405553877565"><ele>203.5</ele><time>2026-05-02T12:08:52Z</time></trkpt><trkpt lat="44.12570820360356" lon="12.150576956451511"><ele>204.0</ele><time>2026-05-02T12:08:53Z</time></trkpt><trkpt lat="44.125650572548984" lon="12.150754729468513"><ele>204.0</ele><time>2026-05-02T12:08:54Z</time></trkpt><trkpt lat="44.12557897981095" lon="12.15091359546523"><ele>204.0</ele><time>2026-05-02T12:08:55Z</time></trkpt><trkpt lat="44.12552635586087" lon="12.151076631637547"><ele>204.0</ele><time>2026-05-02T12:08:56Z</time></trkpt><trkpt lat="44.12547770114916" lon="12.151238217492182"><ele>204.0</ele><time>2026-05-02T12:08:57Z</time></trkpt><trkpt lat="44.12543240850182" lon="12.151401317016397"><ele>200.0</ele><time>2026-05-02T12:08:58Z</time></trkpt><trkpt lat="44.12538591684524" lon="12.15157567282727"><ele>196.0</ele><time>2026-05-02T12:08:59Z</time></trkpt><trkpt lat="44.12536229878797" lon="12.151757255740689"><ele>192.0</ele><time>2026-05-02T12:09:00Z</time></trkpt><trkpt lat="44.12531725464286" lon="12.151923984399435"><ele>188.0</ele><time>2026-05-02T12:09:01Z</time></trkpt><trkpt lat="44.12528876660099" lon="12.152093857412778"><ele>188.0</ele><time>2026-05-02T12:09:02Z</time></trkpt><trkpt lat="44.12524375647698" lon="12.152253037169794"><ele>188.0</ele><time>2026-05-02T12:09:03Z</time></trkpt><trkpt lat="44.12518496961116" lon="12.152414855575094"><ele>188.0</ele><time>2026-05-02T12:09:04Z</time></trkpt><trkpt lat="44.1251260385675" lon="12.152573312755354"><ele>188.0</ele><time>2026-05-02T12:09:05Z</time></trkpt><trkpt lat="44.12507762283542" lon="12.152745671523633"><ele>183.75</ele><time>2026-05-02T12:09:06Z</time></trkpt><trkpt lat="44.125051058178684" lon="12.152922693553654"><ele>179.5</ele><time>2026-05-02T12:09:07Z</time></trkpt><trkpt lat="44.1250074251324" lon="12.153090104304681"><ele>175.25</ele><time>2026-05-02T12:09:08Z</time></trkpt><trkpt lat="44.12497680503335" lon="12.153253571099894"><ele>171.0</ele><time>2026-05-02T12:09:09Z</time></trkpt><trkpt lat="44.12494693764412" lon="12.153415189437162"><ele>172.75</ele><time>2026-05-02T12:09:10Z</time></trkpt><trkpt lat="44.12490772880791" lon="12.153559930156202"><ele>174.5</ele><time>2026-05-02T12:09:11Z</time></trkpt><trkpt lat="44.12484319568384" lon="12.15371274155651"><ele>176.25</ele><time>2026-05-02T12:09:12Z</time></trkpt><trkpt lat="44.124770657863834" lon="12.15384753687313"><ele>178.0</ele><time>2026-05-02T12:09:13Z</time></trkpt><trkpt lat="44.12469548905291" lon="12.153981283888342"><ele>174.0</ele><time>2026-05-02T12:09:14Z</time></trkpt><trkpt lat="44.12463385629604" lon="12.154112525413401"><ele>170.0</ele><time>2026-05-02T12:09:15Z</time></trkpt><trkpt lat="44.124577425452394" lon="12.154262381777556"><ele>166.0</ele><time>2026-05-02T12:09:16Z</time></trkpt><trkpt lat="44.124524721349694" lon="12.15440623372812"><ele>162.0</ele><time>2026-05-02T12:09:17Z</time></trkpt><trkpt lat="44.124484149835986" lon="12.154563867401643"><ele>162.0</ele><time>2026-05-02T12:09:18Z</time></trkpt><trkpt lat="44.12445780110567" lon="12.154719150093923"><ele>162.0</ele><time>2026-05-02T12:09:19Z</time></trkpt><trkpt lat="44.12442405590141" lon="12.154869122338063"><ele>162.0</ele><time>2026-05-02T12:09:20Z</time></trkpt><trkpt lat="44.124370158954115" lon="12.155011797169852"><ele>162.0</ele><time>2026-05-02T12:09:21Z</time></trkpt><trkpt lat="44.12429524650515" lon="12.15514135926863"><ele>162.25</ele><time>2026-05-02T12:09:22Z</time></trkpt><trkpt lat="44.12421143055436" lon="12.155248278509337"><ele>162.5</ele><time>2026-05-02T12:09:23Z</time></trkpt><trkpt lat="44.124140271039295" lon="12.155366622010549"><ele>162.75</ele><time>2026-05-02T12:09:24Z</time></trkpt><trkpt lat="44.12409185240386" lon="12.155506681994959"><ele>163.0</ele><time>2026-05-02T12:09:25Z</time></trkpt><trkpt lat="44.1240427891699" lon="12.155654590297502"><ele>160.0</ele><time>2026-05-02T12:09:26Z</time></trkpt><trkpt lat="44.123965312360305" lon="12.155773879264903"><ele>157.0</ele><time>2026-05-02T12:09:27Z</time></trkpt><trkpt lat="44.12389566438027" lon="12.155895847841677"><ele>154.0</ele><time>2026-05-02T12:09:28Z</time></trkpt><trkpt lat="44.123822279708" lon="12.155994338051984"><ele>151.0</ele><time>2026-05-02T12:09:29Z</time></trkpt><trkpt lat="44.12376523758744" lon="12.156101082333214"><ele>148.0</ele><time>2026-05-02T12:09:30Z</time></trkpt><trkpt lat="44.12371169674274" lon="12.156225471816992"><ele>148.0</ele><time>2026-05-02T12:09:31Z</time></trkpt><trkpt lat="44.12366990760649" lon="12.156355654928998"><ele>148.0</ele><time>2026-05-02T12:09:32Z</time></trkpt><trkpt lat="44.12362632666141" lon="12.156472779804803"><ele>148.0</ele><time>2026-05-02T12:09:33Z</time></trkpt><trkpt lat="44.12356854218116" lon="12.156567433120975"><ele>148.0</ele><time>2026-05-02T12:09:34Z</time></trkpt><trkpt lat="44.123529242215696" lon="12.156673808643907"><ele>148.0</ele><time>2026-05-02T12:09:35Z</time></trkpt><trkpt lat="44.12351722829724" lon="12.156801708888743"><ele>145.4</ele><time>2026-05-02T12:09:36Z</time></trkpt><trkpt lat="44.12350837630122" lon="12.156942245292843"><ele>142.8</ele><time>2026-05-02T12:09:37Z</time></trkpt><trkpt lat="44.123501450231586" lon="12.157094089764767"><ele>140.2</ele><time>2026-05-02T12:09:38Z</time></trkpt><trkpt lat="44.12349445427979" lon="12.157242063884688"><ele>137.6</ele><time>2026-05-02T12:09:39Z</time></trkpt><trkpt lat="44.123508160356664" lon="12.157386209255765"><ele>135.0</ele><time>2026-05-02T12:09:40Z</time></trkpt><trkpt lat="44.123552548987554" lon="12.157530805039011"><ele>131.0</ele><time>2026-05-02T12:09:41Z</time></trkpt><trkpt lat="44.12361473602926" lon="12.15767285140647"><ele>127.0</ele><time>2026-05-02T12:09:42Z</time></trkpt><trkpt lat="44.12368523038589" lon="12.15780908125444"><ele>123.0</ele><time>2026-05-02T12:09:43Z</time></trkpt><trkpt lat="44.12375194804659" lon="12.15794660388565"><ele>119.0</ele><time>2026-05-02T12:09:44Z</time></trkpt><trkpt lat="44.12381243339597" lon="12.158097220420585"><ele>116.75</ele><time>2026-05-02T12:09:45Z</time></trkpt><trkpt lat="44.12387121886948" lon="12.158259858394159"><ele>114.5</ele><time>2026-05-02T12:09:46Z</time></trkpt><trkpt lat="44.12393617705434" lon="12.158422431748132"><ele>112.25</ele><time>2026-05-02T12:09:47Z</time></trkpt><trkpt lat="44.12401353414064" lon="12.158580805654946"><ele>110.0</ele><time>2026-05-02T12:09:48Z</time></trkpt><trkpt lat="44.12407454781837" lon="12.158747298999014"><ele>110.0</ele><time>2026-05-02T12:09:49Z</time></trkpt><trkpt lat="44.1241372241043" lon="12.158913068701336"><ele>110.0</ele><time>2026-05-02T12:09:50Z</time></trkpt><trkpt lat="44.12419853111667" lon="12.159069736924467"><ele>110.0</ele><time>2026-05-02T12:09:51Z</time></trkpt><trkpt lat="44.1242503540766" lon="12.159216050156235"><ele>110.0</ele><time>2026-05-02T12:09:52Z</time></trkpt><trkpt lat="44.12429584039425" lon="12.159345027138018"><ele>108.66666666666666</ele><time>2026-05-02T12:09:53Z</time></trkpt><trkpt lat="44.124337087227964" lon="12.159458670184272"><ele>107.33333333333333</ele><time>2026-05-02T12:09:53.999Z</time></trkpt><trkpt lat="44.124367613041784" lon="12.15956273170712"><ele>106.0</ele><time>2026-05-02T12:09:54.999Z</time></trkpt><trkpt lat="44.12437816957855" lon="12.159666797803169"><ele>104.66666666666666</ele><time>2026-05-02T12:09:55.999Z</time></trkpt><trkpt lat="44.12436162556793" lon="12.1597883317394"><ele>103.33333333333333</ele><time>2026-05-02T12:09:56.999Z</time></trkpt><trkpt lat="44.124320880577315" lon="12.159905210732031"><ele>102.0</ele><time>2026-05-02T12:09:57.999Z</time></trkpt><trkpt lat="44.124269546009195" lon="12.160011025416837"><ele>100.8</ele><time>2026-05-02T12:09:58.999Z</time></trkpt><trkpt lat="44.12422359494346" lon="12.160150605138035"><ele>99.6</ele><time>2026-05-02T12:09:59.999Z</time></trkpt><trkpt lat="44.12418518547584" lon="12.160264790797736"><ele>98.39999999999999</ele><time>2026-05-02T12:10:00.999Z</time></trkpt><trkpt lat="44.124123063295194" lon="12.160360795431414"><ele>97.19999999999999</ele><time>2026-05-02T12:10:01.999Z</time></trkpt><trkpt lat="44.124035496035624" lon="12.160428269667248"><ele>96.0</ele><time>2026-05-02T12:10:02.999Z</time></trkpt><trkpt lat="44.12393262216201" lon="12.160468695311398"><ele>94.75</ele><time>2026-05-02T12:10:03.999Z</time></trkpt><trkpt lat="44.12381298136514" lon="12.160502530791137"><ele>93.5</ele><time>2026-05-02T12:10:04.999Z</time></trkpt><trkpt lat="44.12369264548214" lon="12.160497063350476"><ele>92.25</ele><time>2026-05-02T12:10:05.999Z</time></trkpt><trkpt lat="44.123577939832316" lon="12.160492635508414"><ele>91.0</ele><time>2026-05-02T12:10:06.999Z</time></trkpt><trkpt lat="44.123467607458615" lon="12.160490939639777"><ele>91.0</ele><time>2026-05-02T12:10:07.999Z</time></trkpt><trkpt lat="44.123367144669444" lon="12.16046496993716"><ele>91.0</ele><time>2026-05-02T12:10:08.999Z</time></trkpt><trkpt lat="44.12329104607229" lon="12.160432369803743"><ele>91.0</ele><time>2026-05-02T12:10:10Z</time></trkpt><trkpt lat="44.12321951007975" lon="12.160442655897677"><ele>91.0</ele><time>2026-05-02T12:10:11Z</time></trkpt><trkpt lat="44.12316093881898" lon="12.160476974331537"><ele>91.0</ele><time>2026-05-02T12:10:12Z</time></trkpt><trkpt lat="44.12310719676862" lon="12.160583607523018"><ele>91.0</ele><time>2026-05-02T12:10:14Z</time></trkpt><trkpt lat="44.12309224044519" lon="12.16069254793823"><ele>94.33333333333333</ele><time>2026-05-02T12:10:17Z</time></trkpt><trkpt lat="44.123114193330835" lon="12.160789735901659"><ele>97.66666666666666</ele><time>2026-05-02T12:10:20Z</time></trkpt><trkpt lat="44.12311788605929" lon="12.160894337866093"><ele>101.0</ele><time>2026-05-02T12:10:24Z</time></trkpt><trkpt lat="44.123147083976654" lon="12.160994722176982"><ele>104.33333333333333</ele><time>2026-05-02T12:10:28Z</time></trkpt><trkpt lat="44.123155424113186" lon="12.161105535197999"><ele>107.66666666666667</ele><time>2026-05-02T12:10:32Z</time></trkpt><trkpt lat="44.12316598579408" lon="12.16121590157606"><ele>111.0</ele><time>2026-05-02T12:10:36Z</time></trkpt><trkpt lat="44.12319054976026" lon="12.161317866150187"><ele>111.0</ele><time>2026-05-02T12:10:40Z</time></trkpt><trkpt lat="44.12320807094217" lon="12.161408003479641"><ele>111.0</ele><time>2026-05-02T12:10:44Z</time></trkpt><trkpt lat="44.12320820262307" lon="12.161512676024099"><ele>111.0</ele><time>2026-05-02T12:10:49Z</time></trkpt><trkpt lat="44.123225726059275" lon="12.161609357396468"><ele>111.0</ele><time>2026-05-02T12:10:54Z</time></trkpt><trkpt lat="44.12324422954309" lon="12.161719045600389"><ele>111.0</ele><time>2026-05-02T12:10:59Z</time></trkpt><trkpt lat="44.12326381969681" lon="12.16182363998354"><ele>111.0</ele><time>2026-05-02T12:11:04Z</time></trkpt><trkpt lat="44.12325884260068" lon="12.161926832896848"><ele>111.0</ele><time>2026-05-02T12:11:09Z</time></trkpt><trkpt lat="44.123278654330974" lon="12.162017310000012"><ele>109.85714285714285</ele><time>2026-05-02T12:11:14Z</time></trkpt><trkpt lat="44.12328484281035" lon="12.162107568080321"><ele>108.71428571428572</ele><time>2026-05-02T12:11:19Z</time></trkpt><trkpt lat="44.12331164003044" lon="12.162201992739186"><ele>107.57142857142857</ele><time>2026-05-02T12:11:24Z</time></trkpt><trkpt lat="44.12331934378217" lon="12.162296994507034"><ele>106.42857142857142</ele><time>2026-05-02T12:11:28Z</time></trkpt><trkpt lat="44.12332083284361" lon="12.162402927547188"><ele>105.28571428571428</ele><time>2026-05-02T12:11:33Z</time></trkpt><trkpt lat="44.12334721619438" lon="12.162487620356133"><ele>104.14285714285714</ele><time>2026-05-02T12:11:37Z</time></trkpt><trkpt lat="44.123336277622734" lon="12.162576801931749"><ele>103.0</ele><time>2026-05-02T12:11:41Z</time></trkpt><trkpt lat="44.12333387663115" lon="12.16266927504165"><ele>103.00000000000001</ele><time>2026-05-02T12:11:45Z</time></trkpt><trkpt lat="44.123307955262355" lon="12.16276039905011"><ele>103.0</ele><time>2026-05-02T12:11:49Z</time></trkpt><trkpt lat="44.12327312216171" lon="12.162860151290612"><ele>103.0</ele><time>2026-05-02T12:11:53Z</time></trkpt><trkpt lat="44.12321932106989" lon="12.162951183161821"><ele>103.0</ele><time>2026-05-02T12:11:56Z</time></trkpt><trkpt lat="44.12315864879543" lon="12.163039939998612"><ele>103.00000000000001</ele><time>2026-05-02T12:11:59Z</time></trkpt><trkpt lat="44.12309691123542" lon="12.163131300034035"><ele>103.0</ele><time>2026-05-02T12:12:02Z</time></trkpt><trkpt lat="44.123038575850295" lon="12.16323117943573"><ele>104.57142857142856</ele><time>2026-05-02T12:12:05Z</time></trkpt><trkpt lat="44.122980068460954" lon="12.163329486385733"><ele>106.14285714285714</ele><time>2026-05-02T12:12:08Z</time></trkpt><trkpt lat="44.1229334262951" lon="12.16339334353883"><ele>107.71428571428571</ele><time>2026-05-02T12:12:10Z</time></trkpt><trkpt lat="44.12289538654049" lon="12.163468833490228"><ele>109.28571428571428</ele><time>2026-05-02T12:12:12Z</time></trkpt><trkpt lat="44.12285178036875" lon="12.163540273432174"><ele>110.85714285714285</ele><time>2026-05-02T12:12:14Z</time></trkpt><trkpt lat="44.122807126823574" lon="12.16361731807886"><ele>112.42857142857142</ele><time>2026-05-02T12:12:16Z</time></trkpt><trkpt lat="44.12276637808288" lon="12.163695630826155"><ele>114.0</ele><time>2026-05-02T12:12:18Z</time></trkpt><trkpt lat="44.12271501475448" lon="12.163766681299224"><ele>114.0</ele><time>2026-05-02T12:12:20Z</time></trkpt><trkpt lat="44.122670024584394" lon="12.163847854399414"><ele>114.0</ele><time>2026-05-02T12:12:22Z</time></trkpt><trkpt lat="44.12261869481157" lon="12.163932133173446"><ele>114.0</ele><time>2026-05-02T12:12:24Z</time></trkpt><trkpt lat="44.1225642711298" lon="12.164005810316391"><ele>114.0</ele><time>2026-05-02T12:12:26Z</time></trkpt><trkpt lat="44.12251197907239" lon="12.164079037562479"><ele>114.0</ele><time>2026-05-02T12:12:28Z</time></trkpt><trkpt lat="44.12247132811906" lon="12.164163304059832"><ele>114.0</ele><time>2026-05-02T12:12:30Z</time></trkpt><trkpt lat="44.122411744750565" lon="12.164225807965796"><ele>113.83333333333333</ele><time>2026-05-02T12:12:32Z</time></trkpt><trkpt lat="44.122347968774115" lon="12.164297282979813"><ele>113.66666666666666</ele><time>2026-05-02T12:12:34Z</time></trkpt><trkpt lat="44.12227287668537" lon="12.164361863261535"><ele>113.5</ele><time>2026-05-02T12:12:36Z</time></trkpt><trkpt lat="44.122189277514615" lon="12.16438653699946"><ele>113.33333333333333</ele><time>2026-05-02T12:12:38Z</time></trkpt><trkpt lat="44.122108271330724" lon="12.164413578965645"><ele>113.16666666666666</ele><time>2026-05-02T12:12:40Z</time></trkpt><trkpt lat="44.12202121604297" lon="12.164427725609128"><ele>113.0</ele><time>2026-05-02T12:12:42Z</time></trkpt><trkpt lat="44.12193956849839" lon="12.164446520082878"><ele>112.99999999999999</ele><time>2026-05-02T12:12:44Z</time></trkpt><trkpt lat="44.12186279991943" lon="12.164468039444552"><ele>113.0</ele><time>2026-05-02T12:12:46Z</time></trkpt><trkpt lat="44.121792878857136" lon="12.164505309464968"><ele>113.0</ele><time>2026-05-02T12:12:48Z</time></trkpt><trkpt lat="44.12172928714831" lon="12.164557760348016"><ele>113.0</ele><time>2026-05-02T12:12:50Z</time></trkpt><trkpt lat="44.12165897376245" lon="12.164614108939565"><ele>112.99999999999999</ele><time>2026-05-02T12:12:52Z</time></trkpt><trkpt lat="44.121584628374364" lon="12.164674116244372"><ele>113.0</ele><time>2026-05-02T12:12:54Z</time></trkpt><trkpt lat="44.12151027210289" lon="12.164742373154732"><ele>115.83333333333333</ele><time>2026-05-02T12:12:56Z</time></trkpt><trkpt lat="44.12144213505129" lon="12.164832928518846"><ele>118.66666666666666</ele><time>2026-05-02T12:12:58Z</time></trkpt><trkpt lat="44.12138983089428" lon="12.164942398850588"><ele>121.5</ele><time>2026-05-02T12:13:00Z</time></trkpt><trkpt lat="44.12136408251272" lon="12.165060815061878"><ele>124.33333333333334</ele><time>2026-05-02T12:13:02Z</time></trkpt><trkpt lat="44.121351561985676" lon="12.16517019431673"><ele>127.16666666666667</ele><time>2026-05-02T12:13:04Z</time></trkpt><trkpt lat="44.12134994572211" lon="12.165280504538714"><ele>130.0</ele><time>2026-05-02T12:13:06Z</time></trkpt><trkpt lat="44.121343276564616" lon="12.16540011138681"><ele>130.0</ele><time>2026-05-02T12:13:08Z</time></trkpt><trkpt lat="44.12133108036484" lon="12.16551854988774"><ele>130.0</ele><time>2026-05-02T12:13:10Z</time></trkpt><trkpt lat="44.12134117416488" lon="12.165655696768482"><ele>130.0</ele><time>2026-05-02T12:13:12Z</time></trkpt><trkpt lat="44.12135544489726" lon="12.165820758158153"><ele>130.0</ele><time>2026-05-02T12:13:14Z</time></trkpt><trkpt lat="44.12136642695237" lon="12.165917751752787"><ele>130.0</ele><time>2026-05-02T12:13:15Z</time></trkpt><trkpt lat="44.121374627281455" lon="12.16601497036501"><ele>130.0</ele><time>2026-05-02T12:13:16Z</time></trkpt><trkpt lat="44.121385255133525" lon="12.16611590100081"><ele>128.83333333333334</ele><time>2026-05-02T12:13:17Z</time></trkpt><trkpt lat="44.12140690856281" lon="12.166226375391592"><ele>127.66666666666667</ele><time>2026-05-02T12:13:18Z</time></trkpt><trkpt lat="44.12142523009134" lon="12.166340056170759"><ele>126.5</ele><time>2026-05-02T12:13:19Z</time></trkpt><trkpt lat="44.121441904663264" lon="12.166459760815377"><ele>125.33333333333334</ele><time>2026-05-02T12:13:20Z</time></trkpt><trkpt lat="44.12146944023176" lon="12.166585912309136"><ele>124.16666666666667</ele><time>2026-05-02T12:13:21Z</time></trkpt><trkpt lat="44.121446514231685" lon="12.16670495263453"><ele>123.0</ele><time>2026-05-02T12:13:22Z</time></trkpt><trkpt lat="44.12145415763308" lon="12.166811549295684"><ele>121.0</ele><time>2026-05-02T12:13:23Z</time></trkpt><trkpt lat="44.1214693880089" lon="12.166913446169568"><ele>119.0</ele><time>2026-05-02T12:13:24Z</time></trkpt><trkpt lat="44.121495226055" lon="12.16701500026008"><ele>117.0</ele><time>2026-05-02T12:13:25Z</time></trkpt><trkpt lat="44.12155739536176" lon="12.167117240820836"><ele>115.0</ele><time>2026-05-02T12:13:26Z</time></trkpt><trkpt lat="44.12163594683433" lon="12.167205877481015"><ele>113.0</ele><time>2026-05-02T12:13:27Z</time></trkpt><trkpt lat="44.121701067509846" lon="12.167299807812627"><ele>111.0</ele><time>2026-05-02T12:13:28Z</time></trkpt><trkpt lat="44.12175581924523" lon="12.167406112627047"><ele>107.0</ele><time>2026-05-02T12:13:29Z</time></trkpt><trkpt lat="44.12176103981096" lon="12.167526635759256"><ele>103.0</ele><time>2026-05-02T12:13:30Z</time></trkpt><trkpt lat="44.12172831311098" lon="12.167643629774725"><ele>99.0</ele><time>2026-05-02T12:13:31Z</time></trkpt><trkpt lat="44.12169515895145" lon="12.16777330213671"><ele>95.0</ele><time>2026-05-02T12:13:32Z</time></trkpt><trkpt lat="44.12164688316034" lon="12.167909944176934"><ele>91.0</ele><time>2026-05-02T12:13:33Z</time></trkpt><trkpt lat="44.121582796900356" lon="12.16802402255162"><ele>92.0</ele><time>2026-05-02T12:13:34Z</time></trkpt><trkpt lat="44.121514026738645" lon="12.168127771640158"><ele>93.0</ele><time>2026-05-02T12:13:35Z</time></trkpt><trkpt lat="44.12144386119445" lon="12.168218968614307"><ele>94.0</ele><time>2026-05-02T12:13:36Z</time></trkpt><trkpt lat="44.12134820938145" lon="12.16822990042511"><ele>95.0</ele><time>2026-05-02T12:13:37Z</time></trkpt><trkpt lat="44.12126771998414" lon="12.168268648012987"><ele>96.0</ele><time>2026-05-02T12:13:38Z</time></trkpt><trkpt lat="44.12119063685602" lon="12.16838828218207"><ele>94.0</ele><time>2026-05-02T12:13:40Z</time></trkpt><trkpt lat="44.12121750792922" lon="12.168502021374941"><ele>92.0</ele><time>2026-05-02T12:13:41Z</time></trkpt><trkpt lat="44.121283909080475" lon="12.16858809108883"><ele>90.0</ele><time>2026-05-02T12:13:42Z</time></trkpt><trkpt lat="44.12136739469926" lon="12.168638195388121"><ele>88.0</ele><time>2026-05-02T12:13:43Z</time></trkpt><trkpt lat="44.121432038453044" lon="12.16867302962628"><ele>86.0</ele><time>2026-05-02T12:13:44Z</time></trkpt><trkpt lat="44.12153380570272" lon="12.168756382489162"><ele>85.5</ele><time>2026-05-02T12:13:46Z</time></trkpt><trkpt lat="44.12159395018119" lon="12.168811146214235"><ele>85.0</ele><time>2026-05-02T12:13:47Z</time></trkpt><trkpt lat="44.12165618744255" lon="12.16887076579896"><ele>84.5</ele><time>2026-05-02T12:13:48Z</time></trkpt><trkpt lat="44.12172367870407" lon="12.168922433498826"><ele>84.0</ele><time>2026-05-02T12:13:49Z</time></trkpt><trkpt lat="44.12179038504973" lon="12.16897570986915"><ele>83.5</ele><time>2026-05-02T12:13:50Z</time></trkpt><trkpt lat="44.12185527472815" lon="12.169040728000137"><ele>83.0</ele><time>2026-05-02T12:13:51Z</time></trkpt><trkpt lat="44.121921412761765" lon="12.169122303162501"><ele>82.0</ele><time>2026-05-02T12:13:52Z</time></trkpt><trkpt lat="44.12197670939112" lon="12.169207937516916"><ele>81.0</ele><time>2026-05-02T12:13:53Z</time></trkpt><trkpt lat="44.1220219005579" lon="12.169315112815422"><ele>80.0</ele><time>2026-05-02T12:13:54Z</time></trkpt><trkpt lat="44.122075657372285" lon="12.16941956473865"><ele>79.0</ele><time>2026-05-02T12:13:55Z</time></trkpt><trkpt lat="44.12214035548883" lon="12.169516210578305"><ele>78.0</ele><time>2026-05-02T12:13:56Z</time></trkpt><trkpt lat="44.122186638897304" lon="12.169632677301406"><ele>78.0</ele><time>2026-05-02T12:13:57Z</time></trkpt><trkpt lat="44.122235771330764" lon="12.16974299693466"><ele>78.0</ele><time>2026-05-02T12:13:58Z</time></trkpt><trkpt lat="44.122278656374405" lon="12.169856578072748"><ele>78.0</ele><time>2026-05-02T12:13:59Z</time></trkpt><trkpt lat="44.12231474528952" lon="12.169969227926762"><ele>78.0</ele><time>2026-05-02T12:14:00Z</time></trkpt><trkpt lat="44.122359329978465" lon="12.17008548479139"><ele>78.0</ele><time>2026-05-02T12:14:01Z</time></trkpt><trkpt lat="44.122403978208595" lon="12.170195656782791"><ele>77.5</ele><time>2026-05-02T12:14:02Z</time></trkpt><trkpt lat="44.12244217482561" lon="12.1703017178393"><ele>77.0</ele><time>2026-05-02T12:14:03Z</time></trkpt><trkpt lat="44.12247936879574" lon="12.170412026549956"><ele>76.5</ele><time>2026-05-02T12:14:04Z</time></trkpt><trkpt lat="44.122511188792146" lon="12.170526822911032"><ele>76.0</ele><time>2026-05-02T12:14:05Z</time></trkpt><trkpt lat="44.1225092499799" lon="12.170648934108659"><ele>75.5</ele><time>2026-05-02T12:14:06Z</time></trkpt><trkpt lat="44.12247341731576" lon="12.17077321058476"><ele>75.0</ele><time>2026-05-02T12:14:07Z</time></trkpt><trkpt lat="44.12243565012947" lon="12.170888779861398"><ele>75.0</ele><time>2026-05-02T12:14:08Z</time></trkpt><trkpt lat="44.1223471952533" lon="12.171028298671956"><ele>75.0</ele><time>2026-05-02T12:14:10Z</time></trkpt><trkpt lat="44.12230500098426" lon="12.171123740401143"><ele>75.0</ele><time>2026-05-02T12:14:11Z</time></trkpt><trkpt lat="44.122249847879274" lon="12.171204378216913"><ele>75.0</ele><time>2026-05-02T12:14:12Z</time></trkpt><trkpt lat="44.12219781024981" lon="12.17128199542744"><ele>75.0</ele><time>2026-05-02T12:14:13Z</time></trkpt><trkpt lat="44.12215040488224" lon="12.171355960494363"><ele>75.0</ele><time>2026-05-02T12:14:14Z</time></trkpt><trkpt lat="44.12210842863885" lon="12.171430487152865"><ele>74.99999999999999</ele><time>2026-05-02T12:14:15Z</time></trkpt><trkpt lat="44.12206491578877" lon="12.171501503571209"><ele>75.0</ele><time>2026-05-02T12:14:16Z</time></trkpt><trkpt lat="44.12202760009157" lon="12.17157322988548"><ele>75.0</ele><time>2026-05-02T12:14:17Z</time></trkpt><trkpt lat="44.12198726100802" lon="12.171644213424168"><ele>75.0</ele><time>2026-05-02T12:14:18Z</time></trkpt><trkpt lat="44.1219500953886" lon="12.171717500537149"><ele>75.0</ele><time>2026-05-02T12:14:19Z</time></trkpt><trkpt lat="44.121911452149014" lon="12.17178694039467"><ele>74.99999999999999</ele><time>2026-05-02T12:14:20Z</time></trkpt><trkpt lat="44.12187843228653" lon="12.171864322213796"><ele>75.0</ele><time>2026-05-02T12:14:21Z</time></trkpt><trkpt lat="44.12184997301556" lon="12.171943935777026"><ele>74.66666666666667</ele><time>2026-05-02T12:14:22Z</time></trkpt><trkpt lat="44.12182184876711" lon="12.172022692126841"><ele>74.33333333333333</ele><time>2026-05-02T12:14:23Z</time></trkpt><trkpt lat="44.12179298885558" lon="12.17210225977545"><ele>74.0</ele><time>2026-05-02T12:14:24Z</time></trkpt><trkpt lat="44.121742095842706" lon="12.172257010191705"><ele>73.66666666666666</ele><time>2026-05-02T12:14:26Z</time></trkpt><trkpt lat="44.12172113568609" lon="12.172340186362298"><ele>73.33333333333333</ele><time>2026-05-02T12:14:27Z</time></trkpt><trkpt lat="44.121678855259006" lon="12.172511217156897"><ele>73.0</ele><time>2026-05-02T12:14:29Z</time></trkpt><trkpt lat="44.12165786702275" lon="12.172595467444218"><ele>73.0</ele><time>2026-05-02T12:14:30Z</time></trkpt><trkpt lat="44.12162623185578" lon="12.172671748268804"><ele>73.0</ele><time>2026-05-02T12:14:31Z</time></trkpt><trkpt lat="44.121604466171135" lon="12.172755149326983"><ele>73.0</ele><time>2026-05-02T12:14:32Z</time></trkpt><trkpt lat="44.1215845079007" lon="12.17284177529958"><ele>73.0</ele><time>2026-05-02T12:14:33Z</time></trkpt><trkpt lat="44.12153648532041" lon="12.17299714086246"><ele>73.0</ele><time>2026-05-02T12:14:35Z</time></trkpt><trkpt lat="44.12151655615512" lon="12.173082299616"><ele>73.0</ele><time>2026-05-02T12:14:36Z</time></trkpt><trkpt lat="44.121474159820075" lon="12.173242276694332"><ele>74.75</ele><time>2026-05-02T12:14:38Z</time></trkpt><trkpt lat="44.121427974281566" lon="12.173395838094704"><ele>76.5</ele><time>2026-05-02T12:14:40Z</time></trkpt><trkpt lat="44.12137386366599" lon="12.173549727762504"><ele>78.25</ele><time>2026-05-02T12:14:42Z</time></trkpt><trkpt lat="44.12132316296005" lon="12.173703919665757"><ele>80.0</ele><time>2026-05-02T12:14:44Z</time></trkpt><trkpt lat="44.121274862482615" lon="12.173860024869782"><ele>80.0</ele><time>2026-05-02T12:14:46Z</time></trkpt><trkpt lat="44.12123356021076" lon="12.174020778504733"><ele>80.0</ele><time>2026-05-02T12:14:48Z</time></trkpt><trkpt lat="44.12120111810899" lon="12.17418271999959"><ele>80.0</ele><time>2026-05-02T12:14:50Z</time></trkpt><trkpt lat="44.12118825355208" lon="12.174268932758912"><ele>80.0</ele><time>2026-05-02T12:14:51Z</time></trkpt><trkpt lat="44.12116055592911" lon="12.174434264040444"><ele>80.0</ele><time>2026-05-02T12:14:53Z</time></trkpt><trkpt lat="44.12113210072087" lon="12.174599747279268"><ele>78.75</ele><time>2026-05-02T12:14:55Z</time></trkpt><trkpt lat="44.12109735659121" lon="12.174759855247624"><ele>77.5</ele><time>2026-05-02T12:14:57Z</time></trkpt><trkpt lat="44.121056299741696" lon="12.174915572637971"><ele>76.25</ele><time>2026-05-02T12:14:59Z</time></trkpt><trkpt lat="44.12101287299821" lon="12.175071584997552"><ele>75.0</ele><time>2026-05-02T12:15:01Z</time></trkpt><trkpt lat="44.120973143429794" lon="12.17521953092844"><ele>74.0</ele><time>2026-05-02T12:15:03Z</time></trkpt><trkpt lat="44.120932109032495" lon="12.175365908870024"><ele>73.0</ele><time>2026-05-02T12:15:05Z</time></trkpt><trkpt lat="44.12089919176705" lon="12.175515666022982"><ele>72.0</ele><time>2026-05-02T12:15:07Z</time></trkpt><trkpt lat="44.12088154087831" lon="12.175666397749234"><ele>71.0</ele><time>2026-05-02T12:15:09Z</time></trkpt><trkpt lat="44.12086727710127" lon="12.175812836829746"><ele>70.0</ele><time>2026-05-02T12:15:11Z</time></trkpt><trkpt lat="44.12086491645633" lon="12.175966233432444"><ele>69.6</ele><time>2026-05-02T12:15:13Z</time></trkpt><trkpt lat="44.12086925500674" lon="12.176114972030117"><ele>69.2</ele><time>2026-05-02T12:15:15Z</time></trkpt><trkpt lat="44.12088968391996" lon="12.17626870401509"><ele>68.8</ele><time>2026-05-02T12:15:17Z</time></trkpt><trkpt lat="44.12089993902818" lon="12.176421653477293"><ele>68.4</ele><time>2026-05-02T12:15:19Z</time></trkpt><trkpt lat="44.12090614644532" lon="12.176571337466688"><ele>68.0</ele><time>2026-05-02T12:15:21Z</time></trkpt><trkpt lat="44.12092070955276" lon="12.176721897321388"><ele>67.8</ele><time>2026-05-02T12:15:23Z</time></trkpt><trkpt lat="44.1209337841249" lon="12.17687298779647"><ele>67.6</ele><time>2026-05-02T12:15:25Z</time></trkpt><trkpt lat="44.12094723318267" lon="12.177024046011663"><ele>67.4</ele><time>2026-05-02T12:15:27Z</time></trkpt><trkpt lat="44.12096013394869" lon="12.177164544681059"><ele>67.2</ele><time>2026-05-02T12:15:29Z</time></trkpt><trkpt lat="44.12096934355743" lon="12.177307365643719"><ele>67.0</ele><time>2026-05-02T12:15:31Z</time></trkpt><trkpt lat="44.12097452985624" lon="12.1774480031505"><ele>66.8</ele><time>2026-05-02T12:15:33Z</time></trkpt><trkpt lat="44.120988681235474" lon="12.177585140388551"><ele>66.6</ele><time>2026-05-02T12:15:35Z</time></trkpt><trkpt lat="44.12100065210972" lon="12.177724925935854"><ele>66.39999999999999</ele><time>2026-05-02T12:15:37Z</time></trkpt><trkpt lat="44.1210149533916" lon="12.177852263882716"><ele>66.2</ele><time>2026-05-02T12:15:39Z</time></trkpt><trkpt lat="44.12103177946293" lon="12.177979616120275"><ele>66.0</ele><time>2026-05-02T12:15:41Z</time></trkpt><trkpt lat="44.12103833262398" lon="12.178110208514106"><ele>66.2</ele><time>2026-05-02T12:15:43Z</time></trkpt><trkpt lat="44.1210589905644" lon="12.178228012591205"><ele>66.39999999999999</ele><time>2026-05-02T12:15:45Z</time></trkpt><trkpt lat="44.12108021978101" lon="12.178347831069454"><ele>66.6</ele><time>2026-05-02T12:15:47Z</time></trkpt><trkpt lat="44.12110240636545" lon="12.178470479101556"><ele>66.8</ele><time>2026-05-02T12:15:49Z</time></trkpt><trkpt lat="44.121129014899104" lon="12.178590087433944"><ele>67.0</ele><time>2026-05-02T12:15:51Z</time></trkpt><trkpt lat="44.12114016470745" lon="12.178723665292999"><ele>67.0</ele><time>2026-05-02T12:15:53Z</time></trkpt><trkpt lat="44.12115531815699" lon="12.178857884278244"><ele>67.0</ele><time>2026-05-02T12:15:55Z</time></trkpt><trkpt lat="44.12115794228014" lon="12.17899403957952"><ele>67.0</ele><time>2026-05-02T12:15:57Z</time></trkpt><trkpt lat="44.121137028926505" lon="12.179118788626665"><ele>67.0</ele><time>2026-05-02T12:15:59Z</time></trkpt><trkpt lat="44.1211255305637" lon="12.17924096988015"><ele>67.0</ele><time>2026-05-02T12:16:01Z</time></trkpt><trkpt lat="44.1211143943124" lon="12.179359303489097"><ele>67.0</ele><time>2026-05-02T12:16:03Z</time></trkpt><trkpt lat="44.12110518053881" lon="12.179472902137782"><ele>67.0</ele><time>2026-05-02T12:16:05Z</time></trkpt><trkpt lat="44.121096800217195" lon="12.179592717014126"><ele>67.0</ele><time>2026-05-02T12:16:07Z</time></trkpt><trkpt lat="44.121089052473295" lon="12.179703487786066"><ele>67.0</ele><time>2026-05-02T12:16:09Z</time></trkpt><trkpt lat="44.12108038203197" lon="12.17982285006949"><ele>67.0</ele><time>2026-05-02T12:16:11Z</time></trkpt><trkpt lat="44.12107196355312" lon="12.179929642898617"><ele>67.0</ele><time>2026-05-02T12:16:13Z</time></trkpt><trkpt lat="44.12106041194616" lon="12.18004179719634"><ele>67.28571428571429</ele><time>2026-05-02T12:16:15Z</time></trkpt><trkpt lat="44.12104210377351" lon="12.180152729986366"><ele>67.57142857142857</ele><time>2026-05-02T12:16:17Z</time></trkpt><trkpt lat="44.1210224618929" lon="12.180253266702437"><ele>67.85714285714286</ele><time>2026-05-02T12:16:19Z</time></trkpt><trkpt lat="44.121002656759266" lon="12.18034857642451"><ele>68.14285714285714</ele><time>2026-05-02T12:16:21Z</time></trkpt><trkpt lat="44.12098408119412" lon="12.180437969204165"><ele>68.42857142857143</ele><time>2026-05-02T12:16:23Z</time></trkpt><trkpt lat="44.1209771797956" lon="12.180540033211278"><ele>68.71428571428572</ele><time>2026-05-02T12:16:25Z</time></trkpt><trkpt lat="44.120946660883675" lon="12.180628587618761"><ele>69.0</ele><time>2026-05-02T12:16:26.999Z</time></trkpt><trkpt lat="44.12092332701825" lon="12.180723269753079"><ele>69.0</ele><time>2026-05-02T12:16:29Z</time></trkpt><trkpt lat="44.12090204394832" lon="12.180822039750641"><ele>69.0</ele><time>2026-05-02T12:16:31Z</time></trkpt><trkpt lat="44.120883531700905" lon="12.180917330263213"><ele>69.0</ele><time>2026-05-02T12:16:33Z</time></trkpt><trkpt lat="44.1208688882509" lon="12.181012387327224"><ele>69.0</ele><time>2026-05-02T12:16:35Z</time></trkpt><trkpt lat="44.12085326834077" lon="12.181111529501095"><ele>69.0</ele><time>2026-05-02T12:16:37Z</time></trkpt><trkpt lat="44.12083485795316" lon="12.181201603892982"><ele>69.0</ele><time>2026-05-02T12:16:39Z</time></trkpt><trkpt lat="44.120822796101905" lon="12.181318508065326"><ele>69.0</ele><time>2026-05-02T12:16:41Z</time></trkpt><trkpt lat="44.120802952761835" lon="12.181419478635213"><ele>69.0</ele><time>2026-05-02T12:16:43Z</time></trkpt><trkpt lat="44.12079047497648" lon="12.181521194139187"><ele>69.0</ele><time>2026-05-02T12:16:45Z</time></trkpt><trkpt lat="44.12078698061435" lon="12.181645959639177"><ele>69.0</ele><time>2026-05-02T12:16:47Z</time></trkpt><trkpt lat="44.120789836377426" lon="12.181760782234878"><ele>69.0</ele><time>2026-05-02T12:16:49Z</time></trkpt><trkpt lat="44.12079680380652" lon="12.181873462285331"><ele>69.0</ele><time>2026-05-02T12:16:51Z</time></trkpt><trkpt lat="44.12080514119909" lon="12.182000548963444"><ele>69.0</ele><time>2026-05-02T12:16:53Z</time></trkpt><trkpt lat="44.120818617767775" lon="12.182126020490955"><ele>69.0</ele><time>2026-05-02T12:16:55Z</time></trkpt><trkpt lat="44.120838616824386" lon="12.182244707040343"><ele>69.0</ele><time>2026-05-02T12:16:57Z</time></trkpt><trkpt lat="44.12085470557325" lon="12.18237092968748"><ele>69.0</ele><time>2026-05-02T12:16:59Z</time></trkpt><trkpt lat="44.12086520724842" lon="12.182501603537382"><ele>69.0</ele><time>2026-05-02T12:17:01Z</time></trkpt><trkpt lat="44.12088310974475" lon="12.182640276089822"><ele>69.0</ele><time>2026-05-02T12:17:03Z</time></trkpt><trkpt lat="44.120904392407695" lon="12.182783541260171"><ele>69.0</ele><time>2026-05-02T12:17:05Z</time></trkpt><trkpt lat="44.12092432880611" lon="12.182928385238865"><ele>69.0</ele><time>2026-05-02T12:17:07Z</time></trkpt><trkpt lat="44.12094637637968" lon="12.183075277039574"><ele>69.0</ele><time>2026-05-02T12:17:09Z</time></trkpt><trkpt lat="44.12097240462088" lon="12.183208191782295"><ele>69.0</ele><time>2026-05-02T12:17:11Z</time></trkpt><trkpt lat="44.12102017657251" lon="12.183346537571397"><ele>69.0</ele><time>2026-05-02T12:17:13Z</time></trkpt><trkpt lat="44.121068931740204" lon="12.183476726759153"><ele>68.60000000000001</ele><time>2026-05-02T12:17:15Z</time></trkpt><trkpt lat="44.12113082976747" lon="12.18359807157578"><ele>68.2</ele><time>2026-05-02T12:17:17Z</time></trkpt><trkpt lat="44.12118555883478" lon="12.183732469954451"><ele>67.80000000000001</ele><time>2026-05-02T12:17:19Z</time></trkpt><trkpt lat="44.121263714482176" lon="12.183842195245226"><ele>67.4</ele><time>2026-05-02T12:17:21Z</time></trkpt><trkpt lat="44.12133086987165" lon="12.183962732785096"><ele>67.0</ele><time>2026-05-02T12:17:23Z</time></trkpt><trkpt lat="44.12139811923862" lon="12.184092461009694"><ele>67.0</ele><time>2026-05-02T12:17:25Z</time></trkpt><trkpt lat="44.1214683513713" lon="12.184213276216065"><ele>67.0</ele><time>2026-05-02T12:17:27Z</time></trkpt><trkpt lat="44.12153584042467" lon="12.184342132470075"><ele>67.0</ele><time>2026-05-02T12:17:29Z</time></trkpt><trkpt lat="44.121597633824976" lon="12.184481098126348"><ele>67.0</ele><time>2026-05-02T12:17:31Z</time></trkpt><trkpt lat="44.121649265012636" lon="12.184635442655852"><ele>67.0</ele><time>2026-05-02T12:17:33Z</time></trkpt><trkpt lat="44.12167333781549" lon="12.184716728189803"><ele>67.0</ele><time>2026-05-02T12:17:34Z</time></trkpt><trkpt lat="44.12169761093179" lon="12.184798186140332"><ele>67.0</ele><time>2026-05-02T12:17:35Z</time></trkpt><trkpt lat="44.121741657455004" lon="12.184964226888935"><ele>67.0</ele><time>2026-05-02T12:17:37Z</time></trkpt><trkpt lat="44.12175599861427" lon="12.185051423691274"><ele>67.0</ele><time>2026-05-02T12:17:38Z</time></trkpt><trkpt lat="44.12176319788846" lon="12.185144728514876"><ele>67.0</ele><time>2026-05-02T12:17:39Z</time></trkpt><trkpt lat="44.12177267038364" lon="12.185233579051708"><ele>66.33333333333333</ele><time>2026-05-02T12:17:40Z</time></trkpt><trkpt lat="44.121785194922744" lon="12.185329564411502"><ele>65.66666666666666</ele><time>2026-05-02T12:17:41Z</time></trkpt><trkpt lat="44.1218010656109" lon="12.185423068221946"><ele>65.0</ele><time>2026-05-02T12:17:42Z</time></trkpt><trkpt lat="44.12181512058527" lon="12.185511371238734"><ele>64.33333333333333</ele><time>2026-05-02T12:17:43Z</time></trkpt><trkpt lat="44.121832864865574" lon="12.185682906682539"><ele>63.666666666666664</ele><time>2026-05-02T12:17:45Z</time></trkpt><trkpt lat="44.12183139027982" lon="12.18584768672155"><ele>63.0</ele><time>2026-05-02T12:17:47Z</time></trkpt><trkpt lat="44.1218360729265" lon="12.186011151801873"><ele>62.5</ele><time>2026-05-02T12:17:49Z</time></trkpt><trkpt lat="44.12183207082377" lon="12.186172534139212"><ele>62.0</ele><time>2026-05-02T12:17:51Z</time></trkpt><trkpt lat="44.121827107596204" lon="12.18633881906242"><ele>61.5</ele><time>2026-05-02T12:17:53Z</time></trkpt><trkpt lat="44.1218260384874" lon="12.186499821572193"><ele>61.0</ele><time>2026-05-02T12:17:55Z</time></trkpt><trkpt lat="44.121815075842996" lon="12.186654113635901"><ele>60.8</ele><time>2026-05-02T12:17:57Z</time></trkpt><trkpt lat="44.12181787770291" lon="12.186803655495599"><ele>60.599999999999994</ele><time>2026-05-02T12:17:59Z</time></trkpt><trkpt lat="44.12184075205378" lon="12.186911984936645"><ele>60.4</ele><time>2026-05-02T12:18:02Z</time></trkpt><trkpt lat="44.12196649221308" lon="12.186986658943665"><ele>60.2</ele><time>2026-05-02T12:18:06Z</time></trkpt><trkpt lat="44.122050631048054" lon="12.186976832519564"><ele>60.0</ele><time>2026-05-02T12:18:08Z</time></trkpt><trkpt lat="44.12213232686077" lon="12.186975791754973"><ele>60.0</ele><time>2026-05-02T12:18:10Z</time></trkpt><trkpt lat="44.12221323440269" lon="12.186970296780105"><ele>60.0</ele><time>2026-05-02T12:18:12Z</time></trkpt><trkpt lat="44.12230244179969" lon="12.186965996670928"><ele>60.0</ele><time>2026-05-02T12:18:14Z</time></trkpt><trkpt lat="44.122384828574056" lon="12.186968248713034"><ele>60.0</ele><time>2026-05-02T12:18:16Z</time></trkpt><trkpt lat="44.12247471809884" lon="12.186958156675129"><ele>60.0</ele><time>2026-05-02T12:18:18Z</time></trkpt><trkpt lat="44.12255777623719" lon="12.186951474449259"><ele>60.0</ele><time>2026-05-02T12:18:20Z</time></trkpt><trkpt lat="44.12263225858044" lon="12.186961941387535"><ele>60.2</ele><time>2026-05-02T12:18:22Z</time></trkpt><trkpt lat="44.122653678249975" lon="12.187069363162662"><ele>60.4</ele><time>2026-05-02T12:18:24Z</time></trkpt><trkpt lat="44.1226803858243" lon="12.187194490509132"><ele>60.599999999999994</ele><time>2026-05-02T12:18:26Z</time></trkpt><trkpt lat="44.12270912943003" lon="12.187330659621136"><ele>60.8</ele><time>2026-05-02T12:18:28Z</time></trkpt><trkpt lat="44.12273048415421" lon="12.187460339672578"><ele>61.0</ele><time>2026-05-02T12:18:30Z</time></trkpt><trkpt lat="44.122756604470304" lon="12.187581338705488"><ele>60.4</ele><time>2026-05-02T12:18:32Z</time></trkpt><trkpt lat="44.12277978700526" lon="12.187701016321572"><ele>59.8</ele><time>2026-05-02T12:18:34Z</time></trkpt><trkpt lat="44.12280550019476" lon="12.187828321198094"><ele>59.199999999999996</ele><time>2026-05-02T12:18:36Z</time></trkpt><trkpt lat="44.12283133330037" lon="12.187957496591611"><ele>58.599999999999994</ele><time>2026-05-02T12:18:38Z</time></trkpt><trkpt lat="44.122858188722155" lon="12.188080948278149"><ele>58.0</ele><time>2026-05-02T12:18:40Z</time></trkpt><trkpt lat="44.12287890344606" lon="12.18820202190442"><ele>57.83333333333333</ele><time>2026-05-02T12:18:42Z</time></trkpt><trkpt lat="44.12290008474139" lon="12.188315983048156"><ele>57.666666666666664</ele><time>2026-05-02T12:18:44Z</time></trkpt><trkpt lat="44.12292980373392" lon="12.188439188156613"><ele>57.5</ele><time>2026-05-02T12:18:46Z</time></trkpt><trkpt lat="44.12296214766694" lon="12.188555538376509"><ele>57.33333333333333</ele><time>2026-05-02T12:18:48Z</time></trkpt><trkpt lat="44.12300821566214" lon="12.188661139994965"><ele>57.166666666666664</ele><time>2026-05-02T12:18:50Z</time></trkpt><trkpt lat="44.12306432286597" lon="12.188763716451339"><ele>57.0</ele><time>2026-05-02T12:18:52Z</time></trkpt><trkpt lat="44.12311908756146" lon="12.188861023584975"><ele>57.0</ele><time>2026-05-02T12:18:54Z</time></trkpt><trkpt lat="44.123171664211924" lon="12.188955232383561"><ele>57.0</ele><time>2026-05-02T12:18:56Z</time></trkpt><trkpt lat="44.12322341396544" lon="12.189054827935031"><ele>57.0</ele><time>2026-05-02T12:18:58Z</time></trkpt><trkpt lat="44.12327069456746" lon="12.189149675698877"><ele>57.0</ele><time>2026-05-02T12:19:00Z</time></trkpt><trkpt lat="44.12333094849539" lon="12.189228624566617"><ele>57.0</ele><time>2026-05-02T12:19:02Z</time></trkpt><trkpt lat="44.12339894575284" lon="12.189298585533551"><ele>57.0</ele><time>2026-05-02T12:19:04Z</time></trkpt><trkpt lat="44.12346460783945" lon="12.189376675365779"><ele>56.8</ele><time>2026-05-02T12:19:06Z</time></trkpt><trkpt lat="44.123523079065066" lon="12.189488148395267"><ele>56.6</ele><time>2026-05-02T12:19:08Z</time></trkpt><trkpt lat="44.12359403019775" lon="12.189588860728525"><ele>56.39999999999999</ele><time>2026-05-02T12:19:10Z</time></trkpt><trkpt lat="44.12367785472893" lon="12.18970484080089"><ele>56.199999999999996</ele><time>2026-05-02T12:19:12Z</time></trkpt><trkpt lat="44.12376213477349" lon="12.189821006787666"><ele>56.0</ele><time>2026-05-02T12:19:14Z</time></trkpt><trkpt lat="44.12384920635964" lon="12.18993851531057"><ele>55.599999999999994</ele><time>2026-05-02T12:19:16Z</time></trkpt><trkpt lat="44.123942693346585" lon="12.190060035353426"><ele>55.199999999999996</ele><time>2026-05-02T12:19:18Z</time></trkpt><trkpt lat="44.12403633384642" lon="12.190177868835562"><ele>54.800000000000004</ele><time>2026-05-02T12:19:20Z</time></trkpt><trkpt lat="44.12408391334478" lon="12.190237595893333"><ele>54.400000000000006</ele><time>2026-05-02T12:19:21Z</time></trkpt><trkpt lat="44.12413440022515" lon="12.19030097264458"><ele>54.0</ele><time>2026-05-02T12:19:22Z</time></trkpt><trkpt lat="44.12418408511327" lon="12.190363342684762"><ele>54.0</ele><time>2026-05-02T12:19:23Z</time></trkpt><trkpt lat="44.12427784428453" lon="12.190481039676131"><ele>54.0</ele><time>2026-05-02T12:19:25Z</time></trkpt><trkpt lat="44.1243252454212" lon="12.190540542794617"><ele>54.0</ele><time>2026-05-02T12:19:26Z</time></trkpt><trkpt lat="44.12437239083916" lon="12.190599724946194"><ele>54.0</ele><time>2026-05-02T12:19:27Z</time></trkpt><trkpt lat="44.12442119782612" lon="12.190660992963751"><ele>54.0</ele><time>2026-05-02T12:19:28Z</time></trkpt><trkpt lat="44.124469618832876" lon="12.190721776390964"><ele>54.0</ele><time>2026-05-02T12:19:29Z</time></trkpt><trkpt lat="44.124524648429386" lon="12.190771181426458"><ele>54.0</ele><time>2026-05-02T12:19:30Z</time></trkpt><trkpt lat="44.124573551787556" lon="12.190827139245119"><ele>54.0</ele><time>2026-05-02T12:19:31Z</time></trkpt><trkpt lat="44.124620516457796" lon="12.19088856481619"><ele>54.0</ele><time>2026-05-02T12:19:32Z</time></trkpt><trkpt lat="44.12470980935294" lon="12.19100684032881"><ele>54.0</ele><time>2026-05-02T12:19:34Z</time></trkpt><trkpt lat="44.12474153178832" lon="12.191084394000299"><ele>54.0</ele><time>2026-05-02T12:19:35Z</time></trkpt><trkpt lat="44.12482910849351" lon="12.191208934592627"><ele>54.0</ele><time>2026-05-02T12:19:37Z</time></trkpt><trkpt lat="44.124916040580544" lon="12.191334308882736"><ele>53.75</ele><time>2026-05-02T12:19:39Z</time></trkpt><trkpt lat="44.1250111040176" lon="12.191441635999746"><ele>53.5</ele><time>2026-05-02T12:19:41Z</time></trkpt><trkpt lat="44.12508994319325" lon="12.191560181673113"><ele>53.25</ele><time>2026-05-02T12:19:43Z</time></trkpt><trkpt lat="44.12516352385922" lon="12.191673715054545"><ele>53.0</ele><time>2026-05-02T12:19:45Z</time></trkpt><trkpt lat="44.12523570639538" lon="12.19178002724164"><ele>53.0</ele><time>2026-05-02T12:19:47Z</time></trkpt><trkpt lat="44.12530678160115" lon="12.191893022073591"><ele>53.0</ele><time>2026-05-02T12:19:49Z</time></trkpt><trkpt lat="44.12537835297261" lon="12.192004805907718"><ele>53.0</ele><time>2026-05-02T12:19:51Z</time></trkpt><trkpt lat="44.125450272639135" lon="12.192111911890082"><ele>53.0</ele><time>2026-05-02T12:19:53Z</time></trkpt><trkpt lat="44.125509668472944" lon="12.192241237474985"><ele>53.0</ele><time>2026-05-02T12:19:55Z</time></trkpt><trkpt lat="44.12558045392977" lon="12.192354606347434"><ele>53.0</ele><time>2026-05-02T12:19:57Z</time></trkpt><trkpt lat="44.12565151079666" lon="12.192468671921946"><ele>53.0</ele><time>2026-05-02T12:19:59Z</time></trkpt><trkpt lat="44.12572333365148" lon="12.192583967064763"><ele>53.0</ele><time>2026-05-02T12:20:01Z</time></trkpt><trkpt lat="44.125792702145574" lon="12.192695322415783"><ele>53.0</ele><time>2026-05-02T12:20:03Z</time></trkpt><trkpt lat="44.125866976143065" lon="12.192814194607017"><ele>53.0</ele><time>2026-05-02T12:20:05Z</time></trkpt><trkpt lat="44.125941997968965" lon="12.192931180374156"><ele>52.599999999999994</ele><time>2026-05-02T12:20:07Z</time></trkpt><trkpt lat="44.12601522426123" lon="12.19304536621248"><ele>52.199999999999996</ele><time>2026-05-02T12:20:09Z</time></trkpt><trkpt lat="44.126087503192736" lon="12.193158074867284"><ele>51.8</ele><time>2026-05-02T12:20:11Z</time></trkpt><trkpt lat="44.12616039049852" lon="12.193269647862541"><ele>51.4</ele><time>2026-05-02T12:20:13Z</time></trkpt><trkpt lat="44.126232652012455" lon="12.19337975279162"><ele>51.0</ele><time>2026-05-02T12:20:15Z</time></trkpt><trkpt lat="44.126298517623994" lon="12.193488945629499"><ele>50.8</ele><time>2026-05-02T12:20:17Z</time></trkpt><trkpt lat="44.1263629336646" lon="12.19360363114897"><ele>50.599999999999994</ele><time>2026-05-02T12:20:19Z</time></trkpt><trkpt lat="44.126426029309116" lon="12.193718702041059"><ele>50.4</ele><time>2026-05-02T12:20:21Z</time></trkpt><trkpt lat="44.12649881835239" lon="12.193816990745258"><ele>50.2</ele><time>2026-05-02T12:20:23Z</time></trkpt><trkpt lat="44.12654406511766" lon="12.193939689620677"><ele>50.0</ele><time>2026-05-02T12:20:25Z</time></trkpt><trkpt lat="44.12660290146171" lon="12.194053877568743"><ele>49.8</ele><time>2026-05-02T12:20:27Z</time></trkpt><trkpt lat="44.126659885497936" lon="12.194167685038698"><ele>49.6</ele><time>2026-05-02T12:20:29Z</time></trkpt><trkpt lat="44.12671527303708" lon="12.194280702206692"><ele>49.400000000000006</ele><time>2026-05-02T12:20:31Z</time></trkpt><trkpt lat="44.12677174931214" lon="12.194398546214494"><ele>49.2</ele><time>2026-05-02T12:20:33Z</time></trkpt><trkpt lat="44.12682789850412" lon="12.194518016348603"><ele>49.0</ele><time>2026-05-02T12:20:35Z</time></trkpt><trkpt lat="44.126882236924" lon="12.194636354720314"><ele>49.0</ele><time>2026-05-02T12:20:37Z</time></trkpt><trkpt lat="44.126935143367874" lon="12.194753700761524"><ele>49.0</ele><time>2026-05-02T12:20:39Z</time></trkpt><trkpt lat="44.12698599245359" lon="12.194870447529738"><ele>49.0</ele><time>2026-05-02T12:20:41Z</time></trkpt><trkpt lat="44.12703656584734" lon="12.194987919222386"><ele>49.0</ele><time>2026-05-02T12:20:43Z</time></trkpt><trkpt lat="44.12708866452992" lon="12.195104931020197"><ele>49.0</ele><time>2026-05-02T12:20:45Z</time></trkpt><trkpt lat="44.127145294570745" lon="12.195218714060278"><ele>49.0</ele><time>2026-05-02T12:20:47Z</time></trkpt><trkpt lat="44.12721714055448" lon="12.195322064871466"><ele>49.0</ele><time>2026-05-02T12:20:49Z</time></trkpt><trkpt lat="44.12730172833497" lon="12.195401383465349"><ele>49.0</ele><time>2026-05-02T12:20:51Z</time></trkpt><trkpt lat="44.127391939690575" lon="12.195482704765798"><ele>49.0</ele><time>2026-05-02T12:20:53Z</time></trkpt><trkpt lat="44.12747658050636" lon="12.195570119757893"><ele>49.0</ele><time>2026-05-02T12:20:55Z</time></trkpt><trkpt lat="44.127541038550724" lon="12.19568988348197"><ele>49.2</ele><time>2026-05-02T12:20:57Z</time></trkpt><trkpt lat="44.12759352756513" lon="12.195805883778151"><ele>49.400000000000006</ele><time>2026-05-02T12:20:59Z</time></trkpt><trkpt lat="44.12760188364442" lon="12.195942198999461"><ele>49.6</ele><time>2026-05-02T12:21:01Z</time></trkpt><trkpt lat="44.12759340869452" lon="12.196079401891867"><ele>49.8</ele><time>2026-05-02T12:21:03Z</time></trkpt><trkpt lat="44.127588633525626" lon="12.196211712457941"><ele>50.0</ele><time>2026-05-02T12:21:05Z</time></trkpt><trkpt lat="44.12757247610998" lon="12.196343197301657"><ele>50.0</ele><time>2026-05-02T12:21:07Z</time></trkpt><trkpt lat="44.12753232267666" lon="12.196459669135278"><ele>50.0</ele><time>2026-05-02T12:21:09Z</time></trkpt><trkpt lat="44.127468268949556" lon="12.196556181229885"><ele>50.0</ele><time>2026-05-02T12:21:11Z</time></trkpt><trkpt lat="44.12739654129228" lon="12.196641112448201"><ele>50.0</ele><time>2026-05-02T12:21:13Z</time></trkpt><trkpt lat="44.12731801329335" lon="12.196709362653555"><ele>50.0</ele><time>2026-05-02T12:21:15Z</time></trkpt><trkpt lat="44.12724262872617" lon="12.196773326337373"><ele>49.8</ele><time>2026-05-02T12:21:17Z</time></trkpt><trkpt lat="44.127165146705046" lon="12.196842388814922"><ele>49.6</ele><time>2026-05-02T12:21:19Z</time></trkpt><trkpt lat="44.127088624750115" lon="12.196914665069677"><ele>49.400000000000006</ele><time>2026-05-02T12:21:21Z</time></trkpt><trkpt lat="44.12701669202216" lon="12.19698832420798"><ele>49.2</ele><time>2026-05-02T12:21:23Z</time></trkpt><trkpt lat="44.12694205192997" lon="12.197052788113647"><ele>49.0</ele><time>2026-05-02T12:21:25Z</time></trkpt><trkpt lat="44.12686801807299" lon="12.197126123959723"><ele>49.0</ele><time>2026-05-02T12:21:27Z</time></trkpt><trkpt lat="44.12678706599805" lon="12.197185952731598"><ele>49.0</ele><time>2026-05-02T12:21:29Z</time></trkpt><trkpt lat="44.12671070697458" lon="12.197259656909596"><ele>49.0</ele><time>2026-05-02T12:21:31Z</time></trkpt><trkpt lat="44.12663407426804" lon="12.197333324752258"><ele>49.0</ele><time>2026-05-02T12:21:33Z</time></trkpt><trkpt lat="44.12655804661244" lon="12.19741073588659"><ele>49.0</ele><time>2026-05-02T12:21:35Z</time></trkpt><trkpt lat="44.12648668541328" lon="12.197491559779442"><ele>48.99999999999999</ele><time>2026-05-02T12:21:37Z</time></trkpt><trkpt lat="44.12641494759067" lon="12.197569375959441"><ele>49.0</ele><time>2026-05-02T12:21:39Z</time></trkpt><trkpt lat="44.1263421286316" lon="12.197646439283552"><ele>49.0</ele><time>2026-05-02T12:21:41Z</time></trkpt><trkpt lat="44.12627009887274" lon="12.197725287477757"><ele>49.0</ele><time>2026-05-02T12:21:43Z</time></trkpt><trkpt lat="44.12620186333513" lon="12.19780023338284"><ele>48.99999999999999</ele><time>2026-05-02T12:21:45Z</time></trkpt><trkpt lat="44.12614191855249" lon="12.197872404730482"><ele>49.0</ele><time>2026-05-02T12:21:47Z</time></trkpt><trkpt lat="44.12607504848775" lon="12.197951133719881"><ele>49.0</ele><time>2026-05-02T12:21:49Z</time></trkpt><trkpt lat="44.12599768906526" lon="12.198040400364048"><ele>49.0</ele><time>2026-05-02T12:21:51Z</time></trkpt><trkpt lat="44.12591095796568" lon="12.198137506399656"><ele>49.0</ele><time>2026-05-02T12:21:53Z</time></trkpt><trkpt lat="44.12582348598735" lon="12.198236825285557"><ele>49.0</ele><time>2026-05-02T12:21:55Z</time></trkpt><trkpt lat="44.12573647994247" lon="12.198336824104118"><ele>49.0</ele><time>2026-05-02T12:21:57Z</time></trkpt><trkpt lat="44.12564334163407" lon="12.198439625138468"><ele>49.0</ele><time>2026-05-02T12:21:59Z</time></trkpt><trkpt lat="44.125551242682235" lon="12.198546295131012"><ele>49.0</ele><time>2026-05-02T12:22:01Z</time></trkpt><trkpt lat="44.12546088941594" lon="12.198660038171603"><ele>49.0</ele><time>2026-05-02T12:22:03Z</time></trkpt><trkpt lat="44.125414645193054" lon="12.19871988365352"><ele>49.0</ele><time>2026-05-02T12:22:04Z</time></trkpt><trkpt lat="44.12532162663658" lon="12.198823389696646"><ele>49.0</ele><time>2026-05-02T12:22:06Z</time></trkpt><trkpt lat="44.12523190324472" lon="12.198930815416041"><ele>49.0</ele><time>2026-05-02T12:22:08Z</time></trkpt><trkpt lat="44.125146920835725" lon="12.199034834764229"><ele>49.0</ele><time>2026-05-02T12:22:10Z</time></trkpt><trkpt lat="44.12506221353149" lon="12.199131756585684"><ele>49.0</ele><time>2026-05-02T12:22:12Z</time></trkpt><trkpt lat="44.12496936775507" lon="12.199221774831495"><ele>49.0</ele><time>2026-05-02T12:22:14Z</time></trkpt><trkpt lat="44.124876037870436" lon="12.199318191810049"><ele>48.800000000000004</ele><time>2026-05-02T12:22:16Z</time></trkpt><trkpt lat="44.124791691146086" lon="12.199419716245075"><ele>48.6</ele><time>2026-05-02T12:22:18Z</time></trkpt><trkpt lat="44.1247066147591" lon="12.199517324375972"><ele>48.4</ele><time>2026-05-02T12:22:20Z</time></trkpt><trkpt lat="44.12462910808789" lon="12.199617464422607"><ele>48.2</ele><time>2026-05-02T12:22:22Z</time></trkpt><trkpt lat="44.124547882996175" lon="12.199710066001755"><ele>48.0</ele><time>2026-05-02T12:22:24Z</time></trkpt><trkpt lat="44.124470293968045" lon="12.199806094421465"><ele>48.333333333333336</ele><time>2026-05-02T12:22:26Z</time></trkpt><trkpt lat="44.12439441370824" lon="12.19989048724744"><ele>48.66666666666667</ele><time>2026-05-02T12:22:28Z</time></trkpt><trkpt lat="44.124329519859465" lon="12.199967614061116"><ele>49.0</ele><time>2026-05-02T12:22:30Z</time></trkpt><trkpt lat="44.12426852999608" lon="12.200039132499471"><ele>49.333333333333336</ele><time>2026-05-02T12:22:33Z</time></trkpt><trkpt lat="44.12419615357192" lon="12.200091392507717"><ele>49.66666666666667</ele><time>2026-05-02T12:22:36Z</time></trkpt><trkpt lat="44.12414387429704" lon="12.200142403397018"><ele>50.0</ele><time>2026-05-02T12:22:38Z</time></trkpt><trkpt lat="44.124116978433" lon="12.200248434311087"><ele>50.00000000000001</ele><time>2026-05-02T12:22:40Z</time></trkpt><trkpt lat="44.12406833434091" lon="12.200344110939193"><ele>50.0</ele><time>2026-05-02T12:22:42Z</time></trkpt><trkpt lat="44.12400558997395" lon="12.20042342122643"><ele>50.0</ele><time>2026-05-02T12:22:44Z</time></trkpt><trkpt lat="44.12395452349424" lon="12.200510180484311"><ele>50.0</ele><time>2026-05-02T12:22:46Z</time></trkpt><trkpt lat="44.123908070840194" lon="12.20061181299995"><ele>50.00000000000001</ele><time>2026-05-02T12:22:48Z</time></trkpt><trkpt lat="44.12383525482259" lon="12.200682552540975"><ele>50.0</ele><time>2026-05-02T12:22:50Z</time></trkpt><trkpt lat="44.123769960720765" lon="12.200771126618681"><ele>50.0</ele><time>2026-05-02T12:22:52Z</time></trkpt><trkpt lat="44.12370033226561" lon="12.200862846781432"><ele>50.0</ele><time>2026-05-02T12:22:54Z</time></trkpt><trkpt lat="44.123630909453624" lon="12.200961945614926"><ele>50.0</ele><time>2026-05-02T12:22:56Z</time></trkpt><trkpt lat="44.12356380797786" lon="12.20106054431483"><ele>50.0</ele><time>2026-05-02T12:22:58Z</time></trkpt><trkpt lat="44.123503741052836" lon="12.2011735501264"><ele>50.0</ele><time>2026-05-02T12:23:00Z</time></trkpt><trkpt lat="44.123436809770105" lon="12.20128235465199"><ele>50.0</ele><time>2026-05-02T12:23:02Z</time></trkpt><trkpt lat="44.123376285215144" lon="12.20138818470659"><ele>50.0</ele><time>2026-05-02T12:23:04Z</time></trkpt><trkpt lat="44.12331404378577" lon="12.201500574059244"><ele>50.0</ele><time>2026-05-02T12:23:06Z</time></trkpt><trkpt lat="44.1232477196182" lon="12.201616199859929"><ele>50.0</ele><time>2026-05-02T12:23:08Z</time></trkpt><trkpt lat="44.12318721534869" lon="12.20173408201636"><ele>50.0</ele><time>2026-05-02T12:23:10Z</time></trkpt><trkpt lat="44.12313072243489" lon="12.201855008379745"><ele>49.6</ele><time>2026-05-02T12:23:12Z</time></trkpt><trkpt lat="44.123072333365464" lon="12.201977530752373"><ele>49.2</ele><time>2026-05-02T12:23:14Z</time></trkpt><trkpt lat="44.123012039580196" lon="12.202100563641164"><ele>48.8</ele><time>2026-05-02T12:23:16Z</time></trkpt><trkpt lat="44.122951701486954" lon="12.202225096683346"><ele>48.4</ele><time>2026-05-02T12:23:18Z</time></trkpt><trkpt lat="44.12288744314223" lon="12.202347364101923"><ele>48.0</ele><time>2026-05-02T12:23:20Z</time></trkpt><trkpt lat="44.1228243992409" lon="12.202472241095235"><ele>47.599999999999994</ele><time>2026-05-02T12:23:22Z</time></trkpt><trkpt lat="44.12275743288248" lon="12.202598533977293"><ele>47.199999999999996</ele><time>2026-05-02T12:23:24Z</time></trkpt><trkpt lat="44.122693214680844" lon="12.202725782485535"><ele>46.8</ele><time>2026-05-02T12:23:26Z</time></trkpt><trkpt lat="44.122623545099074" lon="12.20285213576682"><ele>46.4</ele><time>2026-05-02T12:23:28Z</time></trkpt><trkpt lat="44.12256222822526" lon="12.202974955582704"><ele>46.0</ele><time>2026-05-02T12:23:30Z</time></trkpt><trkpt lat="44.1224925522664" lon="12.203106221261649"><ele>46.5</ele><time>2026-05-02T12:23:32Z</time></trkpt><trkpt lat="44.122419143229415" lon="12.203246874777353"><ele>47.0</ele><time>2026-05-02T12:23:34Z</time></trkpt><trkpt lat="44.12234580505494" lon="12.203380730168867"><ele>47.5</ele><time>2026-05-02T12:23:36Z</time></trkpt><trkpt lat="44.12228900992325" lon="12.203522456593651"><ele>48.0</ele><time>2026-05-02T12:23:38Z</time></trkpt><trkpt lat="44.12221836272773" lon="12.20365439815693"><ele>48.0</ele><time>2026-05-02T12:23:40Z</time></trkpt><trkpt lat="44.1221513157861" lon="12.203785104011128"><ele>48.0</ele><time>2026-05-02T12:23:42Z</time></trkpt><trkpt lat="44.12209523203913" lon="12.203916559426046"><ele>48.0</ele><time>2026-05-02T12:23:44Z</time></trkpt><trkpt lat="44.12203694694416" lon="12.204042795924396"><ele>48.0</ele><time>2026-05-02T12:23:46Z</time></trkpt><trkpt lat="44.12197597279186" lon="12.204174476381066"><ele>48.0</ele><time>2026-05-02T12:23:48Z</time></trkpt><trkpt lat="44.12192673991306" lon="12.204306442248415"><ele>48.0</ele><time>2026-05-02T12:23:50Z</time></trkpt><trkpt lat="44.12187342412207" lon="12.204443467713249"><ele>48.0</ele><time>2026-05-02T12:23:52Z</time></trkpt><trkpt lat="44.12182749549724" lon="12.204582822198546"><ele>48.0</ele><time>2026-05-02T12:23:54Z</time></trkpt><trkpt lat="44.121770491348904" lon="12.20471355089084"><ele>48.0</ele><time>2026-05-02T12:23:56Z</time></trkpt><trkpt lat="44.121724618819265" lon="12.204852697425926"><ele>48.0</ele><time>2026-05-02T12:23:58Z</time></trkpt><trkpt lat="44.12166666337754" lon="12.204977256849554"><ele>48.0</ele><time>2026-05-02T12:24:00Z</time></trkpt><trkpt lat="44.12160979543068" lon="12.205101996828478"><ele>48.0</ele><time>2026-05-02T12:24:02Z</time></trkpt><trkpt lat="44.12156479532099" lon="12.205221974918869"><ele>48.0</ele><time>2026-05-02T12:24:04Z</time></trkpt><trkpt lat="44.1215230382496" lon="12.205332183218552"><ele>48.0</ele><time>2026-05-02T12:24:06Z</time></trkpt><trkpt lat="44.12148683961495" lon="12.205437764102363"><ele>48.0</ele><time>2026-05-02T12:24:08Z</time></trkpt><trkpt lat="44.121444782140784" lon="12.205536647718048"><ele>48.166666666666664</ele><time>2026-05-02T12:24:10Z</time></trkpt><trkpt lat="44.121408377631646" lon="12.20563903234332"><ele>48.33333333333333</ele><time>2026-05-02T12:24:12Z</time></trkpt><trkpt lat="44.12136909024003" lon="12.20573758025594"><ele>48.5</ele><time>2026-05-02T12:24:14Z</time></trkpt><trkpt lat="44.12132986901696" lon="12.205843527979189"><ele>48.666666666666664</ele><time>2026-05-02T12:24:16Z</time></trkpt><trkpt lat="44.12128855069748" lon="12.205944725236241"><ele>48.83333333333333</ele><time>2026-05-02T12:24:18Z</time></trkpt><trkpt lat="44.121251484684905" lon="12.206048152855455"><ele>49.0</ele><time>2026-05-02T12:24:20Z</time></trkpt><trkpt lat="44.12120945772447" lon="12.206156844388971"><ele>49.2</ele><time>2026-05-02T12:24:22Z</time></trkpt><trkpt lat="44.12116675867236" lon="12.206261055466575"><ele>49.400000000000006</ele><time>2026-05-02T12:24:24Z</time></trkpt><trkpt lat="44.12112669015873" lon="12.206374936479152"><ele>49.6</ele><time>2026-05-02T12:24:26Z</time></trkpt><trkpt lat="44.12108113591427" lon="12.206490861160134"><ele>49.8</ele><time>2026-05-02T12:24:28Z</time></trkpt><trkpt lat="44.121032216192866" lon="12.206612401184827"><ele>50.0</ele><time>2026-05-02T12:24:30Z</time></trkpt><trkpt lat="44.12098442821225" lon="12.206737329278322"><ele>49.6</ele><time>2026-05-02T12:24:32Z</time></trkpt><trkpt lat="44.1209325608533" lon="12.206866839423833"><ele>49.2</ele><time>2026-05-02T12:24:34Z</time></trkpt><trkpt lat="44.12088081470346" lon="12.207001528853047"><ele>48.8</ele><time>2026-05-02T12:24:36Z</time></trkpt><trkpt lat="44.12083291513704" lon="12.20713783704414"><ele>48.4</ele><time>2026-05-02T12:24:38Z</time></trkpt><trkpt lat="44.12078159097632" lon="12.207280521584392"><ele>48.0</ele><time>2026-05-02T12:24:40Z</time></trkpt><trkpt lat="44.1207248114358" lon="12.20741607010906"><ele>48.0</ele><time>2026-05-02T12:24:42Z</time></trkpt><trkpt lat="44.12066841155011" lon="12.207557035855842"><ele>48.0</ele><time>2026-05-02T12:24:44Z</time></trkpt><trkpt lat="44.12061372232686" lon="12.207698713601637"><ele>48.0</ele><time>2026-05-02T12:24:46Z</time></trkpt><trkpt lat="44.120555009263256" lon="12.207837340891778"><ele>48.0</ele><time>2026-05-02T12:24:47.999Z</time></trkpt><trkpt lat="44.120511043506326" lon="12.207967806900491"><ele>48.0</ele><time>2026-05-02T12:24:49.999Z</time></trkpt><trkpt lat="44.12046087664446" lon="12.208084998170555"><ele>48.0</ele><time>2026-05-02T12:24:52Z</time></trkpt><trkpt lat="44.120413918333995" lon="12.208193354586456"><ele>48.0</ele><time>2026-05-02T12:24:54Z</time></trkpt><trkpt lat="44.120371467794484" lon="12.208309738760251"><ele>48.0</ele><time>2026-05-02T12:24:56Z</time></trkpt><trkpt lat="44.12033410705719" lon="12.208423016928048"><ele>48.0</ele><time>2026-05-02T12:24:58Z</time></trkpt><trkpt lat="44.12029097339437" lon="12.208532911229886"><ele>48.285714285714285</ele><time>2026-05-02T12:25:00Z</time></trkpt><trkpt lat="44.12025266977055" lon="12.208614261226986"><ele>48.57142857142857</ele><time>2026-05-02T12:25:02Z</time></trkpt><trkpt lat="44.120211692741414" lon="12.20868415800036"><ele>48.85714285714286</ele><time>2026-05-02T12:25:04Z</time></trkpt><trkpt lat="44.120146949911664" lon="12.20874131653721"><ele>49.14285714285714</ele><time>2026-05-02T12:25:08Z</time></trkpt><trkpt lat="44.120081770533815" lon="12.208738285994084"><ele>49.42857142857143</ele><time>2026-05-02T12:25:13Z</time></trkpt><trkpt lat="44.12007349988746" lon="12.208828695088464"><ele>49.714285714285715</ele><time>2026-05-02T12:25:16Z</time></trkpt><trkpt lat="44.12014420011502" lon="12.20888778548551"><ele>50.0</ele><time>2026-05-02T12:25:18Z</time></trkpt><trkpt lat="44.12016043709396" lon="12.208979150294208"><ele>50.00000000000001</ele><time>2026-05-02T12:25:20Z</time></trkpt><trkpt lat="44.120122810382846" lon="12.209072199248377"><ele>50.0</ele><time>2026-05-02T12:25:22Z</time></trkpt><trkpt lat="44.12009350931121" lon="12.209183878734565"><ele>50.0</ele><time>2026-05-02T12:25:24Z</time></trkpt><trkpt lat="44.12005635285797" lon="12.209263008536475"><ele>50.0</ele><time>2026-05-02T12:25:26Z</time></trkpt><trkpt lat="44.12000983685781" lon="12.209373345238866"><ele>50.00000000000001</ele><time>2026-05-02T12:25:28Z</time></trkpt><trkpt lat="44.11994691368075" lon="12.20948800028501"><ele>50.0</ele><time>2026-05-02T12:25:30Z</time></trkpt><trkpt lat="44.11990326279869" lon="12.20960566083174"><ele>49.2</ele><time>2026-05-02T12:25:32Z</time></trkpt><trkpt lat="44.11985531146906" lon="12.209732682340482"><ele>48.4</ele><time>2026-05-02T12:25:34Z</time></trkpt><trkpt lat="44.11979592536796" lon="12.209857921442135"><ele>47.599999999999994</ele><time>2026-05-02T12:25:36Z</time></trkpt><trkpt lat="44.11975396123325" lon="12.21001528462256"><ele>46.8</ele><time>2026-05-02T12:25:38Z</time></trkpt><trkpt lat="44.11974559104475" lon="12.210173265816504"><ele>46.0</ele><time>2026-05-02T12:25:40Z</time></trkpt><trkpt lat="44.119760621332894" lon="12.210316386198292"><ele>45.599999999999994</ele><time>2026-05-02T12:25:42Z</time></trkpt><trkpt lat="44.11976653687369" lon="12.210468980719188"><ele>45.2</ele><time>2026-05-02T12:25:44Z</time></trkpt><trkpt lat="44.11977887857267" lon="12.210614904743997"><ele>44.8</ele><time>2026-05-02T12:25:46Z</time></trkpt><trkpt lat="44.11978006119755" lon="12.210764000382948"><ele>44.400000000000006</ele><time>2026-05-02T12:25:48Z</time></trkpt><trkpt lat="44.11979679886338" lon="12.210902163153241"><ele>44.0</ele><time>2026-05-02T12:25:50Z</time></trkpt><trkpt lat="44.11981648311605" lon="12.211046173666526"><ele>44.0</ele><time>2026-05-02T12:25:52Z</time></trkpt><trkpt lat="44.119834576355345" lon="12.211182771787279"><ele>44.0</ele><time>2026-05-02T12:25:54Z</time></trkpt><trkpt lat="44.119848889182755" lon="12.211314077203598"><ele>44.0</ele><time>2026-05-02T12:25:56Z</time></trkpt><trkpt lat="44.11985972850936" lon="12.211448443949575"><ele>44.0</ele><time>2026-05-02T12:25:58Z</time></trkpt><trkpt lat="44.1198709912741" lon="12.211582533008775"><ele>44.0</ele><time>2026-05-02T12:26:00Z</time></trkpt><trkpt lat="44.11988299149748" lon="12.211709676184688"><ele>44.166666666666664</ele><time>2026-05-02T12:26:02Z</time></trkpt><trkpt lat="44.119925424229365" lon="12.211828782391626"><ele>44.33333333333333</ele><time>2026-05-02T12:26:04Z</time></trkpt><trkpt lat="44.11994009174644" lon="12.211945237515433"><ele>44.5</ele><time>2026-05-02T12:26:06Z</time></trkpt><trkpt lat="44.119964925942114" lon="12.212062884005848"><ele>44.666666666666664</ele><time>2026-05-02T12:26:08Z</time></trkpt><trkpt lat="44.11999794365308" lon="12.212173283651214"><ele>44.833333333333336</ele><time>2026-05-02T12:26:10Z</time></trkpt><trkpt lat="44.12002507639303" lon="12.212293299137412"><ele>45.0</ele><time>2026-05-02T12:26:12Z</time></trkpt><trkpt lat="44.12006096912112" lon="12.212422201141285"><ele>45.0</ele><time>2026-05-02T12:26:14Z</time></trkpt><trkpt lat="44.120100180792654" lon="12.212557255017542"><ele>45.0</ele><time>2026-05-02T12:26:16Z</time></trkpt><trkpt lat="44.12011054845185" lon="12.21270664193427"><ele>45.0</ele><time>2026-05-02T12:26:18Z</time></trkpt><trkpt lat="44.120146217653655" lon="12.21282482839033"><ele>45.0</ele><time>2026-05-02T12:26:20Z</time></trkpt><trkpt lat="44.12019416096899" lon="12.212932621046898"><ele>45.0</ele><time>2026-05-02T12:26:22Z</time></trkpt><trkpt lat="44.1202137486806" lon="12.213049597100916"><ele>45.0</ele><time>2026-05-02T12:26:24Z</time></trkpt><trkpt lat="44.120257060170964" lon="12.213149592575355"><ele>45.0</ele><time>2026-05-02T12:26:26Z</time></trkpt><trkpt lat="44.12026550546217" lon="12.213256672348246"><ele>45.0</ele><time>2026-05-02T12:26:28Z</time></trkpt><trkpt lat="44.120291359722415" lon="12.213367254664462"><ele>45.0</ele><time>2026-05-02T12:26:30Z</time></trkpt><trkpt lat="44.12028215039232" lon="12.213465018735015"><ele>45.0</ele><time>2026-05-02T12:26:32Z</time></trkpt><trkpt lat="44.12022742866848" lon="12.213533008361523"><ele>45.0</ele><time>2026-05-02T12:26:34Z</time></trkpt><trkpt lat="44.12026731812826" lon="12.213690586983532"><ele>45.0</ele><time>2026-05-02T12:26:40.999Z</time></trkpt><trkpt lat="44.120270403127776" lon="12.213793918074357"><ele>45.0</ele><time>2026-05-02T12:26:42.999Z</time></trkpt><trkpt lat="44.12025227438415" lon="12.21388998290283"><ele>45.0</ele><time>2026-05-02T12:26:44.999Z</time></trkpt><trkpt lat="44.12022877618664" lon="12.2140026258979"><ele>45.0</ele><time>2026-05-02T12:26:47.999Z</time></trkpt><trkpt lat="44.120168807885136" lon="12.21404826896294"><ele>45.0</ele><time>2026-05-02T12:26:49.999Z</time></trkpt><trkpt lat="44.12006558486401" lon="12.214078543359674"><ele>45.0</ele><time>2026-05-02T12:26:51.999Z</time></trkpt><trkpt lat="44.11995778679367" lon="12.21412858051112"><ele>44.333333333333336</ele><time>2026-05-02T12:26:53.999Z</time></trkpt><trkpt lat="44.119909988018804" lon="12.214194832887973"><ele>43.666666666666664</ele><time>2026-05-02T12:26:54.999Z</time></trkpt><trkpt lat="44.119897262957195" lon="12.214288913200829"><ele>43.0</ele><time>2026-05-02T12:26:55.999Z</time></trkpt><trkpt lat="44.119912438823356" lon="12.21443717671241"><ele>42.33333333333333</ele><time>2026-05-02T12:26:58Z</time></trkpt><trkpt lat="44.11990713396039" lon="12.214542768431501"><ele>41.666666666666664</ele><time>2026-05-02T12:27:00Z</time></trkpt><trkpt lat="44.11991612003164" lon="12.214669986479231"><ele>41.0</ele><time>2026-05-02T12:27:02Z</time></trkpt><trkpt lat="44.11994864166091" lon="12.214797840816608"><ele>39.0</ele><time>2026-05-02T12:27:04Z</time></trkpt><trkpt lat="44.120008046812075" lon="12.214894084029641"><ele>37.0</ele><time>2026-05-02T12:27:06Z</time></trkpt><trkpt lat="44.1200655011424" lon="12.214987201412203"><ele>35.0</ele><time>2026-05-02T12:27:08Z</time></trkpt><trkpt lat="44.12012909623307" lon="12.215090271245975"><ele>33.0</ele><time>2026-05-02T12:27:10Z</time></trkpt><trkpt lat="44.1203060052284" lon="12.214970116290944"><ele>33.0</ele><time>2026-05-02T12:27:11Z</time></trkpt><trkpt lat="44.12042032198441" lon="12.214983653987364"><ele>33.0</ele><time>2026-05-02T12:27:13Z</time></trkpt><trkpt lat="44.12053378694241" lon="12.215025625473253"><ele>33.0</ele><time>2026-05-02T12:27:15Z</time></trkpt><trkpt lat="44.1205961316306" lon="12.21508675672718"><ele>33.0</ele><time>2026-05-02T12:27:16Z</time></trkpt><trkpt lat="44.12066326551413" lon="12.215132738681586"><ele>33.0</ele><time>2026-05-02T12:27:21Z</time></trkpt><trkpt lat="44.120721119195395" lon="12.215167805109184"><ele>33.0</ele><time>2026-05-02T12:27:38Z</time></trkpt><trkpt lat="44.12086790954951" lon="12.215201318693117"><ele>33.285714285714285</ele><time>2026-05-02T12:27:49Z</time></trkpt><trkpt lat="44.120931822346584" lon="12.215184018557373"><ele>33.57142857142857</ele><time>2026-05-02T12:27:52Z</time></trkpt><trkpt lat="44.12100559924122" lon="12.215168305658512"><ele>33.85714285714286</ele><time>2026-05-02T12:27:56Z</time></trkpt><trkpt lat="44.121072874680785" lon="12.2151569767944"><ele>34.14285714285714</ele><time>2026-05-02T12:28:00Z</time></trkpt><trkpt lat="44.12114910224672" lon="12.215137814814812"><ele>34.42857142857143</ele><time>2026-05-02T12:28:04Z</time></trkpt><trkpt lat="44.121222320007" lon="12.215143052024711"><ele>34.714285714285715</ele><time>2026-05-02T12:28:07Z</time></trkpt><trkpt lat="44.12128806537308" lon="12.215142171026082"><ele>35.0</ele><time>2026-05-02T12:28:10Z</time></trkpt><trkpt lat="44.12135406318468" lon="12.215144274405201"><ele>35.0</ele><time>2026-05-02T12:28:13Z</time></trkpt><trkpt lat="44.12144012382378" lon="12.215149436400585"><ele>35.0</ele><time>2026-05-02T12:28:17Z</time></trkpt><trkpt lat="44.121520917793255" lon="12.215148639869858"><ele>35.0</ele><time>2026-05-02T12:28:21Z</time></trkpt><trkpt lat="44.12158442655062" lon="12.215152040804382"><ele>35.0</ele><time>2026-05-02T12:28:24Z</time></trkpt><trkpt lat="44.121651161099244" lon="12.215156725539593"><ele>35.0</ele><time>2026-05-02T12:28:28Z</time></trkpt><trkpt lat="44.121715649959256" lon="12.215148268868548"><ele>35.0</ele><time>2026-05-02T12:28:32Z</time></trkpt><trkpt lat="44.12178868440417" lon="12.215135057759847"><ele>35.0</ele><time>2026-05-02T12:28:36Z</time></trkpt><trkpt lat="44.12186001008064" lon="12.215146189254705"><ele>34.666666666666664</ele><time>2026-05-02T12:28:40Z</time></trkpt><trkpt lat="44.121939995574756" lon="12.215172752092434"><ele>34.33333333333333</ele><time>2026-05-02T12:28:44Z</time></trkpt><trkpt lat="44.122012474998975" lon="12.21519606073283"><ele>34.0</ele><time>2026-05-02T12:28:48Z</time></trkpt><trkpt lat="44.12207225881292" lon="12.215240319899912"><ele>33.666666666666664</ele><time>2026-05-02T12:28:51Z</time></trkpt><trkpt lat="44.122146177515184" lon="12.215268956270268"><ele>33.333333333333336</ele><time>2026-05-02T12:28:54Z</time></trkpt><trkpt lat="44.12221101667425" lon="12.21529944179604"><ele>33.0</ele><time>2026-05-02T12:28:57Z</time></trkpt><trkpt lat="44.12229996245735" lon="12.215347476077856"><ele>33.0</ele><time>2026-05-02T12:29:00.999Z</time></trkpt><trkpt lat="44.122371672827" lon="12.215409989379186"><ele>33.0</ele><time>2026-05-02T12:29:04Z</time></trkpt><trkpt lat="44.12244107117998" lon="12.21544588352413"><ele>33.0</ele><time>2026-05-02T12:29:07Z</time></trkpt><trkpt lat="44.12251814599155" lon="12.21547806104262"><ele>33.0</ele><time>2026-05-02T12:29:10Z</time></trkpt><trkpt lat="44.122587311898776" lon="12.215526263909547"><ele>33.0</ele><time>2026-05-02T12:29:13Z</time></trkpt><trkpt lat="44.12265503082933" lon="12.21557515387366"><ele>33.0</ele><time>2026-05-02T12:29:16Z</time></trkpt><trkpt lat="44.12272632993259" lon="12.215627400328929"><ele>32.666666666666664</ele><time>2026-05-02T12:29:19Z</time></trkpt><trkpt lat="44.122789930857174" lon="12.215679731943165"><ele>32.333333333333336</ele><time>2026-05-02T12:29:22Z</time></trkpt><trkpt lat="44.122853696333316" lon="12.215724471328764"><ele>32.0</ele><time>2026-05-02T12:29:25Z</time></trkpt><trkpt lat="44.12291240815369" lon="12.215772871336359"><ele>31.666666666666668</ele><time>2026-05-02T12:29:28Z</time></trkpt><trkpt lat="44.12297501376348" lon="12.215843487695611"><ele>31.333333333333336</ele><time>2026-05-02T12:29:31Z</time></trkpt><trkpt lat="44.12302182668759" lon="12.21593143786308"><ele>31.0</ele><time>2026-05-02T12:29:35Z</time></trkpt><trkpt lat="44.123063692084465" lon="12.216023648514428"><ele>31.000000000000004</ele><time>2026-05-02T12:29:39Z</time></trkpt><trkpt lat="44.123100598797755" lon="12.21610727247262"><ele>31.0</ele><time>2026-05-02T12:29:42Z</time></trkpt><trkpt lat="44.12312028951075" lon="12.216235091660149"><ele>31.0</ele><time>2026-05-02T12:29:45Z</time></trkpt><trkpt lat="44.12314982395834" lon="12.216323088173839"><ele>31.0</ele><time>2026-05-02T12:29:47Z</time></trkpt><trkpt lat="44.123194180266125" lon="12.216419105172358"><ele>31.000000000000004</ele><time>2026-05-02T12:29:49Z</time></trkpt><trkpt lat="44.123225214052475" lon="12.216499974935784"><ele>31.0</ele><time>2026-05-02T12:29:51Z</time></trkpt><trkpt lat="44.12327730667965" lon="12.216587313023558"><ele>31.28571428571429</ele><time>2026-05-02T12:29:54Z</time></trkpt><trkpt lat="44.1233164397839" lon="12.216678995925395"><ele>31.571428571428577</ele><time>2026-05-02T12:29:57Z</time></trkpt><trkpt lat="44.12337636772157" lon="12.216745071104004"><ele>31.857142857142858</ele><time>2026-05-02T12:30:00Z</time></trkpt><trkpt lat="44.12342735129367" lon="12.216798639157602"><ele>32.142857142857146</ele><time>2026-05-02T12:30:03Z</time></trkpt><trkpt lat="44.12345843713842" lon="12.216890874611753"><ele>32.42857142857143</ele><time>2026-05-02T12:30:30Z</time></trkpt><trkpt lat="44.123486059400435" lon="12.216981680748612"><ele>32.714285714285715</ele><time>2026-05-02T12:30:34Z</time></trkpt><trkpt lat="44.12351482556547" lon="12.217077436206736"><ele>33.0</ele><time>2026-05-02T12:30:37Z</time></trkpt><trkpt lat="44.12355913096076" lon="12.217164902619684"><ele>33.0</ele><time>2026-05-02T12:30:40Z</time></trkpt><trkpt lat="44.123584966202436" lon="12.21724824574581"><ele>33.0</ele><time>2026-05-02T12:30:45Z</time></trkpt><trkpt lat="44.12362859386164" lon="12.21734387741619"><ele>33.0</ele><time>2026-05-02T12:30:50Z</time></trkpt><trkpt lat="44.12361975797286" lon="12.21745457442019"><ele>33.0</ele><time>2026-05-02T12:30:55Z</time></trkpt><trkpt lat="44.12362468768058" lon="12.217553305410787"><ele>33.0</ele><time>2026-05-02T12:30:59Z</time></trkpt><trkpt lat="44.12361975079729" lon="12.2176562611585"><ele>33.0</ele><time>2026-05-02T12:31:02Z</time></trkpt><trkpt lat="44.12363123593195" lon="12.21776181310389"><ele>33.0</ele><time>2026-05-02T12:31:04.999Z</time></trkpt><trkpt lat="44.12363962076954" lon="12.217874210994722"><ele>33.0</ele><time>2026-05-02T12:31:08.999Z</time></trkpt><trkpt lat="44.123662752554694" lon="12.21798734308887"><ele>33.0</ele><time>2026-05-02T12:31:12Z</time></trkpt><trkpt lat="44.12367923782479" lon="12.218081576677733"><ele>33.0</ele><time>2026-05-02T12:31:15Z</time></trkpt><trkpt lat="44.12370633896966" lon="12.218205821466874"><ele>33.0</ele><time>2026-05-02T12:31:18Z</time></trkpt><trkpt lat="44.1237266987204" lon="12.218291682035554"><ele>33.0</ele><time>2026-05-02T12:31:20Z</time></trkpt><trkpt lat="44.12374270047989" lon="12.218398079598105"><ele>33.0</ele><time>2026-05-02T12:31:23Z</time></trkpt><trkpt lat="44.12375847884171" lon="12.218515582706628"><ele>33.0</ele><time>2026-05-02T12:31:26Z</time></trkpt><trkpt lat="44.123771764201884" lon="12.21864419077321"><ele>33.0</ele><time>2026-05-02T12:31:29Z</time></trkpt><trkpt lat="44.12377830656546" lon="12.218733625612355"><ele>33.0</ele><time>2026-05-02T12:31:32Z</time></trkpt><trkpt lat="44.12379140223779" lon="12.218842070156889"><ele>33.0</ele><time>2026-05-02T12:31:37Z</time></trkpt><trkpt lat="44.12377517953889" lon="12.218938609280636"><ele>33.0</ele><time>2026-05-02T12:31:43Z</time></trkpt><trkpt lat="44.12381248025708" lon="12.218855377731034"><ele>33.0</ele><time>2026-05-02T12:31:55Z</time></trkpt><trkpt lat="44.123813495984535" lon="12.21876486235034"><ele>33.0</ele><time>2026-05-02T12:32:08Z</time></trkpt><trkpt lat="44.12386713132915" lon="12.21871406564959"><ele>33.0</ele><time>2026-05-02T12:32:22Z</time></trkpt><trkpt lat="44.1239293822661" lon="12.218682930393516"><ele>33.0</ele><time>2026-05-02T12:34:58Z</time></trkpt><trkpt lat="44.12399581590926" lon="12.218664663157645"><ele>33.0</ele><time>2026-05-02T12:35:17.999Z</time></trkpt><trkpt lat="44.12405994916306" lon="12.218647911941131"><ele>33.0</ele><time>2026-05-02T12:35:21.999Z</time></trkpt><trkpt lat="44.1241352953268" lon="12.218610941369969"><ele>33.0</ele><time>2026-05-02T12:35:27Z</time></trkpt><trkpt lat="44.12419567255656" lon="12.218578042539669"><ele>33.0</ele><time>2026-05-02T12:35:30Z</time></trkpt><trkpt lat="44.124271657500096" lon="12.218533463614264"><ele>33.0</ele><time>2026-05-02T12:35:34Z</time></trkpt><trkpt lat="44.124349414420294" lon="12.21849435507465"><ele>33.285714285714285</ele><time>2026-05-02T12:35:38Z</time></trkpt><trkpt lat="44.124423430692886" lon="12.218474124986814"><ele>33.57142857142857</ele><time>2026-05-02T12:35:42Z</time></trkpt><trkpt lat="44.124490223139794" lon="12.218449942929364"><ele>33.85714285714286</ele><time>2026-05-02T12:35:46Z</time></trkpt><trkpt lat="44.124555812831936" lon="12.218427556149573"><ele>34.14285714285714</ele><time>2026-05-02T12:35:50Z</time></trkpt><trkpt lat="44.12461851150179" lon="12.21839913039998"><ele>34.42857142857143</ele><time>2026-05-02T12:35:54Z</time></trkpt><trkpt lat="44.124685251535595" lon="12.21836878464422"><ele>34.714285714285715</ele><time>2026-05-02T12:35:58Z</time></trkpt><trkpt lat="44.1247563625472" lon="12.21832013716962"><ele>35.0</ele><time>2026-05-02T12:36:02Z</time></trkpt><trkpt lat="44.12483000409645" lon="12.21828546525269"><ele>35.0</ele><time>2026-05-02T12:36:06Z</time></trkpt><trkpt lat="44.12485331673206" lon="12.218390834383884"><ele>35.0</ele><time>2026-05-02T12:36:10Z</time></trkpt><trkpt lat="44.12483917701802" lon="12.218486647239756"><ele>35.0</ele><time>2026-05-02T12:36:14Z</time></trkpt><trkpt lat="44.124836750886665" lon="12.218584799076377"><ele>35.0</ele><time>2026-05-02T12:36:18Z</time></trkpt><trkpt lat="44.12482074939466" lon="12.218690997810011"><ele>35.0</ele><time>2026-05-02T12:36:22Z</time></trkpt><trkpt lat="44.12479159281753" lon="12.218781547152405"><ele>35.0</ele><time>2026-05-02T12:36:25Z</time></trkpt><trkpt lat="44.124751521505445" lon="12.218852696728076"><ele>35.0</ele><time>2026-05-02T12:36:27Z</time></trkpt><trkpt lat="44.124704544527766" lon="12.218925799347902"><ele>34.83333333333333</ele><time>2026-05-02T12:36:29Z</time></trkpt><trkpt lat="44.124652648246354" lon="12.219008772500672"><ele>34.666666666666664</ele><time>2026-05-02T12:36:31Z</time></trkpt><trkpt lat="44.12459871940458" lon="12.219106613726606"><ele>34.5</ele><time>2026-05-02T12:36:33Z</time></trkpt><trkpt lat="44.124546582257416" lon="12.219207351981208"><ele>34.333333333333336</ele><time>2026-05-02T12:36:35Z</time></trkpt><trkpt lat="44.124502942650714" lon="12.219299659014496"><ele>34.16666666666667</ele><time>2026-05-02T12:36:37Z</time></trkpt><trkpt lat="44.12445727358505" lon="12.219380068484604"><ele>34.0</ele><time>2026-05-02T12:36:39Z</time></trkpt><trkpt lat="44.124397468673585" lon="12.219470563775248"><ele>34.0</ele><time>2026-05-02T12:36:41Z</time></trkpt><trkpt lat="44.124348694935925" lon="12.219541851544157"><ele>34.0</ele><time>2026-05-02T12:36:43Z</time></trkpt><trkpt lat="44.12428095967889" lon="12.219622925128412"><ele>34.0</ele><time>2026-05-02T12:36:46Z</time></trkpt><trkpt lat="44.124214374580845" lon="12.219701383551858"><ele>34.0</ele><time>2026-05-02T12:36:49Z</time></trkpt><trkpt lat="44.124159303032364" lon="12.219773574369345"><ele>34.0</ele><time>2026-05-02T12:36:51.999Z</time></trkpt><trkpt lat="44.124096620609066" lon="12.219859832261669"><ele>34.0</ele><time>2026-05-02T12:36:54.999Z</time></trkpt><trkpt lat="44.12403437437002" lon="12.219958870752045"><ele>34.333333333333336</ele><time>2026-05-02T12:36:57.999Z</time></trkpt><trkpt lat="44.12399485122382" lon="12.220029427471891"><ele>34.66666666666667</ele><time>2026-05-02T12:36:59.999Z</time></trkpt><trkpt lat="44.12395415166021" lon="12.2201084490387"><ele>35.0</ele><time>2026-05-02T12:37:01.999Z</time></trkpt><trkpt lat="44.123887746678584" lon="12.220191596685758"><ele>35.333333333333336</ele><time>2026-05-02T12:37:04.999Z</time></trkpt><trkpt lat="44.12381174974311" lon="12.220266528288251"><ele>35.666666666666664</ele><time>2026-05-02T12:37:07.999Z</time></trkpt><trkpt lat="44.12376551473269" lon="12.220331136829882"><ele>36.0</ele><time>2026-05-02T12:37:09.999Z</time></trkpt><trkpt lat="44.12371604977249" lon="12.220402903327749"><ele>36.0</ele><time>2026-05-02T12:37:11.999Z</time></trkpt><trkpt lat="44.12366899470966" lon="12.220463994782671"><ele>36.0</ele><time>2026-05-02T12:37:13.999Z</time></trkpt><trkpt lat="44.12360603197894" lon="12.220562278460644"><ele>36.0</ele><time>2026-05-02T12:37:16.999Z</time></trkpt><trkpt lat="44.12354329092721" lon="12.220676771498004"><ele>36.0</ele><time>2026-05-02T12:37:19.999Z</time></trkpt><trkpt lat="44.123503992789615" lon="12.220746105326786"><ele>36.0</ele><time>2026-05-02T12:37:21.999Z</time></trkpt><trkpt lat="44.12344766728329" lon="12.220835832364179"><ele>36.0</ele><time>2026-05-02T12:37:24.999Z</time></trkpt><trkpt lat="44.123396432681076" lon="12.220914431379331"><ele>36.4</ele><time>2026-05-02T12:37:26.999Z</time></trkpt><trkpt lat="44.123314398122965" lon="12.220987247618753"><ele>36.8</ele><time>2026-05-02T12:37:29Z</time></trkpt><trkpt lat="44.12321701363572" lon="12.221063893345184"><ele>37.199999999999996</ele><time>2026-05-02T12:37:31Z</time></trkpt><trkpt lat="44.12311836684829" lon="12.221150667509294"><ele>37.6</ele><time>2026-05-02T12:37:33Z</time></trkpt><trkpt lat="44.12303693402838" lon="12.221234806181458"><ele>38.0</ele><time>2026-05-02T12:37:35Z</time></trkpt><trkpt lat="44.12295684134967" lon="12.221319697476888"><ele>37.83333333333333</ele><time>2026-05-02T12:37:37Z</time></trkpt><trkpt lat="44.12289934882561" lon="12.221424514392986"><ele>37.666666666666664</ele><time>2026-05-02T12:37:39Z</time></trkpt><trkpt lat="44.12283713416809" lon="12.221474370623866"><ele>37.5</ele><time>2026-05-02T12:37:43Z</time></trkpt><trkpt lat="44.122814090580135" lon="12.221559687016956"><ele>37.333333333333336</ele><time>2026-05-02T12:37:46Z</time></trkpt><trkpt lat="44.1228012130806" lon="12.221656739150463"><ele>37.16666666666667</ele><time>2026-05-02T12:37:49Z</time></trkpt><trkpt lat="44.12276383918544" lon="12.221774586575231"><ele>37.0</ele><time>2026-05-02T12:37:52Z</time></trkpt><trkpt lat="44.12273026938195" lon="12.221896134412605"><ele>35.66666666666667</ele><time>2026-05-02T12:37:55Z</time></trkpt><trkpt lat="44.12238226528491" lon="12.221796276486337"><ele>34.333333333333336</ele><time>2026-05-02T12:37:57Z</time></trkpt><trkpt lat="44.122319352797454" lon="12.22182412342836"><ele>33.0</ele><time>2026-05-02T12:37:59Z</time></trkpt><trkpt lat="44.12225466110085" lon="12.22185977653991"><ele>33.0</ele><time>2026-05-02T12:38:01Z</time></trkpt><trkpt lat="44.12218811512893" lon="12.221891724496151"><ele>33.0</ele><time>2026-05-02T12:38:03Z</time></trkpt><trkpt lat="44.12212424524819" lon="12.221927475254079"><ele>33.0</ele><time>2026-05-02T12:38:05Z</time></trkpt><trkpt lat="44.12205971839367" lon="12.221967172603707"><ele>33.0</ele><time>2026-05-02T12:38:07Z</time></trkpt><trkpt lat="44.12198308840682" lon="12.222009481365117"><ele>33.0</ele><time>2026-05-02T12:38:09Z</time></trkpt><trkpt lat="44.12189359421195" lon="12.22206132413101"><ele>33.0</ele><time>2026-05-02T12:38:11Z</time></trkpt><trkpt lat="44.12178453260931" lon="12.222110919017513"><ele>33.0</ele><time>2026-05-02T12:38:13Z</time></trkpt><trkpt lat="44.12172486585015" lon="12.222140957199027"><ele>33.0</ele><time>2026-05-02T12:38:14Z</time></trkpt><trkpt lat="44.12166090932322" lon="12.222172345821997"><ele>33.0</ele><time>2026-05-02T12:38:15Z</time></trkpt><trkpt lat="44.12159219360362" lon="12.222189990240512"><ele>33.0</ele><time>2026-05-02T12:38:16Z</time></trkpt><trkpt lat="44.12152053695773" lon="12.2221926774988"><ele>33.0</ele><time>2026-05-02T12:38:17Z</time></trkpt><trkpt lat="44.12143368519402" lon="12.222196349449167"><ele>33.0</ele><time>2026-05-02T12:38:18Z</time></trkpt><trkpt lat="44.12134967218473" lon="12.222193231821848"><ele>33.0</ele><time>2026-05-02T12:38:19Z</time></trkpt><trkpt lat="44.121265581438294" lon="12.222211941302112"><ele>32.666666666666664</ele><time>2026-05-02T12:38:20Z</time></trkpt><trkpt lat="44.12118850721219" lon="12.222245980240842"><ele>32.333333333333336</ele><time>2026-05-02T12:38:21Z</time></trkpt><trkpt lat="44.121113296618105" lon="12.222282921011452"><ele>32.0</ele><time>2026-05-02T12:38:22Z</time></trkpt><trkpt lat="44.121042259587874" lon="12.222318256556632"><ele>31.666666666666668</ele><time>2026-05-02T12:38:23Z</time></trkpt><trkpt lat="44.120972274353285" lon="12.222347065052945"><ele>31.333333333333336</ele><time>2026-05-02T12:38:24Z</time></trkpt><trkpt lat="44.120899228599676" lon="12.22237206164877"><ele>31.0</ele><time>2026-05-02T12:38:25Z</time></trkpt><trkpt lat="44.12083183889102" lon="12.22239780546462"><ele>31.0</ele><time>2026-05-02T12:38:26Z</time></trkpt><trkpt lat="44.120766023375616" lon="12.222421135292516"><ele>31.000000000000004</ele><time>2026-05-02T12:38:27Z</time></trkpt><trkpt lat="44.120700530084264" lon="12.222441339490512"><ele>31.0</ele><time>2026-05-02T12:38:28Z</time></trkpt><trkpt lat="44.120637553635206" lon="12.222465332371906"><ele>31.0</ele><time>2026-05-02T12:38:29Z</time></trkpt><trkpt lat="44.12057288275093" lon="12.222487590636593"><ele>31.000000000000004</ele><time>2026-05-02T12:38:30Z</time></trkpt><trkpt lat="44.12051045972232" lon="12.222512842574057"><ele>31.0</ele><time>2026-05-02T12:38:31Z</time></trkpt><trkpt lat="44.120447034836616" lon="12.222533064806548"><ele>31.0</ele><time>2026-05-02T12:38:32Z</time></trkpt><trkpt lat="44.12032777292653" lon="12.222582778087913"><ele>31.0</ele><time>2026-05-02T12:38:34Z</time></trkpt><trkpt lat="44.120266665812515" lon="12.222604348876677"><ele>31.0</ele><time>2026-05-02T12:38:35Z</time></trkpt><trkpt lat="44.12014674663437" lon="12.22264567982875"><ele>31.0</ele><time>2026-05-02T12:38:37Z</time></trkpt><trkpt lat="44.120027308257356" lon="12.222687152009215"><ele>31.0</ele><time>2026-05-02T12:38:39Z</time></trkpt><trkpt lat="44.11991238526041" lon="12.222721988662087"><ele>31.0</ele><time>2026-05-02T12:38:41Z</time></trkpt><trkpt lat="44.11979446457114" lon="12.222756077204899"><ele>31.0</ele><time>2026-05-02T12:38:43Z</time></trkpt><trkpt lat="44.119681078726586" lon="12.222797938435866"><ele>31.0</ele><time>2026-05-02T12:38:45Z</time></trkpt><trkpt lat="44.11956650804816" lon="12.222833964258003"><ele>31.0</ele><time>2026-05-02T12:38:47Z</time></trkpt><trkpt lat="44.11945202034803" lon="12.22288536628761"><ele>31.0</ele><time>2026-05-02T12:38:49Z</time></trkpt><trkpt lat="44.11933525912631" lon="12.222920592478518"><ele>31.0</ele><time>2026-05-02T12:38:51Z</time></trkpt><trkpt lat="44.119225214952465" lon="12.222966171441218"><ele>31.0</ele><time>2026-05-02T12:38:53Z</time></trkpt><trkpt lat="44.11911263967679" lon="12.223016654023825"><ele>31.0</ele><time>2026-05-02T12:38:55Z</time></trkpt><trkpt lat="44.11900923376673" lon="12.223083075590775"><ele>31.0</ele><time>2026-05-02T12:38:57Z</time></trkpt><trkpt lat="44.11891521951259" lon="12.223165076939088"><ele>31.5</ele><time>2026-05-02T12:38:59Z</time></trkpt><trkpt lat="44.11883067276844" lon="12.223257896456731"><ele>32.0</ele><time>2026-05-02T12:39:01Z</time></trkpt><trkpt lat="44.11875890619808" lon="12.223377370790452"><ele>32.5</ele><time>2026-05-02T12:39:03Z</time></trkpt><trkpt lat="44.11868893973296" lon="12.223506231091417"><ele>33.0</ele><time>2026-05-02T12:39:05Z</time></trkpt><trkpt lat="44.118623669399334" lon="12.223636520383353"><ele>33.0</ele><time>2026-05-02T12:39:07Z</time></trkpt><trkpt lat="44.118566421027516" lon="12.223768966377142"><ele>33.0</ele><time>2026-05-02T12:39:09Z</time></trkpt><trkpt lat="44.11851262145316" lon="12.22390304364155"><ele>33.0</ele><time>2026-05-02T12:39:11Z</time></trkpt><trkpt lat="44.11846318191232" lon="12.224042005457335"><ele>33.0</ele><time>2026-05-02T12:39:13Z</time></trkpt><trkpt lat="44.118441288521105" lon="12.22418945493967"><ele>33.0</ele><time>2026-05-02T12:39:15Z</time></trkpt><trkpt lat="44.118438798966906" lon="12.224343703412659"><ele>32.8</ele><time>2026-05-02T12:39:17Z</time></trkpt><trkpt lat="44.118451702294244" lon="12.224492010262367"><ele>32.599999999999994</ele><time>2026-05-02T12:39:19Z</time></trkpt><trkpt lat="44.11848086568178" lon="12.224633832266978"><ele>32.400000000000006</ele><time>2026-05-02T12:39:21Z</time></trkpt><trkpt lat="44.1185035144823" lon="12.224771556881258"><ele>32.2</ele><time>2026-05-02T12:39:23Z</time></trkpt><trkpt lat="44.11851841303603" lon="12.224911545178221"><ele>32.0</ele><time>2026-05-02T12:39:25Z</time></trkpt><trkpt lat="44.11854154954512" lon="12.22504909254301"><ele>32.0</ele><time>2026-05-02T12:39:27Z</time></trkpt><trkpt lat="44.11856330100445" lon="12.225192725070638"><ele>32.0</ele><time>2026-05-02T12:39:29Z</time></trkpt><trkpt lat="44.118585801885565" lon="12.22533766549906"><ele>32.0</ele><time>2026-05-02T12:39:31Z</time></trkpt><trkpt lat="44.11860828863804" lon="12.225484521112042"><ele>32.0</ele><time>2026-05-02T12:39:33Z</time></trkpt><trkpt lat="44.11864398079037" lon="12.225624927399144"><ele>32.0</ele><time>2026-05-02T12:39:35Z</time></trkpt><trkpt lat="44.11868423857647" lon="12.22576339262916"><ele>32.2</ele><time>2026-05-02T12:39:37Z</time></trkpt><trkpt lat="44.11872641495357" lon="12.225900792474748"><ele>32.400000000000006</ele><time>2026-05-02T12:39:39Z</time></trkpt><trkpt lat="44.11876759709385" lon="12.22603815632202"><ele>32.599999999999994</ele><time>2026-05-02T12:39:41Z</time></trkpt><trkpt lat="44.11880930135366" lon="12.226172104212578"><ele>32.8</ele><time>2026-05-02T12:39:43Z</time></trkpt><trkpt lat="44.11885458106761" lon="12.22630635954566"><ele>33.0</ele><time>2026-05-02T12:39:45Z</time></trkpt><trkpt lat="44.118905373768186" lon="12.226432830682299"><ele>33.199999999999996</ele><time>2026-05-02T12:39:47Z</time></trkpt><trkpt lat="44.11894989055691" lon="12.226563368351368"><ele>33.4</ele><time>2026-05-02T12:39:49Z</time></trkpt><trkpt lat="44.119003923479816" lon="12.22669488975143"><ele>33.599999999999994</ele><time>2026-05-02T12:39:51Z</time></trkpt><trkpt lat="44.11905566343839" lon="12.226827663117442"><ele>33.8</ele><time>2026-05-02T12:39:53Z</time></trkpt><trkpt lat="44.11910373752051" lon="12.226964065283983"><ele>34.0</ele><time>2026-05-02T12:39:55Z</time></trkpt><trkpt lat="44.11914971943324" lon="12.227094729564836"><ele>33.6</ele><time>2026-05-02T12:39:57Z</time></trkpt><trkpt lat="44.119198705961225" lon="12.227218469771493"><ele>33.2</ele><time>2026-05-02T12:39:59Z</time></trkpt><trkpt lat="44.11925179187483" lon="12.227334631250063"><ele>32.800000000000004</ele><time>2026-05-02T12:40:01Z</time></trkpt><trkpt lat="44.11930417500013" lon="12.227454544908912"><ele>32.4</ele><time>2026-05-02T12:40:03Z</time></trkpt><trkpt lat="44.11935349074277" lon="12.227565553579064"><ele>32.0</ele><time>2026-05-02T12:40:05Z</time></trkpt><trkpt lat="44.11940490943" lon="12.227674939923247"><ele>31.8</ele><time>2026-05-02T12:40:07Z</time></trkpt><trkpt lat="44.119462133496064" lon="12.227780242729265"><ele>31.6</ele><time>2026-05-02T12:40:09Z</time></trkpt><trkpt lat="44.119522886697894" lon="12.227872049745551"><ele>31.400000000000002</ele><time>2026-05-02T12:40:11Z</time></trkpt><trkpt lat="44.11958655412501" lon="12.22796080667681"><ele>31.200000000000003</ele><time>2026-05-02T12:40:13Z</time></trkpt><trkpt lat="44.11965448630013" lon="12.228040572826842"><ele>31.0</ele><time>2026-05-02T12:40:15Z</time></trkpt><trkpt lat="44.11972733833567" lon="12.228109405972683"><ele>30.833333333333336</ele><time>2026-05-02T12:40:17Z</time></trkpt><trkpt lat="44.11979107992876" lon="12.228173809445462"><ele>30.666666666666668</ele><time>2026-05-02T12:40:19Z</time></trkpt><trkpt lat="44.11984739972138" lon="12.228238227652374"><ele>30.5</ele><time>2026-05-02T12:40:21Z</time></trkpt><trkpt lat="44.119915321120246" lon="12.228292737439801"><ele>30.333333333333336</ele><time>2026-05-02T12:40:23Z</time></trkpt><trkpt lat="44.11998112275995" lon="12.228360497329476"><ele>30.166666666666668</ele><time>2026-05-02T12:40:25Z</time></trkpt><trkpt lat="44.12005174165414" lon="12.228426817587636"><ele>30.0</ele><time>2026-05-02T12:40:27Z</time></trkpt><trkpt lat="44.12011571162864" lon="12.228481740522279"><ele>30.0</ele><time>2026-05-02T12:40:29Z</time></trkpt><trkpt lat="44.120177741209275" lon="12.22852952169707"><ele>30.0</ele><time>2026-05-02T12:40:31Z</time></trkpt><trkpt lat="44.12024045960889" lon="12.228574318975499"><ele>30.0</ele><time>2026-05-02T12:40:33Z</time></trkpt><trkpt lat="44.120305798433876" lon="12.228626386007432"><ele>30.0</ele><time>2026-05-02T12:40:35Z</time></trkpt><trkpt lat="44.12036462133095" lon="12.228673286910999"><ele>30.0</ele><time>2026-05-02T12:40:37Z</time></trkpt><trkpt lat="44.120426844019555" lon="12.228713961690753"><ele>30.0</ele><time>2026-05-02T12:40:39Z</time></trkpt><trkpt lat="44.1204966137108" lon="12.22876386101639"><ele>30.0</ele><time>2026-05-02T12:40:41Z</time></trkpt><trkpt lat="44.120571179721686" lon="12.228816880434328"><ele>30.0</ele><time>2026-05-02T12:40:43Z</time></trkpt><trkpt lat="44.12064786955087" lon="12.228862280100488"><ele>30.0</ele><time>2026-05-02T12:40:45Z</time></trkpt><trkpt lat="44.12073618249815" lon="12.228897549832741"><ele>30.0</ele><time>2026-05-02T12:40:47Z</time></trkpt><trkpt lat="44.12081403827391" lon="12.228929281995658"><ele>30.0</ele><time>2026-05-02T12:40:49Z</time></trkpt><trkpt lat="44.12088223777741" lon="12.228961689864956"><ele>30.0</ele><time>2026-05-02T12:40:51Z</time></trkpt><trkpt lat="44.120951103697415" lon="12.228982473316757"><ele>30.0</ele><time>2026-05-02T12:40:53Z</time></trkpt><trkpt lat="44.12101995487204" lon="12.229010164569928"><ele>30.166666666666668</ele><time>2026-05-02T12:40:55Z</time></trkpt><trkpt lat="44.12108578546064" lon="12.229030677210119"><ele>30.333333333333336</ele><time>2026-05-02T12:40:57Z</time></trkpt><trkpt lat="44.12116474675919" lon="12.229025701536047"><ele>30.5</ele><time>2026-05-02T12:40:59Z</time></trkpt><trkpt lat="44.12125652483411" lon="12.229043317137164"><ele>30.666666666666668</ele><time>2026-05-02T12:41:01Z</time></trkpt><trkpt lat="44.12135112814122" lon="12.229045286800147"><ele>30.833333333333336</ele><time>2026-05-02T12:41:03Z</time></trkpt><trkpt lat="44.1214495424977" lon="12.229036810226136"><ele>31.0</ele><time>2026-05-02T12:41:05Z</time></trkpt><trkpt lat="44.12154476262296" lon="12.229034058510075"><ele>30.8</ele><time>2026-05-02T12:41:07Z</time></trkpt><trkpt lat="44.121640215263945" lon="12.229022983252557"><ele>30.6</ele><time>2026-05-02T12:41:09Z</time></trkpt><trkpt lat="44.121735178324705" lon="12.229017223164698"><ele>30.4</ele><time>2026-05-02T12:41:11Z</time></trkpt><trkpt lat="44.121825395165736" lon="12.229013738027717"><ele>30.2</ele><time>2026-05-02T12:41:13Z</time></trkpt><trkpt lat="44.12191490809376" lon="12.229002471614628"><ele>30.0</ele><time>2026-05-02T12:41:15Z</time></trkpt><trkpt lat="44.12200521071001" lon="12.22899364102651"><ele>30.0</ele><time>2026-05-02T12:41:17Z</time></trkpt><trkpt lat="44.12210275372173" lon="12.228979233832755"><ele>30.0</ele><time>2026-05-02T12:41:19Z</time></trkpt><trkpt lat="44.12219422277282" lon="12.228967872646024"><ele>30.0</ele><time>2026-05-02T12:41:21Z</time></trkpt><trkpt lat="44.122291082960324" lon="12.228955503327075"><ele>30.0</ele><time>2026-05-02T12:41:23Z</time></trkpt><trkpt lat="44.12236660046034" lon="12.228932061055977"><ele>30.0</ele><time>2026-05-02T12:41:26Z</time></trkpt><trkpt lat="44.12252836801448" lon="12.228881361377645"><ele>30.5</ele><time>2026-05-02T12:41:28Z</time></trkpt><trkpt lat="44.12261280904785" lon="12.228845052722104"><ele>31.0</ele><time>2026-05-02T12:41:30Z</time></trkpt><trkpt lat="44.122682876389085" lon="12.228805033849431"><ele>31.5</ele><time>2026-05-02T12:41:32Z</time></trkpt><trkpt lat="44.122757903126086" lon="12.228785070148886"><ele>32.0</ele><time>2026-05-02T12:41:34Z</time></trkpt><trkpt lat="44.122831191252985" lon="12.228762701624529"><ele>32.5</ele><time>2026-05-02T12:41:36Z</time></trkpt><trkpt lat="44.12291221371083" lon="12.228730035655264"><ele>33.0</ele><time>2026-05-02T12:41:38Z</time></trkpt><trkpt lat="44.12297627352908" lon="12.228700514298836"><ele>33.0</ele><time>2026-05-02T12:41:40Z</time></trkpt><trkpt lat="44.12306110853246" lon="12.228652334307885"><ele>33.0</ele><time>2026-05-02T12:41:43Z</time></trkpt><trkpt lat="44.1231084885287" lon="12.228588899542817"><ele>33.0</ele><time>2026-05-02T12:41:45Z</time></trkpt><trkpt lat="44.12316914550092" lon="12.228531523331075"><ele>33.0</ele><time>2026-05-02T12:41:47Z</time></trkpt><trkpt lat="44.123233742279794" lon="12.22848272113787"><ele>33.0</ele><time>2026-05-02T12:41:49Z</time></trkpt><trkpt lat="44.1233013306475" lon="12.228458258951436"><ele>33.0</ele><time>2026-05-02T12:41:51Z</time></trkpt><trkpt lat="44.123386677276585" lon="12.228432382558337"><ele>32.666666666666664</ele><time>2026-05-02T12:41:53Z</time></trkpt><trkpt lat="44.12345537456761" lon="12.228362064618265"><ele>32.333333333333336</ele><time>2026-05-02T12:41:55Z</time></trkpt><trkpt lat="44.12351313223003" lon="12.228301461426584"><ele>32.0</ele><time>2026-05-02T12:41:57Z</time></trkpt><trkpt lat="44.12358142204315" lon="12.228248187883192"><ele>31.666666666666668</ele><time>2026-05-02T12:42:00Z</time></trkpt><trkpt lat="44.1236453958227" lon="12.228213236443672"><ele>31.333333333333336</ele><time>2026-05-02T12:42:03Z</time></trkpt><trkpt lat="44.12372972714576" lon="12.228208024902864"><ele>31.0</ele><time>2026-05-02T12:42:06Z</time></trkpt><trkpt lat="44.12380428651055" lon="12.228207091399721"><ele>31.000000000000004</ele><time>2026-05-02T12:42:08Z</time></trkpt><trkpt lat="44.12387613607398" lon="12.228204882736435"><ele>31.0</ele><time>2026-05-02T12:42:10Z</time></trkpt><trkpt lat="44.12395227824456" lon="12.228202397470637"><ele>31.0</ele><time>2026-05-02T12:42:12Z</time></trkpt><trkpt lat="44.124018615774375" lon="12.22819132430336"><ele>31.0</ele><time>2026-05-02T12:42:14Z</time></trkpt><trkpt lat="44.12412568016835" lon="12.228158576864221"><ele>31.000000000000004</ele><time>2026-05-02T12:42:18Z</time></trkpt><trkpt lat="44.124187363556615" lon="12.228139410493213"><ele>31.0</ele><time>2026-05-02T12:42:19Z</time></trkpt><trkpt lat="44.12428630919176" lon="12.228099374682095"><ele>31.714285714285715</ele><time>2026-05-02T12:42:23Z</time></trkpt><trkpt lat="44.12435100875873" lon="12.228070162300892"><ele>32.42857142857143</ele><time>2026-05-02T12:42:24Z</time></trkpt><trkpt lat="44.12443678594782" lon="12.228041480060837"><ele>33.142857142857146</ele><time>2026-05-02T12:42:26Z</time></trkpt><trkpt lat="44.12451056377687" lon="12.22803329836729"><ele>33.85714285714286</ele><time>2026-05-02T12:42:28Z</time></trkpt><trkpt lat="44.124580910619706" lon="12.228030901770065"><ele>34.57142857142857</ele><time>2026-05-02T12:42:30Z</time></trkpt><trkpt lat="44.124649658979045" lon="12.22803630452523"><ele>35.28571428571429</ele><time>2026-05-02T12:42:33Z</time></trkpt><trkpt lat="44.12472375708198" lon="12.228044485449105"><ele>36.0</ele><time>2026-05-02T12:42:36Z</time></trkpt><trkpt lat="44.12480491818953" lon="12.228057225612432"><ele>36.00000000000001</ele><time>2026-05-02T12:42:39Z</time></trkpt><trkpt lat="44.12488843659943" lon="12.228071819128097"><ele>36.0</ele><time>2026-05-02T12:42:43Z</time></trkpt><trkpt lat="44.12496306121918" lon="12.228083672517737"><ele>36.0</ele><time>2026-05-02T12:42:46Z</time></trkpt><trkpt lat="44.12502427793836" lon="12.228057612026014"><ele>36.0</ele><time>2026-05-02T12:42:49Z</time></trkpt><trkpt lat="44.1250927204427" lon="12.228030272183"><ele>36.0</ele><time>2026-05-02T12:42:52Z</time></trkpt><trkpt lat="44.1251696928653" lon="12.227995820040176"><ele>36.00000000000001</ele><time>2026-05-02T12:42:55Z</time></trkpt><trkpt lat="44.12523577348107" lon="12.227987369202888"><ele>36.0</ele><time>2026-05-02T12:42:57Z</time></trkpt><trkpt lat="44.125324698460155" lon="12.227950373541418"><ele>36.166666666666664</ele><time>2026-05-02T12:43:00Z</time></trkpt><trkpt lat="44.12541999869828" lon="12.227923086489954"><ele>36.333333333333336</ele><time>2026-05-02T12:43:03Z</time></trkpt><trkpt lat="44.12550423932655" lon="12.227919408647354"><ele>36.5</ele><time>2026-05-02T12:43:05Z</time></trkpt><trkpt lat="44.1255782791553" lon="12.227948161122402"><ele>36.66666666666667</ele><time>2026-05-02T12:43:07Z</time></trkpt><trkpt lat="44.1256498666575" lon="12.227982183495714"><ele>36.833333333333336</ele><time>2026-05-02T12:43:09Z</time></trkpt><trkpt lat="44.125726856637534" lon="12.228031177057098"><ele>37.0</ele><time>2026-05-02T12:43:11Z</time></trkpt><trkpt lat="44.1258037891256" lon="12.228084789320041"><ele>37.0</ele><time>2026-05-02T12:43:13Z</time></trkpt><trkpt lat="44.12588375727531" lon="12.228128536236298"><ele>37.0</ele><time>2026-05-02T12:43:15Z</time></trkpt><trkpt lat="44.125963869149565" lon="12.228168629200958"><ele>37.0</ele><time>2026-05-02T12:43:17Z</time></trkpt><trkpt lat="44.126041761469054" lon="12.22820932459176"><ele>37.0</ele><time>2026-05-02T12:43:19Z</time></trkpt><trkpt lat="44.12611392422642" lon="12.228243141294417"><ele>37.0</ele><time>2026-05-02T12:43:21Z</time></trkpt><trkpt lat="44.126190789295734" lon="12.228273912321075"><ele>37.0</ele><time>2026-05-02T12:43:23Z</time></trkpt><trkpt lat="44.12625818752473" lon="12.228325013479123"><ele>36.66666666666667</ele><time>2026-05-02T12:43:25Z</time></trkpt><trkpt lat="44.126337560881886" lon="12.228368070350424"><ele>36.333333333333336</ele><time>2026-05-02T12:43:27Z</time></trkpt><trkpt lat="44.12640296398051" lon="12.228417053469018"><ele>36.0</ele><time>2026-05-02T12:43:29Z</time></trkpt><trkpt lat="44.12648216959927" lon="12.228457763153358"><ele>35.666666666666664</ele><time>2026-05-02T12:43:31Z</time></trkpt><trkpt lat="44.12656470577691" lon="12.22850906843297"><ele>35.33333333333333</ele><time>2026-05-02T12:43:33Z</time></trkpt><trkpt lat="44.12664741238404" lon="12.228557644198345"><ele>35.0</ele><time>2026-05-02T12:43:35Z</time></trkpt><trkpt lat="44.12673367493151" lon="12.228598749823382"><ele>35.0</ele><time>2026-05-02T12:43:37Z</time></trkpt><trkpt lat="44.12682395670869" lon="12.228669520814288"><ele>35.0</ele><time>2026-05-02T12:43:39Z</time></trkpt><trkpt lat="44.12691910502782" lon="12.228734052152246"><ele>35.0</ele><time>2026-05-02T12:43:41Z</time></trkpt><trkpt lat="44.1270122030616" lon="12.228789963022923"><ele>35.0</ele><time>2026-05-02T12:43:43Z</time></trkpt><trkpt lat="44.12710630461371" lon="12.22881912076324"><ele>35.0</ele><time>2026-05-02T12:43:45Z</time></trkpt><trkpt lat="44.127197249353145" lon="12.228808146640144"><ele>35.0</ele><time>2026-05-02T12:43:47Z</time></trkpt><trkpt lat="44.1272819151553" lon="12.228798402484255"><ele>35.0</ele><time>2026-05-02T12:43:49Z</time></trkpt><trkpt lat="44.12735574221629" lon="12.228788046782043"><ele>35.0</ele><time>2026-05-02T12:43:52Z</time></trkpt><trkpt lat="44.127324763293004" lon="12.228876740467781"><ele>35.0</ele><time>2026-05-02T12:44:04Z</time></trkpt><trkpt lat="44.127332511740455" lon="12.228979323308002"><ele>35.0</ele><time>2026-05-02T12:44:06Z</time></trkpt><trkpt lat="44.127324175102174" lon="12.22908168732711"><ele>35.0</ele><time>2026-05-02T12:44:08Z</time></trkpt><trkpt lat="44.12731367651983" lon="12.229171077258163"><ele>35.0</ele><time>2026-05-02T12:44:10Z</time></trkpt><trkpt lat="44.127307553211516" lon="12.229295604933506"><ele>34.5</ele><time>2026-05-02T12:44:13Z</time></trkpt><trkpt lat="44.12729970770871" lon="12.229399194527849"><ele>34.0</ele><time>2026-05-02T12:44:15Z</time></trkpt><trkpt lat="44.127287635496465" lon="12.22950538311968"><ele>33.5</ele><time>2026-05-02T12:44:17Z</time></trkpt><trkpt lat="44.12728451125197" lon="12.229615511649339"><ele>33.0</ele><time>2026-05-02T12:44:19Z</time></trkpt><trkpt lat="44.127262156734325" lon="12.229726835894924"><ele>32.5</ele><time>2026-05-02T12:44:21Z</time></trkpt><trkpt lat="44.12725333265128" lon="12.229825340614129"><ele>32.0</ele><time>2026-05-02T12:44:23Z</time></trkpt><trkpt lat="44.12723951663431" lon="12.229914660428351"><ele>32.0</ele><time>2026-05-02T12:44:25Z</time></trkpt><trkpt lat="44.127280013339366" lon="12.229996045704514"><ele>32.0</ele><time>2026-05-02T12:44:28Z</time></trkpt><trkpt lat="44.12734585984551" lon="12.230051035197572"><ele>32.0</ele><time>2026-05-02T12:44:30Z</time></trkpt><trkpt lat="44.12741205592369" lon="12.23011981518297"><ele>32.0</ele><time>2026-05-02T12:44:32Z</time></trkpt><trkpt lat="44.12750451082834" lon="12.230192725797837"><ele>32.0</ele><time>2026-05-02T12:44:34Z</time></trkpt><trkpt lat="44.12761821689289" lon="12.230242090902113"><ele>31.833333333333332</ele><time>2026-05-02T12:44:36Z</time></trkpt><trkpt lat="44.127677725183275" lon="12.23027073339047"><ele>31.666666666666664</ele><time>2026-05-02T12:44:37Z</time></trkpt><trkpt lat="44.1277393585694" lon="12.23029350449717"><ele>31.5</ele><time>2026-05-02T12:44:38Z</time></trkpt><trkpt lat="44.12780304775405" lon="12.230309218780969"><ele>31.333333333333336</ele><time>2026-05-02T12:44:39Z</time></trkpt><trkpt lat="44.127871363070184" lon="12.230327681910323"><ele>31.166666666666668</ele><time>2026-05-02T12:44:40Z</time></trkpt><trkpt lat="44.127941354648016" lon="12.230332973381362"><ele>31.0</ele><time>2026-05-02T12:44:41Z</time></trkpt><trkpt lat="44.128062810601804" lon="12.230345585517195"><ele>31.0</ele><time>2026-05-02T12:44:43Z</time></trkpt><trkpt lat="44.12816128336425" lon="12.230376346011212"><ele>31.0</ele><time>2026-05-02T12:44:45Z</time></trkpt><trkpt lat="44.128255644836415" lon="12.23045219047128"><ele>31.0</ele><time>2026-05-02T12:44:47Z</time></trkpt><trkpt lat="44.128346562699456" lon="12.23052824131046"><ele>31.0</ele><time>2026-05-02T12:44:49Z</time></trkpt><trkpt lat="44.128440343574105" lon="12.230609544949083"><ele>31.0</ele><time>2026-05-02T12:44:51Z</time></trkpt><trkpt lat="44.128525439600374" lon="12.230685324170155"><ele>30.8</ele><time>2026-05-02T12:44:53Z</time></trkpt><trkpt lat="44.128607379044034" lon="12.230764210768958"><ele>30.6</ele><time>2026-05-02T12:44:55Z</time></trkpt><trkpt lat="44.12869196025513" lon="12.230840928735711"><ele>30.4</ele><time>2026-05-02T12:44:57Z</time></trkpt><trkpt lat="44.128781811361925" lon="12.230921424394092"><ele>30.2</ele><time>2026-05-02T12:44:59Z</time></trkpt><trkpt lat="44.12886459930017" lon="12.231007968971062"><ele>30.0</ele><time>2026-05-02T12:45:01Z</time></trkpt><trkpt lat="44.12895260600844" lon="12.23109391410392"><ele>30.0</ele><time>2026-05-02T12:45:03Z</time></trkpt><trkpt lat="44.12903646974123" lon="12.23118016498634"><ele>30.0</ele><time>2026-05-02T12:45:05Z</time></trkpt><trkpt lat="44.12912325033537" lon="12.231253265016472"><ele>30.0</ele><time>2026-05-02T12:45:07Z</time></trkpt><trkpt lat="44.129196047880285" lon="12.23130211234138"><ele>30.0</ele><time>2026-05-02T12:45:09Z</time></trkpt><trkpt lat="44.129278836449224" lon="12.231326535646348"><ele>30.0</ele><time>2026-05-02T12:45:11Z</time></trkpt><trkpt lat="44.12935635892007" lon="12.231339346640054"><ele>30.0</ele><time>2026-05-02T12:45:13Z</time></trkpt><trkpt lat="44.12947553230763" lon="12.23141794303497"><ele>30.0</ele><time>2026-05-02T12:45:15Z</time></trkpt><trkpt lat="44.129569539373705" lon="12.231476532406575"><ele>30.0</ele><time>2026-05-02T12:45:17Z</time></trkpt><trkpt lat="44.129659740208574" lon="12.231551912437405"><ele>30.0</ele><time>2026-05-02T12:45:19Z</time></trkpt><trkpt lat="44.1297457228342" lon="12.23160838853241"><ele>30.0</ele><time>2026-05-02T12:45:21Z</time></trkpt><trkpt lat="44.12982805959405" lon="12.231675730440836"><ele>30.0</ele><time>2026-05-02T12:45:23Z</time></trkpt><trkpt lat="44.12989188168046" lon="12.231736808814638"><ele>30.0</ele><time>2026-05-02T12:45:25Z</time></trkpt><trkpt lat="44.12994099991221" lon="12.23183894587954"><ele>30.0</ele><time>2026-05-02T12:45:28Z</time></trkpt><trkpt lat="44.12996803837725" lon="12.231937564883683"><ele>30.0</ele><time>2026-05-02T12:45:30Z</time></trkpt><trkpt lat="44.13004062550304" lon="12.231991905892123"><ele>30.0</ele><time>2026-05-02T12:45:32Z</time></trkpt><trkpt lat="44.130068558846816" lon="12.232134463620458"><ele>30.0</ele><time>2026-05-02T12:45:34Z</time></trkpt><trkpt lat="44.13013649829069" lon="12.232201609530119"><ele>30.0</ele><time>2026-05-02T12:45:36Z</time></trkpt><trkpt lat="44.13021502427787" lon="12.232283657136445"><ele>30.4</ele><time>2026-05-02T12:45:38Z</time></trkpt><trkpt lat="44.130289751723744" lon="12.232361735918046"><ele>30.8</ele><time>2026-05-02T12:45:40Z</time></trkpt><trkpt lat="44.13036431896487" lon="12.232444247851483"><ele>31.200000000000003</ele><time>2026-05-02T12:45:42Z</time></trkpt><trkpt lat="44.130441015685356" lon="12.232527340724276"><ele>31.6</ele><time>2026-05-02T12:45:44Z</time></trkpt><trkpt lat="44.13052141575395" lon="12.232614445802525"><ele>32.0</ele><time>2026-05-02T12:45:46Z</time></trkpt><trkpt lat="44.13061832251424" lon="12.232658856137075"><ele>32.0</ele><time>2026-05-02T12:45:48Z</time></trkpt><trkpt lat="44.13069439763704" lon="12.232740432207766"><ele>32.0</ele><time>2026-05-02T12:45:50Z</time></trkpt><trkpt lat="44.13077271624892" lon="12.232821155688102"><ele>32.0</ele><time>2026-05-02T12:45:52Z</time></trkpt><trkpt lat="44.130853826376516" lon="12.23290937250017"><ele>32.0</ele><time>2026-05-02T12:45:54Z</time></trkpt><trkpt lat="44.130915259478726" lon="12.233038968035132"><ele>32.0</ele><time>2026-05-02T12:45:56Z</time></trkpt><trkpt lat="44.13100144976794" lon="12.233131356194104"><ele>31.5</ele><time>2026-05-02T12:45:58Z</time></trkpt><trkpt lat="44.131091369559456" lon="12.233228280806578"><ele>31.0</ele><time>2026-05-02T12:46:00Z</time></trkpt><trkpt lat="44.13118123743127" lon="12.233325306983877"><ele>30.5</ele><time>2026-05-02T12:46:02Z</time></trkpt><trkpt lat="44.13127176450636" lon="12.233422059589282"><ele>30.0</ele><time>2026-05-02T12:46:04Z</time></trkpt><trkpt lat="44.13136230728838" lon="12.233510831086639"><ele>30.0</ele><time>2026-05-02T12:46:06Z</time></trkpt><trkpt lat="44.13145727888177" lon="12.233592571424259"><ele>30.0</ele><time>2026-05-02T12:46:08Z</time></trkpt><trkpt lat="44.131558974385946" lon="12.233671137447864"><ele>30.0</ele><time>2026-05-02T12:46:10Z</time></trkpt><trkpt lat="44.1316656335246" lon="12.233734867205174"><ele>30.0</ele><time>2026-05-02T12:46:12Z</time></trkpt><trkpt lat="44.131771508201" lon="12.233811613431046"><ele>30.2</ele><time>2026-05-02T12:46:14Z</time></trkpt><trkpt lat="44.13186903920472" lon="12.233887920369058"><ele>30.4</ele><time>2026-05-02T12:46:16Z</time></trkpt><trkpt lat="44.13196975766343" lon="12.233964869036685"><ele>30.6</ele><time>2026-05-02T12:46:18Z</time></trkpt><trkpt lat="44.132071372811446" lon="12.234031482033279"><ele>30.8</ele><time>2026-05-02T12:46:20Z</time></trkpt><trkpt lat="44.13216929096629" lon="12.234100352341608"><ele>31.0</ele><time>2026-05-02T12:46:22Z</time></trkpt><trkpt lat="44.13226489059176" lon="12.234192244053997"><ele>31.0</ele><time>2026-05-02T12:46:24Z</time></trkpt><trkpt lat="44.13236252293126" lon="12.23426417245241"><ele>31.0</ele><time>2026-05-02T12:46:26Z</time></trkpt><trkpt lat="44.132466008097595" lon="12.234340412786485"><ele>31.0</ele><time>2026-05-02T12:46:28Z</time></trkpt><trkpt lat="44.13257105722152" lon="12.234391821382172"><ele>31.0</ele><time>2026-05-02T12:46:30Z</time></trkpt><trkpt lat="44.13266584332391" lon="12.234487636827836"><ele>31.0</ele><time>2026-05-02T12:46:32Z</time></trkpt><trkpt lat="44.13277399981015" lon="12.2345477023874"><ele>31.0</ele><time>2026-05-02T12:46:34Z</time></trkpt><trkpt lat="44.132879779949725" lon="12.234620994421809"><ele>31.0</ele><time>2026-05-02T12:46:36Z</time></trkpt><trkpt lat="44.1329699644522" lon="12.234710990587592"><ele>31.0</ele><time>2026-05-02T12:46:38Z</time></trkpt><trkpt lat="44.13307126185028" lon="12.234785219010293"><ele>31.6</ele><time>2026-05-02T12:46:40Z</time></trkpt><trkpt lat="44.133173180850335" lon="12.23485990294082"><ele>32.2</ele><time>2026-05-02T12:46:42Z</time></trkpt><trkpt lat="44.1332628791989" lon="12.234921268337438"><ele>32.8</ele><time>2026-05-02T12:46:44Z</time></trkpt><trkpt lat="44.133351694576085" lon="12.234956084970335"><ele>33.4</ele><time>2026-05-02T12:46:46Z</time></trkpt><trkpt lat="44.133440209597616" lon="12.234947554658081"><ele>34.0</ele><time>2026-05-02T12:46:48Z</time></trkpt><trkpt lat="44.13359373418694" lon="12.23496491513457"><ele>34.0</ele><time>2026-05-02T12:46:52Z</time></trkpt><trkpt lat="44.13369691301704" lon="12.234969877413604"><ele>34.0</ele><time>2026-05-02T12:46:55Z</time></trkpt><trkpt lat="44.13369490670016" lon="12.235074201663911"><ele>34.0</ele><time>2026-05-02T12:46:57Z</time></trkpt><trkpt lat="44.13371510457924" lon="12.235179875550967"><ele>34.0</ele><time>2026-05-02T12:47:00Z</time></trkpt><trkpt lat="44.13376391365879" lon="12.235254723994966"><ele>34.0</ele><time>2026-05-02T12:47:03Z</time></trkpt><trkpt lat="44.13383875570111" lon="12.235309264914044"><ele>34.0</ele><time>2026-05-02T12:47:07Z</time></trkpt><trkpt lat="44.13392637062093" lon="12.235343534683055"><ele>34.0</ele><time>2026-05-02T12:47:10Z</time></trkpt><trkpt lat="44.134031071810085" lon="12.2353348827812"><ele>34.0</ele><time>2026-05-02T12:47:13Z</time></trkpt><trkpt lat="44.13410090093464" lon="12.235327147337347"><ele>34.0</ele><time>2026-05-02T12:47:15Z</time></trkpt><trkpt lat="44.13417302356165" lon="12.235312890012663"><ele>34.0</ele><time>2026-05-02T12:47:17Z</time></trkpt><trkpt lat="44.13424995109296" lon="12.235359428665967"><ele>34.0</ele><time>2026-05-02T12:47:19Z</time></trkpt><trkpt lat="44.13431615566627" lon="12.235427353379881"><ele>34.0</ele><time>2026-05-02T12:47:21Z</time></trkpt><trkpt lat="44.134387681743526" lon="12.235502529028658"><ele>34.0</ele><time>2026-05-02T12:47:23Z</time></trkpt><trkpt lat="44.134465909598184" lon="12.235585944152376"><ele>34.0</ele><time>2026-05-02T12:47:25Z</time></trkpt><trkpt lat="44.134534682508956" lon="12.23565262489361"><ele>34.0</ele><time>2026-05-02T12:47:27Z</time></trkpt><trkpt lat="44.134600834163315" lon="12.235725755900942"><ele>34.0</ele><time>2026-05-02T12:47:29Z</time></trkpt><trkpt lat="44.13467289769314" lon="12.235784997058408"><ele>34.0</ele><time>2026-05-02T12:47:31Z</time></trkpt><trkpt lat="44.13474268614182" lon="12.235847441817018"><ele>34.0</ele><time>2026-05-02T12:47:33Z</time></trkpt><trkpt lat="44.13480035765249" lon="12.235903353141683"><ele>33.99999999999999</ele><time>2026-05-02T12:47:35Z</time></trkpt><trkpt lat="44.13487055686793" lon="12.235956359776731"><ele>34.0</ele><time>2026-05-02T12:47:37Z</time></trkpt><trkpt lat="44.13492767345625" lon="12.236009612106875"><ele>34.0</ele><time>2026-05-02T12:47:39Z</time></trkpt><trkpt lat="44.13498977049585" lon="12.236078892515211"><ele>34.0</ele><time>2026-05-02T12:47:42Z</time></trkpt><trkpt lat="44.13504587315346" lon="12.236132210312238"><ele>34.0</ele><time>2026-05-02T12:47:45Z</time></trkpt><trkpt lat="44.13510067765945" lon="12.236187848288912"><ele>33.99999999999999</ele><time>2026-05-02T12:47:48Z</time></trkpt><trkpt lat="44.13516178687144" lon="12.236250230971269"><ele>34.0</ele><time>2026-05-02T12:47:52Z</time></trkpt><trkpt lat="44.13522572609279" lon="12.23632527942475"><ele>34.16666666666667</ele><time>2026-05-02T12:47:56Z</time></trkpt><trkpt lat="44.13527368521806" lon="12.236409698521559"><ele>34.333333333333336</ele><time>2026-05-02T12:48:00.001Z</time></trkpt><trkpt lat="44.13524041427542" lon="12.236532234854494"><ele>34.5</ele><time>2026-05-02T12:48:04Z</time></trkpt><trkpt lat="44.135188058883735" lon="12.23661827248165"><ele>34.666666666666664</ele><time>2026-05-02T12:48:07Z</time></trkpt><trkpt lat="44.135198171689986" lon="12.236707979232635"><ele>34.83333333333333</ele><time>2026-05-02T12:48:10Z</time></trkpt><trkpt lat="44.1351907277678" lon="12.236828257171096"><ele>35.0</ele><time>2026-05-02T12:48:13Z</time></trkpt><trkpt lat="44.13520207516698" lon="12.236949059714572"><ele>35.0</ele><time>2026-05-02T12:48:16Z</time></trkpt><trkpt lat="44.135238503579345" lon="12.237021728341757"><ele>35.0</ele><time>2026-05-02T12:48:19Z</time></trkpt><trkpt lat="44.13526268542168" lon="12.23711914950141"><ele>35.0</ele><time>2026-05-02T12:48:22Z</time></trkpt><trkpt lat="44.135314410674994" lon="12.237175498378047"><ele>35.0</ele><time>2026-05-02T12:48:24Z</time></trkpt><trkpt lat="44.1353439845287" lon="12.237263344742678"><ele>35.0</ele><time>2026-05-02T12:48:26Z</time></trkpt><trkpt lat="44.13538573973129" lon="12.237357223830491"><ele>35.0</ele><time>2026-05-02T12:48:28Z</time></trkpt><trkpt lat="44.13542396023729" lon="12.23744846649263"><ele>35.0</ele><time>2026-05-02T12:48:30Z</time></trkpt><trkpt lat="44.13545760539193" lon="12.237538163849523"><ele>35.0</ele><time>2026-05-02T12:48:32Z</time></trkpt><trkpt lat="44.135505982360506" lon="12.237615509930844"><ele>35.0</ele><time>2026-05-02T12:48:34Z</time></trkpt><trkpt lat="44.13555211234732" lon="12.237690773957956"><ele>35.0</ele><time>2026-05-02T12:48:36Z</time></trkpt><trkpt lat="44.13559431903631" lon="12.237770835185094"><ele>35.0</ele><time>2026-05-02T12:48:38Z</time></trkpt><trkpt lat="44.13562926871976" lon="12.237845826721799"><ele>35.0</ele><time>2026-05-02T12:48:40Z</time></trkpt><trkpt lat="44.13568507698472" lon="12.23793170243466"><ele>35.0</ele><time>2026-05-02T12:48:43Z</time></trkpt><trkpt lat="44.13573339996124" lon="12.238009313961468"><ele>35.0</ele><time>2026-05-02T12:48:46Z</time></trkpt><trkpt lat="44.13576740016568" lon="12.238105394960584"><ele>36.5</ele><time>2026-05-02T12:48:50Z</time></trkpt><trkpt lat="44.135795772040865" lon="12.238198618567191"><ele>38.0</ele><time>2026-05-02T12:48:54Z</time></trkpt><trkpt lat="44.135801030599566" lon="12.2383046328194"><ele>39.5</ele><time>2026-05-02T12:48:59Z</time></trkpt><trkpt lat="44.135881370440885" lon="12.238335517463028"><ele>41.0</ele><time>2026-05-02T12:49:03Z</time></trkpt><trkpt lat="44.13596135166637" lon="12.238368152545585"><ele>42.5</ele><time>2026-05-02T12:49:06Z</time></trkpt><trkpt lat="44.13604485688934" lon="12.238394322648102"><ele>44.0</ele><time>2026-05-02T12:49:09Z</time></trkpt><trkpt lat="44.13611276754348" lon="12.238418961573622"><ele>44.0</ele><time>2026-05-02T12:49:11Z</time></trkpt><trkpt lat="44.13618060511449" lon="12.23842733717256"><ele>44.0</ele><time>2026-05-02T12:49:13Z</time></trkpt><trkpt lat="44.13626769288436" lon="12.238469380811235"><ele>44.0</ele><time>2026-05-02T12:49:16Z</time></trkpt><trkpt lat="44.13633342499716" lon="12.238484404761296"><ele>44.0</ele><time>2026-05-02T12:49:18Z</time></trkpt><trkpt lat="44.136403527614284" lon="12.238510821322372"><ele>44.0</ele><time>2026-05-02T12:49:20Z</time></trkpt><trkpt lat="44.136507675046005" lon="12.238543917431247"><ele>44.0</ele><time>2026-05-02T12:49:23Z</time></trkpt><trkpt lat="44.136630956973484" lon="12.23856105955133"><ele>44.33333333333333</ele><time>2026-05-02T12:49:27Z</time></trkpt><trkpt lat="44.13671656683713" lon="12.238603558253299"><ele>44.666666666666664</ele><time>2026-05-02T12:49:29Z</time></trkpt><trkpt lat="44.13677543431417" lon="12.238643651600352"><ele>45.0</ele><time>2026-05-02T12:49:31Z</time></trkpt><trkpt lat="44.13684295816554" lon="12.238692895051848"><ele>45.333333333333336</ele><time>2026-05-02T12:49:35Z</time></trkpt><trkpt lat="44.1368526658849" lon="12.23879373844029"><ele>45.66666666666667</ele><time>2026-05-02T12:49:38Z</time></trkpt><trkpt lat="44.13693299327894" lon="12.238854962290144"><ele>46.0</ele><time>2026-05-02T12:49:41Z</time></trkpt><trkpt lat="44.13698888654205" lon="12.238899958512137"><ele>47.85714285714286</ele><time>2026-05-02T12:49:43Z</time></trkpt><trkpt lat="44.13704387888846" lon="12.238999145912242"><ele>49.71428571428571</ele><time>2026-05-02T12:49:46Z</time></trkpt><trkpt lat="44.13708601236116" lon="12.239068664389489"><ele>51.57142857142857</ele><time>2026-05-02T12:49:49Z</time></trkpt><trkpt lat="44.137137908445865" lon="12.239128547431564"><ele>53.42857142857143</ele><time>2026-05-02T12:49:52Z</time></trkpt><trkpt lat="44.13718950629182" lon="12.239222823995709"><ele>55.28571428571429</ele><time>2026-05-02T12:49:55Z</time></trkpt><trkpt lat="44.137220796500046" lon="12.239303871278603"><ele>57.14285714285714</ele><time>2026-05-02T12:49:57Z</time></trkpt><trkpt lat="44.13725913816538" lon="12.239382819522623"><ele>59.0</ele><time>2026-05-02T12:49:59Z</time></trkpt><trkpt lat="44.13731792549183" lon="12.239466630600832"><ele>59.0</ele><time>2026-05-02T12:50:01Z</time></trkpt><trkpt lat="44.137352548924994" lon="12.239597875460579"><ele>59.00000000000001</ele><time>2026-05-02T12:50:03Z</time></trkpt><trkpt lat="44.13739067353633" lon="12.23971361254815"><ele>59.00000000000001</ele><time>2026-05-02T12:50:05Z</time></trkpt><trkpt lat="44.13742262009781" lon="12.239829210731513"><ele>59.0</ele><time>2026-05-02T12:50:07Z</time></trkpt><trkpt lat="44.13744101866209" lon="12.239949432689269"><ele>59.0</ele><time>2026-05-02T12:50:09Z</time></trkpt><trkpt lat="44.13746164424939" lon="12.240092306512159"><ele>56.800000000000004</ele><time>2026-05-02T12:50:11Z</time></trkpt><trkpt lat="44.137471429036985" lon="12.240223837114867"><ele>54.60000000000001</ele><time>2026-05-02T12:50:13Z</time></trkpt><trkpt lat="44.137469975781514" lon="12.240360225328416"><ele>52.4</ele><time>2026-05-02T12:50:15Z</time></trkpt><trkpt lat="44.137450678992096" lon="12.240484948943942"><ele>50.2</ele><time>2026-05-02T12:50:17Z</time></trkpt><trkpt lat="44.13742590590319" lon="12.240607202489052"><ele>48.0</ele><time>2026-05-02T12:50:19Z</time></trkpt><trkpt lat="44.13742026019593" lon="12.240728640080327"><ele>48.0</ele><time>2026-05-02T12:50:21Z</time></trkpt><trkpt lat="44.137399783069405" lon="12.240837422850065"><ele>48.0</ele><time>2026-05-02T12:50:23Z</time></trkpt><trkpt lat="44.13738050975266" lon="12.24093624959"><ele>48.0</ele><time>2026-05-02T12:50:25Z</time></trkpt><trkpt lat="44.13735976537878" lon="12.241023839077917"><ele>48.0</ele><time>2026-05-02T12:50:27Z</time></trkpt><trkpt lat="44.13730293372963" lon="12.241121861438142"><ele>48.0</ele><time>2026-05-02T12:50:29Z</time></trkpt><trkpt lat="44.13728779635778" lon="12.241227778679804"><ele>48.0</ele><time>2026-05-02T12:50:31Z</time></trkpt><trkpt lat="44.13728458927536" lon="12.24132645561885"><ele>49.666666666666664</ele><time>2026-05-02T12:50:33Z</time></trkpt><trkpt lat="44.13730754360195" lon="12.241448628175592"><ele>51.33333333333333</ele><time>2026-05-02T12:50:37Z</time></trkpt><trkpt lat="44.13727757079731" lon="12.241533898646237"><ele>53.0</ele><time>2026-05-02T12:50:39Z</time></trkpt><trkpt lat="44.137227697689966" lon="12.241638541903162"><ele>54.666666666666664</ele><time>2026-05-02T12:50:42Z</time></trkpt><trkpt lat="44.137169754687015" lon="12.241679746482273"><ele>56.33333333333333</ele><time>2026-05-02T12:50:44Z</time></trkpt><trkpt lat="44.13712127782674" lon="12.241768573350527"><ele>58.0</ele><time>2026-05-02T12:50:47Z</time></trkpt><trkpt lat="44.137099529448136" lon="12.241855872476801"><ele>57.99999999999999</ele><time>2026-05-02T12:50:49Z</time></trkpt><trkpt lat="44.137067568439406" lon="12.241982882319817"><ele>58.0</ele><time>2026-05-02T12:50:52Z</time></trkpt><trkpt lat="44.137030848183834" lon="12.242100596376044"><ele>58.0</ele><time>2026-05-02T12:50:55Z</time></trkpt><trkpt lat="44.13700758337828" lon="12.24218608900667"><ele>58.0</ele><time>2026-05-02T12:50:57Z</time></trkpt><trkpt lat="44.136980908365835" lon="12.24228398384923"><ele>57.99999999999999</ele><time>2026-05-02T12:50:59Z</time></trkpt><trkpt lat="44.13694280266374" lon="12.242379718562045"><ele>58.0</ele><time>2026-05-02T12:51:01Z</time></trkpt><trkpt lat="44.1369110930328" lon="12.242472408095985"><ele>56.83333333333333</ele><time>2026-05-02T12:51:03Z</time></trkpt><trkpt lat="44.136848783028476" lon="12.242576519452255"><ele>55.666666666666664</ele><time>2026-05-02T12:51:06Z</time></trkpt><trkpt lat="44.136812390692356" lon="12.242677901838473"><ele>54.5</ele><time>2026-05-02T12:51:09Z</time></trkpt><trkpt lat="44.13676538078631" lon="12.24279610493605"><ele>53.33333333333333</ele><time>2026-05-02T12:51:12Z</time></trkpt><trkpt lat="44.13672492522531" lon="12.242870739329458"><ele>52.166666666666664</ele><time>2026-05-02T12:51:14Z</time></trkpt><trkpt lat="44.13667604738512" lon="12.242930212450476"><ele>51.0</ele><time>2026-05-02T12:51:16Z</time></trkpt><trkpt lat="44.13659032843392" lon="12.242926673496685"><ele>50.5</ele><time>2026-05-02T12:51:20Z</time></trkpt><trkpt lat="44.13649670765006" lon="12.242911956646347"><ele>50.0</ele><time>2026-05-02T12:51:23Z</time></trkpt><trkpt lat="44.13643082529264" lon="12.242894404490112"><ele>49.5</ele><time>2026-05-02T12:51:25Z</time></trkpt><trkpt lat="44.136356840689636" lon="12.242889937519493"><ele>49.0</ele><time>2026-05-02T12:51:27Z</time></trkpt><trkpt lat="44.13629244036978" lon="12.242861847666452"><ele>48.5</ele><time>2026-05-02T12:51:29Z</time></trkpt><trkpt lat="44.136209374168814" lon="12.242861537887116"><ele>48.0</ele><time>2026-05-02T12:51:32Z</time></trkpt><trkpt lat="44.13613188577138" lon="12.242827618639895"><ele>48.0</ele><time>2026-05-02T12:51:35Z</time></trkpt><trkpt lat="44.13606716376884" lon="12.242811644968386"><ele>48.0</ele><time>2026-05-02T12:51:37Z</time></trkpt><trkpt lat="44.135999611626204" lon="12.242830437187633"><ele>48.0</ele><time>2026-05-02T12:51:40Z</time></trkpt><trkpt lat="44.135928200857194" lon="12.24279588876258"><ele>48.0</ele><time>2026-05-02T12:51:43Z</time></trkpt><trkpt lat="44.135862167355235" lon="12.242923812780575"><ele>48.0</ele><time>2026-05-02T12:51:45Z</time></trkpt><trkpt lat="44.135872562986485" lon="12.243033091585065"><ele>48.0</ele><time>2026-05-02T12:51:48Z</time></trkpt><trkpt lat="44.13583081303445" lon="12.243118729142909"><ele>47.5</ele><time>2026-05-02T12:51:52Z</time></trkpt><trkpt lat="44.13583055326584" lon="12.243213007827487"><ele>47.0</ele><time>2026-05-02T12:51:57Z</time></trkpt><trkpt lat="44.13571650148848" lon="12.243249630248838"><ele>46.5</ele><time>2026-05-02T12:52:00Z</time></trkpt><trkpt lat="44.13564545649569" lon="12.243225948275166"><ele>46.0</ele><time>2026-05-02T12:52:03Z</time></trkpt><trkpt lat="44.13554320789253" lon="12.243218903263063"><ele>45.5</ele><time>2026-05-02T12:52:06Z</time></trkpt><trkpt lat="44.1354790726461" lon="12.24323750578158"><ele>45.0</ele><time>2026-05-02T12:52:08Z</time></trkpt><trkpt lat="44.13542568918885" lon="12.243189981070843"><ele>45.0</ele><time>2026-05-02T12:52:10Z</time></trkpt><trkpt lat="44.13534657361096" lon="12.243184958314593"><ele>45.0</ele><time>2026-05-02T12:52:12Z</time></trkpt><trkpt lat="44.13527481456415" lon="12.24321000928283"><ele>45.0</ele><time>2026-05-02T12:52:14Z</time></trkpt><trkpt lat="44.13521119976483" lon="12.243249907440624"><ele>45.0</ele><time>2026-05-02T12:52:16Z</time></trkpt><trkpt lat="44.13515345409865" lon="12.24329371656695"><ele>45.0</ele><time>2026-05-02T12:52:18Z</time></trkpt><trkpt lat="44.13509378129788" lon="12.24334541678145"><ele>45.0</ele><time>2026-05-02T12:52:20Z</time></trkpt><trkpt lat="44.135031581331525" lon="12.24341357387585"><ele>45.0</ele><time>2026-05-02T12:52:23Z</time></trkpt><trkpt lat="44.13494449979994" lon="12.243448474993324"><ele>44.833333333333336</ele><time>2026-05-02T12:52:26Z</time></trkpt><trkpt lat="44.13485500471204" lon="12.243461632194668"><ele>44.666666666666664</ele><time>2026-05-02T12:52:29Z</time></trkpt><trkpt lat="44.13478064095334" lon="12.243477217675508"><ele>44.5</ele><time>2026-05-02T12:52:32Z</time></trkpt><trkpt lat="44.13471798760197" lon="12.243542011151208"><ele>44.33333333333333</ele><time>2026-05-02T12:52:35Z</time></trkpt><trkpt lat="44.13470593192714" lon="12.243641913156665"><ele>44.166666666666664</ele><time>2026-05-02T12:52:39Z</time></trkpt><trkpt lat="44.13468837755127" lon="12.243731369438086"><ele>44.0</ele><time>2026-05-02T12:52:42Z</time></trkpt><trkpt lat="44.13461998028661" lon="12.243790295831483"><ele>44.0</ele><time>2026-05-02T12:52:44Z</time></trkpt><trkpt lat="44.134542440019736" lon="12.243835568962385"><ele>44.0</ele><time>2026-05-02T12:52:47Z</time></trkpt><trkpt lat="44.13448254388341" lon="12.243893112300722"><ele>44.0</ele><time>2026-05-02T12:52:50Z</time></trkpt><trkpt lat="44.13444532680773" lon="12.243963870110244"><ele>44.0</ele><time>2026-05-02T12:52:52Z</time></trkpt><trkpt lat="44.13438646189879" lon="12.244057688367146"><ele>44.0</ele><time>2026-05-02T12:52:55Z</time></trkpt><trkpt lat="44.134334787464425" lon="12.244174162799318"><ele>44.0</ele><time>2026-05-02T12:52:58Z</time></trkpt><trkpt lat="44.1342863438333" lon="12.244253601452373"><ele>44.0</ele><time>2026-05-02T12:53:00Z</time></trkpt><trkpt lat="44.13421827902954" lon="12.244318437423383"><ele>44.0</ele><time>2026-05-02T12:53:02Z</time></trkpt><trkpt lat="44.134143688690564" lon="12.244369434323522"><ele>44.0</ele><time>2026-05-02T12:53:04Z</time></trkpt><trkpt lat="44.134060982128354" lon="12.244394689281796"><ele>44.0</ele><time>2026-05-02T12:53:06Z</time></trkpt><trkpt lat="44.13397744307234" lon="12.244415425141616"><ele>44.0</ele><time>2026-05-02T12:53:08Z</time></trkpt><trkpt lat="44.13388646281813" lon="12.244425578443138"><ele>44.0</ele><time>2026-05-02T12:53:10Z</time></trkpt><trkpt lat="44.13382366619146" lon="12.244443904788604"><ele>44.0</ele><time>2026-05-02T12:53:12Z</time></trkpt><trkpt lat="44.13382673291282" lon="12.24455478720345"><ele>44.0</ele><time>2026-05-02T12:53:18Z</time></trkpt><trkpt lat="44.13384929992236" lon="12.244643333615638"><ele>44.0</ele><time>2026-05-02T12:53:23Z</time></trkpt><trkpt lat="44.133794779500924" lon="12.24472477379526"><ele>44.0</ele><time>2026-05-02T12:53:28Z</time></trkpt><trkpt lat="44.133724106965225" lon="12.244716512533572"><ele>44.0</ele><time>2026-05-02T12:53:31Z</time></trkpt><trkpt lat="44.133688317240434" lon="12.244801654853743"><ele>44.0</ele><time>2026-05-02T12:53:36Z</time></trkpt><trkpt lat="44.13369936333343" lon="12.244891808349188"><ele>44.0</ele><time>2026-05-02T12:53:38Z</time></trkpt><trkpt lat="44.13370841555208" lon="12.244985143570888"><ele>43.666666666666664</ele><time>2026-05-02T12:53:40Z</time></trkpt><trkpt lat="44.13371504230748" lon="12.245073477437987"><ele>43.33333333333333</ele><time>2026-05-02T12:53:42Z</time></trkpt><trkpt lat="44.13371371711974" lon="12.24518794281494"><ele>43.0</ele><time>2026-05-02T12:53:45Z</time></trkpt><trkpt lat="44.133651204839595" lon="12.245280304620778"><ele>42.666666666666664</ele><time>2026-05-02T12:53:48Z</time></trkpt><trkpt lat="44.133583779882066" lon="12.24530646577069"><ele>42.333333333333336</ele><time>2026-05-02T12:53:50Z</time></trkpt><trkpt lat="44.13351304174336" lon="12.245338408619121"><ele>42.0</ele><time>2026-05-02T12:53:52Z</time></trkpt><trkpt lat="44.13344220659838" lon="12.245378408973178"><ele>42.0</ele><time>2026-05-02T12:53:54Z</time></trkpt><trkpt lat="44.13336767261839" lon="12.24542602084577"><ele>42.0</ele><time>2026-05-02T12:53:56Z</time></trkpt><trkpt lat="44.133310642923476" lon="12.245470242310365"><ele>42.0</ele><time>2026-05-02T12:53:58Z</time></trkpt><trkpt lat="44.133252656582705" lon="12.245543984193665"><ele>42.0</ele><time>2026-05-02T12:54:00Z</time></trkpt><trkpt lat="44.133190450827094" lon="12.245586949745713"><ele>42.0</ele><time>2026-05-02T12:54:03Z</time></trkpt><trkpt lat="44.133135118051385" lon="12.245642782420742"><ele>42.0</ele><time>2026-05-02T12:54:07Z</time></trkpt><trkpt lat="44.13306509740588" lon="12.245652151635957"><ele>42.0</ele><time>2026-05-02T12:54:11Z</time></trkpt><trkpt lat="44.133003989705976" lon="12.245622592108239"><ele>42.0</ele><time>2026-05-02T12:54:13Z</time></trkpt><trkpt lat="44.132932637847425" lon="12.245644670605826"><ele>42.0</ele><time>2026-05-02T12:54:16Z</time></trkpt><trkpt lat="44.13289558837161" lon="12.245743289984597"><ele>42.0</ele><time>2026-05-02T12:54:19Z</time></trkpt><trkpt lat="44.13285119376515" lon="12.245831827010296"><ele>42.0</ele><time>2026-05-02T12:54:22Z</time></trkpt><trkpt lat="44.132810673871276" lon="12.245911578991741"><ele>42.0</ele><time>2026-05-02T12:54:24Z</time></trkpt><trkpt lat="44.132751565846775" lon="12.245967519174378"><ele>42.0</ele><time>2026-05-02T12:54:26Z</time></trkpt><trkpt lat="44.132679482182496" lon="12.246013896431114"><ele>42.0</ele><time>2026-05-02T12:54:28Z</time></trkpt><trkpt lat="44.13259832425176" lon="12.246051411889379"><ele>42.0</ele><time>2026-05-02T12:54:30Z</time></trkpt><trkpt lat="44.13251873332816" lon="12.246110165213073"><ele>42.0</ele><time>2026-05-02T12:54:32Z</time></trkpt><trkpt lat="44.132440309661064" lon="12.24618550235484"><ele>42.0</ele><time>2026-05-02T12:54:34Z</time></trkpt><trkpt lat="44.13237306904551" lon="12.246274265996947"><ele>42.0</ele><time>2026-05-02T12:54:36Z</time></trkpt><trkpt lat="44.13232435711654" lon="12.246392449105091"><ele>41.8</ele><time>2026-05-02T12:54:38Z</time></trkpt><trkpt lat="44.132254054193155" lon="12.246470782619058"><ele>41.6</ele><time>2026-05-02T12:54:40Z</time></trkpt><trkpt lat="44.13216991441718" lon="12.24653523681531"><ele>41.4</ele><time>2026-05-02T12:54:42Z</time></trkpt><trkpt lat="44.132088756583485" lon="12.246591719765004"><ele>41.199999999999996</ele><time>2026-05-02T12:54:44Z</time></trkpt><trkpt lat="44.132011701551626" lon="12.246659501222215"><ele>41.0</ele><time>2026-05-02T12:54:46Z</time></trkpt><trkpt lat="44.13194078961018" lon="12.246735900160944"><ele>41.0</ele><time>2026-05-02T12:54:48Z</time></trkpt><trkpt lat="44.13185872955492" lon="12.246801825134815"><ele>41.0</ele><time>2026-05-02T12:54:50Z</time></trkpt><trkpt lat="44.131776485094356" lon="12.24687005746081"><ele>41.0</ele><time>2026-05-02T12:54:52Z</time></trkpt><trkpt lat="44.13169557002743" lon="12.2469241915549"><ele>41.0</ele><time>2026-05-02T12:54:54Z</time></trkpt><trkpt lat="44.13161323991615" lon="12.246978495157174"><ele>41.0</ele><time>2026-05-02T12:54:56Z</time></trkpt><trkpt lat="44.13152353957022" lon="12.247002706473387"><ele>41.5</ele><time>2026-05-02T12:54:58Z</time></trkpt><trkpt lat="44.13143909820816" lon="12.247020997527951"><ele>42.0</ele><time>2026-05-02T12:55:00Z</time></trkpt><trkpt lat="44.13135539451559" lon="12.24705442063382"><ele>42.5</ele><time>2026-05-02T12:55:02Z</time></trkpt><trkpt lat="44.13127276902931" lon="12.24707261703298"><ele>43.0</ele><time>2026-05-02T12:55:04Z</time></trkpt><trkpt lat="44.131183563577046" lon="12.247102184811677"><ele>43.5</ele><time>2026-05-02T12:55:06Z</time></trkpt><trkpt lat="44.13109598270771" lon="12.247125080361831"><ele>44.0</ele><time>2026-05-02T12:55:08Z</time></trkpt><trkpt lat="44.13100745105597" lon="12.247146916954605"><ele>44.0</ele><time>2026-05-02T12:55:10Z</time></trkpt><trkpt lat="44.13092380115908" lon="12.247164865956488"><ele>44.0</ele><time>2026-05-02T12:55:12Z</time></trkpt><trkpt lat="44.130841032011574" lon="12.247172661109584"><ele>44.0</ele><time>2026-05-02T12:55:14Z</time></trkpt><trkpt lat="44.13075769771769" lon="12.247190626678268"><ele>44.0</ele><time>2026-05-02T12:55:16Z</time></trkpt><trkpt lat="44.130671534730226" lon="12.24719965862463"><ele>44.0</ele><time>2026-05-02T12:55:18Z</time></trkpt><trkpt lat="44.13059446143252" lon="12.247212838716958"><ele>44.0</ele><time>2026-05-02T12:55:20Z</time></trkpt><trkpt lat="44.13051500662899" lon="12.247210306244"><ele>44.166666666666664</ele><time>2026-05-02T12:55:22Z</time></trkpt><trkpt lat="44.13043153702278" lon="12.24723236205988"><ele>44.33333333333333</ele><time>2026-05-02T12:55:24Z</time></trkpt><trkpt lat="44.130324608175115" lon="12.247246985530975"><ele>44.5</ele><time>2026-05-02T12:55:27Z</time></trkpt><trkpt lat="44.13024807920963" lon="12.247260866007222"><ele>44.666666666666664</ele><time>2026-05-02T12:55:29Z</time></trkpt><trkpt lat="44.13018490107681" lon="12.247273398762365"><ele>44.833333333333336</ele><time>2026-05-02T12:55:31Z</time></trkpt><trkpt lat="44.1301046111751" lon="12.247278904054205"><ele>45.0</ele><time>2026-05-02T12:55:33Z</time></trkpt><trkpt lat="44.13003480701487" lon="12.247308507713122"><ele>45.0</ele><time>2026-05-02T12:55:35Z</time></trkpt><trkpt lat="44.129947557518015" lon="12.247338365286373"><ele>45.0</ele><time>2026-05-02T12:55:37Z</time></trkpt><trkpt lat="44.12987155968109" lon="12.247351114084463"><ele>45.0</ele><time>2026-05-02T12:55:39Z</time></trkpt><trkpt lat="44.129794853025395" lon="12.247339143232319"><ele>45.0</ele><time>2026-05-02T12:55:41Z</time></trkpt><trkpt lat="44.129719758743086" lon="12.247315369992885"><ele>45.0</ele><time>2026-05-02T12:55:43Z</time></trkpt><trkpt lat="44.12964675951737" lon="12.247281445121693"><ele>45.0</ele><time>2026-05-02T12:55:45Z</time></trkpt><trkpt lat="44.1295658820956" lon="12.247277474722345"><ele>45.166666666666664</ele><time>2026-05-02T12:55:47Z</time></trkpt><trkpt lat="44.12949250705371" lon="12.247274825415651"><ele>45.333333333333336</ele><time>2026-05-02T12:55:49Z</time></trkpt><trkpt lat="44.12940756272605" lon="12.247275588015402"><ele>45.5</ele><time>2026-05-02T12:55:51Z</time></trkpt><trkpt lat="44.12933405111629" lon="12.247304607445113"><ele>45.66666666666667</ele><time>2026-05-02T12:55:53Z</time></trkpt><trkpt lat="44.12925776940067" lon="12.247322172816565"><ele>45.833333333333336</ele><time>2026-05-02T12:55:55Z</time></trkpt><trkpt lat="44.12917184640873" lon="12.24734909188525"><ele>46.0</ele><time>2026-05-02T12:55:57Z</time></trkpt><trkpt lat="44.12908433896258" lon="12.247339837261624"><ele>46.0</ele><time>2026-05-02T12:55:59Z</time></trkpt><trkpt lat="44.128999790258355" lon="12.247317543398129"><ele>46.0</ele><time>2026-05-02T12:56:01Z</time></trkpt><trkpt lat="44.128931155200505" lon="12.24723964858755"><ele>46.0</ele><time>2026-05-02T12:56:03Z</time></trkpt><trkpt lat="44.128870259548" lon="12.24713916310109"><ele>46.0</ele><time>2026-05-02T12:56:05Z</time></trkpt><trkpt lat="44.12884212858495" lon="12.247024785467074"><ele>46.0</ele><time>2026-05-02T12:56:07Z</time></trkpt><trkpt lat="44.12883551164222" lon="12.246906515157532"><ele>46.0</ele><time>2026-05-02T12:56:09Z</time></trkpt><trkpt lat="44.12886119095651" lon="12.246784976115828"><ele>46.0</ele><time>2026-05-02T12:56:11Z</time></trkpt><trkpt lat="44.128888369846024" lon="12.246664120025008"><ele>46.0</ele><time>2026-05-02T12:56:13Z</time></trkpt><trkpt lat="44.12890059389835" lon="12.246548051354358"><ele>46.0</ele><time>2026-05-02T12:56:14.999Z</time></trkpt><trkpt lat="44.12891093498791" lon="12.246417652868383"><ele>46.0</ele><time>2026-05-02T12:56:16.999Z</time></trkpt><trkpt lat="44.128899967091" lon="12.246292551210953"><ele>46.0</ele><time>2026-05-02T12:56:18.999Z</time></trkpt><trkpt lat="44.12889547913647" lon="12.246168684011856"><ele>46.0</ele><time>2026-05-02T12:56:20.999Z</time></trkpt><trkpt lat="44.12886484760885" lon="12.246040796135343"><ele>46.0</ele><time>2026-05-02T12:56:23Z</time></trkpt><trkpt lat="44.12883246116643" lon="12.24592978753915"><ele>46.0</ele><time>2026-05-02T12:56:25Z</time></trkpt><trkpt lat="44.128772094520905" lon="12.245850224062231"><ele>46.0</ele><time>2026-05-02T12:56:27Z</time></trkpt><trkpt lat="44.128724604223514" lon="12.245778496516545"><ele>46.0</ele><time>2026-05-02T12:56:29Z</time></trkpt><trkpt lat="44.128669833757804" lon="12.245685941653655"><ele>46.0</ele><time>2026-05-02T12:56:31Z</time></trkpt><trkpt lat="44.12861548840406" lon="12.245613738343808"><ele>46.0</ele><time>2026-05-02T12:56:33Z</time></trkpt><trkpt lat="44.1285491287018" lon="12.245559982192946"><ele>46.142857142857146</ele><time>2026-05-02T12:56:35Z</time></trkpt><trkpt lat="44.12848444606195" lon="12.245511063979398"><ele>46.285714285714285</ele><time>2026-05-02T12:56:37Z</time></trkpt><trkpt lat="44.12843433107888" lon="12.245457096954269"><ele>46.42857142857143</ele><time>2026-05-02T12:56:39Z</time></trkpt><trkpt lat="44.12837410962415" lon="12.245410824135176"><ele>46.57142857142857</ele><time>2026-05-02T12:56:41Z</time></trkpt><trkpt lat="44.12830365646599" lon="12.245375421449909"><ele>46.71428571428571</ele><time>2026-05-02T12:56:43Z</time></trkpt><trkpt lat="44.128232526112555" lon="12.245380481008182"><ele>46.857142857142854</ele><time>2026-05-02T12:56:45Z</time></trkpt><trkpt lat="44.12815353545458" lon="12.24539742583594"><ele>47.0</ele><time>2026-05-02T12:56:47Z</time></trkpt><trkpt lat="44.12807249622485" lon="12.245384318815312"><ele>47.166666666666664</ele><time>2026-05-02T12:56:49Z</time></trkpt><trkpt lat="44.12798977942321" lon="12.245374013750089"><ele>47.33333333333333</ele><time>2026-05-02T12:56:51Z</time></trkpt><trkpt lat="44.12790760415058" lon="12.245381705201687"><ele>47.5</ele><time>2026-05-02T12:56:53Z</time></trkpt><trkpt lat="44.12783373134301" lon="12.245371828712745"><ele>47.666666666666664</ele><time>2026-05-02T12:56:55Z</time></trkpt><trkpt lat="44.12773498735211" lon="12.245382493793928"><ele>47.833333333333336</ele><time>2026-05-02T12:56:57Z</time></trkpt><trkpt lat="44.12765130094915" lon="12.245381047733835"><ele>48.0</ele><time>2026-05-02T12:56:59Z</time></trkpt><trkpt lat="44.12756402949218" lon="12.245356902546193"><ele>48.0</ele><time>2026-05-02T12:57:01Z</time></trkpt><trkpt lat="44.12749596017668" lon="12.245301127459943"><ele>48.0</ele><time>2026-05-02T12:57:03Z</time></trkpt><trkpt lat="44.127419403137665" lon="12.24524417983776"><ele>48.0</ele><time>2026-05-02T12:57:05Z</time></trkpt><trkpt lat="44.12735648731567" lon="12.245167130792227"><ele>48.0</ele><time>2026-05-02T12:57:07Z</time></trkpt><trkpt lat="44.127300272181245" lon="12.245077209244435"><ele>48.0</ele><time>2026-05-02T12:57:09Z</time></trkpt><trkpt lat="44.127243905615366" lon="12.24498960059767"><ele>48.0</ele><time>2026-05-02T12:57:11Z</time></trkpt><trkpt lat="44.127174245289744" lon="12.244939213074133"><ele>48.14285714285714</ele><time>2026-05-02T12:57:13Z</time></trkpt><trkpt lat="44.12711006604998" lon="12.24492467639125"><ele>48.285714285714285</ele><time>2026-05-02T12:57:15Z</time></trkpt><trkpt lat="44.1270336491953" lon="12.244937637595852"><ele>48.42857142857143</ele><time>2026-05-02T12:57:17Z</time></trkpt><trkpt lat="44.126964593751964" lon="12.244939279344145"><ele>48.57142857142857</ele><time>2026-05-02T12:57:19Z</time></trkpt><trkpt lat="44.1269002338299" lon="12.24493424428333"><ele>48.714285714285715</ele><time>2026-05-02T12:57:21Z</time></trkpt><trkpt lat="44.126825560198974" lon="12.244929204358558"><ele>48.857142857142854</ele><time>2026-05-02T12:57:24Z</time></trkpt><trkpt lat="44.126762727866556" lon="12.244881586071358"><ele>49.0</ele><time>2026-05-02T12:57:27Z</time></trkpt><trkpt lat="44.12675952522326" lon="12.244757938713146"><ele>48.99999999999999</ele><time>2026-05-02T12:57:30Z</time></trkpt><trkpt lat="44.126673630745124" lon="12.244747814195307"><ele>49.0</ele><time>2026-05-02T12:57:33Z</time></trkpt><trkpt lat="44.12659809200969" lon="12.244740164504297"><ele>49.0</ele><time>2026-05-02T12:57:36Z</time></trkpt><trkpt lat="44.126535493815084" lon="12.244644853098741"><ele>49.0</ele><time>2026-05-02T12:57:38Z</time></trkpt><trkpt lat="44.12646463795667" lon="12.244576271454305"><ele>48.99999999999999</ele><time>2026-05-02T12:57:40Z</time></trkpt><trkpt lat="44.126390747858785" lon="12.244554978237462"><ele>49.0</ele><time>2026-05-02T12:57:42Z</time></trkpt><trkpt lat="44.12632167113269" lon="12.244543508553924"><ele>49.285714285714285</ele><time>2026-05-02T12:57:44Z</time></trkpt><trkpt lat="44.126234741435894" lon="12.244536052045701"><ele>49.57142857142857</ele><time>2026-05-02T12:57:47Z</time></trkpt><trkpt lat="44.12616688837197" lon="12.244538987115726"><ele>49.85714285714286</ele><time>2026-05-02T12:57:49Z</time></trkpt><trkpt lat="44.12609867877232" lon="12.244556830005495"><ele>50.14285714285714</ele><time>2026-05-02T12:57:51Z</time></trkpt><trkpt lat="44.12602778110724" lon="12.244562943139954"><ele>50.42857142857143</ele><time>2026-05-02T12:57:53Z</time></trkpt><trkpt lat="44.12594982581826" lon="12.244542523502641"><ele>50.714285714285715</ele><time>2026-05-02T12:57:55Z</time></trkpt><trkpt lat="44.12588313945329" lon="12.244534325992706"><ele>51.0</ele><time>2026-05-02T12:57:57Z</time></trkpt><trkpt lat="44.12582183440553" lon="12.244570345204771"><ele>51.0</ele><time>2026-05-02T12:57:59Z</time></trkpt><trkpt lat="44.12574894691929" lon="12.244556201517339"><ele>51.0</ele><time>2026-05-02T12:58:01Z</time></trkpt><trkpt lat="44.12567520161476" lon="12.244555518447633"><ele>51.0</ele><time>2026-05-02T12:58:03Z</time></trkpt><trkpt lat="44.12557780501413" lon="12.24457024413808"><ele>51.0</ele><time>2026-05-02T12:58:06Z</time></trkpt><trkpt lat="44.12547538899685" lon="12.244570185780296"><ele>51.0</ele><time>2026-05-02T12:58:08Z</time></trkpt><trkpt lat="44.12537253663733" lon="12.244575478208986"><ele>50.599999999999994</ele><time>2026-05-02T12:58:09.999Z</time></trkpt><trkpt lat="44.12525251366532" lon="12.244560877798916"><ele>50.2</ele><time>2026-05-02T12:58:11.999Z</time></trkpt><trkpt lat="44.125145477628834" lon="12.244524792749692"><ele>49.8</ele><time>2026-05-02T12:58:13.999Z</time></trkpt><trkpt lat="44.12505682294288" lon="12.244492905300369"><ele>49.400000000000006</ele><time>2026-05-02T12:58:15.999Z</time></trkpt><trkpt lat="44.12497729380976" lon="12.24446171487838"><ele>49.0</ele><time>2026-05-02T12:58:17.999Z</time></trkpt><trkpt lat="44.124894148209506" lon="12.244422871555344"><ele>48.99999999999999</ele><time>2026-05-02T12:58:19.999Z</time></trkpt><trkpt lat="44.12480658288789" lon="12.24438561377898"><ele>49.0</ele><time>2026-05-02T12:58:21.999Z</time></trkpt><trkpt lat="44.12473034557208" lon="12.244350775235198"><ele>49.0</ele><time>2026-05-02T12:58:23.999Z</time></trkpt><trkpt lat="44.124650931978145" lon="12.244288585598797"><ele>49.0</ele><time>2026-05-02T12:58:25.999Z</time></trkpt><trkpt lat="44.12457220561626" lon="12.24421896512037"><ele>48.99999999999999</ele><time>2026-05-02T12:58:28Z</time></trkpt><trkpt lat="44.12449480635948" lon="12.244150044272127"><ele>49.0</ele><time>2026-05-02T12:58:30Z</time></trkpt><trkpt lat="44.124417547030376" lon="12.24408592332116"><ele>49.0</ele><time>2026-05-02T12:58:32Z</time></trkpt><trkpt lat="44.12434939564239" lon="12.244025313660966"><ele>49.0</ele><time>2026-05-02T12:58:34Z</time></trkpt><trkpt lat="44.12429589191166" lon="12.243963137279826"><ele>49.0</ele><time>2026-05-02T12:58:36Z</time></trkpt><trkpt lat="44.12424385749017" lon="12.243896565522949"><ele>49.0</ele><time>2026-05-02T12:58:39Z</time></trkpt><trkpt lat="44.12420306121796" lon="12.243813989518795"><ele>49.0</ele><time>2026-05-02T12:58:42Z</time></trkpt><trkpt lat="44.12418825660133" lon="12.243721728591805"><ele>49.0</ele><time>2026-05-02T12:58:45Z</time></trkpt><trkpt lat="44.12416329988033" lon="12.243633550510083"><ele>49.0</ele><time>2026-05-02T12:58:48Z</time></trkpt><trkpt lat="44.12413787195007" lon="12.243546162956736"><ele>49.166666666666664</ele><time>2026-05-02T12:58:51Z</time></trkpt><trkpt lat="44.12409807418072" lon="12.2434705555216"><ele>49.33333333333333</ele><time>2026-05-02T12:58:54Z</time></trkpt><trkpt lat="44.12403769855842" lon="12.243324185970366"><ele>49.5</ele><time>2026-05-02T12:58:57Z</time></trkpt><trkpt lat="44.12397024565177" lon="12.243323580403572"><ele>49.66666666666667</ele><time>2026-05-02T12:59:00Z</time></trkpt><trkpt lat="44.12390076062445" lon="12.24331599996723"><ele>49.833333333333336</ele><time>2026-05-02T12:59:03Z</time></trkpt><trkpt lat="44.12381362657013" lon="12.243311918215845"><ele>50.0</ele><time>2026-05-02T12:59:06Z</time></trkpt><trkpt lat="44.12374034510496" lon="12.243272232158173"><ele>50.16666666666667</ele><time>2026-05-02T12:59:08Z</time></trkpt><trkpt lat="44.12366637097127" lon="12.243270297355167"><ele>50.333333333333336</ele><time>2026-05-02T12:59:10Z</time></trkpt><trkpt lat="44.123580223497925" lon="12.243244928790363"><ele>50.5</ele><time>2026-05-02T12:59:12Z</time></trkpt><trkpt lat="44.12349901166792" lon="12.243195206286863"><ele>50.66666666666667</ele><time>2026-05-02T12:59:14Z</time></trkpt><trkpt lat="44.123411708226655" lon="12.243166740927593"><ele>50.833333333333336</ele><time>2026-05-02T12:59:16Z</time></trkpt><trkpt lat="44.12332172415311" lon="12.243158244369992"><ele>51.0</ele><time>2026-05-02T12:59:18Z</time></trkpt><trkpt lat="44.12322630348963" lon="12.2431312488676"><ele>51.0</ele><time>2026-05-02T12:59:20Z</time></trkpt><trkpt lat="44.12313276698174" lon="12.243096457921096"><ele>51.0</ele><time>2026-05-02T12:59:22Z</time></trkpt><trkpt lat="44.12304554059609" lon="12.24306135210497"><ele>51.0</ele><time>2026-05-02T12:59:24Z</time></trkpt><trkpt lat="44.12295786255871" lon="12.243017621206922"><ele>51.0</ele><time>2026-05-02T12:59:26Z</time></trkpt><trkpt lat="44.12285737053142" lon="12.242985868748763"><ele>51.0</ele><time>2026-05-02T12:59:28Z</time></trkpt><trkpt lat="44.122763841031514" lon="12.242954104782587"><ele>51.0</ele><time>2026-05-02T12:59:30Z</time></trkpt><trkpt lat="44.12267182653957" lon="12.242922397693253"><ele>51.0</ele><time>2026-05-02T12:59:32Z</time></trkpt><trkpt lat="44.12258528372672" lon="12.242892279950913"><ele>51.0</ele><time>2026-05-02T12:59:34Z</time></trkpt><trkpt lat="44.122497050790656" lon="12.242857944878944"><ele>51.0</ele><time>2026-05-02T12:59:36Z</time></trkpt><trkpt lat="44.122405745928084" lon="12.242826453634459"><ele>51.0</ele><time>2026-05-02T12:59:38Z</time></trkpt><trkpt lat="44.1223149309131" lon="12.242791830564352"><ele>51.166666666666664</ele><time>2026-05-02T12:59:40Z</time></trkpt><trkpt lat="44.122232022924926" lon="12.242761667820716"><ele>51.33333333333333</ele><time>2026-05-02T12:59:42Z</time></trkpt><trkpt lat="44.122152875833784" lon="12.24271027396913"><ele>51.5</ele><time>2026-05-02T12:59:44Z</time></trkpt><trkpt lat="44.122077067310954" lon="12.24265982215342"><ele>51.666666666666664</ele><time>2026-05-02T12:59:46Z</time></trkpt><trkpt lat="44.12200259490297" lon="12.24261801317537"><ele>51.83333333333333</ele><time>2026-05-02T12:59:48Z</time></trkpt><trkpt lat="44.12193193953145" lon="12.242574599435734"><ele>52.0</ele><time>2026-05-02T12:59:50Z</time></trkpt><trkpt lat="44.12185998705949" lon="12.242538018536433"><ele>51.99999999999999</ele><time>2026-05-02T12:59:52Z</time></trkpt><trkpt lat="44.12179534287616" lon="12.242477732507973"><ele>52.0</ele><time>2026-05-02T12:59:54Z</time></trkpt><trkpt lat="44.12172652942126" lon="12.242429951453332"><ele>52.0</ele><time>2026-05-02T12:59:56Z</time></trkpt><trkpt lat="44.1216572012522" lon="12.242377690471448"><ele>52.0</ele><time>2026-05-02T12:59:58Z</time></trkpt><trkpt lat="44.12158364194942" lon="12.242320305345219"><ele>51.99999999999999</ele><time>2026-05-02T13:00:00Z</time></trkpt><trkpt lat="44.121501894162826" lon="12.242262382574134"><ele>52.0</ele><time>2026-05-02T13:00:02Z</time></trkpt><trkpt lat="44.12142770917844" lon="12.242209250814888"><ele>52.33333333333333</ele><time>2026-05-02T13:00:04Z</time></trkpt><trkpt lat="44.121346761087835" lon="12.242168524788323"><ele>52.666666666666664</ele><time>2026-05-02T13:00:05.999Z</time></trkpt><trkpt lat="44.121266349635164" lon="12.24212573620339"><ele>53.0</ele><time>2026-05-02T13:00:07.999Z</time></trkpt><trkpt lat="44.12118993862193" lon="12.242075959010165"><ele>53.33333333333333</ele><time>2026-05-02T13:00:09.999Z</time></trkpt><trkpt lat="44.121106078771035" lon="12.242043596120295"><ele>53.666666666666664</ele><time>2026-05-02T13:00:11.999Z</time></trkpt><trkpt lat="44.12103133746528" lon="12.242020608049158"><ele>54.0</ele><time>2026-05-02T13:00:13.999Z</time></trkpt><trkpt lat="44.12095631492957" lon="12.24199780413862"><ele>54.0</ele><time>2026-05-02T13:00:15.999Z</time></trkpt><trkpt lat="44.12088125684738" lon="12.241956776286205"><ele>54.0</ele><time>2026-05-02T13:00:17.999Z</time></trkpt><trkpt lat="44.12080172948439" lon="12.241925277583034"><ele>54.0</ele><time>2026-05-02T13:00:19.999Z</time></trkpt><trkpt lat="44.120727101199485" lon="12.241891951844266"><ele>54.0</ele><time>2026-05-02T13:00:21.999Z</time></trkpt><trkpt lat="44.12064395659624" lon="12.241877287575356"><ele>54.0</ele><time>2026-05-02T13:00:23.999Z</time></trkpt><trkpt lat="44.12057088879116" lon="12.241844844535045"><ele>54.0</ele><time>2026-05-02T13:00:25.999Z</time></trkpt><trkpt lat="44.1204903825436" lon="12.241803207997595"><ele>54.166666666666664</ele><time>2026-05-02T13:00:27.999Z</time></trkpt><trkpt lat="44.12040455782136" lon="12.241769041933667"><ele>54.33333333333333</ele><time>2026-05-02T13:00:29.999Z</time></trkpt><trkpt lat="44.120319613959374" lon="12.241729683230997"><ele>54.5</ele><time>2026-05-02T13:00:31.999Z</time></trkpt><trkpt lat="44.12023742335874" lon="12.241686455960176"><ele>54.666666666666664</ele><time>2026-05-02T13:00:34Z</time></trkpt><trkpt lat="44.12014602555073" lon="12.241652550577218"><ele>54.83333333333333</ele><time>2026-05-02T13:00:36Z</time></trkpt><trkpt lat="44.12006444215721" lon="12.241616601889072"><ele>55.0</ele><time>2026-05-02T13:00:38Z</time></trkpt><trkpt lat="44.119978764248856" lon="12.241580864403325"><ele>54.99999999999999</ele><time>2026-05-02T13:00:40Z</time></trkpt><trkpt lat="44.11989734961515" lon="12.241549689163344"><ele>55.0</ele><time>2026-05-02T13:00:42Z</time></trkpt><trkpt lat="44.11981741986244" lon="12.241514056731061"><ele>55.0</ele><time>2026-05-02T13:00:44Z</time></trkpt><trkpt lat="44.11973500592083" lon="12.241475523259385"><ele>55.0</ele><time>2026-05-02T13:00:46Z</time></trkpt><trkpt lat="44.119663155567814" lon="12.241436363526216"><ele>54.99999999999999</ele><time>2026-05-02T13:00:48Z</time></trkpt><trkpt lat="44.119583368095064" lon="12.2413955929303"><ele>55.0</ele><time>2026-05-02T13:00:50Z</time></trkpt><trkpt lat="44.11950755167166" lon="12.241363718886298"><ele>54.99999999999999</ele><time>2026-05-02T13:00:52Z</time></trkpt><trkpt lat="44.11942652191381" lon="12.24132910302542"><ele>55.0</ele><time>2026-05-02T13:00:54Z</time></trkpt><trkpt lat="44.11935381736027" lon="12.241297510493741"><ele>55.0</ele><time>2026-05-02T13:00:56Z</time></trkpt><trkpt lat="44.11927807434701" lon="12.241272307489716"><ele>55.0</ele><time>2026-05-02T13:00:59Z</time></trkpt><trkpt lat="44.119208658007246" lon="12.241234618906077"><ele>54.99999999999999</ele><time>2026-05-02T13:01:02Z</time></trkpt><trkpt lat="44.11912157621702" lon="12.24120012892002"><ele>55.0</ele><time>2026-05-02T13:01:05Z</time></trkpt><trkpt lat="44.119053385140155" lon="12.241172289580547"><ele>54.99999999999999</ele><time>2026-05-02T13:01:08Z</time></trkpt><trkpt lat="44.11898609285593" lon="12.24112961386299"><ele>55.0</ele><time>2026-05-02T13:01:13Z</time></trkpt><trkpt lat="44.11892399967302" lon="12.241112645791587"><ele>55.0</ele><time>2026-05-02T13:01:18Z</time></trkpt><trkpt lat="44.11898685311641" lon="12.241154381023243"><ele>55.0</ele><time>2026-05-02T13:01:26Z</time></trkpt><trkpt lat="44.119068668824504" lon="12.241192953053936"><ele>55.0</ele><time>2026-05-02T13:01:29Z</time></trkpt><trkpt lat="44.119134120120655" lon="12.241228993675886"><ele>54.99999999999999</ele><time>2026-05-02T13:01:31Z</time></trkpt><trkpt lat="44.119203234161006" lon="12.241265393393954"><ele>55.0</ele><time>2026-05-02T13:01:34Z</time></trkpt><trkpt lat="44.11889075915725" lon="12.242440172169575"><ele>55.57142857142857</ele><time>2026-05-02T13:01:55Z</time></trkpt><trkpt lat="44.11886706349682" lon="12.242532984220722"><ele>56.14285714285714</ele><time>2026-05-02T13:01:57Z</time></trkpt><trkpt lat="44.11884045477329" lon="12.242626659981145"><ele>56.71428571428571</ele><time>2026-05-02T13:01:59Z</time></trkpt><trkpt lat="44.11880826566252" lon="12.242720582257439"><ele>57.285714285714285</ele><time>2026-05-02T13:02:01Z</time></trkpt><trkpt lat="44.11878073396838" lon="12.24282128694021"><ele>57.85714285714286</ele><time>2026-05-02T13:02:03Z</time></trkpt><trkpt lat="44.118759238936086" lon="12.242917851551987"><ele>58.42857142857142</ele><time>2026-05-02T13:02:05Z</time></trkpt><trkpt lat="44.11873408333873" lon="12.243005577161256"><ele>59.0</ele><time>2026-05-02T13:02:06.999Z</time></trkpt><trkpt lat="44.1187101669677" lon="12.243093245254192"><ele>59.14285714285714</ele><time>2026-05-02T13:02:08.999Z</time></trkpt><trkpt lat="44.11868033019312" lon="12.243187797504676"><ele>59.28571428571429</ele><time>2026-05-02T13:02:10.999Z</time></trkpt><trkpt lat="44.118653812951976" lon="12.243278990331673"><ele>59.42857142857143</ele><time>2026-05-02T13:02:12.999Z</time></trkpt><trkpt lat="44.11862888595596" lon="12.243374167111925"><ele>59.57142857142857</ele><time>2026-05-02T13:02:14.999Z</time></trkpt><trkpt lat="44.11860297930563" lon="12.243463920777769"><ele>59.71428571428571</ele><time>2026-05-02T13:02:16.999Z</time></trkpt><trkpt lat="44.1185739390302" lon="12.243554349387693"><ele>59.85714285714286</ele><time>2026-05-02T13:02:18.999Z</time></trkpt><trkpt lat="44.118545321295485" lon="12.243650239071496"><ele>60.0</ele><time>2026-05-02T13:02:20.999Z</time></trkpt><trkpt lat="44.11851305989107" lon="12.243747671790906"><ele>60.0</ele><time>2026-05-02T13:02:22.999Z</time></trkpt><trkpt lat="44.11848698706508" lon="12.243848594668071"><ele>60.0</ele><time>2026-05-02T13:02:24.999Z</time></trkpt><trkpt lat="44.118456710103004" lon="12.24395542502962"><ele>60.0</ele><time>2026-05-02T13:02:26.999Z</time></trkpt><trkpt lat="44.11841766729654" lon="12.244103795570167"><ele>60.0</ele><time>2026-05-02T13:02:28.999Z</time></trkpt><trkpt lat="44.11838386392077" lon="12.244225850365828"><ele>60.0</ele><time>2026-05-02T13:02:30.999Z</time></trkpt><trkpt lat="44.11835358003513" lon="12.244344842892001"><ele>59.2</ele><time>2026-05-02T13:02:32.999Z</time></trkpt><trkpt lat="44.118326548266964" lon="12.24446928560774"><ele>58.4</ele><time>2026-05-02T13:02:34.999Z</time></trkpt><trkpt lat="44.11828447379919" lon="12.244582552208122"><ele>57.599999999999994</ele><time>2026-05-02T13:02:36.999Z</time></trkpt><trkpt lat="44.11827302594915" lon="12.24467671560686"><ele>56.8</ele><time>2026-05-02T13:02:38.999Z</time></trkpt><trkpt lat="44.11816074410305" lon="12.244758284767576"><ele>56.0</ele><time>2026-05-02T13:02:41Z</time></trkpt><trkpt lat="44.11810199485005" lon="12.24484641337844"><ele>57.66666666666667</ele><time>2026-05-02T13:02:43Z</time></trkpt><trkpt lat="44.11803700315322" lon="12.244912720532803"><ele>59.333333333333336</ele><time>2026-05-02T13:02:45Z</time></trkpt><trkpt lat="44.11798910259891" lon="12.244997635389883"><ele>61.0</ele><time>2026-05-02T13:02:47Z</time></trkpt><trkpt lat="44.11795106833906" lon="12.245072353516107"><ele>62.66666666666667</ele><time>2026-05-02T13:02:49Z</time></trkpt><trkpt lat="44.11791034769681" lon="12.245189194753396"><ele>64.33333333333333</ele><time>2026-05-02T13:02:52Z</time></trkpt><trkpt lat="44.117876198665094" lon="12.245263635497563"><ele>66.0</ele><time>2026-05-02T13:02:54Z</time></trkpt><trkpt lat="44.11783643979819" lon="12.245369129934536"><ele>66.0</ele><time>2026-05-02T13:02:57Z</time></trkpt><trkpt lat="44.117794068589596" lon="12.245479741159846"><ele>66.0</ele><time>2026-05-02T13:03:00Z</time></trkpt><trkpt lat="44.11775035812085" lon="12.245590091520063"><ele>66.0</ele><time>2026-05-02T13:03:03Z</time></trkpt><trkpt lat="44.117710749138624" lon="12.245700263064284"><ele>66.0</ele><time>2026-05-02T13:03:06Z</time></trkpt><trkpt lat="44.11767641233942" lon="12.245816987804162"><ele>66.0</ele><time>2026-05-02T13:03:09Z</time></trkpt><trkpt lat="44.117646557822056" lon="12.24592182614392"><ele>66.0</ele><time>2026-05-02T13:03:12Z</time></trkpt><trkpt lat="44.11762083433361" lon="12.246046913829423"><ele>65.16666666666667</ele><time>2026-05-02T13:03:15Z</time></trkpt><trkpt lat="44.117621834308345" lon="12.24617195450188"><ele>64.33333333333333</ele><time>2026-05-02T13:03:18Z</time></trkpt><trkpt lat="44.117636689767835" lon="12.246290388109738"><ele>63.5</ele><time>2026-05-02T13:03:21Z</time></trkpt><trkpt lat="44.11766576718118" lon="12.246375218210392"><ele>62.666666666666664</ele><time>2026-05-02T13:03:24Z</time></trkpt><trkpt lat="44.11766188344805" lon="12.246466620159364"><ele>61.83333333333333</ele><time>2026-05-02T13:03:28Z</time></trkpt><trkpt lat="44.117682323115304" lon="12.246567918180899"><ele>61.0</ele><time>2026-05-02T13:03:32Z</time></trkpt><trkpt lat="44.11766279634458" lon="12.246661418658581"><ele>60.99999999999999</ele><time>2026-05-02T13:03:35Z</time></trkpt><trkpt lat="44.117644337648805" lon="12.246753794994069"><ele>61.0</ele><time>2026-05-02T13:03:38Z</time></trkpt><trkpt lat="44.117629180105354" lon="12.24683926027425"><ele>60.99999999999999</ele><time>2026-05-02T13:03:41Z</time></trkpt><trkpt lat="44.1175959673545" lon="12.246930072032287"><ele>60.99999999999999</ele><time>2026-05-02T13:03:44Z</time></trkpt><trkpt lat="44.117557980397" lon="12.247023844310263"><ele>61.0</ele><time>2026-05-02T13:03:47Z</time></trkpt><trkpt lat="44.1175328401764" lon="12.24714402448134"><ele>60.99999999999999</ele><time>2026-05-02T13:03:50Z</time></trkpt><trkpt lat="44.11751195683998" lon="12.24722984194985"><ele>60.99999999999999</ele><time>2026-05-02T13:03:53Z</time></trkpt><trkpt lat="44.11748322797147" lon="12.247325259511932"><ele>60.85714285714285</ele><time>2026-05-02T13:03:56Z</time></trkpt><trkpt lat="44.117449073074674" lon="12.247429319826326"><ele>60.71428571428571</ele><time>2026-05-02T13:03:59Z</time></trkpt><trkpt lat="44.117420703020045" lon="12.247510247441983"><ele>60.57142857142857</ele><time>2026-05-02T13:04:01Z</time></trkpt><trkpt lat="44.11739808689099" lon="12.247602001218349"><ele>60.42857142857142</ele><time>2026-05-02T13:04:04Z</time></trkpt><trkpt lat="44.11736924701547" lon="12.247703024931168"><ele>60.28571428571428</ele><time>2026-05-02T13:04:08Z</time></trkpt><trkpt lat="44.117351391873896" lon="12.247800009031137"><ele>60.142857142857146</ele><time>2026-05-02T13:04:12.999Z</time></trkpt><trkpt lat="44.11731906155395" lon="12.247880020264356"><ele>60.0</ele><time>2026-05-02T13:04:16.999Z</time></trkpt><trkpt lat="44.11729488134027" lon="12.247965588692905"><ele>61.85714285714286</ele><time>2026-05-02T13:04:19.999Z</time></trkpt><trkpt lat="44.117253352632524" lon="12.24803272507482"><ele>63.71428571428571</ele><time>2026-05-02T13:04:22.999Z</time></trkpt><trkpt lat="44.1172196046556" lon="12.248109354414039"><ele>65.57142857142857</ele><time>2026-05-02T13:04:25.999Z</time></trkpt><trkpt lat="44.11716599901261" lon="12.248179547363268"><ele>67.42857142857143</ele><time>2026-05-02T13:04:29.999Z</time></trkpt><trkpt lat="44.117105923640715" lon="12.248226954871859"><ele>69.28571428571429</ele><time>2026-05-02T13:04:34.999Z</time></trkpt><trkpt lat="44.11704495209346" lon="12.248277865563255"><ele>71.14285714285714</ele><time>2026-05-02T13:04:40.999Z</time></trkpt><trkpt lat="44.11699120572152" lon="12.24835189120264"><ele>73.0</ele><time>2026-05-02T13:04:48Z</time></trkpt><trkpt lat="44.11694302161974" lon="12.2484088680345"><ele>73.0</ele><time>2026-05-02T13:04:54Z</time></trkpt><trkpt lat="44.11689086229856" lon="12.24847630216562"><ele>73.0</ele><time>2026-05-02T13:05:01Z</time></trkpt><trkpt lat="44.11683509404542" lon="12.248536404736504"><ele>73.0</ele><time>2026-05-02T13:05:08Z</time></trkpt><trkpt lat="44.116780027856734" lon="12.248600769143659"><ele>73.0</ele><time>2026-05-02T13:05:16Z</time></trkpt><trkpt lat="44.11672991622638" lon="12.248657385283227"><ele>73.0</ele><time>2026-05-02T13:05:23Z</time></trkpt><trkpt lat="44.116678601054176" lon="12.248714514259198"><ele>73.0</ele><time>2026-05-02T13:05:30Z</time></trkpt><trkpt lat="44.11662166974594" lon="12.24875684468084"><ele>73.0</ele><time>2026-05-02T13:05:37Z</time></trkpt><trkpt lat="44.116561292853774" lon="12.248806498492069"><ele>75.28571428571428</ele><time>2026-05-02T13:05:44Z</time></trkpt><trkpt lat="44.11650502198304" lon="12.248856044450546"><ele>77.57142857142857</ele><time>2026-05-02T13:05:51Z</time></trkpt><trkpt lat="44.116438389047524" lon="12.248885061928265"><ele>79.85714285714286</ele><time>2026-05-02T13:05:58Z</time></trkpt><trkpt lat="44.11637436958117" lon="12.248916839564227"><ele>82.14285714285714</ele><time>2026-05-02T13:06:05Z</time></trkpt><trkpt lat="44.11630963416248" lon="12.248946800188902"><ele>84.42857142857143</ele><time>2026-05-02T13:06:11Z</time></trkpt><trkpt lat="44.11623975228602" lon="12.248980989799138"><ele>86.71428571428571</ele><time>2026-05-02T13:06:17.999Z</time></trkpt><trkpt lat="44.11618179679582" lon="12.249025581892518"><ele>89.0</ele><time>2026-05-02T13:06:24.999Z</time></trkpt><trkpt lat="44.116122374810814" lon="12.249066508058633"><ele>88.99999999999999</ele><time>2026-05-02T13:06:29.999Z</time></trkpt><trkpt lat="44.11608079955492" lon="12.249140904167533"><ele>89.0</ele><time>2026-05-02T13:06:35.999Z</time></trkpt><trkpt lat="44.11604637033584" lon="12.249228309931137"><ele>89.0</ele><time>2026-05-02T13:06:42.999Z</time></trkpt><trkpt lat="44.116030151125784" lon="12.249324461196851"><ele>89.0</ele><time>2026-05-02T13:06:49.999Z</time></trkpt><trkpt lat="44.11601903805048" lon="12.249411386420547"><ele>89.0</ele><time>2026-05-02T13:06:56Z</time></trkpt><trkpt lat="44.11598750312191" lon="12.24948914947462"><ele>88.99999999999999</ele><time>2026-05-02T13:07:01Z</time></trkpt><trkpt lat="44.11596440517988" lon="12.249574136232606"><ele>89.0</ele><time>2026-05-02T13:07:06Z</time></trkpt><trkpt lat="44.115915795719815" lon="12.24964823883882"><ele>88.99999999999999</ele><time>2026-05-02T13:07:12Z</time></trkpt><trkpt lat="44.115863656599466" lon="12.249719389972094"><ele>89.0</ele><time>2026-05-02T13:07:18Z</time></trkpt><trkpt lat="44.115812329132986" lon="12.249774712737922"><ele>89.0</ele><time>2026-05-02T13:07:23Z</time></trkpt><trkpt lat="44.11575456321425" lon="12.24982360373357"><ele>89.0</ele><time>2026-05-02T13:07:28Z</time></trkpt><trkpt lat="44.11569909006403" lon="12.249877443449506"><ele>89.0</ele><time>2026-05-02T13:07:34Z</time></trkpt><trkpt lat="44.11564334043735" lon="12.24992526568962"><ele>88.99999999999999</ele><time>2026-05-02T13:07:40Z</time></trkpt><trkpt lat="44.11558648504215" lon="12.24997175352527"><ele>89.0</ele><time>2026-05-02T13:07:46Z</time></trkpt><trkpt lat="44.11554008438315" lon="12.250053296599939"><ele>90.85714285714285</ele><time>2026-05-02T13:07:53Z</time></trkpt><trkpt lat="44.11551750243944" lon="12.250150170541817"><ele>92.71428571428571</ele><time>2026-05-02T13:08:00Z</time></trkpt><trkpt lat="44.115520358872566" lon="12.2502401037061"><ele>94.57142857142857</ele><time>2026-05-02T13:08:06Z</time></trkpt><trkpt lat="44.11554281481666" lon="12.250339017870349"><ele>96.42857142857142</ele><time>2026-05-02T13:08:13Z</time></trkpt><trkpt lat="44.115591131825205" lon="12.250399059813214"><ele>98.28571428571429</ele><time>2026-05-02T13:08:19Z</time></trkpt><trkpt lat="44.11563774659102" lon="12.250473599584094"><ele>100.14285714285714</ele><time>2026-05-02T13:08:24.999Z</time></trkpt><trkpt lat="44.11567998421727" lon="12.250545552097213"><ele>102.0</ele><time>2026-05-02T13:08:30.999Z</time></trkpt><trkpt lat="44.1157179273592" lon="12.250618249565695"><ele>102.57142857142857</ele><time>2026-05-02T13:08:36.999Z</time></trkpt><trkpt lat="44.11572889187311" lon="12.250710742227264"><ele>103.14285714285714</ele><time>2026-05-02T13:08:42.999Z</time></trkpt><trkpt lat="44.115727593685556" lon="12.250820473540312"><ele>103.71428571428572</ele><time>2026-05-02T13:08:49.999Z</time></trkpt><trkpt lat="44.11570956038744" lon="12.250910418782185"><ele>104.28571428571428</ele><time>2026-05-02T13:08:54.999Z</time></trkpt><trkpt lat="44.1156804056045" lon="12.25099146691622"><ele>104.85714285714285</ele><time>2026-05-02T13:09:00Z</time></trkpt><trkpt lat="44.11565529045229" lon="12.251089414448666"><ele>105.42857142857143</ele><time>2026-05-02T13:09:06Z</time></trkpt><trkpt lat="44.11560814434934" lon="12.251156328733572"><ele>106.0</ele><time>2026-05-02T13:09:11Z</time></trkpt><trkpt lat="44.115583188276126" lon="12.251236858723669"><ele>106.0</ele><time>2026-05-02T13:09:16Z</time></trkpt><trkpt lat="44.115544935356944" lon="12.25130693817324"><ele>106.0</ele><time>2026-05-02T13:09:21Z</time></trkpt><trkpt lat="44.11551266458081" lon="12.251394472415505"><ele>106.0</ele><time>2026-05-02T13:09:28Z</time></trkpt><trkpt lat="44.115481343235615" lon="12.25148361296478"><ele>106.0</ele><time>2026-05-02T13:09:36Z</time></trkpt><trkpt lat="44.11545608396157" lon="12.251566647495993"><ele>106.0</ele><time>2026-05-02T13:09:42Z</time></trkpt><trkpt lat="44.115434724548415" lon="12.251649238954334"><ele>106.0</ele><time>2026-05-02T13:09:48Z</time></trkpt><trkpt lat="44.115424944945026" lon="12.25173826821948"><ele>106.0</ele><time>2026-05-02T13:09:55Z</time></trkpt><trkpt lat="44.11543735060116" lon="12.251836715344607"><ele>107.0</ele><time>2026-05-02T13:10:03Z</time></trkpt><trkpt lat="44.11542632296274" lon="12.251927378304417"><ele>108.0</ele><time>2026-05-02T13:10:10Z</time></trkpt><trkpt lat="44.11541098995354" lon="12.252013056921694"><ele>109.0</ele><time>2026-05-02T13:10:17Z</time></trkpt><trkpt lat="44.11538844374447" lon="12.252097907242677"><ele>110.0</ele><time>2026-05-02T13:10:24Z</time></trkpt><trkpt lat="44.11533247148223" lon="12.252150946969856"><ele>111.0</ele><time>2026-05-02T13:10:32Z</time></trkpt><trkpt lat="44.11527951763721" lon="12.252214597491932"><ele>112.0</ele><time>2026-05-02T13:10:39.999Z</time></trkpt><trkpt lat="44.11522521879543" lon="12.25226966478421"><ele>113.0</ele><time>2026-05-02T13:10:46.999Z</time></trkpt><trkpt lat="44.11517287132706" lon="12.252326528017141"><ele>113.85714285714286</ele><time>2026-05-02T13:10:54.999Z</time></trkpt><trkpt lat="44.11511532704578" lon="12.252374604500936"><ele>114.71428571428571</ele><time>2026-05-02T13:11:00.999Z</time></trkpt><trkpt lat="44.115058584495905" lon="12.252430162581375"><ele>115.57142857142857</ele><time>2026-05-02T13:11:09Z</time></trkpt><trkpt lat="44.115001019978884" lon="12.252486808055496"><ele>116.42857142857143</ele><time>2026-05-02T13:11:16Z</time></trkpt><trkpt lat="44.114947921594705" lon="12.252541174479468"><ele>117.28571428571428</ele><time>2026-05-02T13:11:22Z</time></trkpt><trkpt lat="44.11489539004111" lon="12.252590771829393"><ele>118.14285714285714</ele><time>2026-05-02T13:11:28Z</time></trkpt><trkpt lat="44.1148395377574" lon="12.25263880968723"><ele>119.0</ele><time>2026-05-02T13:11:35Z</time></trkpt><trkpt lat="44.11478854657777" lon="12.252703731697611"><ele>122.28571428571428</ele><time>2026-05-02T13:11:42Z</time></trkpt><trkpt lat="44.114739313044154" lon="12.25276147162931"><ele>125.57142857142857</ele><time>2026-05-02T13:11:49Z</time></trkpt><trkpt lat="44.11468117388424" lon="12.252823204707669"><ele>128.85714285714286</ele><time>2026-05-02T13:11:57Z</time></trkpt><trkpt lat="44.11462819956569" lon="12.25288876946407"><ele>132.14285714285714</ele><time>2026-05-02T13:12:05Z</time></trkpt><trkpt lat="44.11458217405582" lon="12.25295341271484"><ele>135.42857142857142</ele><time>2026-05-02T13:12:14Z</time></trkpt><trkpt lat="44.114533554776315" lon="12.253017669646308"><ele>138.71428571428572</ele><time>2026-05-02T13:12:21Z</time></trkpt><trkpt lat="44.11449377671798" lon="12.25309452233265"><ele>142.0</ele><time>2026-05-02T13:12:29Z</time></trkpt><trkpt lat="44.11444378196955" lon="12.25315292801265"><ele>142.0</ele><time>2026-05-02T13:12:36Z</time></trkpt><trkpt lat="44.11439687483168" lon="12.253225149100004"><ele>142.0</ele><time>2026-05-02T13:12:43.999Z</time></trkpt><trkpt lat="44.11434695849644" lon="12.253290580612703"><ele>142.0</ele><time>2026-05-02T13:12:52.999Z</time></trkpt><trkpt lat="44.11430815285867" lon="12.253362822707734"><ele>142.0</ele><time>2026-05-02T13:13:00.999Z</time></trkpt><trkpt lat="44.11428886086477" lon="12.25345929314687"><ele>142.0</ele><time>2026-05-02T13:14:58.999Z</time></trkpt><trkpt lat="44.11429421184874" lon="12.253546823144736"><ele>142.0</ele><time>2026-05-02T13:15:00.999Z</time></trkpt><trkpt lat="44.114304903514544" lon="12.253652573499963"><ele>142.0</ele><time>2026-05-02T13:15:02.999Z</time></trkpt><trkpt lat="44.11432068763395" lon="12.253771321469458"><ele>142.0</ele><time>2026-05-02T13:15:04.999Z</time></trkpt><trkpt lat="44.11432953695899" lon="12.253897358522416"><ele>142.0</ele><time>2026-05-02T13:15:06.999Z</time></trkpt><trkpt lat="44.114349069973386" lon="12.254030086061372"><ele>142.0</ele><time>2026-05-02T13:15:08.999Z</time></trkpt><trkpt lat="44.11437621348591" lon="12.254155968930537"><ele>142.0</ele><time>2026-05-02T13:15:10.999Z</time></trkpt><trkpt lat="44.11437335295808" lon="12.254245579283054"><ele>142.0</ele><time>2026-05-02T13:15:12.999Z</time></trkpt><trkpt lat="44.11430132887014" lon="12.254280272095063"><ele>142.0</ele><time>2026-05-02T13:15:16Z</time></trkpt><trkpt lat="44.114227620016564" lon="12.254279890989949"><ele>141.0</ele><time>2026-05-02T13:15:18Z</time></trkpt><trkpt lat="44.11413807013384" lon="12.25426213203545"><ele>140.0</ele><time>2026-05-02T13:15:21Z</time></trkpt><trkpt lat="44.11406723132641" lon="12.254254277735594"><ele>139.0</ele><time>2026-05-02T13:15:23Z</time></trkpt><trkpt lat="44.11398318941218" lon="12.254247200701741"><ele>138.0</ele><time>2026-05-02T13:15:26Z</time></trkpt><trkpt lat="44.11391908322719" lon="12.254237038508075"><ele>137.0</ele><time>2026-05-02T13:15:29Z</time></trkpt><trkpt lat="44.113856424817975" lon="12.254228439148177"><ele>136.0</ele><time>2026-05-02T13:15:33Z</time></trkpt><trkpt lat="44.11378093223796" lon="12.254207590642018"><ele>135.85714285714283</ele><time>2026-05-02T13:15:38Z</time></trkpt><trkpt lat="44.11371856310565" lon="12.254160003836738"><ele>135.71428571428572</ele><time>2026-05-02T13:15:44Z</time></trkpt><trkpt lat="44.11366219348106" lon="12.254088212245613"><ele>135.57142857142856</ele><time>2026-05-02T13:15:50Z</time></trkpt><trkpt lat="44.11360356238719" lon="12.254044265612754"><ele>135.42857142857142</ele><time>2026-05-02T13:15:55Z</time></trkpt><trkpt lat="44.113548282247436" lon="12.253993042037047"><ele>135.28571428571428</ele><time>2026-05-02T13:16:00Z</time></trkpt><trkpt lat="44.11350303436272" lon="12.253910539362026"><ele>135.14285714285714</ele><time>2026-05-02T13:16:05Z</time></trkpt><trkpt lat="44.11344603105657" lon="12.253816861348067"><ele>135.0</ele><time>2026-05-02T13:16:10Z</time></trkpt><trkpt lat="44.11340651876861" lon="12.253722168765366"><ele>136.66666666666666</ele><time>2026-05-02T13:16:13Z</time></trkpt><trkpt lat="44.113363005443794" lon="12.253652422877044"><ele>138.33333333333334</ele><time>2026-05-02T13:16:15Z</time></trkpt><trkpt lat="44.11331463657908" lon="12.253556947201872"><ele>140.0</ele><time>2026-05-02T13:16:17Z</time></trkpt><trkpt lat="44.113260782142994" lon="12.253465140706075"><ele>141.66666666666669</ele><time>2026-05-02T13:16:19Z</time></trkpt><trkpt lat="44.11320897596401" lon="12.25336375238539"><ele>143.33333333333334</ele><time>2026-05-02T13:16:21Z</time></trkpt><trkpt lat="44.11316389151101" lon="12.253274818150453"><ele>145.0</ele><time>2026-05-02T13:16:23Z</time></trkpt><trkpt lat="44.113106908937056" lon="12.253171008478983"><ele>143.33333333333334</ele><time>2026-05-02T13:16:25Z</time></trkpt><trkpt lat="44.11305092302397" lon="12.253072814339143"><ele>141.66666666666669</ele><time>2026-05-02T13:16:27Z</time></trkpt><trkpt lat="44.11301111716714" lon="12.252984889439256"><ele>140.0</ele><time>2026-05-02T13:16:28Z</time></trkpt><trkpt lat="44.112967102527826" lon="12.252913244859162"><ele>138.33333333333334</ele><time>2026-05-02T13:16:29Z</time></trkpt><trkpt lat="44.11290379857999" lon="12.252859776155688"><ele>136.66666666666666</ele><time>2026-05-02T13:16:30Z</time></trkpt><trkpt lat="44.11287308515645" lon="12.252731792644763"><ele>135.0</ele><time>2026-05-02T13:16:31Z</time></trkpt><trkpt lat="44.11279558011917" lon="12.252662347168306"><ele>135.0</ele><time>2026-05-02T13:16:32Z</time></trkpt><trkpt lat="44.112709328661516" lon="12.252620127454582"><ele>135.0</ele><time>2026-05-02T13:16:33Z</time></trkpt><trkpt lat="44.112625757743565" lon="12.252573513073795"><ele>135.0</ele><time>2026-05-02T13:16:34Z</time></trkpt><trkpt lat="44.11253617493121" lon="12.252535734424717"><ele>135.0</ele><time>2026-05-02T13:16:35Z</time></trkpt><trkpt lat="44.11246049745701" lon="12.252492106988843"><ele>135.0</ele><time>2026-05-02T13:16:36Z</time></trkpt><trkpt lat="44.11236304193129" lon="12.252459019293768"><ele>131.0</ele><time>2026-05-02T13:16:37Z</time></trkpt><trkpt lat="44.11227839732277" lon="12.252443903994976"><ele>127.0</ele><time>2026-05-02T13:16:38Z</time></trkpt><trkpt lat="44.11214519920884" lon="12.252427577262331"><ele>123.0</ele><time>2026-05-02T13:16:40Z</time></trkpt><trkpt lat="44.112066702437744" lon="12.252434858625668"><ele>119.0</ele><time>2026-05-02T13:16:41Z</time></trkpt><trkpt lat="44.11198026626815" lon="12.252424021732079"><ele>115.0</ele><time>2026-05-02T13:16:42Z</time></trkpt><trkpt lat="44.111908160374306" lon="12.252359679074399"><ele>115.0</ele><time>2026-05-02T13:16:43Z</time></trkpt><trkpt lat="44.11178485273653" lon="12.252437650184573"><ele>115.0</ele><time>2026-05-02T13:16:45Z</time></trkpt><trkpt lat="44.111698710676414" lon="12.252496295281542"><ele>115.0</ele><time>2026-05-02T13:16:46Z</time></trkpt><trkpt lat="44.11160099523776" lon="12.252544249072654"><ele>115.0</ele><time>2026-05-02T13:16:47Z</time></trkpt><trkpt lat="44.11150136784129" lon="12.252620613492189"><ele>115.0</ele><time>2026-05-02T13:16:48Z</time></trkpt><trkpt lat="44.11140602478156" lon="12.252690817019188"><ele>113.0</ele><time>2026-05-02T13:16:49Z</time></trkpt><trkpt lat="44.11131748945293" lon="12.252751629942251"><ele>111.0</ele><time>2026-05-02T13:16:50Z</time></trkpt><trkpt lat="44.111232074294925" lon="12.25281068429454"><ele>109.0</ele><time>2026-05-02T13:16:51Z</time></trkpt><trkpt lat="44.1111488051406" lon="12.252875390717024"><ele>107.0</ele><time>2026-05-02T13:16:52Z</time></trkpt><trkpt lat="44.11106977854269" lon="12.252944071126485"><ele>105.0</ele><time>2026-05-02T13:16:53Z</time></trkpt><trkpt lat="44.111003815364704" lon="12.252996140063884"><ele>105.0</ele><time>2026-05-02T13:16:54Z</time></trkpt><trkpt lat="44.11093499218868" lon="12.253035161764627"><ele>105.0</ele><time>2026-05-02T13:16:55Z</time></trkpt><trkpt lat="44.11085180693459" lon="12.25310007406571"><ele>105.0</ele><time>2026-05-02T13:16:56Z</time></trkpt><trkpt lat="44.110744590167045" lon="12.253188504460464"><ele>105.0</ele><time>2026-05-02T13:16:56.999Z</time></trkpt><trkpt lat="44.11069248182075" lon="12.253244854821677"><ele>105.0</ele><time>2026-05-02T13:16:57.999Z</time></trkpt><trkpt lat="44.11062397732405" lon="12.253298737353864"><ele>105.0</ele><time>2026-05-02T13:16:58.999Z</time></trkpt><trkpt lat="44.11046908314948" lon="12.253437301906084"><ele>102.33333333333333</ele><time>2026-05-02T13:17:00.999Z</time></trkpt><trkpt lat="44.110402161848555" lon="12.253513240007052"><ele>99.66666666666667</ele><time>2026-05-02T13:17:01.999Z</time></trkpt><trkpt lat="44.110341641439355" lon="12.253581370808416"><ele>97.0</ele><time>2026-05-02T13:17:02.999Z</time></trkpt><trkpt lat="44.11029044202519" lon="12.253653651944516"><ele>94.33333333333334</ele><time>2026-05-02T13:17:03.999Z</time></trkpt><trkpt lat="44.11023334763454" lon="12.253731694923443"><ele>91.66666666666667</ele><time>2026-05-02T13:17:04.999Z</time></trkpt><trkpt lat="44.1101765426805" lon="12.253812086395204"><ele>89.0</ele><time>2026-05-02T13:17:05.999Z</time></trkpt><trkpt lat="44.11012463682596" lon="12.253883997154885"><ele>87.6</ele><time>2026-05-02T13:17:06.999Z</time></trkpt><trkpt lat="44.11003957927715" lon="12.254017256565392"><ele>86.2</ele><time>2026-05-02T13:17:08.999Z</time></trkpt><trkpt lat="44.1099988719702" lon="12.254090879303568"><ele>84.8</ele><time>2026-05-02T13:17:09.999Z</time></trkpt><trkpt lat="44.10992449824505" lon="12.254216445406602"><ele>83.39999999999999</ele><time>2026-05-02T13:17:11.999Z</time></trkpt><trkpt lat="44.10986629113021" lon="12.254305702908022"><ele>82.0</ele><time>2026-05-02T13:17:13.999Z</time></trkpt><trkpt lat="44.1098120036682" lon="12.254441954161509"><ele>80.39999999999999</ele><time>2026-05-02T13:17:15.999Z</time></trkpt><trkpt lat="44.10977050040875" lon="12.254523562657193"><ele>78.8</ele><time>2026-05-02T13:17:16.999Z</time></trkpt><trkpt lat="44.1097396566963" lon="12.25461255066467"><ele>77.2</ele><time>2026-05-02T13:17:17.999Z</time></trkpt><trkpt lat="44.10970283629368" lon="12.254693408070555"><ele>75.6</ele><time>2026-05-02T13:17:18.999Z</time></trkpt><trkpt lat="44.10967258349892" lon="12.254854692719924"><ele>74.0</ele><time>2026-05-02T13:17:20.999Z</time></trkpt><trkpt lat="44.10966398206251" lon="12.255028194771251"><ele>72.60000000000001</ele><time>2026-05-02T13:17:23Z</time></trkpt><trkpt lat="44.10967014204378" lon="12.255117873925188"><ele>71.2</ele><time>2026-05-02T13:17:24Z</time></trkpt><trkpt lat="44.1096735393508" lon="12.255270236050933"><ele>69.80000000000001</ele><time>2026-05-02T13:17:26Z</time></trkpt><trkpt lat="44.10971592169052" lon="12.255424026090838"><ele>68.4</ele><time>2026-05-02T13:17:28Z</time></trkpt><trkpt lat="44.10975434791844" lon="12.255580524661154"><ele>67.0</ele><time>2026-05-02T13:17:30Z</time></trkpt><trkpt lat="44.10973188053606" lon="12.255715365102223"><ele>66.0</ele><time>2026-05-02T13:17:32Z</time></trkpt><trkpt lat="44.109673023085655" lon="12.255763052940084"><ele>65.0</ele><time>2026-05-02T13:17:33Z</time></trkpt><trkpt lat="44.10959842549468" lon="12.255878559594997"><ele>64.0</ele><time>2026-05-02T13:17:35Z</time></trkpt><trkpt lat="44.10952573253541" lon="12.255945287667103"><ele>63.0</ele><time>2026-05-02T13:17:38Z</time></trkpt><trkpt lat="44.10945237506645" lon="12.255986418394553"><ele>62.0</ele><time>2026-05-02T13:17:41Z</time></trkpt><trkpt lat="44.1094956391802" lon="12.256146827038576"><ele>62.00000000000001</ele><time>2026-05-02T13:17:43Z</time></trkpt><trkpt lat="44.10953520085585" lon="12.256223693040424"><ele>62.0</ele><time>2026-05-02T13:17:45Z</time></trkpt><trkpt lat="44.10958061167555" lon="12.25630715979684"><ele>62.0</ele><time>2026-05-02T13:17:47Z</time></trkpt><trkpt lat="44.10963069854672" lon="12.256397526630204"><ele>62.0</ele><time>2026-05-02T13:17:49Z</time></trkpt><trkpt lat="44.10969093982711" lon="12.25648459662234"><ele>62.00000000000001</ele><time>2026-05-02T13:17:51Z</time></trkpt><trkpt lat="44.10975269032816" lon="12.256575332016912"><ele>62.0</ele><time>2026-05-02T13:17:53Z</time></trkpt><trkpt lat="44.10981867858821" lon="12.256671049433683"><ele>62.2</ele><time>2026-05-02T13:17:55Z</time></trkpt><trkpt lat="44.109884704762635" lon="12.256766821246194"><ele>62.400000000000006</ele><time>2026-05-02T13:17:57Z</time></trkpt><trkpt lat="44.10994908775485" lon="12.256858847606583"><ele>62.599999999999994</ele><time>2026-05-02T13:17:59Z</time></trkpt><trkpt lat="44.11001349673091" lon="12.25695112775656"><ele>62.8</ele><time>2026-05-02T13:18:01Z</time></trkpt><trkpt lat="44.11007563161586" lon="12.257040149687237"><ele>63.0</ele><time>2026-05-02T13:18:03Z</time></trkpt><trkpt lat="44.110137976120335" lon="12.257133746714372"><ele>63.0</ele><time>2026-05-02T13:18:05Z</time></trkpt><trkpt lat="44.11020454950925" lon="12.257240647854518"><ele>63.0</ele><time>2026-05-02T13:18:07Z</time></trkpt><trkpt lat="44.11026528828635" lon="12.257355793789547"><ele>63.0</ele><time>2026-05-02T13:18:09Z</time></trkpt><trkpt lat="44.11031483805286" lon="12.257476959618131"><ele>63.0</ele><time>2026-05-02T13:18:11Z</time></trkpt><trkpt lat="44.11037780099142" lon="12.257594810461898"><ele>63.0</ele><time>2026-05-02T13:18:13Z</time></trkpt><trkpt lat="44.110418792844776" lon="12.257718757584637"><ele>63.2</ele><time>2026-05-02T13:18:15Z</time></trkpt><trkpt lat="44.110463352304954" lon="12.257841812390119"><ele>63.4</ele><time>2026-05-02T13:18:17Z</time></trkpt><trkpt lat="44.11052581713612" lon="12.257955268273353"><ele>63.60000000000001</ele><time>2026-05-02T13:18:19Z</time></trkpt><trkpt lat="44.11060970080034" lon="12.258041313733258"><ele>63.800000000000004</ele><time>2026-05-02T13:18:21Z</time></trkpt><trkpt lat="44.110700902014955" lon="12.258112726354385"><ele>64.0</ele><time>2026-05-02T13:18:23Z</time></trkpt><trkpt lat="44.110794486822066" lon="12.258188688346316"><ele>63.2</ele><time>2026-05-02T13:18:25Z</time></trkpt><trkpt lat="44.11088795876271" lon="12.258267580566494"><ele>62.400000000000006</ele><time>2026-05-02T13:18:27Z</time></trkpt><trkpt lat="44.11097731286964" lon="12.25835540472841"><ele>61.6</ele><time>2026-05-02T13:18:29Z</time></trkpt><trkpt lat="44.11105659583483" lon="12.258468189312238"><ele>60.8</ele><time>2026-05-02T13:18:31Z</time></trkpt><trkpt lat="44.111127620979055" lon="12.258595528743088"><ele>60.0</ele><time>2026-05-02T13:18:33Z</time></trkpt><trkpt lat="44.111193564955194" lon="12.258732008494878"><ele>60.0</ele><time>2026-05-02T13:18:35Z</time></trkpt><trkpt lat="44.11125444584224" lon="12.258876804535513"><ele>60.0</ele><time>2026-05-02T13:18:37Z</time></trkpt><trkpt lat="44.11129117318836" lon="12.258950328353619"><ele>60.0</ele><time>2026-05-02T13:18:38Z</time></trkpt><trkpt lat="44.11137295503422" lon="12.259075636653577"><ele>60.0</ele><time>2026-05-02T13:18:40Z</time></trkpt><trkpt lat="44.11141990979792" lon="12.259134847513751"><ele>60.0</ele><time>2026-05-02T13:18:41Z</time></trkpt><trkpt lat="44.11146727050708" lon="12.259196207351486"><ele>60.0</ele><time>2026-05-02T13:18:42Z</time></trkpt><trkpt lat="44.11151476138171" lon="12.259255929252687"><ele>59.8</ele><time>2026-05-02T13:18:43Z</time></trkpt><trkpt lat="44.111568422734265" lon="12.259305993251857"><ele>59.6</ele><time>2026-05-02T13:18:44Z</time></trkpt><trkpt lat="44.111667618589514" lon="12.259420419972875"><ele>59.400000000000006</ele><time>2026-05-02T13:18:46Z</time></trkpt><trkpt lat="44.11176330052167" lon="12.259537131838927"><ele>59.2</ele><time>2026-05-02T13:18:48Z</time></trkpt><trkpt lat="44.11181703467608" lon="12.259595768976043"><ele>59.0</ele><time>2026-05-02T13:18:49Z</time></trkpt><trkpt lat="44.111871461972434" lon="12.259653643941554"><ele>59.0</ele><time>2026-05-02T13:18:50Z</time></trkpt><trkpt lat="44.1119223579773" lon="12.259718748660422"><ele>59.0</ele><time>2026-05-02T13:18:51Z</time></trkpt><trkpt lat="44.11197066781292" lon="12.259781595806441"><ele>59.0</ele><time>2026-05-02T13:18:52Z</time></trkpt><trkpt lat="44.11202284467623" lon="12.259849123414945"><ele>59.0</ele><time>2026-05-02T13:18:53Z</time></trkpt><trkpt lat="44.11206935321862" lon="12.259914387399864"><ele>59.0</ele><time>2026-05-02T13:18:54Z</time></trkpt><trkpt lat="44.11211808701568" lon="12.259983814008264"><ele>59.0</ele><time>2026-05-02T13:18:55Z</time></trkpt><trkpt lat="44.11216611224552" lon="12.26005113161755"><ele>59.0</ele><time>2026-05-02T13:18:56Z</time></trkpt><trkpt lat="44.112213352284755" lon="12.260119295001616"><ele>58.857142857142854</ele><time>2026-05-02T13:18:57Z</time></trkpt><trkpt lat="44.11226217284583" lon="12.260185203593636"><ele>58.71428571428572</ele><time>2026-05-02T13:18:58Z</time></trkpt><trkpt lat="44.11231085602326" lon="12.2602527623323"><ele>58.57142857142858</ele><time>2026-05-02T13:18:59Z</time></trkpt><trkpt lat="44.112345148227824" lon="12.260335593954654"><ele>58.42857142857143</ele><time>2026-05-02T13:19:00Z</time></trkpt><trkpt lat="44.11239221028136" lon="12.260403785108192"><ele>58.28571428571429</ele><time>2026-05-02T13:19:01Z</time></trkpt><trkpt lat="44.11244239615601" lon="12.260473721138613"><ele>58.14285714285715</ele><time>2026-05-02T13:19:02Z</time></trkpt><trkpt lat="44.112491115122594" lon="12.26054504790794"><ele>58.00000000000001</ele><time>2026-05-02T13:19:02.999Z</time></trkpt><trkpt lat="44.11253509028765" lon="12.260613521437605"><ele>57.71428571428572</ele><time>2026-05-02T13:19:03.999Z</time></trkpt><trkpt lat="44.11257770205574" lon="12.260686795235339"><ele>57.42857142857143</ele><time>2026-05-02T13:19:04.999Z</time></trkpt><trkpt lat="44.1126105255418" lon="12.260768346577967"><ele>57.142857142857146</ele><time>2026-05-02T13:19:05.999Z</time></trkpt><trkpt lat="44.112643444916046" lon="12.260848624871397"><ele>56.85714285714286</ele><time>2026-05-02T13:19:06.999Z</time></trkpt><trkpt lat="44.11267404108069" lon="12.260931397434927"><ele>56.57142857142857</ele><time>2026-05-02T13:19:07.999Z</time></trkpt><trkpt lat="44.11270452602573" lon="12.261012556733368"><ele>56.285714285714285</ele><time>2026-05-02T13:19:08.999Z</time></trkpt><trkpt lat="44.11273863517018" lon="12.261092101095981"><ele>56.0</ele><time>2026-05-02T13:19:09.999Z</time></trkpt><trkpt lat="44.112776237897286" lon="12.26117277014576"><ele>56.0</ele><time>2026-05-02T13:19:10.999Z</time></trkpt><trkpt lat="44.11281652247997" lon="12.261256094262803"><ele>56.0</ele><time>2026-05-02T13:19:11.999Z</time></trkpt><trkpt lat="44.11285502855923" lon="12.261332059379303"><ele>56.0</ele><time>2026-05-02T13:19:12.999Z</time></trkpt><trkpt lat="44.11289680976524" lon="12.261413328715133"><ele>56.0</ele><time>2026-05-02T13:19:13.999Z</time></trkpt><trkpt lat="44.112939832994684" lon="12.261493012479947"><ele>56.0</ele><time>2026-05-02T13:19:14.999Z</time></trkpt><trkpt lat="44.11298244503178" lon="12.261571934498011"><ele>56.0</ele><time>2026-05-02T13:19:15.999Z</time></trkpt><trkpt lat="44.11302512755354" lon="12.261653255236233"><ele>56.0</ele><time>2026-05-02T13:19:16.999Z</time></trkpt><trkpt lat="44.11306746818586" lon="12.26173480560064"><ele>56.0</ele><time>2026-05-02T13:19:17.999Z</time></trkpt><trkpt lat="44.11310924216763" lon="12.261815944060015"><ele>56.0</ele><time>2026-05-02T13:19:18.999Z</time></trkpt><trkpt lat="44.11315293865732" lon="12.261900816628904"><ele>56.0</ele><time>2026-05-02T13:19:19.999Z</time></trkpt><trkpt lat="44.11319650052643" lon="12.26198542762293"><ele>56.0</ele><time>2026-05-02T13:19:20.999Z</time></trkpt><trkpt lat="44.11323758150324" lon="12.26206521991159"><ele>56.0</ele><time>2026-05-02T13:19:21.999Z</time></trkpt><trkpt lat="44.113278302205366" lon="12.262144312574875"><ele>56.0</ele><time>2026-05-02T13:19:22.999Z</time></trkpt><trkpt lat="44.11331900978349" lon="12.262223379566622"><ele>56.0</ele><time>2026-05-02T13:19:23.999Z</time></trkpt><trkpt lat="44.113359968803486" lon="12.26230293523594"><ele>55.42857142857143</ele><time>2026-05-02T13:19:24.999Z</time></trkpt><trkpt lat="44.113400672648446" lon="12.262381993888448"><ele>54.85714285714286</ele><time>2026-05-02T13:19:25.999Z</time></trkpt><trkpt lat="44.1134400113783" lon="12.262459782056752"><ele>54.285714285714285</ele><time>2026-05-02T13:19:26.999Z</time></trkpt><trkpt lat="44.11348225703078" lon="12.26254281079179"><ele>53.714285714285715</ele><time>2026-05-02T13:19:28Z</time></trkpt><trkpt lat="44.113525013859096" lon="12.262626844154921"><ele>53.142857142857146</ele><time>2026-05-02T13:19:29Z</time></trkpt><trkpt lat="44.113567932654526" lon="12.262711195856212"><ele>52.57142857142857</ele><time>2026-05-02T13:19:30Z</time></trkpt><trkpt lat="44.11360732742825" lon="12.262791361677625"><ele>52.0</ele><time>2026-05-02T13:19:31Z</time></trkpt><trkpt lat="44.11364723540927" lon="12.262874689040851"><ele>52.0</ele><time>2026-05-02T13:19:32Z</time></trkpt><trkpt lat="44.113685595918355" lon="12.26295618942753"><ele>52.0</ele><time>2026-05-02T13:19:33Z</time></trkpt><trkpt lat="44.11372457721406" lon="12.263038720407755"><ele>52.0</ele><time>2026-05-02T13:19:34Z</time></trkpt><trkpt lat="44.11376780209189" lon="12.26312341254883"><ele>52.0</ele><time>2026-05-02T13:19:35Z</time></trkpt><trkpt lat="44.11380825182707" lon="12.263198225750163"><ele>52.0</ele><time>2026-05-02T13:19:36Z</time></trkpt><trkpt lat="44.113858277711834" lon="12.263278778421153"><ele>52.0</ele><time>2026-05-02T13:19:37Z</time></trkpt><trkpt lat="44.113905893241046" lon="12.263350141544962"><ele>52.0</ele><time>2026-05-02T13:19:38Z</time></trkpt><trkpt lat="44.11395331507642" lon="12.26342080652373"><ele>52.285714285714285</ele><time>2026-05-02T13:19:39Z</time></trkpt><trkpt lat="44.11400358224353" lon="12.263492960168167"><ele>52.57142857142858</ele><time>2026-05-02T13:19:40Z</time></trkpt><trkpt lat="44.11405383899314" lon="12.26356471730726"><ele>52.85714285714286</ele><time>2026-05-02T13:19:41Z</time></trkpt><trkpt lat="44.11410376354831" lon="12.263636000134488"><ele>53.14285714285714</ele><time>2026-05-02T13:19:42Z</time></trkpt><trkpt lat="44.11415693411409" lon="12.263711289999815"><ele>53.42857142857143</ele><time>2026-05-02T13:19:43Z</time></trkpt><trkpt lat="44.114202331236456" lon="12.263775502868064"><ele>53.714285714285715</ele><time>2026-05-02T13:19:44Z</time></trkpt><trkpt lat="44.1142538618176" lon="12.263848391199971"><ele>54.0</ele><time>2026-05-02T13:19:45Z</time></trkpt><trkpt lat="44.11430564693001" lon="12.263921639780198"><ele>53.57142857142857</ele><time>2026-05-02T13:19:46Z</time></trkpt><trkpt lat="44.11435432575043" lon="12.263990494394717"><ele>53.14285714285714</ele><time>2026-05-02T13:19:47Z</time></trkpt><trkpt lat="44.11440560012135" lon="12.26406302047553"><ele>52.714285714285715</ele><time>2026-05-02T13:19:48Z</time></trkpt><trkpt lat="44.11446714649303" lon="12.264120812996135"><ele>52.285714285714285</ele><time>2026-05-02T13:19:49Z</time></trkpt><trkpt lat="44.114519618829306" lon="12.264192354003884"><ele>51.85714285714286</ele><time>2026-05-02T13:19:50Z</time></trkpt><trkpt lat="44.11457554897636" lon="12.264258402535766"><ele>51.42857142857143</ele><time>2026-05-02T13:19:51Z</time></trkpt><trkpt lat="44.11461899638556" lon="12.264339178913957"><ele>51.0</ele><time>2026-05-02T13:19:52Z</time></trkpt><trkpt lat="44.11467387671682" lon="12.264404586952816"><ele>51.0</ele><time>2026-05-02T13:19:53Z</time></trkpt><trkpt lat="44.11472760326309" lon="12.264465798866349"><ele>51.0</ele><time>2026-05-02T13:19:54Z</time></trkpt><trkpt lat="44.114785745479644" lon="12.264525343715418"><ele>51.0</ele><time>2026-05-02T13:19:55Z</time></trkpt><trkpt lat="44.11485558845467" lon="12.264563737265071"><ele>51.0</ele><time>2026-05-02T13:19:56Z</time></trkpt><trkpt lat="44.11491786858753" lon="12.264615572596897"><ele>51.0</ele><time>2026-05-02T13:19:57Z</time></trkpt><trkpt lat="44.11497627848108" lon="12.264669969104656"><ele>51.0</ele><time>2026-05-02T13:19:58Z</time></trkpt><trkpt lat="44.11503809598863" lon="12.264725957839303"><ele>51.0</ele><time>2026-05-02T13:19:59Z</time></trkpt><trkpt lat="44.1150958020372" lon="12.264790882650363"><ele>50.714285714285715</ele><time>2026-05-02T13:20:00Z</time></trkpt><trkpt lat="44.11515188892825" lon="12.264854238760181"><ele>50.42857142857143</ele><time>2026-05-02T13:20:01Z</time></trkpt><trkpt lat="44.115205399868294" lon="12.264916610118512"><ele>50.14285714285714</ele><time>2026-05-02T13:20:02Z</time></trkpt><trkpt lat="44.115264059832924" lon="12.264978242770534"><ele>49.85714285714286</ele><time>2026-05-02T13:20:03Z</time></trkpt><trkpt lat="44.11531953664776" lon="12.265036406864104"><ele>49.57142857142857</ele><time>2026-05-02T13:20:04Z</time></trkpt><trkpt lat="44.11537389229543" lon="12.265087768327477"><ele>49.285714285714285</ele><time>2026-05-02T13:20:05Z</time></trkpt><trkpt lat="44.11543830992031" lon="12.265142585577697"><ele>49.0</ele><time>2026-05-02T13:20:06Z</time></trkpt><trkpt lat="44.115500905921515" lon="12.265192250243679"><ele>49.0</ele><time>2026-05-02T13:20:07Z</time></trkpt><trkpt lat="44.11556079566465" lon="12.265227526498697"><ele>49.0</ele><time>2026-05-02T13:20:08Z</time></trkpt><trkpt lat="44.11562736918075" lon="12.265264602993467"><ele>49.0</ele><time>2026-05-02T13:20:09Z</time></trkpt><trkpt lat="44.115692964417605" lon="12.265298111009344"><ele>49.0</ele><time>2026-05-02T13:20:10Z</time></trkpt><trkpt lat="44.11575040217473" lon="12.265352319444364"><ele>49.0</ele><time>2026-05-02T13:20:11Z</time></trkpt><trkpt lat="44.11581432323053" lon="12.265368633092695"><ele>49.0</ele><time>2026-05-02T13:20:12Z</time></trkpt><trkpt lat="44.11587776611523" lon="12.265403011062793"><ele>49.0</ele><time>2026-05-02T13:20:13Z</time></trkpt><trkpt lat="44.115942420364334" lon="12.26543631779232"><ele>48.857142857142854</ele><time>2026-05-02T13:20:14Z</time></trkpt><trkpt lat="44.116005303464604" lon="12.26547314659376"><ele>48.714285714285715</ele><time>2026-05-02T13:20:15Z</time></trkpt><trkpt lat="44.116072208077654" lon="12.265506030464655"><ele>48.57142857142857</ele><time>2026-05-02T13:20:16Z</time></trkpt><trkpt lat="44.11613752434032" lon="12.265533871663512"><ele>48.42857142857143</ele><time>2026-05-02T13:20:17Z</time></trkpt><trkpt lat="44.116203011401865" lon="12.265559328384557"><ele>48.285714285714285</ele><time>2026-05-02T13:20:18Z</time></trkpt><trkpt lat="44.11626944243422" lon="12.265590508271458"><ele>48.14285714285714</ele><time>2026-05-02T13:20:19Z</time></trkpt><trkpt lat="44.11632938858822" lon="12.265620915263643"><ele>48.0</ele><time>2026-05-02T13:20:20Z</time></trkpt><trkpt lat="44.11639324058916" lon="12.265648921047436"><ele>47.833333333333336</ele><time>2026-05-02T13:20:21Z</time></trkpt><trkpt lat="44.11646080751091" lon="12.265678386693228"><ele>47.666666666666664</ele><time>2026-05-02T13:20:22Z</time></trkpt><trkpt lat="44.11652120582678" lon="12.265715164104472"><ele>47.5</ele><time>2026-05-02T13:20:23Z</time></trkpt><trkpt lat="44.11658227847978" lon="12.265760871357148"><ele>47.33333333333333</ele><time>2026-05-02T13:20:24Z</time></trkpt><trkpt lat="44.11669306803484" lon="12.265866632210251"><ele>47.166666666666664</ele><time>2026-05-02T13:20:26Z</time></trkpt><trkpt lat="44.11674855278608" lon="12.265923689373098"><ele>47.0</ele><time>2026-05-02T13:20:27Z</time></trkpt><trkpt lat="44.116860301627185" lon="12.266015650937883"><ele>46.857142857142854</ele><time>2026-05-02T13:20:29Z</time></trkpt><trkpt lat="44.11692106658788" lon="12.266048161720308"><ele>46.71428571428571</ele><time>2026-05-02T13:20:30Z</time></trkpt><trkpt lat="44.11698124565148" lon="12.266078432595018"><ele>46.57142857142857</ele><time>2026-05-02T13:20:31Z</time></trkpt><trkpt lat="44.11704551497217" lon="12.266098849879546"><ele>46.42857142857143</ele><time>2026-05-02T13:20:32Z</time></trkpt><trkpt lat="44.117106490495274" lon="12.266141302162776"><ele>46.285714285714285</ele><time>2026-05-02T13:20:33Z</time></trkpt><trkpt lat="44.117177352441175" lon="12.266142439553878"><ele>46.142857142857146</ele><time>2026-05-02T13:20:34Z</time></trkpt><trkpt lat="44.117242109678436" lon="12.266166327139265"><ele>46.0</ele><time>2026-05-02T13:20:35Z</time></trkpt><trkpt lat="44.11730728368143" lon="12.26618329427406"><ele>46.0</ele><time>2026-05-02T13:20:36Z</time></trkpt><trkpt lat="44.1173717668108" lon="12.266201094467691"><ele>46.0</ele><time>2026-05-02T13:20:37Z</time></trkpt><trkpt lat="44.117490492299204" lon="12.26625307850799"><ele>46.0</ele><time>2026-05-02T13:20:39Z</time></trkpt><trkpt lat="44.117607513394425" lon="12.266299497500901"><ele>46.0</ele><time>2026-05-02T13:20:41Z</time></trkpt><trkpt lat="44.11772389967473" lon="12.266351592402495"><ele>46.0</ele><time>2026-05-02T13:20:43Z</time></trkpt><trkpt lat="44.11783530877808" lon="12.266413330631725"><ele>45.833333333333336</ele><time>2026-05-02T13:20:45Z</time></trkpt><trkpt lat="44.11789871828762" lon="12.266433235608726"><ele>45.66666666666667</ele><time>2026-05-02T13:20:46Z</time></trkpt><trkpt lat="44.11802251969359" lon="12.266456030202912"><ele>45.5</ele><time>2026-05-02T13:20:48Z</time></trkpt><trkpt lat="44.11808615511437" lon="12.266465116766145"><ele>45.333333333333336</ele><time>2026-05-02T13:20:49Z</time></trkpt><trkpt lat="44.11815126212335" lon="12.266474413455821"><ele>45.166666666666664</ele><time>2026-05-02T13:20:50Z</time></trkpt><trkpt lat="44.11821654258213" lon="12.266487042287002"><ele>45.0</ele><time>2026-05-02T13:20:51Z</time></trkpt><trkpt lat="44.11828496797219" lon="12.26648164488494"><ele>44.6</ele><time>2026-05-02T13:20:52Z</time></trkpt><trkpt lat="44.118403006979655" lon="12.266559398050443"><ele>44.2</ele><time>2026-05-02T13:20:54Z</time></trkpt><trkpt lat="44.118463754241944" lon="12.26658570235287"><ele>43.8</ele><time>2026-05-02T13:20:55Z</time></trkpt><trkpt lat="44.11857950320936" lon="12.266635823028862"><ele>43.4</ele><time>2026-05-02T13:20:57Z</time></trkpt><trkpt lat="44.11868022015543" lon="12.266679434712918"><ele>43.0</ele><time>2026-05-02T13:20:59Z</time></trkpt><trkpt lat="44.11867992832636" lon="12.266816276233559"><ele>43.0</ele><time>2026-05-02T13:21:02Z</time></trkpt><trkpt lat="44.11862314395196" lon="12.266899626194263"><ele>43.0</ele><time>2026-05-02T13:21:04Z</time></trkpt><trkpt lat="44.11857544278767" lon="12.266971363974587"><ele>43.0</ele><time>2026-05-02T13:21:06Z</time></trkpt><trkpt lat="44.118540691157584" lon="12.267093895250051"><ele>43.0</ele><time>2026-05-02T13:21:09Z</time></trkpt><trkpt lat="44.11850963035768" lon="12.267176928961945"><ele>43.0</ele><time>2026-05-02T13:21:10.999Z</time></trkpt><trkpt lat="44.11845396635677" lon="12.26724375866229"><ele>43.0</ele><time>2026-05-02T13:21:12.999Z</time></trkpt><trkpt lat="44.118395441395826" lon="12.267343630866533"><ele>43.0</ele><time>2026-05-02T13:21:15.999Z</time></trkpt><trkpt lat="44.11833991036668" lon="12.267411852209841"><ele>43.0</ele><time>2026-05-02T13:21:17.999Z</time></trkpt><trkpt lat="44.118290434740835" lon="12.267494457339987"><ele>43.0</ele><time>2026-05-02T13:21:19.999Z</time></trkpt><trkpt lat="44.11824210638904" lon="12.26756874312615"><ele>43.0</ele><time>2026-05-02T13:21:21.999Z</time></trkpt><trkpt lat="44.118197251497605" lon="12.267643353243411"><ele>43.0</ele><time>2026-05-02T13:21:23.999Z</time></trkpt><trkpt lat="44.11814833690129" lon="12.267729810590524"><ele>43.0</ele><time>2026-05-02T13:21:25.999Z</time></trkpt><trkpt lat="44.11810598969769" lon="12.267827488002094"><ele>43.333333333333336</ele><time>2026-05-02T13:21:27.999Z</time></trkpt><trkpt lat="44.11806296930671" lon="12.267913012449643"><ele>43.66666666666667</ele><time>2026-05-02T13:21:29.999Z</time></trkpt><trkpt lat="44.11802413274085" lon="12.2680056096376"><ele>44.0</ele><time>2026-05-02T13:21:31.999Z</time></trkpt><trkpt lat="44.11797697645662" lon="12.268100195241656"><ele>44.333333333333336</ele><time>2026-05-02T13:21:34Z</time></trkpt><trkpt lat="44.117945110626714" lon="12.268176148498508"><ele>44.666666666666664</ele><time>2026-05-02T13:21:36Z</time></trkpt><trkpt lat="44.117911854123605" lon="12.268274620069617"><ele>45.0</ele><time>2026-05-02T13:21:38Z</time></trkpt><trkpt lat="44.117869370121696" lon="12.268381241511937"><ele>45.5</ele><time>2026-05-02T13:21:41Z</time></trkpt><trkpt lat="44.117830684485604" lon="12.268474386548174"><ele>46.0</ele><time>2026-05-02T13:21:43Z</time></trkpt><trkpt lat="44.117800552342715" lon="12.268596961395488"><ele>46.5</ele><time>2026-05-02T13:21:46Z</time></trkpt><trkpt lat="44.1177862329507" lon="12.268699943895223"><ele>47.0</ele><time>2026-05-02T13:21:49Z</time></trkpt><trkpt lat="44.11778834262005" lon="12.268808460204497"><ele>47.5</ele><time>2026-05-02T13:21:52Z</time></trkpt><trkpt lat="44.11780444189529" lon="12.268900569321419"><ele>48.0</ele><time>2026-05-02T13:21:55Z</time></trkpt><trkpt lat="44.117801957416575" lon="12.268994859503998"><ele>48.857142857142854</ele><time>2026-05-02T13:21:58Z</time></trkpt><trkpt lat="44.11779975699448" lon="12.269090915854376"><ele>49.714285714285715</ele><time>2026-05-02T13:22:01Z</time></trkpt><trkpt lat="44.11779137473875" lon="12.269180041010795"><ele>50.57142857142857</ele><time>2026-05-02T13:22:04Z</time></trkpt><trkpt lat="44.1177984106368" lon="12.269295665528167"><ele>51.42857142857143</ele><time>2026-05-02T13:22:08Z</time></trkpt><trkpt lat="44.11779330102585" lon="12.269413938925581"><ele>52.285714285714285</ele><time>2026-05-02T13:22:12Z</time></trkpt><trkpt lat="44.117795132675646" lon="12.269518774553065"><ele>53.14285714285714</ele><time>2026-05-02T13:22:16Z</time></trkpt><trkpt lat="44.11778393907962" lon="12.269611969902611"><ele>54.0</ele><time>2026-05-02T13:22:20Z</time></trkpt><trkpt lat="44.11775900210166" lon="12.269709006551222"><ele>54.714285714285715</ele><time>2026-05-02T13:22:25Z</time></trkpt><trkpt lat="44.11774870235432" lon="12.26979610153546"><ele>55.42857142857143</ele><time>2026-05-02T13:22:29Z</time></trkpt><trkpt lat="44.117713719941264" lon="12.269885576592001"><ele>56.14285714285714</ele><time>2026-05-02T13:22:34Z</time></trkpt><trkpt lat="44.11768799729385" lon="12.269974857720488"><ele>56.85714285714286</ele><time>2026-05-02T13:22:39Z</time></trkpt><trkpt lat="44.1176582211745" lon="12.270052607044855"><ele>57.57142857142858</ele><time>2026-05-02T13:22:44Z</time></trkpt><trkpt lat="44.11763257428673" lon="12.270151681902123"><ele>58.285714285714285</ele><time>2026-05-02T13:22:51Z</time></trkpt><trkpt lat="44.11761602480596" lon="12.270250617917549"><ele>59.0</ele><time>2026-05-02T13:22:58Z</time></trkpt><trkpt lat="44.1175934950058" lon="12.270348096509089"><ele>59.0</ele><time>2026-05-02T13:23:06Z</time></trkpt><trkpt lat="44.117555624162925" lon="12.270441585102867"><ele>59.0</ele><time>2026-05-02T13:23:12.999Z</time></trkpt><trkpt lat="44.11756237022769" lon="12.270538332564517"><ele>59.0</ele><time>2026-05-02T13:23:19.999Z</time></trkpt><trkpt lat="44.11755201360874" lon="12.27063304816678"><ele>59.0</ele><time>2026-05-02T13:23:31.999Z</time></trkpt><trkpt lat="44.11755569618721" lon="12.27072338932636"><ele>59.0</ele><time>2026-05-02T13:23:37.999Z</time></trkpt><trkpt lat="44.11754749611991" lon="12.270821115653817"><ele>59.0</ele><time>2026-05-02T13:23:44Z</time></trkpt><trkpt lat="44.11752775855296" lon="12.270911744810471"><ele>59.0</ele><time>2026-05-02T13:23:52Z</time></trkpt><trkpt lat="44.11755375972818" lon="12.271014572543343"><ele>59.857142857142854</ele><time>2026-05-02T13:24:20Z</time></trkpt><trkpt lat="44.11755517770599" lon="12.27111409647672"><ele>60.71428571428572</ele><time>2026-05-02T13:24:24Z</time></trkpt><trkpt lat="44.11756793753037" lon="12.27120820823454"><ele>61.57142857142858</ele><time>2026-05-02T13:24:29Z</time></trkpt><trkpt lat="44.11756259505558" lon="12.271307904861958"><ele>62.42857142857143</ele><time>2026-05-02T13:24:35Z</time></trkpt><trkpt lat="44.117553527612735" lon="12.271404200669224"><ele>63.28571428571429</ele><time>2026-05-02T13:24:41Z</time></trkpt><trkpt lat="44.11755433910298" lon="12.271506389000612"><ele>64.14285714285715</ele><time>2026-05-02T13:24:48Z</time></trkpt><trkpt lat="44.11756749733117" lon="12.271598958350598"><ele>65.0</ele><time>2026-05-02T13:24:55Z</time></trkpt><trkpt lat="44.11757942330037" lon="12.271696965621473"><ele>66.57142857142858</ele><time>2026-05-02T13:25:01Z</time></trkpt><trkpt lat="44.11758004046657" lon="12.271787589357832"><ele>68.14285714285714</ele><time>2026-05-02T13:25:08Z</time></trkpt><trkpt lat="44.11758342607691" lon="12.271885012606633"><ele>69.71428571428572</ele><time>2026-05-02T13:25:15Z</time></trkpt><trkpt lat="44.11759179769611" lon="12.271972259237014"><ele>71.28571428571429</ele><time>2026-05-02T13:25:21Z</time></trkpt><trkpt lat="44.11758499641926" lon="12.272070499723617"><ele>72.85714285714286</ele><time>2026-05-02T13:25:28Z</time></trkpt><trkpt lat="44.117591031713694" lon="12.272159648589618"><ele>74.42857142857143</ele><time>2026-05-02T13:25:33.999Z</time></trkpt><trkpt lat="44.117570371970814" lon="12.272262032284315"><ele>76.0</ele><time>2026-05-02T13:25:40.999Z</time></trkpt><trkpt lat="44.117578595223" lon="12.272355883291455"><ele>76.2</ele><time>2026-05-02T13:25:43.999Z</time></trkpt><trkpt lat="44.117589657202984" lon="12.272458576873559"><ele>76.39999999999999</ele><time>2026-05-02T13:25:46Z</time></trkpt><trkpt lat="44.11755648868535" lon="12.272601418540686"><ele>76.6</ele><time>2026-05-02T13:25:48Z</time></trkpt><trkpt lat="44.11752236699735" lon="12.272758904009276"><ele>76.8</ele><time>2026-05-02T13:25:50Z</time></trkpt><trkpt lat="44.1174434363146" lon="12.272874930669005"><ele>77.0</ele><time>2026-05-02T13:25:52Z</time></trkpt><trkpt lat="44.11742008774599" lon="12.272969895012695"><ele>77.0</ele><time>2026-05-02T13:25:54Z</time></trkpt><trkpt lat="44.11748390170272" lon="12.273069107601241"><ele>77.0</ele><time>2026-05-02T13:25:57Z</time></trkpt><trkpt lat="44.1175426977341" lon="12.273108508434754"><ele>77.0</ele><time>2026-05-02T13:25:59Z</time></trkpt><trkpt lat="44.11759173887109" lon="12.273209964949892"><ele>77.0</ele><time>2026-05-02T13:26:01Z</time></trkpt><trkpt lat="44.11748402308846" lon="12.273325403603879"><ele>77.0</ele><time>2026-05-02T13:26:03Z</time></trkpt><trkpt lat="44.11744192886633" lon="12.273411611538185"><ele>75.5</ele><time>2026-05-02T13:26:04Z</time></trkpt><trkpt lat="44.11738172509871" lon="12.273467421495086"><ele>74.0</ele><time>2026-05-02T13:26:05Z</time></trkpt><trkpt lat="44.117339206831964" lon="12.273572676310632"><ele>72.5</ele><time>2026-05-02T13:26:06Z</time></trkpt><trkpt lat="44.11732768607963" lon="12.273698531367565"><ele>71.0</ele><time>2026-05-02T13:26:07Z</time></trkpt><trkpt lat="44.117327337229156" lon="12.27382468846595"><ele>69.5</ele><time>2026-05-02T13:26:08Z</time></trkpt><trkpt lat="44.117330881591315" lon="12.273959456764356"><ele>68.0</ele><time>2026-05-02T13:26:09Z</time></trkpt><trkpt lat="44.11733957822254" lon="12.274093625827438"><ele>66.0</ele><time>2026-05-02T13:26:10Z</time></trkpt><trkpt lat="44.117364871666844" lon="12.274247832592632"><ele>64.0</ele><time>2026-05-02T13:26:11Z</time></trkpt><trkpt lat="44.117356140230505" lon="12.27441720223973"><ele>62.0</ele><time>2026-05-02T13:26:12Z</time></trkpt><trkpt lat="44.11737071409001" lon="12.274606250225448"><ele>60.0</ele><time>2026-05-02T13:26:13Z</time></trkpt><trkpt lat="44.11737917651481" lon="12.274772665251248"><ele>58.2</ele><time>2026-05-02T13:26:14Z</time></trkpt><trkpt lat="44.11737675644973" lon="12.274895718916879"><ele>56.4</ele><time>2026-05-02T13:26:15Z</time></trkpt><trkpt lat="44.11738226463609" lon="12.275026461904199"><ele>54.599999999999994</ele><time>2026-05-02T13:26:16Z</time></trkpt><trkpt lat="44.117401582380786" lon="12.275194327252446"><ele>52.8</ele><time>2026-05-02T13:26:17Z</time></trkpt><trkpt lat="44.1174006779379" lon="12.27536205302659"><ele>51.0</ele><time>2026-05-02T13:26:18Z</time></trkpt><trkpt lat="44.11741755032739" lon="12.275523893203273"><ele>49.599999999999994</ele><time>2026-05-02T13:26:19Z</time></trkpt><trkpt lat="44.117427789505065" lon="12.275680077414997"><ele>48.2</ele><time>2026-05-02T13:26:20Z</time></trkpt><trkpt lat="44.11743967949042" lon="12.275812747428079"><ele>46.8</ele><time>2026-05-02T13:26:21Z</time></trkpt><trkpt lat="44.117455313337565" lon="12.275941917318601"><ele>45.400000000000006</ele><time>2026-05-02T13:26:22Z</time></trkpt><trkpt lat="44.11746848837705" lon="12.276077784796067"><ele>44.0</ele><time>2026-05-02T13:26:23Z</time></trkpt><trkpt lat="44.11747584486128" lon="12.276178067747912"><ele>44.0</ele><time>2026-05-02T13:26:24Z</time></trkpt><trkpt lat="44.11754076618832" lon="12.276302782523617"><ele>44.0</ele><time>2026-05-02T13:26:26Z</time></trkpt><trkpt lat="44.117626816635706" lon="12.276282317363753"><ele>44.0</ele><time>2026-05-02T13:26:27Z</time></trkpt><trkpt lat="44.11769258034991" lon="12.276262814688579"><ele>44.0</ele><time>2026-05-02T13:26:28Z</time></trkpt><trkpt lat="44.117755014132" lon="12.276316206831222"><ele>44.0</ele><time>2026-05-02T13:26:30Z</time></trkpt><trkpt lat="44.11778512750417" lon="12.276417330943318"><ele>44.0</ele><time>2026-05-02T13:26:32Z</time></trkpt><trkpt lat="44.1177543666815" lon="12.276525095592783"><ele>43.400000000000006</ele><time>2026-05-02T13:26:33Z</time></trkpt><trkpt lat="44.11776598548604" lon="12.276646755962133"><ele>42.8</ele><time>2026-05-02T13:26:35Z</time></trkpt><trkpt lat="44.11776883514887" lon="12.276779562779812"><ele>42.2</ele><time>2026-05-02T13:26:37Z</time></trkpt><trkpt lat="44.1177447469672" lon="12.276899984407365"><ele>41.599999999999994</ele><time>2026-05-02T13:26:39Z</time></trkpt><trkpt lat="44.117645382794834" lon="12.276897660855434"><ele>41.0</ele><time>2026-05-02T13:26:41Z</time></trkpt><trkpt lat="44.11756163394039" lon="12.27690866981365"><ele>41.0</ele><time>2026-05-02T13:26:43Z</time></trkpt><trkpt lat="44.1174822158437" lon="12.277021062613587"><ele>41.0</ele><time>2026-05-02T13:26:45Z</time></trkpt><trkpt lat="44.117526208343826" lon="12.277121100786555"><ele>41.0</ele><time>2026-05-02T13:26:46Z</time></trkpt><trkpt lat="44.117538745787826" lon="12.277246700579818"><ele>41.0</ele><time>2026-05-02T13:26:48Z</time></trkpt><trkpt lat="44.11752996291074" lon="12.277377723699702"><ele>41.0</ele><time>2026-05-02T13:26:50Z</time></trkpt><trkpt lat="44.1175562592232" lon="12.277506315975375"><ele>40.666666666666664</ele><time>2026-05-02T13:26:52Z</time></trkpt><trkpt lat="44.11756582172481" lon="12.277622259235182"><ele>40.33333333333333</ele><time>2026-05-02T13:26:54Z</time></trkpt><trkpt lat="44.11757131670743" lon="12.27773827723985"><ele>40.0</ele><time>2026-05-02T13:26:56Z</time></trkpt><trkpt lat="44.117583123431075" lon="12.277857240953711"><ele>39.666666666666664</ele><time>2026-05-02T13:26:59Z</time></trkpt><trkpt lat="44.11756618504038" lon="12.27795493954083"><ele>39.333333333333336</ele><time>2026-05-02T13:27:01Z</time></trkpt><trkpt lat="44.117484047472" lon="12.277978992995296"><ele>39.0</ele><time>2026-05-02T13:27:03Z</time></trkpt><trkpt lat="44.1174085329168" lon="12.277964193234643"><ele>39.0</ele><time>2026-05-02T13:27:05Z</time></trkpt><trkpt lat="44.117328876762606" lon="12.277953362118662"><ele>39.0</ele><time>2026-05-02T13:27:07Z</time></trkpt><trkpt lat="44.117246472094656" lon="12.277950367639068"><ele>39.0</ele><time>2026-05-02T13:27:09Z</time></trkpt><trkpt lat="44.117163886417856" lon="12.27795070944754"><ele>39.0</ele><time>2026-05-02T13:27:11Z</time></trkpt><trkpt lat="44.117079617709216" lon="12.277945736111754"><ele>39.0</ele><time>2026-05-02T13:27:13Z</time></trkpt><trkpt lat="44.11699049279086" lon="12.27794347554381"><ele>39.0</ele><time>2026-05-02T13:27:15Z</time></trkpt><trkpt lat="44.11690397802236" lon="12.277939353327305"><ele>39.0</ele><time>2026-05-02T13:27:17Z</time></trkpt><trkpt lat="44.11681512701502" lon="12.277939278799149"><ele>39.0</ele><time>2026-05-02T13:27:19Z</time></trkpt><trkpt lat="44.116728902394705" lon="12.277937987965585"><ele>39.0</ele><time>2026-05-02T13:27:21Z</time></trkpt><trkpt lat="44.11663738702872" lon="12.277937022884606"><ele>39.0</ele><time>2026-05-02T13:27:23Z</time></trkpt><trkpt lat="44.11654371824937" lon="12.277935202260098"><ele>39.0</ele><time>2026-05-02T13:27:25Z</time></trkpt><trkpt lat="44.116451695682535" lon="12.277932437998773"><ele>39.4</ele><time>2026-05-02T13:27:27Z</time></trkpt><trkpt lat="44.11635648567774" lon="12.277930005623249"><ele>39.8</ele><time>2026-05-02T13:27:29Z</time></trkpt><trkpt lat="44.116261833885936" lon="12.277933266486507"><ele>40.199999999999996</ele><time>2026-05-02T13:27:30.999Z</time></trkpt><trkpt lat="44.11616911170668" lon="12.277924980022323"><ele>40.599999999999994</ele><time>2026-05-02T13:27:32.999Z</time></trkpt><trkpt lat="44.11608450734995" lon="12.277930274183808"><ele>41.0</ele><time>2026-05-02T13:27:34.999Z</time></trkpt><trkpt lat="44.115994168729" lon="12.277924241484817"><ele>41.0</ele><time>2026-05-02T13:27:36.999Z</time></trkpt><trkpt lat="44.11591119222068" lon="12.277917901856911"><ele>41.0</ele><time>2026-05-02T13:27:38.999Z</time></trkpt><trkpt lat="44.115826186989075" lon="12.277913340898657"><ele>41.0</ele><time>2026-05-02T13:27:40.999Z</time></trkpt><trkpt lat="44.11573478285199" lon="12.277901175779613"><ele>41.0</ele><time>2026-05-02T13:27:42.999Z</time></trkpt><trkpt lat="44.11564721017796" lon="12.277903125213598"><ele>41.0</ele><time>2026-05-02T13:27:44.999Z</time></trkpt><trkpt lat="44.11556155338542" lon="12.277901735383514"><ele>41.0</ele><time>2026-05-02T13:27:46.999Z</time></trkpt><trkpt lat="44.115465403245395" lon="12.27789184229009"><ele>41.199999999999996</ele><time>2026-05-02T13:27:48.999Z</time></trkpt><trkpt lat="44.11537621299641" lon="12.277883307565569"><ele>41.4</ele><time>2026-05-02T13:27:50.999Z</time></trkpt><trkpt lat="44.11528716249413" lon="12.277873758275984"><ele>41.6</ele><time>2026-05-02T13:27:53Z</time></trkpt><trkpt lat="44.115196366847606" lon="12.277866287918213"><ele>41.8</ele><time>2026-05-02T13:27:55Z</time></trkpt><trkpt lat="44.11510460064658" lon="12.277867313576843"><ele>42.0</ele><time>2026-05-02T13:27:57Z</time></trkpt><trkpt lat="44.11501677817202" lon="12.277884021057526"><ele>42.0</ele><time>2026-05-02T13:27:59Z</time></trkpt><trkpt lat="44.11492618911771" lon="12.277905206480392"><ele>42.0</ele><time>2026-05-02T13:28:01Z</time></trkpt><trkpt lat="44.1148428329775" lon="12.277945165458203"><ele>42.0</ele><time>2026-05-02T13:28:03Z</time></trkpt><trkpt lat="44.114763919600975" lon="12.278005736886207"><ele>42.0</ele><time>2026-05-02T13:28:05Z</time></trkpt><trkpt lat="44.11468573156465" lon="12.278056868583594"><ele>42.0</ele><time>2026-05-02T13:28:07Z</time></trkpt><trkpt lat="44.11461450488889" lon="12.278120794783716"><ele>42.0</ele><time>2026-05-02T13:28:09Z</time></trkpt><trkpt lat="44.114542447471266" lon="12.278184161581963"><ele>42.166666666666664</ele><time>2026-05-02T13:28:11Z</time></trkpt><trkpt lat="44.11447369478704" lon="12.278251472615727"><ele>42.333333333333336</ele><time>2026-05-02T13:28:13Z</time></trkpt><trkpt lat="44.11441679239129" lon="12.278338988178747"><ele>42.5</ele><time>2026-05-02T13:28:15Z</time></trkpt><trkpt lat="44.11436640935634" lon="12.278432152757597"><ele>42.66666666666667</ele><time>2026-05-02T13:28:17Z</time></trkpt><trkpt lat="44.11431473050774" lon="12.27851136024151"><ele>42.833333333333336</ele><time>2026-05-02T13:28:19Z</time></trkpt><trkpt lat="44.114252209365794" lon="12.278584531025881"><ele>43.0</ele><time>2026-05-02T13:28:21Z</time></trkpt><trkpt lat="44.114196649283805" lon="12.27866140262959"><ele>43.0</ele><time>2026-05-02T13:28:23Z</time></trkpt><trkpt lat="44.11414143614601" lon="12.278738184707683"><ele>43.0</ele><time>2026-05-02T13:28:25Z</time></trkpt><trkpt lat="44.11408229362727" lon="12.278807645846825"><ele>43.0</ele><time>2026-05-02T13:28:27Z</time></trkpt><trkpt lat="44.11402604451932" lon="12.278884129729597"><ele>43.0</ele><time>2026-05-02T13:28:29Z</time></trkpt><trkpt lat="44.113970687428775" lon="12.278958715786278"><ele>43.0</ele><time>2026-05-02T13:28:31Z</time></trkpt><trkpt lat="44.113913471984546" lon="12.279026337474713"><ele>43.0</ele><time>2026-05-02T13:28:33Z</time></trkpt><trkpt lat="44.11385332791109" lon="12.279087600141752"><ele>43.42857142857143</ele><time>2026-05-02T13:28:35Z</time></trkpt><trkpt lat="44.11379926376818" lon="12.279155639275466"><ele>43.85714285714286</ele><time>2026-05-02T13:28:37Z</time></trkpt><trkpt lat="44.11374543433383" lon="12.279224387179369"><ele>44.28571428571429</ele><time>2026-05-02T13:28:39Z</time></trkpt><trkpt lat="44.11369151700939" lon="12.279286739979275"><ele>44.714285714285715</ele><time>2026-05-02T13:28:41Z</time></trkpt><trkpt lat="44.11363923843356" lon="12.279346833124547"><ele>45.14285714285714</ele><time>2026-05-02T13:28:43Z</time></trkpt><trkpt lat="44.11358222111132" lon="12.27940371961494"><ele>45.57142857142858</ele><time>2026-05-02T13:28:45Z</time></trkpt><trkpt lat="44.1135318957466" lon="12.279465606621388"><ele>46.0</ele><time>2026-05-02T13:28:47Z</time></trkpt><trkpt lat="44.1134925098733" lon="12.279540899343635"><ele>46.0</ele><time>2026-05-02T13:28:49Z</time></trkpt><trkpt lat="44.11345495866484" lon="12.279616532774869"><ele>46.0</ele><time>2026-05-02T13:28:51Z</time></trkpt><trkpt lat="44.11342254671188" lon="12.279737296589463"><ele>46.0</ele><time>2026-05-02T13:28:54Z</time></trkpt><trkpt lat="44.11340591524338" lon="12.279863401076572"><ele>46.0</ele><time>2026-05-02T13:28:57Z</time></trkpt><trkpt lat="44.113391319642595" lon="12.279990612728916"><ele>46.0</ele><time>2026-05-02T13:29:00Z</time></trkpt><trkpt lat="44.113377179805745" lon="12.280109112066274"><ele>46.0</ele><time>2026-05-02T13:29:03Z</time></trkpt><trkpt lat="44.11336894017851" lon="12.280221863404817"><ele>46.0</ele><time>2026-05-02T13:29:06Z</time></trkpt><trkpt lat="44.11334815312449" lon="12.28032835894427"><ele>46.0</ele><time>2026-05-02T13:29:09Z</time></trkpt><trkpt lat="44.11334012200156" lon="12.280424392530577"><ele>46.0</ele><time>2026-05-02T13:29:12Z</time></trkpt><trkpt lat="44.11333199903456" lon="12.280527360621946"><ele>46.0</ele><time>2026-05-02T13:29:16Z</time></trkpt><trkpt lat="44.113320500535174" lon="12.28061825938175"><ele>46.0</ele><time>2026-05-02T13:29:20Z</time></trkpt><trkpt lat="44.113320763551684" lon="12.280719697774737"><ele>46.0</ele><time>2026-05-02T13:29:25Z</time></trkpt><trkpt lat="44.11332514949214" lon="12.28081152005193"><ele>46.0</ele><time>2026-05-02T13:29:29.999Z</time></trkpt><trkpt lat="44.113337274824964" lon="12.280905348328327"><ele>46.85714285714286</ele><time>2026-05-02T13:29:34.999Z</time></trkpt><trkpt lat="44.11333162538756" lon="12.280995655890218"><ele>47.71428571428571</ele><time>2026-05-02T13:29:39.999Z</time></trkpt><trkpt lat="44.113361903525856" lon="12.28108335104531"><ele>48.57142857142857</ele><time>2026-05-02T13:29:45.999Z</time></trkpt><trkpt lat="44.113355127422714" lon="12.28117239303459"><ele>49.42857142857143</ele><time>2026-05-02T13:29:51.999Z</time></trkpt><trkpt lat="44.11335774697823" lon="12.28126241105063"><ele>50.28571428571429</ele><time>2026-05-02T13:29:59Z</time></trkpt><trkpt lat="44.11336468444861" lon="12.281360300502508"><ele>51.14285714285714</ele><time>2026-05-02T13:30:06Z</time></trkpt><trkpt lat="44.113379045039196" lon="12.281451269644169"><ele>52.0</ele><time>2026-05-02T13:30:13Z</time></trkpt><trkpt lat="44.113377484703314" lon="12.281552989398017"><ele>53.14285714285714</ele><time>2026-05-02T13:30:20Z</time></trkpt><trkpt lat="44.113404003633754" lon="12.281639105621874"><ele>54.28571428571429</ele><time>2026-05-02T13:30:26Z</time></trkpt><trkpt lat="44.113396861799345" lon="12.28172781787815"><ele>55.42857142857143</ele><time>2026-05-02T13:30:32Z</time></trkpt><trkpt lat="44.11338791735933" lon="12.281815845594888"><ele>56.57142857142857</ele><time>2026-05-02T13:30:38Z</time></trkpt><trkpt lat="44.11339668330364" lon="12.281916665394371"><ele>57.71428571428571</ele><time>2026-05-02T13:30:45Z</time></trkpt><trkpt lat="44.11343164916954" lon="12.281998221708076"><ele>58.85714285714286</ele><time>2026-05-02T13:30:51Z</time></trkpt><trkpt lat="44.11341130707412" lon="12.282084256574741"><ele>60.0</ele><time>2026-05-02T13:30:57Z</time></trkpt><trkpt lat="44.11341093635656" lon="12.282175600987575"><ele>60.0</ele><time>2026-05-02T13:31:04Z</time></trkpt><trkpt lat="44.113404291553145" lon="12.282263185260724"><ele>60.0</ele><time>2026-05-02T13:31:10Z</time></trkpt><trkpt lat="44.11341998267615" lon="12.282359691541547"><ele>60.0</ele><time>2026-05-02T13:31:17Z</time></trkpt><trkpt lat="44.11341175404432" lon="12.282453551502112"><ele>60.0</ele><time>2026-05-02T13:31:23Z</time></trkpt><trkpt lat="44.11339633162349" lon="12.28254089895392"><ele>60.0</ele><time>2026-05-02T13:31:29Z</time></trkpt><trkpt lat="44.11341036234989" lon="12.282639479198174"><ele>60.0</ele><time>2026-05-02T13:31:36Z</time></trkpt><trkpt lat="44.113398159746694" lon="12.282732770712496"><ele>60.0</ele><time>2026-05-02T13:31:41.999Z</time></trkpt><trkpt lat="44.11337238926112" lon="12.28282074596077"><ele>61.142857142857146</ele><time>2026-05-02T13:31:46.999Z</time></trkpt><trkpt lat="44.113364890062876" lon="12.282909610098525"><ele>62.28571428571428</ele><time>2026-05-02T13:31:51.999Z</time></trkpt><trkpt lat="44.11335556165854" lon="12.28299789264063"><ele>63.42857142857142</ele><time>2026-05-02T13:31:56.999Z</time></trkpt><trkpt lat="44.11333575300265" lon="12.283086091910167"><ele>64.57142857142857</ele><time>2026-05-02T13:32:02.999Z</time></trkpt><trkpt lat="44.113320818024164" lon="12.283178675130758"><ele>65.71428571428571</ele><time>2026-05-02T13:32:09Z</time></trkpt><trkpt lat="44.11330154317399" lon="12.283272333509828"><ele>66.85714285714285</ele><time>2026-05-02T13:32:15Z</time></trkpt><trkpt lat="44.113281935052356" lon="12.283362066964528"><ele>68.0</ele><time>2026-05-02T13:32:21Z</time></trkpt><trkpt lat="44.11324290379548" lon="12.283437194006076"><ele>68.42857142857142</ele><time>2026-05-02T13:32:26Z</time></trkpt><trkpt lat="44.11322227657876" lon="12.28353002362823"><ele>68.85714285714286</ele><time>2026-05-02T13:32:31Z</time></trkpt><trkpt lat="44.113181724206314" lon="12.283618339888525"><ele>69.28571428571428</ele><time>2026-05-02T13:32:36Z</time></trkpt><trkpt lat="44.11314501683963" lon="12.283712986281028"><ele>69.71428571428571</ele><time>2026-05-02T13:32:41Z</time></trkpt><trkpt lat="44.11311375097424" lon="12.2837925650641"><ele>70.14285714285714</ele><time>2026-05-02T13:32:45Z</time></trkpt><trkpt lat="44.11307529082257" lon="12.283869022682246"><ele>70.57142857142857</ele><time>2026-05-02T13:32:49Z</time></trkpt><trkpt lat="44.113039949216564" lon="12.283962320494734"><ele>71.0</ele><time>2026-05-02T13:32:54Z</time></trkpt><trkpt lat="44.112999511062654" lon="12.28403411266873"><ele>72.42857142857143</ele><time>2026-05-02T13:32:58Z</time></trkpt><trkpt lat="44.11297037035646" lon="12.284130270711174"><ele>73.85714285714285</ele><time>2026-05-02T13:33:03Z</time></trkpt><trkpt lat="44.11293271122476" lon="12.284210464932537"><ele>75.28571428571428</ele><time>2026-05-02T13:33:07Z</time></trkpt><trkpt lat="44.11289324588695" lon="12.28430183220548"><ele>76.71428571428571</ele><time>2026-05-02T13:33:12Z</time></trkpt><trkpt lat="44.112858340522486" lon="12.284387483001616"><ele>78.14285714285714</ele><time>2026-05-02T13:33:17Z</time></trkpt><trkpt lat="44.11283402912235" lon="12.28447001406253"><ele>79.57142857142857</ele><time>2026-05-02T13:33:22Z</time></trkpt><trkpt lat="44.11280294011493" lon="12.284556723815104"><ele>81.0</ele><time>2026-05-02T13:33:28Z</time></trkpt><trkpt lat="44.1127612236055" lon="12.284629102671836"><ele>81.0</ele><time>2026-05-02T13:33:33.999Z</time></trkpt><trkpt lat="44.11272759571184" lon="12.28471916919733"><ele>81.0</ele><time>2026-05-02T13:33:39.999Z</time></trkpt><trkpt lat="44.112696836411615" lon="12.284810873383183"><ele>81.0</ele><time>2026-05-02T13:33:45.999Z</time></trkpt><trkpt lat="44.11267834993018" lon="12.284897506415959"><ele>81.0</ele><time>2026-05-02T13:33:51.999Z</time></trkpt><trkpt lat="44.112732756897806" lon="12.284947014510186"><ele>81.0</ele><time>2026-05-02T13:33:56.999Z</time></trkpt><trkpt lat="44.11281309427536" lon="12.284960455773605"><ele>81.0</ele><time>2026-05-02T13:34:01.999Z</time></trkpt><trkpt lat="44.11288351575731" lon="12.284975777432168"><ele>81.0</ele><time>2026-05-02T13:34:04.999Z</time></trkpt><trkpt lat="44.112968832922604" lon="12.285010069686939"><ele>81.0</ele><time>2026-05-02T13:34:07.999Z</time></trkpt><trkpt lat="44.113037780024435" lon="12.285029910841681"><ele>81.0</ele><time>2026-05-02T13:34:10Z</time></trkpt><trkpt lat="44.113109413220414" lon="12.285056104437228"><ele>81.0</ele><time>2026-05-02T13:34:12Z</time></trkpt><trkpt lat="44.11318386085259" lon="12.285087685866435"><ele>81.0</ele><time>2026-05-02T13:34:14Z</time></trkpt><trkpt lat="44.113268856847775" lon="12.285115337351863"><ele>81.0</ele><time>2026-05-02T13:34:16Z</time></trkpt><trkpt lat="44.11334030382367" lon="12.285151875699126"><ele>81.0</ele><time>2026-05-02T13:34:18Z</time></trkpt><trkpt lat="44.11327064567076" lon="12.285126161568211"><ele>81.42857142857143</ele><time>2026-05-02T13:34:30Z</time></trkpt><trkpt lat="44.11320697270757" lon="12.285102044274273"><ele>81.85714285714286</ele><time>2026-05-02T13:34:34Z</time></trkpt><trkpt lat="44.11313642490349" lon="12.285080417721758"><ele>82.28571428571428</ele><time>2026-05-02T13:34:39Z</time></trkpt><trkpt lat="44.11307455412447" lon="12.28505478408319"><ele>82.71428571428572</ele><time>2026-05-02T13:34:43Z</time></trkpt><trkpt lat="44.11300393608592" lon="12.285040255994916"><ele>83.14285714285714</ele><time>2026-05-02T13:34:48Z</time></trkpt><trkpt lat="44.11293224483641" lon="12.285020499871948"><ele>83.57142857142857</ele><time>2026-05-02T13:34:52Z</time></trkpt><trkpt lat="44.11286408660123" lon="12.284993071039727"><ele>84.0</ele><time>2026-05-02T13:34:56Z</time></trkpt><trkpt lat="44.112795672319166" lon="12.284981123462053"><ele>84.0</ele><time>2026-05-02T13:35:00Z</time></trkpt><trkpt lat="44.11272417989954" lon="12.284957352453933"><ele>84.0</ele><time>2026-05-02T13:35:04Z</time></trkpt><trkpt lat="44.112655218813245" lon="12.284979134587829"><ele>84.0</ele><time>2026-05-02T13:35:09Z</time></trkpt><trkpt lat="44.112592295848266" lon="12.2850087753233"><ele>84.0</ele><time>2026-05-02T13:35:13Z</time></trkpt><trkpt lat="44.11252322812068" lon="12.285050961743682"><ele>84.0</ele><time>2026-05-02T13:35:18Z</time></trkpt><trkpt lat="44.1124672189992" lon="12.285124978623848"><ele>84.0</ele><time>2026-05-02T13:35:23Z</time></trkpt><trkpt lat="44.11241714954575" lon="12.285180344326422"><ele>84.0</ele><time>2026-05-02T13:35:27Z</time></trkpt><trkpt lat="44.11235906391923" lon="12.285221865816316"><ele>84.5</ele><time>2026-05-02T13:35:31Z</time></trkpt><trkpt lat="44.11231239690974" lon="12.285288211267654"><ele>85.0</ele><time>2026-05-02T13:35:35Z</time></trkpt><trkpt lat="44.112239214129346" lon="12.2853249169532"><ele>85.5</ele><time>2026-05-02T13:35:39Z</time></trkpt><trkpt lat="44.11217614733041" lon="12.285334635843913"><ele>86.0</ele><time>2026-05-02T13:35:42Z</time></trkpt><trkpt lat="44.112105721905245" lon="12.285354212860955"><ele>86.5</ele><time>2026-05-02T13:36:39Z</time></trkpt><trkpt lat="44.11198297291141" lon="12.285426373035866"><ele>87.0</ele><time>2026-05-02T13:39:12Z</time></trkpt><trkpt lat="44.11191143263" lon="12.285420453105848"><ele>87.0</ele><time>2026-05-02T13:39:22Z</time></trkpt><trkpt lat="44.11184331020397" lon="12.2854219943708"><ele>87.0</ele><time>2026-05-02T13:39:42Z</time></trkpt><trkpt lat="44.11177984686717" lon="12.285463107565295"><ele>87.0</ele><time>2026-05-02T13:39:46Z</time></trkpt><trkpt lat="44.11171462743484" lon="12.285513491624029"><ele>87.0</ele><time>2026-05-02T13:39:51Z</time></trkpt><trkpt lat="44.11165897000156" lon="12.28555539775388"><ele>87.0</ele><time>2026-05-02T13:39:54.999Z</time></trkpt><trkpt lat="44.11160190927054" lon="12.285606823492405"><ele>87.0</ele><time>2026-05-02T13:39:58.999Z</time></trkpt><trkpt lat="44.11154274069733" lon="12.285661447290254"><ele>87.0</ele><time>2026-05-02T13:40:03.999Z</time></trkpt><trkpt lat="44.11149117655386" lon="12.285729631612993"><ele>88.57142857142857</ele><time>2026-05-02T13:40:07.999Z</time></trkpt><trkpt lat="44.11144614635657" lon="12.285793489428375"><ele>90.14285714285714</ele><time>2026-05-02T13:40:10.999Z</time></trkpt><trkpt lat="44.11140392392523" lon="12.28587384152863"><ele>91.71428571428572</ele><time>2026-05-02T13:40:13.999Z</time></trkpt><trkpt lat="44.11135568794512" lon="12.285932463165592"><ele>93.28571428571428</ele><time>2026-05-02T13:40:16.999Z</time></trkpt><trkpt lat="44.111295665938606" lon="12.285995702723223"><ele>94.85714285714286</ele><time>2026-05-02T13:40:20.999Z</time></trkpt><trkpt lat="44.111228584901916" lon="12.286053980488655"><ele>96.42857142857143</ele><time>2026-05-02T13:40:24.999Z</time></trkpt><trkpt lat="44.11117299121542" lon="12.286113944891042"><ele>98.0</ele><time>2026-05-02T13:40:29Z</time></trkpt><trkpt lat="44.111094036114224" lon="12.286134097960199"><ele>97.99999999999999</ele><time>2026-05-02T13:40:34Z</time></trkpt><trkpt lat="44.11102380982612" lon="12.28616679452694"><ele>98.0</ele><time>2026-05-02T13:40:39Z</time></trkpt><trkpt lat="44.11095572945119" lon="12.28620988588567"><ele>98.0</ele><time>2026-05-02T13:40:44Z</time></trkpt><trkpt lat="44.11088451360688" lon="12.286248923687062"><ele>98.0</ele><time>2026-05-02T13:40:50Z</time></trkpt><trkpt lat="44.110832077696486" lon="12.286304028935987"><ele>97.99999999999999</ele><time>2026-05-02T13:40:57Z</time></trkpt><trkpt lat="44.11076674615024" lon="12.286372768024078"><ele>98.0</ele><time>2026-05-02T13:41:02Z</time></trkpt><trkpt lat="44.11070497269379" lon="12.286443044048617"><ele>99.57142857142857</ele><time>2026-05-02T13:41:09Z</time></trkpt><trkpt lat="44.11067139208007" lon="12.286520798965359"><ele>101.14285714285714</ele><time>2026-05-02T13:41:17Z</time></trkpt><trkpt lat="44.110652122415445" lon="12.28661228476036"><ele>102.71428571428572</ele><time>2026-05-02T13:41:23Z</time></trkpt><trkpt lat="44.11060770499775" lon="12.286680734069593"><ele>104.28571428571428</ele><time>2026-05-02T13:41:28Z</time></trkpt><trkpt lat="44.11055370299985" lon="12.28673245939532"><ele>105.85714285714286</ele><time>2026-05-02T13:41:34Z</time></trkpt><trkpt lat="44.110503750511604" lon="12.286787004881852"><ele>107.42857142857143</ele><time>2026-05-02T13:41:40Z</time></trkpt><trkpt lat="44.110443673097976" lon="12.286827050319983"><ele>109.0</ele><time>2026-05-02T13:41:49Z</time></trkpt><trkpt lat="44.11037141553303" lon="12.286844979553118"><ele>109.0</ele><time>2026-05-02T13:41:55Z</time></trkpt><trkpt lat="44.1103025211939" lon="12.286824169145548"><ele>109.0</ele><time>2026-05-02T13:42:00Z</time></trkpt><trkpt lat="44.11023759668524" lon="12.28681748603101"><ele>109.0</ele><time>2026-05-02T13:42:05Z</time></trkpt><trkpt lat="44.110171361252945" lon="12.286780374841266"><ele>109.0</ele><time>2026-05-02T13:42:12Z</time></trkpt><trkpt lat="44.1101177744968" lon="12.286725254675149"><ele>109.0</ele><time>2026-05-02T13:42:19.999Z</time></trkpt><trkpt lat="44.11007746209814" lon="12.28665281659542"><ele>109.0</ele><time>2026-05-02T13:42:26.999Z</time></trkpt><trkpt lat="44.110053228409484" lon="12.28656888507534"><ele>109.0</ele><time>2026-05-02T13:42:32.999Z</time></trkpt><trkpt lat="44.11000746465176" lon="12.286490550552664"><ele>109.42857142857143</ele><time>2026-05-02T13:42:41Z</time></trkpt><trkpt lat="44.10998357613558" lon="12.28640300291193"><ele>109.85714285714286</ele><time>2026-05-02T13:42:47Z</time></trkpt><trkpt lat="44.10995858212581" lon="12.286322235725974"><ele>110.28571428571428</ele><time>2026-05-02T13:42:53Z</time></trkpt><trkpt lat="44.10993888129247" lon="12.286238627346231"><ele>110.71428571428572</ele><time>2026-05-02T13:42:58Z</time></trkpt><trkpt lat="44.1099182893127" lon="12.286141554717949"><ele>111.14285714285714</ele><time>2026-05-02T13:43:04Z</time></trkpt><trkpt lat="44.10989912378466" lon="12.28604063568029"><ele>111.57142857142857</ele><time>2026-05-02T13:43:10Z</time></trkpt><trkpt lat="44.109874702892995" lon="12.285945526520841"><ele>112.0</ele><time>2026-05-02T13:43:16Z</time></trkpt><trkpt lat="44.10985496609409" lon="12.285847579227681"><ele>111.85714285714286</ele><time>2026-05-02T13:43:21Z</time></trkpt><trkpt lat="44.109824215719115" lon="12.285753035001422"><ele>111.71428571428572</ele><time>2026-05-02T13:43:26Z</time></trkpt><trkpt lat="44.10980255147459" lon="12.28566877083856"><ele>111.57142857142857</ele><time>2026-05-02T13:43:31Z</time></trkpt><trkpt lat="44.10976654319766" lon="12.285582368648239"><ele>111.42857142857143</ele><time>2026-05-02T13:43:36Z</time></trkpt><trkpt lat="44.10973868671195" lon="12.28549890616357"><ele>111.28571428571429</ele><time>2026-05-02T13:43:40Z</time></trkpt><trkpt lat="44.10970490122568" lon="12.285422551235838"><ele>111.14285714285714</ele><time>2026-05-02T13:43:43Z</time></trkpt><trkpt lat="44.109670881033445" lon="12.285333166194338"><ele>111.0</ele><time>2026-05-02T13:43:47Z</time></trkpt><trkpt lat="44.109639587649205" lon="12.28522827393891"><ele>111.0</ele><time>2026-05-02T13:43:51Z</time></trkpt><trkpt lat="44.10961171554855" lon="12.28512772225982"><ele>111.0</ele><time>2026-05-02T13:43:55Z</time></trkpt><trkpt lat="44.10958474884657" lon="12.285036008472087"><ele>111.0</ele><time>2026-05-02T13:43:58Z</time></trkpt><trkpt lat="44.109559049415026" lon="12.284940897687967"><ele>111.0</ele><time>2026-05-02T13:44:01Z</time></trkpt><trkpt lat="44.10953448263596" lon="12.284846141472771"><ele>111.0</ele><time>2026-05-02T13:44:04Z</time></trkpt><trkpt lat="44.109506713713564" lon="12.284764124586557"><ele>111.0</ele><time>2026-05-02T13:44:07Z</time></trkpt><trkpt lat="44.109468953453266" lon="12.284690887411882"><ele>111.0</ele><time>2026-05-02T13:44:10Z</time></trkpt><trkpt lat="44.1094460457163" lon="12.284580531659389"><ele>112.28571428571428</ele><time>2026-05-02T13:44:14Z</time></trkpt><trkpt lat="44.109409773849336" lon="12.284495710702519"><ele>113.57142857142858</ele><time>2026-05-02T13:44:17.999Z</time></trkpt><trkpt lat="44.10936639393497" lon="12.284415517086337"><ele>114.85714285714286</ele><time>2026-05-02T13:44:21.999Z</time></trkpt><trkpt lat="44.109332058931756" lon="12.284325903989245"><ele>116.14285714285714</ele><time>2026-05-02T13:44:25.999Z</time></trkpt><trkpt lat="44.109289092614716" lon="12.284259773657073"><ele>117.42857142857142</ele><time>2026-05-02T13:44:29.999Z</time></trkpt><trkpt lat="44.10923643208286" lon="12.28419167364953"><ele>118.71428571428572</ele><time>2026-05-02T13:44:34.999Z</time></trkpt><trkpt lat="44.10920182843271" lon="12.28410754262354"><ele>120.0</ele><time>2026-05-02T13:44:40Z</time></trkpt><trkpt lat="44.109178330245406" lon="12.284017927007366"><ele>120.16666666666667</ele><time>2026-05-02T13:44:45Z</time></trkpt><trkpt lat="44.10916551294909" lon="12.283909921866067"><ele>120.33333333333334</ele><time>2026-05-02T13:44:50Z</time></trkpt><trkpt lat="44.10914688477382" lon="12.283808817045912"><ele>120.5</ele><time>2026-05-02T13:44:54Z</time></trkpt><trkpt lat="44.10913791890897" lon="12.283707625101044"><ele>120.66666666666667</ele><time>2026-05-02T13:44:57Z</time></trkpt><trkpt lat="44.10912528823722" lon="12.283610349071475"><ele>120.83333333333334</ele><time>2026-05-02T13:45:00Z</time></trkpt><trkpt lat="44.10907027549524" lon="12.28351216666411"><ele>121.0</ele><time>2026-05-02T13:45:03Z</time></trkpt><trkpt lat="44.10900733365827" lon="12.283425316933105"><ele>121.14285714285714</ele><time>2026-05-02T13:45:06Z</time></trkpt><trkpt lat="44.10893234833099" lon="12.283370241663725"><ele>121.28571428571428</ele><time>2026-05-02T13:45:09Z</time></trkpt><trkpt lat="44.10886907307624" lon="12.28333526050745"><ele>121.42857142857142</ele><time>2026-05-02T13:45:12Z</time></trkpt><trkpt lat="44.10879074906248" lon="12.283323123780812"><ele>121.57142857142856</ele><time>2026-05-02T13:45:16Z</time></trkpt><trkpt lat="44.10872743814529" lon="12.283304822416632"><ele>121.71428571428571</ele><time>2026-05-02T13:45:20Z</time></trkpt><trkpt lat="44.10864637337507" lon="12.283288223124242"><ele>121.85714285714283</ele><time>2026-05-02T13:45:25Z</time></trkpt><trkpt lat="44.10857930672619" lon="12.283258477405875"><ele>121.99999999999999</ele><time>2026-05-02T13:45:28Z</time></trkpt><trkpt lat="44.10850660800106" lon="12.283205852579266"><ele>121.99999999999999</ele><time>2026-05-02T13:45:31Z</time></trkpt><trkpt lat="44.10844169318932" lon="12.283138287393573"><ele>122.0</ele><time>2026-05-02T13:45:34Z</time></trkpt><trkpt lat="44.10838602330839" lon="12.28307729074602"><ele>122.0</ele><time>2026-05-02T13:45:37Z</time></trkpt><trkpt lat="44.1083314742839" lon="12.283003637712103"><ele>122.0</ele><time>2026-05-02T13:45:41Z</time></trkpt><trkpt lat="44.108288734654664" lon="12.282921089719135"><ele>121.99999999999999</ele><time>2026-05-02T13:45:45Z</time></trkpt><trkpt lat="44.108271799285525" lon="12.282818787658004"><ele>122.0</ele><time>2026-05-02T13:45:49Z</time></trkpt><trkpt lat="44.10826117764842" lon="12.282712108182848"><ele>122.49999999999999</ele><time>2026-05-02T13:45:53Z</time></trkpt><trkpt lat="44.10824494452102" lon="12.282600524649832"><ele>123.0</ele><time>2026-05-02T13:45:57Z</time></trkpt><trkpt lat="44.10824345476948" lon="12.282502378667958"><ele>123.5</ele><time>2026-05-02T13:46:00Z</time></trkpt><trkpt lat="44.108240185259874" lon="12.282397673288827"><ele>124.0</ele><time>2026-05-02T13:46:04Z</time></trkpt><trkpt lat="44.10822142203618" lon="12.28228911589449"><ele>124.49999999999999</ele><time>2026-05-02T13:46:08Z</time></trkpt><trkpt lat="44.10822238418163" lon="12.282179936720649"><ele>125.0</ele><time>2026-05-02T13:46:12Z</time></trkpt><trkpt lat="44.108215077536485" lon="12.28207640987964"><ele>125.57142857142857</ele><time>2026-05-02T13:46:16Z</time></trkpt><trkpt lat="44.10821215995102" lon="12.281974296632765"><ele>126.14285714285714</ele><time>2026-05-02T13:46:20Z</time></trkpt><trkpt lat="44.10820874780377" lon="12.281879588460011"><ele>126.71428571428571</ele><time>2026-05-02T13:46:24Z</time></trkpt><trkpt lat="44.10820509462627" lon="12.281788550182043"><ele>127.28571428571428</ele><time>2026-05-02T13:46:28Z</time></trkpt><trkpt lat="44.10819356109417" lon="12.281683187593888"><ele>127.85714285714286</ele><time>2026-05-02T13:46:32.999Z</time></trkpt><trkpt lat="44.10817663129224" lon="12.281589878719295"><ele>128.42857142857142</ele><time>2026-05-02T13:46:37.999Z</time></trkpt><trkpt lat="44.108147439427356" lon="12.281501880111188"><ele>129.0</ele><time>2026-05-02T13:46:43.999Z</time></trkpt><trkpt lat="44.108127585015765" lon="12.281418059412601"><ele>129.14285714285714</ele><time>2026-05-02T13:46:49Z</time></trkpt><trkpt lat="44.10810110057921" lon="12.281336161101546"><ele>129.28571428571428</ele><time>2026-05-02T13:46:54Z</time></trkpt><trkpt lat="44.10805540227251" lon="12.281269982840012"><ele>129.42857142857144</ele><time>2026-05-02T13:46:59Z</time></trkpt><trkpt lat="44.10800973983228" lon="12.281205968316034"><ele>129.57142857142856</ele><time>2026-05-02T13:47:04Z</time></trkpt><trkpt lat="44.10794965342688" lon="12.281143317956614"><ele>129.71428571428572</ele><time>2026-05-02T13:47:08Z</time></trkpt><trkpt lat="44.1078809633622" lon="12.281077007714833"><ele>129.85714285714286</ele><time>2026-05-02T13:47:12Z</time></trkpt><trkpt lat="44.107807275045495" lon="12.281001628718343"><ele>130.0</ele><time>2026-05-02T13:47:15Z</time></trkpt><trkpt lat="44.107747250353796" lon="12.28095049188619"><ele>130.0</ele><time>2026-05-02T13:47:17Z</time></trkpt><trkpt lat="44.10767727296026" lon="12.280898831585569"><ele>130.0</ele><time>2026-05-02T13:47:19Z</time></trkpt><trkpt lat="44.107606712717306" lon="12.280821126950235"><ele>130.0</ele><time>2026-05-02T13:47:21Z</time></trkpt><trkpt lat="44.10752219080684" lon="12.280739333252404"><ele>130.0</ele><time>2026-05-02T13:47:23Z</time></trkpt><trkpt lat="44.10743650739051" lon="12.28065156875747"><ele>130.0</ele><time>2026-05-02T13:47:25Z</time></trkpt><trkpt lat="44.107351098058786" lon="12.28056241446514"><ele>129.4</ele><time>2026-05-02T13:47:27Z</time></trkpt><trkpt lat="44.10726557356581" lon="12.280447989661601"><ele>128.8</ele><time>2026-05-02T13:47:29Z</time></trkpt><trkpt lat="44.10716230678772" lon="12.280368499644451"><ele>128.2</ele><time>2026-05-02T13:47:31Z</time></trkpt><trkpt lat="44.10706397395315" lon="12.28024647112811"><ele>127.6</ele><time>2026-05-02T13:47:33Z</time></trkpt><trkpt lat="44.10700629963846" lon="12.28019601769775"><ele>127.0</ele><time>2026-05-02T13:47:34Z</time></trkpt><trkpt lat="44.10693973297293" lon="12.28016232122621"><ele>127.0</ele><time>2026-05-02T13:47:35Z</time></trkpt><trkpt lat="44.10686446606643" lon="12.28000621452498"><ele>126.99999999999999</ele><time>2026-05-02T13:47:37Z</time></trkpt><trkpt lat="44.106848189911865" lon="12.279915966282799"><ele>126.99999999999999</ele><time>2026-05-02T13:47:38Z</time></trkpt><trkpt lat="44.10677964004533" lon="12.279860132328013"><ele>127.0</ele><time>2026-05-02T13:47:39Z</time></trkpt><trkpt lat="44.10674494916801" lon="12.279727416110486"><ele>127.0</ele><time>2026-05-02T13:47:41Z</time></trkpt><trkpt lat="44.106697617485715" lon="12.279638798301644"><ele>127.50000000000001</ele><time>2026-05-02T13:47:44Z</time></trkpt><trkpt lat="44.10667075975726" lon="12.279551544600716"><ele>128.0</ele><time>2026-05-02T13:47:47Z</time></trkpt><trkpt lat="44.106641001370896" lon="12.279445574551767"><ele>128.5</ele><time>2026-05-02T13:47:51Z</time></trkpt><trkpt lat="44.10662804153063" lon="12.279352794568766"><ele>129.0</ele><time>2026-05-02T13:47:54Z</time></trkpt><trkpt lat="44.10660896889166" lon="12.279259774684324"><ele>129.5</ele><time>2026-05-02T13:47:57Z</time></trkpt><trkpt lat="44.1065849526326" lon="12.279137773804207"><ele>130.0</ele><time>2026-05-02T13:48:00Z</time></trkpt><trkpt lat="44.10657692558633" lon="12.27903730250997"><ele>130.57142857142858</ele><time>2026-05-02T13:48:03Z</time></trkpt><trkpt lat="44.10653899107358" lon="12.27893437751972"><ele>131.14285714285714</ele><time>2026-05-02T13:48:06Z</time></trkpt><trkpt lat="44.10652631083269" lon="12.278843881484168"><ele>131.71428571428572</ele><time>2026-05-02T13:48:08Z</time></trkpt><trkpt lat="44.10650068134733" lon="12.278758686413575"><ele>132.28571428571428</ele><time>2026-05-02T13:48:10Z</time></trkpt><trkpt lat="44.10645378605653" lon="12.278687377198622"><ele>132.85714285714286</ele><time>2026-05-02T13:48:12Z</time></trkpt><trkpt lat="44.10641198159397" lon="12.278586330333654"><ele>133.42857142857144</ele><time>2026-05-02T13:48:15Z</time></trkpt><trkpt lat="44.10636847568403" lon="12.27849253317431"><ele>134.0</ele><time>2026-05-02T13:48:18Z</time></trkpt><trkpt lat="44.10632271702616" lon="12.278395760114698"><ele>133.85714285714286</ele><time>2026-05-02T13:48:21Z</time></trkpt><trkpt lat="44.10628579634425" lon="12.278308440995835"><ele>133.71428571428572</ele><time>2026-05-02T13:48:24Z</time></trkpt><trkpt lat="44.10624415684732" lon="12.27822031702508"><ele>133.57142857142856</ele><time>2026-05-02T13:48:27Z</time></trkpt><trkpt lat="44.10619025913622" lon="12.278156342256864"><ele>133.42857142857144</ele><time>2026-05-02T13:48:30Z</time></trkpt><trkpt lat="44.10614937573855" lon="12.278075808251579"><ele>133.28571428571428</ele><time>2026-05-02T13:48:33Z</time></trkpt><trkpt lat="44.1061032324623" lon="12.278006435031353"><ele>133.14285714285714</ele><time>2026-05-02T13:48:36Z</time></trkpt><trkpt lat="44.10605247178022" lon="12.277950670171398"><ele>133.0</ele><time>2026-05-02T13:48:39Z</time></trkpt><trkpt lat="44.106005599843975" lon="12.277883358822999"><ele>133.0</ele><time>2026-05-02T13:48:42Z</time></trkpt><trkpt lat="44.10595339111621" lon="12.277820440447115"><ele>133.0</ele><time>2026-05-02T13:48:45Z</time></trkpt><trkpt lat="44.10589391177393" lon="12.277745558228892"><ele>133.0</ele><time>2026-05-02T13:48:47.999Z</time></trkpt><trkpt lat="44.10583751126867" lon="12.277654595139806"><ele>133.0</ele><time>2026-05-02T13:48:50.999Z</time></trkpt><trkpt lat="44.10577482626707" lon="12.277596650543037"><ele>133.0</ele><time>2026-05-02T13:48:53Z</time></trkpt><trkpt lat="44.10570608732243" lon="12.277538626532255"><ele>133.0</ele><time>2026-05-02T13:48:55Z</time></trkpt><trkpt lat="44.10562312852238" lon="12.277474917140133"><ele>132.4</ele><time>2026-05-02T13:48:57Z</time></trkpt><trkpt lat="44.10552169978754" lon="12.277428976017982"><ele>131.8</ele><time>2026-05-02T13:48:59Z</time></trkpt><trkpt lat="44.10540467136315" lon="12.277401694216802"><ele>131.2</ele><time>2026-05-02T13:49:01Z</time></trkpt><trkpt lat="44.10527968827643" lon="12.27739629586619"><ele>130.6</ele><time>2026-05-02T13:49:03Z</time></trkpt><trkpt lat="44.105211893447546" lon="12.277376607274837"><ele>130.0</ele><time>2026-05-02T13:49:04Z</time></trkpt><trkpt lat="44.10514320338701" lon="12.277372518183915"><ele>130.00000000000003</ele><time>2026-05-02T13:49:05Z</time></trkpt><trkpt lat="44.10507015190145" lon="12.277389007371292"><ele>130.0</ele><time>2026-05-02T13:49:06Z</time></trkpt><trkpt lat="44.10500086667352" lon="12.277378885534509"><ele>130.0</ele><time>2026-05-02T13:49:07Z</time></trkpt><trkpt lat="44.104929122741105" lon="12.277369553654989"><ele>130.0</ele><time>2026-05-02T13:49:08Z</time></trkpt><trkpt lat="44.104852049872655" lon="12.277362269031169"><ele>130.0</ele><time>2026-05-02T13:49:09Z</time></trkpt><trkpt lat="44.10477960491666" lon="12.277350695437558"><ele>130.00000000000003</ele><time>2026-05-02T13:49:10Z</time></trkpt><trkpt lat="44.10471087647987" lon="12.27734166804834"><ele>130.0</ele><time>2026-05-02T13:49:11Z</time></trkpt><trkpt lat="44.10464028271544" lon="12.277325941449032"><ele>129.0</ele><time>2026-05-02T13:49:12Z</time></trkpt><trkpt lat="44.104565630083705" lon="12.277313106389116"><ele>128.0</ele><time>2026-05-02T13:49:13Z</time></trkpt><trkpt lat="44.10450148404814" lon="12.277302979803624"><ele>127.0</ele><time>2026-05-02T13:49:14Z</time></trkpt><trkpt lat="44.10437701262245" lon="12.277283892993657"><ele>126.0</ele><time>2026-05-02T13:49:16Z</time></trkpt><trkpt lat="44.10427408257423" lon="12.277263662898353"><ele>125.0</ele><time>2026-05-02T13:49:18Z</time></trkpt><trkpt lat="44.10418199876926" lon="12.277248764537987"><ele>124.49999999999999</ele><time>2026-05-02T13:49:20Z</time></trkpt><trkpt lat="44.1041094052164" lon="12.27723027503691"><ele>124.0</ele><time>2026-05-02T13:49:22Z</time></trkpt><trkpt lat="44.10402358659314" lon="12.277217606297171"><ele>123.5</ele><time>2026-05-02T13:49:25Z</time></trkpt><trkpt lat="44.1039443188355" lon="12.27720200132203"><ele>123.0</ele><time>2026-05-02T13:49:28Z</time></trkpt><trkpt lat="44.103867907770855" lon="12.277158781650254"><ele>122.49999999999999</ele><time>2026-05-02T13:49:31Z</time></trkpt><trkpt lat="44.10378743554171" lon="12.277155522938052"><ele>122.0</ele><time>2026-05-02T13:49:34Z</time></trkpt><trkpt lat="44.10372346884319" lon="12.27712473026456"><ele>122.99999999999999</ele><time>2026-05-02T13:49:37Z</time></trkpt><trkpt lat="44.103655455655215" lon="12.277090645508114"><ele>124.0</ele><time>2026-05-02T13:49:40Z</time></trkpt><trkpt lat="44.10359132861674" lon="12.27706789282912"><ele>124.99999999999999</ele><time>2026-05-02T13:49:43Z</time></trkpt><trkpt lat="44.10353091125623" lon="12.277038282525105"><ele>125.99999999999999</ele><time>2026-05-02T13:49:46Z</time></trkpt><trkpt lat="44.10346608935974" lon="12.277017499453544"><ele>127.0</ele><time>2026-05-02T13:49:49Z</time></trkpt><trkpt lat="44.10339642008972" lon="12.276985098226056"><ele>127.99999999999999</ele><time>2026-05-02T13:49:52Z</time></trkpt><trkpt lat="44.10333279116616" lon="12.276963195712963"><ele>129.0</ele><time>2026-05-02T13:49:55Z</time></trkpt><trkpt lat="44.103264038422495" lon="12.27692617977246"><ele>131.0</ele><time>2026-05-02T13:49:58Z</time></trkpt><trkpt lat="44.10319962994862" lon="12.276887545912647"><ele>133.0</ele><time>2026-05-02T13:50:01Z</time></trkpt><trkpt lat="44.103134276819176" lon="12.276830495597679"><ele>135.0</ele><time>2026-05-02T13:50:04Z</time></trkpt><trkpt lat="44.10306531339718" lon="12.276780779089515"><ele>137.0</ele><time>2026-05-02T13:50:07Z</time></trkpt><trkpt lat="44.10300694169719" lon="12.276718358755387"><ele>139.0</ele><time>2026-05-02T13:50:10Z</time></trkpt><trkpt lat="44.102941895734396" lon="12.27666174389824"><ele>141.0</ele><time>2026-05-02T13:50:13Z</time></trkpt><trkpt lat="44.10287242554582" lon="12.27658690752751"><ele>141.0</ele><time>2026-05-02T13:50:16Z</time></trkpt><trkpt lat="44.10280768435987" lon="12.276500789024674"><ele>141.0</ele><time>2026-05-02T13:50:19Z</time></trkpt><trkpt lat="44.102749235524854" lon="12.27642066904766"><ele>141.0</ele><time>2026-05-02T13:50:22Z</time></trkpt><trkpt lat="44.102684008103495" lon="12.27633374177485"><ele>141.0</ele><time>2026-05-02T13:50:25Z</time></trkpt><trkpt lat="44.102626041875496" lon="12.27625829518765"><ele>141.0</ele><time>2026-05-02T13:50:28Z</time></trkpt><trkpt lat="44.1025675169503" lon="12.276172491362884"><ele>141.0</ele><time>2026-05-02T13:50:31Z</time></trkpt><trkpt lat="44.1025063734853" lon="12.276138210954676"><ele>139.16666666666666</ele><time>2026-05-02T13:50:33Z</time></trkpt><trkpt lat="44.10244024625619" lon="12.276100030831861"><ele>137.33333333333334</ele><time>2026-05-02T13:50:35Z</time></trkpt><trkpt lat="44.10237500925872" lon="12.276073038625785"><ele>135.5</ele><time>2026-05-02T13:50:37Z</time></trkpt><trkpt lat="44.10229586595133" lon="12.276067157006048"><ele>133.66666666666669</ele><time>2026-05-02T13:50:39Z</time></trkpt><trkpt lat="44.10220196857809" lon="12.276069549342461"><ele>131.83333333333334</ele><time>2026-05-02T13:50:41Z</time></trkpt><trkpt lat="44.10209903411144" lon="12.276089442944356"><ele>130.0</ele><time>2026-05-02T13:50:43Z</time></trkpt><trkpt lat="44.10198926625686" lon="12.27611631725821"><ele>130.0</ele><time>2026-05-02T13:50:45Z</time></trkpt><trkpt lat="44.10187325240655" lon="12.276138189966995"><ele>130.0</ele><time>2026-05-02T13:50:47Z</time></trkpt><trkpt lat="44.101754497487306" lon="12.276140505080896"><ele>130.0</ele><time>2026-05-02T13:50:48.999Z</time></trkpt><trkpt lat="44.10163351895354" lon="12.276113640068601"><ele>130.0</ele><time>2026-05-02T13:50:50.999Z</time></trkpt><trkpt lat="44.101517860415086" lon="12.276063585133008"><ele>131.0</ele><time>2026-05-02T13:50:52.999Z</time></trkpt><trkpt lat="44.10140656572066" lon="12.276000307794884"><ele>132.0</ele><time>2026-05-02T13:50:54.999Z</time></trkpt><trkpt lat="44.10129965368584" lon="12.275926859287253"><ele>133.0</ele><time>2026-05-02T13:50:56.999Z</time></trkpt><trkpt lat="44.101192630886416" lon="12.275865345190292"><ele>134.0</ele><time>2026-05-02T13:50:59Z</time></trkpt><trkpt lat="44.10108721675307" lon="12.275796355973576"><ele>134.0</ele><time>2026-05-02T13:51:01Z</time></trkpt><trkpt lat="44.10098898789897" lon="12.275725851450416"><ele>134.0</ele><time>2026-05-02T13:51:03Z</time></trkpt><trkpt lat="44.10090038857854" lon="12.27566213790718"><ele>134.0</ele><time>2026-05-02T13:51:05Z</time></trkpt><trkpt lat="44.1008221868892" lon="12.275598490585109"><ele>134.0</ele><time>2026-05-02T13:51:07Z</time></trkpt><trkpt lat="44.10075672009848" lon="12.275557794262962"><ele>134.0</ele><time>2026-05-02T13:51:09Z</time></trkpt><trkpt lat="44.100652789980444" lon="12.275726426674247"><ele>136.5</ele><time>2026-05-02T13:51:12Z</time></trkpt><trkpt lat="44.100621650880825" lon="12.2758379534639"><ele>139.0</ele><time>2026-05-02T13:51:15Z</time></trkpt><trkpt lat="44.100588059651464" lon="12.275945079528096"><ele>141.5</ele><time>2026-05-02T13:51:18Z</time></trkpt><trkpt lat="44.10055215715577" lon="12.276053681679075"><ele>144.0</ele><time>2026-05-02T13:51:21Z</time></trkpt><trkpt lat="44.10051520730887" lon="12.276164473523645"><ele>146.5</ele><time>2026-05-02T13:51:24Z</time></trkpt><trkpt lat="44.100473559682996" lon="12.276233736685896"><ele>149.0</ele><time>2026-05-02T13:51:26Z</time></trkpt><trkpt lat="44.10045594266311" lon="12.276332218884086"><ele>149.0</ele><time>2026-05-02T13:51:28Z</time></trkpt><trkpt lat="44.10041736261139" lon="12.276428952192253"><ele>149.0</ele><time>2026-05-02T13:51:30Z</time></trkpt><trkpt lat="44.10037424478996" lon="12.276553565706122"><ele>149.0</ele><time>2026-05-02T13:51:32Z</time></trkpt><trkpt lat="44.10033183032564" lon="12.276668593209614"><ele>149.0</ele><time>2026-05-02T13:51:34Z</time></trkpt><trkpt lat="44.10027602788313" lon="12.27679049866417"><ele>149.0</ele><time>2026-05-02T13:51:36Z</time></trkpt><trkpt lat="44.100202779069114" lon="12.276911444844204"><ele>150.0</ele><time>2026-05-02T13:51:38Z</time></trkpt><trkpt lat="44.10012442863349" lon="12.277037630248133"><ele>151.0</ele><time>2026-05-02T13:51:40Z</time></trkpt><trkpt lat="44.10004150811854" lon="12.27716797625925"><ele>152.0</ele><time>2026-05-02T13:51:42Z</time></trkpt><trkpt lat="44.09996753912238" lon="12.277311083306248"><ele>153.0</ele><time>2026-05-02T13:51:44Z</time></trkpt><trkpt lat="44.099931741658814" lon="12.277385692449862"><ele>154.0</ele><time>2026-05-02T13:51:45Z</time></trkpt><trkpt lat="44.09988201938562" lon="12.277440728467244"><ele>154.0</ele><time>2026-05-02T13:51:46Z</time></trkpt><trkpt lat="44.09984642121414" lon="12.277516487325077"><ele>154.0</ele><time>2026-05-02T13:51:47Z</time></trkpt><trkpt lat="44.09978414983029" lon="12.277653058146472"><ele>154.0</ele><time>2026-05-02T13:51:49Z</time></trkpt><trkpt lat="44.099735173173514" lon="12.27776227191218"><ele>154.0</ele><time>2026-05-02T13:51:51Z</time></trkpt><trkpt lat="44.099690246790644" lon="12.277862453853494"><ele>154.0</ele><time>2026-05-02T13:51:53Z</time></trkpt><trkpt lat="44.09966098899339" lon="12.27796848438977"><ele>154.0</ele><time>2026-05-02T13:51:55Z</time></trkpt><trkpt lat="44.099607818724465" lon="12.278046258987287"><ele>153.28571428571428</ele><time>2026-05-02T13:51:57Z</time></trkpt><trkpt lat="44.099574214649586" lon="12.278128202449807"><ele>152.57142857142856</ele><time>2026-05-02T13:51:59Z</time></trkpt><trkpt lat="44.09954204427973" lon="12.27820610097709"><ele>151.85714285714286</ele><time>2026-05-02T13:52:01Z</time></trkpt><trkpt lat="44.09950334289544" lon="12.27831545987324"><ele>151.14285714285714</ele><time>2026-05-02T13:52:04Z</time></trkpt><trkpt lat="44.099472652194166" lon="12.278411716971952"><ele>150.42857142857142</ele><time>2026-05-02T13:52:07Z</time></trkpt><trkpt lat="44.099446078669104" lon="12.278507135206345"><ele>149.71428571428572</ele><time>2026-05-02T13:52:10Z</time></trkpt><trkpt lat="44.09941971062831" lon="12.278609487646431"><ele>149.0</ele><time>2026-05-02T13:52:13Z</time></trkpt><trkpt lat="44.09939293955887" lon="12.278713406846894"><ele>149.0</ele><time>2026-05-02T13:52:16Z</time></trkpt><trkpt lat="44.09938614959797" lon="12.278841408852358"><ele>149.0</ele><time>2026-05-02T13:52:19Z</time></trkpt><trkpt lat="44.0993745393367" lon="12.278958456561961"><ele>149.0</ele><time>2026-05-02T13:52:22Z</time></trkpt><trkpt lat="44.0993657493632" lon="12.27908103470199"><ele>149.0</ele><time>2026-05-02T13:52:25Z</time></trkpt><trkpt lat="44.09936450300239" lon="12.279173523680445"><ele>149.0</ele><time>2026-05-02T13:52:27Z</time></trkpt><trkpt lat="44.099370921743386" lon="12.27926190492235"><ele>149.0</ele><time>2026-05-02T13:52:29Z</time></trkpt><trkpt lat="44.09938297174091" lon="12.279354101555429"><ele>147.33333333333331</ele><time>2026-05-02T13:52:31Z</time></trkpt><trkpt lat="44.099403040348584" lon="12.279447422298194"><ele>145.66666666666666</ele><time>2026-05-02T13:52:33Z</time></trkpt><trkpt lat="44.09942893482799" lon="12.279537543650557"><ele>144.0</ele><time>2026-05-02T13:52:35Z</time></trkpt><trkpt lat="44.099464564166496" lon="12.279623120212307"><ele>142.33333333333334</ele><time>2026-05-02T13:52:37Z</time></trkpt><trkpt lat="44.09950265596659" lon="12.279696585642027"><ele>140.66666666666669</ele><time>2026-05-02T13:52:39Z</time></trkpt><trkpt lat="44.09956981113351" lon="12.279784216702627"><ele>139.0</ele><time>2026-05-02T13:52:42Z</time></trkpt><trkpt lat="44.099619561492666" lon="12.279881043678772"><ele>138.16666666666669</ele><time>2026-05-02T13:52:45Z</time></trkpt><trkpt lat="44.09967307875301" lon="12.279976115188939"><ele>137.33333333333334</ele><time>2026-05-02T13:52:48Z</time></trkpt><trkpt lat="44.099726620752904" lon="12.280077108762136"><ele>136.5</ele><time>2026-05-02T13:52:51Z</time></trkpt><trkpt lat="44.09976051408066" lon="12.28015295043894"><ele>135.66666666666666</ele><time>2026-05-02T13:52:53Z</time></trkpt><trkpt lat="44.099818194535366" lon="12.280255586334542"><ele>134.83333333333331</ele><time>2026-05-02T13:52:56Z</time></trkpt><trkpt lat="44.09987479990579" lon="12.280357960609225"><ele>134.0</ele><time>2026-05-02T13:52:59Z</time></trkpt><trkpt lat="44.09991899674926" lon="12.28043461055379"><ele>134.0</ele><time>2026-05-02T13:53:01Z</time></trkpt><trkpt lat="44.09996516797169" lon="12.280522326732385"><ele>134.0</ele><time>2026-05-02T13:53:03Z</time></trkpt><trkpt lat="44.10001534891293" lon="12.280608681663578"><ele>134.0</ele><time>2026-05-02T13:53:05Z</time></trkpt><trkpt lat="44.10005426866727" lon="12.280713328704886"><ele>134.0</ele><time>2026-05-02T13:53:07Z</time></trkpt><trkpt lat="44.10010725054113" lon="12.280818741142388"><ele>134.0</ele><time>2026-05-02T13:53:09Z</time></trkpt><trkpt lat="44.10016177582577" lon="12.280929920196455"><ele>134.0</ele><time>2026-05-02T13:53:11Z</time></trkpt><trkpt lat="44.100215617291894" lon="12.281040194214793"><ele>134.4</ele><time>2026-05-02T13:53:13Z</time></trkpt><trkpt lat="44.10027196187614" lon="12.281158206883603"><ele>134.8</ele><time>2026-05-02T13:53:15Z</time></trkpt><trkpt lat="44.100327066441196" lon="12.281275567891418"><ele>135.2</ele><time>2026-05-02T13:53:17Z</time></trkpt><trkpt lat="44.10037868903918" lon="12.281397696789465"><ele>135.6</ele><time>2026-05-02T13:53:19Z</time></trkpt><trkpt lat="44.10043863456729" lon="12.281511276509166"><ele>136.0</ele><time>2026-05-02T13:53:21Z</time></trkpt><trkpt lat="44.1004648960753" lon="12.281650210140562"><ele>134.8</ele><time>2026-05-02T13:53:23Z</time></trkpt><trkpt lat="44.10051488231512" lon="12.281782763676675"><ele>133.6</ele><time>2026-05-02T13:53:25Z</time></trkpt><trkpt lat="44.10054909333512" lon="12.281935261566973"><ele>132.4</ele><time>2026-05-02T13:53:27Z</time></trkpt><trkpt lat="44.10057625365119" lon="12.28207809891201"><ele>131.2</ele><time>2026-05-02T13:53:29Z</time></trkpt><trkpt lat="44.10059987637092" lon="12.282215310853571"><ele>130.0</ele><time>2026-05-02T13:53:31Z</time></trkpt><trkpt lat="44.10060667203806" lon="12.282347749520774"><ele>129.8</ele><time>2026-05-02T13:53:33Z</time></trkpt><trkpt lat="44.100638692996746" lon="12.282463290205829"><ele>129.6</ele><time>2026-05-02T13:53:35Z</time></trkpt><trkpt lat="44.10066445376538" lon="12.28259775564985"><ele>129.4</ele><time>2026-05-02T13:53:37Z</time></trkpt><trkpt lat="44.100671941105986" lon="12.282744073868553"><ele>129.2</ele><time>2026-05-02T13:53:39Z</time></trkpt><trkpt lat="44.10069559248441" lon="12.28287054495143"><ele>129.0</ele><time>2026-05-02T13:53:41Z</time></trkpt><trkpt lat="44.10072334473541" lon="12.282989478832647"><ele>129.4</ele><time>2026-05-02T13:53:43Z</time></trkpt><trkpt lat="44.10075349151887" lon="12.283106614132404"><ele>129.8</ele><time>2026-05-02T13:53:45Z</time></trkpt><trkpt lat="44.10079455215505" lon="12.283220709747656"><ele>130.2</ele><time>2026-05-02T13:53:47Z</time></trkpt><trkpt lat="44.10085099857658" lon="12.283327844665655"><ele>130.6</ele><time>2026-05-02T13:53:49Z</time></trkpt><trkpt lat="44.10091402638755" lon="12.28343342941403"><ele>131.0</ele><time>2026-05-02T13:53:51Z</time></trkpt><trkpt lat="44.10098991959957" lon="12.283515671071397"><ele>131.0</ele><time>2026-05-02T13:53:53Z</time></trkpt><trkpt lat="44.101057939876156" lon="12.283612660911125"><ele>131.0</ele><time>2026-05-02T13:53:55Z</time></trkpt><trkpt lat="44.10111026059389" lon="12.283732894283721"><ele>131.0</ele><time>2026-05-02T13:53:57Z</time></trkpt><trkpt lat="44.10114999546937" lon="12.28386534767362"><ele>131.0</ele><time>2026-05-02T13:53:59Z</time></trkpt><trkpt lat="44.101158151726075" lon="12.284011380824507"><ele>131.0</ele><time>2026-05-02T13:54:01Z</time></trkpt><trkpt lat="44.10117844044445" lon="12.284161107616516"><ele>130.4</ele><time>2026-05-02T13:54:03Z</time></trkpt><trkpt lat="44.10119859385881" lon="12.284320164597249"><ele>129.8</ele><time>2026-05-02T13:54:05Z</time></trkpt><trkpt lat="44.101219518961145" lon="12.284483867059077"><ele>129.20000000000002</ele><time>2026-05-02T13:54:07Z</time></trkpt><trkpt lat="44.10125176660334" lon="12.284652524110204"><ele>128.6</ele><time>2026-05-02T13:54:09Z</time></trkpt><trkpt lat="44.10125474948596" lon="12.284744488960033"><ele>128.0</ele><time>2026-05-02T13:54:10Z</time></trkpt><trkpt lat="44.101268353277696" lon="12.284835737042371"><ele>127.28571428571428</ele><time>2026-05-02T13:54:11Z</time></trkpt><trkpt lat="44.10128502613485" lon="12.28492733595581"><ele>126.57142857142856</ele><time>2026-05-02T13:54:12Z</time></trkpt><trkpt lat="44.1013078514321" lon="12.285020747736263"><ele>125.85714285714286</ele><time>2026-05-02T13:54:13Z</time></trkpt><trkpt lat="44.1013357642832" lon="12.28511376852286"><ele>125.14285714285714</ele><time>2026-05-02T13:54:14Z</time></trkpt><trkpt lat="44.101378692726506" lon="12.285194963322192"><ele>124.42857142857143</ele><time>2026-05-02T13:54:15Z</time></trkpt><trkpt lat="44.10139250173421" lon="12.28529530572165"><ele>123.71428571428572</ele><time>2026-05-02T13:54:16Z</time></trkpt><trkpt lat="44.10142052427498" lon="12.285385414899597"><ele>123.00000000000001</ele><time>2026-05-02T13:54:17Z</time></trkpt><trkpt lat="44.101446142759016" lon="12.285471480896634"><ele>123.0</ele><time>2026-05-02T13:54:18Z</time></trkpt><trkpt lat="44.10146918300505" lon="12.285559004832912"><ele>123.0</ele><time>2026-05-02T13:54:19Z</time></trkpt><trkpt lat="44.10150492460312" lon="12.285638378671955"><ele>123.0</ele><time>2026-05-02T13:54:20Z</time></trkpt><trkpt lat="44.10152243966711" lon="12.285723547043265"><ele>123.0</ele><time>2026-05-02T13:54:21Z</time></trkpt><trkpt lat="44.101538877574825" lon="12.285887890114827"><ele>123.0</ele><time>2026-05-02T13:54:23Z</time></trkpt><trkpt lat="44.10154272404714" lon="12.286041129472071"><ele>123.0</ele><time>2026-05-02T13:54:25Z</time></trkpt><trkpt lat="44.10154652210997" lon="12.28618830335311"><ele>122.2</ele><time>2026-05-02T13:54:27Z</time></trkpt><trkpt lat="44.101544184659005" lon="12.286332257207599"><ele>121.4</ele><time>2026-05-02T13:54:29Z</time></trkpt><trkpt lat="44.10153952274285" lon="12.286475560780188"><ele>120.60000000000001</ele><time>2026-05-02T13:54:31Z</time></trkpt><trkpt lat="44.10154059779111" lon="12.286616475558468"><ele>119.80000000000001</ele><time>2026-05-02T13:54:33Z</time></trkpt><trkpt lat="44.10153998287849" lon="12.286755763841905"><ele>119.0</ele><time>2026-05-02T13:54:35Z</time></trkpt><trkpt lat="44.10153617868513" lon="12.286901214638084"><ele>118.80000000000001</ele><time>2026-05-02T13:54:37Z</time></trkpt><trkpt lat="44.101533421249655" lon="12.287046801114391"><ele>118.60000000000001</ele><time>2026-05-02T13:54:39Z</time></trkpt><trkpt lat="44.10153601487707" lon="12.287191798684226"><ele>118.4</ele><time>2026-05-02T13:54:41Z</time></trkpt><trkpt lat="44.10153574981375" lon="12.287336085651658"><ele>118.2</ele><time>2026-05-02T13:54:43Z</time></trkpt><trkpt lat="44.10153276701351" lon="12.287480859613579"><ele>118.0</ele><time>2026-05-02T13:54:45Z</time></trkpt><trkpt lat="44.1015160824054" lon="12.287618737579681"><ele>118.0</ele><time>2026-05-02T13:54:47Z</time></trkpt><trkpt lat="44.101522092501966" lon="12.287756849546152"><ele>118.00000000000001</ele><time>2026-05-02T13:54:49Z</time></trkpt><trkpt lat="44.101514625550415" lon="12.287886717958441"><ele>118.00000000000001</ele><time>2026-05-02T13:54:51Z</time></trkpt><trkpt lat="44.101507743745415" lon="12.288012809677477"><ele>118.0</ele><time>2026-05-02T13:54:53Z</time></trkpt><trkpt lat="44.10149844454555" lon="12.288138165755734"><ele>118.0</ele><time>2026-05-02T13:54:55Z</time></trkpt><trkpt lat="44.10148433681988" lon="12.28825805338887"><ele>119.33333333333334</ele><time>2026-05-02T13:54:57Z</time></trkpt><trkpt lat="44.10146981125434" lon="12.288372562043254"><ele>120.66666666666667</ele><time>2026-05-02T13:54:59Z</time></trkpt><trkpt lat="44.10145095023412" lon="12.288479672663533"><ele>122.0</ele><time>2026-05-02T13:55:01Z</time></trkpt><trkpt lat="44.10143236045088" lon="12.288578562363487"><ele>123.33333333333334</ele><time>2026-05-02T13:55:02.999Z</time></trkpt><trkpt lat="44.10140792810027" lon="12.288664753814762"><ele>124.66666666666667</ele><time>2026-05-02T13:55:04.999Z</time></trkpt><trkpt lat="44.10136827155503" lon="12.288764431411128"><ele>126.0</ele><time>2026-05-02T13:55:07.999Z</time></trkpt><trkpt lat="44.10132707804306" lon="12.288859962576508"><ele>126.0</ele><time>2026-05-02T13:55:11Z</time></trkpt><trkpt lat="44.101257107827564" lon="12.288900125047144"><ele>126.0</ele><time>2026-05-02T13:55:14Z</time></trkpt><trkpt lat="44.101258286820546" lon="12.289134314603263"><ele>126.0</ele><time>2026-05-02T13:55:20Z</time></trkpt><trkpt lat="44.101300434406284" lon="12.289222806541225"><ele>126.0</ele><time>2026-05-02T13:55:23Z</time></trkpt><trkpt lat="44.10134188179782" lon="12.2893080086649"><ele>126.0</ele><time>2026-05-02T13:55:26Z</time></trkpt><trkpt lat="44.10139116973786" lon="12.289407830736096"><ele>126.0</ele><time>2026-05-02T13:55:29Z</time></trkpt><trkpt lat="44.10142828730744" lon="12.28948300435486"><ele>126.0</ele><time>2026-05-02T13:55:31Z</time></trkpt><trkpt lat="44.10148436336906" lon="12.289556376219874"><ele>126.0</ele><time>2026-05-02T13:55:33Z</time></trkpt><trkpt lat="44.10153452792318" lon="12.289666509040371"><ele>126.0</ele><time>2026-05-02T13:55:35Z</time></trkpt><trkpt lat="44.10159739836822" lon="12.289794312358378"><ele>126.0</ele><time>2026-05-02T13:55:37Z</time></trkpt><trkpt lat="44.10166473558957" lon="12.289944820295634"><ele>126.0</ele><time>2026-05-02T13:55:39Z</time></trkpt><trkpt lat="44.10170713260454" lon="12.290013209109862"><ele>126.0</ele><time>2026-05-02T13:55:40Z</time></trkpt><trkpt lat="44.10174671210242" lon="12.290091739125982"><ele>126.0</ele><time>2026-05-02T13:55:41Z</time></trkpt><trkpt lat="44.101784465276594" lon="12.290168922314404"><ele>126.0</ele><time>2026-05-02T13:55:42Z</time></trkpt><trkpt lat="44.10181219478316" lon="12.290260526002426"><ele>126.0</ele><time>2026-05-02T13:55:43Z</time></trkpt><trkpt lat="44.10185328417554" lon="12.2903437436897"><ele>126.0</ele><time>2026-05-02T13:55:44Z</time></trkpt><trkpt lat="44.101895086025344" lon="12.29042840430344"><ele>126.0</ele><time>2026-05-02T13:55:45Z</time></trkpt><trkpt lat="44.10193841310842" lon="12.290516153946122"><ele>125.28571428571428</ele><time>2026-05-02T13:55:46Z</time></trkpt><trkpt lat="44.10198146130005" lon="12.290603338756846"><ele>124.57142857142857</ele><time>2026-05-02T13:55:47Z</time></trkpt><trkpt lat="44.102034943617504" lon="12.290679006568253"><ele>123.85714285714286</ele><time>2026-05-02T13:55:48Z</time></trkpt><trkpt lat="44.10207967811674" lon="12.290766931869378"><ele>123.14285714285714</ele><time>2026-05-02T13:55:49Z</time></trkpt><trkpt lat="44.10212197797783" lon="12.290852312951849"><ele>122.42857142857142</ele><time>2026-05-02T13:55:50Z</time></trkpt><trkpt lat="44.10216154718024" lon="12.290935337300715"><ele>121.71428571428571</ele><time>2026-05-02T13:55:51Z</time></trkpt><trkpt lat="44.102195723953194" lon="12.291012132732629"><ele>121.0</ele><time>2026-05-02T13:55:52Z</time></trkpt><trkpt lat="44.102232858417125" lon="12.291086437041283"><ele>121.0</ele><time>2026-05-02T13:55:53Z</time></trkpt><trkpt lat="44.10227182016269" lon="12.291163572830973"><ele>121.0</ele><time>2026-05-02T13:55:54Z</time></trkpt><trkpt lat="44.102332116018935" lon="12.291304499233236"><ele>121.0</ele><time>2026-05-02T13:55:56Z</time></trkpt><trkpt lat="44.102397293345064" lon="12.291443320561774"><ele>121.0</ele><time>2026-05-02T13:55:58Z</time></trkpt><trkpt lat="44.10246057030287" lon="12.291571767942203"><ele>121.0</ele><time>2026-05-02T13:56:00Z</time></trkpt><trkpt lat="44.10253190249773" lon="12.291694881477845"><ele>120.25</ele><time>2026-05-02T13:56:02Z</time></trkpt><trkpt lat="44.10260180217929" lon="12.291804254096473"><ele>119.5</ele><time>2026-05-02T13:56:04Z</time></trkpt><trkpt lat="44.10268191454938" lon="12.291907621835442"><ele>118.75</ele><time>2026-05-02T13:56:06Z</time></trkpt><trkpt lat="44.102781283364955" lon="12.29199809279496"><ele>118.0</ele><time>2026-05-02T13:56:08Z</time></trkpt><trkpt lat="44.10288081157672" lon="12.292082481719001"><ele>118.0</ele><time>2026-05-02T13:56:10Z</time></trkpt><trkpt lat="44.10298470883554" lon="12.292147584105928"><ele>118.00000000000001</ele><time>2026-05-02T13:56:12Z</time></trkpt><trkpt lat="44.1030921177064" lon="12.292219159206644"><ele>118.00000000000001</ele><time>2026-05-02T13:56:14Z</time></trkpt><trkpt lat="44.1031884966803" lon="12.292282355524643"><ele>118.0</ele><time>2026-05-02T13:56:16Z</time></trkpt><trkpt lat="44.10328564358786" lon="12.292344449670777"><ele>118.0</ele><time>2026-05-02T13:56:18Z</time></trkpt><trkpt lat="44.103393479166165" lon="12.292442349360911"><ele>115.4</ele><time>2026-05-02T13:56:20Z</time></trkpt><trkpt lat="44.103450576030205" lon="12.292502377253532"><ele>112.80000000000001</ele><time>2026-05-02T13:56:21Z</time></trkpt><trkpt lat="44.10350219924934" lon="12.292566047759044"><ele>110.2</ele><time>2026-05-02T13:56:22Z</time></trkpt><trkpt lat="44.10358162259149" lon="12.292676293310233"><ele>107.6</ele><time>2026-05-02T13:56:24Z</time></trkpt><trkpt lat="44.10367007313295" lon="12.292787093065202"><ele>105.0</ele><time>2026-05-02T13:56:26Z</time></trkpt><trkpt lat="44.10373536524425" lon="12.292875538752936"><ele>105.0</ele><time>2026-05-02T13:56:28Z</time></trkpt><trkpt lat="44.10371358891883" lon="12.292979954474703"><ele>105.0</ele><time>2026-05-02T13:56:31Z</time></trkpt><trkpt lat="44.10364378440928" lon="12.293027681274584"><ele>105.0</ele><time>2026-05-02T13:56:34Z</time></trkpt><trkpt lat="44.103572004887674" lon="12.29305861036692"><ele>105.0</ele><time>2026-05-02T13:56:38Z</time></trkpt><trkpt lat="44.10350997653332" lon="12.293104001727102"><ele>105.0</ele><time>2026-05-02T13:56:41Z</time></trkpt><trkpt lat="44.10344432528873" lon="12.293136612213168"><ele>105.0</ele><time>2026-05-02T13:56:44Z</time></trkpt><trkpt lat="44.103374431374874" lon="12.293151184625719"><ele>105.0</ele><time>2026-05-02T13:56:47Z</time></trkpt><trkpt lat="44.10329577995727" lon="12.293165703594681"><ele>104.0</ele><time>2026-05-02T13:56:50Z</time></trkpt><trkpt lat="44.10321343495474" lon="12.293168955434204"><ele>103.0</ele><time>2026-05-02T13:56:53Z</time></trkpt><trkpt lat="44.10314182631162" lon="12.293170049539341"><ele>102.0</ele><time>2026-05-02T13:56:56Z</time></trkpt><trkpt lat="44.10307289413824" lon="12.29316000088874"><ele>101.0</ele><time>2026-05-02T13:56:59Z</time></trkpt><trkpt lat="44.10300526647749" lon="12.293136702181181"><ele>100.0</ele><time>2026-05-02T13:57:02Z</time></trkpt><trkpt lat="44.10294190966286" lon="12.293135079935308"><ele>99.0</ele><time>2026-05-02T13:57:05Z</time></trkpt><trkpt lat="44.102871347919425" lon="12.293146355552986"><ele>98.0</ele><time>2026-05-02T13:57:08Z</time></trkpt><trkpt lat="44.10279654049729" lon="12.293172069397935"><ele>98.0</ele><time>2026-05-02T13:57:11Z</time></trkpt><trkpt lat="44.102723284681815" lon="12.29320517686213"><ele>98.0</ele><time>2026-05-02T13:57:14Z</time></trkpt><trkpt lat="44.10264302329285" lon="12.293239360924778"><ele>98.0</ele><time>2026-05-02T13:57:17Z</time></trkpt><trkpt lat="44.10257436103813" lon="12.293260609027527"><ele>98.0</ele><time>2026-05-02T13:57:20Z</time></trkpt><trkpt lat="44.10250334492886" lon="12.293306069074022"><ele>98.0</ele><time>2026-05-02T13:57:23Z</time></trkpt><trkpt lat="44.10243486820751" lon="12.293322246683191"><ele>98.0</ele><time>2026-05-02T14:02:05Z</time></trkpt><trkpt lat="44.10236996579738" lon="12.29333655824458"><ele>98.0</ele><time>2026-05-02T14:03:52Z</time></trkpt><trkpt lat="44.10228455221393" lon="12.293368513125152"><ele>97.33333333333333</ele><time>2026-05-02T14:03:56Z</time></trkpt><trkpt lat="44.10221466750181" lon="12.293387802705313"><ele>96.66666666666666</ele><time>2026-05-02T14:03:58Z</time></trkpt><trkpt lat="44.10213383698612" lon="12.293418002866757"><ele>96.0</ele><time>2026-05-02T14:04:00Z</time></trkpt><trkpt lat="44.102052515598274" lon="12.293446994706853"><ele>95.33333333333333</ele><time>2026-05-02T14:04:02Z</time></trkpt><trkpt lat="44.101982786227744" lon="12.293477061125365"><ele>94.66666666666666</ele><time>2026-05-02T14:04:04Z</time></trkpt><trkpt lat="44.10194610881729" lon="12.293572252074839"><ele>94.0</ele><time>2026-05-02T14:04:06Z</time></trkpt><trkpt lat="44.1019057614628" lon="12.29368005849442"><ele>94.0</ele><time>2026-05-02T14:04:08Z</time></trkpt><trkpt lat="44.10191466268966" lon="12.29378289502046"><ele>94.0</ele><time>2026-05-02T14:04:10Z</time></trkpt><trkpt lat="44.10188868513054" lon="12.293863156671796"><ele>94.0</ele><time>2026-05-02T14:04:12Z</time></trkpt><trkpt lat="44.101885467961885" lon="12.29398560984495"><ele>94.0</ele><time>2026-05-02T14:04:14Z</time></trkpt><trkpt lat="44.10188924194582" lon="12.294110092984063"><ele>94.0</ele><time>2026-05-02T14:04:16Z</time></trkpt><trkpt lat="44.10188088306192" lon="12.294222927154436"><ele>94.0</ele><time>2026-05-02T14:04:18Z</time></trkpt><trkpt lat="44.101864304838145" lon="12.294324803090063"><ele>93.16666666666666</ele><time>2026-05-02T14:04:20Z</time></trkpt><trkpt lat="44.10181769352016" lon="12.294453208180565"><ele>92.33333333333333</ele><time>2026-05-02T14:04:23Z</time></trkpt><trkpt lat="44.101758796124464" lon="12.294510924057745"><ele>91.5</ele><time>2026-05-02T14:04:25Z</time></trkpt><trkpt lat="44.10171639125416" lon="12.294589044025022"><ele>90.66666666666667</ele><time>2026-05-02T14:04:27Z</time></trkpt><trkpt lat="44.10166756432313" lon="12.294647974077053"><ele>89.83333333333334</ele><time>2026-05-02T14:04:56Z</time></trkpt><trkpt lat="44.101590430308335" lon="12.29471140299595"><ele>89.0</ele><time>2026-05-02T14:05:00Z</time></trkpt><trkpt lat="44.101541580503174" lon="12.294803234845672"><ele>86.2</ele><time>2026-05-02T14:05:02Z</time></trkpt><trkpt lat="44.10146343262983" lon="12.294885874397341"><ele>83.4</ele><time>2026-05-02T14:05:04Z</time></trkpt><trkpt lat="44.1013951836054" lon="12.295005931865076"><ele>80.6</ele><time>2026-05-02T14:05:06Z</time></trkpt><trkpt lat="44.101370954302766" lon="12.295096331838955"><ele>77.8</ele><time>2026-05-02T14:05:07Z</time></trkpt><trkpt lat="44.101304957580695" lon="12.295255578183186"><ele>75.0</ele><time>2026-05-02T14:05:09Z</time></trkpt><trkpt lat="44.10127543091834" lon="12.295344243796468"><ele>75.0</ele><time>2026-05-02T14:05:10Z</time></trkpt><trkpt lat="44.10124728243288" lon="12.295428917925745"><ele>75.0</ele><time>2026-05-02T14:05:11Z</time></trkpt><trkpt lat="44.101217902314424" lon="12.295515142841747"><ele>75.0</ele><time>2026-05-02T14:05:12Z</time></trkpt><trkpt lat="44.10118662168917" lon="12.295623745978741"><ele>75.0</ele><time>2026-05-02T14:05:13Z</time></trkpt><trkpt lat="44.10113215797845" lon="12.295741479805471"><ele>75.0</ele><time>2026-05-02T14:05:14Z</time></trkpt><trkpt lat="44.101102053479984" lon="12.29588814935421"><ele>75.0</ele><time>2026-05-02T14:05:15Z</time></trkpt><trkpt lat="44.101059892278805" lon="12.296023705656893"><ele>72.75</ele><time>2026-05-02T14:05:16Z</time></trkpt><trkpt lat="44.101018179873535" lon="12.296155703031115"><ele>70.5</ele><time>2026-05-02T14:05:17Z</time></trkpt><trkpt lat="44.100971036407" lon="12.296306409437289"><ele>68.25</ele><time>2026-05-02T14:05:18Z</time></trkpt><trkpt lat="44.100922096328546" lon="12.29645745598726"><ele>66.0</ele><time>2026-05-02T14:05:19Z</time></trkpt><trkpt lat="44.10085967954086" lon="12.296596021793047"><ele>64.8</ele><time>2026-05-02T14:05:20Z</time></trkpt><trkpt lat="44.10082561808078" lon="12.296755642334658"><ele>63.599999999999994</ele><time>2026-05-02T14:05:21Z</time></trkpt><trkpt lat="44.10077456007675" lon="12.296902778371352"><ele>62.4</ele><time>2026-05-02T14:05:22Z</time></trkpt><trkpt lat="44.100736395880325" lon="12.29701908322823"><ele>61.2</ele><time>2026-05-02T14:05:23Z</time></trkpt><trkpt lat="44.10069662479654" lon="12.297118751190919"><ele>60.0</ele><time>2026-05-02T14:05:24Z</time></trkpt><trkpt lat="44.10067533951227" lon="12.297217287436847"><ele>58.666666666666664</ele><time>2026-05-02T14:05:25Z</time></trkpt><trkpt lat="44.10065010876863" lon="12.297305301173363"><ele>57.33333333333333</ele><time>2026-05-02T14:05:26Z</time></trkpt><trkpt lat="44.10060412792375" lon="12.297436636828651"><ele>56.0</ele><time>2026-05-02T14:05:28Z</time></trkpt><trkpt lat="44.100572063156" lon="12.297534463613898"><ele>54.666666666666664</ele><time>2026-05-02T14:05:30Z</time></trkpt><trkpt lat="44.10053014311588" lon="12.297658078575262"><ele>53.33333333333333</ele><time>2026-05-02T14:05:32Z</time></trkpt><trkpt lat="44.100565471800664" lon="12.297781565071231"><ele>52.0</ele><time>2026-05-02T14:05:33Z</time></trkpt><trkpt lat="44.100569477025296" lon="12.297950041235218"><ele>52.0</ele><time>2026-05-02T14:05:35Z</time></trkpt><trkpt lat="44.10058657317889" lon="12.298036821724745"><ele>52.0</ele><time>2026-05-02T14:05:36Z</time></trkpt><trkpt lat="44.10058463967568" lon="12.298125825089173"><ele>52.0</ele><time>2026-05-02T14:05:37Z</time></trkpt><trkpt lat="44.100586133825125" lon="12.29822017054864"><ele>52.0</ele><time>2026-05-02T14:05:38Z</time></trkpt><trkpt lat="44.10058939460918" lon="12.298314089757076"><ele>52.0</ele><time>2026-05-02T14:05:39Z</time></trkpt><trkpt lat="44.10060600735146" lon="12.298413080210056"><ele>52.0</ele><time>2026-05-02T14:05:40Z</time></trkpt><trkpt lat="44.10059320787313" lon="12.298513627768594"><ele>52.0</ele><time>2026-05-02T14:05:41Z</time></trkpt><trkpt lat="44.10062711992006" lon="12.298611034587042"><ele>51.33333333333333</ele><time>2026-05-02T14:05:42Z</time></trkpt><trkpt lat="44.10065350753975" lon="12.298697570923283"><ele>50.666666666666664</ele><time>2026-05-02T14:05:43Z</time></trkpt><trkpt lat="44.100689767598254" lon="12.298780983178755"><ele>50.0</ele><time>2026-05-02T14:05:44Z</time></trkpt><trkpt lat="44.10073008065884" lon="12.298858054159915"><ele>49.33333333333333</ele><time>2026-05-02T14:05:45Z</time></trkpt><trkpt lat="44.10077054115249" lon="12.298928657614498"><ele>48.666666666666664</ele><time>2026-05-02T14:05:46Z</time></trkpt><trkpt lat="44.1008175155124" lon="12.298990809957285"><ele>48.0</ele><time>2026-05-02T14:05:47Z</time></trkpt><trkpt lat="44.100902942998616" lon="12.299110586381373"><ele>47.4</ele><time>2026-05-02T14:05:49Z</time></trkpt><trkpt lat="44.10097728340804" lon="12.2992290454655"><ele>46.8</ele><time>2026-05-02T14:05:51Z</time></trkpt><trkpt lat="44.10104868070409" lon="12.299342503305045"><ele>46.2</ele><time>2026-05-02T14:05:53Z</time></trkpt><trkpt lat="44.10111447775196" lon="12.29945270107495"><ele>45.6</ele><time>2026-05-02T14:05:55Z</time></trkpt><trkpt lat="44.101177350551296" lon="12.299563835849291"><ele>45.0</ele><time>2026-05-02T14:05:57Z</time></trkpt><trkpt lat="44.101226267607124" lon="12.299663166947601"><ele>45.333333333333336</ele><time>2026-05-02T14:05:59Z</time></trkpt><trkpt lat="44.10126949172623" lon="12.299757275795411"><ele>45.666666666666664</ele><time>2026-05-02T14:06:01Z</time></trkpt><trkpt lat="44.10130810814028" lon="12.29984915398947"><ele>46.0</ele><time>2026-05-02T14:06:03Z</time></trkpt><trkpt lat="44.10134716868896" lon="12.299953418978408"><ele>46.33333333333333</ele><time>2026-05-02T14:06:05Z</time></trkpt><trkpt lat="44.10138191760809" lon="12.300054906251587"><ele>46.666666666666664</ele><time>2026-05-02T14:06:07Z</time></trkpt><trkpt lat="44.10142475571175" lon="12.300157051335697"><ele>47.0</ele><time>2026-05-02T14:06:09Z</time></trkpt><trkpt lat="44.10145524894943" lon="12.300268432451894"><ele>47.0</ele><time>2026-05-02T14:06:11Z</time></trkpt><trkpt lat="44.101488566577935" lon="12.300383091540377"><ele>47.0</ele><time>2026-05-02T14:06:13Z</time></trkpt><trkpt lat="44.10152076315437" lon="12.300490223617103"><ele>47.0</ele><time>2026-05-02T14:06:15Z</time></trkpt><trkpt lat="44.10154863525641" lon="12.300602056113314"><ele>47.0</ele><time>2026-05-02T14:06:17Z</time></trkpt><trkpt lat="44.10158228280302" lon="12.30071507219275"><ele>47.0</ele><time>2026-05-02T14:06:19Z</time></trkpt><trkpt lat="44.101609305974" lon="12.300829339930186"><ele>47.0</ele><time>2026-05-02T14:06:21Z</time></trkpt><trkpt lat="44.101643920549115" lon="12.300925967936978"><ele>47.166666666666664</ele><time>2026-05-02T14:06:23Z</time></trkpt><trkpt lat="44.10167645494023" lon="12.301033184843266"><ele>47.33333333333333</ele><time>2026-05-02T14:06:25Z</time></trkpt><trkpt lat="44.10169990540257" lon="12.301144739176678"><ele>47.5</ele><time>2026-05-02T14:06:27Z</time></trkpt><trkpt lat="44.101747553905305" lon="12.30123237924298"><ele>47.666666666666664</ele><time>2026-05-02T14:06:29Z</time></trkpt><trkpt lat="44.10177677175327" lon="12.301327708587047"><ele>47.833333333333336</ele><time>2026-05-02T14:06:31Z</time></trkpt><trkpt lat="44.10180626277993" lon="12.301410388262337"><ele>48.0</ele><time>2026-05-02T14:06:33Z</time></trkpt><trkpt lat="44.10180928700852" lon="12.301497964492702"><ele>47.99999999999999</ele><time>2026-05-02T14:06:36Z</time></trkpt><trkpt lat="44.10172287535564" lon="12.301547400787314"><ele>48.0</ele><time>2026-05-02T14:06:38Z</time></trkpt><trkpt lat="44.10166389118666" lon="12.301588348688032"><ele>48.0</ele><time>2026-05-02T14:06:40Z</time></trkpt><trkpt lat="44.10160055502654" lon="12.301629696571428"><ele>48.0</ele><time>2026-05-02T14:06:42Z</time></trkpt><trkpt lat="44.10153644976899" lon="12.301667228645366"><ele>48.0</ele><time>2026-05-02T14:06:44Z</time></trkpt><trkpt lat="44.101477093707224" lon="12.301729390242208"><ele>47.99999999999999</ele><time>2026-05-02T14:06:46Z</time></trkpt><trkpt lat="44.10142106874484" lon="12.30180011619133"><ele>48.0</ele><time>2026-05-02T14:06:48Z</time></trkpt><trkpt lat="44.10138674356798" lon="12.30190706303406"><ele>48.0</ele><time>2026-05-02T14:06:50Z</time></trkpt><trkpt lat="44.10136245490987" lon="12.302002581078225"><ele>48.0</ele><time>2026-05-02T14:06:52Z</time></trkpt><trkpt lat="44.10132294433649" lon="12.3020795724657"><ele>48.0</ele><time>2026-05-02T14:06:54Z</time></trkpt><trkpt lat="44.10131355642809" lon="12.30220142993452"><ele>48.0</ele><time>2026-05-02T14:06:56Z</time></trkpt><trkpt lat="44.10129487604885" lon="12.302319600632208"><ele>48.0</ele><time>2026-05-02T14:06:58Z</time></trkpt><trkpt lat="44.10127571444737" lon="12.302441096248817"><ele>48.0</ele><time>2026-05-02T14:07:00Z</time></trkpt><trkpt lat="44.10125672590839" lon="12.302564521752949"><ele>48.0</ele><time>2026-05-02T14:07:02Z</time></trkpt><trkpt lat="44.10123818703882" lon="12.302687306353562"><ele>48.0</ele><time>2026-05-02T14:07:04Z</time></trkpt><trkpt lat="44.10121922536461" lon="12.302813854914056"><ele>48.0</ele><time>2026-05-02T14:07:06Z</time></trkpt><trkpt lat="44.101199082930975" lon="12.302948283925497"><ele>48.0</ele><time>2026-05-02T14:07:08Z</time></trkpt><trkpt lat="44.10117970689602" lon="12.303076053906924"><ele>48.0</ele><time>2026-05-02T14:07:10Z</time></trkpt><trkpt lat="44.10116013514438" lon="12.303205673562976"><ele>48.0</ele><time>2026-05-02T14:07:12Z</time></trkpt><trkpt lat="44.101141461963685" lon="12.303332794850531"><ele>48.0</ele><time>2026-05-02T14:07:14Z</time></trkpt><trkpt lat="44.101122410188346" lon="12.303461244102344"><ele>48.0</ele><time>2026-05-02T14:07:16Z</time></trkpt><trkpt lat="44.10110416754064" lon="12.303585306497292"><ele>48.0</ele><time>2026-05-02T14:07:18Z</time></trkpt><trkpt lat="44.10108800326172" lon="12.303710609928517"><ele>48.0</ele><time>2026-05-02T14:07:20Z</time></trkpt><trkpt lat="44.10108871258743" lon="12.303845153062419"><ele>47.8</ele><time>2026-05-02T14:07:22Z</time></trkpt><trkpt lat="44.10108466217892" lon="12.30397698404229"><ele>47.599999999999994</ele><time>2026-05-02T14:07:24Z</time></trkpt><trkpt lat="44.10107810247389" lon="12.30410160075032"><ele>47.400000000000006</ele><time>2026-05-02T14:07:26Z</time></trkpt><trkpt lat="44.10106932523721" lon="12.304228277919355"><ele>47.2</ele><time>2026-05-02T14:07:28Z</time></trkpt><trkpt lat="44.10105551895282" lon="12.304347174265386"><ele>47.0</ele><time>2026-05-02T14:07:30Z</time></trkpt><trkpt lat="44.10105625018628" lon="12.304475903559762"><ele>47.0</ele><time>2026-05-02T14:07:32Z</time></trkpt><trkpt lat="44.1010562642486" lon="12.304598220604653"><ele>47.0</ele><time>2026-05-02T14:07:34Z</time></trkpt><trkpt lat="44.10104906129658" lon="12.304722837185494"><ele>47.0</ele><time>2026-05-02T14:07:36Z</time></trkpt><trkpt lat="44.10103299935204" lon="12.304851898190728"><ele>47.0</ele><time>2026-05-02T14:07:38Z</time></trkpt><trkpt lat="44.10102892677472" lon="12.304980231893188"><ele>47.0</ele><time>2026-05-02T14:07:40Z</time></trkpt><trkpt lat="44.10100905429426" lon="12.305112595065479"><ele>46.8</ele><time>2026-05-02T14:07:42Z</time></trkpt><trkpt lat="44.100979524244124" lon="12.305240043419529"><ele>46.6</ele><time>2026-05-02T14:07:44Z</time></trkpt><trkpt lat="44.10094908144899" lon="12.305365874076758"><ele>46.4</ele><time>2026-05-02T14:07:46Z</time></trkpt><trkpt lat="44.10091820275044" lon="12.30549362898298"><ele>46.199999999999996</ele><time>2026-05-02T14:07:48Z</time></trkpt><trkpt lat="44.10089296257737" lon="12.305623704511408"><ele>46.0</ele><time>2026-05-02T14:07:50Z</time></trkpt><trkpt lat="44.100864410743775" lon="12.305754373230744"><ele>46.0</ele><time>2026-05-02T14:07:52Z</time></trkpt><trkpt lat="44.10083543720981" lon="12.305880096885645"><ele>46.0</ele><time>2026-05-02T14:07:54Z</time></trkpt><trkpt lat="44.10080009254084" lon="12.30600971328527"><ele>46.0</ele><time>2026-05-02T14:07:56Z</time></trkpt><trkpt lat="44.10076585061744" lon="12.306140169603092"><ele>46.0</ele><time>2026-05-02T14:07:58Z</time></trkpt><trkpt lat="44.10072890022796" lon="12.306270981972656"><ele>46.0</ele><time>2026-05-02T14:08:00Z</time></trkpt><trkpt lat="44.100694134253395" lon="12.306402459846181"><ele>45.8</ele><time>2026-05-02T14:08:02Z</time></trkpt><trkpt lat="44.10066850723012" lon="12.306527033989285"><ele>45.599999999999994</ele><time>2026-05-02T14:08:04Z</time></trkpt><trkpt lat="44.100636896788" lon="12.306648157977735"><ele>45.4</ele><time>2026-05-02T14:08:06Z</time></trkpt><trkpt lat="44.100606091403755" lon="12.30676488257388"><ele>45.2</ele><time>2026-05-02T14:08:08Z</time></trkpt><trkpt lat="44.10057879043001" lon="12.306892576568076"><ele>45.0</ele><time>2026-05-02T14:08:10Z</time></trkpt><trkpt lat="44.10055037636996" lon="12.307018434565933"><ele>45.0</ele><time>2026-05-02T14:08:12Z</time></trkpt><trkpt lat="44.10051680217763" lon="12.307135733938228"><ele>45.0</ele><time>2026-05-02T14:08:14Z</time></trkpt><trkpt lat="44.100481908412924" lon="12.307254217651629"><ele>45.0</ele><time>2026-05-02T14:08:16Z</time></trkpt><trkpt lat="44.1004573543502" lon="12.307375765786404"><ele>45.0</ele><time>2026-05-02T14:08:18Z</time></trkpt><trkpt lat="44.10042956314644" lon="12.307499206043389"><ele>45.0</ele><time>2026-05-02T14:08:20Z</time></trkpt><trkpt lat="44.10039622358568" lon="12.30762601547818"><ele>45.0</ele><time>2026-05-02T14:08:22Z</time></trkpt><trkpt lat="44.10036131071626" lon="12.307747661607303"><ele>45.0</ele><time>2026-05-02T14:08:24Z</time></trkpt><trkpt lat="44.10033147467579" lon="12.307867245762699"><ele>45.0</ele><time>2026-05-02T14:08:26Z</time></trkpt><trkpt lat="44.100299989057014" lon="12.307989634039718"><ele>45.0</ele><time>2026-05-02T14:08:28Z</time></trkpt><trkpt lat="44.10026903617064" lon="12.308109470750223"><ele>45.0</ele><time>2026-05-02T14:08:30Z</time></trkpt><trkpt lat="44.10023325541458" lon="12.308225770282654"><ele>45.0</ele><time>2026-05-02T14:08:32Z</time></trkpt><trkpt lat="44.10020161452335" lon="12.308342998115505"><ele>45.0</ele><time>2026-05-02T14:08:34Z</time></trkpt><trkpt lat="44.10016325916448" lon="12.308455722165577"><ele>45.0</ele><time>2026-05-02T14:08:36Z</time></trkpt><trkpt lat="44.10011137034493" lon="12.308552160253267"><ele>45.0</ele><time>2026-05-02T14:08:38Z</time></trkpt><trkpt lat="44.10007464928642" lon="12.308650753842597"><ele>45.0</ele><time>2026-05-02T14:08:40Z</time></trkpt><trkpt lat="44.10002471673873" lon="12.308745244140315"><ele>45.0</ele><time>2026-05-02T14:08:42Z</time></trkpt><trkpt lat="44.09997676158988" lon="12.308842366522253"><ele>45.0</ele><time>2026-05-02T14:08:44Z</time></trkpt><trkpt lat="44.09992744273034" lon="12.308940459113321"><ele>45.0</ele><time>2026-05-02T14:08:46Z</time></trkpt><trkpt lat="44.09987946355372" lon="12.309036814631384"><ele>45.0</ele><time>2026-05-02T14:08:48Z</time></trkpt><trkpt lat="44.09983217509781" lon="12.30912747813163"><ele>45.0</ele><time>2026-05-02T14:08:50Z</time></trkpt><trkpt lat="44.099786270527375" lon="12.309225344559362"><ele>45.0</ele><time>2026-05-02T14:08:52Z</time></trkpt><trkpt lat="44.099732096594245" lon="12.30932463051393"><ele>45.0</ele><time>2026-05-02T14:08:54Z</time></trkpt><trkpt lat="44.09967373203205" lon="12.309435292706597"><ele>45.2</ele><time>2026-05-02T14:08:56Z</time></trkpt><trkpt lat="44.099616711629274" lon="12.309537936919176"><ele>45.4</ele><time>2026-05-02T14:08:58Z</time></trkpt><trkpt lat="44.099565664213294" lon="12.309652108961908"><ele>45.599999999999994</ele><time>2026-05-02T14:09:00Z</time></trkpt><trkpt lat="44.09951062538489" lon="12.30975673953088"><ele>45.8</ele><time>2026-05-02T14:09:02Z</time></trkpt><trkpt lat="44.09945648045286" lon="12.309861114909209"><ele>46.0</ele><time>2026-05-02T14:09:04Z</time></trkpt><trkpt lat="44.09940594405004" lon="12.309963550284488"><ele>45.599999999999994</ele><time>2026-05-02T14:09:06Z</time></trkpt><trkpt lat="44.099358685399636" lon="12.310064292229239"><ele>45.2</ele><time>2026-05-02T14:09:08Z</time></trkpt><trkpt lat="44.09930664417944" lon="12.310174770828386"><ele>44.8</ele><time>2026-05-02T14:09:10Z</time></trkpt><trkpt lat="44.099252515672234" lon="12.310280562101791"><ele>44.400000000000006</ele><time>2026-05-02T14:09:12Z</time></trkpt><trkpt lat="44.099202812819215" lon="12.310386471049625"><ele>44.0</ele><time>2026-05-02T14:09:14Z</time></trkpt><trkpt lat="44.09915078842361" lon="12.310498837074087"><ele>44.0</ele><time>2026-05-02T14:09:16Z</time></trkpt><trkpt lat="44.09910344804268" lon="12.3106030419617"><ele>44.0</ele><time>2026-05-02T14:09:18Z</time></trkpt><trkpt lat="44.099051194051924" lon="12.31070990979194"><ele>44.0</ele><time>2026-05-02T14:09:20Z</time></trkpt><trkpt lat="44.09899001949288" lon="12.310806650420298"><ele>44.0</ele><time>2026-05-02T14:09:22Z</time></trkpt><trkpt lat="44.098944007797016" lon="12.310911214294952"><ele>44.0</ele><time>2026-05-02T14:09:24Z</time></trkpt><trkpt lat="44.098892266721265" lon="12.311013126979828"><ele>44.166666666666664</ele><time>2026-05-02T14:09:26Z</time></trkpt><trkpt lat="44.098848673561434" lon="12.311110966751821"><ele>44.33333333333333</ele><time>2026-05-02T14:09:28Z</time></trkpt><trkpt lat="44.09880723634258" lon="12.311208712443484"><ele>44.5</ele><time>2026-05-02T14:09:30Z</time></trkpt><trkpt lat="44.09875552388444" lon="12.311311117931638"><ele>44.666666666666664</ele><time>2026-05-02T14:09:32Z</time></trkpt><trkpt lat="44.0987031087475" lon="12.311406802094261"><ele>44.833333333333336</ele><time>2026-05-02T14:09:34Z</time></trkpt><trkpt lat="44.098656583062386" lon="12.311502432421532"><ele>45.0</ele><time>2026-05-02T14:09:36Z</time></trkpt><trkpt lat="44.09861259244123" lon="12.311601704794688"><ele>45.0</ele><time>2026-05-02T14:09:38Z</time></trkpt><trkpt lat="44.09857225965238" lon="12.311698820297574"><ele>45.0</ele><time>2026-05-02T14:09:40Z</time></trkpt><trkpt lat="44.09852700147534" lon="12.31179980625901"><ele>45.0</ele><time>2026-05-02T14:09:42Z</time></trkpt><trkpt lat="44.098471106859485" lon="12.31189237226724"><ele>45.0</ele><time>2026-05-02T14:09:44Z</time></trkpt><trkpt lat="44.098410852813736" lon="12.31198769390547"><ele>45.0</ele><time>2026-05-02T14:09:46Z</time></trkpt><trkpt lat="44.09834611950121" lon="12.312084948707867"><ele>45.0</ele><time>2026-05-02T14:09:48Z</time></trkpt><trkpt lat="44.098273745228035" lon="12.312156329745466"><ele>45.0</ele><time>2026-05-02T14:09:50Z</time></trkpt><trkpt lat="44.09819872082582" lon="12.312222794783022"><ele>45.0</ele><time>2026-05-02T14:09:52Z</time></trkpt><trkpt lat="44.09812143862114" lon="12.312284333696985"><ele>45.0</ele><time>2026-05-02T14:09:54Z</time></trkpt><trkpt lat="44.09804939578175" lon="12.312348159068438"><ele>45.0</ele><time>2026-05-02T14:09:56Z</time></trkpt><trkpt lat="44.09797367976627" lon="12.312410162956233"><ele>45.0</ele><time>2026-05-02T14:09:58Z</time></trkpt><trkpt lat="44.09789102333947" lon="12.312471014342934"><ele>45.0</ele><time>2026-05-02T14:10:00Z</time></trkpt><trkpt lat="44.09781866313322" lon="12.312536046473276"><ele>45.333333333333336</ele><time>2026-05-02T14:10:02Z</time></trkpt><trkpt lat="44.097748688790155" lon="12.312590344668086"><ele>45.666666666666664</ele><time>2026-05-02T14:10:04Z</time></trkpt><trkpt lat="44.09768545711125" lon="12.312642476093547"><ele>46.0</ele><time>2026-05-02T14:10:06Z</time></trkpt><trkpt lat="44.09761622092013" lon="12.312697106708146"><ele>46.33333333333333</ele><time>2026-05-02T14:10:08Z</time></trkpt><trkpt lat="44.09754308641238" lon="12.312743847365098"><ele>46.666666666666664</ele><time>2026-05-02T14:10:10Z</time></trkpt><trkpt lat="44.09747378165054" lon="12.312801100786052"><ele>47.0</ele><time>2026-05-02T14:10:12Z</time></trkpt><trkpt lat="44.097400785139364" lon="12.312856975170023"><ele>47.0</ele><time>2026-05-02T14:10:14Z</time></trkpt><trkpt lat="44.09733222013732" lon="12.3129173102907"><ele>47.0</ele><time>2026-05-02T14:10:16Z</time></trkpt><trkpt lat="44.09726572771122" lon="12.312972254444407"><ele>47.0</ele><time>2026-05-02T14:10:18Z</time></trkpt><trkpt lat="44.09718969629854" lon="12.313030548113948"><ele>47.0</ele><time>2026-05-02T14:10:20Z</time></trkpt><trkpt lat="44.09711241568825" lon="12.31308908841679"><ele>47.0</ele><time>2026-05-02T14:10:22Z</time></trkpt><trkpt lat="44.09703704082123" lon="12.313137817803689"><ele>47.0</ele><time>2026-05-02T14:10:24Z</time></trkpt><trkpt lat="44.096973832608484" lon="12.31319473514522"><ele>47.0</ele><time>2026-05-02T14:10:26Z</time></trkpt><trkpt lat="44.0969091926105" lon="12.313251638433968"><ele>47.0</ele><time>2026-05-02T14:10:28Z</time></trkpt><trkpt lat="44.09683911900552" lon="12.313307602006857"><ele>47.0</ele><time>2026-05-02T14:10:30Z</time></trkpt><trkpt lat="44.09677997428316" lon="12.313383500993252"><ele>47.0</ele><time>2026-05-02T14:10:32Z</time></trkpt><trkpt lat="44.09672398814541" lon="12.313454594243927"><ele>47.0</ele><time>2026-05-02T14:10:34Z</time></trkpt><trkpt lat="44.09666972663389" lon="12.313526504320041"><ele>47.0</ele><time>2026-05-02T14:10:36Z</time></trkpt><trkpt lat="44.09660726788007" lon="12.313586290757883"><ele>47.285714285714285</ele><time>2026-05-02T14:10:38Z</time></trkpt><trkpt lat="44.096539599299426" lon="12.313628521239451"><ele>47.57142857142857</ele><time>2026-05-02T14:10:40Z</time></trkpt><trkpt lat="44.096470075645804" lon="12.313650547056664"><ele>47.85714285714286</ele><time>2026-05-02T14:10:42Z</time></trkpt><trkpt lat="44.09640490700837" lon="12.313695792303697"><ele>48.14285714285714</ele><time>2026-05-02T14:10:44Z</time></trkpt><trkpt lat="44.09635397035008" lon="12.313760454155656"><ele>48.42857142857143</ele><time>2026-05-02T14:10:46Z</time></trkpt><trkpt lat="44.09632632140665" lon="12.31385159364263"><ele>48.714285714285715</ele><time>2026-05-02T14:10:48Z</time></trkpt><trkpt lat="44.096313215456526" lon="12.313953685278003"><ele>49.0</ele><time>2026-05-02T14:10:50Z</time></trkpt><trkpt lat="44.09634003913376" lon="12.31403819435816"><ele>49.0</ele><time>2026-05-02T14:10:52Z</time></trkpt><trkpt lat="44.096247899925885" lon="12.314145644140213"><ele>49.0</ele><time>2026-05-02T14:10:54Z</time></trkpt><trkpt lat="44.096178959446235" lon="12.314216707541101"><ele>49.0</ele><time>2026-05-02T14:10:56Z</time></trkpt><trkpt lat="44.09610160645296" lon="12.31427644376901"><ele>49.0</ele><time>2026-05-02T14:10:58Z</time></trkpt><trkpt lat="44.0960231196947" lon="12.314340020617184"><ele>49.0</ele><time>2026-05-02T14:11:00Z</time></trkpt><trkpt lat="44.09594619527086" lon="12.314408712293217"><ele>49.0</ele><time>2026-05-02T14:11:02Z</time></trkpt><trkpt lat="44.0958836349693" lon="12.314505755884726"><ele>49.0</ele><time>2026-05-02T14:11:04Z</time></trkpt><trkpt lat="44.09583244784561" lon="12.314616436624819"><ele>49.0</ele><time>2026-05-02T14:11:06Z</time></trkpt><trkpt lat="44.09579691597947" lon="12.314733650039477"><ele>49.0</ele><time>2026-05-02T14:11:08Z</time></trkpt><trkpt lat="44.095773183194574" lon="12.314848677189381"><ele>49.0</ele><time>2026-05-02T14:11:10Z</time></trkpt><trkpt lat="44.095751408301446" lon="12.31496960399853"><ele>49.166666666666664</ele><time>2026-05-02T14:11:12Z</time></trkpt><trkpt lat="44.09571126317439" lon="12.31507929715895"><ele>49.33333333333333</ele><time>2026-05-02T14:11:14Z</time></trkpt><trkpt lat="44.09565748302146" lon="12.315168276848034"><ele>49.5</ele><time>2026-05-02T14:11:16Z</time></trkpt><trkpt lat="44.09559877498031" lon="12.315255155512009"><ele>49.66666666666667</ele><time>2026-05-02T14:11:18Z</time></trkpt><trkpt lat="44.095541341893174" lon="12.31533436086854"><ele>49.833333333333336</ele><time>2026-05-02T14:11:20Z</time></trkpt><trkpt lat="44.09547572515574" lon="12.315395794527799"><ele>50.0</ele><time>2026-05-02T14:11:22Z</time></trkpt><trkpt lat="44.09541061558437" lon="12.315459236736"><ele>50.00000000000001</ele><time>2026-05-02T14:11:24Z</time></trkpt><trkpt lat="44.095349587573466" lon="12.315533072423747"><ele>50.0</ele><time>2026-05-02T14:11:26Z</time></trkpt><trkpt lat="44.09530159861615" lon="12.315605017020692"><ele>50.0</ele><time>2026-05-02T14:11:28Z</time></trkpt><trkpt lat="44.095245417825446" lon="12.315674373154602"><ele>50.0</ele><time>2026-05-02T14:11:30Z</time></trkpt><trkpt lat="44.095176904600386" lon="12.31572855021231"><ele>50.00000000000001</ele><time>2026-05-02T14:11:32Z</time></trkpt><trkpt lat="44.09511175995834" lon="12.315790321529128"><ele>50.0</ele><time>2026-05-02T14:11:34Z</time></trkpt><trkpt lat="44.09504982063514" lon="12.315861399050352"><ele>50.00000000000001</ele><time>2026-05-02T14:11:36Z</time></trkpt><trkpt lat="44.09499340533408" lon="12.31593317260112"><ele>50.0</ele><time>2026-05-02T14:11:38Z</time></trkpt><trkpt lat="44.09492594708642" lon="12.316006258441197"><ele>50.0</ele><time>2026-05-02T14:11:40Z</time></trkpt><trkpt lat="44.094855364035936" lon="12.316073858408277"><ele>50.0</ele><time>2026-05-02T14:11:41.999Z</time></trkpt><trkpt lat="44.09478458210649" lon="12.316131949902022"><ele>50.00000000000001</ele><time>2026-05-02T14:11:43.999Z</time></trkpt><trkpt lat="44.09471249353093" lon="12.31618865705118"><ele>50.0</ele><time>2026-05-02T14:11:45.999Z</time></trkpt><trkpt lat="44.09463366843251" lon="12.316235824416449"><ele>49.833333333333336</ele><time>2026-05-02T14:11:47.999Z</time></trkpt><trkpt lat="44.094555371054824" lon="12.316276971206102"><ele>49.66666666666667</ele><time>2026-05-02T14:11:49.999Z</time></trkpt><trkpt lat="44.0944774773359" lon="12.31630269935114"><ele>49.5</ele><time>2026-05-02T14:11:51.999Z</time></trkpt><trkpt lat="44.094402469821446" lon="12.316325453659568"><ele>49.33333333333333</ele><time>2026-05-02T14:11:53.999Z</time></trkpt><trkpt lat="44.09431903221105" lon="12.316354673844007"><ele>49.166666666666664</ele><time>2026-05-02T14:11:55.999Z</time></trkpt><trkpt lat="44.09423063101679" lon="12.316381143024426"><ele>49.0</ele><time>2026-05-02T14:11:58Z</time></trkpt><trkpt lat="44.09413392859891" lon="12.316410743772451"><ele>48.800000000000004</ele><time>2026-05-02T14:12:00Z</time></trkpt><trkpt lat="44.09403573946557" lon="12.316446461895048"><ele>48.6</ele><time>2026-05-02T14:12:02Z</time></trkpt><trkpt lat="44.09393035092927" lon="12.31646954957201"><ele>48.4</ele><time>2026-05-02T14:12:04Z</time></trkpt><trkpt lat="44.09383143049915" lon="12.316498279359523"><ele>48.2</ele><time>2026-05-02T14:12:06Z</time></trkpt><trkpt lat="44.09372801701986" lon="12.316519107558246"><ele>48.0</ele><time>2026-05-02T14:12:08Z</time></trkpt><trkpt lat="44.09362632380454" lon="12.316542879852097"><ele>48.0</ele><time>2026-05-02T14:12:10Z</time></trkpt><trkpt lat="44.09352693724735" lon="12.316561200024465"><ele>48.0</ele><time>2026-05-02T14:12:12Z</time></trkpt><trkpt lat="44.0934291550791" lon="12.316584920001462"><ele>48.0</ele><time>2026-05-02T14:12:14Z</time></trkpt><trkpt lat="44.093334850426345" lon="12.316600781487995"><ele>48.0</ele><time>2026-05-02T14:12:16Z</time></trkpt><trkpt lat="44.09324898123215" lon="12.316619267296472"><ele>48.0</ele><time>2026-05-02T14:12:18Z</time></trkpt><trkpt lat="44.093167998169264" lon="12.316629198930242"><ele>48.14285714285714</ele><time>2026-05-02T14:12:20Z</time></trkpt><trkpt lat="44.09309387980464" lon="12.316645112799614"><ele>48.285714285714285</ele><time>2026-05-02T14:12:22Z</time></trkpt><trkpt lat="44.09302234536621" lon="12.316662463432829"><ele>48.42857142857143</ele><time>2026-05-02T14:12:24Z</time></trkpt><trkpt lat="44.092949711662605" lon="12.316678186779729"><ele>48.57142857142857</ele><time>2026-05-02T14:12:26Z</time></trkpt><trkpt lat="44.092874683821" lon="12.316697164880338"><ele>48.714285714285715</ele><time>2026-05-02T14:12:28Z</time></trkpt><trkpt lat="44.09280283291933" lon="12.316709361067206"><ele>48.857142857142854</ele><time>2026-05-02T14:12:30Z</time></trkpt><trkpt lat="44.09272934795219" lon="12.31672264765433"><ele>49.0</ele><time>2026-05-02T14:12:32Z</time></trkpt><trkpt lat="44.092653532739355" lon="12.316739796598615"><ele>48.99999999999999</ele><time>2026-05-02T14:12:34Z</time></trkpt><trkpt lat="44.092578044167034" lon="12.316761512355164"><ele>49.0</ele><time>2026-05-02T14:12:36Z</time></trkpt><trkpt lat="44.092501879730754" lon="12.31678092555716"><ele>49.0</ele><time>2026-05-02T14:12:38Z</time></trkpt><trkpt lat="44.092424502297256" lon="12.316798930828696"><ele>49.0</ele><time>2026-05-02T14:12:40Z</time></trkpt><trkpt lat="44.09234281692354" lon="12.316817332870217"><ele>48.99999999999999</ele><time>2026-05-02T14:12:42Z</time></trkpt><trkpt lat="44.09226252920706" lon="12.316839709555573"><ele>49.0</ele><time>2026-05-02T14:12:44Z</time></trkpt><trkpt lat="44.09217752948216" lon="12.316857769019286"><ele>48.83333333333333</ele><time>2026-05-02T14:12:46Z</time></trkpt><trkpt lat="44.09209044618189" lon="12.31688159664811"><ele>48.666666666666664</ele><time>2026-05-02T14:12:48Z</time></trkpt><trkpt lat="44.09200678713881" lon="12.316905393908533"><ele>48.5</ele><time>2026-05-02T14:12:50Z</time></trkpt><trkpt lat="44.091922532547976" lon="12.316927820196675"><ele>48.33333333333333</ele><time>2026-05-02T14:12:52Z</time></trkpt><trkpt lat="44.09184011660937" lon="12.3169491840066"><ele>48.166666666666664</ele><time>2026-05-02T14:12:54Z</time></trkpt><trkpt lat="44.09175638253466" lon="12.316968918553716"><ele>48.0</ele><time>2026-05-02T14:12:56Z</time></trkpt><trkpt lat="44.091674757511164" lon="12.316989743682155"><ele>48.0</ele><time>2026-05-02T14:12:58Z</time></trkpt><trkpt lat="44.09159277863208" lon="12.317012077743302"><ele>48.0</ele><time>2026-05-02T14:13:00Z</time></trkpt><trkpt lat="44.091510164073405" lon="12.317031084453209"><ele>48.0</ele><time>2026-05-02T14:13:02Z</time></trkpt><trkpt lat="44.09143416850194" lon="12.317049594622372"><ele>48.0</ele><time>2026-05-02T14:13:04Z</time></trkpt><trkpt lat="44.091356900245266" lon="12.317071214321963"><ele>48.0</ele><time>2026-05-02T14:13:06Z</time></trkpt><trkpt lat="44.09127698177033" lon="12.317093957200436"><ele>48.0</ele><time>2026-05-02T14:13:08Z</time></trkpt><trkpt lat="44.09119684900357" lon="12.317117344251054"><ele>47.833333333333336</ele><time>2026-05-02T14:13:10Z</time></trkpt><trkpt lat="44.09111586362172" lon="12.317139303479744"><ele>47.666666666666664</ele><time>2026-05-02T14:13:12Z</time></trkpt><trkpt lat="44.09102855448135" lon="12.317161742956216"><ele>47.5</ele><time>2026-05-02T14:13:14Z</time></trkpt><trkpt lat="44.090939980995074" lon="12.317182994600126"><ele>47.33333333333333</ele><time>2026-05-02T14:13:16Z</time></trkpt><trkpt lat="44.090854272700085" lon="12.317208845591662"><ele>47.166666666666664</ele><time>2026-05-02T14:13:18Z</time></trkpt><trkpt lat="44.090765772107616" lon="12.31722995657782"><ele>47.0</ele><time>2026-05-02T14:13:20Z</time></trkpt><trkpt lat="44.090674297558316" lon="12.317254686351875"><ele>47.5</ele><time>2026-05-02T14:13:22Z</time></trkpt><trkpt lat="44.090581995979335" lon="12.317284160486222"><ele>48.0</ele><time>2026-05-02T14:13:24Z</time></trkpt><trkpt lat="44.09048797711697" lon="12.317319338041532"><ele>48.5</ele><time>2026-05-02T14:13:26Z</time></trkpt><trkpt lat="44.090401313907506" lon="12.317348752869"><ele>49.0</ele><time>2026-05-02T14:13:28Z</time></trkpt><trkpt lat="44.09031551237013" lon="12.317371022767066"><ele>49.50000000000001</ele><time>2026-05-02T14:13:30Z</time></trkpt><trkpt lat="44.09023657052997" lon="12.317383782130864"><ele>50.0</ele><time>2026-05-02T14:13:32Z</time></trkpt><trkpt lat="44.090158513126035" lon="12.317389547906238"><ele>50.00000000000001</ele><time>2026-05-02T14:13:34Z</time></trkpt><trkpt lat="44.09007814444551" lon="12.317408632635798"><ele>50.0</ele><time>2026-05-02T14:13:36Z</time></trkpt><trkpt lat="44.08999348734003" lon="12.31743391196317"><ele>50.0</ele><time>2026-05-02T14:13:38Z</time></trkpt><trkpt lat="44.08990579526063" lon="12.31743592838815"><ele>50.0</ele><time>2026-05-02T14:13:40Z</time></trkpt><trkpt lat="44.089820373845946" lon="12.31743202011604"><ele>50.00000000000001</ele><time>2026-05-02T14:13:42Z</time></trkpt><trkpt lat="44.089734567462024" lon="12.317416171983309"><ele>50.0</ele><time>2026-05-02T14:13:44Z</time></trkpt><trkpt lat="44.0896450590648" lon="12.317411653711105"><ele>50.16666666666667</ele><time>2026-05-02T14:13:46Z</time></trkpt><trkpt lat="44.089557556119736" lon="12.317398147917977"><ele>50.333333333333336</ele><time>2026-05-02T14:13:48Z</time></trkpt><trkpt lat="44.08946938746242" lon="12.317385190607494"><ele>50.5</ele><time>2026-05-02T14:13:49.999Z</time></trkpt><trkpt lat="44.08938392965627" lon="12.317377830807558"><ele>50.66666666666667</ele><time>2026-05-02T14:13:51.999Z</time></trkpt><trkpt lat="44.08930017069059" lon="12.317372074642146"><ele>50.833333333333336</ele><time>2026-05-02T14:13:53.999Z</time></trkpt><trkpt lat="44.08921603161768" lon="12.317370755839592"><ele>51.0</ele><time>2026-05-02T14:13:55.999Z</time></trkpt><trkpt lat="44.08913297738816" lon="12.317357684271238"><ele>50.833333333333336</ele><time>2026-05-02T14:13:57.999Z</time></trkpt><trkpt lat="44.08905039900911" lon="12.31733915621088"><ele>50.66666666666667</ele><time>2026-05-02T14:13:59.999Z</time></trkpt><trkpt lat="44.08896649058708" lon="12.317332703548026"><ele>50.5</ele><time>2026-05-02T14:14:01.999Z</time></trkpt><trkpt lat="44.088883559480955" lon="12.317328951497501"><ele>50.333333333333336</ele><time>2026-05-02T14:14:04Z</time></trkpt><trkpt lat="44.08880150855538" lon="12.317314997419393"><ele>50.16666666666667</ele><time>2026-05-02T14:14:06Z</time></trkpt><trkpt lat="44.08871998391192" lon="12.317299687959066"><ele>50.0</ele><time>2026-05-02T14:14:08Z</time></trkpt><trkpt lat="44.088637685632605" lon="12.317286999828651"><ele>50.00000000000001</ele><time>2026-05-02T14:14:10Z</time></trkpt><trkpt lat="44.08855449350802" lon="12.317272610623935"><ele>50.0</ele><time>2026-05-02T14:14:12Z</time></trkpt><trkpt lat="44.08847285802335" lon="12.317267789844063"><ele>50.0</ele><time>2026-05-02T14:14:14Z</time></trkpt><trkpt lat="44.08839960391552" lon="12.317253562138335"><ele>50.0</ele><time>2026-05-02T14:14:16Z</time></trkpt><trkpt lat="44.088324072051215" lon="12.317234326851763"><ele>50.00000000000001</ele><time>2026-05-02T14:14:18Z</time></trkpt><trkpt lat="44.08824047004353" lon="12.317211643082283"><ele>50.0</ele><time>2026-05-02T14:14:20Z</time></trkpt><trkpt lat="44.08816622039367" lon="12.317193829415146"><ele>49.66666666666667</ele><time>2026-05-02T14:14:22Z</time></trkpt><trkpt lat="44.08809695146428" lon="12.317168478784613"><ele>49.333333333333336</ele><time>2026-05-02T14:14:24Z</time></trkpt><trkpt lat="44.088029473364784" lon="12.317142012720357"><ele>49.0</ele><time>2026-05-02T14:14:26Z</time></trkpt><trkpt lat="44.087948018695904" lon="12.31709606985432"><ele>48.66666666666667</ele><time>2026-05-02T14:14:28Z</time></trkpt><trkpt lat="44.08785126362584" lon="12.317059575199778"><ele>48.333333333333336</ele><time>2026-05-02T14:14:30Z</time></trkpt><trkpt lat="44.087761528750775" lon="12.317019197293927"><ele>48.0</ele><time>2026-05-02T14:14:32Z</time></trkpt><trkpt lat="44.08767744391398" lon="12.316989668662867"><ele>48.0</ele><time>2026-05-02T14:14:34Z</time></trkpt><trkpt lat="44.08760091011291" lon="12.316958972199032"><ele>48.0</ele><time>2026-05-02T14:14:36Z</time></trkpt><trkpt lat="44.08751915152525" lon="12.31692276501144"><ele>48.0</ele><time>2026-05-02T14:14:38Z</time></trkpt><trkpt lat="44.08743834193486" lon="12.316885495514269"><ele>48.0</ele><time>2026-05-02T14:14:40Z</time></trkpt><trkpt lat="44.087366126011986" lon="12.316862353898774"><ele>48.0</ele><time>2026-05-02T14:14:42Z</time></trkpt><trkpt lat="44.087292479235316" lon="12.316834468873436"><ele>48.0</ele><time>2026-05-02T14:14:44Z</time></trkpt><trkpt lat="44.08721380225577" lon="12.3168009283185"><ele>48.666666666666664</ele><time>2026-05-02T14:14:46Z</time></trkpt><trkpt lat="44.087132846925904" lon="12.316778604040005"><ele>49.33333333333333</ele><time>2026-05-02T14:14:48Z</time></trkpt><trkpt lat="44.08706513732268" lon="12.31674438862305"><ele>50.0</ele><time>2026-05-02T14:14:50Z</time></trkpt><trkpt lat="44.086993833284254" lon="12.316712992475448"><ele>50.666666666666664</ele><time>2026-05-02T14:14:52Z</time></trkpt><trkpt lat="44.08692115102848" lon="12.316682046243042"><ele>51.33333333333333</ele><time>2026-05-02T14:14:54Z</time></trkpt><trkpt lat="44.08684918370758" lon="12.316653301003832"><ele>52.0</ele><time>2026-05-02T14:14:56Z</time></trkpt><trkpt lat="44.086777912054785" lon="12.316625239374808"><ele>51.99999999999999</ele><time>2026-05-02T14:14:58Z</time></trkpt><trkpt lat="44.08670459627984" lon="12.316595301868539"><ele>52.0</ele><time>2026-05-02T14:15:00Z</time></trkpt><trkpt lat="44.08663243854621" lon="12.316581338001214"><ele>52.0</ele><time>2026-05-02T14:15:02Z</time></trkpt><trkpt lat="44.0865575889042" lon="12.316562763997132"><ele>52.0</ele><time>2026-05-02T14:15:04Z</time></trkpt><trkpt lat="44.08648465346174" lon="12.316542444903233"><ele>51.99999999999999</ele><time>2026-05-02T14:15:06Z</time></trkpt><trkpt lat="44.086409533707744" lon="12.316525006203264"><ele>52.0</ele><time>2026-05-02T14:15:08Z</time></trkpt><trkpt lat="44.08633484856833" lon="12.31650596652652"><ele>51.99999999999999</ele><time>2026-05-02T14:15:10Z</time></trkpt><trkpt lat="44.08625643589231" lon="12.316487226947926"><ele>52.0</ele><time>2026-05-02T14:15:12Z</time></trkpt><trkpt lat="44.08617981520393" lon="12.316469862934275"><ele>52.0</ele><time>2026-05-02T14:15:14Z</time></trkpt><trkpt lat="44.08610157077428" lon="12.316449574165913"><ele>52.0</ele><time>2026-05-02T14:15:16Z</time></trkpt><trkpt lat="44.086026890230514" lon="12.316433178104347"><ele>51.99999999999999</ele><time>2026-05-02T14:15:18Z</time></trkpt><trkpt lat="44.08594851544321" lon="12.316415355413692"><ele>52.0</ele><time>2026-05-02T14:15:20Z</time></trkpt><trkpt lat="44.08587350002609" lon="12.316397187724293"><ele>52.0</ele><time>2026-05-02T14:15:22Z</time></trkpt><trkpt lat="44.08580484715925" lon="12.316351285767592"><ele>52.0</ele><time>2026-05-02T14:15:24Z</time></trkpt><trkpt lat="44.08572705962292" lon="12.316346324087073"><ele>52.0</ele><time>2026-05-02T14:15:26Z</time></trkpt><trkpt lat="44.085653716857" lon="12.316329591122456"><ele>52.0</ele><time>2026-05-02T14:15:28Z</time></trkpt><trkpt lat="44.08558929513645" lon="12.316326546427952"><ele>52.0</ele><time>2026-05-02T14:15:30Z</time></trkpt><trkpt lat="44.08551307820435" lon="12.3163232650215"><ele>52.0</ele><time>2026-05-02T14:15:32Z</time></trkpt><trkpt lat="44.08543464197772" lon="12.316312912426175"><ele>52.0</ele><time>2026-05-02T14:15:34Z</time></trkpt><trkpt lat="44.08535395573641" lon="12.31628956552023"><ele>52.166666666666664</ele><time>2026-05-02T14:15:36Z</time></trkpt><trkpt lat="44.08527202175659" lon="12.316278278749815"><ele>52.33333333333333</ele><time>2026-05-02T14:15:38Z</time></trkpt><trkpt lat="44.08519109977524" lon="12.316257539934758"><ele>52.5</ele><time>2026-05-02T14:15:40Z</time></trkpt><trkpt lat="44.085112379735335" lon="12.316235265336147"><ele>52.66666666666667</ele><time>2026-05-02T14:15:42Z</time></trkpt><trkpt lat="44.08503217450761" lon="12.316216095307945"><ele>52.833333333333336</ele><time>2026-05-02T14:15:44Z</time></trkpt><trkpt lat="44.084953979448876" lon="12.316199953903695"><ele>53.0</ele><time>2026-05-02T14:15:46Z</time></trkpt><trkpt lat="44.08487822491532" lon="12.316185355449464"><ele>53.16666666666667</ele><time>2026-05-02T14:15:48Z</time></trkpt><trkpt lat="44.084800231358805" lon="12.316165545553"><ele>53.333333333333336</ele><time>2026-05-02T14:15:50Z</time></trkpt><trkpt lat="44.08472146168982" lon="12.316150016613042"><ele>53.5</ele><time>2026-05-02T14:15:52Z</time></trkpt><trkpt lat="44.08464367120233" lon="12.316143148466804"><ele>53.66666666666667</ele><time>2026-05-02T14:15:54Z</time></trkpt><trkpt lat="44.08456740440645" lon="12.316122366637456"><ele>53.833333333333336</ele><time>2026-05-02T14:15:56Z</time></trkpt><trkpt lat="44.084489678734194" lon="12.316105887461815"><ele>54.0</ele><time>2026-05-02T14:15:57.999Z</time></trkpt><trkpt lat="44.0844097888207" lon="12.316100152932169"><ele>54.0</ele><time>2026-05-02T14:15:59.999Z</time></trkpt><trkpt lat="44.08433258149107" lon="12.316088378717623"><ele>54.0</ele><time>2026-05-02T14:16:01.999Z</time></trkpt><trkpt lat="44.08425460095789" lon="12.316068530287355"><ele>54.0</ele><time>2026-05-02T14:16:03.999Z</time></trkpt><trkpt lat="44.08417650570772" lon="12.316043977646402"><ele>54.0</ele><time>2026-05-02T14:16:05.999Z</time></trkpt><trkpt lat="44.08409578441538" lon="12.316039042296858"><ele>54.0</ele><time>2026-05-02T14:16:07.999Z</time></trkpt><trkpt lat="44.08401721263587" lon="12.316034598118756"><ele>54.0</ele><time>2026-05-02T14:16:10Z</time></trkpt><trkpt lat="44.08393267454965" lon="12.316005769571069"><ele>54.5</ele><time>2026-05-02T14:16:12Z</time></trkpt><trkpt lat="44.083845357853484" lon="12.315998761394397"><ele>55.0</ele><time>2026-05-02T14:16:14Z</time></trkpt><trkpt lat="44.08376068050252" lon="12.315984215070435"><ele>55.5</ele><time>2026-05-02T14:16:16Z</time></trkpt><trkpt lat="44.083673707141116" lon="12.31597397729491"><ele>56.0</ele><time>2026-05-02T14:16:18Z</time></trkpt><trkpt lat="44.083591834891266" lon="12.315953969458686"><ele>56.5</ele><time>2026-05-02T14:16:20Z</time></trkpt><trkpt lat="44.08350439365263" lon="12.315946201856002"><ele>57.0</ele><time>2026-05-02T14:16:22Z</time></trkpt><trkpt lat="44.083414119013334" lon="12.315939639614738"><ele>57.0</ele><time>2026-05-02T14:16:24Z</time></trkpt><trkpt lat="44.08332824666843" lon="12.315921188669783"><ele>57.0</ele><time>2026-05-02T14:16:26Z</time></trkpt><trkpt lat="44.083235946879086" lon="12.315916587110015"><ele>57.0</ele><time>2026-05-02T14:16:28Z</time></trkpt><trkpt lat="44.083146341516134" lon="12.315890023344346"><ele>57.0</ele><time>2026-05-02T14:16:30Z</time></trkpt><trkpt lat="44.08305935868747" lon="12.31586989772437"><ele>57.0</ele><time>2026-05-02T14:16:32Z</time></trkpt><trkpt lat="44.08297328896979" lon="12.315859693920645"><ele>57.0</ele><time>2026-05-02T14:16:34Z</time></trkpt><trkpt lat="44.08288770653424" lon="12.31584161946464"><ele>57.0</ele><time>2026-05-02T14:16:36Z</time></trkpt><trkpt lat="44.082801356698404" lon="12.31583119392375"><ele>57.0</ele><time>2026-05-02T14:16:38Z</time></trkpt><trkpt lat="44.0827191942845" lon="12.315829988869794"><ele>57.0</ele><time>2026-05-02T14:16:40Z</time></trkpt><trkpt lat="44.08263792763049" lon="12.315813411195158"><ele>57.0</ele><time>2026-05-02T14:16:42Z</time></trkpt><trkpt lat="44.082553697673475" lon="12.315796104445033"><ele>57.0</ele><time>2026-05-02T14:16:44Z</time></trkpt><trkpt lat="44.082468737770604" lon="12.315780864384731"><ele>57.0</ele><time>2026-05-02T14:16:46Z</time></trkpt><trkpt lat="44.08238222136294" lon="12.31576984306399"><ele>57.0</ele><time>2026-05-02T14:16:48Z</time></trkpt><trkpt lat="44.082296877990196" lon="12.31575756787221"><ele>57.0</ele><time>2026-05-02T14:16:50Z</time></trkpt><trkpt lat="44.08221597329302" lon="12.315744048160038"><ele>57.0</ele><time>2026-05-02T14:16:52Z</time></trkpt><trkpt lat="44.082137251550044" lon="12.315733404571443"><ele>57.0</ele><time>2026-05-02T14:16:54Z</time></trkpt><trkpt lat="44.08205456326192" lon="12.315715876792595"><ele>57.0</ele><time>2026-05-02T14:16:56Z</time></trkpt><trkpt lat="44.081970134682045" lon="12.315699057756586"><ele>57.0</ele><time>2026-05-02T14:16:58Z</time></trkpt><trkpt lat="44.08188467659771" lon="12.315690684256687"><ele>57.0</ele><time>2026-05-02T14:17:00Z</time></trkpt><trkpt lat="44.08179847029987" lon="12.315677901290087"><ele>57.0</ele><time>2026-05-02T14:17:02Z</time></trkpt><trkpt lat="44.081713354865016" lon="12.315661084172485"><ele>57.0</ele><time>2026-05-02T14:17:04Z</time></trkpt><trkpt lat="44.08162761898416" lon="12.315644887280053"><ele>57.0</ele><time>2026-05-02T14:17:06Z</time></trkpt><trkpt lat="44.08154038165852" lon="12.315634360908005"><ele>57.0</ele><time>2026-05-02T14:17:08Z</time></trkpt><trkpt lat="44.08145562072409" lon="12.315624728964059"><ele>57.0</ele><time>2026-05-02T14:17:10Z</time></trkpt><trkpt lat="44.08137321505681" lon="12.315608185766619"><ele>57.0</ele><time>2026-05-02T14:17:12Z</time></trkpt><trkpt lat="44.081292191638404" lon="12.315597130239357"><ele>57.0</ele><time>2026-05-02T14:17:14Z</time></trkpt><trkpt lat="44.08121150444867" lon="12.315582104375633"><ele>57.0</ele><time>2026-05-02T14:17:16Z</time></trkpt><trkpt lat="44.081133637295984" lon="12.315571527719504"><ele>57.0</ele><time>2026-05-02T14:17:18Z</time></trkpt><trkpt lat="44.081054641777996" lon="12.315564317802863"><ele>57.0</ele><time>2026-05-02T14:17:20Z</time></trkpt><trkpt lat="44.08097824312478" lon="12.315549642972268"><ele>57.0</ele><time>2026-05-02T14:17:22Z</time></trkpt><trkpt lat="44.08089869006847" lon="12.315534017909787"><ele>57.0</ele><time>2026-05-02T14:17:24Z</time></trkpt><trkpt lat="44.08082361416539" lon="12.315519270485407"><ele>57.0</ele><time>2026-05-02T14:17:26Z</time></trkpt><trkpt lat="44.0807435027539" lon="12.31550041706896"><ele>57.0</ele><time>2026-05-02T14:17:28Z</time></trkpt><trkpt lat="44.08066589032309" lon="12.3154901613287"><ele>57.0</ele><time>2026-05-02T14:17:30Z</time></trkpt><trkpt lat="44.0805834908916" lon="12.315476152018306"><ele>57.0</ele><time>2026-05-02T14:17:32Z</time></trkpt><trkpt lat="44.08049770634708" lon="12.31547203140863"><ele>57.0</ele><time>2026-05-02T14:17:34Z</time></trkpt><trkpt lat="44.08041167121689" lon="12.315465583459511"><ele>57.166666666666664</ele><time>2026-05-02T14:17:36Z</time></trkpt><trkpt lat="44.080327822688396" lon="12.315457923903946"><ele>57.33333333333333</ele><time>2026-05-02T14:17:38Z</time></trkpt><trkpt lat="44.080246341723196" lon="12.315466864237113"><ele>57.5</ele><time>2026-05-02T14:17:40Z</time></trkpt><trkpt lat="44.0801690534455" lon="12.315472851106586"><ele>57.666666666666664</ele><time>2026-05-02T14:17:42Z</time></trkpt><trkpt lat="44.08009047090352" lon="12.3154788567631"><ele>57.83333333333333</ele><time>2026-05-02T14:17:44Z</time></trkpt><trkpt lat="44.08001659475791" lon="12.315498843158885"><ele>58.0</ele><time>2026-05-02T14:17:46Z</time></trkpt><trkpt lat="44.07994468407509" lon="12.315522912261452"><ele>58.33333333333333</ele><time>2026-05-02T14:17:48Z</time></trkpt><trkpt lat="44.07987189070624" lon="12.315535139409217"><ele>58.666666666666664</ele><time>2026-05-02T14:17:50Z</time></trkpt><trkpt lat="44.07979766079548" lon="12.31556297641488"><ele>59.0</ele><time>2026-05-02T14:17:52Z</time></trkpt><trkpt lat="44.07972298816213" lon="12.315585535577153"><ele>59.33333333333333</ele><time>2026-05-02T14:17:53.999Z</time></trkpt><trkpt lat="44.0796458461536" lon="12.315605285704102"><ele>59.666666666666664</ele><time>2026-05-02T14:17:55.999Z</time></trkpt><trkpt lat="44.079568623773135" lon="12.315628692917693"><ele>60.0</ele><time>2026-05-02T14:17:57.999Z</time></trkpt><trkpt lat="44.07949286850856" lon="12.315658758697994"><ele>60.166666666666664</ele><time>2026-05-02T14:17:59.999Z</time></trkpt><trkpt lat="44.079421041087336" lon="12.315695246812982"><ele>60.33333333333333</ele><time>2026-05-02T14:18:01.999Z</time></trkpt><trkpt lat="44.0793503985019" lon="12.315735137409165"><ele>60.5</ele><time>2026-05-02T14:18:03.999Z</time></trkpt><trkpt lat="44.079279828584454" lon="12.31578482898129"><ele>60.666666666666664</ele><time>2026-05-02T14:18:05.999Z</time></trkpt><trkpt lat="44.07921554605763" lon="12.315833253285803"><ele>60.83333333333333</ele><time>2026-05-02T14:18:07.999Z</time></trkpt><trkpt lat="44.079145370241086" lon="12.315880227370414"><ele>61.0</ele><time>2026-05-02T14:18:09.999Z</time></trkpt><trkpt lat="44.07907450633833" lon="12.315939204317827"><ele>61.166666666666664</ele><time>2026-05-02T14:18:11.999Z</time></trkpt><trkpt lat="44.078999229756235" lon="12.315978120175117"><ele>61.33333333333333</ele><time>2026-05-02T14:18:13.999Z</time></trkpt><trkpt lat="44.07892831737695" lon="12.316026190251723"><ele>61.5</ele><time>2026-05-02T14:18:16Z</time></trkpt><trkpt lat="44.078859769219044" lon="12.316082444560474"><ele>61.66666666666667</ele><time>2026-05-02T14:18:18Z</time></trkpt><trkpt lat="44.07878913882664" lon="12.316130314154213"><ele>61.833333333333336</ele><time>2026-05-02T14:18:20Z</time></trkpt><trkpt lat="44.0787221958233" lon="12.31618203857086"><ele>62.0</ele><time>2026-05-02T14:18:22Z</time></trkpt><trkpt lat="44.07865591131343" lon="12.316226916222575"><ele>62.0</ele><time>2026-05-02T14:18:24Z</time></trkpt><trkpt lat="44.07859511447289" lon="12.316279493815486"><ele>62.00000000000001</ele><time>2026-05-02T14:18:26Z</time></trkpt><trkpt lat="44.07853560828479" lon="12.316319881604274"><ele>62.0</ele><time>2026-05-02T14:18:28Z</time></trkpt><trkpt lat="44.078475371073615" lon="12.316364325827221"><ele>62.0</ele><time>2026-05-02T14:18:30Z</time></trkpt><trkpt lat="44.078415296527965" lon="12.316406517823795"><ele>62.00000000000001</ele><time>2026-05-02T14:18:32Z</time></trkpt><trkpt lat="44.07835329622824" lon="12.31645078079095"><ele>62.0</ele><time>2026-05-02T14:18:34Z</time></trkpt><trkpt lat="44.07829429422938" lon="12.316493944562163"><ele>62.0</ele><time>2026-05-02T14:18:36Z</time></trkpt><trkpt lat="44.07821103704944" lon="12.31654841435648"><ele>62.16666666666667</ele><time>2026-05-02T14:18:39Z</time></trkpt><trkpt lat="44.07815229410389" lon="12.316595320813185"><ele>62.333333333333336</ele><time>2026-05-02T14:18:41Z</time></trkpt><trkpt lat="44.078093317659665" lon="12.316633151094733"><ele>62.5</ele><time>2026-05-02T14:18:43Z</time></trkpt><trkpt lat="44.07803359966062" lon="12.316675466583963"><ele>62.66666666666667</ele><time>2026-05-02T14:18:45Z</time></trkpt><trkpt lat="44.07794701874117" lon="12.316724772757453"><ele>62.833333333333336</ele><time>2026-05-02T14:18:48Z</time></trkpt><trkpt lat="44.07788599280184" lon="12.316765958277049"><ele>63.0</ele><time>2026-05-02T14:18:50Z</time></trkpt><trkpt lat="44.077805061273665" lon="12.316820330236698"><ele>63.0</ele><time>2026-05-02T14:18:53Z</time></trkpt><trkpt lat="44.07772289695917" lon="12.316871591189171"><ele>63.0</ele><time>2026-05-02T14:18:56Z</time></trkpt><trkpt lat="44.077640888331175" lon="12.316927739191925"><ele>63.0</ele><time>2026-05-02T14:18:59Z</time></trkpt><trkpt lat="44.07758564770419" lon="12.316969801519958"><ele>63.0</ele><time>2026-05-02T14:19:01Z</time></trkpt><trkpt lat="44.077521266969775" lon="12.317009055401257"><ele>63.0</ele><time>2026-05-02T14:19:03Z</time></trkpt><trkpt lat="44.07746246021943" lon="12.31705334933465"><ele>63.0</ele><time>2026-05-02T14:19:05Z</time></trkpt><trkpt lat="44.07739933917159" lon="12.317089894959842"><ele>63.285714285714285</ele><time>2026-05-02T14:19:07Z</time></trkpt><trkpt lat="44.07733835958202" lon="12.31712482403035"><ele>63.57142857142857</ele><time>2026-05-02T14:19:09Z</time></trkpt><trkpt lat="44.077275734843106" lon="12.317146744302123"><ele>63.85714285714286</ele><time>2026-05-02T14:19:11Z</time></trkpt><trkpt lat="44.077213145030726" lon="12.317173363362363"><ele>64.14285714285714</ele><time>2026-05-02T14:19:13Z</time></trkpt><trkpt lat="44.07715011388703" lon="12.317208084625443"><ele>64.42857142857143</ele><time>2026-05-02T14:19:15Z</time></trkpt><trkpt lat="44.077090063680835" lon="12.317238504209671"><ele>64.71428571428572</ele><time>2026-05-02T14:19:17Z</time></trkpt><trkpt lat="44.0770299570573" lon="12.3172701048478"><ele>65.0</ele><time>2026-05-02T14:19:19Z</time></trkpt><trkpt lat="44.07697030677326" lon="12.317304931029534"><ele>65.0</ele><time>2026-05-02T14:19:21Z</time></trkpt><trkpt lat="44.0769073627916" lon="12.317346048567172"><ele>65.0</ele><time>2026-05-02T14:19:23Z</time></trkpt><trkpt lat="44.076825282817026" lon="12.317410768592593"><ele>65.0</ele><time>2026-05-02T14:19:26Z</time></trkpt><trkpt lat="44.076765265115775" lon="12.317454527192877"><ele>65.0</ele><time>2026-05-02T14:19:28Z</time></trkpt><trkpt lat="44.076691967628115" lon="12.31750767755177"><ele>65.0</ele><time>2026-05-02T14:19:30Z</time></trkpt><trkpt lat="44.07663702830523" lon="12.317558407022618"><ele>65.0</ele><time>2026-05-02T14:19:32Z</time></trkpt><trkpt lat="44.076573236302025" lon="12.317633131588009"><ele>65.0</ele><time>2026-05-02T14:19:35Z</time></trkpt><trkpt lat="44.076514679225994" lon="12.317687511074336"><ele>65.0</ele><time>2026-05-02T14:19:37Z</time></trkpt><trkpt lat="44.07645078977446" lon="12.31777609995914"><ele>65.0</ele><time>2026-05-02T14:19:40Z</time></trkpt><trkpt lat="44.076392705699945" lon="12.317859583210215"><ele>65.0</ele><time>2026-05-02T14:19:43Z</time></trkpt><trkpt lat="44.07634366641184" lon="12.317919433475351"><ele>65.0</ele><time>2026-05-02T14:19:45Z</time></trkpt><trkpt lat="44.07628726669521" lon="12.31801770734183"><ele>65.0</ele><time>2026-05-02T14:19:48Z</time></trkpt><trkpt lat="44.07621471376692" lon="12.318096076853436"><ele>65.0</ele><time>2026-05-02T14:19:50.999Z</time></trkpt><trkpt lat="44.076132149195075" lon="12.31816999736505"><ele>65.0</ele><time>2026-05-02T14:19:52.999Z</time></trkpt><trkpt lat="44.07600054372768" lon="12.318153893327853"><ele>65.0</ele><time>2026-05-02T14:19:54.999Z</time></trkpt><trkpt lat="44.075933937366976" lon="12.318084671278104"><ele>65.0</ele><time>2026-05-02T14:19:55.999Z</time></trkpt><trkpt lat="44.07586515343295" lon="12.318005696534602"><ele>65.0</ele><time>2026-05-02T14:19:56.999Z</time></trkpt><trkpt lat="44.075785586928845" lon="12.317932957098982"><ele>63.4</ele><time>2026-05-02T14:19:57.999Z</time></trkpt><trkpt lat="44.075700195420616" lon="12.317863242819094"><ele>61.8</ele><time>2026-05-02T14:19:58.999Z</time></trkpt><trkpt lat="44.07561115361364" lon="12.317780945540129"><ele>60.2</ele><time>2026-05-02T14:19:59.999Z</time></trkpt><trkpt lat="44.07551999095067" lon="12.317694580375283"><ele>58.6</ele><time>2026-05-02T14:20:00.999Z</time></trkpt><trkpt lat="44.07542775921644" lon="12.317604135751148"><ele>57.0</ele><time>2026-05-02T14:20:01.999Z</time></trkpt><trkpt lat="44.075334633976155" lon="12.317523115556932"><ele>57.0</ele><time>2026-05-02T14:20:02.999Z</time></trkpt><trkpt lat="44.07523965520179" lon="12.317448686377672"><ele>57.0</ele><time>2026-05-02T14:20:03.999Z</time></trkpt><trkpt lat="44.07514649909969" lon="12.317381206400192"><ele>57.0</ele><time>2026-05-02T14:20:04.999Z</time></trkpt><trkpt lat="44.075055409847394" lon="12.31732440958675"><ele>57.0</ele><time>2026-05-02T14:20:05.999Z</time></trkpt><trkpt lat="44.07496918942473" lon="12.317275452004418"><ele>57.0</ele><time>2026-05-02T14:20:06.999Z</time></trkpt><trkpt lat="44.074882713593034" lon="12.317237470859006"><ele>57.0</ele><time>2026-05-02T14:20:07.999Z</time></trkpt><trkpt lat="44.074800981551256" lon="12.317195696424474"><ele>57.0</ele><time>2026-05-02T14:20:08.999Z</time></trkpt><trkpt lat="44.07472107250255" lon="12.317153168502253"><ele>57.0</ele><time>2026-05-02T14:20:09.999Z</time></trkpt><trkpt lat="44.074641260393825" lon="12.317119130377854"><ele>57.0</ele><time>2026-05-02T14:20:10.999Z</time></trkpt><trkpt lat="44.074564502082886" lon="12.317092005589547"><ele>57.0</ele><time>2026-05-02T14:20:11.999Z</time></trkpt><trkpt lat="44.074493091428636" lon="12.31706280169258"><ele>57.0</ele><time>2026-05-02T14:20:12.999Z</time></trkpt><trkpt lat="44.07442318260125" lon="12.317040581399038"><ele>57.0</ele><time>2026-05-02T14:20:13.999Z</time></trkpt><trkpt lat="44.074354859434365" lon="12.317017204361962"><ele>57.0</ele><time>2026-05-02T14:20:14.999Z</time></trkpt><trkpt lat="44.074292527309126" lon="12.31699338609544"><ele>57.0</ele><time>2026-05-02T14:20:15.999Z</time></trkpt><trkpt lat="44.074228820307674" lon="12.316970740852994"><ele>57.0</ele><time>2026-05-02T14:20:16.999Z</time></trkpt><trkpt lat="44.07411149283904" lon="12.316934763743165"><ele>57.0</ele><time>2026-05-02T14:20:18.999Z</time></trkpt><trkpt lat="44.07400147312657" lon="12.316902608236967"><ele>57.0</ele><time>2026-05-02T14:20:20.999Z</time></trkpt><trkpt lat="44.07390076142661" lon="12.316872741875658"><ele>57.166666666666664</ele><time>2026-05-02T14:20:23Z</time></trkpt><trkpt lat="44.07380643668748" lon="12.316825621934715"><ele>57.33333333333333</ele><time>2026-05-02T14:20:25Z</time></trkpt><trkpt lat="44.07371496854047" lon="12.316830550794004"><ele>57.5</ele><time>2026-05-02T14:20:27Z</time></trkpt><trkpt lat="44.07362949871271" lon="12.316822283178247"><ele>57.666666666666664</ele><time>2026-05-02T14:20:29Z</time></trkpt><trkpt lat="44.07354558754825" lon="12.316821740134626"><ele>57.83333333333333</ele><time>2026-05-02T14:20:31Z</time></trkpt><trkpt lat="44.073466357565685" lon="12.31683213025116"><ele>58.0</ele><time>2026-05-02T14:20:33Z</time></trkpt><trkpt lat="44.07338712557527" lon="12.316824291244052"><ele>57.99999999999999</ele><time>2026-05-02T14:20:35Z</time></trkpt><trkpt lat="44.07331193046781" lon="12.316831871259025"><ele>58.0</ele><time>2026-05-02T14:20:37Z</time></trkpt><trkpt lat="44.07323537265663" lon="12.31683657241414"><ele>58.0</ele><time>2026-05-02T14:20:39Z</time></trkpt><trkpt lat="44.073154782422286" lon="12.316829516916382"><ele>58.0</ele><time>2026-05-02T14:20:41Z</time></trkpt><trkpt lat="44.07307181494356" lon="12.316827914537289"><ele>57.99999999999999</ele><time>2026-05-02T14:20:43Z</time></trkpt><trkpt lat="44.072983181073425" lon="12.316819681981622"><ele>58.0</ele><time>2026-05-02T14:20:45Z</time></trkpt><trkpt lat="44.07289643181768" lon="12.31680433940586"><ele>58.33333333333333</ele><time>2026-05-02T14:20:47Z</time></trkpt><trkpt lat="44.072813333179795" lon="12.316782938434782"><ele>58.666666666666664</ele><time>2026-05-02T14:20:49Z</time></trkpt><trkpt lat="44.0727385074811" lon="12.3167410560289"><ele>59.0</ele><time>2026-05-02T14:20:51Z</time></trkpt><trkpt lat="44.072669406389316" lon="12.316698490130678"><ele>59.33333333333333</ele><time>2026-05-02T14:20:53Z</time></trkpt><trkpt lat="44.072611427215094" lon="12.316632757031792"><ele>59.666666666666664</ele><time>2026-05-02T14:20:55Z</time></trkpt><trkpt lat="44.072548079862074" lon="12.316580258817167"><ele>60.0</ele><time>2026-05-02T14:20:57Z</time></trkpt><trkpt lat="44.07249636329438" lon="12.316521624110027"><ele>60.0</ele><time>2026-05-02T14:20:59Z</time></trkpt><trkpt lat="44.07244382601552" lon="12.316465176611"><ele>60.0</ele><time>2026-05-02T14:21:01Z</time></trkpt><trkpt lat="44.07239350133754" lon="12.31640528933827"><ele>60.0</ele><time>2026-05-02T14:21:03Z</time></trkpt><trkpt lat="44.07233963982226" lon="12.316340948061823"><ele>60.0</ele><time>2026-05-02T14:21:05Z</time></trkpt><trkpt lat="44.07228652645009" lon="12.316280478555816"><ele>60.0</ele><time>2026-05-02T14:21:07Z</time></trkpt><trkpt lat="44.07223189030796" lon="12.31622188060536"><ele>60.0</ele><time>2026-05-02T14:21:09Z</time></trkpt><trkpt lat="44.07217735993486" lon="12.316160165832834"><ele>60.0</ele><time>2026-05-02T14:21:11Z</time></trkpt><trkpt lat="44.072127982090144" lon="12.316092413829228"><ele>60.166666666666664</ele><time>2026-05-02T14:21:13Z</time></trkpt><trkpt lat="44.07207258762775" lon="12.316026668742522"><ele>60.33333333333333</ele><time>2026-05-02T14:21:15Z</time></trkpt><trkpt lat="44.07200662140603" lon="12.315962872853001"><ele>60.5</ele><time>2026-05-02T14:21:17Z</time></trkpt><trkpt lat="44.071945072708104" lon="12.315900663092712"><ele>60.666666666666664</ele><time>2026-05-02T14:21:19Z</time></trkpt><trkpt lat="44.071885787545234" lon="12.315834043544099"><ele>60.83333333333333</ele><time>2026-05-02T14:21:21Z</time></trkpt><trkpt lat="44.07182546785019" lon="12.315769583985107"><ele>61.0</ele><time>2026-05-02T14:21:23Z</time></trkpt><trkpt lat="44.07176620515083" lon="12.315700577021593"><ele>60.99999999999999</ele><time>2026-05-02T14:21:25Z</time></trkpt><trkpt lat="44.0717052855441" lon="12.315633155532133"><ele>61.0</ele><time>2026-05-02T14:21:27Z</time></trkpt><trkpt lat="44.07164511622167" lon="12.315568480319726"><ele>60.99999999999999</ele><time>2026-05-02T14:21:29Z</time></trkpt><trkpt lat="44.0715907084735" lon="12.315495443882622"><ele>60.99999999999999</ele><time>2026-05-02T14:21:31Z</time></trkpt><trkpt lat="44.071535219471855" lon="12.315428458583071"><ele>61.0</ele><time>2026-05-02T14:21:33Z</time></trkpt><trkpt lat="44.07147917762137" lon="12.315359747116013"><ele>60.99999999999999</ele><time>2026-05-02T14:21:35Z</time></trkpt><trkpt lat="44.071426385752524" lon="12.315295862386996"><ele>60.99999999999999</ele><time>2026-05-02T14:21:37Z</time></trkpt><trkpt lat="44.07137356505363" lon="12.315234201051913"><ele>60.85714285714285</ele><time>2026-05-02T14:21:39Z</time></trkpt><trkpt lat="44.071317794135965" lon="12.315171697613831"><ele>60.71428571428571</ele><time>2026-05-02T14:21:41Z</time></trkpt><trkpt lat="44.071267313511505" lon="12.315110234669408"><ele>60.57142857142857</ele><time>2026-05-02T14:21:43Z</time></trkpt><trkpt lat="44.071213278357924" lon="12.315043108748707"><ele>60.42857142857142</ele><time>2026-05-02T14:21:45Z</time></trkpt><trkpt lat="44.07115647880091" lon="12.314985162011107"><ele>60.28571428571428</ele><time>2026-05-02T14:21:47Z</time></trkpt><trkpt lat="44.07109455107549" lon="12.314920280312236"><ele>60.142857142857146</ele><time>2026-05-02T14:21:49Z</time></trkpt><trkpt lat="44.07103507280815" lon="12.314855620455397"><ele>60.0</ele><time>2026-05-02T14:21:51Z</time></trkpt><trkpt lat="44.070978325483594" lon="12.314787485287079"><ele>60.5</ele><time>2026-05-02T14:21:53Z</time></trkpt><trkpt lat="44.070919619930926" lon="12.314716601446143"><ele>61.0</ele><time>2026-05-02T14:21:55Z</time></trkpt><trkpt lat="44.07085655257449" lon="12.314653952181951"><ele>61.5</ele><time>2026-05-02T14:21:57Z</time></trkpt><trkpt lat="44.070795443101765" lon="12.314577867708113"><ele>62.0</ele><time>2026-05-02T14:21:59Z</time></trkpt><trkpt lat="44.0707343460029" lon="12.314503013702815"><ele>62.5</ele><time>2026-05-02T14:22:01Z</time></trkpt><trkpt lat="44.07067197985082" lon="12.314432475184761"><ele>63.0</ele><time>2026-05-02T14:22:03Z</time></trkpt><trkpt lat="44.07060799963292" lon="12.314365496573007"><ele>63.0</ele><time>2026-05-02T14:22:04.999Z</time></trkpt><trkpt lat="44.070546325491534" lon="12.314300790019274"><ele>63.0</ele><time>2026-05-02T14:22:06.999Z</time></trkpt><trkpt lat="44.0704877831444" lon="12.31423472591963"><ele>63.0</ele><time>2026-05-02T14:22:08.999Z</time></trkpt><trkpt lat="44.07043294787788" lon="12.314168316047796"><ele>63.0</ele><time>2026-05-02T14:22:10.999Z</time></trkpt><trkpt lat="44.070377122045784" lon="12.314112873752352"><ele>63.0</ele><time>2026-05-02T14:22:12.999Z</time></trkpt><trkpt lat="44.07031901119843" lon="12.31405184448132"><ele>63.0</ele><time>2026-05-02T14:22:14.999Z</time></trkpt><trkpt lat="44.070263408528994" lon="12.313988106962622"><ele>63.0</ele><time>2026-05-02T14:22:16.999Z</time></trkpt><trkpt lat="44.07021553822121" lon="12.31392583513902"><ele>62.833333333333336</ele><time>2026-05-02T14:22:18.999Z</time></trkpt><trkpt lat="44.07014305431672" lon="12.313851857392661"><ele>62.66666666666667</ele><time>2026-05-02T14:22:21.999Z</time></trkpt><trkpt lat="44.070093390150376" lon="12.313792965145803"><ele>62.5</ele><time>2026-05-02T14:22:23.999Z</time></trkpt><trkpt lat="44.07002379434997" lon="12.31371516194459"><ele>62.333333333333336</ele><time>2026-05-02T14:22:26.999Z</time></trkpt><trkpt lat="44.069971619653884" lon="12.313630586333108"><ele>62.16666666666667</ele><time>2026-05-02T14:22:30Z</time></trkpt><trkpt lat="44.069921555480036" lon="12.313552342928507"><ele>62.0</ele><time>2026-05-02T14:22:33Z</time></trkpt><trkpt lat="44.06987525629127" lon="12.313472820588641"><ele>62.0</ele><time>2026-05-02T14:22:36Z</time></trkpt><trkpt lat="44.0698034664221" lon="12.313474510672489"><ele>62.00000000000001</ele><time>2026-05-02T14:22:39Z</time></trkpt><trkpt lat="44.06973940679277" lon="12.313466532581891"><ele>62.0</ele><time>2026-05-02T14:22:42Z</time></trkpt><trkpt lat="44.069663581439094" lon="12.313460159993701"><ele>62.0</ele><time>2026-05-02T14:22:45Z</time></trkpt><trkpt lat="44.06958132968624" lon="12.31345360929217"><ele>62.00000000000001</ele><time>2026-05-02T14:22:48Z</time></trkpt><trkpt lat="44.06950764822226" lon="12.313449424255502"><ele>62.0</ele><time>2026-05-02T14:22:51Z</time></trkpt><trkpt lat="44.06943611171917" lon="12.313458900013426"><ele>62.0</ele><time>2026-05-02T14:22:54Z</time></trkpt><trkpt lat="44.06936223443998" lon="12.313463086771838"><ele>62.0</ele><time>2026-05-02T14:22:57Z</time></trkpt><trkpt lat="44.06928900373595" lon="12.31347811431356"><ele>62.00000000000001</ele><time>2026-05-02T14:23:00Z</time></trkpt><trkpt lat="44.069220537130015" lon="12.31348779999075"><ele>62.0</ele><time>2026-05-02T14:23:03Z</time></trkpt><trkpt lat="44.06914890412969" lon="12.313485976724817"><ele>62.0</ele><time>2026-05-02T14:23:06Z</time></trkpt><trkpt lat="44.069082902999746" lon="12.31349711545132"><ele>62.00000000000001</ele><time>2026-05-02T14:23:09Z</time></trkpt><trkpt lat="44.069017142528935" lon="12.313522130282957"><ele>62.0</ele><time>2026-05-02T14:23:12Z</time></trkpt><trkpt lat="44.06894324875929" lon="12.313555319605754"><ele>62.0</ele><time>2026-05-02T14:23:16Z</time></trkpt><trkpt lat="44.0688637686358" lon="12.313566942060199"><ele>63.42857142857143</ele><time>2026-05-02T14:23:20Z</time></trkpt><trkpt lat="44.06879385164218" lon="12.313591804442613"><ele>64.85714285714286</ele><time>2026-05-02T14:23:24Z</time></trkpt><trkpt lat="44.06872143783781" lon="12.313615324851444"><ele>66.28571428571429</ele><time>2026-05-02T14:23:29Z</time></trkpt><trkpt lat="44.06866682135377" lon="12.313660196621731"><ele>67.71428571428572</ele><time>2026-05-02T14:23:34Z</time></trkpt><trkpt lat="44.06867750289361" lon="12.313750307774944"><ele>69.14285714285714</ele><time>2026-05-02T14:23:38Z</time></trkpt><trkpt lat="44.068694248254545" lon="12.313847781623478"><ele>70.57142857142858</ele><time>2026-05-02T14:23:43Z</time></trkpt><trkpt lat="44.068719405394184" lon="12.313940731623067"><ele>72.0</ele><time>2026-05-02T14:23:48Z</time></trkpt><trkpt lat="44.06872584614906" lon="12.314044961314172"><ele>72.00000000000001</ele><time>2026-05-02T14:23:53Z</time></trkpt><trkpt lat="44.06875605522103" lon="12.31413714411141"><ele>72.0</ele><time>2026-05-02T14:23:58Z</time></trkpt><trkpt lat="44.068777924017276" lon="12.31422958167272"><ele>72.0</ele><time>2026-05-02T14:24:03Z</time></trkpt><trkpt lat="44.06878118835292" lon="12.314326146432128"><ele>72.0</ele><time>2026-05-02T14:24:07.999Z</time></trkpt><trkpt lat="44.06880914613812" lon="12.314421356123995"><ele>72.0</ele><time>2026-05-02T14:24:12.999Z</time></trkpt><trkpt lat="44.06882294085723" lon="12.31452130662765"><ele>72.00000000000001</ele><time>2026-05-02T14:24:16.999Z</time></trkpt><trkpt lat="44.06884155993215" lon="12.314615141213311"><ele>72.0</ele><time>2026-05-02T14:24:19.999Z</time></trkpt><trkpt lat="44.06885870009876" lon="12.314707493154492"><ele>71.4</ele><time>2026-05-02T14:24:21.999Z</time></trkpt><trkpt lat="44.06886122109078" lon="12.31482999477317"><ele>70.80000000000001</ele><time>2026-05-02T14:24:23.999Z</time></trkpt><trkpt lat="44.06886040897247" lon="12.314980016548962"><ele>70.2</ele><time>2026-05-02T14:24:25.999Z</time></trkpt><trkpt lat="44.06885519856376" lon="12.315160261590435"><ele>69.60000000000001</ele><time>2026-05-02T14:24:27.999Z</time></trkpt><trkpt lat="44.06884388696767" lon="12.315253207232871"><ele>69.0</ele><time>2026-05-02T14:24:28.999Z</time></trkpt><trkpt lat="44.0688382391263" lon="12.315350991800072"><ele>69.0</ele><time>2026-05-02T14:24:29.999Z</time></trkpt><trkpt lat="44.068835224752306" lon="12.315440275332643"><ele>69.0</ele><time>2026-05-02T14:24:30.999Z</time></trkpt><trkpt lat="44.068833452563624" lon="12.31553534624105"><ele>69.0</ele><time>2026-05-02T14:24:31.999Z</time></trkpt><trkpt lat="44.06886989371658" lon="12.31562437205938"><ele>69.0</ele><time>2026-05-02T14:24:32.999Z</time></trkpt><trkpt lat="44.06892954348373" lon="12.315670472861072"><ele>69.0</ele><time>2026-05-02T14:24:34Z</time></trkpt><trkpt lat="44.06897962881701" lon="12.315776888748978"><ele>69.0</ele><time>2026-05-02T14:24:36Z</time></trkpt><trkpt lat="44.069018635327545" lon="12.315846646374558"><ele>69.0</ele><time>2026-05-02T14:24:38Z</time></trkpt><trkpt lat="44.06907385037394" lon="12.315921998266546"><ele>69.0</ele><time>2026-05-02T14:24:41Z</time></trkpt><trkpt lat="44.069094277605124" lon="12.316020739409371"><ele>69.0</ele><time>2026-05-02T14:24:45Z</time></trkpt><trkpt lat="44.06912908285965" lon="12.316122629750986"><ele>69.0</ele><time>2026-05-02T14:24:50Z</time></trkpt><trkpt lat="44.069171818991165" lon="12.316204368239136"><ele>69.0</ele><time>2026-05-02T14:24:55Z</time></trkpt><trkpt lat="44.06921174552485" lon="12.31627239313576"><ele>69.0</ele><time>2026-05-02T14:25:02Z</time></trkpt><trkpt lat="44.06920180075692" lon="12.316364577429868"><ele>69.0</ele><time>2026-05-02T14:25:08Z</time></trkpt><trkpt lat="44.06921384724328" lon="12.31645574515305"><ele>69.0</ele><time>2026-05-02T14:25:15Z</time></trkpt><trkpt lat="44.06924814505985" lon="12.316540168411484"><ele>71.0</ele><time>2026-05-02T14:25:23Z</time></trkpt><trkpt lat="44.069264853105395" lon="12.316637089844171"><ele>73.0</ele><time>2026-05-02T14:25:31Z</time></trkpt><trkpt lat="44.069298301996035" lon="12.316722753002004"><ele>75.0</ele><time>2026-05-02T14:25:40Z</time></trkpt><trkpt lat="44.069306808374066" lon="12.3168158071388"><ele>77.0</ele><time>2026-05-02T14:25:48Z</time></trkpt><trkpt lat="44.06932815597055" lon="12.31690540170708"><ele>79.0</ele><time>2026-05-02T14:25:56Z</time></trkpt><trkpt lat="44.069358287369546" lon="12.316989868157592"><ele>81.0</ele><time>2026-05-02T14:26:04Z</time></trkpt><trkpt lat="44.069398138959" lon="12.317063865543673"><ele>83.0</ele><time>2026-05-02T14:26:11Z</time></trkpt><trkpt lat="44.06940177751358" lon="12.317153402220937"><ele>83.0</ele><time>2026-05-02T14:26:17.999Z</time></trkpt><trkpt lat="44.06944851440706" lon="12.317217398161786"><ele>83.0</ele><time>2026-05-02T14:26:26.999Z</time></trkpt><trkpt lat="44.0694547774345" lon="12.317308533867784"><ele>83.0</ele><time>2026-05-02T14:26:33.999Z</time></trkpt><trkpt lat="44.06949315642259" lon="12.317382168758385"><ele>83.0</ele><time>2026-05-02T14:26:41Z</time></trkpt><trkpt lat="44.06951618776513" lon="12.317472641654403"><ele>83.0</ele><time>2026-05-02T14:26:48Z</time></trkpt><trkpt lat="44.06955524404711" lon="12.31755521309358"><ele>83.0</ele><time>2026-05-02T14:26:55Z</time></trkpt><trkpt lat="44.069587775644635" lon="12.317644913583917"><ele>83.0</ele><time>2026-05-02T14:27:02Z</time></trkpt><trkpt lat="44.06963318675391" lon="12.317708696163573"><ele>84.0</ele><time>2026-05-02T14:27:08Z</time></trkpt><trkpt lat="44.069696530734426" lon="12.317756867533179"><ele>85.0</ele><time>2026-05-02T14:27:15Z</time></trkpt><trkpt lat="44.06973462746425" lon="12.317856114861717"><ele>86.0</ele><time>2026-05-02T14:27:22Z</time></trkpt><trkpt lat="44.06983053269974" lon="12.317922365156784"><ele>87.0</ele><time>2026-05-02T14:27:32Z</time></trkpt><trkpt lat="44.069833138757694" lon="12.318013413568298"><ele>88.0</ele><time>2026-05-02T14:27:37Z</time></trkpt><trkpt lat="44.0699008160412" lon="12.318036716451653"><ele>89.0</ele><time>2026-05-02T14:27:43Z</time></trkpt><trkpt lat="44.06994755866322" lon="12.318111715696848"><ele>90.71428571428571</ele><time>2026-05-02T14:27:51Z</time></trkpt><trkpt lat="44.06999369815058" lon="12.318180202637823"><ele>92.42857142857143</ele><time>2026-05-02T14:27:59Z</time></trkpt><trkpt lat="44.07002406192096" lon="12.318262566998516"><ele>94.14285714285714</ele><time>2026-05-02T14:28:06Z</time></trkpt><trkpt lat="44.07006666147672" lon="12.318335210771082"><ele>95.85714285714286</ele><time>2026-05-02T14:28:14Z</time></trkpt><trkpt lat="44.07011463203318" lon="12.318394814680003"><ele>97.57142857142857</ele><time>2026-05-02T14:28:20.999Z</time></trkpt><trkpt lat="44.07011896945546" lon="12.318490681379487"><ele>99.28571428571428</ele><time>2026-05-02T14:28:28.999Z</time></trkpt><trkpt lat="44.070152240582495" lon="12.318569771990934"><ele>101.0</ele><time>2026-05-02T14:28:36.999Z</time></trkpt><trkpt lat="44.0701894033088" lon="12.318649787692355"><ele>101.0</ele><time>2026-05-02T14:28:46Z</time></trkpt><trkpt lat="44.07022912685051" lon="12.31872391659742"><ele>101.0</ele><time>2026-05-02T14:28:55Z</time></trkpt><trkpt lat="44.07028113344053" lon="12.318779991867963"><ele>101.0</ele><time>2026-05-02T14:29:02Z</time></trkpt><trkpt lat="44.07032392431646" lon="12.31885188024918"><ele>101.0</ele><time>2026-05-02T14:29:10Z</time></trkpt><trkpt lat="44.07037983480593" lon="12.318915914029402"><ele>101.0</ele><time>2026-05-02T14:29:18Z</time></trkpt><trkpt lat="44.0704380406994" lon="12.318958932120596"><ele>101.0</ele><time>2026-05-02T14:29:25Z</time></trkpt><trkpt lat="44.07049567144307" lon="12.319005651393905"><ele>101.0</ele><time>2026-05-02T14:29:34Z</time></trkpt><trkpt lat="44.07055993972931" lon="12.318986235444982"><ele>102.42857142857143</ele><time>2026-05-02T14:29:41Z</time></trkpt><trkpt lat="44.07061819791504" lon="12.319024597033087"><ele>103.85714285714286</ele><time>2026-05-02T14:29:49Z</time></trkpt><trkpt lat="44.07067665982693" lon="12.319065290762603"><ele>105.28571428571428</ele><time>2026-05-02T14:29:56Z</time></trkpt><trkpt lat="44.070735070296735" lon="12.319103555295435"><ele>106.71428571428572</ele><time>2026-05-02T14:30:04Z</time></trkpt><trkpt lat="44.07080036920945" lon="12.319090448125683"><ele>108.14285714285715</ele><time>2026-05-02T14:30:12Z</time></trkpt><trkpt lat="44.07087046866403" lon="12.319096831079133"><ele>109.57142857142857</ele><time>2026-05-02T14:30:20Z</time></trkpt><trkpt lat="44.070928952494675" lon="12.31914158024204"><ele>111.0</ele><time>2026-05-02T14:30:27.999Z</time></trkpt><trkpt lat="44.07099431921842" lon="12.319169736235636"><ele>112.57142857142857</ele><time>2026-05-02T14:30:35.999Z</time></trkpt><trkpt lat="44.07106126173559" lon="12.319189483195919"><ele>114.14285714285714</ele><time>2026-05-02T14:30:45.999Z</time></trkpt><trkpt lat="44.07110863906102" lon="12.31925057119566"><ele>115.71428571428571</ele><time>2026-05-02T14:30:53Z</time></trkpt><trkpt lat="44.07117018047275" lon="12.319297237677773"><ele>117.28571428571428</ele><time>2026-05-02T14:31:01Z</time></trkpt><trkpt lat="44.07122527856377" lon="12.319342055870974"><ele>118.85714285714286</ele><time>2026-05-02T14:31:07Z</time></trkpt><trkpt lat="44.0712793940431" lon="12.319402938801327"><ele>120.42857142857142</ele><time>2026-05-02T14:31:16Z</time></trkpt><trkpt lat="44.071332904392506" lon="12.319470481104197"><ele>121.99999999999999</ele><time>2026-05-02T14:31:24Z</time></trkpt><trkpt lat="44.07139428200869" lon="12.31949993003669"><ele>121.99999999999999</ele><time>2026-05-02T14:31:30Z</time></trkpt><trkpt lat="44.071436922562704" lon="12.31958730767909"><ele>122.0</ele><time>2026-05-02T14:31:36Z</time></trkpt><trkpt lat="44.07146486980152" lon="12.31967631370714"><ele>121.99999999999999</ele><time>2026-05-02T14:31:41Z</time></trkpt><trkpt lat="44.07148138430726" lon="12.31976237512347"><ele>121.99999999999999</ele><time>2026-05-02T14:31:45Z</time></trkpt><trkpt lat="44.07152556769285" lon="12.319847255753045"><ele>122.0</ele><time>2026-05-02T14:31:50Z</time></trkpt><trkpt lat="44.07155512649724" lon="12.319940530497927"><ele>121.99999999999999</ele><time>2026-05-02T14:31:55Z</time></trkpt><trkpt lat="44.07158484398754" lon="12.320028437014358"><ele>121.99999999999999</ele><time>2026-05-02T14:32:00Z</time></trkpt><trkpt lat="44.0716210368021" lon="12.320100964340227"><ele>122.7142857142857</ele><time>2026-05-02T14:32:04Z</time></trkpt><trkpt lat="44.07165730518153" lon="12.320200241632227"><ele>123.42857142857142</ele><time>2026-05-02T14:32:10Z</time></trkpt><trkpt lat="44.071683788715504" lon="12.320308497203593"><ele>124.14285714285714</ele><time>2026-05-02T14:32:15Z</time></trkpt><trkpt lat="44.07171097569796" lon="12.320403292088468"><ele>124.85714285714285</ele><time>2026-05-02T14:32:20Z</time></trkpt><trkpt lat="44.0717227383051" lon="12.320505479054592"><ele>125.57142857142856</ele><time>2026-05-02T14:32:25Z</time></trkpt><trkpt lat="44.07174065801079" lon="12.320595989252588"><ele>126.28571428571429</ele><time>2026-05-02T14:32:30Z</time></trkpt><trkpt lat="44.07175697957328" lon="12.32068537674942"><ele>127.0</ele><time>2026-05-02T14:32:35Z</time></trkpt><trkpt lat="44.071778524498264" lon="12.32078363818764"><ele>128.14285714285714</ele><time>2026-05-02T14:32:39.999Z</time></trkpt><trkpt lat="44.07180004200152" lon="12.320876772080114"><ele>129.28571428571428</ele><time>2026-05-02T14:32:45.999Z</time></trkpt><trkpt lat="44.07182502456567" lon="12.320959808545979"><ele>130.42857142857142</ele><time>2026-05-02T14:32:50.999Z</time></trkpt><trkpt lat="44.0718348819709" lon="12.321054269735296"><ele>131.57142857142856</ele><time>2026-05-02T14:32:55.999Z</time></trkpt><trkpt lat="44.07185372993612" lon="12.32114523935179"><ele>132.7142857142857</ele><time>2026-05-02T14:33:01Z</time></trkpt><trkpt lat="44.07186755487876" lon="12.321243701987205"><ele>133.85714285714286</ele><time>2026-05-02T14:33:06Z</time></trkpt><trkpt lat="44.07189474685875" lon="12.321330271837844"><ele>135.0</ele><time>2026-05-02T14:33:10Z</time></trkpt><trkpt lat="44.071919512093906" lon="12.321419481845332"><ele>136.42857142857142</ele><time>2026-05-02T14:33:14Z</time></trkpt><trkpt lat="44.071942757292675" lon="12.321504411605202"><ele>137.85714285714283</ele><time>2026-05-02T14:33:18Z</time></trkpt><trkpt lat="44.07195316666868" lon="12.321592819496747"><ele>139.28571428571428</ele><time>2026-05-02T14:33:23Z</time></trkpt><trkpt lat="44.07198280134394" lon="12.321680589482355"><ele>140.71428571428572</ele><time>2026-05-02T14:33:27Z</time></trkpt><trkpt lat="44.07200830138576" lon="12.321770249717451"><ele>142.14285714285717</ele><time>2026-05-02T14:33:31Z</time></trkpt><trkpt lat="44.072031403984774" lon="12.321855171999168"><ele>143.57142857142858</ele><time>2026-05-02T14:33:35Z</time></trkpt><trkpt lat="44.07205955756275" lon="12.32194020447357"><ele>145.0</ele><time>2026-05-02T14:33:39Z</time></trkpt><trkpt lat="44.07208369605728" lon="12.322044016180055"><ele>145.0</ele><time>2026-05-02T14:33:44Z</time></trkpt><trkpt lat="44.07210257183012" lon="12.322137456007255"><ele>145.0</ele><time>2026-05-02T14:33:49Z</time></trkpt><trkpt lat="44.07212330413289" lon="12.322222899771502"><ele>145.0</ele><time>2026-05-02T14:33:54Z</time></trkpt><trkpt lat="44.07214741833337" lon="12.322306855205516"><ele>145.0</ele><time>2026-05-02T14:34:00Z</time></trkpt><trkpt lat="44.07215901800038" lon="12.322411880798416"><ele>145.0</ele><time>2026-05-02T14:34:07Z</time></trkpt><trkpt lat="44.072180204748655" lon="12.322501486402869"><ele>145.0</ele><time>2026-05-02T14:34:14Z</time></trkpt><trkpt lat="44.07218631549027" lon="12.322594224596418"><ele>145.0</ele><time>2026-05-02T14:34:21Z</time></trkpt><trkpt lat="44.072197950132605" lon="12.322683212717854"><ele>146.42857142857144</ele><time>2026-05-02T14:34:28Z</time></trkpt><trkpt lat="44.07214516920395" lon="12.322616468074107"><ele>147.85714285714286</ele><time>2026-05-02T14:34:36Z</time></trkpt><trkpt lat="44.07209767740984" lon="12.322538557123947"><ele>149.28571428571428</ele><time>2026-05-02T14:34:42Z</time></trkpt><trkpt lat="44.07204671725555" lon="12.322474239773276"><ele>150.71428571428572</ele><time>2026-05-02T14:34:48Z</time></trkpt><trkpt lat="44.071990397111364" lon="12.322424087252323"><ele>152.14285714285714</ele><time>2026-05-02T14:34:52.999Z</time></trkpt><trkpt lat="44.071926193413184" lon="12.322411957294188"><ele>153.57142857142858</ele><time>2026-05-02T14:34:56.999Z</time></trkpt><trkpt lat="44.071866793720666" lon="12.322445744414855"><ele>155.0</ele><time>2026-05-02T14:35:01.999Z</time></trkpt><trkpt lat="44.071808951649274" lon="12.322504722877502"><ele>155.0</ele><time>2026-05-02T14:35:07Z</time></trkpt><trkpt lat="44.071761229859746" lon="12.322577680342778"><ele>155.0</ele><time>2026-05-02T14:35:11Z</time></trkpt><trkpt lat="44.07171032621571" lon="12.32264971638825"><ele>155.0</ele><time>2026-05-02T14:35:16Z</time></trkpt><trkpt lat="44.071656887001524" lon="12.322706240058455"><ele>155.0</ele><time>2026-05-02T14:35:22Z</time></trkpt><trkpt lat="44.07160691451589" lon="12.322785979240795"><ele>155.0</ele><time>2026-05-02T14:35:28Z</time></trkpt><trkpt lat="44.07156573134548" lon="12.32285737908089"><ele>155.0</ele><time>2026-05-02T14:35:31Z</time></trkpt><trkpt lat="44.07150829232994" lon="12.322948016356595"><ele>155.0</ele><time>2026-05-02T14:35:34Z</time></trkpt><trkpt lat="44.07142355003051" lon="12.323014933510748"><ele>153.8</ele><time>2026-05-02T14:35:37Z</time></trkpt><trkpt lat="44.07136567061659" lon="12.323085905529242"><ele>152.6</ele><time>2026-05-02T14:35:39Z</time></trkpt><trkpt lat="44.07129548430894" lon="12.323149544144062"><ele>151.4</ele><time>2026-05-02T14:35:41Z</time></trkpt><trkpt lat="44.0712103788539" lon="12.323219250993334"><ele>150.2</ele><time>2026-05-02T14:35:43Z</time></trkpt><trkpt lat="44.07111748553324" lon="12.323301123407106"><ele>149.0</ele><time>2026-05-02T14:35:45Z</time></trkpt><trkpt lat="44.07102252643783" lon="12.323423556993049"><ele>149.0</ele><time>2026-05-02T14:35:47Z</time></trkpt><trkpt lat="44.0709578500723" lon="12.323468986834543"><ele>149.0</ele><time>2026-05-02T14:35:48Z</time></trkpt><trkpt lat="44.07091986644929" lon="12.323565360752495"><ele>149.0</ele><time>2026-05-02T14:35:49Z</time></trkpt><trkpt lat="44.07089398507423" lon="12.323669122590026"><ele>149.0</ele><time>2026-05-02T14:35:50Z</time></trkpt><trkpt lat="44.0708868841486" lon="12.323777622989954"><ele>149.0</ele><time>2026-05-02T14:35:51Z</time></trkpt><trkpt lat="44.07091553632138" lon="12.323887868651093"><ele>149.0</ele><time>2026-05-02T14:35:52Z</time></trkpt><trkpt lat="44.07093715206034" lon="12.323988163493585"><ele>148.5</ele><time>2026-05-02T14:35:53Z</time></trkpt><trkpt lat="44.070961862801205" lon="12.324085473452303"><ele>148.0</ele><time>2026-05-02T14:35:54Z</time></trkpt><trkpt lat="44.070985042047745" lon="12.324186800297015"><ele>147.5</ele><time>2026-05-02T14:35:55Z</time></trkpt><trkpt lat="44.07101008321832" lon="12.324290319609172"><ele>147.0</ele><time>2026-05-02T14:35:56Z</time></trkpt><trkpt lat="44.07103775623796" lon="12.32438993229408"><ele>146.5</ele><time>2026-05-02T14:35:57Z</time></trkpt><trkpt lat="44.07106108071933" lon="12.324489231427078"><ele>146.0</ele><time>2026-05-02T14:35:58Z</time></trkpt><trkpt lat="44.07108474703745" lon="12.324594162055655"><ele>146.0</ele><time>2026-05-02T14:35:59Z</time></trkpt><trkpt lat="44.07109791721171" lon="12.324702407744969"><ele>146.0</ele><time>2026-05-02T14:36:00Z</time></trkpt><trkpt lat="44.07112364387048" lon="12.324805962004994"><ele>146.0</ele><time>2026-05-02T14:36:01Z</time></trkpt><trkpt lat="44.07114669033593" lon="12.32490753447731"><ele>146.0</ele><time>2026-05-02T14:36:02Z</time></trkpt><trkpt lat="44.07117186339725" lon="12.325018455734616"><ele>146.0</ele><time>2026-05-02T14:36:03Z</time></trkpt><trkpt lat="44.07119642435468" lon="12.325125338071313"><ele>146.0</ele><time>2026-05-02T14:36:04Z</time></trkpt><trkpt lat="44.071225491620396" lon="12.325242071446391"><ele>144.83333333333331</ele><time>2026-05-02T14:36:05Z</time></trkpt><trkpt lat="44.07125435328532" lon="12.325350936235202"><ele>143.66666666666666</ele><time>2026-05-02T14:36:06Z</time></trkpt><trkpt lat="44.07129506781248" lon="12.325463093051924"><ele>142.5</ele><time>2026-05-02T14:36:07Z</time></trkpt><trkpt lat="44.07135282221528" lon="12.325551709343296"><ele>141.33333333333334</ele><time>2026-05-02T14:36:08Z</time></trkpt><trkpt lat="44.07140727592209" lon="12.325633287567635"><ele>140.16666666666669</ele><time>2026-05-02T14:36:09Z</time></trkpt><trkpt lat="44.07147423329628" lon="12.325706362164825"><ele>139.0</ele><time>2026-05-02T14:36:10Z</time></trkpt><trkpt lat="44.07154560483299" lon="12.325767983166164"><ele>139.14285714285714</ele><time>2026-05-02T14:36:11Z</time></trkpt><trkpt lat="44.071623033768006" lon="12.325802858600094"><ele>139.28571428571428</ele><time>2026-05-02T14:36:12Z</time></trkpt><trkpt lat="44.07169773803522" lon="12.325829258095704"><ele>139.42857142857144</ele><time>2026-05-02T14:36:13Z</time></trkpt><trkpt lat="44.07177092990377" lon="12.325847869906074"><ele>139.57142857142856</ele><time>2026-05-02T14:36:14Z</time></trkpt><trkpt lat="44.07183472824362" lon="12.325864333003699"><ele>139.71428571428572</ele><time>2026-05-02T14:36:15Z</time></trkpt><trkpt lat="44.07189728681591" lon="12.325880330480562"><ele>139.85714285714286</ele><time>2026-05-02T14:36:16Z</time></trkpt><trkpt lat="44.07196391976746" lon="12.325889213390647"><ele>140.0</ele><time>2026-05-02T14:36:17Z</time></trkpt><trkpt lat="44.072077164007" lon="12.325912450088675"><ele>140.0</ele><time>2026-05-02T14:36:19Z</time></trkpt><trkpt lat="44.07217088715218" lon="12.325938838090774"><ele>140.0</ele><time>2026-05-02T14:36:21Z</time></trkpt><trkpt lat="44.07225836156929" lon="12.325935264486006"><ele>140.0</ele><time>2026-05-02T14:36:23Z</time></trkpt><trkpt lat="44.07238532638076" lon="12.325962448224223"><ele>140.0</ele><time>2026-05-02T14:36:27Z</time></trkpt><trkpt lat="44.07247766558527" lon="12.325970284380988"><ele>140.0</ele><time>2026-05-02T14:36:30Z</time></trkpt><trkpt lat="44.07254740362397" lon="12.325981200105334"><ele>141.6</ele><time>2026-05-02T14:36:32Z</time></trkpt><trkpt lat="44.07261296125274" lon="12.325993696398706"><ele>143.2</ele><time>2026-05-02T14:36:35Z</time></trkpt><trkpt lat="44.07267809218009" lon="12.326019479358918"><ele>144.8</ele><time>2026-05-02T14:36:38Z</time></trkpt><trkpt lat="44.07274380927993" lon="12.3260570098481"><ele>146.4</ele><time>2026-05-02T14:36:41Z</time></trkpt><trkpt lat="44.07280169893521" lon="12.326100343982086"><ele>148.0</ele><time>2026-05-02T14:36:44Z</time></trkpt><trkpt lat="44.07298545621596" lon="12.326252014512745"><ele>148.0</ele><time>2026-05-02T14:36:51.999Z</time></trkpt><trkpt lat="44.07303533250203" lon="12.326317150491194"><ele>148.0</ele><time>2026-05-02T14:36:54.999Z</time></trkpt><trkpt lat="44.07311272954489" lon="12.326332257566017"><ele>148.0</ele><time>2026-05-02T14:36:57.999Z</time></trkpt><trkpt lat="44.073267532573404" lon="12.326338602476897"><ele>148.0</ele><time>2026-05-02T14:37:13Z</time></trkpt><trkpt lat="44.07333371751926" lon="12.326380787503954"><ele>148.0</ele><time>2026-05-02T14:37:21Z</time></trkpt><trkpt lat="44.07339051974333" lon="12.326435091545523"><ele>148.0</ele><time>2026-05-02T14:37:28Z</time></trkpt><trkpt lat="44.073467517243905" lon="12.326431643305328"><ele>148.14285714285714</ele><time>2026-05-02T14:37:34Z</time></trkpt><trkpt lat="44.07353358199208" lon="12.326404130717593"><ele>148.28571428571428</ele><time>2026-05-02T14:37:41Z</time></trkpt><trkpt lat="44.07359500935946" lon="12.326374871665756"><ele>148.42857142857142</ele><time>2026-05-02T14:37:50Z</time></trkpt><trkpt lat="44.073656057107435" lon="12.326333123255226"><ele>148.57142857142856</ele><time>2026-05-02T14:37:56Z</time></trkpt><trkpt lat="44.07370414040474" lon="12.326273299373508"><ele>148.7142857142857</ele><time>2026-05-02T14:38:00Z</time></trkpt><trkpt lat="44.073775668472514" lon="12.326269410109298"><ele>148.85714285714286</ele><time>2026-05-02T14:38:03Z</time></trkpt><trkpt lat="44.07383514400382" lon="12.32630845130922"><ele>149.0</ele><time>2026-05-02T14:38:06Z</time></trkpt><trkpt lat="44.07389414753864" lon="12.326373832521979"><ele>149.0</ele><time>2026-05-02T14:38:09Z</time></trkpt><trkpt lat="44.07394027429286" lon="12.326439091641182"><ele>149.0</ele><time>2026-05-02T14:38:12Z</time></trkpt><trkpt lat="44.07399067262742" lon="12.326508339174607"><ele>149.0</ele><time>2026-05-02T14:38:16Z</time></trkpt><trkpt lat="44.07404256832856" lon="12.326584469552692"><ele>149.0</ele><time>2026-05-02T14:38:20Z</time></trkpt><trkpt lat="44.07410847753498" lon="12.326648316018881"><ele>149.0</ele><time>2026-05-02T14:38:24Z</time></trkpt><trkpt lat="44.07417285871562" lon="12.326725277152676"><ele>149.0</ele><time>2026-05-02T14:38:28Z</time></trkpt><trkpt lat="44.07422099348789" lon="12.326808098876466"><ele>149.71428571428572</ele><time>2026-05-02T14:38:32Z</time></trkpt><trkpt lat="44.07428061419728" lon="12.326870466106445"><ele>150.42857142857142</ele><time>2026-05-02T14:38:36Z</time></trkpt><trkpt lat="44.07434003543489" lon="12.32694421772038"><ele>151.14285714285714</ele><time>2026-05-02T14:38:40Z</time></trkpt><trkpt lat="44.074400123757144" lon="12.327008692206713"><ele>151.85714285714286</ele><time>2026-05-02T14:38:44Z</time></trkpt><trkpt lat="44.074456516186416" lon="12.327067490274054"><ele>152.57142857142856</ele><time>2026-05-02T14:38:48Z</time></trkpt><trkpt lat="44.074515525709394" lon="12.327114780191073"><ele>153.28571428571428</ele><time>2026-05-02T14:38:52Z</time></trkpt><trkpt lat="44.07456762744958" lon="12.327170029319564"><ele>154.0</ele><time>2026-05-02T14:38:56Z</time></trkpt><trkpt lat="44.07463769209108" lon="12.327216830644803"><ele>154.66666666666669</ele><time>2026-05-02T14:38:59.999Z</time></trkpt><trkpt lat="44.074704691668" lon="12.327286165540563"><ele>155.33333333333334</ele><time>2026-05-02T14:39:03.999Z</time></trkpt><trkpt lat="44.07476094224969" lon="12.327359048883983"><ele>156.0</ele><time>2026-05-02T14:39:07.999Z</time></trkpt><trkpt lat="44.0748252740087" lon="12.327420763390004"><ele>156.66666666666666</ele><time>2026-05-02T14:39:11.999Z</time></trkpt><trkpt lat="44.07489051726571" lon="12.327478036155554"><ele>157.33333333333331</ele><time>2026-05-02T14:39:16Z</time></trkpt><trkpt lat="44.07493205544569" lon="12.32755348670676"><ele>158.0</ele><time>2026-05-02T14:39:20Z</time></trkpt><trkpt lat="44.074961049800514" lon="12.327638717003403"><ele>158.2857142857143</ele><time>2026-05-02T14:39:24Z</time></trkpt><trkpt lat="44.0750165484596" lon="12.327707949731202"><ele>158.57142857142858</ele><time>2026-05-02T14:39:31Z</time></trkpt><trkpt lat="44.07505796869384" lon="12.3277833473049"><ele>158.85714285714286</ele><time>2026-05-02T14:39:35Z</time></trkpt><trkpt lat="44.07508039831539" lon="12.327866705148942"><ele>159.14285714285717</ele><time>2026-05-02T14:39:39Z</time></trkpt><trkpt lat="44.07511279732602" lon="12.327982107189893"><ele>159.42857142857144</ele><time>2026-05-02T14:39:43Z</time></trkpt><trkpt lat="44.075112143022025" lon="12.328087911507229"><ele>159.71428571428572</ele><time>2026-05-02T14:39:47Z</time></trkpt><trkpt lat="44.07510697293882" lon="12.328185670231765"><ele>160.0</ele><time>2026-05-02T14:39:52Z</time></trkpt><trkpt lat="44.0751194294243" lon="12.328285180193353"><ele>160.66666666666669</ele><time>2026-05-02T14:39:56Z</time></trkpt><trkpt lat="44.07511706923303" lon="12.32838667726698"><ele>161.33333333333334</ele><time>2026-05-02T14:40:00Z</time></trkpt><trkpt lat="44.07511370956964" lon="12.328490027804097"><ele>162.0</ele><time>2026-05-02T14:40:04Z</time></trkpt><trkpt lat="44.07511490604033" lon="12.328602534843112"><ele>162.66666666666666</ele><time>2026-05-02T14:40:08Z</time></trkpt><trkpt lat="44.07510986897602" lon="12.328716607239238"><ele>163.33333333333331</ele><time>2026-05-02T14:40:12Z</time></trkpt><trkpt lat="44.07510046706052" lon="12.328830332140793"><ele>164.0</ele><time>2026-05-02T14:40:16Z</time></trkpt><trkpt lat="44.07510758036989" lon="12.328922887359616"><ele>164.28571428571428</ele><time>2026-05-02T14:40:19Z</time></trkpt><trkpt lat="44.07510401286776" lon="12.329011448249455"><ele>164.57142857142856</ele><time>2026-05-02T14:40:22Z</time></trkpt><trkpt lat="44.075115931826446" lon="12.329097708862596"><ele>164.85714285714283</ele><time>2026-05-02T14:40:25Z</time></trkpt><trkpt lat="44.075104359295835" lon="12.32920212628892"><ele>165.14285714285714</ele><time>2026-05-02T14:40:29Z</time></trkpt><trkpt lat="44.07510569722396" lon="12.329303299235383"><ele>165.42857142857144</ele><time>2026-05-02T14:40:32Z</time></trkpt><trkpt lat="44.0750943834894" lon="12.329414262906452"><ele>165.7142857142857</ele><time>2026-05-02T14:40:36Z</time></trkpt><trkpt lat="44.07508359362216" lon="12.329513362169903"><ele>166.0</ele><time>2026-05-02T14:40:39Z</time></trkpt><trkpt lat="44.075091757938495" lon="12.32962097399682"><ele>166.0</ele><time>2026-05-02T14:40:42Z</time></trkpt><trkpt lat="44.07509745521971" lon="12.32972999887802"><ele>166.0</ele><time>2026-05-02T14:40:45Z</time></trkpt><trkpt lat="44.07509833874718" lon="12.329834501593409"><ele>166.0</ele><time>2026-05-02T14:40:48Z</time></trkpt><trkpt lat="44.07509240340537" lon="12.32994640810266"><ele>166.0</ele><time>2026-05-02T14:40:52Z</time></trkpt><trkpt lat="44.075079348014576" lon="12.330062570206275"><ele>166.0</ele><time>2026-05-02T14:40:55.999Z</time></trkpt><trkpt lat="44.07507506559415" lon="12.330161510038282"><ele>166.0</ele><time>2026-05-02T14:40:59.999Z</time></trkpt><trkpt lat="44.075065469183144" lon="12.33027074429654"><ele>166.0</ele><time>2026-05-02T14:41:02.999Z</time></trkpt><trkpt lat="44.07505698824505" lon="12.330365491594595"><ele>166.0</ele><time>2026-05-02T14:41:05.999Z</time></trkpt><trkpt lat="44.075044150485446" lon="12.330474057918904"><ele>166.0</ele><time>2026-05-02T14:41:09.999Z</time></trkpt><trkpt lat="44.07505460784435" lon="12.330577828815299"><ele>166.0</ele><time>2026-05-02T14:41:13.999Z</time></trkpt><trkpt lat="44.07505459932742" lon="12.330674807263478"><ele>166.0</ele><time>2026-05-02T14:41:17.999Z</time></trkpt><trkpt lat="44.07505033794475" lon="12.330790816463363"><ele>166.0</ele><time>2026-05-02T14:41:23Z</time></trkpt><trkpt lat="44.07503153256416" lon="12.330886055210053"><ele>166.0</ele><time>2026-05-02T14:41:27Z</time></trkpt><trkpt lat="44.075023953979375" lon="12.331009045565425"><ele>166.57142857142856</ele><time>2026-05-02T14:41:32Z</time></trkpt><trkpt lat="44.07502109232227" lon="12.331104103262701"><ele>167.14285714285717</ele><time>2026-05-02T14:41:36Z</time></trkpt><trkpt lat="44.07502223901593" lon="12.331201174518444"><ele>167.71428571428572</ele><time>2026-05-02T14:41:40Z</time></trkpt><trkpt lat="44.07501113346389" lon="12.331308222634947"><ele>168.28571428571428</ele><time>2026-05-02T14:41:44Z</time></trkpt><trkpt lat="44.07501513244131" lon="12.331405906809199"><ele>168.85714285714283</ele><time>2026-05-02T14:41:48Z</time></trkpt><trkpt lat="44.07501045181308" lon="12.331506394855797"><ele>169.42857142857144</ele><time>2026-05-02T14:41:52Z</time></trkpt><trkpt lat="44.075009428333416" lon="12.33159927412979"><ele>170.0</ele><time>2026-05-02T14:41:55Z</time></trkpt><trkpt lat="44.07501501603277" lon="12.33169025011302"><ele>170.71428571428572</ele><time>2026-05-02T14:41:58Z</time></trkpt><trkpt lat="44.075006199612126" lon="12.33178192701816"><ele>171.42857142857142</ele><time>2026-05-02T14:42:01Z</time></trkpt><trkpt lat="44.07500599052421" lon="12.331875692286582"><ele>172.14285714285714</ele><time>2026-05-02T14:42:04Z</time></trkpt><trkpt lat="44.074987841764894" lon="12.331980991673415"><ele>172.85714285714286</ele><time>2026-05-02T14:42:08Z</time></trkpt><trkpt lat="44.07498922833484" lon="12.332074711087632"><ele>173.57142857142856</ele><time>2026-05-02T14:42:11Z</time></trkpt><trkpt lat="44.074996962905914" lon="12.332162987945319"><ele>174.28571428571428</ele><time>2026-05-02T14:42:14Z</time></trkpt><trkpt lat="44.07501388597676" lon="12.332248970646717"><ele>175.0</ele><time>2026-05-02T14:42:17Z</time></trkpt><trkpt lat="44.07501470836762" lon="12.332347569710766"><ele>175.0</ele><time>2026-05-02T14:42:20Z</time></trkpt><trkpt lat="44.07500864100565" lon="12.332442270589217"><ele>175.0</ele><time>2026-05-02T14:42:23Z</time></trkpt><trkpt lat="44.075006279102325" lon="12.332547491091237"><ele>175.0</ele><time>2026-05-02T14:42:26Z</time></trkpt><trkpt lat="44.07500648410893" lon="12.33265969150607"><ele>175.0</ele><time>2026-05-02T14:42:29Z</time></trkpt><trkpt lat="44.07500356837829" lon="12.3327869958199"><ele>175.0</ele><time>2026-05-02T14:42:32Z</time></trkpt><trkpt lat="44.0749974301699" lon="12.332881518771298"><ele>175.0</ele><time>2026-05-02T14:42:34Z</time></trkpt><trkpt lat="44.074983748262206" lon="12.332984729341927"><ele>174.4</ele><time>2026-05-02T14:42:36Z</time></trkpt><trkpt lat="44.074975616807436" lon="12.33309813776169"><ele>173.8</ele><time>2026-05-02T14:42:38Z</time></trkpt><trkpt lat="44.07496898820347" lon="12.333216220085667"><ele>173.2</ele><time>2026-05-02T14:42:40Z</time></trkpt><trkpt lat="44.07495150974064" lon="12.333342633664534"><ele>172.6</ele><time>2026-05-02T14:42:42Z</time></trkpt><trkpt lat="44.074942464408274" lon="12.333469219121232"><ele>172.0</ele><time>2026-05-02T14:42:44Z</time></trkpt><trkpt lat="44.074933339062575" lon="12.333607044927646"><ele>170.2</ele><time>2026-05-02T14:42:46Z</time></trkpt><trkpt lat="44.074932727571316" lon="12.333749287865809"><ele>168.39999999999998</ele><time>2026-05-02T14:42:48Z</time></trkpt><trkpt lat="44.07491955665981" lon="12.333900895616702"><ele>166.60000000000002</ele><time>2026-05-02T14:42:50Z</time></trkpt><trkpt lat="44.07489105641751" lon="12.334049270184305"><ele>164.8</ele><time>2026-05-02T14:42:52Z</time></trkpt><trkpt lat="44.07488722242312" lon="12.334196143972894"><ele>163.0</ele><time>2026-05-02T14:42:54Z</time></trkpt><trkpt lat="44.074898978078636" lon="12.33433201297414"><ele>163.0</ele><time>2026-05-02T14:42:56Z</time></trkpt><trkpt lat="44.074878297455214" lon="12.334481124464581"><ele>163.0</ele><time>2026-05-02T14:42:58Z</time></trkpt><trkpt lat="44.07482518489256" lon="12.33459174200938"><ele>163.0</ele><time>2026-05-02T14:43:00Z</time></trkpt><trkpt lat="44.07475767859501" lon="12.334678783019852"><ele>163.0</ele><time>2026-05-02T14:43:02Z</time></trkpt><trkpt lat="44.07468623241845" lon="12.334754446950235"><ele>163.0</ele><time>2026-05-02T14:43:04Z</time></trkpt><trkpt lat="44.07459639664377" lon="12.334807730859776"><ele>164.0</ele><time>2026-05-02T14:43:06Z</time></trkpt><trkpt lat="44.07450469882996" lon="12.33483209305727"><ele>165.0</ele><time>2026-05-02T14:43:08Z</time></trkpt><trkpt lat="44.07442312406033" lon="12.334842872790018"><ele>166.0</ele><time>2026-05-02T14:43:10Z</time></trkpt><trkpt lat="44.074349572563484" lon="12.334856995438807"><ele>167.0</ele><time>2026-05-02T14:43:11.999Z</time></trkpt><trkpt lat="44.0742616346575" lon="12.334867529834575"><ele>168.0</ele><time>2026-05-02T14:43:13.999Z</time></trkpt><trkpt lat="44.074176164468355" lon="12.334871541516328"><ele>169.0</ele><time>2026-05-02T14:43:15.999Z</time></trkpt><trkpt lat="44.07409253973751" lon="12.33488751267981"><ele>169.0</ele><time>2026-05-02T14:43:17.999Z</time></trkpt><trkpt lat="44.07401078212067" lon="12.334897786555958"><ele>169.0</ele><time>2026-05-02T14:43:19.999Z</time></trkpt><trkpt lat="44.07393243263927" lon="12.334912209253972"><ele>169.0</ele><time>2026-05-02T14:43:21.999Z</time></trkpt><trkpt lat="44.07384773485437" lon="12.334929482414868"><ele>169.0</ele><time>2026-05-02T14:43:23.999Z</time></trkpt><trkpt lat="44.0737519296829" lon="12.334947625249129"><ele>169.0</ele><time>2026-05-02T14:43:25.999Z</time></trkpt><trkpt lat="44.073652670418035" lon="12.334979967153131"><ele>169.0</ele><time>2026-05-02T14:43:28Z</time></trkpt><trkpt lat="44.073553718765915" lon="12.335003946479622"><ele>169.0</ele><time>2026-05-02T14:43:30Z</time></trkpt><trkpt lat="44.07344651408406" lon="12.335025165721344"><ele>169.0</ele><time>2026-05-02T14:43:32Z</time></trkpt><trkpt lat="44.0733398357478" lon="12.335044890355684"><ele>169.0</ele><time>2026-05-02T14:43:34Z</time></trkpt><trkpt lat="44.073236600432125" lon="12.335065382118925"><ele>169.0</ele><time>2026-05-02T14:43:36Z</time></trkpt><trkpt lat="44.07313503881761" lon="12.335080491614537"><ele>169.0</ele><time>2026-05-02T14:43:38Z</time></trkpt><trkpt lat="44.07303544686234" lon="12.335108588528444"><ele>168.2</ele><time>2026-05-02T14:43:40Z</time></trkpt><trkpt lat="44.07292505335661" lon="12.335124626151106"><ele>167.39999999999998</ele><time>2026-05-02T14:43:42Z</time></trkpt><trkpt lat="44.07282963950578" lon="12.33513888010937"><ele>166.6</ele><time>2026-05-02T14:43:44Z</time></trkpt><trkpt lat="44.07273934323485" lon="12.335150209708639"><ele>165.8</ele><time>2026-05-02T14:43:46Z</time></trkpt><trkpt lat="44.072654408285764" lon="12.33515844590367"><ele>165.0</ele><time>2026-05-02T14:43:48Z</time></trkpt><trkpt lat="44.07257486822493" lon="12.335147568325148"><ele>165.0</ele><time>2026-05-02T14:43:50Z</time></trkpt><trkpt lat="44.07249354694253" lon="12.335160906978128"><ele>165.0</ele><time>2026-05-02T14:43:52Z</time></trkpt><trkpt lat="44.07241062295621" lon="12.33517436095181"><ele>165.0</ele><time>2026-05-02T14:43:54Z</time></trkpt><trkpt lat="44.0723217032912" lon="12.335210932690977"><ele>165.0</ele><time>2026-05-02T14:43:56Z</time></trkpt><trkpt lat="44.072236388962196" lon="12.335202629482367"><ele>165.0</ele><time>2026-05-02T14:43:58Z</time></trkpt><trkpt lat="44.072151844046736" lon="12.33523869965469"><ele>165.0</ele><time>2026-05-02T14:44:00Z</time></trkpt><trkpt lat="44.07206577748482" lon="12.335242372514708"><ele>165.0</ele><time>2026-05-02T14:44:02Z</time></trkpt><trkpt lat="44.07199007632308" lon="12.335260993574183"><ele>165.0</ele><time>2026-05-02T14:44:04Z</time></trkpt><trkpt lat="44.07191263311387" lon="12.335269906273577"><ele>165.0</ele><time>2026-05-02T14:44:06Z</time></trkpt><trkpt lat="44.07184096807386" lon="12.335280285549217"><ele>165.0</ele><time>2026-05-02T14:44:08Z</time></trkpt><trkpt lat="44.07177022508981" lon="12.335286609840072"><ele>165.0</ele><time>2026-05-02T14:44:10Z</time></trkpt><trkpt lat="44.071674345510495" lon="12.335305164273441"><ele>165.0</ele><time>2026-05-02T14:44:13Z</time></trkpt><trkpt lat="44.07160161008762" lon="12.335309650413251"><ele>165.14285714285717</ele><time>2026-05-02T14:44:15Z</time></trkpt><trkpt lat="44.0715372289481" lon="12.335321469967704"><ele>165.28571428571428</ele><time>2026-05-02T14:44:17Z</time></trkpt><trkpt lat="44.07147401469446" lon="12.335330356198948"><ele>165.42857142857144</ele><time>2026-05-02T14:44:19Z</time></trkpt><trkpt lat="44.0714049359182" lon="12.335337851542945"><ele>165.57142857142858</ele><time>2026-05-02T14:44:21Z</time></trkpt><trkpt lat="44.07131256181238" lon="12.335356076965002"><ele>165.71428571428572</ele><time>2026-05-02T14:44:24Z</time></trkpt><trkpt lat="44.071244602462414" lon="12.335367582138225"><ele>165.85714285714286</ele><time>2026-05-02T14:44:26Z</time></trkpt><trkpt lat="44.07117813717005" lon="12.335381130219941"><ele>166.0</ele><time>2026-05-02T14:44:28Z</time></trkpt><trkpt lat="44.071107901467286" lon="12.335395023449895"><ele>166.0</ele><time>2026-05-02T14:44:30Z</time></trkpt><trkpt lat="44.07103971381535" lon="12.335402959931459"><ele>166.0</ele><time>2026-05-02T14:44:32Z</time></trkpt><trkpt lat="44.070970265483496" lon="12.33541658034336"><ele>166.0</ele><time>2026-05-02T14:44:34Z</time></trkpt><trkpt lat="44.07089699607443" lon="12.335423850637548"><ele>166.0</ele><time>2026-05-02T14:44:36Z</time></trkpt><trkpt lat="44.07081115697619" lon="12.335437242884856"><ele>166.0</ele><time>2026-05-02T14:44:39Z</time></trkpt><trkpt lat="44.07074619460308" lon="12.335447768626274"><ele>166.0</ele><time>2026-05-02T14:44:41Z</time></trkpt><trkpt lat="44.07068719035798" lon="12.335508353486395"><ele>166.0</ele><time>2026-05-02T14:44:43Z</time></trkpt><trkpt lat="44.07061582292964" lon="12.335524464455627"><ele>166.0</ele><time>2026-05-02T14:44:45Z</time></trkpt><trkpt lat="44.070548389655315" lon="12.335534612027521"><ele>166.0</ele><time>2026-05-02T14:44:47Z</time></trkpt><trkpt lat="44.07048096498438" lon="12.335549713564683"><ele>166.0</ele><time>2026-05-02T14:44:49Z</time></trkpt><trkpt lat="44.070388451733756" lon="12.33557206408161"><ele>166.0</ele><time>2026-05-02T14:44:52Z</time></trkpt><trkpt lat="44.070324472363154" lon="12.3355951543168"><ele>166.0</ele><time>2026-05-02T14:44:54Z</time></trkpt><trkpt lat="44.07023976500606" lon="12.335606433254604"><ele>166.0</ele><time>2026-05-02T14:44:57Z</time></trkpt><trkpt lat="44.070202084795866" lon="12.335722388789478"><ele>166.0</ele><time>2026-05-02T14:45:00Z</time></trkpt><trkpt lat="44.07017703262923" lon="12.335890264643115"><ele>166.0</ele><time>2026-05-02T14:45:02Z</time></trkpt><trkpt lat="44.070157535521474" lon="12.3359947613691"><ele>166.0</ele><time>2026-05-02T14:45:03Z</time></trkpt><trkpt lat="44.07011008536913" lon="12.336102384729156"><ele>166.0</ele><time>2026-05-02T14:45:04Z</time></trkpt><trkpt lat="44.070090752271426" lon="12.336220879875443"><ele>166.0</ele><time>2026-05-02T14:45:05Z</time></trkpt><trkpt lat="44.070098869962145" lon="12.336328842025463"><ele>165.42857142857142</ele><time>2026-05-02T14:45:06Z</time></trkpt><trkpt lat="44.07008963778001" lon="12.336423924645098"><ele>164.85714285714286</ele><time>2026-05-02T14:45:07Z</time></trkpt><trkpt lat="44.070059135599436" lon="12.336512205963986"><ele>164.28571428571428</ele><time>2026-05-02T14:45:08Z</time></trkpt><trkpt lat="44.070018335911925" lon="12.336612481952383"><ele>163.71428571428572</ele><time>2026-05-02T14:45:09Z</time></trkpt><trkpt lat="44.069974795482366" lon="12.33671419833361"><ele>163.14285714285714</ele><time>2026-05-02T14:45:10Z</time></trkpt><trkpt lat="44.0699257783789" lon="12.336790605947648"><ele>162.57142857142858</ele><time>2026-05-02T14:45:11Z</time></trkpt><trkpt lat="44.069889213241694" lon="12.336870376919286"><ele>162.0</ele><time>2026-05-02T14:45:12Z</time></trkpt><trkpt lat="44.06985466239788" lon="12.336951499880103"><ele>160.28571428571428</ele><time>2026-05-02T14:45:13Z</time></trkpt><trkpt lat="44.069820326378604" lon="12.337042424209132"><ele>158.57142857142856</ele><time>2026-05-02T14:45:14Z</time></trkpt><trkpt lat="44.069796367755764" lon="12.33714118620483"><ele>156.85714285714283</ele><time>2026-05-02T14:45:15Z</time></trkpt><trkpt lat="44.06978021559801" lon="12.337247190568984"><ele>155.14285714285714</ele><time>2026-05-02T14:45:16Z</time></trkpt><trkpt lat="44.06976035699995" lon="12.33733723834378"><ele>153.42857142857142</ele><time>2026-05-02T14:45:17Z</time></trkpt><trkpt lat="44.06973201868559" lon="12.337432418188486"><ele>151.7142857142857</ele><time>2026-05-02T14:45:18Z</time></trkpt><trkpt lat="44.06968162146153" lon="12.337519500884618"><ele>150.0</ele><time>2026-05-02T14:45:19Z</time></trkpt><trkpt lat="44.06963052265995" lon="12.337594097141938"><ele>148.83333333333334</ele><time>2026-05-02T14:45:20Z</time></trkpt><trkpt lat="44.06957981560808" lon="12.337680870880549"><ele>147.66666666666666</ele><time>2026-05-02T14:45:21Z</time></trkpt><trkpt lat="44.06954694623605" lon="12.337779618958933"><ele>146.5</ele><time>2026-05-02T14:45:22Z</time></trkpt><trkpt lat="44.069507289436935" lon="12.337874762354517"><ele>145.33333333333331</ele><time>2026-05-02T14:45:23Z</time></trkpt><trkpt lat="44.06945498564723" lon="12.337959039763378"><ele>144.16666666666666</ele><time>2026-05-02T14:45:23.999Z</time></trkpt><trkpt lat="44.06942957537436" lon="12.338074242093784"><ele>143.0</ele><time>2026-05-02T14:45:24.999Z</time></trkpt><trkpt lat="44.06943511555897" lon="12.338218567674497"><ele>142.4</ele><time>2026-05-02T14:45:25.999Z</time></trkpt><trkpt lat="44.069416377099195" lon="12.338348719033474"><ele>141.8</ele><time>2026-05-02T14:45:26.999Z</time></trkpt><trkpt lat="44.06941026026504" lon="12.338440979584542"><ele>141.2</ele><time>2026-05-02T14:45:27.999Z</time></trkpt><trkpt lat="44.06935661208545" lon="12.338600322602634"><ele>140.6</ele><time>2026-05-02T14:45:29.999Z</time></trkpt><trkpt lat="44.069297833977885" lon="12.33868359513758"><ele>140.0</ele><time>2026-05-02T14:45:30.999Z</time></trkpt><trkpt lat="44.06923786441849" lon="12.338766116785253"><ele>140.0</ele><time>2026-05-02T14:45:31.999Z</time></trkpt><trkpt lat="44.069199397379556" lon="12.338862006232588"><ele>140.0</ele><time>2026-05-02T14:45:32.999Z</time></trkpt><trkpt lat="44.06914177783165" lon="12.338938485785775"><ele>140.0</ele><time>2026-05-02T14:45:34Z</time></trkpt><trkpt lat="44.069106564555035" lon="12.339045897350642"><ele>140.0</ele><time>2026-05-02T14:45:35Z</time></trkpt><trkpt lat="44.069081743814266" lon="12.339174225300535"><ele>140.0</ele><time>2026-05-02T14:45:36Z</time></trkpt><trkpt lat="44.06903121960897" lon="12.339272943368064"><ele>140.0</ele><time>2026-05-02T14:45:37Z</time></trkpt><trkpt lat="44.068989523177436" lon="12.339392742460475"><ele>136.4</ele><time>2026-05-02T14:45:38Z</time></trkpt><trkpt lat="44.06895792173138" lon="12.339533265194211"><ele>132.8</ele><time>2026-05-02T14:45:39Z</time></trkpt><trkpt lat="44.06892620606971" lon="12.339671568962041"><ele>129.2</ele><time>2026-05-02T14:45:40Z</time></trkpt><trkpt lat="44.06888643569175" lon="12.33980507736276"><ele>125.6</ele><time>2026-05-02T14:45:41Z</time></trkpt><trkpt lat="44.06885760881966" lon="12.339941260216172"><ele>122.0</ele><time>2026-05-02T14:45:42Z</time></trkpt><trkpt lat="44.068842712069056" lon="12.340084657656245"><ele>121.33333333333333</ele><time>2026-05-02T14:45:43Z</time></trkpt><trkpt lat="44.0688323066961" lon="12.3402190757005"><ele>120.66666666666666</ele><time>2026-05-02T14:45:44Z</time></trkpt><trkpt lat="44.06882324500152" lon="12.34034906048099"><ele>120.0</ele><time>2026-05-02T14:45:45Z</time></trkpt><trkpt lat="44.06881621136635" lon="12.340472462711368"><ele>119.33333333333334</ele><time>2026-05-02T14:45:46Z</time></trkpt><trkpt lat="44.068792645226814" lon="12.340581761383012"><ele>118.66666666666667</ele><time>2026-05-02T14:45:47Z</time></trkpt><trkpt lat="44.068756934181884" lon="12.340681403905046"><ele>118.0</ele><time>2026-05-02T14:45:48Z</time></trkpt><trkpt lat="44.06869023716211" lon="12.340748640571105"><ele>116.83333333333334</ele><time>2026-05-02T14:45:49Z</time></trkpt><trkpt lat="44.06861583842251" lon="12.340792303931702"><ele>115.66666666666667</ele><time>2026-05-02T14:45:50Z</time></trkpt><trkpt lat="44.068534897337024" lon="12.34083473908305"><ele>114.5</ele><time>2026-05-02T14:45:51Z</time></trkpt><trkpt lat="44.06845414290958" lon="12.340877150033043"><ele>113.33333333333334</ele><time>2026-05-02T14:45:52Z</time></trkpt><trkpt lat="44.06837119044201" lon="12.340896309205514"><ele>112.16666666666667</ele><time>2026-05-02T14:45:53Z</time></trkpt><trkpt lat="44.06828572947957" lon="12.340906778411862"><ele>111.0</ele><time>2026-05-02T14:45:54Z</time></trkpt><trkpt lat="44.06820959046935" lon="12.340926638234771"><ele>109.83333333333333</ele><time>2026-05-02T14:45:55Z</time></trkpt><trkpt lat="44.06810724529679" lon="12.340965243563327"><ele>108.66666666666666</ele><time>2026-05-02T14:45:57Z</time></trkpt><trkpt lat="44.06803561425085" lon="12.34100110022813"><ele>107.5</ele><time>2026-05-02T14:45:59Z</time></trkpt><trkpt lat="44.067954060603945" lon="12.341056855852708"><ele>106.33333333333333</ele><time>2026-05-02T14:46:02Z</time></trkpt><trkpt lat="44.06798596282798" lon="12.340972467284518"><ele>105.16666666666666</ele><time>2026-05-02T14:46:10Z</time></trkpt><trkpt lat="44.068055537630414" lon="12.340977324530964"><ele>104.0</ele><time>2026-05-02T14:46:13Z</time></trkpt><trkpt lat="44.06813281431495" lon="12.340967934092266"><ele>103.99999999999999</ele><time>2026-05-02T14:46:18Z</time></trkpt><trkpt lat="44.06821263623097" lon="12.340946440676701"><ele>104.0</ele><time>2026-05-02T14:46:21Z</time></trkpt><trkpt lat="44.068291129151476" lon="12.340930027251996"><ele>104.0</ele><time>2026-05-02T14:46:24Z</time></trkpt><trkpt lat="44.06836818662945" lon="12.340918148882325"><ele>104.0</ele><time>2026-05-02T14:46:28Z</time></trkpt><trkpt lat="44.06835064990113" lon="12.34100901408408"><ele>103.99999999999999</ele><time>2026-05-02T14:46:32Z</time></trkpt><trkpt lat="44.06824745201182" lon="12.341048379374628"><ele>104.0</ele><time>2026-05-02T14:46:34Z</time></trkpt><trkpt lat="44.06818460875853" lon="12.341066315210227"><ele>104.0</ele><time>2026-05-02T14:46:35Z</time></trkpt><trkpt lat="44.068122249921274" lon="12.341090369415252"><ele>104.0</ele><time>2026-05-02T14:46:36Z</time></trkpt><trkpt lat="44.068010137361625" lon="12.341160527762815"><ele>104.0</ele><time>2026-05-02T14:46:38Z</time></trkpt><trkpt lat="44.067928639002325" lon="12.341272909740276"><ele>104.0</ele><time>2026-05-02T14:46:40Z</time></trkpt><trkpt lat="44.06788894619621" lon="12.341444964537821"><ele>104.0</ele><time>2026-05-02T14:46:42Z</time></trkpt><trkpt lat="44.06785112286437" lon="12.34155439318908"><ele>102.0</ele><time>2026-05-02T14:46:43Z</time></trkpt><trkpt lat="44.0678164406005" lon="12.341669045293607"><ele>100.0</ele><time>2026-05-02T14:46:44Z</time></trkpt><trkpt lat="44.06775699471424" lon="12.341785675823704"><ele>98.0</ele><time>2026-05-02T14:46:45Z</time></trkpt><trkpt lat="44.067719248495685" lon="12.341937299458277"><ele>96.0</ele><time>2026-05-02T14:46:46Z</time></trkpt><trkpt lat="44.0676653663896" lon="12.342071260238546"><ele>94.0</ele><time>2026-05-02T14:46:47Z</time></trkpt><trkpt lat="44.06761412632119" lon="12.342195442562405"><ele>92.0</ele><time>2026-05-02T14:46:48Z</time></trkpt><trkpt lat="44.06756986795764" lon="12.342310246954597"><ele>90.0</ele><time>2026-05-02T14:46:49Z</time></trkpt><trkpt lat="44.067532570969426" lon="12.34241191868859"><ele>88.0</ele><time>2026-05-02T14:46:50Z</time></trkpt><trkpt lat="44.067519681341196" lon="12.342526446776153"><ele>86.0</ele><time>2026-05-02T14:46:51Z</time></trkpt><trkpt lat="44.06752747100989" lon="12.34265311430508"><ele>84.0</ele><time>2026-05-02T14:46:52Z</time></trkpt><trkpt lat="44.06753327387488" lon="12.342803925755096"><ele>84.0</ele><time>2026-05-02T14:46:53Z</time></trkpt><trkpt lat="44.06754599465405" lon="12.342927638436954"><ele>84.0</ele><time>2026-05-02T14:46:54Z</time></trkpt><trkpt lat="44.06755408068694" lon="12.343066275663793"><ele>84.0</ele><time>2026-05-02T14:46:55Z</time></trkpt><trkpt lat="44.067558923592" lon="12.343225694840452"><ele>84.0</ele><time>2026-05-02T14:46:56Z</time></trkpt><trkpt lat="44.06756405949799" lon="12.343381303956992"><ele>84.0</ele><time>2026-05-02T14:46:57Z</time></trkpt><trkpt lat="44.06756927584689" lon="12.343541965397318"><ele>82.60000000000001</ele><time>2026-05-02T14:46:58Z</time></trkpt><trkpt lat="44.067575959760845" lon="12.343695225144193"><ele>81.2</ele><time>2026-05-02T14:46:59Z</time></trkpt><trkpt lat="44.06756157202726" lon="12.343859673881123"><ele>79.80000000000001</ele><time>2026-05-02T14:47:00Z</time></trkpt><trkpt lat="44.067564184899034" lon="12.344000605147738"><ele>78.4</ele><time>2026-05-02T14:47:01Z</time></trkpt><trkpt lat="44.067567876956375" lon="12.344106771983673"><ele>77.0</ele><time>2026-05-02T14:47:02Z</time></trkpt><trkpt lat="44.06758946238136" lon="12.344194939166691"><ele>76.25</ele><time>2026-05-02T14:47:03Z</time></trkpt><trkpt lat="44.06756901490381" lon="12.344317470871255"><ele>75.5</ele><time>2026-05-02T14:47:06Z</time></trkpt><trkpt lat="44.06738894111196" lon="12.344341165852558"><ele>74.75</ele><time>2026-05-02T14:47:07Z</time></trkpt><trkpt lat="44.06729277008798" lon="12.344376148465134"><ele>74.0</ele><time>2026-05-02T14:47:09Z</time></trkpt><trkpt lat="44.06720655549249" lon="12.34442675251019"><ele>73.66666666666667</ele><time>2026-05-02T14:47:11Z</time></trkpt><trkpt lat="44.06711526604464" lon="12.344463031270584"><ele>73.33333333333334</ele><time>2026-05-02T14:47:13Z</time></trkpt><trkpt lat="44.06703586959097" lon="12.344515418700869"><ele>73.0</ele><time>2026-05-02T14:47:15Z</time></trkpt><trkpt lat="44.06695864036993" lon="12.344549008502138"><ele>72.66666666666667</ele><time>2026-05-02T14:47:17Z</time></trkpt><trkpt lat="44.06688424586652" lon="12.344584119365544"><ele>72.33333333333333</ele><time>2026-05-02T14:47:19Z</time></trkpt><trkpt lat="44.06680862899159" lon="12.344628253601629"><ele>72.0</ele><time>2026-05-02T14:47:20.999Z</time></trkpt><trkpt lat="44.06673020946842" lon="12.34468382463804"><ele>72.16666666666667</ele><time>2026-05-02T14:47:22.999Z</time></trkpt><trkpt lat="44.06665116473477" lon="12.344743199321803"><ele>72.33333333333333</ele><time>2026-05-02T14:47:24.999Z</time></trkpt><trkpt lat="44.06658091486443" lon="12.34481526097279"><ele>72.5</ele><time>2026-05-02T14:47:26.999Z</time></trkpt><trkpt lat="44.06652092701942" lon="12.344898882075334"><ele>72.66666666666666</ele><time>2026-05-02T14:47:28.999Z</time></trkpt><trkpt lat="44.06646310727943" lon="12.344985178202375"><ele>72.83333333333333</ele><time>2026-05-02T14:47:30.999Z</time></trkpt><trkpt lat="44.066405580581595" lon="12.345083992632398"><ele>73.0</ele><time>2026-05-02T14:47:32.999Z</time></trkpt><trkpt lat="44.06635147930753" lon="12.345202188543656"><ele>72.6</ele><time>2026-05-02T14:47:34.999Z</time></trkpt><trkpt lat="44.06630125749735" lon="12.345325972987144"><ele>72.19999999999999</ele><time>2026-05-02T14:47:36.999Z</time></trkpt><trkpt lat="44.06626187051857" lon="12.345449042502194"><ele>71.8</ele><time>2026-05-02T14:47:39Z</time></trkpt><trkpt lat="44.066226085969696" lon="12.345570711393135"><ele>71.39999999999999</ele><time>2026-05-02T14:47:41Z</time></trkpt><trkpt lat="44.06619690014777" lon="12.345692901677683"><ele>71.0</ele><time>2026-05-02T14:47:43Z</time></trkpt><trkpt lat="44.06617901129307" lon="12.345801650317469"><ele>71.0</ele><time>2026-05-02T14:47:45Z</time></trkpt><trkpt lat="44.06616297757457" lon="12.345912064223414"><ele>71.0</ele><time>2026-05-02T14:47:47Z</time></trkpt><trkpt lat="44.06614337687448" lon="12.346025667498273"><ele>71.0</ele><time>2026-05-02T14:47:49Z</time></trkpt><trkpt lat="44.06612193972957" lon="12.346162904433625"><ele>71.0</ele><time>2026-05-02T14:47:51Z</time></trkpt><trkpt lat="44.066099362009176" lon="12.34628802532984"><ele>71.0</ele><time>2026-05-02T14:47:53Z</time></trkpt><trkpt lat="44.066076193943736" lon="12.346419988921994"><ele>71.0</ele><time>2026-05-02T14:47:55Z</time></trkpt><trkpt lat="44.06605939190525" lon="12.346537671590742"><ele>71.0</ele><time>2026-05-02T14:47:57Z</time></trkpt><trkpt lat="44.06603865222971" lon="12.34667444110459"><ele>71.0</ele><time>2026-05-02T14:47:59Z</time></trkpt><trkpt lat="44.06602820182509" lon="12.3467894623505"><ele>71.0</ele><time>2026-05-02T14:48:01Z</time></trkpt><trkpt lat="44.06601951891415" lon="12.346893591080962"><ele>71.0</ele><time>2026-05-02T14:48:03Z</time></trkpt><trkpt lat="44.06600887878684" lon="12.347030718799225"><ele>71.0</ele><time>2026-05-02T14:48:06Z</time></trkpt><trkpt lat="44.0660078067698" lon="12.347121634679606"><ele>70.6</ele><time>2026-05-02T14:48:08Z</time></trkpt><trkpt lat="44.0659977059212" lon="12.34722067348488"><ele>70.19999999999999</ele><time>2026-05-02T14:48:10Z</time></trkpt><trkpt lat="44.06599302711036" lon="12.34735315391087"><ele>69.80000000000001</ele><time>2026-05-02T14:48:12Z</time></trkpt><trkpt lat="44.065995987529405" lon="12.347474599759241"><ele>69.4</ele><time>2026-05-02T14:48:14Z</time></trkpt><trkpt lat="44.06598918964022" lon="12.347599873775694"><ele>69.0</ele><time>2026-05-02T14:48:16Z</time></trkpt><trkpt lat="44.06595804415484" lon="12.347744446789042"><ele>69.0</ele><time>2026-05-02T14:48:18Z</time></trkpt><trkpt lat="44.065929672071164" lon="12.34788945505144"><ele>69.0</ele><time>2026-05-02T14:48:20Z</time></trkpt><trkpt lat="44.06589760355716" lon="12.348049081580042"><ele>69.0</ele><time>2026-05-02T14:48:22Z</time></trkpt><trkpt lat="44.065861588372485" lon="12.348212271436411"><ele>69.0</ele><time>2026-05-02T14:48:24Z</time></trkpt><trkpt lat="44.065841568830365" lon="12.348376293159324"><ele>68.8</ele><time>2026-05-02T14:48:26Z</time></trkpt><trkpt lat="44.06580934437535" lon="12.348534675540595"><ele>68.60000000000001</ele><time>2026-05-02T14:48:28Z</time></trkpt><trkpt lat="44.06579031917324" lon="12.348663476034243"><ele>68.4</ele><time>2026-05-02T14:48:30Z</time></trkpt><trkpt lat="44.06575908416206" lon="12.348805242858154"><ele>68.2</ele><time>2026-05-02T14:48:32Z</time></trkpt><trkpt lat="44.06572907103794" lon="12.348949551151563"><ele>68.0</ele><time>2026-05-02T14:48:34Z</time></trkpt><trkpt lat="44.06571264770566" lon="12.349069099665341"><ele>67.99999999999999</ele><time>2026-05-02T14:48:36Z</time></trkpt><trkpt lat="44.06569317146715" lon="12.349181612333034"><ele>68.0</ele><time>2026-05-02T14:48:38Z</time></trkpt><trkpt lat="44.06567299826666" lon="12.349282193303944"><ele>68.0</ele><time>2026-05-02T14:48:40Z</time></trkpt><trkpt lat="44.06565062993303" lon="12.349377947893077"><ele>68.0</ele><time>2026-05-02T14:48:42Z</time></trkpt><trkpt lat="44.06561675772782" lon="12.349466176293586"><ele>68.0</ele><time>2026-05-02T14:48:44Z</time></trkpt><trkpt lat="44.06560629388347" lon="12.349558464109363"><ele>67.99999999999999</ele><time>2026-05-02T14:48:46Z</time></trkpt><trkpt lat="44.06558106706424" lon="12.349659966177018"><ele>68.0</ele><time>2026-05-02T14:48:48Z</time></trkpt><trkpt lat="44.06557016264574" lon="12.349753384634274"><ele>67.42857142857142</ele><time>2026-05-02T14:48:50Z</time></trkpt><trkpt lat="44.065567769257484" lon="12.3498574441267"><ele>66.85714285714286</ele><time>2026-05-02T14:48:52Z</time></trkpt><trkpt lat="44.06556502289328" lon="12.349967667288986"><ele>66.28571428571428</ele><time>2026-05-02T14:48:54Z</time></trkpt><trkpt lat="44.065561520590364" lon="12.350057499252546"><ele>65.71428571428571</ele><time>2026-05-02T14:48:56Z</time></trkpt><trkpt lat="44.065568831350674" lon="12.350163659161561"><ele>65.14285714285714</ele><time>2026-05-02T14:48:58Z</time></trkpt><trkpt lat="44.06556328155867" lon="12.350263685918858"><ele>64.57142857142857</ele><time>2026-05-02T14:49:00Z</time></trkpt><trkpt lat="44.065561183425935" lon="12.350365515419059"><ele>64.0</ele><time>2026-05-02T14:49:02Z</time></trkpt><trkpt lat="44.065559058419105" lon="12.350498053474906"><ele>63.666666666666664</ele><time>2026-05-02T14:49:05Z</time></trkpt><trkpt lat="44.065551493462756" lon="12.350605924236783"><ele>63.33333333333333</ele><time>2026-05-02T14:49:07Z</time></trkpt><trkpt lat="44.06554176563997" lon="12.350701799564105"><ele>63.0</ele><time>2026-05-02T14:49:09Z</time></trkpt><trkpt lat="44.065529159462535" lon="12.350829508428939"><ele>62.66666666666667</ele><time>2026-05-02T14:49:12Z</time></trkpt><trkpt lat="44.065531707447406" lon="12.35094936930975"><ele>62.333333333333336</ele><time>2026-05-02T14:49:14Z</time></trkpt><trkpt lat="44.06553341005955" lon="12.351039491673"><ele>62.0</ele><time>2026-05-02T14:49:16Z</time></trkpt><trkpt lat="44.06554531371405" lon="12.351132972333644"><ele>62.00000000000001</ele><time>2026-05-02T14:49:18Z</time></trkpt><trkpt lat="44.06555081080585" lon="12.351236858681512"><ele>62.0</ele><time>2026-05-02T14:49:20Z</time></trkpt><trkpt lat="44.06556040853652" lon="12.35135580580852"><ele>62.0</ele><time>2026-05-02T14:49:23Z</time></trkpt><trkpt lat="44.065573260731426" lon="12.35144268365414"><ele>62.0</ele><time>2026-05-02T14:49:25Z</time></trkpt><trkpt lat="44.06558950131492" lon="12.351548124585115"><ele>62.00000000000001</ele><time>2026-05-02T14:49:27Z</time></trkpt><trkpt lat="44.06560883498591" lon="12.35164995049283"><ele>62.0</ele><time>2026-05-02T14:49:28.999Z</time></trkpt><trkpt lat="44.065629667884714" lon="12.351760793273245"><ele>62.16666666666667</ele><time>2026-05-02T14:49:30.999Z</time></trkpt><trkpt lat="44.065659312943566" lon="12.351856729212775"><ele>62.333333333333336</ele><time>2026-05-02T14:49:32.999Z</time></trkpt><trkpt lat="44.065682344023124" lon="12.35194125308191"><ele>62.5</ele><time>2026-05-02T14:49:34.999Z</time></trkpt><trkpt lat="44.06571891079315" lon="12.352052465760313"><ele>62.66666666666667</ele><time>2026-05-02T14:49:37.999Z</time></trkpt><trkpt lat="44.065742196930174" lon="12.352150288494014"><ele>62.833333333333336</ele><time>2026-05-02T14:49:40.999Z</time></trkpt><trkpt lat="44.06578506449232" lon="12.352268470296044"><ele>63.0</ele><time>2026-05-02T14:49:43.999Z</time></trkpt><trkpt lat="44.06581793555389" lon="12.352373309925525"><ele>62.57142857142857</ele><time>2026-05-02T14:49:47Z</time></trkpt><trkpt lat="44.06584003326306" lon="12.352458434446584"><ele>62.14285714285714</ele><time>2026-05-02T14:49:50Z</time></trkpt><trkpt lat="44.06585491939406" lon="12.352563265654263"><ele>61.714285714285715</ele><time>2026-05-02T14:49:53Z</time></trkpt><trkpt lat="44.065866595834756" lon="12.352662465574133"><ele>61.285714285714285</ele><time>2026-05-02T14:49:56Z</time></trkpt><trkpt lat="44.06587999021062" lon="12.352764761322804"><ele>60.857142857142854</ele><time>2026-05-02T14:49:59Z</time></trkpt><trkpt lat="44.06588454041387" lon="12.352873829694811"><ele>60.42857142857143</ele><time>2026-05-02T14:50:03Z</time></trkpt><trkpt lat="44.065886301452856" lon="12.3529832877962"><ele>60.0</ele><time>2026-05-02T14:50:06Z</time></trkpt><trkpt lat="44.06589778381441" lon="12.35310870144669"><ele>59.666666666666664</ele><time>2026-05-02T14:50:09Z</time></trkpt><trkpt lat="44.065900419316975" lon="12.353223846841184"><ele>59.33333333333333</ele><time>2026-05-02T14:50:12Z</time></trkpt><trkpt lat="44.06589531749679" lon="12.35333919695637"><ele>59.0</ele><time>2026-05-02T14:50:15Z</time></trkpt><trkpt lat="44.06589133976499" lon="12.353438070792125"><ele>58.666666666666664</ele><time>2026-05-02T14:50:17Z</time></trkpt><trkpt lat="44.06589284875945" lon="12.353555758015467"><ele>58.33333333333333</ele><time>2026-05-02T14:50:20Z</time></trkpt><trkpt lat="44.065878716233186" lon="12.353645071047234"><ele>58.0</ele><time>2026-05-02T14:50:23Z</time></trkpt><trkpt lat="44.065782691391206" lon="12.353652232993083"><ele>58.28571428571429</ele><time>2026-05-02T14:50:26Z</time></trkpt><trkpt lat="44.06570177276355" lon="12.353648100579854"><ele>58.57142857142857</ele><time>2026-05-02T14:50:29Z</time></trkpt><trkpt lat="44.06561620137042" lon="12.353653783759826"><ele>58.85714285714286</ele><time>2026-05-02T14:50:33Z</time></trkpt><trkpt lat="44.065544264894605" lon="12.353666208950822"><ele>59.142857142857146</ele><time>2026-05-02T14:50:36Z</time></trkpt><trkpt lat="44.065473431172364" lon="12.353684220572365"><ele>59.42857142857143</ele><time>2026-05-02T14:50:39Z</time></trkpt><trkpt lat="44.06541341741141" lon="12.353712875277319"><ele>59.714285714285715</ele><time>2026-05-02T14:50:42Z</time></trkpt><trkpt lat="44.06535333888887" lon="12.353765700974208"><ele>60.0</ele><time>2026-05-02T14:50:46Z</time></trkpt><trkpt lat="44.065305463126975" lon="12.353836572806667"><ele>60.142857142857146</ele><time>2026-05-02T14:50:50Z</time></trkpt><trkpt lat="44.065267431785394" lon="12.353917609705249"><ele>60.28571428571428</ele><time>2026-05-02T14:50:54Z</time></trkpt><trkpt lat="44.065227957465765" lon="12.353998695853328"><ele>60.42857142857142</ele><time>2026-05-02T14:50:58Z</time></trkpt><trkpt lat="44.06520110548132" lon="12.35409150540262"><ele>60.57142857142857</ele><time>2026-05-02T14:51:02Z</time></trkpt><trkpt lat="44.06520525928766" lon="12.354179147877717"><ele>60.71428571428571</ele><time>2026-05-02T14:51:06Z</time></trkpt><trkpt lat="44.06518487715165" lon="12.35426830900014"><ele>60.85714285714285</ele><time>2026-05-02T14:51:11Z</time></trkpt><trkpt lat="44.065159655364056" lon="12.354356595767475"><ele>60.99999999999999</ele><time>2026-05-02T14:51:17Z</time></trkpt><trkpt lat="44.06514389119798" lon="12.354453530303537"><ele>60.99999999999999</ele><time>2026-05-02T14:51:23Z</time></trkpt><trkpt lat="44.06511712892433" lon="12.35455042060481"><ele>61.0</ele><time>2026-05-02T14:51:28Z</time></trkpt><trkpt lat="44.06509503916962" lon="12.354638371266276"><ele>60.99999999999999</ele><time>2026-05-02T14:51:32.999Z</time></trkpt><trkpt lat="44.06506759508085" lon="12.354732977521278"><ele>60.99999999999999</ele><time>2026-05-02T14:51:37.999Z</time></trkpt><trkpt lat="44.0650463978063" lon="12.354816929336918"><ele>61.0</ele><time>2026-05-02T14:51:41.999Z</time></trkpt><trkpt lat="44.06502749186197" lon="12.354913418653704"><ele>60.99999999999999</ele><time>2026-05-02T14:51:46.999Z</time></trkpt><trkpt lat="44.065000221282745" lon="12.355022442303797"><ele>60.99999999999999</ele><time>2026-05-02T14:51:52Z</time></trkpt><trkpt lat="44.06498214034328" lon="12.355119694677072"><ele>60.83333333333333</ele><time>2026-05-02T14:51:56Z</time></trkpt><trkpt lat="44.06496135638302" lon="12.355205571995342"><ele>60.666666666666664</ele><time>2026-05-02T14:52:00Z</time></trkpt><trkpt lat="44.06493801501065" lon="12.35530357489016"><ele>60.5</ele><time>2026-05-02T14:52:05Z</time></trkpt><trkpt lat="44.06491891329718" lon="12.35539286060102"><ele>60.33333333333333</ele><time>2026-05-02T14:52:09Z</time></trkpt><trkpt lat="44.06489231293163" lon="12.355500708048908"><ele>60.166666666666664</ele><time>2026-05-02T14:52:13Z</time></trkpt><trkpt lat="44.06486778452763" lon="12.355612682131778"><ele>60.0</ele><time>2026-05-02T14:52:17Z</time></trkpt><trkpt lat="44.064842160806144" lon="12.355714649145698"><ele>62.142857142857146</ele><time>2026-05-02T14:52:21Z</time></trkpt><trkpt lat="44.06481582516056" lon="12.355802438637458"><ele>64.28571428571428</ele><time>2026-05-02T14:52:26Z</time></trkpt><trkpt lat="44.06480270593024" lon="12.355889626706444"><ele>66.42857142857142</ele><time>2026-05-02T14:52:30Z</time></trkpt><trkpt lat="44.06477726257568" lon="12.355971134202568"><ele>68.57142857142857</ele><time>2026-05-02T14:52:34Z</time></trkpt><trkpt lat="44.06474836292076" lon="12.356051501504924"><ele>70.71428571428571</ele><time>2026-05-02T14:52:38Z</time></trkpt><trkpt lat="44.06469944368738" lon="12.356122002508224"><ele>72.85714285714285</ele><time>2026-05-02T14:52:45Z</time></trkpt><trkpt lat="44.064720221004464" lon="12.35621286262017"><ele>75.0</ele><time>2026-05-02T14:52:54Z</time></trkpt><trkpt lat="44.06470267114045" lon="12.356320687721567"><ele>74.8</ele><time>2026-05-02T14:52:58Z</time></trkpt><trkpt lat="44.06473282152813" lon="12.35645155520739"><ele>74.6</ele><time>2026-05-02T14:53:02Z</time></trkpt><trkpt lat="44.06477183610011" lon="12.356564908525467"><ele>74.4</ele><time>2026-05-02T14:53:04Z</time></trkpt><trkpt lat="44.06482077901192" lon="12.35669825959342"><ele>74.2</ele><time>2026-05-02T14:53:06Z</time></trkpt><trkpt lat="44.064872762789165" lon="12.356828747128137"><ele>74.0</ele><time>2026-05-02T14:53:08Z</time></trkpt><trkpt lat="44.06485221473282" lon="12.356921952516663"><ele>74.0</ele><time>2026-05-02T14:53:09Z</time></trkpt><trkpt lat="44.064899724314024" lon="12.3570662686903"><ele>74.0</ele><time>2026-05-02T14:53:11Z</time></trkpt><trkpt lat="44.06494492724946" lon="12.357210662264585"><ele>74.0</ele><time>2026-05-02T14:53:13Z</time></trkpt><trkpt lat="44.06499494830997" lon="12.35734950097445"><ele>74.0</ele><time>2026-05-02T14:53:15Z</time></trkpt><trkpt lat="44.06501340168526" lon="12.35751538688988"><ele>70.75</ele><time>2026-05-02T14:53:17Z</time></trkpt><trkpt lat="44.065043623708405" lon="12.357674860157088"><ele>67.5</ele><time>2026-05-02T14:53:19Z</time></trkpt><trkpt lat="44.06508030897735" lon="12.357835365614847"><ele>64.25</ele><time>2026-05-02T14:53:21Z</time></trkpt><trkpt lat="44.065125591492865" lon="12.357975246923052"><ele>61.0</ele><time>2026-05-02T14:53:23Z</time></trkpt><trkpt lat="44.06512503448876" lon="12.358132684474153"><ele>61.0</ele><time>2026-05-02T14:53:25Z</time></trkpt><trkpt lat="44.06514007421747" lon="12.358281645478934"><ele>60.99999999999999</ele><time>2026-05-02T14:53:27Z</time></trkpt><trkpt lat="44.06515423611895" lon="12.358417236856013"><ele>60.99999999999999</ele><time>2026-05-02T14:53:29Z</time></trkpt><trkpt lat="44.065170228792276" lon="12.358554271067684"><ele>61.0</ele><time>2026-05-02T14:53:31Z</time></trkpt><trkpt lat="44.065185764621184" lon="12.35870402298042"><ele>61.0</ele><time>2026-05-02T14:53:33Z</time></trkpt><trkpt lat="44.06519005051964" lon="12.358852107189204"><ele>60.0</ele><time>2026-05-02T14:53:35Z</time></trkpt><trkpt lat="44.065175977355594" lon="12.359001646594765"><ele>58.99999999999999</ele><time>2026-05-02T14:53:37Z</time></trkpt><trkpt lat="44.06513376544115" lon="12.359141452492583"><ele>57.99999999999999</ele><time>2026-05-02T14:53:39Z</time></trkpt><trkpt lat="44.06507835198938" lon="12.35927670361064"><ele>57.0</ele><time>2026-05-02T14:53:40.999Z</time></trkpt><trkpt lat="44.06501865875921" lon="12.359390902171265"><ele>56.0</ele><time>2026-05-02T14:53:42.999Z</time></trkpt><trkpt lat="44.06496545368465" lon="12.359464202157566"><ele>56.00000000000001</ele><time>2026-05-02T14:53:44.999Z</time></trkpt><trkpt lat="44.065051123569795" lon="12.359622713556584"><ele>56.0</ele><time>2026-05-02T14:53:45.999Z</time></trkpt><trkpt lat="44.06507775150543" lon="12.359714587075588"><ele>56.0</ele><time>2026-05-02T14:53:46.999Z</time></trkpt><trkpt lat="44.065117141290536" lon="12.359802334980367"><ele>56.0</ele><time>2026-05-02T14:53:47.999Z</time></trkpt><trkpt lat="44.06515861538294" lon="12.359894726062828"><ele>56.00000000000001</ele><time>2026-05-02T14:53:48.999Z</time></trkpt><trkpt lat="44.065201105891006" lon="12.35998974416915"><ele>56.0</ele><time>2026-05-02T14:53:49.999Z</time></trkpt><trkpt lat="44.06524181846746" lon="12.360081347617783"><ele>55.333333333333336</ele><time>2026-05-02T14:53:50.999Z</time></trkpt><trkpt lat="44.06528170449815" lon="12.360177491506157"><ele>54.66666666666667</ele><time>2026-05-02T14:53:51.999Z</time></trkpt><trkpt lat="44.065319495496944" lon="12.360275096076784"><ele>54.0</ele><time>2026-05-02T14:53:52.999Z</time></trkpt><trkpt lat="44.065368065616155" lon="12.36036652060801"><ele>53.33333333333333</ele><time>2026-05-02T14:53:53.999Z</time></trkpt><trkpt lat="44.06540283972775" lon="12.36047312399751"><ele>52.666666666666664</ele><time>2026-05-02T14:53:54.999Z</time></trkpt><trkpt lat="44.06544266518327" lon="12.360563836041479"><ele>52.0</ele><time>2026-05-02T14:53:55.999Z</time></trkpt><trkpt lat="44.06548725678933" lon="12.360652506142372"><ele>51.400000000000006</ele><time>2026-05-02T14:53:56.999Z</time></trkpt><trkpt lat="44.065571038501155" lon="12.360680511666304"><ele>50.800000000000004</ele><time>2026-05-02T14:53:58Z</time></trkpt><trkpt lat="44.06565676333402" lon="12.360655304120844"><ele>50.2</ele><time>2026-05-02T14:53:59Z</time></trkpt><trkpt lat="44.06572731784164" lon="12.360658919945237"><ele>49.6</ele><time>2026-05-02T14:54:00Z</time></trkpt><trkpt lat="44.065830095776874" lon="12.360752380088693"><ele>49.0</ele><time>2026-05-02T14:54:02Z</time></trkpt><trkpt lat="44.06589684667222" lon="12.360873249435206"><ele>48.99999999999999</ele><time>2026-05-02T14:54:04Z</time></trkpt><trkpt lat="44.06594816005805" lon="12.360966920549282"><ele>49.0</ele><time>2026-05-02T14:54:06Z</time></trkpt><trkpt lat="44.065987828323074" lon="12.361041133850163"><ele>49.0</ele><time>2026-05-02T14:54:09Z</time></trkpt><trkpt lat="44.06602874579927" lon="12.361121721637037"><ele>49.0</ele><time>2026-05-02T14:54:12Z</time></trkpt><trkpt lat="44.066074777350835" lon="12.361226212389628"><ele>48.99999999999999</ele><time>2026-05-02T14:54:16Z</time></trkpt><trkpt lat="44.06609977507443" lon="12.361339094285256"><ele>49.0</ele><time>2026-05-02T14:54:19Z</time></trkpt><trkpt lat="44.0661197553484" lon="12.361433265800049"><ele>48.666666666666664</ele><time>2026-05-02T14:54:21Z</time></trkpt><trkpt lat="44.06614110078912" lon="12.361535790066796"><ele>48.33333333333333</ele><time>2026-05-02T14:54:23Z</time></trkpt><trkpt lat="44.0661622858285" lon="12.361637543828184"><ele>48.0</ele><time>2026-05-02T14:54:25Z</time></trkpt><trkpt lat="44.06618482027796" lon="12.361726343488641"><ele>47.666666666666664</ele><time>2026-05-02T14:54:27Z</time></trkpt><trkpt lat="44.06621789096945" lon="12.361838323133489"><ele>47.33333333333333</ele><time>2026-05-02T14:54:30Z</time></trkpt><trkpt lat="44.066248529323595" lon="12.361935370219381"><ele>47.0</ele><time>2026-05-02T14:54:33Z</time></trkpt><trkpt lat="44.06627969716871" lon="12.362033251308299"><ele>47.0</ele><time>2026-05-02T14:54:37Z</time></trkpt><trkpt lat="44.06630844299603" lon="12.362120482965203"><ele>47.0</ele><time>2026-05-02T14:54:42Z</time></trkpt><trkpt lat="44.06633777646497" lon="12.362209497825814"><ele>47.0</ele><time>2026-05-02T14:54:48Z</time></trkpt><trkpt lat="44.066364283924884" lon="12.362289936840908"><ele>47.0</ele><time>2026-05-02T14:54:54Z</time></trkpt><trkpt lat="44.0663934986949" lon="12.362379281144293"><ele>47.0</ele><time>2026-05-02T14:55:01Z</time></trkpt><trkpt lat="44.06642002475571" lon="12.362460887692778"><ele>47.0</ele><time>2026-05-02T14:55:09Z</time></trkpt><trkpt lat="44.066519512986595" lon="12.36245400713688"><ele>47.0</ele><time>2026-05-02T14:55:21Z</time></trkpt><trkpt lat="44.06651024325891" lon="12.362547763562766"><ele>47.14285714285714</ele><time>2026-05-02T14:59:23Z</time></trkpt><trkpt lat="44.06651852988265" lon="12.362642824315342"><ele>47.285714285714285</ele><time>2026-05-02T14:59:40Z</time></trkpt><trkpt lat="44.06654611069566" lon="12.362724468280366"><ele>47.42857142857143</ele><time>2026-05-02T14:59:46Z</time></trkpt><trkpt lat="44.06654842987057" lon="12.36281564700715"><ele>47.57142857142857</ele><time>2026-05-02T14:59:50Z</time></trkpt><trkpt lat="44.06658016619901" lon="12.362904555742118"><ele>47.714285714285715</ele><time>2026-05-02T14:59:53Z</time></trkpt><trkpt lat="44.066612551384054" lon="12.362998995443707"><ele>47.857142857142854</ele><time>2026-05-02T14:59:57Z</time></trkpt><trkpt lat="44.06663691628143" lon="12.363096493254654"><ele>48.0</ele><time>2026-05-02T14:59:59.999Z</time></trkpt><trkpt lat="44.066674601243015" lon="12.363208268907455"><ele>49.0</ele><time>2026-05-02T15:00:02.999Z</time></trkpt><trkpt lat="44.06670619569014" lon="12.363314098161085"><ele>50.0</ele><time>2026-05-02T15:00:05.999Z</time></trkpt><trkpt lat="44.06674809105369" lon="12.363403524706229"><ele>51.0</ele><time>2026-05-02T15:00:08.999Z</time></trkpt><trkpt lat="44.06677251250962" lon="12.363512239660022"><ele>52.0</ele><time>2026-05-02T15:00:11.999Z</time></trkpt><trkpt lat="44.06680139440814" lon="12.363590526944012"><ele>53.0</ele><time>2026-05-02T15:00:13.999Z</time></trkpt><trkpt lat="44.0668322019907" lon="12.363690847771068"><ele>54.0</ele><time>2026-05-02T15:00:17Z</time></trkpt><trkpt lat="44.06686799165012" lon="12.363807909636693"><ele>54.0</ele><time>2026-05-02T15:00:20Z</time></trkpt><trkpt lat="44.066894564473884" lon="12.363891400729313"><ele>54.0</ele><time>2026-05-02T15:00:22Z</time></trkpt><trkpt lat="44.06692700056697" lon="12.364004405689595"><ele>54.0</ele><time>2026-05-02T15:00:25Z</time></trkpt><trkpt lat="44.06695755501566" lon="12.364119973610446"><ele>54.0</ele><time>2026-05-02T15:00:28Z</time></trkpt><trkpt lat="44.0669944726169" lon="12.364241892033348"><ele>54.0</ele><time>2026-05-02T15:00:31Z</time></trkpt><trkpt lat="44.06702874943014" lon="12.364347777585632"><ele>54.0</ele><time>2026-05-02T15:00:34Z</time></trkpt><trkpt lat="44.06705500306326" lon="12.36442950927313"><ele>54.0</ele><time>2026-05-02T15:02:56Z</time></trkpt><trkpt lat="44.067081659906606" lon="12.36453618264152"><ele>54.0</ele><time>2026-05-02T15:03:00Z</time></trkpt><trkpt lat="44.0671107784864" lon="12.364626886533054"><ele>54.0</ele><time>2026-05-02T15:03:02Z</time></trkpt><trkpt lat="44.06714697598826" lon="12.364737445965538"><ele>54.0</ele><time>2026-05-02T15:03:05Z</time></trkpt><trkpt lat="44.06717301547723" lon="12.364819839874261"><ele>54.0</ele><time>2026-05-02T15:03:07Z</time></trkpt><trkpt lat="44.06720815319224" lon="12.364899032728031"><ele>54.0</ele><time>2026-05-02T15:03:09Z</time></trkpt><trkpt lat="44.067236369313754" lon="12.364990044733297"><ele>54.0</ele><time>2026-05-02T15:03:11Z</time></trkpt><trkpt lat="44.06727275599171" lon="12.36508118831297"><ele>53.666666666666664</ele><time>2026-05-02T15:03:13Z</time></trkpt><trkpt lat="44.0673024176265" lon="12.365168629564323"><ele>53.33333333333333</ele><time>2026-05-02T15:03:15Z</time></trkpt><trkpt lat="44.06732624112119" lon="12.365254343667319"><ele>53.0</ele><time>2026-05-02T15:03:17Z</time></trkpt><trkpt lat="44.067357213617576" lon="12.365346021381276"><ele>52.666666666666664</ele><time>2026-05-02T15:03:19Z</time></trkpt><trkpt lat="44.06738959451066" lon="12.365476049290729"><ele>52.33333333333333</ele><time>2026-05-02T15:03:22Z</time></trkpt><trkpt lat="44.06741290557241" lon="12.365565065742553"><ele>52.0</ele><time>2026-05-02T15:03:24Z</time></trkpt><trkpt lat="44.06744758404101" lon="12.365684474359071"><ele>52.0</ele><time>2026-05-02T15:03:27Z</time></trkpt><trkpt lat="44.067471248906294" lon="12.365767846831773"><ele>52.0</ele><time>2026-05-02T15:03:29Z</time></trkpt><trkpt lat="44.06749353656804" lon="12.365861896925306"><ele>52.0</ele><time>2026-05-02T15:03:31Z</time></trkpt><trkpt lat="44.06752872601336" lon="12.36595432605964"><ele>52.0</ele><time>2026-05-02T15:03:33Z</time></trkpt><trkpt lat="44.067549105191866" lon="12.366051903376995"><ele>52.0</ele><time>2026-05-02T15:03:35Z</time></trkpt><trkpt lat="44.067576438358074" lon="12.366134082143168"><ele>52.0</ele><time>2026-05-02T15:03:37Z</time></trkpt><trkpt lat="44.06759739089849" lon="12.366224881386877"><ele>52.0</ele><time>2026-05-02T15:03:39Z</time></trkpt><trkpt lat="44.067624504951674" lon="12.366316905333376"><ele>52.14285714285714</ele><time>2026-05-02T15:03:41Z</time></trkpt><trkpt lat="44.06764748939584" lon="12.366409860495231"><ele>52.28571428571429</ele><time>2026-05-02T15:03:43Z</time></trkpt><trkpt lat="44.06767366160421" lon="12.366508957029327"><ele>52.42857142857143</ele><time>2026-05-02T15:03:45Z</time></trkpt><trkpt lat="44.06769390109061" lon="12.366614995147065"><ele>52.57142857142857</ele><time>2026-05-02T15:03:47Z</time></trkpt><trkpt lat="44.06770894202427" lon="12.366719634277784"><ele>52.71428571428571</ele><time>2026-05-02T15:03:49Z</time></trkpt><trkpt lat="44.06770742907621" lon="12.366819123416077"><ele>52.85714285714286</ele><time>2026-05-02T15:03:51Z</time></trkpt><trkpt lat="44.06770380551565" lon="12.366915086664882"><ele>53.0</ele><time>2026-05-02T15:03:53Z</time></trkpt><trkpt lat="44.067708676208746" lon="12.367013058043618"><ele>53.00000000000001</ele><time>2026-05-02T15:03:55Z</time></trkpt><trkpt lat="44.06770725556499" lon="12.367116975300151"><ele>53.0</ele><time>2026-05-02T15:03:57Z</time></trkpt><trkpt lat="44.06770272252356" lon="12.36721720941549"><ele>53.0</ele><time>2026-05-02T15:03:59Z</time></trkpt><trkpt lat="44.06769360916567" lon="12.367307253310797"><ele>53.0</ele><time>2026-05-02T15:04:01Z</time></trkpt><trkpt lat="44.067684084504236" lon="12.367428436877415"><ele>53.00000000000001</ele><time>2026-05-02T15:04:03.999Z</time></trkpt><trkpt lat="44.06767581503539" lon="12.367558500998012"><ele>53.0</ele><time>2026-05-02T15:04:06.999Z</time></trkpt><trkpt lat="44.06765658463432" lon="12.36764707981026"><ele>53.0</ele><time>2026-05-02T15:04:08.999Z</time></trkpt><trkpt lat="44.067636441633084" lon="12.367734072545499"><ele>53.0</ele><time>2026-05-02T15:04:10.999Z</time></trkpt><trkpt lat="44.06762130476883" lon="12.367825305532905"><ele>53.0</ele><time>2026-05-02T15:04:12.999Z</time></trkpt><trkpt lat="44.067606344539506" lon="12.367913324886029"><ele>53.0</ele><time>2026-05-02T15:04:14.999Z</time></trkpt><trkpt lat="44.06759239708857" lon="12.368001682419358"><ele>53.0</ele><time>2026-05-02T15:04:16.999Z</time></trkpt><trkpt lat="44.06757809469965" lon="12.368089928127542"><ele>53.0</ele><time>2026-05-02T15:04:18.999Z</time></trkpt><trkpt lat="44.067550767496456" lon="12.368175545756731"><ele>53.0</ele><time>2026-05-02T15:04:20.999Z</time></trkpt><trkpt lat="44.06753275112747" lon="12.368262669592475"><ele>53.142857142857146</ele><time>2026-05-02T15:04:22.999Z</time></trkpt><trkpt lat="44.06750134423669" lon="12.368348098276899"><ele>53.285714285714285</ele><time>2026-05-02T15:04:24.999Z</time></trkpt><trkpt lat="44.067471886536694" lon="12.368425845263113"><ele>53.42857142857143</ele><time>2026-05-02T15:04:27Z</time></trkpt><trkpt lat="44.06743070782374" lon="12.36850353606356"><ele>53.57142857142857</ele><time>2026-05-02T15:04:29Z</time></trkpt><trkpt lat="44.06740009773165" lon="12.36858641332087"><ele>53.71428571428571</ele><time>2026-05-02T15:04:31Z</time></trkpt><trkpt lat="44.06736235167113" lon="12.368665162901102"><ele>53.857142857142854</ele><time>2026-05-02T15:04:33Z</time></trkpt><trkpt lat="44.067324325611935" lon="12.368741237503311"><ele>54.0</ele><time>2026-05-02T15:04:35Z</time></trkpt><trkpt lat="44.06728979832773" lon="12.368821432081187"><ele>54.0</ele><time>2026-05-02T15:04:37Z</time></trkpt><trkpt lat="44.067243114725315" lon="12.368893287345943"><ele>54.0</ele><time>2026-05-02T15:04:39Z</time></trkpt><trkpt lat="44.06720702111359" lon="12.36897968652391"><ele>54.0</ele><time>2026-05-02T15:04:41Z</time></trkpt><trkpt lat="44.0671710886141" lon="12.36906570013008"><ele>54.0</ele><time>2026-05-02T15:04:43Z</time></trkpt><trkpt lat="44.06713450090527" lon="12.36915328204137"><ele>54.0</ele><time>2026-05-02T15:04:45Z</time></trkpt><trkpt lat="44.067095819416814" lon="12.36924587600957"><ele>54.0</ele><time>2026-05-02T15:04:47Z</time></trkpt><trkpt lat="44.06705743008874" lon="12.369334837236368"><ele>54.0</ele><time>2026-05-02T15:04:49Z</time></trkpt><trkpt lat="44.0670141522718" lon="12.369431052488846"><ele>54.0</ele><time>2026-05-02T15:04:51Z</time></trkpt><trkpt lat="44.06697026737491" lon="12.369526322906822"><ele>54.0</ele><time>2026-05-02T15:04:53Z</time></trkpt><trkpt lat="44.0669260395754" lon="12.369617051714615"><ele>54.0</ele><time>2026-05-02T15:04:55Z</time></trkpt><trkpt lat="44.066876350131295" lon="12.36971432380797"><ele>54.0</ele><time>2026-05-02T15:04:57Z</time></trkpt><trkpt lat="44.066824335440145" lon="12.369808603455574"><ele>54.0</ele><time>2026-05-02T15:04:59Z</time></trkpt><trkpt lat="44.066773455150354" lon="12.369900826730156"><ele>54.0</ele><time>2026-05-02T15:05:01Z</time></trkpt><trkpt lat="44.06672624060704" lon="12.369983394688214"><ele>54.166666666666664</ele><time>2026-05-02T15:05:03Z</time></trkpt><trkpt lat="44.066677372054805" lon="12.370068222117427"><ele>54.33333333333333</ele><time>2026-05-02T15:05:05Z</time></trkpt><trkpt lat="44.06663189853069" lon="12.370156654144079"><ele>54.5</ele><time>2026-05-02T15:05:07Z</time></trkpt><trkpt lat="44.066588536524726" lon="12.370253067041586"><ele>54.666666666666664</ele><time>2026-05-02T15:05:09Z</time></trkpt><trkpt lat="44.066555336929454" lon="12.370340252396451"><ele>54.83333333333333</ele><time>2026-05-02T15:05:11Z</time></trkpt><trkpt lat="44.06653862174916" lon="12.370426191803734"><ele>55.0</ele><time>2026-05-02T15:05:13Z</time></trkpt><trkpt lat="44.066482444172806" lon="12.370505418458535"><ele>55.6</ele><time>2026-05-02T15:05:16Z</time></trkpt><trkpt lat="44.06637445253529" lon="12.370468058339853"><ele>56.2</ele><time>2026-05-02T15:05:20Z</time></trkpt><trkpt lat="44.06629808662924" lon="12.370440004718613"><ele>56.8</ele><time>2026-05-02T15:05:23Z</time></trkpt><trkpt lat="44.066215991365276" lon="12.370399876777459"><ele>57.4</ele><time>2026-05-02T15:05:26Z</time></trkpt><trkpt lat="44.06615767194409" lon="12.370365158168417"><ele>58.0</ele><time>2026-05-02T15:05:29Z</time></trkpt><trkpt lat="44.06607562881825" lon="12.370600976314694"><ele>58.71428571428572</ele><time>2026-05-02T15:05:31Z</time></trkpt><trkpt lat="44.06605679212499" lon="12.370704210206092"><ele>59.42857142857143</ele><time>2026-05-02T15:05:34Z</time></trkpt><trkpt lat="44.066057740836776" lon="12.370796871318012"><ele>60.142857142857146</ele><time>2026-05-02T15:05:37Z</time></trkpt><trkpt lat="44.066060258411376" lon="12.37090627053159"><ele>60.85714285714286</ele><time>2026-05-02T15:05:41Z</time></trkpt><trkpt lat="44.06607930099254" lon="12.371009922304195"><ele>61.57142857142857</ele><time>2026-05-02T15:05:45Z</time></trkpt><trkpt lat="44.06606590463076" lon="12.371111237964788"><ele>62.285714285714285</ele><time>2026-05-02T15:05:49Z</time></trkpt><trkpt lat="44.06606859816607" lon="12.37120901778237"><ele>63.0</ele><time>2026-05-02T15:05:53Z</time></trkpt><trkpt lat="44.06607121086229" lon="12.371298574717354"><ele>63.714285714285715</ele><time>2026-05-02T15:05:56.999Z</time></trkpt><trkpt lat="44.06607452147852" lon="12.371388697095602"><ele>64.42857142857143</ele><time>2026-05-02T15:06:00.999Z</time></trkpt><trkpt lat="44.066077837286336" lon="12.371478960757953"><ele>65.14285714285714</ele><time>2026-05-02T15:06:04.999Z</time></trkpt><trkpt lat="44.066090814709" lon="12.371574911438062"><ele>65.85714285714286</ele><time>2026-05-02T15:06:09.999Z</time></trkpt><trkpt lat="44.06608471903762" lon="12.371665253644343"><ele>66.57142857142857</ele><time>2026-05-02T15:06:13.999Z</time></trkpt><trkpt lat="44.06610382396975" lon="12.371758732100453"><ele>67.28571428571428</ele><time>2026-05-02T15:06:17.999Z</time></trkpt><trkpt lat="44.06609342678178" lon="12.371864888186032"><ele>68.0</ele><time>2026-05-02T15:06:22.999Z</time></trkpt><trkpt lat="44.066116231296554" lon="12.371952001642931"><ele>68.0</ele><time>2026-05-02T15:06:26.999Z</time></trkpt><trkpt lat="44.066130744403864" lon="12.372074036655947"><ele>68.0</ele><time>2026-05-02T15:06:30.999Z</time></trkpt><trkpt lat="44.06613397623185" lon="12.372168127060371"><ele>68.0</ele><time>2026-05-02T15:06:34Z</time></trkpt><trkpt lat="44.06612716836512" lon="12.372280316180287"><ele>68.0</ele><time>2026-05-02T15:06:38Z</time></trkpt><trkpt lat="44.06613116494197" lon="12.372390460779"><ele>68.0</ele><time>2026-05-02T15:06:41Z</time></trkpt><trkpt lat="44.066135473228215" lon="12.37248955523511"><ele>68.0</ele><time>2026-05-02T15:06:43Z</time></trkpt><trkpt lat="44.06614845135161" lon="12.372621704658378"><ele>67.5</ele><time>2026-05-02T15:06:45Z</time></trkpt><trkpt lat="44.066166570456396" lon="12.372774548421473"><ele>67.0</ele><time>2026-05-02T15:06:47Z</time></trkpt><trkpt lat="44.06615254515544" lon="12.37295267839872"><ele>66.5</ele><time>2026-05-02T15:06:49Z</time></trkpt><trkpt lat="44.06616263853555" lon="12.373042011386104"><ele>66.0</ele><time>2026-05-02T15:06:50Z</time></trkpt><trkpt lat="44.06617371857515" lon="12.373138868043013"><ele>65.5</ele><time>2026-05-02T15:06:51Z</time></trkpt><trkpt lat="44.066185649661506" lon="12.373233748782999"><ele>65.0</ele><time>2026-05-02T15:06:52Z</time></trkpt><trkpt lat="44.06619884368914" lon="12.373334823066351"><ele>64.28571428571429</ele><time>2026-05-02T15:06:53Z</time></trkpt><trkpt lat="44.06621363911797" lon="12.37343481737069"><ele>63.57142857142857</ele><time>2026-05-02T15:06:54Z</time></trkpt><trkpt lat="44.06623075441733" lon="12.37353907273056"><ele>62.85714285714286</ele><time>2026-05-02T15:06:55Z</time></trkpt><trkpt lat="44.066246999219764" lon="12.373638025668209"><ele>62.142857142857146</ele><time>2026-05-02T15:06:56Z</time></trkpt><trkpt lat="44.06626390406106" lon="12.37373746727742"><ele>61.42857142857143</ele><time>2026-05-02T15:06:57Z</time></trkpt><trkpt lat="44.06628069237734" lon="12.37383398040968"><ele>60.714285714285715</ele><time>2026-05-02T15:06:58Z</time></trkpt><trkpt lat="44.06628851231814" lon="12.373923859796536"><ele>60.0</ele><time>2026-05-02T15:06:59Z</time></trkpt><trkpt lat="44.066297758408986" lon="12.374011692115738"><ele>59.4</ele><time>2026-05-02T15:07:00Z</time></trkpt><trkpt lat="44.06636187721845" lon="12.3741009948043"><ele>58.8</ele><time>2026-05-02T15:07:01Z</time></trkpt><trkpt lat="44.06642046271179" lon="12.374252891229354"><ele>58.2</ele><time>2026-05-02T15:07:03Z</time></trkpt><trkpt lat="44.06647655437958" lon="12.374403470088973"><ele>57.6</ele><time>2026-05-02T15:07:05Z</time></trkpt><trkpt lat="44.06652583743215" lon="12.374541167105669"><ele>57.0</ele><time>2026-05-02T15:07:07Z</time></trkpt><trkpt lat="44.06657510598485" lon="12.37467882379914"><ele>55.8</ele><time>2026-05-02T15:07:09Z</time></trkpt><trkpt lat="44.0666198714697" lon="12.374809646506362"><ele>54.6</ele><time>2026-05-02T15:07:11Z</time></trkpt><trkpt lat="44.06667095468576" lon="12.374931749782087"><ele>53.4</ele><time>2026-05-02T15:07:13Z</time></trkpt><trkpt lat="44.066706076885524" lon="12.375065049912777"><ele>52.199999999999996</ele><time>2026-05-02T15:07:15Z</time></trkpt><trkpt lat="44.06676334397668" lon="12.375155271377029"><ele>51.0</ele><time>2026-05-02T15:07:17Z</time></trkpt><trkpt lat="44.06681695137774" lon="12.375236854127506"><ele>51.0</ele><time>2026-05-02T15:07:19Z</time></trkpt><trkpt lat="44.06686988374235" lon="12.375307315785147"><ele>51.0</ele><time>2026-05-02T15:07:21Z</time></trkpt><trkpt lat="44.0669311819664" lon="12.375385130986032"><ele>51.0</ele><time>2026-05-02T15:07:23Z</time></trkpt><trkpt lat="44.06698968438821" lon="12.3754535424401"><ele>51.0</ele><time>2026-05-02T15:07:25Z</time></trkpt><trkpt lat="44.067051081816636" lon="12.375523855836661"><ele>51.0</ele><time>2026-05-02T15:07:27Z</time></trkpt><trkpt lat="44.067115138894806" lon="12.375595161507079"><ele>51.0</ele><time>2026-05-02T15:07:29Z</time></trkpt><trkpt lat="44.067158420954314" lon="12.375686217165617"><ele>51.333333333333336</ele><time>2026-05-02T15:07:31Z</time></trkpt><trkpt lat="44.06719491429899" lon="12.375759821348188"><ele>51.66666666666667</ele><time>2026-05-02T15:07:33Z</time></trkpt><trkpt lat="44.06716979150373" lon="12.375840553307848"><ele>52.0</ele><time>2026-05-02T15:07:35Z</time></trkpt><trkpt lat="44.06712441503203" lon="12.375925670324031"><ele>52.333333333333336</ele><time>2026-05-02T15:07:38Z</time></trkpt><trkpt lat="44.06709077999258" lon="12.37602217488294"><ele>52.66666666666667</ele><time>2026-05-02T15:07:42Z</time></trkpt><trkpt lat="44.06715038852556" lon="12.375892031541282"><ele>53.0</ele><time>2026-05-02T15:07:55Z</time></trkpt><trkpt lat="44.06717332276694" lon="12.375796981268685"><ele>53.00000000000001</ele><time>2026-05-02T15:07:58Z</time></trkpt><trkpt lat="44.06718827990004" lon="12.37570928822437"><ele>53.0</ele><time>2026-05-02T15:08:01Z</time></trkpt><trkpt lat="44.06717713948371" lon="12.375617075888979"><ele>53.0</ele><time>2026-05-02T15:08:11.999Z</time></trkpt><trkpt lat="44.067213250705606" lon="12.375528347079259"><ele>53.0</ele><time>2026-05-02T15:08:22.999Z</time></trkpt><trkpt lat="44.067287695769885" lon="12.375521929591237"><ele>53.00000000000001</ele><time>2026-05-02T15:08:24.999Z</time></trkpt><trkpt lat="44.06737406010628" lon="12.375512592654283"><ele>53.0</ele><time>2026-05-02T15:08:26.999Z</time></trkpt><trkpt lat="44.06755580295446" lon="12.375921122560536"><ele>51.0</ele><time>2026-05-02T15:08:28.999Z</time></trkpt><trkpt lat="44.0680455692361" lon="12.375537596725378"><ele>51.0</ele><time>2026-05-02T15:08:29.999Z</time></trkpt><trkpt lat="44.068115458888094" lon="12.375564187094742"><ele>51.0</ele><time>2026-05-02T15:08:32.999Z</time></trkpt><trkpt lat="44.06818216928412" lon="12.375587539610056"><ele>51.0</ele><time>2026-05-02T15:08:40Z</time></trkpt><trkpt lat="44.068168182404726" lon="12.37568568963209"><ele>51.0</ele><time>2026-05-02T15:08:46Z</time></trkpt><trkpt lat="44.068149536831385" lon="12.37577659901883"><ele>51.0</ele><time>2026-05-02T15:08:51Z</time></trkpt><trkpt lat="44.068117481972585" lon="12.375860246558647"><ele>51.0</ele><time>2026-05-02T15:08:57Z</time></trkpt><trkpt lat="44.06808618608423" lon="12.375950518046533"><ele>51.0</ele><time>2026-05-02T15:09:02Z</time></trkpt><trkpt lat="44.068065297452534" lon="12.376043532772883"><ele>51.0</ele><time>2026-05-02T15:09:07Z</time></trkpt><trkpt lat="44.068049554173" lon="12.376144671896835"><ele>51.0</ele><time>2026-05-02T15:09:12Z</time></trkpt><trkpt lat="44.06804436803445" lon="12.376245966163692"><ele>51.0</ele><time>2026-05-02T15:09:17Z</time></trkpt><trkpt lat="44.06807318886806" lon="12.376335283099428"><ele>51.0</ele><time>2026-05-02T15:09:22Z</time></trkpt><trkpt lat="44.06812950796386" lon="12.376390893133902"><ele>51.0</ele><time>2026-05-02T15:09:27Z</time></trkpt><trkpt lat="44.068185274816955" lon="12.376452447919785"><ele>51.0</ele><time>2026-05-02T15:09:33Z</time></trkpt><trkpt lat="44.0682350404091" lon="12.376514761074896"><ele>51.0</ele><time>2026-05-02T15:09:39Z</time></trkpt><trkpt lat="44.06829687821428" lon="12.3765772634657"><ele>52.142857142857146</ele><time>2026-05-02T15:09:45Z</time></trkpt><trkpt lat="44.06835462191231" lon="12.376622364118491"><ele>53.28571428571429</ele><time>2026-05-02T15:09:50Z</time></trkpt><trkpt lat="44.06841124628204" lon="12.376672386998319"><ele>54.42857142857143</ele><time>2026-05-02T15:09:55Z</time></trkpt><trkpt lat="44.06846746895494" lon="12.376722187075012"><ele>55.57142857142857</ele><time>2026-05-02T15:10:00Z</time></trkpt><trkpt lat="44.0685284162134" lon="12.376769748731123"><ele>56.714285714285715</ele><time>2026-05-02T15:10:06Z</time></trkpt><trkpt lat="44.06858457406955" lon="12.376814037635308"><ele>57.857142857142854</ele><time>2026-05-02T15:10:11Z</time></trkpt><trkpt lat="44.068648713901574" lon="12.376860916099428"><ele>59.0</ele><time>2026-05-02T15:10:16.999Z</time></trkpt><trkpt lat="44.068709108052964" lon="12.376915245580518"><ele>59.0</ele><time>2026-05-02T15:10:21.999Z</time></trkpt><trkpt lat="44.068764457688104" lon="12.376961349763306"><ele>59.0</ele><time>2026-05-02T15:10:26.999Z</time></trkpt><trkpt lat="44.068818022924006" lon="12.377011037604941"><ele>59.0</ele><time>2026-05-02T15:10:31.999Z</time></trkpt><trkpt lat="44.06887987697314" lon="12.377056690280781"><ele>59.0</ele><time>2026-05-02T15:10:37.999Z</time></trkpt><trkpt lat="44.06893211800612" lon="12.377106220663475"><ele>59.0</ele><time>2026-05-02T15:10:42.999Z</time></trkpt><trkpt lat="44.06898924498774" lon="12.377149825696653"><ele>59.0</ele><time>2026-05-02T15:10:49Z</time></trkpt><trkpt lat="44.06905367845688" lon="12.377158566555837"><ele>59.0</ele><time>2026-05-02T15:10:55Z</time></trkpt><trkpt lat="44.069108346864276" lon="12.377209819221077"><ele>60.57142857142857</ele><time>2026-05-02T15:11:01Z</time></trkpt><trkpt lat="44.069161863278445" lon="12.377261597225367"><ele>62.142857142857146</ele><time>2026-05-02T15:11:06Z</time></trkpt><trkpt lat="44.06921758041833" lon="12.377307537963251"><ele>63.714285714285715</ele><time>2026-05-02T15:11:12Z</time></trkpt><trkpt lat="44.06927947278905" lon="12.377359778673112"><ele>65.28571428571428</ele><time>2026-05-02T15:11:18Z</time></trkpt><trkpt lat="44.06933904890611" lon="12.377406859072526"><ele>66.85714285714286</ele><time>2026-05-02T15:11:24Z</time></trkpt><trkpt lat="44.069392291436166" lon="12.37745592037739"><ele>68.42857142857143</ele><time>2026-05-02T15:11:30Z</time></trkpt><trkpt lat="44.06944610189704" lon="12.377507786179102"><ele>70.0</ele><time>2026-05-02T15:11:36Z</time></trkpt><trkpt lat="44.06949482873045" lon="12.377571042727356"><ele>70.0</ele><time>2026-05-02T15:11:42Z</time></trkpt><trkpt lat="44.069555187320745" lon="12.377621279499294"><ele>70.0</ele><time>2026-05-02T15:11:48Z</time></trkpt><trkpt lat="44.069620719761836" lon="12.377665935833702"><ele>70.0</ele><time>2026-05-02T15:11:55Z</time></trkpt><trkpt lat="44.069679897830675" lon="12.377727926091687"><ele>70.0</ele><time>2026-05-02T15:12:01Z</time></trkpt><trkpt lat="44.06973465248205" lon="12.377775116819988"><ele>70.0</ele><time>2026-05-02T15:12:06Z</time></trkpt><trkpt lat="44.06979573711947" lon="12.377826410088513"><ele>70.0</ele><time>2026-05-02T15:12:10.999Z</time></trkpt><trkpt lat="44.06985011995414" lon="12.377895709723783"><ele>70.0</ele><time>2026-05-02T15:12:15.999Z</time></trkpt><trkpt lat="44.06989124324453" lon="12.377981616509238"><ele>70.28571428571429</ele><time>2026-05-02T15:12:21.999Z</time></trkpt><trkpt lat="44.06990312111114" lon="12.378074307257682"><ele>70.57142857142857</ele><time>2026-05-02T15:12:27.999Z</time></trkpt><trkpt lat="44.069908201713204" lon="12.378179582558607"><ele>70.85714285714286</ele><time>2026-05-02T15:12:33.999Z</time></trkpt><trkpt lat="44.06991414131696" lon="12.378285287385047"><ele>71.14285714285714</ele><time>2026-05-02T15:12:38.999Z</time></trkpt><trkpt lat="44.069895186723606" lon="12.378378283034897"><ele>71.42857142857143</ele><time>2026-05-02T15:12:42.999Z</time></trkpt><trkpt lat="44.06988619398779" lon="12.378485700650938"><ele>71.71428571428572</ele><time>2026-05-02T15:12:46.999Z</time></trkpt><trkpt lat="44.06987482913569" lon="12.378575292817898"><ele>72.0</ele><time>2026-05-02T15:12:50.999Z</time></trkpt><trkpt lat="44.06985037946692" lon="12.378674361642487"><ele>72.00000000000001</ele><time>2026-05-02T15:12:54.999Z</time></trkpt><trkpt lat="44.06982551020048" lon="12.378782515860438"><ele>72.0</ele><time>2026-05-02T15:12:58.999Z</time></trkpt><trkpt lat="44.06981964091948" lon="12.37888552159687"><ele>72.0</ele><time>2026-05-02T15:13:02.999Z</time></trkpt><trkpt lat="44.06979610769925" lon="12.378967098010591"><ele>72.0</ele><time>2026-05-02T15:13:06Z</time></trkpt><trkpt lat="44.069835046679856" lon="12.379039705696343"><ele>72.0</ele><time>2026-05-02T15:13:12Z</time></trkpt><trkpt lat="44.0698402000225" lon="12.379131740967933"><ele>72.00000000000001</ele><time>2026-05-02T15:13:17Z</time></trkpt><trkpt lat="44.06982298859331" lon="12.379218345349702"><ele>72.0</ele><time>2026-05-02T15:14:21Z</time></trkpt><trkpt lat="44.0698055433015" lon="12.379321798598456"><ele>72.16666666666667</ele><time>2026-05-02T15:14:25Z</time></trkpt><trkpt lat="44.069786219492386" lon="12.379416284792471"><ele>72.33333333333333</ele><time>2026-05-02T15:14:28Z</time></trkpt><trkpt lat="44.06976984973495" lon="12.37952300488672"><ele>72.5</ele><time>2026-05-02T15:14:31Z</time></trkpt><trkpt lat="44.06975238889708" lon="12.379631073649765"><ele>72.66666666666666</ele><time>2026-05-02T15:14:34Z</time></trkpt><trkpt lat="44.06973472523226" lon="12.37974255018425"><ele>72.83333333333333</ele><time>2026-05-02T15:14:36.999Z</time></trkpt><trkpt lat="44.069728479894046" lon="12.379853525256472"><ele>73.0</ele><time>2026-05-02T15:14:39.999Z</time></trkpt><trkpt lat="44.06971211889895" lon="12.37995172797166"><ele>73.71428571428571</ele><time>2026-05-02T15:14:42.999Z</time></trkpt><trkpt lat="44.0696983750314" lon="12.380046081890601"><ele>74.42857142857143</ele><time>2026-05-02T15:14:45.999Z</time></trkpt><trkpt lat="44.069684153854624" lon="12.380132565419425"><ele>75.14285714285714</ele><time>2026-05-02T15:14:48.999Z</time></trkpt><trkpt lat="44.069678587459066" lon="12.38024575375046"><ele>75.85714285714286</ele><time>2026-05-02T15:14:52.999Z</time></trkpt><trkpt lat="44.06966726868984" lon="12.380353970730642"><ele>76.57142857142857</ele><time>2026-05-02T15:14:56.999Z</time></trkpt><trkpt lat="44.069665173735174" lon="12.380460018186232"><ele>77.28571428571429</ele><time>2026-05-02T15:15:00.999Z</time></trkpt><trkpt lat="44.06966400034164" lon="12.380565529767006"><ele>78.0</ele><time>2026-05-02T15:15:05Z</time></trkpt><trkpt lat="44.06966150676985" lon="12.380667187620524"><ele>78.85714285714286</ele><time>2026-05-02T15:15:09Z</time></trkpt><trkpt lat="44.06965442187067" lon="12.38076041099542"><ele>79.71428571428571</ele><time>2026-05-02T15:15:13Z</time></trkpt><trkpt lat="44.06965207576505" lon="12.38085146200537"><ele>80.57142857142857</ele><time>2026-05-02T15:15:17Z</time></trkpt><trkpt lat="44.06965206550688" lon="12.380951129657074"><ele>81.42857142857143</ele><time>2026-05-02T15:15:22Z</time></trkpt><trkpt lat="44.06964955091274" lon="12.381055400476649"><ele>82.28571428571428</ele><time>2026-05-02T15:15:27Z</time></trkpt><trkpt lat="44.06963809382556" lon="12.381150706234694"><ele>83.14285714285714</ele><time>2026-05-02T15:15:32Z</time></trkpt><trkpt lat="44.06963604921928" lon="12.381255893242601"><ele>84.0</ele><time>2026-05-02T15:15:37Z</time></trkpt><trkpt lat="44.06963222750031" lon="12.381348292928283"><ele>84.33333333333333</ele><time>2026-05-02T15:15:41Z</time></trkpt><trkpt lat="44.069620196029824" lon="12.381456149270955"><ele>84.66666666666667</ele><time>2026-05-02T15:15:45Z</time></trkpt><trkpt lat="44.06962075680711" lon="12.381546562828799"><ele>85.0</ele><time>2026-05-02T15:15:48Z</time></trkpt><trkpt lat="44.069610647662245" lon="12.381645168980599"><ele>85.33333333333334</ele><time>2026-05-02T15:15:51Z</time></trkpt><trkpt lat="44.06960732324112" lon="12.381762804193322"><ele>85.66666666666667</ele><time>2026-05-02T15:15:54Z</time></trkpt><trkpt lat="44.06960097044998" lon="12.38189217594677"><ele>86.0</ele><time>2026-05-02T15:15:57Z</time></trkpt><trkpt lat="44.06959982709324" lon="12.381986938810906"><ele>86.0</ele><time>2026-05-02T15:15:59Z</time></trkpt><trkpt lat="44.06959280738603" lon="12.382087927415036"><ele>86.0</ele><time>2026-05-02T15:16:01Z</time></trkpt><trkpt lat="44.069585289580736" lon="12.38219798410804"><ele>86.0</ele><time>2026-05-02T15:16:03Z</time></trkpt><trkpt lat="44.06958274829618" lon="12.382321911456252"><ele>86.0</ele><time>2026-05-02T15:16:05Z</time></trkpt><trkpt lat="44.06959205435219" lon="12.382442380215426"><ele>86.0</ele><time>2026-05-02T15:16:07Z</time></trkpt><trkpt lat="44.06959160288911" lon="12.382558643679067"><ele>86.0</ele><time>2026-05-02T15:16:09Z</time></trkpt><trkpt lat="44.069596024991675" lon="12.382682164625763"><ele>85.4</ele><time>2026-05-02T15:16:11Z</time></trkpt><trkpt lat="44.06962496309007" lon="12.382822841638237"><ele>84.8</ele><time>2026-05-02T15:16:13Z</time></trkpt><trkpt lat="44.06964760442522" lon="12.382976120017908"><ele>84.2</ele><time>2026-05-02T15:16:15Z</time></trkpt><trkpt lat="44.069664652049404" lon="12.38315179334536"><ele>83.60000000000001</ele><time>2026-05-02T15:16:17Z</time></trkpt><trkpt lat="44.06967381315246" lon="12.383244447373963"><ele>83.0</ele><time>2026-05-02T15:16:18Z</time></trkpt><trkpt lat="44.06968378579788" lon="12.383340171700054"><ele>82.28571428571428</ele><time>2026-05-02T15:16:19Z</time></trkpt><trkpt lat="44.06969500977685" lon="12.383437948193967"><ele>81.57142857142858</ele><time>2026-05-02T15:16:20Z</time></trkpt><trkpt lat="44.06970482124535" lon="12.383535327892655"><ele>80.85714285714286</ele><time>2026-05-02T15:16:21Z</time></trkpt><trkpt lat="44.069710032281996" lon="12.383634085722411"><ele>80.14285714285714</ele><time>2026-05-02T15:16:22Z</time></trkpt><trkpt lat="44.06971616992399" lon="12.38373484391703"><ele>79.42857142857142</ele><time>2026-05-02T15:16:23Z</time></trkpt><trkpt lat="44.06972804768931" lon="12.383832758481546"><ele>78.71428571428572</ele><time>2026-05-02T15:16:24Z</time></trkpt><trkpt lat="44.06973876688716" lon="12.38392760500285"><ele>78.0</ele><time>2026-05-02T15:16:25Z</time></trkpt><trkpt lat="44.06974433636855" lon="12.384021639983608"><ele>77.33333333333333</ele><time>2026-05-02T15:16:26Z</time></trkpt><trkpt lat="44.069753366891916" lon="12.384111574646736"><ele>76.66666666666667</ele><time>2026-05-02T15:16:27Z</time></trkpt><trkpt lat="44.06976121454901" lon="12.384203346788125"><ele>76.0</ele><time>2026-05-02T15:16:28Z</time></trkpt><trkpt lat="44.06976740963492" lon="12.384292762525613"><ele>75.33333333333334</ele><time>2026-05-02T15:16:29Z</time></trkpt><trkpt lat="44.06977652873696" lon="12.384379805911388"><ele>74.66666666666667</ele><time>2026-05-02T15:16:30Z</time></trkpt><trkpt lat="44.06979305893294" lon="12.384550435200898"><ele>74.0</ele><time>2026-05-02T15:16:32Z</time></trkpt><trkpt lat="44.069795817965876" lon="12.384711665758267"><ele>73.83333333333334</ele><time>2026-05-02T15:16:34Z</time></trkpt><trkpt lat="44.06981691588367" lon="12.38486848547697"><ele>73.66666666666667</ele><time>2026-05-02T15:16:36Z</time></trkpt><trkpt lat="44.069731759313854" lon="12.38499389331937"><ele>73.5</ele><time>2026-05-02T15:16:38Z</time></trkpt><trkpt lat="44.0696999981111" lon="12.385077368196395"><ele>73.33333333333333</ele><time>2026-05-02T15:16:39Z</time></trkpt><trkpt lat="44.0696548612292" lon="12.385145519764679"><ele>73.16666666666666</ele><time>2026-05-02T15:16:40Z</time></trkpt><trkpt lat="44.06961557410676" lon="12.385223174310326"><ele>73.0</ele><time>2026-05-02T15:16:41Z</time></trkpt><trkpt lat="44.069573907629106" lon="12.385301582288603"><ele>73.0</ele><time>2026-05-02T15:16:42Z</time></trkpt><trkpt lat="44.069530545242756" lon="12.385381941399855"><ele>73.0</ele><time>2026-05-02T15:16:43Z</time></trkpt><trkpt lat="44.06947446572375" lon="12.385453836354882"><ele>73.0</ele><time>2026-05-02T15:16:44Z</time></trkpt><trkpt lat="44.069429783054" lon="12.38553464582199"><ele>73.0</ele><time>2026-05-02T15:16:45Z</time></trkpt><trkpt lat="44.06938401722911" lon="12.385617414206605"><ele>73.0</ele><time>2026-05-02T15:16:46Z</time></trkpt><trkpt lat="44.06934699519001" lon="12.38571294432719"><ele>73.0</ele><time>2026-05-02T15:16:47Z</time></trkpt><trkpt lat="44.069290509198524" lon="12.38579002262384"><ele>73.16666666666666</ele><time>2026-05-02T15:16:48Z</time></trkpt><trkpt lat="44.06924404435451" lon="12.385875796359755"><ele>73.33333333333333</ele><time>2026-05-02T15:16:49Z</time></trkpt><trkpt lat="44.06919711026398" lon="12.385962436210962"><ele>73.5</ele><time>2026-05-02T15:16:50Z</time></trkpt><trkpt lat="44.06914919130945" lon="12.386050894288505"><ele>73.66666666666667</ele><time>2026-05-02T15:16:51Z</time></trkpt><trkpt lat="44.06910164872096" lon="12.38613865771825"><ele>73.83333333333334</ele><time>2026-05-02T15:16:52Z</time></trkpt><trkpt lat="44.06905299209571" lon="12.386228477460886"><ele>74.0</ele><time>2026-05-02T15:16:53Z</time></trkpt><trkpt lat="44.06901561253888" lon="12.38633545784929"><ele>72.5</ele><time>2026-05-02T15:16:54Z</time></trkpt><trkpt lat="44.06895006758551" lon="12.386418475352354"><ele>71.0</ele><time>2026-05-02T15:16:55Z</time></trkpt><trkpt lat="44.06889841944405" lon="12.38651381744786"><ele>69.5</ele><time>2026-05-02T15:16:56Z</time></trkpt><trkpt lat="44.06885737794366" lon="12.386622530390216"><ele>68.0</ele><time>2026-05-02T15:16:57Z</time></trkpt><trkpt lat="44.06880575159257" lon="12.386720069894505"><ele>66.5</ele><time>2026-05-02T15:16:58Z</time></trkpt><trkpt lat="44.06875434372429" lon="12.386813472046919"><ele>65.0</ele><time>2026-05-02T15:16:59Z</time></trkpt><trkpt lat="44.068691490796624" lon="12.386892054227694"><ele>65.0</ele><time>2026-05-02T15:17:00Z</time></trkpt><trkpt lat="44.06864088461812" lon="12.386984695908817"><ele>65.0</ele><time>2026-05-02T15:17:01Z</time></trkpt><trkpt lat="44.068590588755804" lon="12.387076895421059"><ele>65.0</ele><time>2026-05-02T15:17:02Z</time></trkpt><trkpt lat="44.06854046877722" lon="12.387168772201525"><ele>65.0</ele><time>2026-05-02T15:17:03Z</time></trkpt><trkpt lat="44.06849255451616" lon="12.38725660574865"><ele>65.0</ele><time>2026-05-02T15:17:04Z</time></trkpt><trkpt lat="44.06845665433417" lon="12.38735863397012"><ele>65.0</ele><time>2026-05-02T15:17:05Z</time></trkpt><trkpt lat="44.06841159686598" lon="12.387443053128443"><ele>65.14285714285715</ele><time>2026-05-02T15:17:06Z</time></trkpt><trkpt lat="44.068354491547026" lon="12.387510130986843"><ele>65.28571428571429</ele><time>2026-05-02T15:17:07Z</time></trkpt><trkpt lat="44.068311827605996" lon="12.3875886244509"><ele>65.42857142857143</ele><time>2026-05-02T15:17:08Z</time></trkpt><trkpt lat="44.068270306719874" lon="12.387665014664282"><ele>65.57142857142858</ele><time>2026-05-02T15:17:09Z</time></trkpt><trkpt lat="44.06822947971697" lon="12.387740128419724"><ele>65.71428571428572</ele><time>2026-05-02T15:17:10Z</time></trkpt><trkpt lat="44.06819040056393" lon="12.387812026315645"><ele>65.85714285714286</ele><time>2026-05-02T15:17:11Z</time></trkpt><trkpt lat="44.06815227024146" lon="12.38788217849301"><ele>66.0</ele><time>2026-05-02T15:17:12Z</time></trkpt><trkpt lat="44.068083913288326" lon="12.388007941896612"><ele>66.2</ele><time>2026-05-02T15:17:14Z</time></trkpt><trkpt lat="44.068022761782856" lon="12.388120290618106"><ele>66.39999999999999</ele><time>2026-05-02T15:17:16Z</time></trkpt><trkpt lat="44.0679539772958" lon="12.388245840056257"><ele>66.6</ele><time>2026-05-02T15:17:18Z</time></trkpt><trkpt lat="44.06788235289352" lon="12.388376572879531"><ele>66.8</ele><time>2026-05-02T15:17:20Z</time></trkpt><trkpt lat="44.067815548473206" lon="12.388497999849786"><ele>67.0</ele><time>2026-05-02T15:17:22Z</time></trkpt><trkpt lat="44.067749447447476" lon="12.388616223837841"><ele>67.0</ele><time>2026-05-02T15:17:24Z</time></trkpt><trkpt lat="44.067683157999355" lon="12.388729733424551"><ele>67.0</ele><time>2026-05-02T15:17:26Z</time></trkpt><trkpt lat="44.06762183748764" lon="12.38883256095663"><ele>67.0</ele><time>2026-05-02T15:17:28Z</time></trkpt><trkpt lat="44.06756133348815" lon="12.388931528135254"><ele>67.0</ele><time>2026-05-02T15:17:30Z</time></trkpt><trkpt lat="44.06750130327075" lon="12.389021306352529"><ele>67.0</ele><time>2026-05-02T15:17:32Z</time></trkpt><trkpt lat="44.067441996728924" lon="12.389100509716204"><ele>67.33333333333333</ele><time>2026-05-02T15:17:34Z</time></trkpt><trkpt lat="44.067384588049606" lon="12.389169688777965"><ele>67.66666666666666</ele><time>2026-05-02T15:17:36Z</time></trkpt><trkpt lat="44.06730822011008" lon="12.389257258085724"><ele>68.0</ele><time>2026-05-02T15:17:39Z</time></trkpt><trkpt lat="44.06725129121043" lon="12.389321308312098"><ele>68.33333333333333</ele><time>2026-05-02T15:17:41Z</time></trkpt><trkpt lat="44.067193447636704" lon="12.389386387714454"><ele>68.66666666666667</ele><time>2026-05-02T15:17:43Z</time></trkpt><trkpt lat="44.06715605802974" lon="12.38947807097706"><ele>69.0</ele><time>2026-05-02T15:17:45Z</time></trkpt><trkpt lat="44.06710114493667" lon="12.389539592825587"><ele>69.0</ele><time>2026-05-02T15:17:47Z</time></trkpt><trkpt lat="44.06704306613856" lon="12.389597527447977"><ele>69.0</ele><time>2026-05-02T15:17:49Z</time></trkpt><trkpt lat="44.066990318112104" lon="12.389646792505216"><ele>69.0</ele><time>2026-05-02T15:17:51Z</time></trkpt><trkpt lat="44.06693842735042" lon="12.389705600845328"><ele>69.0</ele><time>2026-05-02T15:17:53Z</time></trkpt><trkpt lat="44.06688193658069" lon="12.389768948272998"><ele>69.0</ele><time>2026-05-02T15:17:55Z</time></trkpt><trkpt lat="44.066818765266454" lon="12.389822308315749"><ele>69.0</ele><time>2026-05-02T15:17:57Z</time></trkpt><trkpt lat="44.06675928826012" lon="12.38988742278514"><ele>69.0</ele><time>2026-05-02T15:17:59Z</time></trkpt><trkpt lat="44.06670257993274" lon="12.389958824441058"><ele>68.8</ele><time>2026-05-02T15:18:01Z</time></trkpt><trkpt lat="44.06664254602277" lon="12.390037011756775"><ele>68.60000000000001</ele><time>2026-05-02T15:18:03Z</time></trkpt><trkpt lat="44.066569334592074" lon="12.390105351098862"><ele>68.4</ele><time>2026-05-02T15:18:05Z</time></trkpt><trkpt lat="44.06650111036614" lon="12.390191641500953"><ele>68.2</ele><time>2026-05-02T15:18:07Z</time></trkpt><trkpt lat="44.066430915334806" lon="12.390289730473294"><ele>68.0</ele><time>2026-05-02T15:18:09Z</time></trkpt><trkpt lat="44.066350296630624" lon="12.390401112776217"><ele>67.99999999999999</ele><time>2026-05-02T15:18:11Z</time></trkpt><trkpt lat="44.066292612077135" lon="12.390443133535765"><ele>68.0</ele><time>2026-05-02T15:18:12Z</time></trkpt><trkpt lat="44.06624674082404" lon="12.39051248803132"><ele>68.0</ele><time>2026-05-02T15:18:13Z</time></trkpt><trkpt lat="44.06620287554608" lon="12.390580250617901"><ele>68.0</ele><time>2026-05-02T15:18:14Z</time></trkpt><trkpt lat="44.06615697555571" lon="12.390654065942945"><ele>68.0</ele><time>2026-05-02T15:18:15Z</time></trkpt><trkpt lat="44.06611017534603" lon="12.390732394635437"><ele>67.99999999999999</ele><time>2026-05-02T15:18:16Z</time></trkpt><trkpt lat="44.066076337942626" lon="12.39083066385569"><ele>68.0</ele><time>2026-05-02T15:18:17Z</time></trkpt><trkpt lat="44.06603042285718" lon="12.390921244227613"><ele>67.5</ele><time>2026-05-02T15:18:18Z</time></trkpt><trkpt lat="44.0659886476843" lon="12.391010739873384"><ele>67.0</ele><time>2026-05-02T15:18:19Z</time></trkpt><trkpt lat="44.06594787573946" lon="12.391101652118458"><ele>66.5</ele><time>2026-05-02T15:18:20Z</time></trkpt><trkpt lat="44.06591736903233" lon="12.39119626662899"><ele>66.0</ele><time>2026-05-02T15:18:21Z</time></trkpt><trkpt lat="44.065884880822324" lon="12.391291947565833"><ele>65.5</ele><time>2026-05-02T15:18:22Z</time></trkpt><trkpt lat="44.06585599383263" lon="12.39138902845625"><ele>65.0</ele><time>2026-05-02T15:18:23Z</time></trkpt><trkpt lat="44.065812254544085" lon="12.39147297101788"><ele>64.33333333333334</ele><time>2026-05-02T15:18:24Z</time></trkpt><trkpt lat="44.06578347815858" lon="12.391565489920339"><ele>63.66666666666667</ele><time>2026-05-02T15:18:25Z</time></trkpt><trkpt lat="44.06575596174284" lon="12.391660245166088"><ele>63.0</ele><time>2026-05-02T15:18:26Z</time></trkpt><trkpt lat="44.065731229627175" lon="12.391745916448867"><ele>62.33333333333333</ele><time>2026-05-02T15:18:27Z</time></trkpt><trkpt lat="44.0657208895617" lon="12.39183640887625"><ele>61.666666666666664</ele><time>2026-05-02T15:18:28Z</time></trkpt><trkpt lat="44.06569058719108" lon="12.391916887820162"><ele>61.0</ele><time>2026-05-02T15:18:29Z</time></trkpt><trkpt lat="44.06565103415921" lon="12.392077411462038"><ele>60.8</ele><time>2026-05-02T15:18:31Z</time></trkpt><trkpt lat="44.065609965331525" lon="12.392228447963301"><ele>60.599999999999994</ele><time>2026-05-02T15:18:33Z</time></trkpt><trkpt lat="44.06556994806136" lon="12.3923741075696"><ele>60.4</ele><time>2026-05-02T15:18:35Z</time></trkpt><trkpt lat="44.065526007455084" lon="12.392506596674806"><ele>60.2</ele><time>2026-05-02T15:18:37Z</time></trkpt><trkpt lat="44.06548668190108" lon="12.392658183028788"><ele>60.0</ele><time>2026-05-02T15:18:39Z</time></trkpt><trkpt lat="44.065432451152695" lon="12.392786675212216"><ele>60.0</ele><time>2026-05-02T15:18:41Z</time></trkpt><trkpt lat="44.06540228440946" lon="12.392927115641859"><ele>60.0</ele><time>2026-05-02T15:18:43Z</time></trkpt><trkpt lat="44.06535677313938" lon="12.393060394251888"><ele>60.0</ele><time>2026-05-02T15:18:45Z</time></trkpt><trkpt lat="44.06530947747736" lon="12.393197982820084"><ele>60.0</ele><time>2026-05-02T15:18:47Z</time></trkpt><trkpt lat="44.06526360346038" lon="12.393342875710564"><ele>60.0</ele><time>2026-05-02T15:18:49Z</time></trkpt><trkpt lat="44.065209574775196" lon="12.393482375139788"><ele>60.0</ele><time>2026-05-02T15:18:51Z</time></trkpt><trkpt lat="44.06515344201637" lon="12.393628547429001"><ele>60.0</ele><time>2026-05-02T15:18:53Z</time></trkpt><trkpt lat="44.06511740680496" lon="12.393704125856088"><ele>60.0</ele><time>2026-05-02T15:18:54Z</time></trkpt><trkpt lat="44.06506783810787" lon="12.393762415860015"><ele>60.0</ele><time>2026-05-02T15:18:55Z</time></trkpt><trkpt lat="44.06502548303782" lon="12.393833255063575"><ele>60.0</ele><time>2026-05-02T15:18:56Z</time></trkpt><trkpt lat="44.06498165142307" lon="12.393900181087655"><ele>60.0</ele><time>2026-05-02T15:18:57Z</time></trkpt><trkpt lat="44.064945863583795" lon="12.393979301759886"><ele>60.0</ele><time>2026-05-02T15:18:58Z</time></trkpt><trkpt lat="44.06489647150054" lon="12.394041978514021"><ele>59.42857142857143</ele><time>2026-05-02T15:18:59Z</time></trkpt><trkpt lat="44.06485043416954" lon="12.394108447100514"><ele>58.857142857142854</ele><time>2026-05-02T15:19:00Z</time></trkpt><trkpt lat="44.06481005597497" lon="12.39417990432521"><ele>58.285714285714285</ele><time>2026-05-02T15:19:01Z</time></trkpt><trkpt lat="44.06476650863939" lon="12.39425002482522"><ele>57.714285714285715</ele><time>2026-05-02T15:19:02Z</time></trkpt><trkpt lat="44.06472172759318" lon="12.394316284529772"><ele>57.14285714285714</ele><time>2026-05-02T15:19:03Z</time></trkpt><trkpt lat="44.06467420729574" lon="12.394387174106534"><ele>56.57142857142857</ele><time>2026-05-02T15:19:04Z</time></trkpt><trkpt lat="44.06462988464244" lon="12.394457792379155"><ele>56.0</ele><time>2026-05-02T15:19:05Z</time></trkpt><trkpt lat="44.06458862141043" lon="12.39452712975653"><ele>56.0</ele><time>2026-05-02T15:19:06Z</time></trkpt><trkpt lat="44.06450341607013" lon="12.394646168888189"><ele>55.99999999999999</ele><time>2026-05-02T15:19:08Z</time></trkpt><trkpt lat="44.064563756426566" lon="12.394806324961467"><ele>55.99999999999999</ele><time>2026-05-02T15:19:10Z</time></trkpt><trkpt lat="44.064594159047196" lon="12.394897915282211"><ele>56.0</ele><time>2026-05-02T15:19:12Z</time></trkpt><trkpt lat="44.064627688247846" lon="12.394984902218532"><ele>56.0</ele><time>2026-05-02T15:19:14Z</time></trkpt><trkpt lat="44.06464972175194" lon="12.395103436965307"><ele>56.714285714285715</ele><time>2026-05-02T15:19:17Z</time></trkpt><trkpt lat="44.06468414463869" lon="12.39521703491475"><ele>57.42857142857143</ele><time>2026-05-02T15:19:20Z</time></trkpt><trkpt lat="44.06471575341365" lon="12.39531808320108"><ele>58.14285714285714</ele><time>2026-05-02T15:19:23Z</time></trkpt><trkpt lat="44.064740047302664" lon="12.395408454649699"><ele>58.857142857142854</ele><time>2026-05-02T15:19:27Z</time></trkpt><trkpt lat="44.06476579788346" lon="12.39549228796121"><ele>59.57142857142857</ele><time>2026-05-02T15:19:31Z</time></trkpt><trkpt lat="44.0647951652252" lon="12.395569924205285"><ele>60.28571428571428</ele><time>2026-05-02T15:19:35Z</time></trkpt><trkpt lat="44.06481514297233" lon="12.39565744864037"><ele>60.99999999999999</ele><time>2026-05-02T15:19:39Z</time></trkpt><trkpt lat="44.064847756366994" lon="12.395752150450054"><ele>61.99999999999999</ele><time>2026-05-02T15:19:44Z</time></trkpt><trkpt lat="44.06486722972565" lon="12.395844321714687"><ele>63.0</ele><time>2026-05-02T15:19:49Z</time></trkpt><trkpt lat="44.06488813036347" lon="12.395951480211743"><ele>63.99999999999999</ele><time>2026-05-02T15:19:54Z</time></trkpt><trkpt lat="44.06490617362408" lon="12.396035865910108"><ele>65.0</ele><time>2026-05-02T15:19:58Z</time></trkpt><trkpt lat="44.06493570925393" lon="12.39612891243803"><ele>66.0</ele><time>2026-05-02T15:20:02Z</time></trkpt><trkpt lat="44.06493596245532" lon="12.39623600363474"><ele>66.99999999999999</ele><time>2026-05-02T15:20:06Z</time></trkpt><trkpt lat="44.06494712805766" lon="12.39632560033231"><ele>68.0</ele><time>2026-05-02T15:20:10Z</time></trkpt><trkpt lat="44.06497688570767" lon="12.396429985657932"><ele>68.28571428571428</ele><time>2026-05-02T15:20:14Z</time></trkpt><trkpt lat="44.06500316652726" lon="12.396513683710095"><ele>68.57142857142857</ele><time>2026-05-02T15:20:17Z</time></trkpt><trkpt lat="44.06502557322633" lon="12.39660982803351"><ele>68.85714285714286</ele><time>2026-05-02T15:20:20Z</time></trkpt><trkpt lat="44.06505726080959" lon="12.396695751583687"><ele>69.14285714285714</ele><time>2026-05-02T15:20:23Z</time></trkpt><trkpt lat="44.065091146015654" lon="12.396814463992271"><ele>69.42857142857143</ele><time>2026-05-02T15:20:26Z</time></trkpt><trkpt lat="44.06512685490168" lon="12.396901637571538"><ele>69.71428571428571</ele><time>2026-05-02T15:20:28Z</time></trkpt><trkpt lat="44.06515557135304" lon="12.39698446223219"><ele>70.0</ele><time>2026-05-02T15:20:30Z</time></trkpt><trkpt lat="44.06519368628399" lon="12.397079812227084"><ele>69.8</ele><time>2026-05-02T15:20:32Z</time></trkpt><trkpt lat="44.06523738852589" lon="12.397175058042418"><ele>69.6</ele><time>2026-05-02T15:20:34Z</time></trkpt><trkpt lat="44.06528955410413" lon="12.397270940904038"><ele>69.4</ele><time>2026-05-02T15:20:36Z</time></trkpt><trkpt lat="44.065344501991" lon="12.397384417963137"><ele>69.2</ele><time>2026-05-02T15:20:38Z</time></trkpt><trkpt lat="44.06543051255213" lon="12.397510104569703"><ele>69.0</ele><time>2026-05-02T15:20:40Z</time></trkpt><trkpt lat="44.065470677222386" lon="12.39759537859227"><ele>69.0</ele><time>2026-05-02T15:20:41Z</time></trkpt><trkpt lat="44.06553701588529" lon="12.397659087518457"><ele>69.0</ele><time>2026-05-02T15:20:42Z</time></trkpt><trkpt lat="44.06560611761945" lon="12.397726295831145"><ele>69.0</ele><time>2026-05-02T15:20:43Z</time></trkpt><trkpt lat="44.06567202090615" lon="12.397809146845232"><ele>69.0</ele><time>2026-05-02T15:20:44Z</time></trkpt><trkpt lat="44.065735721735344" lon="12.397906350193185"><ele>69.0</ele><time>2026-05-02T15:20:45Z</time></trkpt><trkpt lat="44.06580020244542" lon="12.398007572796592"><ele>69.0</ele><time>2026-05-02T15:20:46Z</time></trkpt><trkpt lat="44.06586649972864" lon="12.398105352797112"><ele>67.0</ele><time>2026-05-02T15:20:47Z</time></trkpt><trkpt lat="44.06595086884751" lon="12.398198664663795"><ele>65.0</ele><time>2026-05-02T15:20:48Z</time></trkpt><trkpt lat="44.06601498831919" lon="12.398324051203902"><ele>63.00000000000001</ele><time>2026-05-02T15:20:49Z</time></trkpt><trkpt lat="44.06609052285269" lon="12.398436014188018"><ele>61.0</ele><time>2026-05-02T15:20:50Z</time></trkpt><trkpt lat="44.06616434594276" lon="12.398550571891505"><ele>59.0</ele><time>2026-05-02T15:20:51Z</time></trkpt><trkpt lat="44.06623236042405" lon="12.398669637508092"><ele>59.0</ele><time>2026-05-02T15:20:52Z</time></trkpt><trkpt lat="44.06629666126653" lon="12.39879805199453"><ele>59.0</ele><time>2026-05-02T15:20:53Z</time></trkpt><trkpt lat="44.06637315784234" lon="12.398918743928531"><ele>59.0</ele><time>2026-05-02T15:20:54Z</time></trkpt><trkpt lat="44.066427926070695" lon="12.399054883510434"><ele>59.0</ele><time>2026-05-02T15:20:55Z</time></trkpt><trkpt lat="44.066482435836406" lon="12.399191538668514"><ele>57.6</ele><time>2026-05-02T15:20:56Z</time></trkpt><trkpt lat="44.06654521509493" lon="12.399332400230575"><ele>56.2</ele><time>2026-05-02T15:20:57Z</time></trkpt><trkpt lat="44.066611560719956" lon="12.39944309678063"><ele>54.800000000000004</ele><time>2026-05-02T15:20:58Z</time></trkpt><trkpt lat="44.066688765370955" lon="12.3995321928477"><ele>53.400000000000006</ele><time>2026-05-02T15:20:59Z</time></trkpt><trkpt lat="44.066740834809686" lon="12.399608345018201"><ele>52.0</ele><time>2026-05-02T15:21:00Z</time></trkpt><trkpt lat="44.06666862275683" lon="12.399762180642032"><ele>50.83333333333333</ele><time>2026-05-02T15:21:02Z</time></trkpt><trkpt lat="44.06662606285796" lon="12.399862119637827"><ele>49.666666666666664</ele><time>2026-05-02T15:21:03Z</time></trkpt><trkpt lat="44.06658209295868" lon="12.399962004197596"><ele>48.5</ele><time>2026-05-02T15:21:04Z</time></trkpt><trkpt lat="44.06653594770789" lon="12.400066830325795"><ele>47.33333333333333</ele><time>2026-05-02T15:21:05Z</time></trkpt><trkpt lat="44.06648698885179" lon="12.400178048300228"><ele>46.166666666666664</ele><time>2026-05-02T15:21:06Z</time></trkpt><trkpt lat="44.06643542377519" lon="12.400294987758942"><ele>45.0</ele><time>2026-05-02T15:21:07Z</time></trkpt><trkpt lat="44.066382060859425" lon="12.400413013869535"><ele>43.6</ele><time>2026-05-02T15:21:08Z</time></trkpt><trkpt lat="44.06633058839798" lon="12.400526858410892"><ele>42.2</ele><time>2026-05-02T15:21:09Z</time></trkpt><trkpt lat="44.066275448445516" lon="12.400648814738423"><ele>40.8</ele><time>2026-05-02T15:21:10Z</time></trkpt><trkpt lat="44.06623025732318" lon="12.400776613760929"><ele>39.4</ele><time>2026-05-02T15:21:11Z</time></trkpt><trkpt lat="44.06618876834168" lon="12.400876203239124"><ele>38.0</ele><time>2026-05-02T15:21:12Z</time></trkpt><trkpt lat="44.06616821180407" lon="12.400971233292763"><ele>38.0</ele><time>2026-05-02T15:21:13Z</time></trkpt><trkpt lat="44.06625065581146" lon="12.401069194167544"><ele>38.0</ele><time>2026-05-02T15:21:14Z</time></trkpt><trkpt lat="44.06628015515988" lon="12.40116514710738"><ele>38.0</ele><time>2026-05-02T15:21:16Z</time></trkpt><trkpt lat="44.0661820211323" lon="12.401117431741309"><ele>38.0</ele><time>2026-05-02T15:21:20Z</time></trkpt><trkpt lat="44.06609348818155" lon="12.40126830856243"><ele>38.0</ele><time>2026-05-02T15:21:23Z</time></trkpt><trkpt lat="44.066097550457975" lon="12.40138379390631"><ele>38.33333333333333</ele><time>2026-05-02T15:21:25Z</time></trkpt><trkpt lat="44.06608300138625" lon="12.40149293670785"><ele>38.666666666666664</ele><time>2026-05-02T15:21:27Z</time></trkpt><trkpt lat="44.066084905899245" lon="12.401608123905078"><ele>39.0</ele><time>2026-05-02T15:21:29Z</time></trkpt><trkpt lat="44.066086760032114" lon="12.401720263918074"><ele>39.333333333333336</ele><time>2026-05-02T15:21:31Z</time></trkpt><trkpt lat="44.066088499137855" lon="12.401825446885104"><ele>39.66666666666667</ele><time>2026-05-02T15:21:33Z</time></trkpt><trkpt lat="44.06609029994223" lon="12.401934361656206"><ele>40.0</ele><time>2026-05-02T15:21:35Z</time></trkpt><trkpt lat="44.0660921396198" lon="12.40204562748576"><ele>40.0</ele><time>2026-05-02T15:21:37Z</time></trkpt><trkpt lat="44.06609369714099" lon="12.402155728109427"><ele>40.0</ele><time>2026-05-02T15:21:39Z</time></trkpt><trkpt lat="44.06609487277826" lon="12.402261211127826"><ele>40.0</ele><time>2026-05-02T15:21:41Z</time></trkpt><trkpt lat="44.06609608593895" lon="12.402370060902086"><ele>40.0</ele><time>2026-05-02T15:21:43Z</time></trkpt><trkpt lat="44.066127786289" lon="12.402472266372122"><ele>40.0</ele><time>2026-05-02T15:21:45Z</time></trkpt><trkpt lat="44.066127722608265" lon="12.402583893364266"><ele>40.0</ele><time>2026-05-02T15:21:47Z</time></trkpt><trkpt lat="44.06613091163768" lon="12.402707274145934"><ele>40.0</ele><time>2026-05-02T15:21:49Z</time></trkpt><trkpt lat="44.066124456934205" lon="12.402828926204878"><ele>40.0</ele><time>2026-05-02T15:21:51Z</time></trkpt><trkpt lat="44.066124996720575" lon="12.402950249100826"><ele>40.0</ele><time>2026-05-02T15:21:53Z</time></trkpt><trkpt lat="44.06612802392661" lon="12.403067584697952"><ele>40.0</ele><time>2026-05-02T15:21:55Z</time></trkpt><trkpt lat="44.06613361836851" lon="12.403197516663473"><ele>40.0</ele><time>2026-05-02T15:21:57Z</time></trkpt><trkpt lat="44.06613775075835" lon="12.403319585203896"><ele>40.0</ele><time>2026-05-02T15:21:59Z</time></trkpt><trkpt lat="44.06613962270202" lon="12.403450794423554"><ele>40.0</ele><time>2026-05-02T15:22:01Z</time></trkpt><trkpt lat="44.06613753225117" lon="12.40357658345563"><ele>40.0</ele><time>2026-05-02T15:22:03Z</time></trkpt><trkpt lat="44.0661412112024" lon="12.403694013136112"><ele>40.0</ele><time>2026-05-02T15:22:05Z</time></trkpt><trkpt lat="44.06614255091303" lon="12.403817715366946"><ele>40.0</ele><time>2026-05-02T15:22:07Z</time></trkpt><trkpt lat="44.066149709514534" lon="12.403942722997208"><ele>40.0</ele><time>2026-05-02T15:22:09Z</time></trkpt><trkpt lat="44.06614874406318" lon="12.404058608917536"><ele>40.0</ele><time>2026-05-02T15:22:11Z</time></trkpt><trkpt lat="44.066151453326626" lon="12.404175796885472"><ele>40.0</ele><time>2026-05-02T15:22:13Z</time></trkpt><trkpt lat="44.06614389408907" lon="12.40430666115532"><ele>40.0</ele><time>2026-05-02T15:22:15Z</time></trkpt><trkpt lat="44.0661512486497" lon="12.404417940094001"><ele>40.0</ele><time>2026-05-02T15:22:17Z</time></trkpt><trkpt lat="44.06614889038264" lon="12.404559387043058"><ele>40.0</ele><time>2026-05-02T15:22:19Z</time></trkpt><trkpt lat="44.066154113567904" lon="12.404681789672017"><ele>40.0</ele><time>2026-05-02T15:22:21Z</time></trkpt><trkpt lat="44.066153840703045" lon="12.404816285141955"><ele>40.0</ele><time>2026-05-02T15:22:23Z</time></trkpt><trkpt lat="44.06615380290896" lon="12.404943872290406"><ele>40.0</ele><time>2026-05-02T15:22:25Z</time></trkpt><trkpt lat="44.066148645304274" lon="12.405069896046681"><ele>40.0</ele><time>2026-05-02T15:22:27Z</time></trkpt><trkpt lat="44.066150829920275" lon="12.405197221181572"><ele>40.0</ele><time>2026-05-02T15:22:29Z</time></trkpt><trkpt lat="44.06614889929466" lon="12.405327523866296"><ele>40.0</ele><time>2026-05-02T15:22:31Z</time></trkpt><trkpt lat="44.06614716304418" lon="12.405458473208615"><ele>40.0</ele><time>2026-05-02T15:22:33Z</time></trkpt><trkpt lat="44.06614348680594" lon="12.405590711206468"><ele>40.0</ele><time>2026-05-02T15:22:35Z</time></trkpt><trkpt lat="44.06613950928158" lon="12.405720395485563"><ele>40.0</ele><time>2026-05-02T15:22:37Z</time></trkpt><trkpt lat="44.06613727165098" lon="12.405850454964689"><ele>40.0</ele><time>2026-05-02T15:22:39Z</time></trkpt><trkpt lat="44.06613053063711" lon="12.40599913141411"><ele>40.0</ele><time>2026-05-02T15:22:41Z</time></trkpt><trkpt lat="44.066121725900395" lon="12.406146459206381"><ele>40.0</ele><time>2026-05-02T15:22:43Z</time></trkpt><trkpt lat="44.06612190485607" lon="12.406294312848132"><ele>40.0</ele><time>2026-05-02T15:22:45Z</time></trkpt><trkpt lat="44.06612246055629" lon="12.406444848872132"><ele>40.0</ele><time>2026-05-02T15:22:47Z</time></trkpt><trkpt lat="44.0661244942806" lon="12.406593776938452"><ele>40.0</ele><time>2026-05-02T15:22:49Z</time></trkpt><trkpt lat="44.06612651143485" lon="12.40674149141813"><ele>40.0</ele><time>2026-05-02T15:22:51Z</time></trkpt><trkpt lat="44.06612985909627" lon="12.406879972416364"><ele>40.0</ele><time>2026-05-02T15:22:53Z</time></trkpt><trkpt lat="44.06613362566011" lon="12.40702200038305"><ele>40.0</ele><time>2026-05-02T15:22:55Z</time></trkpt><trkpt lat="44.06613736808082" lon="12.407163894863078"><ele>40.0</ele><time>2026-05-02T15:22:57Z</time></trkpt><trkpt lat="44.06614199671461" lon="12.407301237480533"><ele>40.0</ele><time>2026-05-02T15:22:59Z</time></trkpt><trkpt lat="44.066146777019135" lon="12.407443080622944"><ele>40.0</ele><time>2026-05-02T15:23:01Z</time></trkpt><trkpt lat="44.06615180522913" lon="12.407592279801026"><ele>40.0</ele><time>2026-05-02T15:23:03Z</time></trkpt><trkpt lat="44.066157005611366" lon="12.407739725913755"><ele>40.0</ele><time>2026-05-02T15:23:05Z</time></trkpt><trkpt lat="44.066177201923686" lon="12.407883317439598"><ele>40.0</ele><time>2026-05-02T15:23:07Z</time></trkpt><trkpt lat="44.066183587113976" lon="12.408033343814333"><ele>40.0</ele><time>2026-05-02T15:23:09Z</time></trkpt><trkpt lat="44.06619191962343" lon="12.408176800719636"><ele>40.0</ele><time>2026-05-02T15:23:11Z</time></trkpt><trkpt lat="44.06618473739382" lon="12.408319348458514"><ele>40.0</ele><time>2026-05-02T15:23:13Z</time></trkpt><trkpt lat="44.06619329262764" lon="12.40844603660495"><ele>40.0</ele><time>2026-05-02T15:23:15Z</time></trkpt><trkpt lat="44.06620931703517" lon="12.40857257920934"><ele>40.0</ele><time>2026-05-02T15:23:17Z</time></trkpt><trkpt lat="44.066249341479065" lon="12.408704982423034"><ele>40.0</ele><time>2026-05-02T15:23:19Z</time></trkpt><trkpt lat="44.06629093841812" lon="12.408832019630184"><ele>40.0</ele><time>2026-05-02T15:23:21Z</time></trkpt><trkpt lat="44.06633203882349" lon="12.408971750702595"><ele>39.8</ele><time>2026-05-02T15:23:23Z</time></trkpt><trkpt lat="44.066355359464254" lon="12.409113631247061"><ele>39.6</ele><time>2026-05-02T15:23:25Z</time></trkpt><trkpt lat="44.066384001651144" lon="12.409254965817635"><ele>39.4</ele><time>2026-05-02T15:23:27Z</time></trkpt><trkpt lat="44.0664064519919" lon="12.409397827003845"><ele>39.2</ele><time>2026-05-02T15:23:29Z</time></trkpt><trkpt lat="44.06642914400093" lon="12.409540985989056"><ele>39.0</ele><time>2026-05-02T15:23:31Z</time></trkpt><trkpt lat="44.066447876969995" lon="12.40968307056027"><ele>38.8</ele><time>2026-05-02T15:23:33Z</time></trkpt><trkpt lat="44.066468116961566" lon="12.409827879183982"><ele>38.599999999999994</ele><time>2026-05-02T15:23:35Z</time></trkpt><trkpt lat="44.06647224899231" lon="12.40997255242357"><ele>38.4</ele><time>2026-05-02T15:23:37Z</time></trkpt><trkpt lat="44.06648620492502" lon="12.410121024121944"><ele>38.199999999999996</ele><time>2026-05-02T15:23:39Z</time></trkpt><trkpt lat="44.06648521679743" lon="12.410263111986268"><ele>38.0</ele><time>2026-05-02T15:23:41Z</time></trkpt><trkpt lat="44.06648882511768" lon="12.41040721468069"><ele>38.0</ele><time>2026-05-02T15:23:43Z</time></trkpt><trkpt lat="44.0664984173082" lon="12.410549754867853"><ele>38.0</ele><time>2026-05-02T15:23:45Z</time></trkpt><trkpt lat="44.0664961654846" lon="12.410698137101377"><ele>38.0</ele><time>2026-05-02T15:23:47Z</time></trkpt><trkpt lat="44.06649028170549" lon="12.410837488006868"><ele>38.0</ele><time>2026-05-02T15:23:49Z</time></trkpt><trkpt lat="44.06648756370784" lon="12.410972749154398"><ele>38.0</ele><time>2026-05-02T15:23:51Z</time></trkpt><trkpt lat="44.06648265522624" lon="12.411111411102631"><ele>38.0</ele><time>2026-05-02T15:23:53Z</time></trkpt><trkpt lat="44.06647758336869" lon="12.411243412805101"><ele>38.0</ele><time>2026-05-02T15:23:55Z</time></trkpt><trkpt lat="44.066465498100115" lon="12.411370182320562"><ele>38.0</ele><time>2026-05-02T15:23:57Z</time></trkpt><trkpt lat="44.06645690202852" lon="12.411511259061742"><ele>38.0</ele><time>2026-05-02T15:23:59Z</time></trkpt><trkpt lat="44.0664477944523" lon="12.411646987374928"><ele>38.0</ele><time>2026-05-02T15:24:01Z</time></trkpt><trkpt lat="44.06643902608699" lon="12.411785477963786"><ele>38.0</ele><time>2026-05-02T15:24:03Z</time></trkpt><trkpt lat="44.0664312313286" lon="12.411924360178341"><ele>38.0</ele><time>2026-05-02T15:24:05Z</time></trkpt><trkpt lat="44.06642609046721" lon="12.412058620099254"><ele>38.0</ele><time>2026-05-02T15:24:07Z</time></trkpt><trkpt lat="44.066421034866465" lon="12.412192148355476"><ele>38.0</ele><time>2026-05-02T15:24:09Z</time></trkpt><trkpt lat="44.06641242543311" lon="12.41233009786491"><ele>38.0</ele><time>2026-05-02T15:24:11Z</time></trkpt><trkpt lat="44.0664080710291" lon="12.412469681701362"><ele>38.0</ele><time>2026-05-02T15:24:13Z</time></trkpt><trkpt lat="44.066398949542" lon="12.412604690738053"><ele>38.0</ele><time>2026-05-02T15:24:15Z</time></trkpt><trkpt lat="44.06639241303232" lon="12.412737714923287"><ele>38.0</ele><time>2026-05-02T15:24:17Z</time></trkpt><trkpt lat="44.06638637214019" lon="12.412866570077632"><ele>38.0</ele><time>2026-05-02T15:24:19Z</time></trkpt><trkpt lat="44.06637809232714" lon="12.41299411307784"><ele>38.0</ele><time>2026-05-02T15:24:21Z</time></trkpt><trkpt lat="44.06638033907221" lon="12.413117406881298"><ele>38.0</ele><time>2026-05-02T15:24:23Z</time></trkpt><trkpt lat="44.066374741415494" lon="12.413239448790756"><ele>38.0</ele><time>2026-05-02T15:24:25Z</time></trkpt><trkpt lat="44.06636568230478" lon="12.413362383113938"><ele>38.0</ele><time>2026-05-02T15:24:27Z</time></trkpt><trkpt lat="44.06636369163657" lon="12.41348412516894"><ele>38.0</ele><time>2026-05-02T15:24:29Z</time></trkpt><trkpt lat="44.06635579857399" lon="12.413607518564664"><ele>38.0</ele><time>2026-05-02T15:24:31Z</time></trkpt><trkpt lat="44.06634917375363" lon="12.413735244372063"><ele>38.0</ele><time>2026-05-02T15:24:33Z</time></trkpt><trkpt lat="44.066368969129556" lon="12.41385404015204"><ele>38.0</ele><time>2026-05-02T15:24:35Z</time></trkpt><trkpt lat="44.06642962630057" lon="12.413945746159833"><ele>38.0</ele><time>2026-05-02T15:24:37Z</time></trkpt><trkpt lat="44.06653025940957" lon="12.413967807437231"><ele>38.0</ele><time>2026-05-02T15:24:39Z</time></trkpt><trkpt lat="44.066627528840336" lon="12.413989465531515"><ele>38.0</ele><time>2026-05-02T15:24:41Z</time></trkpt><trkpt lat="44.06672544143291" lon="12.414023094096992"><ele>38.0</ele><time>2026-05-02T15:24:43Z</time></trkpt><trkpt lat="44.066809238898834" lon="12.414097448534724"><ele>37.6</ele><time>2026-05-02T15:24:45Z</time></trkpt><trkpt lat="44.06685665087819" lon="12.41422248476318"><ele>37.199999999999996</ele><time>2026-05-02T15:24:47Z</time></trkpt><trkpt lat="44.06687619088633" lon="12.414358447172482"><ele>36.8</ele><time>2026-05-02T15:24:49Z</time></trkpt><trkpt lat="44.06688350571879" lon="12.4144907514162"><ele>36.4</ele><time>2026-05-02T15:24:51Z</time></trkpt><trkpt lat="44.066901696265" lon="12.41462095740527"><ele>36.0</ele><time>2026-05-02T15:24:53Z</time></trkpt><trkpt lat="44.0669162100325" lon="12.41475042941867"><ele>36.0</ele><time>2026-05-02T15:24:55Z</time></trkpt><trkpt lat="44.066932204583544" lon="12.414872876771373"><ele>36.0</ele><time>2026-05-02T15:24:57Z</time></trkpt><trkpt lat="44.06693461113666" lon="12.414992615291853"><ele>36.0</ele><time>2026-05-02T15:24:59Z</time></trkpt><trkpt lat="44.06686799243605" lon="12.415085860194669"><ele>36.0</ele><time>2026-05-02T15:25:01Z</time></trkpt><trkpt lat="44.066815089463006" lon="12.415157373378378"><ele>36.0</ele><time>2026-05-02T15:25:03Z</time></trkpt><trkpt lat="44.066789809421714" lon="12.415255573928718"><ele>36.0</ele><time>2026-05-02T15:25:05Z</time></trkpt><trkpt lat="44.06674579870779" lon="12.415340801541019"><ele>36.0</ele><time>2026-05-02T15:25:07Z</time></trkpt><trkpt lat="44.066696559661594" lon="12.415428567600713"><ele>36.0</ele><time>2026-05-02T15:25:09Z</time></trkpt><trkpt lat="44.06664978546294" lon="12.41552651889323"><ele>36.0</ele><time>2026-05-02T15:25:11Z</time></trkpt><trkpt lat="44.06660506232793" lon="12.415618150390541"><ele>36.0</ele><time>2026-05-02T15:25:13Z</time></trkpt><trkpt lat="44.06656463488823" lon="12.41572085520335"><ele>36.0</ele><time>2026-05-02T15:25:15Z</time></trkpt><trkpt lat="44.066536705188064" lon="12.415830758300666"><ele>36.0</ele><time>2026-05-02T15:25:17Z</time></trkpt><trkpt lat="44.0665017875445" lon="12.415924843441685"><ele>36.333333333333336</ele><time>2026-05-02T15:25:19Z</time></trkpt><trkpt lat="44.06647145157742" lon="12.416020599584355"><ele>36.666666666666664</ele><time>2026-05-02T15:25:21Z</time></trkpt><trkpt lat="44.06643806692671" lon="12.416107361058652"><ele>37.0</ele><time>2026-05-02T15:25:23Z</time></trkpt><trkpt lat="44.06640877923301" lon="12.41618765471796"><ele>37.33333333333333</ele><time>2026-05-02T15:25:25Z</time></trkpt><trkpt lat="44.066387592238485" lon="12.41627389367614"><ele>37.666666666666664</ele><time>2026-05-02T15:25:27Z</time></trkpt><trkpt lat="44.06634456946411" lon="12.416391107142607"><ele>38.0</ele><time>2026-05-02T15:25:30Z</time></trkpt><trkpt lat="44.0663034622868" lon="12.41651152721783"><ele>38.0</ele><time>2026-05-02T15:25:33Z</time></trkpt><trkpt lat="44.06627849750033" lon="12.41660226771677"><ele>38.0</ele><time>2026-05-02T15:25:35Z</time></trkpt><trkpt lat="44.06624775850061" lon="12.41669006705044"><ele>38.0</ele><time>2026-05-02T15:25:37Z</time></trkpt><trkpt lat="44.066219283062836" lon="12.416784791599522"><ele>38.0</ele><time>2026-05-02T15:25:39Z</time></trkpt><trkpt lat="44.066185591307075" lon="12.41687829259158"><ele>38.0</ele><time>2026-05-02T15:25:41Z</time></trkpt><trkpt lat="44.06615666183919" lon="12.416965587413419"><ele>38.0</ele><time>2026-05-02T15:25:43Z</time></trkpt><trkpt lat="44.066135838090304" lon="12.417060655581722"><ele>38.0</ele><time>2026-05-02T15:25:45Z</time></trkpt><trkpt lat="44.06612302571327" lon="12.417166755119908"><ele>38.0</ele><time>2026-05-02T15:25:47Z</time></trkpt><trkpt lat="44.06611389671021" lon="12.417275654289467"><ele>38.0</ele><time>2026-05-02T15:25:49Z</time></trkpt><trkpt lat="44.066101681097344" lon="12.417385011697485"><ele>38.0</ele><time>2026-05-02T15:25:51Z</time></trkpt><trkpt lat="44.066068263248916" lon="12.417473275362042"><ele>38.0</ele><time>2026-05-02T15:25:53Z</time></trkpt><trkpt lat="44.0659954065828" lon="12.41752629729884"><ele>38.0</ele><time>2026-05-02T15:25:56Z</time></trkpt><trkpt lat="44.065931484197684" lon="12.417534904776184"><ele>38.0</ele><time>2026-05-02T15:25:58Z</time></trkpt><trkpt lat="44.06586335934732" lon="12.417513817418126"><ele>38.0</ele><time>2026-05-02T15:26:00Z</time></trkpt><trkpt lat="44.06579495003977" lon="12.417498748069177"><ele>38.166666666666664</ele><time>2026-05-02T15:26:02Z</time></trkpt><trkpt lat="44.06572912590452" lon="12.4174723633384"><ele>38.33333333333333</ele><time>2026-05-02T15:26:04Z</time></trkpt><trkpt lat="44.06565779044759" lon="12.417443376335276"><ele>38.5</ele><time>2026-05-02T15:26:06Z</time></trkpt><trkpt lat="44.06558629283504" lon="12.417420477233437"><ele>38.666666666666664</ele><time>2026-05-02T15:26:08Z</time></trkpt><trkpt lat="44.06551508100793" lon="12.417410244030835"><ele>38.833333333333336</ele><time>2026-05-02T15:26:10Z</time></trkpt><trkpt lat="44.06545787904684" lon="12.417492323950153"><ele>39.0</ele><time>2026-05-02T15:26:13Z</time></trkpt><trkpt lat="44.065441008927344" lon="12.417610221791403"><ele>39.0</ele><time>2026-05-02T15:26:16Z</time></trkpt><trkpt lat="44.06542827022159" lon="12.41771905957591"><ele>39.0</ele><time>2026-05-02T15:26:19Z</time></trkpt><trkpt lat="44.06541783459695" lon="12.417837429281812"><ele>39.0</ele><time>2026-05-02T15:26:22Z</time></trkpt><trkpt lat="44.06540580727704" lon="12.417964205552742"><ele>39.0</ele><time>2026-05-02T15:26:25Z</time></trkpt><trkpt lat="44.06539683833683" lon="12.418052026654038"><ele>39.0</ele><time>2026-05-02T15:26:27Z</time></trkpt><trkpt lat="44.06538273500418" lon="12.418179786752349"><ele>39.0</ele><time>2026-05-02T15:26:30Z</time></trkpt><trkpt lat="44.06537037813112" lon="12.418303216191813"><ele>39.0</ele><time>2026-05-02T15:26:33Z</time></trkpt><trkpt lat="44.06536022309858" lon="12.418424804303736"><ele>39.0</ele><time>2026-05-02T15:26:36Z</time></trkpt><trkpt lat="44.06534568356441" lon="12.418546222952788"><ele>39.0</ele><time>2026-05-02T15:26:39Z</time></trkpt><trkpt lat="44.06532912623073" lon="12.418663307133636"><ele>39.0</ele><time>2026-05-02T15:26:42Z</time></trkpt><trkpt lat="44.06534951517425" lon="12.41875818619833"><ele>39.0</ele><time>2026-05-02T15:26:44Z</time></trkpt><trkpt lat="44.06531009596131" lon="12.418861378217901"><ele>39.0</ele><time>2026-05-02T15:26:47Z</time></trkpt><trkpt lat="44.065301000525245" lon="12.418975549316457"><ele>39.0</ele><time>2026-05-02T15:26:50Z</time></trkpt><trkpt lat="44.06526681702695" lon="12.419088222714027"><ele>39.0</ele><time>2026-05-02T15:26:53Z</time></trkpt><trkpt lat="44.06526266321799" lon="12.419178138945599"><ele>39.0</ele><time>2026-05-02T15:26:55Z</time></trkpt><trkpt lat="44.06526235046849" lon="12.419301803663213"><ele>39.0</ele><time>2026-05-02T15:26:58Z</time></trkpt><trkpt lat="44.06526342257365" lon="12.419390362148906"><ele>39.0</ele><time>2026-05-02T15:27:00Z</time></trkpt><trkpt lat="44.06527829619228" lon="12.419480772790614"><ele>39.0</ele><time>2026-05-02T15:27:02Z</time></trkpt><trkpt lat="44.06527988419568" lon="12.419576572146399"><ele>39.0</ele><time>2026-05-02T15:27:04Z</time></trkpt><trkpt lat="44.06527476875741" lon="12.419678162618764"><ele>39.0</ele><time>2026-05-02T15:27:06Z</time></trkpt><trkpt lat="44.06527456928283" lon="12.419790656610104"><ele>39.0</ele><time>2026-05-02T15:27:08Z</time></trkpt><trkpt lat="44.06527593210856" lon="12.41990301510179"><ele>39.0</ele><time>2026-05-02T15:27:10Z</time></trkpt><trkpt lat="44.065274054842064" lon="12.420017953250094"><ele>39.0</ele><time>2026-05-02T15:27:12Z</time></trkpt><trkpt lat="44.06530840862224" lon="12.420117073805065"><ele>39.0</ele><time>2026-05-02T15:27:14Z</time></trkpt><trkpt lat="44.06536322272952" lon="12.420180330672672"><ele>39.0</ele><time>2026-05-02T15:27:16Z</time></trkpt><trkpt lat="44.06539909072412" lon="12.420259557133345"><ele>39.0</ele><time>2026-05-02T15:27:18Z</time></trkpt><trkpt lat="44.06530503992501" lon="12.42046805269894"><ele>39.0</ele><time>2026-05-02T15:27:20Z</time></trkpt><trkpt lat="44.06531041459357" lon="12.420580547115726"><ele>39.0</ele><time>2026-05-02T15:27:22Z</time></trkpt><trkpt lat="44.06530843315219" lon="12.420690965700395"><ele>39.0</ele><time>2026-05-02T15:27:24Z</time></trkpt><trkpt lat="44.06530896330048" lon="12.420813116373578"><ele>39.0</ele><time>2026-05-02T15:27:26Z</time></trkpt><trkpt lat="44.065314551784454" lon="12.420931472860675"><ele>38.833333333333336</ele><time>2026-05-02T15:27:28Z</time></trkpt><trkpt lat="44.065316032103226" lon="12.421038127393324"><ele>38.666666666666664</ele><time>2026-05-02T15:27:30Z</time></trkpt><trkpt lat="44.065315722476996" lon="12.421128315681925"><ele>38.5</ele><time>2026-05-02T15:27:32Z</time></trkpt><trkpt lat="44.06531922510149" lon="12.421237725024458"><ele>38.33333333333333</ele><time>2026-05-02T15:27:34Z</time></trkpt><trkpt lat="44.06532207969159" lon="12.42136176207921"><ele>38.166666666666664</ele><time>2026-05-02T15:27:36Z</time></trkpt><trkpt lat="44.06532062207305" lon="12.421462263814611"><ele>38.0</ele><time>2026-05-02T15:27:38Z</time></trkpt><trkpt lat="44.06531798697071" lon="12.42156202706179"><ele>37.83333333333333</ele><time>2026-05-02T15:27:40Z</time></trkpt><trkpt lat="44.065324269327526" lon="12.421690659979511"><ele>37.666666666666664</ele><time>2026-05-02T15:27:42Z</time></trkpt><trkpt lat="44.06532400210535" lon="12.421792628112131"><ele>37.5</ele><time>2026-05-02T15:27:44Z</time></trkpt><trkpt lat="44.06532244792119" lon="12.421889731346992"><ele>37.333333333333336</ele><time>2026-05-02T15:27:46Z</time></trkpt><trkpt lat="44.065319894933936" lon="12.421990977392003"><ele>37.16666666666667</ele><time>2026-05-02T15:27:48Z</time></trkpt><trkpt lat="44.065318539164174" lon="12.422082844148106"><ele>37.0</ele><time>2026-05-02T15:27:50Z</time></trkpt><trkpt lat="44.06531874492746" lon="12.42219144006445"><ele>37.0</ele><time>2026-05-02T15:27:52Z</time></trkpt><trkpt lat="44.0653189638291" lon="12.422296610803203"><ele>37.0</ele><time>2026-05-02T15:27:54Z</time></trkpt><trkpt lat="44.06532806298727" lon="12.422383454983558"><ele>37.0</ele><time>2026-05-02T15:27:56Z</time></trkpt><trkpt lat="44.06533364636733" lon="12.422471909842175"><ele>37.0</ele><time>2026-05-02T15:27:58Z</time></trkpt><trkpt lat="44.06534190658182" lon="12.422587557024492"><ele>37.0</ele><time>2026-05-02T15:28:00Z</time></trkpt><trkpt lat="44.06534653649016" lon="12.422689228901405"><ele>37.0</ele><time>2026-05-02T15:28:02Z</time></trkpt><trkpt lat="44.065358040129496" lon="12.42278218892258"><ele>37.0</ele><time>2026-05-02T15:28:04Z</time></trkpt><trkpt lat="44.06536849978628" lon="12.422914272232699"><ele>37.0</ele><time>2026-05-02T15:28:07Z</time></trkpt><trkpt lat="44.065384151878895" lon="12.423041890770275"><ele>37.0</ele><time>2026-05-02T15:28:10Z</time></trkpt><trkpt lat="44.0653937113135" lon="12.423132350732528"><ele>37.0</ele><time>2026-05-02T15:28:12Z</time></trkpt><trkpt lat="44.06540378281818" lon="12.423219484407857"><ele>37.0</ele><time>2026-05-02T15:28:14Z</time></trkpt><trkpt lat="44.06541042058509" lon="12.423313000584882"><ele>37.0</ele><time>2026-05-02T15:28:16Z</time></trkpt><trkpt lat="44.065419346455755" lon="12.423415896422586"><ele>37.0</ele><time>2026-05-02T15:28:18Z</time></trkpt><trkpt lat="44.065416090093294" lon="12.42351312211569"><ele>37.0</ele><time>2026-05-02T15:28:20Z</time></trkpt><trkpt lat="44.06540243870155" lon="12.42361666993146"><ele>37.0</ele><time>2026-05-02T15:28:22Z</time></trkpt><trkpt lat="44.06536758813997" lon="12.423700291518786"><ele>37.0</ele><time>2026-05-02T15:28:24Z</time></trkpt><trkpt lat="44.06529947402999" lon="12.423776369751765"><ele>37.0</ele><time>2026-05-02T15:28:27Z</time></trkpt><trkpt lat="44.06525834107917" lon="12.423853181497991"><ele>37.0</ele><time>2026-05-02T15:28:30Z</time></trkpt><trkpt lat="44.06520458783677" lon="12.423918552446105"><ele>37.0</ele><time>2026-05-02T15:28:33Z</time></trkpt><trkpt lat="44.06514908978388" lon="12.424005043179758"><ele>37.0</ele><time>2026-05-02T15:28:36Z</time></trkpt><trkpt lat="44.06509796171297" lon="12.424081445811662"><ele>36.833333333333336</ele><time>2026-05-02T15:28:39Z</time></trkpt><trkpt lat="44.06504466196477" lon="12.424166450038074"><ele>36.66666666666667</ele><time>2026-05-02T15:28:42Z</time></trkpt><trkpt lat="44.064990997186975" lon="12.424267957638339"><ele>36.5</ele><time>2026-05-02T15:28:45Z</time></trkpt><trkpt lat="44.06494203732184" lon="12.424381671061182"><ele>36.333333333333336</ele><time>2026-05-02T15:28:48Z</time></trkpt><trkpt lat="44.064907562639284" lon="12.424506332219943"><ele>36.166666666666664</ele><time>2026-05-02T15:28:51Z</time></trkpt><trkpt lat="44.06488607060545" lon="12.42459388536249"><ele>36.0</ele><time>2026-05-02T15:28:53Z</time></trkpt><trkpt lat="44.064861223625975" lon="12.424700260782945"><ele>36.28571428571429</ele><time>2026-05-02T15:28:56Z</time></trkpt><trkpt lat="44.064854484096756" lon="12.424826922662355"><ele>36.57142857142857</ele><time>2026-05-02T15:28:59Z</time></trkpt><trkpt lat="44.06484108244325" lon="12.42492378202724"><ele>36.85714285714286</ele><time>2026-05-02T15:29:01Z</time></trkpt><trkpt lat="44.06483616414278" lon="12.42502274484394"><ele>37.142857142857146</ele><time>2026-05-02T15:29:03Z</time></trkpt><trkpt lat="44.06483225663153" lon="12.425125970468795"><ele>37.42857142857143</ele><time>2026-05-02T15:29:05Z</time></trkpt><trkpt lat="44.06482851967955" lon="12.425229967678774"><ele>37.714285714285715</ele><time>2026-05-02T15:29:07Z</time></trkpt><trkpt lat="44.06482706978161" lon="12.425320470076922"><ele>38.0</ele><time>2026-05-02T15:29:09Z</time></trkpt><trkpt lat="44.064822264534975" lon="12.425439324663799"><ele>37.83333333333333</ele><time>2026-05-02T15:29:12Z</time></trkpt><trkpt lat="44.06481923306094" lon="12.425557482001672"><ele>37.666666666666664</ele><time>2026-05-02T15:29:15Z</time></trkpt><trkpt lat="44.064809816180315" lon="12.425685777649631"><ele>37.5</ele><time>2026-05-02T15:29:18Z</time></trkpt><trkpt lat="44.06480390170988" lon="12.425811153020788"><ele>37.333333333333336</ele><time>2026-05-02T15:29:21Z</time></trkpt><trkpt lat="44.06479923458484" lon="12.425922414147095"><ele>37.16666666666667</ele><time>2026-05-02T15:29:23.999Z</time></trkpt><trkpt lat="44.0647709880376" lon="12.426005969789466"><ele>37.0</ele><time>2026-05-02T15:29:25.999Z</time></trkpt><trkpt lat="44.064751410439875" lon="12.426098746027735"><ele>37.0</ele><time>2026-05-02T15:29:27.999Z</time></trkpt><trkpt lat="44.06472373028921" lon="12.426193976228191"><ele>37.0</ele><time>2026-05-02T15:29:29.999Z</time></trkpt><trkpt lat="44.06468904705323" lon="12.42629366681348"><ele>37.0</ele><time>2026-05-02T15:29:31.999Z</time></trkpt><trkpt lat="44.06465999779629" lon="12.426402695569713"><ele>37.0</ele><time>2026-05-02T15:29:33.999Z</time></trkpt><trkpt lat="44.06462311028677" lon="12.426506476933442"><ele>37.0</ele><time>2026-05-02T15:29:35.999Z</time></trkpt><trkpt lat="44.06458886220419" lon="12.426614669739976"><ele>37.0</ele><time>2026-05-02T15:29:37.999Z</time></trkpt><trkpt lat="44.064559840498454" lon="12.426715250044245"><ele>37.16666666666667</ele><time>2026-05-02T15:29:40Z</time></trkpt><trkpt lat="44.064530007201824" lon="12.426813959085269"><ele>37.333333333333336</ele><time>2026-05-02T15:29:42Z</time></trkpt><trkpt lat="44.06450031729799" lon="12.42690687785112"><ele>37.5</ele><time>2026-05-02T15:29:44Z</time></trkpt><trkpt lat="44.06446282569231" lon="12.427008391383247"><ele>37.666666666666664</ele><time>2026-05-02T15:29:46Z</time></trkpt><trkpt lat="44.06442358388931" lon="12.427098604832397"><ele>37.83333333333333</ele><time>2026-05-02T15:29:48Z</time></trkpt><trkpt lat="44.06437742094657" lon="12.42718062437324"><ele>38.0</ele><time>2026-05-02T15:29:50Z</time></trkpt><trkpt lat="44.06432860400892" lon="12.427263143968744"><ele>38.166666666666664</ele><time>2026-05-02T15:29:52Z</time></trkpt><trkpt lat="44.06427460505362" lon="12.427330093796376"><ele>38.33333333333333</ele><time>2026-05-02T15:29:54Z</time></trkpt><trkpt lat="44.06421610995683" lon="12.42739725824436"><ele>38.5</ele><time>2026-05-02T15:29:56Z</time></trkpt><trkpt lat="44.06415707116325" lon="12.427460057044486"><ele>38.666666666666664</ele><time>2026-05-02T15:29:58Z</time></trkpt><trkpt lat="44.06411213800308" lon="12.427547375505904"><ele>38.833333333333336</ele><time>2026-05-02T15:30:00Z</time></trkpt><trkpt lat="44.06409138029806" lon="12.427652515563427"><ele>39.0</ele><time>2026-05-02T15:30:02Z</time></trkpt><trkpt lat="44.06408051205048" lon="12.427762600984622"><ele>38.666666666666664</ele><time>2026-05-02T15:30:04Z</time></trkpt><trkpt lat="44.06406892457711" lon="12.427860956958249"><ele>38.333333333333336</ele><time>2026-05-02T15:30:06Z</time></trkpt><trkpt lat="44.06406211820967" lon="12.427952745974423"><ele>38.0</ele><time>2026-05-02T15:30:08Z</time></trkpt><trkpt lat="44.06404906363558" lon="12.428047481603858"><ele>37.66666666666667</ele><time>2026-05-02T15:30:10Z</time></trkpt><trkpt lat="44.064040902627205" lon="12.428137374639368"><ele>37.333333333333336</ele><time>2026-05-02T15:30:12Z</time></trkpt><trkpt lat="44.06403671950836" lon="12.428256146683093"><ele>37.0</ele><time>2026-05-02T15:30:15Z</time></trkpt><trkpt lat="44.06402536029074" lon="12.42838695615064"><ele>37.0</ele><time>2026-05-02T15:30:18Z</time></trkpt><trkpt lat="44.06401955201739" lon="12.428481980212347"><ele>37.0</ele><time>2026-05-02T15:30:20Z</time></trkpt><trkpt lat="44.06401830764805" lon="12.428576940296288"><ele>37.0</ele><time>2026-05-02T15:30:22Z</time></trkpt><trkpt lat="44.06402476255682" lon="12.428677357544137"><ele>37.0</ele><time>2026-05-02T15:30:24Z</time></trkpt><trkpt lat="44.06404394445377" lon="12.428783850608298"><ele>37.0</ele><time>2026-05-02T15:30:26Z</time></trkpt><trkpt lat="44.064056859352725" lon="12.428892275836636"><ele>37.0</ele><time>2026-05-02T15:30:28Z</time></trkpt><trkpt lat="44.064074850779576" lon="12.42900123363096"><ele>37.0</ele><time>2026-05-02T15:30:30Z</time></trkpt><trkpt lat="44.06409502118149" lon="12.42911651664155"><ele>37.0</ele><time>2026-05-02T15:30:32Z</time></trkpt><trkpt lat="44.06411153356147" lon="12.429233398691649"><ele>37.0</ele><time>2026-05-02T15:30:34Z</time></trkpt><trkpt lat="44.0641300860903" lon="12.429355597132597"><ele>37.0</ele><time>2026-05-02T15:30:36Z</time></trkpt><trkpt lat="44.06414620277222" lon="12.429460984014582"><ele>37.0</ele><time>2026-05-02T15:30:38Z</time></trkpt><trkpt lat="44.06416723085417" lon="12.429549748537775"><ele>37.0</ele><time>2026-05-02T15:30:40Z</time></trkpt><trkpt lat="44.06417569406129" lon="12.429646293501722"><ele>37.0</ele><time>2026-05-02T15:30:42Z</time></trkpt><trkpt lat="44.06418873479954" lon="12.429737346343343"><ele>36.85714285714286</ele><time>2026-05-02T15:30:44Z</time></trkpt><trkpt lat="44.0641991672433" lon="12.42983831429957"><ele>36.714285714285715</ele><time>2026-05-02T15:30:46Z</time></trkpt><trkpt lat="44.06421829988258" lon="12.429941730386162"><ele>36.57142857142857</ele><time>2026-05-02T15:30:48Z</time></trkpt><trkpt lat="44.06422858295094" lon="12.43004129748868"><ele>36.42857142857143</ele><time>2026-05-02T15:30:50Z</time></trkpt><trkpt lat="44.0642448873666" lon="12.430135316122422"><ele>36.285714285714285</ele><time>2026-05-02T15:30:52Z</time></trkpt><trkpt lat="44.0642519751087" lon="12.430228100903875"><ele>36.142857142857146</ele><time>2026-05-02T15:30:54Z</time></trkpt><trkpt lat="44.06426553386697" lon="12.430320765774981"><ele>36.0</ele><time>2026-05-02T15:30:56Z</time></trkpt><trkpt lat="44.06429350676929" lon="12.430452938685447"><ele>36.333333333333336</ele><time>2026-05-02T15:30:59Z</time></trkpt><trkpt lat="44.06431084991813" lon="12.430553430588663"><ele>36.666666666666664</ele><time>2026-05-02T15:31:01Z</time></trkpt><trkpt lat="44.064337139918" lon="12.430649327259907"><ele>37.0</ele><time>2026-05-02T15:31:03Z</time></trkpt><trkpt lat="44.064354334317244" lon="12.430755923734568"><ele>37.33333333333333</ele><time>2026-05-02T15:31:05Z</time></trkpt><trkpt lat="44.06437190373419" lon="12.430860428995326"><ele>37.666666666666664</ele><time>2026-05-02T15:31:07Z</time></trkpt><trkpt lat="44.064397480177476" lon="12.430973868098468"><ele>38.0</ele><time>2026-05-02T15:31:09Z</time></trkpt><trkpt lat="44.06441848152994" lon="12.431089114158963"><ele>38.0</ele><time>2026-05-02T15:31:11Z</time></trkpt><trkpt lat="44.06443710070756" lon="12.431198368940766"><ele>38.0</ele><time>2026-05-02T15:31:13Z</time></trkpt><trkpt lat="44.06445322270172" lon="12.431312971191392"><ele>38.0</ele><time>2026-05-02T15:31:15Z</time></trkpt><trkpt lat="44.064472302074975" lon="12.43143193980628"><ele>38.0</ele><time>2026-05-02T15:31:17Z</time></trkpt><trkpt lat="44.06449403353023" lon="12.431546914056538"><ele>38.0</ele><time>2026-05-02T15:31:19Z</time></trkpt><trkpt lat="44.06451019702309" lon="12.431660947672635"><ele>38.0</ele><time>2026-05-02T15:31:21Z</time></trkpt><trkpt lat="44.06453534490037" lon="12.431768987957303"><ele>38.166666666666664</ele><time>2026-05-02T15:31:23Z</time></trkpt><trkpt lat="44.06455053376146" lon="12.431881679343103"><ele>38.33333333333333</ele><time>2026-05-02T15:31:25Z</time></trkpt><trkpt lat="44.064567072340864" lon="12.431992422335728"><ele>38.5</ele><time>2026-05-02T15:31:27Z</time></trkpt><trkpt lat="44.0645972570831" lon="12.432097263521532"><ele>38.666666666666664</ele><time>2026-05-02T15:31:28.999Z</time></trkpt><trkpt lat="44.06461648281786" lon="12.432206836973728"><ele>38.833333333333336</ele><time>2026-05-02T15:31:30.999Z</time></trkpt><trkpt lat="44.06463198322862" lon="12.432313575107205"><ele>39.0</ele><time>2026-05-02T15:31:32.999Z</time></trkpt><trkpt lat="44.06464740063177" lon="12.432422226384551"><ele>38.833333333333336</ele><time>2026-05-02T15:31:34.999Z</time></trkpt><trkpt lat="44.06466426018108" lon="12.432530424928613"><ele>38.666666666666664</ele><time>2026-05-02T15:31:36.999Z</time></trkpt><trkpt lat="44.06467748576279" lon="12.43263975903327"><ele>38.5</ele><time>2026-05-02T15:31:38.999Z</time></trkpt><trkpt lat="44.06468897749586" lon="12.432742573053417"><ele>38.33333333333333</ele><time>2026-05-02T15:31:40.999Z</time></trkpt><trkpt lat="44.064708923092866" lon="12.43284663350629"><ele>38.166666666666664</ele><time>2026-05-02T15:31:42.999Z</time></trkpt><trkpt lat="44.06473119978198" lon="12.432950713878242"><ele>38.0</ele><time>2026-05-02T15:31:45Z</time></trkpt><trkpt lat="44.06474834772858" lon="12.433054496889737"><ele>38.0</ele><time>2026-05-02T15:31:47Z</time></trkpt><trkpt lat="44.06476712134974" lon="12.433151278574508"><ele>38.0</ele><time>2026-05-02T15:31:49Z</time></trkpt><trkpt lat="44.06480178949073" lon="12.433264142879931"><ele>38.0</ele><time>2026-05-02T15:31:52Z</time></trkpt><trkpt lat="44.06484006921019" lon="12.433383147917377"><ele>38.0</ele><time>2026-05-02T15:31:55Z</time></trkpt><trkpt lat="44.06488431251483" lon="12.433460465275896"><ele>38.0</ele><time>2026-05-02T15:31:57Z</time></trkpt><trkpt lat="44.06494894569709" lon="12.433518247998336"><ele>38.0</ele><time>2026-05-02T15:31:59Z</time></trkpt><trkpt lat="44.06501943806141" lon="12.43357679404746"><ele>38.0</ele><time>2026-05-02T15:32:01Z</time></trkpt><trkpt lat="44.06509312988619" lon="12.433641802709229"><ele>38.0</ele><time>2026-05-02T15:32:03Z</time></trkpt><trkpt lat="44.06516686653314" lon="12.433704771086575"><ele>38.0</ele><time>2026-05-02T15:32:05Z</time></trkpt><trkpt lat="44.06523808204526" lon="12.43376706114443"><ele>38.0</ele><time>2026-05-02T15:32:07Z</time></trkpt><trkpt lat="44.065311534672425" lon="12.433843491687561"><ele>38.0</ele><time>2026-05-02T15:32:09Z</time></trkpt><trkpt lat="44.06538216201731" lon="12.433921490709578"><ele>38.0</ele><time>2026-05-02T15:32:11Z</time></trkpt><trkpt lat="44.06546059003758" lon="12.433987025298384"><ele>38.0</ele><time>2026-05-02T15:32:13Z</time></trkpt><trkpt lat="44.065544293370706" lon="12.434057887790788"><ele>38.0</ele><time>2026-05-02T15:32:15Z</time></trkpt><trkpt lat="44.065626085516996" lon="12.434124850447406"><ele>38.0</ele><time>2026-05-02T15:32:17Z</time></trkpt><trkpt lat="44.065703156944856" lon="12.434203528124632"><ele>38.0</ele><time>2026-05-02T15:32:19Z</time></trkpt><trkpt lat="44.06578054900877" lon="12.434271894162572"><ele>38.0</ele><time>2026-05-02T15:32:21Z</time></trkpt><trkpt lat="44.06585482457205" lon="12.434331463873757"><ele>38.0</ele><time>2026-05-02T15:32:23Z</time></trkpt><trkpt lat="44.065922636111594" lon="12.43438641265314"><ele>38.0</ele><time>2026-05-02T15:32:25Z</time></trkpt><trkpt lat="44.065994540059606" lon="12.434447906729329"><ele>38.0</ele><time>2026-05-02T15:32:27Z</time></trkpt><trkpt lat="44.066065704203126" lon="12.434512119817885"><ele>38.0</ele><time>2026-05-02T15:32:29Z</time></trkpt><trkpt lat="44.06614543214925" lon="12.434571432881382"><ele>38.0</ele><time>2026-05-02T15:32:31Z</time></trkpt><trkpt lat="44.06621594103405" lon="12.434631934181146"><ele>38.0</ele><time>2026-05-02T15:32:33Z</time></trkpt><trkpt lat="44.066286406638504" lon="12.434687308138994"><ele>38.0</ele><time>2026-05-02T15:32:35Z</time></trkpt><trkpt lat="44.06635055116953" lon="12.434743889396012"><ele>38.0</ele><time>2026-05-02T15:32:37Z</time></trkpt><trkpt lat="44.066411566869505" lon="12.43479991332402"><ele>38.0</ele><time>2026-05-02T15:32:39Z</time></trkpt><trkpt lat="44.06647633548134" lon="12.434858823695201"><ele>38.0</ele><time>2026-05-02T15:32:41Z</time></trkpt><trkpt lat="44.066545398061784" lon="12.434921831097519"><ele>38.0</ele><time>2026-05-02T15:32:43Z</time></trkpt><trkpt lat="44.066617711496704" lon="12.434977421928522"><ele>38.0</ele><time>2026-05-02T15:32:45Z</time></trkpt><trkpt lat="44.06669295446433" lon="12.4350419633283"><ele>38.0</ele><time>2026-05-02T15:32:47Z</time></trkpt><trkpt lat="44.06676165457762" lon="12.43510563071703"><ele>38.0</ele><time>2026-05-02T15:32:49Z</time></trkpt><trkpt lat="44.066832968416065" lon="12.435158982453537"><ele>38.0</ele><time>2026-05-02T15:32:51Z</time></trkpt><trkpt lat="44.066899422751504" lon="12.435224468433908"><ele>38.0</ele><time>2026-05-02T15:32:53Z</time></trkpt><trkpt lat="44.06696825792726" lon="12.435276609848493"><ele>38.0</ele><time>2026-05-02T15:32:55Z</time></trkpt><trkpt lat="44.06703690260016" lon="12.43533192794015"><ele>38.0</ele><time>2026-05-02T15:32:57Z</time></trkpt><trkpt lat="44.06709981809511" lon="12.43538422649918"><ele>38.0</ele><time>2026-05-02T15:32:59Z</time></trkpt><trkpt lat="44.067167483637725" lon="12.43542900282245"><ele>38.0</ele><time>2026-05-02T15:33:01Z</time></trkpt><trkpt lat="44.067227883812286" lon="12.435482428749532"><ele>38.0</ele><time>2026-05-02T15:33:03Z</time></trkpt><trkpt lat="44.06726626196708" lon="12.435569882119978"><ele>38.0</ele><time>2026-05-02T15:33:05Z</time></trkpt><trkpt lat="44.06724722632273" lon="12.435673267167655"><ele>38.0</ele><time>2026-05-02T15:33:07Z</time></trkpt><trkpt lat="44.0672070108895" lon="12.43576378055156"><ele>38.0</ele><time>2026-05-02T15:33:09Z</time></trkpt><trkpt lat="44.067174709525084" lon="12.435867908435531"><ele>38.0</ele><time>2026-05-02T15:33:11Z</time></trkpt><trkpt lat="44.06714751136282" lon="12.435953987104531"><ele>38.0</ele><time>2026-05-02T15:33:13Z</time></trkpt><trkpt lat="44.067111304919344" lon="12.43605392735618"><ele>38.0</ele><time>2026-05-02T15:33:15Z</time></trkpt><trkpt lat="44.0670705499642" lon="12.43614439557168"><ele>38.0</ele><time>2026-05-02T15:33:17Z</time></trkpt><trkpt lat="44.067038649230994" lon="12.4362304884421"><ele>38.0</ele><time>2026-05-02T15:33:19Z</time></trkpt><trkpt lat="44.06700856473635" lon="12.436342356250847"><ele>38.0</ele><time>2026-05-02T15:33:21Z</time></trkpt><trkpt lat="44.066972661772766" lon="12.43645335047412"><ele>38.0</ele><time>2026-05-02T15:33:23Z</time></trkpt><trkpt lat="44.06691984839354" lon="12.43655772684512"><ele>38.0</ele><time>2026-05-02T15:33:25Z</time></trkpt><trkpt lat="44.06687443698296" lon="12.436666804516125"><ele>38.0</ele><time>2026-05-02T15:33:27Z</time></trkpt><trkpt lat="44.06682763205266" lon="12.436775809411474"><ele>38.0</ele><time>2026-05-02T15:33:29Z</time></trkpt><trkpt lat="44.06677928679845" lon="12.436882343234341"><ele>38.0</ele><time>2026-05-02T15:33:31Z</time></trkpt><trkpt lat="44.06672413570508" lon="12.436980454449115"><ele>38.0</ele><time>2026-05-02T15:33:33Z</time></trkpt><trkpt lat="44.06667381224759" lon="12.437088760379554"><ele>38.0</ele><time>2026-05-02T15:33:34.999Z</time></trkpt><trkpt lat="44.066624615028" lon="12.43719183283314"><ele>38.0</ele><time>2026-05-02T15:33:36.999Z</time></trkpt><trkpt lat="44.06658326153526" lon="12.437312258685209"><ele>38.0</ele><time>2026-05-02T15:33:38.999Z</time></trkpt><trkpt lat="44.06654011910948" lon="12.437434481020299"><ele>38.0</ele><time>2026-05-02T15:33:40.999Z</time></trkpt><trkpt lat="44.06649738524968" lon="12.437551291522349"><ele>37.83333333333333</ele><time>2026-05-02T15:33:42.999Z</time></trkpt><trkpt lat="44.06646167911856" lon="12.437665578434192"><ele>37.666666666666664</ele><time>2026-05-02T15:33:44.999Z</time></trkpt><trkpt lat="44.066426301460666" lon="12.437776196180486"><ele>37.5</ele><time>2026-05-02T15:33:46.999Z</time></trkpt><trkpt lat="44.066386896564595" lon="12.437892442014153"><ele>37.333333333333336</ele><time>2026-05-02T15:33:48.999Z</time></trkpt><trkpt lat="44.0663523459233" lon="12.438002670157148"><ele>37.16666666666667</ele><time>2026-05-02T15:33:51Z</time></trkpt><trkpt lat="44.06631835525435" lon="12.438111327956848"><ele>37.0</ele><time>2026-05-02T15:33:53Z</time></trkpt><trkpt lat="44.06630578848175" lon="12.438218542406192"><ele>37.0</ele><time>2026-05-02T15:33:55Z</time></trkpt><trkpt lat="44.0662900358108" lon="12.438330130666175"><ele>37.0</ele><time>2026-05-02T15:33:58Z</time></trkpt><trkpt lat="44.06629146756819" lon="12.438424126928888"><ele>37.0</ele><time>2026-05-02T15:34:01Z</time></trkpt><trkpt lat="44.06627688549923" lon="12.43830960663734"><ele>37.0</ele><time>2026-05-02T15:34:15Z</time></trkpt><trkpt lat="44.066225249017435" lon="12.438226755696496"><ele>37.0</ele><time>2026-05-02T15:34:19Z</time></trkpt><trkpt lat="44.06615625787116" lon="12.43818836064427"><ele>37.0</ele><time>2026-05-02T15:34:22Z</time></trkpt><trkpt lat="44.066116615818885" lon="12.43809462511268"><ele>37.0</ele><time>2026-05-02T15:34:25Z</time></trkpt><trkpt lat="44.06607328722287" lon="12.438007992819267"><ele>37.0</ele><time>2026-05-02T15:34:27Z</time></trkpt><trkpt lat="44.06601771746277" lon="12.437873415962661"><ele>37.0</ele><time>2026-05-02T15:34:29Z</time></trkpt><trkpt lat="44.06598409103651" lon="12.437791248669457"><ele>37.0</ele><time>2026-05-02T15:34:30Z</time></trkpt><trkpt lat="44.065943836340594" lon="12.437716764485938"><ele>37.0</ele><time>2026-05-02T15:34:31Z</time></trkpt><trkpt lat="44.06586090560309" lon="12.437617067699975"><ele>37.0</ele><time>2026-05-02T15:34:33Z</time></trkpt><trkpt lat="44.06578407319085" lon="12.437562931913511"><ele>36.833333333333336</ele><time>2026-05-02T15:34:35Z</time></trkpt><trkpt lat="44.06573913322153" lon="12.43748894755263"><ele>36.66666666666667</ele><time>2026-05-02T15:34:36Z</time></trkpt><trkpt lat="44.06565502897838" lon="12.43740702260221"><ele>36.5</ele><time>2026-05-02T15:34:38Z</time></trkpt><trkpt lat="44.06556954750942" lon="12.437347975414582"><ele>36.333333333333336</ele><time>2026-05-02T15:34:40Z</time></trkpt><trkpt lat="44.06549905534837" lon="12.437274639446539"><ele>36.166666666666664</ele><time>2026-05-02T15:34:42Z</time></trkpt><trkpt lat="44.06542679313313" lon="12.4372144600196"><ele>36.0</ele><time>2026-05-02T15:34:44Z</time></trkpt><trkpt lat="44.065366582268794" lon="12.43717704826581"><ele>36.0</ele><time>2026-05-02T15:34:46Z</time></trkpt><trkpt lat="44.06530089198366" lon="12.437141572136731"><ele>36.0</ele><time>2026-05-02T15:34:48Z</time></trkpt><trkpt lat="44.06524021827198" lon="12.437102525874822"><ele>36.0</ele><time>2026-05-02T15:34:50Z</time></trkpt><trkpt lat="44.065167142176264" lon="12.437065124379824"><ele>36.0</ele><time>2026-05-02T15:34:52Z</time></trkpt><trkpt lat="44.065088449668075" lon="12.437022091134091"><ele>36.0</ele><time>2026-05-02T15:34:54Z</time></trkpt><trkpt lat="44.06500936586976" lon="12.436977333462108"><ele>36.0</ele><time>2026-05-02T15:34:56Z</time></trkpt><trkpt lat="44.06492845835667" lon="12.436937651579798"><ele>36.333333333333336</ele><time>2026-05-02T15:34:58Z</time></trkpt><trkpt lat="44.06485158253757" lon="12.43690509237838"><ele>36.666666666666664</ele><time>2026-05-02T15:35:00Z</time></trkpt><trkpt lat="44.06477593108418" lon="12.436870503206784"><ele>37.0</ele><time>2026-05-02T15:35:02Z</time></trkpt><trkpt lat="44.06470377800687" lon="12.436841347483565"><ele>37.33333333333333</ele><time>2026-05-02T15:35:04Z</time></trkpt><trkpt lat="44.06462475057629" lon="12.436824376806525"><ele>37.666666666666664</ele><time>2026-05-02T15:35:06Z</time></trkpt><trkpt lat="44.064552442203414" lon="12.436791873775087"><ele>38.0</ele><time>2026-05-02T15:35:08Z</time></trkpt><trkpt lat="44.06448104947659" lon="12.436770921711405"><ele>38.0</ele><time>2026-05-02T15:35:10Z</time></trkpt><trkpt lat="44.06440367362082" lon="12.436745765968045"><ele>38.0</ele><time>2026-05-02T15:35:12Z</time></trkpt><trkpt lat="44.06432776623452" lon="12.436715269555922"><ele>38.0</ele><time>2026-05-02T15:35:14Z</time></trkpt><trkpt lat="44.06425344159356" lon="12.436694137170848"><ele>38.0</ele><time>2026-05-02T15:35:16Z</time></trkpt><trkpt lat="44.06417497371862" lon="12.436669561634522"><ele>38.0</ele><time>2026-05-02T15:35:18Z</time></trkpt><trkpt lat="44.064089226096655" lon="12.436629973036723"><ele>38.0</ele><time>2026-05-02T15:35:20Z</time></trkpt><trkpt lat="44.06400386168791" lon="12.43659381236535"><ele>37.83333333333333</ele><time>2026-05-02T15:35:22Z</time></trkpt><trkpt lat="44.0639332341737" lon="12.43654862682022"><ele>37.666666666666664</ele><time>2026-05-02T15:35:24Z</time></trkpt><trkpt lat="44.06386026245518" lon="12.436524668460777"><ele>37.5</ele><time>2026-05-02T15:35:26Z</time></trkpt><trkpt lat="44.06377810842419" lon="12.436516819549226"><ele>37.333333333333336</ele><time>2026-05-02T15:35:28Z</time></trkpt><trkpt lat="44.063697769023115" lon="12.43651829829336"><ele>37.16666666666667</ele><time>2026-05-02T15:35:30Z</time></trkpt><trkpt lat="44.06362853734377" lon="12.43649322971417"><ele>37.0</ele><time>2026-05-02T15:35:32Z</time></trkpt><trkpt lat="44.06355021659876" lon="12.43647149559616"><ele>37.0</ele><time>2026-05-02T15:35:33.999Z</time></trkpt><trkpt lat="44.0634844080294" lon="12.43648997724064"><ele>37.0</ele><time>2026-05-02T15:35:35.999Z</time></trkpt><trkpt lat="44.06342833589775" lon="12.43656056451153"><ele>37.0</ele><time>2026-05-02T15:35:38.999Z</time></trkpt><trkpt lat="44.06340987240913" lon="12.4366658915093"><ele>37.0</ele><time>2026-05-02T15:35:41.999Z</time></trkpt><trkpt lat="44.06337023342999" lon="12.436765300451608"><ele>37.0</ele><time>2026-05-02T15:35:44.999Z</time></trkpt><trkpt lat="44.06333774601259" lon="12.436878138244138"><ele>37.0</ele><time>2026-05-02T15:35:48.999Z</time></trkpt><trkpt lat="44.063350599560785" lon="12.436983463428275"><ele>37.0</ele><time>2026-05-02T15:35:51.999Z</time></trkpt><trkpt lat="44.06335609820292" lon="12.437087138206444"><ele>37.0</ele><time>2026-05-02T15:35:57Z</time></trkpt><trkpt lat="44.06336992533515" lon="12.437183890204315"><ele>37.0</ele><time>2026-05-02T15:36:03Z</time></trkpt><trkpt lat="44.06342108920917" lon="12.437268439761192"><ele>37.0</ele><time>2026-05-02T15:36:07Z</time></trkpt><trkpt lat="44.063478567914714" lon="12.4373326578802"><ele>37.0</ele><time>2026-05-02T15:36:11Z</time></trkpt><trkpt lat="44.063539628239695" lon="12.437377267300985"><ele>37.0</ele><time>2026-05-02T15:36:14Z</time></trkpt><trkpt lat="44.063590634257814" lon="12.437432016004642"><ele>37.0</ele><time>2026-05-02T15:36:16Z</time></trkpt><trkpt lat="44.063637067501816" lon="12.437502088963651"><ele>37.142857142857146</ele><time>2026-05-02T15:36:18Z</time></trkpt><trkpt lat="44.06366983630987" lon="12.437585905732854"><ele>37.285714285714285</ele><time>2026-05-02T15:36:21Z</time></trkpt><trkpt lat="44.063673808470526" lon="12.43768972343793"><ele>37.42857142857143</ele><time>2026-05-02T15:36:26Z</time></trkpt><trkpt lat="44.063661495206354" lon="12.437787645736405"><ele>37.57142857142857</ele><time>2026-05-02T15:36:34Z</time></trkpt><trkpt lat="44.06362100742741" lon="12.437865922543375"><ele>37.714285714285715</ele><time>2026-05-02T15:36:40Z</time></trkpt><trkpt lat="44.063586328071224" lon="12.43794054333711"><ele>37.857142857142854</ele><time>2026-05-02T15:36:46Z</time></trkpt><trkpt lat="44.06355682445896" lon="12.438031306581793"><ele>38.0</ele><time>2026-05-02T15:36:53Z</time></trkpt><trkpt lat="44.06351837244677" lon="12.438109950875633"><ele>39.42857142857142</ele><time>2026-05-02T15:36:59Z</time></trkpt><trkpt lat="44.06347550463688" lon="12.438179151228015"><ele>40.85714285714286</ele><time>2026-05-02T15:37:04Z</time></trkpt><trkpt lat="44.06341907187742" lon="12.438229542198702"><ele>42.285714285714285</ele><time>2026-05-02T15:37:10Z</time></trkpt><trkpt lat="44.063361765545416" lon="12.438300375542058"><ele>43.71428571428571</ele><time>2026-05-02T15:37:17Z</time></trkpt><trkpt lat="44.06330441260503" lon="12.438354507939009"><ele>45.14285714285714</ele><time>2026-05-02T15:37:23Z</time></trkpt><trkpt lat="44.06323717174836" lon="12.438397836898089"><ele>46.57142857142857</ele><time>2026-05-02T15:37:30Z</time></trkpt><trkpt lat="44.063183723421126" lon="12.438460081936483"><ele>48.0</ele><time>2026-05-02T15:37:36.999Z</time></trkpt><trkpt lat="44.063123652820245" lon="12.438494849948466"><ele>49.857142857142854</ele><time>2026-05-02T15:37:42.999Z</time></trkpt><trkpt lat="44.06306156515019" lon="12.438528216021096"><ele>51.71428571428571</ele><time>2026-05-02T15:37:49.999Z</time></trkpt><trkpt lat="44.063004360778926" lon="12.438569306701007"><ele>53.57142857142857</ele><time>2026-05-02T15:37:54.999Z</time></trkpt><trkpt lat="44.0629732504393" lon="12.43865995212356"><ele>55.42857142857142</ele><time>2026-05-02T15:38:04Z</time></trkpt><trkpt lat="44.062980648851216" lon="12.43874989794436"><ele>57.285714285714285</ele><time>2026-05-02T15:38:10Z</time></trkpt><trkpt lat="44.06300654648891" lon="12.438841279035007"><ele>59.14285714285713</ele><time>2026-05-02T15:38:16Z</time></trkpt><trkpt lat="44.06301010425687" lon="12.438931353417466"><ele>60.99999999999999</ele><time>2026-05-02T15:38:21Z</time></trkpt><trkpt lat="44.063001793569875" lon="12.439032809160581"><ele>61.99999999999999</ele><time>2026-05-02T15:38:27Z</time></trkpt><trkpt lat="44.06299146619985" lon="12.439124815863764"><ele>63.0</ele><time>2026-05-02T15:38:33Z</time></trkpt><trkpt lat="44.06295864929925" lon="12.439211847381268"><ele>63.99999999999999</ele><time>2026-05-02T15:38:39Z</time></trkpt><trkpt lat="44.06292041520387" lon="12.439295434634161"><ele>65.0</ele><time>2026-05-02T15:38:45Z</time></trkpt><trkpt lat="44.062884624148964" lon="12.439367600670773"><ele>66.0</ele><time>2026-05-02T15:38:50Z</time></trkpt><trkpt lat="44.06284153964204" lon="12.439445941261528"><ele>66.99999999999999</ele><time>2026-05-02T15:38:57Z</time></trkpt><trkpt lat="44.062811260690864" lon="12.439537721174423"><ele>68.0</ele><time>2026-05-02T15:39:05Z</time></trkpt><trkpt lat="44.06279107842021" lon="12.43962890824204"><ele>67.85714285714285</ele><time>2026-05-02T15:39:12Z</time></trkpt><trkpt lat="44.062770313568905" lon="12.439716425498476"><ele>67.71428571428571</ele><time>2026-05-02T15:39:19Z</time></trkpt><trkpt lat="44.06274085726799" lon="12.439796669658069"><ele>67.57142857142857</ele><time>2026-05-02T15:39:27Z</time></trkpt><trkpt lat="44.06267011631772" lon="12.439816637296705"><ele>67.42857142857142</ele><time>2026-05-02T15:39:36Z</time></trkpt><trkpt lat="44.06260429315407" lon="12.439813018551732"><ele>67.28571428571428</ele><time>2026-05-02T15:39:43Z</time></trkpt><trkpt lat="44.06253590848605" lon="12.439781896252159"><ele>67.14285714285714</ele><time>2026-05-02T15:39:49.999Z</time></trkpt><trkpt lat="44.06247111431475" lon="12.439768768763797"><ele>67.0</ele><time>2026-05-02T15:39:56.999Z</time></trkpt><trkpt lat="44.06240438631771" lon="12.439757501325605"><ele>69.0</ele><time>2026-05-02T15:40:03.999Z</time></trkpt><trkpt lat="44.062343047613524" lon="12.439702728498702"><ele>71.0</ele><time>2026-05-02T15:40:12Z</time></trkpt><trkpt lat="44.06229994764126" lon="12.439634577822147"><ele>73.0</ele><time>2026-05-02T15:40:20Z</time></trkpt><trkpt lat="44.06223781831828" lon="12.439607458890055"><ele>75.0</ele><time>2026-05-02T15:40:29Z</time></trkpt><trkpt lat="44.062207544183245" lon="12.439701499922588"><ele>77.0</ele><time>2026-05-02T15:40:35Z</time></trkpt><trkpt lat="44.06218991828808" lon="12.439816161626448"><ele>79.0</ele><time>2026-05-02T15:40:39Z</time></trkpt><trkpt lat="44.062148876811065" lon="12.439903825559622"><ele>81.0</ele><time>2026-05-02T15:40:43Z</time></trkpt><trkpt lat="44.062120689607184" lon="12.440010312481704"><ele>81.14285714285714</ele><time>2026-05-02T15:40:48Z</time></trkpt><trkpt lat="44.06208594884648" lon="12.440101899768012"><ele>81.28571428571428</ele><time>2026-05-02T15:40:52Z</time></trkpt><trkpt lat="44.062053852331516" lon="12.440192893744918"><ele>81.42857142857142</ele><time>2026-05-02T15:40:56Z</time></trkpt><trkpt lat="44.0620264048932" lon="12.44027623358892"><ele>81.57142857142857</ele><time>2026-05-02T15:41:01Z</time></trkpt><trkpt lat="44.06200718581603" lon="12.440385719458144"><ele>81.71428571428571</ele><time>2026-05-02T15:41:07Z</time></trkpt><trkpt lat="44.06198163511112" lon="12.440466364741786"><ele>81.85714285714285</ele><time>2026-05-02T15:41:09Z</time></trkpt><trkpt lat="44.06196098796256" lon="12.440567901040525"><ele>82.0</ele><time>2026-05-02T15:41:11Z</time></trkpt><trkpt lat="44.06195989032689" lon="12.44069917942763"><ele>79.33333333333333</ele><time>2026-05-02T15:41:13Z</time></trkpt><trkpt lat="44.06194802338747" lon="12.440805328287453"><ele>76.66666666666667</ele><time>2026-05-02T15:41:15Z</time></trkpt><trkpt lat="44.061903570401" lon="12.440878746290899"><ele>74.0</ele><time>2026-05-02T15:41:17Z</time></trkpt><trkpt lat="44.06204410610487" lon="12.441299416011644"><ele>72.71428571428572</ele><time>2026-05-02T15:41:20Z</time></trkpt><trkpt lat="44.06210893951273" lon="12.441327388939134"><ele>71.42857142857143</ele><time>2026-05-02T15:41:24Z</time></trkpt><trkpt lat="44.062140882876314" lon="12.441438117888577"><ele>70.14285714285714</ele><time>2026-05-02T15:41:31Z</time></trkpt><trkpt lat="44.06216047441332" lon="12.441522594340482"><ele>68.85714285714286</ele><time>2026-05-02T15:41:33Z</time></trkpt><trkpt lat="44.06218882299686" lon="12.441629551678309"><ele>67.57142857142857</ele><time>2026-05-02T15:41:36Z</time></trkpt><trkpt lat="44.06224920679006" lon="12.441709146629666"><ele>66.28571428571429</ele><time>2026-05-02T15:41:42Z</time></trkpt><trkpt lat="44.06230626640275" lon="12.441748858948399"><ele>65.0</ele><time>2026-05-02T15:41:45Z</time></trkpt><trkpt lat="44.06236063479135" lon="12.441796011504023"><ele>65.00000000000001</ele><time>2026-05-02T15:41:48.999Z</time></trkpt><trkpt lat="44.062416138350386" lon="12.441837839644101"><ele>65.0</ele><time>2026-05-02T15:41:52.999Z</time></trkpt><trkpt lat="44.0624896266006" lon="12.44188300582259"><ele>65.0</ele><time>2026-05-02T15:41:58.999Z</time></trkpt><trkpt lat="44.06255487809948" lon="12.441921283716098"><ele>65.0</ele><time>2026-05-02T15:42:03.999Z</time></trkpt><trkpt lat="44.06262101556573" lon="12.441960082706464"><ele>65.0</ele><time>2026-05-02T15:42:08.999Z</time></trkpt><trkpt lat="44.06268546568369" lon="12.441990418588258"><ele>65.00000000000001</ele><time>2026-05-02T15:42:13.999Z</time></trkpt><trkpt lat="44.062735353627616" lon="12.442048716930804"><ele>65.0</ele><time>2026-05-02T15:42:19Z</time></trkpt><trkpt lat="44.062787794808216" lon="12.442102786912471"><ele>66.85714285714286</ele><time>2026-05-02T15:42:24Z</time></trkpt><trkpt lat="44.06284726706888" lon="12.442151002609842"><ele>68.71428571428572</ele><time>2026-05-02T15:42:30Z</time></trkpt><trkpt lat="44.062903425087526" lon="12.442202164617916"><ele>70.57142857142858</ele><time>2026-05-02T15:42:36Z</time></trkpt><trkpt lat="44.06294407968952" lon="12.442269181327413"><ele>72.42857142857143</ele><time>2026-05-02T15:42:40Z</time></trkpt><trkpt lat="44.06301018063397" lon="12.442316170407056"><ele>74.28571428571428</ele><time>2026-05-02T15:42:45Z</time></trkpt><trkpt lat="44.06307972865831" lon="12.442353921537862"><ele>76.14285714285715</ele><time>2026-05-02T15:43:43Z</time></trkpt><trkpt lat="44.06313585797348" lon="12.442430278581046"><ele>78.0</ele><time>2026-05-02T15:43:46.999Z</time></trkpt><trkpt lat="44.06319292974828" lon="12.442495403447742"><ele>78.6</ele><time>2026-05-02T15:43:49.999Z</time></trkpt><trkpt lat="44.06332626587203" lon="12.442531326823135"><ele>79.19999999999999</ele><time>2026-05-02T15:43:55.999Z</time></trkpt><trkpt lat="44.06339792552735" lon="12.442608005191538"><ele>79.8</ele><time>2026-05-02T15:43:58.999Z</time></trkpt><trkpt lat="44.06347313547691" lon="12.442666680966214"><ele>80.39999999999999</ele><time>2026-05-02T15:44:01.999Z</time></trkpt><trkpt lat="44.063534982042015" lon="12.4427113144354"><ele>81.0</ele><time>2026-05-02T15:44:04.999Z</time></trkpt><trkpt lat="44.063601345093026" lon="12.442761800633924"><ele>81.0</ele><time>2026-05-02T15:44:08.999Z</time></trkpt><trkpt lat="44.063657101900255" lon="12.44280726267466"><ele>81.0</ele><time>2026-05-02T15:44:11.999Z</time></trkpt><trkpt lat="44.063727949444704" lon="12.442852859627854"><ele>81.0</ele><time>2026-05-02T15:44:14.999Z</time></trkpt><trkpt lat="44.06379208759071" lon="12.442903769302234"><ele>81.0</ele><time>2026-05-02T15:44:17.999Z</time></trkpt><trkpt lat="44.06386271568972" lon="12.442940178439057"><ele>81.0</ele><time>2026-05-02T15:44:20.999Z</time></trkpt><trkpt lat="44.06392284271659" lon="12.442994696748935"><ele>81.0</ele><time>2026-05-02T15:44:47Z</time></trkpt><trkpt lat="44.0639259256355" lon="12.443082610210476"><ele>81.0</ele><time>2026-05-02T15:45:04Z</time></trkpt><trkpt lat="44.063919754873794" lon="12.443173547827916"><ele>78.8</ele><time>2026-05-02T15:45:12Z</time></trkpt><trkpt lat="44.06388847859632" lon="12.443271638544976"><ele>76.6</ele><time>2026-05-02T15:45:23Z</time></trkpt><trkpt lat="44.06395571015926" lon="12.443306522247731"><ele>74.4</ele><time>2026-05-02T15:45:29Z</time></trkpt><trkpt lat="44.06400983282781" lon="12.44335334517984"><ele>72.2</ele><time>2026-05-02T15:45:31.999Z</time></trkpt><trkpt lat="44.06418655776275" lon="12.443370475574001"><ele>70.0</ele><time>2026-05-02T15:45:35.999Z</time></trkpt><trkpt lat="44.06426352246315" lon="12.443356506715704"><ele>70.0</ele><time>2026-05-02T15:45:37.999Z</time></trkpt><trkpt lat="44.06443064811525" lon="12.443349737487734"><ele>70.0</ele><time>2026-05-02T15:46:10.999Z</time></trkpt><trkpt lat="44.06460445857554" lon="12.443327874047675"><ele>70.0</ele><time>2026-05-02T15:46:16.999Z</time></trkpt><trkpt lat="44.0647138126398" lon="12.443458351494476"><ele>70.0</ele><time>2026-05-02T15:46:18.999Z</time></trkpt><trkpt lat="44.06478270620577" lon="12.443428782350844"><ele>70.0</ele><time>2026-05-02T15:46:20.999Z</time></trkpt><trkpt lat="44.06484201781043" lon="12.443391919091324"><ele>70.0</ele><time>2026-05-02T15:46:23.999Z</time></trkpt><trkpt lat="44.064778461575" lon="12.443454747950863"><ele>70.0</ele><time>2026-05-02T15:46:28Z</time></trkpt><trkpt lat="44.0647151923597" lon="12.443481949083768"><ele>70.0</ele><time>2026-05-02T15:46:32Z</time></trkpt><trkpt lat="44.064726046181235" lon="12.443620811986616"><ele>70.0</ele><time>2026-05-02T15:46:35Z</time></trkpt><trkpt lat="44.06471404666747" lon="12.443711058286034"><ele>70.0</ele><time>2026-05-02T15:46:37Z</time></trkpt><trkpt lat="44.06465877202849" lon="12.443846335762762"><ele>67.66666666666666</ele><time>2026-05-02T15:46:39Z</time></trkpt><trkpt lat="44.064604573020844" lon="12.443957256955693"><ele>65.33333333333333</ele><time>2026-05-02T15:46:41Z</time></trkpt><trkpt lat="44.064583195154235" lon="12.444059855104214"><ele>63.0</ele><time>2026-05-02T15:46:42Z</time></trkpt><trkpt lat="44.0645154999958" lon="12.444122339700021"><ele>60.66666666666667</ele><time>2026-05-02T15:46:43Z</time></trkpt><trkpt lat="44.06442562952444" lon="12.444201637789412"><ele>58.333333333333336</ele><time>2026-05-02T15:46:45Z</time></trkpt><trkpt lat="44.064363377007815" lon="12.444240632275475"><ele>56.0</ele><time>2026-05-02T15:46:46Z</time></trkpt><trkpt lat="44.06430474138831" lon="12.444279584296227"><ele>56.00000000000001</ele><time>2026-05-02T15:46:47Z</time></trkpt><trkpt lat="44.06423515597127" lon="12.444310418174933"><ele>56.0</ele><time>2026-05-02T15:46:49Z</time></trkpt><trkpt lat="44.0641310535439" lon="12.444347732640363"><ele>56.0</ele><time>2026-05-02T15:46:51Z</time></trkpt><trkpt lat="44.064051669466274" lon="12.444343671093206"><ele>56.0</ele><time>2026-05-02T15:46:53Z</time></trkpt><trkpt lat="44.06399471990719" lon="12.44438294453706"><ele>56.00000000000001</ele><time>2026-05-02T15:46:55Z</time></trkpt><trkpt lat="44.06402006288472" lon="12.444492491507887"><ele>56.0</ele><time>2026-05-02T15:46:57Z</time></trkpt><trkpt lat="44.06401621132016" lon="12.444589463625743"><ele>54.714285714285715</ele><time>2026-05-02T15:46:59Z</time></trkpt><trkpt lat="44.06401194420339" lon="12.444696898221787"><ele>53.42857142857143</ele><time>2026-05-02T15:47:01Z</time></trkpt><trkpt lat="44.06403193048795" lon="12.444791808819476"><ele>52.14285714285714</ele><time>2026-05-02T15:47:04Z</time></trkpt><trkpt lat="44.064099712212844" lon="12.444750455928865"><ele>50.85714285714286</ele><time>2026-05-02T15:47:07Z</time></trkpt><trkpt lat="44.06417160340921" lon="12.444729499499106"><ele>49.57142857142857</ele><time>2026-05-02T15:47:10Z</time></trkpt><trkpt lat="44.06409814598259" lon="12.44470974458779"><ele>48.285714285714285</ele><time>2026-05-02T15:47:31Z</time></trkpt><trkpt lat="44.064048629714605" lon="12.444777147873584"><ele>47.0</ele><time>2026-05-02T15:47:34Z</time></trkpt><trkpt lat="44.06399334526579" lon="12.444824855573247"><ele>47.0</ele><time>2026-05-02T15:47:37Z</time></trkpt><trkpt lat="44.06393494439202" lon="12.44488933749152"><ele>47.0</ele><time>2026-05-02T15:47:40Z</time></trkpt><trkpt lat="44.063860550258916" lon="12.444910770487995"><ele>47.0</ele><time>2026-05-02T15:47:43Z</time></trkpt><trkpt lat="44.063775112414824" lon="12.444937577376798"><ele>47.0</ele><time>2026-05-02T15:47:46Z</time></trkpt><trkpt lat="44.063715558409925" lon="12.444902867526462"><ele>47.0</ele><time>2026-05-02T15:47:51Z</time></trkpt><trkpt lat="44.06364708894944" lon="12.444926573078398"><ele>47.0</ele><time>2026-05-02T15:48:42Z</time></trkpt><trkpt lat="44.06357760930691" lon="12.444919386309051"><ele>47.0</ele><time>2026-05-02T15:48:47Z</time></trkpt><trkpt lat="44.06351298554681" lon="12.444869975892164"><ele>47.0</ele><time>2026-05-02T15:48:51Z</time></trkpt><trkpt lat="44.06345295679243" lon="12.44481428592281"><ele>47.0</ele><time>2026-05-02T15:48:55Z</time></trkpt><trkpt lat="44.06339619965077" lon="12.444695500950004"><ele>47.0</ele><time>2026-05-02T16:08:54Z</time></trkpt><trkpt lat="44.063332920785996" lon="12.444634238628243"><ele>47.0</ele><time>2026-05-02T16:09:09Z</time></trkpt><trkpt lat="44.063272118898055" lon="12.44457200448745"><ele>47.0</ele><time>2026-05-02T16:09:15Z</time></trkpt><trkpt lat="44.063207344831824" lon="12.44451296782664"><ele>47.0</ele><time>2026-05-02T16:09:20Z</time></trkpt><trkpt lat="44.06315698983834" lon="12.444442713023138"><ele>46.666666666666664</ele><time>2026-05-02T16:09:23Z</time></trkpt><trkpt lat="44.06309614885125" lon="12.444356148193423"><ele>46.33333333333333</ele><time>2026-05-02T16:09:26Z</time></trkpt><trkpt lat="44.0630362483257" lon="12.444306524393703"><ele>46.0</ele><time>2026-05-02T16:09:28Z</time></trkpt><trkpt lat="44.062974825805696" lon="12.444262231177014"><ele>45.666666666666664</ele><time>2026-05-02T16:09:30Z</time></trkpt><trkpt lat="44.06292470241592" lon="12.444156722901514"><ele>45.333333333333336</ele><time>2026-05-02T16:09:33Z</time></trkpt><trkpt lat="44.062854480743184" lon="12.444200344913545"><ele>45.0</ele><time>2026-05-02T16:09:35Z</time></trkpt><trkpt lat="44.06279403956582" lon="12.444238093047604"><ele>45.0</ele><time>2026-05-02T16:09:38Z</time></trkpt><trkpt lat="44.062750145077516" lon="12.444148779266655"><ele>45.0</ele><time>2026-05-02T16:09:41Z</time></trkpt><trkpt lat="44.06268273039659" lon="12.444086410422459"><ele>45.0</ele><time>2026-05-02T16:09:44Z</time></trkpt><trkpt lat="44.06261714753536" lon="12.444017609155905"><ele>45.0</ele><time>2026-05-02T16:09:47Z</time></trkpt><trkpt lat="44.06254547401562" lon="12.443945429774173"><ele>45.0</ele><time>2026-05-02T16:09:50.999Z</time></trkpt><trkpt lat="44.06247239390834" lon="12.443864678229213"><ele>45.0</ele><time>2026-05-02T16:09:53.999Z</time></trkpt><trkpt lat="44.06241184133381" lon="12.443798088212466"><ele>45.166666666666664</ele><time>2026-05-02T16:09:56.999Z</time></trkpt><trkpt lat="44.06236057207992" lon="12.44374244714026"><ele>45.333333333333336</ele><time>2026-05-02T16:09:58.999Z</time></trkpt><trkpt lat="44.062289235398936" lon="12.443663642854307"><ele>45.5</ele><time>2026-05-02T16:10:01.999Z</time></trkpt><trkpt lat="44.06222098199412" lon="12.443606081220427"><ele>45.66666666666667</ele><time>2026-05-02T16:10:04.999Z</time></trkpt><trkpt lat="44.06214426921902" lon="12.443529606219279"><ele>45.833333333333336</ele><time>2026-05-02T16:10:07.999Z</time></trkpt><trkpt lat="44.06209634914158" lon="12.443440542956038"><ele>46.0</ele><time>2026-05-02T16:10:10.999Z</time></trkpt><trkpt lat="44.06204932004626" lon="12.443367440928348"><ele>46.0</ele><time>2026-05-02T16:10:13.999Z</time></trkpt><trkpt lat="44.06199552401758" lon="12.443305593991086"><ele>46.0</ele><time>2026-05-02T16:10:15.999Z</time></trkpt><trkpt lat="44.061923736837926" lon="12.443247065818092"><ele>46.0</ele><time>2026-05-02T16:10:18.999Z</time></trkpt><trkpt lat="44.06188132249831" lon="12.443175766281463"><ele>46.0</ele><time>2026-05-02T16:10:20.999Z</time></trkpt><trkpt lat="44.061824543235076" lon="12.443111366171387"><ele>46.0</ele><time>2026-05-02T16:10:22.999Z</time></trkpt><trkpt lat="44.061751075922515" lon="12.443047958124177"><ele>46.0</ele><time>2026-05-02T16:10:25.999Z</time></trkpt><trkpt lat="44.06169355216188" lon="12.442979142265335"><ele>45.0</ele><time>2026-05-02T16:10:28.999Z</time></trkpt><trkpt lat="44.061636548325495" lon="12.442913406662713"><ele>44.0</ele><time>2026-05-02T16:10:31.999Z</time></trkpt><trkpt lat="44.06158489854185" lon="12.443016537792117"><ele>43.0</ele><time>2026-05-02T16:10:36Z</time></trkpt><trkpt lat="44.0615284666402" lon="12.443114025424796"><ele>42.0</ele><time>2026-05-02T16:10:38Z</time></trkpt><trkpt lat="44.06145391759988" lon="12.443228039490172"><ele>41.0</ele><time>2026-05-02T16:10:40Z</time></trkpt><trkpt lat="44.06136670462147" lon="12.443350055861288"><ele>41.0</ele><time>2026-05-02T16:10:42Z</time></trkpt><trkpt lat="44.06126037057119" lon="12.443442058362493"><ele>41.0</ele><time>2026-05-02T16:10:44Z</time></trkpt><trkpt lat="44.06121389538122" lon="12.443581545715178"><ele>41.0</ele><time>2026-05-02T16:10:46Z</time></trkpt><trkpt lat="44.06114266589229" lon="12.44370711427851"><ele>41.0</ele><time>2026-05-02T16:10:48Z</time></trkpt><trkpt lat="44.06104304050934" lon="12.443795088961204"><ele>40.83333333333333</ele><time>2026-05-02T16:10:50Z</time></trkpt><trkpt lat="44.06097819996707" lon="12.44390065161032"><ele>40.666666666666664</ele><time>2026-05-02T16:10:52Z</time></trkpt><trkpt lat="44.060936753465484" lon="12.444003186250276"><ele>40.5</ele><time>2026-05-02T16:10:54Z</time></trkpt><trkpt lat="44.06088039211224" lon="12.444066890899824"><ele>40.333333333333336</ele><time>2026-05-02T16:11:13Z</time></trkpt><trkpt lat="44.06083748351798" lon="12.44414314448665"><ele>40.16666666666667</ele><time>2026-05-02T16:11:29Z</time></trkpt><trkpt lat="44.06086220590944" lon="12.444226764586116"><ele>40.0</ele><time>2026-05-02T16:11:33Z</time></trkpt><trkpt lat="44.06090261971395" lon="12.444303801010948"><ele>40.0</ele><time>2026-05-02T16:11:37Z</time></trkpt><trkpt lat="44.060961150228295" lon="12.444358449945257"><ele>40.0</ele><time>2026-05-02T16:11:40Z</time></trkpt><trkpt lat="44.06101611542855" lon="12.444410982785566"><ele>40.0</ele><time>2026-05-02T16:11:42Z</time></trkpt><trkpt lat="44.06108295882664" lon="12.444476306554261"><ele>40.0</ele><time>2026-05-02T16:11:45Z</time></trkpt><trkpt lat="44.06114705561217" lon="12.444565377023594"><ele>40.0</ele><time>2026-05-02T16:11:48Z</time></trkpt><trkpt lat="44.061222802141856" lon="12.4446476471024"><ele>40.0</ele><time>2026-05-02T16:11:51Z</time></trkpt><trkpt lat="44.06127916575423" lon="12.44472455387725"><ele>40.0</ele><time>2026-05-02T16:11:53Z</time></trkpt><trkpt lat="44.06134391961379" lon="12.4448131408807"><ele>40.0</ele><time>2026-05-02T16:11:56Z</time></trkpt><trkpt lat="44.06136336569724" lon="12.44492993853791"><ele>40.0</ele><time>2026-05-02T16:11:59Z</time></trkpt><trkpt lat="44.06132563654674" lon="12.445010139227549"><ele>40.0</ele><time>2026-05-02T16:12:01Z</time></trkpt><trkpt lat="44.061281430819456" lon="12.44508914688992"><ele>40.0</ele><time>2026-05-02T16:12:02.999Z</time></trkpt><trkpt lat="44.061254950859706" lon="12.445193620144984"><ele>40.0</ele><time>2026-05-02T16:12:04.999Z</time></trkpt><trkpt lat="44.06120404464368" lon="12.445282024992379"><ele>40.0</ele><time>2026-05-02T16:12:06.999Z</time></trkpt><trkpt lat="44.06116816797817" lon="12.44537705559938"><ele>40.0</ele><time>2026-05-02T16:12:08.999Z</time></trkpt><trkpt lat="44.06117717213177" lon="12.445477749892138"><ele>40.0</ele><time>2026-05-02T16:12:10.999Z</time></trkpt><trkpt lat="44.061189073389585" lon="12.44561819003442"><ele>40.0</ele><time>2026-05-02T16:12:13.999Z</time></trkpt><trkpt lat="44.061208523261506" lon="12.445706026512598"><ele>40.0</ele><time>2026-05-02T16:12:15.999Z</time></trkpt><trkpt lat="44.061221460988776" lon="12.44581210685505"><ele>40.0</ele><time>2026-05-02T16:12:17.999Z</time></trkpt><trkpt lat="44.061219968135" lon="12.445904787750518"><ele>40.0</ele><time>2026-05-02T16:12:19.999Z</time></trkpt><trkpt lat="44.06123209686617" lon="12.446007942784036"><ele>40.0</ele><time>2026-05-02T16:12:21.999Z</time></trkpt><trkpt lat="44.061232036809784" lon="12.446097729665052"><ele>40.0</ele><time>2026-05-02T16:12:23.999Z</time></trkpt><trkpt lat="44.06124673088385" lon="12.446206793034719"><ele>40.0</ele><time>2026-05-02T16:12:25.999Z</time></trkpt><trkpt lat="44.0612528765416" lon="12.446325415800581"><ele>40.0</ele><time>2026-05-02T16:12:27.999Z</time></trkpt><trkpt lat="44.06125528543321" lon="12.44642212684501"><ele>40.0</ele><time>2026-05-02T16:12:29.999Z</time></trkpt><trkpt lat="44.06126131293472" lon="12.446536952724383"><ele>39.833333333333336</ele><time>2026-05-02T16:12:31.999Z</time></trkpt><trkpt lat="44.06126934011642" lon="12.446648681045655"><ele>39.66666666666667</ele><time>2026-05-02T16:12:33.999Z</time></trkpt><trkpt lat="44.06128516589157" lon="12.446774087941701"><ele>39.5</ele><time>2026-05-02T16:12:35.999Z</time></trkpt><trkpt lat="44.06127947225516" lon="12.446877152289353"><ele>39.333333333333336</ele><time>2026-05-02T16:12:37.999Z</time></trkpt><trkpt lat="44.06129516367069" lon="12.446972312608713"><ele>39.166666666666664</ele><time>2026-05-02T16:12:40Z</time></trkpt><trkpt lat="44.061323257763036" lon="12.447075541216284"><ele>39.0</ele><time>2026-05-02T16:12:42Z</time></trkpt><trkpt lat="44.061343195056345" lon="12.447183145705907"><ele>39.0</ele><time>2026-05-02T16:12:44Z</time></trkpt><trkpt lat="44.0613766668462" lon="12.447283526209755"><ele>39.0</ele><time>2026-05-02T16:12:46Z</time></trkpt><trkpt lat="44.06141911663796" lon="12.447387155751711"><ele>39.0</ele><time>2026-05-02T16:12:48Z</time></trkpt><trkpt lat="44.06144598404935" lon="12.447473494771561"><ele>39.0</ele><time>2026-05-02T16:12:50Z</time></trkpt><trkpt lat="44.06144033881211" lon="12.447591204447281"><ele>39.0</ele><time>2026-05-02T16:12:52Z</time></trkpt><trkpt lat="44.06145735587136" lon="12.44768055860788"><ele>39.0</ele><time>2026-05-02T16:12:57Z</time></trkpt><trkpt lat="44.06147918204566" lon="12.447768702717955"><ele>39.0</ele><time>2026-05-02T16:13:03Z</time></trkpt><trkpt lat="44.06153444983873" lon="12.447850461127189"><ele>39.0</ele><time>2026-05-02T16:13:07Z</time></trkpt><trkpt lat="44.061571615891076" lon="12.447942286357776"><ele>39.0</ele><time>2026-05-02T16:13:09Z</time></trkpt><trkpt lat="44.06160209108314" lon="12.448040621505754"><ele>39.0</ele><time>2026-05-02T16:13:11Z</time></trkpt><trkpt lat="44.06162539617992" lon="12.448122423113622"><ele>39.0</ele><time>2026-05-02T16:13:13Z</time></trkpt><trkpt lat="44.06165205843947" lon="12.448206404619825"><ele>39.0</ele><time>2026-05-02T16:13:15Z</time></trkpt><trkpt lat="44.06169601137245" lon="12.44831577834772"><ele>39.166666666666664</ele><time>2026-05-02T16:13:18Z</time></trkpt><trkpt lat="44.061658955430644" lon="12.448452764455213"><ele>39.333333333333336</ele><time>2026-05-02T16:13:21Z</time></trkpt><trkpt lat="44.06160577102295" lon="12.448539617868178"><ele>39.5</ele><time>2026-05-02T16:13:23Z</time></trkpt><trkpt lat="44.061555698150016" lon="12.448622637501462"><ele>39.66666666666667</ele><time>2026-05-02T16:13:25Z</time></trkpt><trkpt lat="44.06150860633591" lon="12.448718400148095"><ele>39.833333333333336</ele><time>2026-05-02T16:13:27Z</time></trkpt><trkpt lat="44.06145821814911" lon="12.448808594254837"><ele>40.0</ele><time>2026-05-02T16:13:29Z</time></trkpt><trkpt lat="44.06139929232827" lon="12.448896610871756"><ele>40.333333333333336</ele><time>2026-05-02T16:13:31Z</time></trkpt><trkpt lat="44.061348395405645" lon="12.448998341985389"><ele>40.66666666666667</ele><time>2026-05-02T16:13:33Z</time></trkpt><trkpt lat="44.06129450709346" lon="12.44909768038643"><ele>41.0</ele><time>2026-05-02T16:13:35Z</time></trkpt><trkpt lat="44.06125148766143" lon="12.449188454721487"><ele>41.333333333333336</ele><time>2026-05-02T16:13:37Z</time></trkpt><trkpt lat="44.06120357751828" lon="12.449262522824075"><ele>41.666666666666664</ele><time>2026-05-02T16:13:39Z</time></trkpt><trkpt lat="44.06115989523685" lon="12.449335917305886"><ele>42.0</ele><time>2026-05-02T16:13:41Z</time></trkpt><trkpt lat="44.061113414464465" lon="12.449422701260522"><ele>42.0</ele><time>2026-05-02T16:13:43Z</time></trkpt><trkpt lat="44.0610662343884" lon="12.44951077853229"><ele>42.0</ele><time>2026-05-02T16:13:45Z</time></trkpt><trkpt lat="44.061019491563705" lon="12.449600752693991"><ele>42.0</ele><time>2026-05-02T16:13:47Z</time></trkpt><trkpt lat="44.060971495962065" lon="12.449693462292652"><ele>42.0</ele><time>2026-05-02T16:13:49Z</time></trkpt><trkpt lat="44.060913808774686" lon="12.449749419506498"><ele>42.0</ele><time>2026-05-02T16:13:51Z</time></trkpt><trkpt lat="44.06086291265224" lon="12.44983761362942"><ele>42.0</ele><time>2026-05-02T16:13:53Z</time></trkpt><trkpt lat="44.060812665263484" lon="12.449928563326457"><ele>42.0</ele><time>2026-05-02T16:13:55Z</time></trkpt><trkpt lat="44.06076293968595" lon="12.45001434762988"><ele>42.0</ele><time>2026-05-02T16:13:57Z</time></trkpt><trkpt lat="44.06071960320853" lon="12.450100557926715"><ele>42.0</ele><time>2026-05-02T16:13:58.999Z</time></trkpt><trkpt lat="44.06067574952643" lon="12.450182160199727"><ele>42.0</ele><time>2026-05-02T16:14:00.999Z</time></trkpt><trkpt lat="44.060622820196556" lon="12.450262989404237"><ele>42.0</ele><time>2026-05-02T16:14:02.999Z</time></trkpt><trkpt lat="44.06057438913304" lon="12.450338119339461"><ele>42.0</ele><time>2026-05-02T16:14:04.999Z</time></trkpt><trkpt lat="44.06052034117788" lon="12.450426280615366"><ele>41.833333333333336</ele><time>2026-05-02T16:14:06.999Z</time></trkpt><trkpt lat="44.06046713292235" lon="12.450509487520778"><ele>41.666666666666664</ele><time>2026-05-02T16:14:08.999Z</time></trkpt><trkpt lat="44.06040636727631" lon="12.450587477341255"><ele>41.5</ele><time>2026-05-02T16:14:10.999Z</time></trkpt><trkpt lat="44.06036021235308" lon="12.450655815513588"><ele>41.33333333333333</ele><time>2026-05-02T16:14:12.999Z</time></trkpt><trkpt lat="44.06028481355321" lon="12.450694313617305"><ele>41.166666666666664</ele><time>2026-05-02T16:14:14.999Z</time></trkpt><trkpt lat="44.060212938044614" lon="12.450736238520662"><ele>41.0</ele><time>2026-05-02T16:14:16.999Z</time></trkpt><trkpt lat="44.060139076040066" lon="12.45076715241598"><ele>40.99999999999999</ele><time>2026-05-02T16:14:18.999Z</time></trkpt><trkpt lat="44.0600554121131" lon="12.450790511476962"><ele>41.0</ele><time>2026-05-02T16:14:21.999Z</time></trkpt><trkpt lat="44.059983016639634" lon="12.450809373972813"><ele>41.0</ele><time>2026-05-02T16:14:24.999Z</time></trkpt><trkpt lat="44.05990171095029" lon="12.450769126612133"><ele>41.0</ele><time>2026-05-02T16:14:27.999Z</time></trkpt><trkpt lat="44.05984524639307" lon="12.450728442514784"><ele>41.0</ele><time>2026-05-02T16:14:29.999Z</time></trkpt><trkpt lat="44.05977826146487" lon="12.450727749454764"><ele>40.99999999999999</ele><time>2026-05-02T16:14:31.999Z</time></trkpt><trkpt lat="44.05972230802381" lon="12.450791816715036"><ele>41.0</ele><time>2026-05-02T16:14:33.999Z</time></trkpt><trkpt lat="44.05966572047247" lon="12.450862404753098"><ele>40.83333333333333</ele><time>2026-05-02T16:14:35.999Z</time></trkpt><trkpt lat="44.059609589084076" lon="12.450918450274301"><ele>40.666666666666664</ele><time>2026-05-02T16:14:37.999Z</time></trkpt><trkpt lat="44.05953038655625" lon="12.450948142900183"><ele>40.5</ele><time>2026-05-02T16:14:39.999Z</time></trkpt><trkpt lat="44.05945372055661" lon="12.450957456653907"><ele>40.333333333333336</ele><time>2026-05-02T16:14:41.999Z</time></trkpt><trkpt lat="44.05937667455944" lon="12.450976218303866"><ele>40.16666666666667</ele><time>2026-05-02T16:14:43.999Z</time></trkpt><trkpt lat="44.059304042901225" lon="12.45099525801609"><ele>40.0</ele><time>2026-05-02T16:14:46Z</time></trkpt><trkpt lat="44.05922984883739" lon="12.451019495757345"><ele>40.0</ele><time>2026-05-02T16:14:48Z</time></trkpt><trkpt lat="44.05915598105838" lon="12.451045666323543"><ele>40.0</ele><time>2026-05-02T16:14:50Z</time></trkpt><trkpt lat="44.05907714647675" lon="12.451064758229455"><ele>40.0</ele><time>2026-05-02T16:14:52Z</time></trkpt><trkpt lat="44.05899111740713" lon="12.451084278782266"><ele>40.0</ele><time>2026-05-02T16:14:54Z</time></trkpt><trkpt lat="44.05890129192097" lon="12.451102828553733"><ele>40.0</ele><time>2026-05-02T16:14:56Z</time></trkpt><trkpt lat="44.05882377158203" lon="12.451124208936633"><ele>40.0</ele><time>2026-05-02T16:14:58Z</time></trkpt><trkpt lat="44.05873628742171" lon="12.451151026054923"><ele>40.0</ele><time>2026-05-02T16:15:00Z</time></trkpt><trkpt lat="44.05864416784738" lon="12.451167722274539"><ele>40.0</ele><time>2026-05-02T16:15:02Z</time></trkpt><trkpt lat="44.058557579857634" lon="12.451182896111627"><ele>40.0</ele><time>2026-05-02T16:15:04Z</time></trkpt><trkpt lat="44.05848139197168" lon="12.451213782071454"><ele>40.0</ele><time>2026-05-02T16:15:06Z</time></trkpt><trkpt lat="44.05840023886868" lon="12.45124472178395"><ele>40.0</ele><time>2026-05-02T16:15:08Z</time></trkpt><trkpt lat="44.058294149687704" lon="12.451248681945557"><ele>39.6</ele><time>2026-05-02T16:15:10Z</time></trkpt><trkpt lat="44.05820410643779" lon="12.451272746960068"><ele>39.2</ele><time>2026-05-02T16:15:12Z</time></trkpt><trkpt lat="44.05810421273192" lon="12.451289505271651"><ele>38.8</ele><time>2026-05-02T16:15:14Z</time></trkpt><trkpt lat="44.05800272935305" lon="12.451303934519867"><ele>38.4</ele><time>2026-05-02T16:15:16Z</time></trkpt><trkpt lat="44.05789795152183" lon="12.451329812043085"><ele>38.0</ele><time>2026-05-02T16:15:18Z</time></trkpt><trkpt lat="44.057792300993455" lon="12.451339447951684"><ele>38.0</ele><time>2026-05-02T16:15:20Z</time></trkpt><trkpt lat="44.05769178987139" lon="12.451350145490096"><ele>38.0</ele><time>2026-05-02T16:15:22Z</time></trkpt><trkpt lat="44.05758879452575" lon="12.451363440686375"><ele>38.0</ele><time>2026-05-02T16:15:24Z</time></trkpt><trkpt lat="44.05748750057466" lon="12.45137347613044"><ele>38.0</ele><time>2026-05-02T16:15:26Z</time></trkpt><trkpt lat="44.05738734666526" lon="12.45138709517509"><ele>38.0</ele><time>2026-05-02T16:15:28Z</time></trkpt><trkpt lat="44.05728786674896" lon="12.451394215647197"><ele>38.199999999999996</ele><time>2026-05-02T16:15:30Z</time></trkpt><trkpt lat="44.05719033288186" lon="12.451403297308467"><ele>38.4</ele><time>2026-05-02T16:15:32Z</time></trkpt><trkpt lat="44.05709194677371" lon="12.451403701039899"><ele>38.599999999999994</ele><time>2026-05-02T16:15:34Z</time></trkpt><trkpt lat="44.056992693657875" lon="12.451406203768844"><ele>38.8</ele><time>2026-05-02T16:15:36Z</time></trkpt><trkpt lat="44.05689619111927" lon="12.451420425801622"><ele>39.0</ele><time>2026-05-02T16:15:38Z</time></trkpt><trkpt lat="44.05679567409384" lon="12.45141853609939"><ele>39.0</ele><time>2026-05-02T16:15:40Z</time></trkpt><trkpt lat="44.05669792395455" lon="12.45142572630364"><ele>39.0</ele><time>2026-05-02T16:15:42Z</time></trkpt><trkpt lat="44.05660364593007" lon="12.451434114076187"><ele>39.0</ele><time>2026-05-02T16:15:44Z</time></trkpt><trkpt lat="44.05651250660449" lon="12.451440656258058"><ele>39.0</ele><time>2026-05-02T16:15:46Z</time></trkpt><trkpt lat="44.05642365961572" lon="12.45144134098551"><ele>39.0</ele><time>2026-05-02T16:15:48Z</time></trkpt><trkpt lat="44.056330506231106" lon="12.451452802722672"><ele>39.2</ele><time>2026-05-02T16:15:50Z</time></trkpt><trkpt lat="44.05623867084283" lon="12.451458613259513"><ele>39.4</ele><time>2026-05-02T16:15:52Z</time></trkpt><trkpt lat="44.05614751508877" lon="12.45146511531878"><ele>39.6</ele><time>2026-05-02T16:15:54Z</time></trkpt><trkpt lat="44.05605037380147" lon="12.451470209323052"><ele>39.8</ele><time>2026-05-02T16:15:56Z</time></trkpt><trkpt lat="44.05595726489155" lon="12.45147998817765"><ele>40.0</ele><time>2026-05-02T16:15:58Z</time></trkpt><trkpt lat="44.0558631248351" lon="12.451487536952216"><ele>40.2</ele><time>2026-05-02T16:16:00Z</time></trkpt><trkpt lat="44.05577007666567" lon="12.45150021781737"><ele>40.4</ele><time>2026-05-02T16:16:01.999Z</time></trkpt><trkpt lat="44.055677002897056" lon="12.451508439489409"><ele>40.599999999999994</ele><time>2026-05-02T16:16:03.999Z</time></trkpt><trkpt lat="44.05557873477657" lon="12.451516970098483"><ele>40.8</ele><time>2026-05-02T16:16:05.999Z</time></trkpt><trkpt lat="44.05548049165336" lon="12.451522892279991"><ele>41.0</ele><time>2026-05-02T16:16:07.999Z</time></trkpt><trkpt lat="44.05538985519365" lon="12.451540342786759"><ele>41.0</ele><time>2026-05-02T16:16:09.999Z</time></trkpt><trkpt lat="44.05529605886091" lon="12.451544364682812"><ele>41.0</ele><time>2026-05-02T16:16:11.999Z</time></trkpt><trkpt lat="44.055200783486285" lon="12.451552475484979"><ele>41.0</ele><time>2026-05-02T16:16:13.999Z</time></trkpt><trkpt lat="44.055103421845274" lon="12.451560281293144"><ele>41.0</ele><time>2026-05-02T16:16:15.999Z</time></trkpt><trkpt lat="44.05500681426101" lon="12.451568733433355"><ele>41.0</ele><time>2026-05-02T16:16:17.999Z</time></trkpt><trkpt lat="44.05490992908425" lon="12.451582612255457"><ele>41.0</ele><time>2026-05-02T16:16:19.999Z</time></trkpt><trkpt lat="44.054812767310565" lon="12.451584405186091"><ele>41.0</ele><time>2026-05-02T16:16:21.999Z</time></trkpt><trkpt lat="44.05471263594222" lon="12.451591063697194"><ele>41.0</ele><time>2026-05-02T16:16:23.999Z</time></trkpt><trkpt lat="44.054621964701774" lon="12.451605027386881"><ele>41.0</ele><time>2026-05-02T16:16:25.999Z</time></trkpt><trkpt lat="44.054544052744845" lon="12.451633089196187"><ele>41.0</ele><time>2026-05-02T16:16:27.999Z</time></trkpt><trkpt lat="44.054463736293634" lon="12.451617200512938"><ele>41.0</ele><time>2026-05-02T16:16:29.999Z</time></trkpt><trkpt lat="44.05438385440353" lon="12.451623557786618"><ele>41.0</ele><time>2026-05-02T16:16:31.999Z</time></trkpt><trkpt lat="44.054305941132" lon="12.451647167061376"><ele>41.0</ele><time>2026-05-02T16:16:34.999Z</time></trkpt><trkpt lat="44.05425874288439" lon="12.45183756509811"><ele>41.0</ele><time>2026-05-02T16:16:35.999Z</time></trkpt><trkpt lat="44.054263121844" lon="12.451964227022417"><ele>41.0</ele><time>2026-05-02T16:16:37.999Z</time></trkpt><trkpt lat="44.054266895519945" lon="12.45206695969461"><ele>40.83333333333333</ele><time>2026-05-02T16:16:39.999Z</time></trkpt><trkpt lat="44.05428362066774" lon="12.452169488491418"><ele>40.666666666666664</ele><time>2026-05-02T16:16:41.999Z</time></trkpt><trkpt lat="44.05429089461589" lon="12.45229086208117"><ele>40.5</ele><time>2026-05-02T16:16:43.999Z</time></trkpt><trkpt lat="44.05433378359642" lon="12.452386803115614"><ele>40.333333333333336</ele><time>2026-05-02T16:16:45.999Z</time></trkpt><trkpt lat="44.054418915558486" lon="12.452433117522428"><ele>40.16666666666667</ele><time>2026-05-02T16:16:47.999Z</time></trkpt><trkpt lat="44.05448517886827" lon="12.452486556523615"><ele>40.0</ele><time>2026-05-02T16:16:49.999Z</time></trkpt><trkpt lat="44.05454374812934" lon="12.452557793835204"><ele>40.0</ele><time>2026-05-02T16:16:52Z</time></trkpt><trkpt lat="44.05461954904289" lon="12.452591080714756"><ele>40.0</ele><time>2026-05-02T16:16:54Z</time></trkpt><trkpt lat="44.05468454865384" lon="12.4526570689625"><ele>40.0</ele><time>2026-05-02T16:16:56Z</time></trkpt><trkpt lat="44.05474858332003" lon="12.452711840569705"><ele>40.0</ele><time>2026-05-02T16:16:58Z</time></trkpt><trkpt lat="44.054812425179854" lon="12.452777732748286"><ele>40.0</ele><time>2026-05-02T16:17:00Z</time></trkpt><trkpt lat="44.054872499507496" lon="12.452846281935512"><ele>40.0</ele><time>2026-05-02T16:17:02Z</time></trkpt><trkpt lat="44.05493703216023" lon="12.452913823858125"><ele>39.857142857142854</ele><time>2026-05-02T16:17:04Z</time></trkpt><trkpt lat="44.05500242964659" lon="12.452973945721398"><ele>39.714285714285715</ele><time>2026-05-02T16:17:06Z</time></trkpt><trkpt lat="44.05506718494816" lon="12.453029429502783"><ele>39.57142857142857</ele><time>2026-05-02T16:17:08Z</time></trkpt><trkpt lat="44.05512078326646" lon="12.453088541492892"><ele>39.42857142857143</ele><time>2026-05-02T16:17:10Z</time></trkpt><trkpt lat="44.05517094914374" lon="12.453146428927772"><ele>39.285714285714285</ele><time>2026-05-02T16:17:12Z</time></trkpt><trkpt lat="44.05524464357431" lon="12.453204313025724"><ele>39.142857142857146</ele><time>2026-05-02T16:17:15Z</time></trkpt><trkpt lat="44.05528164519419" lon="12.453296356073775"><ele>39.0</ele><time>2026-05-02T16:17:19Z</time></trkpt><trkpt lat="44.05524617494297" lon="12.453376957269565"><ele>39.0</ele><time>2026-05-02T16:17:21Z</time></trkpt><trkpt lat="44.05519959110827" lon="12.453462942397351"><ele>39.0</ele><time>2026-05-02T16:17:23Z</time></trkpt><trkpt lat="44.055150113146254" lon="12.453553999615417"><ele>39.0</ele><time>2026-05-02T16:17:25Z</time></trkpt><trkpt lat="44.05511412875398" lon="12.453633815837856"><ele>39.0</ele><time>2026-05-02T16:17:27Z</time></trkpt><trkpt lat="44.055072807301855" lon="12.453724031778062"><ele>39.0</ele><time>2026-05-02T16:17:29Z</time></trkpt><trkpt lat="44.05503810195162" lon="12.453822333437934"><ele>39.0</ele><time>2026-05-02T16:17:31Z</time></trkpt><trkpt lat="44.0550171042088" lon="12.453924242890073"><ele>39.0</ele><time>2026-05-02T16:17:33Z</time></trkpt><trkpt lat="44.05501780525735" lon="12.454031254660162"><ele>39.0</ele><time>2026-05-02T16:17:35Z</time></trkpt><trkpt lat="44.05502659845183" lon="12.454155349774222"><ele>39.0</ele><time>2026-05-02T16:17:37Z</time></trkpt><trkpt lat="44.05504529155603" lon="12.454289061989943"><ele>39.0</ele><time>2026-05-02T16:17:39Z</time></trkpt><trkpt lat="44.05506069404549" lon="12.454428259470602"><ele>39.0</ele><time>2026-05-02T16:17:41Z</time></trkpt><trkpt lat="44.05506629770087" lon="12.454559338095962"><ele>39.0</ele><time>2026-05-02T16:17:43Z</time></trkpt><trkpt lat="44.05506716235406" lon="12.45468251422498"><ele>39.0</ele><time>2026-05-02T16:17:45Z</time></trkpt><trkpt lat="44.05506178526044" lon="12.45478573062211"><ele>39.0</ele><time>2026-05-02T16:17:47Z</time></trkpt><trkpt lat="44.05506770861984" lon="12.454877036846346"><ele>39.0</ele><time>2026-05-02T16:17:49Z</time></trkpt><trkpt lat="44.05508383590016" lon="12.455005793204139"><ele>39.0</ele><time>2026-05-02T16:17:52Z</time></trkpt><trkpt lat="44.055094838619596" lon="12.45510311979299"><ele>39.0</ele><time>2026-05-02T16:17:54Z</time></trkpt><trkpt lat="44.05510558402602" lon="12.455204087123255"><ele>39.0</ele><time>2026-05-02T16:17:56Z</time></trkpt><trkpt lat="44.05511427440423" lon="12.455318150366685"><ele>39.0</ele><time>2026-05-02T16:17:58Z</time></trkpt><trkpt lat="44.055132913249565" lon="12.45543378692002"><ele>39.0</ele><time>2026-05-02T16:18:00Z</time></trkpt><trkpt lat="44.05514450695825" lon="12.455553896810217"><ele>39.0</ele><time>2026-05-02T16:18:02Z</time></trkpt><trkpt lat="44.05516007549979" lon="12.455679218721484"><ele>39.0</ele><time>2026-05-02T16:18:04Z</time></trkpt><trkpt lat="44.05518096683998" lon="12.455803546535972"><ele>39.0</ele><time>2026-05-02T16:18:05.999Z</time></trkpt><trkpt lat="44.055195008695" lon="12.45593213058787"><ele>39.0</ele><time>2026-05-02T16:18:07.999Z</time></trkpt><trkpt lat="44.055208854971006" lon="12.456059778256641"><ele>39.0</ele><time>2026-05-02T16:18:09.999Z</time></trkpt><trkpt lat="44.05522382491869" lon="12.456187707962254"><ele>39.0</ele><time>2026-05-02T16:18:11.999Z</time></trkpt><trkpt lat="44.05524506951188" lon="12.45632180876329"><ele>39.0</ele><time>2026-05-02T16:18:13.999Z</time></trkpt><trkpt lat="44.055260598638554" lon="12.456452465405585"><ele>39.0</ele><time>2026-05-02T16:18:15.999Z</time></trkpt><trkpt lat="44.05528144684693" lon="12.456579902876925"><ele>39.0</ele><time>2026-05-02T16:18:17.999Z</time></trkpt><trkpt lat="44.055298560490364" lon="12.456714115911888"><ele>39.0</ele><time>2026-05-02T16:18:19.999Z</time></trkpt><trkpt lat="44.055321978155746" lon="12.456839850068812"><ele>39.0</ele><time>2026-05-02T16:18:21.999Z</time></trkpt><trkpt lat="44.05533741578027" lon="12.456960961186049"><ele>39.0</ele><time>2026-05-02T16:18:23.999Z</time></trkpt><trkpt lat="44.05536289576283" lon="12.457083265157166"><ele>39.0</ele><time>2026-05-02T16:18:25.999Z</time></trkpt><trkpt lat="44.05538421033594" lon="12.457205526960292"><ele>38.5</ele><time>2026-05-02T16:18:27.999Z</time></trkpt><trkpt lat="44.05540697099929" lon="12.45733109632473"><ele>38.0</ele><time>2026-05-02T16:18:29.999Z</time></trkpt><trkpt lat="44.05543120782642" lon="12.457444968815766"><ele>37.5</ele><time>2026-05-02T16:18:31.999Z</time></trkpt><trkpt lat="44.05544745654748" lon="12.457550178989065"><ele>37.0</ele><time>2026-05-02T16:18:33.999Z</time></trkpt><trkpt lat="44.05546564397855" lon="12.457660555998856"><ele>36.5</ele><time>2026-05-02T16:18:35.999Z</time></trkpt><trkpt lat="44.05548639179057" lon="12.457787060391471"><ele>36.0</ele><time>2026-05-02T16:18:37.999Z</time></trkpt><trkpt lat="44.05550289220148" lon="12.457937788646172"><ele>36.2</ele><time>2026-05-02T16:18:39.999Z</time></trkpt><trkpt lat="44.05551972980762" lon="12.458115638495737"><ele>36.400000000000006</ele><time>2026-05-02T16:18:41.999Z</time></trkpt><trkpt lat="44.05549919360931" lon="12.458216617419486"><ele>36.6</ele><time>2026-05-02T16:18:42.999Z</time></trkpt><trkpt lat="44.05550225431406" lon="12.458317145779452"><ele>36.800000000000004</ele><time>2026-05-02T16:18:43.999Z</time></trkpt><trkpt lat="44.055507968542926" lon="12.458488228374026"><ele>37.0</ele><time>2026-05-02T16:18:45.999Z</time></trkpt><trkpt lat="44.05551271015967" lon="12.45861554893941"><ele>37.0</ele><time>2026-05-02T16:18:46.999Z</time></trkpt><trkpt lat="44.055516439229095" lon="12.458716183292719"><ele>37.0</ele><time>2026-05-02T16:18:48.999Z</time></trkpt><trkpt lat="44.05552068543809" lon="12.458840738781163"><ele>37.0</ele><time>2026-05-02T16:18:51.999Z</time></trkpt><trkpt lat="44.05551946872499" lon="12.458946260264252"><ele>37.0</ele><time>2026-05-02T16:18:54.999Z</time></trkpt><trkpt lat="44.05545302368042" lon="12.458980219976146"><ele>37.0</ele><time>2026-05-02T16:18:56.999Z</time></trkpt><trkpt lat="44.055386489425956" lon="12.458981665496664"><ele>37.0</ele><time>2026-05-02T16:18:59Z</time></trkpt><trkpt lat="44.0553263540291" lon="12.458934243721894"><ele>37.0</ele><time>2026-05-02T16:19:01Z</time></trkpt><trkpt lat="44.05527585553438" lon="12.458863556782916"><ele>37.0</ele><time>2026-05-02T16:19:03Z</time></trkpt><trkpt lat="44.055224643474624" lon="12.45879342120828"><ele>37.0</ele><time>2026-05-02T16:19:05Z</time></trkpt><trkpt lat="44.05517600476356" lon="12.458719712945394"><ele>37.0</ele><time>2026-05-02T16:19:07Z</time></trkpt><trkpt lat="44.055131749719656" lon="12.458629657772786"><ele>37.0</ele><time>2026-05-02T16:19:09Z</time></trkpt><trkpt lat="44.05509186156209" lon="12.458539440354837"><ele>37.0</ele><time>2026-05-02T16:19:11Z</time></trkpt><trkpt lat="44.05504131014844" lon="12.45845702490889"><ele>37.0</ele><time>2026-05-02T16:19:13Z</time></trkpt><trkpt lat="44.05499518673549" lon="12.458376650656202"><ele>37.16666666666667</ele><time>2026-05-02T16:19:15Z</time></trkpt><trkpt lat="44.05493477488432" lon="12.458304733511023"><ele>37.333333333333336</ele><time>2026-05-02T16:19:17Z</time></trkpt><trkpt lat="44.054875854456704" lon="12.458226973360402"><ele>37.5</ele><time>2026-05-02T16:19:19Z</time></trkpt><trkpt lat="44.054804767900706" lon="12.458160544919258"><ele>37.666666666666664</ele><time>2026-05-02T16:19:21Z</time></trkpt><trkpt lat="44.05472951875877" lon="12.458090989996004"><ele>37.83333333333333</ele><time>2026-05-02T16:19:23Z</time></trkpt><trkpt lat="44.05465836144289" lon="12.458012637034082"><ele>38.0</ele><time>2026-05-02T16:19:25Z</time></trkpt><trkpt lat="44.05458153479542" lon="12.457940564204371"><ele>37.6</ele><time>2026-05-02T16:19:27Z</time></trkpt><trkpt lat="44.054506723165524" lon="12.457869216357736"><ele>37.199999999999996</ele><time>2026-05-02T16:19:29Z</time></trkpt><trkpt lat="44.054423727880305" lon="12.457808932436535"><ele>36.8</ele><time>2026-05-02T16:19:31Z</time></trkpt><trkpt lat="44.05434914287313" lon="12.45774551662068"><ele>36.4</ele><time>2026-05-02T16:19:33Z</time></trkpt><trkpt lat="44.05427321183126" lon="12.457682787998971"><ele>36.0</ele><time>2026-05-02T16:19:35Z</time></trkpt><trkpt lat="44.054190398192645" lon="12.45762467771623"><ele>36.4</ele><time>2026-05-02T16:19:37Z</time></trkpt><trkpt lat="44.0541059097962" lon="12.457574248114772"><ele>36.8</ele><time>2026-05-02T16:19:39Z</time></trkpt><trkpt lat="44.05401672882452" lon="12.457534805817623"><ele>37.199999999999996</ele><time>2026-05-02T16:19:41Z</time></trkpt><trkpt lat="44.05392791165389" lon="12.457499569140685"><ele>37.6</ele><time>2026-05-02T16:19:43Z</time></trkpt><trkpt lat="44.05383931308899" lon="12.45747180336874"><ele>38.0</ele><time>2026-05-02T16:19:45Z</time></trkpt><trkpt lat="44.053750765331685" lon="12.45744457145801"><ele>38.0</ele><time>2026-05-02T16:19:47Z</time></trkpt><trkpt lat="44.053665289567796" lon="12.457413895923859"><ele>38.0</ele><time>2026-05-02T16:19:49Z</time></trkpt><trkpt lat="44.053583776249795" lon="12.457387075745151"><ele>38.0</ele><time>2026-05-02T16:19:51Z</time></trkpt><trkpt lat="44.05350404587653" lon="12.457355769356768"><ele>38.0</ele><time>2026-05-02T16:19:53Z</time></trkpt><trkpt lat="44.053433229296445" lon="12.457304558571325"><ele>38.0</ele><time>2026-05-02T16:19:55Z</time></trkpt><trkpt lat="44.05338108680398" lon="12.457220541878439"><ele>38.0</ele><time>2026-05-02T16:19:57Z</time></trkpt><trkpt lat="44.05334598786758" lon="12.457128739139579"><ele>38.14285714285714</ele><time>2026-05-02T16:19:59Z</time></trkpt><trkpt lat="44.053338475927404" lon="12.457040654013804"><ele>38.28571428571429</ele><time>2026-05-02T16:20:01Z</time></trkpt><trkpt lat="44.05328231264473" lon="12.456990548739583"><ele>38.42857142857143</ele><time>2026-05-02T16:20:03Z</time></trkpt><trkpt lat="44.05320970404544" lon="12.456999343228219"><ele>38.57142857142857</ele><time>2026-05-02T16:20:05Z</time></trkpt><trkpt lat="44.053140111752114" lon="12.457016218673926"><ele>38.71428571428571</ele><time>2026-05-02T16:20:07Z</time></trkpt><trkpt lat="44.053069045347904" lon="12.45701980994818"><ele>38.85714285714286</ele><time>2026-05-02T16:20:09Z</time></trkpt><trkpt lat="44.05298806336344" lon="12.457030075874316"><ele>39.0</ele><time>2026-05-02T16:20:11Z</time></trkpt><trkpt lat="44.0529091567846" lon="12.457033146598636"><ele>39.0</ele><time>2026-05-02T16:20:12.999Z</time></trkpt><trkpt lat="44.05283256530306" lon="12.4570282392403"><ele>39.0</ele><time>2026-05-02T16:20:14.999Z</time></trkpt><trkpt lat="44.05275555262701" lon="12.457020684509546"><ele>39.0</ele><time>2026-05-02T16:20:16.999Z</time></trkpt><trkpt lat="44.05268973103864" lon="12.457039400524993"><ele>39.0</ele><time>2026-05-02T16:20:18.999Z</time></trkpt><trkpt lat="44.05262976822336" lon="12.45713483540476"><ele>39.0</ele><time>2026-05-02T16:20:21.999Z</time></trkpt><trkpt lat="44.05263684940583" lon="12.45723442455494"><ele>39.0</ele><time>2026-05-02T16:20:23.999Z</time></trkpt><trkpt lat="44.05265444179468" lon="12.45734679106875"><ele>39.0</ele><time>2026-05-02T16:20:25.999Z</time></trkpt><trkpt lat="44.05267154840801" lon="12.45745807706178"><ele>39.0</ele><time>2026-05-02T16:20:27.999Z</time></trkpt><trkpt lat="44.052673908196404" lon="12.457581835470448"><ele>39.0</ele><time>2026-05-02T16:20:29.999Z</time></trkpt><trkpt lat="44.052695168084334" lon="12.457716967969988"><ele>39.0</ele><time>2026-05-02T16:20:31.999Z</time></trkpt><trkpt lat="44.05271475843367" lon="12.457858268689877"><ele>39.0</ele><time>2026-05-02T16:20:33.999Z</time></trkpt><trkpt lat="44.05275128216443" lon="12.45798730946579"><ele>38.6</ele><time>2026-05-02T16:20:35.999Z</time></trkpt><trkpt lat="44.05279754402936" lon="12.458112404495118"><ele>38.2</ele><time>2026-05-02T16:20:37.999Z</time></trkpt><trkpt lat="44.05284782554115" lon="12.458232470164287"><ele>37.800000000000004</ele><time>2026-05-02T16:20:39.999Z</time></trkpt><trkpt lat="44.052862322512325" lon="12.458367690233775"><ele>37.4</ele><time>2026-05-02T16:20:41.999Z</time></trkpt><trkpt lat="44.05289493345533" lon="12.458479918701705"><ele>37.0</ele><time>2026-05-02T16:20:43.999Z</time></trkpt><trkpt lat="44.052925251090535" lon="12.4585956302963"><ele>37.0</ele><time>2026-05-02T16:20:45.999Z</time></trkpt><trkpt lat="44.0529630698684" lon="12.458713941547346"><ele>37.0</ele><time>2026-05-02T16:20:47.999Z</time></trkpt><trkpt lat="44.05300255269991" lon="12.458825214464722"><ele>37.0</ele><time>2026-05-02T16:20:49.999Z</time></trkpt><trkpt lat="44.053040803025354" lon="12.458934925995168"><ele>37.0</ele><time>2026-05-02T16:20:51.999Z</time></trkpt><trkpt lat="44.05309157780881" lon="12.459037669113544"><ele>37.0</ele><time>2026-05-02T16:20:53.999Z</time></trkpt><trkpt lat="44.05312339546797" lon="12.459161621224752"><ele>37.0</ele><time>2026-05-02T16:20:55.999Z</time></trkpt><trkpt lat="44.05317428169932" lon="12.459257380333586"><ele>37.0</ele><time>2026-05-02T16:20:57.999Z</time></trkpt><trkpt lat="44.05321380631055" lon="12.459373377282837"><ele>37.0</ele><time>2026-05-02T16:20:59.999Z</time></trkpt><trkpt lat="44.05325721480621" lon="12.459482011389984"><ele>37.0</ele><time>2026-05-02T16:21:01.999Z</time></trkpt><trkpt lat="44.05329520254747" lon="12.459597560048758"><ele>37.0</ele><time>2026-05-02T16:21:04Z</time></trkpt><trkpt lat="44.05334074659483" lon="12.459718298857052"><ele>37.0</ele><time>2026-05-02T16:21:06Z</time></trkpt><trkpt lat="44.05337490628112" lon="12.45984680753479"><ele>37.0</ele><time>2026-05-02T16:21:08Z</time></trkpt><trkpt lat="44.053389300480966" lon="12.459983192597974"><ele>37.0</ele><time>2026-05-02T16:21:10Z</time></trkpt><trkpt lat="44.0534078781382" lon="12.460110733073485"><ele>37.0</ele><time>2026-05-02T16:21:12Z</time></trkpt><trkpt lat="44.053401709779315" lon="12.460244703943545"><ele>37.0</ele><time>2026-05-02T16:21:14Z</time></trkpt><trkpt lat="44.053350848431315" lon="12.460363184003212"><ele>37.0</ele><time>2026-05-02T16:21:16Z</time></trkpt><trkpt lat="44.053261287584455" lon="12.460448147554153"><ele>37.0</ele><time>2026-05-02T16:21:18Z</time></trkpt><trkpt lat="44.05317184647465" lon="12.46049974089346"><ele>37.0</ele><time>2026-05-02T16:21:20Z</time></trkpt><trkpt lat="44.05307594630219" lon="12.46053898637512"><ele>37.0</ele><time>2026-05-02T16:21:22Z</time></trkpt><trkpt lat="44.052980689697954" lon="12.460575058127512"><ele>37.0</ele><time>2026-05-02T16:21:24Z</time></trkpt><trkpt lat="44.052893426297175" lon="12.460613352415384"><ele>36.800000000000004</ele><time>2026-05-02T16:21:26Z</time></trkpt><trkpt lat="44.05286403610985" lon="12.460740650541753"><ele>36.6</ele><time>2026-05-02T16:21:28Z</time></trkpt><trkpt lat="44.0528804131455" lon="12.460883571871785"><ele>36.400000000000006</ele><time>2026-05-02T16:21:30Z</time></trkpt><trkpt lat="44.05289557055116" lon="12.461009423688237"><ele>36.2</ele><time>2026-05-02T16:21:32Z</time></trkpt><trkpt lat="44.05291395098943" lon="12.461135144317794"><ele>36.0</ele><time>2026-05-02T16:21:34Z</time></trkpt><trkpt lat="44.05293363834222" lon="12.461260640803852"><ele>36.2</ele><time>2026-05-02T16:21:36Z</time></trkpt><trkpt lat="44.052957358964015" lon="12.461394859119313"><ele>36.400000000000006</ele><time>2026-05-02T16:21:38Z</time></trkpt><trkpt lat="44.052989793596694" lon="12.461534427528075"><ele>36.6</ele><time>2026-05-02T16:21:40Z</time></trkpt><trkpt lat="44.053031210538926" lon="12.461662947165157"><ele>36.800000000000004</ele><time>2026-05-02T16:21:42Z</time></trkpt><trkpt lat="44.053077008331194" lon="12.461783815104384"><ele>37.0</ele><time>2026-05-02T16:21:44Z</time></trkpt><trkpt lat="44.05312843656581" lon="12.46190266905339"><ele>37.0</ele><time>2026-05-02T16:21:46Z</time></trkpt><trkpt lat="44.053175805901375" lon="12.462014800687413"><ele>37.0</ele><time>2026-05-02T16:21:48Z</time></trkpt><trkpt lat="44.053241541255694" lon="12.462105692366828"><ele>37.0</ele><time>2026-05-02T16:21:50Z</time></trkpt><trkpt lat="44.05326770332071" lon="12.46223884516576"><ele>37.0</ele><time>2026-05-02T16:21:52Z</time></trkpt><trkpt lat="44.053283154268186" lon="12.462366026536149"><ele>37.0</ele><time>2026-05-02T16:21:54Z</time></trkpt><trkpt lat="44.05328837859218" lon="12.462505292189975"><ele>37.0</ele><time>2026-05-02T16:21:56Z</time></trkpt><trkpt lat="44.053286411953344" lon="12.462638485780127"><ele>37.0</ele><time>2026-05-02T16:21:58Z</time></trkpt><trkpt lat="44.053273576367076" lon="12.462767603683648"><ele>37.0</ele><time>2026-05-02T16:22:00Z</time></trkpt><trkpt lat="44.0532273061915" lon="12.462882052897577"><ele>37.0</ele><time>2026-05-02T16:22:02Z</time></trkpt><trkpt lat="44.053155434064735" lon="12.462958822679333"><ele>37.0</ele><time>2026-05-02T16:22:04Z</time></trkpt><trkpt lat="44.05308319775903" lon="12.463022765485713"><ele>37.0</ele><time>2026-05-02T16:22:06Z</time></trkpt><trkpt lat="44.053004747249595" lon="12.463094774756636"><ele>37.0</ele><time>2026-05-02T16:22:08Z</time></trkpt><trkpt lat="44.052924437251924" lon="12.46315731305173"><ele>37.0</ele><time>2026-05-02T16:22:10Z</time></trkpt><trkpt lat="44.052846193322075" lon="12.463205726813044"><ele>37.0</ele><time>2026-05-02T16:22:12Z</time></trkpt><trkpt lat="44.05277032090127" lon="12.463277129388276"><ele>37.0</ele><time>2026-05-02T16:22:13.999Z</time></trkpt><trkpt lat="44.052692310187304" lon="12.463334581559762"><ele>37.0</ele><time>2026-05-02T16:22:15.999Z</time></trkpt><trkpt lat="44.052615867518604" lon="12.46339476430003"><ele>37.0</ele><time>2026-05-02T16:22:17.999Z</time></trkpt><trkpt lat="44.05254904224856" lon="12.4634562098689"><ele>37.0</ele><time>2026-05-02T16:22:19.999Z</time></trkpt><trkpt lat="44.052486879124366" lon="12.463510745782195"><ele>37.0</ele><time>2026-05-02T16:22:21.999Z</time></trkpt><trkpt lat="44.05242391023745" lon="12.463560313137727"><ele>37.0</ele><time>2026-05-02T16:22:23.999Z</time></trkpt><trkpt lat="44.052370636274794" lon="12.463616184579399"><ele>37.0</ele><time>2026-05-02T16:22:25.999Z</time></trkpt><trkpt lat="44.05230516338356" lon="12.463685782920066"><ele>36.333333333333336</ele><time>2026-05-02T16:22:28.999Z</time></trkpt><trkpt lat="44.052242460436766" lon="12.463729264801339"><ele>35.66666666666667</ele><time>2026-05-02T16:22:33.999Z</time></trkpt><trkpt lat="44.05214558840401" lon="12.46370229228994"><ele>35.0</ele><time>2026-05-02T16:22:36.999Z</time></trkpt><trkpt lat="44.0520982166401" lon="12.463636856889982"><ele>34.333333333333336</ele><time>2026-05-02T16:22:38.999Z</time></trkpt><trkpt lat="44.05205642723871" lon="12.463548675525837"><ele>33.666666666666664</ele><time>2026-05-02T16:22:40.999Z</time></trkpt><trkpt lat="44.05202396989734" lon="12.463454051549945"><ele>33.0</ele><time>2026-05-02T16:22:42.999Z</time></trkpt><trkpt lat="44.051977740239835" lon="12.463366939960904"><ele>33.0</ele><time>2026-05-02T16:22:44.999Z</time></trkpt><trkpt lat="44.05194069377694" lon="12.463268242874275"><ele>33.0</ele><time>2026-05-02T16:22:46.999Z</time></trkpt><trkpt lat="44.051899281814606" lon="12.463184095219187"><ele>33.0</ele><time>2026-05-02T16:22:48.999Z</time></trkpt><trkpt lat="44.051859996134105" lon="12.463095746525756"><ele>33.0</ele><time>2026-05-02T16:22:50.999Z</time></trkpt><trkpt lat="44.05181665162888" lon="12.463019759671429"><ele>33.0</ele><time>2026-05-02T16:22:52.999Z</time></trkpt><trkpt lat="44.0517680829722" lon="12.46292755322734"><ele>33.0</ele><time>2026-05-02T16:22:55.999Z</time></trkpt><trkpt lat="44.05173637984224" lon="12.462821190506556"><ele>32.8</ele><time>2026-05-02T16:22:57.999Z</time></trkpt><trkpt lat="44.051691560971456" lon="12.46271335067323"><ele>32.599999999999994</ele><time>2026-05-02T16:22:59.999Z</time></trkpt><trkpt lat="44.051643574876024" lon="12.46259546180757"><ele>32.400000000000006</ele><time>2026-05-02T16:23:01.999Z</time></trkpt><trkpt lat="44.05158887232078" lon="12.462481319363873"><ele>32.2</ele><time>2026-05-02T16:23:03.999Z</time></trkpt><trkpt lat="44.05152648143505" lon="12.462366181002569"><ele>32.0</ele><time>2026-05-02T16:23:05.999Z</time></trkpt><trkpt lat="44.05149055076852" lon="12.462238072273253"><ele>31.999999999999996</ele><time>2026-05-02T16:23:07.999Z</time></trkpt><trkpt lat="44.05143545070316" lon="12.462143106960427"><ele>32.0</ele><time>2026-05-02T16:23:10Z</time></trkpt><trkpt lat="44.051383568439846" lon="12.462052811081135"><ele>32.0</ele><time>2026-05-02T16:23:12Z</time></trkpt><trkpt lat="44.05133596105626" lon="12.461969955278908"><ele>32.0</ele><time>2026-05-02T16:23:14Z</time></trkpt><trkpt lat="44.051288644522245" lon="12.461893128338891"><ele>31.999999999999996</ele><time>2026-05-02T16:23:16Z</time></trkpt><trkpt lat="44.05124753658892" lon="12.461826710482233"><ele>32.0</ele><time>2026-05-02T16:23:18Z</time></trkpt><trkpt lat="44.05119901721585" lon="12.461748318058879"><ele>32.5</ele><time>2026-05-02T16:23:20Z</time></trkpt><trkpt lat="44.051145593514036" lon="12.461694591306982"><ele>33.0</ele><time>2026-05-02T16:23:22Z</time></trkpt><trkpt lat="44.05110973607697" lon="12.461604066391974"><ele>33.5</ele><time>2026-05-02T16:23:24Z</time></trkpt><trkpt lat="44.05105986856992" lon="12.46151878156729"><ele>34.0</ele><time>2026-05-02T16:23:26Z</time></trkpt><trkpt lat="44.05101378033289" lon="12.461425994317015"><ele>34.5</ele><time>2026-05-02T16:23:28Z</time></trkpt><trkpt lat="44.05096324049654" lon="12.461310678156362"><ele>35.0</ele><time>2026-05-02T16:23:30Z</time></trkpt><trkpt lat="44.05092002232694" lon="12.461198350636083"><ele>34.8</ele><time>2026-05-02T16:23:32Z</time></trkpt><trkpt lat="44.05086384398289" lon="12.461087088553972"><ele>34.6</ele><time>2026-05-02T16:23:34Z</time></trkpt><trkpt lat="44.05082737304292" lon="12.46097090997392"><ele>34.4</ele><time>2026-05-02T16:23:36Z</time></trkpt><trkpt lat="44.05079734361971" lon="12.460858764504795"><ele>34.2</ele><time>2026-05-02T16:23:38Z</time></trkpt><trkpt lat="44.05075588210877" lon="12.460745767855043"><ele>34.0</ele><time>2026-05-02T16:23:40Z</time></trkpt><trkpt lat="44.0507200542718" lon="12.46063527177846"><ele>34.0</ele><time>2026-05-02T16:23:42Z</time></trkpt><trkpt lat="44.05067337204875" lon="12.46054376225294"><ele>34.0</ele><time>2026-05-02T16:23:44Z</time></trkpt><trkpt lat="44.05062605242183" lon="12.460454208968018"><ele>34.0</ele><time>2026-05-02T16:23:46Z</time></trkpt><trkpt lat="44.05056406349096" lon="12.460380143246168"><ele>34.0</ele><time>2026-05-02T16:23:48Z</time></trkpt><trkpt lat="44.05050130184612" lon="12.460307583871648"><ele>34.0</ele><time>2026-05-02T16:23:50Z</time></trkpt><trkpt lat="44.05043674350268" lon="12.460255422673473"><ele>34.0</ele><time>2026-05-02T16:23:52Z</time></trkpt><trkpt lat="44.050378922654446" lon="12.460202688310693"><ele>34.0</ele><time>2026-05-02T16:23:54Z</time></trkpt><trkpt lat="44.050322899050734" lon="12.460140227158456"><ele>34.0</ele><time>2026-05-02T16:23:56Z</time></trkpt><trkpt lat="44.05025568312224" lon="12.460091615984167"><ele>34.0</ele><time>2026-05-02T16:23:58Z</time></trkpt><trkpt lat="44.050184530101525" lon="12.460030749395571"><ele>34.0</ele><time>2026-05-02T16:24:00Z</time></trkpt><trkpt lat="44.05010120638858" lon="12.459978733763327"><ele>34.0</ele><time>2026-05-02T16:24:02Z</time></trkpt><trkpt lat="44.05001820613349" lon="12.45994396978249"><ele>34.0</ele><time>2026-05-02T16:24:04Z</time></trkpt><trkpt lat="44.04995282458908" lon="12.459905945894612"><ele>34.0</ele><time>2026-05-02T16:24:06Z</time></trkpt><trkpt lat="44.04988962392508" lon="12.459830738020742"><ele>34.0</ele><time>2026-05-02T16:24:08Z</time></trkpt><trkpt lat="44.04984181266038" lon="12.459733165078307"><ele>34.0</ele><time>2026-05-02T16:24:10Z</time></trkpt><trkpt lat="44.049812589446425" lon="12.45963661479153"><ele>34.0</ele><time>2026-05-02T16:24:12Z</time></trkpt><trkpt lat="44.04977073288807" lon="12.459549989516837"><ele>34.0</ele><time>2026-05-02T16:24:14Z</time></trkpt><trkpt lat="44.04973525733703" lon="12.459450119606002"><ele>34.0</ele><time>2026-05-02T16:24:16Z</time></trkpt><trkpt lat="44.04968522747115" lon="12.4593606877221"><ele>34.333333333333336</ele><time>2026-05-02T16:24:18Z</time></trkpt><trkpt lat="44.049644575712826" lon="12.459265012593892"><ele>34.66666666666667</ele><time>2026-05-02T16:24:20Z</time></trkpt><trkpt lat="44.049604508547525" lon="12.45917443589447"><ele>35.0</ele><time>2026-05-02T16:24:22Z</time></trkpt><trkpt lat="44.049562178993284" lon="12.459080632659195"><ele>35.333333333333336</ele><time>2026-05-02T16:24:24Z</time></trkpt><trkpt lat="44.04952525596805" lon="12.458990875238896"><ele>35.666666666666664</ele><time>2026-05-02T16:24:26Z</time></trkpt><trkpt lat="44.049493041557135" lon="12.458898011043273"><ele>36.0</ele><time>2026-05-02T16:24:27.999Z</time></trkpt><trkpt lat="44.04944835866648" lon="12.45879891502486"><ele>36.5</ele><time>2026-05-02T16:24:29.999Z</time></trkpt><trkpt lat="44.049405420854626" lon="12.45871857001013"><ele>37.0</ele><time>2026-05-02T16:24:31.999Z</time></trkpt><trkpt lat="44.049371964867966" lon="12.458616655247654"><ele>37.5</ele><time>2026-05-02T16:24:33.999Z</time></trkpt><trkpt lat="44.04933525202582" lon="12.458519281419376"><ele>38.0</ele><time>2026-05-02T16:24:35.999Z</time></trkpt><trkpt lat="44.04930022106594" lon="12.45842307984857"><ele>38.5</ele><time>2026-05-02T16:24:37.999Z</time></trkpt><trkpt lat="44.04925967318134" lon="12.458331491949936"><ele>39.0</ele><time>2026-05-02T16:24:39.999Z</time></trkpt><trkpt lat="44.04922165874774" lon="12.458257414375039"><ele>39.0</ele><time>2026-05-02T16:24:41.999Z</time></trkpt><trkpt lat="44.049182353938214" lon="12.458173262590941"><ele>39.0</ele><time>2026-05-02T16:24:44.999Z</time></trkpt><trkpt lat="44.049126418087326" lon="12.458084957768923"><ele>39.0</ele><time>2026-05-02T16:24:47.999Z</time></trkpt><trkpt lat="44.04908553856481" lon="12.458013684759607"><ele>39.0</ele><time>2026-05-02T16:24:49.999Z</time></trkpt><trkpt lat="44.049016633841255" lon="12.457935888337325"><ele>39.0</ele><time>2026-05-02T16:24:51.999Z</time></trkpt><trkpt lat="44.048927459297566" lon="12.457857406292971"><ele>39.0</ele><time>2026-05-02T16:24:53.999Z</time></trkpt><trkpt lat="44.04885606561907" lon="12.457737448687354"><ele>38.333333333333336</ele><time>2026-05-02T16:24:55.999Z</time></trkpt><trkpt lat="44.04883978157152" lon="12.45759635732611"><ele>37.666666666666664</ele><time>2026-05-02T16:24:57.999Z</time></trkpt><trkpt lat="44.04885748979158" lon="12.457463288845089"><ele>37.0</ele><time>2026-05-02T16:24:59.999Z</time></trkpt><trkpt lat="44.048898997621365" lon="12.457351232581818"><ele>36.33333333333333</ele><time>2026-05-02T16:25:01.999Z</time></trkpt><trkpt lat="44.04894135228984" lon="12.457270909764599"><ele>35.666666666666664</ele><time>2026-05-02T16:25:03.999Z</time></trkpt><trkpt lat="44.048991964210416" lon="12.45720458100917"><ele>35.0</ele><time>2026-05-02T16:25:05.999Z</time></trkpt><trkpt lat="44.04904393114053" lon="12.45713487405027"><ele>35.166666666666664</ele><time>2026-05-02T16:25:07.999Z</time></trkpt><trkpt lat="44.0491038402533" lon="12.45707297348903"><ele>35.33333333333333</ele><time>2026-05-02T16:25:09.999Z</time></trkpt><trkpt lat="44.049159362434004" lon="12.456998791280808"><ele>35.5</ele><time>2026-05-02T16:25:11.999Z</time></trkpt><trkpt lat="44.04922973939502" lon="12.456940162490579"><ele>35.666666666666664</ele><time>2026-05-02T16:25:13.999Z</time></trkpt><trkpt lat="44.04930188500161" lon="12.456896203173667"><ele>35.833333333333336</ele><time>2026-05-02T16:25:16Z</time></trkpt><trkpt lat="44.049373173568" lon="12.456862971366553"><ele>36.0</ele><time>2026-05-02T16:25:18Z</time></trkpt><trkpt lat="44.04942820406928" lon="12.456810625205812"><ele>36.666666666666664</ele><time>2026-05-02T16:25:20Z</time></trkpt><trkpt lat="44.04946266534174" lon="12.456726136210937"><ele>37.333333333333336</ele><time>2026-05-02T16:25:23Z</time></trkpt><trkpt lat="44.04948678739572" lon="12.456607533033592"><ele>38.0</ele><time>2026-05-02T16:25:26Z</time></trkpt><trkpt lat="44.04948866314283" lon="12.456467723957"><ele>38.66666666666667</ele><time>2026-05-02T16:25:29Z</time></trkpt><trkpt lat="44.049492361278865" lon="12.456360364088495"><ele>39.333333333333336</ele><time>2026-05-02T16:25:31Z</time></trkpt><trkpt lat="44.049479985973385" lon="12.456251489567713"><ele>40.0</ele><time>2026-05-02T16:25:33Z</time></trkpt><trkpt lat="44.04947311502592" lon="12.45613300592137"><ele>40.333333333333336</ele><time>2026-05-02T16:25:35Z</time></trkpt><trkpt lat="44.049459064952124" lon="12.456034811496316"><ele>40.66666666666667</ele><time>2026-05-02T16:25:37Z</time></trkpt><trkpt lat="44.04944856103412" lon="12.455923495340347"><ele>41.0</ele><time>2026-05-02T16:25:39Z</time></trkpt><trkpt lat="44.049445983570855" lon="12.455810754542846"><ele>41.333333333333336</ele><time>2026-05-02T16:25:41Z</time></trkpt><trkpt lat="44.049431774079416" lon="12.455699093234456"><ele>41.666666666666664</ele><time>2026-05-02T16:25:43Z</time></trkpt><trkpt lat="44.049412079622876" lon="12.45558653916018"><ele>42.0</ele><time>2026-05-02T16:25:45Z</time></trkpt><trkpt lat="44.049380786540304" lon="12.455483175270452"><ele>41.833333333333336</ele><time>2026-05-02T16:25:47Z</time></trkpt><trkpt lat="44.04935204528469" lon="12.45538262619835"><ele>41.666666666666664</ele><time>2026-05-02T16:25:49Z</time></trkpt><trkpt lat="44.04932284751239" lon="12.45527657798924"><ele>41.5</ele><time>2026-05-02T16:25:51Z</time></trkpt><trkpt lat="44.04928068737671" lon="12.455179872776974"><ele>41.33333333333333</ele><time>2026-05-02T16:25:53Z</time></trkpt><trkpt lat="44.04924679268748" lon="12.455080104734805"><ele>41.166666666666664</ele><time>2026-05-02T16:25:55Z</time></trkpt><trkpt lat="44.04921877796164" lon="12.454983731542663"><ele>41.0</ele><time>2026-05-02T16:25:57Z</time></trkpt><trkpt lat="44.04918007157705" lon="12.454885607576939"><ele>41.0</ele><time>2026-05-02T16:25:59Z</time></trkpt><trkpt lat="44.049144297896966" lon="12.454793813357798"><ele>41.0</ele><time>2026-05-02T16:26:01Z</time></trkpt><trkpt lat="44.04910888327726" lon="12.454695079812774"><ele>41.0</ele><time>2026-05-02T16:26:03Z</time></trkpt><trkpt lat="44.04905551429899" lon="12.454616318562765"><ele>41.0</ele><time>2026-05-02T16:26:05Z</time></trkpt><trkpt lat="44.04898638706725" lon="12.454563523556594"><ele>41.0</ele><time>2026-05-02T16:26:07Z</time></trkpt><trkpt lat="44.04891386978384" lon="12.454513396421643"><ele>41.0</ele><time>2026-05-02T16:26:09Z</time></trkpt><trkpt lat="44.04883523755482" lon="12.45447675550922"><ele>41.33333333333333</ele><time>2026-05-02T16:26:11Z</time></trkpt><trkpt lat="44.04875642047027" lon="12.454422728249563"><ele>41.666666666666664</ele><time>2026-05-02T16:26:13Z</time></trkpt><trkpt lat="44.04868724897092" lon="12.4543518162293"><ele>42.0</ele><time>2026-05-02T16:26:15Z</time></trkpt><trkpt lat="44.04863878700628" lon="12.454265324389493"><ele>42.333333333333336</ele><time>2026-05-02T16:26:17Z</time></trkpt><trkpt lat="44.04859756774959" lon="12.454168331849294"><ele>42.66666666666667</ele><time>2026-05-02T16:26:19Z</time></trkpt><trkpt lat="44.048554663529" lon="12.454063370727745"><ele>43.0</ele><time>2026-05-02T16:26:21Z</time></trkpt><trkpt lat="44.04851254778208" lon="12.453954282347894"><ele>43.0</ele><time>2026-05-02T16:26:23Z</time></trkpt><trkpt lat="44.04845295195737" lon="12.453850083137777"><ele>43.0</ele><time>2026-05-02T16:26:25Z</time></trkpt><trkpt lat="44.04837936907585" lon="12.453769659903191"><ele>43.0</ele><time>2026-05-02T16:26:27Z</time></trkpt><trkpt lat="44.04829177277795" lon="12.453719967156786"><ele>43.0</ele><time>2026-05-02T16:26:29Z</time></trkpt><trkpt lat="44.04820484444357" lon="12.45372461951807"><ele>43.0</ele><time>2026-05-02T16:26:31Z</time></trkpt><trkpt lat="44.048122074484546" lon="12.45376050397173"><ele>42.4</ele><time>2026-05-02T16:26:33Z</time></trkpt><trkpt lat="44.048038314890405" lon="12.45381228695507"><ele>41.8</ele><time>2026-05-02T16:26:34.999Z</time></trkpt><trkpt lat="44.04792660256742" lon="12.453847876728398"><ele>41.2</ele><time>2026-05-02T16:26:36.999Z</time></trkpt><trkpt lat="44.047811263836714" lon="12.453821121066401"><ele>40.6</ele><time>2026-05-02T16:26:38.999Z</time></trkpt><trkpt lat="44.04771221326771" lon="12.453742132725807"><ele>40.0</ele><time>2026-05-02T16:26:40.999Z</time></trkpt><trkpt lat="44.047629864310835" lon="12.453642156581475"><ele>40.0</ele><time>2026-05-02T16:26:42.999Z</time></trkpt><trkpt lat="44.04754705143289" lon="12.453539436008676"><ele>40.0</ele><time>2026-05-02T16:26:44.999Z</time></trkpt><trkpt lat="44.04746378727075" lon="12.453440367788453"><ele>40.0</ele><time>2026-05-02T16:26:46.999Z</time></trkpt><trkpt lat="44.04739435097038" lon="12.453317653189462"><ele>40.0</ele><time>2026-05-02T16:26:48.999Z</time></trkpt><trkpt lat="44.047334812958624" lon="12.453206678534892"><ele>40.0</ele><time>2026-05-02T16:26:50.999Z</time></trkpt><trkpt lat="44.04728439895889" lon="12.453093200286357"><ele>39.833333333333336</ele><time>2026-05-02T16:26:52.999Z</time></trkpt><trkpt lat="44.04724667854267" lon="12.453004711261139"><ele>39.66666666666667</ele><time>2026-05-02T16:26:54.999Z</time></trkpt><trkpt lat="44.04723233993579" lon="12.452914539117904"><ele>39.5</ele><time>2026-05-02T16:26:58.999Z</time></trkpt><trkpt lat="44.047189093068596" lon="12.452801342474448"><ele>39.333333333333336</ele><time>2026-05-02T16:27:02.999Z</time></trkpt><trkpt lat="44.04717895728105" lon="12.452696723397763"><ele>39.166666666666664</ele><time>2026-05-02T16:27:05.999Z</time></trkpt><trkpt lat="44.047232110368086" lon="12.452589367321954"><ele>39.0</ele><time>2026-05-02T16:27:08.999Z</time></trkpt><trkpt lat="44.047291911636165" lon="12.452531413832988"><ele>39.0</ele><time>2026-05-02T16:27:10.999Z</time></trkpt><trkpt lat="44.04734773610713" lon="12.452483315785093"><ele>39.0</ele><time>2026-05-02T16:27:12.999Z</time></trkpt><trkpt lat="44.047411771934506" lon="12.452426629753768"><ele>39.0</ele><time>2026-05-02T16:27:14.999Z</time></trkpt><trkpt lat="44.047471477821084" lon="12.452365349929751"><ele>39.0</ele><time>2026-05-02T16:27:16.999Z</time></trkpt><trkpt lat="44.04753859432425" lon="12.45232478205359"><ele>39.0</ele><time>2026-05-02T16:27:18.999Z</time></trkpt><trkpt lat="44.04761119645612" lon="12.452275340755197"><ele>39.0</ele><time>2026-05-02T16:27:22Z</time></trkpt><trkpt lat="44.04766234574868" lon="12.45222038338548"><ele>39.0</ele><time>2026-05-02T16:27:24Z</time></trkpt><trkpt lat="44.04771562380102" lon="12.452169262100046"><ele>39.5</ele><time>2026-05-02T16:27:26Z</time></trkpt><trkpt lat="44.04779218554799" lon="12.452095276727427"><ele>40.0</ele><time>2026-05-02T16:27:29Z</time></trkpt><trkpt lat="44.04787668377241" lon="12.452027725103521"><ele>40.5</ele><time>2026-05-02T16:27:32Z</time></trkpt><trkpt lat="44.04796146724874" lon="12.452003861961755"><ele>41.0</ele><time>2026-05-02T16:27:35Z</time></trkpt><trkpt lat="44.04795230974681" lon="12.452102532514724"><ele>41.5</ele><time>2026-05-02T16:27:38Z</time></trkpt><trkpt lat="44.04788172915749" lon="12.45216434692378"><ele>42.0</ele><time>2026-05-02T16:27:41Z</time></trkpt><trkpt lat="44.04781755956765" lon="12.452216075904628"><ele>42.0</ele><time>2026-05-02T16:27:44Z</time></trkpt><trkpt lat="44.0477640041069" lon="12.45229192900918"><ele>42.0</ele><time>2026-05-02T16:27:47Z</time></trkpt><trkpt lat="44.04769945514802" lon="12.452345288969928"><ele>42.0</ele><time>2026-05-02T16:27:50Z</time></trkpt><trkpt lat="44.047643203817096" lon="12.452408713950867"><ele>42.0</ele><time>2026-05-02T16:27:53Z</time></trkpt><trkpt lat="44.047585491835115" lon="12.452465895905547"><ele>42.0</ele><time>2026-05-02T16:27:56Z</time></trkpt><trkpt lat="44.04751577486898" lon="12.452532835075296"><ele>42.0</ele><time>2026-05-02T16:27:59Z</time></trkpt><trkpt lat="44.04745616673975" lon="12.452596056703724"><ele>41.5</ele><time>2026-05-02T16:28:02Z</time></trkpt><trkpt lat="44.047398642461495" lon="12.452663069171603"><ele>41.0</ele><time>2026-05-02T16:28:05Z</time></trkpt><trkpt lat="44.047329331184244" lon="12.452728339693653"><ele>40.5</ele><time>2026-05-02T16:28:08Z</time></trkpt><trkpt lat="44.04724969554588" lon="12.452802926419038"><ele>40.0</ele><time>2026-05-02T16:28:11Z</time></trkpt><trkpt lat="44.04719776687145" lon="12.452858297134275"><ele>39.5</ele><time>2026-05-02T16:28:13Z</time></trkpt><trkpt lat="44.047139066955204" lon="12.452910074106798"><ele>39.0</ele><time>2026-05-02T16:28:15Z</time></trkpt><trkpt lat="44.04708394093329" lon="12.452955629726764"><ele>38.85714285714286</ele><time>2026-05-02T16:28:17Z</time></trkpt><trkpt lat="44.047022895068125" lon="12.453012438210175"><ele>38.71428571428571</ele><time>2026-05-02T16:28:19Z</time></trkpt><trkpt lat="44.04695744864794" lon="12.453074425876949"><ele>38.57142857142857</ele><time>2026-05-02T16:28:21Z</time></trkpt><trkpt lat="44.04689906730398" lon="12.453126331953417"><ele>38.42857142857143</ele><time>2026-05-02T16:28:23Z</time></trkpt><trkpt lat="44.04683137323107" lon="12.453179505844227"><ele>38.28571428571429</ele><time>2026-05-02T16:28:26Z</time></trkpt><trkpt lat="44.04677901179048" lon="12.453229097050436"><ele>38.14285714285714</ele><time>2026-05-02T16:28:28Z</time></trkpt><trkpt lat="44.04671802201991" lon="12.453282851452306"><ele>38.0</ele><time>2026-05-02T16:28:30Z</time></trkpt><trkpt lat="44.04665744994995" lon="12.453335798769386"><ele>37.857142857142854</ele><time>2026-05-02T16:28:32Z</time></trkpt><trkpt lat="44.04659588349449" lon="12.45339373990591"><ele>37.714285714285715</ele><time>2026-05-02T16:28:34Z</time></trkpt><trkpt lat="44.04652461009479" lon="12.453450979177783"><ele>37.57142857142857</ele><time>2026-05-02T16:28:36Z</time></trkpt><trkpt lat="44.046454097240385" lon="12.453516959955959"><ele>37.42857142857143</ele><time>2026-05-02T16:28:38Z</time></trkpt><trkpt lat="44.04639280896937" lon="12.453572348200256"><ele>37.285714285714285</ele><time>2026-05-02T16:28:40Z</time></trkpt><trkpt lat="44.04633864884425" lon="12.453621039750296"><ele>37.142857142857146</ele><time>2026-05-02T16:28:42Z</time></trkpt><trkpt lat="44.04628404320852" lon="12.453671664593148"><ele>37.0</ele><time>2026-05-02T16:28:44Z</time></trkpt><trkpt lat="44.04621568942513" lon="12.453732189956293"><ele>37.16666666666667</ele><time>2026-05-02T16:28:45.999Z</time></trkpt><trkpt lat="44.04615075300466" lon="12.453789863827653"><ele>37.333333333333336</ele><time>2026-05-02T16:28:47.999Z</time></trkpt><trkpt lat="44.04608860666902" lon="12.45385015203214"><ele>37.5</ele><time>2026-05-02T16:28:49.999Z</time></trkpt><trkpt lat="44.04602116605043" lon="12.45391243005884"><ele>37.666666666666664</ele><time>2026-05-02T16:28:51.999Z</time></trkpt><trkpt lat="44.045950671169784" lon="12.453977441300772"><ele>37.83333333333333</ele><time>2026-05-02T16:28:53.999Z</time></trkpt><trkpt lat="44.04587719281266" lon="12.454041262839997"><ele>38.0</ele><time>2026-05-02T16:28:55.999Z</time></trkpt><trkpt lat="44.045806334479714" lon="12.454100903735766"><ele>38.33333333333333</ele><time>2026-05-02T16:28:57.999Z</time></trkpt><trkpt lat="44.045741784666546" lon="12.454164124730504"><ele>38.666666666666664</ele><time>2026-05-02T16:28:59.999Z</time></trkpt><trkpt lat="44.04567632990669" lon="12.45422884853598"><ele>39.0</ele><time>2026-05-02T16:29:01.999Z</time></trkpt><trkpt lat="44.04560672635185" lon="12.454295993259944"><ele>39.333333333333336</ele><time>2026-05-02T16:29:03.999Z</time></trkpt><trkpt lat="44.045532249335594" lon="12.454358344404353"><ele>39.66666666666667</ele><time>2026-05-02T16:29:05.999Z</time></trkpt><trkpt lat="44.045454755847906" lon="12.454422827792337"><ele>40.0</ele><time>2026-05-02T16:29:07.999Z</time></trkpt><trkpt lat="44.045385353919826" lon="12.454483999061303"><ele>40.0</ele><time>2026-05-02T16:29:09.999Z</time></trkpt><trkpt lat="44.0453214583976" lon="12.454546241545698"><ele>40.0</ele><time>2026-05-02T16:29:11.999Z</time></trkpt><trkpt lat="44.04525406195843" lon="12.454608087798922"><ele>40.0</ele><time>2026-05-02T16:29:13.999Z</time></trkpt><trkpt lat="44.04517963540135" lon="12.454678373886436"><ele>40.0</ele><time>2026-05-02T16:29:15.999Z</time></trkpt><trkpt lat="44.045107432303816" lon="12.454745786161201"><ele>40.0</ele><time>2026-05-02T16:29:17.999Z</time></trkpt><trkpt lat="44.04502972722921" lon="12.454815275801018"><ele>40.0</ele><time>2026-05-02T16:29:19.999Z</time></trkpt><trkpt lat="44.04494903032371" lon="12.45488314510311"><ele>40.5</ele><time>2026-05-02T16:29:21.999Z</time></trkpt><trkpt lat="44.044868820035546" lon="12.45495099864036"><ele>41.0</ele><time>2026-05-02T16:29:23.999Z</time></trkpt><trkpt lat="44.04478461828865" lon="12.45502556555503"><ele>41.5</ele><time>2026-05-02T16:29:25.999Z</time></trkpt><trkpt lat="44.04471373418152" lon="12.45509319218119"><ele>42.0</ele><time>2026-05-02T16:29:28Z</time></trkpt><trkpt lat="44.04464214497924" lon="12.455158436063401"><ele>42.5</ele><time>2026-05-02T16:29:30Z</time></trkpt><trkpt lat="44.04457634061759" lon="12.455217771145863"><ele>43.0</ele><time>2026-05-02T16:29:32Z</time></trkpt><trkpt lat="44.044507257857624" lon="12.455276688079728"><ele>43.0</ele><time>2026-05-02T16:29:34Z</time></trkpt><trkpt lat="44.04444752656062" lon="12.455338625312237"><ele>43.0</ele><time>2026-05-02T16:29:36Z</time></trkpt><trkpt lat="44.04438040520688" lon="12.455389540942567"><ele>43.0</ele><time>2026-05-02T16:29:38Z</time></trkpt><trkpt lat="44.044314993889124" lon="12.455377087051634"><ele>43.0</ele><time>2026-05-02T16:29:40Z</time></trkpt><trkpt lat="44.044254385416394" lon="12.45529690075134"><ele>43.0</ele><time>2026-05-02T16:29:42Z</time></trkpt><trkpt lat="44.04419788786448" lon="12.455218109244683"><ele>43.0</ele><time>2026-05-02T16:29:44Z</time></trkpt><trkpt lat="44.04413628859515" lon="12.455137438485808"><ele>43.0</ele><time>2026-05-02T16:29:46Z</time></trkpt><trkpt lat="44.044077149718085" lon="12.455044628853832"><ele>43.0</ele><time>2026-05-02T16:29:48Z</time></trkpt><trkpt lat="44.04401231013511" lon="12.454959799158289"><ele>43.0</ele><time>2026-05-02T16:29:50Z</time></trkpt><trkpt lat="44.04394493781832" lon="12.45488955581001"><ele>43.0</ele><time>2026-05-02T16:29:52Z</time></trkpt><trkpt lat="44.04392309201003" lon="12.454783515387996"><ele>43.0</ele><time>2026-05-02T16:29:54Z</time></trkpt><trkpt lat="44.04396379716342" lon="12.45467102324198"><ele>43.0</ele><time>2026-05-02T16:29:56Z</time></trkpt><trkpt lat="44.0440120960482" lon="12.454601441538804"><ele>43.0</ele><time>2026-05-02T16:29:58Z</time></trkpt><trkpt lat="44.044082643068904" lon="12.45452415065894"><ele>43.0</ele><time>2026-05-02T16:30:00Z</time></trkpt><trkpt lat="44.0441506778412" lon="12.454456183899364"><ele>43.0</ele><time>2026-05-02T16:30:02Z</time></trkpt><trkpt lat="44.04422485676826" lon="12.454381082342481"><ele>43.0</ele><time>2026-05-02T16:30:04Z</time></trkpt><trkpt lat="44.04430171797013" lon="12.454299755496713"><ele>43.0</ele><time>2026-05-02T16:30:06Z</time></trkpt><trkpt lat="44.044378332362406" lon="12.454212068101514"><ele>43.0</ele><time>2026-05-02T16:30:08Z</time></trkpt><trkpt lat="44.04444707549901" lon="12.454127439077698"><ele>43.0</ele><time>2026-05-02T16:30:10Z</time></trkpt><trkpt lat="44.04450298864041" lon="12.454032120611748"><ele>43.0</ele><time>2026-05-02T16:30:12Z</time></trkpt><trkpt lat="44.04446180045854" lon="12.453922940175975"><ele>43.0</ele><time>2026-05-02T16:30:14Z</time></trkpt><trkpt lat="44.04438093904743" lon="12.45388135276593"><ele>43.0</ele><time>2026-05-02T16:30:16Z</time></trkpt><trkpt lat="44.04432424095964" lon="12.453825995662516"><ele>43.0</ele><time>2026-05-02T16:30:18Z</time></trkpt><trkpt lat="44.04426629217492" lon="12.453770244911055"><ele>42.833333333333336</ele><time>2026-05-02T16:30:20Z</time></trkpt><trkpt lat="44.04420751337379" lon="12.45370032064493"><ele>42.66666666666667</ele><time>2026-05-02T16:30:22Z</time></trkpt><trkpt lat="44.04414631669202" lon="12.453620693146814"><ele>42.5</ele><time>2026-05-02T16:30:24Z</time></trkpt><trkpt lat="44.04408224277177" lon="12.453529757466072"><ele>42.333333333333336</ele><time>2026-05-02T16:30:26Z</time></trkpt><trkpt lat="44.04401831647513" lon="12.453429382918538"><ele>42.166666666666664</ele><time>2026-05-02T16:30:28Z</time></trkpt><trkpt lat="44.04395620039563" lon="12.453321948484765"><ele>42.0</ele><time>2026-05-02T16:30:30Z</time></trkpt><trkpt lat="44.04389456962737" lon="12.453230170199273"><ele>42.0</ele><time>2026-05-02T16:30:32Z</time></trkpt><trkpt lat="44.043837812023185" lon="12.453115696974171"><ele>42.0</ele><time>2026-05-02T16:30:34Z</time></trkpt><trkpt lat="44.04378713984613" lon="12.453021400402955"><ele>42.0</ele><time>2026-05-02T16:30:36Z</time></trkpt><trkpt lat="44.04372788723563" lon="12.452928574456864"><ele>42.0</ele><time>2026-05-02T16:30:38Z</time></trkpt><trkpt lat="44.043672235933634" lon="12.452842089466673"><ele>42.0</ele><time>2026-05-02T16:30:40Z</time></trkpt><trkpt lat="44.04361848153855" lon="12.452747547667261"><ele>42.0</ele><time>2026-05-02T16:30:42Z</time></trkpt><trkpt lat="44.043561968860686" lon="12.452651082132117"><ele>42.0</ele><time>2026-05-02T16:30:44Z</time></trkpt><trkpt lat="44.04350114887843" lon="12.452552785374147"><ele>42.0</ele><time>2026-05-02T16:30:45.999Z</time></trkpt><trkpt lat="44.04343948712492" lon="12.45244988711472"><ele>42.0</ele><time>2026-05-02T16:30:47.999Z</time></trkpt><trkpt lat="44.04337410390117" lon="12.452337240127404"><ele>42.0</ele><time>2026-05-02T16:30:49.999Z</time></trkpt><trkpt lat="44.04329930446468" lon="12.45223537727581"><ele>42.0</ele><time>2026-05-02T16:30:51.999Z</time></trkpt><trkpt lat="44.0432250416581" lon="12.452127521569992"><ele>42.0</ele><time>2026-05-02T16:30:53.999Z</time></trkpt><trkpt lat="44.043145754100266" lon="12.452023628555219"><ele>42.0</ele><time>2026-05-02T16:30:55.999Z</time></trkpt><trkpt lat="44.04306039155216" lon="12.451913023949915"><ele>42.0</ele><time>2026-05-02T16:30:57.999Z</time></trkpt><trkpt lat="44.04297888754437" lon="12.451817151279505"><ele>42.0</ele><time>2026-05-02T16:30:59.999Z</time></trkpt><trkpt lat="44.04290129410416" lon="12.451742663226726"><ele>42.0</ele><time>2026-05-02T16:31:01.999Z</time></trkpt><trkpt lat="44.04281519577537" lon="12.451643408930106"><ele>42.0</ele><time>2026-05-02T16:31:03.999Z</time></trkpt><trkpt lat="44.04272240786324" lon="12.45158492652037"><ele>42.0</ele><time>2026-05-02T16:31:05.999Z</time></trkpt><trkpt lat="44.042621346056585" lon="12.451568800903141"><ele>42.0</ele><time>2026-05-02T16:31:07.999Z</time></trkpt><trkpt lat="44.04252152123982" lon="12.451627048618189"><ele>42.0</ele><time>2026-05-02T16:31:09.999Z</time></trkpt><trkpt lat="44.04242339749204" lon="12.451628815152507"><ele>42.0</ele><time>2026-05-02T16:31:11.999Z</time></trkpt><trkpt lat="44.04234368760557" lon="12.451539047943061"><ele>42.166666666666664</ele><time>2026-05-02T16:31:13.999Z</time></trkpt><trkpt lat="44.04226407549773" lon="12.451475651894743"><ele>42.333333333333336</ele><time>2026-05-02T16:31:15.999Z</time></trkpt><trkpt lat="44.04217782853096" lon="12.451461351956995"><ele>42.5</ele><time>2026-05-02T16:31:17.999Z</time></trkpt><trkpt lat="44.042095300028855" lon="12.451501429460473"><ele>42.66666666666667</ele><time>2026-05-02T16:31:19.999Z</time></trkpt><trkpt lat="44.04203100398147" lon="12.451578786567937"><ele>42.833333333333336</ele><time>2026-05-02T16:31:21.999Z</time></trkpt><trkpt lat="44.04195098718753" lon="12.4516449223216"><ele>43.0</ele><time>2026-05-02T16:31:23.999Z</time></trkpt><trkpt lat="44.041863366686776" lon="12.451652046132978"><ele>43.0</ele><time>2026-05-02T16:31:25.999Z</time></trkpt><trkpt lat="44.04178599848319" lon="12.451605877569518"><ele>43.0</ele><time>2026-05-02T16:31:27.999Z</time></trkpt><trkpt lat="44.041710575423075" lon="12.451548429506957"><ele>43.0</ele><time>2026-05-02T16:31:29.999Z</time></trkpt><trkpt lat="44.04163555748441" lon="12.451502495959573"><ele>43.0</ele><time>2026-05-02T16:31:31.999Z</time></trkpt><trkpt lat="44.04155967013823" lon="12.451452690732557"><ele>43.0</ele><time>2026-05-02T16:31:34Z</time></trkpt><trkpt lat="44.04147641530112" lon="12.451406864577077"><ele>43.0</ele><time>2026-05-02T16:31:36Z</time></trkpt><trkpt lat="44.04139436886844" lon="12.45136768271351"><ele>42.833333333333336</ele><time>2026-05-02T16:31:38Z</time></trkpt><trkpt lat="44.04131028120788" lon="12.451328389121603"><ele>42.66666666666667</ele><time>2026-05-02T16:31:40Z</time></trkpt><trkpt lat="44.041228378314166" lon="12.45129578815427"><ele>42.5</ele><time>2026-05-02T16:31:42Z</time></trkpt><trkpt lat="44.04114097595336" lon="12.451252588983033"><ele>42.333333333333336</ele><time>2026-05-02T16:31:44Z</time></trkpt><trkpt lat="44.041053782390115" lon="12.451219040059742"><ele>42.166666666666664</ele><time>2026-05-02T16:31:46Z</time></trkpt><trkpt lat="44.04096913139358" lon="12.451185077835214"><ele>42.0</ele><time>2026-05-02T16:31:48Z</time></trkpt><trkpt lat="44.0408806702104" lon="12.451160265321345"><ele>42.166666666666664</ele><time>2026-05-02T16:31:50Z</time></trkpt><trkpt lat="44.04079796914073" lon="12.451140189738211"><ele>42.333333333333336</ele><time>2026-05-02T16:31:52Z</time></trkpt><trkpt lat="44.040720021962805" lon="12.451110244830735"><ele>42.5</ele><time>2026-05-02T16:31:54Z</time></trkpt><trkpt lat="44.040642296230786" lon="12.45108436672854"><ele>42.66666666666667</ele><time>2026-05-02T16:31:56Z</time></trkpt><trkpt lat="44.04056371268704" lon="12.451049716050768"><ele>42.833333333333336</ele><time>2026-05-02T16:31:58Z</time></trkpt><trkpt lat="44.040484444109794" lon="12.45101567520342"><ele>43.0</ele><time>2026-05-02T16:32:00Z</time></trkpt><trkpt lat="44.040408607261476" lon="12.450979875934387"><ele>43.0</ele><time>2026-05-02T16:32:02Z</time></trkpt><trkpt lat="44.040344225861745" lon="12.450939002706498"><ele>43.0</ele><time>2026-05-02T16:32:04Z</time></trkpt><trkpt lat="44.040263654875474" lon="12.450872095787025"><ele>43.0</ele><time>2026-05-02T16:32:06Z</time></trkpt><trkpt lat="44.040202637130264" lon="12.450819924167972"><ele>43.0</ele><time>2026-05-02T16:32:08Z</time></trkpt><trkpt lat="44.040139576139694" lon="12.450740588648198"><ele>43.0</ele><time>2026-05-02T16:32:10Z</time></trkpt><trkpt lat="44.040079882903015" lon="12.450651690562877"><ele>43.0</ele><time>2026-05-02T16:32:12Z</time></trkpt><trkpt lat="44.04001820196646" lon="12.450572979023706"><ele>42.833333333333336</ele><time>2026-05-02T16:32:14Z</time></trkpt><trkpt lat="44.03996646690663" lon="12.450488328564566"><ele>42.66666666666667</ele><time>2026-05-02T16:32:16Z</time></trkpt><trkpt lat="44.039913355879264" lon="12.450410065615628"><ele>42.5</ele><time>2026-05-02T16:32:18Z</time></trkpt><trkpt lat="44.03985899964967" lon="12.450329871853656"><ele>42.333333333333336</ele><time>2026-05-02T16:32:20Z</time></trkpt><trkpt lat="44.039815672322106" lon="12.45024779063318"><ele>42.166666666666664</ele><time>2026-05-02T16:32:22Z</time></trkpt><trkpt lat="44.03976537671797" lon="12.450174598199231"><ele>42.0</ele><time>2026-05-02T16:32:24Z</time></trkpt><trkpt lat="44.03971396564383" lon="12.450087786326192"><ele>42.5</ele><time>2026-05-02T16:32:26Z</time></trkpt><trkpt lat="44.03966501608102" lon="12.450001199697946"><ele>43.0</ele><time>2026-05-02T16:32:28Z</time></trkpt><trkpt lat="44.039617522974694" lon="12.449919445621749"><ele>43.5</ele><time>2026-05-02T16:32:30Z</time></trkpt><trkpt lat="44.03956400621792" lon="12.449837853045072"><ele>44.0</ele><time>2026-05-02T16:32:32Z</time></trkpt><trkpt lat="44.0395080691262" lon="12.44976798414459"><ele>44.5</ele><time>2026-05-02T16:32:34Z</time></trkpt><trkpt lat="44.03945010107197" lon="12.449692655641114"><ele>45.0</ele><time>2026-05-02T16:32:36Z</time></trkpt><trkpt lat="44.03939591694219" lon="12.449611963500896"><ele>45.0</ele><time>2026-05-02T16:32:38Z</time></trkpt><trkpt lat="44.03933732867171" lon="12.449513134344137"><ele>45.0</ele><time>2026-05-02T16:32:40Z</time></trkpt><trkpt lat="44.03927527334425" lon="12.449404966858017"><ele>45.0</ele><time>2026-05-02T16:32:42Z</time></trkpt><trkpt lat="44.03921149040211" lon="12.449287219193826"><ele>45.0</ele><time>2026-05-02T16:32:44Z</time></trkpt><trkpt lat="44.03915239590853" lon="12.449168813953515"><ele>45.0</ele><time>2026-05-02T16:32:46Z</time></trkpt><trkpt lat="44.03908872797924" lon="12.44905000726551"><ele>45.0</ele><time>2026-05-02T16:32:48Z</time></trkpt><trkpt lat="44.03903063236914" lon="12.448931062051905"><ele>45.0</ele><time>2026-05-02T16:32:50Z</time></trkpt><trkpt lat="44.03896859105918" lon="12.448818240912598"><ele>45.0</ele><time>2026-05-02T16:32:52Z</time></trkpt><trkpt lat="44.038914292236974" lon="12.448707393568178"><ele>45.0</ele><time>2026-05-02T16:32:53.999Z</time></trkpt><trkpt lat="44.03885697572615" lon="12.448600792662065"><ele>45.0</ele><time>2026-05-02T16:32:55.999Z</time></trkpt><trkpt lat="44.03880383338013" lon="12.44849235401412"><ele>45.333333333333336</ele><time>2026-05-02T16:32:57.999Z</time></trkpt><trkpt lat="44.03875193799937" lon="12.44838936720156"><ele>45.666666666666664</ele><time>2026-05-02T16:32:59.999Z</time></trkpt><trkpt lat="44.038695233263084" lon="12.44828844803414"><ele>46.0</ele><time>2026-05-02T16:33:01.999Z</time></trkpt><trkpt lat="44.03865292083306" lon="12.448194357108397"><ele>46.33333333333333</ele><time>2026-05-02T16:33:03.999Z</time></trkpt><trkpt lat="44.03860369568106" lon="12.448088200441035"><ele>46.666666666666664</ele><time>2026-05-02T16:33:05.999Z</time></trkpt><trkpt lat="44.038547030738634" lon="12.447985530641922"><ele>47.0</ele><time>2026-05-02T16:33:07.999Z</time></trkpt><trkpt lat="44.03849541579813" lon="12.44788326816486"><ele>47.0</ele><time>2026-05-02T16:33:09.999Z</time></trkpt><trkpt lat="44.038440286321475" lon="12.447778591935528"><ele>47.0</ele><time>2026-05-02T16:33:11.999Z</time></trkpt><trkpt lat="44.038383047547065" lon="12.447677450810676"><ele>47.0</ele><time>2026-05-02T16:33:13.999Z</time></trkpt><trkpt lat="44.03832787001401" lon="12.447573187602996"><ele>47.0</ele><time>2026-05-02T16:33:15.999Z</time></trkpt><trkpt lat="44.038273523444644" lon="12.447462761824605"><ele>47.0</ele><time>2026-05-02T16:33:17.999Z</time></trkpt><trkpt lat="44.038217552272386" lon="12.447356366269098"><ele>47.2</ele><time>2026-05-02T16:33:19.999Z</time></trkpt><trkpt lat="44.038160315167914" lon="12.447248460389318"><ele>47.400000000000006</ele><time>2026-05-02T16:33:21.999Z</time></trkpt><trkpt lat="44.03810145323196" lon="12.447143460599436"><ele>47.599999999999994</ele><time>2026-05-02T16:33:23.999Z</time></trkpt><trkpt lat="44.03804811780602" lon="12.447046742673914"><ele>47.8</ele><time>2026-05-02T16:33:25.999Z</time></trkpt><trkpt lat="44.03800201126992" lon="12.446943096645802"><ele>48.0</ele><time>2026-05-02T16:33:27.999Z</time></trkpt><trkpt lat="44.037954954186425" lon="12.446831284259781"><ele>48.0</ele><time>2026-05-02T16:33:29.999Z</time></trkpt><trkpt lat="44.03790867347347" lon="12.446712132055232"><ele>48.0</ele><time>2026-05-02T16:33:31.999Z</time></trkpt><trkpt lat="44.0378832930707" lon="12.446631049241818"><ele>48.0</ele><time>2026-05-02T16:33:32.999Z</time></trkpt><trkpt lat="44.037840501206205" lon="12.446486254799758"><ele>48.0</ele><time>2026-05-02T16:33:34.999Z</time></trkpt><trkpt lat="44.03781768050342" lon="12.446404560384343"><ele>48.0</ele><time>2026-05-02T16:33:35.999Z</time></trkpt><trkpt lat="44.037780796170374" lon="12.446253646034663"><ele>47.8</ele><time>2026-05-02T16:33:37.999Z</time></trkpt><trkpt lat="44.037736551894994" lon="12.446105956979439"><ele>47.599999999999994</ele><time>2026-05-02T16:33:40Z</time></trkpt><trkpt lat="44.03769661412231" lon="12.445969018692438"><ele>47.400000000000006</ele><time>2026-05-02T16:33:42Z</time></trkpt><trkpt lat="44.037649803702436" lon="12.44583736493731"><ele>47.2</ele><time>2026-05-02T16:33:44Z</time></trkpt><trkpt lat="44.03759710531152" lon="12.445709905932357"><ele>47.0</ele><time>2026-05-02T16:33:46Z</time></trkpt><trkpt lat="44.03753804238915" lon="12.445592037987977"><ele>47.0</ele><time>2026-05-02T16:33:48Z</time></trkpt><trkpt lat="44.03747461446281" lon="12.44547637679896"><ele>47.0</ele><time>2026-05-02T16:33:50Z</time></trkpt><trkpt lat="44.03741793727372" lon="12.445369081471721"><ele>47.0</ele><time>2026-05-02T16:33:52Z</time></trkpt><trkpt lat="44.03736129790757" lon="12.44526909925167"><ele>47.0</ele><time>2026-05-02T16:33:54Z</time></trkpt><trkpt lat="44.03730724286349" lon="12.445163028620508"><ele>47.0</ele><time>2026-05-02T16:33:56Z</time></trkpt><trkpt lat="44.037245761273724" lon="12.445051157635902"><ele>47.2</ele><time>2026-05-02T16:33:58Z</time></trkpt><trkpt lat="44.037187285248365" lon="12.444931387453854"><ele>47.400000000000006</ele><time>2026-05-02T16:34:00Z</time></trkpt><trkpt lat="44.03712896617064" lon="12.444817509645922"><ele>47.599999999999994</ele><time>2026-05-02T16:34:02Z</time></trkpt><trkpt lat="44.03707271852628" lon="12.444694959782526"><ele>47.8</ele><time>2026-05-02T16:34:04Z</time></trkpt><trkpt lat="44.037014510792716" lon="12.44457344886735"><ele>48.0</ele><time>2026-05-02T16:34:06Z</time></trkpt><trkpt lat="44.03695402442042" lon="12.444468096971312"><ele>48.0</ele><time>2026-05-02T16:34:08Z</time></trkpt><trkpt lat="44.036897862053394" lon="12.444354510805825"><ele>48.0</ele><time>2026-05-02T16:34:10Z</time></trkpt><trkpt lat="44.03684003940949" lon="12.444240078017527"><ele>48.0</ele><time>2026-05-02T16:34:12Z</time></trkpt><trkpt lat="44.03678188053147" lon="12.444134030578791"><ele>48.0</ele><time>2026-05-02T16:34:14Z</time></trkpt><trkpt lat="44.036731238375786" lon="12.444024297661525"><ele>48.0</ele><time>2026-05-02T16:34:16Z</time></trkpt><trkpt lat="44.03667190028488" lon="12.443920340894612"><ele>48.2</ele><time>2026-05-02T16:34:18Z</time></trkpt><trkpt lat="44.03661444036325" lon="12.44381238077156"><ele>48.4</ele><time>2026-05-02T16:34:20Z</time></trkpt><trkpt lat="44.03655664495854" lon="12.443708086387778"><ele>48.6</ele><time>2026-05-02T16:34:22Z</time></trkpt><trkpt lat="44.03649000344947" lon="12.443592908058193"><ele>48.800000000000004</ele><time>2026-05-02T16:34:24Z</time></trkpt><trkpt lat="44.03643050136346" lon="12.443481407000876"><ele>49.0</ele><time>2026-05-02T16:34:26Z</time></trkpt><trkpt lat="44.036369215594775" lon="12.44337047837898"><ele>49.0</ele><time>2026-05-02T16:34:28Z</time></trkpt><trkpt lat="44.03630011471852" lon="12.443262597117814"><ele>49.0</ele><time>2026-05-02T16:34:30Z</time></trkpt><trkpt lat="44.03623307903217" lon="12.443159138860963"><ele>49.0</ele><time>2026-05-02T16:34:32Z</time></trkpt><trkpt lat="44.03617234791548" lon="12.443050770340706"><ele>49.0</ele><time>2026-05-02T16:34:34Z</time></trkpt><trkpt lat="44.036104553151326" lon="12.442954641168486"><ele>49.0</ele><time>2026-05-02T16:34:36Z</time></trkpt><trkpt lat="44.03602837004433" lon="12.442863224074559"><ele>48.800000000000004</ele><time>2026-05-02T16:34:38Z</time></trkpt><trkpt lat="44.0359571936536" lon="12.44277515043974"><ele>48.6</ele><time>2026-05-02T16:34:40Z</time></trkpt><trkpt lat="44.03588547878041" lon="12.442693188264915"><ele>48.4</ele><time>2026-05-02T16:34:42Z</time></trkpt><trkpt lat="44.03582063569861" lon="12.442614519222591"><ele>48.2</ele><time>2026-05-02T16:34:44Z</time></trkpt><trkpt lat="44.035750011163515" lon="12.442533253682766"><ele>48.0</ele><time>2026-05-02T16:34:46Z</time></trkpt><trkpt lat="44.03567998749013" lon="12.442462010978447"><ele>48.599999999999994</ele><time>2026-05-02T16:34:48Z</time></trkpt><trkpt lat="44.03561804023874" lon="12.44237726903768"><ele>49.199999999999996</ele><time>2026-05-02T16:34:50Z</time></trkpt><trkpt lat="44.03554597110108" lon="12.442291776546444"><ele>49.8</ele><time>2026-05-02T16:34:52Z</time></trkpt><trkpt lat="44.03547273182076" lon="12.442208726478103"><ele>50.4</ele><time>2026-05-02T16:34:54Z</time></trkpt><trkpt lat="44.0354016357576" lon="12.442120158962592"><ele>51.0</ele><time>2026-05-02T16:34:56Z</time></trkpt><trkpt lat="44.03533205534302" lon="12.44203826840305"><ele>51.0</ele><time>2026-05-02T16:34:58Z</time></trkpt><trkpt lat="44.03526233310351" lon="12.441956559515823"><ele>51.0</ele><time>2026-05-02T16:35:00Z</time></trkpt><trkpt lat="44.03519061705316" lon="12.441873679249143"><ele>51.0</ele><time>2026-05-02T16:35:02Z</time></trkpt><trkpt lat="44.03512450352525" lon="12.441795360651609"><ele>51.0</ele><time>2026-05-02T16:35:04Z</time></trkpt><trkpt lat="44.035056018775066" lon="12.441719612926464"><ele>51.0</ele><time>2026-05-02T16:35:06Z</time></trkpt><trkpt lat="44.0349885178144" lon="12.44164399997622"><ele>51.0</ele><time>2026-05-02T16:35:07.999Z</time></trkpt><trkpt lat="44.03492679128207" lon="12.441568333305764"><ele>51.0</ele><time>2026-05-02T16:35:09.999Z</time></trkpt><trkpt lat="44.03493318473755" lon="12.44147370657875"><ele>51.0</ele><time>2026-05-02T16:35:11.999Z</time></trkpt><trkpt lat="44.03499139770084" lon="12.441418595229708"><ele>51.0</ele><time>2026-05-02T16:35:13.999Z</time></trkpt><trkpt lat="44.03506539017425" lon="12.441388712373483"><ele>51.0</ele><time>2026-05-02T16:35:15.999Z</time></trkpt><trkpt lat="44.035129003321565" lon="12.441321472782722"><ele>51.0</ele><time>2026-05-02T16:35:17.999Z</time></trkpt><trkpt lat="44.03514446917052" lon="12.44119243625537"><ele>51.0</ele><time>2026-05-02T16:35:19.999Z</time></trkpt><trkpt lat="44.03507434139248" lon="12.441100474415926"><ele>51.199999999999996</ele><time>2026-05-02T16:35:21.999Z</time></trkpt><trkpt lat="44.0350122935917" lon="12.44104026633086"><ele>51.4</ele><time>2026-05-02T16:35:23.999Z</time></trkpt><trkpt lat="44.03494298091068" lon="12.440969170186735"><ele>51.6</ele><time>2026-05-02T16:35:25.999Z</time></trkpt><trkpt lat="44.03486165026836" lon="12.440880427986569"><ele>51.8</ele><time>2026-05-02T16:35:27.999Z</time></trkpt><trkpt lat="44.03477836254121" lon="12.440805928728736"><ele>52.0</ele><time>2026-05-02T16:35:29.999Z</time></trkpt><trkpt lat="44.034696932030975" lon="12.44071781866058"><ele>52.2</ele><time>2026-05-02T16:35:31.999Z</time></trkpt><trkpt lat="44.0346134580251" lon="12.44062914212151"><ele>52.400000000000006</ele><time>2026-05-02T16:35:33.999Z</time></trkpt><trkpt lat="44.034531977129646" lon="12.440547978326373"><ele>52.599999999999994</ele><time>2026-05-02T16:35:35.999Z</time></trkpt><trkpt lat="44.03445695690637" lon="12.44046065626069"><ele>52.8</ele><time>2026-05-02T16:35:37.999Z</time></trkpt><trkpt lat="44.034384748993524" lon="12.440363675185344"><ele>53.0</ele><time>2026-05-02T16:35:39.999Z</time></trkpt><trkpt lat="44.03430774762152" lon="12.44027456551484"><ele>52.50000000000001</ele><time>2026-05-02T16:35:41.999Z</time></trkpt><trkpt lat="44.03422101624568" lon="12.44019853732122"><ele>52.0</ele><time>2026-05-02T16:35:43.999Z</time></trkpt><trkpt lat="44.03412796852941" lon="12.440124194661575"><ele>51.5</ele><time>2026-05-02T16:35:46Z</time></trkpt><trkpt lat="44.034048263716116" lon="12.44008711439462"><ele>51.0</ele><time>2026-05-02T16:35:48Z</time></trkpt><trkpt lat="44.03397609152959" lon="12.44008781260002"><ele>50.50000000000001</ele><time>2026-05-02T16:35:50Z</time></trkpt><trkpt lat="44.03389776407322" lon="12.44011896192862"><ele>50.0</ele><time>2026-05-02T16:35:53Z</time></trkpt><trkpt lat="44.03381237013831" lon="12.44011816898293"><ele>50.00000000000001</ele><time>2026-05-02T16:35:57Z</time></trkpt><trkpt lat="44.03374225371265" lon="12.440123790239143"><ele>50.0</ele><time>2026-05-02T16:36:00Z</time></trkpt><trkpt lat="44.03367554667713" lon="12.44016358951964"><ele>50.0</ele><time>2026-05-02T16:36:03Z</time></trkpt><trkpt lat="44.0336179994674" lon="12.440229592595285"><ele>50.0</ele><time>2026-05-02T16:36:06Z</time></trkpt><trkpt lat="44.033558989266005" lon="12.440313832103065"><ele>50.00000000000001</ele><time>2026-05-02T16:36:09Z</time></trkpt><trkpt lat="44.03349458730506" lon="12.44041169373894"><ele>50.0</ele><time>2026-05-02T16:36:12Z</time></trkpt><trkpt lat="44.033444144274135" lon="12.440475914047726"><ele>50.28571428571429</ele><time>2026-05-02T16:36:14Z</time></trkpt><trkpt lat="44.03339276562858" lon="12.440548699562216"><ele>50.57142857142857</ele><time>2026-05-02T16:36:16Z</time></trkpt><trkpt lat="44.03334464849023" lon="12.44061148811708"><ele>50.85714285714286</ele><time>2026-05-02T16:36:18Z</time></trkpt><trkpt lat="44.03328886186319" lon="12.440678468479303"><ele>51.142857142857146</ele><time>2026-05-02T16:36:20Z</time></trkpt><trkpt lat="44.03323319829851" lon="12.440742851690125"><ele>51.42857142857143</ele><time>2026-05-02T16:36:22Z</time></trkpt><trkpt lat="44.03317544873932" lon="12.440816145103073"><ele>51.714285714285715</ele><time>2026-05-02T16:36:24Z</time></trkpt><trkpt lat="44.03311919923398" lon="12.440891011401527"><ele>52.0</ele><time>2026-05-02T16:36:26Z</time></trkpt><trkpt lat="44.033058075142755" lon="12.440965994238148"><ele>51.99999999999999</ele><time>2026-05-02T16:36:28Z</time></trkpt><trkpt lat="44.03300306766004" lon="12.441045478222719"><ele>52.0</ele><time>2026-05-02T16:36:30Z</time></trkpt><trkpt lat="44.03293660879469" lon="12.441122430486638"><ele>52.0</ele><time>2026-05-02T16:36:32Z</time></trkpt><trkpt lat="44.032874682180015" lon="12.441203533102424"><ele>52.0</ele><time>2026-05-02T16:36:34Z</time></trkpt><trkpt lat="44.03280939030584" lon="12.441284839538794"><ele>51.99999999999999</ele><time>2026-05-02T16:36:36Z</time></trkpt><trkpt lat="44.03274713885904" lon="12.441362020580062"><ele>52.0</ele><time>2026-05-02T16:36:38Z</time></trkpt><trkpt lat="44.03268535372476" lon="12.441437021501578"><ele>52.33333333333333</ele><time>2026-05-02T16:36:40Z</time></trkpt><trkpt lat="44.032617663806555" lon="12.441515243756067"><ele>52.666666666666664</ele><time>2026-05-02T16:36:42Z</time></trkpt><trkpt lat="44.0325533949354" lon="12.441589312251226"><ele>53.0</ele><time>2026-05-02T16:36:44Z</time></trkpt><trkpt lat="44.03249626922906" lon="12.441657615482708"><ele>53.33333333333333</ele><time>2026-05-02T16:36:46Z</time></trkpt><trkpt lat="44.032443568035546" lon="12.441711507151124"><ele>53.666666666666664</ele><time>2026-05-02T16:36:48Z</time></trkpt><trkpt lat="44.03237776897906" lon="12.441749608766628"><ele>54.0</ele><time>2026-05-02T16:36:50Z</time></trkpt><trkpt lat="44.032323010125495" lon="12.441829138442092"><ele>54.0</ele><time>2026-05-02T16:36:52Z</time></trkpt><trkpt lat="44.032306761574006" lon="12.441943336474951"><ele>54.0</ele><time>2026-05-02T16:36:54Z</time></trkpt><trkpt lat="44.032285083170514" lon="12.442042877574693"><ele>54.0</ele><time>2026-05-02T16:36:56Z</time></trkpt><trkpt lat="44.03225815052546" lon="12.44212866239867"><ele>54.0</ele><time>2026-05-02T16:36:58Z</time></trkpt><trkpt lat="44.03219277348238" lon="12.442190371462535"><ele>54.0</ele><time>2026-05-02T16:37:00Z</time></trkpt><trkpt lat="44.03214391338676" lon="12.442251015117412"><ele>54.0</ele><time>2026-05-02T16:37:02Z</time></trkpt><trkpt lat="44.03207264900073" lon="12.442312963172178"><ele>54.14285714285714</ele><time>2026-05-02T16:37:05Z</time></trkpt><trkpt lat="44.032006619849014" lon="12.44234055249498"><ele>54.285714285714285</ele><time>2026-05-02T16:37:07Z</time></trkpt><trkpt lat="44.03193222250247" lon="12.44237025597713"><ele>54.42857142857143</ele><time>2026-05-02T16:37:09Z</time></trkpt><trkpt lat="44.03186972427395" lon="12.442412519692212"><ele>54.57142857142857</ele><time>2026-05-02T16:37:10.999Z</time></trkpt><trkpt lat="44.031801928081734" lon="12.44243831035878"><ele>54.714285714285715</ele><time>2026-05-02T16:37:12.999Z</time></trkpt><trkpt lat="44.03174654094052" lon="12.442485288157261"><ele>54.857142857142854</ele><time>2026-05-02T16:37:14.999Z</time></trkpt><trkpt lat="44.03166392368249" lon="12.442546716406602"><ele>55.0</ele><time>2026-05-02T16:37:16.999Z</time></trkpt><trkpt lat="44.031594678646805" lon="12.44259286027926"><ele>54.99999999999999</ele><time>2026-05-02T16:37:18.999Z</time></trkpt><trkpt lat="44.03152514948768" lon="12.442647476497047"><ele>55.0</ele><time>2026-05-02T16:37:20.999Z</time></trkpt><trkpt lat="44.03145286428291" lon="12.44269918750496"><ele>55.0</ele><time>2026-05-02T16:37:22.999Z</time></trkpt><trkpt lat="44.03138196927007" lon="12.442746319526197"><ele>55.0</ele><time>2026-05-02T16:37:24.999Z</time></trkpt><trkpt lat="44.03132008988323" lon="12.442795071846144"><ele>54.99999999999999</ele><time>2026-05-02T16:37:26.999Z</time></trkpt><trkpt lat="44.03124906663241" lon="12.44285105207895"><ele>55.0</ele><time>2026-05-02T16:37:28.999Z</time></trkpt><trkpt lat="44.031174257722384" lon="12.44291023512657"><ele>54.99999999999999</ele><time>2026-05-02T16:37:30.999Z</time></trkpt><trkpt lat="44.03110791203061" lon="12.44295125928084"><ele>55.0</ele><time>2026-05-02T16:37:32.999Z</time></trkpt><trkpt lat="44.03103842622594" lon="12.442999271346237"><ele>55.0</ele><time>2026-05-02T16:37:34.999Z</time></trkpt><trkpt lat="44.0309646704862" lon="12.443047923995524"><ele>55.0</ele><time>2026-05-02T16:37:36.999Z</time></trkpt><trkpt lat="44.03088839287645" lon="12.443100972122236"><ele>54.99999999999999</ele><time>2026-05-02T16:37:38.999Z</time></trkpt><trkpt lat="44.03081371016697" lon="12.44315041316547"><ele>55.0</ele><time>2026-05-02T16:37:40.999Z</time></trkpt><trkpt lat="44.03072791834712" lon="12.443217691073999"><ele>54.99999999999999</ele><time>2026-05-02T16:37:42.999Z</time></trkpt><trkpt lat="44.030655643151604" lon="12.443267274844642"><ele>55.0</ele><time>2026-05-02T16:37:44.999Z</time></trkpt><trkpt lat="44.03058108604989" lon="12.44331862854733"><ele>55.0</ele><time>2026-05-02T16:37:46.999Z</time></trkpt><trkpt lat="44.03050131756925" lon="12.443368420790518"><ele>55.0</ele><time>2026-05-02T16:37:48.999Z</time></trkpt><trkpt lat="44.0304329268348" lon="12.443404974159037"><ele>54.99999999999999</ele><time>2026-05-02T16:37:50.999Z</time></trkpt><trkpt lat="44.03036281647894" lon="12.443448815373383"><ele>55.0</ele><time>2026-05-02T16:37:53Z</time></trkpt><trkpt lat="44.03026886928423" lon="12.443471671276168"><ele>54.99999999999999</ele><time>2026-05-02T16:37:55Z</time></trkpt><trkpt lat="44.030188209289115" lon="12.443527573971386"><ele>55.0</ele><time>2026-05-02T16:37:57Z</time></trkpt><trkpt lat="44.030114829644994" lon="12.443578678077303"><ele>55.0</ele><time>2026-05-02T16:37:59Z</time></trkpt><trkpt lat="44.03004262469425" lon="12.443651723093195"><ele>55.0</ele><time>2026-05-02T16:38:01Z</time></trkpt><trkpt lat="44.02996776959548" lon="12.443704429749081"><ele>54.99999999999999</ele><time>2026-05-02T16:38:03Z</time></trkpt><trkpt lat="44.029894647956546" lon="12.443755036826163"><ele>55.0</ele><time>2026-05-02T16:38:05Z</time></trkpt><trkpt lat="44.02982318560801" lon="12.443810852359292"><ele>55.14285714285714</ele><time>2026-05-02T16:38:07Z</time></trkpt><trkpt lat="44.02975410957302" lon="12.44385912516422"><ele>55.285714285714285</ele><time>2026-05-02T16:38:09Z</time></trkpt><trkpt lat="44.02968833697905" lon="12.443905681420645"><ele>55.42857142857143</ele><time>2026-05-02T16:38:11Z</time></trkpt><trkpt lat="44.02963005945781" lon="12.443950478344595"><ele>55.57142857142857</ele><time>2026-05-02T16:38:13Z</time></trkpt><trkpt lat="44.0295658266323" lon="12.443991055487865"><ele>55.714285714285715</ele><time>2026-05-02T16:38:16Z</time></trkpt><trkpt lat="44.02948764050907" lon="12.444047298234265"><ele>55.857142857142854</ele><time>2026-05-02T16:38:19Z</time></trkpt><trkpt lat="44.02942434861752" lon="12.444077395661228"><ele>56.0</ele><time>2026-05-02T16:38:21Z</time></trkpt><trkpt lat="44.0293663975497" lon="12.444134635189075"><ele>56.00000000000001</ele><time>2026-05-02T16:38:24Z</time></trkpt><trkpt lat="44.02930558728145" lon="12.444194698849575"><ele>56.0</ele><time>2026-05-02T16:38:28Z</time></trkpt><trkpt lat="44.02928720176596" lon="12.44430037873506"><ele>56.0</ele><time>2026-05-02T16:38:29Z</time></trkpt><trkpt lat="44.029286162764144" lon="12.444413398846343"><ele>56.0</ele><time>2026-05-02T16:38:32Z</time></trkpt><trkpt lat="44.029285037527416" lon="12.444535799129293"><ele>56.00000000000001</ele><time>2026-05-02T16:38:35Z</time></trkpt><trkpt lat="44.0293057154065" lon="12.444618944104672"><ele>56.0</ele><time>2026-05-02T16:38:37Z</time></trkpt><trkpt lat="44.02924158881106" lon="12.444711438452225"><ele>56.00000000000001</ele><time>2026-05-02T16:38:40Z</time></trkpt><trkpt lat="44.02917318948757" lon="12.444802949315486"><ele>56.0</ele><time>2026-05-02T16:38:43Z</time></trkpt><trkpt lat="44.02912020098722" lon="12.444867670562799"><ele>56.0</ele><time>2026-05-02T16:38:45Z</time></trkpt><trkpt lat="44.02906394499812" lon="12.4449371109206"><ele>56.0</ele><time>2026-05-02T16:38:47Z</time></trkpt><trkpt lat="44.0290089392369" lon="12.445000111398185"><ele>56.00000000000001</ele><time>2026-05-02T16:38:49Z</time></trkpt><trkpt lat="44.02892838555882" lon="12.44510817461503"><ele>56.0</ele><time>2026-05-02T16:38:52Z</time></trkpt><trkpt lat="44.02887052721526" lon="12.445175950553619"><ele>56.00000000000001</ele><time>2026-05-02T16:38:54Z</time></trkpt><trkpt lat="44.02881541233769" lon="12.445243586671653"><ele>56.0</ele><time>2026-05-02T16:38:56Z</time></trkpt><trkpt lat="44.02874581529409" lon="12.445322666181896"><ele>56.0</ele><time>2026-05-02T16:38:58Z</time></trkpt><trkpt lat="44.02868231776411" lon="12.445382116460307"><ele>56.0</ele><time>2026-05-02T16:39:00Z</time></trkpt><trkpt lat="44.028624295313676" lon="12.445446769975895"><ele>56.00000000000001</ele><time>2026-05-02T16:39:02Z</time></trkpt><trkpt lat="44.02855522097585" lon="12.445525618028723"><ele>56.0</ele><time>2026-05-02T16:39:04Z</time></trkpt><trkpt lat="44.028491112868814" lon="12.445605168235405"><ele>56.0</ele><time>2026-05-02T16:39:05.999Z</time></trkpt><trkpt lat="44.02842271532686" lon="12.445685861878069"><ele>55.99999999999999</ele><time>2026-05-02T16:39:07.999Z</time></trkpt><trkpt lat="44.0283533503726" lon="12.445767321807455"><ele>55.99999999999999</ele><time>2026-05-02T16:39:09.999Z</time></trkpt><trkpt lat="44.02828494002039" lon="12.445850305807111"><ele>56.0</ele><time>2026-05-02T16:39:11.999Z</time></trkpt><trkpt lat="44.028211852270374" lon="12.445934293891792"><ele>56.0</ele><time>2026-05-02T16:39:13.999Z</time></trkpt><trkpt lat="44.02814660080808" lon="12.446011686619524"><ele>56.199999999999996</ele><time>2026-05-02T16:39:15.999Z</time></trkpt><trkpt lat="44.028071543244515" lon="12.44610053189084"><ele>56.39999999999999</ele><time>2026-05-02T16:39:17.999Z</time></trkpt><trkpt lat="44.028002115930796" lon="12.446186231282674"><ele>56.6</ele><time>2026-05-02T16:39:19.999Z</time></trkpt><trkpt lat="44.02793154745262" lon="12.446274909701296"><ele>56.8</ele><time>2026-05-02T16:39:21.999Z</time></trkpt><trkpt lat="44.027868837557214" lon="12.446369625085577"><ele>57.0</ele><time>2026-05-02T16:39:23.999Z</time></trkpt><trkpt lat="44.027806573942044" lon="12.446468525376622"><ele>57.0</ele><time>2026-05-02T16:39:25.999Z</time></trkpt><trkpt lat="44.027746154365744" lon="12.446571738253907"><ele>57.0</ele><time>2026-05-02T16:39:27.999Z</time></trkpt><trkpt lat="44.027672543356914" lon="12.446666944484988"><ele>57.0</ele><time>2026-05-02T16:39:29.999Z</time></trkpt><trkpt lat="44.02762270297072" lon="12.446785617832985"><ele>57.0</ele><time>2026-05-02T16:39:31.999Z</time></trkpt><trkpt lat="44.027561355601264" lon="12.446890020199564"><ele>57.0</ele><time>2026-05-02T16:39:33.999Z</time></trkpt><trkpt lat="44.02748888867159" lon="12.44697505258888"><ele>57.400000000000006</ele><time>2026-05-02T16:39:35.999Z</time></trkpt><trkpt lat="44.0274242311047" lon="12.447081811088653"><ele>57.800000000000004</ele><time>2026-05-02T16:39:37.999Z</time></trkpt><trkpt lat="44.02737478242925" lon="12.447190537605906"><ele>58.2</ele><time>2026-05-02T16:39:39.999Z</time></trkpt><trkpt lat="44.02730836558507" lon="12.447288671399798"><ele>58.6</ele><time>2026-05-02T16:39:41.999Z</time></trkpt><trkpt lat="44.027240580563365" lon="12.447389632612301"><ele>59.0</ele><time>2026-05-02T16:39:43.999Z</time></trkpt><trkpt lat="44.02717645402495" lon="12.447486900697578"><ele>59.2</ele><time>2026-05-02T16:39:45.999Z</time></trkpt><trkpt lat="44.027104099332185" lon="12.447578741295297"><ele>59.400000000000006</ele><time>2026-05-02T16:39:47.999Z</time></trkpt><trkpt lat="44.02703714718508" lon="12.447668439079406"><ele>59.6</ele><time>2026-05-02T16:39:49.999Z</time></trkpt><trkpt lat="44.0269668276664" lon="12.447756898244462"><ele>59.8</ele><time>2026-05-02T16:39:51.999Z</time></trkpt><trkpt lat="44.02689849290656" lon="12.44783786352606"><ele>60.0</ele><time>2026-05-02T16:39:53.999Z</time></trkpt><trkpt lat="44.026833356426444" lon="12.447916654785045"><ele>59.833333333333336</ele><time>2026-05-02T16:39:55.999Z</time></trkpt><trkpt lat="44.02677150950254" lon="12.448003279304855"><ele>59.66666666666667</ele><time>2026-05-02T16:39:58Z</time></trkpt><trkpt lat="44.02670713869267" lon="12.448088168584"><ele>59.5</ele><time>2026-05-02T16:40:00Z</time></trkpt><trkpt lat="44.026637554361" lon="12.448168451266847"><ele>59.333333333333336</ele><time>2026-05-02T16:40:02Z</time></trkpt><trkpt lat="44.02657052894533" lon="12.448247126224889"><ele>59.16666666666667</ele><time>2026-05-02T16:40:04Z</time></trkpt><trkpt lat="44.026501280113855" lon="12.448324949578748"><ele>59.0</ele><time>2026-05-02T16:40:06Z</time></trkpt><trkpt lat="44.02642946963903" lon="12.448403939032037"><ele>59.00000000000001</ele><time>2026-05-02T16:40:08Z</time></trkpt><trkpt lat="44.02636201039565" lon="12.448477318224123"><ele>59.0</ele><time>2026-05-02T16:40:10Z</time></trkpt><trkpt lat="44.02629293785333" lon="12.448542884716971"><ele>59.0</ele><time>2026-05-02T16:40:12Z</time></trkpt><trkpt lat="44.02622217467709" lon="12.448607684118961"><ele>59.0</ele><time>2026-05-02T16:40:14Z</time></trkpt><trkpt lat="44.026147860206216" lon="12.448662631585918"><ele>59.00000000000001</ele><time>2026-05-02T16:40:16Z</time></trkpt><trkpt lat="44.026079482838796" lon="12.448724008996063"><ele>59.0</ele><time>2026-05-02T16:40:18Z</time></trkpt><trkpt lat="44.02600748803704" lon="12.448781138561474"><ele>59.16666666666667</ele><time>2026-05-02T16:40:20Z</time></trkpt><trkpt lat="44.02593305304717" lon="12.448836492617698"><ele>59.333333333333336</ele><time>2026-05-02T16:40:22Z</time></trkpt><trkpt lat="44.025853120177786" lon="12.448884834059834"><ele>59.5</ele><time>2026-05-02T16:40:24Z</time></trkpt><trkpt lat="44.02577501559177" lon="12.448933040123624"><ele>59.66666666666667</ele><time>2026-05-02T16:40:26Z</time></trkpt><trkpt lat="44.025697779807466" lon="12.448984000894109"><ele>59.833333333333336</ele><time>2026-05-02T16:40:28Z</time></trkpt><trkpt lat="44.02561757506823" lon="12.449032151582047"><ele>60.0</ele><time>2026-05-02T16:40:30Z</time></trkpt><trkpt lat="44.02554329222228" lon="12.44907712846715"><ele>60.0</ele><time>2026-05-02T16:40:32Z</time></trkpt><trkpt lat="44.02546419323359" lon="12.449125987032039"><ele>60.0</ele><time>2026-05-02T16:40:34Z</time></trkpt><trkpt lat="44.02537801578603" lon="12.449168236898899"><ele>60.0</ele><time>2026-05-02T16:40:36Z</time></trkpt><trkpt lat="44.02530451813224" lon="12.449204265606523"><ele>60.0</ele><time>2026-05-02T16:40:38Z</time></trkpt><trkpt lat="44.025225459847704" lon="12.449248820633912"><ele>60.0</ele><time>2026-05-02T16:40:40Z</time></trkpt><trkpt lat="44.02514735361986" lon="12.449283459851943"><ele>60.0</ele><time>2026-05-02T16:40:42Z</time></trkpt><trkpt lat="44.02507169767712" lon="12.449307960300015"><ele>60.0</ele><time>2026-05-02T16:40:44Z</time></trkpt><trkpt lat="44.02500118026334" lon="12.449355485001707"><ele>60.0</ele><time>2026-05-02T16:40:46Z</time></trkpt><trkpt lat="44.024919869979406" lon="12.449402254924395"><ele>60.0</ele><time>2026-05-02T16:40:48Z</time></trkpt><trkpt lat="44.02483888510971" lon="12.449435969084353"><ele>60.0</ele><time>2026-05-02T16:40:50Z</time></trkpt><trkpt lat="44.02476647381602" lon="12.449493870209425"><ele>60.0</ele><time>2026-05-02T16:40:52Z</time></trkpt><trkpt lat="44.02468896626742" lon="12.449541075486914"><ele>60.0</ele><time>2026-05-02T16:40:54Z</time></trkpt><trkpt lat="44.02461559422301" lon="12.449597633046885"><ele>60.0</ele><time>2026-05-02T16:40:56Z</time></trkpt><trkpt lat="44.02453469369832" lon="12.44965688529345"><ele>60.0</ele><time>2026-05-02T16:40:58Z</time></trkpt><trkpt lat="44.024458447180955" lon="12.44970783783127"><ele>60.0</ele><time>2026-05-02T16:41:00Z</time></trkpt><trkpt lat="44.02438703508759" lon="12.449762175677543"><ele>60.0</ele><time>2026-05-02T16:41:02Z</time></trkpt><trkpt lat="44.0243244432552" lon="12.44981785950803"><ele>60.0</ele><time>2026-05-02T16:41:04Z</time></trkpt><trkpt lat="44.024244240723526" lon="12.449842193956059"><ele>60.0</ele><time>2026-05-02T16:41:06Z</time></trkpt><trkpt lat="44.024166623771755" lon="12.449875492855071"><ele>59.833333333333336</ele><time>2026-05-02T16:41:08Z</time></trkpt><trkpt lat="44.02409189572537" lon="12.449934986495503"><ele>59.66666666666667</ele><time>2026-05-02T16:41:10Z</time></trkpt><trkpt lat="44.02401459945049" lon="12.44998392211741"><ele>59.5</ele><time>2026-05-02T16:41:12Z</time></trkpt><trkpt lat="44.02393555392108" lon="12.450025303913275"><ele>59.333333333333336</ele><time>2026-05-02T16:41:14Z</time></trkpt><trkpt lat="44.0238593615524" lon="12.450069092000621"><ele>59.16666666666667</ele><time>2026-05-02T16:41:16Z</time></trkpt><trkpt lat="44.02377648979145" lon="12.450117098367498"><ele>59.0</ele><time>2026-05-02T16:41:18Z</time></trkpt><trkpt lat="44.02369467745972" lon="12.450142844895476"><ele>59.00000000000001</ele><time>2026-05-02T16:41:19.999Z</time></trkpt><trkpt lat="44.0236099146524" lon="12.450168321571152"><ele>59.0</ele><time>2026-05-02T16:41:21.999Z</time></trkpt><trkpt lat="44.0235284006265" lon="12.45020823115616"><ele>59.0</ele><time>2026-05-02T16:41:23.999Z</time></trkpt><trkpt lat="44.02344186795875" lon="12.450236657530063"><ele>59.0</ele><time>2026-05-02T16:41:25.999Z</time></trkpt><trkpt lat="44.0233692891424" lon="12.450278426830986"><ele>59.00000000000001</ele><time>2026-05-02T16:41:27.999Z</time></trkpt><trkpt lat="44.02329097636699" lon="12.450308766911155"><ele>59.0</ele><time>2026-05-02T16:41:29.999Z</time></trkpt><trkpt lat="44.02321067980778" lon="12.450330118750928"><ele>59.16666666666667</ele><time>2026-05-02T16:41:31.999Z</time></trkpt><trkpt lat="44.023135233770745" lon="12.450355919237314"><ele>59.333333333333336</ele><time>2026-05-02T16:41:33.999Z</time></trkpt><trkpt lat="44.02305254009499" lon="12.450379376176759"><ele>59.5</ele><time>2026-05-02T16:41:35.999Z</time></trkpt><trkpt lat="44.022979284318076" lon="12.450403789179363"><ele>59.66666666666667</ele><time>2026-05-02T16:41:37.999Z</time></trkpt><trkpt lat="44.022903695102414" lon="12.45044438468783"><ele>59.833333333333336</ele><time>2026-05-02T16:41:39.999Z</time></trkpt><trkpt lat="44.022828583388225" lon="12.450480362920882"><ele>60.0</ele><time>2026-05-02T16:41:41.999Z</time></trkpt><trkpt lat="44.02275825694542" lon="12.450530916513125"><ele>60.0</ele><time>2026-05-02T16:41:43.999Z</time></trkpt><trkpt lat="44.02270027335263" lon="12.450602682750205"><ele>60.0</ele><time>2026-05-02T16:41:45.999Z</time></trkpt><trkpt lat="44.02266035303188" lon="12.450690360608892"><ele>60.0</ele><time>2026-05-02T16:41:47.999Z</time></trkpt><trkpt lat="44.02263297776223" lon="12.450794488300376"><ele>60.0</ele><time>2026-05-02T16:41:49.999Z</time></trkpt><trkpt lat="44.02260243838986" lon="12.450887467729848"><ele>60.0</ele><time>2026-05-02T16:41:51.999Z</time></trkpt><trkpt lat="44.02255826916813" lon="12.450995415670077"><ele>60.0</ele><time>2026-05-02T16:41:53.999Z</time></trkpt><trkpt lat="44.02249770353287" lon="12.45107280741006"><ele>60.333333333333336</ele><time>2026-05-02T16:41:55.999Z</time></trkpt><trkpt lat="44.02241221601352" lon="12.45109453429424"><ele>60.66666666666667</ele><time>2026-05-02T16:41:57.999Z</time></trkpt><trkpt lat="44.022335787381124" lon="12.451075289386235"><ele>61.0</ele><time>2026-05-02T16:41:59.999Z</time></trkpt><trkpt lat="44.022277130696565" lon="12.451000867416166"><ele>61.333333333333336</ele><time>2026-05-02T16:42:01.999Z</time></trkpt><trkpt lat="44.022224826952566" lon="12.450927454313604"><ele>61.66666666666667</ele><time>2026-05-02T16:42:04Z</time></trkpt><trkpt lat="44.022169011373975" lon="12.450853703518382"><ele>62.0</ele><time>2026-05-02T16:42:06Z</time></trkpt><trkpt lat="44.022125260711114" lon="12.45077678117359"><ele>62.0</ele><time>2026-05-02T16:42:08Z</time></trkpt><trkpt lat="44.02208223284314" lon="12.45070587747867"><ele>62.00000000000001</ele><time>2026-05-02T16:42:10Z</time></trkpt><trkpt lat="44.02203333137509" lon="12.450643202887225"><ele>62.0</ele><time>2026-05-02T16:42:13Z</time></trkpt><trkpt lat="44.02198655011281" lon="12.450708767431303"><ele>62.0</ele><time>2026-05-02T16:42:16Z</time></trkpt><trkpt lat="44.02203655236614" lon="12.450765497312373"><ele>62.00000000000001</ele><time>2026-05-02T16:42:18Z</time></trkpt><trkpt lat="44.02208029089515" lon="12.45083096193659"><ele>62.0</ele><time>2026-05-02T16:42:20Z</time></trkpt><trkpt lat="44.02213348720706" lon="12.450898690814476"><ele>62.0</ele><time>2026-05-02T16:42:22Z</time></trkpt><trkpt lat="44.022188782132154" lon="12.450973208201878"><ele>62.00000000000001</ele><time>2026-05-02T16:42:24Z</time></trkpt><trkpt lat="44.02223363910089" lon="12.451061892631273"><ele>62.0</ele><time>2026-05-02T16:42:26Z</time></trkpt><trkpt lat="44.0222758059471" lon="12.451156435373568"><ele>62.0</ele><time>2026-05-02T16:42:28Z</time></trkpt><trkpt lat="44.02227214088869" lon="12.451261805903362"><ele>62.0</ele><time>2026-05-02T16:42:30Z</time></trkpt><trkpt lat="44.02224719191195" lon="12.451356770764185"><ele>62.00000000000001</ele><time>2026-05-02T16:42:32Z</time></trkpt><trkpt lat="44.022195161176306" lon="12.451434917216666"><ele>62.0</ele><time>2026-05-02T16:42:34Z</time></trkpt><trkpt lat="44.02214182020784" lon="12.451502599406307"><ele>62.00000000000001</ele><time>2026-05-02T16:42:36Z</time></trkpt><trkpt lat="44.02208138897434" lon="12.451562680040196"><ele>62.0</ele><time>2026-05-02T16:42:38Z</time></trkpt><trkpt lat="44.02202089299068" lon="12.451629287639406"><ele>62.0</ele><time>2026-05-02T16:42:40Z</time></trkpt><trkpt lat="44.02195913699177" lon="12.451687220591571"><ele>62.0</ele><time>2026-05-02T16:42:42Z</time></trkpt><trkpt lat="44.0218951580325" lon="12.451750819997502"><ele>62.00000000000001</ele><time>2026-05-02T16:42:44Z</time></trkpt><trkpt lat="44.021826892391594" lon="12.451818570612271"><ele>62.0</ele><time>2026-05-02T16:42:46Z</time></trkpt><trkpt lat="44.02176228383956" lon="12.45188949347891"><ele>62.00000000000001</ele><time>2026-05-02T16:42:48Z</time></trkpt><trkpt lat="44.02168869078165" lon="12.451956127290165"><ele>62.0</ele><time>2026-05-02T16:42:50Z</time></trkpt><trkpt lat="44.02162182359402" lon="12.452024111289662"><ele>62.0</ele><time>2026-05-02T16:42:52Z</time></trkpt><trkpt lat="44.02155122714893" lon="12.45208821993106"><ele>62.0</ele><time>2026-05-02T16:42:54Z</time></trkpt><trkpt lat="44.02147870806489" lon="12.45212722142903"><ele>62.00000000000001</ele><time>2026-05-02T16:42:56Z</time></trkpt><trkpt lat="44.02138226273215" lon="12.452156251663284"><ele>62.0</ele><time>2026-05-02T16:42:59Z</time></trkpt><trkpt lat="44.02131563394348" lon="12.45218111204435"><ele>62.333333333333336</ele><time>2026-05-02T16:43:01Z</time></trkpt><trkpt lat="44.02124438886399" lon="12.452206501108074"><ele>62.66666666666667</ele><time>2026-05-02T16:43:03Z</time></trkpt><trkpt lat="44.021171508520965" lon="12.45224570375915"><ele>63.0</ele><time>2026-05-02T16:43:05Z</time></trkpt><trkpt lat="44.0210979223743" lon="12.452283397426662"><ele>63.33333333333333</ele><time>2026-05-02T16:43:07Z</time></trkpt><trkpt lat="44.02102494642235" lon="12.45231784774156"><ele>63.666666666666664</ele><time>2026-05-02T16:43:09Z</time></trkpt><trkpt lat="44.020955820525245" lon="12.452367150827012"><ele>64.0</ele><time>2026-05-02T16:43:11Z</time></trkpt><trkpt lat="44.020877013424105" lon="12.452413119556361"><ele>63.99999999999999</ele><time>2026-05-02T16:43:13Z</time></trkpt><trkpt lat="44.020797550763305" lon="12.452448798588234"><ele>64.0</ele><time>2026-05-02T16:43:15Z</time></trkpt><trkpt lat="44.02072770122972" lon="12.452510605771431"><ele>64.0</ele><time>2026-05-02T16:43:17Z</time></trkpt><trkpt lat="44.020666131420484" lon="12.452556515957895"><ele>64.0</ele><time>2026-05-02T16:43:19Z</time></trkpt><trkpt lat="44.02060445854335" lon="12.452609876295828"><ele>63.99999999999999</ele><time>2026-05-02T16:43:21Z</time></trkpt><trkpt lat="44.020545552132006" lon="12.452658234141792"><ele>64.0</ele><time>2026-05-02T16:43:23Z</time></trkpt><trkpt lat="44.02047544315174" lon="12.452701409011732"><ele>63.99999999999999</ele><time>2026-05-02T16:43:25Z</time></trkpt><trkpt lat="44.020414591135065" lon="12.452766879891774"><ele>64.0</ele><time>2026-05-02T16:43:27Z</time></trkpt><trkpt lat="44.02035534355325" lon="12.452814538464295"><ele>64.0</ele><time>2026-05-02T16:43:28.999Z</time></trkpt><trkpt lat="44.02028989489388" lon="12.452866241584442"><ele>64.0</ele><time>2026-05-02T16:43:31.999Z</time></trkpt><trkpt lat="44.020213055639005" lon="12.452954272309805"><ele>63.99999999999999</ele><time>2026-05-02T16:43:33.999Z</time></trkpt><trkpt lat="44.02016271258967" lon="12.45302305979448"><ele>64.0</ele><time>2026-05-02T16:43:35.999Z</time></trkpt><trkpt lat="44.02015570026447" lon="12.45313196986402"><ele>63.857142857142854</ele><time>2026-05-02T16:43:37.999Z</time></trkpt><trkpt lat="44.02019897648149" lon="12.45323806969878"><ele>63.71428571428571</ele><time>2026-05-02T16:43:39.999Z</time></trkpt><trkpt lat="44.02023639211254" lon="12.453328819057546"><ele>63.57142857142857</ele><time>2026-05-02T16:43:41.999Z</time></trkpt><trkpt lat="44.02027846659851" lon="12.453414219003658"><ele>63.42857142857143</ele><time>2026-05-02T16:43:43.999Z</time></trkpt><trkpt lat="44.02032250300702" lon="12.45348345756108"><ele>63.285714285714285</ele><time>2026-05-02T16:43:45.999Z</time></trkpt><trkpt lat="44.02028937917466" lon="12.453572189366227"><ele>63.14285714285714</ele><time>2026-05-02T16:43:48.999Z</time></trkpt><trkpt lat="44.020232839342185" lon="12.45361871194297"><ele>63.0</ele><time>2026-05-02T16:43:50.999Z</time></trkpt><trkpt lat="44.020169132201644" lon="12.45368739509"><ele>63.0</ele><time>2026-05-02T16:43:53.999Z</time></trkpt><trkpt lat="44.02012524259417" lon="12.453759904516115"><ele>63.0</ele><time>2026-05-02T16:43:55.999Z</time></trkpt><trkpt lat="44.020073074818775" lon="12.453837732469804"><ele>63.0</ele><time>2026-05-02T16:43:58.999Z</time></trkpt><trkpt lat="44.020024805988854" lon="12.453922325763777"><ele>63.0</ele><time>2026-05-02T16:44:01.999Z</time></trkpt><trkpt lat="44.01995840984182" lon="12.454004403513391"><ele>63.0</ele><time>2026-05-02T16:44:04.999Z</time></trkpt><trkpt lat="44.01989705381274" lon="12.454081841231787"><ele>63.0</ele><time>2026-05-02T16:44:07.999Z</time></trkpt><trkpt lat="44.019832681352156" lon="12.454171358765388"><ele>63.333333333333336</ele><time>2026-05-02T16:44:11Z</time></trkpt><trkpt lat="44.019769212966374" lon="12.454248176249942"><ele>63.66666666666667</ele><time>2026-05-02T16:44:14Z</time></trkpt><trkpt lat="44.019723813768394" lon="12.454310624093344"><ele>64.0</ele><time>2026-05-02T16:44:16Z</time></trkpt><trkpt lat="44.01966614166351" lon="12.454383653308982"><ele>64.33333333333334</ele><time>2026-05-02T16:44:19Z</time></trkpt><trkpt lat="44.0196000865962" lon="12.454465653603314"><ele>64.66666666666667</ele><time>2026-05-02T16:44:23Z</time></trkpt><trkpt lat="44.019556503081105" lon="12.45455996329637"><ele>65.0</ele><time>2026-05-02T16:44:27Z</time></trkpt><trkpt lat="44.01949835460482" lon="12.45461172957039"><ele>65.33333333333334</ele><time>2026-05-02T16:44:31Z</time></trkpt><trkpt lat="44.01945495753707" lon="12.454704929742022"><ele>65.66666666666667</ele><time>2026-05-02T16:44:35Z</time></trkpt><trkpt lat="44.01939885376777" lon="12.45478412973105"><ele>66.0</ele><time>2026-05-02T16:44:39Z</time></trkpt><trkpt lat="44.01935417258775" lon="12.454854149154837"><ele>66.33333333333333</ele><time>2026-05-02T16:44:42Z</time></trkpt><trkpt lat="44.01931175685306" lon="12.454934084052368"><ele>66.66666666666666</ele><time>2026-05-02T16:44:46Z</time></trkpt><trkpt lat="44.019258114763446" lon="12.455012904141114"><ele>67.0</ele><time>2026-05-02T16:44:51Z</time></trkpt><trkpt lat="44.019205932163906" lon="12.45508831245214"><ele>67.0</ele><time>2026-05-02T16:44:56Z</time></trkpt><trkpt lat="44.019195289150296" lon="12.45517970073262"><ele>67.0</ele><time>2026-05-02T16:45:00Z</time></trkpt><trkpt lat="44.0191569190797" lon="12.455257168711757"><ele>67.0</ele><time>2026-05-02T16:45:05Z</time></trkpt><trkpt lat="44.01913128128553" lon="12.455342288637102"><ele>67.0</ele><time>2026-05-02T16:45:10Z</time></trkpt><trkpt lat="44.01911404174461" lon="12.455430195794834"><ele>67.0</ele><time>2026-05-02T16:45:16Z</time></trkpt><trkpt lat="44.01908268019631" lon="12.45552098604463"><ele>67.0</ele><time>2026-05-02T16:45:23Z</time></trkpt><trkpt lat="44.01906243022731" lon="12.455605420993802"><ele>67.0</ele><time>2026-05-02T16:45:28.999Z</time></trkpt><trkpt lat="44.019060846209335" lon="12.4556983311519"><ele>68.85714285714286</ele><time>2026-05-02T16:45:34.999Z</time></trkpt><trkpt lat="44.01905696839203" lon="12.455786439850177"><ele>70.71428571428571</ele><time>2026-05-02T16:45:40.999Z</time></trkpt><trkpt lat="44.01902350846596" lon="12.455879813014569"><ele>72.57142857142857</ele><time>2026-05-02T16:45:47.999Z</time></trkpt><trkpt lat="44.01898457868927" lon="12.4559629357185"><ele>74.42857142857143</ele><time>2026-05-02T16:45:53.999Z</time></trkpt><trkpt lat="44.018925822123414" lon="12.456024825218847"><ele>76.28571428571429</ele><time>2026-05-02T16:45:59.999Z</time></trkpt><trkpt lat="44.018873931763004" lon="12.456091385881512"><ele>78.14285714285714</ele><time>2026-05-02T16:46:04.999Z</time></trkpt><trkpt lat="44.01881028255398" lon="12.456132307564705"><ele>80.0</ele><time>2026-05-02T16:46:09.999Z</time></trkpt><trkpt lat="44.018742797480336" lon="12.45617783979319"><ele>80.0</ele><time>2026-05-02T16:46:16Z</time></trkpt><trkpt lat="44.0186876426227" lon="12.456246450211781"><ele>80.0</ele><time>2026-05-02T16:46:23Z</time></trkpt><trkpt lat="44.01864949541461" lon="12.456332616491478"><ele>80.0</ele><time>2026-05-02T16:46:28Z</time></trkpt><trkpt lat="44.018610610096594" lon="12.456405320172365"><ele>80.0</ele><time>2026-05-02T16:46:31Z</time></trkpt><trkpt lat="44.01856615750019" lon="12.456498245205108"><ele>80.0</ele><time>2026-05-02T16:46:34Z</time></trkpt><trkpt lat="44.01851082506921" lon="12.456596511084143"><ele>80.0</ele><time>2026-05-02T16:46:37Z</time></trkpt><trkpt lat="44.018472001588904" lon="12.456675614407883"><ele>80.0</ele><time>2026-05-02T16:46:39Z</time></trkpt><trkpt lat="44.01842429306531" lon="12.456749238157858"><ele>80.0</ele><time>2026-05-02T16:46:41Z</time></trkpt><trkpt lat="44.01836668708557" lon="12.456812483530797"><ele>80.0</ele><time>2026-05-02T16:46:43Z</time></trkpt><trkpt lat="44.01830500398472" lon="12.45685376736866"><ele>80.0</ele><time>2026-05-02T16:46:45Z</time></trkpt><trkpt lat="44.01823973526122" lon="12.45688468768683"><ele>80.0</ele><time>2026-05-02T16:46:47Z</time></trkpt><trkpt lat="44.01816206220019" lon="12.45690130719806"><ele>80.0</ele><time>2026-05-02T16:46:50Z</time></trkpt><trkpt lat="44.018076100897815" lon="12.456884894462215"><ele>80.0</ele><time>2026-05-02T16:46:53Z</time></trkpt><trkpt lat="44.01799921781723" lon="12.456859874484138"><ele>80.16666666666667</ele><time>2026-05-02T16:46:56Z</time></trkpt><trkpt lat="44.01791414838506" lon="12.45683799201045"><ele>80.33333333333334</ele><time>2026-05-02T16:46:59Z</time></trkpt><trkpt lat="44.01782619124058" lon="12.456871868399427"><ele>80.5</ele><time>2026-05-02T16:47:02Z</time></trkpt><trkpt lat="44.01777119975556" lon="12.456954300839886"><ele>80.66666666666667</ele><time>2026-05-02T16:47:05Z</time></trkpt><trkpt lat="44.01770898702408" lon="12.457048346133202"><ele>80.83333333333333</ele><time>2026-05-02T16:47:08Z</time></trkpt><trkpt lat="44.017656249030836" lon="12.457148706113514"><ele>81.0</ele><time>2026-05-02T16:47:11Z</time></trkpt><trkpt lat="44.01760926627952" lon="12.457248906096982"><ele>81.0</ele><time>2026-05-02T16:47:14Z</time></trkpt><trkpt lat="44.017559414090094" lon="12.45735465255808"><ele>81.0</ele><time>2026-05-02T16:47:17Z</time></trkpt><trkpt lat="44.017513470401326" lon="12.457446950917404"><ele>81.0</ele><time>2026-05-02T16:47:20Z</time></trkpt><trkpt lat="44.017479183899034" lon="12.457546089029057"><ele>81.0</ele><time>2026-05-02T16:47:23Z</time></trkpt><trkpt lat="44.0174427435284" lon="12.45764676463331"><ele>81.0</ele><time>2026-05-02T16:47:26Z</time></trkpt><trkpt lat="44.01738197333311" lon="12.457746028611107"><ele>81.0</ele><time>2026-05-02T16:47:29Z</time></trkpt><trkpt lat="44.01733687775957" lon="12.457839250413235"><ele>81.16666666666667</ele><time>2026-05-02T16:47:31.999Z</time></trkpt><trkpt lat="44.0172737826107" lon="12.457919718581014"><ele>81.33333333333333</ele><time>2026-05-02T16:47:34.999Z</time></trkpt><trkpt lat="44.01721311412303" lon="12.458005412872252"><ele>81.5</ele><time>2026-05-02T16:47:37.999Z</time></trkpt><trkpt lat="44.01714912507519" lon="12.458097525752967"><ele>81.66666666666666</ele><time>2026-05-02T16:47:40.999Z</time></trkpt><trkpt lat="44.01709207955557" lon="12.458179355492398"><ele>81.83333333333333</ele><time>2026-05-02T16:47:43.999Z</time></trkpt><trkpt lat="44.01702665042437" lon="12.458261785860786"><ele>82.0</ele><time>2026-05-02T16:47:46.999Z</time></trkpt><trkpt lat="44.01696199941246" lon="12.458347930539611"><ele>82.0</ele><time>2026-05-02T16:47:49.999Z</time></trkpt><trkpt lat="44.01690694008754" lon="12.458433946440485"><ele>82.0</ele><time>2026-05-02T16:47:52.999Z</time></trkpt><trkpt lat="44.01684923145525" lon="12.458516412562387"><ele>82.0</ele><time>2026-05-02T16:47:55.999Z</time></trkpt><trkpt lat="44.016799642702225" lon="12.458578564880508"><ele>82.0</ele><time>2026-05-02T16:47:57.999Z</time></trkpt><trkpt lat="44.01674571160402" lon="12.458673078583782"><ele>82.0</ele><time>2026-05-02T16:48:00.999Z</time></trkpt><trkpt lat="44.01667983624346" lon="12.458759258535173"><ele>82.0</ele><time>2026-05-02T16:48:03.999Z</time></trkpt><trkpt lat="44.01661784620093" lon="12.458853230282593"><ele>82.33333333333333</ele><time>2026-05-02T16:48:06.999Z</time></trkpt><trkpt lat="44.01657248188107" lon="12.458916016773376"><ele>82.66666666666666</ele><time>2026-05-02T16:48:08.999Z</time></trkpt><trkpt lat="44.01650962412715" lon="12.459003329561188"><ele>83.0</ele><time>2026-05-02T16:48:11.999Z</time></trkpt><trkpt lat="44.01644822034596" lon="12.45909641108493"><ele>83.33333333333333</ele><time>2026-05-02T16:48:14.999Z</time></trkpt><trkpt lat="44.01639622160252" lon="12.459160341018398"><ele>83.66666666666667</ele><time>2026-05-02T16:48:16.999Z</time></trkpt><trkpt lat="44.01633166295232" lon="12.459261026509012"><ele>84.0</ele><time>2026-05-02T16:48:19.999Z</time></trkpt><trkpt lat="44.01627878822058" lon="12.459326796335624"><ele>84.0</ele><time>2026-05-02T16:48:22Z</time></trkpt><trkpt lat="44.016226598536534" lon="12.459399664951947"><ele>84.0</ele><time>2026-05-02T16:48:24Z</time></trkpt><trkpt lat="44.016173706026535" lon="12.45947945725073"><ele>84.0</ele><time>2026-05-02T16:48:26Z</time></trkpt><trkpt lat="44.01611905702388" lon="12.459555258905459"><ele>84.0</ele><time>2026-05-02T16:48:28Z</time></trkpt><trkpt lat="44.01606199461358" lon="12.45964129448818"><ele>84.0</ele><time>2026-05-02T16:48:30Z</time></trkpt><trkpt lat="44.01599811459493" lon="12.459730512154932"><ele>84.0</ele><time>2026-05-02T16:48:32Z</time></trkpt><trkpt lat="44.01591590033256" lon="12.459797013462115"><ele>83.57142857142857</ele><time>2026-05-02T16:48:34Z</time></trkpt><trkpt lat="44.01585439740015" lon="12.459830487286753"><ele>83.14285714285714</ele><time>2026-05-02T16:48:35Z</time></trkpt><trkpt lat="44.01579170435885" lon="12.459854539221352"><ele>82.71428571428572</ele><time>2026-05-02T16:48:36Z</time></trkpt><trkpt lat="44.01572503202522" lon="12.459901235868834"><ele>82.28571428571428</ele><time>2026-05-02T16:48:37Z</time></trkpt><trkpt lat="44.0156465648093" lon="12.459898020881386"><ele>81.85714285714286</ele><time>2026-05-02T16:48:38Z</time></trkpt><trkpt lat="44.01558187218235" lon="12.45995532114187"><ele>81.42857142857143</ele><time>2026-05-02T16:48:39Z</time></trkpt><trkpt lat="44.01552305679842" lon="12.460032133649575"><ele>81.0</ele><time>2026-05-02T16:48:40Z</time></trkpt><trkpt lat="44.01548177006278" lon="12.4601133147987"><ele>80.2</ele><time>2026-05-02T16:48:41Z</time></trkpt><trkpt lat="44.01543290171028" lon="12.460191194804139"><ele>79.39999999999999</ele><time>2026-05-02T16:48:42Z</time></trkpt><trkpt lat="44.01538665451189" lon="12.46025846343943"><ele>78.6</ele><time>2026-05-02T16:48:43Z</time></trkpt><trkpt lat="44.01532584128504" lon="12.46034069481233"><ele>77.8</ele><time>2026-05-02T16:48:45Z</time></trkpt><trkpt lat="44.01526739495594" lon="12.460417776826151"><ele>77.0</ele><time>2026-05-02T16:48:48Z</time></trkpt><trkpt lat="44.01534155768138" lon="12.460653908854049"><ele>75.8</ele><time>2026-05-02T16:48:51Z</time></trkpt><trkpt lat="44.01541487190824" lon="12.460749291935029"><ele>74.6</ele><time>2026-05-02T16:48:54Z</time></trkpt><trkpt lat="44.0154865520688" lon="12.460833494253796"><ele>73.39999999999999</ele><time>2026-05-02T16:48:56Z</time></trkpt><trkpt lat="44.01556063224978" lon="12.46092051594025"><ele>72.2</ele><time>2026-05-02T16:48:58Z</time></trkpt><trkpt lat="44.01563438920426" lon="12.461007400666672"><ele>71.0</ele><time>2026-05-02T16:49:00Z</time></trkpt><trkpt lat="44.01571463808829" lon="12.461112203514269"><ele>71.0</ele><time>2026-05-02T16:49:02Z</time></trkpt><trkpt lat="44.01579376080135" lon="12.461191295934674"><ele>71.0</ele><time>2026-05-02T16:49:04Z</time></trkpt><trkpt lat="44.015862012957044" lon="12.461306443658414"><ele>71.0</ele><time>2026-05-02T16:49:06Z</time></trkpt><trkpt lat="44.015926826647494" lon="12.461427546070412"><ele>71.0</ele><time>2026-05-02T16:49:08Z</time></trkpt><trkpt lat="44.016005082810345" lon="12.461512560183104"><ele>71.0</ele><time>2026-05-02T16:49:10Z</time></trkpt><trkpt lat="44.01609029759619" lon="12.461575066562448"><ele>70.33333333333334</ele><time>2026-05-02T16:49:12Z</time></trkpt><trkpt lat="44.01614310786917" lon="12.461626299425282"><ele>69.66666666666667</ele><time>2026-05-02T16:49:14Z</time></trkpt><trkpt lat="44.01618779598662" lon="12.46172214047298"><ele>69.0</ele><time>2026-05-02T16:49:17Z</time></trkpt><trkpt lat="44.016232104750756" lon="12.461787765707085"><ele>68.33333333333333</ele><time>2026-05-02T16:49:19Z</time></trkpt><trkpt lat="44.01629895548906" lon="12.461886777573827"><ele>67.66666666666666</ele><time>2026-05-02T16:49:22Z</time></trkpt><trkpt lat="44.016357079541976" lon="12.461976199432298"><ele>67.0</ele><time>2026-05-02T16:49:25Z</time></trkpt><trkpt lat="44.016404033180386" lon="12.462053801785148"><ele>67.16666666666666</ele><time>2026-05-02T16:49:27Z</time></trkpt><trkpt lat="44.01646145120288" lon="12.46212466848212"><ele>67.33333333333333</ele><time>2026-05-02T16:49:29Z</time></trkpt><trkpt lat="44.01653107086416" lon="12.46219102675853"><ele>67.5</ele><time>2026-05-02T16:49:32Z</time></trkpt><trkpt lat="44.01660425657031" lon="12.4622317036329"><ele>67.66666666666667</ele><time>2026-05-02T16:49:35Z</time></trkpt><trkpt lat="44.016667297886485" lon="12.46215643686132"><ele>67.83333333333334</ele><time>2026-05-02T16:49:37Z</time></trkpt><trkpt lat="44.01673667831977" lon="12.462112276607483"><ele>68.0</ele><time>2026-05-02T16:49:40Z</time></trkpt><trkpt lat="44.01680674081356" lon="12.462060903460335"><ele>68.57142857142857</ele><time>2026-05-02T16:49:43.999Z</time></trkpt><trkpt lat="44.016862860736474" lon="12.46200281621296"><ele>69.14285714285714</ele><time>2026-05-02T16:49:47.999Z</time></trkpt><trkpt lat="44.01692034495005" lon="12.461934143591819"><ele>69.71428571428572</ele><time>2026-05-02T16:49:52.999Z</time></trkpt><trkpt lat="44.016978335313276" lon="12.461874354168646"><ele>70.28571428571428</ele><time>2026-05-02T16:49:58.999Z</time></trkpt><trkpt lat="44.017024781399954" lon="12.461797652881664"><ele>70.85714285714286</ele><time>2026-05-02T16:50:04.999Z</time></trkpt><trkpt lat="44.01707541649582" lon="12.46174423898879"><ele>71.42857142857143</ele><time>2026-05-02T16:50:10.999Z</time></trkpt><trkpt lat="44.01712619393972" lon="12.461684381837383"><ele>72.0</ele><time>2026-05-02T16:50:16.999Z</time></trkpt><trkpt lat="44.01718112134889" lon="12.46162582561278"><ele>72.00000000000001</ele><time>2026-05-02T16:50:22.999Z</time></trkpt><trkpt lat="44.01723334975954" lon="12.461569333402823"><ele>72.0</ele><time>2026-05-02T16:50:29Z</time></trkpt><trkpt lat="44.017287355908365" lon="12.461511746183898"><ele>72.0</ele><time>2026-05-02T16:50:35Z</time></trkpt><trkpt lat="44.01734180847583" lon="12.461454591579676"><ele>72.0</ele><time>2026-05-02T16:50:41Z</time></trkpt><trkpt lat="44.017394914800626" lon="12.46139591502662"><ele>72.0</ele><time>2026-05-02T16:50:47Z</time></trkpt><trkpt lat="44.01745062144259" lon="12.461326748453393"><ele>72.00000000000001</ele><time>2026-05-02T16:50:53Z</time></trkpt><trkpt lat="44.01750073957479" lon="12.4612694638748"><ele>72.0</ele><time>2026-05-02T16:50:57Z</time></trkpt><trkpt lat="44.01756165699229" lon="12.461197133919523"><ele>72.83333333333333</ele><time>2026-05-02T16:51:02Z</time></trkpt><trkpt lat="44.01762627354982" lon="12.461125927232793"><ele>73.66666666666667</ele><time>2026-05-02T16:51:06Z</time></trkpt><trkpt lat="44.01767899529124" lon="12.461062693051389"><ele>74.5</ele><time>2026-05-02T16:51:09Z</time></trkpt><trkpt lat="44.01774699391133" lon="12.460997665021399"><ele>75.33333333333334</ele><time>2026-05-02T16:51:12Z</time></trkpt><trkpt lat="44.01782347033318" lon="12.461032629169694"><ele>76.16666666666667</ele><time>2026-05-02T16:51:15Z</time></trkpt><trkpt lat="44.01785453640807" lon="12.461123131334293"><ele>77.0</ele><time>2026-05-02T16:51:17Z</time></trkpt><trkpt lat="44.017898958567926" lon="12.46120326660933"><ele>76.66666666666667</ele><time>2026-05-02T16:51:19Z</time></trkpt><trkpt lat="44.01794938105291" lon="12.46129678387682"><ele>76.33333333333334</ele><time>2026-05-02T16:51:21Z</time></trkpt><trkpt lat="44.018014998871365" lon="12.461384012981952"><ele>76.0</ele><time>2026-05-02T16:51:23Z</time></trkpt><trkpt lat="44.018067194563486" lon="12.461480244672064"><ele>75.66666666666667</ele><time>2026-05-02T16:51:25Z</time></trkpt><trkpt lat="44.018101510210236" lon="12.461604501279814"><ele>75.33333333333333</ele><time>2026-05-02T16:51:27Z</time></trkpt><trkpt lat="44.01814883177907" lon="12.461707429134231"><ele>75.0</ele><time>2026-05-02T16:51:29Z</time></trkpt><trkpt lat="44.01820774771243" lon="12.461790067546753"><ele>75.0</ele><time>2026-05-02T16:51:31Z</time></trkpt><trkpt lat="44.01824238855613" lon="12.461894386867211"><ele>75.0</ele><time>2026-05-02T16:51:33Z</time></trkpt><trkpt lat="44.018288773207594" lon="12.4619859451788"><ele>75.0</ele><time>2026-05-02T16:51:35Z</time></trkpt><trkpt lat="44.01835006736447" lon="12.462069176332687"><ele>75.0</ele><time>2026-05-02T16:51:37Z</time></trkpt><trkpt lat="44.01839725894049" lon="12.462162975155541"><ele>75.0</ele><time>2026-05-02T16:51:39Z</time></trkpt><trkpt lat="44.018445148053765" lon="12.4622504241055"><ele>75.0</ele><time>2026-05-02T16:51:41Z</time></trkpt><trkpt lat="44.01849174104364" lon="12.46234555064924"><ele>75.0</ele><time>2026-05-02T16:51:43Z</time></trkpt><trkpt lat="44.018539233501016" lon="12.46243362038463"><ele>75.0</ele><time>2026-05-02T16:51:45Z</time></trkpt><trkpt lat="44.0185873102345" lon="12.462522054971473"><ele>75.0</ele><time>2026-05-02T16:51:46.999Z</time></trkpt><trkpt lat="44.01863281138858" lon="12.46260655339"><ele>75.0</ele><time>2026-05-02T16:51:48.999Z</time></trkpt><trkpt lat="44.0186822362843" lon="12.462687146091259"><ele>75.0</ele><time>2026-05-02T16:51:50.999Z</time></trkpt><trkpt lat="44.01872673326053" lon="12.462771730406105"><ele>75.0</ele><time>2026-05-02T16:51:52.999Z</time></trkpt><trkpt lat="44.01875906210179" lon="12.462859618142696"><ele>74.99999999999999</ele><time>2026-05-02T16:51:54.999Z</time></trkpt><trkpt lat="44.0188019591977" lon="12.462937745066611"><ele>75.0</ele><time>2026-05-02T16:51:56.999Z</time></trkpt><trkpt lat="44.01884461263682" lon="12.463017254113046"><ele>75.0</ele><time>2026-05-02T16:51:58.999Z</time></trkpt><trkpt lat="44.01888938223796" lon="12.463095602345785"><ele>75.0</ele><time>2026-05-02T16:52:00.999Z</time></trkpt><trkpt lat="44.01892865043622" lon="12.463172492438224"><ele>75.0</ele><time>2026-05-02T16:52:02.999Z</time></trkpt><trkpt lat="44.01896926876222" lon="12.463241771680812"><ele>74.99999999999999</ele><time>2026-05-02T16:52:04.999Z</time></trkpt><trkpt lat="44.01900293349186" lon="12.463326337837344"><ele>75.0</ele><time>2026-05-02T16:52:06.999Z</time></trkpt><trkpt lat="44.01904893068108" lon="12.463421896920963"><ele>74.57142857142857</ele><time>2026-05-02T16:52:08.999Z</time></trkpt><trkpt lat="44.019088789943886" lon="12.463516233714161"><ele>74.14285714285714</ele><time>2026-05-02T16:52:10.999Z</time></trkpt><trkpt lat="44.01912242777769" lon="12.463603683840557"><ele>73.71428571428572</ele><time>2026-05-02T16:52:12.999Z</time></trkpt><trkpt lat="44.019136148033105" lon="12.463698973480454"><ele>73.28571428571428</ele><time>2026-05-02T16:52:14.999Z</time></trkpt><trkpt lat="44.01909397802016" lon="12.463773115259182"><ele>72.85714285714286</ele><time>2026-05-02T16:52:16.999Z</time></trkpt><trkpt lat="44.01901913781733" lon="12.463790305468512"><ele>72.42857142857143</ele><time>2026-05-02T16:52:18.999Z</time></trkpt><trkpt lat="44.01894822701969" lon="12.463831155919237"><ele>72.0</ele><time>2026-05-02T16:52:20.999Z</time></trkpt><trkpt lat="44.01886356945385" lon="12.463877457128788"><ele>71.33333333333333</ele><time>2026-05-02T16:52:22.999Z</time></trkpt><trkpt lat="44.01877093903271" lon="12.463923301408343"><ele>70.66666666666667</ele><time>2026-05-02T16:52:24.999Z</time></trkpt><trkpt lat="44.018659010291366" lon="12.463973604822781"><ele>70.0</ele><time>2026-05-02T16:52:26.999Z</time></trkpt><trkpt lat="44.018597808560095" lon="12.464000755494023"><ele>69.33333333333334</ele><time>2026-05-02T16:52:27.999Z</time></trkpt><trkpt lat="44.01853138569326" lon="12.46402978381965"><ele>68.66666666666667</ele><time>2026-05-02T16:52:28.999Z</time></trkpt><trkpt lat="44.01846154738484" lon="12.464062728184787"><ele>68.0</ele><time>2026-05-02T16:52:29.999Z</time></trkpt><trkpt lat="44.01838846371155" lon="12.464095859128552"><ele>67.16666666666667</ele><time>2026-05-02T16:52:30.999Z</time></trkpt><trkpt lat="44.018311662312755" lon="12.464124897094123"><ele>66.33333333333334</ele><time>2026-05-02T16:52:31.999Z</time></trkpt><trkpt lat="44.018231883994225" lon="12.464155319393988"><ele>65.5</ele><time>2026-05-02T16:52:32.999Z</time></trkpt><trkpt lat="44.01814874467238" lon="12.464190639426935"><ele>64.66666666666667</ele><time>2026-05-02T16:52:34Z</time></trkpt><trkpt lat="44.018062988015075" lon="12.464226492427184"><ele>63.833333333333336</ele><time>2026-05-02T16:52:35Z</time></trkpt><trkpt lat="44.01797696147553" lon="12.464264689867155"><ele>63.0</ele><time>2026-05-02T16:52:36Z</time></trkpt><trkpt lat="44.01789122653015" lon="12.46430317392039"><ele>63.0</ele><time>2026-05-02T16:52:37Z</time></trkpt><trkpt lat="44.01780450249567" lon="12.464350016544758"><ele>63.0</ele><time>2026-05-02T16:52:38Z</time></trkpt><trkpt lat="44.01771998370431" lon="12.4643974810543"><ele>63.0</ele><time>2026-05-02T16:52:39Z</time></trkpt><trkpt lat="44.01763668102239" lon="12.464446341982441"><ele>63.0</ele><time>2026-05-02T16:52:40Z</time></trkpt><trkpt lat="44.017557607142926" lon="12.464497829252705"><ele>63.0</ele><time>2026-05-02T16:52:41Z</time></trkpt><trkpt lat="44.01748089092406" lon="12.464554847335148"><ele>63.0</ele><time>2026-05-02T16:52:42Z</time></trkpt><trkpt lat="44.01740835947148" lon="12.464617116208126"><ele>63.666666666666664</ele><time>2026-05-02T16:52:43Z</time></trkpt><trkpt lat="44.01733897070521" lon="12.464675092780068"><ele>64.33333333333333</ele><time>2026-05-02T16:52:44Z</time></trkpt><trkpt lat="44.01727005621579" lon="12.464730290871923"><ele>65.0</ele><time>2026-05-02T16:52:45Z</time></trkpt><trkpt lat="44.01720577304852" lon="12.464781766122814"><ele>65.66666666666666</ele><time>2026-05-02T16:52:46Z</time></trkpt><trkpt lat="44.01714502565528" lon="12.46483236026187"><ele>66.33333333333333</ele><time>2026-05-02T16:52:47Z</time></trkpt><trkpt lat="44.01708716609864" lon="12.464878071642929"><ele>67.0</ele><time>2026-05-02T16:52:48Z</time></trkpt><trkpt lat="44.016988831188" lon="12.464966288614637"><ele>67.0</ele><time>2026-05-02T16:52:50Z</time></trkpt><trkpt lat="44.01690356456881" lon="12.465047499926483"><ele>67.0</ele><time>2026-05-02T16:52:52Z</time></trkpt><trkpt lat="44.01683711172987" lon="12.46512452894155"><ele>67.0</ele><time>2026-05-02T16:52:54Z</time></trkpt><trkpt lat="44.016786247172774" lon="12.465204351829057"><ele>67.0</ele><time>2026-05-02T16:52:56Z</time></trkpt><trkpt lat="44.01675051777747" lon="12.465288515306169"><ele>67.0</ele><time>2026-05-02T16:52:58Z</time></trkpt><trkpt lat="44.01674002907219" lon="12.46538247380397"><ele>67.0</ele><time>2026-05-02T16:53:01Z</time></trkpt><trkpt lat="44.01673875443152" lon="12.465478911242771"><ele>67.57142857142857</ele><time>2026-05-02T16:53:05Z</time></trkpt><trkpt lat="44.01674344002414" lon="12.465572621659812"><ele>68.14285714285714</ele><time>2026-05-02T16:53:09Z</time></trkpt><trkpt lat="44.016768933535474" lon="12.465667327193092"><ele>68.71428571428571</ele><time>2026-05-02T16:53:13Z</time></trkpt><trkpt lat="44.01679671093143" lon="12.465750455822956"><ele>69.28571428571428</ele><time>2026-05-02T16:53:17Z</time></trkpt><trkpt lat="44.01682627363871" lon="12.465833525263493"><ele>69.85714285714285</ele><time>2026-05-02T16:53:21Z</time></trkpt><trkpt lat="44.0168559249135" lon="12.465914197467116"><ele>70.42857142857143</ele><time>2026-05-02T16:53:25Z</time></trkpt><trkpt lat="44.01688907650684" lon="12.465998335835494"><ele>71.0</ele><time>2026-05-02T16:53:29Z</time></trkpt><trkpt lat="44.016941534948465" lon="12.466059425491286"><ele>71.0</ele><time>2026-05-02T16:53:33Z</time></trkpt><trkpt lat="44.01696999007642" lon="12.466145410728949"><ele>71.0</ele><time>2026-05-02T16:53:37Z</time></trkpt><trkpt lat="44.016993856627835" lon="12.466235329508754"><ele>71.0</ele><time>2026-05-02T16:53:41Z</time></trkpt><trkpt lat="44.01701048650465" lon="12.46632415914263"><ele>71.0</ele><time>2026-05-02T16:53:45Z</time></trkpt><trkpt lat="44.01699835263377" lon="12.466410702458868"><ele>71.0</ele><time>2026-05-02T16:53:49Z</time></trkpt><trkpt lat="44.01696391243734" lon="12.46648713733683"><ele>71.0</ele><time>2026-05-02T16:53:54Z</time></trkpt><trkpt lat="44.01690401118919" lon="12.466529694399084"><ele>71.0</ele><time>2026-05-02T16:53:58.999Z</time></trkpt><trkpt lat="44.01682750377919" lon="12.466542220101429"><ele>71.71428571428571</ele><time>2026-05-02T16:54:03.999Z</time></trkpt><trkpt lat="44.01675692543104" lon="12.466500421453848"><ele>72.42857142857142</ele><time>2026-05-02T16:54:08.999Z</time></trkpt><trkpt lat="44.016680499353484" lon="12.466477948351233"><ele>73.14285714285714</ele><time>2026-05-02T16:54:13.999Z</time></trkpt><trkpt lat="44.0166238681675" lon="12.466431173738954"><ele>73.85714285714286</ele><time>2026-05-02T16:54:17.999Z</time></trkpt><trkpt lat="44.01655210058533" lon="12.466391622904316"><ele>74.57142857142858</ele><time>2026-05-02T16:54:22.999Z</time></trkpt><trkpt lat="44.016486463859536" lon="12.466352996636969"><ele>75.28571428571428</ele><time>2026-05-02T16:54:27.999Z</time></trkpt><trkpt lat="44.01643915790817" lon="12.466286665055653"><ele>76.0</ele><time>2026-05-02T16:54:31.999Z</time></trkpt><trkpt lat="44.016381488900784" lon="12.466234685689766"><ele>77.28571428571428</ele><time>2026-05-02T16:54:35.999Z</time></trkpt><trkpt lat="44.016320681803336" lon="12.46616260929242"><ele>78.57142857142858</ele><time>2026-05-02T16:54:40Z</time></trkpt><trkpt lat="44.01627187836493" lon="12.466104348962423"><ele>79.85714285714286</ele><time>2026-05-02T16:54:43Z</time></trkpt><trkpt lat="44.0162183787513" lon="12.466024459047462"><ele>81.14285714285714</ele><time>2026-05-02T16:54:47Z</time></trkpt><trkpt lat="44.01617582096934" lon="12.465954735736311"><ele>82.42857142857142</ele><time>2026-05-02T16:54:50Z</time></trkpt><trkpt lat="44.0161332812406" lon="12.465874693626574"><ele>83.71428571428572</ele><time>2026-05-02T16:54:53Z</time></trkpt><trkpt lat="44.01608056895358" lon="12.46578789760287"><ele>85.0</ele><time>2026-05-02T16:54:57Z</time></trkpt><trkpt lat="44.01604311747858" lon="12.465695102380407"><ele>85.0</ele><time>2026-05-02T16:55:01Z</time></trkpt><trkpt lat="44.01600443036591" lon="12.465618024994653"><ele>85.0</ele><time>2026-05-02T16:55:04Z</time></trkpt><trkpt lat="44.015967890702896" lon="12.465544887969642"><ele>85.0</ele><time>2026-05-02T16:55:07Z</time></trkpt><trkpt lat="44.015922801664566" lon="12.46545176522995"><ele>85.0</ele><time>2026-05-02T16:55:11Z</time></trkpt><trkpt lat="44.015885909030786" lon="12.465353356507867"><ele>85.0</ele><time>2026-05-02T16:55:15Z</time></trkpt><trkpt lat="44.01583770486628" lon="12.465257452665544"><ele>85.0</ele><time>2026-05-02T16:55:19Z</time></trkpt><trkpt lat="44.015783313234344" lon="12.465188348380082"><ele>85.85714285714286</ele><time>2026-05-02T16:55:23Z</time></trkpt><trkpt lat="44.015727341548164" lon="12.465138387712654"><ele>86.71428571428571</ele><time>2026-05-02T16:55:27Z</time></trkpt><trkpt lat="44.0156561617439" lon="12.465127727212737"><ele>87.57142857142857</ele><time>2026-05-02T16:55:32Z</time></trkpt><trkpt lat="44.01559022524142" lon="12.465164423382317"><ele>88.42857142857143</ele><time>2026-05-02T16:55:38Z</time></trkpt><trkpt lat="44.01554126227306" lon="12.465232524382026"><ele>89.28571428571428</ele><time>2026-05-02T16:55:44Z</time></trkpt><trkpt lat="44.01555202126657" lon="12.465338996033395"><ele>90.14285714285714</ele><time>2026-05-02T16:55:50Z</time></trkpt><trkpt lat="44.01556571909521" lon="12.46543930876038"><ele>91.0</ele><time>2026-05-02T16:55:54.999Z</time></trkpt><trkpt lat="44.01556325937668" lon="12.465527387047407"><ele>92.0</ele><time>2026-05-02T16:55:58.999Z</time></trkpt><trkpt lat="44.01559194562378" lon="12.46561779439953"><ele>93.0</ele><time>2026-05-02T16:56:02.999Z</time></trkpt><trkpt lat="44.015590268396245" lon="12.465710974091708"><ele>94.0</ele><time>2026-05-02T16:56:06.999Z</time></trkpt><trkpt lat="44.01555432090108" lon="12.465783907703734"><ele>95.0</ele><time>2026-05-02T16:56:10.999Z</time></trkpt><trkpt lat="44.01550247185779" lon="12.465848290351333"><ele>96.0</ele><time>2026-05-02T16:56:15.999Z</time></trkpt><trkpt lat="44.0154439861724" lon="12.465901871414173"><ele>97.0</ele><time>2026-05-02T16:56:20.999Z</time></trkpt><trkpt lat="44.015376537603345" lon="12.465879659034961"><ele>98.0</ele><time>2026-05-02T16:56:25.999Z</time></trkpt><trkpt lat="44.015312712098854" lon="12.46582334464071"><ele>98.0</ele><time>2026-05-02T16:56:31.999Z</time></trkpt><trkpt lat="44.015261964545886" lon="12.465740164898166"><ele>98.0</ele><time>2026-05-02T16:56:37.999Z</time></trkpt><trkpt lat="44.01521916412861" lon="12.46564799002839"><ele>98.0</ele><time>2026-05-02T16:56:42.999Z</time></trkpt><trkpt lat="44.01518874705713" lon="12.465562140604197"><ele>98.0</ele><time>2026-05-02T16:56:47Z</time></trkpt><trkpt lat="44.01515215297842" lon="12.465481949603234"><ele>98.0</ele><time>2026-05-02T16:56:51Z</time></trkpt><trkpt lat="44.01510364633461" lon="12.465408130596058"><ele>98.0</ele><time>2026-05-02T16:56:55Z</time></trkpt><trkpt lat="44.01504304819" lon="12.465351181359354"><ele>98.0</ele><time>2026-05-02T16:56:59Z</time></trkpt><trkpt lat="44.01498057824043" lon="12.465304498367878"><ele>98.71428571428571</ele><time>2026-05-02T16:57:03Z</time></trkpt><trkpt lat="44.01490094649805" lon="12.46528438180109"><ele>99.42857142857143</ele><time>2026-05-02T16:57:07Z</time></trkpt><trkpt lat="44.01482307271993" lon="12.465289916522558"><ele>100.14285714285714</ele><time>2026-05-02T16:57:11Z</time></trkpt><trkpt lat="44.014751811898506" lon="12.46530553782828"><ele>100.85714285714286</ele><time>2026-05-02T16:57:15Z</time></trkpt><trkpt lat="44.01468777230552" lon="12.465351069150495"><ele>101.57142857142857</ele><time>2026-05-02T16:57:19Z</time></trkpt><trkpt lat="44.01462858214695" lon="12.465418491446599"><ele>102.28571428571428</ele><time>2026-05-02T16:57:24Z</time></trkpt><trkpt lat="44.01459418344995" lon="12.465499325061074"><ele>103.0</ele><time>2026-05-02T16:57:29Z</time></trkpt><trkpt lat="44.01456957980478" lon="12.465593882935483"><ele>102.99999999999999</ele><time>2026-05-02T16:57:35Z</time></trkpt><trkpt lat="44.01456175380982" lon="12.465695667148642"><ele>103.0</ele><time>2026-05-02T16:57:41Z</time></trkpt><trkpt lat="44.01459456451499" lon="12.465774854970778"><ele>103.0</ele><time>2026-05-02T16:57:45Z</time></trkpt><trkpt lat="44.01461757724578" lon="12.465871239304553"><ele>103.0</ele><time>2026-05-02T16:57:50Z</time></trkpt><trkpt lat="44.01463893735602" lon="12.46595910070547"><ele>103.0</ele><time>2026-05-02T16:57:54Z</time></trkpt><trkpt lat="44.014676713123166" lon="12.46606267425325"><ele>102.99999999999999</ele><time>2026-05-02T16:57:58Z</time></trkpt><trkpt lat="44.01472079853644" lon="12.466145713633324"><ele>103.0</ele><time>2026-05-02T16:58:01Z</time></trkpt><trkpt lat="44.01476645900641" lon="12.466236097256358"><ele>103.99999999999999</ele><time>2026-05-02T16:58:04Z</time></trkpt><trkpt lat="44.01477300815047" lon="12.466325558102731"><ele>105.0</ele><time>2026-05-02T16:58:06.999Z</time></trkpt><trkpt lat="44.0148078893656" lon="12.466412121644261"><ele>106.0</ele><time>2026-05-02T16:58:09.999Z</time></trkpt><trkpt lat="44.01483525907393" lon="12.466523374351324"><ele>107.0</ele><time>2026-05-02T16:58:13.999Z</time></trkpt><trkpt lat="44.01484472611575" lon="12.46661933431913"><ele>108.0</ele><time>2026-05-02T16:58:16.999Z</time></trkpt><trkpt lat="44.014855385899644" lon="12.466719817858388"><ele>108.99999999999999</ele><time>2026-05-02T16:58:19.999Z</time></trkpt><trkpt lat="44.01483718513596" lon="12.466816110764"><ele>110.0</ele><time>2026-05-02T16:58:22.999Z</time></trkpt><trkpt lat="44.01480968089197" lon="12.466903442636914"><ele>109.99999999999999</ele><time>2026-05-02T16:58:25.999Z</time></trkpt><trkpt lat="44.01475703219449" lon="12.466976233457537"><ele>110.0</ele><time>2026-05-02T16:58:29.999Z</time></trkpt><trkpt lat="44.01469587053183" lon="12.467015899062398"><ele>110.0</ele><time>2026-05-02T16:58:33.999Z</time></trkpt><trkpt lat="44.01461823877506" lon="12.467016325270238"><ele>110.0</ele><time>2026-05-02T16:58:38.999Z</time></trkpt><trkpt lat="44.0145458821141" lon="12.466997270209465"><ele>110.0</ele><time>2026-05-02T16:58:43.999Z</time></trkpt><trkpt lat="44.014486469720104" lon="12.4669627537671"><ele>109.99999999999999</ele><time>2026-05-02T16:58:47.999Z</time></trkpt><trkpt lat="44.01443228659175" lon="12.466917219548325"><ele>110.0</ele><time>2026-05-02T16:58:52Z</time></trkpt><trkpt lat="44.01437037441784" lon="12.466881958410942"><ele>109.99999999999999</ele><time>2026-05-02T16:58:56Z</time></trkpt><trkpt lat="44.01430789210988" lon="12.46685477444196"><ele>110.0</ele><time>2026-05-02T16:59:00Z</time></trkpt><trkpt lat="44.01424211742407" lon="12.466805609844853"><ele>110.0</ele><time>2026-05-02T16:59:05Z</time></trkpt><trkpt lat="44.014169878472785" lon="12.466820500556114"><ele>110.0</ele><time>2026-05-02T16:59:09Z</time></trkpt><trkpt lat="44.01410145310133" lon="12.466790579188174"><ele>110.0</ele><time>2026-05-02T16:59:13Z</time></trkpt><trkpt lat="44.01403526488151" lon="12.46682018065231"><ele>109.99999999999999</ele><time>2026-05-02T16:59:17Z</time></trkpt><trkpt lat="44.01397619402492" lon="12.46685147251162"><ele>110.0</ele><time>2026-05-02T16:59:21Z</time></trkpt><trkpt lat="44.013910219399406" lon="12.466877177918175"><ele>110.85714285714285</ele><time>2026-05-02T16:59:25Z</time></trkpt><trkpt lat="44.01385825436844" lon="12.46692919629594"><ele>111.71428571428572</ele><time>2026-05-02T16:59:29Z</time></trkpt><trkpt lat="44.01378873396622" lon="12.466981012706409"><ele>112.57142857142858</ele><time>2026-05-02T16:59:34Z</time></trkpt><trkpt lat="44.01372535866999" lon="12.467037418192469"><ele>113.42857142857143</ele><time>2026-05-02T16:59:39Z</time></trkpt><trkpt lat="44.01366654488851" lon="12.467094227833515"><ele>114.28571428571429</ele><time>2026-05-02T16:59:44Z</time></trkpt><trkpt lat="44.013597598642896" lon="12.467131706206064"><ele>115.14285714285715</ele><time>2026-05-02T16:59:49Z</time></trkpt><trkpt lat="44.01354130033436" lon="12.467182566388878"><ele>116.00000000000001</ele><time>2026-05-02T16:59:53Z</time></trkpt><trkpt lat="44.01347435632674" lon="12.467214101576502"><ele>116.42857142857144</ele><time>2026-05-02T16:59:57Z</time></trkpt><trkpt lat="44.013408761070224" lon="12.46723626789072"><ele>116.85714285714286</ele><time>2026-05-02T17:00:01Z</time></trkpt><trkpt lat="44.01332907650791" lon="12.467250161679807"><ele>117.28571428571429</ele><time>2026-05-02T17:00:06Z</time></trkpt><trkpt lat="44.01326537621134" lon="12.467251720778862"><ele>117.71428571428572</ele><time>2026-05-02T17:00:10Z</time></trkpt><trkpt lat="44.01319710079656" lon="12.467262723617475"><ele>118.14285714285714</ele><time>2026-05-02T17:00:13.999Z</time></trkpt><trkpt lat="44.01313253181333" lon="12.46725117144118"><ele>118.57142857142857</ele><time>2026-05-02T17:00:17.999Z</time></trkpt><trkpt lat="44.013058201530136" lon="12.46724331849172"><ele>119.0</ele><time>2026-05-02T17:00:22.999Z</time></trkpt><trkpt lat="44.01298498535233" lon="12.467238670701526"><ele>120.0</ele><time>2026-05-02T17:00:27.999Z</time></trkpt><trkpt lat="44.01291289339543" lon="12.467265931031056"><ele>121.0</ele><time>2026-05-02T17:00:32.999Z</time></trkpt><trkpt lat="44.01284826753277" lon="12.467264601164434"><ele>122.0</ele><time>2026-05-02T17:00:37.999Z</time></trkpt><trkpt lat="44.01278142806797" lon="12.46730630671277"><ele>123.0</ele><time>2026-05-02T17:00:42.999Z</time></trkpt><trkpt lat="44.01272180115617" lon="12.467334646563126"><ele>124.0</ele><time>2026-05-02T17:00:47.999Z</time></trkpt><trkpt lat="44.01266741805073" lon="12.467402549332268"><ele>125.0</ele><time>2026-05-02T17:00:52.999Z</time></trkpt><trkpt lat="44.01260402229767" lon="12.467463355960678"><ele>126.0</ele><time>2026-05-02T17:00:58Z</time></trkpt><trkpt lat="44.012554585785814" lon="12.46752006090479"><ele>126.0</ele><time>2026-05-02T17:01:02Z</time></trkpt><trkpt lat="44.012492068034646" lon="12.467551350196011"><ele>126.0</ele><time>2026-05-02T17:01:06Z</time></trkpt><trkpt lat="44.01242389697929" lon="12.46757951689767"><ele>126.0</ele><time>2026-05-02T17:01:11Z</time></trkpt><trkpt lat="44.01235262993276" lon="12.467581886605283"><ele>126.0</ele><time>2026-05-02T17:01:15Z</time></trkpt><trkpt lat="44.01228088064491" lon="12.467570601565262"><ele>126.0</ele><time>2026-05-02T17:01:21Z</time></trkpt><trkpt lat="44.01221621998856" lon="12.467570409992819"><ele>126.0</ele><time>2026-05-02T17:01:26Z</time></trkpt><trkpt lat="44.012137534008836" lon="12.46757145234626"><ele>126.0</ele><time>2026-05-02T17:01:31Z</time></trkpt><trkpt lat="44.01206329538336" lon="12.467553650287435"><ele>127.0</ele><time>2026-05-02T17:01:36Z</time></trkpt><trkpt lat="44.01200048491509" lon="12.467519414015008"><ele>128.0</ele><time>2026-05-02T17:01:40Z</time></trkpt><trkpt lat="44.0119324476735" lon="12.467487424418058"><ele>129.0</ele><time>2026-05-02T17:01:44Z</time></trkpt><trkpt lat="44.01186227123279" lon="12.467478697926547"><ele>130.0</ele><time>2026-05-02T17:01:48Z</time></trkpt><trkpt lat="44.01178723812775" lon="12.467467511492842"><ele>131.0</ele><time>2026-05-02T17:01:52Z</time></trkpt><trkpt lat="44.011711852879856" lon="12.467458491588753"><ele>132.0</ele><time>2026-05-02T17:01:56Z</time></trkpt><trkpt lat="44.01163239429045" lon="12.467444010878323"><ele>133.0</ele><time>2026-05-02T17:02:00Z</time></trkpt><trkpt lat="44.011562535685414" lon="12.467439818837045"><ele>133.85714285714286</ele><time>2026-05-02T17:02:04Z</time></trkpt><trkpt lat="44.01148481588959" lon="12.467463602134766"><ele>134.71428571428572</ele><time>2026-05-02T17:02:08Z</time></trkpt><trkpt lat="44.01141163371354" lon="12.467467339675746"><ele>135.57142857142856</ele><time>2026-05-02T17:02:12Z</time></trkpt><trkpt lat="44.01133902721455" lon="12.46746467588298"><ele>136.42857142857144</ele><time>2026-05-02T17:02:16Z</time></trkpt><trkpt lat="44.01127045979635" lon="12.46747365442597"><ele>137.28571428571428</ele><time>2026-05-02T17:02:19.999Z</time></trkpt><trkpt lat="44.011206319293805" lon="12.467482180883287"><ele>138.14285714285714</ele><time>2026-05-02T17:02:23.999Z</time></trkpt><trkpt lat="44.01113722981706" lon="12.467449875870644"><ele>139.0</ele><time>2026-05-02T17:02:27.999Z</time></trkpt><trkpt lat="44.011071405314965" lon="12.467427843393427"><ele>139.0</ele><time>2026-05-02T17:02:31.999Z</time></trkpt><trkpt lat="44.01101042708367" lon="12.467370106464951"><ele>139.0</ele><time>2026-05-02T17:02:36.999Z</time></trkpt><trkpt lat="44.01096731884633" lon="12.467304819527067"><ele>139.0</ele><time>2026-05-02T17:02:40.999Z</time></trkpt><trkpt lat="44.0109081200604" lon="12.467226902742482"><ele>139.0</ele><time>2026-05-02T17:02:45.999Z</time></trkpt><trkpt lat="44.01085130540914" lon="12.467172210473422"><ele>139.0</ele><time>2026-05-02T17:02:49.999Z</time></trkpt><trkpt lat="44.010788239445475" lon="12.467146201251273"><ele>139.0</ele><time>2026-05-02T17:02:53.999Z</time></trkpt><trkpt lat="44.010709391192904" lon="12.467141701603028"><ele>139.0</ele><time>2026-05-02T17:02:57.999Z</time></trkpt><trkpt lat="44.01063961057577" lon="12.467175557250759"><ele>139.85714285714286</ele><time>2026-05-02T17:03:01.999Z</time></trkpt><trkpt lat="44.01056983592675" lon="12.467223770898617"><ele>140.71428571428572</ele><time>2026-05-02T17:03:06Z</time></trkpt><trkpt lat="44.01050573284028" lon="12.467282040136693"><ele>141.57142857142858</ele><time>2026-05-02T17:03:10Z</time></trkpt><trkpt lat="44.010439632801884" lon="12.467339682631648"><ele>142.42857142857144</ele><time>2026-05-02T17:03:14Z</time></trkpt><trkpt lat="44.01037595110315" lon="12.46740194595499"><ele>143.2857142857143</ele><time>2026-05-02T17:03:18Z</time></trkpt><trkpt lat="44.01032368969502" lon="12.467457567054248"><ele>144.14285714285714</ele><time>2026-05-02T17:03:22Z</time></trkpt><trkpt lat="44.01026596175666" lon="12.467515269008366"><ele>145.0</ele><time>2026-05-02T17:03:26Z</time></trkpt><trkpt lat="44.01020830672394" lon="12.46757450407977"><ele>145.0</ele><time>2026-05-02T17:03:30Z</time></trkpt><trkpt lat="44.01015726037091" lon="12.467625737087396"><ele>145.0</ele><time>2026-05-02T17:03:34Z</time></trkpt><trkpt lat="44.0100859803586" lon="12.46767792446979"><ele>145.0</ele><time>2026-05-02T17:03:39Z</time></trkpt><trkpt lat="44.01002050382921" lon="12.467717757572833"><ele>145.0</ele><time>2026-05-02T17:03:44Z</time></trkpt><trkpt lat="44.00995393884536" lon="12.467761720750891"><ele>145.0</ele><time>2026-05-02T17:03:48Z</time></trkpt><trkpt lat="44.009884161980715" lon="12.467768313442958"><ele>145.0</ele><time>2026-05-02T17:03:52Z</time></trkpt><trkpt lat="44.00981881711156" lon="12.467772396309512"><ele>145.0</ele><time>2026-05-02T17:03:56Z</time></trkpt><trkpt lat="44.009751917047815" lon="12.467789054916107"><ele>145.57142857142858</ele><time>2026-05-02T17:04:00Z</time></trkpt><trkpt lat="44.00967409455769" lon="12.467774569220422"><ele>146.14285714285717</ele><time>2026-05-02T17:04:04Z</time></trkpt><trkpt lat="44.00959191774881" lon="12.467769416791494"><ele>146.71428571428572</ele><time>2026-05-02T17:04:08Z</time></trkpt><trkpt lat="44.009524249651186" lon="12.467752714216086"><ele>147.28571428571428</ele><time>2026-05-02T17:04:11Z</time></trkpt><trkpt lat="44.00945691433329" lon="12.4677494478882"><ele>147.85714285714283</ele><time>2026-05-02T17:04:14Z</time></trkpt><trkpt lat="44.00938681365202" lon="12.467719481384437"><ele>148.42857142857142</ele><time>2026-05-02T17:04:17Z</time></trkpt><trkpt lat="44.00931859645829" lon="12.467698328771368"><ele>149.0</ele><time>2026-05-02T17:04:20Z</time></trkpt><trkpt lat="44.00925046139409" lon="12.467668360497065"><ele>149.0</ele><time>2026-05-02T17:04:23Z</time></trkpt><trkpt lat="44.00917421545726" lon="12.467624751040447"><ele>149.0</ele><time>2026-05-02T17:04:26.999Z</time></trkpt><trkpt lat="44.00909653511444" lon="12.467591201838168"><ele>149.0</ele><time>2026-05-02T17:04:30.999Z</time></trkpt><trkpt lat="44.009028671853976" lon="12.46757800604139"><ele>149.0</ele><time>2026-05-02T17:04:33.999Z</time></trkpt><trkpt lat="44.008959119763816" lon="12.467548911490788"><ele>149.0</ele><time>2026-05-02T17:04:36.999Z</time></trkpt><trkpt lat="44.00888648635905" lon="12.467521937982962"><ele>149.0</ele><time>2026-05-02T17:04:40.999Z</time></trkpt><trkpt lat="44.00881361704599" lon="12.467496632319936"><ele>150.0</ele><time>2026-05-02T17:04:44.999Z</time></trkpt><trkpt lat="44.008745980960335" lon="12.467466155891822"><ele>151.0</ele><time>2026-05-02T17:04:48.999Z</time></trkpt><trkpt lat="44.00868218328242" lon="12.46745822195913"><ele>152.0</ele><time>2026-05-02T17:04:51.999Z</time></trkpt><trkpt lat="44.00861737674082" lon="12.467435258361142"><ele>153.0</ele><time>2026-05-02T17:04:54.999Z</time></trkpt><trkpt lat="44.008539343449165" lon="12.467411894189302"><ele>154.0</ele><time>2026-05-02T17:04:58.999Z</time></trkpt><trkpt lat="44.00846848812753" lon="12.467386122674245"><ele>155.0</ele><time>2026-05-02T17:05:02.999Z</time></trkpt><trkpt lat="44.0083990678526" lon="12.467381116999645"><ele>156.0</ele><time>2026-05-02T17:05:06.999Z</time></trkpt><trkpt lat="44.008337012654835" lon="12.467361902956664"><ele>157.0</ele><time>2026-05-02T17:05:11Z</time></trkpt><trkpt lat="44.008269505846165" lon="12.467348088742526"><ele>158.0</ele><time>2026-05-02T17:05:15Z</time></trkpt><trkpt lat="44.00819782618034" lon="12.467363449866529"><ele>159.0</ele><time>2026-05-02T17:05:19Z</time></trkpt><trkpt lat="44.00813390602747" lon="12.467353251820048"><ele>160.0</ele><time>2026-05-02T17:05:23Z</time></trkpt><trkpt lat="44.008072543304905" lon="12.467325660658318"><ele>161.0</ele><time>2026-05-02T17:05:27Z</time></trkpt><trkpt lat="44.0080061809602" lon="12.467331810544287"><ele>162.0</ele><time>2026-05-02T17:05:31Z</time></trkpt><trkpt lat="44.00792698069973" lon="12.467330598607887"><ele>163.0</ele><time>2026-05-02T17:05:36Z</time></trkpt><trkpt lat="44.00785508560277" lon="12.467326470291534"><ele>163.0</ele><time>2026-05-02T17:05:40Z</time></trkpt><trkpt lat="44.00778365135073" lon="12.46733415293665"><ele>163.0</ele><time>2026-05-02T17:05:44Z</time></trkpt><trkpt lat="44.00771259609013" lon="12.467342613032873"><ele>163.0</ele><time>2026-05-02T17:05:48Z</time></trkpt><trkpt lat="44.007639676454545" lon="12.467351176291206"><ele>163.0</ele><time>2026-05-02T17:05:52Z</time></trkpt><trkpt lat="44.00757152918441" lon="12.467351653210475"><ele>163.0</ele><time>2026-05-02T17:05:56Z</time></trkpt><trkpt lat="44.00750522682508" lon="12.467363026634319"><ele>163.0</ele><time>2026-05-02T17:06:00Z</time></trkpt><trkpt lat="44.00743476469954" lon="12.46736414844611"><ele>163.0</ele><time>2026-05-02T17:06:04Z</time></trkpt><trkpt lat="44.007358683586354" lon="12.46736825911004"><ele>164.0</ele><time>2026-05-02T17:06:08Z</time></trkpt><trkpt lat="44.00728698465057" lon="12.467375281225479"><ele>165.0</ele><time>2026-05-02T17:06:12Z</time></trkpt><trkpt lat="44.00721291569015" lon="12.467383224715194"><ele>166.0</ele><time>2026-05-02T17:06:16Z</time></trkpt><trkpt lat="44.007148462855895" lon="12.46739191387525"><ele>167.0</ele><time>2026-05-02T17:06:20Z</time></trkpt><trkpt lat="44.007073300127765" lon="12.467406708066438"><ele>168.0</ele><time>2026-05-02T17:06:24Z</time></trkpt><trkpt lat="44.00700019623088" lon="12.467418896842187"><ele>169.0</ele><time>2026-05-02T17:06:28Z</time></trkpt><trkpt lat="44.00693400221044" lon="12.46741475507844"><ele>170.0</ele><time>2026-05-02T17:06:31.999Z</time></trkpt><trkpt lat="44.00685217757224" lon="12.467422969469592"><ele>170.0</ele><time>2026-05-02T17:06:36.999Z</time></trkpt><trkpt lat="44.00677792021851" lon="12.467437583193762"><ele>170.0</ele><time>2026-05-02T17:06:41.999Z</time></trkpt><trkpt lat="44.0067121912196" lon="12.467438049040192"><ele>170.0</ele><time>2026-05-02T17:06:45.999Z</time></trkpt><trkpt lat="44.00664002407159" lon="12.4674532691393"><ele>170.0</ele><time>2026-05-02T17:06:49.999Z</time></trkpt><trkpt lat="44.00657743429188" lon="12.467465617336565"><ele>170.0</ele><time>2026-05-02T17:06:53.999Z</time></trkpt><trkpt lat="44.00651436487161" lon="12.467460354577614"><ele>170.0</ele><time>2026-05-02T17:06:56.999Z</time></trkpt><trkpt lat="44.006450228329676" lon="12.467468823438331"><ele>170.0</ele><time>2026-05-02T17:07:00.999Z</time></trkpt><trkpt lat="44.00638706479459" lon="12.46745311503529"><ele>170.14285714285714</ele><time>2026-05-02T17:07:03.999Z</time></trkpt><trkpt lat="44.006312614087555" lon="12.467463801251418"><ele>170.28571428571428</ele><time>2026-05-02T17:07:07.999Z</time></trkpt><trkpt lat="44.00624047389553" lon="12.46746529801159"><ele>170.42857142857142</ele><time>2026-05-02T17:07:11.999Z</time></trkpt><trkpt lat="44.006176845168035" lon="12.4674661949983"><ele>170.57142857142856</ele><time>2026-05-02T17:07:14.999Z</time></trkpt><trkpt lat="44.00610815838973" lon="12.4674817175385"><ele>170.71428571428572</ele><time>2026-05-02T17:07:19Z</time></trkpt><trkpt lat="44.006042841045435" lon="12.46750085467669"><ele>170.85714285714283</ele><time>2026-05-02T17:07:23Z</time></trkpt><trkpt lat="44.005979050451316" lon="12.467531339683369"><ele>171.0</ele><time>2026-05-02T17:07:27Z</time></trkpt><trkpt lat="44.005910830919795" lon="12.467569297942877"><ele>170.99999999999997</ele><time>2026-05-02T17:07:32Z</time></trkpt><trkpt lat="44.005846216521014" lon="12.467592957068513"><ele>171.0</ele><time>2026-05-02T17:07:37Z</time></trkpt><trkpt lat="44.005780456223434" lon="12.467624220624677"><ele>171.0</ele><time>2026-05-02T17:07:43Z</time></trkpt><trkpt lat="44.00570889286818" lon="12.467660224973134"><ele>171.0</ele><time>2026-05-02T17:07:48Z</time></trkpt><trkpt lat="44.00565155321606" lon="12.467697484162008"><ele>171.0</ele><time>2026-05-02T17:07:52Z</time></trkpt><trkpt lat="44.00558963759302" lon="12.467727275945547"><ele>170.99999999999997</ele><time>2026-05-02T17:07:56Z</time></trkpt><trkpt lat="44.00553291646491" lon="12.467767984828047"><ele>171.0</ele><time>2026-05-02T17:08:00Z</time></trkpt><trkpt lat="44.00546267070055" lon="12.467806167545639"><ele>171.28571428571428</ele><time>2026-05-02T17:08:05Z</time></trkpt><trkpt lat="44.00539716917891" lon="12.467848240933606"><ele>171.57142857142856</ele><time>2026-05-02T17:08:09Z</time></trkpt><trkpt lat="44.00534311156431" lon="12.467897693818797"><ele>171.85714285714283</ele><time>2026-05-02T17:08:12Z</time></trkpt><trkpt lat="44.00528076042642" lon="12.467953261610376"><ele>172.14285714285714</ele><time>2026-05-02T17:08:15Z</time></trkpt><trkpt lat="44.00522373202613" lon="12.467993336212409"><ele>172.42857142857144</ele><time>2026-05-02T17:08:18Z</time></trkpt><trkpt lat="44.00516799940926" lon="12.468055359389709"><ele>172.7142857142857</ele><time>2026-05-02T17:08:21Z</time></trkpt><trkpt lat="44.00509655456483" lon="12.46811857107005"><ele>173.0</ele><time>2026-05-02T17:08:24Z</time></trkpt><trkpt lat="44.005020633446755" lon="12.468156928095036"><ele>173.14285714285714</ele><time>2026-05-02T17:08:27Z</time></trkpt><trkpt lat="44.00495427866249" lon="12.468175344198778"><ele>173.2857142857143</ele><time>2026-05-02T17:08:28.999Z</time></trkpt><trkpt lat="44.004885246219885" lon="12.468148462476146"><ele>173.42857142857144</ele><time>2026-05-02T17:08:30.999Z</time></trkpt><trkpt lat="44.004826704370785" lon="12.468097921465308"><ele>173.57142857142856</ele><time>2026-05-02T17:08:33.999Z</time></trkpt><trkpt lat="44.00476853689549" lon="12.468020682529973"><ele>173.71428571428572</ele><time>2026-05-02T17:08:36.999Z</time></trkpt><trkpt lat="44.00473007665008" lon="12.467941428735068"><ele>173.85714285714286</ele><time>2026-05-02T17:08:39.999Z</time></trkpt><trkpt lat="44.004689702081855" lon="12.467856347797063"><ele>174.0</ele><time>2026-05-02T17:08:42.999Z</time></trkpt><trkpt lat="44.00465397437727" lon="12.467765900131369"><ele>175.33333333333334</ele><time>2026-05-02T17:08:46.999Z</time></trkpt><trkpt lat="44.0046118531287" lon="12.467657631109905"><ele>176.66666666666666</ele><time>2026-05-02T17:08:49.999Z</time></trkpt><trkpt lat="44.0045475521891" lon="12.467559712560604"><ele>178.0</ele><time>2026-05-02T17:08:52.999Z</time></trkpt><trkpt lat="44.004493292504236" lon="12.467504913880854"><ele>179.33333333333331</ele><time>2026-05-02T17:08:54.999Z</time></trkpt><trkpt lat="44.00443067327775" lon="12.467485401402739"><ele>180.66666666666666</ele><time>2026-05-02T17:08:56.999Z</time></trkpt><trkpt lat="44.00435255045036" lon="12.467469004997595"><ele>182.0</ele><time>2026-05-02T17:08:59.999Z</time></trkpt><trkpt lat="44.00427011261522" lon="12.467471438787014"><ele>182.0</ele><time>2026-05-02T17:09:03.999Z</time></trkpt><trkpt lat="44.00420400482155" lon="12.46747736970872"><ele>182.0</ele><time>2026-05-02T17:09:06.999Z</time></trkpt><trkpt lat="44.00412504758878" lon="12.467489927492576"><ele>182.0</ele><time>2026-05-02T17:09:10.999Z</time></trkpt><trkpt lat="44.00405793649998" lon="12.467491100895051"><ele>182.0</ele><time>2026-05-02T17:09:14.999Z</time></trkpt><trkpt lat="44.00397601163792" lon="12.467518005313334"><ele>182.0</ele><time>2026-05-02T17:09:20.999Z</time></trkpt><trkpt lat="44.00390443175921" lon="12.46752780239689"><ele>182.0</ele><time>2026-05-02T17:09:24Z</time></trkpt><trkpt lat="44.003823957990924" lon="12.467571186652364"><ele>183.0</ele><time>2026-05-02T17:09:28Z</time></trkpt><trkpt lat="44.00376182751254" lon="12.467595146194629"><ele>184.0</ele><time>2026-05-02T17:09:31Z</time></trkpt><trkpt lat="44.0036823083108" lon="12.467618655338287"><ele>185.0</ele><time>2026-05-02T17:09:35Z</time></trkpt><trkpt lat="44.003607154949755" lon="12.467640187689712"><ele>186.0</ele><time>2026-05-02T17:09:39Z</time></trkpt><trkpt lat="44.00354055154498" lon="12.46766236471059"><ele>187.0</ele><time>2026-05-02T17:09:42Z</time></trkpt><trkpt lat="44.00346311445083" lon="12.467680457918297"><ele>188.0</ele><time>2026-05-02T17:09:46Z</time></trkpt><trkpt lat="44.0033829305017" lon="12.46771302188095"><ele>189.0</ele><time>2026-05-02T17:09:50Z</time></trkpt><trkpt lat="44.00331369905903" lon="12.46771980501932"><ele>190.0</ele><time>2026-05-02T17:09:53Z</time></trkpt><trkpt lat="44.00322812235829" lon="12.467751702980499"><ele>191.0</ele><time>2026-05-02T17:09:57Z</time></trkpt><trkpt lat="44.00316108479043" lon="12.467788201674974"><ele>192.0</ele><time>2026-05-02T17:10:00Z</time></trkpt><trkpt lat="44.00309370349399" lon="12.467803280905422"><ele>193.0</ele><time>2026-05-02T17:10:03Z</time></trkpt><trkpt lat="44.00302823224609" lon="12.467808712742997"><ele>194.0</ele><time>2026-05-02T17:10:06Z</time></trkpt><trkpt lat="44.00296122366328" lon="12.467841459153469"><ele>195.0</ele><time>2026-05-02T17:10:09Z</time></trkpt><trkpt lat="44.00289547972956" lon="12.467846827574526"><ele>195.0</ele><time>2026-05-02T17:10:13Z</time></trkpt><trkpt lat="44.00281608706209" lon="12.467881767405812"><ele>195.0</ele><time>2026-05-02T17:10:17Z</time></trkpt><trkpt lat="44.00274016156195" lon="12.467922426337804"><ele>195.0</ele><time>2026-05-02T17:10:20Z</time></trkpt><trkpt lat="44.002668310852826" lon="12.467989460599691"><ele>195.0</ele><time>2026-05-02T17:10:23Z</time></trkpt><trkpt lat="44.00260697741013" lon="12.468032204611616"><ele>195.0</ele><time>2026-05-02T17:10:25Z</time></trkpt><trkpt lat="44.00254661278291" lon="12.46808127132275"><ele>195.0</ele><time>2026-05-02T17:10:27Z</time></trkpt><trkpt lat="44.00249177399447" lon="12.468148951354996"><ele>194.16666666666666</ele><time>2026-05-02T17:10:29Z</time></trkpt><trkpt lat="44.00242355473884" lon="12.468215219299838"><ele>193.33333333333334</ele><time>2026-05-02T17:10:31Z</time></trkpt><trkpt lat="44.00235375113226" lon="12.468277423550292"><ele>192.5</ele><time>2026-05-02T17:10:33Z</time></trkpt><trkpt lat="44.00228283374973" lon="12.468354222072536"><ele>191.66666666666669</ele><time>2026-05-02T17:10:35Z</time></trkpt><trkpt lat="44.00220047047803" lon="12.468419588218566"><ele>190.83333333333334</ele><time>2026-05-02T17:10:37Z</time></trkpt><trkpt lat="44.00212260873427" lon="12.468474235003281"><ele>190.0</ele><time>2026-05-02T17:10:39Z</time></trkpt><trkpt lat="44.002046838955735" lon="12.46852246181494"><ele>190.0</ele><time>2026-05-02T17:10:41Z</time></trkpt><trkpt lat="44.00196588692224" lon="12.468584268727644"><ele>190.0</ele><time>2026-05-02T17:10:43Z</time></trkpt><trkpt lat="44.00187695136793" lon="12.468629424566535"><ele>190.0</ele><time>2026-05-02T17:10:45Z</time></trkpt><trkpt lat="44.0017680409855" lon="12.46869007940458"><ele>190.0</ele><time>2026-05-02T17:10:47Z</time></trkpt><trkpt lat="44.00166508645846" lon="12.468760404766984"><ele>190.0</ele><time>2026-05-02T17:10:49Z</time></trkpt><trkpt lat="44.0015501918441" lon="12.468832530616885"><ele>188.28571428571428</ele><time>2026-05-02T17:10:51Z</time></trkpt><trkpt lat="44.00149311177227" lon="12.468877565123595"><ele>186.57142857142858</ele><time>2026-05-02T17:10:52Z</time></trkpt><trkpt lat="44.00142890468541" lon="12.46890702914123"><ele>184.85714285714283</ele><time>2026-05-02T17:10:52.999Z</time></trkpt><trkpt lat="44.001372401363874" lon="12.468951169208777"><ele>183.14285714285714</ele><time>2026-05-02T17:10:53.999Z</time></trkpt><trkpt lat="44.00131519929888" lon="12.469001173405097"><ele>181.42857142857142</ele><time>2026-05-02T17:10:54.999Z</time></trkpt><trkpt lat="44.001257763227485" lon="12.469060057496334"><ele>179.7142857142857</ele><time>2026-05-02T17:10:55.999Z</time></trkpt><trkpt lat="44.00120030090946" lon="12.469127691931597"><ele>178.0</ele><time>2026-05-02T17:10:56.999Z</time></trkpt><trkpt lat="44.001142556204854" lon="12.469200688823824"><ele>178.0</ele><time>2026-05-02T17:10:57.999Z</time></trkpt><trkpt lat="44.001084002475245" lon="12.46927792784716"><ele>178.0</ele><time>2026-05-02T17:10:58.999Z</time></trkpt><trkpt lat="44.0010288109295" lon="12.469356053525848"><ele>178.0</ele><time>2026-05-02T17:10:59.999Z</time></trkpt><trkpt lat="44.000984150046165" lon="12.469453439893167"><ele>178.0</ele><time>2026-05-02T17:11:00.999Z</time></trkpt><trkpt lat="44.000914942785755" lon="12.46953028000697"><ele>178.0</ele><time>2026-05-02T17:11:01.999Z</time></trkpt><trkpt lat="44.000869940890276" lon="12.469632220189169"><ele>178.0</ele><time>2026-05-02T17:11:02.999Z</time></trkpt><trkpt lat="44.000811628379516" lon="12.46970445476682"><ele>177.5</ele><time>2026-05-02T17:11:03.999Z</time></trkpt><trkpt lat="44.00075832670073" lon="12.46978514597466"><ele>177.0</ele><time>2026-05-02T17:11:04.999Z</time></trkpt><trkpt lat="44.00070652488778" lon="12.46986926913159"><ele>176.5</ele><time>2026-05-02T17:11:05.999Z</time></trkpt><trkpt lat="44.000656931215836" lon="12.469942072005612"><ele>176.0</ele><time>2026-05-02T17:11:06.999Z</time></trkpt><trkpt lat="44.00060802564695" lon="12.470013152264437"><ele>175.5</ele><time>2026-05-02T17:11:07.999Z</time></trkpt><trkpt lat="44.00056240174627" lon="12.47007757671003"><ele>175.0</ele><time>2026-05-02T17:11:08.999Z</time></trkpt><trkpt lat="44.00050200471039" lon="12.470180936146145"><ele>175.0</ele><time>2026-05-02T17:11:10.999Z</time></trkpt><trkpt lat="44.00045095633174" lon="12.470255879642881"><ele>175.0</ele><time>2026-05-02T17:11:12.999Z</time></trkpt><trkpt lat="44.00040446717701" lon="12.470352911460399"><ele>175.0</ele><time>2026-05-02T17:11:16.999Z</time></trkpt><trkpt lat="44.00035061406384" lon="12.470435604917203"><ele>175.0</ele><time>2026-05-02T17:11:19.999Z</time></trkpt><trkpt lat="44.00031078211167" lon="12.470521871180283"><ele>175.0</ele><time>2026-05-02T17:11:22.999Z</time></trkpt><trkpt lat="44.00027891036775" lon="12.470634881533694"><ele>175.0</ele><time>2026-05-02T17:11:25.999Z</time></trkpt><trkpt lat="44.00025978999382" lon="12.470722520431247"><ele>175.83333333333334</ele><time>2026-05-02T17:11:28Z</time></trkpt><trkpt lat="44.00024962455477" lon="12.470818773640856"><ele>176.66666666666669</ele><time>2026-05-02T17:11:30Z</time></trkpt><trkpt lat="44.000251504117536" lon="12.470912574472464"><ele>177.5</ele><time>2026-05-02T17:11:33Z</time></trkpt><trkpt lat="44.000250284529" lon="12.471023541602255"><ele>178.33333333333334</ele><time>2026-05-02T17:11:36Z</time></trkpt><trkpt lat="44.000269368796545" lon="12.471125221097306"><ele>179.16666666666666</ele><time>2026-05-02T17:11:39Z</time></trkpt><trkpt lat="44.00027682485905" lon="12.471227539427561"><ele>180.0</ele><time>2026-05-02T17:11:42Z</time></trkpt><trkpt lat="44.000289050885236" lon="12.47135054768979"><ele>180.0</ele><time>2026-05-02T17:11:45Z</time></trkpt><trkpt lat="44.00031206600561" lon="12.47144372927167"><ele>180.0</ele><time>2026-05-02T17:11:47Z</time></trkpt><trkpt lat="44.000335622807306" lon="12.471541119751297"><ele>180.0</ele><time>2026-05-02T17:11:49Z</time></trkpt><trkpt lat="44.00035309302052" lon="12.471642865255086"><ele>180.0</ele><time>2026-05-02T17:11:51Z</time></trkpt><trkpt lat="44.00037188351207" lon="12.47175736801273"><ele>180.0</ele><time>2026-05-02T17:11:53Z</time></trkpt><trkpt lat="44.00040629766694" lon="12.471868151476814"><ele>180.0</ele><time>2026-05-02T17:11:55Z</time></trkpt><trkpt lat="44.00042616338082" lon="12.471984999164883"><ele>179.83333333333334</ele><time>2026-05-02T17:11:57Z</time></trkpt><trkpt lat="44.00044444698679" lon="12.472108817462422"><ele>179.66666666666666</ele><time>2026-05-02T17:11:59Z</time></trkpt><trkpt lat="44.00045445605087" lon="12.472219441730395"><ele>179.5</ele><time>2026-05-02T17:12:01Z</time></trkpt><trkpt lat="44.000464144982104" lon="12.472323096248914"><ele>179.33333333333331</ele><time>2026-05-02T17:12:03Z</time></trkpt><trkpt lat="44.00044884152385" lon="12.472431420768707"><ele>179.16666666666666</ele><time>2026-05-02T17:12:05Z</time></trkpt><trkpt lat="44.00043269519112" lon="12.47253272696037"><ele>179.0</ele><time>2026-05-02T17:12:07Z</time></trkpt><trkpt lat="44.00041415729789" lon="12.472637563211395"><ele>179.0</ele><time>2026-05-02T17:12:09Z</time></trkpt><trkpt lat="44.000396730995746" lon="12.472736475894134"><ele>179.0</ele><time>2026-05-02T17:12:11Z</time></trkpt><trkpt lat="44.00037282464868" lon="12.472863678745988"><ele>179.0</ele><time>2026-05-02T17:12:14Z</time></trkpt><trkpt lat="44.000356734015334" lon="12.472986384780404"><ele>179.0</ele><time>2026-05-02T17:12:17Z</time></trkpt><trkpt lat="44.00034567222332" lon="12.47309702973151"><ele>179.0</ele><time>2026-05-02T17:12:20Z</time></trkpt><trkpt lat="44.000332857246526" lon="12.473201118583306"><ele>179.0</ele><time>2026-05-02T17:12:23Z</time></trkpt><trkpt lat="44.00032602966472" lon="12.473302834883986"><ele>179.85714285714286</ele><time>2026-05-02T17:12:26Z</time></trkpt><trkpt lat="44.00031300533324" lon="12.473398585473976"><ele>180.71428571428572</ele><time>2026-05-02T17:12:29Z</time></trkpt><trkpt lat="44.000308254793325" lon="12.473492346137878"><ele>181.57142857142856</ele><time>2026-05-02T17:12:32Z</time></trkpt><trkpt lat="44.00029334600792" lon="12.473584380190417"><ele>182.42857142857144</ele><time>2026-05-02T17:12:35Z</time></trkpt><trkpt lat="44.000280658005856" lon="12.473695281004614"><ele>183.28571428571428</ele><time>2026-05-02T17:12:39Z</time></trkpt><trkpt lat="44.000267702469344" lon="12.473802846790344"><ele>184.14285714285714</ele><time>2026-05-02T17:12:43Z</time></trkpt><trkpt lat="44.00026388808037" lon="12.4739054261049"><ele>185.0</ele><time>2026-05-02T17:12:47Z</time></trkpt><trkpt lat="44.00025533539595" lon="12.474019707384347"><ele>186.28571428571428</ele><time>2026-05-02T17:12:51Z</time></trkpt><trkpt lat="44.00024207808481" lon="12.47411795592153"><ele>187.57142857142856</ele><time>2026-05-02T17:12:53.999Z</time></trkpt><trkpt lat="44.000216591794505" lon="12.474210233159958"><ele>188.85714285714283</ele><time>2026-05-02T17:12:56.999Z</time></trkpt><trkpt lat="44.000208639670724" lon="12.474324910225628"><ele>190.14285714285714</ele><time>2026-05-02T17:13:00.999Z</time></trkpt><trkpt lat="44.00018910975363" lon="12.474412483092712"><ele>191.42857142857144</ele><time>2026-05-02T17:13:03.999Z</time></trkpt><trkpt lat="44.00017465553264" lon="12.474498349665623"><ele>192.7142857142857</ele><time>2026-05-02T17:13:06.999Z</time></trkpt><trkpt lat="44.00015966372047" lon="12.474603901216677"><ele>194.0</ele><time>2026-05-02T17:13:10.999Z</time></trkpt><trkpt lat="44.000157762640775" lon="12.474707004435638"><ele>194.7142857142857</ele><time>2026-05-02T17:13:14.999Z</time></trkpt><trkpt lat="44.00014329186348" lon="12.474816207787335"><ele>195.42857142857144</ele><time>2026-05-02T17:13:18.999Z</time></trkpt><trkpt lat="44.000143170475326" lon="12.474904048395134"><ele>196.14285714285714</ele><time>2026-05-02T17:13:21.999Z</time></trkpt><trkpt lat="44.00013556523903" lon="12.475021942150304"><ele>196.85714285714283</ele><time>2026-05-02T17:13:25.999Z</time></trkpt><trkpt lat="44.00011717335624" lon="12.47510849253143"><ele>197.57142857142856</ele><time>2026-05-02T17:13:28.999Z</time></trkpt><trkpt lat="44.00011406312824" lon="12.47520774313257"><ele>198.28571428571428</ele><time>2026-05-02T17:13:31.999Z</time></trkpt><trkpt lat="44.000118583217066" lon="12.475321981276872"><ele>199.0</ele><time>2026-05-02T17:13:35Z</time></trkpt><trkpt lat="44.00015660291979" lon="12.475402523105965"><ele>197.99999999999997</ele><time>2026-05-02T17:13:37Z</time></trkpt><trkpt lat="44.000200155323505" lon="12.475483266570487"><ele>197.0</ele><time>2026-05-02T17:13:39Z</time></trkpt><trkpt lat="44.0002421677811" lon="12.475567884260453"><ele>196.0</ele><time>2026-05-02T17:13:41Z</time></trkpt><trkpt lat="44.00029174985908" lon="12.475660475131985"><ele>195.0</ele><time>2026-05-02T17:13:43Z</time></trkpt><trkpt lat="44.000346653514256" lon="12.47576230135756"><ele>193.99999999999997</ele><time>2026-05-02T17:13:45Z</time></trkpt><trkpt lat="44.00040529096759" lon="12.475877991129606"><ele>193.0</ele><time>2026-05-02T17:13:47Z</time></trkpt><trkpt lat="44.000452463116105" lon="12.476004078044406"><ele>193.0</ele><time>2026-05-02T17:13:49Z</time></trkpt><trkpt lat="44.00050832963316" lon="12.476145150039608"><ele>193.0</ele><time>2026-05-02T17:13:51Z</time></trkpt><trkpt lat="44.000504634733154" lon="12.476233691692988"><ele>193.0</ele><time>2026-05-02T17:13:52Z</time></trkpt><trkpt lat="44.00055458702615" lon="12.476362912964996"><ele>193.0</ele><time>2026-05-02T17:13:54Z</time></trkpt><trkpt lat="44.00060394160481" lon="12.476490997350659"><ele>193.0</ele><time>2026-05-02T17:13:56Z</time></trkpt><trkpt lat="44.00065056647008" lon="12.476615926387538"><ele>191.8</ele><time>2026-05-02T17:13:58Z</time></trkpt><trkpt lat="44.00069593676838" lon="12.476746375892676"><ele>190.60000000000002</ele><time>2026-05-02T17:14:00Z</time></trkpt><trkpt lat="44.000738740188396" lon="12.476878002858916"><ele>189.39999999999998</ele><time>2026-05-02T17:14:02Z</time></trkpt><trkpt lat="44.000778868738266" lon="12.477014528137744"><ele>188.2</ele><time>2026-05-02T17:14:04Z</time></trkpt><trkpt lat="44.000815534305346" lon="12.47714949022943"><ele>187.0</ele><time>2026-05-02T17:14:06Z</time></trkpt><trkpt lat="44.00085078511621" lon="12.477287724541519"><ele>187.0</ele><time>2026-05-02T17:14:08Z</time></trkpt><trkpt lat="44.00088426086714" lon="12.477421321667132"><ele>187.0</ele><time>2026-05-02T17:14:10Z</time></trkpt><trkpt lat="44.00091576258865" lon="12.477548709107673"><ele>187.0</ele><time>2026-05-02T17:14:12Z</time></trkpt><trkpt lat="44.00094776913945" lon="12.477678137975108"><ele>187.0</ele><time>2026-05-02T17:14:14Z</time></trkpt><trkpt lat="44.000976935156054" lon="12.477804042440928"><ele>187.0</ele><time>2026-05-02T17:14:16Z</time></trkpt><trkpt lat="44.00100808789178" lon="12.477937781757204"><ele>186.6</ele><time>2026-05-02T17:14:18Z</time></trkpt><trkpt lat="44.00104312463458" lon="12.478083504483157"><ele>186.2</ele><time>2026-05-02T17:14:20Z</time></trkpt><trkpt lat="44.00107745022236" lon="12.478221675670834"><ele>185.8</ele><time>2026-05-02T17:14:22Z</time></trkpt><trkpt lat="44.00111510012959" lon="12.478359797491407"><ele>185.4</ele><time>2026-05-02T17:14:24Z</time></trkpt><trkpt lat="44.00115833796653" lon="12.47850051768639"><ele>185.0</ele><time>2026-05-02T17:14:26Z</time></trkpt><trkpt lat="44.00121945577806" lon="12.478645619444189"><ele>185.16666666666666</ele><time>2026-05-02T17:14:28Z</time></trkpt><trkpt lat="44.00128840571797" lon="12.478787319988662"><ele>185.33333333333331</ele><time>2026-05-02T17:14:30Z</time></trkpt><trkpt lat="44.00132617802546" lon="12.478858640220487"><ele>185.5</ele><time>2026-05-02T17:14:31Z</time></trkpt><trkpt lat="44.001367750194696" lon="12.478937135174641"><ele>185.66666666666666</ele><time>2026-05-02T17:14:32Z</time></trkpt><trkpt lat="44.00141254566219" lon="12.479021716252296"><ele>185.83333333333334</ele><time>2026-05-02T17:14:33Z</time></trkpt><trkpt lat="44.00145984796486" lon="12.479110643712723"><ele>186.0</ele><time>2026-05-02T17:14:34Z</time></trkpt><trkpt lat="44.001509974142294" lon="12.479202672197799"><ele>186.0</ele><time>2026-05-02T17:14:35Z</time></trkpt><trkpt lat="44.00156108340294" lon="12.479297469504049"><ele>186.0</ele><time>2026-05-02T17:14:36Z</time></trkpt><trkpt lat="44.00161407404837" lon="12.479395756418437"><ele>186.0</ele><time>2026-05-02T17:14:37Z</time></trkpt><trkpt lat="44.001664851534514" lon="12.479498205838933"><ele>186.0</ele><time>2026-05-02T17:14:38Z</time></trkpt><trkpt lat="44.00171341175458" lon="12.479600245965361"><ele>186.0</ele><time>2026-05-02T17:14:39Z</time></trkpt><trkpt lat="44.00175542425547" lon="12.479700931497359"><ele>186.0</ele><time>2026-05-02T17:14:40Z</time></trkpt><trkpt lat="44.00178413857736" lon="12.479797083961554"><ele>184.83333333333334</ele><time>2026-05-02T17:14:41Z</time></trkpt><trkpt lat="44.00180463445093" lon="12.479895679709275"><ele>183.66666666666666</ele><time>2026-05-02T17:14:42Z</time></trkpt><trkpt lat="44.001808134499186" lon="12.479996108453049"><ele>182.5</ele><time>2026-05-02T17:14:43Z</time></trkpt><trkpt lat="44.00179175393932" lon="12.48010121256303"><ele>181.33333333333331</ele><time>2026-05-02T17:14:44Z</time></trkpt><trkpt lat="44.001766601600046" lon="12.480218064532806"><ele>180.16666666666666</ele><time>2026-05-02T17:14:45Z</time></trkpt><trkpt lat="44.00174023165361" lon="12.480335714491282"><ele>179.0</ele><time>2026-05-02T17:14:46Z</time></trkpt><trkpt lat="44.00171446001502" lon="12.480444040941942"><ele>178.0</ele><time>2026-05-02T17:14:47Z</time></trkpt><trkpt lat="44.001691392589564" lon="12.480548857344855"><ele>177.0</ele><time>2026-05-02T17:14:48Z</time></trkpt><trkpt lat="44.00167661885049" lon="12.480649896261507"><ele>176.0</ele><time>2026-05-02T17:14:49Z</time></trkpt><trkpt lat="44.001678550643675" lon="12.480748794824603"><ele>175.0</ele><time>2026-05-02T17:14:50Z</time></trkpt><trkpt lat="44.00171854424151" lon="12.480855572663586"><ele>174.0</ele><time>2026-05-02T17:14:51Z</time></trkpt><trkpt lat="44.00179748898617" lon="12.4809145144843"><ele>173.0</ele><time>2026-05-02T17:14:52Z</time></trkpt><trkpt lat="44.0018964815396" lon="12.480881301998444"><ele>173.0</ele><time>2026-05-02T17:14:53Z</time></trkpt><trkpt lat="44.00197563269345" lon="12.480819334255797"><ele>173.0</ele><time>2026-05-02T17:14:54Z</time></trkpt><trkpt lat="44.00202987537158" lon="12.480739770218369"><ele>173.0</ele><time>2026-05-02T17:14:55Z</time></trkpt><trkpt lat="44.00208127808076" lon="12.480654444668708"><ele>173.0</ele><time>2026-05-02T17:14:55.999Z</time></trkpt><trkpt lat="44.0021352835941" lon="12.480562642963827"><ele>173.0</ele><time>2026-05-02T17:14:56.999Z</time></trkpt><trkpt lat="44.00219177720385" lon="12.480475441403282"><ele>173.0</ele><time>2026-05-02T17:14:57.999Z</time></trkpt><trkpt lat="44.002250572871226" lon="12.480386676575426"><ele>174.0</ele><time>2026-05-02T17:14:58.999Z</time></trkpt><trkpt lat="44.00230270169888" lon="12.480289066404021"><ele>175.0</ele><time>2026-05-02T17:14:59.999Z</time></trkpt><trkpt lat="44.002356386179294" lon="12.480200131105313"><ele>176.0</ele><time>2026-05-02T17:15:00.999Z</time></trkpt><trkpt lat="44.0024161895033" lon="12.480118068965249"><ele>177.0</ele><time>2026-05-02T17:15:01.999Z</time></trkpt><trkpt lat="44.00247757703631" lon="12.480045995671125"><ele>178.0</ele><time>2026-05-02T17:15:02.999Z</time></trkpt><trkpt lat="44.00254844872622" lon="12.479989593452313"><ele>179.0</ele><time>2026-05-02T17:15:03.999Z</time></trkpt><trkpt lat="44.00263347981475" lon="12.479990921350835"><ele>176.5</ele><time>2026-05-02T17:15:04.999Z</time></trkpt><trkpt lat="44.002705984723846" lon="12.480020929836236"><ele>174.0</ele><time>2026-05-02T17:15:05.999Z</time></trkpt><trkpt lat="44.00276013427813" lon="12.480093042789983"><ele>171.5</ele><time>2026-05-02T17:15:06.999Z</time></trkpt><trkpt lat="44.002768366414685" lon="12.48019991543508"><ele>169.0</ele><time>2026-05-02T17:15:07.999Z</time></trkpt><trkpt lat="44.00279450597224" lon="12.48031066630237"><ele>166.5</ele><time>2026-05-02T17:15:08.999Z</time></trkpt><trkpt lat="44.002783873359725" lon="12.48043898410156"><ele>164.0</ele><time>2026-05-02T17:15:09.999Z</time></trkpt><trkpt lat="44.00279896213989" lon="12.480567641658938"><ele>163.6</ele><time>2026-05-02T17:15:10.999Z</time></trkpt><trkpt lat="44.00283113952137" lon="12.480697813585216"><ele>163.2</ele><time>2026-05-02T17:15:11.999Z</time></trkpt><trkpt lat="44.00289836319524" lon="12.480821112290032"><ele>162.79999999999998</ele><time>2026-05-02T17:15:12.999Z</time></trkpt><trkpt lat="44.00297332119124" lon="12.480920817629862"><ele>162.39999999999998</ele><time>2026-05-02T17:15:13.999Z</time></trkpt><trkpt lat="44.00306379652106" lon="12.481004879062715"><ele>162.0</ele><time>2026-05-02T17:15:14.999Z</time></trkpt><trkpt lat="44.00315194174289" lon="12.481080571066881"><ele>162.0</ele><time>2026-05-02T17:15:15.999Z</time></trkpt><trkpt lat="44.003238451398005" lon="12.481149092739974"><ele>162.0</ele><time>2026-05-02T17:15:16.999Z</time></trkpt><trkpt lat="44.00333291451726" lon="12.481223601020105"><ele>162.0</ele><time>2026-05-02T17:15:17.999Z</time></trkpt><trkpt lat="44.00342497902565" lon="12.481296217404308"><ele>162.0</ele><time>2026-05-02T17:15:18.999Z</time></trkpt><trkpt lat="44.0035197623443" lon="12.481369528195408"><ele>162.0</ele><time>2026-05-02T17:15:19.999Z</time></trkpt><trkpt lat="44.00361179061147" lon="12.481439715806385"><ele>160.0</ele><time>2026-05-02T17:15:20.999Z</time></trkpt><trkpt lat="44.003702025632315" lon="12.48150929922911"><ele>158.0</ele><time>2026-05-02T17:15:21.999Z</time></trkpt><trkpt lat="44.00379332662406" lon="12.48158012766413"><ele>156.0</ele><time>2026-05-02T17:15:22.999Z</time></trkpt><trkpt lat="44.003879863949244" lon="12.481653064410812"><ele>154.0</ele><time>2026-05-02T17:15:23.999Z</time></trkpt><trkpt lat="44.00395965534502" lon="12.481736100885447"><ele>152.0</ele><time>2026-05-02T17:15:24.999Z</time></trkpt><trkpt lat="44.00403371863257" lon="12.481824821583299"><ele>152.0</ele><time>2026-05-02T17:15:25.999Z</time></trkpt><trkpt lat="44.00410465843143" lon="12.481917615613975"><ele>152.0</ele><time>2026-05-02T17:15:26.999Z</time></trkpt><trkpt lat="44.00416984738309" lon="12.482016334298871"><ele>152.0</ele><time>2026-05-02T17:15:27.999Z</time></trkpt><trkpt lat="44.00423366381247" lon="12.482114762249305"><ele>152.0</ele><time>2026-05-02T17:15:28.999Z</time></trkpt><trkpt lat="44.00429675182565" lon="12.48221266157472"><ele>152.0</ele><time>2026-05-02T17:15:29.999Z</time></trkpt><trkpt lat="44.00435922689839" lon="12.482310108369242"><ele>150.6</ele><time>2026-05-02T17:15:30.999Z</time></trkpt><trkpt lat="44.00442150329037" lon="12.482407245350375"><ele>149.2</ele><time>2026-05-02T17:15:31.999Z</time></trkpt><trkpt lat="44.00448392175324" lon="12.482504603908811"><ele>147.8</ele><time>2026-05-02T17:15:32.999Z</time></trkpt><trkpt lat="44.00454603865272" lon="12.4826003635243"><ele>146.4</ele><time>2026-05-02T17:15:33.999Z</time></trkpt><trkpt lat="44.004609007429956" lon="12.482696726815576"><ele>145.0</ele><time>2026-05-02T17:15:34.999Z</time></trkpt><trkpt lat="44.00467209029942" lon="12.482793264568304"><ele>145.0</ele><time>2026-05-02T17:15:35.999Z</time></trkpt><trkpt lat="44.004735812853745" lon="12.482890781398039"><ele>145.0</ele><time>2026-05-02T17:15:36.999Z</time></trkpt><trkpt lat="44.004798331185974" lon="12.48298470663302"><ele>145.0</ele><time>2026-05-02T17:15:37.999Z</time></trkpt><trkpt lat="44.004861133595234" lon="12.483078175108773"><ele>145.0</ele><time>2026-05-02T17:15:38.999Z</time></trkpt><trkpt lat="44.00492319247341" lon="12.483170536975818"><ele>145.0</ele><time>2026-05-02T17:15:40Z</time></trkpt><trkpt lat="44.00498553579545" lon="12.483263322165067"><ele>144.5</ele><time>2026-05-02T17:15:41Z</time></trkpt><trkpt lat="44.005047135044016" lon="12.483355000012065"><ele>144.0</ele><time>2026-05-02T17:15:42Z</time></trkpt><trkpt lat="44.00510692466671" lon="12.483445296240534"><ele>143.5</ele><time>2026-05-02T17:15:43Z</time></trkpt><trkpt lat="44.005166250878105" lon="12.483537240036519"><ele>143.0</ele><time>2026-05-02T17:15:44Z</time></trkpt><trkpt lat="44.005224499394814" lon="12.483627513421917"><ele>142.5</ele><time>2026-05-02T17:15:45Z</time></trkpt><trkpt lat="44.00528160841849" lon="12.483715794482508"><ele>142.0</ele><time>2026-05-02T17:15:46Z</time></trkpt><trkpt lat="44.005340254954106" lon="12.483804368663876"><ele>141.16666666666669</ele><time>2026-05-02T17:15:47Z</time></trkpt><trkpt lat="44.00538624474508" lon="12.483887374741197"><ele>140.33333333333334</ele><time>2026-05-02T17:15:48Z</time></trkpt><trkpt lat="44.0054050895511" lon="12.484001376270587"><ele>139.5</ele><time>2026-05-02T17:15:49Z</time></trkpt><trkpt lat="44.00537447708438" lon="12.4841187215774"><ele>138.66666666666666</ele><time>2026-05-02T17:15:50Z</time></trkpt><trkpt lat="44.00538840530223" lon="12.484224764304937"><ele>137.83333333333331</ele><time>2026-05-02T17:15:51Z</time></trkpt><trkpt lat="44.00540379273555" lon="12.484324279941633"><ele>137.0</ele><time>2026-05-02T17:15:52Z</time></trkpt><trkpt lat="44.005416599179185" lon="12.484427300601576"><ele>137.00000000000003</ele><time>2026-05-02T17:15:53Z</time></trkpt><trkpt lat="44.00542734430623" lon="12.484529074919077"><ele>137.0</ele><time>2026-05-02T17:15:54Z</time></trkpt><trkpt lat="44.00543752506041" lon="12.484627956981397"><ele>137.0</ele><time>2026-05-02T17:15:55Z</time></trkpt><trkpt lat="44.00544751383516" lon="12.484729903659913"><ele>137.0</ele><time>2026-05-02T17:15:56Z</time></trkpt><trkpt lat="44.00545665352209" lon="12.48483225093706"><ele>137.0</ele><time>2026-05-02T17:15:57Z</time></trkpt><trkpt lat="44.00546553663981" lon="12.484931725013755"><ele>137.00000000000003</ele><time>2026-05-02T17:15:58Z</time></trkpt><trkpt lat="44.00547343124268" lon="12.48502615246927"><ele>137.0</ele><time>2026-05-02T17:15:59Z</time></trkpt><trkpt lat="44.005481734177884" lon="12.485125332078683"><ele>136.0</ele><time>2026-05-02T17:16:00Z</time></trkpt><trkpt lat="44.0054878200316" lon="12.485218182846682"><ele>135.0</ele><time>2026-05-02T17:16:01Z</time></trkpt><trkpt lat="44.00549387895371" lon="12.48531063355316"><ele>134.0</ele><time>2026-05-02T17:16:02Z</time></trkpt><trkpt lat="44.00549730863799" lon="12.485402993889206"><ele>133.0</ele><time>2026-05-02T17:16:03Z</time></trkpt><trkpt lat="44.005514719083834" lon="12.48557941185784"><ele>132.0</ele><time>2026-05-02T17:16:05Z</time></trkpt><trkpt lat="44.00548199763805" lon="12.48574241586407"><ele>132.0</ele><time>2026-05-02T17:16:07Z</time></trkpt><trkpt lat="44.00546501387331" lon="12.485905707567538"><ele>132.0</ele><time>2026-05-02T17:16:09Z</time></trkpt><trkpt lat="44.005421414176254" lon="12.48605307755682"><ele>132.0</ele><time>2026-05-02T17:16:11Z</time></trkpt><trkpt lat="44.00538756226834" lon="12.4862079084261"><ele>132.0</ele><time>2026-05-02T17:16:13Z</time></trkpt><trkpt lat="44.00535666461573" lon="12.486353567387543"><ele>133.0</ele><time>2026-05-02T17:16:15Z</time></trkpt><trkpt lat="44.005309664528404" lon="12.486489381732362"><ele>134.0</ele><time>2026-05-02T17:16:17Z</time></trkpt><trkpt lat="44.005273719235284" lon="12.486636042264601"><ele>135.0</ele><time>2026-05-02T17:16:19Z</time></trkpt><trkpt lat="44.00523819492136" lon="12.486780985181351"><ele>136.0</ele><time>2026-05-02T17:16:21Z</time></trkpt><trkpt lat="44.00520008450756" lon="12.486936479655936"><ele>137.0</ele><time>2026-05-02T17:16:23Z</time></trkpt><trkpt lat="44.0051646768281" lon="12.487093600132903"><ele>136.5</ele><time>2026-05-02T17:16:25Z</time></trkpt><trkpt lat="44.00512536396646" lon="12.48724907544039"><ele>136.0</ele><time>2026-05-02T17:16:27Z</time></trkpt><trkpt lat="44.00507237088386" lon="12.487406864749014"><ele>135.5</ele><time>2026-05-02T17:16:29Z</time></trkpt><trkpt lat="44.0050503377432" lon="12.487492968787869"><ele>135.0</ele><time>2026-05-02T17:16:30Z</time></trkpt><trkpt lat="44.005009969234365" lon="12.487567164773193"><ele>134.5</ele><time>2026-05-02T17:16:31Z</time></trkpt><trkpt lat="44.00496727683528" lon="12.487641871656473"><ele>134.0</ele><time>2026-05-02T17:16:32Z</time></trkpt><trkpt lat="44.00492407012074" lon="12.48771888230473"><ele>133.0</ele><time>2026-05-02T17:16:33Z</time></trkpt><trkpt lat="44.004877083029385" lon="12.48779292311549"><ele>132.0</ele><time>2026-05-02T17:16:34Z</time></trkpt><trkpt lat="44.004829497484124" lon="12.487864744272596"><ele>131.0</ele><time>2026-05-02T17:16:35Z</time></trkpt><trkpt lat="44.00477556698335" lon="12.487934447998356"><ele>130.0</ele><time>2026-05-02T17:16:36Z</time></trkpt><trkpt lat="44.00471874294391" lon="12.488003915563963"><ele>129.0</ele><time>2026-05-02T17:16:37Z</time></trkpt><trkpt lat="44.004667008312644" lon="12.488087317508528"><ele>128.0</ele><time>2026-05-02T17:16:38Z</time></trkpt><trkpt lat="44.00461358653291" lon="12.488172474326504"><ele>127.99999999999999</ele><time>2026-05-02T17:16:39Z</time></trkpt><trkpt lat="44.004562104017666" lon="12.488251225536246"><ele>128.0</ele><time>2026-05-02T17:16:40Z</time></trkpt><trkpt lat="44.004514389560434" lon="12.488324446643691"><ele>128.0</ele><time>2026-05-02T17:16:41Z</time></trkpt><trkpt lat="44.00447002719092" lon="12.488401602401877"><ele>128.0</ele><time>2026-05-02T17:16:42Z</time></trkpt><trkpt lat="44.00441129895474" lon="12.488481412467406"><ele>127.99999999999999</ele><time>2026-05-02T17:16:43Z</time></trkpt><trkpt lat="44.0043597924132" lon="12.488556486495916"><ele>128.0</ele><time>2026-05-02T17:16:44Z</time></trkpt><trkpt lat="44.00430900820287" lon="12.48863210657942"><ele>128.0</ele><time>2026-05-02T17:16:45Z</time></trkpt><trkpt lat="44.00426062390629" lon="12.488708939126056"><ele>127.99999999999999</ele><time>2026-05-02T17:16:46Z</time></trkpt><trkpt lat="44.004214120692765" lon="12.488786639717025"><ele>128.0</ele><time>2026-05-02T17:16:47Z</time></trkpt><trkpt lat="44.00416347123576" lon="12.488856643583611"><ele>128.0</ele><time>2026-05-02T17:16:48Z</time></trkpt><trkpt lat="44.00411741452086" lon="12.488927676890043"><ele>127.99999999999999</ele><time>2026-05-02T17:16:49Z</time></trkpt><trkpt lat="44.00406959213777" lon="12.488997441638782"><ele>128.0</ele><time>2026-05-02T17:16:50Z</time></trkpt><trkpt lat="44.00402310094426" lon="12.489064235686547"><ele>128.0</ele><time>2026-05-02T17:16:51Z</time></trkpt><trkpt lat="44.003979910459336" lon="12.4891291424838"><ele>127.80000000000001</ele><time>2026-05-02T17:16:52Z</time></trkpt><trkpt lat="44.003894105556114" lon="12.48925218450559"><ele>127.60000000000001</ele><time>2026-05-02T17:16:54Z</time></trkpt><trkpt lat="44.00381796059858" lon="12.489372736147853"><ele>127.39999999999999</ele><time>2026-05-02T17:16:56Z</time></trkpt><trkpt lat="44.00374762941913" lon="12.489482317312872"><ele>127.19999999999999</ele><time>2026-05-02T17:16:58Z</time></trkpt><trkpt lat="44.003677393364505" lon="12.489590162754713"><ele>127.0</ele><time>2026-05-02T17:16:59.999Z</time></trkpt><trkpt lat="44.00360570882468" lon="12.489698516163712"><ele>127.0</ele><time>2026-05-02T17:17:01.999Z</time></trkpt><trkpt lat="44.00354247500637" lon="12.489798628789378"><ele>126.99999999999999</ele><time>2026-05-02T17:17:03.999Z</time></trkpt><trkpt lat="44.00347587633278" lon="12.489906950601565"><ele>126.99999999999999</ele><time>2026-05-02T17:17:05.999Z</time></trkpt><trkpt lat="44.00340925122234" lon="12.490002348720346"><ele>127.0</ele><time>2026-05-02T17:17:07.999Z</time></trkpt><trkpt lat="44.00334562399809" lon="12.490105950125473"><ele>127.0</ele><time>2026-05-02T17:17:09.999Z</time></trkpt><trkpt lat="44.00328091732801" lon="12.490199030052558"><ele>126.83333333333334</ele><time>2026-05-02T17:17:11.999Z</time></trkpt><trkpt lat="44.003211341768655" lon="12.49030267928975"><ele>126.66666666666667</ele><time>2026-05-02T17:17:13.999Z</time></trkpt><trkpt lat="44.00314795341156" lon="12.490397478882377"><ele>126.5</ele><time>2026-05-02T17:17:15.999Z</time></trkpt><trkpt lat="44.0030916187293" lon="12.49049468555096"><ele>126.33333333333334</ele><time>2026-05-02T17:17:17.999Z</time></trkpt><trkpt lat="44.003028853879755" lon="12.49055704278344"><ele>126.16666666666667</ele><time>2026-05-02T17:17:19.999Z</time></trkpt><trkpt lat="44.002971921190706" lon="12.490635295384877"><ele>126.0</ele><time>2026-05-02T17:17:21.999Z</time></trkpt><trkpt lat="44.00291305879068" lon="12.490717017639982"><ele>126.0</ele><time>2026-05-02T17:17:23.999Z</time></trkpt><trkpt lat="44.00285970602082" lon="12.490793108632742"><ele>126.0</ele><time>2026-05-02T17:17:25.999Z</time></trkpt><trkpt lat="44.00279276940877" lon="12.490886540254468"><ele>126.0</ele><time>2026-05-02T17:17:28.999Z</time></trkpt><trkpt lat="44.00282002981195" lon="12.49106630601897"><ele>126.0</ele><time>2026-05-02T17:17:31.999Z</time></trkpt><trkpt lat="44.00284378415887" lon="12.491151212659162"><ele>126.0</ele><time>2026-05-02T17:17:33.999Z</time></trkpt><trkpt lat="44.002871967596576" lon="12.491262665702905"><ele>126.19999999999999</ele><time>2026-05-02T17:17:35.999Z</time></trkpt><trkpt lat="44.00289856140382" lon="12.491373007093049"><ele>126.39999999999999</ele><time>2026-05-02T17:17:37.999Z</time></trkpt><trkpt lat="44.002940165938355" lon="12.491494782180848"><ele>126.6</ele><time>2026-05-02T17:17:39.999Z</time></trkpt><trkpt lat="44.00297443573205" lon="12.491629858084217"><ele>126.8</ele><time>2026-05-02T17:17:41.999Z</time></trkpt><trkpt lat="44.00300677079084" lon="12.491789284918735"><ele>127.0</ele><time>2026-05-02T17:17:43.999Z</time></trkpt><trkpt lat="44.00301898347159" lon="12.49188056953264"><ele>127.0</ele><time>2026-05-02T17:17:44.999Z</time></trkpt><trkpt lat="44.0030629248914" lon="12.4920457504697"><ele>126.99999999999999</ele><time>2026-05-02T17:17:47Z</time></trkpt><trkpt lat="44.003121713752385" lon="12.492211874292213"><ele>126.99999999999999</ele><time>2026-05-02T17:17:49Z</time></trkpt><trkpt lat="44.00313705950317" lon="12.492302186649868"><ele>127.0</ele><time>2026-05-02T17:17:50Z</time></trkpt><trkpt lat="44.0031558160875" lon="12.492391715137549"><ele>127.0</ele><time>2026-05-02T17:17:51Z</time></trkpt><trkpt lat="44.00317634276163" lon="12.492479079862589"><ele>127.6</ele><time>2026-05-02T17:17:52Z</time></trkpt><trkpt lat="44.00318356619592" lon="12.492568868507309"><ele>128.2</ele><time>2026-05-02T17:17:53Z</time></trkpt><trkpt lat="44.00323272804479" lon="12.492730296133828"><ele>128.8</ele><time>2026-05-02T17:17:55Z</time></trkpt><trkpt lat="44.00325997493196" lon="12.492882465637637"><ele>129.4</ele><time>2026-05-02T17:17:57Z</time></trkpt><trkpt lat="44.003305318194805" lon="12.49302535845126"><ele>130.0</ele><time>2026-05-02T17:17:59Z</time></trkpt><trkpt lat="44.00335458126474" lon="12.493175009409255"><ele>128.2</ele><time>2026-05-02T17:18:01Z</time></trkpt><trkpt lat="44.0033935866117" lon="12.493314471671898"><ele>126.4</ele><time>2026-05-02T17:18:03Z</time></trkpt><trkpt lat="44.00342884100635" lon="12.493467035397238"><ele>124.6</ele><time>2026-05-02T17:18:05Z</time></trkpt><trkpt lat="44.00344356300014" lon="12.493639524769982"><ele>122.8</ele><time>2026-05-02T17:18:07Z</time></trkpt><trkpt lat="44.003443933178765" lon="12.493733691131343"><ele>121.0</ele><time>2026-05-02T17:18:08Z</time></trkpt><trkpt lat="44.003449333210234" lon="12.493824044508393"><ele>120.66666666666667</ele><time>2026-05-02T17:18:09Z</time></trkpt><trkpt lat="44.00344668072127" lon="12.4939260528999"><ele>120.33333333333334</ele><time>2026-05-02T17:18:10Z</time></trkpt><trkpt lat="44.00344988007587" lon="12.494023689334965"><ele>120.0</ele><time>2026-05-02T17:18:11Z</time></trkpt><trkpt lat="44.003442619139754" lon="12.494126088966519"><ele>119.66666666666666</ele><time>2026-05-02T17:18:12Z</time></trkpt><trkpt lat="44.003441150491334" lon="12.494231770263424"><ele>119.33333333333333</ele><time>2026-05-02T17:18:13Z</time></trkpt><trkpt lat="44.00344561978357" lon="12.49433995864638"><ele>119.0</ele><time>2026-05-02T17:18:14Z</time></trkpt><trkpt lat="44.00346158312296" lon="12.494457501765892"><ele>119.0</ele><time>2026-05-02T17:18:15Z</time></trkpt><trkpt lat="44.003495683141594" lon="12.4945645487086"><ele>119.0</ele><time>2026-05-02T17:18:16Z</time></trkpt><trkpt lat="44.00351049226735" lon="12.494690618213049"><ele>119.0</ele><time>2026-05-02T17:18:17Z</time></trkpt><trkpt lat="44.00353899283505" lon="12.49480229177674"><ele>119.0</ele><time>2026-05-02T17:18:18Z</time></trkpt><trkpt lat="44.00355663825538" lon="12.494897344425926"><ele>119.0</ele><time>2026-05-02T17:18:19Z</time></trkpt><trkpt lat="44.0035641254938" lon="12.495086741368617"><ele>118.49999999999999</ele><time>2026-05-02T17:18:21Z</time></trkpt><trkpt lat="44.00356565047503" lon="12.495197212986696"><ele>118.0</ele><time>2026-05-02T17:18:22Z</time></trkpt><trkpt lat="44.00356406277769" lon="12.495303424360491"><ele>117.5</ele><time>2026-05-02T17:18:23Z</time></trkpt><trkpt lat="44.003563899560056" lon="12.49542794810235"><ele>117.0</ele><time>2026-05-02T17:18:24Z</time></trkpt><trkpt lat="44.00358060757579" lon="12.495540778528401"><ele>116.49999999999999</ele><time>2026-05-02T17:18:25Z</time></trkpt><trkpt lat="44.00357825394531" lon="12.495648969384899"><ele>116.0</ele><time>2026-05-02T17:18:26Z</time></trkpt><trkpt lat="44.003605812203354" lon="12.495761920193912"><ele>114.49999999999999</ele><time>2026-05-02T17:18:27Z</time></trkpt><trkpt lat="44.003604914005564" lon="12.49588596811178"><ele>113.0</ele><time>2026-05-02T17:18:28Z</time></trkpt><trkpt lat="44.00362487881308" lon="12.496020719328607"><ele>111.5</ele><time>2026-05-02T17:18:29Z</time></trkpt><trkpt lat="44.00365853262581" lon="12.496130992163373"><ele>110.0</ele><time>2026-05-02T17:18:30Z</time></trkpt><trkpt lat="44.003674371829874" lon="12.496225200487805"><ele>108.49999999999999</ele><time>2026-05-02T17:18:31Z</time></trkpt><trkpt lat="44.00369229738092" lon="12.49631521079178"><ele>107.0</ele><time>2026-05-02T17:18:32Z</time></trkpt><trkpt lat="44.00372348218397" lon="12.496417708766398"><ele>105.33333333333333</ele><time>2026-05-02T17:18:33Z</time></trkpt><trkpt lat="44.00375338854238" lon="12.4965181073719"><ele>103.66666666666666</ele><time>2026-05-02T17:18:34Z</time></trkpt><trkpt lat="44.00378524909328" lon="12.496615967953247"><ele>102.0</ele><time>2026-05-02T17:18:35Z</time></trkpt><trkpt lat="44.00381146707489" lon="12.496713100859754"><ele>100.33333333333334</ele><time>2026-05-02T17:18:36Z</time></trkpt><trkpt lat="44.00385383265289" lon="12.496800731012675"><ele>98.66666666666667</ele><time>2026-05-02T17:18:37Z</time></trkpt><trkpt lat="44.00389655197975" lon="12.496895713333835"><ele>97.0</ele><time>2026-05-02T17:18:38Z</time></trkpt><trkpt lat="44.00392832599645" lon="12.496986312794045"><ele>97.00000000000001</ele><time>2026-05-02T17:18:39Z</time></trkpt><trkpt lat="44.00396020709856" lon="12.497071097172128"><ele>97.0</ele><time>2026-05-02T17:18:40Z</time></trkpt><trkpt lat="44.00399892730629" lon="12.49714440672725"><ele>97.0</ele><time>2026-05-02T17:18:41Z</time></trkpt><trkpt lat="44.00409847888797" lon="12.497259841711255"><ele>97.0</ele><time>2026-05-02T17:18:43Z</time></trkpt><trkpt lat="44.00416396266324" lon="12.497304740456869"><ele>97.00000000000001</ele><time>2026-05-02T17:18:44Z</time></trkpt><trkpt lat="44.00422854604922" lon="12.497332672892826"><ele>97.0</ele><time>2026-05-02T17:18:45Z</time></trkpt><trkpt lat="44.00429637805621" lon="12.49738615001854"><ele>96.50000000000001</ele><time>2026-05-02T17:18:46Z</time></trkpt><trkpt lat="44.004371610096335" lon="12.497430188893459"><ele>96.0</ele><time>2026-05-02T17:18:47Z</time></trkpt><trkpt lat="44.00443671622499" lon="12.49748736819608"><ele>95.5</ele><time>2026-05-02T17:18:48Z</time></trkpt><trkpt lat="44.004499852513895" lon="12.497561619902193"><ele>95.0</ele><time>2026-05-02T17:18:49Z</time></trkpt><trkpt lat="44.004534189439454" lon="12.49765107844214"><ele>94.5</ele><time>2026-05-02T17:18:50Z</time></trkpt><trkpt lat="44.00456916474627" lon="12.497746074570978"><ele>94.0</ele><time>2026-05-02T17:18:51Z</time></trkpt><trkpt lat="44.004596950751136" lon="12.497843785882921"><ele>92.83333333333333</ele><time>2026-05-02T17:18:52Z</time></trkpt><trkpt lat="44.004626191019746" lon="12.497949402924625"><ele>91.66666666666666</ele><time>2026-05-02T17:18:53Z</time></trkpt><trkpt lat="44.00465841638422" lon="12.498059162788167"><ele>90.5</ele><time>2026-05-02T17:18:54Z</time></trkpt><trkpt lat="44.00469183349619" lon="12.498171490452853"><ele>89.33333333333333</ele><time>2026-05-02T17:18:55Z</time></trkpt><trkpt lat="44.004739382191104" lon="12.498274330774965"><ele>88.16666666666667</ele><time>2026-05-02T17:18:56Z</time></trkpt><trkpt lat="44.00476479597065" lon="12.498386709930553"><ele>87.0</ele><time>2026-05-02T17:18:57Z</time></trkpt><trkpt lat="44.00479762654406" lon="12.498491923561758"><ele>87.0</ele><time>2026-05-02T17:18:58Z</time></trkpt><trkpt lat="44.00482592256841" lon="12.498598082298882"><ele>87.0</ele><time>2026-05-02T17:18:59Z</time></trkpt><trkpt lat="44.00485753276906" lon="12.498705930910749"><ele>87.0</ele><time>2026-05-02T17:19:00Z</time></trkpt><trkpt lat="44.004886778209276" lon="12.498815802386291"><ele>87.0</ele><time>2026-05-02T17:19:01Z</time></trkpt><trkpt lat="44.00491829371089" lon="12.498910637192504"><ele>87.0</ele><time>2026-05-02T17:19:02Z</time></trkpt><trkpt lat="44.00494432459094" lon="12.499014323943772"><ele>87.0</ele><time>2026-05-02T17:19:03Z</time></trkpt><trkpt lat="44.00496624884474" lon="12.499104657505749"><ele>86.66666666666667</ele><time>2026-05-02T17:19:04Z</time></trkpt><trkpt lat="44.0049979425144" lon="12.499196385158717"><ele>86.33333333333333</ele><time>2026-05-02T17:19:05Z</time></trkpt><trkpt lat="44.0050218060569" lon="12.499294271981514"><ele>86.0</ele><time>2026-05-02T17:19:06Z</time></trkpt><trkpt lat="44.00505156381996" lon="12.499391998884363"><ele>85.66666666666666</ele><time>2026-05-02T17:19:06.999Z</time></trkpt><trkpt lat="44.005080838404304" lon="12.49949199968809"><ele>85.33333333333333</ele><time>2026-05-02T17:19:07.999Z</time></trkpt><trkpt lat="44.00511486648412" lon="12.49959693343175"><ele>85.0</ele><time>2026-05-02T17:19:08.999Z</time></trkpt><trkpt lat="44.005149645895386" lon="12.499693540510481"><ele>84.33333333333333</ele><time>2026-05-02T17:19:09.999Z</time></trkpt><trkpt lat="44.00518157508761" lon="12.499788331465245"><ele>83.66666666666666</ele><time>2026-05-02T17:19:10.999Z</time></trkpt><trkpt lat="44.00520834763701" lon="12.499883685075918"><ele>83.0</ele><time>2026-05-02T17:19:11.999Z</time></trkpt><trkpt lat="44.00524211839351" lon="12.499977007576906"><ele>82.33333333333333</ele><time>2026-05-02T17:19:12.999Z</time></trkpt><trkpt lat="44.00527414908204" lon="12.500073491411325"><ele>81.66666666666667</ele><time>2026-05-02T17:19:13.999Z</time></trkpt><trkpt lat="44.00530598212672" lon="12.500168358676593"><ele>81.0</ele><time>2026-05-02T17:19:14.999Z</time></trkpt><trkpt lat="44.00533291294306" lon="12.500263946250094"><ele>81.0</ele><time>2026-05-02T17:19:15.999Z</time></trkpt><trkpt lat="44.005362294945584" lon="12.50035717965687"><ele>81.0</ele><time>2026-05-02T17:19:16.999Z</time></trkpt><trkpt lat="44.005395026912566" lon="12.500455791838956"><ele>81.0</ele><time>2026-05-02T17:19:17.999Z</time></trkpt><trkpt lat="44.005429201165285" lon="12.500557477053698"><ele>81.0</ele><time>2026-05-02T17:19:18.999Z</time></trkpt><trkpt lat="44.005464103426824" lon="12.50065810537423"><ele>81.0</ele><time>2026-05-02T17:19:19.999Z</time></trkpt><trkpt lat="44.005504184302296" lon="12.500755986637635"><ele>81.0</ele><time>2026-05-02T17:19:20.999Z</time></trkpt><trkpt lat="44.00554392841399" lon="12.500851986265957"><ele>80.0</ele><time>2026-05-02T17:19:21.999Z</time></trkpt><trkpt lat="44.00558289186524" lon="12.500932762208047"><ele>79.0</ele><time>2026-05-02T17:19:22.999Z</time></trkpt><trkpt lat="44.00560253907318" lon="12.501038744042493"><ele>78.0</ele><time>2026-05-02T17:19:23.999Z</time></trkpt><trkpt lat="44.00562884475922" lon="12.50113480971514"><ele>77.0</ele><time>2026-05-02T17:19:24.999Z</time></trkpt><trkpt lat="44.00565279878217" lon="12.501223570260002"><ele>76.0</ele><time>2026-05-02T17:19:25.999Z</time></trkpt><trkpt lat="44.00568044604401" lon="12.501331124167017"><ele>75.0</ele><time>2026-05-02T17:19:26.999Z</time></trkpt><trkpt lat="44.00570746318179" lon="12.501437744837022"><ele>74.8</ele><time>2026-05-02T17:19:27.999Z</time></trkpt><trkpt lat="44.005737303195865" lon="12.501555505727458"><ele>74.6</ele><time>2026-05-02T17:19:28.999Z</time></trkpt><trkpt lat="44.00576936785621" lon="12.50167368571764"><ele>74.4</ele><time>2026-05-02T17:19:29.999Z</time></trkpt><trkpt lat="44.005802063585776" lon="12.501790507344948"><ele>74.2</ele><time>2026-05-02T17:19:30.999Z</time></trkpt><trkpt lat="44.005836333620756" lon="12.501912953940385"><ele>74.0</ele><time>2026-05-02T17:19:31.999Z</time></trkpt><trkpt lat="44.005871039121985" lon="12.502036956406506"><ele>73.4</ele><time>2026-05-02T17:19:32.999Z</time></trkpt><trkpt lat="44.005904593883145" lon="12.502160609145587"><ele>72.80000000000001</ele><time>2026-05-02T17:19:33.999Z</time></trkpt><trkpt lat="44.00593919055434" lon="12.502290550729878"><ele>72.19999999999999</ele><time>2026-05-02T17:19:34.999Z</time></trkpt><trkpt lat="44.00597370299596" lon="12.502420175969117"><ele>71.6</ele><time>2026-05-02T17:19:35.999Z</time></trkpt><trkpt lat="44.00600773994882" lon="12.50254962266375"><ele>71.0</ele><time>2026-05-02T17:19:36.999Z</time></trkpt><trkpt lat="44.00604226960314" lon="12.502681424925026"><ele>71.0</ele><time>2026-05-02T17:19:37.999Z</time></trkpt><trkpt lat="44.006076497622885" lon="12.502812075764009"><ele>71.0</ele><time>2026-05-02T17:19:38.999Z</time></trkpt><trkpt lat="44.006107784804854" lon="12.50293995606742"><ele>71.0</ele><time>2026-05-02T17:19:39.999Z</time></trkpt><trkpt lat="44.0061393447176" lon="12.503072232157509"><ele>71.0</ele><time>2026-05-02T17:19:40.999Z</time></trkpt><trkpt lat="44.00616790711206" lon="12.503198474080783"><ele>71.0</ele><time>2026-05-02T17:19:41.999Z</time></trkpt><trkpt lat="44.006195620005805" lon="12.503325470086903"><ele>70.16666666666667</ele><time>2026-05-02T17:19:42.999Z</time></trkpt><trkpt lat="44.00622043619847" lon="12.503447476486558"><ele>69.33333333333334</ele><time>2026-05-02T17:19:43.999Z</time></trkpt><trkpt lat="44.006258606114464" lon="12.503562077372203"><ele>68.5</ele><time>2026-05-02T17:19:44.999Z</time></trkpt><trkpt lat="44.00627724475743" lon="12.50368312069675"><ele>67.66666666666667</ele><time>2026-05-02T17:19:45.999Z</time></trkpt><trkpt lat="44.00628512233732" lon="12.503797938389535"><ele>66.83333333333333</ele><time>2026-05-02T17:19:46.999Z</time></trkpt><trkpt lat="44.00630456069594" lon="12.503917149115356"><ele>66.0</ele><time>2026-05-02T17:19:47.999Z</time></trkpt><trkpt lat="44.00633583830161" lon="12.504029777996058"><ele>65.33333333333333</ele><time>2026-05-02T17:19:48.999Z</time></trkpt><trkpt lat="44.006349930543564" lon="12.504149342219169"><ele>64.66666666666667</ele><time>2026-05-02T17:19:49.999Z</time></trkpt><trkpt lat="44.00635394560897" lon="12.504273777117433"><ele>64.0</ele><time>2026-05-02T17:19:50.999Z</time></trkpt><trkpt lat="44.00636792964925" lon="12.504392850902283"><ele>63.333333333333336</ele><time>2026-05-02T17:19:52Z</time></trkpt><trkpt lat="44.00638172178912" lon="12.504510290671604"><ele>62.66666666666667</ele><time>2026-05-02T17:19:53Z</time></trkpt><trkpt lat="44.00641181206106" lon="12.504625100916586"><ele>62.0</ele><time>2026-05-02T17:19:54Z</time></trkpt><trkpt lat="44.00641360963048" lon="12.504738850502408"><ele>60.833333333333336</ele><time>2026-05-02T17:19:55Z</time></trkpt><trkpt lat="44.00642704658437" lon="12.504850602296731"><ele>59.66666666666667</ele><time>2026-05-02T17:19:56Z</time></trkpt><trkpt lat="44.00644096919628" lon="12.504960018809435"><ele>58.5</ele><time>2026-05-02T17:19:57Z</time></trkpt><trkpt lat="44.00645543241413" lon="12.505065659131942"><ele>57.33333333333333</ele><time>2026-05-02T17:19:58Z</time></trkpt><trkpt lat="44.00646775624125" lon="12.5051665273343"><ele>56.166666666666664</ele><time>2026-05-02T17:19:59Z</time></trkpt><trkpt lat="44.00648060380523" lon="12.505269570185156"><ele>55.0</ele><time>2026-05-02T17:20:00Z</time></trkpt><trkpt lat="44.00648743962301" lon="12.505371599646251"><ele>54.666666666666664</ele><time>2026-05-02T17:20:01Z</time></trkpt><trkpt lat="44.006496318190564" lon="12.505467595347564"><ele>54.33333333333333</ele><time>2026-05-02T17:20:02Z</time></trkpt><trkpt lat="44.00650666094724" lon="12.505563387648206"><ele>54.0</ele><time>2026-05-02T17:20:03Z</time></trkpt><trkpt lat="44.00651808624372" lon="12.505652140810701"><ele>53.66666666666667</ele><time>2026-05-02T17:20:04Z</time></trkpt><trkpt lat="44.00652966454875" lon="12.505738804010734"><ele>53.333333333333336</ele><time>2026-05-02T17:20:05Z</time></trkpt><trkpt lat="44.00654069382435" lon="12.505826650304716"><ele>53.0</ele><time>2026-05-02T17:20:06Z</time></trkpt><trkpt lat="44.00656142462781" lon="12.506001350670518"><ele>53.0</ele><time>2026-05-02T17:20:08Z</time></trkpt><trkpt lat="44.00658409082273" lon="12.506167607151905"><ele>53.0</ele><time>2026-05-02T17:20:10Z</time></trkpt><trkpt lat="44.00660315212375" lon="12.506327390997892"><ele>53.0</ele><time>2026-05-02T17:20:12Z</time></trkpt><trkpt lat="44.00662509088759" lon="12.506481942327936"><ele>53.0</ele><time>2026-05-02T17:20:14Z</time></trkpt><trkpt lat="44.00664708057536" lon="12.506639623675296"><ele>52.2</ele><time>2026-05-02T17:20:16Z</time></trkpt><trkpt lat="44.006649658584564" lon="12.506793885165651"><ele>51.4</ele><time>2026-05-02T17:20:18Z</time></trkpt><trkpt lat="44.00667854019157" lon="12.506936790350089"><ele>50.6</ele><time>2026-05-02T17:20:20Z</time></trkpt><trkpt lat="44.00665964290487" lon="12.507089186464654"><ele>49.800000000000004</ele><time>2026-05-02T17:20:22Z</time></trkpt><trkpt lat="44.00665198058534" lon="12.507235870025564"><ele>49.0</ele><time>2026-05-02T17:20:24Z</time></trkpt><trkpt lat="44.00662885482546" lon="12.507397250836274"><ele>48.49999999999999</ele><time>2026-05-02T17:20:26Z</time></trkpt><trkpt lat="44.006612464979646" lon="12.507502012937001"><ele>48.0</ele><time>2026-05-02T17:20:27Z</time></trkpt><trkpt lat="44.006595644611906" lon="12.507608785687824"><ele>47.5</ele><time>2026-05-02T17:20:28Z</time></trkpt><trkpt lat="44.00658157962453" lon="12.507721478701683"><ele>47.0</ele><time>2026-05-02T17:20:29Z</time></trkpt><trkpt lat="44.00656664399572" lon="12.507842012308958"><ele>46.5</ele><time>2026-05-02T17:20:30Z</time></trkpt><trkpt lat="44.00653540294207" lon="12.507966360447643"><ele>46.0</ele><time>2026-05-02T17:20:31Z</time></trkpt><trkpt lat="44.00653670316679" lon="12.508093907502344"><ele>45.833333333333336</ele><time>2026-05-02T17:20:32Z</time></trkpt><trkpt lat="44.00651731680427" lon="12.508215788065327"><ele>45.66666666666667</ele><time>2026-05-02T17:20:33Z</time></trkpt><trkpt lat="44.00649039032432" lon="12.508322097710288"><ele>45.5</ele><time>2026-05-02T17:20:34Z</time></trkpt><trkpt lat="44.00648695032237" lon="12.508447539884175"><ele>45.333333333333336</ele><time>2026-05-02T17:20:35Z</time></trkpt><trkpt lat="44.00650914429313" lon="12.508565461822052"><ele>45.166666666666664</ele><time>2026-05-02T17:20:36Z</time></trkpt><trkpt lat="44.006556289908076" lon="12.508653006727595"><ele>45.0</ele><time>2026-05-02T17:20:37Z</time></trkpt><trkpt lat="44.00657508693131" lon="12.508808698640994"><ele>45.0</ele><time>2026-05-02T17:20:39Z</time></trkpt><trkpt lat="44.006604957928324" lon="12.508921229836934"><ele>45.0</ele><time>2026-05-02T17:20:41Z</time></trkpt><trkpt lat="44.006580611700436" lon="12.509019873040149"><ele>45.0</ele><time>2026-05-02T17:20:45Z</time></trkpt><trkpt lat="44.006488699180295" lon="12.509110321130697"><ele>45.0</ele><time>2026-05-02T17:20:47Z</time></trkpt><trkpt lat="44.00640849178946" lon="12.509223100742124"><ele>45.0</ele><time>2026-05-02T17:20:49Z</time></trkpt><trkpt lat="44.00634120193594" lon="12.509347275743906"><ele>45.0</ele><time>2026-05-02T17:20:51Z</time></trkpt><trkpt lat="44.00628312782936" lon="12.50948905313628"><ele>45.0</ele><time>2026-05-02T17:20:53Z</time></trkpt><trkpt lat="44.00623361883874" lon="12.509627477834456"><ele>45.0</ele><time>2026-05-02T17:20:55Z</time></trkpt><trkpt lat="44.006171393808636" lon="12.509760415501908"><ele>45.0</ele><time>2026-05-02T17:20:57Z</time></trkpt><trkpt lat="44.00612246504183" lon="12.509895811218426"><ele>44.8</ele><time>2026-05-02T17:20:59Z</time></trkpt><trkpt lat="44.006077454596195" lon="12.510042048832933"><ele>44.6</ele><time>2026-05-02T17:21:01Z</time></trkpt><trkpt lat="44.00601232010333" lon="12.510174914620803"><ele>44.400000000000006</ele><time>2026-05-02T17:21:03Z</time></trkpt><trkpt lat="44.005942881284234" lon="12.510282728806425"><ele>44.2</ele><time>2026-05-02T17:21:05Z</time></trkpt><trkpt lat="44.005854174964405" lon="12.510383824764752"><ele>44.0</ele><time>2026-05-02T17:21:07Z</time></trkpt><trkpt lat="44.005773543808" lon="12.510483916953966"><ele>44.6</ele><time>2026-05-02T17:21:09Z</time></trkpt><trkpt lat="44.00568177688232" lon="12.510574293164755"><ele>45.2</ele><time>2026-05-02T17:21:11Z</time></trkpt><trkpt lat="44.005594616469686" lon="12.51066254373016"><ele>45.800000000000004</ele><time>2026-05-02T17:21:13Z</time></trkpt><trkpt lat="44.005521550594366" lon="12.510744626014665"><ele>46.400000000000006</ele><time>2026-05-02T17:21:15Z</time></trkpt><trkpt lat="44.00543752034744" lon="12.510821995809138"><ele>47.0</ele><time>2026-05-02T17:21:17Z</time></trkpt><trkpt lat="44.00535877424219" lon="12.510907914572783"><ele>47.0</ele><time>2026-05-02T17:21:19Z</time></trkpt><trkpt lat="44.00529289903337" lon="12.51100212527287"><ele>47.0</ele><time>2026-05-02T17:21:20.999Z</time></trkpt><trkpt lat="44.00522246240288" lon="12.511103702487786"><ele>47.0</ele><time>2026-05-02T17:21:22.999Z</time></trkpt><trkpt lat="44.00515009227312" lon="12.511204568338846"><ele>47.0</ele><time>2026-05-02T17:21:24.999Z</time></trkpt><trkpt lat="44.005090867153015" lon="12.51131652985545"><ele>47.0</ele><time>2026-05-02T17:21:26.999Z</time></trkpt><trkpt lat="44.00502524393085" lon="12.511430849026535"><ele>47.6</ele><time>2026-05-02T17:21:28.999Z</time></trkpt><trkpt lat="44.0049623890857" lon="12.511540040407422"><ele>48.2</ele><time>2026-05-02T17:21:30.999Z</time></trkpt><trkpt lat="44.00490407621523" lon="12.511644218095041"><ele>48.8</ele><time>2026-05-02T17:21:32.999Z</time></trkpt><trkpt lat="44.00483453779353" lon="12.511728803570705"><ele>49.4</ele><time>2026-05-02T17:21:34.999Z</time></trkpt><trkpt lat="44.00476487640553" lon="12.511802098195826"><ele>50.0</ele><time>2026-05-02T17:21:36.999Z</time></trkpt><trkpt lat="44.00469269518008" lon="12.511848640054149"><ele>50.0</ele><time>2026-05-02T17:21:38.999Z</time></trkpt><trkpt lat="44.00463159672612" lon="12.511885027563084"><ele>50.0</ele><time>2026-05-02T17:21:40.999Z</time></trkpt><trkpt lat="44.00454729506118" lon="12.511918619597768"><ele>50.0</ele><time>2026-05-02T17:21:43.999Z</time></trkpt><trkpt lat="44.00452489644902" lon="12.512191931636481"><ele>50.0</ele><time>2026-05-02T17:21:46.999Z</time></trkpt><trkpt lat="44.00454753510075" lon="12.512333072828465"><ele>48.25</ele><time>2026-05-02T17:21:48.999Z</time></trkpt><trkpt lat="44.00457915422343" lon="12.512480654918045"><ele>46.5</ele><time>2026-05-02T17:21:50.999Z</time></trkpt><trkpt lat="44.00461856389794" lon="12.51262230945283"><ele>44.75</ele><time>2026-05-02T17:21:52.999Z</time></trkpt><trkpt lat="44.00467200216267" lon="12.512763433625896"><ele>43.0</ele><time>2026-05-02T17:21:54.999Z</time></trkpt><trkpt lat="44.00473780437589" lon="12.512899361687424"><ele>42.25</ele><time>2026-05-02T17:21:56.999Z</time></trkpt><trkpt lat="44.00481179143192" lon="12.513027256554402"><ele>41.5</ele><time>2026-05-02T17:21:59Z</time></trkpt><trkpt lat="44.00489430916008" lon="12.513147670620894"><ele>40.75</ele><time>2026-05-02T17:22:01Z</time></trkpt><trkpt lat="44.00498589817415" lon="12.5132546046506"><ele>40.0</ele><time>2026-05-02T17:22:03Z</time></trkpt><trkpt lat="44.00507626236998" lon="12.513351163118974"><ele>40.0</ele><time>2026-05-02T17:22:05Z</time></trkpt><trkpt lat="44.0051628036041" lon="12.513438950186854"><ele>40.0</ele><time>2026-05-02T17:22:07Z</time></trkpt><trkpt lat="44.00525196444515" lon="12.51352901702762"><ele>40.0</ele><time>2026-05-02T17:22:09Z</time></trkpt><trkpt lat="44.00533959660843" lon="12.513617509882058"><ele>40.0</ele><time>2026-05-02T17:22:11Z</time></trkpt><trkpt lat="44.00541826023571" lon="12.513702999959223"><ele>40.0</ele><time>2026-05-02T17:22:13Z</time></trkpt><trkpt lat="44.00549149193642" lon="12.513786516305117"><ele>40.0</ele><time>2026-05-02T17:22:15Z</time></trkpt><trkpt lat="44.00554405546907" lon="12.513875197161964"><ele>40.0</ele><time>2026-05-02T17:22:17Z</time></trkpt><trkpt lat="44.00558416134135" lon="12.513975274337099"><ele>40.0</ele><time>2026-05-02T17:22:19Z</time></trkpt><trkpt lat="44.00560500887601" lon="12.51406886460258"><ele>40.0</ele><time>2026-05-02T17:22:21Z</time></trkpt><trkpt lat="44.00561709450784" lon="12.514161590209026"><ele>40.0</ele><time>2026-05-02T17:22:23Z</time></trkpt><trkpt lat="44.00562495009341" lon="12.514262419005817"><ele>40.0</ele><time>2026-05-02T17:22:25Z</time></trkpt><trkpt lat="44.00563171058646" lon="12.51436252416578"><ele>40.0</ele><time>2026-05-02T17:22:27Z</time></trkpt><trkpt lat="44.00563943834402" lon="12.51445568442765"><ele>40.0</ele><time>2026-05-02T17:22:29Z</time></trkpt><trkpt lat="44.00566280257212" lon="12.514545857986509"><ele>40.0</ele><time>2026-05-02T17:22:31Z</time></trkpt><trkpt lat="44.00566652682556" lon="12.51466596413448"><ele>40.0</ele><time>2026-05-02T17:22:34Z</time></trkpt><trkpt lat="44.00569966118083" lon="12.514781634122288"><ele>40.0</ele><time>2026-05-02T17:22:37Z</time></trkpt><trkpt lat="44.0057331783807" lon="12.514857523678465"><ele>40.0</ele><time>2026-05-02T17:22:39Z</time></trkpt><trkpt lat="44.005772064459606" lon="12.514926553616165"><ele>40.0</ele><time>2026-05-02T17:22:41Z</time></trkpt><trkpt lat="44.00583474321884" lon="12.515011241377715"><ele>41.0</ele><time>2026-05-02T17:22:44Z</time></trkpt><trkpt lat="44.00589256200796" lon="12.51507752181194"><ele>42.0</ele><time>2026-05-02T17:22:47Z</time></trkpt><trkpt lat="44.00595747724407" lon="12.515150753414984"><ele>43.0</ele><time>2026-05-02T17:22:51Z</time></trkpt><trkpt lat="44.006019037816124" lon="12.515218331214133"><ele>44.0</ele><time>2026-05-02T17:22:55Z</time></trkpt><trkpt lat="44.00607661791839" lon="12.51528153953691"><ele>45.0</ele><time>2026-05-02T17:22:59Z</time></trkpt><trkpt lat="44.00613306192316" lon="12.515341768976963"><ele>46.0</ele><time>2026-05-02T17:23:03Z</time></trkpt><trkpt lat="44.006190487494926" lon="12.515403105196855"><ele>46.16666666666667</ele><time>2026-05-02T17:23:07Z</time></trkpt><trkpt lat="44.00624501772865" lon="12.515461349124669"><ele>46.333333333333336</ele><time>2026-05-02T17:23:11Z</time></trkpt><trkpt lat="44.0062991613453" lon="12.515518067648761"><ele>46.5</ele><time>2026-05-02T17:23:15Z</time></trkpt><trkpt lat="44.00637052202044" lon="12.51556633237529"><ele>46.666666666666664</ele><time>2026-05-02T17:23:20Z</time></trkpt><trkpt lat="44.00643677484217" lon="12.5156241989693"><ele>46.83333333333333</ele><time>2026-05-02T17:23:24.999Z</time></trkpt><trkpt lat="44.00649642521506" lon="12.515694208899712"><ele>47.0</ele><time>2026-05-02T17:23:28.999Z</time></trkpt><trkpt lat="44.00656422801622" lon="12.515747584448734"><ele>47.0</ele><time>2026-05-02T17:23:33.999Z</time></trkpt><trkpt lat="44.006628217420754" lon="12.515757075459621"><ele>47.0</ele><time>2026-05-02T17:23:36.999Z</time></trkpt><trkpt lat="44.006697719874985" lon="12.515803030521667"><ele>47.0</ele><time>2026-05-02T17:23:40.999Z</time></trkpt><trkpt lat="44.006768379591726" lon="12.51583236387782"><ele>47.0</ele><time>2026-05-02T17:23:45.999Z</time></trkpt><trkpt lat="44.006842415492194" lon="12.515855555742535"><ele>47.0</ele><time>2026-05-02T17:23:50.999Z</time></trkpt><trkpt lat="44.00690456436548" lon="12.515881608898143"><ele>47.0</ele><time>2026-05-02T17:23:55.999Z</time></trkpt><trkpt lat="44.00696559143337" lon="12.515905918136806"><ele>47.0</ele><time>2026-05-02T17:23:59.999Z</time></trkpt><trkpt lat="44.00702833051722" lon="12.51592142642717"><ele>48.42857142857143</ele><time>2026-05-02T17:24:05Z</time></trkpt><trkpt lat="44.00709652231458" lon="12.515921318663414"><ele>49.857142857142854</ele><time>2026-05-02T17:24:10Z</time></trkpt><trkpt lat="44.007169632967326" lon="12.515945712355604"><ele>51.285714285714285</ele><time>2026-05-02T17:24:16Z</time></trkpt><trkpt lat="44.007236893668406" lon="12.515971817802486"><ele>52.71428571428571</ele><time>2026-05-02T17:24:21Z</time></trkpt><trkpt lat="44.00729994895288" lon="12.515968175852992"><ele>54.14285714285714</ele><time>2026-05-02T17:24:26Z</time></trkpt><trkpt lat="44.007367245841515" lon="12.515991221675103"><ele>55.57142857142857</ele><time>2026-05-02T17:24:32Z</time></trkpt><trkpt lat="44.007430699203944" lon="12.515983145308237"><ele>57.0</ele><time>2026-05-02T17:24:38Z</time></trkpt><trkpt lat="44.00749524654203" lon="12.516017958642923"><ele>58.14285714285714</ele><time>2026-05-02T17:24:43Z</time></trkpt><trkpt lat="44.007558745434274" lon="12.516025024725627"><ele>59.28571428571428</ele><time>2026-05-02T17:24:49Z</time></trkpt><trkpt lat="44.0076225240062" lon="12.516040678378411"><ele>60.42857142857143</ele><time>2026-05-02T17:24:53Z</time></trkpt><trkpt lat="44.007685330162474" lon="12.51606160465102"><ele>61.57142857142857</ele><time>2026-05-02T17:24:59Z</time></trkpt><trkpt lat="44.00775116898585" lon="12.516104912486995"><ele>62.714285714285715</ele><time>2026-05-02T17:25:05Z</time></trkpt><trkpt lat="44.00781293637749" lon="12.51616254649736"><ele>63.85714285714286</ele><time>2026-05-02T17:25:11Z</time></trkpt><trkpt lat="44.007844111227605" lon="12.516245601376683"><ele>65.0</ele><time>2026-05-02T17:25:16Z</time></trkpt><trkpt lat="44.00785047662417" lon="12.516351944125258"><ele>65.14285714285715</ele><time>2026-05-02T17:25:21Z</time></trkpt><trkpt lat="44.00783784699258" lon="12.516450996611475"><ele>65.28571428571429</ele><time>2026-05-02T17:25:25Z</time></trkpt><trkpt lat="44.00781637603953" lon="12.516559221135278"><ele>65.42857142857143</ele><time>2026-05-02T17:25:29Z</time></trkpt><trkpt lat="44.00779165531127" lon="12.516651022481366"><ele>65.57142857142858</ele><time>2026-05-02T17:25:32Z</time></trkpt><trkpt lat="44.00776685459866" lon="12.516732197402604"><ele>65.71428571428572</ele><time>2026-05-02T17:25:34.999Z</time></trkpt><trkpt lat="44.00774586655004" lon="12.516816874473559"><ele>65.85714285714286</ele><time>2026-05-02T17:25:37.999Z</time></trkpt><trkpt lat="44.00773045036423" lon="12.516923187915083"><ele>66.0</ele><time>2026-05-02T17:25:41.999Z</time></trkpt><trkpt lat="44.00772702251016" lon="12.517029960912872"><ele>67.0</ele><time>2026-05-02T17:25:45.999Z</time></trkpt><trkpt lat="44.00772395579675" lon="12.517118860346226"><ele>68.0</ele><time>2026-05-02T17:25:49.999Z</time></trkpt><trkpt lat="44.00774366660017" lon="12.517206082971374"><ele>69.0</ele><time>2026-05-02T17:25:53.999Z</time></trkpt><trkpt lat="44.007768354570395" lon="12.517297305701659"><ele>70.0</ele><time>2026-05-02T17:25:58.999Z</time></trkpt><trkpt lat="44.007803919007024" lon="12.517374785344193"><ele>71.0</ele><time>2026-05-02T17:26:03.999Z</time></trkpt><trkpt lat="44.0078478641536" lon="12.51745571249334"><ele>72.0</ele><time>2026-05-02T17:26:10Z</time></trkpt><trkpt lat="44.00791002669137" lon="12.517496553021687"><ele>73.0</ele><time>2026-05-02T17:26:15Z</time></trkpt><trkpt lat="44.007963990571255" lon="12.517542922396732"><ele>73.0</ele><time>2026-05-02T17:26:20Z</time></trkpt><trkpt lat="44.0080307567424" lon="12.517558880027902"><ele>73.0</ele><time>2026-05-02T17:26:26Z</time></trkpt><trkpt lat="44.008095062071085" lon="12.517574793317529"><ele>73.0</ele><time>2026-05-02T17:26:31Z</time></trkpt><trkpt lat="44.00815443979631" lon="12.517542324247765"><ele>73.0</ele><time>2026-05-02T17:26:35Z</time></trkpt><trkpt lat="44.00821950943848" lon="12.517500749422588"><ele>73.0</ele><time>2026-05-02T17:26:40Z</time></trkpt><trkpt lat="44.00828112538693" lon="12.517446816556836"><ele>73.0</ele><time>2026-05-02T17:26:44Z</time></trkpt><trkpt lat="44.00833844851223" lon="12.517389799648686"><ele>73.0</ele><time>2026-05-02T17:26:48Z</time></trkpt><trkpt lat="44.00839321415997" lon="12.517330266502201"><ele>73.5</ele><time>2026-05-02T17:26:52Z</time></trkpt><trkpt lat="44.008448803013735" lon="12.517268119179926"><ele>74.0</ele><time>2026-05-02T17:26:56Z</time></trkpt><trkpt lat="44.00850514565303" lon="12.517199088164242"><ele>74.5</ele><time>2026-05-02T17:27:00Z</time></trkpt><trkpt lat="44.00856924262248" lon="12.517127788507603"><ele>75.0</ele><time>2026-05-02T17:27:04Z</time></trkpt><trkpt lat="44.00863538111544" lon="12.51705119810336"><ele>75.5</ele><time>2026-05-02T17:27:08Z</time></trkpt><trkpt lat="44.00869792656088" lon="12.516992690777847"><ele>76.0</ele><time>2026-05-02T17:27:11Z</time></trkpt><trkpt lat="44.008754867023065" lon="12.51691096517568"><ele>76.14285714285714</ele><time>2026-05-02T17:27:14Z</time></trkpt><trkpt lat="44.008819556594176" lon="12.516828271397127"><ele>76.28571428571429</ele><time>2026-05-02T17:27:17Z</time></trkpt><trkpt lat="44.0088682384574" lon="12.516770670237412"><ele>76.42857142857143</ele><time>2026-05-02T17:27:19Z</time></trkpt><trkpt lat="44.00893769993066" lon="12.516685513342066"><ele>76.57142857142857</ele><time>2026-05-02T17:27:22Z</time></trkpt><trkpt lat="44.00898840520311" lon="12.51663358271428"><ele>76.71428571428572</ele><time>2026-05-02T17:27:24Z</time></trkpt><trkpt lat="44.0090401720926" lon="12.51657355497937"><ele>76.85714285714286</ele><time>2026-05-02T17:27:26Z</time></trkpt><trkpt lat="44.009092213176366" lon="12.516523835852015"><ele>77.0</ele><time>2026-05-02T17:27:27.999Z</time></trkpt><trkpt lat="44.009160700925875" lon="12.51645521989066"><ele>77.33333333333334</ele><time>2026-05-02T17:27:30.999Z</time></trkpt><trkpt lat="44.009214426513516" lon="12.51640143432212"><ele>77.66666666666667</ele><time>2026-05-02T17:27:33.999Z</time></trkpt><trkpt lat="44.00927739461824" lon="12.516368164633645"><ele>78.0</ele><time>2026-05-02T17:27:36.999Z</time></trkpt><trkpt lat="44.00935146821941" lon="12.51631451086304"><ele>78.33333333333333</ele><time>2026-05-02T17:27:39.999Z</time></trkpt><trkpt lat="44.00942588915738" lon="12.516258598727791"><ele>78.66666666666666</ele><time>2026-05-02T17:27:42.999Z</time></trkpt><trkpt lat="44.00951022650976" lon="12.51621439937845"><ele>79.0</ele><time>2026-05-02T17:27:45.999Z</time></trkpt><trkpt lat="44.009581664477665" lon="12.51617990132016"><ele>80.0</ele><time>2026-05-02T17:27:48.999Z</time></trkpt><trkpt lat="44.009661823137506" lon="12.516141992536355"><ele>81.0</ele><time>2026-05-02T17:27:51.999Z</time></trkpt><trkpt lat="44.009728048183" lon="12.516131412133992"><ele>82.0</ele><time>2026-05-02T17:27:53.999Z</time></trkpt><trkpt lat="44.009796366250825" lon="12.516110390799378"><ele>83.0</ele><time>2026-05-02T17:27:55.999Z</time></trkpt><trkpt lat="44.009885552243745" lon="12.51609226674966"><ele>84.0</ele><time>2026-05-02T17:27:58.999Z</time></trkpt><trkpt lat="44.0099790659912" lon="12.516068908411553"><ele>85.0</ele><time>2026-05-02T17:28:01.999Z</time></trkpt><trkpt lat="44.01004561085857" lon="12.516063059480043"><ele>85.0</ele><time>2026-05-02T17:28:04.999Z</time></trkpt><trkpt lat="44.01011612750485" lon="12.516045045748497"><ele>85.0</ele><time>2026-05-02T17:28:07.999Z</time></trkpt><trkpt lat="44.0101790418731" lon="12.516034151668585"><ele>85.0</ele><time>2026-05-02T17:28:09.999Z</time></trkpt><trkpt lat="44.01026966457494" lon="12.516022187204042"><ele>85.0</ele><time>2026-05-02T17:28:13.999Z</time></trkpt><trkpt lat="44.010347385464634" lon="12.516017188962984"><ele>85.0</ele><time>2026-05-02T17:28:17Z</time></trkpt><trkpt lat="44.01043757612935" lon="12.516013505770637"><ele>85.0</ele><time>2026-05-02T17:28:20Z</time></trkpt><trkpt lat="44.010509298731655" lon="12.51598825817957"><ele>85.0</ele><time>2026-05-02T17:28:23Z</time></trkpt><trkpt lat="44.01058434302912" lon="12.515994492007058"><ele>85.0</ele><time>2026-05-02T17:28:26Z</time></trkpt><trkpt lat="44.01065400009309" lon="12.515985923562104"><ele>85.0</ele><time>2026-05-02T17:28:29Z</time></trkpt><trkpt lat="44.010736357076226" lon="12.515985366194391"><ele>85.0</ele><time>2026-05-02T17:28:32Z</time></trkpt><trkpt lat="44.01083118875947" lon="12.515982581008872"><ele>85.0</ele><time>2026-05-02T17:28:35Z</time></trkpt><trkpt lat="44.01090143984241" lon="12.5159737603338"><ele>85.0</ele><time>2026-05-02T17:28:37Z</time></trkpt><trkpt lat="44.01097297968387" lon="12.515975527651502"><ele>84.83333333333333</ele><time>2026-05-02T17:28:39Z</time></trkpt><trkpt lat="44.01106554601467" lon="12.515966405625502"><ele>84.66666666666666</ele><time>2026-05-02T17:28:42Z</time></trkpt><trkpt lat="44.011147317217514" lon="12.51596696950503"><ele>84.5</ele><time>2026-05-02T17:28:44Z</time></trkpt><trkpt lat="44.01122601633948" lon="12.515956137494243"><ele>84.33333333333333</ele><time>2026-05-02T17:28:46Z</time></trkpt><trkpt lat="44.01130889158971" lon="12.515954836166896"><ele>84.16666666666667</ele><time>2026-05-02T17:28:48Z</time></trkpt><trkpt lat="44.0113908370179" lon="12.515947112248663"><ele>84.0</ele><time>2026-05-02T17:28:50Z</time></trkpt><trkpt lat="44.011465065555505" lon="12.51594324309081"><ele>84.0</ele><time>2026-05-02T17:28:52Z</time></trkpt><trkpt lat="44.011535633930414" lon="12.515933653023351"><ele>84.0</ele><time>2026-05-02T17:28:54Z</time></trkpt><trkpt lat="44.01161857262693" lon="12.515933674239953"><ele>84.0</ele><time>2026-05-02T17:28:56Z</time></trkpt><trkpt lat="44.0116902012167" lon="12.515925840227098"><ele>84.0</ele><time>2026-05-02T17:28:58Z</time></trkpt><trkpt lat="44.01175472134016" lon="12.51592479781683"><ele>84.0</ele><time>2026-05-02T17:29:00Z</time></trkpt><trkpt lat="44.011824021478915" lon="12.515926761490064"><ele>84.0</ele><time>2026-05-02T17:29:02Z</time></trkpt><trkpt lat="44.01192416450545" lon="12.515905680883003"><ele>84.66666666666667</ele><time>2026-05-02T17:29:05Z</time></trkpt><trkpt lat="44.01198753548089" lon="12.515904985636146"><ele>85.33333333333333</ele><time>2026-05-02T17:29:07Z</time></trkpt><trkpt lat="44.01206850854911" lon="12.515914667938336"><ele>86.0</ele><time>2026-05-02T17:29:10Z</time></trkpt><trkpt lat="44.012152922888745" lon="12.515909907743218"><ele>86.66666666666666</ele><time>2026-05-02T17:29:13Z</time></trkpt><trkpt lat="44.012232806687926" lon="12.515893047557041"><ele>87.33333333333333</ele><time>2026-05-02T17:29:16Z</time></trkpt><trkpt lat="44.01231473169642" lon="12.515892563875585"><ele>88.0</ele><time>2026-05-02T17:29:19Z</time></trkpt><trkpt lat="44.01238716889962" lon="12.515884157090424"><ele>88.0</ele><time>2026-05-02T17:29:22Z</time></trkpt><trkpt lat="44.01247562777344" lon="12.515887221785293"><ele>88.0</ele><time>2026-05-02T17:29:25Z</time></trkpt><trkpt lat="44.012562920653295" lon="12.515882674249964"><ele>88.0</ele><time>2026-05-02T17:29:28Z</time></trkpt><trkpt lat="44.01264020824677" lon="12.515875086395924"><ele>88.0</ele><time>2026-05-02T17:29:30Z</time></trkpt><trkpt lat="44.01273324963633" lon="12.515855002708538"><ele>88.0</ele><time>2026-05-02T17:29:33Z</time></trkpt><trkpt lat="44.0128037198297" lon="12.515829834741442"><ele>88.0</ele><time>2026-05-02T17:29:35Z</time></trkpt><trkpt lat="44.012874444821186" lon="12.515832547011634"><ele>88.33333333333333</ele><time>2026-05-02T17:29:37Z</time></trkpt><trkpt lat="44.01297087118118" lon="12.515828006351429"><ele>88.66666666666666</ele><time>2026-05-02T17:29:40Z</time></trkpt><trkpt lat="44.01304587220252" lon="12.5158172488217"><ele>89.0</ele><time>2026-05-02T17:29:42Z</time></trkpt><trkpt lat="44.01312371631608" lon="12.515813934399748"><ele>89.33333333333333</ele><time>2026-05-02T17:29:44Z</time></trkpt><trkpt lat="44.01319760653655" lon="12.51580037408466"><ele>89.66666666666667</ele><time>2026-05-02T17:29:46Z</time></trkpt><trkpt lat="44.01327668087108" lon="12.515800728991668"><ele>90.0</ele><time>2026-05-02T17:29:48Z</time></trkpt><trkpt lat="44.01335746896387" lon="12.515802375659263"><ele>90.0</ele><time>2026-05-02T17:29:50Z</time></trkpt><trkpt lat="44.013440295304434" lon="12.51580649127886"><ele>90.0</ele><time>2026-05-02T17:29:52Z</time></trkpt><trkpt lat="44.013515466426696" lon="12.515819849731049"><ele>90.0</ele><time>2026-05-02T17:29:53.999Z</time></trkpt><trkpt lat="44.013603385988084" lon="12.515802686015826"><ele>90.0</ele><time>2026-05-02T17:29:55.999Z</time></trkpt><trkpt lat="44.01368052260509" lon="12.51580017504859"><ele>90.0</ele><time>2026-05-02T17:29:57.999Z</time></trkpt><trkpt lat="44.01375146618763" lon="12.515804635509369"><ele>90.0</ele><time>2026-05-02T17:29:59.999Z</time></trkpt><trkpt lat="44.013823294056635" lon="12.515820628177897"><ele>90.0</ele><time>2026-05-02T17:30:01.999Z</time></trkpt><trkpt lat="44.01390847964035" lon="12.515828401238249"><ele>90.0</ele><time>2026-05-02T17:30:05.999Z</time></trkpt><trkpt lat="44.013970824937324" lon="12.51584579321979"><ele>90.0</ele><time>2026-05-02T17:30:08.999Z</time></trkpt><trkpt lat="44.014040495464585" lon="12.515885459014953"><ele>90.0</ele><time>2026-05-02T17:30:12.999Z</time></trkpt><trkpt lat="44.01411385055431" lon="12.515915368811472"><ele>90.0</ele><time>2026-05-02T17:30:16.999Z</time></trkpt><trkpt lat="44.014176609193946" lon="12.515942803489638"><ele>90.0</ele><time>2026-05-02T17:30:20.999Z</time></trkpt><trkpt lat="44.014246201878386" lon="12.515990746687102"><ele>90.0</ele><time>2026-05-02T17:30:26Z</time></trkpt><trkpt lat="44.01430963499648" lon="12.516031669099684"><ele>90.0</ele><time>2026-05-02T17:30:31Z</time></trkpt><trkpt lat="44.01436699419361" lon="12.516101472072256"><ele>90.0</ele><time>2026-05-02T17:30:36Z</time></trkpt><trkpt lat="44.01443006908057" lon="12.516162649694392"><ele>90.0</ele><time>2026-05-02T17:30:41Z</time></trkpt><trkpt lat="44.014478222600424" lon="12.516225708532756"><ele>90.0</ele><time>2026-05-02T17:30:45Z</time></trkpt><trkpt lat="44.01452869134123" lon="12.516285285656053"><ele>90.0</ele><time>2026-05-02T17:30:49Z</time></trkpt><trkpt lat="44.014573639038794" lon="12.51635604211737"><ele>90.0</ele><time>2026-05-02T17:30:53Z</time></trkpt><trkpt lat="44.01461103363009" lon="12.516426572238917"><ele>90.0</ele><time>2026-05-02T17:30:57Z</time></trkpt><trkpt lat="44.01465638364853" lon="12.516497454431148"><ele>90.0</ele><time>2026-05-02T17:31:01Z</time></trkpt><trkpt lat="44.01470677196533" lon="12.516563360425627"><ele>90.0</ele><time>2026-05-02T17:31:05Z</time></trkpt><trkpt lat="44.01476465473226" lon="12.516623754930574"><ele>90.0</ele><time>2026-05-02T17:31:09Z</time></trkpt><trkpt lat="44.014831415415294" lon="12.516695029732775"><ele>90.0</ele><time>2026-05-02T17:31:13Z</time></trkpt><trkpt lat="44.01489705168799" lon="12.51675060234236"><ele>90.0</ele><time>2026-05-02T17:31:16Z</time></trkpt><trkpt lat="44.014965318314005" lon="12.516810052945493"><ele>90.0</ele><time>2026-05-02T17:31:19Z</time></trkpt><trkpt lat="44.01503312843272" lon="12.516856726961608"><ele>91.16666666666667</ele><time>2026-05-02T17:31:21Z</time></trkpt><trkpt lat="44.01510517714795" lon="12.516915505782523"><ele>92.33333333333334</ele><time>2026-05-02T17:31:24Z</time></trkpt><trkpt lat="44.015169474652666" lon="12.516959593146513"><ele>93.5</ele><time>2026-05-02T17:31:26Z</time></trkpt><trkpt lat="44.01523242510397" lon="12.51700670926027"><ele>94.66666666666667</ele><time>2026-05-02T17:31:28Z</time></trkpt><trkpt lat="44.015317407781424" lon="12.51706110392998"><ele>95.83333333333334</ele><time>2026-05-02T17:31:31Z</time></trkpt><trkpt lat="44.01538603958652" lon="12.517117694810839"><ele>97.0</ele><time>2026-05-02T17:31:33Z</time></trkpt><trkpt lat="44.01546349198222" lon="12.51717071737346"><ele>97.00000000000001</ele><time>2026-05-02T17:31:36Z</time></trkpt><trkpt lat="44.015546421858495" lon="12.517234304602923"><ele>97.0</ele><time>2026-05-02T17:31:39Z</time></trkpt><trkpt lat="44.01561592500872" lon="12.51728088563662"><ele>97.0</ele><time>2026-05-02T17:31:41Z</time></trkpt><trkpt lat="44.015693310234965" lon="12.51733884515386"><ele>97.0</ele><time>2026-05-02T17:31:43Z</time></trkpt><trkpt lat="44.0157640398866" lon="12.517375675418174"><ele>97.00000000000001</ele><time>2026-05-02T17:31:45Z</time></trkpt><trkpt lat="44.01582655677513" lon="12.51742390538384"><ele>97.0</ele><time>2026-05-02T17:31:47Z</time></trkpt><trkpt lat="44.01590504717003" lon="12.517491376728389"><ele>97.42857142857143</ele><time>2026-05-02T17:31:50Z</time></trkpt><trkpt lat="44.015962033632555" lon="12.517542978842311"><ele>97.85714285714286</ele><time>2026-05-02T17:31:52Z</time></trkpt><trkpt lat="44.01602356190671" lon="12.517585414438024"><ele>98.28571428571429</ele><time>2026-05-02T17:31:53.999Z</time></trkpt><trkpt lat="44.01608498180318" lon="12.51762785380295"><ele>98.71428571428572</ele><time>2026-05-02T17:31:55.999Z</time></trkpt><trkpt lat="44.016148161203986" lon="12.517677745231184"><ele>99.14285714285714</ele><time>2026-05-02T17:31:57.999Z</time></trkpt><trkpt lat="44.01622040979115" lon="12.51773633580367"><ele>99.57142857142858</ele><time>2026-05-02T17:31:59.999Z</time></trkpt><trkpt lat="44.01628492714163" lon="12.51778060471221"><ele>100.0</ele><time>2026-05-02T17:32:01.999Z</time></trkpt><trkpt lat="44.01637201952237" lon="12.517837702668269"><ele>100.00000000000001</ele><time>2026-05-02T17:32:04.999Z</time></trkpt><trkpt lat="44.01643994942971" lon="12.517893928532537"><ele>100.0</ele><time>2026-05-02T17:32:07.999Z</time></trkpt><trkpt lat="44.01648401706133" lon="12.51796690672535"><ele>100.0</ele><time>2026-05-02T17:32:09.999Z</time></trkpt><trkpt lat="44.016554353640714" lon="12.518021485676032"><ele>100.0</ele><time>2026-05-02T17:32:12.999Z</time></trkpt><trkpt lat="44.01663259024822" lon="12.518082374280564"><ele>100.00000000000001</ele><time>2026-05-02T17:32:15.999Z</time></trkpt><trkpt lat="44.01671664401499" lon="12.518147790160887"><ele>100.0</ele><time>2026-05-02T17:32:18.999Z</time></trkpt><trkpt lat="44.01678109345422" lon="12.51819794873245"><ele>100.14285714285715</ele><time>2026-05-02T17:32:20.999Z</time></trkpt><trkpt lat="44.016842082337824" lon="12.518246319594137"><ele>100.28571428571429</ele><time>2026-05-02T17:32:22.999Z</time></trkpt><trkpt lat="44.016903401876064" lon="12.51829787679631"><ele>100.42857142857143</ele><time>2026-05-02T17:32:24.999Z</time></trkpt><trkpt lat="44.016965110200736" lon="12.518358230923669"><ele>100.57142857142858</ele><time>2026-05-02T17:32:26.999Z</time></trkpt><trkpt lat="44.01702117785782" lon="12.518421665093324"><ele>100.71428571428571</ele><time>2026-05-02T17:32:29Z</time></trkpt><trkpt lat="44.01708728595181" lon="12.51847890639851"><ele>100.85714285714286</ele><time>2026-05-02T17:32:31Z</time></trkpt><trkpt lat="44.01713494025738" lon="12.51855763972393"><ele>101.0</ele><time>2026-05-02T17:32:33Z</time></trkpt><trkpt lat="44.01717725383872" lon="12.518643017488412"><ele>100.6</ele><time>2026-05-02T17:32:35Z</time></trkpt><trkpt lat="44.01720217574953" lon="12.518742015487344"><ele>100.19999999999999</ele><time>2026-05-02T17:32:37Z</time></trkpt><trkpt lat="44.0172387230747" lon="12.518839044959602"><ele>99.80000000000001</ele><time>2026-05-02T17:32:39Z</time></trkpt><trkpt lat="44.01727428429754" lon="12.518945973883474"><ele>99.4</ele><time>2026-05-02T17:32:41Z</time></trkpt><trkpt lat="44.01731597433294" lon="12.519071331517964"><ele>99.0</ele><time>2026-05-02T17:32:43Z</time></trkpt><trkpt lat="44.01736842355814" lon="12.51922523436467"><ele>99.0</ele><time>2026-05-02T17:32:45Z</time></trkpt><trkpt lat="44.017398212101384" lon="12.519311805889089"><ele>99.0</ele><time>2026-05-02T17:32:46Z</time></trkpt><trkpt lat="44.01742894201655" lon="12.51940252530846"><ele>99.0</ele><time>2026-05-02T17:32:47Z</time></trkpt><trkpt lat="44.017460788599" lon="12.519496921480982"><ele>99.0</ele><time>2026-05-02T17:32:48Z</time></trkpt><trkpt lat="44.01749589441297" lon="12.519601997587264"><ele>99.0</ele><time>2026-05-02T17:32:49Z</time></trkpt><trkpt lat="44.01753295340453" lon="12.519712919802249"><ele>99.0</ele><time>2026-05-02T17:32:50Z</time></trkpt><trkpt lat="44.01757245179654" lon="12.519831143448192"><ele>97.6</ele><time>2026-05-02T17:32:51Z</time></trkpt><trkpt lat="44.017612973363356" lon="12.51995242958713"><ele>96.2</ele><time>2026-05-02T17:32:52Z</time></trkpt><trkpt lat="44.017655377144195" lon="12.520080220109664"><ele>94.8</ele><time>2026-05-02T17:32:53Z</time></trkpt><trkpt lat="44.01769919139509" lon="12.520213937200442"><ele>93.39999999999999</ele><time>2026-05-02T17:32:54Z</time></trkpt><trkpt lat="44.01774426461378" lon="12.520350122563073"><ele>92.0</ele><time>2026-05-02T17:32:55Z</time></trkpt><trkpt lat="44.01779111520568" lon="12.520487257379724"><ele>90.8</ele><time>2026-05-02T17:32:56Z</time></trkpt><trkpt lat="44.017839632588775" lon="12.520624506376596"><ele>89.6</ele><time>2026-05-02T17:32:57Z</time></trkpt><trkpt lat="44.01788839670775" lon="12.520761645099782"><ele>88.39999999999999</ele><time>2026-05-02T17:32:58Z</time></trkpt><trkpt lat="44.01793894825552" lon="12.52090021515728"><ele>87.19999999999999</ele><time>2026-05-02T17:32:59Z</time></trkpt><trkpt lat="44.01799032968869" lon="12.521035071085432"><ele>86.0</ele><time>2026-05-02T17:33:00Z</time></trkpt><trkpt lat="44.01805612774977" lon="12.521153067601558"><ele>84.2</ele><time>2026-05-02T17:33:01Z</time></trkpt><trkpt lat="44.018108163673496" lon="12.521274500375474"><ele>82.39999999999999</ele><time>2026-05-02T17:33:02Z</time></trkpt><trkpt lat="44.01813830318362" lon="12.521386599634985"><ele>80.6</ele><time>2026-05-02T17:33:03Z</time></trkpt><trkpt lat="44.018194418622734" lon="12.521514905765558"><ele>78.8</ele><time>2026-05-02T17:33:05Z</time></trkpt><trkpt lat="44.018125565611854" lon="12.521626318093992"><ele>77.0</ele><time>2026-05-02T17:33:08Z</time></trkpt><trkpt lat="44.01809308619538" lon="12.521745410155743"><ele>77.0</ele><time>2026-05-02T17:33:10Z</time></trkpt><trkpt lat="44.01805467037729" lon="12.521882429500328"><ele>77.0</ele><time>2026-05-02T17:33:12Z</time></trkpt><trkpt lat="44.01802057175614" lon="12.52201195880382"><ele>77.0</ele><time>2026-05-02T17:33:14Z</time></trkpt><trkpt lat="44.018003272732024" lon="12.52216107818903"><ele>77.0</ele><time>2026-05-02T17:33:16Z</time></trkpt><trkpt lat="44.01799040887063" lon="12.522329195564398"><ele>77.0</ele><time>2026-05-02T17:33:17Z</time></trkpt><trkpt lat="44.01800121314358" lon="12.522462734075633"><ele>76.0</ele><time>2026-05-02T17:33:18Z</time></trkpt><trkpt lat="44.01798040478397" lon="12.522571807501253"><ele>75.0</ele><time>2026-05-02T17:33:19Z</time></trkpt><trkpt lat="44.01797608465129" lon="12.522678116011484"><ele>74.0</ele><time>2026-05-02T17:33:20Z</time></trkpt><trkpt lat="44.01797121428681" lon="12.5227979644096"><ele>73.0</ele><time>2026-05-02T17:33:21Z</time></trkpt><trkpt lat="44.01796660047606" lon="12.52291149967175"><ele>72.0</ele><time>2026-05-02T17:33:22Z</time></trkpt><trkpt lat="44.017960880664894" lon="12.52302466694475"><ele>71.0</ele><time>2026-05-02T17:33:23Z</time></trkpt><trkpt lat="44.01795364979401" lon="12.523126147795129"><ele>70.83333333333334</ele><time>2026-05-02T17:33:24Z</time></trkpt><trkpt lat="44.01794572070866" lon="12.523223104161271"><ele>70.66666666666667</ele><time>2026-05-02T17:33:25Z</time></trkpt><trkpt lat="44.017933382782914" lon="12.52330964892886"><ele>70.5</ele><time>2026-05-02T17:33:26Z</time></trkpt><trkpt lat="44.01789687110692" lon="12.523453820537739"><ele>70.33333333333333</ele><time>2026-05-02T17:33:28Z</time></trkpt><trkpt lat="44.017838209121656" lon="12.523535193050115"><ele>70.16666666666666</ele><time>2026-05-02T17:33:30Z</time></trkpt><trkpt lat="44.017773297603455" lon="12.523629464199338"><ele>70.0</ele><time>2026-05-02T17:33:32Z</time></trkpt><trkpt lat="44.01770525903733" lon="12.5237005565272"><ele>69.42857142857143</ele><time>2026-05-02T17:33:35Z</time></trkpt><trkpt lat="44.01765748033029" lon="12.523765006097786"><ele>68.85714285714286</ele><time>2026-05-02T17:33:37Z</time></trkpt><trkpt lat="44.01760400409757" lon="12.523826818561451"><ele>68.28571428571428</ele><time>2026-05-02T17:33:40Z</time></trkpt><trkpt lat="44.01755135176683" lon="12.523883111959114"><ele>67.71428571428572</ele><time>2026-05-02T17:33:43Z</time></trkpt><trkpt lat="44.01750351475747" lon="12.52395671445272"><ele>67.14285714285714</ele><time>2026-05-02T17:33:48Z</time></trkpt><trkpt lat="44.01746335687599" lon="12.52403149525132"><ele>66.57142857142857</ele><time>2026-05-02T17:34:48Z</time></trkpt><trkpt lat="44.017409657415534" lon="12.52409645387786"><ele>66.0</ele><time>2026-05-02T17:34:52Z</time></trkpt><trkpt lat="44.017362257731314" lon="12.524162287709226"><ele>66.0</ele><time>2026-05-02T17:34:55Z</time></trkpt><trkpt lat="44.01729808547862" lon="12.524261782333252"><ele>66.0</ele><time>2026-05-02T17:34:58Z</time></trkpt><trkpt lat="44.017244094745365" lon="12.524345577553287"><ele>66.0</ele><time>2026-05-02T17:35:00Z</time></trkpt><trkpt lat="44.01719864912031" lon="12.524435614150606"><ele>66.0</ele><time>2026-05-02T17:35:02Z</time></trkpt><trkpt lat="44.01713278057616" lon="12.524535420036429"><ele>66.0</ele><time>2026-05-02T17:35:04Z</time></trkpt><trkpt lat="44.01707303743272" lon="12.524598819327078"><ele>66.0</ele><time>2026-05-02T17:35:06Z</time></trkpt><trkpt lat="44.0170252471632" lon="12.524670265715647"><ele>67.14285714285714</ele><time>2026-05-02T17:35:08Z</time></trkpt><trkpt lat="44.016960155624666" lon="12.52475120098937"><ele>68.28571428571429</ele><time>2026-05-02T17:35:11Z</time></trkpt><trkpt lat="44.01691505661862" lon="12.524813468696802"><ele>69.42857142857143</ele><time>2026-05-02T17:35:14Z</time></trkpt><trkpt lat="44.01686073625885" lon="12.524896200618624"><ele>70.57142857142857</ele><time>2026-05-02T17:35:18Z</time></trkpt><trkpt lat="44.01681704735132" lon="12.524984708430166"><ele>71.71428571428571</ele><time>2026-05-02T17:35:21Z</time></trkpt><trkpt lat="44.016769312092215" lon="12.525044347300314"><ele>72.85714285714286</ele><time>2026-05-02T17:35:24Z</time></trkpt><trkpt lat="44.01672636734467" lon="12.525120282608848"><ele>74.0</ele><time>2026-05-02T17:35:27Z</time></trkpt><trkpt lat="44.01668092645077" lon="12.525190472350014"><ele>74.14285714285714</ele><time>2026-05-02T17:35:30Z</time></trkpt><trkpt lat="44.01664625926538" lon="12.525264384233504"><ele>74.28571428571428</ele><time>2026-05-02T17:35:33Z</time></trkpt><trkpt lat="44.016600880361636" lon="12.525344694899312"><ele>74.42857142857142</ele><time>2026-05-02T17:35:37Z</time></trkpt><trkpt lat="44.01655434342917" lon="12.525425629430075"><ele>74.57142857142857</ele><time>2026-05-02T17:35:41Z</time></trkpt><trkpt lat="44.01651277691377" lon="12.525502886026876"><ele>74.71428571428571</ele><time>2026-05-02T17:35:45Z</time></trkpt><trkpt lat="44.01647001886654" lon="12.525582098584804"><ele>74.85714285714285</ele><time>2026-05-02T17:35:49.999Z</time></trkpt><trkpt lat="44.01642937375169" lon="12.525670161537011"><ele>75.0</ele><time>2026-05-02T17:35:55.999Z</time></trkpt><trkpt lat="44.016379814135924" lon="12.525749652375053"><ele>75.0</ele><time>2026-05-02T17:36:01.999Z</time></trkpt><trkpt lat="44.0163386033311" lon="12.525828762964576"><ele>75.0</ele><time>2026-05-02T17:36:06.999Z</time></trkpt><trkpt lat="44.0163109930063" lon="12.525920130276168"><ele>75.0</ele><time>2026-05-02T17:36:10.999Z</time></trkpt><trkpt lat="44.016280038946775" lon="12.52600497261433"><ele>75.0</ele><time>2026-05-02T17:36:13.999Z</time></trkpt><trkpt lat="44.016240378482635" lon="12.526093475552171"><ele>75.0</ele><time>2026-05-02T17:36:15.999Z</time></trkpt><trkpt lat="44.0161928964147" lon="12.526211360918651"><ele>75.0</ele><time>2026-05-02T17:36:17.999Z</time></trkpt><trkpt lat="44.016141565734266" lon="12.526335869802697"><ele>75.0</ele><time>2026-05-02T17:36:19.999Z</time></trkpt><trkpt lat="44.01608890831164" lon="12.52646315683123"><ele>75.0</ele><time>2026-05-02T17:36:21.999Z</time></trkpt><trkpt lat="44.01601189398241" lon="12.526561370452312"><ele>75.0</ele><time>2026-05-02T17:36:23.999Z</time></trkpt><trkpt lat="44.0159695419863" lon="12.52667339324564"><ele>75.0</ele><time>2026-05-02T17:36:25.999Z</time></trkpt><trkpt lat="44.015927668735294" lon="12.52679907060676"><ele>75.0</ele><time>2026-05-02T17:36:27.999Z</time></trkpt><trkpt lat="44.01589615359995" lon="12.526920278115481"><ele>75.0</ele><time>2026-05-02T17:36:29.999Z</time></trkpt><trkpt lat="44.01586297966717" lon="12.52701066999617"><ele>75.0</ele><time>2026-05-02T17:36:31.999Z</time></trkpt><trkpt lat="44.01580812824745" lon="12.527059647413356"><ele>75.0</ele><time>2026-05-02T17:36:33.999Z</time></trkpt><trkpt lat="44.01575796024289" lon="12.52712489187315"><ele>75.0</ele><time>2026-05-02T17:36:35.999Z</time></trkpt><trkpt lat="44.015696769551894" lon="12.527206471342032"><ele>75.0</ele><time>2026-05-02T17:36:38.999Z</time></trkpt><trkpt lat="44.01564179699805" lon="12.527297878166541"><ele>75.0</ele><time>2026-05-02T17:36:43Z</time></trkpt><trkpt lat="44.01559119171948" lon="12.527377512905383"><ele>74.85714285714285</ele><time>2026-05-02T17:36:46Z</time></trkpt><trkpt lat="44.015547297007544" lon="12.527442960964803"><ele>74.71428571428571</ele><time>2026-05-02T17:36:49Z</time></trkpt><trkpt lat="44.015493230651366" lon="12.527517365755724"><ele>74.57142857142857</ele><time>2026-05-02T17:36:52Z</time></trkpt><trkpt lat="44.01544280596492" lon="12.527592480944403"><ele>74.42857142857142</ele><time>2026-05-02T17:36:55Z</time></trkpt><trkpt lat="44.01539233341616" lon="12.527662336715894"><ele>74.28571428571428</ele><time>2026-05-02T17:36:58Z</time></trkpt><trkpt lat="44.015346430172364" lon="12.527741108788469"><ele>74.14285714285714</ele><time>2026-05-02T17:37:01Z</time></trkpt><trkpt lat="44.01528604324654" lon="12.527817000158267"><ele>74.0</ele><time>2026-05-02T17:37:04Z</time></trkpt><trkpt lat="44.01522082891896" lon="12.52790694667979"><ele>74.0</ele><time>2026-05-02T17:37:07Z</time></trkpt><trkpt lat="44.01516111482755" lon="12.527991056005"><ele>74.0</ele><time>2026-05-02T17:37:09Z</time></trkpt><trkpt lat="44.01508410875957" lon="12.528088182942772"><ele>74.0</ele><time>2026-05-02T17:37:11Z</time></trkpt><trkpt lat="44.01498218194786" lon="12.52818846167847"><ele>74.0</ele><time>2026-05-02T17:37:13Z</time></trkpt><trkpt lat="44.014938663030144" lon="12.528270702862505"><ele>74.0</ele><time>2026-05-02T17:37:14Z</time></trkpt><trkpt lat="44.0148842087582" lon="12.528341732835827"><ele>73.0</ele><time>2026-05-02T17:37:15Z</time></trkpt><trkpt lat="44.01482512021843" lon="12.528414784086655"><ele>72.0</ele><time>2026-05-02T17:37:16Z</time></trkpt><trkpt lat="44.01476421140799" lon="12.528490858214097"><ele>71.0</ele><time>2026-05-02T17:37:17Z</time></trkpt><trkpt lat="44.01470411325031" lon="12.528570362352527"><ele>70.0</ele><time>2026-05-02T17:37:18Z</time></trkpt><trkpt lat="44.01463924153283" lon="12.528650093477946"><ele>69.0</ele><time>2026-05-02T17:37:19Z</time></trkpt><trkpt lat="44.01457505517057" lon="12.528735141836249"><ele>68.0</ele><time>2026-05-02T17:37:20Z</time></trkpt><trkpt lat="44.01451118670332" lon="12.528817817163127"><ele>68.0</ele><time>2026-05-02T17:37:21Z</time></trkpt><trkpt lat="44.0144457468551" lon="12.52890235613296"><ele>68.0</ele><time>2026-05-02T17:37:22Z</time></trkpt><trkpt lat="44.014380477940584" lon="12.528988579428113"><ele>68.0</ele><time>2026-05-02T17:37:23Z</time></trkpt><trkpt lat="44.014316391725885" lon="12.52907195188119"><ele>68.0</ele><time>2026-05-02T17:37:24Z</time></trkpt><trkpt lat="44.01424370718854" lon="12.529133897169283"><ele>68.0</ele><time>2026-05-02T17:37:25Z</time></trkpt><trkpt lat="44.014178956976814" lon="12.529233128812397"><ele>68.0</ele><time>2026-05-02T17:37:26Z</time></trkpt><trkpt lat="44.01410248650238" lon="12.529282740893837"><ele>68.0</ele><time>2026-05-02T17:37:27Z</time></trkpt><trkpt lat="44.01403145424066" lon="12.52933634137642"><ele>68.0</ele><time>2026-05-02T17:37:28Z</time></trkpt><trkpt lat="44.01396127605686" lon="12.52939602785884"><ele>68.0</ele><time>2026-05-02T17:37:29Z</time></trkpt><trkpt lat="44.01389032128737" lon="12.529427532513623"><ele>68.0</ele><time>2026-05-02T17:37:30Z</time></trkpt><trkpt lat="44.01382386650773" lon="12.529453659359376"><ele>68.0</ele><time>2026-05-02T17:37:31Z</time></trkpt><trkpt lat="44.01376024720842" lon="12.529481103190802"><ele>68.0</ele><time>2026-05-02T17:37:32Z</time></trkpt><trkpt lat="44.01364826778554" lon="12.529466911834382"><ele>68.0</ele><time>2026-05-02T17:37:34Z</time></trkpt><trkpt lat="44.01360835343727" lon="12.529537242539583"><ele>68.0</ele><time>2026-05-02T17:37:35Z</time></trkpt><trkpt lat="44.01353856135851" lon="12.529591432430484"><ele>68.0</ele><time>2026-05-02T17:37:37Z</time></trkpt><trkpt lat="44.01345447885507" lon="12.529631439736953"><ele>68.0</ele><time>2026-05-02T17:37:40Z</time></trkpt><trkpt lat="44.01337302516479" lon="12.5296832700453"><ele>68.0</ele><time>2026-05-02T17:37:43Z</time></trkpt><trkpt lat="44.013292580791806" lon="12.529745372110666"><ele>68.0</ele><time>2026-05-02T17:37:46Z</time></trkpt><trkpt lat="44.01323732652995" lon="12.529801085241402"><ele>68.0</ele><time>2026-05-02T17:37:48Z</time></trkpt><trkpt lat="44.013177626401415" lon="12.529865341806417"><ele>68.0</ele><time>2026-05-02T17:37:50Z</time></trkpt><trkpt lat="44.013100692855105" lon="12.529935885271184"><ele>68.0</ele><time>2026-05-02T17:37:53Z</time></trkpt><trkpt lat="44.01305033238785" lon="12.530002815570231"><ele>68.0</ele><time>2026-05-02T17:37:55Z</time></trkpt><trkpt lat="44.01298054098811" lon="12.530080060099221"><ele>68.0</ele><time>2026-05-02T17:37:56.999Z</time></trkpt><trkpt lat="44.01288525727699" lon="12.530174122832298"><ele>68.0</ele><time>2026-05-02T17:37:58.999Z</time></trkpt><trkpt lat="44.012753767872994" lon="12.530238287849771"><ele>68.0</ele><time>2026-05-02T17:38:00.999Z</time></trkpt><trkpt lat="44.012685805131674" lon="12.530302568345205"><ele>68.0</ele><time>2026-05-02T17:38:01.999Z</time></trkpt><trkpt lat="44.01261192868445" lon="12.530371334141336"><ele>68.0</ele><time>2026-05-02T17:38:02.999Z</time></trkpt><trkpt lat="44.01253046782909" lon="12.530446689783242"><ele>68.0</ele><time>2026-05-02T17:38:03.999Z</time></trkpt><trkpt lat="44.01244795272451" lon="12.53052302067123"><ele>68.0</ele><time>2026-05-02T17:38:04.999Z</time></trkpt><trkpt lat="44.01237073456622" lon="12.530593273851554"><ele>66.33333333333334</ele><time>2026-05-02T17:38:05.999Z</time></trkpt><trkpt lat="44.01230373014555" lon="12.530680126470427"><ele>64.66666666666667</ele><time>2026-05-02T17:38:06.999Z</time></trkpt><trkpt lat="44.012226384779005" lon="12.530739640591834"><ele>63.0</ele><time>2026-05-02T17:38:07.999Z</time></trkpt><trkpt lat="44.012154685505" lon="12.530806423406071"><ele>61.33333333333333</ele><time>2026-05-02T17:38:08.999Z</time></trkpt><trkpt lat="44.012092762116644" lon="12.53087136027005"><ele>59.666666666666664</ele><time>2026-05-02T17:38:09.999Z</time></trkpt><trkpt lat="44.01203482803909" lon="12.530941750298483"><ele>58.0</ele><time>2026-05-02T17:38:10.999Z</time></trkpt><trkpt lat="44.01199583520697" lon="12.531036377747448"><ele>57.99999999999999</ele><time>2026-05-02T17:38:11.999Z</time></trkpt><trkpt lat="44.01195120092636" lon="12.5311420754582"><ele>58.0</ele><time>2026-05-02T17:38:12.999Z</time></trkpt><trkpt lat="44.01195236996714" lon="12.531281073886866"><ele>58.0</ele><time>2026-05-02T17:38:13.999Z</time></trkpt><trkpt lat="44.011949459419554" lon="12.531405674683775"><ele>58.0</ele><time>2026-05-02T17:38:14.999Z</time></trkpt><trkpt lat="44.01194810622825" lon="12.531533130411916"><ele>57.99999999999999</ele><time>2026-05-02T17:38:15.999Z</time></trkpt><trkpt lat="44.01194726147249" lon="12.531640265328843"><ele>58.0</ele><time>2026-05-02T17:38:16.999Z</time></trkpt><trkpt lat="44.01194637116223" lon="12.531753177650288"><ele>57.166666666666664</ele><time>2026-05-02T17:38:17.999Z</time></trkpt><trkpt lat="44.011945565117266" lon="12.531855403116932"><ele>56.33333333333333</ele><time>2026-05-02T17:38:18.999Z</time></trkpt><trkpt lat="44.011944824786426" lon="12.53194929438723"><ele>55.5</ele><time>2026-05-02T17:38:19.999Z</time></trkpt><trkpt lat="44.01194408735643" lon="12.532042817957326"><ele>54.66666666666667</ele><time>2026-05-02T17:38:20.999Z</time></trkpt><trkpt lat="44.01194281443748" lon="12.53220425430022"><ele>53.833333333333336</ele><time>2026-05-02T17:38:22.999Z</time></trkpt><trkpt lat="44.011940984473306" lon="12.532337834692925"><ele>53.0</ele><time>2026-05-02T17:38:24.999Z</time></trkpt><trkpt lat="44.011939250352995" lon="12.532454033557041"><ele>53.0</ele><time>2026-05-02T17:38:26.999Z</time></trkpt><trkpt lat="44.01194631638103" lon="12.532562625442717"><ele>53.0</ele><time>2026-05-02T17:38:28.999Z</time></trkpt><trkpt lat="44.01197745687982" lon="12.532676679905796"><ele>53.0</ele><time>2026-05-02T17:38:30.999Z</time></trkpt><trkpt lat="44.012035325413784" lon="12.532789468064315"><ele>53.0</ele><time>2026-05-02T17:38:32.999Z</time></trkpt><trkpt lat="44.012120250276524" lon="12.532920055840126"><ele>53.0</ele><time>2026-05-02T17:38:34.999Z</time></trkpt><trkpt lat="44.01216900021775" lon="12.53299503406855"><ele>53.2</ele><time>2026-05-02T17:38:35.999Z</time></trkpt><trkpt lat="44.01222618146935" lon="12.5330776121364"><ele>53.4</ele><time>2026-05-02T17:38:36.999Z</time></trkpt><trkpt lat="44.012288035931" lon="12.533163002885397"><ele>53.60000000000001</ele><time>2026-05-02T17:38:37.999Z</time></trkpt><trkpt lat="44.012356994691864" lon="12.533248159689808"><ele>53.800000000000004</ele><time>2026-05-02T17:38:38.999Z</time></trkpt><trkpt lat="44.01243630326885" lon="12.533344003361519"><ele>54.0</ele><time>2026-05-02T17:38:39.999Z</time></trkpt><trkpt lat="44.01251821498931" lon="12.533441937566417"><ele>52.6</ele><time>2026-05-02T17:38:40.999Z</time></trkpt><trkpt lat="44.012604579609565" lon="12.533543730380703"><ele>51.2</ele><time>2026-05-02T17:38:41.999Z</time></trkpt><trkpt lat="44.0126893396427" lon="12.533640444295774"><ele>49.800000000000004</ele><time>2026-05-02T17:38:42.999Z</time></trkpt><trkpt lat="44.012773083171524" lon="12.533728961398944"><ele>48.400000000000006</ele><time>2026-05-02T17:38:43.999Z</time></trkpt><trkpt lat="44.012855255298" lon="12.533814506276281"><ele>47.0</ele><time>2026-05-02T17:38:44.999Z</time></trkpt><trkpt lat="44.01294410393507" lon="12.533905320176538"><ele>45.0</ele><time>2026-05-02T17:38:46Z</time></trkpt><trkpt lat="44.01303683905197" lon="12.533997739197813"><ele>43.0</ele><time>2026-05-02T17:38:47Z</time></trkpt><trkpt lat="44.01312810741706" lon="12.534084788013791"><ele>41.0</ele><time>2026-05-02T17:38:48Z</time></trkpt><trkpt lat="44.013218536096986" lon="12.534170306875094"><ele>39.0</ele><time>2026-05-02T17:38:49Z</time></trkpt><trkpt lat="44.01332636533405" lon="12.5342398788203"><ele>37.25</ele><time>2026-05-02T17:38:50Z</time></trkpt><trkpt lat="44.01341723342066" lon="12.534347951513338"><ele>35.5</ele><time>2026-05-02T17:38:51Z</time></trkpt><trkpt lat="44.01349450368448" lon="12.534480296350186"><ele>33.75</ele><time>2026-05-02T17:38:52Z</time></trkpt><trkpt lat="44.01357305798659" lon="12.534604025134803"><ele>32.0</ele><time>2026-05-02T17:38:53Z</time></trkpt><trkpt lat="44.013645555458076" lon="12.534731499017772"><ele>31.0</ele><time>2026-05-02T17:38:54Z</time></trkpt><trkpt lat="44.01371505697884" lon="12.534857360133323"><ele>30.000000000000004</ele><time>2026-05-02T17:38:55Z</time></trkpt><trkpt lat="44.013781219663436" lon="12.534980024276443"><ele>29.000000000000004</ele><time>2026-05-02T17:38:56Z</time></trkpt><trkpt lat="44.01385772420068" lon="12.535087468607948"><ele>28.0</ele><time>2026-05-02T17:38:57Z</time></trkpt><trkpt lat="44.013911107717526" lon="12.535208251710719"><ele>27.0</ele><time>2026-05-02T17:38:58Z</time></trkpt><trkpt lat="44.013973180683244" lon="12.535318334018404"><ele>26.8</ele><time>2026-05-02T17:38:59Z</time></trkpt><trkpt lat="44.0140336009033" lon="12.535425496367898"><ele>26.6</ele><time>2026-05-02T17:39:00Z</time></trkpt><trkpt lat="44.01408691636767" lon="12.535534141410036"><ele>26.400000000000002</ele><time>2026-05-02T17:39:01Z</time></trkpt><trkpt lat="44.01413387417785" lon="12.535649844779037"><ele>26.200000000000003</ele><time>2026-05-02T17:39:02Z</time></trkpt><trkpt lat="44.01418678745773" lon="12.535750303662166"><ele>26.0</ele><time>2026-05-02T17:39:03Z</time></trkpt><trkpt lat="44.0142374177161" lon="12.535846428202868"><ele>25.999999999999996</ele><time>2026-05-02T17:39:04Z</time></trkpt><trkpt lat="44.01428333146643" lon="12.53594024025223"><ele>26.0</ele><time>2026-05-02T17:39:05Z</time></trkpt><trkpt lat="44.014333512232895" lon="12.536028070186864"><ele>26.0</ele><time>2026-05-02T17:39:06Z</time></trkpt><trkpt lat="44.01437068309456" lon="12.536119332305324"><ele>26.0</ele><time>2026-05-02T17:39:07Z</time></trkpt><trkpt lat="44.01440388441877" lon="12.536206967890648"><ele>25.999999999999996</ele><time>2026-05-02T17:39:08Z</time></trkpt><trkpt lat="44.01443479132746" lon="12.536286690526017"><ele>26.0</ele><time>2026-05-02T17:39:09Z</time></trkpt><trkpt lat="44.01449077092963" lon="12.536424055896598"><ele>26.0</ele><time>2026-05-02T17:39:11Z</time></trkpt><trkpt lat="44.01452217143212" lon="12.536562774938426"><ele>26.0</ele><time>2026-05-02T17:39:13Z</time></trkpt><trkpt lat="44.014529595045346" lon="12.536700167268716"><ele>26.0</ele><time>2026-05-02T17:39:15Z</time></trkpt><trkpt lat="44.01455303566023" lon="12.536868886462853"><ele>26.0</ele><time>2026-05-02T17:39:17Z</time></trkpt><trkpt lat="44.0145804636871" lon="12.537027226611432"><ele>26.0</ele><time>2026-05-02T17:39:19Z</time></trkpt><trkpt lat="44.01460146105044" lon="12.537185118288512"><ele>26.0</ele><time>2026-05-02T17:39:21Z</time></trkpt><trkpt lat="44.01462050139531" lon="12.537347137318315"><ele>26.0</ele><time>2026-05-02T17:39:23Z</time></trkpt><trkpt lat="44.01464344161028" lon="12.537496123281922"><ele>26.0</ele><time>2026-05-02T17:39:25Z</time></trkpt><trkpt lat="44.01466828841838" lon="12.537639458595663"><ele>26.0</ele><time>2026-05-02T17:39:27Z</time></trkpt><trkpt lat="44.01469243025541" lon="12.537794553898005"><ele>26.0</ele><time>2026-05-02T17:39:29Z</time></trkpt><trkpt lat="44.014728444426666" lon="12.537941037029368"><ele>25.4</ele><time>2026-05-02T17:39:31Z</time></trkpt><trkpt lat="44.01477069957154" lon="12.538086215909408"><ele>24.8</ele><time>2026-05-02T17:39:33Z</time></trkpt><trkpt lat="44.01481731489571" lon="12.538223880455405"><ele>24.2</ele><time>2026-05-02T17:39:35Z</time></trkpt><trkpt lat="44.01487134224904" lon="12.538356667238027"><ele>23.599999999999998</ele><time>2026-05-02T17:39:37Z</time></trkpt><trkpt lat="44.01490942872783" lon="12.538498592846768"><ele>23.0</ele><time>2026-05-02T17:39:39Z</time></trkpt><trkpt lat="44.01494250418536" lon="12.538629279375085"><ele>22.799999999999997</ele><time>2026-05-02T17:39:41Z</time></trkpt><trkpt lat="44.01498565925214" lon="12.538748182420989"><ele>22.6</ele><time>2026-05-02T17:39:43Z</time></trkpt><trkpt lat="44.01498119527205" lon="12.53887578151176"><ele>22.4</ele><time>2026-05-02T17:39:45Z</time></trkpt><trkpt lat="44.01498805219343" lon="12.539005037179903"><ele>22.200000000000003</ele><time>2026-05-02T17:39:47Z</time></trkpt><trkpt lat="44.01499187962672" lon="12.539141393361012"><ele>22.0</ele><time>2026-05-02T17:39:49Z</time></trkpt><trkpt lat="44.01499479437504" lon="12.539263774935222"><ele>23.0</ele><time>2026-05-02T17:39:51Z</time></trkpt><trkpt lat="44.01499770146823" lon="12.539385835065676"><ele>24.0</ele><time>2026-05-02T17:39:53Z</time></trkpt><trkpt lat="44.01500073855912" lon="12.539513354126573"><ele>25.000000000000004</ele><time>2026-05-02T17:39:55Z</time></trkpt><trkpt lat="44.01500301067662" lon="12.539637181120233"><ele>26.0</ele><time>2026-05-02T17:39:57Z</time></trkpt><trkpt lat="44.015020206545024" lon="12.539767631208113"><ele>27.0</ele><time>2026-05-02T17:39:59Z</time></trkpt><trkpt lat="44.01502358712694" lon="12.539899715526909"><ele>27.0</ele><time>2026-05-02T17:40:01Z</time></trkpt><trkpt lat="44.01502840892853" lon="12.540034993080624"><ele>27.000000000000004</ele><time>2026-05-02T17:40:03Z</time></trkpt><trkpt lat="44.01502945580545" lon="12.540166945442069"><ele>27.000000000000004</ele><time>2026-05-02T17:40:05Z</time></trkpt><trkpt lat="44.01503519514695" lon="12.540299650270855"><ele>27.0</ele><time>2026-05-02T17:40:06.999Z</time></trkpt><trkpt lat="44.01503798692068" lon="12.540425002961783"><ele>27.0</ele><time>2026-05-02T17:40:08.999Z</time></trkpt><trkpt lat="44.01503910210283" lon="12.540547231104064"><ele>27.0</ele><time>2026-05-02T17:40:10.999Z</time></trkpt><trkpt lat="44.01503936939179" lon="12.540674797282716"><ele>27.0</ele><time>2026-05-02T17:40:12.999Z</time></trkpt><trkpt lat="44.015042004600495" lon="12.540802965909823"><ele>27.0</ele><time>2026-05-02T17:40:14.999Z</time></trkpt><trkpt lat="44.01504389514204" lon="12.540920180014467"><ele>27.0</ele><time>2026-05-02T17:40:16.999Z</time></trkpt><trkpt lat="44.01504855149007" lon="12.541044143952435"><ele>27.0</ele><time>2026-05-02T17:40:18.999Z</time></trkpt><trkpt lat="44.01504863799771" lon="12.541161778106671"><ele>27.0</ele><time>2026-05-02T17:40:20.999Z</time></trkpt><trkpt lat="44.01505440115543" lon="12.541285573747297"><ele>26.8</ele><time>2026-05-02T17:40:22.999Z</time></trkpt><trkpt lat="44.01505751461136" lon="12.541409750142755"><ele>26.6</ele><time>2026-05-02T17:40:24.999Z</time></trkpt><trkpt lat="44.01505819530099" lon="12.541532482650783"><ele>26.400000000000002</ele><time>2026-05-02T17:40:26.999Z</time></trkpt><trkpt lat="44.01506432127972" lon="12.541658831999463"><ele>26.200000000000003</ele><time>2026-05-02T17:40:28.999Z</time></trkpt><trkpt lat="44.01506251591706" lon="12.54179055096525"><ele>26.0</ele><time>2026-05-02T17:40:30.999Z</time></trkpt><trkpt lat="44.015066814417395" lon="12.541915924853287"><ele>26.0</ele><time>2026-05-02T17:40:32.999Z</time></trkpt><trkpt lat="44.01506908968208" lon="12.542043264778828"><ele>26.0</ele><time>2026-05-02T17:40:34.999Z</time></trkpt><trkpt lat="44.01507088659886" lon="12.542176040891356"><ele>26.0</ele><time>2026-05-02T17:40:36.999Z</time></trkpt><trkpt lat="44.015072745163856" lon="12.542306270215422"><ele>26.0</ele><time>2026-05-02T17:40:38.999Z</time></trkpt><trkpt lat="44.015074967066596" lon="12.542435780641188"><ele>26.0</ele><time>2026-05-02T17:40:40.999Z</time></trkpt><trkpt lat="44.01507192469123" lon="12.542564776030437"><ele>25.6</ele><time>2026-05-02T17:40:42.999Z</time></trkpt><trkpt lat="44.01507641459682" lon="12.54268785088337"><ele>25.200000000000003</ele><time>2026-05-02T17:40:44.999Z</time></trkpt><trkpt lat="44.0150781880948" lon="12.542822448208828"><ele>24.799999999999997</ele><time>2026-05-02T17:40:46.999Z</time></trkpt><trkpt lat="44.01508829046637" lon="12.542962962913103"><ele>24.4</ele><time>2026-05-02T17:40:48.999Z</time></trkpt><trkpt lat="44.01509344856463" lon="12.543103916656491"><ele>24.0</ele><time>2026-05-02T17:40:50.999Z</time></trkpt><trkpt lat="44.01509273128768" lon="12.543248532029148"><ele>23.799999999999997</ele><time>2026-05-02T17:40:53Z</time></trkpt><trkpt lat="44.015095853265485" lon="12.543390909328972"><ele>23.599999999999998</ele><time>2026-05-02T17:40:55Z</time></trkpt><trkpt lat="44.015103027773144" lon="12.54352142535068"><ele>23.4</ele><time>2026-05-02T17:40:57Z</time></trkpt><trkpt lat="44.01510636921404" lon="12.543645877368641"><ele>23.2</ele><time>2026-05-02T17:40:59Z</time></trkpt><trkpt lat="44.01510434690804" lon="12.543763283182336"><ele>23.0</ele><time>2026-05-02T17:41:01Z</time></trkpt><trkpt lat="44.01510610296535" lon="12.543875404038118"><ele>23.0</ele><time>2026-05-02T17:41:03Z</time></trkpt><trkpt lat="44.01511284885845" lon="12.543990503630974"><ele>23.0</ele><time>2026-05-02T17:41:05Z</time></trkpt><trkpt lat="44.01511949514135" lon="12.544103812481914"><ele>23.0</ele><time>2026-05-02T17:41:07Z</time></trkpt><trkpt lat="44.01512405865541" lon="12.544213125583253"><ele>23.0</ele><time>2026-05-02T17:41:09Z</time></trkpt><trkpt lat="44.015126048201" lon="12.54432794619328"><ele>23.0</ele><time>2026-05-02T17:41:11Z</time></trkpt><trkpt lat="44.015116650270414" lon="12.544447873832219"><ele>23.0</ele><time>2026-05-02T17:41:13Z</time></trkpt><trkpt lat="44.01509402171592" lon="12.544544078508702"><ele>23.0</ele><time>2026-05-02T17:41:15Z</time></trkpt><trkpt lat="44.0149978851588" lon="12.54451544240638"><ele>23.0</ele><time>2026-05-02T17:41:17Z</time></trkpt><trkpt lat="44.01492422264419" lon="12.54440923554617"><ele>23.0</ele><time>2026-05-02T17:41:19Z</time></trkpt><trkpt lat="44.014832034241465" lon="12.544305892861532"><ele>23.0</ele><time>2026-05-02T17:41:21Z</time></trkpt><trkpt lat="44.01473427090948" lon="12.54423839603512"><ele>23.0</ele><time>2026-05-02T17:41:23Z</time></trkpt><trkpt lat="44.01462603832217" lon="12.544191766405044"><ele>22.599999999999998</ele><time>2026-05-02T17:41:25Z</time></trkpt><trkpt lat="44.01452849724744" lon="12.544147477050169"><ele>22.2</ele><time>2026-05-02T17:41:27Z</time></trkpt><trkpt lat="44.01443221104256" lon="12.544091711544954"><ele>21.8</ele><time>2026-05-02T17:41:29Z</time></trkpt><trkpt lat="44.014353304099004" lon="12.544031414999717"><ele>21.4</ele><time>2026-05-02T17:41:31Z</time></trkpt><trkpt lat="44.01428974728648" lon="12.543977657855974"><ele>21.0</ele><time>2026-05-02T17:41:33Z</time></trkpt><trkpt lat="44.01423217028426" lon="12.543898464078422"><ele>21.0</ele><time>2026-05-02T17:41:36Z</time></trkpt><trkpt lat="44.01418635319325" lon="12.543817950263916"><ele>21.0</ele><time>2026-05-02T17:41:40Z</time></trkpt><trkpt lat="44.014044842381146" lon="12.543892273663774"><ele>21.0</ele><time>2026-05-02T17:41:42Z</time></trkpt><trkpt lat="44.01400279525115" lon="12.543982005236352"><ele>21.0</ele><time>2026-05-02T17:41:44Z</time></trkpt><trkpt lat="44.01394452313035" lon="12.544060020224732"><ele>21.0</ele><time>2026-05-02T17:41:46Z</time></trkpt><trkpt lat="44.013875853410774" lon="12.544137538681058"><ele>21.333333333333332</ele><time>2026-05-02T17:41:48Z</time></trkpt><trkpt lat="44.013821663137534" lon="12.544250508369242"><ele>21.666666666666668</ele><time>2026-05-02T17:41:50Z</time></trkpt><trkpt lat="44.01376348305336" lon="12.544338241846154"><ele>22.0</ele><time>2026-05-02T17:41:52Z</time></trkpt><trkpt lat="44.01370792140989" lon="12.54442402028201"><ele>22.333333333333336</ele><time>2026-05-02T17:41:54Z</time></trkpt><trkpt lat="44.013648985396415" lon="12.544507835090627"><ele>22.666666666666668</ele><time>2026-05-02T17:41:56Z</time></trkpt><trkpt lat="44.01359887813547" lon="12.544586621534721"><ele>23.0</ele><time>2026-05-02T17:41:58Z</time></trkpt><trkpt lat="44.01355369746736" lon="12.544661102598871"><ele>23.5</ele><time>2026-05-02T17:42:00Z</time></trkpt><trkpt lat="44.01351296214145" lon="12.544731994431846"><ele>24.0</ele><time>2026-05-02T17:42:02Z</time></trkpt><trkpt lat="44.013456480962915" lon="12.544830611035668"><ele>24.5</ele><time>2026-05-02T17:42:05Z</time></trkpt><trkpt lat="44.01340100019936" lon="12.544936263300219"><ele>25.0</ele><time>2026-05-02T17:42:08Z</time></trkpt><trkpt lat="44.01335282367795" lon="12.545004080749603"><ele>25.499999999999996</ele><time>2026-05-02T17:42:10Z</time></trkpt><trkpt lat="44.01330090555222" lon="12.545069594349057"><ele>26.0</ele><time>2026-05-02T17:42:11.999Z</time></trkpt><trkpt lat="44.01325265917413" lon="12.545127812359986"><ele>26.166666666666664</ele><time>2026-05-02T17:42:13.999Z</time></trkpt><trkpt lat="44.01319953238054" lon="12.545187858463478"><ele>26.333333333333332</ele><time>2026-05-02T17:42:15.999Z</time></trkpt><trkpt lat="44.013145531616416" lon="12.54525694807242"><ele>26.5</ele><time>2026-05-02T17:42:18.999Z</time></trkpt><trkpt lat="44.01308629522663" lon="12.545356071126212"><ele>26.666666666666664</ele><time>2026-05-02T17:42:21.999Z</time></trkpt><trkpt lat="44.013025360508436" lon="12.545431523476013"><ele>26.833333333333332</ele><time>2026-05-02T17:42:23.999Z</time></trkpt><trkpt lat="44.012979491686686" lon="12.545502452871478"><ele>27.0</ele><time>2026-05-02T17:42:26.999Z</time></trkpt><trkpt lat="44.01292962698429" lon="12.545573390166592"><ele>27.0</ele><time>2026-05-02T17:42:28.999Z</time></trkpt><trkpt lat="44.0128769504074" lon="12.545647295892913"><ele>27.0</ele><time>2026-05-02T17:42:29.999Z</time></trkpt><trkpt lat="44.01281821375263" lon="12.545724910304829"><ele>27.0</ele><time>2026-05-02T17:42:31.999Z</time></trkpt><trkpt lat="44.01275243107606" lon="12.545815767914107"><ele>27.0</ele><time>2026-05-02T17:42:34.999Z</time></trkpt><trkpt lat="44.012705132892656" lon="12.545875031525261"><ele>27.0</ele><time>2026-05-02T17:42:35.999Z</time></trkpt><trkpt lat="44.01264501431435" lon="12.545934917424166"><ele>27.0</ele><time>2026-05-02T17:42:37.999Z</time></trkpt><trkpt lat="44.01259672512962" lon="12.5460023942999"><ele>27.0</ele><time>2026-05-02T17:42:39.999Z</time></trkpt><trkpt lat="44.01254401305206" lon="12.546069059356437"><ele>27.0</ele><time>2026-05-02T17:42:42.999Z</time></trkpt><trkpt lat="44.01248364994168" lon="12.546119377747226"><ele>27.0</ele><time>2026-05-02T17:42:47.999Z</time></trkpt><trkpt lat="44.012414053184585" lon="12.546191796705614"><ele>27.0</ele><time>2026-05-02T17:43:15Z</time></trkpt><trkpt lat="44.012344014504556" lon="12.546262831787287"><ele>27.0</ele><time>2026-05-02T17:43:18Z</time></trkpt><trkpt lat="44.012294386863765" lon="12.54631826032714"><ele>27.0</ele><time>2026-05-02T17:43:20Z</time></trkpt><trkpt lat="44.012243182639665" lon="12.546380349070786"><ele>27.0</ele><time>2026-05-02T17:43:22Z</time></trkpt><trkpt lat="44.01219460412751" lon="12.546461423375858"><ele>26.6</ele><time>2026-05-02T17:43:24Z</time></trkpt><trkpt lat="44.012133301088284" lon="12.546558412557337"><ele>26.200000000000003</ele><time>2026-05-02T17:43:26Z</time></trkpt><trkpt lat="44.01204925055684" lon="12.54665009937544"><ele>25.8</ele><time>2026-05-02T17:43:28Z</time></trkpt><trkpt lat="44.011962796738" lon="12.546735038354587"><ele>25.4</ele><time>2026-05-02T17:43:30Z</time></trkpt><trkpt lat="44.01187956672695" lon="12.546820761692242"><ele>25.0</ele><time>2026-05-02T17:43:32Z</time></trkpt><trkpt lat="44.01179203629424" lon="12.546906585657435"><ele>25.0</ele><time>2026-05-02T17:43:34Z</time></trkpt><trkpt lat="44.011705453990835" lon="12.546992742745266"><ele>25.0</ele><time>2026-05-02T17:43:36Z</time></trkpt><trkpt lat="44.01161649875456" lon="12.547075993757499"><ele>25.0</ele><time>2026-05-02T17:43:38Z</time></trkpt><trkpt lat="44.01152181084438" lon="12.54715813480968"><ele>25.0</ele><time>2026-05-02T17:43:40Z</time></trkpt><trkpt lat="44.011428894411374" lon="12.547238739243088"><ele>25.0</ele><time>2026-05-02T17:43:42Z</time></trkpt><trkpt lat="44.01133407349178" lon="12.547308409932187"><ele>25.0</ele><time>2026-05-02T17:43:44Z</time></trkpt><trkpt lat="44.01123406489041" lon="12.547377998896632"><ele>25.0</ele><time>2026-05-02T17:43:46Z</time></trkpt><trkpt lat="44.01113461994573" lon="12.547438229540928"><ele>25.0</ele><time>2026-05-02T17:43:48Z</time></trkpt><trkpt lat="44.01103780392793" lon="12.547499265203253"><ele>25.0</ele><time>2026-05-02T17:43:50Z</time></trkpt><trkpt lat="44.01094622696445" lon="12.54757260106538"><ele>25.0</ele><time>2026-05-02T17:43:52Z</time></trkpt><trkpt lat="44.010847947316506" lon="12.547629949760779"><ele>25.6</ele><time>2026-05-02T17:43:54Z</time></trkpt><trkpt lat="44.01075168625549" lon="12.547685723711536"><ele>26.2</ele><time>2026-05-02T17:43:56Z</time></trkpt><trkpt lat="44.0106604651729" lon="12.547741132021214"><ele>26.799999999999997</ele><time>2026-05-02T17:43:58Z</time></trkpt><trkpt lat="44.01056440897965" lon="12.547787762741605"><ele>27.4</ele><time>2026-05-02T17:44:00Z</time></trkpt><trkpt lat="44.01047725400264" lon="12.547847317968934"><ele>28.0</ele><time>2026-05-02T17:44:02Z</time></trkpt><trkpt lat="44.01039076403224" lon="12.547904743678535"><ele>28.2</ele><time>2026-05-02T17:44:04Z</time></trkpt><trkpt lat="44.010305247204215" lon="12.547967960376306"><ele>28.4</ele><time>2026-05-02T17:44:06Z</time></trkpt><trkpt lat="44.0102246955125" lon="12.54803421040139"><ele>28.599999999999998</ele><time>2026-05-02T17:44:08Z</time></trkpt><trkpt lat="44.010149175917846" lon="12.548106544406174"><ele>28.799999999999997</ele><time>2026-05-02T17:44:10Z</time></trkpt><trkpt lat="44.01007126594579" lon="12.548182263184682"><ele>29.0</ele><time>2026-05-02T17:44:12Z</time></trkpt><trkpt lat="44.01000402176085" lon="12.548256948948747"><ele>28.833333333333332</ele><time>2026-05-02T17:44:14Z</time></trkpt><trkpt lat="44.009942547239774" lon="12.548344884120967"><ele>28.666666666666664</ele><time>2026-05-02T17:44:16Z</time></trkpt><trkpt lat="44.00988204604382" lon="12.548426790940665"><ele>28.5</ele><time>2026-05-02T17:44:17.999Z</time></trkpt><trkpt lat="44.00981685252608" lon="12.548509345713429"><ele>28.333333333333336</ele><time>2026-05-02T17:44:19.999Z</time></trkpt><trkpt lat="44.009750277962226" lon="12.548564067829851"><ele>28.166666666666668</ele><time>2026-05-02T17:44:21.999Z</time></trkpt><trkpt lat="44.00970458153678" lon="12.548651491854903"><ele>28.0</ele><time>2026-05-02T17:44:23.999Z</time></trkpt><trkpt lat="44.00963996903852" lon="12.548735030376212"><ele>28.000000000000004</ele><time>2026-05-02T17:44:25.999Z</time></trkpt><trkpt lat="44.00957598803844" lon="12.548807609494892"><ele>28.0</ele><time>2026-05-02T17:44:27.999Z</time></trkpt><trkpt lat="44.00952089077387" lon="12.54890848289431"><ele>28.0</ele><time>2026-05-02T17:44:29.999Z</time></trkpt><trkpt lat="44.0094545268403" lon="12.54899784998815"><ele>28.0</ele><time>2026-05-02T17:44:31.999Z</time></trkpt><trkpt lat="44.00939914169236" lon="12.549091839901916"><ele>28.000000000000004</ele><time>2026-05-02T17:44:33.999Z</time></trkpt><trkpt lat="44.00933340319535" lon="12.549165599117014"><ele>28.0</ele><time>2026-05-02T17:44:35.999Z</time></trkpt><trkpt lat="44.00928298754709" lon="12.549259165452128"><ele>28.0</ele><time>2026-05-02T17:44:37.999Z</time></trkpt><trkpt lat="44.00923067742069" lon="12.549354083659638"><ele>27.999999999999996</ele><time>2026-05-02T17:44:39.999Z</time></trkpt><trkpt lat="44.009171834978964" lon="12.54944668201013"><ele>27.999999999999996</ele><time>2026-05-02T17:44:41.999Z</time></trkpt><trkpt lat="44.00910836517909" lon="12.549548491587764"><ele>28.0</ele><time>2026-05-02T17:44:43.999Z</time></trkpt><trkpt lat="44.00904254976994" lon="12.549653532308923"><ele>28.0</ele><time>2026-05-02T17:44:45.999Z</time></trkpt><trkpt lat="44.008985895103706" lon="12.549772976281227"><ele>27.799999999999997</ele><time>2026-05-02T17:44:47.999Z</time></trkpt><trkpt lat="44.00889846293262" lon="12.549856882616682"><ele>27.599999999999998</ele><time>2026-05-02T17:44:49.999Z</time></trkpt><trkpt lat="44.00884453253591" lon="12.549983302062701"><ele>27.400000000000002</ele><time>2026-05-02T17:44:51.999Z</time></trkpt><trkpt lat="44.00877642551785" lon="12.550085038196361"><ele>27.200000000000003</ele><time>2026-05-02T17:44:53.999Z</time></trkpt><trkpt lat="44.00872203571366" lon="12.550190482038024"><ele>27.0</ele><time>2026-05-02T17:44:55.999Z</time></trkpt><trkpt lat="44.00866467562518" lon="12.550286482062072"><ele>27.400000000000002</ele><time>2026-05-02T17:44:57.999Z</time></trkpt><trkpt lat="44.00862609919313" lon="12.550389461042963"><ele>27.800000000000004</ele><time>2026-05-02T17:44:59.999Z</time></trkpt><trkpt lat="44.008621224522464" lon="12.550507822329282"><ele>28.2</ele><time>2026-05-02T17:45:01.999Z</time></trkpt><trkpt lat="44.0086401271597" lon="12.550633382811752"><ele>28.6</ele><time>2026-05-02T17:45:04Z</time></trkpt><trkpt lat="44.008694971176745" lon="12.550745020281875"><ele>29.0</ele><time>2026-05-02T17:45:06Z</time></trkpt><trkpt lat="44.008769022195345" lon="12.550851296651762"><ele>29.0</ele><time>2026-05-02T17:45:08Z</time></trkpt><trkpt lat="44.00883432474214" lon="12.550977648754237"><ele>29.0</ele><time>2026-05-02T17:45:10Z</time></trkpt><trkpt lat="44.00892272065304" lon="12.55108479569016"><ele>29.0</ele><time>2026-05-02T17:45:12Z</time></trkpt><trkpt lat="44.00898671937525" lon="12.551210427173741"><ele>29.0</ele><time>2026-05-02T17:45:14Z</time></trkpt><trkpt lat="44.00905177776751" lon="12.551318264569348"><ele>29.0</ele><time>2026-05-02T17:45:16Z</time></trkpt><trkpt lat="44.00911252369925" lon="12.551426785212545"><ele>28.4</ele><time>2026-05-02T17:45:18Z</time></trkpt><trkpt lat="44.00915085300313" lon="12.551547017195492"><ele>27.799999999999997</ele><time>2026-05-02T17:45:20Z</time></trkpt><trkpt lat="44.009122857473095" lon="12.551694894146854"><ele>27.200000000000003</ele><time>2026-05-02T17:45:22Z</time></trkpt><trkpt lat="44.00904191765011" lon="12.551801723051627"><ele>26.6</ele><time>2026-05-02T17:45:24Z</time></trkpt><trkpt lat="44.00895234512866" lon="12.55188531972162"><ele>26.0</ele><time>2026-05-02T17:45:26Z</time></trkpt><trkpt lat="44.00886153357057" lon="12.551954275647212"><ele>26.0</ele><time>2026-05-02T17:45:28Z</time></trkpt><trkpt lat="44.00876658345451" lon="12.552001502149507"><ele>26.0</ele><time>2026-05-02T17:45:30Z</time></trkpt><trkpt lat="44.00867351379265" lon="12.552048047883671"><ele>26.0</ele><time>2026-05-02T17:45:32Z</time></trkpt><trkpt lat="44.0085828110422" lon="12.552097518888264"><ele>26.0</ele><time>2026-05-02T17:45:34Z</time></trkpt><trkpt lat="44.00848888064266" lon="12.552154175314339"><ele>26.0</ele><time>2026-05-02T17:45:36Z</time></trkpt><trkpt lat="44.008399677633456" lon="12.552223177557943"><ele>26.4</ele><time>2026-05-02T17:45:38Z</time></trkpt><trkpt lat="44.00830572950008" lon="12.552277336937543"><ele>26.8</ele><time>2026-05-02T17:45:40Z</time></trkpt><trkpt lat="44.008222928460775" lon="12.55234797794121"><ele>27.199999999999996</ele><time>2026-05-02T17:45:42Z</time></trkpt><trkpt lat="44.00814368352476" lon="12.552417528725433"><ele>27.599999999999998</ele><time>2026-05-02T17:45:44Z</time></trkpt><trkpt lat="44.00807239618968" lon="12.552481712572009"><ele>28.0</ele><time>2026-05-02T17:45:46Z</time></trkpt><trkpt lat="44.0080029695358" lon="12.552590270567341"><ele>28.0</ele><time>2026-05-02T17:45:48Z</time></trkpt><trkpt lat="44.00795585619774" lon="12.55268068344293"><ele>27.999999999999996</ele><time>2026-05-02T17:45:50Z</time></trkpt><trkpt lat="44.00788894948852" lon="12.55277634529479"><ele>27.999999999999996</ele><time>2026-05-02T17:45:52Z</time></trkpt><trkpt lat="44.007821118444525" lon="12.552866526038224"><ele>28.0</ele><time>2026-05-02T17:45:54Z</time></trkpt><trkpt lat="44.00774684889304" lon="12.552952807686085"><ele>28.0</ele><time>2026-05-02T17:45:56Z</time></trkpt><trkpt lat="44.0076777600159" lon="12.553049497425281"><ele>27.799999999999997</ele><time>2026-05-02T17:45:58Z</time></trkpt><trkpt lat="44.007613158171736" lon="12.553145052649745"><ele>27.599999999999998</ele><time>2026-05-02T17:46:00Z</time></trkpt><trkpt lat="44.00754957043473" lon="12.553236542332813"><ele>27.400000000000002</ele><time>2026-05-02T17:46:02Z</time></trkpt><trkpt lat="44.007479400847046" lon="12.553328359663006"><ele>27.200000000000003</ele><time>2026-05-02T17:46:04Z</time></trkpt><trkpt lat="44.00740427988762" lon="12.55341499077333"><ele>27.0</ele><time>2026-05-02T17:46:06Z</time></trkpt><trkpt lat="44.00731873089871" lon="12.553483456349321"><ele>27.0</ele><time>2026-05-02T17:46:08Z</time></trkpt><trkpt lat="44.00723729006386" lon="12.553556520329503"><ele>27.0</ele><time>2026-05-02T17:46:10Z</time></trkpt><trkpt lat="44.007169782246336" lon="12.553641592166636"><ele>27.0</ele><time>2026-05-02T17:46:12Z</time></trkpt><trkpt lat="44.00709892170085" lon="12.553714632910793"><ele>27.0</ele><time>2026-05-02T17:46:14Z</time></trkpt><trkpt lat="44.00703533924124" lon="12.553784072991778"><ele>27.0</ele><time>2026-05-02T17:46:16Z</time></trkpt><trkpt lat="44.00696166559098" lon="12.553848066876336"><ele>27.0</ele><time>2026-05-02T17:46:18Z</time></trkpt><trkpt lat="44.00689178028325" lon="12.553914499057198"><ele>27.0</ele><time>2026-05-02T17:46:20Z</time></trkpt><trkpt lat="44.006816625000205" lon="12.553976176123621"><ele>27.0</ele><time>2026-05-02T17:46:22Z</time></trkpt><trkpt lat="44.006745429527626" lon="12.554042491686813"><ele>27.0</ele><time>2026-05-02T17:46:24Z</time></trkpt><trkpt lat="44.00667396157529" lon="12.554101876554014"><ele>27.0</ele><time>2026-05-02T17:46:26Z</time></trkpt><trkpt lat="44.00660048518442" lon="12.554183444619305"><ele>27.0</ele><time>2026-05-02T17:46:28Z</time></trkpt><trkpt lat="44.00651858161724" lon="12.554232519377452"><ele>27.0</ele><time>2026-05-02T17:46:30Z</time></trkpt><trkpt lat="44.006438000552905" lon="12.554293286912136"><ele>27.0</ele><time>2026-05-02T17:46:31.999Z</time></trkpt><trkpt lat="44.00636574852242" lon="12.554354981447288"><ele>27.0</ele><time>2026-05-02T17:46:33.999Z</time></trkpt><trkpt lat="44.006292512817744" lon="12.554411155354815"><ele>27.0</ele><time>2026-05-02T17:46:35.999Z</time></trkpt><trkpt lat="44.00620932600282" lon="12.554456464500648"><ele>27.0</ele><time>2026-05-02T17:46:37.999Z</time></trkpt><trkpt lat="44.006127679219816" lon="12.554495563789779"><ele>27.0</ele><time>2026-05-02T17:46:39.999Z</time></trkpt><trkpt lat="44.00603720908598" lon="12.554543569702973"><ele>27.0</ele><time>2026-05-02T17:46:41.999Z</time></trkpt><trkpt lat="44.005949726088744" lon="12.554591201737452"><ele>27.0</ele><time>2026-05-02T17:46:43.999Z</time></trkpt><trkpt lat="44.00586120890775" lon="12.554638168097442"><ele>27.000000000000004</ele><time>2026-05-02T17:46:45.999Z</time></trkpt><trkpt lat="44.00577692592678" lon="12.554694260437824"><ele>27.000000000000004</ele><time>2026-05-02T17:46:47.999Z</time></trkpt><trkpt lat="44.00569689846636" lon="12.554735451242607"><ele>27.0</ele><time>2026-05-02T17:46:49.999Z</time></trkpt><trkpt lat="44.00560998221672" lon="12.55477804142313"><ele>27.0</ele><time>2026-05-02T17:46:51.999Z</time></trkpt><trkpt lat="44.00552625272136" lon="12.554828617464866"><ele>27.8</ele><time>2026-05-02T17:46:53.999Z</time></trkpt><trkpt lat="44.00543206148205" lon="12.554883360076223"><ele>28.6</ele><time>2026-05-02T17:46:55.999Z</time></trkpt><trkpt lat="44.00535009325315" lon="12.554954930767867"><ele>29.400000000000002</ele><time>2026-05-02T17:46:57.999Z</time></trkpt><trkpt lat="44.00527145238331" lon="12.555039786609681"><ele>30.200000000000003</ele><time>2026-05-02T17:46:59.999Z</time></trkpt><trkpt lat="44.005200186605634" lon="12.555131233831291"><ele>31.0</ele><time>2026-05-02T17:47:01.999Z</time></trkpt><trkpt lat="44.00512896316345" lon="12.555215047627394"><ele>31.000000000000004</ele><time>2026-05-02T17:47:03.999Z</time></trkpt><trkpt lat="44.00506443162734" lon="12.555290928908006"><ele>31.0</ele><time>2026-05-02T17:47:05.999Z</time></trkpt><trkpt lat="44.00500148477813" lon="12.555365531814504"><ele>31.0</ele><time>2026-05-02T17:47:07.999Z</time></trkpt><trkpt lat="44.004931303646906" lon="12.555428800243702"><ele>31.0</ele><time>2026-05-02T17:47:10Z</time></trkpt><trkpt lat="44.00485975794473" lon="12.555494456025789"><ele>31.000000000000004</ele><time>2026-05-02T17:47:12Z</time></trkpt><trkpt lat="44.00478973605586" lon="12.555553081455818"><ele>31.0</ele><time>2026-05-02T17:47:14Z</time></trkpt><trkpt lat="44.004733372037805" lon="12.555611419879423"><ele>31.200000000000003</ele><time>2026-05-02T17:47:16Z</time></trkpt><trkpt lat="44.00464706414374" lon="12.55566444120521"><ele>31.400000000000002</ele><time>2026-05-02T17:47:18Z</time></trkpt><trkpt lat="44.004554078020774" lon="12.555721824547973"><ele>31.6</ele><time>2026-05-02T17:47:20Z</time></trkpt><trkpt lat="44.00447680169159" lon="12.555799083234602"><ele>31.8</ele><time>2026-05-02T17:47:22Z</time></trkpt><trkpt lat="44.00439521165807" lon="12.555872192591558"><ele>32.0</ele><time>2026-05-02T17:47:24Z</time></trkpt><trkpt lat="44.004311334004306" lon="12.555943867065773"><ele>32.0</ele><time>2026-05-02T17:47:26Z</time></trkpt><trkpt lat="44.00423090603404" lon="12.556016534456242"><ele>32.0</ele><time>2026-05-02T17:47:28Z</time></trkpt><trkpt lat="44.00414780881295" lon="12.55608988447971"><ele>32.0</ele><time>2026-05-02T17:47:30Z</time></trkpt><trkpt lat="44.00405592551036" lon="12.556162473205456"><ele>32.0</ele><time>2026-05-02T17:47:32Z</time></trkpt><trkpt lat="44.00397792104413" lon="12.556224192461684"><ele>32.0</ele><time>2026-05-02T17:47:34Z</time></trkpt><trkpt lat="44.003906920895155" lon="12.556290057522272"><ele>32.0</ele><time>2026-05-02T17:47:36Z</time></trkpt><trkpt lat="44.00382692580834" lon="12.55634706240319"><ele>32.0</ele><time>2026-05-02T17:47:38Z</time></trkpt><trkpt lat="44.00373828070062" lon="12.556417845405745"><ele>32.0</ele><time>2026-05-02T17:47:40Z</time></trkpt><trkpt lat="44.00365407989874" lon="12.556470038682514"><ele>32.0</ele><time>2026-05-02T17:47:42Z</time></trkpt><trkpt lat="44.00356328915549" lon="12.55651704435083"><ele>32.0</ele><time>2026-05-02T17:47:44Z</time></trkpt><trkpt lat="44.003476127578736" lon="12.556559359203352"><ele>31.999999999999996</ele><time>2026-05-02T17:47:46Z</time></trkpt><trkpt lat="44.00339091683318" lon="12.556605616155249"><ele>32.0</ele><time>2026-05-02T17:47:48Z</time></trkpt><trkpt lat="44.003309934515165" lon="12.556655332856298"><ele>32.0</ele><time>2026-05-02T17:47:50Z</time></trkpt><trkpt lat="44.00322995423548" lon="12.556707520724144"><ele>32.0</ele><time>2026-05-02T17:47:52Z</time></trkpt><trkpt lat="44.003158099130964" lon="12.556763146965134"><ele>31.999999999999996</ele><time>2026-05-02T17:47:54Z</time></trkpt><trkpt lat="44.00308973398672" lon="12.556793517108673"><ele>32.0</ele><time>2026-05-02T17:47:56Z</time></trkpt><trkpt lat="44.003031710585375" lon="12.556835921480632"><ele>31.833333333333332</ele><time>2026-05-02T17:47:58Z</time></trkpt><trkpt lat="44.00297635347719" lon="12.556889860774207"><ele>31.666666666666664</ele><time>2026-05-02T17:48:00Z</time></trkpt><trkpt lat="44.00292398526281" lon="12.556946741180527"><ele>31.5</ele><time>2026-05-02T17:48:02Z</time></trkpt><trkpt lat="44.0028719745656" lon="12.55699664631802"><ele>31.333333333333336</ele><time>2026-05-02T17:48:04Z</time></trkpt><trkpt lat="44.0027945676188" lon="12.557065735669763"><ele>31.166666666666668</ele><time>2026-05-02T17:48:07Z</time></trkpt><trkpt lat="44.00271921372918" lon="12.557147464406299"><ele>31.0</ele><time>2026-05-02T17:48:10Z</time></trkpt><trkpt lat="44.00265356311121" lon="12.557235105506686"><ele>31.0</ele><time>2026-05-02T17:48:13Z</time></trkpt><trkpt lat="44.00259427077133" lon="12.557273135649083"><ele>31.000000000000004</ele><time>2026-05-02T17:48:15Z</time></trkpt><trkpt lat="44.00253283129784" lon="12.557324560769867"><ele>31.0</ele><time>2026-05-02T17:48:17Z</time></trkpt><trkpt lat="44.00248381932" lon="12.557385402998625"><ele>31.0</ele><time>2026-05-02T17:48:19Z</time></trkpt><trkpt lat="44.00243172035522" lon="12.557442236377135"><ele>31.000000000000004</ele><time>2026-05-02T17:48:21Z</time></trkpt><trkpt lat="44.00236831687104" lon="12.557489311896871"><ele>31.0</ele><time>2026-05-02T17:48:23Z</time></trkpt><trkpt lat="44.00228889178056" lon="12.557552350435678"><ele>31.0</ele><time>2026-05-02T17:48:26Z</time></trkpt><trkpt lat="44.002229410508804" lon="12.557595504589354"><ele>32.0</ele><time>2026-05-02T17:48:28Z</time></trkpt><trkpt lat="44.00216754453218" lon="12.55764373914014"><ele>33.0</ele><time>2026-05-02T17:48:29.999Z</time></trkpt><trkpt lat="44.00210057682118" lon="12.557688503328633"><ele>34.0</ele><time>2026-05-02T17:48:31.999Z</time></trkpt><trkpt lat="44.002038404149616" lon="12.55772447350176"><ele>35.0</ele><time>2026-05-02T17:48:33.999Z</time></trkpt><trkpt lat="44.001976750760434" lon="12.557746114869365"><ele>36.0</ele><time>2026-05-02T17:48:35.999Z</time></trkpt><trkpt lat="44.00190142307857" lon="12.557776640324459"><ele>37.0</ele><time>2026-05-02T17:48:38.999Z</time></trkpt><trkpt lat="44.001811398945456" lon="12.557805873901131"><ele>38.0</ele><time>2026-05-02T17:48:41.999Z</time></trkpt><trkpt lat="44.00174731428991" lon="12.557818935396089"><ele>38.0</ele><time>2026-05-02T17:48:43.999Z</time></trkpt><trkpt lat="44.001668847325" lon="12.557840184799797"><ele>38.0</ele><time>2026-05-02T17:48:46.999Z</time></trkpt><trkpt lat="44.001605389836634" lon="12.557858940452054"><ele>38.0</ele><time>2026-05-02T17:48:49.999Z</time></trkpt><trkpt lat="44.001544913356554" lon="12.557883841930996"><ele>38.0</ele><time>2026-05-02T17:48:52.999Z</time></trkpt><trkpt lat="44.001479052892876" lon="12.557910351220436"><ele>38.0</ele><time>2026-05-02T17:48:56.999Z</time></trkpt><trkpt lat="44.00141361975828" lon="12.557930556019972"><ele>38.0</ele><time>2026-05-02T17:48:59.999Z</time></trkpt><trkpt lat="44.001350494159865" lon="12.557954488466287"><ele>38.0</ele><time>2026-05-02T17:49:02.999Z</time></trkpt><trkpt lat="44.001286323650895" lon="12.557988448123838"><ele>37.33333333333333</ele><time>2026-05-02T17:49:04.999Z</time></trkpt><trkpt lat="44.00120626581009" lon="12.558023230043228"><ele>36.666666666666664</ele><time>2026-05-02T17:49:07.999Z</time></trkpt><trkpt lat="44.00111753438373" lon="12.558062336914666"><ele>36.0</ele><time>2026-05-02T17:49:10.999Z</time></trkpt><trkpt lat="44.00105859157196" lon="12.558098908060176"><ele>35.333333333333336</ele><time>2026-05-02T17:49:12.999Z</time></trkpt><trkpt lat="44.00099689399375" lon="12.558147913328556"><ele>34.66666666666667</ele><time>2026-05-02T17:49:14.999Z</time></trkpt><trkpt lat="44.00093345442378" lon="12.558206735528506"><ele>34.0</ele><time>2026-05-02T17:49:17Z</time></trkpt><trkpt lat="44.000872482013634" lon="12.558269841082273"><ele>34.333333333333336</ele><time>2026-05-02T17:49:19Z</time></trkpt><trkpt lat="44.000812627720606" lon="12.558338261001493"><ele>34.66666666666667</ele><time>2026-05-02T17:49:21Z</time></trkpt><trkpt lat="44.000747992207394" lon="12.55840640076831"><ele>35.0</ele><time>2026-05-02T17:49:23Z</time></trkpt><trkpt lat="44.000681700513795" lon="12.558473736661988"><ele>35.333333333333336</ele><time>2026-05-02T17:49:25Z</time></trkpt><trkpt lat="44.000615800062064" lon="12.558554230729273"><ele>35.666666666666664</ele><time>2026-05-02T17:49:27Z</time></trkpt><trkpt lat="44.000547413554315" lon="12.5586327469039"><ele>36.0</ele><time>2026-05-02T17:49:29Z</time></trkpt><trkpt lat="44.00047674599345" lon="12.55871120197703"><ele>35.333333333333336</ele><time>2026-05-02T17:49:31Z</time></trkpt><trkpt lat="44.000408011884595" lon="12.558790886649787"><ele>34.666666666666664</ele><time>2026-05-02T17:49:33Z</time></trkpt><trkpt lat="44.000339854087684" lon="12.558868230975293"><ele>34.0</ele><time>2026-05-02T17:49:35Z</time></trkpt><trkpt lat="44.00027554470965" lon="12.55895194344956"><ele>33.33333333333333</ele><time>2026-05-02T17:49:37Z</time></trkpt><trkpt lat="44.000212553813846" lon="12.559036574143196"><ele>32.666666666666664</ele><time>2026-05-02T17:49:39Z</time></trkpt><trkpt lat="44.000139039470035" lon="12.559102355564235"><ele>32.0</ele><time>2026-05-02T17:49:41Z</time></trkpt><trkpt lat="44.000061412941214" lon="12.559174722027642"><ele>32.0</ele><time>2026-05-02T17:49:43Z</time></trkpt><trkpt lat="43.999983480932585" lon="12.559246998740331"><ele>32.0</ele><time>2026-05-02T17:49:45Z</time></trkpt><trkpt lat="43.99989826812569" lon="12.559323918949335"><ele>32.0</ele><time>2026-05-02T17:49:47Z</time></trkpt><trkpt lat="43.99981976410114" lon="12.55939320142378"><ele>32.0</ele><time>2026-05-02T17:49:49Z</time></trkpt><trkpt lat="43.999730543551905" lon="12.559458313969234"><ele>32.0</ele><time>2026-05-02T17:49:51Z</time></trkpt><trkpt lat="43.999643116534685" lon="12.559520879640633"><ele>32.0</ele><time>2026-05-02T17:49:53Z</time></trkpt><trkpt lat="43.99955457802745" lon="12.559573015091722"><ele>32.0</ele><time>2026-05-02T17:49:55Z</time></trkpt><trkpt lat="43.99946305724826" lon="12.559620085125074"><ele>32.0</ele><time>2026-05-02T17:49:57Z</time></trkpt><trkpt lat="43.99937447420121" lon="12.559679042456727"><ele>32.0</ele><time>2026-05-02T17:49:59Z</time></trkpt><trkpt lat="43.999287704924626" lon="12.559728180953666"><ele>32.0</ele><time>2026-05-02T17:50:01Z</time></trkpt><trkpt lat="43.99920865010759" lon="12.55978549720596"><ele>32.2</ele><time>2026-05-02T17:50:03Z</time></trkpt><trkpt lat="43.99912219108465" lon="12.559844088575383"><ele>32.400000000000006</ele><time>2026-05-02T17:50:05Z</time></trkpt><trkpt lat="43.99904164561202" lon="12.55990893511767"><ele>32.599999999999994</ele><time>2026-05-02T17:50:07Z</time></trkpt><trkpt lat="43.998960934841925" lon="12.559968389671132"><ele>32.8</ele><time>2026-05-02T17:50:09Z</time></trkpt><trkpt lat="43.99887204446262" lon="12.560017009053993"><ele>33.0</ele><time>2026-05-02T17:50:11Z</time></trkpt><trkpt lat="43.99879260329076" lon="12.560075234242182"><ele>33.0</ele><time>2026-05-02T17:50:13Z</time></trkpt><trkpt lat="43.998713135524625" lon="12.5601257858135"><ele>33.0</ele><time>2026-05-02T17:50:15Z</time></trkpt><trkpt lat="43.99863379468763" lon="12.560170244478453"><ele>33.0</ele><time>2026-05-02T17:50:17Z</time></trkpt><trkpt lat="43.99854907607218" lon="12.560185603243614"><ele>33.0</ele><time>2026-05-02T17:50:19Z</time></trkpt><trkpt lat="43.99846520634333" lon="12.560225754074235"><ele>33.0</ele><time>2026-05-02T17:50:21Z</time></trkpt><trkpt lat="43.998379909228866" lon="12.56026507690233"><ele>33.0</ele><time>2026-05-02T17:50:23Z</time></trkpt><trkpt lat="43.99829528930868" lon="12.560324069470774"><ele>33.199999999999996</ele><time>2026-05-02T17:50:25Z</time></trkpt><trkpt lat="43.9982070628773" lon="12.56035422778571"><ele>33.4</ele><time>2026-05-02T17:50:27Z</time></trkpt><trkpt lat="43.99811804322361" lon="12.560378849414892"><ele>33.599999999999994</ele><time>2026-05-02T17:50:29Z</time></trkpt><trkpt lat="43.99803315675493" lon="12.56040920618749"><ele>33.8</ele><time>2026-05-02T17:50:31Z</time></trkpt><trkpt lat="43.99794445719419" lon="12.560428492581215"><ele>34.0</ele><time>2026-05-02T17:50:32.999Z</time></trkpt><trkpt lat="43.99785265939455" lon="12.560440783080526"><ele>34.0</ele><time>2026-05-02T17:50:34.999Z</time></trkpt><trkpt lat="43.997776099677296" lon="12.560413662528244"><ele>34.0</ele><time>2026-05-02T17:50:36.999Z</time></trkpt><trkpt lat="43.99770510424698" lon="12.56039575412554"><ele>34.0</ele><time>2026-05-02T17:50:38.999Z</time></trkpt><trkpt lat="43.99762414929767" lon="12.560374130744018"><ele>34.0</ele><time>2026-05-02T17:50:41.999Z</time></trkpt><trkpt lat="43.99755758704544" lon="12.56033402642469"><ele>34.0</ele><time>2026-05-02T17:50:45.999Z</time></trkpt><trkpt lat="43.99748881325777" lon="12.560306043016386"><ele>34.0</ele><time>2026-05-02T17:50:48.999Z</time></trkpt><trkpt lat="43.99741813223548" lon="12.560270587986862"><ele>34.14285714285714</ele><time>2026-05-02T17:50:51.999Z</time></trkpt><trkpt lat="43.99734927117753" lon="12.56023952500632"><ele>34.285714285714285</ele><time>2026-05-02T17:50:54.999Z</time></trkpt><trkpt lat="43.997278701934846" lon="12.560235086672664"><ele>34.42857142857143</ele><time>2026-05-02T17:50:58.999Z</time></trkpt><trkpt lat="43.99721222050359" lon="12.56023543327238"><ele>34.57142857142857</ele><time>2026-05-02T17:51:02.999Z</time></trkpt><trkpt lat="43.997149065271586" lon="12.560266342320865"><ele>34.714285714285715</ele><time>2026-05-02T17:51:10.999Z</time></trkpt><trkpt lat="43.99708208640552" lon="12.560301862497024"><ele>34.857142857142854</ele><time>2026-05-02T17:51:20.999Z</time></trkpt><trkpt lat="43.99705534443513" lon="12.560381535778692"><ele>35.0</ele><time>2026-05-02T17:51:27Z</time></trkpt><trkpt lat="43.99702125709868" lon="12.560462010349829"><ele>35.142857142857146</ele><time>2026-05-02T17:51:33Z</time></trkpt><trkpt lat="43.9970302108505" lon="12.560556939281986"><ele>35.285714285714285</ele><time>2026-05-02T17:51:38Z</time></trkpt><trkpt lat="43.997005285384155" lon="12.560637720341372"><ele>35.42857142857143</ele><time>2026-05-02T17:51:43Z</time></trkpt><trkpt lat="43.99701118152712" lon="12.56072876882498"><ele>35.57142857142857</ele><time>2026-05-02T17:51:48Z</time></trkpt><trkpt lat="43.99698408085995" lon="12.560819067795888"><ele>35.714285714285715</ele><time>2026-05-02T17:51:53Z</time></trkpt><trkpt lat="43.99698450493515" lon="12.560926036330537"><ele>35.85714285714286</ele><time>2026-05-02T17:51:58Z</time></trkpt><trkpt lat="43.99696248369924" lon="12.561012275116699"><ele>36.0</ele><time>2026-05-02T17:52:02Z</time></trkpt><trkpt lat="43.99695111426524" lon="12.561111045880219"><ele>36.0</ele><time>2026-05-02T17:52:07Z</time></trkpt><trkpt lat="43.99695449719492" lon="12.561214491714507"><ele>36.0</ele><time>2026-05-02T17:52:12Z</time></trkpt><trkpt lat="43.996928075680486" lon="12.561311191091388"><ele>36.0</ele><time>2026-05-02T17:52:16Z</time></trkpt><trkpt lat="43.99693125963966" lon="12.561422935664075"><ele>36.0</ele><time>2026-05-02T17:52:19Z</time></trkpt><trkpt lat="43.996903889194584" lon="12.561514244205998"><ele>36.0</ele><time>2026-05-02T17:52:21Z</time></trkpt><trkpt lat="43.9968894621405" lon="12.561627713226118"><ele>36.0</ele><time>2026-05-02T17:52:23Z</time></trkpt><trkpt lat="43.996890572337115" lon="12.561771162003332"><ele>36.0</ele><time>2026-05-02T17:52:25Z</time></trkpt><trkpt lat="43.996852493753494" lon="12.561918469891783"><ele>36.0</ele><time>2026-05-02T17:52:27Z</time></trkpt><trkpt lat="43.99683302488404" lon="12.56207159272553"><ele>36.0</ele><time>2026-05-02T17:52:29Z</time></trkpt><trkpt lat="43.99681988279108" lon="12.562174955390262"><ele>36.0</ele><time>2026-05-02T17:52:31Z</time></trkpt><trkpt lat="43.99679428657888" lon="12.562275430280339"><ele>36.0</ele><time>2026-05-02T17:52:34Z</time></trkpt><trkpt lat="43.996843678027496" lon="12.562330814155928"><ele>36.0</ele><time>2026-05-02T17:52:38Z</time></trkpt><trkpt lat="43.99689710675081" lon="12.562406289062164"><ele>35.57142857142858</ele><time>2026-05-02T17:53:10.999Z</time></trkpt><trkpt lat="43.99693103287197" lon="12.56248391401809"><ele>35.142857142857146</ele><time>2026-05-02T17:53:13.999Z</time></trkpt><trkpt lat="43.99697825213497" lon="12.562587289365384"><ele>34.714285714285715</ele><time>2026-05-02T17:53:16.999Z</time></trkpt><trkpt lat="43.99700981727706" lon="12.562669825627594"><ele>34.28571428571429</ele><time>2026-05-02T17:53:18.999Z</time></trkpt><trkpt lat="43.99704477225959" lon="12.562754963593868"><ele>33.85714285714286</ele><time>2026-05-02T17:53:20.999Z</time></trkpt><trkpt lat="43.99707662552867" lon="12.56284016578659"><ele>33.42857142857143</ele><time>2026-05-02T17:53:22.999Z</time></trkpt><trkpt lat="43.99711040863245" lon="12.562933975890603"><ele>33.0</ele><time>2026-05-02T17:53:24.999Z</time></trkpt><trkpt lat="43.9971396745404" lon="12.563028035487063"><ele>33.0</ele><time>2026-05-02T17:53:26.999Z</time></trkpt><trkpt lat="43.99717504600414" lon="12.563122750905173"><ele>33.0</ele><time>2026-05-02T17:53:29Z</time></trkpt><trkpt lat="43.99721881740809" lon="12.563206829814641"><ele>33.0</ele><time>2026-05-02T17:53:31Z</time></trkpt><trkpt lat="43.99726105960935" lon="12.563283984396357"><ele>33.0</ele><time>2026-05-02T17:53:33Z</time></trkpt><trkpt lat="43.997310308635456" lon="12.563347241089687"><ele>33.0</ele><time>2026-05-02T17:53:35Z</time></trkpt><trkpt lat="43.99736554412965" lon="12.563411536988964"><ele>33.0</ele><time>2026-05-02T17:53:37Z</time></trkpt><trkpt lat="43.99743722006313" lon="12.563496900261315"><ele>33.0</ele><time>2026-05-02T17:53:40Z</time></trkpt><trkpt lat="43.99749138497947" lon="12.563552431611715"><ele>33.0</ele><time>2026-05-02T17:53:42Z</time></trkpt><trkpt lat="43.99755998234515" lon="12.5636232032655"><ele>33.0</ele><time>2026-05-02T17:53:45Z</time></trkpt><trkpt lat="43.99756136886444" lon="12.563723735703734"><ele>33.0</ele><time>2026-05-02T17:53:48Z</time></trkpt><trkpt lat="43.99750469422783" lon="12.563763589816134"><ele>33.0</ele><time>2026-05-02T17:54:45Z</time></trkpt><trkpt lat="43.99744774724366" lon="12.563805796113696"><ele>33.0</ele><time>2026-05-02T17:54:49.999Z</time></trkpt><trkpt lat="43.99738706922161" lon="12.56383366358358"><ele>33.0</ele><time>2026-05-02T17:54:52.999Z</time></trkpt><trkpt lat="43.99731123205563" lon="12.5638807871821"><ele>33.0</ele><time>2026-05-02T17:54:55.999Z</time></trkpt><trkpt lat="43.99724623110714" lon="12.563916113953155"><ele>33.0</ele><time>2026-05-02T17:54:57.999Z</time></trkpt><trkpt lat="43.99717911670534" lon="12.563940502167567"><ele>33.0</ele><time>2026-05-02T17:54:59.999Z</time></trkpt><trkpt lat="43.997114934446955" lon="12.563979550430023"><ele>33.0</ele><time>2026-05-02T17:55:01.999Z</time></trkpt><trkpt lat="43.9970480044722" lon="12.564016995424307"><ele>33.0</ele><time>2026-05-02T17:55:03.999Z</time></trkpt><trkpt lat="43.996983865542795" lon="12.564057531737873"><ele>33.0</ele><time>2026-05-02T17:55:05.999Z</time></trkpt><trkpt lat="43.99691662738596" lon="12.564095389829186"><ele>33.0</ele><time>2026-05-02T17:55:07.999Z</time></trkpt><trkpt lat="43.99684908191732" lon="12.56414319877613"><ele>33.0</ele><time>2026-05-02T17:55:09.999Z</time></trkpt><trkpt lat="43.996787391640666" lon="12.56419577879363"><ele>33.0</ele><time>2026-05-02T17:55:11.999Z</time></trkpt><trkpt lat="43.99672040417458" lon="12.564245453848926"><ele>33.0</ele><time>2026-05-02T17:55:13.999Z</time></trkpt><trkpt lat="43.996649631543235" lon="12.564282988817663"><ele>33.0</ele><time>2026-05-02T17:55:15.999Z</time></trkpt><trkpt lat="43.996565890710656" lon="12.564312214342506"><ele>33.0</ele><time>2026-05-02T17:55:17.999Z</time></trkpt><trkpt lat="43.9964810035829" lon="12.564347526909504"><ele>33.0</ele><time>2026-05-02T17:55:19.999Z</time></trkpt><trkpt lat="43.996403963751" lon="12.564393153739472"><ele>33.4</ele><time>2026-05-02T17:55:21.999Z</time></trkpt><trkpt lat="43.99633294972785" lon="12.564454794867432"><ele>33.8</ele><time>2026-05-02T17:55:23.999Z</time></trkpt><trkpt lat="43.99627410052658" lon="12.564549420756995"><ele>34.2</ele><time>2026-05-02T17:55:25.999Z</time></trkpt><trkpt lat="43.9962428830712" lon="12.564675235626117"><ele>34.6</ele><time>2026-05-02T17:55:27.999Z</time></trkpt><trkpt lat="43.996240074365524" lon="12.564803329385727"><ele>35.0</ele><time>2026-05-02T17:55:29.999Z</time></trkpt><trkpt lat="43.996251252619004" lon="12.564941157529654"><ele>35.0</ele><time>2026-05-02T17:55:31.999Z</time></trkpt><trkpt lat="43.99625664145087" lon="12.565079919985722"><ele>35.0</ele><time>2026-05-02T17:55:34Z</time></trkpt><trkpt lat="43.99627763740071" lon="12.565221848528989"><ele>35.0</ele><time>2026-05-02T17:55:36Z</time></trkpt><trkpt lat="43.996299201862925" lon="12.565353659771969"><ele>35.0</ele><time>2026-05-02T17:55:38Z</time></trkpt><trkpt lat="43.996319341573276" lon="12.565483630168131"><ele>35.0</ele><time>2026-05-02T17:55:40Z</time></trkpt><trkpt lat="43.99633421466189" lon="12.565605510179601"><ele>34.6</ele><time>2026-05-02T17:55:42Z</time></trkpt><trkpt lat="43.996341780349944" lon="12.565727689214297"><ele>34.2</ele><time>2026-05-02T17:55:44Z</time></trkpt><trkpt lat="43.99628806857501" lon="12.565843206675309"><ele>33.8</ele><time>2026-05-02T17:55:46Z</time></trkpt><trkpt lat="43.99619542881705" lon="12.565897826397702"><ele>33.4</ele><time>2026-05-02T17:55:48Z</time></trkpt><trkpt lat="43.99610378369099" lon="12.565947515692898"><ele>33.0</ele><time>2026-05-02T17:55:50Z</time></trkpt><trkpt lat="43.996015236744846" lon="12.56600827707612"><ele>33.0</ele><time>2026-05-02T17:55:52Z</time></trkpt><trkpt lat="43.99593379154569" lon="12.566062849330212"><ele>33.0</ele><time>2026-05-02T17:55:54Z</time></trkpt><trkpt lat="43.99584538915582" lon="12.5660954382827"><ele>33.0</ele><time>2026-05-02T17:55:56Z</time></trkpt><trkpt lat="43.99576434333797" lon="12.56614154263486"><ele>33.0</ele><time>2026-05-02T17:55:58Z</time></trkpt><trkpt lat="43.99568913024795" lon="12.566183177109806"><ele>33.0</ele><time>2026-05-02T17:56:00Z</time></trkpt><trkpt lat="43.995617979623724" lon="12.566252759968865"><ele>33.0</ele><time>2026-05-02T17:56:02Z</time></trkpt><trkpt lat="43.99554077844475" lon="12.566283310526693"><ele>33.333333333333336</ele><time>2026-05-02T17:56:04Z</time></trkpt><trkpt lat="43.995458406778944" lon="12.566310466134299"><ele>33.666666666666664</ele><time>2026-05-02T17:56:06Z</time></trkpt><trkpt lat="43.995375092816836" lon="12.56633894160364"><ele>34.0</ele><time>2026-05-02T17:56:08Z</time></trkpt><trkpt lat="43.99529466343388" lon="12.566355086306517"><ele>34.33333333333333</ele><time>2026-05-02T17:56:10Z</time></trkpt><trkpt lat="43.99521025725089" lon="12.56637185903816"><ele>34.666666666666664</ele><time>2026-05-02T17:56:12Z</time></trkpt><trkpt lat="43.995128771255374" lon="12.566381136931605"><ele>35.0</ele><time>2026-05-02T17:56:14Z</time></trkpt><trkpt lat="43.99503885391267" lon="12.566384075686052"><ele>35.0</ele><time>2026-05-02T17:56:16Z</time></trkpt><trkpt lat="43.99495165347651" lon="12.566390207580469"><ele>35.0</ele><time>2026-05-02T17:56:18Z</time></trkpt><trkpt lat="43.994876004322855" lon="12.56644165395162"><ele>35.0</ele><time>2026-05-02T17:56:20Z</time></trkpt><trkpt lat="43.99485603127952" lon="12.566562611823528"><ele>35.0</ele><time>2026-05-02T17:56:22Z</time></trkpt><trkpt lat="43.99488726223572" lon="12.566682445064028"><ele>35.0</ele><time>2026-05-02T17:56:24Z</time></trkpt><trkpt lat="43.99491025934831" lon="12.5668013863286"><ele>35.0</ele><time>2026-05-02T17:56:26Z</time></trkpt><trkpt lat="43.994937705460934" lon="12.566932478128354"><ele>35.0</ele><time>2026-05-02T17:56:28Z</time></trkpt><trkpt lat="43.99495023783196" lon="12.567067930687777"><ele>35.0</ele><time>2026-05-02T17:56:30Z</time></trkpt><trkpt lat="43.99497309334114" lon="12.56720327281843"><ele>35.0</ele><time>2026-05-02T17:56:32Z</time></trkpt><trkpt lat="43.99500470773092" lon="12.567337752436433"><ele>35.0</ele><time>2026-05-02T17:56:34Z</time></trkpt><trkpt lat="43.99499961758966" lon="12.567480578091589"><ele>35.0</ele><time>2026-05-02T17:56:36Z</time></trkpt><trkpt lat="43.99502318658545" lon="12.567619201492164"><ele>35.0</ele><time>2026-05-02T17:56:38Z</time></trkpt><trkpt lat="43.99504692816824" lon="12.567759241982381"><ele>35.0</ele><time>2026-05-02T17:56:40Z</time></trkpt><trkpt lat="43.99507247526168" lon="12.567898887260656"><ele>35.0</ele><time>2026-05-02T17:56:42Z</time></trkpt><trkpt lat="43.99509816239992" lon="12.568034759580623"><ele>35.0</ele><time>2026-05-02T17:56:44Z</time></trkpt><trkpt lat="43.995122990579084" lon="12.568166088482863"><ele>35.0</ele><time>2026-05-02T17:56:46Z</time></trkpt><trkpt lat="43.99514751831653" lon="12.568302522728784"><ele>35.0</ele><time>2026-05-02T17:56:48Z</time></trkpt><trkpt lat="43.995171697783086" lon="12.568438680312727"><ele>35.0</ele><time>2026-05-02T17:56:50Z</time></trkpt><trkpt lat="43.995195334419826" lon="12.568571124106015"><ele>35.0</ele><time>2026-05-02T17:56:51.999Z</time></trkpt><trkpt lat="43.995219114610414" lon="12.568704372340086"><ele>35.0</ele><time>2026-05-02T17:56:53.999Z</time></trkpt><trkpt lat="43.99524303248279" lon="12.568838391983865"><ele>35.0</ele><time>2026-05-02T17:56:55.999Z</time></trkpt><trkpt lat="43.995266915280304" lon="12.56897221514952"><ele>35.0</ele><time>2026-05-02T17:56:57.999Z</time></trkpt><trkpt lat="43.99529014177182" lon="12.569102360838372"><ele>35.0</ele><time>2026-05-02T17:56:59.999Z</time></trkpt><trkpt lat="43.99531385469508" lon="12.569235232034902"><ele>35.0</ele><time>2026-05-02T17:57:01.999Z</time></trkpt><trkpt lat="43.99536504310247" lon="12.56935523692901"><ele>35.0</ele><time>2026-05-02T17:57:03.999Z</time></trkpt><trkpt lat="43.995384441571396" lon="12.569487549095841"><ele>35.0</ele><time>2026-05-02T17:57:05.999Z</time></trkpt><trkpt lat="43.99541203944755" lon="12.569622924539013"><ele>35.0</ele><time>2026-05-02T17:57:07.999Z</time></trkpt><trkpt lat="43.99541097020756" lon="12.56976538563496"><ele>35.0</ele><time>2026-05-02T17:57:09.999Z</time></trkpt><trkpt lat="43.99543749386784" lon="12.569910138953658"><ele>35.0</ele><time>2026-05-02T17:57:11.999Z</time></trkpt><trkpt lat="43.995463549584926" lon="12.570052337939767"><ele>35.0</ele><time>2026-05-02T17:57:13.999Z</time></trkpt><trkpt lat="43.99548952351496" lon="12.570194406337201"><ele>35.0</ele><time>2026-05-02T17:57:15.999Z</time></trkpt><trkpt lat="43.99551668956041" lon="12.570345645336042"><ele>35.0</ele><time>2026-05-02T17:57:17.999Z</time></trkpt><trkpt lat="43.99554455652822" lon="12.57050078664197"><ele>35.0</ele><time>2026-05-02T17:57:19.999Z</time></trkpt><trkpt lat="43.99557218035801" lon="12.570654574437212"><ele>35.0</ele><time>2026-05-02T17:57:21.999Z</time></trkpt><trkpt lat="43.99559982964053" lon="12.57080850400449"><ele>35.0</ele><time>2026-05-02T17:57:23.999Z</time></trkpt><trkpt lat="43.995626724915354" lon="12.570958235822543"><ele>35.0</ele><time>2026-05-02T17:57:25.999Z</time></trkpt><trkpt lat="43.9956527746118" lon="12.571103259861717"><ele>35.0</ele><time>2026-05-02T17:57:27.999Z</time></trkpt><trkpt lat="43.99567910854547" lon="12.571249867193071"><ele>35.0</ele><time>2026-05-02T17:57:29.999Z</time></trkpt><trkpt lat="43.99570595149716" lon="12.571399307392571"><ele>35.0</ele><time>2026-05-02T17:57:31.999Z</time></trkpt><trkpt lat="43.99573020532284" lon="12.571535011371626"><ele>35.0</ele><time>2026-05-02T17:57:33.999Z</time></trkpt><trkpt lat="43.99575412033764" lon="12.571670736186794"><ele>34.83333333333333</ele><time>2026-05-02T17:57:35.999Z</time></trkpt><trkpt lat="43.99577812007377" lon="12.571806941880363"><ele>34.666666666666664</ele><time>2026-05-02T17:57:37.999Z</time></trkpt><trkpt lat="43.99579578246803" lon="12.57192105538891"><ele>34.5</ele><time>2026-05-02T17:57:40Z</time></trkpt><trkpt lat="43.995804283216465" lon="12.57201200772358"><ele>34.333333333333336</ele><time>2026-05-02T17:57:44Z</time></trkpt><trkpt lat="43.995722529017954" lon="12.57199255614847"><ele>34.16666666666667</ele><time>2026-05-02T17:57:49Z</time></trkpt><trkpt lat="43.99566282621746" lon="12.571947987253042"><ele>34.0</ele><time>2026-05-02T17:57:51Z</time></trkpt><trkpt lat="43.995599389360954" lon="12.57190788456439"><ele>34.0</ele><time>2026-05-02T17:57:53Z</time></trkpt><trkpt lat="43.99553221485094" lon="12.57186944234046"><ele>34.0</ele><time>2026-05-02T17:57:55Z</time></trkpt><trkpt lat="43.99546227521487" lon="12.571832605716818"><ele>34.0</ele><time>2026-05-02T17:57:57Z</time></trkpt><trkpt lat="43.99538301985109" lon="12.57179316947735"><ele>34.0</ele><time>2026-05-02T17:58:00Z</time></trkpt><trkpt lat="43.99532335145924" lon="12.571747891761811"><ele>34.0</ele><time>2026-05-02T17:58:06Z</time></trkpt><trkpt lat="43.99530738781707" lon="12.571848741940041"><ele>34.0</ele><time>2026-05-02T17:58:08Z</time></trkpt><trkpt lat="43.99527417416609" lon="12.571954948886793"><ele>33.99999999999999</ele><time>2026-05-02T17:58:12Z</time></trkpt><trkpt lat="43.99524290504872" lon="12.572048689268222"><ele>34.0</ele><time>2026-05-02T17:58:15Z</time></trkpt><trkpt lat="43.995217205736914" lon="12.572133928289544"><ele>34.0</ele><time>2026-05-02T17:58:19Z</time></trkpt><trkpt lat="43.99519776694788" lon="12.572217413618121"><ele>34.0</ele><time>2026-05-02T17:58:33Z</time></trkpt><trkpt lat="43.995154932992705" lon="12.572333240250698"><ele>34.0</ele><time>2026-05-02T17:58:36Z</time></trkpt><trkpt lat="43.995140680476425" lon="12.572429528366422"><ele>33.99999999999999</ele><time>2026-05-02T17:58:38Z</time></trkpt><trkpt lat="43.99511306216547" lon="12.572523773558922"><ele>34.0</ele><time>2026-05-02T17:58:40Z</time></trkpt><trkpt lat="43.99509592367334" lon="12.572624065646682"><ele>34.0</ele><time>2026-05-02T17:58:42Z</time></trkpt><trkpt lat="43.99508157235946" lon="12.572724033302347"><ele>34.0</ele><time>2026-05-02T17:58:44Z</time></trkpt><trkpt lat="43.99506969676609" lon="12.572818031054451"><ele>34.0</ele><time>2026-05-02T17:58:46Z</time></trkpt><trkpt lat="43.995046973829474" lon="12.572917436223358"><ele>34.0</ele><time>2026-05-02T17:58:48Z</time></trkpt><trkpt lat="43.995010607817264" lon="12.57302083245327"><ele>34.0</ele><time>2026-05-02T17:58:50Z</time></trkpt><trkpt lat="43.994951985538336" lon="12.573116625920253"><ele>34.0</ele><time>2026-05-02T17:58:52Z</time></trkpt><trkpt lat="43.9949045061572" lon="12.573212293568718"><ele>34.16666666666667</ele><time>2026-05-02T17:58:54Z</time></trkpt><trkpt lat="43.99485921587675" lon="12.573303164064322"><ele>34.333333333333336</ele><time>2026-05-02T17:58:56Z</time></trkpt><trkpt lat="43.99481932651366" lon="12.573395000168974"><ele>34.5</ele><time>2026-05-02T17:58:58Z</time></trkpt><trkpt lat="43.994789368874294" lon="12.573488282536182"><ele>34.666666666666664</ele><time>2026-05-02T17:58:59.999Z</time></trkpt><trkpt lat="43.994764041915694" lon="12.57358624349559"><ele>34.83333333333333</ele><time>2026-05-02T17:59:01.999Z</time></trkpt><trkpt lat="43.994742142872234" lon="12.573694221759279"><ele>35.0</ele><time>2026-05-02T17:59:03.999Z</time></trkpt><trkpt lat="43.99472332100952" lon="12.573802863563024"><ele>35.0</ele><time>2026-05-02T17:59:05.999Z</time></trkpt><trkpt lat="43.99470742415689" lon="12.573910137592119"><ele>35.0</ele><time>2026-05-02T17:59:07.999Z</time></trkpt><trkpt lat="43.99469927340969" lon="12.574023486088644"><ele>35.0</ele><time>2026-05-02T17:59:09.999Z</time></trkpt><trkpt lat="43.99468531835202" lon="12.574134953933731"><ele>35.0</ele><time>2026-05-02T17:59:11.999Z</time></trkpt><trkpt lat="43.9946704266745" lon="12.574236998956438"><ele>35.0</ele><time>2026-05-02T17:59:13.999Z</time></trkpt><trkpt lat="43.994648348071074" lon="12.574327742497955"><ele>35.0</ele><time>2026-05-02T17:59:15.999Z</time></trkpt><trkpt lat="43.9946136379484" lon="12.574423480773964"><ele>35.0</ele><time>2026-05-02T17:59:17.999Z</time></trkpt><trkpt lat="43.9946033119283" lon="12.574517838767756"><ele>35.0</ele><time>2026-05-02T17:59:19.999Z</time></trkpt><trkpt lat="43.99458809564859" lon="12.574622957479686"><ele>35.0</ele><time>2026-05-02T17:59:21.999Z</time></trkpt><trkpt lat="43.99456289473479" lon="12.574725938903647"><ele>35.0</ele><time>2026-05-02T17:59:23.999Z</time></trkpt><trkpt lat="43.99454394583027" lon="12.57484402234625"><ele>35.0</ele><time>2026-05-02T17:59:25.999Z</time></trkpt><trkpt lat="43.99452215127118" lon="12.574987145957774"><ele>35.0</ele><time>2026-05-02T17:59:27.999Z</time></trkpt><trkpt lat="43.9945012701464" lon="12.575126296541892"><ele>34.8</ele><time>2026-05-02T17:59:29.999Z</time></trkpt><trkpt lat="43.99450667942978" lon="12.575266641854029"><ele>34.6</ele><time>2026-05-02T17:59:31.999Z</time></trkpt><trkpt lat="43.99454959944011" lon="12.575397333809335"><ele>34.4</ele><time>2026-05-02T17:59:33.999Z</time></trkpt><trkpt lat="43.99460967450111" lon="12.575518606713285"><ele>34.2</ele><time>2026-05-02T17:59:35.999Z</time></trkpt><trkpt lat="43.99467097613728" lon="12.575625240181552"><ele>34.0</ele><time>2026-05-02T17:59:37.999Z</time></trkpt><trkpt lat="43.99473326608526" lon="12.575720449596629"><ele>34.0</ele><time>2026-05-02T17:59:39.999Z</time></trkpt><trkpt lat="43.99479249707057" lon="12.57581508576641"><ele>34.0</ele><time>2026-05-02T17:59:41.999Z</time></trkpt><trkpt lat="43.99485295740286" lon="12.575909758299774"><ele>34.0</ele><time>2026-05-02T17:59:43.999Z</time></trkpt><trkpt lat="43.99491580881843" lon="12.576007963979567"><ele>34.0</ele><time>2026-05-02T17:59:46Z</time></trkpt><trkpt lat="43.9949821416897" lon="12.576118857855521"><ele>34.0</ele><time>2026-05-02T17:59:48Z</time></trkpt><trkpt lat="43.9950451865752" lon="12.576221207588254"><ele>34.0</ele><time>2026-05-02T17:59:50Z</time></trkpt><trkpt lat="43.995101707896325" lon="12.576327405465713"><ele>34.0</ele><time>2026-05-02T17:59:52Z</time></trkpt><trkpt lat="43.99516186030429" lon="12.576426707491011"><ele>34.0</ele><time>2026-05-02T17:59:54Z</time></trkpt><trkpt lat="43.995217080183615" lon="12.576534745071095"><ele>34.0</ele><time>2026-05-02T17:59:56Z</time></trkpt><trkpt lat="43.995283678292175" lon="12.576622209898868"><ele>34.0</ele><time>2026-05-02T17:59:58Z</time></trkpt><trkpt lat="43.995344249288806" lon="12.576693824564376"><ele>34.0</ele><time>2026-05-02T18:00:00Z</time></trkpt><trkpt lat="43.995405330773266" lon="12.57676822677002"><ele>34.0</ele><time>2026-05-02T18:00:02Z</time></trkpt><trkpt lat="43.99545196283092" lon="12.576847653475404"><ele>34.0</ele><time>2026-05-02T18:00:04Z</time></trkpt><trkpt lat="43.995472674750566" lon="12.57694819157565"><ele>34.0</ele><time>2026-05-02T18:00:06Z</time></trkpt><trkpt lat="43.99546927551989" lon="12.577045847232316"><ele>34.0</ele><time>2026-05-02T18:00:08Z</time></trkpt><trkpt lat="43.995455340496456" lon="12.577174421969808"><ele>34.0</ele><time>2026-05-02T18:00:11Z</time></trkpt><trkpt lat="43.99544633685752" lon="12.57726280662221"><ele>34.0</ele><time>2026-05-02T18:00:13Z</time></trkpt><trkpt lat="43.99542865691799" lon="12.577391434787735"><ele>34.0</ele><time>2026-05-02T18:00:16Z</time></trkpt><trkpt lat="43.995415676792796" lon="12.577486696234887"><ele>34.0</ele><time>2026-05-02T18:00:18Z</time></trkpt><trkpt lat="43.995404256731405" lon="12.577591759671304"><ele>34.0</ele><time>2026-05-02T18:00:20Z</time></trkpt><trkpt lat="43.99539693031353" lon="12.57770286772654"><ele>34.0</ele><time>2026-05-02T18:00:22Z</time></trkpt><trkpt lat="43.99538138837062" lon="12.57781182013062"><ele>34.0</ele><time>2026-05-02T18:00:24Z</time></trkpt><trkpt lat="43.9953681196019" lon="12.577924234701996"><ele>33.99999999999999</ele><time>2026-05-02T18:00:26Z</time></trkpt><trkpt lat="43.99535342329656" lon="12.578026021583591"><ele>34.0</ele><time>2026-05-02T18:00:28Z</time></trkpt><trkpt lat="43.995334470918486" lon="12.578123892404513"><ele>34.0</ele><time>2026-05-02T18:00:30Z</time></trkpt><trkpt lat="43.99531110607501" lon="12.578212212812804"><ele>34.0</ele><time>2026-05-02T18:00:32Z</time></trkpt><trkpt lat="43.99529919000324" lon="12.578303735896197"><ele>34.0</ele><time>2026-05-02T18:00:34Z</time></trkpt><trkpt lat="43.99528177260728" lon="12.578408467954922"><ele>33.99999999999999</ele><time>2026-05-02T18:00:36Z</time></trkpt><trkpt lat="43.995273525693655" lon="12.578513843748166"><ele>34.0</ele><time>2026-05-02T18:00:38Z</time></trkpt><trkpt lat="43.995263671562086" lon="12.578631401831288"><ele>33.99999999999999</ele><time>2026-05-02T18:00:41Z</time></trkpt><trkpt lat="43.995248685079275" lon="12.578737808094285"><ele>34.0</ele><time>2026-05-02T18:00:44Z</time></trkpt><trkpt lat="43.99523382181074" lon="12.578850530987795"><ele>34.0</ele><time>2026-05-02T18:00:47Z</time></trkpt><trkpt lat="43.99522427889583" lon="12.578959121184031"><ele>34.0</ele><time>2026-05-02T18:00:50Z</time></trkpt><trkpt lat="43.9952768924384" lon="12.579031992079024"><ele>34.0</ele><time>2026-05-02T18:00:53Z</time></trkpt><trkpt lat="43.99533992194004" lon="12.579024261190892"><ele>33.99999999999999</ele><time>2026-05-02T18:00:55Z</time></trkpt><trkpt lat="43.99540762887612" lon="12.579012647336612"><ele>34.0</ele><time>2026-05-02T18:00:57Z</time></trkpt><trkpt lat="43.995483549673786" lon="12.578997462412197"><ele>34.0</ele><time>2026-05-02T18:00:59Z</time></trkpt><trkpt lat="43.99557225750155" lon="12.578980644274528"><ele>34.0</ele><time>2026-05-02T18:01:01Z</time></trkpt><trkpt lat="43.99566490822685" lon="12.578968874866083"><ele>34.0</ele><time>2026-05-02T18:01:03Z</time></trkpt><trkpt lat="43.99575905833222" lon="12.578950222164861"><ele>34.0</ele><time>2026-05-02T18:01:04.999Z</time></trkpt><trkpt lat="43.995855929850734" lon="12.57893642370429"><ele>34.0</ele><time>2026-05-02T18:01:06.999Z</time></trkpt><trkpt lat="43.995957622868886" lon="12.578926206695574"><ele>34.0</ele><time>2026-05-02T18:01:08.999Z</time></trkpt><trkpt lat="43.99601136706616" lon="12.57897768501663"><ele>34.0</ele><time>2026-05-02T18:01:09.999Z</time></trkpt><trkpt lat="43.99611525814158" lon="12.578968136999391"><ele>34.0</ele><time>2026-05-02T18:01:11.999Z</time></trkpt><trkpt lat="43.99621927064313" lon="12.578958577851939"><ele>34.0</ele><time>2026-05-02T18:01:13.999Z</time></trkpt><trkpt lat="43.996324719555275" lon="12.578948886679527"><ele>34.0</ele><time>2026-05-02T18:01:15.999Z</time></trkpt><trkpt lat="43.99643605498599" lon="12.578938654504466"><ele>34.0</ele><time>2026-05-02T18:01:17.999Z</time></trkpt><trkpt lat="43.99654561395298" lon="12.578927153444889"><ele>34.0</ele><time>2026-05-02T18:01:19.999Z</time></trkpt><trkpt lat="43.99664892685555" lon="12.578914429747423"><ele>34.0</ele><time>2026-05-02T18:01:21.999Z</time></trkpt><trkpt lat="43.996751675305404" lon="12.57890179535148"><ele>34.0</ele><time>2026-05-02T18:01:23.999Z</time></trkpt><trkpt lat="43.99685721253512" lon="12.578891043922823"><ele>34.0</ele><time>2026-05-02T18:01:25.999Z</time></trkpt><trkpt lat="43.99695933851587" lon="12.578881624836383"><ele>34.0</ele><time>2026-05-02T18:01:27.999Z</time></trkpt><trkpt lat="43.997060150403705" lon="12.578873962583206"><ele>34.0</ele><time>2026-05-02T18:01:29.999Z</time></trkpt><trkpt lat="43.9971518007504" lon="12.578869274721788"><ele>34.0</ele><time>2026-05-02T18:01:31.999Z</time></trkpt><trkpt lat="43.99724776768455" lon="12.578865764847029"><ele>34.0</ele><time>2026-05-02T18:01:33.999Z</time></trkpt><trkpt lat="43.99733940392891" lon="12.578865764847356"><ele>34.0</ele><time>2026-05-02T18:01:35.999Z</time></trkpt><trkpt lat="43.99742885000015" lon="12.578847662958228"><ele>33.8</ele><time>2026-05-02T18:01:37.999Z</time></trkpt><trkpt lat="43.99751766369969" lon="12.578851123761334"><ele>33.599999999999994</ele><time>2026-05-02T18:01:39.999Z</time></trkpt><trkpt lat="43.99760236290315" lon="12.578856484386641"><ele>33.4</ele><time>2026-05-02T18:01:41.999Z</time></trkpt><trkpt lat="43.99769111101572" lon="12.578875133428152"><ele>33.199999999999996</ele><time>2026-05-02T18:01:43.999Z</time></trkpt><trkpt lat="43.99778434266808" lon="12.578905444979693"><ele>33.0</ele><time>2026-05-02T18:01:45.999Z</time></trkpt><trkpt lat="43.997874510046444" lon="12.57891741639139"><ele>33.0</ele><time>2026-05-02T18:01:47.999Z</time></trkpt><trkpt lat="43.997967793740635" lon="12.578956894765806"><ele>33.0</ele><time>2026-05-02T18:01:49.999Z</time></trkpt><trkpt lat="43.998051578009886" lon="12.578976929504535"><ele>33.0</ele><time>2026-05-02T18:01:52Z</time></trkpt><trkpt lat="43.99813482449251" lon="12.578997994764318"><ele>33.0</ele><time>2026-05-02T18:01:54Z</time></trkpt><trkpt lat="43.99821822781596" lon="12.579029187023442"><ele>33.0</ele><time>2026-05-02T18:01:56Z</time></trkpt><trkpt lat="43.99829551354286" lon="12.57906472011992"><ele>33.0</ele><time>2026-05-02T18:01:58Z</time></trkpt><trkpt lat="43.99837147846313" lon="12.579077987357447"><ele>33.285714285714285</ele><time>2026-05-02T18:02:00Z</time></trkpt><trkpt lat="43.99844649422236" lon="12.579105351135924"><ele>33.57142857142857</ele><time>2026-05-02T18:02:02Z</time></trkpt><trkpt lat="43.99851881839619" lon="12.579128542730656"><ele>33.85714285714286</ele><time>2026-05-02T18:02:04Z</time></trkpt><trkpt lat="43.99858355606972" lon="12.57913901500786"><ele>34.14285714285714</ele><time>2026-05-02T18:02:06Z</time></trkpt><trkpt lat="43.99865426338788" lon="12.579158880374438"><ele>34.42857142857143</ele><time>2026-05-02T18:02:08Z</time></trkpt><trkpt lat="43.99872743176906" lon="12.579178347184737"><ele>34.714285714285715</ele><time>2026-05-02T18:02:10Z</time></trkpt><trkpt lat="43.99880331036944" lon="12.57919074593257"><ele>35.0</ele><time>2026-05-02T18:02:12Z</time></trkpt><trkpt lat="43.99887010126791" lon="12.57920815570172"><ele>35.0</ele><time>2026-05-02T18:02:14Z</time></trkpt><trkpt lat="43.998941222007254" lon="12.579235004473775"><ele>35.0</ele><time>2026-05-02T18:02:16Z</time></trkpt><trkpt lat="43.999013346930965" lon="12.579248537775106"><ele>35.0</ele><time>2026-05-02T18:02:18Z</time></trkpt><trkpt lat="43.9990840094401" lon="12.579260248167284"><ele>35.0</ele><time>2026-05-02T18:02:20Z</time></trkpt><trkpt lat="43.99915130692185" lon="12.57928066149616"><ele>35.0</ele><time>2026-05-02T18:02:22Z</time></trkpt><trkpt lat="43.99922156576088" lon="12.57928820243027"><ele>35.0</ele><time>2026-05-02T18:02:24Z</time></trkpt><trkpt lat="43.999295932369826" lon="12.579344958144452"><ele>35.0</ele><time>2026-05-02T18:02:27Z</time></trkpt><trkpt lat="43.99929965703327" lon="12.57944730017755"><ele>35.142857142857146</ele><time>2026-05-02T18:02:29Z</time></trkpt><trkpt lat="43.999297546145264" lon="12.579559530493857"><ele>35.285714285714285</ele><time>2026-05-02T18:02:31Z</time></trkpt><trkpt lat="43.99929638181855" lon="12.579663355379976"><ele>35.42857142857143</ele><time>2026-05-02T18:02:33Z</time></trkpt><trkpt lat="43.99929430448035" lon="12.57976281085621"><ele>35.57142857142857</ele><time>2026-05-02T18:02:35Z</time></trkpt><trkpt lat="43.999298089449056" lon="12.579860157590256"><ele>35.714285714285715</ele><time>2026-05-02T18:02:37Z</time></trkpt><trkpt lat="43.99929851967684" lon="12.579956081896725"><ele>35.85714285714286</ele><time>2026-05-02T18:02:39Z</time></trkpt><trkpt lat="43.99930421579233" lon="12.580059339009889"><ele>36.0</ele><time>2026-05-02T18:02:41Z</time></trkpt><trkpt lat="43.999317850673734" lon="12.580173361212497"><ele>36.0</ele><time>2026-05-02T18:02:43Z</time></trkpt><trkpt lat="43.99932251152141" lon="12.580276398324338"><ele>36.0</ele><time>2026-05-02T18:02:45Z</time></trkpt><trkpt lat="43.99933774672916" lon="12.580384027978772"><ele>36.0</ele><time>2026-05-02T18:02:47Z</time></trkpt><trkpt lat="43.999351175190775" lon="12.580484799249849"><ele>36.0</ele><time>2026-05-02T18:02:49Z</time></trkpt><trkpt lat="43.99936128346987" lon="12.58058377048024"><ele>36.0</ele><time>2026-05-02T18:02:51Z</time></trkpt><trkpt lat="43.99937614071022" lon="12.580701659287884"><ele>36.0</ele><time>2026-05-02T18:02:53Z</time></trkpt><trkpt lat="43.99938932340584" lon="12.58080428378427"><ele>36.0</ele><time>2026-05-02T18:02:55Z</time></trkpt><trkpt lat="43.99940213659083" lon="12.580905910429562"><ele>36.0</ele><time>2026-05-02T18:02:57Z</time></trkpt><trkpt lat="43.99941133799278" lon="12.58101022851133"><ele>36.0</ele><time>2026-05-02T18:02:59Z</time></trkpt><trkpt lat="43.99943895722875" lon="12.58112325995768"><ele>36.0</ele><time>2026-05-02T18:03:01Z</time></trkpt><trkpt lat="43.999480525454445" lon="12.58122954940503"><ele>36.0</ele><time>2026-05-02T18:03:03Z</time></trkpt><trkpt lat="43.99952870013376" lon="12.58131676639214"><ele>36.0</ele><time>2026-05-02T18:03:05Z</time></trkpt><trkpt lat="43.99958798238817" lon="12.581406457874378"><ele>35.666666666666664</ele><time>2026-05-02T18:03:07Z</time></trkpt><trkpt lat="43.999651103853175" lon="12.581485117174667"><ele>35.333333333333336</ele><time>2026-05-02T18:03:08.999Z</time></trkpt><trkpt lat="43.99971099231113" lon="12.581559900809573"><ele>35.0</ele><time>2026-05-02T18:03:10.999Z</time></trkpt><trkpt lat="43.99977322421319" lon="12.581637731695425"><ele>34.66666666666667</ele><time>2026-05-02T18:03:12.999Z</time></trkpt><trkpt lat="43.9998328326758" lon="12.581721181123786"><ele>34.333333333333336</ele><time>2026-05-02T18:03:14.999Z</time></trkpt><trkpt lat="43.999890604165266" lon="12.581799408684509"><ele>34.0</ele><time>2026-05-02T18:03:16.999Z</time></trkpt><trkpt lat="43.99994410265567" lon="12.581875391548913"><ele>34.0</ele><time>2026-05-02T18:03:18.999Z</time></trkpt><trkpt lat="43.99999548137877" lon="12.581952449611782"><ele>34.0</ele><time>2026-05-02T18:03:20.999Z</time></trkpt><trkpt lat="44.00003640309018" lon="12.58204021200229"><ele>34.0</ele><time>2026-05-02T18:03:22.999Z</time></trkpt><trkpt lat="44.00005751204523" lon="12.582138819831602"><ele>34.0</ele><time>2026-05-02T18:03:24.999Z</time></trkpt><trkpt lat="44.00004410903855" lon="12.582242721027281"><ele>34.0</ele><time>2026-05-02T18:03:26.999Z</time></trkpt><trkpt lat="43.999988877787004" lon="12.582329885452372"><ele>34.0</ele><time>2026-05-02T18:03:28.999Z</time></trkpt><trkpt lat="43.99993648397504" lon="12.582406136263982"><ele>34.0</ele><time>2026-05-02T18:03:30.999Z</time></trkpt><trkpt lat="43.999870892510934" lon="12.582474002431887"><ele>34.0</ele><time>2026-05-02T18:03:32.999Z</time></trkpt><trkpt lat="43.99980713914137" lon="12.582538475346169"><ele>34.0</ele><time>2026-05-02T18:03:34.999Z</time></trkpt><trkpt lat="43.99974759222205" lon="12.582607589417794"><ele>34.0</ele><time>2026-05-02T18:03:36.999Z</time></trkpt><trkpt lat="43.99968924606956" lon="12.582667032041435"><ele>34.0</ele><time>2026-05-02T18:03:38.999Z</time></trkpt><trkpt lat="43.999628170549464" lon="12.5827311415237"><ele>34.0</ele><time>2026-05-02T18:03:40.999Z</time></trkpt><trkpt lat="43.99956233893532" lon="12.582799919615342"><ele>33.833333333333336</ele><time>2026-05-02T18:03:42.999Z</time></trkpt><trkpt lat="43.9994966678907" lon="12.582870464187307"><ele>33.66666666666667</ele><time>2026-05-02T18:03:44.999Z</time></trkpt><trkpt lat="43.999429916887095" lon="12.582935483825178"><ele>33.5</ele><time>2026-05-02T18:03:46.999Z</time></trkpt><trkpt lat="43.99936896364412" lon="12.583001437332252"><ele>33.333333333333336</ele><time>2026-05-02T18:03:48.999Z</time></trkpt><trkpt lat="43.999306460161144" lon="12.583069008939615"><ele>33.166666666666664</ele><time>2026-05-02T18:03:50.999Z</time></trkpt><trkpt lat="43.99924541484842" lon="12.583137031866922"><ele>33.0</ele><time>2026-05-02T18:03:52.999Z</time></trkpt><trkpt lat="43.99917708211632" lon="12.583206837242857"><ele>33.0</ele><time>2026-05-02T18:03:54.999Z</time></trkpt><trkpt lat="43.999108281083934" lon="12.583278101491054"><ele>33.0</ele><time>2026-05-02T18:03:56.999Z</time></trkpt><trkpt lat="43.9990356643365" lon="12.583354863971401"><ele>33.0</ele><time>2026-05-02T18:03:59Z</time></trkpt><trkpt lat="43.99895782265538" lon="12.583425294989366"><ele>33.0</ele><time>2026-05-02T18:04:01Z</time></trkpt><trkpt lat="43.99888465881039" lon="12.583498016348988"><ele>33.0</ele><time>2026-05-02T18:04:03Z</time></trkpt><trkpt lat="43.99881010424581" lon="12.583572594388599"><ele>33.0</ele><time>2026-05-02T18:04:05Z</time></trkpt><trkpt lat="43.998737956467274" lon="12.583647004861357"><ele>33.0</ele><time>2026-05-02T18:04:07Z</time></trkpt><trkpt lat="43.998665538604605" lon="12.583720279686966"><ele>33.0</ele><time>2026-05-02T18:04:09Z</time></trkpt><trkpt lat="43.99859957960899" lon="12.583788946832373"><ele>33.0</ele><time>2026-05-02T18:04:11Z</time></trkpt><trkpt lat="43.99853961237656" lon="12.58385469436926"><ele>33.0</ele><time>2026-05-02T18:04:13Z</time></trkpt><trkpt lat="43.99847435299314" lon="12.583921328926813"><ele>33.0</ele><time>2026-05-02T18:04:15Z</time></trkpt><trkpt lat="43.99841298942904" lon="12.583985604494293"><ele>33.0</ele><time>2026-05-02T18:04:17Z</time></trkpt><trkpt lat="43.998353633223665" lon="12.584042310478697"><ele>33.0</ele><time>2026-05-02T18:04:19Z</time></trkpt><trkpt lat="43.99829428302457" lon="12.584097342728096"><ele>33.0</ele><time>2026-05-02T18:04:21Z</time></trkpt><trkpt lat="43.99823912690498" lon="12.584155483998874"><ele>33.0</ele><time>2026-05-02T18:04:23Z</time></trkpt><trkpt lat="43.998185185462866" lon="12.584216637238267"><ele>33.0</ele><time>2026-05-02T18:04:25Z</time></trkpt><trkpt lat="43.9981311670524" lon="12.584313977708877"><ele>33.0</ele><time>2026-05-02T18:04:28Z</time></trkpt><trkpt lat="43.998115968350206" lon="12.58443289878412"><ele>32.833333333333336</ele><time>2026-05-02T18:04:31Z</time></trkpt><trkpt lat="43.99813905642985" lon="12.584556841112319"><ele>32.666666666666664</ele><time>2026-05-02T18:04:34Z</time></trkpt><trkpt lat="43.99817497234719" lon="12.584668590028087"><ele>32.5</ele><time>2026-05-02T18:04:37Z</time></trkpt><trkpt lat="43.998211897512434" lon="12.584789252779206"><ele>32.33333333333333</ele><time>2026-05-02T18:04:40Z</time></trkpt><trkpt lat="43.99825015491807" lon="12.584883429971892"><ele>32.166666666666664</ele><time>2026-05-02T18:04:42Z</time></trkpt><trkpt lat="43.99828033719777" lon="12.584984178924755"><ele>32.0</ele><time>2026-05-02T18:04:44Z</time></trkpt><trkpt lat="43.99831436247656" lon="12.585077823073574"><ele>31.999999999999996</ele><time>2026-05-02T18:04:46Z</time></trkpt><trkpt lat="43.99834109142845" lon="12.58517414172927"><ele>32.0</ele><time>2026-05-02T18:04:48Z</time></trkpt><trkpt lat="43.99837343808214" lon="12.585273463216291"><ele>32.0</ele><time>2026-05-02T18:04:50Z</time></trkpt><trkpt lat="43.99840979017086" lon="12.58536959854661"><ele>32.0</ele><time>2026-05-02T18:04:52Z</time></trkpt><trkpt lat="43.99844474091208" lon="12.58546729920388"><ele>31.999999999999996</ele><time>2026-05-02T18:04:54Z</time></trkpt><trkpt lat="43.99847782109447" lon="12.585560122817583"><ele>32.0</ele><time>2026-05-02T18:04:56Z</time></trkpt><trkpt lat="43.99852331179228" lon="12.585666047098128"><ele>31.999999999999996</ele><time>2026-05-02T18:04:58Z</time></trkpt><trkpt lat="43.9985700317884" lon="12.585763158373181"><ele>32.0</ele><time>2026-05-02T18:05:00Z</time></trkpt><trkpt lat="43.998615701555856" lon="12.58586722984036"><ele>32.0</ele><time>2026-05-02T18:05:02Z</time></trkpt><trkpt lat="43.99866177975413" lon="12.585964915988805"><ele>32.0</ele><time>2026-05-02T18:05:04Z</time></trkpt><trkpt lat="43.99870935388013" lon="12.58604962874906"><ele>31.999999999999996</ele><time>2026-05-02T18:05:06Z</time></trkpt><trkpt lat="43.998756356582504" lon="12.58613501934109"><ele>32.0</ele><time>2026-05-02T18:05:08Z</time></trkpt><trkpt lat="43.99880835601708" lon="12.586219221286411"><ele>31.999999999999996</ele><time>2026-05-02T18:05:10Z</time></trkpt><trkpt lat="43.998859852528554" lon="12.58631069662676"><ele>32.0</ele><time>2026-05-02T18:05:12Z</time></trkpt><trkpt lat="43.998912913701666" lon="12.586390646726192"><ele>32.0</ele><time>2026-05-02T18:05:13.999Z</time></trkpt><trkpt lat="43.99895653727061" lon="12.586457952445212"><ele>32.0</ele><time>2026-05-02T18:05:15.999Z</time></trkpt><trkpt lat="43.99901420348702" lon="12.586543129422402"><ele>31.999999999999996</ele><time>2026-05-02T18:05:17.999Z</time></trkpt><trkpt lat="43.99906369653449" lon="12.586631014267384"><ele>32.0</ele><time>2026-05-02T18:05:19.999Z</time></trkpt><trkpt lat="43.99911060255476" lon="12.586726223765694"><ele>31.999999999999996</ele><time>2026-05-02T18:05:21.999Z</time></trkpt><trkpt lat="43.99915466833062" lon="12.58682852961217"><ele>32.0</ele><time>2026-05-02T18:05:23.999Z</time></trkpt><trkpt lat="43.999178198025916" lon="12.586950116184017"><ele>32.0</ele><time>2026-05-02T18:05:25.999Z</time></trkpt><trkpt lat="43.99918611470675" lon="12.587075305468602"><ele>32.0</ele><time>2026-05-02T18:05:27.999Z</time></trkpt><trkpt lat="43.99917578773529" lon="12.587195404802701"><ele>31.999999999999996</ele><time>2026-05-02T18:05:29.999Z</time></trkpt><trkpt lat="43.99915986292214" lon="12.587316958939246"><ele>32.0</ele><time>2026-05-02T18:05:31.999Z</time></trkpt><trkpt lat="43.99912750475175" lon="12.587428181415742"><ele>31.833333333333332</ele><time>2026-05-02T18:05:33.999Z</time></trkpt><trkpt lat="43.99908894708106" lon="12.587542503753426"><ele>31.666666666666664</ele><time>2026-05-02T18:05:35.999Z</time></trkpt><trkpt lat="43.99905602797326" lon="12.587661808400556"><ele>31.5</ele><time>2026-05-02T18:05:37.999Z</time></trkpt><trkpt lat="43.99902629860091" lon="12.587776430668457"><ele>31.333333333333336</ele><time>2026-05-02T18:05:39.999Z</time></trkpt><trkpt lat="43.99901044173903" lon="12.58788752414293"><ele>31.166666666666668</ele><time>2026-05-02T18:05:41.999Z</time></trkpt><trkpt lat="43.99900419892385" lon="12.587994556285762"><ele>31.0</ele><time>2026-05-02T18:05:43.999Z</time></trkpt><trkpt lat="43.999005533237124" lon="12.588097271015608"><ele>31.000000000000004</ele><time>2026-05-02T18:05:45.999Z</time></trkpt><trkpt lat="43.99901937546908" lon="12.588191387017961"><ele>31.0</ele><time>2026-05-02T18:05:47.999Z</time></trkpt><trkpt lat="43.99903204980655" lon="12.588295897371442"><ele>31.0</ele><time>2026-05-02T18:05:49.999Z</time></trkpt><trkpt lat="43.99904086786169" lon="12.588413897273835"><ele>31.0</ele><time>2026-05-02T18:05:51.999Z</time></trkpt><trkpt lat="43.999044489707046" lon="12.588528762453143"><ele>31.000000000000004</ele><time>2026-05-02T18:05:53.999Z</time></trkpt><trkpt lat="43.99905413743322" lon="12.588644618558106"><ele>31.0</ele><time>2026-05-02T18:05:55.999Z</time></trkpt><trkpt lat="43.99906038336813" lon="12.588772859595863"><ele>31.0</ele><time>2026-05-02T18:05:57.999Z</time></trkpt><trkpt lat="43.9990666515951" lon="12.588891372492832"><ele>31.0</ele><time>2026-05-02T18:05:59.999Z</time></trkpt><trkpt lat="43.99907611443861" lon="12.589036066850266"><ele>31.0</ele><time>2026-05-02T18:06:01.999Z</time></trkpt><trkpt lat="43.99909645257936" lon="12.589181148735213"><ele>31.0</ele><time>2026-05-02T18:06:04Z</time></trkpt><trkpt lat="43.99911871530487" lon="12.589345687920018"><ele>31.0</ele><time>2026-05-02T18:06:06Z</time></trkpt><trkpt lat="43.99919890289921" lon="12.589470668002575"><ele>30.500000000000004</ele><time>2026-05-02T18:06:08Z</time></trkpt><trkpt lat="43.999258343877024" lon="12.589509110408002"><ele>30.0</ele><time>2026-05-02T18:06:09Z</time></trkpt><trkpt lat="43.99932121908749" lon="12.589525633652716"><ele>29.5</ele><time>2026-05-02T18:06:10Z</time></trkpt><trkpt lat="43.999439175270076" lon="12.58953691038856"><ele>29.0</ele><time>2026-05-02T18:06:12Z</time></trkpt><trkpt lat="43.99954671214211" lon="12.589535985739397"><ele>28.500000000000004</ele><time>2026-05-02T18:06:14Z</time></trkpt><trkpt lat="43.99963398895099" lon="12.589537183612284"><ele>28.0</ele><time>2026-05-02T18:06:16Z</time></trkpt><trkpt lat="43.99971934787625" lon="12.58955233529137"><ele>28.000000000000004</ele><time>2026-05-02T18:06:18Z</time></trkpt><trkpt lat="43.99978752276266" lon="12.589592184027614"><ele>28.0</ele><time>2026-05-02T18:06:20Z</time></trkpt><trkpt lat="43.9997740595304" lon="12.589678045208963"><ele>28.0</ele><time>2026-05-02T18:06:22Z</time></trkpt><trkpt lat="43.99977234556482" lon="12.589800806922158"><ele>28.0</ele><time>2026-05-02T18:06:24Z</time></trkpt><trkpt lat="43.999763356613094" lon="12.58991869029207"><ele>28.000000000000004</ele><time>2026-05-02T18:06:26Z</time></trkpt><trkpt lat="43.99975142195873" lon="12.590036427521158"><ele>28.0</ele><time>2026-05-02T18:06:28Z</time></trkpt><trkpt lat="43.99974140596111" lon="12.590149026989954"><ele>28.000000000000004</ele><time>2026-05-02T18:06:30Z</time></trkpt><trkpt lat="43.99974492380382" lon="12.590278276911768"><ele>28.0</ele><time>2026-05-02T18:06:32Z</time></trkpt><trkpt lat="43.999799089466535" lon="12.590326001873636"><ele>28.0</ele><time>2026-05-02T18:06:33Z</time></trkpt><trkpt lat="43.999826931804606" lon="12.5904225335694"><ele>28.0</ele><time>2026-05-02T18:06:35Z</time></trkpt><trkpt lat="43.9998030714404" lon="12.590524075992672"><ele>28.000000000000004</ele><time>2026-05-02T18:06:37Z</time></trkpt><trkpt lat="43.999742706706016" lon="12.590599782646805"><ele>28.0</ele><time>2026-05-02T18:06:39Z</time></trkpt><trkpt lat="43.99966909837167" lon="12.590624448041936"><ele>28.142857142857142</ele><time>2026-05-02T18:06:41Z</time></trkpt><trkpt lat="43.999601247875816" lon="12.590657000664034"><ele>28.285714285714285</ele><time>2026-05-02T18:06:43Z</time></trkpt><trkpt lat="43.99953340347392" lon="12.590680050973559"><ele>28.42857142857143</ele><time>2026-05-02T18:06:45Z</time></trkpt><trkpt lat="43.99947150379109" lon="12.590713616078768"><ele>28.571428571428573</ele><time>2026-05-02T18:06:47Z</time></trkpt><trkpt lat="43.999410845050434" lon="12.590746294333943"><ele>28.714285714285715</ele><time>2026-05-02T18:06:49Z</time></trkpt><trkpt lat="43.99934877612439" lon="12.59076901267899"><ele>28.85714285714286</ele><time>2026-05-02T18:06:51Z</time></trkpt><trkpt lat="43.99926551345271" lon="12.590805387432804"><ele>29.000000000000004</ele><time>2026-05-02T18:06:54Z</time></trkpt><trkpt lat="43.99918387846308" lon="12.590836039099283"><ele>28.999999999999996</ele><time>2026-05-02T18:06:57Z</time></trkpt><trkpt lat="43.99910288429398" lon="12.590874534165671"><ele>29.0</ele><time>2026-05-02T18:07:00Z</time></trkpt><trkpt lat="43.9990217842439" lon="12.590906722544187"><ele>29.0</ele><time>2026-05-02T18:07:03Z</time></trkpt><trkpt lat="43.9989398796159" lon="12.59094417823349"><ele>29.0</ele><time>2026-05-02T18:07:06Z</time></trkpt><trkpt lat="43.99886042516408" lon="12.590986931193967"><ele>28.999999999999996</ele><time>2026-05-02T18:07:08.999Z</time></trkpt><trkpt lat="43.99878576163857" lon="12.591055597456865"><ele>29.0</ele><time>2026-05-02T18:07:11.999Z</time></trkpt><trkpt lat="43.99871527393515" lon="12.591138285314209"><ele>29.142857142857146</ele><time>2026-05-02T18:07:14.999Z</time></trkpt><trkpt lat="43.99866808890343" lon="12.591204737069686"><ele>29.285714285714285</ele><time>2026-05-02T18:07:16.999Z</time></trkpt><trkpt lat="43.998620209682905" lon="12.591277717368081"><ele>29.42857142857143</ele><time>2026-05-02T18:07:18.999Z</time></trkpt><trkpt lat="43.99857246576359" lon="12.591353299522607"><ele>29.571428571428573</ele><time>2026-05-02T18:07:20.999Z</time></trkpt><trkpt lat="43.99852411034336" lon="12.59143380538791"><ele>29.714285714285715</ele><time>2026-05-02T18:07:22.999Z</time></trkpt><trkpt lat="43.99845483741685" lon="12.591477205506614"><ele>29.857142857142858</ele><time>2026-05-02T18:07:24.999Z</time></trkpt><trkpt lat="43.99841367150631" lon="12.591549176288424"><ele>30.0</ele><time>2026-05-02T18:07:26.999Z</time></trkpt><trkpt lat="43.99836720152234" lon="12.591630420215044"><ele>29.666666666666668</ele><time>2026-05-02T18:07:28.999Z</time></trkpt><trkpt lat="43.99832208383722" lon="12.591709299722346"><ele>29.333333333333336</ele><time>2026-05-02T18:07:30.999Z</time></trkpt><trkpt lat="43.998277158762804" lon="12.591787842916933"><ele>29.0</ele><time>2026-05-02T18:07:32.999Z</time></trkpt><trkpt lat="43.99823364594432" lon="12.591863911612641"><ele>28.666666666666668</ele><time>2026-05-02T18:07:34.999Z</time></trkpt><trkpt lat="43.998184774229145" lon="12.591949328585082"><ele>28.333333333333336</ele><time>2026-05-02T18:07:36.999Z</time></trkpt><trkpt lat="43.998129459282204" lon="12.592046006864491"><ele>28.0</ele><time>2026-05-02T18:07:38.999Z</time></trkpt><trkpt lat="43.99807011074863" lon="12.592149734960978"><ele>28.0</ele><time>2026-05-02T18:07:40.999Z</time></trkpt><trkpt lat="43.998002342199506" lon="12.592267011255357"><ele>27.999999999999996</ele><time>2026-05-02T18:07:42.999Z</time></trkpt><trkpt lat="43.997932555185265" lon="12.592386869028443"><ele>27.999999999999996</ele><time>2026-05-02T18:07:44.999Z</time></trkpt><trkpt lat="43.99785987424519" lon="12.592511697038185"><ele>28.0</ele><time>2026-05-02T18:07:46.999Z</time></trkpt><trkpt lat="43.99779075321843" lon="12.592634237317398"><ele>28.0</ele><time>2026-05-02T18:07:48.999Z</time></trkpt><trkpt lat="43.9977259938697" lon="12.59275010421464"><ele>27.833333333333336</ele><time>2026-05-02T18:07:50.999Z</time></trkpt><trkpt lat="43.99766464785435" lon="12.592859776107074"><ele>27.666666666666668</ele><time>2026-05-02T18:07:52.999Z</time></trkpt><trkpt lat="43.997607542852904" lon="12.592961866122"><ele>27.5</ele><time>2026-05-02T18:07:54.999Z</time></trkpt><trkpt lat="43.99755825846798" lon="12.59304997472386"><ele>27.333333333333336</ele><time>2026-05-02T18:07:56.999Z</time></trkpt><trkpt lat="43.997502153914056" lon="12.593150511458193"><ele>27.166666666666668</ele><time>2026-05-02T18:07:58.999Z</time></trkpt><trkpt lat="43.99745306971657" lon="12.593238719115059"><ele>27.0</ele><time>2026-05-02T18:08:00.999Z</time></trkpt><trkpt lat="43.997407231996235" lon="12.59332109265354"><ele>27.0</ele><time>2026-05-02T18:08:02.999Z</time></trkpt><trkpt lat="43.997364977426926" lon="12.593397026985317"><ele>27.0</ele><time>2026-05-02T18:08:04.999Z</time></trkpt><trkpt lat="43.99732374067386" lon="12.593471132240076"><ele>27.0</ele><time>2026-05-02T18:08:06.999Z</time></trkpt><trkpt lat="43.9972841977209" lon="12.593542193685462"><ele>27.0</ele><time>2026-05-02T18:08:08.999Z</time></trkpt><trkpt lat="43.9972447732334" lon="12.593613042131523"><ele>27.0</ele><time>2026-05-02T18:08:11Z</time></trkpt><trkpt lat="43.997188144576874" lon="12.593714807728492"><ele>27.0</ele><time>2026-05-02T18:08:14Z</time></trkpt><trkpt lat="43.99713343760029" lon="12.593813119935762"><ele>27.0</ele><time>2026-05-02T18:08:17Z</time></trkpt><trkpt lat="43.99709283803055" lon="12.593886080106548"><ele>27.285714285714285</ele><time>2026-05-02T18:08:19Z</time></trkpt><trkpt lat="43.99705134168391" lon="12.593960651897207"><ele>27.57142857142857</ele><time>2026-05-02T18:08:21Z</time></trkpt><trkpt lat="43.997008696337105" lon="12.594037773961348"><ele>27.85714285714286</ele><time>2026-05-02T18:08:23Z</time></trkpt><trkpt lat="43.99696577504185" lon="12.594115513949074"><ele>28.142857142857146</ele><time>2026-05-02T18:08:25Z</time></trkpt><trkpt lat="43.99692513433281" lon="12.594189123354223"><ele>28.42857142857143</ele><time>2026-05-02T18:08:27Z</time></trkpt><trkpt lat="43.996867499277045" lon="12.594293513111264"><ele>28.71428571428572</ele><time>2026-05-02T18:08:30Z</time></trkpt><trkpt lat="43.996825204509896" lon="12.594370393527887"><ele>29.000000000000004</ele><time>2026-05-02T18:08:32Z</time></trkpt><trkpt lat="43.99678274652396" lon="12.59444886832405"><ele>28.999999999999996</ele><time>2026-05-02T18:08:34Z</time></trkpt><trkpt lat="43.99674439265965" lon="12.594520631157359"><ele>29.0</ele><time>2026-05-02T18:08:36Z</time></trkpt><trkpt lat="43.99669472829095" lon="12.594617266770213"><ele>29.0</ele><time>2026-05-02T18:08:39Z</time></trkpt><trkpt lat="43.996653922818254" lon="12.594719570550406"><ele>29.0</ele><time>2026-05-02T18:08:42Z</time></trkpt><trkpt lat="43.99663053810335" lon="12.594807309209529"><ele>28.999999999999996</ele><time>2026-05-02T18:08:46Z</time></trkpt><trkpt lat="43.99660998953493" lon="12.594897612955071"><ele>29.0</ele><time>2026-05-02T18:08:52Z</time></trkpt><trkpt lat="43.996746407986564" lon="12.595042821141865"><ele>28.999999999999996</ele><time>2026-05-02T18:08:55Z</time></trkpt><trkpt lat="43.99680777679128" lon="12.595117855491589"><ele>29.0</ele><time>2026-05-02T18:08:57Z</time></trkpt><trkpt lat="43.99685757501533" lon="12.595209952067203"><ele>29.0</ele><time>2026-05-02T18:08:59Z</time></trkpt><trkpt lat="43.996903977954716" lon="12.595318344813721"><ele>29.0</ele><time>2026-05-02T18:09:01Z</time></trkpt><trkpt lat="43.9969430675571" lon="12.595434611160076"><ele>28.999999999999996</ele><time>2026-05-02T18:09:03Z</time></trkpt><trkpt lat="43.99698453452707" lon="12.595558068003909"><ele>29.0</ele><time>2026-05-02T18:09:05Z</time></trkpt><trkpt lat="43.9970281354193" lon="12.595683262548333"><ele>28.799999999999997</ele><time>2026-05-02T18:09:07Z</time></trkpt><trkpt lat="43.99707066418467" lon="12.595814709648081"><ele>28.599999999999998</ele><time>2026-05-02T18:09:09Z</time></trkpt><trkpt lat="43.99711892776044" lon="12.59595668669569"><ele>28.4</ele><time>2026-05-02T18:09:11Z</time></trkpt><trkpt lat="43.997160990989286" lon="12.59609468226323"><ele>28.2</ele><time>2026-05-02T18:09:13Z</time></trkpt><trkpt lat="43.99719588195438" lon="12.59623888417395"><ele>28.0</ele><time>2026-05-02T18:09:15Z</time></trkpt><trkpt lat="43.997225206782076" lon="12.596385461706474"><ele>28.4</ele><time>2026-05-02T18:09:17Z</time></trkpt><trkpt lat="43.99725912531141" lon="12.596533416631267"><ele>28.799999999999997</ele><time>2026-05-02T18:09:19Z</time></trkpt><trkpt lat="43.997305330762266" lon="12.596677667235962"><ele>29.2</ele><time>2026-05-02T18:09:21Z</time></trkpt><trkpt lat="43.99733478829277" lon="12.59682633682312"><ele>29.6</ele><time>2026-05-02T18:09:23Z</time></trkpt><trkpt lat="43.99736687370925" lon="12.596970835047586"><ele>30.0</ele><time>2026-05-02T18:09:25Z</time></trkpt><trkpt lat="43.99739413395656" lon="12.597126679944369"><ele>30.0</ele><time>2026-05-02T18:09:27Z</time></trkpt><trkpt lat="43.99741705944722" lon="12.597277472698199"><ele>30.0</ele><time>2026-05-02T18:09:29Z</time></trkpt><trkpt lat="43.99743600443842" lon="12.597419655103224"><ele>30.0</ele><time>2026-05-02T18:09:31Z</time></trkpt><trkpt lat="43.99744379761712" lon="12.597566210056591"><ele>30.0</ele><time>2026-05-02T18:09:33Z</time></trkpt><trkpt lat="43.997444158154615" lon="12.597701565553283"><ele>30.0</ele><time>2026-05-02T18:09:34.999Z</time></trkpt><trkpt lat="43.99743321878747" lon="12.597837891502726"><ele>29.8</ele><time>2026-05-02T18:09:36.999Z</time></trkpt><trkpt lat="43.997421230378905" lon="12.597977600690417"><ele>29.6</ele><time>2026-05-02T18:09:38.999Z</time></trkpt><trkpt lat="43.997410454496304" lon="12.59811322787077"><ele>29.4</ele><time>2026-05-02T18:09:40.999Z</time></trkpt><trkpt lat="43.99740598512814" lon="12.598252172288355"><ele>29.2</ele><time>2026-05-02T18:09:42.999Z</time></trkpt><trkpt lat="43.99740211671813" lon="12.598394597043853"><ele>29.0</ele><time>2026-05-02T18:09:44.999Z</time></trkpt><trkpt lat="43.99739968863265" lon="12.598542728321041"><ele>29.0</ele><time>2026-05-02T18:09:46.999Z</time></trkpt><trkpt lat="43.997407080850785" lon="12.598695394282412"><ele>29.0</ele><time>2026-05-02T18:09:48.999Z</time></trkpt><trkpt lat="43.99741473534693" lon="12.598846872603293"><ele>29.0</ele><time>2026-05-02T18:09:50.999Z</time></trkpt><trkpt lat="43.997421463689946" lon="12.598998171645865"><ele>29.0</ele><time>2026-05-02T18:09:52.999Z</time></trkpt><trkpt lat="43.9974178640614" lon="12.599150415013264"><ele>29.0</ele><time>2026-05-02T18:09:54.999Z</time></trkpt><trkpt lat="43.99740903981646" lon="12.599305557142"><ele>29.0</ele><time>2026-05-02T18:09:56.999Z</time></trkpt><trkpt lat="43.997396510869876" lon="12.59946127762638"><ele>29.0</ele><time>2026-05-02T18:09:58.999Z</time></trkpt><trkpt lat="43.99736759345417" lon="12.59960755602537"><ele>29.0</ele><time>2026-05-02T18:10:00.999Z</time></trkpt><trkpt lat="43.99732981916333" lon="12.599748866453437"><ele>29.0</ele><time>2026-05-02T18:10:02.999Z</time></trkpt><trkpt lat="43.99729333012808" lon="12.599891456431013"><ele>29.0</ele><time>2026-05-02T18:10:04.999Z</time></trkpt><trkpt lat="43.99725419556631" lon="12.600029610586114"><ele>28.799999999999997</ele><time>2026-05-02T18:10:06.999Z</time></trkpt><trkpt lat="43.997217977809015" lon="12.60016741699325"><ele>28.599999999999998</ele><time>2026-05-02T18:10:08.999Z</time></trkpt><trkpt lat="43.99718473140257" lon="12.600302390940758"><ele>28.4</ele><time>2026-05-02T18:10:10.999Z</time></trkpt><trkpt lat="43.997146450441925" lon="12.600434409784176"><ele>28.2</ele><time>2026-05-02T18:10:12.999Z</time></trkpt><trkpt lat="43.99711045989677" lon="12.600559811150003"><ele>28.0</ele><time>2026-05-02T18:10:14.999Z</time></trkpt><trkpt lat="43.99707704270697" lon="12.600673309437335"><ele>28.0</ele><time>2026-05-02T18:10:17Z</time></trkpt><trkpt lat="43.99703719817615" lon="12.600796496742236"><ele>27.999999999999996</ele><time>2026-05-02T18:10:19Z</time></trkpt><trkpt lat="43.99700738836765" lon="12.600927640102496"><ele>27.999999999999996</ele><time>2026-05-02T18:10:21Z</time></trkpt><trkpt lat="43.99698027698324" lon="12.601045795832361"><ele>28.0</ele><time>2026-05-02T18:10:23Z</time></trkpt><trkpt lat="43.99694714880256" lon="12.60115306980514"><ele>28.0</ele><time>2026-05-02T18:10:25Z</time></trkpt><trkpt lat="43.9969155476377" lon="12.601258677965918"><ele>28.000000000000004</ele><time>2026-05-02T18:10:27Z</time></trkpt><trkpt lat="43.99689139866429" lon="12.60135813197205"><ele>28.0</ele><time>2026-05-02T18:10:29Z</time></trkpt><trkpt lat="43.99685289306123" lon="12.601466285976999"><ele>28.0</ele><time>2026-05-02T18:10:31Z</time></trkpt><trkpt lat="43.9968101536384" lon="12.601580498249447"><ele>28.0</ele><time>2026-05-02T18:10:33Z</time></trkpt><trkpt lat="43.99677936756501" lon="12.601682298764857"><ele>28.000000000000004</ele><time>2026-05-02T18:10:35Z</time></trkpt><trkpt lat="43.99674589284034" lon="12.601782596381629"><ele>28.0</ele><time>2026-05-02T18:10:37Z</time></trkpt><trkpt lat="43.996726726384324" lon="12.601906544912568"><ele>28.000000000000004</ele><time>2026-05-02T18:10:39Z</time></trkpt><trkpt lat="43.9967046560561" lon="12.602024053609208"><ele>28.0</ele><time>2026-05-02T18:10:41Z</time></trkpt><trkpt lat="43.99667060028326" lon="12.602141635833178"><ele>28.0</ele><time>2026-05-02T18:10:43Z</time></trkpt><trkpt lat="43.99663857186439" lon="12.60225355157695"><ele>28.0</ele><time>2026-05-02T18:10:45Z</time></trkpt><trkpt lat="43.99660863163187" lon="12.602365483583446"><ele>28.000000000000004</ele><time>2026-05-02T18:10:47Z</time></trkpt><trkpt lat="43.99658400613234" lon="12.60246714875274"><ele>28.0</ele><time>2026-05-02T18:10:49Z</time></trkpt><trkpt lat="43.99655824833387" lon="12.60256209026056"><ele>27.833333333333336</ele><time>2026-05-02T18:10:51Z</time></trkpt><trkpt lat="43.99653285210942" lon="12.602668939763733"><ele>27.666666666666668</ele><time>2026-05-02T18:10:53Z</time></trkpt><trkpt lat="43.99650210124746" lon="12.602767666187056"><ele>27.5</ele><time>2026-05-02T18:10:55Z</time></trkpt><trkpt lat="43.996452757826965" lon="12.602852811909683"><ele>27.333333333333336</ele><time>2026-05-02T18:10:57Z</time></trkpt><trkpt lat="43.99640328530626" lon="12.602943308341858"><ele>27.166666666666668</ele><time>2026-05-02T18:10:59Z</time></trkpt><trkpt lat="43.9963846656927" lon="12.603067599232357"><ele>27.0</ele><time>2026-05-02T18:11:01Z</time></trkpt><trkpt lat="43.99640199646297" lon="12.603174223656925"><ele>27.0</ele><time>2026-05-02T18:11:03Z</time></trkpt><trkpt lat="43.99641765517005" lon="12.603291767201082"><ele>27.000000000000004</ele><time>2026-05-02T18:11:05Z</time></trkpt><trkpt lat="43.996435872486764" lon="12.6034177717963"><ele>27.000000000000004</ele><time>2026-05-02T18:11:07Z</time></trkpt><trkpt lat="43.99645310009887" lon="12.603542698108171"><ele>27.0</ele><time>2026-05-02T18:11:09Z</time></trkpt><trkpt lat="43.99647190589036" lon="12.603673767032566"><ele>27.0</ele><time>2026-05-02T18:11:11Z</time></trkpt><trkpt lat="43.99649462002344" lon="12.603804686710344"><ele>27.0</ele><time>2026-05-02T18:11:13Z</time></trkpt><trkpt lat="43.99652176334141" lon="12.603930947332396"><ele>27.000000000000004</ele><time>2026-05-02T18:11:15Z</time></trkpt><trkpt lat="43.99654737007674" lon="12.604071647588217"><ele>27.000000000000004</ele><time>2026-05-02T18:11:17Z</time></trkpt><trkpt lat="43.99654088807519" lon="12.604224304753798"><ele>27.0</ele><time>2026-05-02T18:11:19Z</time></trkpt><trkpt lat="43.99656965099035" lon="12.6043509995974"><ele>27.0</ele><time>2026-05-02T18:11:21Z</time></trkpt><trkpt lat="43.99660121241487" lon="12.604486769285286"><ele>27.200000000000003</ele><time>2026-05-02T18:11:23Z</time></trkpt><trkpt lat="43.99663580353776" lon="12.604635572317196"><ele>27.400000000000002</ele><time>2026-05-02T18:11:25Z</time></trkpt><trkpt lat="43.99667080923338" lon="12.604782292756802"><ele>27.599999999999998</ele><time>2026-05-02T18:11:27Z</time></trkpt><trkpt lat="43.9967057019739" lon="12.604928498917912"><ele>27.799999999999997</ele><time>2026-05-02T18:11:29Z</time></trkpt><trkpt lat="43.996739567980924" lon="12.605071295730164"><ele>28.0</ele><time>2026-05-02T18:11:31Z</time></trkpt><trkpt lat="43.996772993024805" lon="12.605212411354483"><ele>27.4</ele><time>2026-05-02T18:11:33Z</time></trkpt><trkpt lat="43.996805503971906" lon="12.605349667380285"><ele>26.799999999999997</ele><time>2026-05-02T18:11:35Z</time></trkpt><trkpt lat="43.996839553704596" lon="12.60549342017272"><ele>26.2</ele><time>2026-05-02T18:11:37Z</time></trkpt><trkpt lat="43.99687480205258" lon="12.605642233437656"><ele>25.6</ele><time>2026-05-02T18:11:39Z</time></trkpt><trkpt lat="43.99690865374839" lon="12.605783018533794"><ele>25.0</ele><time>2026-05-02T18:11:40.999Z</time></trkpt><trkpt lat="43.9969415640116" lon="12.605918391144789"><ele>25.0</ele><time>2026-05-02T18:11:42.999Z</time></trkpt><trkpt lat="43.99697407281294" lon="12.60605211269874"><ele>25.0</ele><time>2026-05-02T18:11:44.999Z</time></trkpt><trkpt lat="43.997010497180845" lon="12.606198017199508"><ele>25.0</ele><time>2026-05-02T18:11:46.999Z</time></trkpt><trkpt lat="43.99704580725122" lon="12.606338459061886"><ele>25.0</ele><time>2026-05-02T18:11:48.999Z</time></trkpt><trkpt lat="43.9970787419506" lon="12.606474683620409"><ele>25.0</ele><time>2026-05-02T18:11:50.999Z</time></trkpt><trkpt lat="43.997110840627656" lon="12.6066092474493"><ele>25.0</ele><time>2026-05-02T18:11:52.999Z</time></trkpt><trkpt lat="43.997137931402" lon="12.606736359675295"><ele>25.0</ele><time>2026-05-02T18:11:54.999Z</time></trkpt><trkpt lat="43.99716271679417" lon="12.606871624848429"><ele>25.0</ele><time>2026-05-02T18:11:56.999Z</time></trkpt><trkpt lat="43.997188740812" lon="12.607005234675384"><ele>25.0</ele><time>2026-05-02T18:11:58.999Z</time></trkpt><trkpt lat="43.99721420496887" lon="12.607130312427712"><ele>25.0</ele><time>2026-05-02T18:12:00.999Z</time></trkpt><trkpt lat="43.997242310747644" lon="12.607261639398125"><ele>25.0</ele><time>2026-05-02T18:12:02.999Z</time></trkpt><trkpt lat="43.99727160387849" lon="12.607382543147393"><ele>25.0</ele><time>2026-05-02T18:12:04.999Z</time></trkpt><trkpt lat="43.99730920816721" lon="12.607505088351521"><ele>25.0</ele><time>2026-05-02T18:12:06.999Z</time></trkpt><trkpt lat="43.9973498976489" lon="12.607618921610417"><ele>25.0</ele><time>2026-05-02T18:12:08.999Z</time></trkpt><trkpt lat="43.99739384005075" lon="12.607730722861733"><ele>25.0</ele><time>2026-05-02T18:12:10.999Z</time></trkpt><trkpt lat="43.99743989598224" lon="12.607839950034831"><ele>25.0</ele><time>2026-05-02T18:12:12.999Z</time></trkpt><trkpt lat="43.99749504876872" lon="12.6079625735652"><ele>25.0</ele><time>2026-05-02T18:12:14.999Z</time></trkpt><trkpt lat="43.99754646445555" lon="12.608071968302797"><ele>25.0</ele><time>2026-05-02T18:12:16.999Z</time></trkpt><trkpt lat="43.99762619621321" lon="12.608150510798522"><ele>25.0</ele><time>2026-05-02T18:12:18.999Z</time></trkpt><trkpt lat="43.99766691735212" lon="12.608289906736683"><ele>25.0</ele><time>2026-05-02T18:12:20.999Z</time></trkpt><trkpt lat="43.99772566201126" lon="12.608321385786256"><ele>24.8</ele><time>2026-05-02T18:12:22Z</time></trkpt><trkpt lat="43.9977880139452" lon="12.608434536688636"><ele>24.6</ele><time>2026-05-02T18:12:24Z</time></trkpt><trkpt lat="43.99787877431735" lon="12.608484617441778"><ele>24.4</ele><time>2026-05-02T18:12:26Z</time></trkpt><trkpt lat="43.997948878304435" lon="12.608569213396708"><ele>24.2</ele><time>2026-05-02T18:12:28Z</time></trkpt><trkpt lat="43.99802632614662" lon="12.608601826061351"><ele>24.0</ele><time>2026-05-02T18:12:30Z</time></trkpt><trkpt lat="43.9980882754822" lon="12.608667964727458"><ele>23.999999999999996</ele><time>2026-05-02T18:12:32Z</time></trkpt><trkpt lat="43.99815371023854" lon="12.608707075129736"><ele>24.0</ele><time>2026-05-02T18:12:34Z</time></trkpt><trkpt lat="43.998222383198474" lon="12.608729644594975"><ele>24.0</ele><time>2026-05-02T18:12:36Z</time></trkpt><trkpt lat="43.99828670392271" lon="12.608765416033044"><ele>24.0</ele><time>2026-05-02T18:12:38Z</time></trkpt><trkpt lat="43.998346654107635" lon="12.608796316953587"><ele>24.0</ele><time>2026-05-02T18:12:40Z</time></trkpt><trkpt lat="43.998421981441844" lon="12.608860597391361"><ele>23.999999999999996</ele><time>2026-05-02T18:12:43Z</time></trkpt><trkpt lat="43.99850043611463" lon="12.608906743884031"><ele>24.0</ele><time>2026-05-02T18:12:46Z</time></trkpt><trkpt lat="43.99857642127189" lon="12.608956578838228"><ele>24.0</ele><time>2026-05-02T18:12:49Z</time></trkpt><trkpt lat="43.9986560943041" lon="12.608981248154317"><ele>24.0</ele><time>2026-05-02T18:12:52Z</time></trkpt><trkpt lat="43.99872518932965" lon="12.60903873713222"><ele>24.0</ele><time>2026-05-02T18:12:55Z</time></trkpt><trkpt lat="43.99878811585195" lon="12.609092976352207"><ele>24.0</ele><time>2026-05-02T18:12:58Z</time></trkpt><trkpt lat="43.99885388023157" lon="12.609150272544058"><ele>24.0</ele><time>2026-05-02T18:13:01Z</time></trkpt><trkpt lat="43.99892005240254" lon="12.609206841165228"><ele>24.0</ele><time>2026-05-02T18:13:04Z</time></trkpt><trkpt lat="43.99897921997138" lon="12.609263797045351"><ele>24.0</ele><time>2026-05-02T18:13:07Z</time></trkpt><trkpt lat="43.999040828696174" lon="12.609325743534038"><ele>24.0</ele><time>2026-05-02T18:13:10Z</time></trkpt><trkpt lat="43.99910531558561" lon="12.609391703459005"><ele>24.0</ele><time>2026-05-02T18:13:13Z</time></trkpt><trkpt lat="43.99916653653569" lon="12.609452464029765"><ele>24.0</ele><time>2026-05-02T18:13:16Z</time></trkpt><trkpt lat="43.999228883207614" lon="12.609513501090843"><ele>24.0</ele><time>2026-05-02T18:13:19Z</time></trkpt><trkpt lat="43.99929326145462" lon="12.609576636948903"><ele>24.0</ele><time>2026-05-02T18:13:22Z</time></trkpt><trkpt lat="43.99936765165474" lon="12.609648262629797"><ele>23.666666666666668</ele><time>2026-05-02T18:13:25Z</time></trkpt><trkpt lat="43.999440208381245" lon="12.60973151017995"><ele>23.333333333333332</ele><time>2026-05-02T18:13:28Z</time></trkpt><trkpt lat="43.99950569083345" lon="12.609799129142429"><ele>23.0</ele><time>2026-05-02T18:13:30Z</time></trkpt><trkpt lat="43.999564858026574" lon="12.609860775858511"><ele>22.666666666666664</ele><time>2026-05-02T18:13:31.999Z</time></trkpt><trkpt lat="43.99962430826293" lon="12.609925887775574"><ele>22.333333333333332</ele><time>2026-05-02T18:13:33.999Z</time></trkpt><trkpt lat="43.99968464265167" lon="12.609990448352445"><ele>22.0</ele><time>2026-05-02T18:13:35.999Z</time></trkpt><trkpt lat="43.999751113693726" lon="12.610058617644526"><ele>22.0</ele><time>2026-05-02T18:13:37.999Z</time></trkpt><trkpt lat="43.99982029851141" lon="12.610138422520707"><ele>22.0</ele><time>2026-05-02T18:13:39.999Z</time></trkpt><trkpt lat="43.99989825778676" lon="12.610226750402775"><ele>22.0</ele><time>2026-05-02T18:13:41.999Z</time></trkpt><trkpt lat="43.999973461947924" lon="12.610338233559983"><ele>22.0</ele><time>2026-05-02T18:13:43.999Z</time></trkpt><trkpt lat="43.99999684838114" lon="12.610424819208804"><ele>22.0</ele><time>2026-05-02T18:13:44.999Z</time></trkpt><trkpt lat="44.000036164616986" lon="12.610494371286393"><ele>22.0</ele><time>2026-05-02T18:13:45.999Z</time></trkpt><trkpt lat="44.00007472924413" lon="12.610572756989429"><ele>22.0</ele><time>2026-05-02T18:13:46.999Z</time></trkpt><trkpt lat="44.000110040460555" lon="12.6106616110372"><ele>22.0</ele><time>2026-05-02T18:13:47.999Z</time></trkpt><trkpt lat="44.00014092780111" lon="12.610754642025734"><ele>22.0</ele><time>2026-05-02T18:13:48.999Z</time></trkpt><trkpt lat="44.00016628791689" lon="12.610854870982447"><ele>22.0</ele><time>2026-05-02T18:13:49.999Z</time></trkpt><trkpt lat="44.00018679144203" lon="12.610961346638629"><ele>22.0</ele><time>2026-05-02T18:13:50.999Z</time></trkpt><trkpt lat="44.00020330490456" lon="12.611077556100858"><ele>22.0</ele><time>2026-05-02T18:13:51.999Z</time></trkpt><trkpt lat="44.00021551509926" lon="12.611197670749409"><ele>22.0</ele><time>2026-05-02T18:13:52.999Z</time></trkpt><trkpt lat="44.000220917649735" lon="12.61131726743483"><ele>22.0</ele><time>2026-05-02T18:13:53.999Z</time></trkpt><trkpt lat="44.00021758425936" lon="12.611428292337546"><ele>22.0</ele><time>2026-05-02T18:13:54.999Z</time></trkpt><trkpt lat="44.000214336121175" lon="12.61154111811536"><ele>22.0</ele><time>2026-05-02T18:13:55.999Z</time></trkpt><trkpt lat="44.00020384861301" lon="12.611651902050447"><ele>22.0</ele><time>2026-05-02T18:13:56.999Z</time></trkpt><trkpt lat="44.00017320531665" lon="12.61174512053333"><ele>22.0</ele><time>2026-05-02T18:13:57.999Z</time></trkpt><trkpt lat="44.000159347172904" lon="12.611832011699724"><ele>22.0</ele><time>2026-05-02T18:13:58.999Z</time></trkpt><trkpt lat="44.00017419527309" lon="12.611917445099559"><ele>22.0</ele><time>2026-05-02T18:13:59.999Z</time></trkpt><trkpt lat="44.0001868322644" lon="12.612017885215005"><ele>22.0</ele><time>2026-05-02T18:14:00.999Z</time></trkpt><trkpt lat="44.00024419333122" lon="12.612078534926896"><ele>22.0</ele><time>2026-05-02T18:14:01.999Z</time></trkpt><trkpt lat="44.00026071294798" lon="12.612164761140072"><ele>22.0</ele><time>2026-05-02T18:14:02.999Z</time></trkpt><trkpt lat="44.0002911906869" lon="12.612244393025613"><ele>22.0</ele><time>2026-05-02T18:14:03.999Z</time></trkpt><trkpt lat="44.00035531579259" lon="12.612397515301227"><ele>21.8</ele><time>2026-05-02T18:14:05.999Z</time></trkpt><trkpt lat="44.00042071045037" lon="12.612538976484915"><ele>21.6</ele><time>2026-05-02T18:14:07.999Z</time></trkpt><trkpt lat="44.000457818101566" lon="12.612610974403538"><ele>21.400000000000002</ele><time>2026-05-02T18:14:08.999Z</time></trkpt><trkpt lat="44.0005255913525" lon="12.612735061770245"><ele>21.200000000000003</ele><time>2026-05-02T18:14:10.999Z</time></trkpt><trkpt lat="44.00059088622448" lon="12.612852672760857"><ele>21.0</ele><time>2026-05-02T18:14:12.999Z</time></trkpt><trkpt lat="44.00064880866495" lon="12.61296214472615"><ele>21.0</ele><time>2026-05-02T18:14:14.999Z</time></trkpt><trkpt lat="44.000700002045" lon="12.613070784861282"><ele>21.0</ele><time>2026-05-02T18:14:16.999Z</time></trkpt><trkpt lat="44.00074726809929" lon="12.613179661638663"><ele>21.0</ele><time>2026-05-02T18:14:18.999Z</time></trkpt><trkpt lat="44.000795549082575" lon="12.613298809579355"><ele>21.0</ele><time>2026-05-02T18:14:20.999Z</time></trkpt><trkpt lat="44.000844037935124" lon="12.613424590356372"><ele>21.0</ele><time>2026-05-02T18:14:22.999Z</time></trkpt><trkpt lat="44.00088959869178" lon="12.613542775570988"><ele>21.0</ele><time>2026-05-02T18:14:24.999Z</time></trkpt><trkpt lat="44.00094293547702" lon="12.613678236965153"><ele>21.0</ele><time>2026-05-02T18:14:26.999Z</time></trkpt><trkpt lat="44.0009978811063" lon="12.613799608197237"><ele>21.0</ele><time>2026-05-02T18:14:29Z</time></trkpt><trkpt lat="44.0010661125692" lon="12.613914920441257"><ele>21.0</ele><time>2026-05-02T18:14:31Z</time></trkpt><trkpt lat="44.00113912695634" lon="12.614017008173642"><ele>21.0</ele><time>2026-05-02T18:14:33Z</time></trkpt><trkpt lat="44.00121045697437" lon="12.614113338618678"><ele>21.0</ele><time>2026-05-02T18:14:35Z</time></trkpt><trkpt lat="44.0012894031626" lon="12.614212167083267"><ele>21.0</ele><time>2026-05-02T18:14:37Z</time></trkpt><trkpt lat="44.00136075950587" lon="12.614302831445666"><ele>21.0</ele><time>2026-05-02T18:14:39Z</time></trkpt><trkpt lat="44.00143068584541" lon="12.614403895808096"><ele>21.0</ele><time>2026-05-02T18:14:41Z</time></trkpt><trkpt lat="44.00150009725725" lon="12.614501398544768"><ele>21.0</ele><time>2026-05-02T18:14:43Z</time></trkpt><trkpt lat="44.001534591779595" lon="12.61464457169806"><ele>20.6</ele><time>2026-05-02T18:14:45Z</time></trkpt><trkpt lat="44.00156730858858" lon="12.614787961784463"><ele>20.200000000000003</ele><time>2026-05-02T18:14:47Z</time></trkpt><trkpt lat="44.001578978397916" lon="12.614930500283313"><ele>19.799999999999997</ele><time>2026-05-02T18:14:49Z</time></trkpt><trkpt lat="44.00161487650711" lon="12.615054530193493"><ele>19.4</ele><time>2026-05-02T18:14:51Z</time></trkpt><trkpt lat="44.00163986232399" lon="12.615185479064701"><ele>19.0</ele><time>2026-05-02T18:14:53Z</time></trkpt><trkpt lat="44.00166518371922" lon="12.615319110065938"><ele>18.8</ele><time>2026-05-02T18:14:55Z</time></trkpt><trkpt lat="44.001694967933076" lon="12.615455553963091"><ele>18.599999999999998</ele><time>2026-05-02T18:14:57Z</time></trkpt><trkpt lat="44.001724003415305" lon="12.61558434013575"><ele>18.4</ele><time>2026-05-02T18:14:59Z</time></trkpt><trkpt lat="44.001735908012506" lon="12.615716621637121"><ele>18.2</ele><time>2026-05-02T18:15:01Z</time></trkpt><trkpt lat="44.001764708363545" lon="12.615853848549362"><ele>18.0</ele><time>2026-05-02T18:15:03Z</time></trkpt><trkpt lat="44.00179244195335" lon="12.615985992468401"><ele>18.0</ele><time>2026-05-02T18:15:05Z</time></trkpt><trkpt lat="44.00182108257327" lon="12.616112692196946"><ele>18.0</ele><time>2026-05-02T18:15:07Z</time></trkpt><trkpt lat="44.0018493144363" lon="12.616233695500892"><ele>18.0</ele><time>2026-05-02T18:15:09Z</time></trkpt><trkpt lat="44.00188081925178" lon="12.616357108908602"><ele>18.0</ele><time>2026-05-02T18:15:11Z</time></trkpt><trkpt lat="44.00192062339566" lon="12.61648399402027"><ele>18.0</ele><time>2026-05-02T18:15:13Z</time></trkpt><trkpt lat="44.00199150288094" lon="12.616594642134041"><ele>18.0</ele><time>2026-05-02T18:15:15Z</time></trkpt><trkpt lat="44.0020305666811" lon="12.616719589954336"><ele>18.0</ele><time>2026-05-02T18:15:17Z</time></trkpt><trkpt lat="44.00208838859054" lon="12.616849357989341"><ele>18.0</ele><time>2026-05-02T18:15:19Z</time></trkpt><trkpt lat="44.00210527149667" lon="12.616995407630576"><ele>18.0</ele><time>2026-05-02T18:15:21Z</time></trkpt><trkpt lat="44.00214839974114" lon="12.617136386072495"><ele>18.0</ele><time>2026-05-02T18:15:23Z</time></trkpt><trkpt lat="44.00219052890447" lon="12.61727696075711"><ele>18.0</ele><time>2026-05-02T18:15:25Z</time></trkpt><trkpt lat="44.00223091371663" lon="12.617424800718618"><ele>18.0</ele><time>2026-05-02T18:15:27Z</time></trkpt><trkpt lat="44.00227118912291" lon="12.617578183641676"><ele>18.0</ele><time>2026-05-02T18:15:29Z</time></trkpt><trkpt lat="44.0023082304897" lon="12.617721958744985"><ele>18.0</ele><time>2026-05-02T18:15:31Z</time></trkpt><trkpt lat="44.0023444065137" lon="12.617866980779143"><ele>18.0</ele><time>2026-05-02T18:15:33Z</time></trkpt><trkpt lat="44.00237741442144" lon="12.618003656502983"><ele>18.0</ele><time>2026-05-02T18:15:35Z</time></trkpt><trkpt lat="44.00241098742694" lon="12.618146020064978"><ele>18.0</ele><time>2026-05-02T18:15:37Z</time></trkpt><trkpt lat="44.002444935729955" lon="12.61828997504404"><ele>18.0</ele><time>2026-05-02T18:15:39Z</time></trkpt><trkpt lat="44.0024775507091" lon="12.618428820985034"><ele>18.0</ele><time>2026-05-02T18:15:41Z</time></trkpt><trkpt lat="44.00250938294911" lon="12.618567931676575"><ele>18.0</ele><time>2026-05-02T18:15:43Z</time></trkpt><trkpt lat="44.00254106778192" lon="12.618706398211028"><ele>18.0</ele><time>2026-05-02T18:15:44.999Z</time></trkpt><trkpt lat="44.00257266421417" lon="12.618844478399442"><ele>18.0</ele><time>2026-05-02T18:15:46.999Z</time></trkpt><trkpt lat="44.00260351932728" lon="12.618979318930291"><ele>18.0</ele><time>2026-05-02T18:15:48.999Z</time></trkpt><trkpt lat="44.0026309626613" lon="12.619105937620798"><ele>18.0</ele><time>2026-05-02T18:15:50.999Z</time></trkpt><trkpt lat="44.00267438351212" lon="12.619228312829666"><ele>18.0</ele><time>2026-05-02T18:15:52.999Z</time></trkpt><trkpt lat="44.00268557194416" lon="12.61935950799776"><ele>18.0</ele><time>2026-05-02T18:15:54.999Z</time></trkpt><trkpt lat="44.00271150239514" lon="12.619480711754141"><ele>18.0</ele><time>2026-05-02T18:15:56.999Z</time></trkpt><trkpt lat="44.00274587820692" lon="12.619595978978701"><ele>18.0</ele><time>2026-05-02T18:15:58.999Z</time></trkpt><trkpt lat="44.002745252704024" lon="12.61972016853542"><ele>18.0</ele><time>2026-05-02T18:16:00.999Z</time></trkpt><trkpt lat="44.002684998105785" lon="12.619782285648075"><ele>18.0</ele><time>2026-05-02T18:16:01.999Z</time></trkpt><trkpt lat="44.00260705782186" lon="12.619864486310593"><ele>17.833333333333332</ele><time>2026-05-02T18:16:03.999Z</time></trkpt><trkpt lat="44.00253098292236" lon="12.619952419575963"><ele>17.666666666666668</ele><time>2026-05-02T18:16:05.999Z</time></trkpt><trkpt lat="44.00245942562871" lon="12.62003187875351"><ele>17.5</ele><time>2026-05-02T18:16:07.999Z</time></trkpt><trkpt lat="44.002392939236664" lon="12.620103014254829"><ele>17.333333333333336</ele><time>2026-05-02T18:16:09.999Z</time></trkpt><trkpt lat="44.0023239645033" lon="12.62017764517195"><ele>17.166666666666668</ele><time>2026-05-02T18:16:11.999Z</time></trkpt><trkpt lat="44.002276124012056" lon="12.620260538337302"><ele>17.0</ele><time>2026-05-02T18:16:13.999Z</time></trkpt><trkpt lat="44.00225834981972" lon="12.6203747776408"><ele>16.666666666666668</ele><time>2026-05-02T18:16:15.999Z</time></trkpt><trkpt lat="44.002262363107725" lon="12.620499429107596"><ele>16.333333333333336</ele><time>2026-05-02T18:16:17.999Z</time></trkpt><trkpt lat="44.00233038066169" lon="12.62059562456735"><ele>16.0</ele><time>2026-05-02T18:16:19.999Z</time></trkpt><trkpt lat="44.00237871119409" lon="12.620691065440674"><ele>15.666666666666668</ele><time>2026-05-02T18:16:21.999Z</time></trkpt><trkpt lat="44.00242741582276" lon="12.620782763165726"><ele>15.333333333333334</ele><time>2026-05-02T18:16:23.999Z</time></trkpt><trkpt lat="44.002474278265616" lon="12.620885474663373"><ele>15.0</ele><time>2026-05-02T18:16:25.999Z</time></trkpt><trkpt lat="44.002528843040764" lon="12.62098776000386"><ele>15.0</ele><time>2026-05-02T18:16:27.999Z</time></trkpt><trkpt lat="44.00258800336186" lon="12.621089706368773"><ele>15.0</ele><time>2026-05-02T18:16:29.999Z</time></trkpt><trkpt lat="44.002638443587834" lon="12.62120242070508"><ele>15.0</ele><time>2026-05-02T18:16:31.999Z</time></trkpt><trkpt lat="44.00268947392862" lon="12.621313802267467"><ele>15.0</ele><time>2026-05-02T18:16:34Z</time></trkpt><trkpt lat="44.00274301707207" lon="12.621427523505417"><ele>15.0</ele><time>2026-05-02T18:16:36Z</time></trkpt><trkpt lat="44.00279799979625" lon="12.62154153286"><ele>15.0</ele><time>2026-05-02T18:16:38Z</time></trkpt><trkpt lat="44.00285400756891" lon="12.621659521189818"><ele>15.0</ele><time>2026-05-02T18:16:40Z</time></trkpt><trkpt lat="44.00291028850599" lon="12.621777056556041"><ele>15.0</ele><time>2026-05-02T18:16:42Z</time></trkpt><trkpt lat="44.002967323613255" lon="12.62189404660305"><ele>15.0</ele><time>2026-05-02T18:16:44Z</time></trkpt><trkpt lat="44.003024906801635" lon="12.622011451977203"><ele>15.0</ele><time>2026-05-02T18:16:46Z</time></trkpt><trkpt lat="44.00308317660313" lon="12.62213099533753"><ele>15.0</ele><time>2026-05-02T18:16:48Z</time></trkpt><trkpt lat="44.00313899749091" lon="12.622247929985237"><ele>15.0</ele><time>2026-05-02T18:16:50Z</time></trkpt><trkpt lat="44.00319295065115" lon="12.622359602350606"><ele>15.0</ele><time>2026-05-02T18:16:52Z</time></trkpt><trkpt lat="44.0032472755027" lon="12.622474149623391"><ele>15.0</ele><time>2026-05-02T18:16:54Z</time></trkpt><trkpt lat="44.003302718775856" lon="12.622590262908892"><ele>15.0</ele><time>2026-05-02T18:16:56Z</time></trkpt><trkpt lat="44.003358474316904" lon="12.62270358182955"><ele>15.6</ele><time>2026-05-02T18:16:58Z</time></trkpt><trkpt lat="44.00341512431794" lon="12.622817286618599"><ele>16.2</ele><time>2026-05-02T18:17:00Z</time></trkpt><trkpt lat="44.00347426200705" lon="12.62293221400888"><ele>16.8</ele><time>2026-05-02T18:17:02Z</time></trkpt><trkpt lat="44.00353285933846" lon="12.623050302571107"><ele>17.4</ele><time>2026-05-02T18:17:04Z</time></trkpt><trkpt lat="44.003591042363574" lon="12.623172144452367"><ele>18.0</ele><time>2026-05-02T18:17:06Z</time></trkpt><trkpt lat="44.00364765675454" lon="12.623291965311754"><ele>18.0</ele><time>2026-05-02T18:17:08Z</time></trkpt><trkpt lat="44.003708569034906" lon="12.623404850973929"><ele>18.0</ele><time>2026-05-02T18:17:10Z</time></trkpt><trkpt lat="44.00376036070373" lon="12.623521723395775"><ele>18.0</ele><time>2026-05-02T18:17:12Z</time></trkpt><trkpt lat="44.00382249560718" lon="12.623627698754227"><ele>18.0</ele><time>2026-05-02T18:17:14Z</time></trkpt><trkpt lat="44.00388396131706" lon="12.623749280579649"><ele>18.0</ele><time>2026-05-02T18:17:16Z</time></trkpt><trkpt lat="44.00394072705013" lon="12.62387037672128"><ele>18.0</ele><time>2026-05-02T18:17:18Z</time></trkpt><trkpt lat="44.004001848504146" lon="12.623990656936037"><ele>18.0</ele><time>2026-05-02T18:17:20Z</time></trkpt><trkpt lat="44.0040580936017" lon="12.624109365063582"><ele>18.0</ele><time>2026-05-02T18:17:22Z</time></trkpt><trkpt lat="44.004114050471564" lon="12.62422499420433"><ele>18.0</ele><time>2026-05-02T18:17:24Z</time></trkpt><trkpt lat="44.0041705967284" lon="12.624344061692419"><ele>18.0</ele><time>2026-05-02T18:17:26Z</time></trkpt><trkpt lat="44.00421839305058" lon="12.62447308140088"><ele>17.6</ele><time>2026-05-02T18:17:28Z</time></trkpt><trkpt lat="44.00427549784332" lon="12.62459089626511"><ele>17.200000000000003</ele><time>2026-05-02T18:17:30Z</time></trkpt><trkpt lat="44.00433522808936" lon="12.624714127707943"><ele>16.8</ele><time>2026-05-02T18:17:32Z</time></trkpt><trkpt lat="44.00439457299013" lon="12.624836564089486"><ele>16.400000000000002</ele><time>2026-05-02T18:17:34Z</time></trkpt><trkpt lat="44.0044581217161" lon="12.624967673590886"><ele>16.0</ele><time>2026-05-02T18:17:36Z</time></trkpt><trkpt lat="44.004533368417924" lon="12.625082692378873"><ele>16.0</ele><time>2026-05-02T18:17:38Z</time></trkpt><trkpt lat="44.00459351827323" lon="12.625207347999877"><ele>16.0</ele><time>2026-05-02T18:17:40Z</time></trkpt><trkpt lat="44.00463997233368" lon="12.625342946187695"><ele>16.0</ele><time>2026-05-02T18:17:42Z</time></trkpt><trkpt lat="44.004704235316844" lon="12.62546411045671"><ele>16.0</ele><time>2026-05-02T18:17:44Z</time></trkpt><trkpt lat="44.004793506523775" lon="12.625550177047701"><ele>16.0</ele><time>2026-05-02T18:17:46Z</time></trkpt><trkpt lat="44.00490585302563" lon="12.625551653005536"><ele>15.499999999999998</ele><time>2026-05-02T18:17:48Z</time></trkpt><trkpt lat="44.00499341793276" lon="12.625525056466472"><ele>15.0</ele><time>2026-05-02T18:17:49.999Z</time></trkpt><trkpt lat="44.00506500563635" lon="12.625584470924577"><ele>14.5</ele><time>2026-05-02T18:17:51.999Z</time></trkpt><trkpt lat="44.00511165512677" lon="12.625703398402443"><ele>14.0</ele><time>2026-05-02T18:17:53.999Z</time></trkpt><trkpt lat="44.00513128257702" lon="12.625811674919715"><ele>13.499999999999998</ele><time>2026-05-02T18:17:55.999Z</time></trkpt><trkpt lat="44.00505576963563" lon="12.625871608992327"><ele>13.0</ele><time>2026-05-02T18:17:56.999Z</time></trkpt><trkpt lat="44.004984684355904" lon="12.62593226083093"><ele>12.166666666666666</ele><time>2026-05-02T18:17:58.999Z</time></trkpt><trkpt lat="44.004928352523784" lon="12.625972685876249"><ele>11.333333333333332</ele><time>2026-05-02T18:17:59.999Z</time></trkpt><trkpt lat="44.004881102659915" lon="12.626030740841077"><ele>10.5</ele><time>2026-05-02T18:18:00.999Z</time></trkpt><trkpt lat="44.00482703117679" lon="12.62608914592435"><ele>9.666666666666666</ele><time>2026-05-02T18:18:01.999Z</time></trkpt><trkpt lat="44.0047477759474" lon="12.626225944639872"><ele>8.833333333333332</ele><time>2026-05-02T18:18:03.999Z</time></trkpt><trkpt lat="44.00469774513947" lon="12.626299476113159"><ele>8.0</ele><time>2026-05-02T18:18:04.999Z</time></trkpt><trkpt lat="44.004679537469116" lon="12.626418242341078"><ele>8.166666666666666</ele><time>2026-05-02T18:18:05.999Z</time></trkpt><trkpt lat="44.004662858172004" lon="12.62653480496668"><ele>8.333333333333332</ele><time>2026-05-02T18:18:06.999Z</time></trkpt><trkpt lat="44.004646057057464" lon="12.626648794371743"><ele>8.5</ele><time>2026-05-02T18:18:07.999Z</time></trkpt><trkpt lat="44.0046280710449" lon="12.626753424657512"><ele>8.666666666666666</ele><time>2026-05-02T18:18:08.999Z</time></trkpt><trkpt lat="44.00460338228881" lon="12.626856308621125"><ele>8.833333333333334</ele><time>2026-05-02T18:18:09.999Z</time></trkpt><trkpt lat="44.00457487019798" lon="12.62695135273155"><ele>9.0</ele><time>2026-05-02T18:18:10.999Z</time></trkpt><trkpt lat="44.004538274581215" lon="12.627056208951991"><ele>9.0</ele><time>2026-05-02T18:18:11.999Z</time></trkpt><trkpt lat="44.00449905939444" lon="12.627151742076167"><ele>9.0</ele><time>2026-05-02T18:18:12.999Z</time></trkpt><trkpt lat="44.00446096014688" lon="12.627250855523858"><ele>9.0</ele><time>2026-05-02T18:18:13.999Z</time></trkpt><trkpt lat="44.00443880186162" lon="12.627356484697067"><ele>9.0</ele><time>2026-05-02T18:18:14.999Z</time></trkpt><trkpt lat="44.00440407316727" lon="12.627446473557603"><ele>9.0</ele><time>2026-05-02T18:18:15.999Z</time></trkpt><trkpt lat="44.0043731862362" lon="12.627534037518183"><ele>9.0</ele><time>2026-05-02T18:18:16.999Z</time></trkpt><trkpt lat="44.00432657790247" lon="12.627610090511897"><ele>9.0</ele><time>2026-05-02T18:18:17.999Z</time></trkpt><trkpt lat="44.00429623279567" lon="12.627689570930128"><ele>9.0</ele><time>2026-05-02T18:18:18.999Z</time></trkpt><trkpt lat="44.00423949052816" lon="12.627836810871498"><ele>9.0</ele><time>2026-05-02T18:18:20.999Z</time></trkpt><trkpt lat="44.00418732422959" lon="12.627972176709095"><ele>9.0</ele><time>2026-05-02T18:18:22.999Z</time></trkpt><trkpt lat="44.00413734834813" lon="12.628105891019636"><ele>9.0</ele><time>2026-05-02T18:18:24.999Z</time></trkpt><trkpt lat="44.00411835509168" lon="12.628233969360144"><ele>9.714285714285715</ele><time>2026-05-02T18:18:26.999Z</time></trkpt><trkpt lat="44.00407986210769" lon="12.628334988462168"><ele>10.428571428571429</ele><time>2026-05-02T18:18:28.999Z</time></trkpt><trkpt lat="44.00406265381733" lon="12.628425213368688"><ele>11.142857142857142</ele><time>2026-05-02T18:18:30.999Z</time></trkpt><trkpt lat="44.00404696973558" lon="12.62851846006266"><ele>11.857142857142858</ele><time>2026-05-02T18:18:33.999Z</time></trkpt><trkpt lat="44.00403486897689" lon="12.628604467044553"><ele>12.571428571428571</ele><time>2026-05-02T18:18:37.999Z</time></trkpt><trkpt lat="44.004048390371516" lon="12.628700730258057"><ele>13.285714285714286</ele><time>2026-05-02T18:18:43Z</time></trkpt><trkpt lat="44.00403674677723" lon="12.628791609412696"><ele>14.0</ele><time>2026-05-02T18:18:48Z</time></trkpt><trkpt lat="44.004021029956" lon="12.628881303653257"><ele>14.285714285714285</ele><time>2026-05-02T18:18:53Z</time></trkpt><trkpt lat="44.004001105132104" lon="12.62896491166247"><ele>14.571428571428571</ele><time>2026-05-02T18:18:58Z</time></trkpt><trkpt lat="44.00395209335831" lon="12.62903227729681"><ele>14.857142857142858</ele><time>2026-05-02T18:19:02Z</time></trkpt><trkpt lat="44.003913534610476" lon="12.62910282131294"><ele>15.142857142857142</ele><time>2026-05-02T18:19:05Z</time></trkpt><trkpt lat="44.00388342628477" lon="12.62918425818738"><ele>15.428571428571427</ele><time>2026-05-02T18:19:08Z</time></trkpt><trkpt lat="44.00384117695418" lon="12.629272263732839"><ele>15.714285714285714</ele><time>2026-05-02T18:19:11Z</time></trkpt><trkpt lat="44.0037982775007" lon="12.629360878060803"><ele>16.0</ele><time>2026-05-02T18:19:14Z</time></trkpt><trkpt lat="44.00375456554698" lon="12.629459756054118"><ele>15.833333333333332</ele><time>2026-05-02T18:19:17Z</time></trkpt><trkpt lat="44.0036945368527" lon="12.629525842211152"><ele>15.666666666666666</ele><time>2026-05-02T18:19:19Z</time></trkpt><trkpt lat="44.003640093666114" lon="12.629612208682211"><ele>15.5</ele><time>2026-05-02T18:19:21Z</time></trkpt><trkpt lat="44.00358036891561" lon="12.629693341603478"><ele>15.333333333333332</ele><time>2026-05-02T18:19:23Z</time></trkpt><trkpt lat="44.0035163629057" lon="12.629758255730192"><ele>15.166666666666666</ele><time>2026-05-02T18:19:25Z</time></trkpt><trkpt lat="44.00345843653136" lon="12.629825819274041"><ele>15.0</ele><time>2026-05-02T18:19:27Z</time></trkpt><trkpt lat="44.00340518885337" lon="12.629893173342852"><ele>15.0</ele><time>2026-05-02T18:19:29Z</time></trkpt><trkpt lat="44.00335034991377" lon="12.629972202585817"><ele>15.0</ele><time>2026-05-02T18:19:31Z</time></trkpt><trkpt lat="44.00328610295429" lon="12.630056614399294"><ele>15.0</ele><time>2026-05-02T18:19:33Z</time></trkpt><trkpt lat="44.00323043286657" lon="12.630126135507904"><ele>15.0</ele><time>2026-05-02T18:19:35Z</time></trkpt><trkpt lat="44.003176666450464" lon="12.63017500656206"><ele>15.0</ele><time>2026-05-02T18:19:37Z</time></trkpt><trkpt lat="44.00311268559351" lon="12.630236246447858"><ele>15.0</ele><time>2026-05-02T18:19:39Z</time></trkpt><trkpt lat="44.00304798787012" lon="12.63030932863482"><ele>15.0</ele><time>2026-05-02T18:19:41Z</time></trkpt><trkpt lat="44.002997350218976" lon="12.63039146277906"><ele>15.0</ele><time>2026-05-02T18:19:43Z</time></trkpt><trkpt lat="44.00292980839666" lon="12.630472841868498"><ele>15.0</ele><time>2026-05-02T18:19:45Z</time></trkpt><trkpt lat="44.002871560800536" lon="12.630559738668351"><ele>15.0</ele><time>2026-05-02T18:19:47Z</time></trkpt><trkpt lat="44.002798867461124" lon="12.630654735970891"><ele>15.0</ele><time>2026-05-02T18:19:49Z</time></trkpt><trkpt lat="44.00272511394901" lon="12.630733244554131"><ele>15.0</ele><time>2026-05-02T18:19:51Z</time></trkpt><trkpt lat="44.002671996530644" lon="12.630821679188351"><ele>15.0</ele><time>2026-05-02T18:19:53Z</time></trkpt><trkpt lat="44.002610010165796" lon="12.630901126691755"><ele>15.0</ele><time>2026-05-02T18:19:54.999Z</time></trkpt><trkpt lat="44.00257064037292" lon="12.630975959008907"><ele>15.0</ele><time>2026-05-02T18:19:56.999Z</time></trkpt><trkpt lat="44.0025295974929" lon="12.631054771112806"><ele>15.0</ele><time>2026-05-02T18:19:58.999Z</time></trkpt><trkpt lat="44.00247946246977" lon="12.631171856354468"><ele>15.0</ele><time>2026-05-02T18:20:01.999Z</time></trkpt><trkpt lat="44.00244676941419" lon="12.631248837832143"><ele>15.0</ele><time>2026-05-02T18:20:03.999Z</time></trkpt><trkpt lat="44.002415695411436" lon="12.631343083832837"><ele>14.666666666666666</ele><time>2026-05-02T18:20:05.999Z</time></trkpt><trkpt lat="44.00238072413263" lon="12.631443056147102"><ele>14.333333333333332</ele><time>2026-05-02T18:20:07.999Z</time></trkpt><trkpt lat="44.00233692566293" lon="12.631551079982408"><ele>14.0</ele><time>2026-05-02T18:20:09.999Z</time></trkpt><trkpt lat="44.00233255520743" lon="12.63164188352743"><ele>13.666666666666666</ele><time>2026-05-02T18:20:11.999Z</time></trkpt><trkpt lat="44.002305276074374" lon="12.63174939897495"><ele>13.333333333333332</ele><time>2026-05-02T18:20:13.999Z</time></trkpt><trkpt lat="44.00228271796604" lon="12.631873490450182"><ele>13.0</ele><time>2026-05-02T18:20:15.999Z</time></trkpt><trkpt lat="44.00225733097361" lon="12.631983648209648"><ele>13.0</ele><time>2026-05-02T18:20:17.999Z</time></trkpt><trkpt lat="44.00224062907405" lon="12.632103862602076"><ele>13.0</ele><time>2026-05-02T18:20:19.999Z</time></trkpt><trkpt lat="44.002228450721695" lon="12.63223546999579"><ele>13.0</ele><time>2026-05-02T18:20:21.999Z</time></trkpt><trkpt lat="44.00223210755843" lon="12.632370381704314"><ele>13.0</ele><time>2026-05-02T18:20:23.999Z</time></trkpt><trkpt lat="44.002222100674956" lon="12.632504928617182"><ele>13.0</ele><time>2026-05-02T18:20:25.999Z</time></trkpt><trkpt lat="44.0022383473304" lon="12.632622350209244"><ele>12.999999999999998</ele><time>2026-05-02T18:20:27.999Z</time></trkpt><trkpt lat="44.0022549801231" lon="12.63273413039066"><ele>13.0</ele><time>2026-05-02T18:20:29.999Z</time></trkpt><trkpt lat="44.00226739544004" lon="12.632843775644412"><ele>13.0</ele><time>2026-05-02T18:20:31.999Z</time></trkpt><trkpt lat="44.00229946148942" lon="12.632931421452463"><ele>13.0</ele><time>2026-05-02T18:20:33.999Z</time></trkpt><trkpt lat="44.00237018255427" lon="12.632990713693157"><ele>12.999999999999998</ele><time>2026-05-02T18:20:36.999Z</time></trkpt><trkpt lat="44.00245630086538" lon="12.63302087876131"><ele>13.0</ele><time>2026-05-02T18:20:39.999Z</time></trkpt><trkpt lat="44.00254133494726" lon="12.633038619765047"><ele>13.0</ele><time>2026-05-02T18:20:41.999Z</time></trkpt><trkpt lat="44.002775113854824" lon="12.633049685265469"><ele>13.0</ele><time>2026-05-02T18:20:48Z</time></trkpt><trkpt lat="44.002848763173255" lon="12.633036012068198"><ele>13.0</ele><time>2026-05-02T18:20:50Z</time></trkpt><trkpt lat="44.00292120136051" lon="12.633035678139967"><ele>13.0</ele><time>2026-05-02T18:20:52Z</time></trkpt><trkpt lat="44.00304960568368" lon="12.633023605903798"><ele>13.0</ele><time>2026-05-02T18:20:55Z</time></trkpt><trkpt lat="44.00321690681394" lon="12.63302197155703"><ele>13.0</ele><time>2026-05-02T18:20:59Z</time></trkpt><trkpt lat="44.00329149392543" lon="12.633017890257445"><ele>13.0</ele><time>2026-05-02T18:21:01Z</time></trkpt><trkpt lat="44.00336183370578" lon="12.6329975050364"><ele>13.0</ele><time>2026-05-02T18:21:03Z</time></trkpt><trkpt lat="44.003425136395464" lon="12.63298721501041"><ele>13.0</ele><time>2026-05-02T18:21:05Z</time></trkpt><trkpt lat="44.00351227241274" lon="12.63299463190267"><ele>13.0</ele><time>2026-05-02T18:21:08Z</time></trkpt><trkpt lat="44.00354995280493" lon="12.633078524139782"><ele>13.0</ele><time>2026-05-02T18:21:10Z</time></trkpt><trkpt lat="44.003554852666035" lon="12.633184619543185"><ele>13.0</ele><time>2026-05-02T18:21:13Z</time></trkpt><trkpt lat="44.003544868550605" lon="12.633272936119065"><ele>13.0</ele><time>2026-05-02T18:21:15Z</time></trkpt><trkpt lat="44.00356396229443" lon="12.633366498981157"><ele>13.0</ele><time>2026-05-02T18:21:17Z</time></trkpt><trkpt lat="44.00358597770978" lon="12.63347764859461"><ele>13.0</ele><time>2026-05-02T18:21:20Z</time></trkpt><trkpt lat="44.00359929372071" lon="12.633582518949547"><ele>13.0</ele><time>2026-05-02T18:21:23Z</time></trkpt><trkpt lat="44.00362902088935" lon="12.63366927612882"><ele>12.999999999999998</ele><time>2026-05-02T18:21:27Z</time></trkpt><trkpt lat="44.00369682098822" lon="12.633708982106237"><ele>13.0</ele><time>2026-05-02T18:21:30Z</time></trkpt><trkpt lat="44.00376435655635" lon="12.633750158730614"><ele>13.0</ele><time>2026-05-02T18:21:33Z</time></trkpt><trkpt lat="44.003778334160465" lon="12.63384488052771"><ele>13.0</ele><time>2026-05-02T18:21:36Z</time></trkpt><trkpt lat="44.0037262381539" lon="12.633934381911136"><ele>12.999999999999998</ele><time>2026-05-02T18:21:39Z</time></trkpt><trkpt lat="44.00365201082605" lon="12.633976812795227"><ele>13.0</ele><time>2026-05-02T18:21:42Z</time></trkpt><trkpt lat="44.003548258643754" lon="12.633988253736948"><ele>13.0</ele><time>2026-05-02T18:21:45Z</time></trkpt><trkpt lat="44.003460569442105" lon="12.63401872803654"><ele>13.0</ele><time>2026-05-02T18:21:47Z</time></trkpt><trkpt lat="44.003360401642496" lon="12.634030670012072"><ele>13.0</ele><time>2026-05-02T18:21:49Z</time></trkpt><trkpt lat="44.003256413878056" lon="12.634080890747361"><ele>13.0</ele><time>2026-05-02T18:21:51Z</time></trkpt><trkpt lat="44.00320249429217" lon="12.634144504733845"><ele>13.0</ele><time>2026-05-02T18:21:52Z</time></trkpt><trkpt lat="44.00321312627415" lon="12.634312397597906"><ele>12.999999999999998</ele><time>2026-05-02T18:21:54Z</time></trkpt><trkpt lat="44.00327812694985" lon="12.634399465559603"><ele>13.0</ele><time>2026-05-02T18:21:55.999Z</time></trkpt><trkpt lat="44.00334390110923" lon="12.634494574583428"><ele>13.0</ele><time>2026-05-02T18:21:57.999Z</time></trkpt><trkpt lat="44.003408573495655" lon="12.634445660523502"><ele>13.0</ele><time>2026-05-02T18:21:59.999Z</time></trkpt><trkpt lat="44.00348637028175" lon="12.63441425425562"><ele>12.999999999999998</ele><time>2026-05-02T18:22:02.999Z</time></trkpt><trkpt lat="44.00356903380796" lon="12.63439371642437"><ele>13.0</ele><time>2026-05-02T18:22:05.999Z</time></trkpt><trkpt lat="44.00367726686996" lon="12.63441600870369"><ele>12.999999999999998</ele><time>2026-05-02T18:22:09.999Z</time></trkpt><trkpt lat="44.0037677312762" lon="12.634442032420926"><ele>13.0</ele><time>2026-05-02T18:22:12.999Z</time></trkpt><trkpt lat="44.003839304233516" lon="12.63445506074865"><ele>13.0</ele><time>2026-05-02T18:22:14.999Z</time></trkpt><trkpt lat="44.00391268823921" lon="12.63446338228603"><ele>13.0</ele><time>2026-05-02T18:22:16.999Z</time></trkpt><trkpt lat="44.00399212149312" lon="12.634462644827991"><ele>12.999999999999998</ele><time>2026-05-02T18:22:18.999Z</time></trkpt><trkpt lat="44.004057947456936" lon="12.634447959336553"><ele>13.0</ele><time>2026-05-02T18:22:20.999Z</time></trkpt><trkpt lat="44.00412353047645" lon="12.63442716104878"><ele>12.857142857142856</ele><time>2026-05-02T18:22:22.999Z</time></trkpt><trkpt lat="44.00418449256854" lon="12.634396789248562"><ele>12.714285714285715</ele><time>2026-05-02T18:22:24.999Z</time></trkpt><trkpt lat="44.00424753460361" lon="12.634380887026701"><ele>12.571428571428571</ele><time>2026-05-02T18:22:26.999Z</time></trkpt><trkpt lat="44.00431606657331" lon="12.634358807103968"><ele>12.428571428571427</ele><time>2026-05-02T18:22:28.999Z</time></trkpt><trkpt lat="44.004389695031655" lon="12.63433255383263"><ele>12.285714285714285</ele><time>2026-05-02T18:22:30.999Z</time></trkpt><trkpt lat="44.004473349545215" lon="12.634328392340343"><ele>12.142857142857142</ele><time>2026-05-02T18:22:32.999Z</time></trkpt><trkpt lat="44.004553312507" lon="12.634348996104404"><ele>12.0</ele><time>2026-05-02T18:22:34.999Z</time></trkpt><trkpt lat="44.0046332630542" lon="12.634399367372627"><ele>12.0</ele><time>2026-05-02T18:22:36.999Z</time></trkpt><trkpt lat="44.004692060629004" lon="12.6344710204498"><ele>12.0</ele><time>2026-05-02T18:22:38.999Z</time></trkpt><trkpt lat="44.004743286253046" lon="12.63455083608631"><ele>12.0</ele><time>2026-05-02T18:22:40.999Z</time></trkpt><trkpt lat="44.00479440182487" lon="12.63462061202779"><ele>12.0</ele><time>2026-05-02T18:22:42.999Z</time></trkpt><trkpt lat="44.00482865810251" lon="12.634713707605822"><ele>12.0</ele><time>2026-05-02T18:22:44.999Z</time></trkpt><trkpt lat="44.00486159443602" lon="12.634830460985281"><ele>12.0</ele><time>2026-05-02T18:22:46.999Z</time></trkpt><trkpt lat="44.00489376538066" lon="12.634931462082898"><ele>11.857142857142856</ele><time>2026-05-02T18:22:48.999Z</time></trkpt><trkpt lat="44.00491358647127" lon="12.635017347801437"><ele>11.714285714285714</ele><time>2026-05-02T18:22:50.999Z</time></trkpt><trkpt lat="44.004930164676615" lon="12.635115222360218"><ele>11.571428571428571</ele><time>2026-05-02T18:22:53Z</time></trkpt><trkpt lat="44.004949768755374" lon="12.635214422207884"><ele>11.428571428571427</ele><time>2026-05-02T18:22:55Z</time></trkpt><trkpt lat="44.00497812085078" lon="12.635300890200709"><ele>11.285714285714285</ele><time>2026-05-02T18:22:57Z</time></trkpt><trkpt lat="44.005013791415806" lon="12.63539397032414"><ele>11.142857142857142</ele><time>2026-05-02T18:22:59Z</time></trkpt><trkpt lat="44.00504422190633" lon="12.635494679898835"><ele>11.0</ele><time>2026-05-02T18:23:01Z</time></trkpt><trkpt lat="44.00499631037237" lon="12.635593040683743"><ele>11.285714285714286</ele><time>2026-05-02T18:23:03Z</time></trkpt><trkpt lat="44.00500979782634" lon="12.635695342978812"><ele>11.571428571428571</ele><time>2026-05-02T18:23:05Z</time></trkpt><trkpt lat="44.00504960376504" lon="12.635768589864531"><ele>11.857142857142858</ele><time>2026-05-02T18:23:07Z</time></trkpt><trkpt lat="44.00510303527996" lon="12.63585798559407"><ele>12.142857142857142</ele><time>2026-05-02T18:23:09Z</time></trkpt><trkpt lat="44.00514991224458" lon="12.635936469606614"><ele>12.428571428571429</ele><time>2026-05-02T18:23:11Z</time></trkpt><trkpt lat="44.00519194674053" lon="12.636012310734413"><ele>12.714285714285714</ele><time>2026-05-02T18:23:13Z</time></trkpt><trkpt lat="44.00523333265431" lon="12.636089816381297"><ele>13.0</ele><time>2026-05-02T18:23:15Z</time></trkpt><trkpt lat="44.00528626840284" lon="12.636166235950212"><ele>13.0</ele><time>2026-05-02T18:23:17Z</time></trkpt><trkpt lat="44.00532520393286" lon="12.636257457241879"><ele>13.0</ele><time>2026-05-02T18:23:19Z</time></trkpt><trkpt lat="44.00535627729223" lon="12.63634729623728"><ele>13.0</ele><time>2026-05-02T18:23:21Z</time></trkpt><trkpt lat="44.00538478199181" lon="12.636431906528376"><ele>13.0</ele><time>2026-05-02T18:23:23Z</time></trkpt><trkpt lat="44.00536242210898" lon="12.636529022140293"><ele>13.0</ele><time>2026-05-02T18:23:25Z</time></trkpt><trkpt lat="44.00537513418094" lon="12.636618401606107"><ele>13.0</ele><time>2026-05-02T18:23:27Z</time></trkpt><trkpt lat="44.005415647450185" lon="12.63670191672571"><ele>13.0</ele><time>2026-05-02T18:23:30Z</time></trkpt><trkpt lat="44.00545785149204" lon="12.636794722308565"><ele>12.999999999999998</ele><time>2026-05-02T18:23:34Z</time></trkpt><trkpt lat="44.00542796002815" lon="12.636897382620372"><ele>13.0</ele><time>2026-05-02T18:23:37Z</time></trkpt><trkpt lat="44.005375009456046" lon="12.636986089639445"><ele>13.0</ele><time>2026-05-02T18:23:40Z</time></trkpt><trkpt lat="44.00530430597599" lon="12.637038614755884"><ele>13.0</ele><time>2026-05-02T18:23:43Z</time></trkpt><trkpt lat="44.005221420111965" lon="12.637112909908817"><ele>12.999999999999998</ele><time>2026-05-02T18:23:46Z</time></trkpt><trkpt lat="44.00516059188421" lon="12.637160375311982"><ele>13.0</ele><time>2026-05-02T18:23:48Z</time></trkpt><trkpt lat="44.005099964757385" lon="12.637213695751322"><ele>13.0</ele><time>2026-05-02T18:23:50Z</time></trkpt><trkpt lat="44.0050402677461" lon="12.637266977707236"><ele>13.0</ele><time>2026-05-02T18:23:52Z</time></trkpt><trkpt lat="44.004987063318524" lon="12.637313969873103"><ele>13.0</ele><time>2026-05-02T18:23:54Z</time></trkpt><trkpt lat="44.004927210911774" lon="12.637370731579201"><ele>13.0</ele><time>2026-05-02T18:23:56Z</time></trkpt><trkpt lat="44.00486816709765" lon="12.637435088005246"><ele>13.0</ele><time>2026-05-02T18:23:58Z</time></trkpt><trkpt lat="44.00479766906217" lon="12.637489929968352"><ele>13.0</ele><time>2026-05-02T18:24:00Z</time></trkpt><trkpt lat="44.00472715261335" lon="12.637549783763172"><ele>13.0</ele><time>2026-05-02T18:24:02Z</time></trkpt><trkpt lat="44.00466106797123" lon="12.637610541292274"><ele>12.999999999999998</ele><time>2026-05-02T18:24:04Z</time></trkpt><trkpt lat="44.00460792709484" lon="12.637677099321717"><ele>13.0</ele><time>2026-05-02T18:24:05.999Z</time></trkpt><trkpt lat="44.0045469413294" lon="12.637727847846415"><ele>13.0</ele><time>2026-05-02T18:24:07.999Z</time></trkpt><trkpt lat="44.00448264790127" lon="12.637780903100722"><ele>13.0</ele><time>2026-05-02T18:24:09.999Z</time></trkpt><trkpt lat="44.00441811139836" lon="12.63783489959139"><ele>12.999999999999998</ele><time>2026-05-02T18:24:11.999Z</time></trkpt><trkpt lat="44.00435136946164" lon="12.63789301939697"><ele>13.0</ele><time>2026-05-02T18:24:13.999Z</time></trkpt><trkpt lat="44.0042772798195" lon="12.637946431507752"><ele>12.999999999999998</ele><time>2026-05-02T18:24:15.999Z</time></trkpt><trkpt lat="44.00420460290805" lon="12.6380004719367"><ele>13.0</ele><time>2026-05-02T18:24:17.999Z</time></trkpt><trkpt lat="44.00414074837342" lon="12.638055526068968"><ele>13.0</ele><time>2026-05-02T18:24:19.999Z</time></trkpt><trkpt lat="44.00407615988289" lon="12.638113884719543"><ele>13.0</ele><time>2026-05-02T18:24:21.999Z</time></trkpt><trkpt lat="44.00401138562927" lon="12.638173499470655"><ele>12.999999999999998</ele><time>2026-05-02T18:24:23.999Z</time></trkpt><trkpt lat="44.003941045136685" lon="12.638226140501397"><ele>13.0</ele><time>2026-05-02T18:24:26.999Z</time></trkpt><trkpt lat="44.00417621630213" lon="12.638335576965533"><ele>12.999999999999998</ele><time>2026-05-02T18:24:30.999Z</time></trkpt><trkpt lat="44.00421880113748" lon="12.638425983959836"><ele>13.0</ele><time>2026-05-02T18:24:32.999Z</time></trkpt><trkpt lat="44.00426233137477" lon="12.638518397883038"><ele>13.0</ele><time>2026-05-02T18:24:34.999Z</time></trkpt><trkpt lat="44.00431156652975" lon="12.638622923022469"><ele>13.0</ele><time>2026-05-02T18:24:37.999Z</time></trkpt><trkpt lat="44.00436239847912" lon="12.638730838250089"><ele>12.999999999999998</ele><time>2026-05-02T18:24:39.999Z</time></trkpt><trkpt lat="44.00441438722442" lon="12.63884120929403"><ele>13.0</ele><time>2026-05-02T18:24:41.999Z</time></trkpt><trkpt lat="44.00445789612593" lon="12.638933577730109"><ele>12.857142857142856</ele><time>2026-05-02T18:24:43.999Z</time></trkpt><trkpt lat="44.00449913474317" lon="12.639021126530139"><ele>12.714285714285715</ele><time>2026-05-02T18:24:45.999Z</time></trkpt><trkpt lat="44.00454101116635" lon="12.639110029359346"><ele>12.571428571428571</ele><time>2026-05-02T18:24:47.999Z</time></trkpt><trkpt lat="44.0045847421411" lon="12.639202869286676"><ele>12.428571428571427</ele><time>2026-05-02T18:24:49.999Z</time></trkpt><trkpt lat="44.004626134308516" lon="12.639291235571536"><ele>12.285714285714285</ele><time>2026-05-02T18:24:51.999Z</time></trkpt><trkpt lat="44.00466194396718" lon="12.639368884406723"><ele>12.142857142857142</ele><time>2026-05-02T18:24:53.999Z</time></trkpt><trkpt lat="44.00469994853347" lon="12.63945129263204"><ele>12.0</ele><time>2026-05-02T18:24:55.999Z</time></trkpt><trkpt lat="44.00474175157299" lon="12.639541937341995"><ele>12.0</ele><time>2026-05-02T18:24:58Z</time></trkpt><trkpt lat="44.00478438220972" lon="12.639634376572843"><ele>12.0</ele><time>2026-05-02T18:25:00Z</time></trkpt><trkpt lat="44.004827882630124" lon="12.639728701835613"><ele>12.0</ele><time>2026-05-02T18:25:02Z</time></trkpt><trkpt lat="44.00487221127547" lon="12.639824823040813"><ele>12.0</ele><time>2026-05-02T18:25:04Z</time></trkpt><trkpt lat="44.00491576464916" lon="12.639919672372967"><ele>12.0</ele><time>2026-05-02T18:25:06Z</time></trkpt><trkpt lat="44.00495741503025" lon="12.640010944041096"><ele>12.0</ele><time>2026-05-02T18:25:08Z</time></trkpt><trkpt lat="44.00499164115953" lon="12.640085946382225"><ele>12.0</ele><time>2026-05-02T18:25:10Z</time></trkpt><trkpt lat="44.00502768604348" lon="12.64016493432718"><ele>12.0</ele><time>2026-05-02T18:25:12Z</time></trkpt><trkpt lat="44.00506761466964" lon="12.640253829820002"><ele>12.0</ele><time>2026-05-02T18:25:14Z</time></trkpt><trkpt lat="44.0051096298347" lon="12.640348843638915"><ele>12.0</ele><time>2026-05-02T18:25:16Z</time></trkpt><trkpt lat="44.00514617953005" lon="12.64043390825929"><ele>12.0</ele><time>2026-05-02T18:25:18Z</time></trkpt><trkpt lat="44.005193933334695" lon="12.640548153793157"><ele>12.0</ele><time>2026-05-02T18:25:21Z</time></trkpt><trkpt lat="44.00522862768866" lon="12.64063143926399"><ele>12.0</ele><time>2026-05-02T18:25:23Z</time></trkpt><trkpt lat="44.005052131098545" lon="12.640711085807263"><ele>12.0</ele><time>2026-05-02T18:25:25Z</time></trkpt><trkpt lat="44.004993396713544" lon="12.640753238075172"><ele>12.0</ele><time>2026-05-02T18:25:27Z</time></trkpt><trkpt lat="44.004930149418776" lon="12.64079862911665"><ele>12.0</ele><time>2026-05-02T18:25:29Z</time></trkpt><trkpt lat="44.004868494210285" lon="12.640842877529591"><ele>12.0</ele><time>2026-05-02T18:25:31Z</time></trkpt><trkpt lat="44.004810963262635" lon="12.64088416614088"><ele>11.833333333333334</ele><time>2026-05-02T18:25:33Z</time></trkpt><trkpt lat="44.00473314780367" lon="12.640940012354699"><ele>11.666666666666666</ele><time>2026-05-02T18:25:36Z</time></trkpt><trkpt lat="44.00466645666914" lon="12.640987874596952"><ele>11.5</ele><time>2026-05-02T18:25:38Z</time></trkpt><trkpt lat="44.00458687280694" lon="12.641044988337772"><ele>11.333333333333332</ele><time>2026-05-02T18:25:41Z</time></trkpt><trkpt lat="44.00452219717098" lon="12.641091467155983"><ele>11.166666666666666</ele><time>2026-05-02T18:25:43Z</time></trkpt><trkpt lat="44.00445241914469" lon="12.641141571615721"><ele>11.0</ele><time>2026-05-02T18:25:45Z</time></trkpt><trkpt lat="44.004390228006876" lon="12.641186011476565"><ele>11.0</ele><time>2026-05-02T18:25:47Z</time></trkpt><trkpt lat="44.004327770764455" lon="12.641230350994405"><ele>11.0</ele><time>2026-05-02T18:25:49Z</time></trkpt><trkpt lat="44.00442361932873" lon="12.641612929380058"><ele>11.0</ele><time>2026-05-02T18:25:55Z</time></trkpt><trkpt lat="44.00445660538382" lon="12.641695411572375"><ele>11.0</ele><time>2026-05-02T18:25:57Z</time></trkpt><trkpt lat="44.004486593258164" lon="12.641774530384561"><ele>11.0</ele><time>2026-05-02T18:25:59Z</time></trkpt><trkpt lat="44.00451504369165" lon="12.64185330724245"><ele>11.0</ele><time>2026-05-02T18:26:01Z</time></trkpt><trkpt lat="44.004545785411274" lon="12.641930111751147"><ele>11.0</ele><time>2026-05-02T18:26:03Z</time></trkpt><trkpt lat="44.004584956046656" lon="12.642022980052644"><ele>11.0</ele><time>2026-05-02T18:26:04.999Z</time></trkpt><trkpt lat="44.00462158707936" lon="12.642116390701757"><ele>11.0</ele><time>2026-05-02T18:26:06.999Z</time></trkpt><trkpt lat="44.00465444846899" lon="12.6421993359062"><ele>11.0</ele><time>2026-05-02T18:26:08.999Z</time></trkpt><trkpt lat="44.004678892348174" lon="12.642281532203368"><ele>11.0</ele><time>2026-05-02T18:26:10.999Z</time></trkpt><trkpt lat="44.00471770528873" lon="12.642383437001026"><ele>11.333333333333332</ele><time>2026-05-02T18:26:12.999Z</time></trkpt><trkpt lat="44.00474688719724" lon="12.642486873909549"><ele>11.666666666666666</ele><time>2026-05-02T18:26:14.999Z</time></trkpt><trkpt lat="44.0047192523902" lon="12.64260206740141"><ele>12.0</ele><time>2026-05-02T18:26:16.999Z</time></trkpt><trkpt lat="44.004686605770594" lon="12.642709374290881"><ele>12.333333333333332</ele><time>2026-05-02T18:26:18.999Z</time></trkpt><trkpt lat="44.004668253704935" lon="12.642801058816316"><ele>12.666666666666666</ele><time>2026-05-02T18:26:20.999Z</time></trkpt><trkpt lat="44.00460808471918" lon="12.64290303741259"><ele>13.0</ele><time>2026-05-02T18:26:22.999Z</time></trkpt><trkpt lat="44.00454809403501" lon="12.642992161595789"><ele>12.999999999999998</ele><time>2026-05-02T18:26:24.999Z</time></trkpt><trkpt lat="44.004482434433704" lon="12.64307717297562"><ele>13.0</ele><time>2026-05-02T18:26:26.999Z</time></trkpt><trkpt lat="44.004413902494186" lon="12.643134986765084"><ele>13.0</ele><time>2026-05-02T18:26:28.999Z</time></trkpt><trkpt lat="44.004352970047556" lon="12.643198545319382"><ele>13.0</ele><time>2026-05-02T18:26:30.999Z</time></trkpt><trkpt lat="44.00430188658487" lon="12.643272316711043"><ele>12.999999999999998</ele><time>2026-05-02T18:26:32.999Z</time></trkpt><trkpt lat="44.004222685795924" lon="12.6433315544386"><ele>13.0</ele><time>2026-05-02T18:26:34.999Z</time></trkpt><trkpt lat="44.004128018722966" lon="12.643395360868027"><ele>13.0</ele><time>2026-05-02T18:26:36.999Z</time></trkpt><trkpt lat="44.00403815711651" lon="12.643462301659222"><ele>13.0</ele><time>2026-05-02T18:26:38.999Z</time></trkpt><trkpt lat="44.00395060631674" lon="12.643527951005264"><ele>13.0</ele><time>2026-05-02T18:26:40.999Z</time></trkpt><trkpt lat="44.00386934742372" lon="12.643581323450165"><ele>13.0</ele><time>2026-05-02T18:26:42.999Z</time></trkpt><trkpt lat="44.003785653635944" lon="12.643639612183218"><ele>13.0</ele><time>2026-05-02T18:26:44.999Z</time></trkpt><trkpt lat="44.00370873578624" lon="12.643700143111525"><ele>12.499999999999998</ele><time>2026-05-02T18:26:46.999Z</time></trkpt><trkpt lat="44.00363268227507" lon="12.643757646582875"><ele>12.0</ele><time>2026-05-02T18:26:48.999Z</time></trkpt><trkpt lat="44.00354646314394" lon="12.643811822025956"><ele>11.5</ele><time>2026-05-02T18:26:50.999Z</time></trkpt><trkpt lat="44.00347138605278" lon="12.643872698677786"><ele>11.0</ele><time>2026-05-02T18:26:52.999Z</time></trkpt><trkpt lat="44.00339514240456" lon="12.643917993523905"><ele>10.5</ele><time>2026-05-02T18:26:54.999Z</time></trkpt><trkpt lat="44.003330915203456" lon="12.643971373085206"><ele>10.0</ele><time>2026-05-02T18:26:56.999Z</time></trkpt><trkpt lat="44.003251106742766" lon="12.644016644833448"><ele>10.0</ele><time>2026-05-02T18:26:58.999Z</time></trkpt><trkpt lat="44.00318628544008" lon="12.644064170356424"><ele>10.0</ele><time>2026-05-02T18:27:00.999Z</time></trkpt><trkpt lat="44.00310335698342" lon="12.644120075006795"><ele>10.0</ele><time>2026-05-02T18:27:04Z</time></trkpt><trkpt lat="44.003048913024074" lon="12.644167807278352"><ele>10.0</ele><time>2026-05-02T18:27:06Z</time></trkpt><trkpt lat="44.00297348509223" lon="12.644224909237156"><ele>10.0</ele><time>2026-05-02T18:27:09Z</time></trkpt><trkpt lat="44.00300866999144" lon="12.644323267825028"><ele>10.0</ele><time>2026-05-02T18:27:13Z</time></trkpt><trkpt lat="44.00304944348444" lon="12.644421228561134"><ele>10.0</ele><time>2026-05-02T18:27:18Z</time></trkpt><trkpt lat="44.00298065904061" lon="12.644465255739632"><ele>10.0</ele><time>2026-05-02T18:27:21Z</time></trkpt><trkpt lat="44.00290520190996" lon="12.64443469207222"><ele>10.0</ele><time>2026-05-02T18:27:24Z</time></trkpt><trkpt lat="44.00283290071743" lon="12.644432173397588"><ele>10.0</ele><time>2026-05-02T18:27:27Z</time></trkpt><trkpt lat="44.002770283275915" lon="12.644459237301017"><ele>10.0</ele><time>2026-05-02T18:27:29Z</time></trkpt><trkpt lat="44.00271696061668" lon="12.644516820605203"><ele>10.0</ele><time>2026-05-02T18:27:31Z</time></trkpt><trkpt lat="44.00266069347892" lon="12.644582610175107"><ele>10.0</ele><time>2026-05-02T18:27:33Z</time></trkpt><trkpt lat="44.002598459980625" lon="12.644644446636578"><ele>10.0</ele><time>2026-05-02T18:27:35Z</time></trkpt><trkpt lat="44.002534156024836" lon="12.644710928053662"><ele>10.0</ele><time>2026-05-02T18:27:37Z</time></trkpt><trkpt lat="44.00247657029539" lon="12.644776608203205"><ele>10.0</ele><time>2026-05-02T18:27:39Z</time></trkpt><trkpt lat="44.002410751277104" lon="12.644839574579004"><ele>10.0</ele><time>2026-05-02T18:27:41Z</time></trkpt><trkpt lat="44.0023440017603" lon="12.644906300053814"><ele>10.0</ele><time>2026-05-02T18:27:43Z</time></trkpt><trkpt lat="44.002289467220685" lon="12.644973792904056"><ele>10.0</ele><time>2026-05-02T18:27:45Z</time></trkpt><trkpt lat="44.00223951950808" lon="12.645045182829337"><ele>10.0</ele><time>2026-05-02T18:27:47Z</time></trkpt><trkpt lat="44.00219382761163" lon="12.645112562788244"><ele>10.0</ele><time>2026-05-02T18:27:49Z</time></trkpt><trkpt lat="44.0021602627115" lon="12.645191129875956"><ele>10.0</ele><time>2026-05-02T18:27:51Z</time></trkpt><trkpt lat="44.00213932731867" lon="12.645274660134993"><ele>10.0</ele><time>2026-05-02T18:27:53Z</time></trkpt><trkpt lat="44.002096613105685" lon="12.6453557458396"><ele>10.0</ele><time>2026-05-02T18:27:55Z</time></trkpt><trkpt lat="44.00203166115918" lon="12.645419625355737"><ele>10.0</ele><time>2026-05-02T18:27:57Z</time></trkpt><trkpt lat="44.00196275876841" lon="12.645483221328428"><ele>10.0</ele><time>2026-05-02T18:27:59Z</time></trkpt><trkpt lat="44.001977173429594" lon="12.645661232014145"><ele>9.666666666666668</ele><time>2026-05-02T18:28:01Z</time></trkpt><trkpt lat="44.001925711441686" lon="12.645725932599735"><ele>9.333333333333334</ele><time>2026-05-02T18:28:03Z</time></trkpt><trkpt lat="44.00167708357564" lon="12.645436916701401"><ele>9.0</ele><time>2026-05-02T18:28:08Z</time></trkpt><trkpt lat="44.00162316746141" lon="12.645327100985709"><ele>8.0</ele><time>2026-05-02T18:28:10Z</time></trkpt><trkpt lat="44.001559525827815" lon="12.645220224106646"><ele>7.0</ele><time>2026-05-02T18:28:12Z</time></trkpt><trkpt lat="44.001494989571874" lon="12.645103164649417"><ele>6.0</ele><time>2026-05-02T18:28:14Z</time></trkpt><trkpt lat="44.001428788068914" lon="12.64498544371213"><ele>5.0</ele><time>2026-05-02T18:28:16Z</time></trkpt><trkpt lat="44.00136320703774" lon="12.644846205399686"><ele>4.0</ele><time>2026-05-02T18:28:17.999Z</time></trkpt><trkpt lat="44.001323689741504" lon="12.644777028494142"><ele>4.0</ele><time>2026-05-02T18:28:18.999Z</time></trkpt><trkpt lat="44.001252163246285" lon="12.64463123124621"><ele>4.0</ele><time>2026-05-02T18:28:20.999Z</time></trkpt><trkpt lat="44.001186835281004" lon="12.644488879917294"><ele>4.0</ele><time>2026-05-02T18:28:22.999Z</time></trkpt><trkpt lat="44.00114033285109" lon="12.644351145958126"><ele>4.0</ele><time>2026-05-02T18:28:24.999Z</time></trkpt><trkpt lat="44.00109621691068" lon="12.644233406014525"><ele>4.166666666666666</ele><time>2026-05-02T18:28:26.999Z</time></trkpt><trkpt lat="44.00105394489991" lon="12.644132766536009"><ele>4.333333333333333</ele><time>2026-05-02T18:28:28.999Z</time></trkpt><trkpt lat="44.00100824727991" lon="12.644045535989934"><ele>4.5</ele><time>2026-05-02T18:28:30.999Z</time></trkpt><trkpt lat="44.000969222995636" lon="12.643942631113422"><ele>4.666666666666667</ele><time>2026-05-02T18:28:32.999Z</time></trkpt><trkpt lat="44.00093286593678" lon="12.643821144380365"><ele>4.833333333333334</ele><time>2026-05-02T18:28:34.999Z</time></trkpt><trkpt lat="44.00089769755068" lon="12.64371148728107"><ele>5.0</ele><time>2026-05-02T18:28:36.999Z</time></trkpt><trkpt lat="44.000859555645356" lon="12.643599530621916"><ele>5.166666666666667</ele><time>2026-05-02T18:28:38.999Z</time></trkpt><trkpt lat="44.00082601974407" lon="12.643502789483634"><ele>5.333333333333334</ele><time>2026-05-02T18:28:40.999Z</time></trkpt><trkpt lat="44.000776287106156" lon="12.643389937684061"><ele>5.5</ele><time>2026-05-02T18:28:42.999Z</time></trkpt><trkpt lat="44.000752673591904" lon="12.643296066324933"><ele>5.666666666666667</ele><time>2026-05-02T18:28:44.999Z</time></trkpt><trkpt lat="44.00070377299091" lon="12.643180007523094"><ele>5.833333333333333</ele><time>2026-05-02T18:28:46.999Z</time></trkpt><trkpt lat="44.00065824975523" lon="12.643074118880739"><ele>6.0</ele><time>2026-05-02T18:28:48.999Z</time></trkpt><trkpt lat="44.00063938468705" lon="12.642964987321836"><ele>6.0</ele><time>2026-05-02T18:28:50.999Z</time></trkpt><trkpt lat="44.00060948683492" lon="12.642879148516899"><ele>6.0</ele><time>2026-05-02T18:28:52.999Z</time></trkpt><trkpt lat="44.00058302588971" lon="12.642785599373228"><ele>6.0</ele><time>2026-05-02T18:28:55.999Z</time></trkpt><trkpt lat="44.000526323346584" lon="12.642710107720143"><ele>6.0</ele><time>2026-05-02T18:28:59.999Z</time></trkpt><trkpt lat="44.00044974523364" lon="12.64267014782943"><ele>6.0</ele><time>2026-05-02T18:29:03.999Z</time></trkpt><trkpt lat="44.000384148056234" lon="12.642663175031622"><ele>6.0</ele><time>2026-05-02T18:29:07.999Z</time></trkpt><trkpt lat="44.00032922801202" lon="12.642764379322141"><ele>6.0</ele><time>2026-05-02T18:29:12Z</time></trkpt><trkpt lat="44.000227883069016" lon="12.642775642989992"><ele>6.0</ele><time>2026-05-02T18:29:14Z</time></trkpt><trkpt lat="44.00019769826181" lon="12.642852937531813"><ele>6.0</ele><time>2026-05-02T18:29:16Z</time></trkpt><trkpt lat="44.00016635794894" lon="12.642933190865671"><ele>6.0</ele><time>2026-05-02T18:29:18Z</time></trkpt><trkpt lat="44.00013155846549" lon="12.643021691928013"><ele>6.0</ele><time>2026-05-02T18:29:20Z</time></trkpt><trkpt lat="44.00009321811099" lon="12.643119074869928"><ele>6.0</ele><time>2026-05-02T18:29:22Z</time></trkpt><trkpt lat="44.00005781589291" lon="12.643208994971909"><ele>6.0</ele><time>2026-05-02T18:29:24Z</time></trkpt><trkpt lat="44.0000271342483" lon="12.643286925066901"><ele>6.0</ele><time>2026-05-02T18:29:26Z</time></trkpt><trkpt lat="43.999982682021724" lon="12.643400411871283"><ele>6.0</ele><time>2026-05-02T18:29:29Z</time></trkpt><trkpt lat="43.99994644537098" lon="12.64349298500012"><ele>6.0</ele><time>2026-05-02T18:29:31Z</time></trkpt><trkpt lat="43.9999074671033" lon="12.643592562181954"><ele>6.0</ele><time>2026-05-02T18:29:33Z</time></trkpt><trkpt lat="43.99986805697882" lon="12.643693242662982"><ele>6.0</ele><time>2026-05-02T18:29:35Z</time></trkpt><trkpt lat="43.999832488608924" lon="12.643784108483311"><ele>5.666666666666667</ele><time>2026-05-02T18:29:37Z</time></trkpt><trkpt lat="43.99979732037116" lon="12.64387295442371"><ele>5.333333333333333</ele><time>2026-05-02T18:29:39Z</time></trkpt><trkpt lat="43.99976342146681" lon="12.64395884516131"><ele>5.0</ele><time>2026-05-02T18:29:41Z</time></trkpt><trkpt lat="43.99973106410801" lon="12.644041534910325"><ele>4.666666666666666</ele><time>2026-05-02T18:29:43Z</time></trkpt><trkpt lat="43.999685431567755" lon="12.64415814969053"><ele>4.333333333333333</ele><time>2026-05-02T18:29:46Z</time></trkpt><trkpt lat="43.99967811516492" lon="12.644246820476146"><ele>4.0</ele><time>2026-05-02T18:29:50Z</time></trkpt><trkpt lat="43.999649935986525" lon="12.644349216654325"><ele>4.0</ele><time>2026-05-02T18:29:54Z</time></trkpt><trkpt lat="43.99962340062933" lon="12.644449464553881"><ele>4.0</ele><time>2026-05-02T18:29:58Z</time></trkpt><trkpt lat="44.00000179505333" lon="12.644762615901664"><ele>3.8571428571428568</ele><time>2026-05-02T18:29:59Z</time></trkpt><trkpt lat="44.00004054286584" lon="12.644853356674194"><ele>3.714285714285714</ele><time>2026-05-02T18:30:01Z</time></trkpt><trkpt lat="44.000077393351894" lon="12.644927189654437"><ele>3.571428571428571</ele><time>2026-05-02T18:30:03Z</time></trkpt><trkpt lat="44.000120945195185" lon="12.645006990207"><ele>3.4285714285714284</ele><time>2026-05-02T18:30:05Z</time></trkpt><trkpt lat="44.00016652859458" lon="12.645084012255246"><ele>3.2857142857142856</ele><time>2026-05-02T18:30:07Z</time></trkpt><trkpt lat="44.00020607985966" lon="12.645155667374075"><ele>3.1428571428571423</ele><time>2026-05-02T18:30:09Z</time></trkpt><trkpt lat="44.000266923867166" lon="12.645205843959559"><ele>3.0</ele><time>2026-05-02T18:30:11Z</time></trkpt><trkpt lat="44.0003263374303" lon="12.645258005007014"><ele>3.5999999999999996</ele><time>2026-05-02T18:30:13Z</time></trkpt><trkpt lat="44.00039150383644" lon="12.645323846183569"><ele>4.199999999999999</ele><time>2026-05-02T18:30:15Z</time></trkpt><trkpt lat="44.00042387867458" lon="12.645438966292492"><ele>4.8</ele><time>2026-05-02T18:30:17Z</time></trkpt><trkpt lat="44.00044942116255" lon="12.645559774084669"><ele>5.3999999999999995</ele><time>2026-05-02T18:30:19Z</time></trkpt><trkpt lat="44.000496506840896" lon="12.645682183145425"><ele>6.0</ele><time>2026-05-02T18:30:21Z</time></trkpt><trkpt lat="44.00055450451302" lon="12.645809165093278"><ele>6.0</ele><time>2026-05-02T18:30:23Z</time></trkpt><trkpt lat="44.00061380182144" lon="12.645941135877997"><ele>6.0</ele><time>2026-05-02T18:30:25Z</time></trkpt><trkpt lat="44.000650377749686" lon="12.646094415750259"><ele>6.0</ele><time>2026-05-02T18:30:27Z</time></trkpt><trkpt lat="44.0006235981492" lon="12.64625061987465"><ele>6.0</ele><time>2026-05-02T18:30:29Z</time></trkpt><trkpt lat="44.000579434689556" lon="12.646376887277215"><ele>6.0</ele><time>2026-05-02T18:30:30.999Z</time></trkpt><trkpt lat="44.000532973524706" lon="12.646507890137356"><ele>6.0</ele><time>2026-05-02T18:30:32.999Z</time></trkpt><trkpt lat="44.00049063824309" lon="12.6466392558793"><ele>6.0</ele><time>2026-05-02T18:30:34.999Z</time></trkpt><trkpt lat="44.00042569025795" lon="12.646766066978225"><ele>6.0</ele><time>2026-05-02T18:30:36.999Z</time></trkpt><trkpt lat="44.000369811502146" lon="12.646883773529227"><ele>6.0</ele><time>2026-05-02T18:30:38.999Z</time></trkpt><trkpt lat="44.000322764871875" lon="12.647004417165634"><ele>6.0</ele><time>2026-05-02T18:30:40.999Z</time></trkpt><trkpt lat="44.00028160583521" lon="12.647120789897485"><ele>5.6</ele><time>2026-05-02T18:30:42.999Z</time></trkpt><trkpt lat="44.00023597155854" lon="12.647246653081288"><ele>5.199999999999999</ele><time>2026-05-02T18:30:44.999Z</time></trkpt><trkpt lat="44.00018832220185" lon="12.647370115569801"><ele>4.800000000000001</ele><time>2026-05-02T18:30:46.999Z</time></trkpt><trkpt lat="44.000132897504876" lon="12.647509576602179"><ele>4.4</ele><time>2026-05-02T18:30:48.999Z</time></trkpt><trkpt lat="44.0000876899721" lon="12.64766126040852"><ele>4.0</ele><time>2026-05-02T18:30:50.999Z</time></trkpt><trkpt lat="44.00004978321444" lon="12.64781004489251"><ele>3.6</ele><time>2026-05-02T18:30:52.999Z</time></trkpt><trkpt lat="44.00002205790859" lon="12.647966742196315"><ele>3.2</ele><time>2026-05-02T18:30:54.999Z</time></trkpt><trkpt lat="43.99999580521759" lon="12.648119713165318"><ele>2.8000000000000003</ele><time>2026-05-02T18:30:56.999Z</time></trkpt><trkpt lat="43.99997608687438" lon="12.64825979682277"><ele>2.4000000000000004</ele><time>2026-05-02T18:30:58.999Z</time></trkpt><trkpt lat="43.999979806501706" lon="12.64840537285784"><ele>2.0</ele><time>2026-05-02T18:31:00.999Z</time></trkpt><trkpt lat="43.999991313427294" lon="12.648544504318258"><ele>2.0</ele><time>2026-05-02T18:31:02.999Z</time></trkpt><trkpt lat="44.00002677119783" lon="12.648666469111266"><ele>2.0</ele><time>2026-05-02T18:31:04.999Z</time></trkpt><trkpt lat="44.00007925126699" lon="12.648782931550278"><ele>2.0</ele><time>2026-05-02T18:31:06.999Z</time></trkpt><trkpt lat="44.00013786711286" lon="12.648901828516049"><ele>2.0</ele><time>2026-05-02T18:31:08.999Z</time></trkpt><trkpt lat="44.000196860159086" lon="12.649030297038797"><ele>2.0</ele><time>2026-05-02T18:31:10.999Z</time></trkpt><trkpt lat="44.00026304226785" lon="12.649157716575651"><ele>2.0</ele><time>2026-05-02T18:31:12.999Z</time></trkpt><trkpt lat="44.00032747567286" lon="12.649291655989186"><ele>2.0</ele><time>2026-05-02T18:31:14.999Z</time></trkpt><trkpt lat="44.00039087603296" lon="12.649423614343778"><ele>2.0</ele><time>2026-05-02T18:31:17Z</time></trkpt><trkpt lat="44.00044938286878" lon="12.649555318782442"><ele>2.0</ele><time>2026-05-02T18:31:19Z</time></trkpt><trkpt lat="44.000499286410886" lon="12.649683374200338"><ele>2.0</ele><time>2026-05-02T18:31:21Z</time></trkpt><trkpt lat="44.0005392295844" lon="12.649799488727325"><ele>2.1666666666666665</ele><time>2026-05-02T18:31:23Z</time></trkpt><trkpt lat="44.00058326288635" lon="12.649916212924262"><ele>2.333333333333333</ele><time>2026-05-02T18:31:25Z</time></trkpt><trkpt lat="44.0006243634637" lon="12.65002245903398"><ele>2.5</ele><time>2026-05-02T18:31:27Z</time></trkpt><trkpt lat="44.00066099894248" lon="12.650131054442781"><ele>2.6666666666666665</ele><time>2026-05-02T18:31:29Z</time></trkpt><trkpt lat="44.00069408729932" lon="12.650234387467545"><ele>2.8333333333333335</ele><time>2026-05-02T18:31:31Z</time></trkpt><trkpt lat="44.000727018635615" lon="12.650325622838212"><ele>3.0</ele><time>2026-05-02T18:31:33Z</time></trkpt><trkpt lat="44.00076940410588" lon="12.650414233447066"><ele>3.2</ele><time>2026-05-02T18:31:35Z</time></trkpt><trkpt lat="44.0008048912262" lon="12.650511310419457"><ele>3.4</ele><time>2026-05-02T18:31:37Z</time></trkpt><trkpt lat="44.00084174800866" lon="12.650626857285012"><ele>3.6000000000000005</ele><time>2026-05-02T18:31:39Z</time></trkpt><trkpt lat="44.000883775202645" lon="12.65074735757915"><ele>3.8000000000000003</ele><time>2026-05-02T18:31:41Z</time></trkpt><trkpt lat="44.000928734967964" lon="12.650868076329786"><ele>4.0</ele><time>2026-05-02T18:31:43Z</time></trkpt><trkpt lat="44.00098059932762" lon="12.65097753062752"><ele>4.0</ele><time>2026-05-02T18:31:45Z</time></trkpt><trkpt lat="44.00103185929031" lon="12.651079602278998"><ele>4.0</ele><time>2026-05-02T18:31:47Z</time></trkpt><trkpt lat="44.00108006532728" lon="12.651190054114393"><ele>4.0</ele><time>2026-05-02T18:31:49Z</time></trkpt><trkpt lat="44.00114322571161" lon="12.651285382532192"><ele>4.0</ele><time>2026-05-02T18:31:51Z</time></trkpt><trkpt lat="44.00121813894618" lon="12.651366420299201"><ele>4.0</ele><time>2026-05-02T18:31:53Z</time></trkpt><trkpt lat="44.001297949207114" lon="12.651440859939962"><ele>4.0</ele><time>2026-05-02T18:31:55Z</time></trkpt><trkpt lat="44.00137850788411" lon="12.651520812805304"><ele>4.0</ele><time>2026-05-02T18:31:57Z</time></trkpt><trkpt lat="44.001459005980415" lon="12.651593526093706"><ele>4.0</ele><time>2026-05-02T18:31:59Z</time></trkpt><trkpt lat="44.00153761929857" lon="12.651667177119778"><ele>4.0</ele><time>2026-05-02T18:32:01Z</time></trkpt><trkpt lat="44.001613048045655" lon="12.651743458314353"><ele>4.0</ele><time>2026-05-02T18:32:03Z</time></trkpt><trkpt lat="44.001679113524965" lon="12.651818489578783"><ele>3.833333333333333</ele><time>2026-05-02T18:32:05Z</time></trkpt><trkpt lat="44.00173633985652" lon="12.651878177507989"><ele>3.6666666666666665</ele><time>2026-05-02T18:32:07Z</time></trkpt><trkpt lat="44.0017876872665" lon="12.651935726012528"><ele>3.5</ele><time>2026-05-02T18:32:09Z</time></trkpt><trkpt lat="44.00185251293736" lon="12.652001784067975"><ele>3.333333333333333</ele><time>2026-05-02T18:32:11Z</time></trkpt><trkpt lat="44.00192295617805" lon="12.652069675475381"><ele>3.1666666666666665</ele><time>2026-05-02T18:32:13Z</time></trkpt><trkpt lat="44.00200055278888" lon="12.652150959909658"><ele>3.0</ele><time>2026-05-02T18:32:15Z</time></trkpt><trkpt lat="44.002086972212105" lon="12.652220475091855"><ele>3.8</ele><time>2026-05-02T18:32:17Z</time></trkpt><trkpt lat="44.002174840622835" lon="12.652300553634776"><ele>4.6</ele><time>2026-05-02T18:32:19Z</time></trkpt><trkpt lat="44.00224465387378" lon="12.652374202900297"><ele>5.3999999999999995</ele><time>2026-05-02T18:32:21Z</time></trkpt><trkpt lat="44.00231551709435" lon="12.652451358051788"><ele>6.199999999999999</ele><time>2026-05-02T18:32:23Z</time></trkpt><trkpt lat="44.00238460057623" lon="12.652517169737273"><ele>7.0</ele><time>2026-05-02T18:32:25Z</time></trkpt><trkpt lat="44.00244906046102" lon="12.652599966314945"><ele>6.333333333333334</ele><time>2026-05-02T18:32:27Z</time></trkpt><trkpt lat="44.00251493111998" lon="12.652682216612513"><ele>5.666666666666667</ele><time>2026-05-02T18:32:29Z</time></trkpt><trkpt lat="44.002581845805196" lon="12.652753346735423"><ele>5.0</ele><time>2026-05-02T18:32:31Z</time></trkpt><trkpt lat="44.00264590114882" lon="12.652820834071303"><ele>4.333333333333334</ele><time>2026-05-02T18:32:33Z</time></trkpt><trkpt lat="44.002711481947095" lon="12.65288729567247"><ele>3.666666666666667</ele><time>2026-05-02T18:32:35Z</time></trkpt><trkpt lat="44.0027812439488" lon="12.65295541572337"><ele>3.0</ele><time>2026-05-02T18:32:37Z</time></trkpt><trkpt lat="44.00285011942549" lon="12.653025826125319"><ele>2.9999999999999996</ele><time>2026-05-02T18:32:39Z</time></trkpt><trkpt lat="44.00291649686223" lon="12.653100896394562"><ele>3.0</ele><time>2026-05-02T18:32:40.999Z</time></trkpt><trkpt lat="44.00297975973141" lon="12.653174836380916"><ele>3.0</ele><time>2026-05-02T18:32:42.999Z</time></trkpt><trkpt lat="44.0030391891048" lon="12.653236943982341"><ele>3.0</ele><time>2026-05-02T18:32:44.999Z</time></trkpt><trkpt lat="44.00308974549461" lon="12.65330376341548"><ele>3.0</ele><time>2026-05-02T18:32:46.999Z</time></trkpt><trkpt lat="44.0031366620729" lon="12.65336389054417"><ele>2.9999999999999996</ele><time>2026-05-02T18:32:48.999Z</time></trkpt><trkpt lat="44.00319140567797" lon="12.653416906586177"><ele>3.0</ele><time>2026-05-02T18:32:52.999Z</time></trkpt><trkpt lat="44.003246348367874" lon="12.65335993157351"><ele>3.0</ele><time>2026-05-02T18:32:56.999Z</time></trkpt><trkpt lat="44.0033004172518" lon="12.653298934648205"><ele>3.0</ele><time>2026-05-02T18:32:59.999Z</time></trkpt><trkpt lat="44.0033560140434" lon="12.653223915147391"><ele>3.0</ele><time>2026-05-02T18:33:02.999Z</time></trkpt><trkpt lat="44.003428298626105" lon="12.653149697335468"><ele>3.0</ele><time>2026-05-02T18:33:05.999Z</time></trkpt><trkpt lat="44.003504222973405" lon="12.653144699938942"><ele>3.0</ele><time>2026-05-02T18:33:08.999Z</time></trkpt><trkpt lat="44.00370234551437" lon="12.65365630506277"><ele>3.2857142857142856</ele><time>2026-05-02T18:33:42Z</time></trkpt><trkpt lat="44.003752893692315" lon="12.653728577973906"><ele>3.571428571428571</ele><time>2026-05-02T18:33:45Z</time></trkpt><trkpt lat="44.0038093387764" lon="12.653793688892582"><ele>3.8571428571428568</ele><time>2026-05-02T18:33:48Z</time></trkpt><trkpt lat="44.00387562949707" lon="12.653822468983456"><ele>4.142857142857142</ele><time>2026-05-02T18:33:52Z</time></trkpt><trkpt lat="44.003947194727665" lon="12.653812688968825"><ele>4.428571428571429</ele><time>2026-05-02T18:33:56Z</time></trkpt><trkpt lat="44.004013350825105" lon="12.653885523606187"><ele>4.714285714285714</ele><time>2026-05-02T18:33:59Z</time></trkpt><trkpt lat="44.0040696690179" lon="12.653925362334615"><ele>5.0</ele><time>2026-05-02T18:34:01Z</time></trkpt><trkpt lat="44.00413500657963" lon="12.653967422657411"><ele>4.714285714285714</ele><time>2026-05-02T18:34:03Z</time></trkpt><trkpt lat="44.00420065332567" lon="12.65400499118352"><ele>4.428571428571429</ele><time>2026-05-02T18:34:05Z</time></trkpt><trkpt lat="44.00425771313727" lon="12.654044849658073"><ele>4.142857142857142</ele><time>2026-05-02T18:34:07Z</time></trkpt><trkpt lat="44.0043360985079" lon="12.654113696774314"><ele>3.8571428571428568</ele><time>2026-05-02T18:34:10Z</time></trkpt><trkpt lat="44.00438697905829" lon="12.654165451496416"><ele>3.571428571428571</ele><time>2026-05-02T18:34:12Z</time></trkpt><trkpt lat="44.00442603361499" lon="12.654246359804796"><ele>3.2857142857142856</ele><time>2026-05-02T18:34:14Z</time></trkpt><trkpt lat="44.00449296630662" lon="12.654304207093826"><ele>3.0</ele><time>2026-05-02T18:34:17Z</time></trkpt><trkpt lat="44.004546982423655" lon="12.654358999512016"><ele>3.0</ele><time>2026-05-02T18:34:23Z</time></trkpt><trkpt lat="44.00461354642407" lon="12.654426520001921"><ele>3.0</ele><time>2026-05-02T18:34:28Z</time></trkpt><trkpt lat="44.004677805500265" lon="12.654491701198376"><ele>3.0</ele><time>2026-05-02T18:34:32Z</time></trkpt><trkpt lat="44.00473192516856" lon="12.654546597434916"><ele>3.0</ele><time>2026-05-02T18:34:35Z</time></trkpt><trkpt lat="44.0048017220072" lon="12.654617395934821"><ele>3.0</ele><time>2026-05-02T18:34:38Z</time></trkpt><trkpt lat="44.00487084391734" lon="12.654687509748252"><ele>3.0</ele><time>2026-05-02T18:34:41Z</time></trkpt><trkpt lat="44.0049343641963" lon="12.654624669485443"><ele>3.0</ele><time>2026-05-02T18:34:42Z</time></trkpt><trkpt lat="44.004993233961734" lon="12.654661409548062"><ele>3.0</ele><time>2026-05-02T18:34:44.999Z</time></trkpt><trkpt lat="44.004771141550286" lon="12.654307156564828"><ele>3.0</ele><time>2026-05-02T18:34:46.999Z</time></trkpt><trkpt lat="44.00503773407025" lon="12.654719173294556"><ele>3.2857142857142856</ele><time>2026-05-02T18:34:47.999Z</time></trkpt><trkpt lat="44.005084167996465" lon="12.654795991913842"><ele>3.571428571428571</ele><time>2026-05-02T18:34:53.999Z</time></trkpt><trkpt lat="44.00508346301022" lon="12.65489805392014"><ele>3.8571428571428568</ele><time>2026-05-02T18:34:59.999Z</time></trkpt><trkpt lat="44.00504981747971" lon="12.654974083250265"><ele>4.142857142857142</ele><time>2026-05-02T18:35:10.999Z</time></trkpt><trkpt lat="44.005030515585034" lon="12.65508860516712"><ele>4.428571428571429</ele><time>2026-05-02T18:35:35Z</time></trkpt><trkpt lat="44.00495735202631" lon="12.655117696160138"><ele>4.714285714285714</ele><time>2026-05-02T18:36:40.999Z</time></trkpt><trkpt lat="44.004910024832704" lon="12.655181329032951"><ele>5.0</ele><time>2026-05-02T18:36:46.999Z</time></trkpt><trkpt lat="44.00493101198552" lon="12.655290488216576"><ele>5.142857142857142</ele><time>2026-05-02T18:36:55.999Z</time></trkpt><trkpt lat="44.004997761743724" lon="12.65532946486235"><ele>5.285714285714286</ele><time>2026-05-02T18:36:57.999Z</time></trkpt><trkpt lat="44.00505880408652" lon="12.65537884897059"><ele>5.428571428571429</ele><time>2026-05-02T18:36:59.999Z</time></trkpt><trkpt lat="44.00511623655631" lon="12.655438902959"><ele>5.571428571428571</ele><time>2026-05-02T18:37:01.999Z</time></trkpt><trkpt lat="44.00516707428524" lon="12.655497811388212"><ele>5.714285714285714</ele><time>2026-05-02T18:37:04.999Z</time></trkpt><trkpt lat="44.005221101526196" lon="12.655557055481358"><ele>5.857142857142857</ele><time>2026-05-02T18:37:08.999Z</time></trkpt><trkpt lat="44.005280809459286" lon="12.65561108204084"><ele>6.0</ele><time>2026-05-02T18:37:12.999Z</time></trkpt><trkpt lat="44.0053461043229" lon="12.65565992054978"><ele>6.0</ele><time>2026-05-02T18:37:15.999Z</time></trkpt><trkpt lat="44.00540110088463" lon="12.655721052338018"><ele>6.0</ele><time>2026-05-02T18:37:18.999Z</time></trkpt><trkpt lat="44.0054742733015" lon="12.65579826437847"><ele>6.0</ele><time>2026-05-02T18:37:21.999Z</time></trkpt><trkpt lat="44.00553898727163" lon="12.655861211653544"><ele>6.0</ele><time>2026-05-02T18:37:24.999Z</time></trkpt><trkpt lat="44.00561903069378" lon="12.65591475796982"><ele>6.0</ele><time>2026-05-02T18:37:27.999Z</time></trkpt><trkpt lat="44.005680631724495" lon="12.655965648780937"><ele>6.0</ele><time>2026-05-02T18:37:29.999Z</time></trkpt><trkpt lat="44.00573782848578" lon="12.656010948067983"><ele>6.0</ele><time>2026-05-02T18:37:31.999Z</time></trkpt><trkpt lat="44.005804793799" lon="12.65605199917352"><ele>6.0</ele><time>2026-05-02T18:37:35Z</time></trkpt><trkpt lat="44.00585810957189" lon="12.656110386181886"><ele>6.0</ele><time>2026-05-02T18:37:39Z</time></trkpt><trkpt lat="44.00592996467757" lon="12.656156651078648"><ele>6.0</ele><time>2026-05-02T18:37:42Z</time></trkpt><trkpt lat="44.00600394861465" lon="12.656207126487699"><ele>6.0</ele><time>2026-05-02T18:37:45Z</time></trkpt><trkpt lat="44.006076049233506" lon="12.65627954194036"><ele>6.0</ele><time>2026-05-02T18:37:48Z</time></trkpt><trkpt lat="44.00612642850538" lon="12.656347272362327"><ele>5.5</ele><time>2026-05-02T18:37:50Z</time></trkpt><trkpt lat="44.00616809898356" lon="12.656423840198013"><ele>5.0</ele><time>2026-05-02T18:37:52Z</time></trkpt><trkpt lat="44.006193797452994" lon="12.656506681884602"><ele>4.5</ele><time>2026-05-02T18:37:54Z</time></trkpt><trkpt lat="44.006179733979394" lon="12.6566442238931"><ele>4.0</ele><time>2026-05-02T18:37:57Z</time></trkpt><trkpt lat="44.006158356943615" lon="12.656732650455291"><ele>3.5</ele><time>2026-05-02T18:37:59Z</time></trkpt><trkpt lat="44.00609668356124" lon="12.656832966972846"><ele>3.0</ele><time>2026-05-02T18:38:02Z</time></trkpt><trkpt lat="44.006047272297295" lon="12.656905610329854"><ele>3.1428571428571423</ele><time>2026-05-02T18:38:04Z</time></trkpt><trkpt lat="44.005977434702444" lon="12.656999004403158"><ele>3.2857142857142856</ele><time>2026-05-02T18:38:07Z</time></trkpt><trkpt lat="44.00594632613647" lon="12.657075125573211"><ele>3.4285714285714284</ele><time>2026-05-02T18:38:09Z</time></trkpt><trkpt lat="44.00591089539279" lon="12.657150273058475"><ele>3.571428571428571</ele><time>2026-05-02T18:38:11Z</time></trkpt><trkpt lat="44.00586319804435" lon="12.657232600081846"><ele>3.714285714285714</ele><time>2026-05-02T18:38:13Z</time></trkpt><trkpt lat="44.00581292690512" lon="12.657320232416891"><ele>3.8571428571428568</ele><time>2026-05-02T18:38:15Z</time></trkpt><trkpt lat="44.00577197084645" lon="12.6573900779365"><ele>4.0</ele><time>2026-05-02T18:38:17Z</time></trkpt><trkpt lat="44.005697525792904" lon="12.65746216950519"><ele>3.9999999999999996</ele><time>2026-05-02T18:38:19Z</time></trkpt><trkpt lat="44.005633367719405" lon="12.657530189636939"><ele>4.0</ele><time>2026-05-02T18:38:21Z</time></trkpt><trkpt lat="44.00558141299794" lon="12.657622330334634"><ele>4.0</ele><time>2026-05-02T18:38:23Z</time></trkpt><trkpt lat="44.00552338054049" lon="12.65770941105347"><ele>4.0</ele><time>2026-05-02T18:38:25Z</time></trkpt><trkpt lat="44.00545849883522" lon="12.657798147622005"><ele>3.9999999999999996</ele><time>2026-05-02T18:38:27Z</time></trkpt><trkpt lat="44.0054123550127" lon="12.657889255259736"><ele>4.0</ele><time>2026-05-02T18:38:29Z</time></trkpt><trkpt lat="44.005358683934595" lon="12.65799283201554"><ele>3.6666666666666665</ele><time>2026-05-02T18:38:31Z</time></trkpt><trkpt lat="44.00529402026446" lon="12.65808361302494"><ele>3.333333333333333</ele><time>2026-05-02T18:38:33Z</time></trkpt><trkpt lat="44.005236532230086" lon="12.658163747384151"><ele>3.0</ele><time>2026-05-02T18:38:35Z</time></trkpt><trkpt lat="44.005184463146485" lon="12.658240665330759"><ele>2.6666666666666665</ele><time>2026-05-02T18:38:37Z</time></trkpt><trkpt lat="44.005127464793816" lon="12.658320537887835"><ele>2.333333333333333</ele><time>2026-05-02T18:38:39Z</time></trkpt><trkpt lat="44.00506703972884" lon="12.658407881947932"><ele>2.0</ele><time>2026-05-02T18:38:41Z</time></trkpt><trkpt lat="44.00501137289689" lon="12.658490430048644"><ele>2.142857142857143</ele><time>2026-05-02T18:38:43Z</time></trkpt><trkpt lat="44.00495905535271" lon="12.658568299816375"><ele>2.2857142857142856</ele><time>2026-05-02T18:38:45Z</time></trkpt><trkpt lat="44.00490684598248" lon="12.658645986049251"><ele>2.4285714285714284</ele><time>2026-05-02T18:38:46.999Z</time></trkpt><trkpt lat="44.00485843158773" lon="12.658720919030149"><ele>2.571428571428571</ele><time>2026-05-02T18:38:48.999Z</time></trkpt><trkpt lat="44.00482102360737" lon="12.658798466029367"><ele>2.7142857142857144</ele><time>2026-05-02T18:38:50.999Z</time></trkpt><trkpt lat="44.00477395680063" lon="12.658872704380348"><ele>2.8571428571428568</ele><time>2026-05-02T18:38:52.999Z</time></trkpt><trkpt lat="44.004730191666525" lon="12.658954898217154"><ele>3.0</ele><time>2026-05-02T18:38:54.999Z</time></trkpt><trkpt lat="44.00467324115855" lon="12.659038221186863"><ele>2.3333333333333335</ele><time>2026-05-02T18:38:56.999Z</time></trkpt><trkpt lat="44.0046180917251" lon="12.659117475531446"><ele>1.6666666666666667</ele><time>2026-05-02T18:38:58.999Z</time></trkpt><trkpt lat="44.00456217759758" lon="12.659193450058735"><ele>1.0</ele><time>2026-05-02T18:39:00.999Z</time></trkpt><trkpt lat="44.00450591983074" lon="12.659253677970941"><ele>0.33333333333333337</ele><time>2026-05-02T18:39:02.999Z</time></trkpt><trkpt lat="44.00445665431971" lon="12.65932528194766"><ele>-0.33333333333333326</ele><time>2026-05-02T18:39:05.999Z</time></trkpt><trkpt lat="44.004409442215994" lon="12.659393267729167"><ele>-1.0</ele><time>2026-05-02T18:39:09.999Z</time></trkpt><trkpt lat="44.00436117090171" lon="12.659487393939246"><ele>-0.9999999999999999</ele><time>2026-05-02T18:39:12.999Z</time></trkpt><trkpt lat="44.00430834886204" lon="12.659573244501644"><ele>-1.0</ele><time>2026-05-02T18:39:14.999Z</time></trkpt><trkpt lat="44.00426186721574" lon="12.659661374797254"><ele>-1.0</ele><time>2026-05-02T18:39:16.999Z</time></trkpt><trkpt lat="44.00421011678145" lon="12.659743204527452"><ele>-1.0</ele><time>2026-05-02T18:39:18.999Z</time></trkpt><trkpt lat="44.00415630601948" lon="12.659835272396208"><ele>-0.9999999999999999</ele><time>2026-05-02T18:39:20.999Z</time></trkpt><trkpt lat="44.00409269873586" lon="12.659918624594894"><ele>-1.0</ele><time>2026-05-02T18:39:22.999Z</time></trkpt><trkpt lat="44.00403914625835" lon="12.660000362524892"><ele>-0.49999999999999994</ele><time>2026-05-02T18:39:24.999Z</time></trkpt><trkpt lat="44.00397377865198" lon="12.660079711018213"><ele>0.0</ele><time>2026-05-02T18:39:26.999Z</time></trkpt><trkpt lat="44.0039100222231" lon="12.660164251561671"><ele>0.5</ele><time>2026-05-02T18:39:28.999Z</time></trkpt><trkpt lat="44.00384432063025" lon="12.660257596080337"><ele>1.0</ele><time>2026-05-02T18:39:30.999Z</time></trkpt><trkpt lat="44.003784537919906" lon="12.660351651441236"><ele>1.4999999999999998</ele><time>2026-05-02T18:39:32.999Z</time></trkpt><trkpt lat="44.00373171282832" lon="12.660441013603641"><ele>2.0</ele><time>2026-05-02T18:39:34.999Z</time></trkpt><trkpt lat="44.00367541860859" lon="12.660541863946165"><ele>2.5</ele><time>2026-05-02T18:39:36.999Z</time></trkpt><trkpt lat="44.003618694724125" lon="12.66063565204072"><ele>3.0</ele><time>2026-05-02T18:39:38.999Z</time></trkpt><trkpt lat="44.003561589441446" lon="12.660720004224006"><ele>3.5</ele><time>2026-05-02T18:39:41Z</time></trkpt><trkpt lat="44.00351008726886" lon="12.660800741471924"><ele>4.0</ele><time>2026-05-02T18:39:43Z</time></trkpt><trkpt lat="44.00346215038767" lon="12.66087976864329"><ele>4.5</ele><time>2026-05-02T18:39:45Z</time></trkpt><trkpt lat="44.00340670536145" lon="12.660948607828605"><ele>5.0</ele><time>2026-05-02T18:39:47Z</time></trkpt><trkpt lat="44.00335993156074" lon="12.661012216052503"><ele>5.285714285714286</ele><time>2026-05-02T18:39:49Z</time></trkpt><trkpt lat="44.00331109193078" lon="12.661068786257294"><ele>5.571428571428571</ele><time>2026-05-02T18:39:51Z</time></trkpt><trkpt lat="44.00326722210876" lon="12.661132383138835"><ele>5.857142857142858</ele><time>2026-05-02T18:39:53Z</time></trkpt><trkpt lat="44.00322733550716" lon="12.661211348637085"><ele>6.142857142857142</ele><time>2026-05-02T18:39:56Z</time></trkpt><trkpt lat="44.00317084549279" lon="12.661284718386424"><ele>6.428571428571429</ele><time>2026-05-02T18:39:59Z</time></trkpt><trkpt lat="44.003126827924106" lon="12.66138336330532"><ele>6.714285714285714</ele><time>2026-05-02T18:40:04Z</time></trkpt><trkpt lat="44.003065206995416" lon="12.661470312159164"><ele>7.0</ele><time>2026-05-02T18:40:07Z</time></trkpt><trkpt lat="44.003004280136345" lon="12.661556200499811"><ele>7.000000000000001</ele><time>2026-05-02T18:40:10Z</time></trkpt><trkpt lat="44.00294068193669" lon="12.661623217006193"><ele>7.0</ele><time>2026-05-02T18:40:12Z</time></trkpt><trkpt lat="44.002895712814954" lon="12.661688212738884"><ele>7.0</ele><time>2026-05-02T18:40:14Z</time></trkpt><trkpt lat="44.00282263657318" lon="12.661785297608793"><ele>7.0</ele><time>2026-05-02T18:40:17Z</time></trkpt><trkpt lat="44.00276084269503" lon="12.661879619960557"><ele>7.000000000000001</ele><time>2026-05-02T18:40:20Z</time></trkpt><trkpt lat="44.002696176831186" lon="12.66196319811545"><ele>7.0</ele><time>2026-05-02T18:40:23Z</time></trkpt><trkpt lat="44.00265348777763" lon="12.662048025601482"><ele>6.428571428571429</ele><time>2026-05-02T18:40:25Z</time></trkpt><trkpt lat="44.0026167002411" lon="12.662127511035685"><ele>5.857142857142857</ele><time>2026-05-02T18:40:27Z</time></trkpt><trkpt lat="44.002548003739" lon="12.662214664597938"><ele>5.285714285714286</ele><time>2026-05-02T18:40:30Z</time></trkpt><trkpt lat="44.002504607042994" lon="12.662293041668587"><ele>4.714285714285714</ele><time>2026-05-02T18:40:32Z</time></trkpt><trkpt lat="44.00245621627425" lon="12.662355464918498"><ele>4.142857142857142</ele><time>2026-05-02T18:40:34Z</time></trkpt><trkpt lat="44.00240137493463" lon="12.662426080537186"><ele>3.571428571428571</ele><time>2026-05-02T18:40:36Z</time></trkpt><trkpt lat="44.002356714713684" lon="12.662510042868183"><ele>3.0</ele><time>2026-05-02T18:40:38Z</time></trkpt><trkpt lat="44.002308855614466" lon="12.66258777656954"><ele>3.0</ele><time>2026-05-02T18:40:40Z</time></trkpt><trkpt lat="44.002259446112745" lon="12.662661617343227"><ele>3.0</ele><time>2026-05-02T18:40:42Z</time></trkpt><trkpt lat="44.00220987233727" lon="12.662732592709897"><ele>3.0</ele><time>2026-05-02T18:40:44Z</time></trkpt><trkpt lat="44.00215695690407" lon="12.662814070253747"><ele>3.0</ele><time>2026-05-02T18:40:46Z</time></trkpt><trkpt lat="44.0020986542392" lon="12.662898007672897"><ele>3.0</ele><time>2026-05-02T18:40:48Z</time></trkpt><trkpt lat="44.00204317209624" lon="12.662981692983925"><ele>3.0</ele><time>2026-05-02T18:40:50Z</time></trkpt><trkpt lat="44.00198685727568" lon="12.663055793015655"><ele>3.0</ele><time>2026-05-02T18:40:52Z</time></trkpt><trkpt lat="44.001935912338986" lon="12.66313051249727"><ele>3.0</ele><time>2026-05-02T18:40:54Z</time></trkpt><trkpt lat="44.001891533795465" lon="12.663220494464717"><ele>3.0</ele><time>2026-05-02T18:40:56Z</time></trkpt><trkpt lat="44.00183925115531" lon="12.663304902290555"><ele>3.0</ele><time>2026-05-02T18:40:58Z</time></trkpt><trkpt lat="44.001789371139" lon="12.663391423951541"><ele>3.0</ele><time>2026-05-02T18:41:00Z</time></trkpt><trkpt lat="44.00174244086948" lon="12.663475113485651"><ele>3.0</ele><time>2026-05-02T18:41:02Z</time></trkpt><trkpt lat="44.00169579894375" lon="12.66355285344355"><ele>3.1666666666666665</ele><time>2026-05-02T18:41:04Z</time></trkpt><trkpt lat="44.001638707465986" lon="12.663634265813712"><ele>3.333333333333333</ele><time>2026-05-02T18:41:06Z</time></trkpt><trkpt lat="44.00159207649584" lon="12.663713753361192"><ele>3.5</ele><time>2026-05-02T18:41:08Z</time></trkpt><trkpt lat="44.001548079819116" lon="12.66378451073462"><ele>3.6666666666666665</ele><time>2026-05-02T18:41:10Z</time></trkpt><trkpt lat="44.00149521665281" lon="12.663853174329562"><ele>3.833333333333333</ele><time>2026-05-02T18:41:11.999Z</time></trkpt><trkpt lat="44.001440186978584" lon="12.663924219306006"><ele>4.0</ele><time>2026-05-02T18:41:13.999Z</time></trkpt><trkpt lat="44.001386444235266" lon="12.664007958169817"><ele>3.9999999999999996</ele><time>2026-05-02T18:41:15.999Z</time></trkpt><trkpt lat="44.00132962969285" lon="12.664085422736521"><ele>4.0</ele><time>2026-05-02T18:41:17.999Z</time></trkpt><trkpt lat="44.00126878224697" lon="12.664159768151455"><ele>4.0</ele><time>2026-05-02T18:41:19.999Z</time></trkpt><trkpt lat="44.0012141374727" lon="12.664237782705829"><ele>4.0</ele><time>2026-05-02T18:41:21.999Z</time></trkpt><trkpt lat="44.00116864072416" lon="12.664317493162368"><ele>3.9999999999999996</ele><time>2026-05-02T18:41:23.999Z</time></trkpt><trkpt lat="44.001126273233346" lon="12.664394339390194"><ele>4.0</ele><time>2026-05-02T18:41:25.999Z</time></trkpt><trkpt lat="44.00107832950486" lon="12.664462732013034"><ele>4.333333333333333</ele><time>2026-05-02T18:41:27.999Z</time></trkpt><trkpt lat="44.00101991566362" lon="12.664544306785567"><ele>4.666666666666666</ele><time>2026-05-02T18:41:29.999Z</time></trkpt><trkpt lat="44.00097383006816" lon="12.664632771434194"><ele>5.0</ele><time>2026-05-02T18:41:31.999Z</time></trkpt><trkpt lat="44.000923036099" lon="12.66471601919581"><ele>5.333333333333333</ele><time>2026-05-02T18:41:33.999Z</time></trkpt><trkpt lat="44.00088060274838" lon="12.66478810519211"><ele>5.666666666666667</ele><time>2026-05-02T18:41:35.999Z</time></trkpt><trkpt lat="44.00082209128987" lon="12.664889482594232"><ele>6.0</ele><time>2026-05-02T18:41:38.999Z</time></trkpt><trkpt lat="44.00077290078083" lon="12.664970557530973"><ele>5.999999999999999</ele><time>2026-05-02T18:41:40.999Z</time></trkpt><trkpt lat="44.00072302593179" lon="12.665040475469072"><ele>6.0</ele><time>2026-05-02T18:41:42.999Z</time></trkpt><trkpt lat="44.00067660416147" lon="12.665110236710964"><ele>6.0</ele><time>2026-05-02T18:41:44.999Z</time></trkpt><trkpt lat="44.000606322589476" lon="12.665193917214609"><ele>6.0</ele><time>2026-05-02T18:41:48Z</time></trkpt><trkpt lat="44.00056676059777" lon="12.665273490561894"><ele>6.0</ele><time>2026-05-02T18:41:50Z</time></trkpt><trkpt lat="44.00051474599674" lon="12.66534321910574"><ele>5.999999999999999</ele><time>2026-05-02T18:41:52Z</time></trkpt><trkpt lat="44.00046606944168" lon="12.665409043991104"><ele>6.0</ele><time>2026-05-02T18:41:54Z</time></trkpt><trkpt lat="44.00041284523728" lon="12.665482137504682"><ele>5.833333333333333</ele><time>2026-05-02T18:41:57Z</time></trkpt><trkpt lat="44.00036248342251" lon="12.665558075696019"><ele>5.666666666666667</ele><time>2026-05-02T18:42:00Z</time></trkpt><trkpt lat="44.00030118197087" lon="12.665652881314667"><ele>5.5</ele><time>2026-05-02T18:42:03Z</time></trkpt><trkpt lat="44.00024734072128" lon="12.665723659159307"><ele>5.333333333333334</ele><time>2026-05-02T18:42:05Z</time></trkpt><trkpt lat="44.000195074560665" lon="12.665817990111469"><ele>5.166666666666667</ele><time>2026-05-02T18:42:07Z</time></trkpt><trkpt lat="44.00014544783334" lon="12.665907789099816"><ele>5.0</ele><time>2026-05-02T18:42:09Z</time></trkpt><trkpt lat="44.000085723403984" lon="12.665991516613744"><ele>5.0</ele><time>2026-05-02T18:42:11Z</time></trkpt><trkpt lat="44.000028891290455" lon="12.666077656232158"><ele>5.0</ele><time>2026-05-02T18:42:13Z</time></trkpt><trkpt lat="43.99997909263721" lon="12.666164436146747"><ele>5.0</ele><time>2026-05-02T18:42:15Z</time></trkpt><trkpt lat="43.999932954067255" lon="12.666252514697291"><ele>5.0</ele><time>2026-05-02T18:42:17Z</time></trkpt><trkpt lat="43.99987896072636" lon="12.666337437627961"><ele>5.0</ele><time>2026-05-02T18:42:19Z</time></trkpt><trkpt lat="43.99981747883286" lon="12.66641243885464"><ele>5.0</ele><time>2026-05-02T18:42:21Z</time></trkpt><trkpt lat="43.99976958719838" lon="12.666486241704495"><ele>4.428571428571429</ele><time>2026-05-02T18:42:23Z</time></trkpt><trkpt lat="43.999724203672905" lon="12.666558633450986"><ele>3.857142857142857</ele><time>2026-05-02T18:42:25Z</time></trkpt><trkpt lat="43.99967647926392" lon="12.666635874844548"><ele>3.2857142857142856</ele><time>2026-05-02T18:42:27Z</time></trkpt><trkpt lat="43.999618319826546" lon="12.666706314160699"><ele>2.7142857142857144</ele><time>2026-05-02T18:42:29Z</time></trkpt><trkpt lat="43.999564336284976" lon="12.666780966940726"><ele>2.142857142857143</ele><time>2026-05-02T18:42:31Z</time></trkpt><trkpt lat="43.999505170071" lon="12.666860620016356"><ele>1.5714285714285714</ele><time>2026-05-02T18:42:33Z</time></trkpt><trkpt lat="43.999459990821705" lon="12.666936157689522"><ele>1.0</ele><time>2026-05-02T18:42:35Z</time></trkpt><trkpt lat="43.999395388510024" lon="12.667014753303958"><ele>0.8333333333333333</ele><time>2026-05-02T18:42:38Z</time></trkpt><trkpt lat="43.99934313321476" lon="12.667073953477269"><ele>0.6666666666666666</ele><time>2026-05-02T18:42:41Z</time></trkpt><trkpt lat="43.99928164152255" lon="12.667176239315175"><ele>0.5</ele><time>2026-05-02T18:42:44Z</time></trkpt><trkpt lat="43.99923659236453" lon="12.667262490168104"><ele>0.3333333333333333</ele><time>2026-05-02T18:42:46Z</time></trkpt><trkpt lat="43.99918756105875" lon="12.667348603109117"><ele>0.16666666666666666</ele><time>2026-05-02T18:42:48Z</time></trkpt><trkpt lat="43.999139043949015" lon="12.667435628608262"><ele>0.0</ele><time>2026-05-02T18:42:50Z</time></trkpt><trkpt lat="43.999079841671424" lon="12.66752187445993"><ele>0.16666666666666666</ele><time>2026-05-02T18:42:52Z</time></trkpt><trkpt lat="43.99902154593796" lon="12.667612512659543"><ele>0.3333333333333333</ele><time>2026-05-02T18:42:54Z</time></trkpt><trkpt lat="43.99896303481252" lon="12.667703380929199"><ele>0.5</ele><time>2026-05-02T18:42:56Z</time></trkpt><trkpt lat="43.99890183141957" lon="12.667794291979988"><ele>0.6666666666666666</ele><time>2026-05-02T18:42:58Z</time></trkpt><trkpt lat="43.99884135984113" lon="12.667880369082264"><ele>0.8333333333333333</ele><time>2026-05-02T18:43:00Z</time></trkpt><trkpt lat="43.99877423984804" lon="12.66797115489197"><ele>1.0</ele><time>2026-05-02T18:43:02Z</time></trkpt><trkpt lat="43.99870816916922" lon="12.66806079677066"><ele>0.9999999999999999</ele><time>2026-05-02T18:43:03.999Z</time></trkpt><trkpt lat="43.998645594786616" lon="12.668146039268864"><ele>1.0</ele><time>2026-05-02T18:43:05.999Z</time></trkpt><trkpt lat="43.99858324159375" lon="12.668229343755593"><ele>1.0</ele><time>2026-05-02T18:43:07.999Z</time></trkpt><trkpt lat="43.99853711296886" lon="12.668316264119866"><ele>1.0</ele><time>2026-05-02T18:43:09.999Z</time></trkpt><trkpt lat="43.99848778585531" lon="12.668387547475678"><ele>0.9999999999999999</ele><time>2026-05-02T18:43:11.999Z</time></trkpt><trkpt lat="43.99843035504933" lon="12.668464891908346"><ele>1.0</ele><time>2026-05-02T18:43:13.999Z</time></trkpt><trkpt lat="43.998388455531746" lon="12.668556281937978"><ele>0.9999999999999999</ele><time>2026-05-02T18:43:15.999Z</time></trkpt><trkpt lat="43.998338338031814" lon="12.668649791757733"><ele>1.0</ele><time>2026-05-02T18:43:17.999Z</time></trkpt><trkpt lat="43.998279332810064" lon="12.668742761534366"><ele>1.0</ele><time>2026-05-02T18:43:19.999Z</time></trkpt><trkpt lat="43.9982127262731" lon="12.668825782151762"><ele>1.0</ele><time>2026-05-02T18:43:21.999Z</time></trkpt><trkpt lat="43.99814141869586" lon="12.668916649903391"><ele>0.9999999999999999</ele><time>2026-05-02T18:43:23.999Z</time></trkpt><trkpt lat="43.99807978527553" lon="12.66900428499151"><ele>1.0</ele><time>2026-05-02T18:43:25.999Z</time></trkpt><trkpt lat="43.99801796275814" lon="12.66909972100503"><ele>0.9999999999999999</ele><time>2026-05-02T18:43:27.999Z</time></trkpt><trkpt lat="43.997952319383195" lon="12.66918596396104"><ele>1.0</ele><time>2026-05-02T18:43:29.999Z</time></trkpt><trkpt lat="43.99789572386413" lon="12.669271140684874"><ele>1.0</ele><time>2026-05-02T18:43:31.999Z</time></trkpt><trkpt lat="43.99784157106319" lon="12.669351915712165"><ele>1.0</ele><time>2026-05-02T18:43:33.999Z</time></trkpt><trkpt lat="43.99777987324183" lon="12.669444228408315"><ele>0.9999999999999999</ele><time>2026-05-02T18:43:35.999Z</time></trkpt><trkpt lat="43.99772147235273" lon="12.66952579005129"><ele>1.0</ele><time>2026-05-02T18:43:37.999Z</time></trkpt><trkpt lat="43.99766754300782" lon="12.669603394330087"><ele>0.9999999999999999</ele><time>2026-05-02T18:43:39.999Z</time></trkpt><trkpt lat="43.99762218262683" lon="12.669674283606412"><ele>1.0</ele><time>2026-05-02T18:43:41.999Z</time></trkpt><trkpt lat="43.99757463529776" lon="12.6697778058839"><ele>1.0</ele><time>2026-05-02T18:43:43.999Z</time></trkpt><trkpt lat="43.99752012901664" lon="12.669874703019728"><ele>1.0</ele><time>2026-05-02T18:43:45.999Z</time></trkpt><trkpt lat="43.997463980129915" lon="12.669974393801612"><ele>0.9999999999999999</ele><time>2026-05-02T18:43:47.999Z</time></trkpt><trkpt lat="43.99740108728034" lon="12.670066494767429"><ele>1.0</ele><time>2026-05-02T18:43:49.999Z</time></trkpt><trkpt lat="43.99733866083523" lon="12.670159774852847"><ele>0.9999999999999999</ele><time>2026-05-02T18:43:52Z</time></trkpt><trkpt lat="43.99727483952269" lon="12.670241346247753"><ele>1.0</ele><time>2026-05-02T18:43:54Z</time></trkpt><trkpt lat="43.997225089489234" lon="12.67032404654636"><ele>1.0</ele><time>2026-05-02T18:43:56Z</time></trkpt><trkpt lat="43.997182532163485" lon="12.67040530353865"><ele>1.0</ele><time>2026-05-02T18:43:58Z</time></trkpt><trkpt lat="43.99711497180281" lon="12.67049438224189"><ele>0.9999999999999999</ele><time>2026-05-02T18:44:01Z</time></trkpt><trkpt lat="43.997029804698585" lon="12.670522182954892"><ele>1.0</ele><time>2026-05-02T18:44:04Z</time></trkpt><trkpt lat="43.99696088009451" lon="12.670553043749726"><ele>0.8571428571428571</ele><time>2026-05-02T18:44:06Z</time></trkpt><trkpt lat="43.996896509134714" lon="12.670602647157608"><ele>0.7142857142857142</ele><time>2026-05-02T18:44:08Z</time></trkpt><trkpt lat="43.9968688559967" lon="12.670686094605104"><ele>0.5714285714285714</ele><time>2026-05-02T18:44:10Z</time></trkpt><trkpt lat="43.99689379691167" lon="12.670771679644686"><ele>0.42857142857142855</ele><time>2026-05-02T18:44:12Z</time></trkpt><trkpt lat="43.996948688417156" lon="12.670854430081656"><ele>0.2857142857142857</ele><time>2026-05-02T18:44:15Z</time></trkpt><trkpt lat="43.99696768131568" lon="12.670960116552935"><ele>0.14285714285714285</ele><time>2026-05-02T18:44:18Z</time></trkpt><trkpt lat="43.99695270349351" lon="12.67105609576292"><ele>0.0</ele><time>2026-05-02T18:44:20Z</time></trkpt><trkpt lat="43.996924713687676" lon="12.671142006565741"><ele>0.0</ele><time>2026-05-02T18:44:22Z</time></trkpt><trkpt lat="43.996875916759215" lon="12.671204450996338"><ele>0.0</ele><time>2026-05-02T18:44:24Z</time></trkpt><trkpt lat="43.996809172944346" lon="12.671254537839035"><ele>0.0</ele><time>2026-05-02T18:44:26Z</time></trkpt><trkpt lat="43.996734013568236" lon="12.671304068116038"><ele>0.0</ele><time>2026-05-02T18:44:28Z</time></trkpt><trkpt lat="43.9966767305536" lon="12.67137439721782"><ele>0.0</ele><time>2026-05-02T18:44:30Z</time></trkpt><trkpt lat="43.99661319486692" lon="12.671423025285788"><ele>0.0</ele><time>2026-05-02T18:44:32Z</time></trkpt><trkpt lat="43.9965448146751" lon="12.671453971516616"><ele>0.0</ele><time>2026-05-02T18:44:34Z</time></trkpt><trkpt lat="43.99647169841491" lon="12.671481355448286"><ele>0.16666666666666666</ele><time>2026-05-02T18:44:36Z</time></trkpt><trkpt lat="43.99638585339561" lon="12.67150400726324"><ele>0.3333333333333333</ele><time>2026-05-02T18:44:38Z</time></trkpt><trkpt lat="43.9963076975194" lon="12.671531420471103"><ele>0.5</ele><time>2026-05-02T18:44:40Z</time></trkpt><trkpt lat="43.9962291524251" lon="12.67156169419345"><ele>0.6666666666666666</ele><time>2026-05-02T18:44:42Z</time></trkpt><trkpt lat="43.99614792304799" lon="12.671578304286689"><ele>0.8333333333333333</ele><time>2026-05-02T18:44:44Z</time></trkpt><trkpt lat="43.99606984021651" lon="12.671590693804536"><ele>1.0</ele><time>2026-05-02T18:44:46Z</time></trkpt><trkpt lat="43.995994898369645" lon="12.671610721946161"><ele>1.0</ele><time>2026-05-02T18:44:48Z</time></trkpt><trkpt lat="43.995923960686866" lon="12.671633399785025"><ele>0.9999999999999999</ele><time>2026-05-02T18:44:50Z</time></trkpt><trkpt lat="43.99585529240813" lon="12.671644267035393"><ele>1.0</ele><time>2026-05-02T18:44:52Z</time></trkpt><trkpt lat="43.995789409579025" lon="12.671667189872213"><ele>1.0</ele><time>2026-05-02T18:44:54Z</time></trkpt><trkpt lat="43.99573274050433" lon="12.671707272753096"><ele>0.9999999999999999</ele><time>2026-05-02T18:44:56Z</time></trkpt><trkpt lat="43.99567940846983" lon="12.671792635716173"><ele>1.0</ele><time>2026-05-02T18:44:59Z</time></trkpt><trkpt lat="43.99569427960189" lon="12.671882583165841"><ele>1.0</ele><time>2026-05-02T18:45:03Z</time></trkpt><trkpt lat="43.99570595879924" lon="12.671968674229896"><ele>0.8571428571428571</ele><time>2026-05-02T18:45:06Z</time></trkpt><trkpt lat="43.99565108707851" lon="12.672011775192619"><ele>0.7142857142857142</ele><time>2026-05-02T18:45:09Z</time></trkpt><trkpt lat="43.99559391480552" lon="12.672062563529533"><ele>0.5714285714285714</ele><time>2026-05-02T18:45:11Z</time></trkpt><trkpt lat="43.99553870900431" lon="12.672152471913375"><ele>0.42857142857142855</ele><time>2026-05-02T18:45:14Z</time></trkpt><trkpt lat="43.99548801396343" lon="12.672211522737939"><ele>0.2857142857142857</ele><time>2026-05-02T18:45:16Z</time></trkpt><trkpt lat="43.99544209824437" lon="12.672283216806076"><ele>0.14285714285714285</ele><time>2026-05-02T18:45:18Z</time></trkpt><trkpt lat="43.99541612099938" lon="12.672366386065795"><ele>0.0</ele><time>2026-05-02T18:45:19.999Z</time></trkpt><trkpt lat="43.9953893130798" lon="12.672467315350943"><ele>0.0</ele><time>2026-05-02T18:45:22.999Z</time></trkpt><trkpt lat="43.99531841701971" lon="12.672493122204564"><ele>0.0</ele><time>2026-05-02T18:45:26.999Z</time></trkpt><trkpt lat="43.99526553827398" lon="12.672421232136545"><ele>0.0</ele><time>2026-05-02T18:45:29.999Z</time></trkpt><trkpt lat="43.99518607488919" lon="12.672519092577252"><ele>0.0</ele><time>2026-05-02T18:45:32.999Z</time></trkpt><trkpt lat="43.9951316038515" lon="12.672612080174977"><ele>0.0</ele><time>2026-05-02T18:45:35.999Z</time></trkpt><trkpt lat="43.99506573038247" lon="12.672702255486225"><ele>0.0</ele><time>2026-05-02T18:45:38.999Z</time></trkpt><trkpt lat="43.99501357536386" lon="12.672768636546751"><ele>0.0</ele><time>2026-05-02T18:45:40.999Z</time></trkpt><trkpt lat="43.9949669185451" lon="12.672838738401117"><ele>0.0</ele><time>2026-05-02T18:45:42.999Z</time></trkpt><trkpt lat="43.9949040164011" lon="12.672929384276141"><ele>0.0</ele><time>2026-05-02T18:45:45.999Z</time></trkpt><trkpt lat="43.99484364490589" lon="12.673026734233307"><ele>0.0</ele><time>2026-05-02T18:45:48.999Z</time></trkpt><trkpt lat="43.994788733555886" lon="12.673107846440164"><ele>0.0</ele><time>2026-05-02T18:45:50.999Z</time></trkpt><trkpt lat="43.99473473116076" lon="12.673180427411028"><ele>0.0</ele><time>2026-05-02T18:45:52.999Z</time></trkpt><trkpt lat="43.994689915693506" lon="12.673256855499648"><ele>0.0</ele><time>2026-05-02T18:45:54.999Z</time></trkpt><trkpt lat="43.99463711415395" lon="12.673328208314162"><ele>0.0</ele><time>2026-05-02T18:45:56.999Z</time></trkpt><trkpt lat="43.99458179413326" lon="12.673409518046585"><ele>0.0</ele><time>2026-05-02T18:45:59Z</time></trkpt><trkpt lat="43.994525793511706" lon="12.673497997812452"><ele>0.0</ele><time>2026-05-02T18:46:01Z</time></trkpt><trkpt lat="43.99447015257789" lon="12.673576427056208"><ele>0.0</ele><time>2026-05-02T18:46:03Z</time></trkpt><trkpt lat="43.994410880739586" lon="12.673661759567645"><ele>0.0</ele><time>2026-05-02T18:46:05Z</time></trkpt><trkpt lat="43.99435120308257" lon="12.673749701068159"><ele>0.16666666666666666</ele><time>2026-05-02T18:46:07Z</time></trkpt><trkpt lat="43.994290853808785" lon="12.673846769071798"><ele>0.3333333333333333</ele><time>2026-05-02T18:46:09Z</time></trkpt><trkpt lat="43.99422854651644" lon="12.673932304980902"><ele>0.5</ele><time>2026-05-02T18:46:11Z</time></trkpt><trkpt lat="43.99417433120463" lon="12.674017748087904"><ele>0.6666666666666666</ele><time>2026-05-02T18:46:13Z</time></trkpt><trkpt lat="43.99412173299084" lon="12.674097415691866"><ele>0.8333333333333333</ele><time>2026-05-02T18:46:15Z</time></trkpt><trkpt lat="43.99407705838149" lon="12.67418058732308"><ele>1.0</ele><time>2026-05-02T18:46:17Z</time></trkpt><trkpt lat="43.994028033999875" lon="12.674258814159877"><ele>1.1666666666666665</ele><time>2026-05-02T18:46:19Z</time></trkpt><trkpt lat="43.99397711826332" lon="12.674333550698394"><ele>1.3333333333333333</ele><time>2026-05-02T18:46:21Z</time></trkpt><trkpt lat="43.993930108261964" lon="12.674406449392848"><ele>1.5</ele><time>2026-05-02T18:46:23Z</time></trkpt><trkpt lat="43.99388165433802" lon="12.674496541340577"><ele>1.6666666666666665</ele><time>2026-05-02T18:46:25Z</time></trkpt><trkpt lat="43.99383148094648" lon="12.674578365458556"><ele>1.8333333333333333</ele><time>2026-05-02T18:46:27Z</time></trkpt><trkpt lat="43.993778978084066" lon="12.674657153724388"><ele>2.0</ele><time>2026-05-02T18:46:29Z</time></trkpt><trkpt lat="43.99371768990481" lon="12.67474835825677"><ele>1.6666666666666665</ele><time>2026-05-02T18:46:31Z</time></trkpt><trkpt lat="43.99365900661982" lon="12.67483636911893"><ele>1.3333333333333333</ele><time>2026-05-02T18:46:33Z</time></trkpt><trkpt lat="43.993605213462125" lon="12.674926997896137"><ele>1.0</ele><time>2026-05-02T18:46:35Z</time></trkpt><trkpt lat="43.99355343108935" lon="12.675007448914487"><ele>0.6666666666666666</ele><time>2026-05-02T18:46:37Z</time></trkpt><trkpt lat="43.99350226400113" lon="12.675083439032166"><ele>0.3333333333333333</ele><time>2026-05-02T18:46:39Z</time></trkpt><trkpt lat="43.993457624860305" lon="12.67515973535056"><ele>0.0</ele><time>2026-05-02T18:46:41Z</time></trkpt><trkpt lat="43.99340113181876" lon="12.675258391782412"><ele>0.6666666666666666</ele><time>2026-05-02T18:46:44Z</time></trkpt><trkpt lat="43.99333552530689" lon="12.675340419862854"><ele>1.3333333333333333</ele><time>2026-05-02T18:46:47Z</time></trkpt><trkpt lat="43.99329296301524" lon="12.675411437358985"><ele>2.0</ele><time>2026-05-02T18:46:49Z</time></trkpt><trkpt lat="43.99325319831395" lon="12.675490242202152"><ele>2.6666666666666665</ele><time>2026-05-02T18:46:51Z</time></trkpt><trkpt lat="43.99320575272584" lon="12.675570730056283"><ele>3.333333333333333</ele><time>2026-05-02T18:46:53Z</time></trkpt><trkpt lat="43.993148072703676" lon="12.675647711721632"><ele>4.0</ele><time>2026-05-02T18:46:55Z</time></trkpt><trkpt lat="43.99308932693803" lon="12.675725379330618"><ele>3.9999999999999996</ele><time>2026-05-02T18:46:57Z</time></trkpt><trkpt lat="43.99303380782329" lon="12.675804611718906"><ele>4.0</ele><time>2026-05-02T18:46:59Z</time></trkpt><trkpt lat="43.992999159012385" lon="12.675883557212154"><ele>4.0</ele><time>2026-05-02T18:47:01Z</time></trkpt><trkpt lat="43.992975797582396" lon="12.675978498418376"><ele>4.0</ele><time>2026-05-02T18:47:06Z</time></trkpt><trkpt lat="43.99304644967666" lon="12.676047015660917"><ele>3.9999999999999996</ele><time>2026-05-02T18:47:11Z</time></trkpt><trkpt lat="43.99312028322974" lon="12.676103737697035"><ele>4.0</ele><time>2026-05-02T18:47:14Z</time></trkpt><trkpt lat="43.99317837045813" lon="12.676154851778897"><ele>3.4999999999999996</ele><time>2026-05-02T18:47:16Z</time></trkpt><trkpt lat="43.993235630564136" lon="12.676211920798158"><ele>3.0</ele><time>2026-05-02T18:47:18Z</time></trkpt><trkpt lat="43.993293229157814" lon="12.676290747685597"><ele>2.5</ele><time>2026-05-02T18:47:19.999Z</time></trkpt><trkpt lat="43.993232695900154" lon="12.67635183574492"><ele>2.0</ele><time>2026-05-02T18:47:23.999Z</time></trkpt><trkpt lat="43.99316568862337" lon="12.676431254652455"><ele>1.5</ele><time>2026-05-02T18:47:26.999Z</time></trkpt><trkpt lat="43.99312925698979" lon="12.676528619744863"><ele>1.0</ele><time>2026-05-02T18:47:29.999Z</time></trkpt><trkpt lat="43.99307894679034" lon="12.676615304757616"><ele>0.9999999999999999</ele><time>2026-05-02T18:47:32.999Z</time></trkpt><trkpt lat="43.993027820364375" lon="12.676699495513029"><ele>1.0</ele><time>2026-05-02T18:47:35.999Z</time></trkpt><trkpt lat="43.9929804809132" lon="12.676797279278897"><ele>1.0</ele><time>2026-05-02T18:47:38.999Z</time></trkpt><trkpt lat="43.9929218981317" lon="12.67687838315971"><ele>1.0</ele><time>2026-05-02T18:47:41.999Z</time></trkpt><trkpt lat="43.99287975717361" lon="12.6769589398867"><ele>0.9999999999999999</ele><time>2026-05-02T18:47:44.999Z</time></trkpt><trkpt lat="43.99281648613904" lon="12.677048951829727"><ele>1.0</ele><time>2026-05-02T18:47:47.999Z</time></trkpt><trkpt lat="43.99277603229312" lon="12.677118903473783"><ele>0.8571428571428571</ele><time>2026-05-02T18:47:49.999Z</time></trkpt><trkpt lat="43.99273509182494" lon="12.677192022109079"><ele>0.7142857142857142</ele><time>2026-05-02T18:47:51.999Z</time></trkpt><trkpt lat="43.992695993867756" lon="12.677266169629375"><ele>0.5714285714285714</ele><time>2026-05-02T18:47:53.999Z</time></trkpt><trkpt lat="43.99264054578853" lon="12.677359775058418"><ele>0.42857142857142855</ele><time>2026-05-02T18:47:56.999Z</time></trkpt><trkpt lat="43.99259174906363" lon="12.677446042479238"><ele>0.2857142857142857</ele><time>2026-05-02T18:47:59.999Z</time></trkpt><trkpt lat="43.99254693223093" lon="12.67753090126774"><ele>0.14285714285714285</ele><time>2026-05-02T18:48:02.999Z</time></trkpt><trkpt lat="43.992497212677414" lon="12.677585775322635"><ele>0.0</ele><time>2026-05-02T18:48:05Z</time></trkpt><trkpt lat="43.99244980910576" lon="12.677653208395522"><ele>0.0</ele><time>2026-05-02T18:48:07Z</time></trkpt><trkpt lat="43.99240952543625" lon="12.677728584854764"><ele>0.0</ele><time>2026-05-02T18:48:09Z</time></trkpt><trkpt lat="43.99236047434503" lon="12.677838071078844"><ele>0.0</ele><time>2026-05-02T18:48:12Z</time></trkpt><trkpt lat="43.99232402228369" lon="12.677912101628921"><ele>0.0</ele><time>2026-05-02T18:48:14Z</time></trkpt><trkpt lat="43.992274135221315" lon="12.677984321426282"><ele>0.0</ele><time>2026-05-02T18:48:16Z</time></trkpt><trkpt lat="43.99223055012201" lon="12.67805501662172"><ele>0.0</ele><time>2026-05-02T18:48:18Z</time></trkpt><trkpt lat="43.992185834295036" lon="12.678124616035655"><ele>0.0</ele><time>2026-05-02T18:48:20Z</time></trkpt><trkpt lat="43.99213528990378" lon="12.678223245810553"><ele>0.0</ele><time>2026-05-02T18:48:23Z</time></trkpt><trkpt lat="43.992081718158516" lon="12.678305694084944"><ele>0.0</ele><time>2026-05-02T18:48:26Z</time></trkpt><trkpt lat="43.99202782402611" lon="12.678397869778733"><ele>0.0</ele><time>2026-05-02T18:48:29Z</time></trkpt><trkpt lat="43.991984126638755" lon="12.67846401004556"><ele>0.0</ele><time>2026-05-02T18:48:31Z</time></trkpt><trkpt lat="43.99194053417347" lon="12.678537773435844"><ele>0.0</ele><time>2026-05-02T18:48:33Z</time></trkpt><trkpt lat="43.99190030470741" lon="12.678616694553108"><ele>0.0</ele><time>2026-05-02T18:48:35Z</time></trkpt><trkpt lat="43.991854465400124" lon="12.67870054600257"><ele>0.0</ele><time>2026-05-02T18:48:37Z</time></trkpt><trkpt lat="43.991804226132004" lon="12.678772049561232"><ele>0.0</ele><time>2026-05-02T18:48:39Z</time></trkpt><trkpt lat="43.991755752908816" lon="12.678846007999944"><ele>0.0</ele><time>2026-05-02T18:48:41Z</time></trkpt><trkpt lat="43.99170844312303" lon="12.678920314404742"><ele>0.0</ele><time>2026-05-02T18:48:43Z</time></trkpt><trkpt lat="43.99166451730778" lon="12.678985916126885"><ele>0.0</ele><time>2026-05-02T18:48:45Z</time></trkpt><trkpt lat="43.991621144887944" lon="12.679068530685617"><ele>0.0</ele><time>2026-05-02T18:48:47Z</time></trkpt><trkpt lat="43.99157683408484" lon="12.67916164673786"><ele>0.0</ele><time>2026-05-02T18:48:49Z</time></trkpt><trkpt lat="43.99152195319355" lon="12.679243615669057"><ele>0.0</ele><time>2026-05-02T18:48:51Z</time></trkpt><trkpt lat="43.99148040072439" lon="12.679323658057303"><ele>0.0</ele><time>2026-05-02T18:48:53Z</time></trkpt><trkpt lat="43.99142303468564" lon="12.679426650613905"><ele>0.0</ele><time>2026-05-02T18:48:56Z</time></trkpt><trkpt lat="43.991376437001" lon="12.67948867634851"><ele>0.0</ele><time>2026-05-02T18:48:58Z</time></trkpt><trkpt lat="43.991331190497654" lon="12.679566684816535"><ele>0.0</ele><time>2026-05-02T18:49:00Z</time></trkpt><trkpt lat="43.991280320804485" lon="12.679642654049179"><ele>0.0</ele><time>2026-05-02T18:49:02Z</time></trkpt><trkpt lat="43.99122941760121" lon="12.679707718684762"><ele>0.0</ele><time>2026-05-02T18:49:04Z</time></trkpt><trkpt lat="43.991184074980794" lon="12.67977837421517"><ele>0.0</ele><time>2026-05-02T18:49:06Z</time></trkpt><trkpt lat="43.991142970714115" lon="12.679860723859651"><ele>0.0</ele><time>2026-05-02T18:49:08Z</time></trkpt><trkpt lat="43.9911052264758" lon="12.679951454721538"><ele>0.0</ele><time>2026-05-02T18:49:10Z</time></trkpt><trkpt lat="43.99105596361749" lon="12.680039405353723"><ele>0.0</ele><time>2026-05-02T18:49:12Z</time></trkpt><trkpt lat="43.9910079617564" lon="12.680109685919046"><ele>0.0</ele><time>2026-05-02T18:49:14Z</time></trkpt><trkpt lat="43.99096658961292" lon="12.68017986232269"><ele>0.0</ele><time>2026-05-02T18:49:16Z</time></trkpt><trkpt lat="43.99091876116946" lon="12.680256009926627"><ele>0.0</ele><time>2026-05-02T18:49:18Z</time></trkpt><trkpt lat="43.9908743094409" lon="12.68035046562392"><ele>0.0</ele><time>2026-05-02T18:49:20Z</time></trkpt><trkpt lat="43.99083322528403" lon="12.680444560099735"><ele>0.16666666666666666</ele><time>2026-05-02T18:49:21.999Z</time></trkpt><trkpt lat="43.990780516358875" lon="12.680532328979833"><ele>0.3333333333333333</ele><time>2026-05-02T18:49:23.999Z</time></trkpt><trkpt lat="43.990726697051706" lon="12.680614136391764"><ele>0.5</ele><time>2026-05-02T18:49:25.999Z</time></trkpt><trkpt lat="43.99067691441087" lon="12.68068804603847"><ele>0.6666666666666666</ele><time>2026-05-02T18:49:27.999Z</time></trkpt><trkpt lat="43.99063455559946" lon="12.680771864226399"><ele>0.8333333333333333</ele><time>2026-05-02T18:49:29.999Z</time></trkpt><trkpt lat="43.99058965345338" lon="12.680857692264023"><ele>1.0</ele><time>2026-05-02T18:49:31.999Z</time></trkpt><trkpt lat="43.99053906764934" lon="12.680938479667157"><ele>1.0</ele><time>2026-05-02T18:49:33.999Z</time></trkpt><trkpt lat="43.990491703085674" lon="12.68101436518861"><ele>0.9999999999999999</ele><time>2026-05-02T18:49:35.999Z</time></trkpt><trkpt lat="43.99044718784818" lon="12.68109480675635"><ele>1.0</ele><time>2026-05-02T18:49:37.999Z</time></trkpt><trkpt lat="43.99040485257711" lon="12.681175922582412"><ele>1.0</ele><time>2026-05-02T18:49:39.999Z</time></trkpt><trkpt lat="43.99035955889426" lon="12.681256702237201"><ele>0.9999999999999999</ele><time>2026-05-02T18:49:41.999Z</time></trkpt><trkpt lat="43.990310322471224" lon="12.681341455022839"><ele>1.0</ele><time>2026-05-02T18:49:43.999Z</time></trkpt><trkpt lat="43.990258926289755" lon="12.681409995943955"><ele>1.0</ele><time>2026-05-02T18:49:45.999Z</time></trkpt><trkpt lat="43.99021774213287" lon="12.681481473476914"><ele>0.8571428571428571</ele><time>2026-05-02T18:49:47.999Z</time></trkpt><trkpt lat="43.99018059659801" lon="12.681567498795514"><ele>0.7142857142857142</ele><time>2026-05-02T18:49:49.999Z</time></trkpt><trkpt lat="43.99014155009877" lon="12.68164411271996"><ele>0.5714285714285714</ele><time>2026-05-02T18:49:51.999Z</time></trkpt><trkpt lat="43.990101543530024" lon="12.681727832575707"><ele>0.42857142857142855</ele><time>2026-05-02T18:49:53.999Z</time></trkpt><trkpt lat="43.990060116434876" lon="12.681799300061376"><ele>0.2857142857142857</ele><time>2026-05-02T18:49:55.999Z</time></trkpt><trkpt lat="43.989998892450146" lon="12.681825643042172"><ele>0.14285714285714285</ele><time>2026-05-02T18:49:58.999Z</time></trkpt><trkpt lat="43.98993299448817" lon="12.681772955975415"><ele>0.0</ele><time>2026-05-02T18:50:03.999Z</time></trkpt><trkpt lat="43.98987919073647" lon="12.68171953454128"><ele>0.16666666666666666</ele><time>2026-05-02T18:50:07.999Z</time></trkpt><trkpt lat="43.989793868265075" lon="12.68179257027704"><ele>0.3333333333333333</ele><time>2026-05-02T18:50:11Z</time></trkpt><trkpt lat="43.9897524136983" lon="12.681874318695483"><ele>0.5</ele><time>2026-05-02T18:50:13Z</time></trkpt><trkpt lat="43.98976937541985" lon="12.681996656981994"><ele>0.6666666666666666</ele><time>2026-05-02T18:50:16Z</time></trkpt><trkpt lat="43.98982468681734" lon="12.682041104813077"><ele>0.8333333333333333</ele><time>2026-05-02T18:50:18Z</time></trkpt><trkpt lat="43.98988714513939" lon="12.682126971771286"><ele>1.0</ele><time>2026-05-02T18:50:21Z</time></trkpt><trkpt lat="43.98984941932775" lon="12.682234177233678"><ele>1.0</ele><time>2026-05-02T18:50:24Z</time></trkpt><trkpt lat="43.989811945325066" lon="12.682310051782332"><ele>0.9999999999999999</ele><time>2026-05-02T18:50:26Z</time></trkpt><trkpt lat="43.98976745120523" lon="12.682384563164506"><ele>1.0</ele><time>2026-05-02T18:50:28Z</time></trkpt><trkpt lat="43.989722195855514" lon="12.682460591595907"><ele>1.0</ele><time>2026-05-02T18:50:30Z</time></trkpt><trkpt lat="43.98964517035235" lon="12.682498810813128"><ele>0.9999999999999999</ele><time>2026-05-02T18:50:33Z</time></trkpt><trkpt lat="43.98958513280252" lon="12.682448795320441"><ele>1.0</ele><time>2026-05-02T18:50:35Z</time></trkpt><trkpt lat="43.98952581974381" lon="12.682381211528469"><ele>1.0</ele><time>2026-05-02T18:50:37Z</time></trkpt><trkpt lat="43.98946397427287" lon="12.68234063880234"><ele>0.9999999999999999</ele><time>2026-05-02T18:50:39Z</time></trkpt><trkpt lat="43.98939437693847" lon="12.682286215998314"><ele>1.0</ele><time>2026-05-02T18:50:42Z</time></trkpt><trkpt lat="43.989335236339905" lon="12.682242227273145"><ele>1.0</ele><time>2026-05-02T18:50:45Z</time></trkpt><trkpt lat="43.989268037116844" lon="12.682225983791154"><ele>1.0</ele><time>2026-05-02T18:50:48Z</time></trkpt><trkpt lat="43.989196745745716" lon="12.682299081400693"><ele>0.9999999999999999</ele><time>2026-05-02T18:50:51Z</time></trkpt><trkpt lat="43.98915099222066" lon="12.682387501829874"><ele>1.0</ele><time>2026-05-02T18:50:54Z</time></trkpt><trkpt lat="43.98909278279295" lon="12.682494309707453"><ele>1.1666666666666665</ele><time>2026-05-02T18:50:57Z</time></trkpt><trkpt lat="43.989035775090066" lon="12.682602036030145"><ele>1.3333333333333333</ele><time>2026-05-02T18:51:00Z</time></trkpt><trkpt lat="43.98898890325806" lon="12.682685306246636"><ele>1.5</ele><time>2026-05-02T18:51:02Z</time></trkpt><trkpt lat="43.98894320956869" lon="12.682760082341169"><ele>1.6666666666666665</ele><time>2026-05-02T18:51:04Z</time></trkpt><trkpt lat="43.98890167206021" lon="12.682838989244036"><ele>1.8333333333333333</ele><time>2026-05-02T18:51:06Z</time></trkpt><trkpt lat="43.98885163138245" lon="12.682924111902777"><ele>2.0</ele><time>2026-05-02T18:51:08Z</time></trkpt><trkpt lat="43.98880476939572" lon="12.683011417277283"><ele>1.9999999999999998</ele><time>2026-05-02T18:51:10Z</time></trkpt><trkpt lat="43.98875650017716" lon="12.683100468754096"><ele>2.0</ele><time>2026-05-02T18:51:12Z</time></trkpt><trkpt lat="43.988703419281684" lon="12.68318376158311"><ele>2.0</ele><time>2026-05-02T18:51:14Z</time></trkpt><trkpt lat="43.988647883185834" lon="12.683270085503151"><ele>2.0</ele><time>2026-05-02T18:51:16Z</time></trkpt><trkpt lat="43.98859676466387" lon="12.683353570672038"><ele>1.9999999999999998</ele><time>2026-05-02T18:51:18Z</time></trkpt><trkpt lat="43.98855051054545" lon="12.683442043004103"><ele>2.0</ele><time>2026-05-02T18:51:20Z</time></trkpt><trkpt lat="43.988509347866106" lon="12.683528548625262"><ele>1.6666666666666665</ele><time>2026-05-02T18:51:22Z</time></trkpt><trkpt lat="43.98845242402802" lon="12.683625032800926"><ele>1.3333333333333333</ele><time>2026-05-02T18:51:24Z</time></trkpt><trkpt lat="43.988407898469816" lon="12.683722403074277"><ele>1.0</ele><time>2026-05-02T18:51:26Z</time></trkpt><trkpt lat="43.988360316213466" lon="12.683818501765359"><ele>0.6666666666666666</ele><time>2026-05-02T18:51:28Z</time></trkpt><trkpt lat="43.98830885029251" lon="12.683912355537789"><ele>0.3333333333333333</ele><time>2026-05-02T18:51:30Z</time></trkpt><trkpt lat="43.988251005805466" lon="12.684013406531038"><ele>0.0</ele><time>2026-05-02T18:51:31.999Z</time></trkpt><trkpt lat="43.98819435440036" lon="12.684115281395734"><ele>0.4</ele><time>2026-05-02T18:51:33.999Z</time></trkpt><trkpt lat="43.98813421004134" lon="12.684218345012889"><ele>0.8</ele><time>2026-05-02T18:51:35.999Z</time></trkpt><trkpt lat="43.98807916065796" lon="12.684325669517172"><ele>1.2000000000000002</ele><time>2026-05-02T18:51:37.999Z</time></trkpt><trkpt lat="43.98802307572014" lon="12.684425049572685"><ele>1.6</ele><time>2026-05-02T18:51:39.999Z</time></trkpt><trkpt lat="43.98796595501939" lon="12.684530455933238"><ele>2.0</ele><time>2026-05-02T18:51:41.999Z</time></trkpt><trkpt lat="43.98791165614887" lon="12.684630808971608"><ele>2.0</ele><time>2026-05-02T18:51:43.999Z</time></trkpt><trkpt lat="43.987856018518" lon="12.684729286936165"><ele>2.0</ele><time>2026-05-02T18:51:45.999Z</time></trkpt><trkpt lat="43.98779622932572" lon="12.6848361327353"><ele>2.0</ele><time>2026-05-02T18:51:47.999Z</time></trkpt><trkpt lat="43.98774167631927" lon="12.684943605684719"><ele>2.0</ele><time>2026-05-02T18:51:49.999Z</time></trkpt><trkpt lat="43.98768607102941" lon="12.685044365058356"><ele>2.0</ele><time>2026-05-02T18:51:51.999Z</time></trkpt><trkpt lat="43.987631728645496" lon="12.6851409670106"><ele>1.9999999999999998</ele><time>2026-05-02T18:51:53.999Z</time></trkpt><trkpt lat="43.98757548884703" lon="12.685237242385453"><ele>2.0</ele><time>2026-05-02T18:51:55.999Z</time></trkpt><trkpt lat="43.98751832592183" lon="12.685335539971426"><ele>2.0</ele><time>2026-05-02T18:51:57.999Z</time></trkpt><trkpt lat="43.98746184623799" lon="12.685431651790816"><ele>2.0</ele><time>2026-05-02T18:51:59.999Z</time></trkpt><trkpt lat="43.98740972845671" lon="12.685527623283615"><ele>1.9999999999999998</ele><time>2026-05-02T18:52:01.999Z</time></trkpt><trkpt lat="43.9873575370463" lon="12.6856236133594"><ele>2.0</ele><time>2026-05-02T18:52:03.999Z</time></trkpt><trkpt lat="43.98730376960021" lon="12.685724752406234"><ele>1.6666666666666665</ele><time>2026-05-02T18:52:05.999Z</time></trkpt><trkpt lat="43.987250492074665" lon="12.685825741561846"><ele>1.3333333333333333</ele><time>2026-05-02T18:52:07.999Z</time></trkpt><trkpt lat="43.98719365881105" lon="12.685920896711112"><ele>1.0</ele><time>2026-05-02T18:52:09.999Z</time></trkpt><trkpt lat="43.987135693459045" lon="12.686013291919751"><ele>0.6666666666666666</ele><time>2026-05-02T18:52:11.999Z</time></trkpt><trkpt lat="43.987090741275" lon="12.68611646698759"><ele>0.3333333333333333</ele><time>2026-05-02T18:52:13.999Z</time></trkpt><trkpt lat="43.98703686947378" lon="12.6862137411536"><ele>0.0</ele><time>2026-05-02T18:52:16Z</time></trkpt><trkpt lat="43.98698345462344" lon="12.686316385190965"><ele>0.0</ele><time>2026-05-02T18:52:18Z</time></trkpt><trkpt lat="43.986925653082665" lon="12.686415648716228"><ele>0.0</ele><time>2026-05-02T18:52:20Z</time></trkpt><trkpt lat="43.986872079994846" lon="12.686519715446432"><ele>0.0</ele><time>2026-05-02T18:52:22Z</time></trkpt><trkpt lat="43.986814341853005" lon="12.68662289760743"><ele>0.0</ele><time>2026-05-02T18:52:24Z</time></trkpt><trkpt lat="43.9867614377993" lon="12.686717567861812"><ele>0.0</ele><time>2026-05-02T18:52:26Z</time></trkpt><trkpt lat="43.98671205351863" lon="12.68680894323161"><ele>0.0</ele><time>2026-05-02T18:52:28Z</time></trkpt><trkpt lat="43.98666880987024" lon="12.686893517626663"><ele>-0.14285714285714285</ele><time>2026-05-02T18:52:30Z</time></trkpt><trkpt lat="43.986624329689676" lon="12.686979318023896"><ele>-0.2857142857142857</ele><time>2026-05-02T18:52:32Z</time></trkpt><trkpt lat="43.986587932983525" lon="12.68705445466865"><ele>-0.42857142857142855</ele><time>2026-05-02T18:52:34Z</time></trkpt><trkpt lat="43.98655075579562" lon="12.687125161840942"><ele>-0.5714285714285714</ele><time>2026-05-02T18:52:36Z</time></trkpt><trkpt lat="43.986496949347774" lon="12.68722745908358"><ele>-0.7142857142857142</ele><time>2026-05-02T18:52:39Z</time></trkpt><trkpt lat="43.98644222892079" lon="12.687310457860361"><ele>-0.8571428571428571</ele><time>2026-05-02T18:52:42Z</time></trkpt><trkpt lat="43.98639996294232" lon="12.687390409828886"><ele>-1.0</ele><time>2026-05-02T18:52:45Z</time></trkpt><trkpt lat="43.98635395374366" lon="12.68745335615359"><ele>-1.0</ele><time>2026-05-02T18:52:48Z</time></trkpt><trkpt lat="43.986286756486145" lon="12.687511503783437"><ele>-0.9999999999999999</ele><time>2026-05-02T18:52:53Z</time></trkpt><trkpt lat="43.9862129894205" lon="12.687543504840372"><ele>-1.0</ele><time>2026-05-02T18:52:57Z</time></trkpt><trkpt lat="43.986144625019485" lon="12.687494599903685"><ele>-1.0</ele><time>2026-05-02T18:53:01Z</time></trkpt><trkpt lat="43.986083678990845" lon="12.68745546491287"><ele>-0.9999999999999999</ele><time>2026-05-02T18:53:06Z</time></trkpt><trkpt lat="43.9860197791907" lon="12.687413347770036"><ele>-1.0</ele><time>2026-05-02T18:53:28Z</time></trkpt><trkpt lat="43.98597915071476" lon="12.687335393895642"><ele>-1.0</ele><time>2026-05-02T18:53:34Z</time></trkpt><trkpt lat="43.985940588013314" lon="12.687263237990448"><ele>-1.0</ele><time>2026-05-02T18:53:38.999Z</time></trkpt><trkpt lat="43.985877740918205" lon="12.687205150360583"><ele>-0.9999999999999999</ele><time>2026-05-02T18:53:43.999Z</time></trkpt><trkpt lat="43.985830848887616" lon="12.687141534394904"><ele>-1.0</ele><time>2026-05-02T18:53:47.999Z</time></trkpt><trkpt lat="43.985773574606434" lon="12.687078175899368"><ele>-1.0</ele><time>2026-05-02T18:53:51.999Z</time></trkpt><trkpt lat="43.98572370460421" lon="12.687023605809372"><ele>-0.9999999999999999</ele><time>2026-05-02T18:53:54.999Z</time></trkpt><trkpt lat="43.98566331203692" lon="12.68696016963253"><ele>-1.0</ele><time>2026-05-02T18:53:57.999Z</time></trkpt><trkpt lat="43.985599078901856" lon="12.68690085228607"><ele>-1.0</ele><time>2026-05-02T18:54:01.999Z</time></trkpt><trkpt lat="43.985550197357256" lon="12.686841440234902"><ele>-0.7142857142857142</ele><time>2026-05-02T18:54:04.999Z</time></trkpt><trkpt lat="43.98549288755714" lon="12.68677936416511"><ele>-0.4285714285714285</ele><time>2026-05-02T18:54:07.999Z</time></trkpt><trkpt lat="43.985433352238694" lon="12.68671641768244"><ele>-0.14285714285714285</ele><time>2026-05-02T18:54:10.999Z</time></trkpt><trkpt lat="43.98537918931923" lon="12.686649057793915"><ele>0.14285714285714285</ele><time>2026-05-02T18:54:13.999Z</time></trkpt><trkpt lat="43.985313438802756" lon="12.686590630950153"><ele>0.4285714285714285</ele><time>2026-05-02T18:54:16.999Z</time></trkpt><trkpt lat="43.98525837624453" lon="12.686530107006222"><ele>0.7142857142857142</ele><time>2026-05-02T18:54:19.999Z</time></trkpt><trkpt lat="43.98521042908805" lon="12.686468293788021"><ele>1.0</ele><time>2026-05-02T18:54:23Z</time></trkpt><trkpt lat="43.98515300245838" lon="12.686420337729492"><ele>1.0</ele><time>2026-05-02T18:54:26Z</time></trkpt><trkpt lat="43.9850900475183" lon="12.686350579815324"><ele>1.0</ele><time>2026-05-02T18:54:30Z</time></trkpt><trkpt lat="43.9850224129162" lon="12.686291815497132"><ele>1.0</ele><time>2026-05-02T18:54:34Z</time></trkpt><trkpt lat="43.98499230886828" lon="12.686201461578612"><ele>1.0</ele><time>2026-05-02T18:55:08Z</time></trkpt><trkpt lat="43.985027420377484" lon="12.686118849877507"><ele>1.0</ele><time>2026-05-02T18:55:23Z</time></trkpt></trkseg></trk></gpx>